<?xml version="1.0" encoding="UTF-8"?>
<gpx version="1.1" creator="https://www.youtrack.es" xsi:schemaLocation="http://www.topografix.com/GPX/1/1 http://www.topografix.com/GPX/1/1/gpx.xsd http://www.garmin.com/xmlschemas/GpxExtensions/v3 http://www.garmin.com/xmlschemas/GpxExtensionsv3.xsd http://www.garmin.com/xmlschemas/TrackPointExtension/v1 http://www.garmin.com/xmlschemas/TrackPointExtensionv1.xsd" xmlns:gpxtpx="http://www.garmin.com/xmlschemas/TrackPointExtension/v1" xmlns:gpxx="http://www.garmin.com/xmlschemas/GpxExtensions/v3" xmlns:xsi="http://www.w3.org/2001/XMLSchema-instance">
  <metadata>
    <link href="https://www.youtrack.es">
      <text>YouTrack.es</text>
    </link>
    <time>2026-05-10T12:10:43Z</time>
  </metadata>
  <trk>
    <src>https://www.youtrack.es</src>
    <link href="https://www.youtrack.es/ruta/37023-trail">
      <text>YouTrack.es</text>
    </link>
    <trkseg>
      <trkpt lat="42.325254" lon="-8.803988">
        <ele>107</ele>
        <time>1970-01-01T00:00:00.000Z</time>
      </trkpt>
      <trkpt lat="42.325254" lon="-8.803993">
        <ele>107</ele>
        <time>1970-01-01T00:00:01.000Z</time>
      </trkpt>
      <trkpt lat="42.325254" lon="-8.803999">
        <ele>107</ele>
        <time>1970-01-01T00:00:02.000Z</time>
      </trkpt>
      <trkpt lat="42.325255" lon="-8.804006">
        <ele>107</ele>
        <time>1970-01-01T00:00:03.000Z</time>
      </trkpt>
      <trkpt lat="42.325256" lon="-8.804017">
        <ele>107.2</ele>
        <time>1970-01-01T00:00:04.000Z</time>
      </trkpt>
      <trkpt lat="42.325256" lon="-8.804031">
        <ele>107.2</ele>
        <time>1970-01-01T00:00:05.000Z</time>
      </trkpt>
      <trkpt lat="42.32526" lon="-8.804043">
        <ele>107.2</ele>
        <time>1970-01-01T00:00:06.000Z</time>
      </trkpt>
      <trkpt lat="42.325261" lon="-8.804052">
        <ele>106.8</ele>
        <time>1970-01-01T00:00:07.000Z</time>
      </trkpt>
      <trkpt lat="42.325262" lon="-8.804064">
        <ele>106.6</ele>
        <time>1970-01-01T00:00:08.000Z</time>
      </trkpt>
      <trkpt lat="42.325264" lon="-8.804076">
        <ele>106.6</ele>
        <time>1970-01-01T00:00:09.000Z</time>
      </trkpt>
      <trkpt lat="42.325267" lon="-8.804088">
        <ele>106.6</ele>
        <time>1970-01-01T00:00:10.000Z</time>
      </trkpt>
      <trkpt lat="42.32527" lon="-8.8041">
        <ele>106.6</ele>
        <time>1970-01-01T00:00:11.000Z</time>
      </trkpt>
      <trkpt lat="42.325274" lon="-8.80412">
        <ele>106.6</ele>
        <time>1970-01-01T00:00:12.000Z</time>
      </trkpt>
      <trkpt lat="42.325277" lon="-8.804135">
        <ele>106.6</ele>
        <time>1970-01-01T00:00:13.000Z</time>
      </trkpt>
      <trkpt lat="42.325279" lon="-8.804155">
        <ele>106.8</ele>
        <time>1970-01-01T00:00:14.000Z</time>
      </trkpt>
      <trkpt lat="42.325285" lon="-8.804176">
        <ele>107</ele>
        <time>1970-01-01T00:00:15.000Z</time>
      </trkpt>
      <trkpt lat="42.325293" lon="-8.804201">
        <ele>107.2</ele>
        <time>1970-01-01T00:00:16.000Z</time>
      </trkpt>
      <trkpt lat="42.325298" lon="-8.804219">
        <ele>107.2</ele>
        <time>1970-01-01T00:00:17.000Z</time>
      </trkpt>
      <trkpt lat="42.325303" lon="-8.80423">
        <ele>107.2</ele>
        <time>1970-01-01T00:00:18.000Z</time>
      </trkpt>
      <trkpt lat="42.32531" lon="-8.804242">
        <ele>107.2</ele>
        <time>1970-01-01T00:00:19.000Z</time>
      </trkpt>
      <trkpt lat="42.325316" lon="-8.804255">
        <ele>107.4</ele>
        <time>1970-01-01T00:00:20.000Z</time>
      </trkpt>
      <trkpt lat="42.325323" lon="-8.804272">
        <ele>107.2</ele>
        <time>1970-01-01T00:00:21.000Z</time>
      </trkpt>
      <trkpt lat="42.325331" lon="-8.8043">
        <ele>107</ele>
        <time>1970-01-01T00:00:22.000Z</time>
      </trkpt>
      <trkpt lat="42.325337" lon="-8.804316">
        <ele>107</ele>
        <time>1970-01-01T00:00:23.000Z</time>
      </trkpt>
      <trkpt lat="42.325343" lon="-8.804332">
        <ele>107</ele>
        <time>1970-01-01T00:00:24.000Z</time>
      </trkpt>
      <trkpt lat="42.325352" lon="-8.804354">
        <ele>106.8</ele>
        <time>1970-01-01T00:00:25.000Z</time>
      </trkpt>
      <trkpt lat="42.325358" lon="-8.804372">
        <ele>106.8</ele>
        <time>1970-01-01T00:00:26.000Z</time>
      </trkpt>
      <trkpt lat="42.325362" lon="-8.80438">
        <ele>106.8</ele>
        <time>1970-01-01T00:00:27.000Z</time>
      </trkpt>
      <trkpt lat="42.325365" lon="-8.804387">
        <ele>106.8</ele>
        <time>1970-01-01T00:00:28.000Z</time>
      </trkpt>
      <trkpt lat="42.325369" lon="-8.804402">
        <ele>106.8</ele>
        <time>1970-01-01T00:00:29.000Z</time>
      </trkpt>
      <trkpt lat="42.32537" lon="-8.804412">
        <ele>106.8</ele>
        <time>1970-01-01T00:00:30.000Z</time>
      </trkpt>
      <trkpt lat="42.325371" lon="-8.80442">
        <ele>106.8</ele>
        <time>1970-01-01T00:00:31.000Z</time>
      </trkpt>
      <trkpt lat="42.325372" lon="-8.804432">
        <ele>106.8</ele>
        <time>1970-01-01T00:00:32.000Z</time>
      </trkpt>
      <trkpt lat="42.325374" lon="-8.804444">
        <ele>106.8</ele>
        <time>1970-01-01T00:00:33.000Z</time>
      </trkpt>
      <trkpt lat="42.325374" lon="-8.804457">
        <ele>106.8</ele>
        <time>1970-01-01T00:00:34.000Z</time>
      </trkpt>
      <trkpt lat="42.325373" lon="-8.804474">
        <ele>106.8</ele>
        <time>1970-01-01T00:00:35.000Z</time>
      </trkpt>
      <trkpt lat="42.325374" lon="-8.804487">
        <ele>106.8</ele>
        <time>1970-01-01T00:00:36.000Z</time>
      </trkpt>
      <trkpt lat="42.325375" lon="-8.8045">
        <ele>106.8</ele>
        <time>1970-01-01T00:00:37.000Z</time>
      </trkpt>
      <trkpt lat="42.325375" lon="-8.804513">
        <ele>106.6</ele>
        <time>1970-01-01T00:00:38.000Z</time>
      </trkpt>
      <trkpt lat="42.325376" lon="-8.80453">
        <ele>106.4</ele>
        <time>1970-01-01T00:00:39.000Z</time>
      </trkpt>
      <trkpt lat="42.325376" lon="-8.804547">
        <ele>106.2</ele>
        <time>1970-01-01T00:00:40.000Z</time>
      </trkpt>
      <trkpt lat="42.325376" lon="-8.804569">
        <ele>106.2</ele>
        <time>1970-01-01T00:00:41.000Z</time>
      </trkpt>
      <trkpt lat="42.325379" lon="-8.804584">
        <ele>106.2</ele>
        <time>1970-01-01T00:00:42.000Z</time>
      </trkpt>
      <trkpt lat="42.325377" lon="-8.804596">
        <ele>106.2</ele>
        <time>1970-01-01T00:00:43.000Z</time>
      </trkpt>
      <trkpt lat="42.325376" lon="-8.804602">
        <ele>106</ele>
        <time>1970-01-01T00:00:44.000Z</time>
      </trkpt>
      <trkpt lat="42.325373" lon="-8.804603">
        <ele>106</ele>
        <time>1970-01-01T00:00:45.000Z</time>
      </trkpt>
      <trkpt lat="42.325371" lon="-8.804603">
        <ele>106</ele>
        <time>1970-01-01T00:00:46.000Z</time>
      </trkpt>
      <trkpt lat="42.325368" lon="-8.804603">
        <ele>105.8</ele>
        <time>1970-01-01T00:00:47.000Z</time>
      </trkpt>
      <trkpt lat="42.325365" lon="-8.804603">
        <ele>105.8</ele>
        <time>1970-01-01T00:00:48.000Z</time>
      </trkpt>
      <trkpt lat="42.325363" lon="-8.804603">
        <ele>105.8</ele>
        <time>1970-01-01T00:00:49.000Z</time>
      </trkpt>
      <trkpt lat="42.325362" lon="-8.804607">
        <ele>105.8</ele>
        <time>1970-01-01T00:00:50.000Z</time>
      </trkpt>
      <trkpt lat="42.325363" lon="-8.804613">
        <ele>105.8</ele>
        <time>1970-01-01T00:00:51.000Z</time>
      </trkpt>
      <trkpt lat="42.325364" lon="-8.804622">
        <ele>105.8</ele>
        <time>1970-01-01T00:00:52.000Z</time>
      </trkpt>
      <trkpt lat="42.325366" lon="-8.804633">
        <ele>105.8</ele>
        <time>1970-01-01T00:00:53.000Z</time>
      </trkpt>
      <trkpt lat="42.325368" lon="-8.804638">
        <ele>106</ele>
        <time>1970-01-01T00:00:54.000Z</time>
      </trkpt>
      <trkpt lat="42.32537" lon="-8.804638">
        <ele>106</ele>
        <time>1970-01-01T00:00:55.000Z</time>
      </trkpt>
      <trkpt lat="42.325371" lon="-8.804637">
        <ele>106</ele>
        <time>1970-01-01T00:00:56.000Z</time>
      </trkpt>
      <trkpt lat="42.325372" lon="-8.804636">
        <ele>106</ele>
        <time>1970-01-01T00:00:57.000Z</time>
      </trkpt>
      <trkpt lat="42.325372" lon="-8.804636">
        <ele>106</ele>
        <time>1970-01-01T00:00:58.000Z</time>
      </trkpt>
      <trkpt lat="42.325372" lon="-8.804635">
        <ele>105.8</ele>
        <time>1970-01-01T00:00:59.000Z</time>
      </trkpt>
      <trkpt lat="42.325372" lon="-8.804634">
        <ele>105.8</ele>
        <time>1970-01-01T00:01:00.000Z</time>
      </trkpt>
      <trkpt lat="42.325371" lon="-8.804633">
        <ele>105.6</ele>
        <time>1970-01-01T00:01:01.000Z</time>
      </trkpt>
      <trkpt lat="42.325369" lon="-8.804632">
        <ele>105.6</ele>
        <time>1970-01-01T00:01:02.000Z</time>
      </trkpt>
      <trkpt lat="42.325367" lon="-8.804634">
        <ele>105.6</ele>
        <time>1970-01-01T00:01:03.000Z</time>
      </trkpt>
      <trkpt lat="42.325365" lon="-8.804635">
        <ele>105.6</ele>
        <time>1970-01-01T00:01:04.000Z</time>
      </trkpt>
      <trkpt lat="42.325362" lon="-8.804634">
        <ele>105.6</ele>
        <time>1970-01-01T00:01:05.000Z</time>
      </trkpt>
      <trkpt lat="42.32536" lon="-8.804627">
        <ele>105.6</ele>
        <time>1970-01-01T00:01:06.000Z</time>
      </trkpt>
      <trkpt lat="42.325356" lon="-8.804618">
        <ele>105.6</ele>
        <time>1970-01-01T00:01:07.000Z</time>
      </trkpt>
      <trkpt lat="42.325355" lon="-8.804612">
        <ele>105.6</ele>
        <time>1970-01-01T00:01:08.000Z</time>
      </trkpt>
      <trkpt lat="42.325353" lon="-8.804603">
        <ele>105.6</ele>
        <time>1970-01-01T00:01:09.000Z</time>
      </trkpt>
      <trkpt lat="42.325351" lon="-8.804589">
        <ele>105.8</ele>
        <time>1970-01-01T00:01:10.000Z</time>
      </trkpt>
      <trkpt lat="42.325349" lon="-8.804575">
        <ele>105.8</ele>
        <time>1970-01-01T00:01:11.000Z</time>
      </trkpt>
      <trkpt lat="42.325349" lon="-8.80456">
        <ele>105.8</ele>
        <time>1970-01-01T00:01:12.000Z</time>
      </trkpt>
      <trkpt lat="42.325349" lon="-8.804559">
        <ele>105.6</ele>
        <time>1970-01-01T00:01:13.000Z</time>
      </trkpt>
      <trkpt lat="42.325348" lon="-8.804561">
        <ele>105.4</ele>
        <time>1970-01-01T00:01:14.000Z</time>
      </trkpt>
      <trkpt lat="42.325348" lon="-8.804561">
        <ele>105.4</ele>
        <time>1970-01-01T00:01:15.000Z</time>
      </trkpt>
      <trkpt lat="42.325349" lon="-8.804565">
        <ele>105.4</ele>
        <time>1970-01-01T00:01:16.000Z</time>
      </trkpt>
      <trkpt lat="42.325356" lon="-8.804572">
        <ele>105.4</ele>
        <time>1970-01-01T00:01:17.000Z</time>
      </trkpt>
      <trkpt lat="42.325356" lon="-8.804577">
        <ele>105.4</ele>
        <time>1970-01-01T00:01:18.000Z</time>
      </trkpt>
      <trkpt lat="42.325355" lon="-8.804582">
        <ele>105.2</ele>
        <time>1970-01-01T00:01:19.000Z</time>
      </trkpt>
      <trkpt lat="42.325352" lon="-8.804593">
        <ele>105.2</ele>
        <time>1970-01-01T00:01:20.000Z</time>
      </trkpt>
      <trkpt lat="42.325348" lon="-8.804599">
        <ele>105.4</ele>
        <time>1970-01-01T00:01:21.000Z</time>
      </trkpt>
      <trkpt lat="42.325343" lon="-8.804605">
        <ele>105.4</ele>
        <time>1970-01-01T00:01:22.000Z</time>
      </trkpt>
      <trkpt lat="42.325337" lon="-8.804611">
        <ele>105.4</ele>
        <time>1970-01-01T00:01:23.000Z</time>
      </trkpt>
      <trkpt lat="42.325329" lon="-8.804615">
        <ele>105.4</ele>
        <time>1970-01-01T00:01:24.000Z</time>
      </trkpt>
      <trkpt lat="42.325318" lon="-8.804619">
        <ele>105.4</ele>
        <time>1970-01-01T00:01:25.000Z</time>
      </trkpt>
      <trkpt lat="42.325306" lon="-8.80462">
        <ele>105.4</ele>
        <time>1970-01-01T00:01:26.000Z</time>
      </trkpt>
      <trkpt lat="42.325296" lon="-8.804625">
        <ele>105.4</ele>
        <time>1970-01-01T00:01:27.000Z</time>
      </trkpt>
      <trkpt lat="42.325287" lon="-8.804625">
        <ele>105.2</ele>
        <time>1970-01-01T00:01:28.000Z</time>
      </trkpt>
      <trkpt lat="42.325275" lon="-8.804621">
        <ele>105.6</ele>
        <time>1970-01-01T00:01:29.000Z</time>
      </trkpt>
      <trkpt lat="42.325259" lon="-8.804605">
        <ele>105.6</ele>
        <time>1970-01-01T00:01:30.000Z</time>
      </trkpt>
      <trkpt lat="42.325244" lon="-8.804598">
        <ele>105.6</ele>
        <time>1970-01-01T00:01:31.000Z</time>
      </trkpt>
      <trkpt lat="42.325225" lon="-8.804599">
        <ele>105.8</ele>
        <time>1970-01-01T00:01:32.000Z</time>
      </trkpt>
      <trkpt lat="42.325205" lon="-8.804598">
        <ele>105.8</ele>
        <time>1970-01-01T00:01:33.000Z</time>
      </trkpt>
      <trkpt lat="42.325188" lon="-8.80459">
        <ele>105.8</ele>
        <time>1970-01-01T00:01:34.000Z</time>
      </trkpt>
      <trkpt lat="42.325162" lon="-8.804567">
        <ele>105.8</ele>
        <time>1970-01-01T00:01:35.000Z</time>
      </trkpt>
      <trkpt lat="42.325138" lon="-8.804551">
        <ele>106</ele>
        <time>1970-01-01T00:01:36.000Z</time>
      </trkpt>
      <trkpt lat="42.325115" lon="-8.804543">
        <ele>105.8</ele>
        <time>1970-01-01T00:01:37.000Z</time>
      </trkpt>
      <trkpt lat="42.325091" lon="-8.804529">
        <ele>105.8</ele>
        <time>1970-01-01T00:01:38.000Z</time>
      </trkpt>
      <trkpt lat="42.325073" lon="-8.804521">
        <ele>105.6</ele>
        <time>1970-01-01T00:01:39.000Z</time>
      </trkpt>
      <trkpt lat="42.325056" lon="-8.804516">
        <ele>106.8</ele>
        <time>1970-01-01T00:01:40.000Z</time>
      </trkpt>
      <trkpt lat="42.325041" lon="-8.80451">
        <ele>106.8</ele>
        <time>1970-01-01T00:01:41.000Z</time>
      </trkpt>
      <trkpt lat="42.325027" lon="-8.804502">
        <ele>106.8</ele>
        <time>1970-01-01T00:01:42.000Z</time>
      </trkpt>
      <trkpt lat="42.325019" lon="-8.804499">
        <ele>106.8</ele>
        <time>1970-01-01T00:01:43.000Z</time>
      </trkpt>
      <trkpt lat="42.325016" lon="-8.804496">
        <ele>106.8</ele>
        <time>1970-01-01T00:01:44.000Z</time>
      </trkpt>
      <trkpt lat="42.325014" lon="-8.804478">
        <ele>106.8</ele>
        <time>1970-01-01T00:01:45.000Z</time>
      </trkpt>
      <trkpt lat="42.325011" lon="-8.804442">
        <ele>106.8</ele>
        <time>1970-01-01T00:01:46.000Z</time>
      </trkpt>
      <trkpt lat="42.324994" lon="-8.80443">
        <ele>106.8</ele>
        <time>1970-01-01T00:01:47.000Z</time>
      </trkpt>
      <trkpt lat="42.324978" lon="-8.804412">
        <ele>106.8</ele>
        <time>1970-01-01T00:01:48.000Z</time>
      </trkpt>
      <trkpt lat="42.324962" lon="-8.804398">
        <ele>107</ele>
        <time>1970-01-01T00:01:49.000Z</time>
      </trkpt>
      <trkpt lat="42.324948" lon="-8.804389">
        <ele>107</ele>
        <time>1970-01-01T00:01:50.000Z</time>
      </trkpt>
      <trkpt lat="42.324939" lon="-8.804387">
        <ele>107</ele>
        <time>1970-01-01T00:01:51.000Z</time>
      </trkpt>
      <trkpt lat="42.324931" lon="-8.80439">
        <ele>107</ele>
        <time>1970-01-01T00:01:52.000Z</time>
      </trkpt>
      <trkpt lat="42.324924" lon="-8.804394">
        <ele>107</ele>
        <time>1970-01-01T00:01:53.000Z</time>
      </trkpt>
      <trkpt lat="42.32492" lon="-8.804394">
        <ele>107</ele>
        <time>1970-01-01T00:01:54.000Z</time>
      </trkpt>
      <trkpt lat="42.324914" lon="-8.804389">
        <ele>107</ele>
        <time>1970-01-01T00:01:55.000Z</time>
      </trkpt>
      <trkpt lat="42.324906" lon="-8.804378">
        <ele>107.2</ele>
        <time>1970-01-01T00:01:56.000Z</time>
      </trkpt>
      <trkpt lat="42.324898" lon="-8.804367">
        <ele>107.2</ele>
        <time>1970-01-01T00:01:57.000Z</time>
      </trkpt>
      <trkpt lat="42.324891" lon="-8.804359">
        <ele>107.2</ele>
        <time>1970-01-01T00:01:58.000Z</time>
      </trkpt>
      <trkpt lat="42.324885" lon="-8.804345">
        <ele>107.2</ele>
        <time>1970-01-01T00:01:59.000Z</time>
      </trkpt>
      <trkpt lat="42.324878" lon="-8.804339">
        <ele>107.2</ele>
        <time>1970-01-01T00:02:00.000Z</time>
      </trkpt>
      <trkpt lat="42.324871" lon="-8.804333">
        <ele>107.2</ele>
        <time>1970-01-01T00:02:01.000Z</time>
      </trkpt>
      <trkpt lat="42.324862" lon="-8.804327">
        <ele>107</ele>
        <time>1970-01-01T00:02:02.000Z</time>
      </trkpt>
      <trkpt lat="42.324856" lon="-8.804328">
        <ele>107</ele>
        <time>1970-01-01T00:02:03.000Z</time>
      </trkpt>
      <trkpt lat="42.324844" lon="-8.804328">
        <ele>107</ele>
        <time>1970-01-01T00:02:04.000Z</time>
      </trkpt>
      <trkpt lat="42.324834" lon="-8.804324">
        <ele>107</ele>
        <time>1970-01-01T00:02:05.000Z</time>
      </trkpt>
      <trkpt lat="42.324826" lon="-8.804323">
        <ele>107</ele>
        <time>1970-01-01T00:02:06.000Z</time>
      </trkpt>
      <trkpt lat="42.324817" lon="-8.804319">
        <ele>106.8</ele>
        <time>1970-01-01T00:02:07.000Z</time>
      </trkpt>
      <trkpt lat="42.324808" lon="-8.804312">
        <ele>106.8</ele>
        <time>1970-01-01T00:02:08.000Z</time>
      </trkpt>
      <trkpt lat="42.3248" lon="-8.804306">
        <ele>106.6</ele>
        <time>1970-01-01T00:02:09.000Z</time>
      </trkpt>
      <trkpt lat="42.324788" lon="-8.804289">
        <ele>106.6</ele>
        <time>1970-01-01T00:02:10.000Z</time>
      </trkpt>
      <trkpt lat="42.324775" lon="-8.804271">
        <ele>106.6</ele>
        <time>1970-01-01T00:02:11.000Z</time>
      </trkpt>
      <trkpt lat="42.324757" lon="-8.804256">
        <ele>106.6</ele>
        <time>1970-01-01T00:02:12.000Z</time>
      </trkpt>
      <trkpt lat="42.324742" lon="-8.804241">
        <ele>107</ele>
        <time>1970-01-01T00:02:13.000Z</time>
      </trkpt>
      <trkpt lat="42.324724" lon="-8.804225">
        <ele>107.2</ele>
        <time>1970-01-01T00:02:14.000Z</time>
      </trkpt>
      <trkpt lat="42.324706" lon="-8.80421">
        <ele>107.4</ele>
        <time>1970-01-01T00:02:15.000Z</time>
      </trkpt>
      <trkpt lat="42.32469" lon="-8.804193">
        <ele>107.6</ele>
        <time>1970-01-01T00:02:16.000Z</time>
      </trkpt>
      <trkpt lat="42.324675" lon="-8.804178">
        <ele>107.6</ele>
        <time>1970-01-01T00:02:17.000Z</time>
      </trkpt>
      <trkpt lat="42.324661" lon="-8.804165">
        <ele>107.8</ele>
        <time>1970-01-01T00:02:18.000Z</time>
      </trkpt>
      <trkpt lat="42.324646" lon="-8.804159">
        <ele>107.8</ele>
        <time>1970-01-01T00:02:19.000Z</time>
      </trkpt>
      <trkpt lat="42.324632" lon="-8.804161">
        <ele>107.8</ele>
        <time>1970-01-01T00:02:20.000Z</time>
      </trkpt>
      <trkpt lat="42.324618" lon="-8.80416">
        <ele>107.8</ele>
        <time>1970-01-01T00:02:21.000Z</time>
      </trkpt>
      <trkpt lat="42.324606" lon="-8.804169">
        <ele>107.8</ele>
        <time>1970-01-01T00:02:22.000Z</time>
      </trkpt>
      <trkpt lat="42.324596" lon="-8.804176">
        <ele>107.8</ele>
        <time>1970-01-01T00:02:23.000Z</time>
      </trkpt>
      <trkpt lat="42.324586" lon="-8.804186">
        <ele>107.8</ele>
        <time>1970-01-01T00:02:24.000Z</time>
      </trkpt>
      <trkpt lat="42.32458" lon="-8.804196">
        <ele>107.8</ele>
        <time>1970-01-01T00:02:25.000Z</time>
      </trkpt>
      <trkpt lat="42.324578" lon="-8.804203">
        <ele>108</ele>
        <time>1970-01-01T00:02:26.000Z</time>
      </trkpt>
      <trkpt lat="42.32458" lon="-8.804209">
        <ele>108</ele>
        <time>1970-01-01T00:02:27.000Z</time>
      </trkpt>
      <trkpt lat="42.32458" lon="-8.804209">
        <ele>108</ele>
        <time>1970-01-01T00:02:28.000Z</time>
      </trkpt>
      <trkpt lat="42.32458" lon="-8.804197">
        <ele>108</ele>
        <time>1970-01-01T00:02:29.000Z</time>
      </trkpt>
      <trkpt lat="42.324581" lon="-8.804181">
        <ele>108</ele>
        <time>1970-01-01T00:02:30.000Z</time>
      </trkpt>
      <trkpt lat="42.324581" lon="-8.804175">
        <ele>108</ele>
        <time>1970-01-01T00:02:31.000Z</time>
      </trkpt>
      <trkpt lat="42.324581" lon="-8.804169">
        <ele>108</ele>
        <time>1970-01-01T00:02:32.000Z</time>
      </trkpt>
      <trkpt lat="42.324582" lon="-8.804159">
        <ele>108</ele>
        <time>1970-01-01T00:02:33.000Z</time>
      </trkpt>
      <trkpt lat="42.32458" lon="-8.804153">
        <ele>108</ele>
        <time>1970-01-01T00:02:34.000Z</time>
      </trkpt>
      <trkpt lat="42.324579" lon="-8.804155">
        <ele>108</ele>
        <time>1970-01-01T00:02:35.000Z</time>
      </trkpt>
      <trkpt lat="42.324577" lon="-8.804152">
        <ele>108</ele>
        <time>1970-01-01T00:02:36.000Z</time>
      </trkpt>
      <trkpt lat="42.324575" lon="-8.804146">
        <ele>108</ele>
        <time>1970-01-01T00:02:37.000Z</time>
      </trkpt>
      <trkpt lat="42.324573" lon="-8.804144">
        <ele>108</ele>
        <time>1970-01-01T00:02:38.000Z</time>
      </trkpt>
      <trkpt lat="42.324573" lon="-8.804147">
        <ele>107.8</ele>
        <time>1970-01-01T00:02:39.000Z</time>
      </trkpt>
      <trkpt lat="42.324574" lon="-8.804148">
        <ele>107.8</ele>
        <time>1970-01-01T00:02:40.000Z</time>
      </trkpt>
      <trkpt lat="42.324576" lon="-8.804153">
        <ele>107.8</ele>
        <time>1970-01-01T00:02:41.000Z</time>
      </trkpt>
      <trkpt lat="42.324577" lon="-8.804154">
        <ele>107.6</ele>
        <time>1970-01-01T00:02:42.000Z</time>
      </trkpt>
      <trkpt lat="42.324577" lon="-8.804159">
        <ele>107.6</ele>
        <time>1970-01-01T00:02:43.000Z</time>
      </trkpt>
      <trkpt lat="42.324576" lon="-8.804159">
        <ele>107.6</ele>
        <time>1970-01-01T00:02:44.000Z</time>
      </trkpt>
      <trkpt lat="42.324573" lon="-8.804157">
        <ele>107.6</ele>
        <time>1970-01-01T00:02:45.000Z</time>
      </trkpt>
      <trkpt lat="42.32457" lon="-8.804155">
        <ele>107.6</ele>
        <time>1970-01-01T00:02:46.000Z</time>
      </trkpt>
      <trkpt lat="42.324568" lon="-8.804153">
        <ele>107.4</ele>
        <time>1970-01-01T00:02:47.000Z</time>
      </trkpt>
      <trkpt lat="42.324565" lon="-8.804152">
        <ele>107.4</ele>
        <time>1970-01-01T00:02:48.000Z</time>
      </trkpt>
      <trkpt lat="42.324564" lon="-8.804154">
        <ele>107.4</ele>
        <time>1970-01-01T00:02:49.000Z</time>
      </trkpt>
      <trkpt lat="42.324564" lon="-8.804156">
        <ele>107.4</ele>
        <time>1970-01-01T00:02:50.000Z</time>
      </trkpt>
      <trkpt lat="42.324565" lon="-8.804156">
        <ele>107.4</ele>
        <time>1970-01-01T00:02:51.000Z</time>
      </trkpt>
      <trkpt lat="42.324568" lon="-8.804153">
        <ele>107.4</ele>
        <time>1970-01-01T00:02:52.000Z</time>
      </trkpt>
      <trkpt lat="42.324577" lon="-8.804146">
        <ele>107.4</ele>
        <time>1970-01-01T00:02:53.000Z</time>
      </trkpt>
      <trkpt lat="42.324587" lon="-8.804143">
        <ele>107.2</ele>
        <time>1970-01-01T00:02:54.000Z</time>
      </trkpt>
      <trkpt lat="42.324597" lon="-8.80414">
        <ele>107.2</ele>
        <time>1970-01-01T00:02:55.000Z</time>
      </trkpt>
      <trkpt lat="42.324599" lon="-8.804144">
        <ele>107.2</ele>
        <time>1970-01-01T00:02:56.000Z</time>
      </trkpt>
      <trkpt lat="42.324608" lon="-8.804146">
        <ele>107.4</ele>
        <time>1970-01-01T00:02:57.000Z</time>
      </trkpt>
      <trkpt lat="42.324617" lon="-8.804143">
        <ele>107.4</ele>
        <time>1970-01-01T00:02:58.000Z</time>
      </trkpt>
      <trkpt lat="42.324624" lon="-8.804139">
        <ele>107.4</ele>
        <time>1970-01-01T00:02:59.000Z</time>
      </trkpt>
      <trkpt lat="42.324635" lon="-8.80414">
        <ele>107.4</ele>
        <time>1970-01-01T00:03:00.000Z</time>
      </trkpt>
      <trkpt lat="42.324645" lon="-8.804143">
        <ele>107.4</ele>
        <time>1970-01-01T00:03:01.000Z</time>
      </trkpt>
      <trkpt lat="42.324656" lon="-8.80415">
        <ele>107.2</ele>
        <time>1970-01-01T00:03:02.000Z</time>
      </trkpt>
      <trkpt lat="42.324667" lon="-8.804149">
        <ele>107.2</ele>
        <time>1970-01-01T00:03:03.000Z</time>
      </trkpt>
      <trkpt lat="42.324678" lon="-8.804147">
        <ele>107</ele>
        <time>1970-01-01T00:03:04.000Z</time>
      </trkpt>
      <trkpt lat="42.324686" lon="-8.804151">
        <ele>107.8</ele>
        <time>1970-01-01T00:03:05.000Z</time>
      </trkpt>
      <trkpt lat="42.324699" lon="-8.804165">
        <ele>107.8</ele>
        <time>1970-01-01T00:03:06.000Z</time>
      </trkpt>
      <trkpt lat="42.324708" lon="-8.804171">
        <ele>107.8</ele>
        <time>1970-01-01T00:03:07.000Z</time>
      </trkpt>
      <trkpt lat="42.324716" lon="-8.804173">
        <ele>107.8</ele>
        <time>1970-01-01T00:03:08.000Z</time>
      </trkpt>
      <trkpt lat="42.324719" lon="-8.804179">
        <ele>107.8</ele>
        <time>1970-01-01T00:03:09.000Z</time>
      </trkpt>
      <trkpt lat="42.324718" lon="-8.804174">
        <ele>107.8</ele>
        <time>1970-01-01T00:03:10.000Z</time>
      </trkpt>
      <trkpt lat="42.324712" lon="-8.80416">
        <ele>107.8</ele>
        <time>1970-01-01T00:03:11.000Z</time>
      </trkpt>
      <trkpt lat="42.324699" lon="-8.804149">
        <ele>107.8</ele>
        <time>1970-01-01T00:03:12.000Z</time>
      </trkpt>
      <trkpt lat="42.324685" lon="-8.804149">
        <ele>107.8</ele>
        <time>1970-01-01T00:03:13.000Z</time>
      </trkpt>
      <trkpt lat="42.324671" lon="-8.80415">
        <ele>107.6</ele>
        <time>1970-01-01T00:03:14.000Z</time>
      </trkpt>
      <trkpt lat="42.324656" lon="-8.804151">
        <ele>107.4</ele>
        <time>1970-01-01T00:03:15.000Z</time>
      </trkpt>
      <trkpt lat="42.324641" lon="-8.804152">
        <ele>107.4</ele>
        <time>1970-01-01T00:03:16.000Z</time>
      </trkpt>
      <trkpt lat="42.324626" lon="-8.804153">
        <ele>107.8</ele>
        <time>1970-01-01T00:03:17.000Z</time>
      </trkpt>
      <trkpt lat="42.324612" lon="-8.804149">
        <ele>107.8</ele>
        <time>1970-01-01T00:03:18.000Z</time>
      </trkpt>
      <trkpt lat="42.324597" lon="-8.804145">
        <ele>107.8</ele>
        <time>1970-01-01T00:03:19.000Z</time>
      </trkpt>
      <trkpt lat="42.324583" lon="-8.804144">
        <ele>107.8</ele>
        <time>1970-01-01T00:03:20.000Z</time>
      </trkpt>
      <trkpt lat="42.32457" lon="-8.804142">
        <ele>108</ele>
        <time>1970-01-01T00:03:21.000Z</time>
      </trkpt>
      <trkpt lat="42.324559" lon="-8.804148">
        <ele>108</ele>
        <time>1970-01-01T00:03:22.000Z</time>
      </trkpt>
      <trkpt lat="42.324547" lon="-8.804146">
        <ele>108</ele>
        <time>1970-01-01T00:03:23.000Z</time>
      </trkpt>
      <trkpt lat="42.324534" lon="-8.804142">
        <ele>108</ele>
        <time>1970-01-01T00:03:24.000Z</time>
      </trkpt>
      <trkpt lat="42.32452" lon="-8.804141">
        <ele>108</ele>
        <time>1970-01-01T00:03:25.000Z</time>
      </trkpt>
      <trkpt lat="42.32451" lon="-8.804138">
        <ele>108</ele>
        <time>1970-01-01T00:03:26.000Z</time>
      </trkpt>
      <trkpt lat="42.3245" lon="-8.804138">
        <ele>108</ele>
        <time>1970-01-01T00:03:27.000Z</time>
      </trkpt>
      <trkpt lat="42.324489" lon="-8.804139">
        <ele>107.8</ele>
        <time>1970-01-01T00:03:28.000Z</time>
      </trkpt>
      <trkpt lat="42.324482" lon="-8.804145">
        <ele>107.6</ele>
        <time>1970-01-01T00:03:29.000Z</time>
      </trkpt>
      <trkpt lat="42.324475" lon="-8.804151">
        <ele>107.6</ele>
        <time>1970-01-01T00:03:30.000Z</time>
      </trkpt>
      <trkpt lat="42.324467" lon="-8.804159">
        <ele>107.6</ele>
        <time>1970-01-01T00:03:31.000Z</time>
      </trkpt>
      <trkpt lat="42.324451" lon="-8.804178">
        <ele>107.6</ele>
        <time>1970-01-01T00:03:32.000Z</time>
      </trkpt>
      <trkpt lat="42.324439" lon="-8.804195">
        <ele>107.4</ele>
        <time>1970-01-01T00:03:33.000Z</time>
      </trkpt>
      <trkpt lat="42.324426" lon="-8.804211">
        <ele>107.4</ele>
        <time>1970-01-01T00:03:34.000Z</time>
      </trkpt>
      <trkpt lat="42.324414" lon="-8.804227">
        <ele>107.4</ele>
        <time>1970-01-01T00:03:35.000Z</time>
      </trkpt>
      <trkpt lat="42.324402" lon="-8.804246">
        <ele>107.4</ele>
        <time>1970-01-01T00:03:36.000Z</time>
      </trkpt>
      <trkpt lat="42.324394" lon="-8.804262">
        <ele>107.4</ele>
        <time>1970-01-01T00:03:37.000Z</time>
      </trkpt>
      <trkpt lat="42.324387" lon="-8.804278">
        <ele>107.2</ele>
        <time>1970-01-01T00:03:38.000Z</time>
      </trkpt>
      <trkpt lat="42.324381" lon="-8.804298">
        <ele>107</ele>
        <time>1970-01-01T00:03:39.000Z</time>
      </trkpt>
      <trkpt lat="42.324367" lon="-8.804313">
        <ele>106.8</ele>
        <time>1970-01-01T00:03:40.000Z</time>
      </trkpt>
      <trkpt lat="42.324354" lon="-8.804341">
        <ele>106.6</ele>
        <time>1970-01-01T00:03:41.000Z</time>
      </trkpt>
      <trkpt lat="42.324341" lon="-8.80436">
        <ele>106.4</ele>
        <time>1970-01-01T00:03:42.000Z</time>
      </trkpt>
      <trkpt lat="42.32433" lon="-8.804376">
        <ele>106.2</ele>
        <time>1970-01-01T00:03:43.000Z</time>
      </trkpt>
      <trkpt lat="42.324318" lon="-8.804388">
        <ele>106</ele>
        <time>1970-01-01T00:03:44.000Z</time>
      </trkpt>
      <trkpt lat="42.324305" lon="-8.804397">
        <ele>106</ele>
        <time>1970-01-01T00:03:45.000Z</time>
      </trkpt>
      <trkpt lat="42.324292" lon="-8.804406">
        <ele>106</ele>
        <time>1970-01-01T00:03:46.000Z</time>
      </trkpt>
      <trkpt lat="42.324282" lon="-8.804416">
        <ele>105.8</ele>
        <time>1970-01-01T00:03:47.000Z</time>
      </trkpt>
      <trkpt lat="42.324273" lon="-8.804432">
        <ele>105.8</ele>
        <time>1970-01-01T00:03:48.000Z</time>
      </trkpt>
      <trkpt lat="42.324265" lon="-8.804449">
        <ele>105.8</ele>
        <time>1970-01-01T00:03:49.000Z</time>
      </trkpt>
      <trkpt lat="42.324258" lon="-8.804467">
        <ele>105.6</ele>
        <time>1970-01-01T00:03:50.000Z</time>
      </trkpt>
      <trkpt lat="42.324253" lon="-8.804488">
        <ele>105.6</ele>
        <time>1970-01-01T00:03:51.000Z</time>
      </trkpt>
      <trkpt lat="42.324247" lon="-8.804506">
        <ele>105.4</ele>
        <time>1970-01-01T00:03:52.000Z</time>
      </trkpt>
      <trkpt lat="42.324237" lon="-8.804517">
        <ele>105.2</ele>
        <time>1970-01-01T00:03:53.000Z</time>
      </trkpt>
      <trkpt lat="42.324243" lon="-8.804524">
        <ele>105</ele>
        <time>1970-01-01T00:03:54.000Z</time>
      </trkpt>
      <trkpt lat="42.324239" lon="-8.804541">
        <ele>104.8</ele>
        <time>1970-01-01T00:03:55.000Z</time>
      </trkpt>
      <trkpt lat="42.324232" lon="-8.804561">
        <ele>104.6</ele>
        <time>1970-01-01T00:03:56.000Z</time>
      </trkpt>
      <trkpt lat="42.324224" lon="-8.804578">
        <ele>104.4</ele>
        <time>1970-01-01T00:03:57.000Z</time>
      </trkpt>
      <trkpt lat="42.324216" lon="-8.804589">
        <ele>104.2</ele>
        <time>1970-01-01T00:03:58.000Z</time>
      </trkpt>
      <trkpt lat="42.324205" lon="-8.8046">
        <ele>104.2</ele>
        <time>1970-01-01T00:03:59.000Z</time>
      </trkpt>
      <trkpt lat="42.324194" lon="-8.804613">
        <ele>104</ele>
        <time>1970-01-01T00:04:00.000Z</time>
      </trkpt>
      <trkpt lat="42.324183" lon="-8.804629">
        <ele>104</ele>
        <time>1970-01-01T00:04:01.000Z</time>
      </trkpt>
      <trkpt lat="42.324174" lon="-8.804648">
        <ele>103.8</ele>
        <time>1970-01-01T00:04:02.000Z</time>
      </trkpt>
      <trkpt lat="42.324164" lon="-8.804667">
        <ele>103.8</ele>
        <time>1970-01-01T00:04:03.000Z</time>
      </trkpt>
      <trkpt lat="42.324154" lon="-8.804687">
        <ele>103.8</ele>
        <time>1970-01-01T00:04:04.000Z</time>
      </trkpt>
      <trkpt lat="42.324146" lon="-8.804708">
        <ele>103.6</ele>
        <time>1970-01-01T00:04:05.000Z</time>
      </trkpt>
      <trkpt lat="42.324138" lon="-8.804728">
        <ele>103.4</ele>
        <time>1970-01-01T00:04:06.000Z</time>
      </trkpt>
      <trkpt lat="42.324135" lon="-8.80475">
        <ele>103.2</ele>
        <time>1970-01-01T00:04:07.000Z</time>
      </trkpt>
      <trkpt lat="42.324133" lon="-8.80477">
        <ele>103</ele>
        <time>1970-01-01T00:04:08.000Z</time>
      </trkpt>
      <trkpt lat="42.324129" lon="-8.804783">
        <ele>102.8</ele>
        <time>1970-01-01T00:04:09.000Z</time>
      </trkpt>
      <trkpt lat="42.324122" lon="-8.804796">
        <ele>102.8</ele>
        <time>1970-01-01T00:04:10.000Z</time>
      </trkpt>
      <trkpt lat="42.324115" lon="-8.804812">
        <ele>102.6</ele>
        <time>1970-01-01T00:04:11.000Z</time>
      </trkpt>
      <trkpt lat="42.324111" lon="-8.804827">
        <ele>102.4</ele>
        <time>1970-01-01T00:04:12.000Z</time>
      </trkpt>
      <trkpt lat="42.324108" lon="-8.804841">
        <ele>102.2</ele>
        <time>1970-01-01T00:04:13.000Z</time>
      </trkpt>
      <trkpt lat="42.324105" lon="-8.804853">
        <ele>102</ele>
        <time>1970-01-01T00:04:14.000Z</time>
      </trkpt>
      <trkpt lat="42.324103" lon="-8.804866">
        <ele>101.6</ele>
        <time>1970-01-01T00:04:15.000Z</time>
      </trkpt>
      <trkpt lat="42.3241" lon="-8.80488">
        <ele>101.4</ele>
        <time>1970-01-01T00:04:16.000Z</time>
      </trkpt>
      <trkpt lat="42.324095" lon="-8.804893">
        <ele>101.4</ele>
        <time>1970-01-01T00:04:17.000Z</time>
      </trkpt>
      <trkpt lat="42.324089" lon="-8.804904">
        <ele>100.8</ele>
        <time>1970-01-01T00:04:18.000Z</time>
      </trkpt>
      <trkpt lat="42.32408" lon="-8.804917">
        <ele>100.6</ele>
        <time>1970-01-01T00:04:19.000Z</time>
      </trkpt>
      <trkpt lat="42.324071" lon="-8.804928">
        <ele>100.6</ele>
        <time>1970-01-01T00:04:20.000Z</time>
      </trkpt>
      <trkpt lat="42.324063" lon="-8.804942">
        <ele>100.4</ele>
        <time>1970-01-01T00:04:21.000Z</time>
      </trkpt>
      <trkpt lat="42.324053" lon="-8.804954">
        <ele>100.4</ele>
        <time>1970-01-01T00:04:22.000Z</time>
      </trkpt>
      <trkpt lat="42.324046" lon="-8.804963">
        <ele>100</ele>
        <time>1970-01-01T00:04:23.000Z</time>
      </trkpt>
      <trkpt lat="42.324039" lon="-8.804972">
        <ele>100</ele>
        <time>1970-01-01T00:04:24.000Z</time>
      </trkpt>
      <trkpt lat="42.324033" lon="-8.804978">
        <ele>99.8</ele>
        <time>1970-01-01T00:04:25.000Z</time>
      </trkpt>
      <trkpt lat="42.324027" lon="-8.804987">
        <ele>99.6</ele>
        <time>1970-01-01T00:04:26.000Z</time>
      </trkpt>
      <trkpt lat="42.324023" lon="-8.805">
        <ele>99.2</ele>
        <time>1970-01-01T00:04:27.000Z</time>
      </trkpt>
      <trkpt lat="42.324016" lon="-8.805012">
        <ele>99</ele>
        <time>1970-01-01T00:04:28.000Z</time>
      </trkpt>
      <trkpt lat="42.324005" lon="-8.805026">
        <ele>98.6</ele>
        <time>1970-01-01T00:04:29.000Z</time>
      </trkpt>
      <trkpt lat="42.323997" lon="-8.805038">
        <ele>98.4</ele>
        <time>1970-01-01T00:04:30.000Z</time>
      </trkpt>
      <trkpt lat="42.323987" lon="-8.80505">
        <ele>98.2</ele>
        <time>1970-01-01T00:04:31.000Z</time>
      </trkpt>
      <trkpt lat="42.323976" lon="-8.80506">
        <ele>97.8</ele>
        <time>1970-01-01T00:04:32.000Z</time>
      </trkpt>
      <trkpt lat="42.323964" lon="-8.805072">
        <ele>97.2</ele>
        <time>1970-01-01T00:04:33.000Z</time>
      </trkpt>
      <trkpt lat="42.323954" lon="-8.805087">
        <ele>97</ele>
        <time>1970-01-01T00:04:34.000Z</time>
      </trkpt>
      <trkpt lat="42.323944" lon="-8.805098">
        <ele>96.8</ele>
        <time>1970-01-01T00:04:35.000Z</time>
      </trkpt>
      <trkpt lat="42.323934" lon="-8.805107">
        <ele>96.4</ele>
        <time>1970-01-01T00:04:36.000Z</time>
      </trkpt>
      <trkpt lat="42.323925" lon="-8.805115">
        <ele>96.2</ele>
        <time>1970-01-01T00:04:37.000Z</time>
      </trkpt>
      <trkpt lat="42.323917" lon="-8.80512">
        <ele>95.8</ele>
        <time>1970-01-01T00:04:38.000Z</time>
      </trkpt>
      <trkpt lat="42.323911" lon="-8.805126">
        <ele>95.2</ele>
        <time>1970-01-01T00:04:39.000Z</time>
      </trkpt>
      <trkpt lat="42.323908" lon="-8.805126">
        <ele>95</ele>
        <time>1970-01-01T00:04:40.000Z</time>
      </trkpt>
      <trkpt lat="42.323908" lon="-8.805123">
        <ele>94.6</ele>
        <time>1970-01-01T00:04:41.000Z</time>
      </trkpt>
      <trkpt lat="42.323909" lon="-8.805122">
        <ele>94.6</ele>
        <time>1970-01-01T00:04:42.000Z</time>
      </trkpt>
      <trkpt lat="42.32391" lon="-8.805121">
        <ele>94.4</ele>
        <time>1970-01-01T00:04:43.000Z</time>
      </trkpt>
      <trkpt lat="42.323913" lon="-8.805122">
        <ele>94.4</ele>
        <time>1970-01-01T00:04:44.000Z</time>
      </trkpt>
      <trkpt lat="42.323913" lon="-8.805121">
        <ele>94.2</ele>
        <time>1970-01-01T00:04:45.000Z</time>
      </trkpt>
      <trkpt lat="42.323913" lon="-8.805122">
        <ele>94.2</ele>
        <time>1970-01-01T00:04:46.000Z</time>
      </trkpt>
      <trkpt lat="42.323913" lon="-8.805126">
        <ele>94.2</ele>
        <time>1970-01-01T00:04:47.000Z</time>
      </trkpt>
      <trkpt lat="42.32391" lon="-8.805127">
        <ele>94.2</ele>
        <time>1970-01-01T00:04:48.000Z</time>
      </trkpt>
      <trkpt lat="42.323905" lon="-8.80513">
        <ele>94.2</ele>
        <time>1970-01-01T00:04:49.000Z</time>
      </trkpt>
      <trkpt lat="42.323898" lon="-8.805139">
        <ele>94.2</ele>
        <time>1970-01-01T00:04:50.000Z</time>
      </trkpt>
      <trkpt lat="42.323892" lon="-8.805154">
        <ele>94.2</ele>
        <time>1970-01-01T00:04:51.000Z</time>
      </trkpt>
      <trkpt lat="42.323883" lon="-8.805169">
        <ele>94.2</ele>
        <time>1970-01-01T00:04:52.000Z</time>
      </trkpt>
      <trkpt lat="42.323873" lon="-8.805183">
        <ele>94.2</ele>
        <time>1970-01-01T00:04:53.000Z</time>
      </trkpt>
      <trkpt lat="42.323864" lon="-8.805199">
        <ele>94</ele>
        <time>1970-01-01T00:04:54.000Z</time>
      </trkpt>
      <trkpt lat="42.32385" lon="-8.805225">
        <ele>94</ele>
        <time>1970-01-01T00:04:55.000Z</time>
      </trkpt>
      <trkpt lat="42.323843" lon="-8.805243">
        <ele>94</ele>
        <time>1970-01-01T00:04:56.000Z</time>
      </trkpt>
      <trkpt lat="42.323835" lon="-8.805248">
        <ele>94</ele>
        <time>1970-01-01T00:04:57.000Z</time>
      </trkpt>
      <trkpt lat="42.323829" lon="-8.805254">
        <ele>94</ele>
        <time>1970-01-01T00:04:58.000Z</time>
      </trkpt>
      <trkpt lat="42.323824" lon="-8.805267">
        <ele>94</ele>
        <time>1970-01-01T00:04:59.000Z</time>
      </trkpt>
      <trkpt lat="42.323818" lon="-8.80528">
        <ele>94</ele>
        <time>1970-01-01T00:05:00.000Z</time>
      </trkpt>
      <trkpt lat="42.323813" lon="-8.805294">
        <ele>94</ele>
        <time>1970-01-01T00:05:01.000Z</time>
      </trkpt>
      <trkpt lat="42.323811" lon="-8.805304">
        <ele>94</ele>
        <time>1970-01-01T00:05:02.000Z</time>
      </trkpt>
      <trkpt lat="42.32381" lon="-8.805316">
        <ele>94</ele>
        <time>1970-01-01T00:05:03.000Z</time>
      </trkpt>
      <trkpt lat="42.323808" lon="-8.805339">
        <ele>94.2</ele>
        <time>1970-01-01T00:05:04.000Z</time>
      </trkpt>
      <trkpt lat="42.323809" lon="-8.805366">
        <ele>94.2</ele>
        <time>1970-01-01T00:05:05.000Z</time>
      </trkpt>
      <trkpt lat="42.323811" lon="-8.805389">
        <ele>94.2</ele>
        <time>1970-01-01T00:05:06.000Z</time>
      </trkpt>
      <trkpt lat="42.323812" lon="-8.805417">
        <ele>94</ele>
        <time>1970-01-01T00:05:07.000Z</time>
      </trkpt>
      <trkpt lat="42.323805" lon="-8.805437">
        <ele>93.8</ele>
        <time>1970-01-01T00:05:08.000Z</time>
      </trkpt>
      <trkpt lat="42.323797" lon="-8.805455">
        <ele>93.6</ele>
        <time>1970-01-01T00:05:09.000Z</time>
      </trkpt>
      <trkpt lat="42.323786" lon="-8.805471">
        <ele>93.6</ele>
        <time>1970-01-01T00:05:10.000Z</time>
      </trkpt>
      <trkpt lat="42.323772" lon="-8.80549">
        <ele>93.6</ele>
        <time>1970-01-01T00:05:11.000Z</time>
      </trkpt>
      <trkpt lat="42.323756" lon="-8.805507">
        <ele>93.6</ele>
        <time>1970-01-01T00:05:12.000Z</time>
      </trkpt>
      <trkpt lat="42.32374" lon="-8.805524">
        <ele>93.6</ele>
        <time>1970-01-01T00:05:13.000Z</time>
      </trkpt>
      <trkpt lat="42.323729" lon="-8.805546">
        <ele>93.6</ele>
        <time>1970-01-01T00:05:14.000Z</time>
      </trkpt>
      <trkpt lat="42.323715" lon="-8.805562">
        <ele>93.4</ele>
        <time>1970-01-01T00:05:15.000Z</time>
      </trkpt>
      <trkpt lat="42.323703" lon="-8.805578">
        <ele>93.2</ele>
        <time>1970-01-01T00:05:16.000Z</time>
      </trkpt>
      <trkpt lat="42.323691" lon="-8.805592">
        <ele>92.8</ele>
        <time>1970-01-01T00:05:17.000Z</time>
      </trkpt>
      <trkpt lat="42.323683" lon="-8.805614">
        <ele>92.4</ele>
        <time>1970-01-01T00:05:18.000Z</time>
      </trkpt>
      <trkpt lat="42.323675" lon="-8.805632">
        <ele>92.2</ele>
        <time>1970-01-01T00:05:19.000Z</time>
      </trkpt>
      <trkpt lat="42.323665" lon="-8.805648">
        <ele>91.8</ele>
        <time>1970-01-01T00:05:20.000Z</time>
      </trkpt>
      <trkpt lat="42.323657" lon="-8.805656">
        <ele>91.4</ele>
        <time>1970-01-01T00:05:21.000Z</time>
      </trkpt>
      <trkpt lat="42.32365" lon="-8.805667">
        <ele>91.2</ele>
        <time>1970-01-01T00:05:22.000Z</time>
      </trkpt>
      <trkpt lat="42.323642" lon="-8.805682">
        <ele>91</ele>
        <time>1970-01-01T00:05:23.000Z</time>
      </trkpt>
      <trkpt lat="42.323634" lon="-8.805698">
        <ele>90.6</ele>
        <time>1970-01-01T00:05:24.000Z</time>
      </trkpt>
      <trkpt lat="42.323628" lon="-8.805712">
        <ele>90.2</ele>
        <time>1970-01-01T00:05:25.000Z</time>
      </trkpt>
      <trkpt lat="42.323618" lon="-8.805725">
        <ele>90</ele>
        <time>1970-01-01T00:05:26.000Z</time>
      </trkpt>
      <trkpt lat="42.323608" lon="-8.805735">
        <ele>89.8</ele>
        <time>1970-01-01T00:05:27.000Z</time>
      </trkpt>
      <trkpt lat="42.323596" lon="-8.805749">
        <ele>89.4</ele>
        <time>1970-01-01T00:05:28.000Z</time>
      </trkpt>
      <trkpt lat="42.323583" lon="-8.805765">
        <ele>89.2</ele>
        <time>1970-01-01T00:05:29.000Z</time>
      </trkpt>
      <trkpt lat="42.32357" lon="-8.80578">
        <ele>89</ele>
        <time>1970-01-01T00:05:30.000Z</time>
      </trkpt>
      <trkpt lat="42.323558" lon="-8.805802">
        <ele>88.8</ele>
        <time>1970-01-01T00:05:31.000Z</time>
      </trkpt>
      <trkpt lat="42.32355" lon="-8.80582">
        <ele>88.6</ele>
        <time>1970-01-01T00:05:32.000Z</time>
      </trkpt>
      <trkpt lat="42.323542" lon="-8.80584">
        <ele>88.4</ele>
        <time>1970-01-01T00:05:33.000Z</time>
      </trkpt>
      <trkpt lat="42.323537" lon="-8.805859">
        <ele>88</ele>
        <time>1970-01-01T00:05:34.000Z</time>
      </trkpt>
      <trkpt lat="42.323535" lon="-8.805879">
        <ele>87.8</ele>
        <time>1970-01-01T00:05:35.000Z</time>
      </trkpt>
      <trkpt lat="42.323533" lon="-8.8059">
        <ele>87.4</ele>
        <time>1970-01-01T00:05:36.000Z</time>
      </trkpt>
      <trkpt lat="42.32353" lon="-8.805924">
        <ele>87.2</ele>
        <time>1970-01-01T00:05:37.000Z</time>
      </trkpt>
      <trkpt lat="42.323527" lon="-8.805953">
        <ele>87</ele>
        <time>1970-01-01T00:05:38.000Z</time>
      </trkpt>
      <trkpt lat="42.323525" lon="-8.805975">
        <ele>86.4</ele>
        <time>1970-01-01T00:05:39.000Z</time>
      </trkpt>
      <trkpt lat="42.323522" lon="-8.805998">
        <ele>86.2</ele>
        <time>1970-01-01T00:05:40.000Z</time>
      </trkpt>
      <trkpt lat="42.323518" lon="-8.806022">
        <ele>86</ele>
        <time>1970-01-01T00:05:41.000Z</time>
      </trkpt>
      <trkpt lat="42.323513" lon="-8.806038">
        <ele>85.6</ele>
        <time>1970-01-01T00:05:42.000Z</time>
      </trkpt>
      <trkpt lat="42.323506" lon="-8.806052">
        <ele>85.6</ele>
        <time>1970-01-01T00:05:43.000Z</time>
      </trkpt>
      <trkpt lat="42.323497" lon="-8.806069">
        <ele>85.4</ele>
        <time>1970-01-01T00:05:44.000Z</time>
      </trkpt>
      <trkpt lat="42.323491" lon="-8.80609">
        <ele>85</ele>
        <time>1970-01-01T00:05:45.000Z</time>
      </trkpt>
      <trkpt lat="42.323485" lon="-8.806106">
        <ele>84.6</ele>
        <time>1970-01-01T00:05:46.000Z</time>
      </trkpt>
      <trkpt lat="42.323476" lon="-8.806123">
        <ele>84.4</ele>
        <time>1970-01-01T00:05:47.000Z</time>
      </trkpt>
      <trkpt lat="42.323465" lon="-8.806143">
        <ele>84.2</ele>
        <time>1970-01-01T00:05:48.000Z</time>
      </trkpt>
      <trkpt lat="42.323455" lon="-8.806161">
        <ele>84.4</ele>
        <time>1970-01-01T00:05:49.000Z</time>
      </trkpt>
      <trkpt lat="42.323446" lon="-8.806177">
        <ele>84.4</ele>
        <time>1970-01-01T00:05:50.000Z</time>
      </trkpt>
      <trkpt lat="42.323438" lon="-8.806192">
        <ele>84.4</ele>
        <time>1970-01-01T00:05:51.000Z</time>
      </trkpt>
      <trkpt lat="42.323429" lon="-8.806206">
        <ele>84.4</ele>
        <time>1970-01-01T00:05:52.000Z</time>
      </trkpt>
      <trkpt lat="42.323419" lon="-8.806219">
        <ele>84.4</ele>
        <time>1970-01-01T00:05:53.000Z</time>
      </trkpt>
      <trkpt lat="42.323405" lon="-8.806234">
        <ele>84.2</ele>
        <time>1970-01-01T00:05:54.000Z</time>
      </trkpt>
      <trkpt lat="42.323391" lon="-8.806247">
        <ele>84</ele>
        <time>1970-01-01T00:05:55.000Z</time>
      </trkpt>
      <trkpt lat="42.323378" lon="-8.806258">
        <ele>83.6</ele>
        <time>1970-01-01T00:05:56.000Z</time>
      </trkpt>
      <trkpt lat="42.323365" lon="-8.806269">
        <ele>83.4</ele>
        <time>1970-01-01T00:05:57.000Z</time>
      </trkpt>
      <trkpt lat="42.32335" lon="-8.806281">
        <ele>82.8</ele>
        <time>1970-01-01T00:05:58.000Z</time>
      </trkpt>
      <trkpt lat="42.323335" lon="-8.806293">
        <ele>82.4</ele>
        <time>1970-01-01T00:05:59.000Z</time>
      </trkpt>
      <trkpt lat="42.323321" lon="-8.806307">
        <ele>82.2</ele>
        <time>1970-01-01T00:06:00.000Z</time>
      </trkpt>
      <trkpt lat="42.323306" lon="-8.80632">
        <ele>82</ele>
        <time>1970-01-01T00:06:01.000Z</time>
      </trkpt>
      <trkpt lat="42.323294" lon="-8.806329">
        <ele>81.8</ele>
        <time>1970-01-01T00:06:02.000Z</time>
      </trkpt>
      <trkpt lat="42.323283" lon="-8.806338">
        <ele>81.8</ele>
        <time>1970-01-01T00:06:03.000Z</time>
      </trkpt>
      <trkpt lat="42.323269" lon="-8.80635">
        <ele>81.6</ele>
        <time>1970-01-01T00:06:04.000Z</time>
      </trkpt>
      <trkpt lat="42.323256" lon="-8.806364">
        <ele>81.4</ele>
        <time>1970-01-01T00:06:05.000Z</time>
      </trkpt>
      <trkpt lat="42.323243" lon="-8.806378">
        <ele>81</ele>
        <time>1970-01-01T00:06:06.000Z</time>
      </trkpt>
      <trkpt lat="42.323229" lon="-8.806392">
        <ele>80.8</ele>
        <time>1970-01-01T00:06:07.000Z</time>
      </trkpt>
      <trkpt lat="42.323214" lon="-8.806405">
        <ele>80.6</ele>
        <time>1970-01-01T00:06:08.000Z</time>
      </trkpt>
      <trkpt lat="42.323201" lon="-8.80642">
        <ele>80.6</ele>
        <time>1970-01-01T00:06:09.000Z</time>
      </trkpt>
      <trkpt lat="42.323188" lon="-8.806432">
        <ele>80.4</ele>
        <time>1970-01-01T00:06:10.000Z</time>
      </trkpt>
      <trkpt lat="42.323179" lon="-8.806445">
        <ele>80.4</ele>
        <time>1970-01-01T00:06:11.000Z</time>
      </trkpt>
      <trkpt lat="42.323171" lon="-8.806459">
        <ele>80.4</ele>
        <time>1970-01-01T00:06:12.000Z</time>
      </trkpt>
      <trkpt lat="42.323162" lon="-8.806473">
        <ele>80.4</ele>
        <time>1970-01-01T00:06:13.000Z</time>
      </trkpt>
      <trkpt lat="42.323154" lon="-8.806487">
        <ele>80.4</ele>
        <time>1970-01-01T00:06:14.000Z</time>
      </trkpt>
      <trkpt lat="42.323145" lon="-8.8065">
        <ele>80.2</ele>
        <time>1970-01-01T00:06:15.000Z</time>
      </trkpt>
      <trkpt lat="42.323135" lon="-8.806511">
        <ele>79.8</ele>
        <time>1970-01-01T00:06:16.000Z</time>
      </trkpt>
      <trkpt lat="42.323121" lon="-8.806522">
        <ele>79.4</ele>
        <time>1970-01-01T00:06:17.000Z</time>
      </trkpt>
      <trkpt lat="42.32311" lon="-8.806532">
        <ele>79.2</ele>
        <time>1970-01-01T00:06:18.000Z</time>
      </trkpt>
      <trkpt lat="42.323098" lon="-8.806541">
        <ele>79</ele>
        <time>1970-01-01T00:06:19.000Z</time>
      </trkpt>
      <trkpt lat="42.323086" lon="-8.806549">
        <ele>78.8</ele>
        <time>1970-01-01T00:06:20.000Z</time>
      </trkpt>
      <trkpt lat="42.323076" lon="-8.80656">
        <ele>78.6</ele>
        <time>1970-01-01T00:06:21.000Z</time>
      </trkpt>
      <trkpt lat="42.323067" lon="-8.806571">
        <ele>78.2</ele>
        <time>1970-01-01T00:06:22.000Z</time>
      </trkpt>
      <trkpt lat="42.323057" lon="-8.806584">
        <ele>77.8</ele>
        <time>1970-01-01T00:06:23.000Z</time>
      </trkpt>
      <trkpt lat="42.323045" lon="-8.806597">
        <ele>77.6</ele>
        <time>1970-01-01T00:06:24.000Z</time>
      </trkpt>
      <trkpt lat="42.323034" lon="-8.806613">
        <ele>77.6</ele>
        <time>1970-01-01T00:06:25.000Z</time>
      </trkpt>
      <trkpt lat="42.323023" lon="-8.806628">
        <ele>77.4</ele>
        <time>1970-01-01T00:06:26.000Z</time>
      </trkpt>
      <trkpt lat="42.323012" lon="-8.806643">
        <ele>77</ele>
        <time>1970-01-01T00:06:27.000Z</time>
      </trkpt>
      <trkpt lat="42.323002" lon="-8.806655">
        <ele>76.8</ele>
        <time>1970-01-01T00:06:28.000Z</time>
      </trkpt>
      <trkpt lat="42.322995" lon="-8.806666">
        <ele>76.8</ele>
        <time>1970-01-01T00:06:29.000Z</time>
      </trkpt>
      <trkpt lat="42.322988" lon="-8.806677">
        <ele>76.8</ele>
        <time>1970-01-01T00:06:30.000Z</time>
      </trkpt>
      <trkpt lat="42.322979" lon="-8.806688">
        <ele>76.6</ele>
        <time>1970-01-01T00:06:31.000Z</time>
      </trkpt>
      <trkpt lat="42.322972" lon="-8.806704">
        <ele>76.4</ele>
        <time>1970-01-01T00:06:32.000Z</time>
      </trkpt>
      <trkpt lat="42.322967" lon="-8.806719">
        <ele>76.2</ele>
        <time>1970-01-01T00:06:33.000Z</time>
      </trkpt>
      <trkpt lat="42.322963" lon="-8.806736">
        <ele>75.8</ele>
        <time>1970-01-01T00:06:34.000Z</time>
      </trkpt>
      <trkpt lat="42.322957" lon="-8.80675">
        <ele>75.4</ele>
        <time>1970-01-01T00:06:35.000Z</time>
      </trkpt>
      <trkpt lat="42.322947" lon="-8.806764">
        <ele>75</ele>
        <time>1970-01-01T00:06:36.000Z</time>
      </trkpt>
      <trkpt lat="42.322938" lon="-8.806777">
        <ele>74.6</ele>
        <time>1970-01-01T00:06:37.000Z</time>
      </trkpt>
      <trkpt lat="42.322929" lon="-8.806788">
        <ele>74.4</ele>
        <time>1970-01-01T00:06:38.000Z</time>
      </trkpt>
      <trkpt lat="42.322922" lon="-8.806799">
        <ele>74</ele>
        <time>1970-01-01T00:06:39.000Z</time>
      </trkpt>
      <trkpt lat="42.322914" lon="-8.806814">
        <ele>73.8</ele>
        <time>1970-01-01T00:06:40.000Z</time>
      </trkpt>
      <trkpt lat="42.322906" lon="-8.806829">
        <ele>73.6</ele>
        <time>1970-01-01T00:06:41.000Z</time>
      </trkpt>
      <trkpt lat="42.322898" lon="-8.806849">
        <ele>73.4</ele>
        <time>1970-01-01T00:06:42.000Z</time>
      </trkpt>
      <trkpt lat="42.322889" lon="-8.806867">
        <ele>73.4</ele>
        <time>1970-01-01T00:06:43.000Z</time>
      </trkpt>
      <trkpt lat="42.322878" lon="-8.806889">
        <ele>72.8</ele>
        <time>1970-01-01T00:06:44.000Z</time>
      </trkpt>
      <trkpt lat="42.322865" lon="-8.806911">
        <ele>72.6</ele>
        <time>1970-01-01T00:06:45.000Z</time>
      </trkpt>
      <trkpt lat="42.322855" lon="-8.806929">
        <ele>72.2</ele>
        <time>1970-01-01T00:06:46.000Z</time>
      </trkpt>
      <trkpt lat="42.322846" lon="-8.806948">
        <ele>72</ele>
        <time>1970-01-01T00:06:47.000Z</time>
      </trkpt>
      <trkpt lat="42.322835" lon="-8.806967">
        <ele>72</ele>
        <time>1970-01-01T00:06:48.000Z</time>
      </trkpt>
      <trkpt lat="42.322827" lon="-8.806984">
        <ele>71.8</ele>
        <time>1970-01-01T00:06:49.000Z</time>
      </trkpt>
      <trkpt lat="42.322821" lon="-8.807006">
        <ele>71.6</ele>
        <time>1970-01-01T00:06:50.000Z</time>
      </trkpt>
      <trkpt lat="42.322818" lon="-8.807027">
        <ele>71.4</ele>
        <time>1970-01-01T00:06:51.000Z</time>
      </trkpt>
      <trkpt lat="42.322818" lon="-8.807048">
        <ele>71.2</ele>
        <time>1970-01-01T00:06:52.000Z</time>
      </trkpt>
      <trkpt lat="42.322819" lon="-8.80707">
        <ele>71</ele>
        <time>1970-01-01T00:06:53.000Z</time>
      </trkpt>
      <trkpt lat="42.322823" lon="-8.80709">
        <ele>70.8</ele>
        <time>1970-01-01T00:06:54.000Z</time>
      </trkpt>
      <trkpt lat="42.322828" lon="-8.807112">
        <ele>70</ele>
        <time>1970-01-01T00:06:55.000Z</time>
      </trkpt>
      <trkpt lat="42.322837" lon="-8.807134">
        <ele>69.6</ele>
        <time>1970-01-01T00:06:56.000Z</time>
      </trkpt>
      <trkpt lat="42.322849" lon="-8.807158">
        <ele>69.4</ele>
        <time>1970-01-01T00:06:57.000Z</time>
      </trkpt>
      <trkpt lat="42.322863" lon="-8.807178">
        <ele>69.4</ele>
        <time>1970-01-01T00:06:58.000Z</time>
      </trkpt>
      <trkpt lat="42.322879" lon="-8.807194">
        <ele>69.2</ele>
        <time>1970-01-01T00:06:59.000Z</time>
      </trkpt>
      <trkpt lat="42.322895" lon="-8.807206">
        <ele>69.2</ele>
        <time>1970-01-01T00:07:00.000Z</time>
      </trkpt>
      <trkpt lat="42.322912" lon="-8.807221">
        <ele>68.8</ele>
        <time>1970-01-01T00:07:01.000Z</time>
      </trkpt>
      <trkpt lat="42.32293" lon="-8.807234">
        <ele>68.6</ele>
        <time>1970-01-01T00:07:02.000Z</time>
      </trkpt>
      <trkpt lat="42.322945" lon="-8.807249">
        <ele>68.4</ele>
        <time>1970-01-01T00:07:03.000Z</time>
      </trkpt>
      <trkpt lat="42.32296" lon="-8.807264">
        <ele>68</ele>
        <time>1970-01-01T00:07:04.000Z</time>
      </trkpt>
      <trkpt lat="42.322974" lon="-8.807277">
        <ele>67.8</ele>
        <time>1970-01-01T00:07:05.000Z</time>
      </trkpt>
      <trkpt lat="42.322986" lon="-8.807289">
        <ele>67.6</ele>
        <time>1970-01-01T00:07:06.000Z</time>
      </trkpt>
      <trkpt lat="42.322998" lon="-8.8073">
        <ele>67.6</ele>
        <time>1970-01-01T00:07:07.000Z</time>
      </trkpt>
      <trkpt lat="42.32301" lon="-8.807311">
        <ele>67.4</ele>
        <time>1970-01-01T00:07:08.000Z</time>
      </trkpt>
      <trkpt lat="42.32302" lon="-8.807322">
        <ele>67.2</ele>
        <time>1970-01-01T00:07:09.000Z</time>
      </trkpt>
      <trkpt lat="42.323029" lon="-8.807334">
        <ele>67</ele>
        <time>1970-01-01T00:07:10.000Z</time>
      </trkpt>
      <trkpt lat="42.323037" lon="-8.807347">
        <ele>66.8</ele>
        <time>1970-01-01T00:07:11.000Z</time>
      </trkpt>
      <trkpt lat="42.323047" lon="-8.80736">
        <ele>66.6</ele>
        <time>1970-01-01T00:07:12.000Z</time>
      </trkpt>
      <trkpt lat="42.323056" lon="-8.807376">
        <ele>66.2</ele>
        <time>1970-01-01T00:07:13.000Z</time>
      </trkpt>
      <trkpt lat="42.323063" lon="-8.80739">
        <ele>66</ele>
        <time>1970-01-01T00:07:14.000Z</time>
      </trkpt>
      <trkpt lat="42.323072" lon="-8.807404">
        <ele>65.6</ele>
        <time>1970-01-01T00:07:15.000Z</time>
      </trkpt>
      <trkpt lat="42.323082" lon="-8.807417">
        <ele>65.4</ele>
        <time>1970-01-01T00:07:16.000Z</time>
      </trkpt>
      <trkpt lat="42.323092" lon="-8.807431">
        <ele>65.2</ele>
        <time>1970-01-01T00:07:17.000Z</time>
      </trkpt>
      <trkpt lat="42.323101" lon="-8.80745">
        <ele>65</ele>
        <time>1970-01-01T00:07:18.000Z</time>
      </trkpt>
      <trkpt lat="42.323107" lon="-8.807472">
        <ele>64.8</ele>
        <time>1970-01-01T00:07:19.000Z</time>
      </trkpt>
      <trkpt lat="42.323113" lon="-8.807499">
        <ele>64.4</ele>
        <time>1970-01-01T00:07:20.000Z</time>
      </trkpt>
      <trkpt lat="42.323118" lon="-8.807516">
        <ele>64.2</ele>
        <time>1970-01-01T00:07:21.000Z</time>
      </trkpt>
      <trkpt lat="42.323123" lon="-8.807528">
        <ele>64.2</ele>
        <time>1970-01-01T00:07:22.000Z</time>
      </trkpt>
      <trkpt lat="42.323128" lon="-8.807545">
        <ele>64.4</ele>
        <time>1970-01-01T00:07:23.000Z</time>
      </trkpt>
      <trkpt lat="42.323131" lon="-8.807564">
        <ele>64.4</ele>
        <time>1970-01-01T00:07:24.000Z</time>
      </trkpt>
      <trkpt lat="42.323133" lon="-8.807581">
        <ele>64.2</ele>
        <time>1970-01-01T00:07:25.000Z</time>
      </trkpt>
      <trkpt lat="42.323134" lon="-8.807595">
        <ele>64.2</ele>
        <time>1970-01-01T00:07:26.000Z</time>
      </trkpt>
      <trkpt lat="42.323133" lon="-8.807608">
        <ele>64</ele>
        <time>1970-01-01T00:07:27.000Z</time>
      </trkpt>
      <trkpt lat="42.323126" lon="-8.807621">
        <ele>63.8</ele>
        <time>1970-01-01T00:07:28.000Z</time>
      </trkpt>
      <trkpt lat="42.323115" lon="-8.807637">
        <ele>63.6</ele>
        <time>1970-01-01T00:07:29.000Z</time>
      </trkpt>
      <trkpt lat="42.323106" lon="-8.807653">
        <ele>63.6</ele>
        <time>1970-01-01T00:07:30.000Z</time>
      </trkpt>
      <trkpt lat="42.323095" lon="-8.807664">
        <ele>63.4</ele>
        <time>1970-01-01T00:07:31.000Z</time>
      </trkpt>
      <trkpt lat="42.323084" lon="-8.807677">
        <ele>63.4</ele>
        <time>1970-01-01T00:07:32.000Z</time>
      </trkpt>
      <trkpt lat="42.32307" lon="-8.807693">
        <ele>63.4</ele>
        <time>1970-01-01T00:07:33.000Z</time>
      </trkpt>
      <trkpt lat="42.323058" lon="-8.807707">
        <ele>63.4</ele>
        <time>1970-01-01T00:07:34.000Z</time>
      </trkpt>
      <trkpt lat="42.323047" lon="-8.807721">
        <ele>63.2</ele>
        <time>1970-01-01T00:07:35.000Z</time>
      </trkpt>
      <trkpt lat="42.323037" lon="-8.807733">
        <ele>63</ele>
        <time>1970-01-01T00:07:36.000Z</time>
      </trkpt>
      <trkpt lat="42.323028" lon="-8.807746">
        <ele>62.8</ele>
        <time>1970-01-01T00:07:37.000Z</time>
      </trkpt>
      <trkpt lat="42.323016" lon="-8.807764">
        <ele>62.8</ele>
        <time>1970-01-01T00:07:38.000Z</time>
      </trkpt>
      <trkpt lat="42.323005" lon="-8.807781">
        <ele>62.8</ele>
        <time>1970-01-01T00:07:39.000Z</time>
      </trkpt>
      <trkpt lat="42.322993" lon="-8.807801">
        <ele>63</ele>
        <time>1970-01-01T00:07:40.000Z</time>
      </trkpt>
      <trkpt lat="42.322983" lon="-8.807819">
        <ele>63</ele>
        <time>1970-01-01T00:07:41.000Z</time>
      </trkpt>
      <trkpt lat="42.322971" lon="-8.807842">
        <ele>63</ele>
        <time>1970-01-01T00:07:42.000Z</time>
      </trkpt>
      <trkpt lat="42.322961" lon="-8.807863">
        <ele>63</ele>
        <time>1970-01-01T00:07:43.000Z</time>
      </trkpt>
      <trkpt lat="42.322954" lon="-8.807886">
        <ele>63.2</ele>
        <time>1970-01-01T00:07:44.000Z</time>
      </trkpt>
      <trkpt lat="42.322951" lon="-8.807905">
        <ele>63.2</ele>
        <time>1970-01-01T00:07:45.000Z</time>
      </trkpt>
      <trkpt lat="42.32295" lon="-8.807921">
        <ele>63</ele>
        <time>1970-01-01T00:07:46.000Z</time>
      </trkpt>
      <trkpt lat="42.322948" lon="-8.807936">
        <ele>63</ele>
        <time>1970-01-01T00:07:47.000Z</time>
      </trkpt>
      <trkpt lat="42.322946" lon="-8.807955">
        <ele>62.8</ele>
        <time>1970-01-01T00:07:48.000Z</time>
      </trkpt>
      <trkpt lat="42.322943" lon="-8.807973">
        <ele>62.8</ele>
        <time>1970-01-01T00:07:49.000Z</time>
      </trkpt>
      <trkpt lat="42.322941" lon="-8.807992">
        <ele>62.6</ele>
        <time>1970-01-01T00:07:50.000Z</time>
      </trkpt>
      <trkpt lat="42.32294" lon="-8.80801">
        <ele>62.6</ele>
        <time>1970-01-01T00:07:51.000Z</time>
      </trkpt>
      <trkpt lat="42.322939" lon="-8.808033">
        <ele>62.6</ele>
        <time>1970-01-01T00:07:52.000Z</time>
      </trkpt>
      <trkpt lat="42.322937" lon="-8.808059">
        <ele>62.4</ele>
        <time>1970-01-01T00:07:53.000Z</time>
      </trkpt>
      <trkpt lat="42.322935" lon="-8.808088">
        <ele>62.4</ele>
        <time>1970-01-01T00:07:54.000Z</time>
      </trkpt>
      <trkpt lat="42.322931" lon="-8.808117">
        <ele>62.2</ele>
        <time>1970-01-01T00:07:55.000Z</time>
      </trkpt>
      <trkpt lat="42.322931" lon="-8.808145">
        <ele>62.2</ele>
        <time>1970-01-01T00:07:56.000Z</time>
      </trkpt>
      <trkpt lat="42.322932" lon="-8.808166">
        <ele>62.2</ele>
        <time>1970-01-01T00:07:57.000Z</time>
      </trkpt>
      <trkpt lat="42.322932" lon="-8.808184">
        <ele>62.2</ele>
        <time>1970-01-01T00:07:58.000Z</time>
      </trkpt>
      <trkpt lat="42.322931" lon="-8.808203">
        <ele>62.2</ele>
        <time>1970-01-01T00:07:59.000Z</time>
      </trkpt>
      <trkpt lat="42.322933" lon="-8.808224">
        <ele>62.2</ele>
        <time>1970-01-01T00:08:00.000Z</time>
      </trkpt>
      <trkpt lat="42.322936" lon="-8.808239">
        <ele>62.2</ele>
        <time>1970-01-01T00:08:01.000Z</time>
      </trkpt>
      <trkpt lat="42.32294" lon="-8.808257">
        <ele>62.2</ele>
        <time>1970-01-01T00:08:02.000Z</time>
      </trkpt>
      <trkpt lat="42.322943" lon="-8.808272">
        <ele>62.2</ele>
        <time>1970-01-01T00:08:03.000Z</time>
      </trkpt>
      <trkpt lat="42.322944" lon="-8.808286">
        <ele>62.2</ele>
        <time>1970-01-01T00:08:04.000Z</time>
      </trkpt>
      <trkpt lat="42.322946" lon="-8.8083">
        <ele>62.2</ele>
        <time>1970-01-01T00:08:05.000Z</time>
      </trkpt>
      <trkpt lat="42.322948" lon="-8.808317">
        <ele>62.2</ele>
        <time>1970-01-01T00:08:06.000Z</time>
      </trkpt>
      <trkpt lat="42.322952" lon="-8.808336">
        <ele>62.2</ele>
        <time>1970-01-01T00:08:07.000Z</time>
      </trkpt>
      <trkpt lat="42.322955" lon="-8.808356">
        <ele>62.2</ele>
        <time>1970-01-01T00:08:08.000Z</time>
      </trkpt>
      <trkpt lat="42.322957" lon="-8.808371">
        <ele>62.2</ele>
        <time>1970-01-01T00:08:09.000Z</time>
      </trkpt>
      <trkpt lat="42.322957" lon="-8.808389">
        <ele>62.2</ele>
        <time>1970-01-01T00:08:10.000Z</time>
      </trkpt>
      <trkpt lat="42.322953" lon="-8.808405">
        <ele>62.2</ele>
        <time>1970-01-01T00:08:11.000Z</time>
      </trkpt>
      <trkpt lat="42.32295" lon="-8.808424">
        <ele>62.2</ele>
        <time>1970-01-01T00:08:12.000Z</time>
      </trkpt>
      <trkpt lat="42.322946" lon="-8.808447">
        <ele>62.2</ele>
        <time>1970-01-01T00:08:13.000Z</time>
      </trkpt>
      <trkpt lat="42.322941" lon="-8.808471">
        <ele>62</ele>
        <time>1970-01-01T00:08:14.000Z</time>
      </trkpt>
      <trkpt lat="42.322934" lon="-8.808488">
        <ele>61.8</ele>
        <time>1970-01-01T00:08:15.000Z</time>
      </trkpt>
      <trkpt lat="42.322928" lon="-8.808509">
        <ele>61.8</ele>
        <time>1970-01-01T00:08:16.000Z</time>
      </trkpt>
      <trkpt lat="42.32292" lon="-8.80853">
        <ele>61.6</ele>
        <time>1970-01-01T00:08:17.000Z</time>
      </trkpt>
      <trkpt lat="42.322912" lon="-8.808547">
        <ele>61.6</ele>
        <time>1970-01-01T00:08:18.000Z</time>
      </trkpt>
      <trkpt lat="42.322903" lon="-8.808562">
        <ele>61.6</ele>
        <time>1970-01-01T00:08:19.000Z</time>
      </trkpt>
      <trkpt lat="42.322895" lon="-8.808578">
        <ele>61.4</ele>
        <time>1970-01-01T00:08:20.000Z</time>
      </trkpt>
      <trkpt lat="42.322885" lon="-8.808591">
        <ele>61.4</ele>
        <time>1970-01-01T00:08:21.000Z</time>
      </trkpt>
      <trkpt lat="42.322875" lon="-8.808606">
        <ele>61.2</ele>
        <time>1970-01-01T00:08:22.000Z</time>
      </trkpt>
      <trkpt lat="42.322865" lon="-8.808618">
        <ele>61.4</ele>
        <time>1970-01-01T00:08:23.000Z</time>
      </trkpt>
      <trkpt lat="42.322855" lon="-8.808636">
        <ele>61.2</ele>
        <time>1970-01-01T00:08:24.000Z</time>
      </trkpt>
      <trkpt lat="42.322844" lon="-8.808653">
        <ele>61</ele>
        <time>1970-01-01T00:08:25.000Z</time>
      </trkpt>
      <trkpt lat="42.322833" lon="-8.80867">
        <ele>61</ele>
        <time>1970-01-01T00:08:26.000Z</time>
      </trkpt>
      <trkpt lat="42.322824" lon="-8.808689">
        <ele>61</ele>
        <time>1970-01-01T00:08:27.000Z</time>
      </trkpt>
      <trkpt lat="42.322818" lon="-8.808702">
        <ele>61</ele>
        <time>1970-01-01T00:08:28.000Z</time>
      </trkpt>
      <trkpt lat="42.322814" lon="-8.808717">
        <ele>61</ele>
        <time>1970-01-01T00:08:29.000Z</time>
      </trkpt>
      <trkpt lat="42.322809" lon="-8.80873">
        <ele>60.8</ele>
        <time>1970-01-01T00:08:30.000Z</time>
      </trkpt>
      <trkpt lat="42.322802" lon="-8.808743">
        <ele>60.6</ele>
        <time>1970-01-01T00:08:31.000Z</time>
      </trkpt>
      <trkpt lat="42.322794" lon="-8.808755">
        <ele>60.6</ele>
        <time>1970-01-01T00:08:32.000Z</time>
      </trkpt>
      <trkpt lat="42.322785" lon="-8.808771">
        <ele>60.4</ele>
        <time>1970-01-01T00:08:33.000Z</time>
      </trkpt>
      <trkpt lat="42.322774" lon="-8.808785">
        <ele>60.4</ele>
        <time>1970-01-01T00:08:34.000Z</time>
      </trkpt>
      <trkpt lat="42.322763" lon="-8.808799">
        <ele>60.4</ele>
        <time>1970-01-01T00:08:35.000Z</time>
      </trkpt>
      <trkpt lat="42.322749" lon="-8.808809">
        <ele>60.4</ele>
        <time>1970-01-01T00:08:36.000Z</time>
      </trkpt>
      <trkpt lat="42.322736" lon="-8.808819">
        <ele>60.2</ele>
        <time>1970-01-01T00:08:37.000Z</time>
      </trkpt>
      <trkpt lat="42.322721" lon="-8.808835">
        <ele>60</ele>
        <time>1970-01-01T00:08:38.000Z</time>
      </trkpt>
      <trkpt lat="42.322708" lon="-8.808852">
        <ele>60</ele>
        <time>1970-01-01T00:08:39.000Z</time>
      </trkpt>
      <trkpt lat="42.322694" lon="-8.808873">
        <ele>60</ele>
        <time>1970-01-01T00:08:40.000Z</time>
      </trkpt>
      <trkpt lat="42.322679" lon="-8.808887">
        <ele>60.2</ele>
        <time>1970-01-01T00:08:41.000Z</time>
      </trkpt>
      <trkpt lat="42.322665" lon="-8.808901">
        <ele>60.2</ele>
        <time>1970-01-01T00:08:42.000Z</time>
      </trkpt>
      <trkpt lat="42.322649" lon="-8.808918">
        <ele>60.2</ele>
        <time>1970-01-01T00:08:43.000Z</time>
      </trkpt>
      <trkpt lat="42.322636" lon="-8.808935">
        <ele>60.2</ele>
        <time>1970-01-01T00:08:44.000Z</time>
      </trkpt>
      <trkpt lat="42.322628" lon="-8.808944">
        <ele>60</ele>
        <time>1970-01-01T00:08:45.000Z</time>
      </trkpt>
      <trkpt lat="42.322621" lon="-8.808954">
        <ele>60</ele>
        <time>1970-01-01T00:08:46.000Z</time>
      </trkpt>
      <trkpt lat="42.322613" lon="-8.808968">
        <ele>59.8</ele>
        <time>1970-01-01T00:08:47.000Z</time>
      </trkpt>
      <trkpt lat="42.322604" lon="-8.808982">
        <ele>59.6</ele>
        <time>1970-01-01T00:08:48.000Z</time>
      </trkpt>
      <trkpt lat="42.322595" lon="-8.808999">
        <ele>59.4</ele>
        <time>1970-01-01T00:08:49.000Z</time>
      </trkpt>
      <trkpt lat="42.322586" lon="-8.809015">
        <ele>59.2</ele>
        <time>1970-01-01T00:08:50.000Z</time>
      </trkpt>
      <trkpt lat="42.322576" lon="-8.80903">
        <ele>59.2</ele>
        <time>1970-01-01T00:08:51.000Z</time>
      </trkpt>
      <trkpt lat="42.322567" lon="-8.809047">
        <ele>59</ele>
        <time>1970-01-01T00:08:52.000Z</time>
      </trkpt>
      <trkpt lat="42.322559" lon="-8.809061">
        <ele>59</ele>
        <time>1970-01-01T00:08:53.000Z</time>
      </trkpt>
      <trkpt lat="42.322551" lon="-8.809074">
        <ele>59</ele>
        <time>1970-01-01T00:08:54.000Z</time>
      </trkpt>
      <trkpt lat="42.322541" lon="-8.809083">
        <ele>59</ele>
        <time>1970-01-01T00:08:55.000Z</time>
      </trkpt>
      <trkpt lat="42.322533" lon="-8.8091">
        <ele>59</ele>
        <time>1970-01-01T00:08:56.000Z</time>
      </trkpt>
      <trkpt lat="42.322527" lon="-8.809122">
        <ele>59.4</ele>
        <time>1970-01-01T00:08:57.000Z</time>
      </trkpt>
      <trkpt lat="42.322522" lon="-8.809139">
        <ele>59.6</ele>
        <time>1970-01-01T00:08:58.000Z</time>
      </trkpt>
      <trkpt lat="42.322515" lon="-8.809148">
        <ele>59.8</ele>
        <time>1970-01-01T00:08:59.000Z</time>
      </trkpt>
      <trkpt lat="42.322508" lon="-8.809158">
        <ele>59.8</ele>
        <time>1970-01-01T00:09:00.000Z</time>
      </trkpt>
      <trkpt lat="42.322501" lon="-8.809174">
        <ele>59.8</ele>
        <time>1970-01-01T00:09:01.000Z</time>
      </trkpt>
      <trkpt lat="42.322495" lon="-8.809194">
        <ele>59.6</ele>
        <time>1970-01-01T00:09:02.000Z</time>
      </trkpt>
      <trkpt lat="42.322489" lon="-8.809211">
        <ele>59.2</ele>
        <time>1970-01-01T00:09:03.000Z</time>
      </trkpt>
      <trkpt lat="42.322484" lon="-8.809224">
        <ele>59</ele>
        <time>1970-01-01T00:09:04.000Z</time>
      </trkpt>
      <trkpt lat="42.32248" lon="-8.809239">
        <ele>59</ele>
        <time>1970-01-01T00:09:05.000Z</time>
      </trkpt>
      <trkpt lat="42.322476" lon="-8.809262">
        <ele>59</ele>
        <time>1970-01-01T00:09:06.000Z</time>
      </trkpt>
      <trkpt lat="42.322474" lon="-8.809286">
        <ele>59</ele>
        <time>1970-01-01T00:09:07.000Z</time>
      </trkpt>
      <trkpt lat="42.322471" lon="-8.809308">
        <ele>58.8</ele>
        <time>1970-01-01T00:09:08.000Z</time>
      </trkpt>
      <trkpt lat="42.322468" lon="-8.809328">
        <ele>58.6</ele>
        <time>1970-01-01T00:09:09.000Z</time>
      </trkpt>
      <trkpt lat="42.322461" lon="-8.809343">
        <ele>58.6</ele>
        <time>1970-01-01T00:09:10.000Z</time>
      </trkpt>
      <trkpt lat="42.322454" lon="-8.809357">
        <ele>58.6</ele>
        <time>1970-01-01T00:09:11.000Z</time>
      </trkpt>
      <trkpt lat="42.322444" lon="-8.809368">
        <ele>58.6</ele>
        <time>1970-01-01T00:09:12.000Z</time>
      </trkpt>
      <trkpt lat="42.322433" lon="-8.809382">
        <ele>58.4</ele>
        <time>1970-01-01T00:09:13.000Z</time>
      </trkpt>
      <trkpt lat="42.32242" lon="-8.809397">
        <ele>58.4</ele>
        <time>1970-01-01T00:09:14.000Z</time>
      </trkpt>
      <trkpt lat="42.322406" lon="-8.809412">
        <ele>58.4</ele>
        <time>1970-01-01T00:09:15.000Z</time>
      </trkpt>
      <trkpt lat="42.322394" lon="-8.809431">
        <ele>58.4</ele>
        <time>1970-01-01T00:09:16.000Z</time>
      </trkpt>
      <trkpt lat="42.322383" lon="-8.809448">
        <ele>58.4</ele>
        <time>1970-01-01T00:09:17.000Z</time>
      </trkpt>
      <trkpt lat="42.322376" lon="-8.809473">
        <ele>58.4</ele>
        <time>1970-01-01T00:09:18.000Z</time>
      </trkpt>
      <trkpt lat="42.322367" lon="-8.80949">
        <ele>58.4</ele>
        <time>1970-01-01T00:09:19.000Z</time>
      </trkpt>
      <trkpt lat="42.322357" lon="-8.809501">
        <ele>58.2</ele>
        <time>1970-01-01T00:09:20.000Z</time>
      </trkpt>
      <trkpt lat="42.322347" lon="-8.809512">
        <ele>58.2</ele>
        <time>1970-01-01T00:09:21.000Z</time>
      </trkpt>
      <trkpt lat="42.322338" lon="-8.809525">
        <ele>58.4</ele>
        <time>1970-01-01T00:09:22.000Z</time>
      </trkpt>
      <trkpt lat="42.322328" lon="-8.809542">
        <ele>58.2</ele>
        <time>1970-01-01T00:09:23.000Z</time>
      </trkpt>
      <trkpt lat="42.322318" lon="-8.809559">
        <ele>58.2</ele>
        <time>1970-01-01T00:09:24.000Z</time>
      </trkpt>
      <trkpt lat="42.322309" lon="-8.809574">
        <ele>58</ele>
        <time>1970-01-01T00:09:25.000Z</time>
      </trkpt>
      <trkpt lat="42.3223" lon="-8.809586">
        <ele>58</ele>
        <time>1970-01-01T00:09:26.000Z</time>
      </trkpt>
      <trkpt lat="42.322293" lon="-8.809603">
        <ele>58</ele>
        <time>1970-01-01T00:09:27.000Z</time>
      </trkpt>
      <trkpt lat="42.322289" lon="-8.809623">
        <ele>58</ele>
        <time>1970-01-01T00:09:28.000Z</time>
      </trkpt>
      <trkpt lat="42.322284" lon="-8.809637">
        <ele>58</ele>
        <time>1970-01-01T00:09:29.000Z</time>
      </trkpt>
      <trkpt lat="42.322279" lon="-8.809652">
        <ele>58</ele>
        <time>1970-01-01T00:09:30.000Z</time>
      </trkpt>
      <trkpt lat="42.322272" lon="-8.80967">
        <ele>57.8</ele>
        <time>1970-01-01T00:09:31.000Z</time>
      </trkpt>
      <trkpt lat="42.322264" lon="-8.809689">
        <ele>57.8</ele>
        <time>1970-01-01T00:09:32.000Z</time>
      </trkpt>
      <trkpt lat="42.322257" lon="-8.809708">
        <ele>57.8</ele>
        <time>1970-01-01T00:09:33.000Z</time>
      </trkpt>
      <trkpt lat="42.32225" lon="-8.809726">
        <ele>57.8</ele>
        <time>1970-01-01T00:09:34.000Z</time>
      </trkpt>
      <trkpt lat="42.322245" lon="-8.809746">
        <ele>58</ele>
        <time>1970-01-01T00:09:35.000Z</time>
      </trkpt>
      <trkpt lat="42.322242" lon="-8.809765">
        <ele>58</ele>
        <time>1970-01-01T00:09:36.000Z</time>
      </trkpt>
      <trkpt lat="42.322239" lon="-8.809783">
        <ele>58</ele>
        <time>1970-01-01T00:09:37.000Z</time>
      </trkpt>
      <trkpt lat="42.322235" lon="-8.809799">
        <ele>58</ele>
        <time>1970-01-01T00:09:38.000Z</time>
      </trkpt>
      <trkpt lat="42.322232" lon="-8.809817">
        <ele>57.8</ele>
        <time>1970-01-01T00:09:39.000Z</time>
      </trkpt>
      <trkpt lat="42.322228" lon="-8.809837">
        <ele>57.8</ele>
        <time>1970-01-01T00:09:40.000Z</time>
      </trkpt>
      <trkpt lat="42.322223" lon="-8.809858">
        <ele>57.8</ele>
        <time>1970-01-01T00:09:41.000Z</time>
      </trkpt>
      <trkpt lat="42.322217" lon="-8.809877">
        <ele>57.8</ele>
        <time>1970-01-01T00:09:42.000Z</time>
      </trkpt>
      <trkpt lat="42.322208" lon="-8.809892">
        <ele>57.8</ele>
        <time>1970-01-01T00:09:43.000Z</time>
      </trkpt>
      <trkpt lat="42.322198" lon="-8.809907">
        <ele>57.8</ele>
        <time>1970-01-01T00:09:44.000Z</time>
      </trkpt>
      <trkpt lat="42.322188" lon="-8.80992">
        <ele>57.6</ele>
        <time>1970-01-01T00:09:45.000Z</time>
      </trkpt>
      <trkpt lat="42.32218" lon="-8.809937">
        <ele>57.6</ele>
        <time>1970-01-01T00:09:46.000Z</time>
      </trkpt>
      <trkpt lat="42.322171" lon="-8.809953">
        <ele>57.8</ele>
        <time>1970-01-01T00:09:47.000Z</time>
      </trkpt>
      <trkpt lat="42.322162" lon="-8.809969">
        <ele>57.8</ele>
        <time>1970-01-01T00:09:48.000Z</time>
      </trkpt>
      <trkpt lat="42.322153" lon="-8.809985">
        <ele>57.8</ele>
        <time>1970-01-01T00:09:49.000Z</time>
      </trkpt>
      <trkpt lat="42.322141" lon="-8.809999">
        <ele>57.8</ele>
        <time>1970-01-01T00:09:50.000Z</time>
      </trkpt>
      <trkpt lat="42.322127" lon="-8.810009">
        <ele>57.8</ele>
        <time>1970-01-01T00:09:51.000Z</time>
      </trkpt>
      <trkpt lat="42.322114" lon="-8.81002">
        <ele>57.6</ele>
        <time>1970-01-01T00:09:52.000Z</time>
      </trkpt>
      <trkpt lat="42.322102" lon="-8.810033">
        <ele>57.4</ele>
        <time>1970-01-01T00:09:53.000Z</time>
      </trkpt>
      <trkpt lat="42.32209" lon="-8.810043">
        <ele>57.4</ele>
        <time>1970-01-01T00:09:54.000Z</time>
      </trkpt>
      <trkpt lat="42.322075" lon="-8.81005">
        <ele>57.4</ele>
        <time>1970-01-01T00:09:55.000Z</time>
      </trkpt>
      <trkpt lat="42.322062" lon="-8.81006">
        <ele>57.6</ele>
        <time>1970-01-01T00:09:56.000Z</time>
      </trkpt>
      <trkpt lat="42.322051" lon="-8.810074">
        <ele>57.6</ele>
        <time>1970-01-01T00:09:57.000Z</time>
      </trkpt>
      <trkpt lat="42.322042" lon="-8.810086">
        <ele>57.6</ele>
        <time>1970-01-01T00:09:58.000Z</time>
      </trkpt>
      <trkpt lat="42.322034" lon="-8.8101">
        <ele>57.8</ele>
        <time>1970-01-01T00:09:59.000Z</time>
      </trkpt>
      <trkpt lat="42.322026" lon="-8.810114">
        <ele>57.8</ele>
        <time>1970-01-01T00:10:00.000Z</time>
      </trkpt>
      <trkpt lat="42.322017" lon="-8.810129">
        <ele>57.8</ele>
        <time>1970-01-01T00:10:01.000Z</time>
      </trkpt>
      <trkpt lat="42.32201" lon="-8.810146">
        <ele>57.8</ele>
        <time>1970-01-01T00:10:02.000Z</time>
      </trkpt>
      <trkpt lat="42.322003" lon="-8.810159">
        <ele>57.8</ele>
        <time>1970-01-01T00:10:03.000Z</time>
      </trkpt>
      <trkpt lat="42.321996" lon="-8.810175">
        <ele>57.8</ele>
        <time>1970-01-01T00:10:04.000Z</time>
      </trkpt>
      <trkpt lat="42.32199" lon="-8.810192">
        <ele>57.8</ele>
        <time>1970-01-01T00:10:05.000Z</time>
      </trkpt>
      <trkpt lat="42.321985" lon="-8.810212">
        <ele>57.8</ele>
        <time>1970-01-01T00:10:06.000Z</time>
      </trkpt>
      <trkpt lat="42.321981" lon="-8.810233">
        <ele>57.8</ele>
        <time>1970-01-01T00:10:07.000Z</time>
      </trkpt>
      <trkpt lat="42.321975" lon="-8.810257">
        <ele>57.8</ele>
        <time>1970-01-01T00:10:08.000Z</time>
      </trkpt>
      <trkpt lat="42.321968" lon="-8.810277">
        <ele>57.8</ele>
        <time>1970-01-01T00:10:09.000Z</time>
      </trkpt>
      <trkpt lat="42.32196" lon="-8.810297">
        <ele>57.8</ele>
        <time>1970-01-01T00:10:10.000Z</time>
      </trkpt>
      <trkpt lat="42.321955" lon="-8.810318">
        <ele>58</ele>
        <time>1970-01-01T00:10:11.000Z</time>
      </trkpt>
      <trkpt lat="42.32195" lon="-8.810334">
        <ele>58.2</ele>
        <time>1970-01-01T00:10:12.000Z</time>
      </trkpt>
      <trkpt lat="42.321947" lon="-8.810355">
        <ele>58.2</ele>
        <time>1970-01-01T00:10:13.000Z</time>
      </trkpt>
      <trkpt lat="42.321943" lon="-8.81037">
        <ele>58.2</ele>
        <time>1970-01-01T00:10:14.000Z</time>
      </trkpt>
      <trkpt lat="42.32194" lon="-8.810388">
        <ele>58.2</ele>
        <time>1970-01-01T00:10:15.000Z</time>
      </trkpt>
      <trkpt lat="42.321937" lon="-8.810403">
        <ele>58.2</ele>
        <time>1970-01-01T00:10:16.000Z</time>
      </trkpt>
      <trkpt lat="42.321933" lon="-8.810423">
        <ele>58.2</ele>
        <time>1970-01-01T00:10:17.000Z</time>
      </trkpt>
      <trkpt lat="42.321929" lon="-8.810441">
        <ele>58.2</ele>
        <time>1970-01-01T00:10:18.000Z</time>
      </trkpt>
      <trkpt lat="42.321925" lon="-8.810457">
        <ele>58.4</ele>
        <time>1970-01-01T00:10:19.000Z</time>
      </trkpt>
      <trkpt lat="42.321921" lon="-8.810471">
        <ele>58.4</ele>
        <time>1970-01-01T00:10:20.000Z</time>
      </trkpt>
      <trkpt lat="42.321919" lon="-8.810489">
        <ele>58.6</ele>
        <time>1970-01-01T00:10:21.000Z</time>
      </trkpt>
      <trkpt lat="42.321919" lon="-8.810506">
        <ele>58.6</ele>
        <time>1970-01-01T00:10:22.000Z</time>
      </trkpt>
      <trkpt lat="42.321922" lon="-8.810525">
        <ele>58.6</ele>
        <time>1970-01-01T00:10:23.000Z</time>
      </trkpt>
      <trkpt lat="42.321924" lon="-8.810546">
        <ele>58.6</ele>
        <time>1970-01-01T00:10:24.000Z</time>
      </trkpt>
      <trkpt lat="42.321926" lon="-8.810569">
        <ele>58.6</ele>
        <time>1970-01-01T00:10:25.000Z</time>
      </trkpt>
      <trkpt lat="42.321928" lon="-8.810589">
        <ele>58.6</ele>
        <time>1970-01-01T00:10:26.000Z</time>
      </trkpt>
      <trkpt lat="42.321928" lon="-8.810608">
        <ele>58.4</ele>
        <time>1970-01-01T00:10:27.000Z</time>
      </trkpt>
      <trkpt lat="42.321927" lon="-8.810627">
        <ele>58.4</ele>
        <time>1970-01-01T00:10:28.000Z</time>
      </trkpt>
      <trkpt lat="42.321926" lon="-8.810645">
        <ele>58.2</ele>
        <time>1970-01-01T00:10:29.000Z</time>
      </trkpt>
      <trkpt lat="42.321924" lon="-8.81066">
        <ele>58</ele>
        <time>1970-01-01T00:10:30.000Z</time>
      </trkpt>
      <trkpt lat="42.321923" lon="-8.810674">
        <ele>57.6</ele>
        <time>1970-01-01T00:10:31.000Z</time>
      </trkpt>
      <trkpt lat="42.321922" lon="-8.810688">
        <ele>57.2</ele>
        <time>1970-01-01T00:10:32.000Z</time>
      </trkpt>
      <trkpt lat="42.321922" lon="-8.810713">
        <ele>57</ele>
        <time>1970-01-01T00:10:33.000Z</time>
      </trkpt>
      <trkpt lat="42.321921" lon="-8.810736">
        <ele>57</ele>
        <time>1970-01-01T00:10:34.000Z</time>
      </trkpt>
      <trkpt lat="42.32192" lon="-8.810761">
        <ele>57</ele>
        <time>1970-01-01T00:10:35.000Z</time>
      </trkpt>
      <trkpt lat="42.32192" lon="-8.810788">
        <ele>57</ele>
        <time>1970-01-01T00:10:36.000Z</time>
      </trkpt>
      <trkpt lat="42.32192" lon="-8.810812">
        <ele>57.2</ele>
        <time>1970-01-01T00:10:37.000Z</time>
      </trkpt>
      <trkpt lat="42.32192" lon="-8.810835">
        <ele>57.2</ele>
        <time>1970-01-01T00:10:38.000Z</time>
      </trkpt>
      <trkpt lat="42.321919" lon="-8.810855">
        <ele>57.2</ele>
        <time>1970-01-01T00:10:39.000Z</time>
      </trkpt>
      <trkpt lat="42.321918" lon="-8.810874">
        <ele>57.2</ele>
        <time>1970-01-01T00:10:40.000Z</time>
      </trkpt>
      <trkpt lat="42.321918" lon="-8.810889">
        <ele>57.4</ele>
        <time>1970-01-01T00:10:41.000Z</time>
      </trkpt>
      <trkpt lat="42.321919" lon="-8.810909">
        <ele>57.4</ele>
        <time>1970-01-01T00:10:42.000Z</time>
      </trkpt>
      <trkpt lat="42.321919" lon="-8.810928">
        <ele>57.6</ele>
        <time>1970-01-01T00:10:43.000Z</time>
      </trkpt>
      <trkpt lat="42.32192" lon="-8.810948">
        <ele>57.6</ele>
        <time>1970-01-01T00:10:44.000Z</time>
      </trkpt>
      <trkpt lat="42.321921" lon="-8.810965">
        <ele>57.8</ele>
        <time>1970-01-01T00:10:45.000Z</time>
      </trkpt>
      <trkpt lat="42.321922" lon="-8.810987">
        <ele>58</ele>
        <time>1970-01-01T00:10:46.000Z</time>
      </trkpt>
      <trkpt lat="42.321924" lon="-8.811006">
        <ele>58.2</ele>
        <time>1970-01-01T00:10:47.000Z</time>
      </trkpt>
      <trkpt lat="42.321926" lon="-8.811024">
        <ele>58.4</ele>
        <time>1970-01-01T00:10:48.000Z</time>
      </trkpt>
      <trkpt lat="42.321927" lon="-8.811042">
        <ele>58.6</ele>
        <time>1970-01-01T00:10:49.000Z</time>
      </trkpt>
      <trkpt lat="42.321929" lon="-8.811058">
        <ele>58.8</ele>
        <time>1970-01-01T00:10:50.000Z</time>
      </trkpt>
      <trkpt lat="42.321933" lon="-8.811075">
        <ele>59</ele>
        <time>1970-01-01T00:10:51.000Z</time>
      </trkpt>
      <trkpt lat="42.321938" lon="-8.811091">
        <ele>59.2</ele>
        <time>1970-01-01T00:10:52.000Z</time>
      </trkpt>
      <trkpt lat="42.321942" lon="-8.811107">
        <ele>59.2</ele>
        <time>1970-01-01T00:10:53.000Z</time>
      </trkpt>
      <trkpt lat="42.321948" lon="-8.811126">
        <ele>59.2</ele>
        <time>1970-01-01T00:10:54.000Z</time>
      </trkpt>
      <trkpt lat="42.321955" lon="-8.81115">
        <ele>59.2</ele>
        <time>1970-01-01T00:10:55.000Z</time>
      </trkpt>
      <trkpt lat="42.321961" lon="-8.811166">
        <ele>59.2</ele>
        <time>1970-01-01T00:10:56.000Z</time>
      </trkpt>
      <trkpt lat="42.321968" lon="-8.811188">
        <ele>59</ele>
        <time>1970-01-01T00:10:57.000Z</time>
      </trkpt>
      <trkpt lat="42.321976" lon="-8.811203">
        <ele>59</ele>
        <time>1970-01-01T00:10:58.000Z</time>
      </trkpt>
      <trkpt lat="42.321983" lon="-8.811223">
        <ele>58.8</ele>
        <time>1970-01-01T00:10:59.000Z</time>
      </trkpt>
      <trkpt lat="42.321991" lon="-8.811239">
        <ele>58.8</ele>
        <time>1970-01-01T00:11:00.000Z</time>
      </trkpt>
      <trkpt lat="42.321999" lon="-8.811254">
        <ele>58.8</ele>
        <time>1970-01-01T00:11:01.000Z</time>
      </trkpt>
      <trkpt lat="42.322006" lon="-8.811269">
        <ele>58.8</ele>
        <time>1970-01-01T00:11:02.000Z</time>
      </trkpt>
      <trkpt lat="42.322012" lon="-8.811279">
        <ele>58.8</ele>
        <time>1970-01-01T00:11:03.000Z</time>
      </trkpt>
      <trkpt lat="42.322018" lon="-8.811292">
        <ele>58.8</ele>
        <time>1970-01-01T00:11:04.000Z</time>
      </trkpt>
      <trkpt lat="42.322026" lon="-8.811309">
        <ele>58.6</ele>
        <time>1970-01-01T00:11:05.000Z</time>
      </trkpt>
      <trkpt lat="42.322037" lon="-8.811327">
        <ele>58.6</ele>
        <time>1970-01-01T00:11:06.000Z</time>
      </trkpt>
      <trkpt lat="42.32205" lon="-8.811344">
        <ele>58.6</ele>
        <time>1970-01-01T00:11:07.000Z</time>
      </trkpt>
      <trkpt lat="42.322063" lon="-8.811361">
        <ele>58.4</ele>
        <time>1970-01-01T00:11:08.000Z</time>
      </trkpt>
      <trkpt lat="42.322073" lon="-8.81138">
        <ele>58.2</ele>
        <time>1970-01-01T00:11:09.000Z</time>
      </trkpt>
      <trkpt lat="42.322082" lon="-8.811397">
        <ele>58.2</ele>
        <time>1970-01-01T00:11:10.000Z</time>
      </trkpt>
      <trkpt lat="42.322092" lon="-8.811409">
        <ele>58</ele>
        <time>1970-01-01T00:11:11.000Z</time>
      </trkpt>
      <trkpt lat="42.322102" lon="-8.811426">
        <ele>58</ele>
        <time>1970-01-01T00:11:12.000Z</time>
      </trkpt>
      <trkpt lat="42.322112" lon="-8.811442">
        <ele>57.8</ele>
        <time>1970-01-01T00:11:13.000Z</time>
      </trkpt>
      <trkpt lat="42.32212" lon="-8.811458">
        <ele>57.8</ele>
        <time>1970-01-01T00:11:14.000Z</time>
      </trkpt>
      <trkpt lat="42.322126" lon="-8.811478">
        <ele>57.6</ele>
        <time>1970-01-01T00:11:15.000Z</time>
      </trkpt>
      <trkpt lat="42.322134" lon="-8.811496">
        <ele>57.6</ele>
        <time>1970-01-01T00:11:16.000Z</time>
      </trkpt>
      <trkpt lat="42.322143" lon="-8.811513">
        <ele>57.6</ele>
        <time>1970-01-01T00:11:17.000Z</time>
      </trkpt>
      <trkpt lat="42.322148" lon="-8.811534">
        <ele>57.6</ele>
        <time>1970-01-01T00:11:18.000Z</time>
      </trkpt>
      <trkpt lat="42.322154" lon="-8.81155">
        <ele>57.6</ele>
        <time>1970-01-01T00:11:19.000Z</time>
      </trkpt>
      <trkpt lat="42.322161" lon="-8.81157">
        <ele>57.4</ele>
        <time>1970-01-01T00:11:20.000Z</time>
      </trkpt>
      <trkpt lat="42.322168" lon="-8.811588">
        <ele>57.4</ele>
        <time>1970-01-01T00:11:21.000Z</time>
      </trkpt>
      <trkpt lat="42.322174" lon="-8.811602">
        <ele>57.4</ele>
        <time>1970-01-01T00:11:22.000Z</time>
      </trkpt>
      <trkpt lat="42.322179" lon="-8.811622">
        <ele>57.4</ele>
        <time>1970-01-01T00:11:23.000Z</time>
      </trkpt>
      <trkpt lat="42.322184" lon="-8.811638">
        <ele>57.6</ele>
        <time>1970-01-01T00:11:24.000Z</time>
      </trkpt>
      <trkpt lat="42.32219" lon="-8.811652">
        <ele>57.6</ele>
        <time>1970-01-01T00:11:25.000Z</time>
      </trkpt>
      <trkpt lat="42.322193" lon="-8.811667">
        <ele>57.4</ele>
        <time>1970-01-01T00:11:26.000Z</time>
      </trkpt>
      <trkpt lat="42.322197" lon="-8.811683">
        <ele>57.6</ele>
        <time>1970-01-01T00:11:27.000Z</time>
      </trkpt>
      <trkpt lat="42.3222" lon="-8.811703">
        <ele>57.6</ele>
        <time>1970-01-01T00:11:28.000Z</time>
      </trkpt>
      <trkpt lat="42.3222" lon="-8.81172">
        <ele>57.6</ele>
        <time>1970-01-01T00:11:29.000Z</time>
      </trkpt>
      <trkpt lat="42.322202" lon="-8.811735">
        <ele>57.6</ele>
        <time>1970-01-01T00:11:30.000Z</time>
      </trkpt>
      <trkpt lat="42.322203" lon="-8.811752">
        <ele>57.4</ele>
        <time>1970-01-01T00:11:31.000Z</time>
      </trkpt>
      <trkpt lat="42.322207" lon="-8.811771">
        <ele>57.4</ele>
        <time>1970-01-01T00:11:32.000Z</time>
      </trkpt>
      <trkpt lat="42.322212" lon="-8.811789">
        <ele>57.4</ele>
        <time>1970-01-01T00:11:33.000Z</time>
      </trkpt>
      <trkpt lat="42.322216" lon="-8.811807">
        <ele>57.4</ele>
        <time>1970-01-01T00:11:34.000Z</time>
      </trkpt>
      <trkpt lat="42.322217" lon="-8.811827">
        <ele>57.2</ele>
        <time>1970-01-01T00:11:35.000Z</time>
      </trkpt>
      <trkpt lat="42.32222" lon="-8.811843">
        <ele>57</ele>
        <time>1970-01-01T00:11:36.000Z</time>
      </trkpt>
      <trkpt lat="42.322223" lon="-8.81186">
        <ele>56.8</ele>
        <time>1970-01-01T00:11:37.000Z</time>
      </trkpt>
      <trkpt lat="42.322226" lon="-8.811876">
        <ele>56.6</ele>
        <time>1970-01-01T00:11:38.000Z</time>
      </trkpt>
      <trkpt lat="42.322228" lon="-8.811892">
        <ele>56.4</ele>
        <time>1970-01-01T00:11:39.000Z</time>
      </trkpt>
      <trkpt lat="42.32223" lon="-8.811911">
        <ele>56.2</ele>
        <time>1970-01-01T00:11:40.000Z</time>
      </trkpt>
      <trkpt lat="42.322232" lon="-8.811929">
        <ele>56</ele>
        <time>1970-01-01T00:11:41.000Z</time>
      </trkpt>
      <trkpt lat="42.322234" lon="-8.811951">
        <ele>56</ele>
        <time>1970-01-01T00:11:42.000Z</time>
      </trkpt>
      <trkpt lat="42.322236" lon="-8.811974">
        <ele>56</ele>
        <time>1970-01-01T00:11:43.000Z</time>
      </trkpt>
      <trkpt lat="42.322239" lon="-8.811996">
        <ele>56</ele>
        <time>1970-01-01T00:11:44.000Z</time>
      </trkpt>
      <trkpt lat="42.322242" lon="-8.81202">
        <ele>56</ele>
        <time>1970-01-01T00:11:45.000Z</time>
      </trkpt>
      <trkpt lat="42.322247" lon="-8.812042">
        <ele>56.2</ele>
        <time>1970-01-01T00:11:46.000Z</time>
      </trkpt>
      <trkpt lat="42.32225" lon="-8.812062">
        <ele>56.2</ele>
        <time>1970-01-01T00:11:47.000Z</time>
      </trkpt>
      <trkpt lat="42.322252" lon="-8.812082">
        <ele>56.2</ele>
        <time>1970-01-01T00:11:48.000Z</time>
      </trkpt>
      <trkpt lat="42.322253" lon="-8.812104">
        <ele>56.2</ele>
        <time>1970-01-01T00:11:49.000Z</time>
      </trkpt>
      <trkpt lat="42.322256" lon="-8.812125">
        <ele>56.2</ele>
        <time>1970-01-01T00:11:50.000Z</time>
      </trkpt>
      <trkpt lat="42.322258" lon="-8.812144">
        <ele>56.2</ele>
        <time>1970-01-01T00:11:51.000Z</time>
      </trkpt>
      <trkpt lat="42.322261" lon="-8.812165">
        <ele>55.8</ele>
        <time>1970-01-01T00:11:52.000Z</time>
      </trkpt>
      <trkpt lat="42.322264" lon="-8.812185">
        <ele>55.6</ele>
        <time>1970-01-01T00:11:53.000Z</time>
      </trkpt>
      <trkpt lat="42.322267" lon="-8.812203">
        <ele>55.4</ele>
        <time>1970-01-01T00:11:54.000Z</time>
      </trkpt>
      <trkpt lat="42.322272" lon="-8.812222">
        <ele>55.4</ele>
        <time>1970-01-01T00:11:55.000Z</time>
      </trkpt>
      <trkpt lat="42.322275" lon="-8.812242">
        <ele>55.2</ele>
        <time>1970-01-01T00:11:56.000Z</time>
      </trkpt>
      <trkpt lat="42.322276" lon="-8.812261">
        <ele>55</ele>
        <time>1970-01-01T00:11:57.000Z</time>
      </trkpt>
      <trkpt lat="42.322276" lon="-8.812278">
        <ele>55.2</ele>
        <time>1970-01-01T00:11:58.000Z</time>
      </trkpt>
      <trkpt lat="42.322274" lon="-8.812296">
        <ele>55.2</ele>
        <time>1970-01-01T00:11:59.000Z</time>
      </trkpt>
      <trkpt lat="42.322272" lon="-8.812314">
        <ele>55.4</ele>
        <time>1970-01-01T00:12:00.000Z</time>
      </trkpt>
      <trkpt lat="42.322267" lon="-8.812333">
        <ele>55.4</ele>
        <time>1970-01-01T00:12:01.000Z</time>
      </trkpt>
      <trkpt lat="42.322263" lon="-8.812351">
        <ele>55.4</ele>
        <time>1970-01-01T00:12:02.000Z</time>
      </trkpt>
      <trkpt lat="42.322256" lon="-8.812371">
        <ele>55.6</ele>
        <time>1970-01-01T00:12:03.000Z</time>
      </trkpt>
      <trkpt lat="42.322247" lon="-8.812392">
        <ele>55.8</ele>
        <time>1970-01-01T00:12:04.000Z</time>
      </trkpt>
      <trkpt lat="42.322237" lon="-8.812414">
        <ele>55.6</ele>
        <time>1970-01-01T00:12:05.000Z</time>
      </trkpt>
      <trkpt lat="42.322233" lon="-8.812433">
        <ele>55.2</ele>
        <time>1970-01-01T00:12:06.000Z</time>
      </trkpt>
      <trkpt lat="42.322229" lon="-8.812447">
        <ele>55</ele>
        <time>1970-01-01T00:12:07.000Z</time>
      </trkpt>
      <trkpt lat="42.322226" lon="-8.812457">
        <ele>54.8</ele>
        <time>1970-01-01T00:12:08.000Z</time>
      </trkpt>
      <trkpt lat="42.322219" lon="-8.812473">
        <ele>54.8</ele>
        <time>1970-01-01T00:12:09.000Z</time>
      </trkpt>
      <trkpt lat="42.322215" lon="-8.81249">
        <ele>54.6</ele>
        <time>1970-01-01T00:12:10.000Z</time>
      </trkpt>
      <trkpt lat="42.322211" lon="-8.812505">
        <ele>54.8</ele>
        <time>1970-01-01T00:12:11.000Z</time>
      </trkpt>
      <trkpt lat="42.322203" lon="-8.812525">
        <ele>54.8</ele>
        <time>1970-01-01T00:12:12.000Z</time>
      </trkpt>
      <trkpt lat="42.322197" lon="-8.81254">
        <ele>55</ele>
        <time>1970-01-01T00:12:13.000Z</time>
      </trkpt>
      <trkpt lat="42.322191" lon="-8.812553">
        <ele>55</ele>
        <time>1970-01-01T00:12:14.000Z</time>
      </trkpt>
      <trkpt lat="42.322182" lon="-8.812572">
        <ele>55</ele>
        <time>1970-01-01T00:12:15.000Z</time>
      </trkpt>
      <trkpt lat="42.322174" lon="-8.812585">
        <ele>55</ele>
        <time>1970-01-01T00:12:16.000Z</time>
      </trkpt>
      <trkpt lat="42.322163" lon="-8.8126">
        <ele>55</ele>
        <time>1970-01-01T00:12:17.000Z</time>
      </trkpt>
      <trkpt lat="42.322146" lon="-8.812617">
        <ele>55</ele>
        <time>1970-01-01T00:12:18.000Z</time>
      </trkpt>
      <trkpt lat="42.32213" lon="-8.812633">
        <ele>55</ele>
        <time>1970-01-01T00:12:19.000Z</time>
      </trkpt>
      <trkpt lat="42.322117" lon="-8.812645">
        <ele>55</ele>
        <time>1970-01-01T00:12:20.000Z</time>
      </trkpt>
      <trkpt lat="42.322104" lon="-8.812658">
        <ele>55</ele>
        <time>1970-01-01T00:12:21.000Z</time>
      </trkpt>
      <trkpt lat="42.322093" lon="-8.812668">
        <ele>55</ele>
        <time>1970-01-01T00:12:22.000Z</time>
      </trkpt>
      <trkpt lat="42.322084" lon="-8.812681">
        <ele>55</ele>
        <time>1970-01-01T00:12:23.000Z</time>
      </trkpt>
      <trkpt lat="42.322076" lon="-8.812692">
        <ele>54.6</ele>
        <time>1970-01-01T00:12:24.000Z</time>
      </trkpt>
      <trkpt lat="42.322065" lon="-8.812702">
        <ele>54.6</ele>
        <time>1970-01-01T00:12:25.000Z</time>
      </trkpt>
      <trkpt lat="42.322054" lon="-8.812713">
        <ele>54.6</ele>
        <time>1970-01-01T00:12:26.000Z</time>
      </trkpt>
      <trkpt lat="42.322043" lon="-8.812726">
        <ele>54.4</ele>
        <time>1970-01-01T00:12:27.000Z</time>
      </trkpt>
      <trkpt lat="42.322033" lon="-8.812733">
        <ele>54.2</ele>
        <time>1970-01-01T00:12:28.000Z</time>
      </trkpt>
      <trkpt lat="42.32202" lon="-8.812735">
        <ele>54.2</ele>
        <time>1970-01-01T00:12:29.000Z</time>
      </trkpt>
      <trkpt lat="42.322006" lon="-8.812742">
        <ele>54.4</ele>
        <time>1970-01-01T00:12:30.000Z</time>
      </trkpt>
      <trkpt lat="42.32199" lon="-8.812749">
        <ele>54.4</ele>
        <time>1970-01-01T00:12:31.000Z</time>
      </trkpt>
      <trkpt lat="42.321974" lon="-8.812763">
        <ele>54.4</ele>
        <time>1970-01-01T00:12:32.000Z</time>
      </trkpt>
      <trkpt lat="42.321959" lon="-8.812769">
        <ele>54.4</ele>
        <time>1970-01-01T00:12:33.000Z</time>
      </trkpt>
      <trkpt lat="42.321943" lon="-8.812776">
        <ele>54.4</ele>
        <time>1970-01-01T00:12:34.000Z</time>
      </trkpt>
      <trkpt lat="42.32193" lon="-8.812781">
        <ele>54.4</ele>
        <time>1970-01-01T00:12:35.000Z</time>
      </trkpt>
      <trkpt lat="42.321915" lon="-8.812784">
        <ele>54.4</ele>
        <time>1970-01-01T00:12:36.000Z</time>
      </trkpt>
      <trkpt lat="42.321903" lon="-8.812787">
        <ele>54.2</ele>
        <time>1970-01-01T00:12:37.000Z</time>
      </trkpt>
      <trkpt lat="42.32189" lon="-8.812796">
        <ele>54.2</ele>
        <time>1970-01-01T00:12:38.000Z</time>
      </trkpt>
      <trkpt lat="42.321878" lon="-8.8128">
        <ele>54.2</ele>
        <time>1970-01-01T00:12:39.000Z</time>
      </trkpt>
      <trkpt lat="42.321867" lon="-8.812803">
        <ele>54</ele>
        <time>1970-01-01T00:12:40.000Z</time>
      </trkpt>
      <trkpt lat="42.321857" lon="-8.812809">
        <ele>54</ele>
        <time>1970-01-01T00:12:41.000Z</time>
      </trkpt>
      <trkpt lat="42.321846" lon="-8.812817">
        <ele>54</ele>
        <time>1970-01-01T00:12:42.000Z</time>
      </trkpt>
      <trkpt lat="42.321832" lon="-8.812825">
        <ele>53.8</ele>
        <time>1970-01-01T00:12:43.000Z</time>
      </trkpt>
      <trkpt lat="42.321817" lon="-8.812835">
        <ele>53.8</ele>
        <time>1970-01-01T00:12:44.000Z</time>
      </trkpt>
      <trkpt lat="42.321799" lon="-8.812841">
        <ele>53.6</ele>
        <time>1970-01-01T00:12:45.000Z</time>
      </trkpt>
      <trkpt lat="42.321781" lon="-8.812843">
        <ele>53.6</ele>
        <time>1970-01-01T00:12:46.000Z</time>
      </trkpt>
      <trkpt lat="42.321764" lon="-8.812854">
        <ele>53.6</ele>
        <time>1970-01-01T00:12:47.000Z</time>
      </trkpt>
      <trkpt lat="42.321745" lon="-8.812873">
        <ele>53.6</ele>
        <time>1970-01-01T00:12:48.000Z</time>
      </trkpt>
      <trkpt lat="42.321728" lon="-8.812875">
        <ele>53.6</ele>
        <time>1970-01-01T00:12:49.000Z</time>
      </trkpt>
      <trkpt lat="42.321711" lon="-8.812878">
        <ele>53.6</ele>
        <time>1970-01-01T00:12:50.000Z</time>
      </trkpt>
      <trkpt lat="42.321696" lon="-8.81288">
        <ele>53.6</ele>
        <time>1970-01-01T00:12:51.000Z</time>
      </trkpt>
      <trkpt lat="42.321682" lon="-8.812885">
        <ele>53.6</ele>
        <time>1970-01-01T00:12:52.000Z</time>
      </trkpt>
      <trkpt lat="42.321666" lon="-8.812891">
        <ele>53.6</ele>
        <time>1970-01-01T00:12:53.000Z</time>
      </trkpt>
      <trkpt lat="42.321654" lon="-8.812898">
        <ele>53.6</ele>
        <time>1970-01-01T00:12:54.000Z</time>
      </trkpt>
      <trkpt lat="42.321643" lon="-8.812901">
        <ele>53.4</ele>
        <time>1970-01-01T00:12:55.000Z</time>
      </trkpt>
      <trkpt lat="42.321631" lon="-8.812906">
        <ele>53.4</ele>
        <time>1970-01-01T00:12:56.000Z</time>
      </trkpt>
      <trkpt lat="42.321621" lon="-8.812913">
        <ele>53.4</ele>
        <time>1970-01-01T00:12:57.000Z</time>
      </trkpt>
      <trkpt lat="42.32161" lon="-8.812921">
        <ele>53.4</ele>
        <time>1970-01-01T00:12:58.000Z</time>
      </trkpt>
      <trkpt lat="42.321599" lon="-8.812931">
        <ele>53.4</ele>
        <time>1970-01-01T00:12:59.000Z</time>
      </trkpt>
      <trkpt lat="42.321587" lon="-8.812941">
        <ele>53.4</ele>
        <time>1970-01-01T00:13:00.000Z</time>
      </trkpt>
      <trkpt lat="42.321576" lon="-8.812947">
        <ele>53.4</ele>
        <time>1970-01-01T00:13:01.000Z</time>
      </trkpt>
      <trkpt lat="42.321564" lon="-8.812952">
        <ele>53.6</ele>
        <time>1970-01-01T00:13:02.000Z</time>
      </trkpt>
      <trkpt lat="42.321551" lon="-8.812955">
        <ele>53.6</ele>
        <time>1970-01-01T00:13:03.000Z</time>
      </trkpt>
      <trkpt lat="42.321537" lon="-8.812966">
        <ele>53.8</ele>
        <time>1970-01-01T00:13:04.000Z</time>
      </trkpt>
      <trkpt lat="42.321522" lon="-8.812971">
        <ele>53.8</ele>
        <time>1970-01-01T00:13:05.000Z</time>
      </trkpt>
      <trkpt lat="42.321507" lon="-8.812977">
        <ele>53.8</ele>
        <time>1970-01-01T00:13:06.000Z</time>
      </trkpt>
      <trkpt lat="42.32149" lon="-8.812987">
        <ele>53.8</ele>
        <time>1970-01-01T00:13:07.000Z</time>
      </trkpt>
      <trkpt lat="42.321471" lon="-8.812994">
        <ele>54</ele>
        <time>1970-01-01T00:13:08.000Z</time>
      </trkpt>
      <trkpt lat="42.321452" lon="-8.813005">
        <ele>54</ele>
        <time>1970-01-01T00:13:09.000Z</time>
      </trkpt>
      <trkpt lat="42.321435" lon="-8.813019">
        <ele>54</ele>
        <time>1970-01-01T00:13:10.000Z</time>
      </trkpt>
      <trkpt lat="42.321421" lon="-8.813026">
        <ele>53.8</ele>
        <time>1970-01-01T00:13:11.000Z</time>
      </trkpt>
      <trkpt lat="42.321409" lon="-8.813029">
        <ele>53.8</ele>
        <time>1970-01-01T00:13:12.000Z</time>
      </trkpt>
      <trkpt lat="42.321397" lon="-8.813043">
        <ele>53.8</ele>
        <time>1970-01-01T00:13:13.000Z</time>
      </trkpt>
      <trkpt lat="42.321383" lon="-8.813057">
        <ele>53.6</ele>
        <time>1970-01-01T00:13:14.000Z</time>
      </trkpt>
      <trkpt lat="42.321367" lon="-8.813063">
        <ele>53.6</ele>
        <time>1970-01-01T00:13:15.000Z</time>
      </trkpt>
      <trkpt lat="42.321353" lon="-8.813068">
        <ele>53.4</ele>
        <time>1970-01-01T00:13:16.000Z</time>
      </trkpt>
      <trkpt lat="42.321339" lon="-8.813069">
        <ele>53.4</ele>
        <time>1970-01-01T00:13:17.000Z</time>
      </trkpt>
      <trkpt lat="42.321327" lon="-8.813075">
        <ele>53.4</ele>
        <time>1970-01-01T00:13:18.000Z</time>
      </trkpt>
      <trkpt lat="42.321316" lon="-8.813081">
        <ele>53.4</ele>
        <time>1970-01-01T00:13:19.000Z</time>
      </trkpt>
      <trkpt lat="42.321304" lon="-8.813087">
        <ele>53.4</ele>
        <time>1970-01-01T00:13:20.000Z</time>
      </trkpt>
      <trkpt lat="42.321293" lon="-8.813094">
        <ele>53.6</ele>
        <time>1970-01-01T00:13:21.000Z</time>
      </trkpt>
      <trkpt lat="42.321281" lon="-8.813102">
        <ele>53.6</ele>
        <time>1970-01-01T00:13:22.000Z</time>
      </trkpt>
      <trkpt lat="42.321267" lon="-8.81311">
        <ele>53.8</ele>
        <time>1970-01-01T00:13:23.000Z</time>
      </trkpt>
      <trkpt lat="42.32125" lon="-8.813114">
        <ele>53.8</ele>
        <time>1970-01-01T00:13:24.000Z</time>
      </trkpt>
      <trkpt lat="42.321233" lon="-8.81312">
        <ele>53.6</ele>
        <time>1970-01-01T00:13:25.000Z</time>
      </trkpt>
      <trkpt lat="42.321217" lon="-8.813122">
        <ele>53.6</ele>
        <time>1970-01-01T00:13:26.000Z</time>
      </trkpt>
      <trkpt lat="42.321201" lon="-8.813126">
        <ele>53.6</ele>
        <time>1970-01-01T00:13:27.000Z</time>
      </trkpt>
      <trkpt lat="42.321184" lon="-8.813131">
        <ele>53.6</ele>
        <time>1970-01-01T00:13:28.000Z</time>
      </trkpt>
      <trkpt lat="42.321169" lon="-8.813138">
        <ele>53.4</ele>
        <time>1970-01-01T00:13:29.000Z</time>
      </trkpt>
      <trkpt lat="42.321154" lon="-8.813142">
        <ele>53.4</ele>
        <time>1970-01-01T00:13:30.000Z</time>
      </trkpt>
      <trkpt lat="42.32114" lon="-8.81315">
        <ele>53.4</ele>
        <time>1970-01-01T00:13:31.000Z</time>
      </trkpt>
      <trkpt lat="42.321128" lon="-8.813157">
        <ele>53.6</ele>
        <time>1970-01-01T00:13:32.000Z</time>
      </trkpt>
      <trkpt lat="42.321117" lon="-8.813165">
        <ele>53.6</ele>
        <time>1970-01-01T00:13:33.000Z</time>
      </trkpt>
      <trkpt lat="42.321106" lon="-8.813167">
        <ele>53.6</ele>
        <time>1970-01-01T00:13:34.000Z</time>
      </trkpt>
      <trkpt lat="42.321094" lon="-8.813173">
        <ele>53.6</ele>
        <time>1970-01-01T00:13:35.000Z</time>
      </trkpt>
      <trkpt lat="42.32108" lon="-8.813182">
        <ele>53.8</ele>
        <time>1970-01-01T00:13:36.000Z</time>
      </trkpt>
      <trkpt lat="42.321064" lon="-8.813195">
        <ele>53.8</ele>
        <time>1970-01-01T00:13:37.000Z</time>
      </trkpt>
      <trkpt lat="42.321048" lon="-8.813202">
        <ele>53.8</ele>
        <time>1970-01-01T00:13:38.000Z</time>
      </trkpt>
      <trkpt lat="42.321033" lon="-8.813215">
        <ele>53.8</ele>
        <time>1970-01-01T00:13:39.000Z</time>
      </trkpt>
      <trkpt lat="42.321021" lon="-8.813226">
        <ele>53.8</ele>
        <time>1970-01-01T00:13:40.000Z</time>
      </trkpt>
      <trkpt lat="42.321009" lon="-8.813234">
        <ele>53.8</ele>
        <time>1970-01-01T00:13:41.000Z</time>
      </trkpt>
      <trkpt lat="42.320999" lon="-8.813242">
        <ele>53.6</ele>
        <time>1970-01-01T00:13:42.000Z</time>
      </trkpt>
      <trkpt lat="42.320989" lon="-8.813256">
        <ele>53.6</ele>
        <time>1970-01-01T00:13:43.000Z</time>
      </trkpt>
      <trkpt lat="42.320979" lon="-8.813272">
        <ele>53.4</ele>
        <time>1970-01-01T00:13:44.000Z</time>
      </trkpt>
      <trkpt lat="42.32097" lon="-8.813288">
        <ele>53.4</ele>
        <time>1970-01-01T00:13:45.000Z</time>
      </trkpt>
      <trkpt lat="42.320961" lon="-8.813303">
        <ele>53.4</ele>
        <time>1970-01-01T00:13:46.000Z</time>
      </trkpt>
      <trkpt lat="42.320953" lon="-8.813316">
        <ele>53.4</ele>
        <time>1970-01-01T00:13:47.000Z</time>
      </trkpt>
      <trkpt lat="42.320945" lon="-8.813331">
        <ele>53.4</ele>
        <time>1970-01-01T00:13:48.000Z</time>
      </trkpt>
      <trkpt lat="42.320935" lon="-8.813348">
        <ele>53.4</ele>
        <time>1970-01-01T00:13:49.000Z</time>
      </trkpt>
      <trkpt lat="42.320922" lon="-8.813358">
        <ele>53.4</ele>
        <time>1970-01-01T00:13:50.000Z</time>
      </trkpt>
      <trkpt lat="42.320907" lon="-8.813368">
        <ele>53.2</ele>
        <time>1970-01-01T00:13:51.000Z</time>
      </trkpt>
      <trkpt lat="42.320893" lon="-8.813377">
        <ele>53</ele>
        <time>1970-01-01T00:13:52.000Z</time>
      </trkpt>
      <trkpt lat="42.320881" lon="-8.81339">
        <ele>53</ele>
        <time>1970-01-01T00:13:53.000Z</time>
      </trkpt>
      <trkpt lat="42.32087" lon="-8.813402">
        <ele>52.8</ele>
        <time>1970-01-01T00:13:54.000Z</time>
      </trkpt>
      <trkpt lat="42.320858" lon="-8.813415">
        <ele>52.8</ele>
        <time>1970-01-01T00:13:55.000Z</time>
      </trkpt>
      <trkpt lat="42.320846" lon="-8.813425">
        <ele>52.8</ele>
        <time>1970-01-01T00:13:56.000Z</time>
      </trkpt>
      <trkpt lat="42.320835" lon="-8.813441">
        <ele>52.6</ele>
        <time>1970-01-01T00:13:57.000Z</time>
      </trkpt>
      <trkpt lat="42.320818" lon="-8.813454">
        <ele>52.6</ele>
        <time>1970-01-01T00:13:58.000Z</time>
      </trkpt>
      <trkpt lat="42.320806" lon="-8.813468">
        <ele>52.4</ele>
        <time>1970-01-01T00:13:59.000Z</time>
      </trkpt>
      <trkpt lat="42.320795" lon="-8.813484">
        <ele>52</ele>
        <time>1970-01-01T00:14:00.000Z</time>
      </trkpt>
      <trkpt lat="42.320786" lon="-8.813501">
        <ele>51.8</ele>
        <time>1970-01-01T00:14:01.000Z</time>
      </trkpt>
      <trkpt lat="42.320776" lon="-8.813522">
        <ele>51.8</ele>
        <time>1970-01-01T00:14:02.000Z</time>
      </trkpt>
      <trkpt lat="42.320768" lon="-8.813539">
        <ele>51.8</ele>
        <time>1970-01-01T00:14:03.000Z</time>
      </trkpt>
      <trkpt lat="42.320759" lon="-8.813552">
        <ele>51.8</ele>
        <time>1970-01-01T00:14:04.000Z</time>
      </trkpt>
      <trkpt lat="42.320751" lon="-8.813564">
        <ele>51.8</ele>
        <time>1970-01-01T00:14:05.000Z</time>
      </trkpt>
      <trkpt lat="42.320745" lon="-8.813576">
        <ele>51.8</ele>
        <time>1970-01-01T00:14:06.000Z</time>
      </trkpt>
      <trkpt lat="42.320739" lon="-8.813587">
        <ele>52</ele>
        <time>1970-01-01T00:14:07.000Z</time>
      </trkpt>
      <trkpt lat="42.320734" lon="-8.8136">
        <ele>52</ele>
        <time>1970-01-01T00:14:08.000Z</time>
      </trkpt>
      <trkpt lat="42.32073" lon="-8.813612">
        <ele>52.2</ele>
        <time>1970-01-01T00:14:09.000Z</time>
      </trkpt>
      <trkpt lat="42.320726" lon="-8.81363">
        <ele>52.4</ele>
        <time>1970-01-01T00:14:10.000Z</time>
      </trkpt>
      <trkpt lat="42.320722" lon="-8.813648">
        <ele>52.6</ele>
        <time>1970-01-01T00:14:11.000Z</time>
      </trkpt>
      <trkpt lat="42.320716" lon="-8.813664">
        <ele>52.6</ele>
        <time>1970-01-01T00:14:12.000Z</time>
      </trkpt>
      <trkpt lat="42.32071" lon="-8.813683">
        <ele>52.8</ele>
        <time>1970-01-01T00:14:13.000Z</time>
      </trkpt>
      <trkpt lat="42.320703" lon="-8.813703">
        <ele>52.8</ele>
        <time>1970-01-01T00:14:14.000Z</time>
      </trkpt>
      <trkpt lat="42.320694" lon="-8.813725">
        <ele>53.2</ele>
        <time>1970-01-01T00:14:15.000Z</time>
      </trkpt>
      <trkpt lat="42.320685" lon="-8.813744">
        <ele>53.2</ele>
        <time>1970-01-01T00:14:16.000Z</time>
      </trkpt>
      <trkpt lat="42.320677" lon="-8.81376">
        <ele>53.4</ele>
        <time>1970-01-01T00:14:17.000Z</time>
      </trkpt>
      <trkpt lat="42.320669" lon="-8.813776">
        <ele>53.4</ele>
        <time>1970-01-01T00:14:18.000Z</time>
      </trkpt>
      <trkpt lat="42.320659" lon="-8.81379">
        <ele>53.4</ele>
        <time>1970-01-01T00:14:19.000Z</time>
      </trkpt>
      <trkpt lat="42.320649" lon="-8.813804">
        <ele>53.4</ele>
        <time>1970-01-01T00:14:20.000Z</time>
      </trkpt>
      <trkpt lat="42.320639" lon="-8.813817">
        <ele>53.4</ele>
        <time>1970-01-01T00:14:21.000Z</time>
      </trkpt>
      <trkpt lat="42.32063" lon="-8.813833">
        <ele>53.2</ele>
        <time>1970-01-01T00:14:22.000Z</time>
      </trkpt>
      <trkpt lat="42.320623" lon="-8.813851">
        <ele>53.4</ele>
        <time>1970-01-01T00:14:23.000Z</time>
      </trkpt>
      <trkpt lat="42.320616" lon="-8.813868">
        <ele>53.2</ele>
        <time>1970-01-01T00:14:24.000Z</time>
      </trkpt>
      <trkpt lat="42.32061" lon="-8.813885">
        <ele>53.2</ele>
        <time>1970-01-01T00:14:25.000Z</time>
      </trkpt>
      <trkpt lat="42.320604" lon="-8.813902">
        <ele>53.2</ele>
        <time>1970-01-01T00:14:26.000Z</time>
      </trkpt>
      <trkpt lat="42.320597" lon="-8.813918">
        <ele>53</ele>
        <time>1970-01-01T00:14:27.000Z</time>
      </trkpt>
      <trkpt lat="42.320592" lon="-8.813933">
        <ele>53</ele>
        <time>1970-01-01T00:14:28.000Z</time>
      </trkpt>
      <trkpt lat="42.320584" lon="-8.81395">
        <ele>53</ele>
        <time>1970-01-01T00:14:29.000Z</time>
      </trkpt>
      <trkpt lat="42.320576" lon="-8.813965">
        <ele>53</ele>
        <time>1970-01-01T00:14:30.000Z</time>
      </trkpt>
      <trkpt lat="42.320568" lon="-8.813979">
        <ele>53</ele>
        <time>1970-01-01T00:14:31.000Z</time>
      </trkpt>
      <trkpt lat="42.32056" lon="-8.813991">
        <ele>53.2</ele>
        <time>1970-01-01T00:14:32.000Z</time>
      </trkpt>
      <trkpt lat="42.320553" lon="-8.814005">
        <ele>53.4</ele>
        <time>1970-01-01T00:14:33.000Z</time>
      </trkpt>
      <trkpt lat="42.320546" lon="-8.814025">
        <ele>53.4</ele>
        <time>1970-01-01T00:14:34.000Z</time>
      </trkpt>
      <trkpt lat="42.320542" lon="-8.814045">
        <ele>53.4</ele>
        <time>1970-01-01T00:14:35.000Z</time>
      </trkpt>
      <trkpt lat="42.320536" lon="-8.814065">
        <ele>53.4</ele>
        <time>1970-01-01T00:14:36.000Z</time>
      </trkpt>
      <trkpt lat="42.320531" lon="-8.814081">
        <ele>53.4</ele>
        <time>1970-01-01T00:14:37.000Z</time>
      </trkpt>
      <trkpt lat="42.320526" lon="-8.814099">
        <ele>53.4</ele>
        <time>1970-01-01T00:14:38.000Z</time>
      </trkpt>
      <trkpt lat="42.320521" lon="-8.814118">
        <ele>53.4</ele>
        <time>1970-01-01T00:14:39.000Z</time>
      </trkpt>
      <trkpt lat="42.320513" lon="-8.814136">
        <ele>53.2</ele>
        <time>1970-01-01T00:14:40.000Z</time>
      </trkpt>
      <trkpt lat="42.320502" lon="-8.814152">
        <ele>53.2</ele>
        <time>1970-01-01T00:14:41.000Z</time>
      </trkpt>
      <trkpt lat="42.320492" lon="-8.814168">
        <ele>53.4</ele>
        <time>1970-01-01T00:14:42.000Z</time>
      </trkpt>
      <trkpt lat="42.320483" lon="-8.814184">
        <ele>53.4</ele>
        <time>1970-01-01T00:14:43.000Z</time>
      </trkpt>
      <trkpt lat="42.320473" lon="-8.814201">
        <ele>53.4</ele>
        <time>1970-01-01T00:14:44.000Z</time>
      </trkpt>
      <trkpt lat="42.320463" lon="-8.81422">
        <ele>53.4</ele>
        <time>1970-01-01T00:14:45.000Z</time>
      </trkpt>
      <trkpt lat="42.320453" lon="-8.814239">
        <ele>53.4</ele>
        <time>1970-01-01T00:14:46.000Z</time>
      </trkpt>
      <trkpt lat="42.320447" lon="-8.814259">
        <ele>53.2</ele>
        <time>1970-01-01T00:14:47.000Z</time>
      </trkpt>
      <trkpt lat="42.32044" lon="-8.814273">
        <ele>53.2</ele>
        <time>1970-01-01T00:14:48.000Z</time>
      </trkpt>
      <trkpt lat="42.320433" lon="-8.814292">
        <ele>53.2</ele>
        <time>1970-01-01T00:14:49.000Z</time>
      </trkpt>
      <trkpt lat="42.320428" lon="-8.814315">
        <ele>53.2</ele>
        <time>1970-01-01T00:14:50.000Z</time>
      </trkpt>
      <trkpt lat="42.320423" lon="-8.814333">
        <ele>53.2</ele>
        <time>1970-01-01T00:14:51.000Z</time>
      </trkpt>
      <trkpt lat="42.320417" lon="-8.814353">
        <ele>53.2</ele>
        <time>1970-01-01T00:14:52.000Z</time>
      </trkpt>
      <trkpt lat="42.320411" lon="-8.814372">
        <ele>53.4</ele>
        <time>1970-01-01T00:14:53.000Z</time>
      </trkpt>
      <trkpt lat="42.320403" lon="-8.814387">
        <ele>53.2</ele>
        <time>1970-01-01T00:14:54.000Z</time>
      </trkpt>
      <trkpt lat="42.320394" lon="-8.814401">
        <ele>53.4</ele>
        <time>1970-01-01T00:14:55.000Z</time>
      </trkpt>
      <trkpt lat="42.320386" lon="-8.814414">
        <ele>53.4</ele>
        <time>1970-01-01T00:14:56.000Z</time>
      </trkpt>
      <trkpt lat="42.320378" lon="-8.814425">
        <ele>53.4</ele>
        <time>1970-01-01T00:14:57.000Z</time>
      </trkpt>
      <trkpt lat="42.32037" lon="-8.814442">
        <ele>53.6</ele>
        <time>1970-01-01T00:14:58.000Z</time>
      </trkpt>
      <trkpt lat="42.320363" lon="-8.814459">
        <ele>53.6</ele>
        <time>1970-01-01T00:14:59.000Z</time>
      </trkpt>
      <trkpt lat="42.320355" lon="-8.814477">
        <ele>53.4</ele>
        <time>1970-01-01T00:15:00.000Z</time>
      </trkpt>
      <trkpt lat="42.320349" lon="-8.814498">
        <ele>53.4</ele>
        <time>1970-01-01T00:15:01.000Z</time>
      </trkpt>
      <trkpt lat="42.320342" lon="-8.81452">
        <ele>53.2</ele>
        <time>1970-01-01T00:15:02.000Z</time>
      </trkpt>
      <trkpt lat="42.320337" lon="-8.814543">
        <ele>53</ele>
        <time>1970-01-01T00:15:03.000Z</time>
      </trkpt>
      <trkpt lat="42.320334" lon="-8.814564">
        <ele>52.8</ele>
        <time>1970-01-01T00:15:04.000Z</time>
      </trkpt>
      <trkpt lat="42.320333" lon="-8.814586">
        <ele>52.8</ele>
        <time>1970-01-01T00:15:05.000Z</time>
      </trkpt>
      <trkpt lat="42.32033" lon="-8.814604">
        <ele>52.6</ele>
        <time>1970-01-01T00:15:06.000Z</time>
      </trkpt>
      <trkpt lat="42.320324" lon="-8.814619">
        <ele>52.4</ele>
        <time>1970-01-01T00:15:07.000Z</time>
      </trkpt>
      <trkpt lat="42.320315" lon="-8.814636">
        <ele>52.4</ele>
        <time>1970-01-01T00:15:08.000Z</time>
      </trkpt>
      <trkpt lat="42.320305" lon="-8.814652">
        <ele>52.2</ele>
        <time>1970-01-01T00:15:09.000Z</time>
      </trkpt>
      <trkpt lat="42.320296" lon="-8.814667">
        <ele>52.2</ele>
        <time>1970-01-01T00:15:10.000Z</time>
      </trkpt>
      <trkpt lat="42.320287" lon="-8.814682">
        <ele>52.2</ele>
        <time>1970-01-01T00:15:11.000Z</time>
      </trkpt>
      <trkpt lat="42.32028" lon="-8.814697">
        <ele>52.2</ele>
        <time>1970-01-01T00:15:12.000Z</time>
      </trkpt>
      <trkpt lat="42.320272" lon="-8.814708">
        <ele>52.2</ele>
        <time>1970-01-01T00:15:13.000Z</time>
      </trkpt>
      <trkpt lat="42.320265" lon="-8.814723">
        <ele>52.2</ele>
        <time>1970-01-01T00:15:14.000Z</time>
      </trkpt>
      <trkpt lat="42.32026" lon="-8.814743">
        <ele>52.2</ele>
        <time>1970-01-01T00:15:15.000Z</time>
      </trkpt>
      <trkpt lat="42.320256" lon="-8.814757">
        <ele>52</ele>
        <time>1970-01-01T00:15:16.000Z</time>
      </trkpt>
      <trkpt lat="42.320249" lon="-8.814776">
        <ele>52</ele>
        <time>1970-01-01T00:15:17.000Z</time>
      </trkpt>
      <trkpt lat="42.32024" lon="-8.814795">
        <ele>52</ele>
        <time>1970-01-01T00:15:18.000Z</time>
      </trkpt>
      <trkpt lat="42.320231" lon="-8.814812">
        <ele>51.8</ele>
        <time>1970-01-01T00:15:19.000Z</time>
      </trkpt>
      <trkpt lat="42.320224" lon="-8.814834">
        <ele>51.8</ele>
        <time>1970-01-01T00:15:20.000Z</time>
      </trkpt>
      <trkpt lat="42.320218" lon="-8.814854">
        <ele>51.6</ele>
        <time>1970-01-01T00:15:21.000Z</time>
      </trkpt>
      <trkpt lat="42.320211" lon="-8.814877">
        <ele>51.6</ele>
        <time>1970-01-01T00:15:22.000Z</time>
      </trkpt>
      <trkpt lat="42.320207" lon="-8.814898">
        <ele>51.4</ele>
        <time>1970-01-01T00:15:23.000Z</time>
      </trkpt>
      <trkpt lat="42.320204" lon="-8.814917">
        <ele>51.6</ele>
        <time>1970-01-01T00:15:24.000Z</time>
      </trkpt>
      <trkpt lat="42.320202" lon="-8.814934">
        <ele>51.6</ele>
        <time>1970-01-01T00:15:25.000Z</time>
      </trkpt>
      <trkpt lat="42.320201" lon="-8.814953">
        <ele>51.6</ele>
        <time>1970-01-01T00:15:26.000Z</time>
      </trkpt>
      <trkpt lat="42.320202" lon="-8.814972">
        <ele>51.4</ele>
        <time>1970-01-01T00:15:27.000Z</time>
      </trkpt>
      <trkpt lat="42.320201" lon="-8.814993">
        <ele>51.2</ele>
        <time>1970-01-01T00:15:28.000Z</time>
      </trkpt>
      <trkpt lat="42.320199" lon="-8.815013">
        <ele>51</ele>
        <time>1970-01-01T00:15:29.000Z</time>
      </trkpt>
      <trkpt lat="42.320198" lon="-8.815027">
        <ele>50.8</ele>
        <time>1970-01-01T00:15:30.000Z</time>
      </trkpt>
      <trkpt lat="42.320199" lon="-8.815041">
        <ele>50.8</ele>
        <time>1970-01-01T00:15:31.000Z</time>
      </trkpt>
      <trkpt lat="42.320202" lon="-8.815059">
        <ele>50.8</ele>
        <time>1970-01-01T00:15:32.000Z</time>
      </trkpt>
      <trkpt lat="42.320205" lon="-8.815073">
        <ele>50.4</ele>
        <time>1970-01-01T00:15:33.000Z</time>
      </trkpt>
      <trkpt lat="42.320209" lon="-8.815087">
        <ele>50.4</ele>
        <time>1970-01-01T00:15:34.000Z</time>
      </trkpt>
      <trkpt lat="42.320214" lon="-8.815103">
        <ele>50.2</ele>
        <time>1970-01-01T00:15:35.000Z</time>
      </trkpt>
      <trkpt lat="42.320218" lon="-8.815121">
        <ele>50.2</ele>
        <time>1970-01-01T00:15:36.000Z</time>
      </trkpt>
      <trkpt lat="42.320224" lon="-8.815135">
        <ele>50</ele>
        <time>1970-01-01T00:15:37.000Z</time>
      </trkpt>
      <trkpt lat="42.320229" lon="-8.815153">
        <ele>50</ele>
        <time>1970-01-01T00:15:38.000Z</time>
      </trkpt>
      <trkpt lat="42.320236" lon="-8.815171">
        <ele>50</ele>
        <time>1970-01-01T00:15:39.000Z</time>
      </trkpt>
      <trkpt lat="42.320244" lon="-8.815193">
        <ele>50</ele>
        <time>1970-01-01T00:15:40.000Z</time>
      </trkpt>
      <trkpt lat="42.320248" lon="-8.815215">
        <ele>50.4</ele>
        <time>1970-01-01T00:15:41.000Z</time>
      </trkpt>
      <trkpt lat="42.320252" lon="-8.815239">
        <ele>50.8</ele>
        <time>1970-01-01T00:15:42.000Z</time>
      </trkpt>
      <trkpt lat="42.320258" lon="-8.815256">
        <ele>51</ele>
        <time>1970-01-01T00:15:43.000Z</time>
      </trkpt>
      <trkpt lat="42.320265" lon="-8.81527">
        <ele>51.2</ele>
        <time>1970-01-01T00:15:44.000Z</time>
      </trkpt>
      <trkpt lat="42.32027" lon="-8.815287">
        <ele>51</ele>
        <time>1970-01-01T00:15:45.000Z</time>
      </trkpt>
      <trkpt lat="42.320273" lon="-8.815311">
        <ele>51</ele>
        <time>1970-01-01T00:15:46.000Z</time>
      </trkpt>
      <trkpt lat="42.320277" lon="-8.815336">
        <ele>50.8</ele>
        <time>1970-01-01T00:15:47.000Z</time>
      </trkpt>
      <trkpt lat="42.320281" lon="-8.815352">
        <ele>50.6</ele>
        <time>1970-01-01T00:15:48.000Z</time>
      </trkpt>
      <trkpt lat="42.320286" lon="-8.815366">
        <ele>50.6</ele>
        <time>1970-01-01T00:15:49.000Z</time>
      </trkpt>
      <trkpt lat="42.320291" lon="-8.815383">
        <ele>50.6</ele>
        <time>1970-01-01T00:15:50.000Z</time>
      </trkpt>
      <trkpt lat="42.320296" lon="-8.815401">
        <ele>50.6</ele>
        <time>1970-01-01T00:15:51.000Z</time>
      </trkpt>
      <trkpt lat="42.320303" lon="-8.815417">
        <ele>50.6</ele>
        <time>1970-01-01T00:15:52.000Z</time>
      </trkpt>
      <trkpt lat="42.320308" lon="-8.815433">
        <ele>50.6</ele>
        <time>1970-01-01T00:15:53.000Z</time>
      </trkpt>
      <trkpt lat="42.320315" lon="-8.815448">
        <ele>50.6</ele>
        <time>1970-01-01T00:15:54.000Z</time>
      </trkpt>
      <trkpt lat="42.32032" lon="-8.815462">
        <ele>50.4</ele>
        <time>1970-01-01T00:15:55.000Z</time>
      </trkpt>
      <trkpt lat="42.320325" lon="-8.815476">
        <ele>50.4</ele>
        <time>1970-01-01T00:15:56.000Z</time>
      </trkpt>
      <trkpt lat="42.32033" lon="-8.815491">
        <ele>50.4</ele>
        <time>1970-01-01T00:15:57.000Z</time>
      </trkpt>
      <trkpt lat="42.320336" lon="-8.815504">
        <ele>50.4</ele>
        <time>1970-01-01T00:15:58.000Z</time>
      </trkpt>
      <trkpt lat="42.320342" lon="-8.81552">
        <ele>50.4</ele>
        <time>1970-01-01T00:15:59.000Z</time>
      </trkpt>
      <trkpt lat="42.320349" lon="-8.815539">
        <ele>50.2</ele>
        <time>1970-01-01T00:16:00.000Z</time>
      </trkpt>
      <trkpt lat="42.320354" lon="-8.815554">
        <ele>50.2</ele>
        <time>1970-01-01T00:16:01.000Z</time>
      </trkpt>
      <trkpt lat="42.32036" lon="-8.815573">
        <ele>50.2</ele>
        <time>1970-01-01T00:16:02.000Z</time>
      </trkpt>
      <trkpt lat="42.320359" lon="-8.815595">
        <ele>50</ele>
        <time>1970-01-01T00:16:03.000Z</time>
      </trkpt>
      <trkpt lat="42.320363" lon="-8.815607">
        <ele>50</ele>
        <time>1970-01-01T00:16:04.000Z</time>
      </trkpt>
      <trkpt lat="42.320367" lon="-8.815622">
        <ele>49.8</ele>
        <time>1970-01-01T00:16:05.000Z</time>
      </trkpt>
      <trkpt lat="42.320371" lon="-8.81564">
        <ele>49.8</ele>
        <time>1970-01-01T00:16:06.000Z</time>
      </trkpt>
      <trkpt lat="42.320377" lon="-8.815658">
        <ele>49.6</ele>
        <time>1970-01-01T00:16:07.000Z</time>
      </trkpt>
      <trkpt lat="42.320385" lon="-8.815671">
        <ele>49.6</ele>
        <time>1970-01-01T00:16:08.000Z</time>
      </trkpt>
      <trkpt lat="42.32039" lon="-8.815685">
        <ele>49.4</ele>
        <time>1970-01-01T00:16:09.000Z</time>
      </trkpt>
      <trkpt lat="42.320397" lon="-8.815699">
        <ele>49.4</ele>
        <time>1970-01-01T00:16:10.000Z</time>
      </trkpt>
      <trkpt lat="42.320404" lon="-8.815715">
        <ele>49.2</ele>
        <time>1970-01-01T00:16:11.000Z</time>
      </trkpt>
      <trkpt lat="42.320409" lon="-8.815731">
        <ele>49.4</ele>
        <time>1970-01-01T00:16:12.000Z</time>
      </trkpt>
      <trkpt lat="42.320416" lon="-8.815756">
        <ele>49.6</ele>
        <time>1970-01-01T00:16:13.000Z</time>
      </trkpt>
      <trkpt lat="42.320424" lon="-8.815783">
        <ele>49.8</ele>
        <time>1970-01-01T00:16:14.000Z</time>
      </trkpt>
      <trkpt lat="42.320434" lon="-8.815808">
        <ele>50</ele>
        <time>1970-01-01T00:16:15.000Z</time>
      </trkpt>
      <trkpt lat="42.320444" lon="-8.815828">
        <ele>50.2</ele>
        <time>1970-01-01T00:16:16.000Z</time>
      </trkpt>
      <trkpt lat="42.320445" lon="-8.815861">
        <ele>50.4</ele>
        <time>1970-01-01T00:16:17.000Z</time>
      </trkpt>
      <trkpt lat="42.320456" lon="-8.815885">
        <ele>50.6</ele>
        <time>1970-01-01T00:16:18.000Z</time>
      </trkpt>
      <trkpt lat="42.320465" lon="-8.815909">
        <ele>50.6</ele>
        <time>1970-01-01T00:16:19.000Z</time>
      </trkpt>
      <trkpt lat="42.320473" lon="-8.815933">
        <ele>50.6</ele>
        <time>1970-01-01T00:16:20.000Z</time>
      </trkpt>
      <trkpt lat="42.320479" lon="-8.815957">
        <ele>50.6</ele>
        <time>1970-01-01T00:16:21.000Z</time>
      </trkpt>
      <trkpt lat="42.320485" lon="-8.815976">
        <ele>50.4</ele>
        <time>1970-01-01T00:16:22.000Z</time>
      </trkpt>
      <trkpt lat="42.320487" lon="-8.816001">
        <ele>50.2</ele>
        <time>1970-01-01T00:16:23.000Z</time>
      </trkpt>
      <trkpt lat="42.32049" lon="-8.816014">
        <ele>50.2</ele>
        <time>1970-01-01T00:16:24.000Z</time>
      </trkpt>
      <trkpt lat="42.320496" lon="-8.816026">
        <ele>50.2</ele>
        <time>1970-01-01T00:16:25.000Z</time>
      </trkpt>
      <trkpt lat="42.3205" lon="-8.816045">
        <ele>50</ele>
        <time>1970-01-01T00:16:26.000Z</time>
      </trkpt>
      <trkpt lat="42.320506" lon="-8.81606">
        <ele>50.2</ele>
        <time>1970-01-01T00:16:27.000Z</time>
      </trkpt>
      <trkpt lat="42.32051" lon="-8.816077">
        <ele>50.2</ele>
        <time>1970-01-01T00:16:28.000Z</time>
      </trkpt>
      <trkpt lat="42.320513" lon="-8.816093">
        <ele>50</ele>
        <time>1970-01-01T00:16:29.000Z</time>
      </trkpt>
      <trkpt lat="42.320515" lon="-8.816114">
        <ele>50.2</ele>
        <time>1970-01-01T00:16:30.000Z</time>
      </trkpt>
      <trkpt lat="42.320516" lon="-8.816139">
        <ele>50</ele>
        <time>1970-01-01T00:16:31.000Z</time>
      </trkpt>
      <trkpt lat="42.320519" lon="-8.81616">
        <ele>50.2</ele>
        <time>1970-01-01T00:16:32.000Z</time>
      </trkpt>
      <trkpt lat="42.32052" lon="-8.816179">
        <ele>50.2</ele>
        <time>1970-01-01T00:16:33.000Z</time>
      </trkpt>
      <trkpt lat="42.320518" lon="-8.816196">
        <ele>50.2</ele>
        <time>1970-01-01T00:16:34.000Z</time>
      </trkpt>
      <trkpt lat="42.320516" lon="-8.816217">
        <ele>50.2</ele>
        <time>1970-01-01T00:16:35.000Z</time>
      </trkpt>
      <trkpt lat="42.320515" lon="-8.816235">
        <ele>50</ele>
        <time>1970-01-01T00:16:36.000Z</time>
      </trkpt>
      <trkpt lat="42.320516" lon="-8.816247">
        <ele>50</ele>
        <time>1970-01-01T00:16:37.000Z</time>
      </trkpt>
      <trkpt lat="42.320517" lon="-8.81626">
        <ele>50.2</ele>
        <time>1970-01-01T00:16:38.000Z</time>
      </trkpt>
      <trkpt lat="42.320517" lon="-8.816273">
        <ele>50</ele>
        <time>1970-01-01T00:16:39.000Z</time>
      </trkpt>
      <trkpt lat="42.320517" lon="-8.816286">
        <ele>50</ele>
        <time>1970-01-01T00:16:40.000Z</time>
      </trkpt>
      <trkpt lat="42.320518" lon="-8.816303">
        <ele>50</ele>
        <time>1970-01-01T00:16:41.000Z</time>
      </trkpt>
      <trkpt lat="42.320519" lon="-8.81632">
        <ele>50.2</ele>
        <time>1970-01-01T00:16:42.000Z</time>
      </trkpt>
      <trkpt lat="42.320518" lon="-8.816342">
        <ele>50.2</ele>
        <time>1970-01-01T00:16:43.000Z</time>
      </trkpt>
      <trkpt lat="42.320517" lon="-8.816362">
        <ele>50.2</ele>
        <time>1970-01-01T00:16:44.000Z</time>
      </trkpt>
      <trkpt lat="42.320516" lon="-8.816382">
        <ele>50.4</ele>
        <time>1970-01-01T00:16:45.000Z</time>
      </trkpt>
      <trkpt lat="42.320515" lon="-8.816402">
        <ele>50.4</ele>
        <time>1970-01-01T00:16:46.000Z</time>
      </trkpt>
      <trkpt lat="42.320513" lon="-8.816422">
        <ele>50.4</ele>
        <time>1970-01-01T00:16:47.000Z</time>
      </trkpt>
      <trkpt lat="42.32051" lon="-8.816443">
        <ele>50.6</ele>
        <time>1970-01-01T00:16:48.000Z</time>
      </trkpt>
      <trkpt lat="42.320507" lon="-8.816463">
        <ele>50.6</ele>
        <time>1970-01-01T00:16:49.000Z</time>
      </trkpt>
      <trkpt lat="42.320503" lon="-8.816479">
        <ele>50.6</ele>
        <time>1970-01-01T00:16:50.000Z</time>
      </trkpt>
      <trkpt lat="42.320499" lon="-8.8165">
        <ele>50.6</ele>
        <time>1970-01-01T00:16:51.000Z</time>
      </trkpt>
      <trkpt lat="42.320495" lon="-8.816521">
        <ele>50.6</ele>
        <time>1970-01-01T00:16:52.000Z</time>
      </trkpt>
      <trkpt lat="42.320493" lon="-8.816545">
        <ele>50.6</ele>
        <time>1970-01-01T00:16:53.000Z</time>
      </trkpt>
      <trkpt lat="42.320491" lon="-8.816566">
        <ele>50.6</ele>
        <time>1970-01-01T00:16:54.000Z</time>
      </trkpt>
      <trkpt lat="42.320488" lon="-8.816587">
        <ele>50.6</ele>
        <time>1970-01-01T00:16:55.000Z</time>
      </trkpt>
      <trkpt lat="42.320484" lon="-8.816606">
        <ele>50.6</ele>
        <time>1970-01-01T00:16:56.000Z</time>
      </trkpt>
      <trkpt lat="42.32048" lon="-8.816625">
        <ele>50.4</ele>
        <time>1970-01-01T00:16:57.000Z</time>
      </trkpt>
      <trkpt lat="42.320476" lon="-8.816642">
        <ele>50.2</ele>
        <time>1970-01-01T00:16:58.000Z</time>
      </trkpt>
      <trkpt lat="42.320471" lon="-8.816657">
        <ele>50.2</ele>
        <time>1970-01-01T00:16:59.000Z</time>
      </trkpt>
      <trkpt lat="42.320466" lon="-8.816669">
        <ele>50.4</ele>
        <time>1970-01-01T00:17:00.000Z</time>
      </trkpt>
      <trkpt lat="42.32046" lon="-8.816682">
        <ele>50.2</ele>
        <time>1970-01-01T00:17:01.000Z</time>
      </trkpt>
      <trkpt lat="42.320454" lon="-8.816696">
        <ele>50.2</ele>
        <time>1970-01-01T00:17:02.000Z</time>
      </trkpt>
      <trkpt lat="42.320447" lon="-8.816714">
        <ele>50.2</ele>
        <time>1970-01-01T00:17:03.000Z</time>
      </trkpt>
      <trkpt lat="42.320439" lon="-8.816731">
        <ele>50.2</ele>
        <time>1970-01-01T00:17:04.000Z</time>
      </trkpt>
      <trkpt lat="42.32043" lon="-8.816746">
        <ele>50.2</ele>
        <time>1970-01-01T00:17:05.000Z</time>
      </trkpt>
      <trkpt lat="42.320421" lon="-8.816758">
        <ele>50.4</ele>
        <time>1970-01-01T00:17:06.000Z</time>
      </trkpt>
      <trkpt lat="42.320414" lon="-8.816777">
        <ele>50.8</ele>
        <time>1970-01-01T00:17:07.000Z</time>
      </trkpt>
      <trkpt lat="42.320406" lon="-8.816795">
        <ele>51</ele>
        <time>1970-01-01T00:17:08.000Z</time>
      </trkpt>
      <trkpt lat="42.3204" lon="-8.816815">
        <ele>51</ele>
        <time>1970-01-01T00:17:09.000Z</time>
      </trkpt>
      <trkpt lat="42.320394" lon="-8.816835">
        <ele>51</ele>
        <time>1970-01-01T00:17:10.000Z</time>
      </trkpt>
      <trkpt lat="42.320386" lon="-8.816851">
        <ele>51</ele>
        <time>1970-01-01T00:17:11.000Z</time>
      </trkpt>
      <trkpt lat="42.32038" lon="-8.816866">
        <ele>51</ele>
        <time>1970-01-01T00:17:12.000Z</time>
      </trkpt>
      <trkpt lat="42.320375" lon="-8.816882">
        <ele>51</ele>
        <time>1970-01-01T00:17:13.000Z</time>
      </trkpt>
      <trkpt lat="42.320369" lon="-8.816901">
        <ele>51</ele>
        <time>1970-01-01T00:17:14.000Z</time>
      </trkpt>
      <trkpt lat="42.320364" lon="-8.81692">
        <ele>51.2</ele>
        <time>1970-01-01T00:17:15.000Z</time>
      </trkpt>
      <trkpt lat="42.32036" lon="-8.816937">
        <ele>51.2</ele>
        <time>1970-01-01T00:17:16.000Z</time>
      </trkpt>
      <trkpt lat="42.320357" lon="-8.816946">
        <ele>51.2</ele>
        <time>1970-01-01T00:17:17.000Z</time>
      </trkpt>
      <trkpt lat="42.320355" lon="-8.816958">
        <ele>51.4</ele>
        <time>1970-01-01T00:17:18.000Z</time>
      </trkpt>
      <trkpt lat="42.320352" lon="-8.816981">
        <ele>51.4</ele>
        <time>1970-01-01T00:17:19.000Z</time>
      </trkpt>
      <trkpt lat="42.32035" lon="-8.817003">
        <ele>51.4</ele>
        <time>1970-01-01T00:17:20.000Z</time>
      </trkpt>
      <trkpt lat="42.320348" lon="-8.817024">
        <ele>51.4</ele>
        <time>1970-01-01T00:17:21.000Z</time>
      </trkpt>
      <trkpt lat="42.320346" lon="-8.817042">
        <ele>51.4</ele>
        <time>1970-01-01T00:17:22.000Z</time>
      </trkpt>
      <trkpt lat="42.320347" lon="-8.817061">
        <ele>51.8</ele>
        <time>1970-01-01T00:17:23.000Z</time>
      </trkpt>
      <trkpt lat="42.320344" lon="-8.817083">
        <ele>51.8</ele>
        <time>1970-01-01T00:17:24.000Z</time>
      </trkpt>
      <trkpt lat="42.32034" lon="-8.817105">
        <ele>52</ele>
        <time>1970-01-01T00:17:25.000Z</time>
      </trkpt>
      <trkpt lat="42.320336" lon="-8.817125">
        <ele>51.8</ele>
        <time>1970-01-01T00:17:26.000Z</time>
      </trkpt>
      <trkpt lat="42.320331" lon="-8.817149">
        <ele>51.8</ele>
        <time>1970-01-01T00:17:27.000Z</time>
      </trkpt>
      <trkpt lat="42.320328" lon="-8.817171">
        <ele>51.8</ele>
        <time>1970-01-01T00:17:28.000Z</time>
      </trkpt>
      <trkpt lat="42.320325" lon="-8.81719">
        <ele>51.8</ele>
        <time>1970-01-01T00:17:29.000Z</time>
      </trkpt>
      <trkpt lat="42.320325" lon="-8.817207">
        <ele>51.8</ele>
        <time>1970-01-01T00:17:30.000Z</time>
      </trkpt>
      <trkpt lat="42.320326" lon="-8.817219">
        <ele>52.2</ele>
        <time>1970-01-01T00:17:31.000Z</time>
      </trkpt>
      <trkpt lat="42.320325" lon="-8.817234">
        <ele>52.4</ele>
        <time>1970-01-01T00:17:32.000Z</time>
      </trkpt>
      <trkpt lat="42.320326" lon="-8.81725">
        <ele>52.4</ele>
        <time>1970-01-01T00:17:33.000Z</time>
      </trkpt>
      <trkpt lat="42.320327" lon="-8.817267">
        <ele>52.6</ele>
        <time>1970-01-01T00:17:34.000Z</time>
      </trkpt>
      <trkpt lat="42.320327" lon="-8.817284">
        <ele>52.6</ele>
        <time>1970-01-01T00:17:35.000Z</time>
      </trkpt>
      <trkpt lat="42.320326" lon="-8.817303">
        <ele>52.6</ele>
        <time>1970-01-01T00:17:36.000Z</time>
      </trkpt>
      <trkpt lat="42.320323" lon="-8.817322">
        <ele>52.6</ele>
        <time>1970-01-01T00:17:37.000Z</time>
      </trkpt>
      <trkpt lat="42.320321" lon="-8.817342">
        <ele>52.6</ele>
        <time>1970-01-01T00:17:38.000Z</time>
      </trkpt>
      <trkpt lat="42.320318" lon="-8.817363">
        <ele>52.6</ele>
        <time>1970-01-01T00:17:39.000Z</time>
      </trkpt>
      <trkpt lat="42.320314" lon="-8.817384">
        <ele>52.8</ele>
        <time>1970-01-01T00:17:40.000Z</time>
      </trkpt>
      <trkpt lat="42.320307" lon="-8.817411">
        <ele>53</ele>
        <time>1970-01-01T00:17:41.000Z</time>
      </trkpt>
      <trkpt lat="42.320303" lon="-8.817435">
        <ele>53.2</ele>
        <time>1970-01-01T00:17:42.000Z</time>
      </trkpt>
      <trkpt lat="42.3203" lon="-8.817452">
        <ele>53.2</ele>
        <time>1970-01-01T00:17:43.000Z</time>
      </trkpt>
      <trkpt lat="42.320295" lon="-8.817468">
        <ele>53.4</ele>
        <time>1970-01-01T00:17:44.000Z</time>
      </trkpt>
      <trkpt lat="42.32029" lon="-8.817481">
        <ele>53.4</ele>
        <time>1970-01-01T00:17:45.000Z</time>
      </trkpt>
      <trkpt lat="42.320286" lon="-8.817495">
        <ele>53.4</ele>
        <time>1970-01-01T00:17:46.000Z</time>
      </trkpt>
      <trkpt lat="42.320285" lon="-8.817513">
        <ele>53.6</ele>
        <time>1970-01-01T00:17:47.000Z</time>
      </trkpt>
      <trkpt lat="42.320284" lon="-8.81753">
        <ele>53.8</ele>
        <time>1970-01-01T00:17:48.000Z</time>
      </trkpt>
      <trkpt lat="42.320284" lon="-8.817551">
        <ele>53.8</ele>
        <time>1970-01-01T00:17:49.000Z</time>
      </trkpt>
      <trkpt lat="42.320282" lon="-8.817572">
        <ele>54</ele>
        <time>1970-01-01T00:17:50.000Z</time>
      </trkpt>
      <trkpt lat="42.32028" lon="-8.81759">
        <ele>54.4</ele>
        <time>1970-01-01T00:17:51.000Z</time>
      </trkpt>
      <trkpt lat="42.320277" lon="-8.817607">
        <ele>54.6</ele>
        <time>1970-01-01T00:17:52.000Z</time>
      </trkpt>
      <trkpt lat="42.320272" lon="-8.817621">
        <ele>54.6</ele>
        <time>1970-01-01T00:17:53.000Z</time>
      </trkpt>
      <trkpt lat="42.320269" lon="-8.817636">
        <ele>54.8</ele>
        <time>1970-01-01T00:17:54.000Z</time>
      </trkpt>
      <trkpt lat="42.320264" lon="-8.817654">
        <ele>55</ele>
        <time>1970-01-01T00:17:55.000Z</time>
      </trkpt>
      <trkpt lat="42.320262" lon="-8.81767">
        <ele>55</ele>
        <time>1970-01-01T00:17:56.000Z</time>
      </trkpt>
      <trkpt lat="42.320261" lon="-8.817689">
        <ele>55.2</ele>
        <time>1970-01-01T00:17:57.000Z</time>
      </trkpt>
      <trkpt lat="42.320259" lon="-8.817708">
        <ele>55.6</ele>
        <time>1970-01-01T00:17:58.000Z</time>
      </trkpt>
      <trkpt lat="42.320259" lon="-8.817727">
        <ele>56</ele>
        <time>1970-01-01T00:17:59.000Z</time>
      </trkpt>
      <trkpt lat="42.32026" lon="-8.817746">
        <ele>56</ele>
        <time>1970-01-01T00:18:00.000Z</time>
      </trkpt>
      <trkpt lat="42.320259" lon="-8.817761">
        <ele>56.2</ele>
        <time>1970-01-01T00:18:01.000Z</time>
      </trkpt>
      <trkpt lat="42.32026" lon="-8.817781">
        <ele>56.4</ele>
        <time>1970-01-01T00:18:02.000Z</time>
      </trkpt>
      <trkpt lat="42.320261" lon="-8.817797">
        <ele>56.4</ele>
        <time>1970-01-01T00:18:03.000Z</time>
      </trkpt>
      <trkpt lat="42.320265" lon="-8.817814">
        <ele>56.4</ele>
        <time>1970-01-01T00:18:04.000Z</time>
      </trkpt>
      <trkpt lat="42.320269" lon="-8.817835">
        <ele>56.4</ele>
        <time>1970-01-01T00:18:05.000Z</time>
      </trkpt>
      <trkpt lat="42.320272" lon="-8.817858">
        <ele>56.4</ele>
        <time>1970-01-01T00:18:06.000Z</time>
      </trkpt>
      <trkpt lat="42.320274" lon="-8.817884">
        <ele>56.4</ele>
        <time>1970-01-01T00:18:07.000Z</time>
      </trkpt>
      <trkpt lat="42.320278" lon="-8.817904">
        <ele>56.4</ele>
        <time>1970-01-01T00:18:08.000Z</time>
      </trkpt>
      <trkpt lat="42.320284" lon="-8.817921">
        <ele>56.6</ele>
        <time>1970-01-01T00:18:09.000Z</time>
      </trkpt>
      <trkpt lat="42.32029" lon="-8.817937">
        <ele>56.8</ele>
        <time>1970-01-01T00:18:10.000Z</time>
      </trkpt>
      <trkpt lat="42.320295" lon="-8.817954">
        <ele>56.6</ele>
        <time>1970-01-01T00:18:11.000Z</time>
      </trkpt>
      <trkpt lat="42.320298" lon="-8.817974">
        <ele>56.8</ele>
        <time>1970-01-01T00:18:12.000Z</time>
      </trkpt>
      <trkpt lat="42.320301" lon="-8.817992">
        <ele>57</ele>
        <time>1970-01-01T00:18:13.000Z</time>
      </trkpt>
      <trkpt lat="42.320303" lon="-8.818009">
        <ele>57</ele>
        <time>1970-01-01T00:18:14.000Z</time>
      </trkpt>
      <trkpt lat="42.320303" lon="-8.818027">
        <ele>57</ele>
        <time>1970-01-01T00:18:15.000Z</time>
      </trkpt>
      <trkpt lat="42.320304" lon="-8.818048">
        <ele>57</ele>
        <time>1970-01-01T00:18:16.000Z</time>
      </trkpt>
      <trkpt lat="42.320304" lon="-8.818068">
        <ele>57.2</ele>
        <time>1970-01-01T00:18:17.000Z</time>
      </trkpt>
      <trkpt lat="42.320306" lon="-8.818083">
        <ele>57.2</ele>
        <time>1970-01-01T00:18:18.000Z</time>
      </trkpt>
      <trkpt lat="42.320306" lon="-8.818102">
        <ele>57.4</ele>
        <time>1970-01-01T00:18:19.000Z</time>
      </trkpt>
      <trkpt lat="42.320305" lon="-8.818119">
        <ele>57.8</ele>
        <time>1970-01-01T00:18:20.000Z</time>
      </trkpt>
      <trkpt lat="42.320302" lon="-8.81814">
        <ele>58.2</ele>
        <time>1970-01-01T00:18:21.000Z</time>
      </trkpt>
      <trkpt lat="42.320297" lon="-8.818155">
        <ele>58.2</ele>
        <time>1970-01-01T00:18:22.000Z</time>
      </trkpt>
      <trkpt lat="42.320291" lon="-8.818173">
        <ele>58.4</ele>
        <time>1970-01-01T00:18:23.000Z</time>
      </trkpt>
      <trkpt lat="42.320287" lon="-8.818184">
        <ele>58.4</ele>
        <time>1970-01-01T00:18:24.000Z</time>
      </trkpt>
      <trkpt lat="42.320285" lon="-8.818201">
        <ele>58.4</ele>
        <time>1970-01-01T00:18:25.000Z</time>
      </trkpt>
      <trkpt lat="42.320283" lon="-8.818216">
        <ele>58.4</ele>
        <time>1970-01-01T00:18:26.000Z</time>
      </trkpt>
      <trkpt lat="42.320281" lon="-8.81823">
        <ele>58.4</ele>
        <time>1970-01-01T00:18:27.000Z</time>
      </trkpt>
      <trkpt lat="42.32028" lon="-8.818249">
        <ele>58.6</ele>
        <time>1970-01-01T00:18:28.000Z</time>
      </trkpt>
      <trkpt lat="42.320279" lon="-8.818271">
        <ele>58.8</ele>
        <time>1970-01-01T00:18:29.000Z</time>
      </trkpt>
      <trkpt lat="42.320278" lon="-8.81829">
        <ele>58.8</ele>
        <time>1970-01-01T00:18:30.000Z</time>
      </trkpt>
      <trkpt lat="42.320274" lon="-8.818308">
        <ele>59</ele>
        <time>1970-01-01T00:18:31.000Z</time>
      </trkpt>
      <trkpt lat="42.32027" lon="-8.818328">
        <ele>59</ele>
        <time>1970-01-01T00:18:32.000Z</time>
      </trkpt>
      <trkpt lat="42.320264" lon="-8.818348">
        <ele>59</ele>
        <time>1970-01-01T00:18:33.000Z</time>
      </trkpt>
      <trkpt lat="42.320258" lon="-8.818365">
        <ele>59</ele>
        <time>1970-01-01T00:18:34.000Z</time>
      </trkpt>
      <trkpt lat="42.32025" lon="-8.818383">
        <ele>59</ele>
        <time>1970-01-01T00:18:35.000Z</time>
      </trkpt>
      <trkpt lat="42.32024" lon="-8.818397">
        <ele>59</ele>
        <time>1970-01-01T00:18:36.000Z</time>
      </trkpt>
      <trkpt lat="42.320232" lon="-8.818416">
        <ele>59</ele>
        <time>1970-01-01T00:18:37.000Z</time>
      </trkpt>
      <trkpt lat="42.320232" lon="-8.818416">
        <ele>59</ele>
        <time>1970-01-01T00:18:38.000Z</time>
      </trkpt>
      <trkpt lat="42.320225" lon="-8.818429">
        <ele>59</ele>
        <time>1970-01-01T00:18:39.000Z</time>
      </trkpt>
      <trkpt lat="42.32022" lon="-8.818442">
        <ele>59</ele>
        <time>1970-01-01T00:18:40.000Z</time>
      </trkpt>
      <trkpt lat="42.320212" lon="-8.818453">
        <ele>59</ele>
        <time>1970-01-01T00:18:41.000Z</time>
      </trkpt>
      <trkpt lat="42.320204" lon="-8.818468">
        <ele>59</ele>
        <time>1970-01-01T00:18:42.000Z</time>
      </trkpt>
      <trkpt lat="42.320197" lon="-8.818484">
        <ele>58.8</ele>
        <time>1970-01-01T00:18:43.000Z</time>
      </trkpt>
      <trkpt lat="42.320189" lon="-8.818495">
        <ele>59</ele>
        <time>1970-01-01T00:18:44.000Z</time>
      </trkpt>
      <trkpt lat="42.320182" lon="-8.818505">
        <ele>58.8</ele>
        <time>1970-01-01T00:18:45.000Z</time>
      </trkpt>
      <trkpt lat="42.320177" lon="-8.818519">
        <ele>58.8</ele>
        <time>1970-01-01T00:18:46.000Z</time>
      </trkpt>
      <trkpt lat="42.320174" lon="-8.818535">
        <ele>58.6</ele>
        <time>1970-01-01T00:18:47.000Z</time>
      </trkpt>
      <trkpt lat="42.320172" lon="-8.818554">
        <ele>58.6</ele>
        <time>1970-01-01T00:18:48.000Z</time>
      </trkpt>
      <trkpt lat="42.320171" lon="-8.818573">
        <ele>58.6</ele>
        <time>1970-01-01T00:18:49.000Z</time>
      </trkpt>
      <trkpt lat="42.32017" lon="-8.818596">
        <ele>58.6</ele>
        <time>1970-01-01T00:18:50.000Z</time>
      </trkpt>
      <trkpt lat="42.320168" lon="-8.818615">
        <ele>58.6</ele>
        <time>1970-01-01T00:18:51.000Z</time>
      </trkpt>
      <trkpt lat="42.320165" lon="-8.818633">
        <ele>58.6</ele>
        <time>1970-01-01T00:18:52.000Z</time>
      </trkpt>
      <trkpt lat="42.320164" lon="-8.818649">
        <ele>58.2</ele>
        <time>1970-01-01T00:18:53.000Z</time>
      </trkpt>
      <trkpt lat="42.320163" lon="-8.818668">
        <ele>58.4</ele>
        <time>1970-01-01T00:18:54.000Z</time>
      </trkpt>
      <trkpt lat="42.320164" lon="-8.818692">
        <ele>58.2</ele>
        <time>1970-01-01T00:18:55.000Z</time>
      </trkpt>
      <trkpt lat="42.320165" lon="-8.818718">
        <ele>57.8</ele>
        <time>1970-01-01T00:18:56.000Z</time>
      </trkpt>
      <trkpt lat="42.320165" lon="-8.818741">
        <ele>57.4</ele>
        <time>1970-01-01T00:18:57.000Z</time>
      </trkpt>
      <trkpt lat="42.320166" lon="-8.818762">
        <ele>57.2</ele>
        <time>1970-01-01T00:18:58.000Z</time>
      </trkpt>
      <trkpt lat="42.32017" lon="-8.818786">
        <ele>57</ele>
        <time>1970-01-01T00:18:59.000Z</time>
      </trkpt>
      <trkpt lat="42.320173" lon="-8.818803">
        <ele>57</ele>
        <time>1970-01-01T00:19:00.000Z</time>
      </trkpt>
      <trkpt lat="42.320175" lon="-8.81882">
        <ele>56.6</ele>
        <time>1970-01-01T00:19:01.000Z</time>
      </trkpt>
      <trkpt lat="42.320176" lon="-8.818841">
        <ele>56.4</ele>
        <time>1970-01-01T00:19:02.000Z</time>
      </trkpt>
      <trkpt lat="42.320176" lon="-8.818863">
        <ele>56.6</ele>
        <time>1970-01-01T00:19:03.000Z</time>
      </trkpt>
      <trkpt lat="42.320178" lon="-8.818883">
        <ele>56.6</ele>
        <time>1970-01-01T00:19:04.000Z</time>
      </trkpt>
      <trkpt lat="42.320176" lon="-8.818904">
        <ele>56.6</ele>
        <time>1970-01-01T00:19:05.000Z</time>
      </trkpt>
      <trkpt lat="42.320174" lon="-8.818922">
        <ele>56.6</ele>
        <time>1970-01-01T00:19:06.000Z</time>
      </trkpt>
      <trkpt lat="42.320173" lon="-8.818939">
        <ele>56.8</ele>
        <time>1970-01-01T00:19:07.000Z</time>
      </trkpt>
      <trkpt lat="42.320172" lon="-8.818955">
        <ele>57</ele>
        <time>1970-01-01T00:19:08.000Z</time>
      </trkpt>
      <trkpt lat="42.320172" lon="-8.81897">
        <ele>57</ele>
        <time>1970-01-01T00:19:09.000Z</time>
      </trkpt>
      <trkpt lat="42.320173" lon="-8.81899">
        <ele>57</ele>
        <time>1970-01-01T00:19:10.000Z</time>
      </trkpt>
      <trkpt lat="42.320175" lon="-8.819007">
        <ele>57</ele>
        <time>1970-01-01T00:19:11.000Z</time>
      </trkpt>
      <trkpt lat="42.320179" lon="-8.819026">
        <ele>56.8</ele>
        <time>1970-01-01T00:19:12.000Z</time>
      </trkpt>
      <trkpt lat="42.320183" lon="-8.819048">
        <ele>56.6</ele>
        <time>1970-01-01T00:19:13.000Z</time>
      </trkpt>
      <trkpt lat="42.320187" lon="-8.819068">
        <ele>56.4</ele>
        <time>1970-01-01T00:19:14.000Z</time>
      </trkpt>
      <trkpt lat="42.32019" lon="-8.819091">
        <ele>56.2</ele>
        <time>1970-01-01T00:19:15.000Z</time>
      </trkpt>
      <trkpt lat="42.320189" lon="-8.819114">
        <ele>56.2</ele>
        <time>1970-01-01T00:19:16.000Z</time>
      </trkpt>
      <trkpt lat="42.320187" lon="-8.819134">
        <ele>56</ele>
        <time>1970-01-01T00:19:17.000Z</time>
      </trkpt>
      <trkpt lat="42.320186" lon="-8.819155">
        <ele>56</ele>
        <time>1970-01-01T00:19:18.000Z</time>
      </trkpt>
      <trkpt lat="42.320184" lon="-8.819174">
        <ele>56</ele>
        <time>1970-01-01T00:19:19.000Z</time>
      </trkpt>
      <trkpt lat="42.320178" lon="-8.819192">
        <ele>55.8</ele>
        <time>1970-01-01T00:19:20.000Z</time>
      </trkpt>
      <trkpt lat="42.320175" lon="-8.819209">
        <ele>55.8</ele>
        <time>1970-01-01T00:19:21.000Z</time>
      </trkpt>
      <trkpt lat="42.320175" lon="-8.819234">
        <ele>55.6</ele>
        <time>1970-01-01T00:19:22.000Z</time>
      </trkpt>
      <trkpt lat="42.32018" lon="-8.81925">
        <ele>55.8</ele>
        <time>1970-01-01T00:19:23.000Z</time>
      </trkpt>
      <trkpt lat="42.320184" lon="-8.819261">
        <ele>55.6</ele>
        <time>1970-01-01T00:19:24.000Z</time>
      </trkpt>
      <trkpt lat="42.320193" lon="-8.819281">
        <ele>55.4</ele>
        <time>1970-01-01T00:19:25.000Z</time>
      </trkpt>
      <trkpt lat="42.320202" lon="-8.819299">
        <ele>55.4</ele>
        <time>1970-01-01T00:19:26.000Z</time>
      </trkpt>
      <trkpt lat="42.320209" lon="-8.819318">
        <ele>55.2</ele>
        <time>1970-01-01T00:19:27.000Z</time>
      </trkpt>
      <trkpt lat="42.320216" lon="-8.819335">
        <ele>55.2</ele>
        <time>1970-01-01T00:19:28.000Z</time>
      </trkpt>
      <trkpt lat="42.320222" lon="-8.819352">
        <ele>55</ele>
        <time>1970-01-01T00:19:29.000Z</time>
      </trkpt>
      <trkpt lat="42.320227" lon="-8.819372">
        <ele>55</ele>
        <time>1970-01-01T00:19:30.000Z</time>
      </trkpt>
      <trkpt lat="42.320235" lon="-8.819391">
        <ele>54.8</ele>
        <time>1970-01-01T00:19:31.000Z</time>
      </trkpt>
      <trkpt lat="42.320246" lon="-8.819406">
        <ele>54.8</ele>
        <time>1970-01-01T00:19:32.000Z</time>
      </trkpt>
      <trkpt lat="42.320253" lon="-8.819418">
        <ele>54.8</ele>
        <time>1970-01-01T00:19:33.000Z</time>
      </trkpt>
      <trkpt lat="42.320257" lon="-8.819432">
        <ele>54.6</ele>
        <time>1970-01-01T00:19:34.000Z</time>
      </trkpt>
      <trkpt lat="42.320259" lon="-8.81945">
        <ele>54.6</ele>
        <time>1970-01-01T00:19:35.000Z</time>
      </trkpt>
      <trkpt lat="42.320259" lon="-8.819466">
        <ele>54.6</ele>
        <time>1970-01-01T00:19:36.000Z</time>
      </trkpt>
      <trkpt lat="42.320261" lon="-8.819484">
        <ele>54.6</ele>
        <time>1970-01-01T00:19:37.000Z</time>
      </trkpt>
      <trkpt lat="42.320262" lon="-8.819507">
        <ele>54.6</ele>
        <time>1970-01-01T00:19:38.000Z</time>
      </trkpt>
      <trkpt lat="42.320264" lon="-8.819523">
        <ele>54.4</ele>
        <time>1970-01-01T00:19:39.000Z</time>
      </trkpt>
      <trkpt lat="42.320265" lon="-8.819539">
        <ele>54.4</ele>
        <time>1970-01-01T00:19:40.000Z</time>
      </trkpt>
      <trkpt lat="42.320267" lon="-8.819556">
        <ele>54.2</ele>
        <time>1970-01-01T00:19:41.000Z</time>
      </trkpt>
      <trkpt lat="42.32027" lon="-8.819572">
        <ele>54</ele>
        <time>1970-01-01T00:19:42.000Z</time>
      </trkpt>
      <trkpt lat="42.320275" lon="-8.81959">
        <ele>53.8</ele>
        <time>1970-01-01T00:19:43.000Z</time>
      </trkpt>
      <trkpt lat="42.320277" lon="-8.819604">
        <ele>53.8</ele>
        <time>1970-01-01T00:19:44.000Z</time>
      </trkpt>
      <trkpt lat="42.320278" lon="-8.819618">
        <ele>53.8</ele>
        <time>1970-01-01T00:19:45.000Z</time>
      </trkpt>
      <trkpt lat="42.320279" lon="-8.819636">
        <ele>53.8</ele>
        <time>1970-01-01T00:19:46.000Z</time>
      </trkpt>
      <trkpt lat="42.320277" lon="-8.819655">
        <ele>53.6</ele>
        <time>1970-01-01T00:19:47.000Z</time>
      </trkpt>
      <trkpt lat="42.320273" lon="-8.819677">
        <ele>53.6</ele>
        <time>1970-01-01T00:19:48.000Z</time>
      </trkpt>
      <trkpt lat="42.320268" lon="-8.819701">
        <ele>53.4</ele>
        <time>1970-01-01T00:19:49.000Z</time>
      </trkpt>
      <trkpt lat="42.320266" lon="-8.819719">
        <ele>53.4</ele>
        <time>1970-01-01T00:19:50.000Z</time>
      </trkpt>
      <trkpt lat="42.320259" lon="-8.819737">
        <ele>53.2</ele>
        <time>1970-01-01T00:19:51.000Z</time>
      </trkpt>
      <trkpt lat="42.320257" lon="-8.819754">
        <ele>53</ele>
        <time>1970-01-01T00:19:52.000Z</time>
      </trkpt>
      <trkpt lat="42.320251" lon="-8.819779">
        <ele>53</ele>
        <time>1970-01-01T00:19:53.000Z</time>
      </trkpt>
      <trkpt lat="42.320242" lon="-8.819806">
        <ele>52.8</ele>
        <time>1970-01-01T00:19:54.000Z</time>
      </trkpt>
      <trkpt lat="42.320239" lon="-8.819828">
        <ele>52.8</ele>
        <time>1970-01-01T00:19:55.000Z</time>
      </trkpt>
      <trkpt lat="42.320236" lon="-8.819852">
        <ele>52.8</ele>
        <time>1970-01-01T00:19:56.000Z</time>
      </trkpt>
      <trkpt lat="42.320235" lon="-8.819873">
        <ele>52.4</ele>
        <time>1970-01-01T00:19:57.000Z</time>
      </trkpt>
      <trkpt lat="42.320238" lon="-8.819891">
        <ele>52.2</ele>
        <time>1970-01-01T00:19:58.000Z</time>
      </trkpt>
      <trkpt lat="42.320238" lon="-8.81991">
        <ele>52</ele>
        <time>1970-01-01T00:19:59.000Z</time>
      </trkpt>
      <trkpt lat="42.320237" lon="-8.819931">
        <ele>52</ele>
        <time>1970-01-01T00:20:00.000Z</time>
      </trkpt>
      <trkpt lat="42.320236" lon="-8.819947">
        <ele>51.8</ele>
        <time>1970-01-01T00:20:01.000Z</time>
      </trkpt>
      <trkpt lat="42.320235" lon="-8.819964">
        <ele>51.6</ele>
        <time>1970-01-01T00:20:02.000Z</time>
      </trkpt>
      <trkpt lat="42.320235" lon="-8.819981">
        <ele>51.4</ele>
        <time>1970-01-01T00:20:03.000Z</time>
      </trkpt>
      <trkpt lat="42.320233" lon="-8.819997">
        <ele>51.2</ele>
        <time>1970-01-01T00:20:04.000Z</time>
      </trkpt>
      <trkpt lat="42.320232" lon="-8.820013">
        <ele>51</ele>
        <time>1970-01-01T00:20:05.000Z</time>
      </trkpt>
      <trkpt lat="42.320232" lon="-8.82003">
        <ele>51</ele>
        <time>1970-01-01T00:20:06.000Z</time>
      </trkpt>
      <trkpt lat="42.320233" lon="-8.820047">
        <ele>50.8</ele>
        <time>1970-01-01T00:20:07.000Z</time>
      </trkpt>
      <trkpt lat="42.320234" lon="-8.820059">
        <ele>50.6</ele>
        <time>1970-01-01T00:20:08.000Z</time>
      </trkpt>
      <trkpt lat="42.320235" lon="-8.820073">
        <ele>50.4</ele>
        <time>1970-01-01T00:20:09.000Z</time>
      </trkpt>
      <trkpt lat="42.320237" lon="-8.820092">
        <ele>50.2</ele>
        <time>1970-01-01T00:20:10.000Z</time>
      </trkpt>
      <trkpt lat="42.320238" lon="-8.820121">
        <ele>49.8</ele>
        <time>1970-01-01T00:20:11.000Z</time>
      </trkpt>
      <trkpt lat="42.320239" lon="-8.820144">
        <ele>49.6</ele>
        <time>1970-01-01T00:20:12.000Z</time>
      </trkpt>
      <trkpt lat="42.32024" lon="-8.820171">
        <ele>49.6</ele>
        <time>1970-01-01T00:20:13.000Z</time>
      </trkpt>
      <trkpt lat="42.320241" lon="-8.820192">
        <ele>49.4</ele>
        <time>1970-01-01T00:20:14.000Z</time>
      </trkpt>
      <trkpt lat="42.320243" lon="-8.820211">
        <ele>49.2</ele>
        <time>1970-01-01T00:20:15.000Z</time>
      </trkpt>
      <trkpt lat="42.320246" lon="-8.820233">
        <ele>49</ele>
        <time>1970-01-01T00:20:16.000Z</time>
      </trkpt>
      <trkpt lat="42.320246" lon="-8.820254">
        <ele>48.8</ele>
        <time>1970-01-01T00:20:17.000Z</time>
      </trkpt>
      <trkpt lat="42.320245" lon="-8.820272">
        <ele>48.8</ele>
        <time>1970-01-01T00:20:18.000Z</time>
      </trkpt>
      <trkpt lat="42.320244" lon="-8.82029">
        <ele>48.8</ele>
        <time>1970-01-01T00:20:19.000Z</time>
      </trkpt>
      <trkpt lat="42.320241" lon="-8.820308">
        <ele>48.8</ele>
        <time>1970-01-01T00:20:20.000Z</time>
      </trkpt>
      <trkpt lat="42.320241" lon="-8.820328">
        <ele>48.8</ele>
        <time>1970-01-01T00:20:21.000Z</time>
      </trkpt>
      <trkpt lat="42.320242" lon="-8.820347">
        <ele>48.6</ele>
        <time>1970-01-01T00:20:22.000Z</time>
      </trkpt>
      <trkpt lat="42.320243" lon="-8.820365">
        <ele>48.6</ele>
        <time>1970-01-01T00:20:23.000Z</time>
      </trkpt>
      <trkpt lat="42.320245" lon="-8.820385">
        <ele>48.6</ele>
        <time>1970-01-01T00:20:24.000Z</time>
      </trkpt>
      <trkpt lat="42.320247" lon="-8.820405">
        <ele>48.4</ele>
        <time>1970-01-01T00:20:25.000Z</time>
      </trkpt>
      <trkpt lat="42.320248" lon="-8.820424">
        <ele>48.4</ele>
        <time>1970-01-01T00:20:26.000Z</time>
      </trkpt>
      <trkpt lat="42.320249" lon="-8.820442">
        <ele>48</ele>
        <time>1970-01-01T00:20:27.000Z</time>
      </trkpt>
      <trkpt lat="42.320251" lon="-8.820461">
        <ele>47.6</ele>
        <time>1970-01-01T00:20:28.000Z</time>
      </trkpt>
      <trkpt lat="42.320252" lon="-8.820483">
        <ele>47.4</ele>
        <time>1970-01-01T00:20:29.000Z</time>
      </trkpt>
      <trkpt lat="42.320253" lon="-8.820503">
        <ele>47.2</ele>
        <time>1970-01-01T00:20:30.000Z</time>
      </trkpt>
      <trkpt lat="42.320254" lon="-8.820523">
        <ele>47</ele>
        <time>1970-01-01T00:20:31.000Z</time>
      </trkpt>
      <trkpt lat="42.320254" lon="-8.820544">
        <ele>46.8</ele>
        <time>1970-01-01T00:20:32.000Z</time>
      </trkpt>
      <trkpt lat="42.320254" lon="-8.820564">
        <ele>47</ele>
        <time>1970-01-01T00:20:33.000Z</time>
      </trkpt>
      <trkpt lat="42.320255" lon="-8.820582">
        <ele>47</ele>
        <time>1970-01-01T00:20:34.000Z</time>
      </trkpt>
      <trkpt lat="42.320256" lon="-8.820601">
        <ele>47</ele>
        <time>1970-01-01T00:20:35.000Z</time>
      </trkpt>
      <trkpt lat="42.320259" lon="-8.820621">
        <ele>46.8</ele>
        <time>1970-01-01T00:20:36.000Z</time>
      </trkpt>
      <trkpt lat="42.320262" lon="-8.820639">
        <ele>46.8</ele>
        <time>1970-01-01T00:20:37.000Z</time>
      </trkpt>
      <trkpt lat="42.320265" lon="-8.820657">
        <ele>46.8</ele>
        <time>1970-01-01T00:20:38.000Z</time>
      </trkpt>
      <trkpt lat="42.320268" lon="-8.820674">
        <ele>46.6</ele>
        <time>1970-01-01T00:20:39.000Z</time>
      </trkpt>
      <trkpt lat="42.320272" lon="-8.820688">
        <ele>46.4</ele>
        <time>1970-01-01T00:20:40.000Z</time>
      </trkpt>
      <trkpt lat="42.320276" lon="-8.820701">
        <ele>46.4</ele>
        <time>1970-01-01T00:20:41.000Z</time>
      </trkpt>
      <trkpt lat="42.32028" lon="-8.820714">
        <ele>46.4</ele>
        <time>1970-01-01T00:20:42.000Z</time>
      </trkpt>
      <trkpt lat="42.320285" lon="-8.820731">
        <ele>46.4</ele>
        <time>1970-01-01T00:20:43.000Z</time>
      </trkpt>
      <trkpt lat="42.32029" lon="-8.820751">
        <ele>46.4</ele>
        <time>1970-01-01T00:20:44.000Z</time>
      </trkpt>
      <trkpt lat="42.320298" lon="-8.820771">
        <ele>46.4</ele>
        <time>1970-01-01T00:20:45.000Z</time>
      </trkpt>
      <trkpt lat="42.320305" lon="-8.820791">
        <ele>46.4</ele>
        <time>1970-01-01T00:20:46.000Z</time>
      </trkpt>
      <trkpt lat="42.320311" lon="-8.82081">
        <ele>46.4</ele>
        <time>1970-01-01T00:20:47.000Z</time>
      </trkpt>
      <trkpt lat="42.320318" lon="-8.82083">
        <ele>46.2</ele>
        <time>1970-01-01T00:20:48.000Z</time>
      </trkpt>
      <trkpt lat="42.320324" lon="-8.820848">
        <ele>46.2</ele>
        <time>1970-01-01T00:20:49.000Z</time>
      </trkpt>
      <trkpt lat="42.32033" lon="-8.820867">
        <ele>46.2</ele>
        <time>1970-01-01T00:20:50.000Z</time>
      </trkpt>
      <trkpt lat="42.320335" lon="-8.820885">
        <ele>46</ele>
        <time>1970-01-01T00:20:51.000Z</time>
      </trkpt>
      <trkpt lat="42.320344" lon="-8.820906">
        <ele>46</ele>
        <time>1970-01-01T00:20:52.000Z</time>
      </trkpt>
      <trkpt lat="42.320355" lon="-8.820928">
        <ele>45.8</ele>
        <time>1970-01-01T00:20:53.000Z</time>
      </trkpt>
      <trkpt lat="42.320368" lon="-8.820949">
        <ele>45.8</ele>
        <time>1970-01-01T00:20:54.000Z</time>
      </trkpt>
      <trkpt lat="42.320382" lon="-8.820961">
        <ele>45.8</ele>
        <time>1970-01-01T00:20:55.000Z</time>
      </trkpt>
      <trkpt lat="42.320398" lon="-8.820972">
        <ele>45.8</ele>
        <time>1970-01-01T00:20:56.000Z</time>
      </trkpt>
      <trkpt lat="42.320416" lon="-8.820977">
        <ele>45.8</ele>
        <time>1970-01-01T00:20:57.000Z</time>
      </trkpt>
      <trkpt lat="42.320435" lon="-8.82098">
        <ele>45.8</ele>
        <time>1970-01-01T00:20:58.000Z</time>
      </trkpt>
      <trkpt lat="42.320452" lon="-8.820978">
        <ele>45.6</ele>
        <time>1970-01-01T00:20:59.000Z</time>
      </trkpt>
      <trkpt lat="42.320466" lon="-8.820972">
        <ele>45.6</ele>
        <time>1970-01-01T00:21:00.000Z</time>
      </trkpt>
      <trkpt lat="42.320477" lon="-8.820966">
        <ele>45.6</ele>
        <time>1970-01-01T00:21:01.000Z</time>
      </trkpt>
      <trkpt lat="42.320489" lon="-8.820958">
        <ele>45.4</ele>
        <time>1970-01-01T00:21:02.000Z</time>
      </trkpt>
      <trkpt lat="42.320502" lon="-8.820948">
        <ele>45.4</ele>
        <time>1970-01-01T00:21:03.000Z</time>
      </trkpt>
      <trkpt lat="42.320518" lon="-8.820938">
        <ele>45.4</ele>
        <time>1970-01-01T00:21:04.000Z</time>
      </trkpt>
      <trkpt lat="42.320531" lon="-8.820929">
        <ele>45.2</ele>
        <time>1970-01-01T00:21:05.000Z</time>
      </trkpt>
      <trkpt lat="42.320543" lon="-8.82092">
        <ele>45.2</ele>
        <time>1970-01-01T00:21:06.000Z</time>
      </trkpt>
      <trkpt lat="42.320553" lon="-8.820915">
        <ele>45</ele>
        <time>1970-01-01T00:21:07.000Z</time>
      </trkpt>
      <trkpt lat="42.320564" lon="-8.820907">
        <ele>45</ele>
        <time>1970-01-01T00:21:08.000Z</time>
      </trkpt>
      <trkpt lat="42.320577" lon="-8.820891">
        <ele>45</ele>
        <time>1970-01-01T00:21:09.000Z</time>
      </trkpt>
      <trkpt lat="42.320584" lon="-8.820878">
        <ele>45</ele>
        <time>1970-01-01T00:21:10.000Z</time>
      </trkpt>
      <trkpt lat="42.320594" lon="-8.820861">
        <ele>45</ele>
        <time>1970-01-01T00:21:11.000Z</time>
      </trkpt>
      <trkpt lat="42.320602" lon="-8.820852">
        <ele>45.2</ele>
        <time>1970-01-01T00:21:12.000Z</time>
      </trkpt>
      <trkpt lat="42.320615" lon="-8.820842">
        <ele>45</ele>
        <time>1970-01-01T00:21:13.000Z</time>
      </trkpt>
      <trkpt lat="42.32063" lon="-8.820833">
        <ele>45</ele>
        <time>1970-01-01T00:21:14.000Z</time>
      </trkpt>
      <trkpt lat="42.320646" lon="-8.82083">
        <ele>45</ele>
        <time>1970-01-01T00:21:15.000Z</time>
      </trkpt>
      <trkpt lat="42.320658" lon="-8.820829">
        <ele>45.2</ele>
        <time>1970-01-01T00:21:16.000Z</time>
      </trkpt>
      <trkpt lat="42.32067" lon="-8.820822">
        <ele>45</ele>
        <time>1970-01-01T00:21:17.000Z</time>
      </trkpt>
      <trkpt lat="42.320689" lon="-8.820811">
        <ele>44.8</ele>
        <time>1970-01-01T00:21:18.000Z</time>
      </trkpt>
      <trkpt lat="42.3207" lon="-8.820802">
        <ele>44.8</ele>
        <time>1970-01-01T00:21:19.000Z</time>
      </trkpt>
      <trkpt lat="42.320713" lon="-8.820795">
        <ele>44.8</ele>
        <time>1970-01-01T00:21:20.000Z</time>
      </trkpt>
      <trkpt lat="42.320724" lon="-8.820791">
        <ele>44.8</ele>
        <time>1970-01-01T00:21:21.000Z</time>
      </trkpt>
      <trkpt lat="42.320737" lon="-8.82079">
        <ele>44.8</ele>
        <time>1970-01-01T00:21:22.000Z</time>
      </trkpt>
      <trkpt lat="42.320749" lon="-8.820792">
        <ele>44.8</ele>
        <time>1970-01-01T00:21:23.000Z</time>
      </trkpt>
      <trkpt lat="42.320761" lon="-8.820795">
        <ele>44.8</ele>
        <time>1970-01-01T00:21:24.000Z</time>
      </trkpt>
      <trkpt lat="42.320773" lon="-8.820799">
        <ele>44.8</ele>
        <time>1970-01-01T00:21:25.000Z</time>
      </trkpt>
      <trkpt lat="42.320783" lon="-8.820802">
        <ele>44.8</ele>
        <time>1970-01-01T00:21:26.000Z</time>
      </trkpt>
      <trkpt lat="42.320793" lon="-8.820803">
        <ele>44.8</ele>
        <time>1970-01-01T00:21:27.000Z</time>
      </trkpt>
      <trkpt lat="42.320806" lon="-8.820802">
        <ele>44.6</ele>
        <time>1970-01-01T00:21:28.000Z</time>
      </trkpt>
      <trkpt lat="42.320818" lon="-8.820798">
        <ele>44.4</ele>
        <time>1970-01-01T00:21:29.000Z</time>
      </trkpt>
      <trkpt lat="42.320828" lon="-8.820797">
        <ele>44.4</ele>
        <time>1970-01-01T00:21:30.000Z</time>
      </trkpt>
      <trkpt lat="42.320839" lon="-8.820796">
        <ele>44.4</ele>
        <time>1970-01-01T00:21:31.000Z</time>
      </trkpt>
      <trkpt lat="42.32085" lon="-8.820795">
        <ele>44.6</ele>
        <time>1970-01-01T00:21:32.000Z</time>
      </trkpt>
      <trkpt lat="42.320859" lon="-8.820791">
        <ele>45</ele>
        <time>1970-01-01T00:21:33.000Z</time>
      </trkpt>
      <trkpt lat="42.320867" lon="-8.820789">
        <ele>45</ele>
        <time>1970-01-01T00:21:34.000Z</time>
      </trkpt>
      <trkpt lat="42.320878" lon="-8.820786">
        <ele>45.2</ele>
        <time>1970-01-01T00:21:35.000Z</time>
      </trkpt>
      <trkpt lat="42.320891" lon="-8.820782">
        <ele>45.2</ele>
        <time>1970-01-01T00:21:36.000Z</time>
      </trkpt>
      <trkpt lat="42.320901" lon="-8.820775">
        <ele>45.4</ele>
        <time>1970-01-01T00:21:37.000Z</time>
      </trkpt>
      <trkpt lat="42.32091" lon="-8.820764">
        <ele>45.6</ele>
        <time>1970-01-01T00:21:38.000Z</time>
      </trkpt>
      <trkpt lat="42.320916" lon="-8.820752">
        <ele>45.6</ele>
        <time>1970-01-01T00:21:39.000Z</time>
      </trkpt>
      <trkpt lat="42.320924" lon="-8.820742">
        <ele>45.6</ele>
        <time>1970-01-01T00:21:40.000Z</time>
      </trkpt>
      <trkpt lat="42.320933" lon="-8.820731">
        <ele>45.8</ele>
        <time>1970-01-01T00:21:41.000Z</time>
      </trkpt>
      <trkpt lat="42.320941" lon="-8.820717">
        <ele>46</ele>
        <time>1970-01-01T00:21:42.000Z</time>
      </trkpt>
      <trkpt lat="42.320957" lon="-8.820696">
        <ele>46</ele>
        <time>1970-01-01T00:21:43.000Z</time>
      </trkpt>
      <trkpt lat="42.32097" lon="-8.820677">
        <ele>46.2</ele>
        <time>1970-01-01T00:21:44.000Z</time>
      </trkpt>
      <trkpt lat="42.320978" lon="-8.82066">
        <ele>46.4</ele>
        <time>1970-01-01T00:21:45.000Z</time>
      </trkpt>
      <trkpt lat="42.320988" lon="-8.820641">
        <ele>46.6</ele>
        <time>1970-01-01T00:21:46.000Z</time>
      </trkpt>
      <trkpt lat="42.320996" lon="-8.820623">
        <ele>46.6</ele>
        <time>1970-01-01T00:21:47.000Z</time>
      </trkpt>
      <trkpt lat="42.321001" lon="-8.820609">
        <ele>46.6</ele>
        <time>1970-01-01T00:21:48.000Z</time>
      </trkpt>
      <trkpt lat="42.321008" lon="-8.820595">
        <ele>46.8</ele>
        <time>1970-01-01T00:21:49.000Z</time>
      </trkpt>
      <trkpt lat="42.321014" lon="-8.820584">
        <ele>46.8</ele>
        <time>1970-01-01T00:21:50.000Z</time>
      </trkpt>
      <trkpt lat="42.321021" lon="-8.82057">
        <ele>46.6</ele>
        <time>1970-01-01T00:21:51.000Z</time>
      </trkpt>
      <trkpt lat="42.321032" lon="-8.820554">
        <ele>46.6</ele>
        <time>1970-01-01T00:21:52.000Z</time>
      </trkpt>
      <trkpt lat="42.321037" lon="-8.820542">
        <ele>46.6</ele>
        <time>1970-01-01T00:21:53.000Z</time>
      </trkpt>
      <trkpt lat="42.321042" lon="-8.820528">
        <ele>46.8</ele>
        <time>1970-01-01T00:21:54.000Z</time>
      </trkpt>
      <trkpt lat="42.321052" lon="-8.820518">
        <ele>46.8</ele>
        <time>1970-01-01T00:21:55.000Z</time>
      </trkpt>
      <trkpt lat="42.321063" lon="-8.820509">
        <ele>47</ele>
        <time>1970-01-01T00:21:56.000Z</time>
      </trkpt>
      <trkpt lat="42.321071" lon="-8.820504">
        <ele>47</ele>
        <time>1970-01-01T00:21:57.000Z</time>
      </trkpt>
      <trkpt lat="42.321079" lon="-8.820497">
        <ele>47.2</ele>
        <time>1970-01-01T00:21:58.000Z</time>
      </trkpt>
      <trkpt lat="42.321088" lon="-8.820499">
        <ele>47.2</ele>
        <time>1970-01-01T00:21:59.000Z</time>
      </trkpt>
      <trkpt lat="42.321095" lon="-8.820499">
        <ele>47.4</ele>
        <time>1970-01-01T00:22:00.000Z</time>
      </trkpt>
      <trkpt lat="42.321102" lon="-8.820503">
        <ele>47.4</ele>
        <time>1970-01-01T00:22:01.000Z</time>
      </trkpt>
      <trkpt lat="42.321109" lon="-8.820508">
        <ele>47.6</ele>
        <time>1970-01-01T00:22:02.000Z</time>
      </trkpt>
      <trkpt lat="42.321117" lon="-8.820507">
        <ele>47.6</ele>
        <time>1970-01-01T00:22:03.000Z</time>
      </trkpt>
      <trkpt lat="42.321124" lon="-8.820508">
        <ele>47.8</ele>
        <time>1970-01-01T00:22:04.000Z</time>
      </trkpt>
      <trkpt lat="42.321132" lon="-8.82051">
        <ele>47.8</ele>
        <time>1970-01-01T00:22:05.000Z</time>
      </trkpt>
      <trkpt lat="42.32114" lon="-8.820511">
        <ele>47.8</ele>
        <time>1970-01-01T00:22:06.000Z</time>
      </trkpt>
      <trkpt lat="42.321148" lon="-8.820512">
        <ele>47.8</ele>
        <time>1970-01-01T00:22:07.000Z</time>
      </trkpt>
      <trkpt lat="42.321159" lon="-8.820515">
        <ele>47.8</ele>
        <time>1970-01-01T00:22:08.000Z</time>
      </trkpt>
      <trkpt lat="42.32117" lon="-8.820515">
        <ele>47.8</ele>
        <time>1970-01-01T00:22:09.000Z</time>
      </trkpt>
      <trkpt lat="42.321179" lon="-8.820514">
        <ele>48.2</ele>
        <time>1970-01-01T00:22:10.000Z</time>
      </trkpt>
      <trkpt lat="42.321186" lon="-8.820518">
        <ele>48.4</ele>
        <time>1970-01-01T00:22:11.000Z</time>
      </trkpt>
      <trkpt lat="42.321195" lon="-8.820515">
        <ele>48.4</ele>
        <time>1970-01-01T00:22:12.000Z</time>
      </trkpt>
      <trkpt lat="42.321208" lon="-8.820512">
        <ele>48.2</ele>
        <time>1970-01-01T00:22:13.000Z</time>
      </trkpt>
      <trkpt lat="42.321222" lon="-8.82051">
        <ele>48.2</ele>
        <time>1970-01-01T00:22:14.000Z</time>
      </trkpt>
      <trkpt lat="42.321235" lon="-8.820513">
        <ele>48</ele>
        <time>1970-01-01T00:22:15.000Z</time>
      </trkpt>
      <trkpt lat="42.321254" lon="-8.820514">
        <ele>48</ele>
        <time>1970-01-01T00:22:16.000Z</time>
      </trkpt>
      <trkpt lat="42.321268" lon="-8.820514">
        <ele>48</ele>
        <time>1970-01-01T00:22:17.000Z</time>
      </trkpt>
      <trkpt lat="42.321284" lon="-8.820518">
        <ele>48</ele>
        <time>1970-01-01T00:22:18.000Z</time>
      </trkpt>
      <trkpt lat="42.321301" lon="-8.820526">
        <ele>48</ele>
        <time>1970-01-01T00:22:19.000Z</time>
      </trkpt>
      <trkpt lat="42.321315" lon="-8.820532">
        <ele>48</ele>
        <time>1970-01-01T00:22:20.000Z</time>
      </trkpt>
      <trkpt lat="42.321327" lon="-8.820531">
        <ele>48.2</ele>
        <time>1970-01-01T00:22:21.000Z</time>
      </trkpt>
      <trkpt lat="42.32134" lon="-8.82053">
        <ele>48.4</ele>
        <time>1970-01-01T00:22:22.000Z</time>
      </trkpt>
      <trkpt lat="42.321352" lon="-8.820535">
        <ele>48.4</ele>
        <time>1970-01-01T00:22:23.000Z</time>
      </trkpt>
      <trkpt lat="42.321363" lon="-8.820546">
        <ele>48.6</ele>
        <time>1970-01-01T00:22:24.000Z</time>
      </trkpt>
      <trkpt lat="42.321376" lon="-8.820555">
        <ele>48.6</ele>
        <time>1970-01-01T00:22:25.000Z</time>
      </trkpt>
      <trkpt lat="42.321389" lon="-8.820567">
        <ele>48.8</ele>
        <time>1970-01-01T00:22:26.000Z</time>
      </trkpt>
      <trkpt lat="42.3214" lon="-8.82058">
        <ele>48.8</ele>
        <time>1970-01-01T00:22:27.000Z</time>
      </trkpt>
      <trkpt lat="42.321412" lon="-8.820589">
        <ele>48.8</ele>
        <time>1970-01-01T00:22:28.000Z</time>
      </trkpt>
      <trkpt lat="42.321422" lon="-8.820596">
        <ele>48.8</ele>
        <time>1970-01-01T00:22:29.000Z</time>
      </trkpt>
      <trkpt lat="42.321433" lon="-8.820608">
        <ele>48.8</ele>
        <time>1970-01-01T00:22:30.000Z</time>
      </trkpt>
      <trkpt lat="42.321446" lon="-8.820613">
        <ele>48.8</ele>
        <time>1970-01-01T00:22:31.000Z</time>
      </trkpt>
      <trkpt lat="42.321455" lon="-8.820616">
        <ele>48.6</ele>
        <time>1970-01-01T00:22:32.000Z</time>
      </trkpt>
      <trkpt lat="42.321466" lon="-8.820621">
        <ele>48.6</ele>
        <time>1970-01-01T00:22:33.000Z</time>
      </trkpt>
      <trkpt lat="42.321476" lon="-8.820622">
        <ele>48.6</ele>
        <time>1970-01-01T00:22:34.000Z</time>
      </trkpt>
      <trkpt lat="42.321486" lon="-8.820623">
        <ele>48.6</ele>
        <time>1970-01-01T00:22:35.000Z</time>
      </trkpt>
      <trkpt lat="42.321497" lon="-8.820631">
        <ele>48.4</ele>
        <time>1970-01-01T00:22:36.000Z</time>
      </trkpt>
      <trkpt lat="42.321507" lon="-8.820641">
        <ele>48.4</ele>
        <time>1970-01-01T00:22:37.000Z</time>
      </trkpt>
      <trkpt lat="42.321512" lon="-8.820652">
        <ele>48.4</ele>
        <time>1970-01-01T00:22:38.000Z</time>
      </trkpt>
      <trkpt lat="42.321524" lon="-8.820659">
        <ele>48.4</ele>
        <time>1970-01-01T00:22:39.000Z</time>
      </trkpt>
      <trkpt lat="42.321541" lon="-8.820665">
        <ele>48.4</ele>
        <time>1970-01-01T00:22:40.000Z</time>
      </trkpt>
      <trkpt lat="42.321557" lon="-8.820675">
        <ele>48.4</ele>
        <time>1970-01-01T00:22:41.000Z</time>
      </trkpt>
      <trkpt lat="42.321566" lon="-8.820686">
        <ele>48.4</ele>
        <time>1970-01-01T00:22:42.000Z</time>
      </trkpt>
      <trkpt lat="42.321576" lon="-8.820696">
        <ele>48.4</ele>
        <time>1970-01-01T00:22:43.000Z</time>
      </trkpt>
      <trkpt lat="42.321588" lon="-8.820703">
        <ele>48.4</ele>
        <time>1970-01-01T00:22:44.000Z</time>
      </trkpt>
      <trkpt lat="42.321599" lon="-8.82071">
        <ele>48.4</ele>
        <time>1970-01-01T00:22:45.000Z</time>
      </trkpt>
      <trkpt lat="42.321608" lon="-8.820724">
        <ele>48.2</ele>
        <time>1970-01-01T00:22:46.000Z</time>
      </trkpt>
      <trkpt lat="42.321618" lon="-8.82073">
        <ele>48.2</ele>
        <time>1970-01-01T00:22:47.000Z</time>
      </trkpt>
      <trkpt lat="42.321628" lon="-8.820742">
        <ele>48.2</ele>
        <time>1970-01-01T00:22:48.000Z</time>
      </trkpt>
      <trkpt lat="42.32164" lon="-8.82075">
        <ele>48.4</ele>
        <time>1970-01-01T00:22:49.000Z</time>
      </trkpt>
      <trkpt lat="42.321654" lon="-8.82076">
        <ele>48.6</ele>
        <time>1970-01-01T00:22:50.000Z</time>
      </trkpt>
      <trkpt lat="42.321665" lon="-8.820768">
        <ele>48.6</ele>
        <time>1970-01-01T00:22:51.000Z</time>
      </trkpt>
      <trkpt lat="42.321674" lon="-8.820777">
        <ele>48.4</ele>
        <time>1970-01-01T00:22:52.000Z</time>
      </trkpt>
      <trkpt lat="42.321684" lon="-8.820787">
        <ele>48.4</ele>
        <time>1970-01-01T00:22:53.000Z</time>
      </trkpt>
      <trkpt lat="42.321698" lon="-8.820796">
        <ele>48.6</ele>
        <time>1970-01-01T00:22:54.000Z</time>
      </trkpt>
      <trkpt lat="42.321711" lon="-8.820803">
        <ele>48.6</ele>
        <time>1970-01-01T00:22:55.000Z</time>
      </trkpt>
      <trkpt lat="42.321724" lon="-8.820815">
        <ele>48.6</ele>
        <time>1970-01-01T00:22:56.000Z</time>
      </trkpt>
      <trkpt lat="42.321739" lon="-8.82082">
        <ele>48.6</ele>
        <time>1970-01-01T00:22:57.000Z</time>
      </trkpt>
      <trkpt lat="42.32175" lon="-8.820826">
        <ele>48.6</ele>
        <time>1970-01-01T00:22:58.000Z</time>
      </trkpt>
      <trkpt lat="42.321761" lon="-8.820833">
        <ele>48.6</ele>
        <time>1970-01-01T00:22:59.000Z</time>
      </trkpt>
      <trkpt lat="42.321769" lon="-8.820843">
        <ele>48.8</ele>
        <time>1970-01-01T00:23:00.000Z</time>
      </trkpt>
      <trkpt lat="42.321784" lon="-8.820848">
        <ele>48.8</ele>
        <time>1970-01-01T00:23:01.000Z</time>
      </trkpt>
      <trkpt lat="42.321797" lon="-8.820854">
        <ele>49</ele>
        <time>1970-01-01T00:23:02.000Z</time>
      </trkpt>
      <trkpt lat="42.321804" lon="-8.820856">
        <ele>49</ele>
        <time>1970-01-01T00:23:03.000Z</time>
      </trkpt>
      <trkpt lat="42.321812" lon="-8.820864">
        <ele>49</ele>
        <time>1970-01-01T00:23:04.000Z</time>
      </trkpt>
      <trkpt lat="42.32182" lon="-8.82086">
        <ele>49.2</ele>
        <time>1970-01-01T00:23:05.000Z</time>
      </trkpt>
      <trkpt lat="42.321828" lon="-8.820854">
        <ele>49.6</ele>
        <time>1970-01-01T00:23:06.000Z</time>
      </trkpt>
      <trkpt lat="42.321838" lon="-8.820851">
        <ele>49.8</ele>
        <time>1970-01-01T00:23:07.000Z</time>
      </trkpt>
      <trkpt lat="42.321848" lon="-8.820845">
        <ele>50</ele>
        <time>1970-01-01T00:23:08.000Z</time>
      </trkpt>
      <trkpt lat="42.321858" lon="-8.820841">
        <ele>50.2</ele>
        <time>1970-01-01T00:23:09.000Z</time>
      </trkpt>
      <trkpt lat="42.321873" lon="-8.820839">
        <ele>50.4</ele>
        <time>1970-01-01T00:23:10.000Z</time>
      </trkpt>
      <trkpt lat="42.321884" lon="-8.820837">
        <ele>50.6</ele>
        <time>1970-01-01T00:23:11.000Z</time>
      </trkpt>
      <trkpt lat="42.321893" lon="-8.82083">
        <ele>50.6</ele>
        <time>1970-01-01T00:23:12.000Z</time>
      </trkpt>
      <trkpt lat="42.321909" lon="-8.820818">
        <ele>50.4</ele>
        <time>1970-01-01T00:23:13.000Z</time>
      </trkpt>
      <trkpt lat="42.321919" lon="-8.82081">
        <ele>50.2</ele>
        <time>1970-01-01T00:23:14.000Z</time>
      </trkpt>
      <trkpt lat="42.321929" lon="-8.820804">
        <ele>50.4</ele>
        <time>1970-01-01T00:23:15.000Z</time>
      </trkpt>
      <trkpt lat="42.321939" lon="-8.820795">
        <ele>50</ele>
        <time>1970-01-01T00:23:16.000Z</time>
      </trkpt>
      <trkpt lat="42.321949" lon="-8.820784">
        <ele>49.8</ele>
        <time>1970-01-01T00:23:17.000Z</time>
      </trkpt>
      <trkpt lat="42.321957" lon="-8.820773">
        <ele>49.6</ele>
        <time>1970-01-01T00:23:18.000Z</time>
      </trkpt>
      <trkpt lat="42.321963" lon="-8.820763">
        <ele>49.4</ele>
        <time>1970-01-01T00:23:19.000Z</time>
      </trkpt>
      <trkpt lat="42.321968" lon="-8.820755">
        <ele>49.4</ele>
        <time>1970-01-01T00:23:20.000Z</time>
      </trkpt>
      <trkpt lat="42.321973" lon="-8.820746">
        <ele>49.4</ele>
        <time>1970-01-01T00:23:21.000Z</time>
      </trkpt>
      <trkpt lat="42.321977" lon="-8.820734">
        <ele>49.2</ele>
        <time>1970-01-01T00:23:22.000Z</time>
      </trkpt>
      <trkpt lat="42.321979" lon="-8.820727">
        <ele>49</ele>
        <time>1970-01-01T00:23:23.000Z</time>
      </trkpt>
      <trkpt lat="42.321981" lon="-8.820725">
        <ele>49</ele>
        <time>1970-01-01T00:23:24.000Z</time>
      </trkpt>
      <trkpt lat="42.321982" lon="-8.820726">
        <ele>49</ele>
        <time>1970-01-01T00:23:25.000Z</time>
      </trkpt>
      <trkpt lat="42.321983" lon="-8.820725">
        <ele>48.8</ele>
        <time>1970-01-01T00:23:26.000Z</time>
      </trkpt>
      <trkpt lat="42.321986" lon="-8.820723">
        <ele>48.4</ele>
        <time>1970-01-01T00:23:27.000Z</time>
      </trkpt>
      <trkpt lat="42.32199" lon="-8.82072">
        <ele>48</ele>
        <time>1970-01-01T00:23:28.000Z</time>
      </trkpt>
      <trkpt lat="42.321994" lon="-8.820717">
        <ele>47.2</ele>
        <time>1970-01-01T00:23:29.000Z</time>
      </trkpt>
      <trkpt lat="42.321996" lon="-8.82072">
        <ele>45.4</ele>
        <time>1970-01-01T00:23:30.000Z</time>
      </trkpt>
      <trkpt lat="42.322003" lon="-8.820721">
        <ele>45.4</ele>
        <time>1970-01-01T00:23:31.000Z</time>
      </trkpt>
      <trkpt lat="42.322008" lon="-8.820722">
        <ele>45.4</ele>
        <time>1970-01-01T00:23:32.000Z</time>
      </trkpt>
      <trkpt lat="42.322013" lon="-8.820725">
        <ele>45.4</ele>
        <time>1970-01-01T00:23:33.000Z</time>
      </trkpt>
      <trkpt lat="42.322019" lon="-8.820731">
        <ele>45.4</ele>
        <time>1970-01-01T00:23:34.000Z</time>
      </trkpt>
      <trkpt lat="42.322026" lon="-8.820741">
        <ele>45.2</ele>
        <time>1970-01-01T00:23:35.000Z</time>
      </trkpt>
      <trkpt lat="42.322034" lon="-8.820753">
        <ele>45</ele>
        <time>1970-01-01T00:23:36.000Z</time>
      </trkpt>
      <trkpt lat="42.322042" lon="-8.82076">
        <ele>45</ele>
        <time>1970-01-01T00:23:37.000Z</time>
      </trkpt>
      <trkpt lat="42.322046" lon="-8.82077">
        <ele>44.8</ele>
        <time>1970-01-01T00:23:38.000Z</time>
      </trkpt>
      <trkpt lat="42.32206" lon="-8.820784">
        <ele>44.6</ele>
        <time>1970-01-01T00:23:39.000Z</time>
      </trkpt>
      <trkpt lat="42.322066" lon="-8.820794">
        <ele>44</ele>
        <time>1970-01-01T00:23:40.000Z</time>
      </trkpt>
      <trkpt lat="42.322075" lon="-8.820804">
        <ele>43.6</ele>
        <time>1970-01-01T00:23:41.000Z</time>
      </trkpt>
      <trkpt lat="42.322082" lon="-8.820811">
        <ele>43.2</ele>
        <time>1970-01-01T00:23:42.000Z</time>
      </trkpt>
      <trkpt lat="42.322089" lon="-8.820815">
        <ele>43</ele>
        <time>1970-01-01T00:23:43.000Z</time>
      </trkpt>
      <trkpt lat="42.322098" lon="-8.820817">
        <ele>42.4</ele>
        <time>1970-01-01T00:23:44.000Z</time>
      </trkpt>
      <trkpt lat="42.322107" lon="-8.820817">
        <ele>42</ele>
        <time>1970-01-01T00:23:45.000Z</time>
      </trkpt>
      <trkpt lat="42.322116" lon="-8.820819">
        <ele>41.8</ele>
        <time>1970-01-01T00:23:46.000Z</time>
      </trkpt>
      <trkpt lat="42.322124" lon="-8.820824">
        <ele>41.6</ele>
        <time>1970-01-01T00:23:47.000Z</time>
      </trkpt>
      <trkpt lat="42.32213" lon="-8.820826">
        <ele>41.6</ele>
        <time>1970-01-01T00:23:48.000Z</time>
      </trkpt>
      <trkpt lat="42.322138" lon="-8.820832">
        <ele>41.8</ele>
        <time>1970-01-01T00:23:49.000Z</time>
      </trkpt>
      <trkpt lat="42.322149" lon="-8.82083">
        <ele>41.8</ele>
        <time>1970-01-01T00:23:50.000Z</time>
      </trkpt>
      <trkpt lat="42.322153" lon="-8.820832">
        <ele>41.8</ele>
        <time>1970-01-01T00:23:51.000Z</time>
      </trkpt>
      <trkpt lat="42.322158" lon="-8.820837">
        <ele>41.8</ele>
        <time>1970-01-01T00:23:52.000Z</time>
      </trkpt>
      <trkpt lat="42.322164" lon="-8.820843">
        <ele>41.8</ele>
        <time>1970-01-01T00:23:53.000Z</time>
      </trkpt>
      <trkpt lat="42.322171" lon="-8.820849">
        <ele>41.8</ele>
        <time>1970-01-01T00:23:54.000Z</time>
      </trkpt>
      <trkpt lat="42.322178" lon="-8.82086">
        <ele>41.8</ele>
        <time>1970-01-01T00:23:55.000Z</time>
      </trkpt>
      <trkpt lat="42.322182" lon="-8.820874">
        <ele>42.2</ele>
        <time>1970-01-01T00:23:56.000Z</time>
      </trkpt>
      <trkpt lat="42.322191" lon="-8.82088">
        <ele>42.4</ele>
        <time>1970-01-01T00:23:57.000Z</time>
      </trkpt>
      <trkpt lat="42.322201" lon="-8.820885">
        <ele>42.8</ele>
        <time>1970-01-01T00:23:58.000Z</time>
      </trkpt>
      <trkpt lat="42.322209" lon="-8.82089">
        <ele>43</ele>
        <time>1970-01-01T00:23:59.000Z</time>
      </trkpt>
      <trkpt lat="42.322218" lon="-8.820896">
        <ele>43.4</ele>
        <time>1970-01-01T00:24:00.000Z</time>
      </trkpt>
      <trkpt lat="42.322231" lon="-8.820901">
        <ele>44</ele>
        <time>1970-01-01T00:24:01.000Z</time>
      </trkpt>
      <trkpt lat="42.322242" lon="-8.820907">
        <ele>44.4</ele>
        <time>1970-01-01T00:24:02.000Z</time>
      </trkpt>
      <trkpt lat="42.322251" lon="-8.820911">
        <ele>44.6</ele>
        <time>1970-01-01T00:24:03.000Z</time>
      </trkpt>
      <trkpt lat="42.322262" lon="-8.820913">
        <ele>44.6</ele>
        <time>1970-01-01T00:24:04.000Z</time>
      </trkpt>
      <trkpt lat="42.32227" lon="-8.820914">
        <ele>44.8</ele>
        <time>1970-01-01T00:24:05.000Z</time>
      </trkpt>
      <trkpt lat="42.322279" lon="-8.820913">
        <ele>44.8</ele>
        <time>1970-01-01T00:24:06.000Z</time>
      </trkpt>
      <trkpt lat="42.322291" lon="-8.820914">
        <ele>45</ele>
        <time>1970-01-01T00:24:07.000Z</time>
      </trkpt>
      <trkpt lat="42.322305" lon="-8.820912">
        <ele>45.2</ele>
        <time>1970-01-01T00:24:08.000Z</time>
      </trkpt>
      <trkpt lat="42.322318" lon="-8.820909">
        <ele>45.6</ele>
        <time>1970-01-01T00:24:09.000Z</time>
      </trkpt>
      <trkpt lat="42.322333" lon="-8.820909">
        <ele>45.6</ele>
        <time>1970-01-01T00:24:10.000Z</time>
      </trkpt>
      <trkpt lat="42.322345" lon="-8.82091">
        <ele>45.8</ele>
        <time>1970-01-01T00:24:11.000Z</time>
      </trkpt>
      <trkpt lat="42.322364" lon="-8.820911">
        <ele>46</ele>
        <time>1970-01-01T00:24:12.000Z</time>
      </trkpt>
      <trkpt lat="42.32238" lon="-8.82091">
        <ele>46.2</ele>
        <time>1970-01-01T00:24:13.000Z</time>
      </trkpt>
      <trkpt lat="42.322393" lon="-8.820909">
        <ele>46.2</ele>
        <time>1970-01-01T00:24:14.000Z</time>
      </trkpt>
      <trkpt lat="42.322404" lon="-8.820905">
        <ele>46.4</ele>
        <time>1970-01-01T00:24:15.000Z</time>
      </trkpt>
      <trkpt lat="42.322416" lon="-8.820905">
        <ele>46.4</ele>
        <time>1970-01-01T00:24:16.000Z</time>
      </trkpt>
      <trkpt lat="42.322428" lon="-8.820906">
        <ele>46.6</ele>
        <time>1970-01-01T00:24:17.000Z</time>
      </trkpt>
      <trkpt lat="42.322437" lon="-8.820913">
        <ele>46.8</ele>
        <time>1970-01-01T00:24:18.000Z</time>
      </trkpt>
      <trkpt lat="42.322447" lon="-8.820911">
        <ele>46.8</ele>
        <time>1970-01-01T00:24:19.000Z</time>
      </trkpt>
      <trkpt lat="42.322456" lon="-8.820911">
        <ele>45.4</ele>
        <time>1970-01-01T00:24:20.000Z</time>
      </trkpt>
      <trkpt lat="42.322463" lon="-8.820909">
        <ele>45.4</ele>
        <time>1970-01-01T00:24:21.000Z</time>
      </trkpt>
      <trkpt lat="42.322468" lon="-8.820906">
        <ele>45.4</ele>
        <time>1970-01-01T00:24:22.000Z</time>
      </trkpt>
      <trkpt lat="42.322476" lon="-8.820905">
        <ele>45.4</ele>
        <time>1970-01-01T00:24:23.000Z</time>
      </trkpt>
      <trkpt lat="42.322482" lon="-8.820905">
        <ele>45.4</ele>
        <time>1970-01-01T00:24:24.000Z</time>
      </trkpt>
      <trkpt lat="42.322486" lon="-8.820898">
        <ele>45.4</ele>
        <time>1970-01-01T00:24:25.000Z</time>
      </trkpt>
      <trkpt lat="42.322493" lon="-8.820893">
        <ele>45.4</ele>
        <time>1970-01-01T00:24:26.000Z</time>
      </trkpt>
      <trkpt lat="42.322499" lon="-8.820888">
        <ele>45.4</ele>
        <time>1970-01-01T00:24:27.000Z</time>
      </trkpt>
      <trkpt lat="42.322509" lon="-8.82088">
        <ele>45.6</ele>
        <time>1970-01-01T00:24:28.000Z</time>
      </trkpt>
      <trkpt lat="42.322521" lon="-8.820872">
        <ele>45.6</ele>
        <time>1970-01-01T00:24:29.000Z</time>
      </trkpt>
      <trkpt lat="42.32253" lon="-8.82086">
        <ele>45.6</ele>
        <time>1970-01-01T00:24:30.000Z</time>
      </trkpt>
      <trkpt lat="42.322541" lon="-8.820853">
        <ele>45.4</ele>
        <time>1970-01-01T00:24:31.000Z</time>
      </trkpt>
      <trkpt lat="42.322554" lon="-8.82084">
        <ele>45.4</ele>
        <time>1970-01-01T00:24:32.000Z</time>
      </trkpt>
      <trkpt lat="42.322561" lon="-8.820834">
        <ele>45.4</ele>
        <time>1970-01-01T00:24:33.000Z</time>
      </trkpt>
      <trkpt lat="42.322571" lon="-8.820828">
        <ele>45.8</ele>
        <time>1970-01-01T00:24:34.000Z</time>
      </trkpt>
      <trkpt lat="42.322575" lon="-8.820823">
        <ele>46</ele>
        <time>1970-01-01T00:24:35.000Z</time>
      </trkpt>
      <trkpt lat="42.32258" lon="-8.820817">
        <ele>46.2</ele>
        <time>1970-01-01T00:24:36.000Z</time>
      </trkpt>
      <trkpt lat="42.322586" lon="-8.820816">
        <ele>46.4</ele>
        <time>1970-01-01T00:24:37.000Z</time>
      </trkpt>
      <trkpt lat="42.322592" lon="-8.820815">
        <ele>46.6</ele>
        <time>1970-01-01T00:24:38.000Z</time>
      </trkpt>
      <trkpt lat="42.3226" lon="-8.820814">
        <ele>47</ele>
        <time>1970-01-01T00:24:39.000Z</time>
      </trkpt>
      <trkpt lat="42.322612" lon="-8.820809">
        <ele>47.2</ele>
        <time>1970-01-01T00:24:40.000Z</time>
      </trkpt>
      <trkpt lat="42.32263" lon="-8.820804">
        <ele>47.4</ele>
        <time>1970-01-01T00:24:41.000Z</time>
      </trkpt>
      <trkpt lat="42.322641" lon="-8.820805">
        <ele>47.6</ele>
        <time>1970-01-01T00:24:42.000Z</time>
      </trkpt>
      <trkpt lat="42.322651" lon="-8.820805">
        <ele>48.2</ele>
        <time>1970-01-01T00:24:43.000Z</time>
      </trkpt>
      <trkpt lat="42.322658" lon="-8.820807">
        <ele>48.2</ele>
        <time>1970-01-01T00:24:44.000Z</time>
      </trkpt>
      <trkpt lat="42.322666" lon="-8.820811">
        <ele>48.2</ele>
        <time>1970-01-01T00:24:45.000Z</time>
      </trkpt>
      <trkpt lat="42.322678" lon="-8.820815">
        <ele>48.2</ele>
        <time>1970-01-01T00:24:46.000Z</time>
      </trkpt>
      <trkpt lat="42.322683" lon="-8.820818">
        <ele>48.2</ele>
        <time>1970-01-01T00:24:47.000Z</time>
      </trkpt>
      <trkpt lat="42.322689" lon="-8.820821">
        <ele>48.2</ele>
        <time>1970-01-01T00:24:48.000Z</time>
      </trkpt>
      <trkpt lat="42.322696" lon="-8.820823">
        <ele>48.2</ele>
        <time>1970-01-01T00:24:49.000Z</time>
      </trkpt>
      <trkpt lat="42.322705" lon="-8.82083">
        <ele>48.4</ele>
        <time>1970-01-01T00:24:50.000Z</time>
      </trkpt>
      <trkpt lat="42.32272" lon="-8.820836">
        <ele>48.4</ele>
        <time>1970-01-01T00:24:51.000Z</time>
      </trkpt>
      <trkpt lat="42.322748" lon="-8.82084">
        <ele>48.4</ele>
        <time>1970-01-01T00:24:52.000Z</time>
      </trkpt>
      <trkpt lat="42.322766" lon="-8.820848">
        <ele>48.4</ele>
        <time>1970-01-01T00:24:53.000Z</time>
      </trkpt>
      <trkpt lat="42.322775" lon="-8.820856">
        <ele>48.2</ele>
        <time>1970-01-01T00:24:54.000Z</time>
      </trkpt>
      <trkpt lat="42.322786" lon="-8.820865">
        <ele>48.6</ele>
        <time>1970-01-01T00:24:55.000Z</time>
      </trkpt>
      <trkpt lat="42.322796" lon="-8.820872">
        <ele>48.8</ele>
        <time>1970-01-01T00:24:56.000Z</time>
      </trkpt>
      <trkpt lat="42.322806" lon="-8.820879">
        <ele>48.8</ele>
        <time>1970-01-01T00:24:57.000Z</time>
      </trkpt>
      <trkpt lat="42.322817" lon="-8.820882">
        <ele>49</ele>
        <time>1970-01-01T00:24:58.000Z</time>
      </trkpt>
      <trkpt lat="42.322825" lon="-8.82089">
        <ele>49</ele>
        <time>1970-01-01T00:24:59.000Z</time>
      </trkpt>
      <trkpt lat="42.322837" lon="-8.820896">
        <ele>49</ele>
        <time>1970-01-01T00:25:00.000Z</time>
      </trkpt>
      <trkpt lat="42.322855" lon="-8.820901">
        <ele>49</ele>
        <time>1970-01-01T00:25:01.000Z</time>
      </trkpt>
      <trkpt lat="42.32287" lon="-8.82091">
        <ele>48.6</ele>
        <time>1970-01-01T00:25:02.000Z</time>
      </trkpt>
      <trkpt lat="42.322889" lon="-8.820919">
        <ele>48.4</ele>
        <time>1970-01-01T00:25:03.000Z</time>
      </trkpt>
      <trkpt lat="42.322915" lon="-8.820924">
        <ele>48.4</ele>
        <time>1970-01-01T00:25:04.000Z</time>
      </trkpt>
      <trkpt lat="42.322933" lon="-8.820933">
        <ele>48.4</ele>
        <time>1970-01-01T00:25:05.000Z</time>
      </trkpt>
      <trkpt lat="42.322949" lon="-8.820943">
        <ele>48.4</ele>
        <time>1970-01-01T00:25:06.000Z</time>
      </trkpt>
      <trkpt lat="42.322964" lon="-8.820949">
        <ele>48.4</ele>
        <time>1970-01-01T00:25:07.000Z</time>
      </trkpt>
      <trkpt lat="42.322977" lon="-8.820952">
        <ele>48.4</ele>
        <time>1970-01-01T00:25:08.000Z</time>
      </trkpt>
      <trkpt lat="42.32299" lon="-8.820956">
        <ele>48.6</ele>
        <time>1970-01-01T00:25:09.000Z</time>
      </trkpt>
      <trkpt lat="42.322999" lon="-8.820961">
        <ele>48.4</ele>
        <time>1970-01-01T00:25:10.000Z</time>
      </trkpt>
      <trkpt lat="42.323008" lon="-8.820963">
        <ele>48.4</ele>
        <time>1970-01-01T00:25:11.000Z</time>
      </trkpt>
      <trkpt lat="42.323016" lon="-8.820967">
        <ele>48.4</ele>
        <time>1970-01-01T00:25:12.000Z</time>
      </trkpt>
      <trkpt lat="42.323022" lon="-8.820976">
        <ele>48.6</ele>
        <time>1970-01-01T00:25:13.000Z</time>
      </trkpt>
      <trkpt lat="42.32303" lon="-8.820982">
        <ele>48.6</ele>
        <time>1970-01-01T00:25:14.000Z</time>
      </trkpt>
      <trkpt lat="42.323042" lon="-8.820986">
        <ele>48.6</ele>
        <time>1970-01-01T00:25:15.000Z</time>
      </trkpt>
      <trkpt lat="42.323056" lon="-8.820985">
        <ele>48.6</ele>
        <time>1970-01-01T00:25:16.000Z</time>
      </trkpt>
      <trkpt lat="42.32307" lon="-8.820981">
        <ele>48.8</ele>
        <time>1970-01-01T00:25:17.000Z</time>
      </trkpt>
      <trkpt lat="42.323082" lon="-8.82098">
        <ele>48.2</ele>
        <time>1970-01-01T00:25:18.000Z</time>
      </trkpt>
      <trkpt lat="42.323097" lon="-8.820978">
        <ele>48.2</ele>
        <time>1970-01-01T00:25:19.000Z</time>
      </trkpt>
      <trkpt lat="42.323112" lon="-8.820975">
        <ele>48.2</ele>
        <time>1970-01-01T00:25:20.000Z</time>
      </trkpt>
      <trkpt lat="42.323124" lon="-8.820971">
        <ele>48.2</ele>
        <time>1970-01-01T00:25:21.000Z</time>
      </trkpt>
      <trkpt lat="42.323134" lon="-8.820967">
        <ele>48.2</ele>
        <time>1970-01-01T00:25:22.000Z</time>
      </trkpt>
      <trkpt lat="42.323144" lon="-8.820968">
        <ele>48.2</ele>
        <time>1970-01-01T00:25:23.000Z</time>
      </trkpt>
      <trkpt lat="42.323151" lon="-8.820968">
        <ele>48.2</ele>
        <time>1970-01-01T00:25:24.000Z</time>
      </trkpt>
      <trkpt lat="42.323157" lon="-8.820971">
        <ele>48.2</ele>
        <time>1970-01-01T00:25:25.000Z</time>
      </trkpt>
      <trkpt lat="42.323164" lon="-8.820973">
        <ele>48.4</ele>
        <time>1970-01-01T00:25:26.000Z</time>
      </trkpt>
      <trkpt lat="42.323175" lon="-8.820972">
        <ele>48.6</ele>
        <time>1970-01-01T00:25:27.000Z</time>
      </trkpt>
      <trkpt lat="42.32318" lon="-8.820971">
        <ele>48.8</ele>
        <time>1970-01-01T00:25:28.000Z</time>
      </trkpt>
      <trkpt lat="42.323184" lon="-8.82097">
        <ele>48.8</ele>
        <time>1970-01-01T00:25:29.000Z</time>
      </trkpt>
      <trkpt lat="42.323191" lon="-8.820964">
        <ele>48.6</ele>
        <time>1970-01-01T00:25:30.000Z</time>
      </trkpt>
      <trkpt lat="42.323197" lon="-8.820958">
        <ele>48.6</ele>
        <time>1970-01-01T00:25:31.000Z</time>
      </trkpt>
      <trkpt lat="42.323204" lon="-8.820961">
        <ele>48.8</ele>
        <time>1970-01-01T00:25:32.000Z</time>
      </trkpt>
      <trkpt lat="42.323209" lon="-8.820961">
        <ele>48.8</ele>
        <time>1970-01-01T00:25:33.000Z</time>
      </trkpt>
      <trkpt lat="42.323212" lon="-8.820962">
        <ele>48.8</ele>
        <time>1970-01-01T00:25:34.000Z</time>
      </trkpt>
      <trkpt lat="42.32322" lon="-8.82096">
        <ele>48.8</ele>
        <time>1970-01-01T00:25:35.000Z</time>
      </trkpt>
      <trkpt lat="42.323226" lon="-8.820961">
        <ele>48.8</ele>
        <time>1970-01-01T00:25:36.000Z</time>
      </trkpt>
      <trkpt lat="42.323232" lon="-8.820959">
        <ele>48.8</ele>
        <time>1970-01-01T00:25:37.000Z</time>
      </trkpt>
      <trkpt lat="42.323239" lon="-8.820959">
        <ele>49</ele>
        <time>1970-01-01T00:25:38.000Z</time>
      </trkpt>
      <trkpt lat="42.323245" lon="-8.820959">
        <ele>49</ele>
        <time>1970-01-01T00:25:39.000Z</time>
      </trkpt>
      <trkpt lat="42.323256" lon="-8.820959">
        <ele>49</ele>
        <time>1970-01-01T00:25:40.000Z</time>
      </trkpt>
      <trkpt lat="42.323264" lon="-8.820956">
        <ele>49</ele>
        <time>1970-01-01T00:25:41.000Z</time>
      </trkpt>
      <trkpt lat="42.323269" lon="-8.820952">
        <ele>48.4</ele>
        <time>1970-01-01T00:25:42.000Z</time>
      </trkpt>
      <trkpt lat="42.323271" lon="-8.820946">
        <ele>48.4</ele>
        <time>1970-01-01T00:25:43.000Z</time>
      </trkpt>
      <trkpt lat="42.323271" lon="-8.820938">
        <ele>48.4</ele>
        <time>1970-01-01T00:25:44.000Z</time>
      </trkpt>
      <trkpt lat="42.32327" lon="-8.820934">
        <ele>48.4</ele>
        <time>1970-01-01T00:25:45.000Z</time>
      </trkpt>
      <trkpt lat="42.32327" lon="-8.820931">
        <ele>48</ele>
        <time>1970-01-01T00:25:46.000Z</time>
      </trkpt>
      <trkpt lat="42.32327" lon="-8.820936">
        <ele>47.8</ele>
        <time>1970-01-01T00:25:47.000Z</time>
      </trkpt>
      <trkpt lat="42.323272" lon="-8.820937">
        <ele>47.8</ele>
        <time>1970-01-01T00:25:48.000Z</time>
      </trkpt>
      <trkpt lat="42.323274" lon="-8.820937">
        <ele>47.6</ele>
        <time>1970-01-01T00:25:49.000Z</time>
      </trkpt>
      <trkpt lat="42.323275" lon="-8.820937">
        <ele>47.6</ele>
        <time>1970-01-01T00:25:50.000Z</time>
      </trkpt>
      <trkpt lat="42.323276" lon="-8.820935">
        <ele>47.6</ele>
        <time>1970-01-01T00:25:51.000Z</time>
      </trkpt>
      <trkpt lat="42.323277" lon="-8.820932">
        <ele>47.6</ele>
        <time>1970-01-01T00:25:52.000Z</time>
      </trkpt>
      <trkpt lat="42.323277" lon="-8.820927">
        <ele>47.6</ele>
        <time>1970-01-01T00:25:53.000Z</time>
      </trkpt>
      <trkpt lat="42.323277" lon="-8.820923">
        <ele>47.6</ele>
        <time>1970-01-01T00:25:54.000Z</time>
      </trkpt>
      <trkpt lat="42.323279" lon="-8.820921">
        <ele>47.8</ele>
        <time>1970-01-01T00:25:55.000Z</time>
      </trkpt>
      <trkpt lat="42.323281" lon="-8.820921">
        <ele>48</ele>
        <time>1970-01-01T00:25:56.000Z</time>
      </trkpt>
      <trkpt lat="42.323288" lon="-8.820923">
        <ele>48</ele>
        <time>1970-01-01T00:25:57.000Z</time>
      </trkpt>
      <trkpt lat="42.323298" lon="-8.820924">
        <ele>48.2</ele>
        <time>1970-01-01T00:25:58.000Z</time>
      </trkpt>
      <trkpt lat="42.323309" lon="-8.820923">
        <ele>48.2</ele>
        <time>1970-01-01T00:25:59.000Z</time>
      </trkpt>
      <trkpt lat="42.323315" lon="-8.820921">
        <ele>48.4</ele>
        <time>1970-01-01T00:26:00.000Z</time>
      </trkpt>
      <trkpt lat="42.32332" lon="-8.820924">
        <ele>48.4</ele>
        <time>1970-01-01T00:26:01.000Z</time>
      </trkpt>
      <trkpt lat="42.323324" lon="-8.820929">
        <ele>48.6</ele>
        <time>1970-01-01T00:26:02.000Z</time>
      </trkpt>
      <trkpt lat="42.323331" lon="-8.82094">
        <ele>48.2</ele>
        <time>1970-01-01T00:26:03.000Z</time>
      </trkpt>
      <trkpt lat="42.323344" lon="-8.820954">
        <ele>48</ele>
        <time>1970-01-01T00:26:04.000Z</time>
      </trkpt>
      <trkpt lat="42.32336" lon="-8.82096">
        <ele>48</ele>
        <time>1970-01-01T00:26:05.000Z</time>
      </trkpt>
      <trkpt lat="42.323373" lon="-8.820966">
        <ele>48</ele>
        <time>1970-01-01T00:26:06.000Z</time>
      </trkpt>
      <trkpt lat="42.323385" lon="-8.82097">
        <ele>48.2</ele>
        <time>1970-01-01T00:26:07.000Z</time>
      </trkpt>
      <trkpt lat="42.323397" lon="-8.820969">
        <ele>48.2</ele>
        <time>1970-01-01T00:26:08.000Z</time>
      </trkpt>
      <trkpt lat="42.323408" lon="-8.820974">
        <ele>48.2</ele>
        <time>1970-01-01T00:26:09.000Z</time>
      </trkpt>
      <trkpt lat="42.323422" lon="-8.82098">
        <ele>48</ele>
        <time>1970-01-01T00:26:10.000Z</time>
      </trkpt>
      <trkpt lat="42.323436" lon="-8.820987">
        <ele>48.4</ele>
        <time>1970-01-01T00:26:11.000Z</time>
      </trkpt>
      <trkpt lat="42.32345" lon="-8.820992">
        <ele>48.2</ele>
        <time>1970-01-01T00:26:12.000Z</time>
      </trkpt>
      <trkpt lat="42.323464" lon="-8.820995">
        <ele>48.2</ele>
        <time>1970-01-01T00:26:13.000Z</time>
      </trkpt>
      <trkpt lat="42.32348" lon="-8.820999">
        <ele>48.2</ele>
        <time>1970-01-01T00:26:14.000Z</time>
      </trkpt>
      <trkpt lat="42.323496" lon="-8.821001">
        <ele>48.2</ele>
        <time>1970-01-01T00:26:15.000Z</time>
      </trkpt>
      <trkpt lat="42.323513" lon="-8.821005">
        <ele>48.4</ele>
        <time>1970-01-01T00:26:16.000Z</time>
      </trkpt>
      <trkpt lat="42.323531" lon="-8.821012">
        <ele>48.6</ele>
        <time>1970-01-01T00:26:17.000Z</time>
      </trkpt>
      <trkpt lat="42.323548" lon="-8.82102">
        <ele>48.4</ele>
        <time>1970-01-01T00:26:18.000Z</time>
      </trkpt>
      <trkpt lat="42.323562" lon="-8.821031">
        <ele>48.4</ele>
        <time>1970-01-01T00:26:19.000Z</time>
      </trkpt>
      <trkpt lat="42.323575" lon="-8.821041">
        <ele>48.4</ele>
        <time>1970-01-01T00:26:20.000Z</time>
      </trkpt>
      <trkpt lat="42.323587" lon="-8.82105">
        <ele>48.4</ele>
        <time>1970-01-01T00:26:21.000Z</time>
      </trkpt>
      <trkpt lat="42.323599" lon="-8.821063">
        <ele>48.4</ele>
        <time>1970-01-01T00:26:22.000Z</time>
      </trkpt>
      <trkpt lat="42.323608" lon="-8.821073">
        <ele>48.4</ele>
        <time>1970-01-01T00:26:23.000Z</time>
      </trkpt>
      <trkpt lat="42.323617" lon="-8.821087">
        <ele>48.4</ele>
        <time>1970-01-01T00:26:24.000Z</time>
      </trkpt>
      <trkpt lat="42.323629" lon="-8.821097">
        <ele>48.4</ele>
        <time>1970-01-01T00:26:25.000Z</time>
      </trkpt>
      <trkpt lat="42.323642" lon="-8.821103">
        <ele>48.4</ele>
        <time>1970-01-01T00:26:26.000Z</time>
      </trkpt>
      <trkpt lat="42.323655" lon="-8.821108">
        <ele>48.4</ele>
        <time>1970-01-01T00:26:27.000Z</time>
      </trkpt>
      <trkpt lat="42.323667" lon="-8.821113">
        <ele>48.4</ele>
        <time>1970-01-01T00:26:28.000Z</time>
      </trkpt>
      <trkpt lat="42.32368" lon="-8.821117">
        <ele>48.4</ele>
        <time>1970-01-01T00:26:29.000Z</time>
      </trkpt>
      <trkpt lat="42.323695" lon="-8.821129">
        <ele>48.4</ele>
        <time>1970-01-01T00:26:30.000Z</time>
      </trkpt>
      <trkpt lat="42.32371" lon="-8.821141">
        <ele>48.4</ele>
        <time>1970-01-01T00:26:31.000Z</time>
      </trkpt>
      <trkpt lat="42.323723" lon="-8.821152">
        <ele>48.4</ele>
        <time>1970-01-01T00:26:32.000Z</time>
      </trkpt>
      <trkpt lat="42.323734" lon="-8.821158">
        <ele>48.4</ele>
        <time>1970-01-01T00:26:33.000Z</time>
      </trkpt>
      <trkpt lat="42.323744" lon="-8.821163">
        <ele>48.4</ele>
        <time>1970-01-01T00:26:34.000Z</time>
      </trkpt>
      <trkpt lat="42.323752" lon="-8.821171">
        <ele>48.4</ele>
        <time>1970-01-01T00:26:35.000Z</time>
      </trkpt>
      <trkpt lat="42.323757" lon="-8.821181">
        <ele>48.4</ele>
        <time>1970-01-01T00:26:36.000Z</time>
      </trkpt>
      <trkpt lat="42.323763" lon="-8.821187">
        <ele>48.4</ele>
        <time>1970-01-01T00:26:37.000Z</time>
      </trkpt>
      <trkpt lat="42.323774" lon="-8.821194">
        <ele>48.4</ele>
        <time>1970-01-01T00:26:38.000Z</time>
      </trkpt>
      <trkpt lat="42.323787" lon="-8.8212">
        <ele>48</ele>
        <time>1970-01-01T00:26:39.000Z</time>
      </trkpt>
      <trkpt lat="42.323802" lon="-8.821201">
        <ele>48.4</ele>
        <time>1970-01-01T00:26:40.000Z</time>
      </trkpt>
      <trkpt lat="42.32382" lon="-8.821205">
        <ele>48.4</ele>
        <time>1970-01-01T00:26:41.000Z</time>
      </trkpt>
      <trkpt lat="42.323835" lon="-8.821209">
        <ele>48.4</ele>
        <time>1970-01-01T00:26:42.000Z</time>
      </trkpt>
      <trkpt lat="42.32385" lon="-8.821211">
        <ele>48.4</ele>
        <time>1970-01-01T00:26:43.000Z</time>
      </trkpt>
      <trkpt lat="42.323868" lon="-8.821212">
        <ele>48</ele>
        <time>1970-01-01T00:26:44.000Z</time>
      </trkpt>
      <trkpt lat="42.323886" lon="-8.821214">
        <ele>47.8</ele>
        <time>1970-01-01T00:26:45.000Z</time>
      </trkpt>
      <trkpt lat="42.323902" lon="-8.821224">
        <ele>47.8</ele>
        <time>1970-01-01T00:26:46.000Z</time>
      </trkpt>
      <trkpt lat="42.323916" lon="-8.821235">
        <ele>47</ele>
        <time>1970-01-01T00:26:47.000Z</time>
      </trkpt>
      <trkpt lat="42.323933" lon="-8.821247">
        <ele>47</ele>
        <time>1970-01-01T00:26:48.000Z</time>
      </trkpt>
      <trkpt lat="42.323952" lon="-8.821263">
        <ele>46.6</ele>
        <time>1970-01-01T00:26:49.000Z</time>
      </trkpt>
      <trkpt lat="42.323967" lon="-8.821273">
        <ele>46.4</ele>
        <time>1970-01-01T00:26:50.000Z</time>
      </trkpt>
      <trkpt lat="42.323981" lon="-8.821279">
        <ele>46.4</ele>
        <time>1970-01-01T00:26:51.000Z</time>
      </trkpt>
      <trkpt lat="42.323994" lon="-8.821285">
        <ele>46.2</ele>
        <time>1970-01-01T00:26:52.000Z</time>
      </trkpt>
      <trkpt lat="42.324004" lon="-8.821288">
        <ele>46.2</ele>
        <time>1970-01-01T00:26:53.000Z</time>
      </trkpt>
      <trkpt lat="42.324014" lon="-8.821294">
        <ele>46.2</ele>
        <time>1970-01-01T00:26:54.000Z</time>
      </trkpt>
      <trkpt lat="42.324022" lon="-8.821299">
        <ele>46.2</ele>
        <time>1970-01-01T00:26:55.000Z</time>
      </trkpt>
      <trkpt lat="42.324031" lon="-8.821307">
        <ele>46</ele>
        <time>1970-01-01T00:26:56.000Z</time>
      </trkpt>
      <trkpt lat="42.324041" lon="-8.821316">
        <ele>46</ele>
        <time>1970-01-01T00:26:57.000Z</time>
      </trkpt>
      <trkpt lat="42.32405" lon="-8.821327">
        <ele>45.8</ele>
        <time>1970-01-01T00:26:58.000Z</time>
      </trkpt>
      <trkpt lat="42.324063" lon="-8.821339">
        <ele>45.8</ele>
        <time>1970-01-01T00:26:59.000Z</time>
      </trkpt>
      <trkpt lat="42.324077" lon="-8.821356">
        <ele>46</ele>
        <time>1970-01-01T00:27:00.000Z</time>
      </trkpt>
      <trkpt lat="42.324088" lon="-8.821372">
        <ele>46</ele>
        <time>1970-01-01T00:27:01.000Z</time>
      </trkpt>
      <trkpt lat="42.324099" lon="-8.821382">
        <ele>46</ele>
        <time>1970-01-01T00:27:02.000Z</time>
      </trkpt>
      <trkpt lat="42.324112" lon="-8.82139">
        <ele>46.2</ele>
        <time>1970-01-01T00:27:03.000Z</time>
      </trkpt>
      <trkpt lat="42.324126" lon="-8.821398">
        <ele>46.4</ele>
        <time>1970-01-01T00:27:04.000Z</time>
      </trkpt>
      <trkpt lat="42.324141" lon="-8.821402">
        <ele>46.4</ele>
        <time>1970-01-01T00:27:05.000Z</time>
      </trkpt>
      <trkpt lat="42.324156" lon="-8.821403">
        <ele>46.2</ele>
        <time>1970-01-01T00:27:06.000Z</time>
      </trkpt>
      <trkpt lat="42.324167" lon="-8.821406">
        <ele>46</ele>
        <time>1970-01-01T00:27:07.000Z</time>
      </trkpt>
      <trkpt lat="42.324177" lon="-8.821408">
        <ele>45.8</ele>
        <time>1970-01-01T00:27:08.000Z</time>
      </trkpt>
      <trkpt lat="42.324193" lon="-8.821419">
        <ele>45.8</ele>
        <time>1970-01-01T00:27:09.000Z</time>
      </trkpt>
      <trkpt lat="42.324207" lon="-8.821429">
        <ele>45.4</ele>
        <time>1970-01-01T00:27:10.000Z</time>
      </trkpt>
      <trkpt lat="42.324221" lon="-8.821441">
        <ele>45.2</ele>
        <time>1970-01-01T00:27:11.000Z</time>
      </trkpt>
      <trkpt lat="42.324232" lon="-8.821453">
        <ele>45.4</ele>
        <time>1970-01-01T00:27:12.000Z</time>
      </trkpt>
      <trkpt lat="42.324243" lon="-8.821463">
        <ele>45.6</ele>
        <time>1970-01-01T00:27:13.000Z</time>
      </trkpt>
      <trkpt lat="42.324254" lon="-8.821474">
        <ele>45.6</ele>
        <time>1970-01-01T00:27:14.000Z</time>
      </trkpt>
      <trkpt lat="42.324269" lon="-8.821485">
        <ele>45.6</ele>
        <time>1970-01-01T00:27:15.000Z</time>
      </trkpt>
      <trkpt lat="42.324283" lon="-8.821495">
        <ele>45.6</ele>
        <time>1970-01-01T00:27:16.000Z</time>
      </trkpt>
      <trkpt lat="42.324295" lon="-8.821503">
        <ele>45.8</ele>
        <time>1970-01-01T00:27:17.000Z</time>
      </trkpt>
      <trkpt lat="42.324306" lon="-8.821509">
        <ele>45.8</ele>
        <time>1970-01-01T00:27:18.000Z</time>
      </trkpt>
      <trkpt lat="42.324316" lon="-8.821513">
        <ele>45.8</ele>
        <time>1970-01-01T00:27:19.000Z</time>
      </trkpt>
      <trkpt lat="42.324324" lon="-8.821515">
        <ele>46</ele>
        <time>1970-01-01T00:27:20.000Z</time>
      </trkpt>
      <trkpt lat="42.324334" lon="-8.821517">
        <ele>46</ele>
        <time>1970-01-01T00:27:21.000Z</time>
      </trkpt>
      <trkpt lat="42.324344" lon="-8.82152">
        <ele>46</ele>
        <time>1970-01-01T00:27:22.000Z</time>
      </trkpt>
      <trkpt lat="42.324354" lon="-8.821529">
        <ele>45.8</ele>
        <time>1970-01-01T00:27:23.000Z</time>
      </trkpt>
      <trkpt lat="42.324368" lon="-8.821537">
        <ele>45.8</ele>
        <time>1970-01-01T00:27:24.000Z</time>
      </trkpt>
      <trkpt lat="42.324381" lon="-8.821546">
        <ele>45.8</ele>
        <time>1970-01-01T00:27:25.000Z</time>
      </trkpt>
      <trkpt lat="42.324394" lon="-8.821553">
        <ele>45.8</ele>
        <time>1970-01-01T00:27:26.000Z</time>
      </trkpt>
      <trkpt lat="42.324408" lon="-8.821561">
        <ele>45.6</ele>
        <time>1970-01-01T00:27:27.000Z</time>
      </trkpt>
      <trkpt lat="42.324421" lon="-8.821572">
        <ele>45.4</ele>
        <time>1970-01-01T00:27:28.000Z</time>
      </trkpt>
      <trkpt lat="42.324431" lon="-8.821581">
        <ele>45</ele>
        <time>1970-01-01T00:27:29.000Z</time>
      </trkpt>
      <trkpt lat="42.324443" lon="-8.821591">
        <ele>45</ele>
        <time>1970-01-01T00:27:30.000Z</time>
      </trkpt>
      <trkpt lat="42.324457" lon="-8.821599">
        <ele>44.6</ele>
        <time>1970-01-01T00:27:31.000Z</time>
      </trkpt>
      <trkpt lat="42.324473" lon="-8.821607">
        <ele>44.6</ele>
        <time>1970-01-01T00:27:32.000Z</time>
      </trkpt>
      <trkpt lat="42.324485" lon="-8.821616">
        <ele>44.6</ele>
        <time>1970-01-01T00:27:33.000Z</time>
      </trkpt>
      <trkpt lat="42.324496" lon="-8.821626">
        <ele>44.4</ele>
        <time>1970-01-01T00:27:34.000Z</time>
      </trkpt>
      <trkpt lat="42.32451" lon="-8.821637">
        <ele>44.2</ele>
        <time>1970-01-01T00:27:35.000Z</time>
      </trkpt>
      <trkpt lat="42.32452" lon="-8.821648">
        <ele>44.2</ele>
        <time>1970-01-01T00:27:36.000Z</time>
      </trkpt>
      <trkpt lat="42.324528" lon="-8.821658">
        <ele>44</ele>
        <time>1970-01-01T00:27:37.000Z</time>
      </trkpt>
      <trkpt lat="42.324533" lon="-8.821668">
        <ele>43.6</ele>
        <time>1970-01-01T00:27:38.000Z</time>
      </trkpt>
      <trkpt lat="42.324538" lon="-8.821685">
        <ele>43.2</ele>
        <time>1970-01-01T00:27:39.000Z</time>
      </trkpt>
      <trkpt lat="42.324543" lon="-8.821703">
        <ele>43</ele>
        <time>1970-01-01T00:27:40.000Z</time>
      </trkpt>
      <trkpt lat="42.324548" lon="-8.821723">
        <ele>42.6</ele>
        <time>1970-01-01T00:27:41.000Z</time>
      </trkpt>
      <trkpt lat="42.324553" lon="-8.821742">
        <ele>42.2</ele>
        <time>1970-01-01T00:27:42.000Z</time>
      </trkpt>
      <trkpt lat="42.324555" lon="-8.821757">
        <ele>42</ele>
        <time>1970-01-01T00:27:43.000Z</time>
      </trkpt>
      <trkpt lat="42.324559" lon="-8.821773">
        <ele>41.8</ele>
        <time>1970-01-01T00:27:44.000Z</time>
      </trkpt>
      <trkpt lat="42.324565" lon="-8.821792">
        <ele>41.8</ele>
        <time>1970-01-01T00:27:45.000Z</time>
      </trkpt>
      <trkpt lat="42.324571" lon="-8.821815">
        <ele>41.8</ele>
        <time>1970-01-01T00:27:46.000Z</time>
      </trkpt>
      <trkpt lat="42.324579" lon="-8.821839">
        <ele>41.8</ele>
        <time>1970-01-01T00:27:47.000Z</time>
      </trkpt>
      <trkpt lat="42.324586" lon="-8.82186">
        <ele>42</ele>
        <time>1970-01-01T00:27:48.000Z</time>
      </trkpt>
      <trkpt lat="42.324593" lon="-8.821883">
        <ele>42</ele>
        <time>1970-01-01T00:27:49.000Z</time>
      </trkpt>
      <trkpt lat="42.324601" lon="-8.821906">
        <ele>42.2</ele>
        <time>1970-01-01T00:27:50.000Z</time>
      </trkpt>
      <trkpt lat="42.324608" lon="-8.821929">
        <ele>42.2</ele>
        <time>1970-01-01T00:27:51.000Z</time>
      </trkpt>
      <trkpt lat="42.324614" lon="-8.821949">
        <ele>42.2</ele>
        <time>1970-01-01T00:27:52.000Z</time>
      </trkpt>
      <trkpt lat="42.32462" lon="-8.821968">
        <ele>42</ele>
        <time>1970-01-01T00:27:53.000Z</time>
      </trkpt>
      <trkpt lat="42.324627" lon="-8.821982">
        <ele>41.8</ele>
        <time>1970-01-01T00:27:54.000Z</time>
      </trkpt>
      <trkpt lat="42.324634" lon="-8.821995">
        <ele>41.8</ele>
        <time>1970-01-01T00:27:55.000Z</time>
      </trkpt>
      <trkpt lat="42.324641" lon="-8.822009">
        <ele>41.6</ele>
        <time>1970-01-01T00:27:56.000Z</time>
      </trkpt>
      <trkpt lat="42.324644" lon="-8.822029">
        <ele>41.4</ele>
        <time>1970-01-01T00:27:57.000Z</time>
      </trkpt>
      <trkpt lat="42.324648" lon="-8.822046">
        <ele>41.4</ele>
        <time>1970-01-01T00:27:58.000Z</time>
      </trkpt>
      <trkpt lat="42.324648" lon="-8.822062">
        <ele>41.4</ele>
        <time>1970-01-01T00:27:59.000Z</time>
      </trkpt>
      <trkpt lat="42.324654" lon="-8.822077">
        <ele>41.4</ele>
        <time>1970-01-01T00:28:00.000Z</time>
      </trkpt>
      <trkpt lat="42.32466" lon="-8.822089">
        <ele>41.2</ele>
        <time>1970-01-01T00:28:01.000Z</time>
      </trkpt>
      <trkpt lat="42.324665" lon="-8.822105">
        <ele>41.2</ele>
        <time>1970-01-01T00:28:02.000Z</time>
      </trkpt>
      <trkpt lat="42.324673" lon="-8.822125">
        <ele>41.2</ele>
        <time>1970-01-01T00:28:03.000Z</time>
      </trkpt>
      <trkpt lat="42.324681" lon="-8.822144">
        <ele>41.2</ele>
        <time>1970-01-01T00:28:04.000Z</time>
      </trkpt>
      <trkpt lat="42.324689" lon="-8.822167">
        <ele>41.2</ele>
        <time>1970-01-01T00:28:05.000Z</time>
      </trkpt>
      <trkpt lat="42.324695" lon="-8.822182">
        <ele>41.2</ele>
        <time>1970-01-01T00:28:06.000Z</time>
      </trkpt>
      <trkpt lat="42.3247" lon="-8.822197">
        <ele>41.2</ele>
        <time>1970-01-01T00:28:07.000Z</time>
      </trkpt>
      <trkpt lat="42.324706" lon="-8.822215">
        <ele>41.4</ele>
        <time>1970-01-01T00:28:08.000Z</time>
      </trkpt>
      <trkpt lat="42.324715" lon="-8.822229">
        <ele>41.4</ele>
        <time>1970-01-01T00:28:09.000Z</time>
      </trkpt>
      <trkpt lat="42.324727" lon="-8.822246">
        <ele>41.2</ele>
        <time>1970-01-01T00:28:10.000Z</time>
      </trkpt>
      <trkpt lat="42.324738" lon="-8.822261">
        <ele>41.2</ele>
        <time>1970-01-01T00:28:11.000Z</time>
      </trkpt>
      <trkpt lat="42.32475" lon="-8.822274">
        <ele>41.2</ele>
        <time>1970-01-01T00:28:12.000Z</time>
      </trkpt>
      <trkpt lat="42.324762" lon="-8.822285">
        <ele>41.2</ele>
        <time>1970-01-01T00:28:13.000Z</time>
      </trkpt>
      <trkpt lat="42.324774" lon="-8.822293">
        <ele>40.8</ele>
        <time>1970-01-01T00:28:14.000Z</time>
      </trkpt>
      <trkpt lat="42.324787" lon="-8.822307">
        <ele>40.6</ele>
        <time>1970-01-01T00:28:15.000Z</time>
      </trkpt>
      <trkpt lat="42.324799" lon="-8.822322">
        <ele>40.6</ele>
        <time>1970-01-01T00:28:16.000Z</time>
      </trkpt>
      <trkpt lat="42.324812" lon="-8.822339">
        <ele>40.4</ele>
        <time>1970-01-01T00:28:17.000Z</time>
      </trkpt>
      <trkpt lat="42.324825" lon="-8.822356">
        <ele>40.4</ele>
        <time>1970-01-01T00:28:18.000Z</time>
      </trkpt>
      <trkpt lat="42.324837" lon="-8.822369">
        <ele>40.4</ele>
        <time>1970-01-01T00:28:19.000Z</time>
      </trkpt>
      <trkpt lat="42.324852" lon="-8.822379">
        <ele>40.2</ele>
        <time>1970-01-01T00:28:20.000Z</time>
      </trkpt>
      <trkpt lat="42.324867" lon="-8.82239">
        <ele>40.2</ele>
        <time>1970-01-01T00:28:21.000Z</time>
      </trkpt>
      <trkpt lat="42.324881" lon="-8.822399">
        <ele>40.2</ele>
        <time>1970-01-01T00:28:22.000Z</time>
      </trkpt>
      <trkpt lat="42.324892" lon="-8.822404">
        <ele>40</ele>
        <time>1970-01-01T00:28:23.000Z</time>
      </trkpt>
      <trkpt lat="42.324905" lon="-8.822414">
        <ele>40</ele>
        <time>1970-01-01T00:28:24.000Z</time>
      </trkpt>
      <trkpt lat="42.324917" lon="-8.822423">
        <ele>39.8</ele>
        <time>1970-01-01T00:28:25.000Z</time>
      </trkpt>
      <trkpt lat="42.32493" lon="-8.822432">
        <ele>39.8</ele>
        <time>1970-01-01T00:28:26.000Z</time>
      </trkpt>
      <trkpt lat="42.324942" lon="-8.822446">
        <ele>40</ele>
        <time>1970-01-01T00:28:27.000Z</time>
      </trkpt>
      <trkpt lat="42.324952" lon="-8.822455">
        <ele>40</ele>
        <time>1970-01-01T00:28:28.000Z</time>
      </trkpt>
      <trkpt lat="42.324964" lon="-8.822466">
        <ele>40</ele>
        <time>1970-01-01T00:28:29.000Z</time>
      </trkpt>
      <trkpt lat="42.324976" lon="-8.82248">
        <ele>39.8</ele>
        <time>1970-01-01T00:28:30.000Z</time>
      </trkpt>
      <trkpt lat="42.324987" lon="-8.822495">
        <ele>39.4</ele>
        <time>1970-01-01T00:28:31.000Z</time>
      </trkpt>
      <trkpt lat="42.324997" lon="-8.822513">
        <ele>39.2</ele>
        <time>1970-01-01T00:28:32.000Z</time>
      </trkpt>
      <trkpt lat="42.325006" lon="-8.822529">
        <ele>39</ele>
        <time>1970-01-01T00:28:33.000Z</time>
      </trkpt>
      <trkpt lat="42.325015" lon="-8.822546">
        <ele>38.8</ele>
        <time>1970-01-01T00:28:34.000Z</time>
      </trkpt>
      <trkpt lat="42.325024" lon="-8.822565">
        <ele>38.8</ele>
        <time>1970-01-01T00:28:35.000Z</time>
      </trkpt>
      <trkpt lat="42.325032" lon="-8.822586">
        <ele>38.8</ele>
        <time>1970-01-01T00:28:36.000Z</time>
      </trkpt>
      <trkpt lat="42.32504" lon="-8.822609">
        <ele>38.4</ele>
        <time>1970-01-01T00:28:37.000Z</time>
      </trkpt>
      <trkpt lat="42.325048" lon="-8.822631">
        <ele>38</ele>
        <time>1970-01-01T00:28:38.000Z</time>
      </trkpt>
      <trkpt lat="42.325055" lon="-8.82265">
        <ele>37.8</ele>
        <time>1970-01-01T00:28:39.000Z</time>
      </trkpt>
      <trkpt lat="42.325062" lon="-8.822666">
        <ele>37.8</ele>
        <time>1970-01-01T00:28:40.000Z</time>
      </trkpt>
      <trkpt lat="42.325066" lon="-8.822684">
        <ele>37.6</ele>
        <time>1970-01-01T00:28:41.000Z</time>
      </trkpt>
      <trkpt lat="42.325071" lon="-8.822702">
        <ele>37.6</ele>
        <time>1970-01-01T00:28:42.000Z</time>
      </trkpt>
      <trkpt lat="42.325076" lon="-8.822717">
        <ele>37.6</ele>
        <time>1970-01-01T00:28:43.000Z</time>
      </trkpt>
      <trkpt lat="42.325075" lon="-8.822741">
        <ele>37.4</ele>
        <time>1970-01-01T00:28:44.000Z</time>
      </trkpt>
      <trkpt lat="42.32508" lon="-8.822758">
        <ele>37.4</ele>
        <time>1970-01-01T00:28:45.000Z</time>
      </trkpt>
      <trkpt lat="42.325085" lon="-8.822778">
        <ele>37.4</ele>
        <time>1970-01-01T00:28:46.000Z</time>
      </trkpt>
      <trkpt lat="42.325091" lon="-8.822798">
        <ele>37.2</ele>
        <time>1970-01-01T00:28:47.000Z</time>
      </trkpt>
      <trkpt lat="42.325099" lon="-8.822813">
        <ele>37.2</ele>
        <time>1970-01-01T00:28:48.000Z</time>
      </trkpt>
      <trkpt lat="42.325105" lon="-8.822826">
        <ele>37</ele>
        <time>1970-01-01T00:28:49.000Z</time>
      </trkpt>
      <trkpt lat="42.325112" lon="-8.822842">
        <ele>37</ele>
        <time>1970-01-01T00:28:50.000Z</time>
      </trkpt>
      <trkpt lat="42.325118" lon="-8.822858">
        <ele>36.6</ele>
        <time>1970-01-01T00:28:51.000Z</time>
      </trkpt>
      <trkpt lat="42.325121" lon="-8.822877">
        <ele>36.6</ele>
        <time>1970-01-01T00:28:52.000Z</time>
      </trkpt>
      <trkpt lat="42.325124" lon="-8.822895">
        <ele>36.6</ele>
        <time>1970-01-01T00:28:53.000Z</time>
      </trkpt>
      <trkpt lat="42.325127" lon="-8.822913">
        <ele>36.4</ele>
        <time>1970-01-01T00:28:54.000Z</time>
      </trkpt>
      <trkpt lat="42.325131" lon="-8.822928">
        <ele>36.2</ele>
        <time>1970-01-01T00:28:55.000Z</time>
      </trkpt>
      <trkpt lat="42.325135" lon="-8.822942">
        <ele>36.2</ele>
        <time>1970-01-01T00:28:56.000Z</time>
      </trkpt>
      <trkpt lat="42.32514" lon="-8.822955">
        <ele>36</ele>
        <time>1970-01-01T00:28:57.000Z</time>
      </trkpt>
      <trkpt lat="42.325146" lon="-8.82297">
        <ele>36</ele>
        <time>1970-01-01T00:28:58.000Z</time>
      </trkpt>
      <trkpt lat="42.325152" lon="-8.822985">
        <ele>36</ele>
        <time>1970-01-01T00:28:59.000Z</time>
      </trkpt>
      <trkpt lat="42.32516" lon="-8.823004">
        <ele>36.2</ele>
        <time>1970-01-01T00:29:00.000Z</time>
      </trkpt>
      <trkpt lat="42.325168" lon="-8.823023">
        <ele>36.2</ele>
        <time>1970-01-01T00:29:01.000Z</time>
      </trkpt>
      <trkpt lat="42.325175" lon="-8.823042">
        <ele>36.2</ele>
        <time>1970-01-01T00:29:02.000Z</time>
      </trkpt>
      <trkpt lat="42.325184" lon="-8.823064">
        <ele>36.2</ele>
        <time>1970-01-01T00:29:03.000Z</time>
      </trkpt>
      <trkpt lat="42.325191" lon="-8.823086">
        <ele>36.2</ele>
        <time>1970-01-01T00:29:04.000Z</time>
      </trkpt>
      <trkpt lat="42.325199" lon="-8.823107">
        <ele>36.2</ele>
        <time>1970-01-01T00:29:05.000Z</time>
      </trkpt>
      <trkpt lat="42.325203" lon="-8.823124">
        <ele>36</ele>
        <time>1970-01-01T00:29:06.000Z</time>
      </trkpt>
      <trkpt lat="42.325205" lon="-8.823136">
        <ele>35.6</ele>
        <time>1970-01-01T00:29:07.000Z</time>
      </trkpt>
      <trkpt lat="42.325208" lon="-8.823147">
        <ele>35.4</ele>
        <time>1970-01-01T00:29:08.000Z</time>
      </trkpt>
      <trkpt lat="42.325212" lon="-8.823165">
        <ele>35.4</ele>
        <time>1970-01-01T00:29:09.000Z</time>
      </trkpt>
      <trkpt lat="42.325219" lon="-8.823187">
        <ele>35.2</ele>
        <time>1970-01-01T00:29:10.000Z</time>
      </trkpt>
      <trkpt lat="42.325227" lon="-8.823205">
        <ele>35.4</ele>
        <time>1970-01-01T00:29:11.000Z</time>
      </trkpt>
      <trkpt lat="42.325234" lon="-8.823221">
        <ele>35.4</ele>
        <time>1970-01-01T00:29:12.000Z</time>
      </trkpt>
      <trkpt lat="42.32524" lon="-8.823239">
        <ele>35.4</ele>
        <time>1970-01-01T00:29:13.000Z</time>
      </trkpt>
      <trkpt lat="42.325243" lon="-8.823251">
        <ele>35.4</ele>
        <time>1970-01-01T00:29:14.000Z</time>
      </trkpt>
      <trkpt lat="42.325247" lon="-8.823269">
        <ele>35</ele>
        <time>1970-01-01T00:29:15.000Z</time>
      </trkpt>
      <trkpt lat="42.325252" lon="-8.823287">
        <ele>34.6</ele>
        <time>1970-01-01T00:29:16.000Z</time>
      </trkpt>
      <trkpt lat="42.325261" lon="-8.82331">
        <ele>34.4</ele>
        <time>1970-01-01T00:29:17.000Z</time>
      </trkpt>
      <trkpt lat="42.325269" lon="-8.823326">
        <ele>34.2</ele>
        <time>1970-01-01T00:29:18.000Z</time>
      </trkpt>
      <trkpt lat="42.325273" lon="-8.82334">
        <ele>34.2</ele>
        <time>1970-01-01T00:29:19.000Z</time>
      </trkpt>
      <trkpt lat="42.325274" lon="-8.823355">
        <ele>34</ele>
        <time>1970-01-01T00:29:20.000Z</time>
      </trkpt>
      <trkpt lat="42.325274" lon="-8.823369">
        <ele>33.8</ele>
        <time>1970-01-01T00:29:21.000Z</time>
      </trkpt>
      <trkpt lat="42.32527" lon="-8.823385">
        <ele>33.8</ele>
        <time>1970-01-01T00:29:22.000Z</time>
      </trkpt>
      <trkpt lat="42.325261" lon="-8.823402">
        <ele>33.6</ele>
        <time>1970-01-01T00:29:23.000Z</time>
      </trkpt>
      <trkpt lat="42.325252" lon="-8.823422">
        <ele>33.6</ele>
        <time>1970-01-01T00:29:24.000Z</time>
      </trkpt>
      <trkpt lat="42.325241" lon="-8.823438">
        <ele>33.4</ele>
        <time>1970-01-01T00:29:25.000Z</time>
      </trkpt>
      <trkpt lat="42.325232" lon="-8.82345">
        <ele>32.8</ele>
        <time>1970-01-01T00:29:26.000Z</time>
      </trkpt>
      <trkpt lat="42.325224" lon="-8.823459">
        <ele>32.4</ele>
        <time>1970-01-01T00:29:27.000Z</time>
      </trkpt>
      <trkpt lat="42.325212" lon="-8.823466">
        <ele>32.2</ele>
        <time>1970-01-01T00:29:28.000Z</time>
      </trkpt>
      <trkpt lat="42.325199" lon="-8.823474">
        <ele>32</ele>
        <time>1970-01-01T00:29:29.000Z</time>
      </trkpt>
      <trkpt lat="42.325188" lon="-8.823483">
        <ele>31.8</ele>
        <time>1970-01-01T00:29:30.000Z</time>
      </trkpt>
      <trkpt lat="42.325177" lon="-8.823493">
        <ele>31.8</ele>
        <time>1970-01-01T00:29:31.000Z</time>
      </trkpt>
      <trkpt lat="42.325166" lon="-8.823503">
        <ele>31.6</ele>
        <time>1970-01-01T00:29:32.000Z</time>
      </trkpt>
      <trkpt lat="42.325156" lon="-8.823511">
        <ele>31.2</ele>
        <time>1970-01-01T00:29:33.000Z</time>
      </trkpt>
      <trkpt lat="42.325149" lon="-8.823521">
        <ele>30.8</ele>
        <time>1970-01-01T00:29:34.000Z</time>
      </trkpt>
      <trkpt lat="42.325142" lon="-8.823528">
        <ele>30.4</ele>
        <time>1970-01-01T00:29:35.000Z</time>
      </trkpt>
      <trkpt lat="42.325136" lon="-8.823536">
        <ele>30.2</ele>
        <time>1970-01-01T00:29:36.000Z</time>
      </trkpt>
      <trkpt lat="42.325125" lon="-8.823537">
        <ele>30</ele>
        <time>1970-01-01T00:29:37.000Z</time>
      </trkpt>
      <trkpt lat="42.325113" lon="-8.823539">
        <ele>29.8</ele>
        <time>1970-01-01T00:29:38.000Z</time>
      </trkpt>
      <trkpt lat="42.3251" lon="-8.823538">
        <ele>29.8</ele>
        <time>1970-01-01T00:29:39.000Z</time>
      </trkpt>
      <trkpt lat="42.325086" lon="-8.823538">
        <ele>29.6</ele>
        <time>1970-01-01T00:29:40.000Z</time>
      </trkpt>
      <trkpt lat="42.325075" lon="-8.823542">
        <ele>29.6</ele>
        <time>1970-01-01T00:29:41.000Z</time>
      </trkpt>
      <trkpt lat="42.325067" lon="-8.823548">
        <ele>29.4</ele>
        <time>1970-01-01T00:29:42.000Z</time>
      </trkpt>
      <trkpt lat="42.325062" lon="-8.823554">
        <ele>29</ele>
        <time>1970-01-01T00:29:43.000Z</time>
      </trkpt>
      <trkpt lat="42.325061" lon="-8.823566">
        <ele>28.8</ele>
        <time>1970-01-01T00:29:44.000Z</time>
      </trkpt>
      <trkpt lat="42.325063" lon="-8.823583">
        <ele>28.4</ele>
        <time>1970-01-01T00:29:45.000Z</time>
      </trkpt>
      <trkpt lat="42.325067" lon="-8.823601">
        <ele>27.8</ele>
        <time>1970-01-01T00:29:46.000Z</time>
      </trkpt>
      <trkpt lat="42.325073" lon="-8.823621">
        <ele>27.4</ele>
        <time>1970-01-01T00:29:47.000Z</time>
      </trkpt>
      <trkpt lat="42.32508" lon="-8.82364">
        <ele>27.4</ele>
        <time>1970-01-01T00:29:48.000Z</time>
      </trkpt>
      <trkpt lat="42.325086" lon="-8.823655">
        <ele>27.2</ele>
        <time>1970-01-01T00:29:49.000Z</time>
      </trkpt>
      <trkpt lat="42.325091" lon="-8.823666">
        <ele>27.2</ele>
        <time>1970-01-01T00:29:50.000Z</time>
      </trkpt>
      <trkpt lat="42.325096" lon="-8.823681">
        <ele>26.8</ele>
        <time>1970-01-01T00:29:51.000Z</time>
      </trkpt>
      <trkpt lat="42.325098" lon="-8.823693">
        <ele>26.6</ele>
        <time>1970-01-01T00:29:52.000Z</time>
      </trkpt>
      <trkpt lat="42.325099" lon="-8.823705">
        <ele>26.6</ele>
        <time>1970-01-01T00:29:53.000Z</time>
      </trkpt>
      <trkpt lat="42.325099" lon="-8.823715">
        <ele>26.4</ele>
        <time>1970-01-01T00:29:54.000Z</time>
      </trkpt>
      <trkpt lat="42.325097" lon="-8.823725">
        <ele>26.4</ele>
        <time>1970-01-01T00:29:55.000Z</time>
      </trkpt>
      <trkpt lat="42.325095" lon="-8.82374">
        <ele>26.2</ele>
        <time>1970-01-01T00:29:56.000Z</time>
      </trkpt>
      <trkpt lat="42.325091" lon="-8.823754">
        <ele>25.6</ele>
        <time>1970-01-01T00:29:57.000Z</time>
      </trkpt>
      <trkpt lat="42.325086" lon="-8.823768">
        <ele>25.2</ele>
        <time>1970-01-01T00:29:58.000Z</time>
      </trkpt>
      <trkpt lat="42.325079" lon="-8.823776">
        <ele>24.8</ele>
        <time>1970-01-01T00:29:59.000Z</time>
      </trkpt>
      <trkpt lat="42.325072" lon="-8.823783">
        <ele>24.4</ele>
        <time>1970-01-01T00:30:00.000Z</time>
      </trkpt>
      <trkpt lat="42.325064" lon="-8.82379">
        <ele>24</ele>
        <time>1970-01-01T00:30:01.000Z</time>
      </trkpt>
      <trkpt lat="42.325055" lon="-8.823793">
        <ele>23.6</ele>
        <time>1970-01-01T00:30:02.000Z</time>
      </trkpt>
      <trkpt lat="42.325047" lon="-8.823798">
        <ele>23.4</ele>
        <time>1970-01-01T00:30:03.000Z</time>
      </trkpt>
      <trkpt lat="42.32504" lon="-8.823806">
        <ele>23.4</ele>
        <time>1970-01-01T00:30:04.000Z</time>
      </trkpt>
      <trkpt lat="42.325032" lon="-8.823815">
        <ele>23</ele>
        <time>1970-01-01T00:30:05.000Z</time>
      </trkpt>
      <trkpt lat="42.325026" lon="-8.823823">
        <ele>22.8</ele>
        <time>1970-01-01T00:30:06.000Z</time>
      </trkpt>
      <trkpt lat="42.325018" lon="-8.823835">
        <ele>22.8</ele>
        <time>1970-01-01T00:30:07.000Z</time>
      </trkpt>
      <trkpt lat="42.325009" lon="-8.823846">
        <ele>22.6</ele>
        <time>1970-01-01T00:30:08.000Z</time>
      </trkpt>
      <trkpt lat="42.325001" lon="-8.823857">
        <ele>22.4</ele>
        <time>1970-01-01T00:30:09.000Z</time>
      </trkpt>
      <trkpt lat="42.324992" lon="-8.823868">
        <ele>22.2</ele>
        <time>1970-01-01T00:30:10.000Z</time>
      </trkpt>
      <trkpt lat="42.324984" lon="-8.823881">
        <ele>21.4</ele>
        <time>1970-01-01T00:30:11.000Z</time>
      </trkpt>
      <trkpt lat="42.324976" lon="-8.823892">
        <ele>20.8</ele>
        <time>1970-01-01T00:30:12.000Z</time>
      </trkpt>
      <trkpt lat="42.324967" lon="-8.823902">
        <ele>20.4</ele>
        <time>1970-01-01T00:30:13.000Z</time>
      </trkpt>
      <trkpt lat="42.32496" lon="-8.823916">
        <ele>20</ele>
        <time>1970-01-01T00:30:14.000Z</time>
      </trkpt>
      <trkpt lat="42.324954" lon="-8.823932">
        <ele>19.6</ele>
        <time>1970-01-01T00:30:15.000Z</time>
      </trkpt>
      <trkpt lat="42.324947" lon="-8.823948">
        <ele>19.2</ele>
        <time>1970-01-01T00:30:16.000Z</time>
      </trkpt>
      <trkpt lat="42.324941" lon="-8.823963">
        <ele>18.8</ele>
        <time>1970-01-01T00:30:17.000Z</time>
      </trkpt>
      <trkpt lat="42.324937" lon="-8.823975">
        <ele>18.6</ele>
        <time>1970-01-01T00:30:18.000Z</time>
      </trkpt>
      <trkpt lat="42.324934" lon="-8.823988">
        <ele>18.4</ele>
        <time>1970-01-01T00:30:19.000Z</time>
      </trkpt>
      <trkpt lat="42.32493" lon="-8.824">
        <ele>18</ele>
        <time>1970-01-01T00:30:20.000Z</time>
      </trkpt>
      <trkpt lat="42.324926" lon="-8.824011">
        <ele>17.8</ele>
        <time>1970-01-01T00:30:21.000Z</time>
      </trkpt>
      <trkpt lat="42.324921" lon="-8.824024">
        <ele>17.8</ele>
        <time>1970-01-01T00:30:22.000Z</time>
      </trkpt>
      <trkpt lat="42.324915" lon="-8.824042">
        <ele>17.8</ele>
        <time>1970-01-01T00:30:23.000Z</time>
      </trkpt>
      <trkpt lat="42.324909" lon="-8.824059">
        <ele>17.6</ele>
        <time>1970-01-01T00:30:24.000Z</time>
      </trkpt>
      <trkpt lat="42.324906" lon="-8.824073">
        <ele>17.6</ele>
        <time>1970-01-01T00:30:25.000Z</time>
      </trkpt>
      <trkpt lat="42.324901" lon="-8.82409">
        <ele>17.4</ele>
        <time>1970-01-01T00:30:26.000Z</time>
      </trkpt>
      <trkpt lat="42.324893" lon="-8.824105">
        <ele>17</ele>
        <time>1970-01-01T00:30:27.000Z</time>
      </trkpt>
      <trkpt lat="42.324885" lon="-8.824116">
        <ele>16.6</ele>
        <time>1970-01-01T00:30:28.000Z</time>
      </trkpt>
      <trkpt lat="42.324877" lon="-8.824126">
        <ele>16.4</ele>
        <time>1970-01-01T00:30:29.000Z</time>
      </trkpt>
      <trkpt lat="42.324869" lon="-8.824132">
        <ele>16.2</ele>
        <time>1970-01-01T00:30:30.000Z</time>
      </trkpt>
      <trkpt lat="42.324864" lon="-8.824138">
        <ele>15.8</ele>
        <time>1970-01-01T00:30:31.000Z</time>
      </trkpt>
      <trkpt lat="42.32486" lon="-8.824145">
        <ele>15.6</ele>
        <time>1970-01-01T00:30:32.000Z</time>
      </trkpt>
      <trkpt lat="42.324856" lon="-8.824156">
        <ele>14.6</ele>
        <time>1970-01-01T00:30:33.000Z</time>
      </trkpt>
      <trkpt lat="42.324854" lon="-8.824173">
        <ele>14.2</ele>
        <time>1970-01-01T00:30:34.000Z</time>
      </trkpt>
      <trkpt lat="42.32485" lon="-8.824187">
        <ele>13.6</ele>
        <time>1970-01-01T00:30:35.000Z</time>
      </trkpt>
      <trkpt lat="42.324844" lon="-8.824199">
        <ele>13.4</ele>
        <time>1970-01-01T00:30:36.000Z</time>
      </trkpt>
      <trkpt lat="42.324836" lon="-8.824211">
        <ele>13</ele>
        <time>1970-01-01T00:30:37.000Z</time>
      </trkpt>
      <trkpt lat="42.324827" lon="-8.824226">
        <ele>12.8</ele>
        <time>1970-01-01T00:30:38.000Z</time>
      </trkpt>
      <trkpt lat="42.324818" lon="-8.824238">
        <ele>12.6</ele>
        <time>1970-01-01T00:30:39.000Z</time>
      </trkpt>
      <trkpt lat="42.324812" lon="-8.824247">
        <ele>12.2</ele>
        <time>1970-01-01T00:30:40.000Z</time>
      </trkpt>
      <trkpt lat="42.324807" lon="-8.824256">
        <ele>11.8</ele>
        <time>1970-01-01T00:30:41.000Z</time>
      </trkpt>
      <trkpt lat="42.324803" lon="-8.824267">
        <ele>11.6</ele>
        <time>1970-01-01T00:30:42.000Z</time>
      </trkpt>
      <trkpt lat="42.3248" lon="-8.824279">
        <ele>11.4</ele>
        <time>1970-01-01T00:30:43.000Z</time>
      </trkpt>
      <trkpt lat="42.324798" lon="-8.824295">
        <ele>11.2</ele>
        <time>1970-01-01T00:30:44.000Z</time>
      </trkpt>
      <trkpt lat="42.324797" lon="-8.824318">
        <ele>11</ele>
        <time>1970-01-01T00:30:45.000Z</time>
      </trkpt>
      <trkpt lat="42.324794" lon="-8.824333">
        <ele>10.2</ele>
        <time>1970-01-01T00:30:46.000Z</time>
      </trkpt>
      <trkpt lat="42.324792" lon="-8.824345">
        <ele>9.8</ele>
        <time>1970-01-01T00:30:47.000Z</time>
      </trkpt>
      <trkpt lat="42.32479" lon="-8.824363">
        <ele>9.6</ele>
        <time>1970-01-01T00:30:48.000Z</time>
      </trkpt>
      <trkpt lat="42.32479" lon="-8.824387">
        <ele>9.4</ele>
        <time>1970-01-01T00:30:49.000Z</time>
      </trkpt>
      <trkpt lat="42.324793" lon="-8.824409">
        <ele>9.2</ele>
        <time>1970-01-01T00:30:50.000Z</time>
      </trkpt>
      <trkpt lat="42.324799" lon="-8.82443">
        <ele>9</ele>
        <time>1970-01-01T00:30:51.000Z</time>
      </trkpt>
      <trkpt lat="42.324808" lon="-8.824449">
        <ele>8.8</ele>
        <time>1970-01-01T00:30:52.000Z</time>
      </trkpt>
      <trkpt lat="42.324816" lon="-8.824467">
        <ele>8.4</ele>
        <time>1970-01-01T00:30:53.000Z</time>
      </trkpt>
      <trkpt lat="42.324821" lon="-8.824481">
        <ele>8</ele>
        <time>1970-01-01T00:30:54.000Z</time>
      </trkpt>
      <trkpt lat="42.324827" lon="-8.824505">
        <ele>7.8</ele>
        <time>1970-01-01T00:30:55.000Z</time>
      </trkpt>
      <trkpt lat="42.32483" lon="-8.824529">
        <ele>7.6</ele>
        <time>1970-01-01T00:30:56.000Z</time>
      </trkpt>
      <trkpt lat="42.324833" lon="-8.824551">
        <ele>7.4</ele>
        <time>1970-01-01T00:30:57.000Z</time>
      </trkpt>
      <trkpt lat="42.324835" lon="-8.824574">
        <ele>6.8</ele>
        <time>1970-01-01T00:30:58.000Z</time>
      </trkpt>
      <trkpt lat="42.324838" lon="-8.824593">
        <ele>6.6</ele>
        <time>1970-01-01T00:30:59.000Z</time>
      </trkpt>
      <trkpt lat="42.32484" lon="-8.824615">
        <ele>6.4</ele>
        <time>1970-01-01T00:31:00.000Z</time>
      </trkpt>
      <trkpt lat="42.32484" lon="-8.824637">
        <ele>6.2</ele>
        <time>1970-01-01T00:31:01.000Z</time>
      </trkpt>
      <trkpt lat="42.324843" lon="-8.824655">
        <ele>6.2</ele>
        <time>1970-01-01T00:31:02.000Z</time>
      </trkpt>
      <trkpt lat="42.324844" lon="-8.824673">
        <ele>6.4</ele>
        <time>1970-01-01T00:31:03.000Z</time>
      </trkpt>
      <trkpt lat="42.324845" lon="-8.824691">
        <ele>6.4</ele>
        <time>1970-01-01T00:31:04.000Z</time>
      </trkpt>
      <trkpt lat="42.324847" lon="-8.824707">
        <ele>6.4</ele>
        <time>1970-01-01T00:31:05.000Z</time>
      </trkpt>
      <trkpt lat="42.324849" lon="-8.824718">
        <ele>6.4</ele>
        <time>1970-01-01T00:31:06.000Z</time>
      </trkpt>
      <trkpt lat="42.32485" lon="-8.824729">
        <ele>6.2</ele>
        <time>1970-01-01T00:31:07.000Z</time>
      </trkpt>
      <trkpt lat="42.324855" lon="-8.824741">
        <ele>6</ele>
        <time>1970-01-01T00:31:08.000Z</time>
      </trkpt>
      <trkpt lat="42.324859" lon="-8.824755">
        <ele>5.8</ele>
        <time>1970-01-01T00:31:09.000Z</time>
      </trkpt>
      <trkpt lat="42.324865" lon="-8.824771">
        <ele>5.4</ele>
        <time>1970-01-01T00:31:10.000Z</time>
      </trkpt>
      <trkpt lat="42.32487" lon="-8.824787">
        <ele>5.2</ele>
        <time>1970-01-01T00:31:11.000Z</time>
      </trkpt>
      <trkpt lat="42.324876" lon="-8.824804">
        <ele>5</ele>
        <time>1970-01-01T00:31:12.000Z</time>
      </trkpt>
      <trkpt lat="42.32488" lon="-8.82482">
        <ele>4.8</ele>
        <time>1970-01-01T00:31:13.000Z</time>
      </trkpt>
      <trkpt lat="42.324886" lon="-8.824839">
        <ele>4.8</ele>
        <time>1970-01-01T00:31:14.000Z</time>
      </trkpt>
      <trkpt lat="42.324892" lon="-8.824858">
        <ele>4.6</ele>
        <time>1970-01-01T00:31:15.000Z</time>
      </trkpt>
      <trkpt lat="42.324897" lon="-8.824876">
        <ele>4.4</ele>
        <time>1970-01-01T00:31:16.000Z</time>
      </trkpt>
      <trkpt lat="42.324903" lon="-8.824896">
        <ele>4</ele>
        <time>1970-01-01T00:31:17.000Z</time>
      </trkpt>
      <trkpt lat="42.324909" lon="-8.824916">
        <ele>3.8</ele>
        <time>1970-01-01T00:31:18.000Z</time>
      </trkpt>
      <trkpt lat="42.324916" lon="-8.824934">
        <ele>3.4</ele>
        <time>1970-01-01T00:31:19.000Z</time>
      </trkpt>
      <trkpt lat="42.324924" lon="-8.824953">
        <ele>3.2</ele>
        <time>1970-01-01T00:31:20.000Z</time>
      </trkpt>
      <trkpt lat="42.324933" lon="-8.82497">
        <ele>3</ele>
        <time>1970-01-01T00:31:21.000Z</time>
      </trkpt>
      <trkpt lat="42.324943" lon="-8.824987">
        <ele>2.8</ele>
        <time>1970-01-01T00:31:22.000Z</time>
      </trkpt>
      <trkpt lat="42.324955" lon="-8.825004">
        <ele>2.6</ele>
        <time>1970-01-01T00:31:23.000Z</time>
      </trkpt>
      <trkpt lat="42.324967" lon="-8.825016">
        <ele>2.4</ele>
        <time>1970-01-01T00:31:24.000Z</time>
      </trkpt>
      <trkpt lat="42.324981" lon="-8.825031">
        <ele>2.4</ele>
        <time>1970-01-01T00:31:25.000Z</time>
      </trkpt>
      <trkpt lat="42.324997" lon="-8.825042">
        <ele>2.2</ele>
        <time>1970-01-01T00:31:26.000Z</time>
      </trkpt>
      <trkpt lat="42.325015" lon="-8.825049">
        <ele>2.2</ele>
        <time>1970-01-01T00:31:27.000Z</time>
      </trkpt>
      <trkpt lat="42.325032" lon="-8.825054">
        <ele>2.2</ele>
        <time>1970-01-01T00:31:28.000Z</time>
      </trkpt>
      <trkpt lat="42.32505" lon="-8.825056">
        <ele>2.2</ele>
        <time>1970-01-01T00:31:29.000Z</time>
      </trkpt>
      <trkpt lat="42.325066" lon="-8.825059">
        <ele>2</ele>
        <time>1970-01-01T00:31:30.000Z</time>
      </trkpt>
      <trkpt lat="42.325084" lon="-8.825061">
        <ele>2</ele>
        <time>1970-01-01T00:31:31.000Z</time>
      </trkpt>
      <trkpt lat="42.325099" lon="-8.825061">
        <ele>2</ele>
        <time>1970-01-01T00:31:32.000Z</time>
      </trkpt>
      <trkpt lat="42.325112" lon="-8.825059">
        <ele>2</ele>
        <time>1970-01-01T00:31:33.000Z</time>
      </trkpt>
      <trkpt lat="42.325126" lon="-8.82506">
        <ele>1.8</ele>
        <time>1970-01-01T00:31:34.000Z</time>
      </trkpt>
      <trkpt lat="42.325142" lon="-8.825068">
        <ele>1.6</ele>
        <time>1970-01-01T00:31:35.000Z</time>
      </trkpt>
      <trkpt lat="42.325158" lon="-8.82508">
        <ele>1.4</ele>
        <time>1970-01-01T00:31:36.000Z</time>
      </trkpt>
      <trkpt lat="42.325171" lon="-8.825091">
        <ele>1.4</ele>
        <time>1970-01-01T00:31:37.000Z</time>
      </trkpt>
      <trkpt lat="42.325183" lon="-8.825097">
        <ele>1.4</ele>
        <time>1970-01-01T00:31:38.000Z</time>
      </trkpt>
      <trkpt lat="42.325195" lon="-8.825094">
        <ele>1.4</ele>
        <time>1970-01-01T00:31:39.000Z</time>
      </trkpt>
      <trkpt lat="42.325205" lon="-8.825089">
        <ele>1.4</ele>
        <time>1970-01-01T00:31:40.000Z</time>
      </trkpt>
      <trkpt lat="42.325217" lon="-8.825088">
        <ele>1.4</ele>
        <time>1970-01-01T00:31:41.000Z</time>
      </trkpt>
      <trkpt lat="42.32523" lon="-8.825086">
        <ele>1.6</ele>
        <time>1970-01-01T00:31:42.000Z</time>
      </trkpt>
      <trkpt lat="42.325244" lon="-8.825084">
        <ele>1.6</ele>
        <time>1970-01-01T00:31:43.000Z</time>
      </trkpt>
      <trkpt lat="42.325259" lon="-8.825088">
        <ele>1.6</ele>
        <time>1970-01-01T00:31:44.000Z</time>
      </trkpt>
      <trkpt lat="42.325276" lon="-8.825089">
        <ele>1.8</ele>
        <time>1970-01-01T00:31:45.000Z</time>
      </trkpt>
      <trkpt lat="42.325292" lon="-8.825089">
        <ele>2.2</ele>
        <time>1970-01-01T00:31:46.000Z</time>
      </trkpt>
      <trkpt lat="42.325306" lon="-8.82509">
        <ele>2.4</ele>
        <time>1970-01-01T00:31:47.000Z</time>
      </trkpt>
      <trkpt lat="42.325319" lon="-8.82509">
        <ele>2.4</ele>
        <time>1970-01-01T00:31:48.000Z</time>
      </trkpt>
      <trkpt lat="42.325332" lon="-8.825094">
        <ele>2.6</ele>
        <time>1970-01-01T00:31:49.000Z</time>
      </trkpt>
      <trkpt lat="42.325346" lon="-8.825093">
        <ele>2.6</ele>
        <time>1970-01-01T00:31:50.000Z</time>
      </trkpt>
      <trkpt lat="42.325359" lon="-8.825094">
        <ele>2.8</ele>
        <time>1970-01-01T00:31:51.000Z</time>
      </trkpt>
      <trkpt lat="42.325374" lon="-8.825094">
        <ele>2.8</ele>
        <time>1970-01-01T00:31:52.000Z</time>
      </trkpt>
      <trkpt lat="42.325387" lon="-8.825092">
        <ele>3</ele>
        <time>1970-01-01T00:31:53.000Z</time>
      </trkpt>
      <trkpt lat="42.325398" lon="-8.825089">
        <ele>3.2</ele>
        <time>1970-01-01T00:31:54.000Z</time>
      </trkpt>
      <trkpt lat="42.32541" lon="-8.825084">
        <ele>3.4</ele>
        <time>1970-01-01T00:31:55.000Z</time>
      </trkpt>
      <trkpt lat="42.32542" lon="-8.82508">
        <ele>3.6</ele>
        <time>1970-01-01T00:31:56.000Z</time>
      </trkpt>
      <trkpt lat="42.32543" lon="-8.825081">
        <ele>3.8</ele>
        <time>1970-01-01T00:31:57.000Z</time>
      </trkpt>
      <trkpt lat="42.32544" lon="-8.825085">
        <ele>4</ele>
        <time>1970-01-01T00:31:58.000Z</time>
      </trkpt>
      <trkpt lat="42.32545" lon="-8.82509">
        <ele>4.2</ele>
        <time>1970-01-01T00:31:59.000Z</time>
      </trkpt>
      <trkpt lat="42.325463" lon="-8.825093">
        <ele>4.4</ele>
        <time>1970-01-01T00:32:00.000Z</time>
      </trkpt>
      <trkpt lat="42.325477" lon="-8.8251">
        <ele>4.6</ele>
        <time>1970-01-01T00:32:01.000Z</time>
      </trkpt>
      <trkpt lat="42.325492" lon="-8.825107">
        <ele>4.8</ele>
        <time>1970-01-01T00:32:02.000Z</time>
      </trkpt>
      <trkpt lat="42.325508" lon="-8.82512">
        <ele>5</ele>
        <time>1970-01-01T00:32:03.000Z</time>
      </trkpt>
      <trkpt lat="42.325523" lon="-8.825132">
        <ele>5.2</ele>
        <time>1970-01-01T00:32:04.000Z</time>
      </trkpt>
      <trkpt lat="42.325536" lon="-8.825143">
        <ele>5.6</ele>
        <time>1970-01-01T00:32:05.000Z</time>
      </trkpt>
      <trkpt lat="42.325547" lon="-8.825156">
        <ele>6</ele>
        <time>1970-01-01T00:32:06.000Z</time>
      </trkpt>
      <trkpt lat="42.325557" lon="-8.825163">
        <ele>6.4</ele>
        <time>1970-01-01T00:32:07.000Z</time>
      </trkpt>
      <trkpt lat="42.325568" lon="-8.825172">
        <ele>6.4</ele>
        <time>1970-01-01T00:32:08.000Z</time>
      </trkpt>
      <trkpt lat="42.325579" lon="-8.825177">
        <ele>6.6</ele>
        <time>1970-01-01T00:32:09.000Z</time>
      </trkpt>
      <trkpt lat="42.325591" lon="-8.82518">
        <ele>6.6</ele>
        <time>1970-01-01T00:32:10.000Z</time>
      </trkpt>
      <trkpt lat="42.325603" lon="-8.825183">
        <ele>6.8</ele>
        <time>1970-01-01T00:32:11.000Z</time>
      </trkpt>
      <trkpt lat="42.325617" lon="-8.825189">
        <ele>7.2</ele>
        <time>1970-01-01T00:32:12.000Z</time>
      </trkpt>
      <trkpt lat="42.325632" lon="-8.825198">
        <ele>7.4</ele>
        <time>1970-01-01T00:32:13.000Z</time>
      </trkpt>
      <trkpt lat="42.325647" lon="-8.825204">
        <ele>7.6</ele>
        <time>1970-01-01T00:32:14.000Z</time>
      </trkpt>
      <trkpt lat="42.325663" lon="-8.825208">
        <ele>7.6</ele>
        <time>1970-01-01T00:32:15.000Z</time>
      </trkpt>
      <trkpt lat="42.325677" lon="-8.825211">
        <ele>7.6</ele>
        <time>1970-01-01T00:32:16.000Z</time>
      </trkpt>
      <trkpt lat="42.325691" lon="-8.825213">
        <ele>7.6</ele>
        <time>1970-01-01T00:32:17.000Z</time>
      </trkpt>
      <trkpt lat="42.325704" lon="-8.825215">
        <ele>7.6</ele>
        <time>1970-01-01T00:32:18.000Z</time>
      </trkpt>
      <trkpt lat="42.325717" lon="-8.825216">
        <ele>8</ele>
        <time>1970-01-01T00:32:19.000Z</time>
      </trkpt>
      <trkpt lat="42.325729" lon="-8.825216">
        <ele>8.2</ele>
        <time>1970-01-01T00:32:20.000Z</time>
      </trkpt>
      <trkpt lat="42.325741" lon="-8.825214">
        <ele>8.6</ele>
        <time>1970-01-01T00:32:21.000Z</time>
      </trkpt>
      <trkpt lat="42.325753" lon="-8.825217">
        <ele>9</ele>
        <time>1970-01-01T00:32:22.000Z</time>
      </trkpt>
      <trkpt lat="42.325764" lon="-8.825219">
        <ele>9</ele>
        <time>1970-01-01T00:32:23.000Z</time>
      </trkpt>
      <trkpt lat="42.325774" lon="-8.825223">
        <ele>9.2</ele>
        <time>1970-01-01T00:32:24.000Z</time>
      </trkpt>
      <trkpt lat="42.325785" lon="-8.825226">
        <ele>9.2</ele>
        <time>1970-01-01T00:32:25.000Z</time>
      </trkpt>
      <trkpt lat="42.325793" lon="-8.825234">
        <ele>9.6</ele>
        <time>1970-01-01T00:32:26.000Z</time>
      </trkpt>
      <trkpt lat="42.325803" lon="-8.825243">
        <ele>9.8</ele>
        <time>1970-01-01T00:32:27.000Z</time>
      </trkpt>
      <trkpt lat="42.325814" lon="-8.825248">
        <ele>9.8</ele>
        <time>1970-01-01T00:32:28.000Z</time>
      </trkpt>
      <trkpt lat="42.325823" lon="-8.825259">
        <ele>10</ele>
        <time>1970-01-01T00:32:29.000Z</time>
      </trkpt>
      <trkpt lat="42.325833" lon="-8.825266">
        <ele>10</ele>
        <time>1970-01-01T00:32:30.000Z</time>
      </trkpt>
      <trkpt lat="42.325844" lon="-8.825271">
        <ele>10.6</ele>
        <time>1970-01-01T00:32:31.000Z</time>
      </trkpt>
      <trkpt lat="42.325857" lon="-8.825271">
        <ele>10.8</ele>
        <time>1970-01-01T00:32:32.000Z</time>
      </trkpt>
      <trkpt lat="42.325872" lon="-8.825272">
        <ele>11.2</ele>
        <time>1970-01-01T00:32:33.000Z</time>
      </trkpt>
      <trkpt lat="42.325885" lon="-8.825275">
        <ele>11.4</ele>
        <time>1970-01-01T00:32:34.000Z</time>
      </trkpt>
      <trkpt lat="42.325897" lon="-8.825277">
        <ele>11.6</ele>
        <time>1970-01-01T00:32:35.000Z</time>
      </trkpt>
      <trkpt lat="42.325911" lon="-8.825282">
        <ele>11.8</ele>
        <time>1970-01-01T00:32:36.000Z</time>
      </trkpt>
      <trkpt lat="42.325928" lon="-8.825287">
        <ele>11.8</ele>
        <time>1970-01-01T00:32:37.000Z</time>
      </trkpt>
      <trkpt lat="42.325942" lon="-8.825292">
        <ele>12.2</ele>
        <time>1970-01-01T00:32:38.000Z</time>
      </trkpt>
      <trkpt lat="42.325955" lon="-8.825294">
        <ele>12.4</ele>
        <time>1970-01-01T00:32:39.000Z</time>
      </trkpt>
      <trkpt lat="42.325971" lon="-8.825297">
        <ele>12.6</ele>
        <time>1970-01-01T00:32:40.000Z</time>
      </trkpt>
      <trkpt lat="42.325987" lon="-8.825295">
        <ele>12.6</ele>
        <time>1970-01-01T00:32:41.000Z</time>
      </trkpt>
      <trkpt lat="42.326001" lon="-8.825292">
        <ele>12.6</ele>
        <time>1970-01-01T00:32:42.000Z</time>
      </trkpt>
      <trkpt lat="42.326017" lon="-8.825288">
        <ele>12.6</ele>
        <time>1970-01-01T00:32:43.000Z</time>
      </trkpt>
      <trkpt lat="42.32603" lon="-8.825283">
        <ele>12.6</ele>
        <time>1970-01-01T00:32:44.000Z</time>
      </trkpt>
      <trkpt lat="42.326045" lon="-8.825283">
        <ele>12.6</ele>
        <time>1970-01-01T00:32:45.000Z</time>
      </trkpt>
      <trkpt lat="42.326061" lon="-8.825285">
        <ele>12.8</ele>
        <time>1970-01-01T00:32:46.000Z</time>
      </trkpt>
      <trkpt lat="42.326076" lon="-8.825282">
        <ele>12.8</ele>
        <time>1970-01-01T00:32:47.000Z</time>
      </trkpt>
      <trkpt lat="42.32609" lon="-8.825276">
        <ele>12.8</ele>
        <time>1970-01-01T00:32:48.000Z</time>
      </trkpt>
      <trkpt lat="42.326104" lon="-8.825271">
        <ele>13</ele>
        <time>1970-01-01T00:32:49.000Z</time>
      </trkpt>
      <trkpt lat="42.32612" lon="-8.825266">
        <ele>13</ele>
        <time>1970-01-01T00:32:50.000Z</time>
      </trkpt>
      <trkpt lat="42.326133" lon="-8.825267">
        <ele>13.4</ele>
        <time>1970-01-01T00:32:51.000Z</time>
      </trkpt>
      <trkpt lat="42.32615" lon="-8.825256">
        <ele>13.6</ele>
        <time>1970-01-01T00:32:52.000Z</time>
      </trkpt>
      <trkpt lat="42.326166" lon="-8.825245">
        <ele>13.6</ele>
        <time>1970-01-01T00:32:53.000Z</time>
      </trkpt>
      <trkpt lat="42.326181" lon="-8.825234">
        <ele>13.6</ele>
        <time>1970-01-01T00:32:54.000Z</time>
      </trkpt>
      <trkpt lat="42.326198" lon="-8.825223">
        <ele>13.6</ele>
        <time>1970-01-01T00:32:55.000Z</time>
      </trkpt>
      <trkpt lat="42.326215" lon="-8.82521">
        <ele>13.6</ele>
        <time>1970-01-01T00:32:56.000Z</time>
      </trkpt>
      <trkpt lat="42.326234" lon="-8.825199">
        <ele>13.6</ele>
        <time>1970-01-01T00:32:57.000Z</time>
      </trkpt>
      <trkpt lat="42.326249" lon="-8.825195">
        <ele>13.6</ele>
        <time>1970-01-01T00:32:58.000Z</time>
      </trkpt>
      <trkpt lat="42.326265" lon="-8.825191">
        <ele>13.6</ele>
        <time>1970-01-01T00:32:59.000Z</time>
      </trkpt>
      <trkpt lat="42.326278" lon="-8.825184">
        <ele>13.6</ele>
        <time>1970-01-01T00:33:00.000Z</time>
      </trkpt>
      <trkpt lat="42.326291" lon="-8.825179">
        <ele>13.4</ele>
        <time>1970-01-01T00:33:01.000Z</time>
      </trkpt>
      <trkpt lat="42.326301" lon="-8.825173">
        <ele>13.4</ele>
        <time>1970-01-01T00:33:02.000Z</time>
      </trkpt>
      <trkpt lat="42.326311" lon="-8.825167">
        <ele>13.4</ele>
        <time>1970-01-01T00:33:03.000Z</time>
      </trkpt>
      <trkpt lat="42.32632" lon="-8.825159">
        <ele>13.4</ele>
        <time>1970-01-01T00:33:04.000Z</time>
      </trkpt>
      <trkpt lat="42.326328" lon="-8.825147">
        <ele>13.4</ele>
        <time>1970-01-01T00:33:05.000Z</time>
      </trkpt>
      <trkpt lat="42.326334" lon="-8.82514">
        <ele>14</ele>
        <time>1970-01-01T00:33:06.000Z</time>
      </trkpt>
      <trkpt lat="42.326343" lon="-8.825135">
        <ele>14.2</ele>
        <time>1970-01-01T00:33:07.000Z</time>
      </trkpt>
      <trkpt lat="42.32635" lon="-8.825126">
        <ele>14.2</ele>
        <time>1970-01-01T00:33:08.000Z</time>
      </trkpt>
      <trkpt lat="42.326357" lon="-8.82512">
        <ele>14.4</ele>
        <time>1970-01-01T00:33:09.000Z</time>
      </trkpt>
      <trkpt lat="42.326363" lon="-8.825115">
        <ele>14.6</ele>
        <time>1970-01-01T00:33:10.000Z</time>
      </trkpt>
      <trkpt lat="42.326367" lon="-8.825112">
        <ele>14.4</ele>
        <time>1970-01-01T00:33:11.000Z</time>
      </trkpt>
      <trkpt lat="42.326372" lon="-8.825113">
        <ele>14.4</ele>
        <time>1970-01-01T00:33:12.000Z</time>
      </trkpt>
      <trkpt lat="42.326379" lon="-8.825109">
        <ele>14.4</ele>
        <time>1970-01-01T00:33:13.000Z</time>
      </trkpt>
      <trkpt lat="42.326389" lon="-8.825103">
        <ele>14.4</ele>
        <time>1970-01-01T00:33:14.000Z</time>
      </trkpt>
      <trkpt lat="42.326401" lon="-8.825097">
        <ele>14.6</ele>
        <time>1970-01-01T00:33:15.000Z</time>
      </trkpt>
      <trkpt lat="42.326416" lon="-8.825091">
        <ele>14.8</ele>
        <time>1970-01-01T00:33:16.000Z</time>
      </trkpt>
      <trkpt lat="42.326431" lon="-8.825086">
        <ele>14.8</ele>
        <time>1970-01-01T00:33:17.000Z</time>
      </trkpt>
      <trkpt lat="42.326446" lon="-8.825081">
        <ele>15</ele>
        <time>1970-01-01T00:33:18.000Z</time>
      </trkpt>
      <trkpt lat="42.326459" lon="-8.825078">
        <ele>15</ele>
        <time>1970-01-01T00:33:19.000Z</time>
      </trkpt>
      <trkpt lat="42.32647" lon="-8.825077">
        <ele>15</ele>
        <time>1970-01-01T00:33:20.000Z</time>
      </trkpt>
      <trkpt lat="42.32648" lon="-8.825073">
        <ele>15</ele>
        <time>1970-01-01T00:33:21.000Z</time>
      </trkpt>
      <trkpt lat="42.326488" lon="-8.825064">
        <ele>14.8</ele>
        <time>1970-01-01T00:33:22.000Z</time>
      </trkpt>
      <trkpt lat="42.326496" lon="-8.825058">
        <ele>14.8</ele>
        <time>1970-01-01T00:33:23.000Z</time>
      </trkpt>
      <trkpt lat="42.326503" lon="-8.825051">
        <ele>14.6</ele>
        <time>1970-01-01T00:33:24.000Z</time>
      </trkpt>
      <trkpt lat="42.326511" lon="-8.825044">
        <ele>14.6</ele>
        <time>1970-01-01T00:33:25.000Z</time>
      </trkpt>
      <trkpt lat="42.32652" lon="-8.825038">
        <ele>14.6</ele>
        <time>1970-01-01T00:33:26.000Z</time>
      </trkpt>
      <trkpt lat="42.32653" lon="-8.825033">
        <ele>14.8</ele>
        <time>1970-01-01T00:33:27.000Z</time>
      </trkpt>
      <trkpt lat="42.326545" lon="-8.825026">
        <ele>14.8</ele>
        <time>1970-01-01T00:33:28.000Z</time>
      </trkpt>
      <trkpt lat="42.326559" lon="-8.825017">
        <ele>14.8</ele>
        <time>1970-01-01T00:33:29.000Z</time>
      </trkpt>
      <trkpt lat="42.32657" lon="-8.825005">
        <ele>15</ele>
        <time>1970-01-01T00:33:30.000Z</time>
      </trkpt>
      <trkpt lat="42.326588" lon="-8.824993">
        <ele>14.8</ele>
        <time>1970-01-01T00:33:31.000Z</time>
      </trkpt>
      <trkpt lat="42.326602" lon="-8.824986">
        <ele>15</ele>
        <time>1970-01-01T00:33:32.000Z</time>
      </trkpt>
      <trkpt lat="42.326616" lon="-8.824979">
        <ele>15</ele>
        <time>1970-01-01T00:33:33.000Z</time>
      </trkpt>
      <trkpt lat="42.326627" lon="-8.82497">
        <ele>15.2</ele>
        <time>1970-01-01T00:33:34.000Z</time>
      </trkpt>
      <trkpt lat="42.326637" lon="-8.824962">
        <ele>15.6</ele>
        <time>1970-01-01T00:33:35.000Z</time>
      </trkpt>
      <trkpt lat="42.32665" lon="-8.82495">
        <ele>15.8</ele>
        <time>1970-01-01T00:33:36.000Z</time>
      </trkpt>
      <trkpt lat="42.326664" lon="-8.824941">
        <ele>16</ele>
        <time>1970-01-01T00:33:37.000Z</time>
      </trkpt>
      <trkpt lat="42.326677" lon="-8.824933">
        <ele>16.2</ele>
        <time>1970-01-01T00:33:38.000Z</time>
      </trkpt>
      <trkpt lat="42.326692" lon="-8.824924">
        <ele>16.4</ele>
        <time>1970-01-01T00:33:39.000Z</time>
      </trkpt>
      <trkpt lat="42.326708" lon="-8.824916">
        <ele>16.6</ele>
        <time>1970-01-01T00:33:40.000Z</time>
      </trkpt>
      <trkpt lat="42.326724" lon="-8.82491">
        <ele>16.8</ele>
        <time>1970-01-01T00:33:41.000Z</time>
      </trkpt>
      <trkpt lat="42.326741" lon="-8.824904">
        <ele>17</ele>
        <time>1970-01-01T00:33:42.000Z</time>
      </trkpt>
      <trkpt lat="42.326757" lon="-8.824896">
        <ele>17.4</ele>
        <time>1970-01-01T00:33:43.000Z</time>
      </trkpt>
      <trkpt lat="42.326771" lon="-8.824887">
        <ele>17.4</ele>
        <time>1970-01-01T00:33:44.000Z</time>
      </trkpt>
      <trkpt lat="42.326783" lon="-8.824882">
        <ele>17.6</ele>
        <time>1970-01-01T00:33:45.000Z</time>
      </trkpt>
      <trkpt lat="42.326795" lon="-8.824877">
        <ele>17.6</ele>
        <time>1970-01-01T00:33:46.000Z</time>
      </trkpt>
      <trkpt lat="42.326808" lon="-8.824874">
        <ele>17.6</ele>
        <time>1970-01-01T00:33:47.000Z</time>
      </trkpt>
      <trkpt lat="42.326818" lon="-8.824866">
        <ele>17.8</ele>
        <time>1970-01-01T00:33:48.000Z</time>
      </trkpt>
      <trkpt lat="42.326829" lon="-8.824863">
        <ele>18</ele>
        <time>1970-01-01T00:33:49.000Z</time>
      </trkpt>
      <trkpt lat="42.326841" lon="-8.824864">
        <ele>18</ele>
        <time>1970-01-01T00:33:50.000Z</time>
      </trkpt>
      <trkpt lat="42.326849" lon="-8.824865">
        <ele>18.2</ele>
        <time>1970-01-01T00:33:51.000Z</time>
      </trkpt>
      <trkpt lat="42.326861" lon="-8.824862">
        <ele>18.4</ele>
        <time>1970-01-01T00:33:52.000Z</time>
      </trkpt>
      <trkpt lat="42.32687" lon="-8.824862">
        <ele>18.6</ele>
        <time>1970-01-01T00:33:53.000Z</time>
      </trkpt>
      <trkpt lat="42.326875" lon="-8.824862">
        <ele>18.6</ele>
        <time>1970-01-01T00:33:54.000Z</time>
      </trkpt>
      <trkpt lat="42.326883" lon="-8.824867">
        <ele>18.6</ele>
        <time>1970-01-01T00:33:55.000Z</time>
      </trkpt>
      <trkpt lat="42.326892" lon="-8.824861">
        <ele>18.8</ele>
        <time>1970-01-01T00:33:56.000Z</time>
      </trkpt>
      <trkpt lat="42.3269" lon="-8.824854">
        <ele>19</ele>
        <time>1970-01-01T00:33:57.000Z</time>
      </trkpt>
      <trkpt lat="42.326907" lon="-8.824846">
        <ele>19</ele>
        <time>1970-01-01T00:33:58.000Z</time>
      </trkpt>
      <trkpt lat="42.326913" lon="-8.824848">
        <ele>19.2</ele>
        <time>1970-01-01T00:33:59.000Z</time>
      </trkpt>
      <trkpt lat="42.326919" lon="-8.82485">
        <ele>19.2</ele>
        <time>1970-01-01T00:34:00.000Z</time>
      </trkpt>
      <trkpt lat="42.326923" lon="-8.824857">
        <ele>19.4</ele>
        <time>1970-01-01T00:34:01.000Z</time>
      </trkpt>
      <trkpt lat="42.326925" lon="-8.824867">
        <ele>19.6</ele>
        <time>1970-01-01T00:34:02.000Z</time>
      </trkpt>
      <trkpt lat="42.326931" lon="-8.824878">
        <ele>19.6</ele>
        <time>1970-01-01T00:34:03.000Z</time>
      </trkpt>
      <trkpt lat="42.326934" lon="-8.82489">
        <ele>19.6</ele>
        <time>1970-01-01T00:34:04.000Z</time>
      </trkpt>
      <trkpt lat="42.326932" lon="-8.824904">
        <ele>19.4</ele>
        <time>1970-01-01T00:34:05.000Z</time>
      </trkpt>
      <trkpt lat="42.326935" lon="-8.824911">
        <ele>19.4</ele>
        <time>1970-01-01T00:34:06.000Z</time>
      </trkpt>
      <trkpt lat="42.326939" lon="-8.82492">
        <ele>19.4</ele>
        <time>1970-01-01T00:34:07.000Z</time>
      </trkpt>
      <trkpt lat="42.326943" lon="-8.824929">
        <ele>19.4</ele>
        <time>1970-01-01T00:34:08.000Z</time>
      </trkpt>
      <trkpt lat="42.32695" lon="-8.824939">
        <ele>19.4</ele>
        <time>1970-01-01T00:34:09.000Z</time>
      </trkpt>
      <trkpt lat="42.326955" lon="-8.824945">
        <ele>19.2</ele>
        <time>1970-01-01T00:34:10.000Z</time>
      </trkpt>
      <trkpt lat="42.326957" lon="-8.824953">
        <ele>19.4</ele>
        <time>1970-01-01T00:34:11.000Z</time>
      </trkpt>
      <trkpt lat="42.326957" lon="-8.824961">
        <ele>19.4</ele>
        <time>1970-01-01T00:34:12.000Z</time>
      </trkpt>
      <trkpt lat="42.326959" lon="-8.824973">
        <ele>19.4</ele>
        <time>1970-01-01T00:34:13.000Z</time>
      </trkpt>
      <trkpt lat="42.326959" lon="-8.824985">
        <ele>19.6</ele>
        <time>1970-01-01T00:34:14.000Z</time>
      </trkpt>
      <trkpt lat="42.326958" lon="-8.824995">
        <ele>19.6</ele>
        <time>1970-01-01T00:34:15.000Z</time>
      </trkpt>
      <trkpt lat="42.326959" lon="-8.825002">
        <ele>20</ele>
        <time>1970-01-01T00:34:16.000Z</time>
      </trkpt>
      <trkpt lat="42.326962" lon="-8.825016">
        <ele>20.2</ele>
        <time>1970-01-01T00:34:17.000Z</time>
      </trkpt>
      <trkpt lat="42.326966" lon="-8.825033">
        <ele>20.4</ele>
        <time>1970-01-01T00:34:18.000Z</time>
      </trkpt>
      <trkpt lat="42.326972" lon="-8.825051">
        <ele>20.4</ele>
        <time>1970-01-01T00:34:19.000Z</time>
      </trkpt>
      <trkpt lat="42.326976" lon="-8.825068">
        <ele>20.6</ele>
        <time>1970-01-01T00:34:20.000Z</time>
      </trkpt>
      <trkpt lat="42.32698" lon="-8.825084">
        <ele>20.6</ele>
        <time>1970-01-01T00:34:21.000Z</time>
      </trkpt>
      <trkpt lat="42.326981" lon="-8.825096">
        <ele>20.6</ele>
        <time>1970-01-01T00:34:22.000Z</time>
      </trkpt>
      <trkpt lat="42.32698" lon="-8.82511">
        <ele>20.6</ele>
        <time>1970-01-01T00:34:23.000Z</time>
      </trkpt>
      <trkpt lat="42.326981" lon="-8.825133">
        <ele>20.6</ele>
        <time>1970-01-01T00:34:24.000Z</time>
      </trkpt>
      <trkpt lat="42.326983" lon="-8.825156">
        <ele>20.6</ele>
        <time>1970-01-01T00:34:25.000Z</time>
      </trkpt>
      <trkpt lat="42.326984" lon="-8.825178">
        <ele>20.6</ele>
        <time>1970-01-01T00:34:26.000Z</time>
      </trkpt>
      <trkpt lat="42.326982" lon="-8.825203">
        <ele>20.8</ele>
        <time>1970-01-01T00:34:27.000Z</time>
      </trkpt>
      <trkpt lat="42.326979" lon="-8.825225">
        <ele>20.8</ele>
        <time>1970-01-01T00:34:28.000Z</time>
      </trkpt>
      <trkpt lat="42.326968" lon="-8.825247">
        <ele>20.6</ele>
        <time>1970-01-01T00:34:29.000Z</time>
      </trkpt>
      <trkpt lat="42.326958" lon="-8.825265">
        <ele>20.6</ele>
        <time>1970-01-01T00:34:30.000Z</time>
      </trkpt>
      <trkpt lat="42.326949" lon="-8.825281">
        <ele>20.6</ele>
        <time>1970-01-01T00:34:31.000Z</time>
      </trkpt>
      <trkpt lat="42.326942" lon="-8.825298">
        <ele>20.4</ele>
        <time>1970-01-01T00:34:32.000Z</time>
      </trkpt>
      <trkpt lat="42.326938" lon="-8.825313">
        <ele>20.4</ele>
        <time>1970-01-01T00:34:33.000Z</time>
      </trkpt>
      <trkpt lat="42.326937" lon="-8.825328">
        <ele>20.4</ele>
        <time>1970-01-01T00:34:34.000Z</time>
      </trkpt>
      <trkpt lat="42.326938" lon="-8.825345">
        <ele>20.2</ele>
        <time>1970-01-01T00:34:35.000Z</time>
      </trkpt>
      <trkpt lat="42.326942" lon="-8.825365">
        <ele>20.2</ele>
        <time>1970-01-01T00:34:36.000Z</time>
      </trkpt>
      <trkpt lat="42.326943" lon="-8.825384">
        <ele>20</ele>
        <time>1970-01-01T00:34:37.000Z</time>
      </trkpt>
      <trkpt lat="42.326942" lon="-8.825405">
        <ele>20</ele>
        <time>1970-01-01T00:34:38.000Z</time>
      </trkpt>
      <trkpt lat="42.326942" lon="-8.825428">
        <ele>20</ele>
        <time>1970-01-01T00:34:39.000Z</time>
      </trkpt>
      <trkpt lat="42.326946" lon="-8.825454">
        <ele>19.8</ele>
        <time>1970-01-01T00:34:40.000Z</time>
      </trkpt>
      <trkpt lat="42.326951" lon="-8.825478">
        <ele>19.6</ele>
        <time>1970-01-01T00:34:41.000Z</time>
      </trkpt>
      <trkpt lat="42.326958" lon="-8.825497">
        <ele>19.6</ele>
        <time>1970-01-01T00:34:42.000Z</time>
      </trkpt>
      <trkpt lat="42.326967" lon="-8.825516">
        <ele>19.6</ele>
        <time>1970-01-01T00:34:43.000Z</time>
      </trkpt>
      <trkpt lat="42.326976" lon="-8.825535">
        <ele>19.6</ele>
        <time>1970-01-01T00:34:44.000Z</time>
      </trkpt>
      <trkpt lat="42.326986" lon="-8.825547">
        <ele>19.6</ele>
        <time>1970-01-01T00:34:45.000Z</time>
      </trkpt>
      <trkpt lat="42.326995" lon="-8.825559">
        <ele>19.4</ele>
        <time>1970-01-01T00:34:46.000Z</time>
      </trkpt>
      <trkpt lat="42.327004" lon="-8.825573">
        <ele>19.4</ele>
        <time>1970-01-01T00:34:47.000Z</time>
      </trkpt>
      <trkpt lat="42.327012" lon="-8.825585">
        <ele>19.2</ele>
        <time>1970-01-01T00:34:48.000Z</time>
      </trkpt>
      <trkpt lat="42.327021" lon="-8.825597">
        <ele>19.2</ele>
        <time>1970-01-01T00:34:49.000Z</time>
      </trkpt>
      <trkpt lat="42.32703" lon="-8.825616">
        <ele>19</ele>
        <time>1970-01-01T00:34:50.000Z</time>
      </trkpt>
      <trkpt lat="42.327038" lon="-8.825635">
        <ele>19</ele>
        <time>1970-01-01T00:34:51.000Z</time>
      </trkpt>
      <trkpt lat="42.327047" lon="-8.825649">
        <ele>19</ele>
        <time>1970-01-01T00:34:52.000Z</time>
      </trkpt>
      <trkpt lat="42.327058" lon="-8.825662">
        <ele>19</ele>
        <time>1970-01-01T00:34:53.000Z</time>
      </trkpt>
      <trkpt lat="42.327069" lon="-8.82567">
        <ele>19</ele>
        <time>1970-01-01T00:34:54.000Z</time>
      </trkpt>
      <trkpt lat="42.327078" lon="-8.825675">
        <ele>19.2</ele>
        <time>1970-01-01T00:34:55.000Z</time>
      </trkpt>
      <trkpt lat="42.327088" lon="-8.825684">
        <ele>19.6</ele>
        <time>1970-01-01T00:34:56.000Z</time>
      </trkpt>
      <trkpt lat="42.327098" lon="-8.825695">
        <ele>19.6</ele>
        <time>1970-01-01T00:34:57.000Z</time>
      </trkpt>
      <trkpt lat="42.327109" lon="-8.825706">
        <ele>19.8</ele>
        <time>1970-01-01T00:34:58.000Z</time>
      </trkpt>
      <trkpt lat="42.32712" lon="-8.825717">
        <ele>19.8</ele>
        <time>1970-01-01T00:34:59.000Z</time>
      </trkpt>
      <trkpt lat="42.32713" lon="-8.825729">
        <ele>19.8</ele>
        <time>1970-01-01T00:35:00.000Z</time>
      </trkpt>
      <trkpt lat="42.327139" lon="-8.825739">
        <ele>19.8</ele>
        <time>1970-01-01T00:35:01.000Z</time>
      </trkpt>
      <trkpt lat="42.327149" lon="-8.825746">
        <ele>19.6</ele>
        <time>1970-01-01T00:35:02.000Z</time>
      </trkpt>
      <trkpt lat="42.327158" lon="-8.825749">
        <ele>19.6</ele>
        <time>1970-01-01T00:35:03.000Z</time>
      </trkpt>
      <trkpt lat="42.327169" lon="-8.825753">
        <ele>19.6</ele>
        <time>1970-01-01T00:35:04.000Z</time>
      </trkpt>
      <trkpt lat="42.327181" lon="-8.825757">
        <ele>19.8</ele>
        <time>1970-01-01T00:35:05.000Z</time>
      </trkpt>
      <trkpt lat="42.327196" lon="-8.825759">
        <ele>20</ele>
        <time>1970-01-01T00:35:06.000Z</time>
      </trkpt>
      <trkpt lat="42.327211" lon="-8.825761">
        <ele>20.2</ele>
        <time>1970-01-01T00:35:07.000Z</time>
      </trkpt>
      <trkpt lat="42.327228" lon="-8.825764">
        <ele>20.2</ele>
        <time>1970-01-01T00:35:08.000Z</time>
      </trkpt>
      <trkpt lat="42.327241" lon="-8.825759">
        <ele>20.4</ele>
        <time>1970-01-01T00:35:09.000Z</time>
      </trkpt>
      <trkpt lat="42.327254" lon="-8.825756">
        <ele>20.2</ele>
        <time>1970-01-01T00:35:10.000Z</time>
      </trkpt>
      <trkpt lat="42.327267" lon="-8.825753">
        <ele>20.4</ele>
        <time>1970-01-01T00:35:11.000Z</time>
      </trkpt>
      <trkpt lat="42.327281" lon="-8.825755">
        <ele>20.4</ele>
        <time>1970-01-01T00:35:12.000Z</time>
      </trkpt>
      <trkpt lat="42.327294" lon="-8.825755">
        <ele>20.4</ele>
        <time>1970-01-01T00:35:13.000Z</time>
      </trkpt>
      <trkpt lat="42.327309" lon="-8.82576">
        <ele>20.4</ele>
        <time>1970-01-01T00:35:14.000Z</time>
      </trkpt>
      <trkpt lat="42.327324" lon="-8.825765">
        <ele>20.4</ele>
        <time>1970-01-01T00:35:15.000Z</time>
      </trkpt>
      <trkpt lat="42.327339" lon="-8.825768">
        <ele>20.6</ele>
        <time>1970-01-01T00:35:16.000Z</time>
      </trkpt>
      <trkpt lat="42.327355" lon="-8.82577">
        <ele>20.6</ele>
        <time>1970-01-01T00:35:17.000Z</time>
      </trkpt>
      <trkpt lat="42.327371" lon="-8.825774">
        <ele>20.6</ele>
        <time>1970-01-01T00:35:18.000Z</time>
      </trkpt>
      <trkpt lat="42.327382" lon="-8.82578">
        <ele>20.6</ele>
        <time>1970-01-01T00:35:19.000Z</time>
      </trkpt>
      <trkpt lat="42.327393" lon="-8.82578">
        <ele>20.2</ele>
        <time>1970-01-01T00:35:20.000Z</time>
      </trkpt>
      <trkpt lat="42.327406" lon="-8.825783">
        <ele>20</ele>
        <time>1970-01-01T00:35:21.000Z</time>
      </trkpt>
      <trkpt lat="42.32742" lon="-8.825787">
        <ele>19.8</ele>
        <time>1970-01-01T00:35:22.000Z</time>
      </trkpt>
      <trkpt lat="42.327433" lon="-8.825786">
        <ele>19.6</ele>
        <time>1970-01-01T00:35:23.000Z</time>
      </trkpt>
      <trkpt lat="42.327446" lon="-8.825786">
        <ele>19.6</ele>
        <time>1970-01-01T00:35:24.000Z</time>
      </trkpt>
      <trkpt lat="42.327459" lon="-8.825785">
        <ele>19.6</ele>
        <time>1970-01-01T00:35:25.000Z</time>
      </trkpt>
      <trkpt lat="42.327473" lon="-8.825785">
        <ele>19.6</ele>
        <time>1970-01-01T00:35:26.000Z</time>
      </trkpt>
      <trkpt lat="42.327488" lon="-8.825788">
        <ele>19.6</ele>
        <time>1970-01-01T00:35:27.000Z</time>
      </trkpt>
      <trkpt lat="42.327502" lon="-8.825788">
        <ele>19.6</ele>
        <time>1970-01-01T00:35:28.000Z</time>
      </trkpt>
      <trkpt lat="42.327516" lon="-8.825791">
        <ele>19.4</ele>
        <time>1970-01-01T00:35:29.000Z</time>
      </trkpt>
      <trkpt lat="42.327529" lon="-8.825794">
        <ele>19.4</ele>
        <time>1970-01-01T00:35:30.000Z</time>
      </trkpt>
      <trkpt lat="42.32754" lon="-8.825797">
        <ele>19.2</ele>
        <time>1970-01-01T00:35:31.000Z</time>
      </trkpt>
      <trkpt lat="42.327551" lon="-8.825802">
        <ele>19</ele>
        <time>1970-01-01T00:35:32.000Z</time>
      </trkpt>
      <trkpt lat="42.327562" lon="-8.82581">
        <ele>19</ele>
        <time>1970-01-01T00:35:33.000Z</time>
      </trkpt>
      <trkpt lat="42.327571" lon="-8.825817">
        <ele>19.2</ele>
        <time>1970-01-01T00:35:34.000Z</time>
      </trkpt>
      <trkpt lat="42.327584" lon="-8.825823">
        <ele>19.4</ele>
        <time>1970-01-01T00:35:35.000Z</time>
      </trkpt>
      <trkpt lat="42.327598" lon="-8.825834">
        <ele>19.6</ele>
        <time>1970-01-01T00:35:36.000Z</time>
      </trkpt>
      <trkpt lat="42.327611" lon="-8.825841">
        <ele>19.6</ele>
        <time>1970-01-01T00:35:37.000Z</time>
      </trkpt>
      <trkpt lat="42.327624" lon="-8.825851">
        <ele>19.8</ele>
        <time>1970-01-01T00:35:38.000Z</time>
      </trkpt>
      <trkpt lat="42.327638" lon="-8.825861">
        <ele>20</ele>
        <time>1970-01-01T00:35:39.000Z</time>
      </trkpt>
      <trkpt lat="42.32765" lon="-8.82587">
        <ele>20</ele>
        <time>1970-01-01T00:35:40.000Z</time>
      </trkpt>
      <trkpt lat="42.327662" lon="-8.825874">
        <ele>20</ele>
        <time>1970-01-01T00:35:41.000Z</time>
      </trkpt>
      <trkpt lat="42.327674" lon="-8.825878">
        <ele>20</ele>
        <time>1970-01-01T00:35:42.000Z</time>
      </trkpt>
      <trkpt lat="42.327687" lon="-8.825879">
        <ele>20.2</ele>
        <time>1970-01-01T00:35:43.000Z</time>
      </trkpt>
      <trkpt lat="42.327701" lon="-8.825878">
        <ele>20.2</ele>
        <time>1970-01-01T00:35:44.000Z</time>
      </trkpt>
      <trkpt lat="42.327715" lon="-8.825874">
        <ele>20.4</ele>
        <time>1970-01-01T00:35:45.000Z</time>
      </trkpt>
      <trkpt lat="42.327728" lon="-8.825869">
        <ele>20.4</ele>
        <time>1970-01-01T00:35:46.000Z</time>
      </trkpt>
      <trkpt lat="42.327741" lon="-8.825867">
        <ele>20.4</ele>
        <time>1970-01-01T00:35:47.000Z</time>
      </trkpt>
      <trkpt lat="42.327755" lon="-8.825868">
        <ele>20.6</ele>
        <time>1970-01-01T00:35:48.000Z</time>
      </trkpt>
      <trkpt lat="42.327769" lon="-8.825871">
        <ele>20.6</ele>
        <time>1970-01-01T00:35:49.000Z</time>
      </trkpt>
      <trkpt lat="42.327781" lon="-8.825869">
        <ele>20.6</ele>
        <time>1970-01-01T00:35:50.000Z</time>
      </trkpt>
      <trkpt lat="42.327793" lon="-8.825868">
        <ele>20.6</ele>
        <time>1970-01-01T00:35:51.000Z</time>
      </trkpt>
      <trkpt lat="42.327804" lon="-8.82587">
        <ele>20.6</ele>
        <time>1970-01-01T00:35:52.000Z</time>
      </trkpt>
      <trkpt lat="42.327816" lon="-8.82587">
        <ele>20.6</ele>
        <time>1970-01-01T00:35:53.000Z</time>
      </trkpt>
      <trkpt lat="42.327827" lon="-8.825871">
        <ele>20.6</ele>
        <time>1970-01-01T00:35:54.000Z</time>
      </trkpt>
      <trkpt lat="42.327837" lon="-8.82587">
        <ele>20.4</ele>
        <time>1970-01-01T00:35:55.000Z</time>
      </trkpt>
      <trkpt lat="42.327847" lon="-8.825873">
        <ele>20.4</ele>
        <time>1970-01-01T00:35:56.000Z</time>
      </trkpt>
      <trkpt lat="42.327859" lon="-8.825881">
        <ele>20.4</ele>
        <time>1970-01-01T00:35:57.000Z</time>
      </trkpt>
      <trkpt lat="42.327871" lon="-8.825889">
        <ele>20.4</ele>
        <time>1970-01-01T00:35:58.000Z</time>
      </trkpt>
      <trkpt lat="42.327882" lon="-8.825899">
        <ele>20.2</ele>
        <time>1970-01-01T00:35:59.000Z</time>
      </trkpt>
      <trkpt lat="42.327892" lon="-8.825911">
        <ele>20.4</ele>
        <time>1970-01-01T00:36:00.000Z</time>
      </trkpt>
      <trkpt lat="42.327902" lon="-8.825922">
        <ele>20.4</ele>
        <time>1970-01-01T00:36:01.000Z</time>
      </trkpt>
      <trkpt lat="42.32791" lon="-8.825934">
        <ele>20.6</ele>
        <time>1970-01-01T00:36:02.000Z</time>
      </trkpt>
      <trkpt lat="42.327918" lon="-8.825946">
        <ele>20.6</ele>
        <time>1970-01-01T00:36:03.000Z</time>
      </trkpt>
      <trkpt lat="42.327925" lon="-8.825955">
        <ele>20.4</ele>
        <time>1970-01-01T00:36:04.000Z</time>
      </trkpt>
      <trkpt lat="42.32793" lon="-8.825963">
        <ele>20.2</ele>
        <time>1970-01-01T00:36:05.000Z</time>
      </trkpt>
      <trkpt lat="42.327937" lon="-8.825974">
        <ele>20.2</ele>
        <time>1970-01-01T00:36:06.000Z</time>
      </trkpt>
      <trkpt lat="42.327949" lon="-8.825985">
        <ele>20.2</ele>
        <time>1970-01-01T00:36:07.000Z</time>
      </trkpt>
      <trkpt lat="42.327964" lon="-8.825997">
        <ele>20</ele>
        <time>1970-01-01T00:36:08.000Z</time>
      </trkpt>
      <trkpt lat="42.327977" lon="-8.826004">
        <ele>19.8</ele>
        <time>1970-01-01T00:36:09.000Z</time>
      </trkpt>
      <trkpt lat="42.327989" lon="-8.826012">
        <ele>19.8</ele>
        <time>1970-01-01T00:36:10.000Z</time>
      </trkpt>
      <trkpt lat="42.328" lon="-8.826018">
        <ele>19.4</ele>
        <time>1970-01-01T00:36:11.000Z</time>
      </trkpt>
      <trkpt lat="42.32801" lon="-8.826026">
        <ele>19.2</ele>
        <time>1970-01-01T00:36:12.000Z</time>
      </trkpt>
      <trkpt lat="42.328017" lon="-8.826035">
        <ele>19.2</ele>
        <time>1970-01-01T00:36:13.000Z</time>
      </trkpt>
      <trkpt lat="42.328024" lon="-8.826044">
        <ele>19</ele>
        <time>1970-01-01T00:36:14.000Z</time>
      </trkpt>
      <trkpt lat="42.328028" lon="-8.826056">
        <ele>19</ele>
        <time>1970-01-01T00:36:15.000Z</time>
      </trkpt>
      <trkpt lat="42.328029" lon="-8.826071">
        <ele>18.6</ele>
        <time>1970-01-01T00:36:16.000Z</time>
      </trkpt>
      <trkpt lat="42.328027" lon="-8.826091">
        <ele>18.6</ele>
        <time>1970-01-01T00:36:17.000Z</time>
      </trkpt>
      <trkpt lat="42.328024" lon="-8.826112">
        <ele>18.4</ele>
        <time>1970-01-01T00:36:18.000Z</time>
      </trkpt>
      <trkpt lat="42.328023" lon="-8.826135">
        <ele>18.2</ele>
        <time>1970-01-01T00:36:19.000Z</time>
      </trkpt>
      <trkpt lat="42.328022" lon="-8.826156">
        <ele>17.8</ele>
        <time>1970-01-01T00:36:20.000Z</time>
      </trkpt>
      <trkpt lat="42.328021" lon="-8.826175">
        <ele>17.6</ele>
        <time>1970-01-01T00:36:21.000Z</time>
      </trkpt>
      <trkpt lat="42.32802" lon="-8.826195">
        <ele>17.4</ele>
        <time>1970-01-01T00:36:22.000Z</time>
      </trkpt>
      <trkpt lat="42.328019" lon="-8.826211">
        <ele>17.2</ele>
        <time>1970-01-01T00:36:23.000Z</time>
      </trkpt>
      <trkpt lat="42.328018" lon="-8.826226">
        <ele>17</ele>
        <time>1970-01-01T00:36:24.000Z</time>
      </trkpt>
      <trkpt lat="42.328017" lon="-8.826243">
        <ele>16.8</ele>
        <time>1970-01-01T00:36:25.000Z</time>
      </trkpt>
      <trkpt lat="42.328017" lon="-8.826259">
        <ele>16.8</ele>
        <time>1970-01-01T00:36:26.000Z</time>
      </trkpt>
      <trkpt lat="42.328016" lon="-8.826273">
        <ele>16.6</ele>
        <time>1970-01-01T00:36:27.000Z</time>
      </trkpt>
      <trkpt lat="42.328014" lon="-8.82629">
        <ele>16.2</ele>
        <time>1970-01-01T00:36:28.000Z</time>
      </trkpt>
      <trkpt lat="42.328011" lon="-8.82631">
        <ele>15.8</ele>
        <time>1970-01-01T00:36:29.000Z</time>
      </trkpt>
      <trkpt lat="42.328008" lon="-8.826326">
        <ele>15.2</ele>
        <time>1970-01-01T00:36:30.000Z</time>
      </trkpt>
      <trkpt lat="42.328005" lon="-8.826341">
        <ele>14.8</ele>
        <time>1970-01-01T00:36:31.000Z</time>
      </trkpt>
      <trkpt lat="42.328004" lon="-8.826354">
        <ele>14.4</ele>
        <time>1970-01-01T00:36:32.000Z</time>
      </trkpt>
      <trkpt lat="42.328005" lon="-8.826365">
        <ele>14</ele>
        <time>1970-01-01T00:36:33.000Z</time>
      </trkpt>
      <trkpt lat="42.328008" lon="-8.82638">
        <ele>13.8</ele>
        <time>1970-01-01T00:36:34.000Z</time>
      </trkpt>
      <trkpt lat="42.328011" lon="-8.826393">
        <ele>13.6</ele>
        <time>1970-01-01T00:36:35.000Z</time>
      </trkpt>
      <trkpt lat="42.328015" lon="-8.826409">
        <ele>13.4</ele>
        <time>1970-01-01T00:36:36.000Z</time>
      </trkpt>
      <trkpt lat="42.328016" lon="-8.826423">
        <ele>13</ele>
        <time>1970-01-01T00:36:37.000Z</time>
      </trkpt>
      <trkpt lat="42.328015" lon="-8.826435">
        <ele>12.6</ele>
        <time>1970-01-01T00:36:38.000Z</time>
      </trkpt>
      <trkpt lat="42.328016" lon="-8.826451">
        <ele>12.6</ele>
        <time>1970-01-01T00:36:39.000Z</time>
      </trkpt>
      <trkpt lat="42.328017" lon="-8.826467">
        <ele>12</ele>
        <time>1970-01-01T00:36:40.000Z</time>
      </trkpt>
      <trkpt lat="42.328018" lon="-8.826484">
        <ele>11.8</ele>
        <time>1970-01-01T00:36:41.000Z</time>
      </trkpt>
      <trkpt lat="42.32802" lon="-8.826498">
        <ele>11.6</ele>
        <time>1970-01-01T00:36:42.000Z</time>
      </trkpt>
      <trkpt lat="42.328023" lon="-8.826511">
        <ele>10.8</ele>
        <time>1970-01-01T00:36:43.000Z</time>
      </trkpt>
      <trkpt lat="42.328026" lon="-8.826525">
        <ele>10.4</ele>
        <time>1970-01-01T00:36:44.000Z</time>
      </trkpt>
      <trkpt lat="42.328028" lon="-8.826539">
        <ele>10</ele>
        <time>1970-01-01T00:36:45.000Z</time>
      </trkpt>
      <trkpt lat="42.32803" lon="-8.826553">
        <ele>9.8</ele>
        <time>1970-01-01T00:36:46.000Z</time>
      </trkpt>
      <trkpt lat="42.328031" lon="-8.826568">
        <ele>9.4</ele>
        <time>1970-01-01T00:36:47.000Z</time>
      </trkpt>
      <trkpt lat="42.328031" lon="-8.826582">
        <ele>9</ele>
        <time>1970-01-01T00:36:48.000Z</time>
      </trkpt>
      <trkpt lat="42.328033" lon="-8.826595">
        <ele>8.6</ele>
        <time>1970-01-01T00:36:49.000Z</time>
      </trkpt>
      <trkpt lat="42.328035" lon="-8.826608">
        <ele>8.2</ele>
        <time>1970-01-01T00:36:50.000Z</time>
      </trkpt>
      <trkpt lat="42.328037" lon="-8.826619">
        <ele>7.6</ele>
        <time>1970-01-01T00:36:51.000Z</time>
      </trkpt>
      <trkpt lat="42.328038" lon="-8.82663">
        <ele>7.4</ele>
        <time>1970-01-01T00:36:52.000Z</time>
      </trkpt>
      <trkpt lat="42.328038" lon="-8.826641">
        <ele>7</ele>
        <time>1970-01-01T00:36:53.000Z</time>
      </trkpt>
      <trkpt lat="42.328041" lon="-8.826654">
        <ele>6.6</ele>
        <time>1970-01-01T00:36:54.000Z</time>
      </trkpt>
      <trkpt lat="42.328043" lon="-8.826665">
        <ele>6</ele>
        <time>1970-01-01T00:36:55.000Z</time>
      </trkpt>
      <trkpt lat="42.328045" lon="-8.826677">
        <ele>5.8</ele>
        <time>1970-01-01T00:36:56.000Z</time>
      </trkpt>
      <trkpt lat="42.328049" lon="-8.826689">
        <ele>5</ele>
        <time>1970-01-01T00:36:57.000Z</time>
      </trkpt>
      <trkpt lat="42.328052" lon="-8.826701">
        <ele>4.6</ele>
        <time>1970-01-01T00:36:58.000Z</time>
      </trkpt>
      <trkpt lat="42.328056" lon="-8.826718">
        <ele>4.4</ele>
        <time>1970-01-01T00:36:59.000Z</time>
      </trkpt>
      <trkpt lat="42.328061" lon="-8.826739">
        <ele>4</ele>
        <time>1970-01-01T00:37:00.000Z</time>
      </trkpt>
      <trkpt lat="42.328066" lon="-8.826762">
        <ele>4</ele>
        <time>1970-01-01T00:37:01.000Z</time>
      </trkpt>
      <trkpt lat="42.328072" lon="-8.826782">
        <ele>3.8</ele>
        <time>1970-01-01T00:37:02.000Z</time>
      </trkpt>
      <trkpt lat="42.328078" lon="-8.8268">
        <ele>3</ele>
        <time>1970-01-01T00:37:03.000Z</time>
      </trkpt>
      <trkpt lat="42.328082" lon="-8.826816">
        <ele>2.6</ele>
        <time>1970-01-01T00:37:04.000Z</time>
      </trkpt>
      <trkpt lat="42.328087" lon="-8.826831">
        <ele>2.4</ele>
        <time>1970-01-01T00:37:05.000Z</time>
      </trkpt>
      <trkpt lat="42.328094" lon="-8.826846">
        <ele>2.2</ele>
        <time>1970-01-01T00:37:06.000Z</time>
      </trkpt>
      <trkpt lat="42.328101" lon="-8.82686">
        <ele>2.2</ele>
        <time>1970-01-01T00:37:07.000Z</time>
      </trkpt>
      <trkpt lat="42.328109" lon="-8.826877">
        <ele>2</ele>
        <time>1970-01-01T00:37:08.000Z</time>
      </trkpt>
      <trkpt lat="42.328115" lon="-8.826891">
        <ele>1.8</ele>
        <time>1970-01-01T00:37:09.000Z</time>
      </trkpt>
      <trkpt lat="42.328121" lon="-8.826906">
        <ele>1.6</ele>
        <time>1970-01-01T00:37:10.000Z</time>
      </trkpt>
      <trkpt lat="42.328127" lon="-8.826923">
        <ele>1.4</ele>
        <time>1970-01-01T00:37:11.000Z</time>
      </trkpt>
      <trkpt lat="42.328132" lon="-8.82694">
        <ele>1.2</ele>
        <time>1970-01-01T00:37:12.000Z</time>
      </trkpt>
      <trkpt lat="42.328135" lon="-8.826957">
        <ele>1.2</ele>
        <time>1970-01-01T00:37:13.000Z</time>
      </trkpt>
      <trkpt lat="42.328138" lon="-8.826975">
        <ele>1</ele>
        <time>1970-01-01T00:37:14.000Z</time>
      </trkpt>
      <trkpt lat="42.32814" lon="-8.82699">
        <ele>0.8</ele>
        <time>1970-01-01T00:37:15.000Z</time>
      </trkpt>
      <trkpt lat="42.328142" lon="-8.827009">
        <ele>0.4</ele>
        <time>1970-01-01T00:37:16.000Z</time>
      </trkpt>
      <trkpt lat="42.328146" lon="-8.827028">
        <ele>0</ele>
        <time>1970-01-01T00:37:17.000Z</time>
      </trkpt>
      <trkpt lat="42.328147" lon="-8.827048">
        <ele>-0.2</ele>
        <time>1970-01-01T00:37:18.000Z</time>
      </trkpt>
      <trkpt lat="42.328149" lon="-8.827069">
        <ele>-0.4</ele>
        <time>1970-01-01T00:37:19.000Z</time>
      </trkpt>
      <trkpt lat="42.328151" lon="-8.827084">
        <ele>-0.4</ele>
        <time>1970-01-01T00:37:20.000Z</time>
      </trkpt>
      <trkpt lat="42.328153" lon="-8.827102">
        <ele>-0.6</ele>
        <time>1970-01-01T00:37:21.000Z</time>
      </trkpt>
      <trkpt lat="42.328155" lon="-8.827116">
        <ele>-0.8</ele>
        <time>1970-01-01T00:37:22.000Z</time>
      </trkpt>
      <trkpt lat="42.328157" lon="-8.827129">
        <ele>-0.6</ele>
        <time>1970-01-01T00:37:23.000Z</time>
      </trkpt>
      <trkpt lat="42.328159" lon="-8.827143">
        <ele>-0.8</ele>
        <time>1970-01-01T00:37:24.000Z</time>
      </trkpt>
      <trkpt lat="42.328162" lon="-8.827157">
        <ele>-0.8</ele>
        <time>1970-01-01T00:37:25.000Z</time>
      </trkpt>
      <trkpt lat="42.328166" lon="-8.827174">
        <ele>-1</ele>
        <time>1970-01-01T00:37:26.000Z</time>
      </trkpt>
      <trkpt lat="42.328173" lon="-8.827193">
        <ele>-1.2</ele>
        <time>1970-01-01T00:37:27.000Z</time>
      </trkpt>
      <trkpt lat="42.328183" lon="-8.827212">
        <ele>-1.2</ele>
        <time>1970-01-01T00:37:28.000Z</time>
      </trkpt>
      <trkpt lat="42.328191" lon="-8.827231">
        <ele>-1.2</ele>
        <time>1970-01-01T00:37:29.000Z</time>
      </trkpt>
      <trkpt lat="42.3282" lon="-8.827252">
        <ele>-1.4</ele>
        <time>1970-01-01T00:37:30.000Z</time>
      </trkpt>
      <trkpt lat="42.328207" lon="-8.827271">
        <ele>-1.6</ele>
        <time>1970-01-01T00:37:31.000Z</time>
      </trkpt>
      <trkpt lat="42.328213" lon="-8.827288">
        <ele>-1.8</ele>
        <time>1970-01-01T00:37:32.000Z</time>
      </trkpt>
      <trkpt lat="42.328218" lon="-8.827302">
        <ele>-1.6</ele>
        <time>1970-01-01T00:37:33.000Z</time>
      </trkpt>
      <trkpt lat="42.328224" lon="-8.827316">
        <ele>-1.4</ele>
        <time>1970-01-01T00:37:34.000Z</time>
      </trkpt>
      <trkpt lat="42.328231" lon="-8.827332">
        <ele>-1.6</ele>
        <time>1970-01-01T00:37:35.000Z</time>
      </trkpt>
      <trkpt lat="42.328239" lon="-8.827351">
        <ele>-1.8</ele>
        <time>1970-01-01T00:37:36.000Z</time>
      </trkpt>
      <trkpt lat="42.328244" lon="-8.827369">
        <ele>-1.8</ele>
        <time>1970-01-01T00:37:37.000Z</time>
      </trkpt>
      <trkpt lat="42.328251" lon="-8.827383">
        <ele>-2</ele>
        <time>1970-01-01T00:37:38.000Z</time>
      </trkpt>
      <trkpt lat="42.328258" lon="-8.827396">
        <ele>-2</ele>
        <time>1970-01-01T00:37:39.000Z</time>
      </trkpt>
      <trkpt lat="42.328265" lon="-8.827406">
        <ele>-2</ele>
        <time>1970-01-01T00:37:40.000Z</time>
      </trkpt>
      <trkpt lat="42.328271" lon="-8.827409">
        <ele>-2</ele>
        <time>1970-01-01T00:37:41.000Z</time>
      </trkpt>
      <trkpt lat="42.328279" lon="-8.827414">
        <ele>-2</ele>
        <time>1970-01-01T00:37:42.000Z</time>
      </trkpt>
      <trkpt lat="42.328287" lon="-8.827413">
        <ele>-2</ele>
        <time>1970-01-01T00:37:43.000Z</time>
      </trkpt>
      <trkpt lat="42.328295" lon="-8.827408">
        <ele>-2</ele>
        <time>1970-01-01T00:37:44.000Z</time>
      </trkpt>
      <trkpt lat="42.328301" lon="-8.827405">
        <ele>-1.6</ele>
        <time>1970-01-01T00:37:45.000Z</time>
      </trkpt>
      <trkpt lat="42.328313" lon="-8.827407">
        <ele>-1.4</ele>
        <time>1970-01-01T00:37:46.000Z</time>
      </trkpt>
      <trkpt lat="42.328325" lon="-8.827404">
        <ele>-0.8</ele>
        <time>1970-01-01T00:37:47.000Z</time>
      </trkpt>
      <trkpt lat="42.328337" lon="-8.827401">
        <ele>-0.4</ele>
        <time>1970-01-01T00:37:48.000Z</time>
      </trkpt>
      <trkpt lat="42.328347" lon="-8.827403">
        <ele>-0.2</ele>
        <time>1970-01-01T00:37:49.000Z</time>
      </trkpt>
      <trkpt lat="42.328352" lon="-8.827407">
        <ele>-0.2</ele>
        <time>1970-01-01T00:37:50.000Z</time>
      </trkpt>
      <trkpt lat="42.328356" lon="-8.827412">
        <ele>0</ele>
        <time>1970-01-01T00:37:51.000Z</time>
      </trkpt>
      <trkpt lat="42.328361" lon="-8.827419">
        <ele>0.2</ele>
        <time>1970-01-01T00:37:52.000Z</time>
      </trkpt>
      <trkpt lat="42.328366" lon="-8.827425">
        <ele>0.6</ele>
        <time>1970-01-01T00:37:53.000Z</time>
      </trkpt>
      <trkpt lat="42.328371" lon="-8.827433">
        <ele>1</ele>
        <time>1970-01-01T00:37:54.000Z</time>
      </trkpt>
      <trkpt lat="42.328377" lon="-8.827439">
        <ele>1.2</ele>
        <time>1970-01-01T00:37:55.000Z</time>
      </trkpt>
      <trkpt lat="42.32838" lon="-8.827445">
        <ele>1.4</ele>
        <time>1970-01-01T00:37:56.000Z</time>
      </trkpt>
      <trkpt lat="42.328384" lon="-8.827452">
        <ele>1.4</ele>
        <time>1970-01-01T00:37:57.000Z</time>
      </trkpt>
      <trkpt lat="42.328388" lon="-8.82746">
        <ele>2</ele>
        <time>1970-01-01T00:37:58.000Z</time>
      </trkpt>
      <trkpt lat="42.328394" lon="-8.827467">
        <ele>2.2</ele>
        <time>1970-01-01T00:37:59.000Z</time>
      </trkpt>
      <trkpt lat="42.328398" lon="-8.827471">
        <ele>2.4</ele>
        <time>1970-01-01T00:38:00.000Z</time>
      </trkpt>
      <trkpt lat="42.328402" lon="-8.827471">
        <ele>2.6</ele>
        <time>1970-01-01T00:38:01.000Z</time>
      </trkpt>
      <trkpt lat="42.328405" lon="-8.827471">
        <ele>3</ele>
        <time>1970-01-01T00:38:02.000Z</time>
      </trkpt>
      <trkpt lat="42.328404" lon="-8.827476">
        <ele>3.2</ele>
        <time>1970-01-01T00:38:03.000Z</time>
      </trkpt>
      <trkpt lat="42.328403" lon="-8.827485">
        <ele>3.4</ele>
        <time>1970-01-01T00:38:04.000Z</time>
      </trkpt>
      <trkpt lat="42.328402" lon="-8.827504">
        <ele>3.6</ele>
        <time>1970-01-01T00:38:05.000Z</time>
      </trkpt>
      <trkpt lat="42.3284" lon="-8.827525">
        <ele>4</ele>
        <time>1970-01-01T00:38:06.000Z</time>
      </trkpt>
      <trkpt lat="42.328398" lon="-8.827538">
        <ele>4.4</ele>
        <time>1970-01-01T00:38:07.000Z</time>
      </trkpt>
      <trkpt lat="42.328396" lon="-8.827552">
        <ele>4.6</ele>
        <time>1970-01-01T00:38:08.000Z</time>
      </trkpt>
      <trkpt lat="42.328392" lon="-8.827563">
        <ele>5</ele>
        <time>1970-01-01T00:38:09.000Z</time>
      </trkpt>
      <trkpt lat="42.328388" lon="-8.827576">
        <ele>5.2</ele>
        <time>1970-01-01T00:38:10.000Z</time>
      </trkpt>
      <trkpt lat="42.328385" lon="-8.827592">
        <ele>5.2</ele>
        <time>1970-01-01T00:38:11.000Z</time>
      </trkpt>
      <trkpt lat="42.328384" lon="-8.827606">
        <ele>5.4</ele>
        <time>1970-01-01T00:38:12.000Z</time>
      </trkpt>
      <trkpt lat="42.328384" lon="-8.82762">
        <ele>5.6</ele>
        <time>1970-01-01T00:38:13.000Z</time>
      </trkpt>
      <trkpt lat="42.328388" lon="-8.827635">
        <ele>5.6</ele>
        <time>1970-01-01T00:38:14.000Z</time>
      </trkpt>
      <trkpt lat="42.328394" lon="-8.827648">
        <ele>5.8</ele>
        <time>1970-01-01T00:38:15.000Z</time>
      </trkpt>
      <trkpt lat="42.3284" lon="-8.827662">
        <ele>5.8</ele>
        <time>1970-01-01T00:38:16.000Z</time>
      </trkpt>
      <trkpt lat="42.328404" lon="-8.827678">
        <ele>5.8</ele>
        <time>1970-01-01T00:38:17.000Z</time>
      </trkpt>
      <trkpt lat="42.328406" lon="-8.827692">
        <ele>6</ele>
        <time>1970-01-01T00:38:18.000Z</time>
      </trkpt>
      <trkpt lat="42.328409" lon="-8.827706">
        <ele>6.2</ele>
        <time>1970-01-01T00:38:19.000Z</time>
      </trkpt>
      <trkpt lat="42.328413" lon="-8.827721">
        <ele>6.4</ele>
        <time>1970-01-01T00:38:20.000Z</time>
      </trkpt>
      <trkpt lat="42.328418" lon="-8.827732">
        <ele>6.4</ele>
        <time>1970-01-01T00:38:21.000Z</time>
      </trkpt>
      <trkpt lat="42.328423" lon="-8.827742">
        <ele>6.6</ele>
        <time>1970-01-01T00:38:22.000Z</time>
      </trkpt>
      <trkpt lat="42.328431" lon="-8.827756">
        <ele>6.6</ele>
        <time>1970-01-01T00:38:23.000Z</time>
      </trkpt>
      <trkpt lat="42.328439" lon="-8.82777">
        <ele>6.6</ele>
        <time>1970-01-01T00:38:24.000Z</time>
      </trkpt>
      <trkpt lat="42.328445" lon="-8.827784">
        <ele>6.4</ele>
        <time>1970-01-01T00:38:25.000Z</time>
      </trkpt>
      <trkpt lat="42.328448" lon="-8.827795">
        <ele>6.4</ele>
        <time>1970-01-01T00:38:26.000Z</time>
      </trkpt>
      <trkpt lat="42.328451" lon="-8.827799">
        <ele>6.2</ele>
        <time>1970-01-01T00:38:27.000Z</time>
      </trkpt>
      <trkpt lat="42.328454" lon="-8.827808">
        <ele>6</ele>
        <time>1970-01-01T00:38:28.000Z</time>
      </trkpt>
      <trkpt lat="42.328462" lon="-8.827825">
        <ele>5.8</ele>
        <time>1970-01-01T00:38:29.000Z</time>
      </trkpt>
      <trkpt lat="42.328471" lon="-8.827844">
        <ele>5.8</ele>
        <time>1970-01-01T00:38:30.000Z</time>
      </trkpt>
      <trkpt lat="42.328477" lon="-8.827857">
        <ele>5.8</ele>
        <time>1970-01-01T00:38:31.000Z</time>
      </trkpt>
      <trkpt lat="42.328481" lon="-8.827873">
        <ele>5.8</ele>
        <time>1970-01-01T00:38:32.000Z</time>
      </trkpt>
      <trkpt lat="42.328483" lon="-8.827888">
        <ele>5.6</ele>
        <time>1970-01-01T00:38:33.000Z</time>
      </trkpt>
      <trkpt lat="42.328483" lon="-8.827898">
        <ele>5.6</ele>
        <time>1970-01-01T00:38:34.000Z</time>
      </trkpt>
      <trkpt lat="42.328483" lon="-8.827908">
        <ele>5.2</ele>
        <time>1970-01-01T00:38:35.000Z</time>
      </trkpt>
      <trkpt lat="42.328486" lon="-8.827917">
        <ele>4.8</ele>
        <time>1970-01-01T00:38:36.000Z</time>
      </trkpt>
      <trkpt lat="42.328496" lon="-8.827931">
        <ele>4.6</ele>
        <time>1970-01-01T00:38:37.000Z</time>
      </trkpt>
      <trkpt lat="42.328507" lon="-8.827938">
        <ele>4.6</ele>
        <time>1970-01-01T00:38:38.000Z</time>
      </trkpt>
      <trkpt lat="42.32852" lon="-8.827942">
        <ele>4.4</ele>
        <time>1970-01-01T00:38:39.000Z</time>
      </trkpt>
      <trkpt lat="42.328533" lon="-8.827939">
        <ele>4</ele>
        <time>1970-01-01T00:38:40.000Z</time>
      </trkpt>
      <trkpt lat="42.328543" lon="-8.827941">
        <ele>3.8</ele>
        <time>1970-01-01T00:38:41.000Z</time>
      </trkpt>
      <trkpt lat="42.32855" lon="-8.827943">
        <ele>4</ele>
        <time>1970-01-01T00:38:42.000Z</time>
      </trkpt>
      <trkpt lat="42.328557" lon="-8.827948">
        <ele>3.8</ele>
        <time>1970-01-01T00:38:43.000Z</time>
      </trkpt>
      <trkpt lat="42.328565" lon="-8.827954">
        <ele>3.8</ele>
        <time>1970-01-01T00:38:44.000Z</time>
      </trkpt>
      <trkpt lat="42.328574" lon="-8.82796">
        <ele>3.6</ele>
        <time>1970-01-01T00:38:45.000Z</time>
      </trkpt>
      <trkpt lat="42.328584" lon="-8.82796">
        <ele>3.6</ele>
        <time>1970-01-01T00:38:46.000Z</time>
      </trkpt>
      <trkpt lat="42.328596" lon="-8.827957">
        <ele>3.6</ele>
        <time>1970-01-01T00:38:47.000Z</time>
      </trkpt>
      <trkpt lat="42.32861" lon="-8.827952">
        <ele>3.6</ele>
        <time>1970-01-01T00:38:48.000Z</time>
      </trkpt>
      <trkpt lat="42.328622" lon="-8.827945">
        <ele>3.4</ele>
        <time>1970-01-01T00:38:49.000Z</time>
      </trkpt>
      <trkpt lat="42.328629" lon="-8.827936">
        <ele>3.4</ele>
        <time>1970-01-01T00:38:50.000Z</time>
      </trkpt>
      <trkpt lat="42.328631" lon="-8.827929">
        <ele>3.2</ele>
        <time>1970-01-01T00:38:51.000Z</time>
      </trkpt>
      <trkpt lat="42.328635" lon="-8.827919">
        <ele>3.2</ele>
        <time>1970-01-01T00:38:52.000Z</time>
      </trkpt>
      <trkpt lat="42.328638" lon="-8.827908">
        <ele>3</ele>
        <time>1970-01-01T00:38:53.000Z</time>
      </trkpt>
      <trkpt lat="42.328642" lon="-8.827898">
        <ele>3</ele>
        <time>1970-01-01T00:38:54.000Z</time>
      </trkpt>
      <trkpt lat="42.328646" lon="-8.82789">
        <ele>3</ele>
        <time>1970-01-01T00:38:55.000Z</time>
      </trkpt>
      <trkpt lat="42.328649" lon="-8.827883">
        <ele>3</ele>
        <time>1970-01-01T00:38:56.000Z</time>
      </trkpt>
      <trkpt lat="42.328651" lon="-8.827873">
        <ele>3</ele>
        <time>1970-01-01T00:38:57.000Z</time>
      </trkpt>
      <trkpt lat="42.328654" lon="-8.827863">
        <ele>3.2</ele>
        <time>1970-01-01T00:38:58.000Z</time>
      </trkpt>
      <trkpt lat="42.328658" lon="-8.827852">
        <ele>3.2</ele>
        <time>1970-01-01T00:38:59.000Z</time>
      </trkpt>
      <trkpt lat="42.328663" lon="-8.82784">
        <ele>3.2</ele>
        <time>1970-01-01T00:39:00.000Z</time>
      </trkpt>
      <trkpt lat="42.328667" lon="-8.827833">
        <ele>3.2</ele>
        <time>1970-01-01T00:39:01.000Z</time>
      </trkpt>
      <trkpt lat="42.328667" lon="-8.827817">
        <ele>3</ele>
        <time>1970-01-01T00:39:02.000Z</time>
      </trkpt>
      <trkpt lat="42.328665" lon="-8.827797">
        <ele>3</ele>
        <time>1970-01-01T00:39:03.000Z</time>
      </trkpt>
      <trkpt lat="42.32866" lon="-8.827777">
        <ele>2.8</ele>
        <time>1970-01-01T00:39:04.000Z</time>
      </trkpt>
      <trkpt lat="42.328655" lon="-8.827758">
        <ele>2.8</ele>
        <time>1970-01-01T00:39:05.000Z</time>
      </trkpt>
      <trkpt lat="42.328648" lon="-8.827738">
        <ele>3.2</ele>
        <time>1970-01-01T00:39:06.000Z</time>
      </trkpt>
      <trkpt lat="42.32864" lon="-8.827717">
        <ele>3.4</ele>
        <time>1970-01-01T00:39:07.000Z</time>
      </trkpt>
      <trkpt lat="42.328636" lon="-8.827699">
        <ele>3.4</ele>
        <time>1970-01-01T00:39:08.000Z</time>
      </trkpt>
      <trkpt lat="42.328635" lon="-8.827682">
        <ele>3.8</ele>
        <time>1970-01-01T00:39:09.000Z</time>
      </trkpt>
      <trkpt lat="42.328639" lon="-8.827669">
        <ele>3.8</ele>
        <time>1970-01-01T00:39:10.000Z</time>
      </trkpt>
      <trkpt lat="42.328645" lon="-8.82766">
        <ele>4</ele>
        <time>1970-01-01T00:39:11.000Z</time>
      </trkpt>
      <trkpt lat="42.32865" lon="-8.827645">
        <ele>4</ele>
        <time>1970-01-01T00:39:12.000Z</time>
      </trkpt>
      <trkpt lat="42.328657" lon="-8.827626">
        <ele>3.8</ele>
        <time>1970-01-01T00:39:13.000Z</time>
      </trkpt>
      <trkpt lat="42.32866" lon="-8.827606">
        <ele>4</ele>
        <time>1970-01-01T00:39:14.000Z</time>
      </trkpt>
      <trkpt lat="42.32866" lon="-8.827587">
        <ele>4</ele>
        <time>1970-01-01T00:39:15.000Z</time>
      </trkpt>
      <trkpt lat="42.328658" lon="-8.827569">
        <ele>4</ele>
        <time>1970-01-01T00:39:16.000Z</time>
      </trkpt>
      <trkpt lat="42.328661" lon="-8.827562">
        <ele>4</ele>
        <time>1970-01-01T00:39:17.000Z</time>
      </trkpt>
      <trkpt lat="42.328667" lon="-8.827556">
        <ele>4</ele>
        <time>1970-01-01T00:39:18.000Z</time>
      </trkpt>
      <trkpt lat="42.328671" lon="-8.827548">
        <ele>4</ele>
        <time>1970-01-01T00:39:19.000Z</time>
      </trkpt>
      <trkpt lat="42.328677" lon="-8.827527">
        <ele>4.4</ele>
        <time>1970-01-01T00:39:20.000Z</time>
      </trkpt>
      <trkpt lat="42.328683" lon="-8.827509">
        <ele>4.4</ele>
        <time>1970-01-01T00:39:21.000Z</time>
      </trkpt>
      <trkpt lat="42.328687" lon="-8.827496">
        <ele>4.4</ele>
        <time>1970-01-01T00:39:22.000Z</time>
      </trkpt>
      <trkpt lat="42.328692" lon="-8.827479">
        <ele>4.6</ele>
        <time>1970-01-01T00:39:23.000Z</time>
      </trkpt>
      <trkpt lat="42.328697" lon="-8.827462">
        <ele>4.6</ele>
        <time>1970-01-01T00:39:24.000Z</time>
      </trkpt>
      <trkpt lat="42.328701" lon="-8.82745">
        <ele>4.6</ele>
        <time>1970-01-01T00:39:25.000Z</time>
      </trkpt>
      <trkpt lat="42.328705" lon="-8.827433">
        <ele>4.6</ele>
        <time>1970-01-01T00:39:26.000Z</time>
      </trkpt>
      <trkpt lat="42.32871" lon="-8.827424">
        <ele>4.6</ele>
        <time>1970-01-01T00:39:27.000Z</time>
      </trkpt>
      <trkpt lat="42.328714" lon="-8.827416">
        <ele>4.8</ele>
        <time>1970-01-01T00:39:28.000Z</time>
      </trkpt>
      <trkpt lat="42.32872" lon="-8.827403">
        <ele>5.2</ele>
        <time>1970-01-01T00:39:29.000Z</time>
      </trkpt>
      <trkpt lat="42.328726" lon="-8.827387">
        <ele>5.4</ele>
        <time>1970-01-01T00:39:30.000Z</time>
      </trkpt>
      <trkpt lat="42.328731" lon="-8.827366">
        <ele>5.8</ele>
        <time>1970-01-01T00:39:31.000Z</time>
      </trkpt>
      <trkpt lat="42.328736" lon="-8.827348">
        <ele>6</ele>
        <time>1970-01-01T00:39:32.000Z</time>
      </trkpt>
      <trkpt lat="42.328742" lon="-8.827325">
        <ele>6.2</ele>
        <time>1970-01-01T00:39:33.000Z</time>
      </trkpt>
      <trkpt lat="42.328752" lon="-8.82731">
        <ele>6.2</ele>
        <time>1970-01-01T00:39:34.000Z</time>
      </trkpt>
      <trkpt lat="42.328763" lon="-8.827294">
        <ele>6.2</ele>
        <time>1970-01-01T00:39:35.000Z</time>
      </trkpt>
      <trkpt lat="42.328771" lon="-8.827276">
        <ele>6.2</ele>
        <time>1970-01-01T00:39:36.000Z</time>
      </trkpt>
      <trkpt lat="42.328775" lon="-8.827261">
        <ele>5.8</ele>
        <time>1970-01-01T00:39:37.000Z</time>
      </trkpt>
      <trkpt lat="42.328776" lon="-8.827243">
        <ele>5.6</ele>
        <time>1970-01-01T00:39:38.000Z</time>
      </trkpt>
      <trkpt lat="42.328773" lon="-8.827231">
        <ele>5.4</ele>
        <time>1970-01-01T00:39:39.000Z</time>
      </trkpt>
      <trkpt lat="42.32877" lon="-8.827218">
        <ele>5.4</ele>
        <time>1970-01-01T00:39:40.000Z</time>
      </trkpt>
      <trkpt lat="42.328771" lon="-8.827204">
        <ele>5.2</ele>
        <time>1970-01-01T00:39:41.000Z</time>
      </trkpt>
      <trkpt lat="42.328775" lon="-8.827188">
        <ele>5.2</ele>
        <time>1970-01-01T00:39:42.000Z</time>
      </trkpt>
      <trkpt lat="42.328777" lon="-8.827171">
        <ele>5.2</ele>
        <time>1970-01-01T00:39:43.000Z</time>
      </trkpt>
      <trkpt lat="42.328777" lon="-8.827151">
        <ele>5.2</ele>
        <time>1970-01-01T00:39:44.000Z</time>
      </trkpt>
      <trkpt lat="42.328778" lon="-8.827131">
        <ele>5.2</ele>
        <time>1970-01-01T00:39:45.000Z</time>
      </trkpt>
      <trkpt lat="42.32878" lon="-8.827113">
        <ele>5.2</ele>
        <time>1970-01-01T00:39:46.000Z</time>
      </trkpt>
      <trkpt lat="42.328782" lon="-8.827099">
        <ele>5.2</ele>
        <time>1970-01-01T00:39:47.000Z</time>
      </trkpt>
      <trkpt lat="42.328786" lon="-8.827079">
        <ele>5.2</ele>
        <time>1970-01-01T00:39:48.000Z</time>
      </trkpt>
      <trkpt lat="42.32879" lon="-8.82706">
        <ele>5.2</ele>
        <time>1970-01-01T00:39:49.000Z</time>
      </trkpt>
      <trkpt lat="42.328793" lon="-8.82704">
        <ele>5.2</ele>
        <time>1970-01-01T00:39:50.000Z</time>
      </trkpt>
      <trkpt lat="42.328796" lon="-8.827021">
        <ele>5.2</ele>
        <time>1970-01-01T00:39:51.000Z</time>
      </trkpt>
      <trkpt lat="42.328804" lon="-8.827007">
        <ele>5.2</ele>
        <time>1970-01-01T00:39:52.000Z</time>
      </trkpt>
      <trkpt lat="42.328811" lon="-8.826993">
        <ele>5.2</ele>
        <time>1970-01-01T00:39:53.000Z</time>
      </trkpt>
      <trkpt lat="42.328815" lon="-8.826976">
        <ele>5.4</ele>
        <time>1970-01-01T00:39:54.000Z</time>
      </trkpt>
      <trkpt lat="42.328815" lon="-8.826954">
        <ele>5.4</ele>
        <time>1970-01-01T00:39:55.000Z</time>
      </trkpt>
      <trkpt lat="42.328812" lon="-8.826931">
        <ele>5.4</ele>
        <time>1970-01-01T00:39:56.000Z</time>
      </trkpt>
      <trkpt lat="42.328811" lon="-8.826912">
        <ele>5.4</ele>
        <time>1970-01-01T00:39:57.000Z</time>
      </trkpt>
      <trkpt lat="42.328811" lon="-8.826892">
        <ele>5.4</ele>
        <time>1970-01-01T00:39:58.000Z</time>
      </trkpt>
      <trkpt lat="42.328812" lon="-8.82687">
        <ele>5.4</ele>
        <time>1970-01-01T00:39:59.000Z</time>
      </trkpt>
      <trkpt lat="42.328817" lon="-8.826847">
        <ele>5.6</ele>
        <time>1970-01-01T00:40:00.000Z</time>
      </trkpt>
      <trkpt lat="42.328823" lon="-8.826829">
        <ele>5.6</ele>
        <time>1970-01-01T00:40:01.000Z</time>
      </trkpt>
      <trkpt lat="42.328829" lon="-8.826813">
        <ele>5.6</ele>
        <time>1970-01-01T00:40:02.000Z</time>
      </trkpt>
      <trkpt lat="42.328835" lon="-8.826797">
        <ele>5.8</ele>
        <time>1970-01-01T00:40:03.000Z</time>
      </trkpt>
      <trkpt lat="42.328841" lon="-8.82678">
        <ele>6</ele>
        <time>1970-01-01T00:40:04.000Z</time>
      </trkpt>
      <trkpt lat="42.328849" lon="-8.826764">
        <ele>6.2</ele>
        <time>1970-01-01T00:40:05.000Z</time>
      </trkpt>
      <trkpt lat="42.328861" lon="-8.826748">
        <ele>6.4</ele>
        <time>1970-01-01T00:40:06.000Z</time>
      </trkpt>
      <trkpt lat="42.328873" lon="-8.826731">
        <ele>6.4</ele>
        <time>1970-01-01T00:40:07.000Z</time>
      </trkpt>
      <trkpt lat="42.328883" lon="-8.826718">
        <ele>6.6</ele>
        <time>1970-01-01T00:40:08.000Z</time>
      </trkpt>
      <trkpt lat="42.328893" lon="-8.826702">
        <ele>6.6</ele>
        <time>1970-01-01T00:40:09.000Z</time>
      </trkpt>
      <trkpt lat="42.328905" lon="-8.826687">
        <ele>6.6</ele>
        <time>1970-01-01T00:40:10.000Z</time>
      </trkpt>
      <trkpt lat="42.328918" lon="-8.826674">
        <ele>6.6</ele>
        <time>1970-01-01T00:40:11.000Z</time>
      </trkpt>
      <trkpt lat="42.328933" lon="-8.826661">
        <ele>6.4</ele>
        <time>1970-01-01T00:40:12.000Z</time>
      </trkpt>
      <trkpt lat="42.328946" lon="-8.826647">
        <ele>6.6</ele>
        <time>1970-01-01T00:40:13.000Z</time>
      </trkpt>
      <trkpt lat="42.328958" lon="-8.826633">
        <ele>6.6</ele>
        <time>1970-01-01T00:40:14.000Z</time>
      </trkpt>
      <trkpt lat="42.32897" lon="-8.826621">
        <ele>6.6</ele>
        <time>1970-01-01T00:40:15.000Z</time>
      </trkpt>
      <trkpt lat="42.328981" lon="-8.826609">
        <ele>6.8</ele>
        <time>1970-01-01T00:40:16.000Z</time>
      </trkpt>
      <trkpt lat="42.32899" lon="-8.826598">
        <ele>6.8</ele>
        <time>1970-01-01T00:40:17.000Z</time>
      </trkpt>
      <trkpt lat="42.328996" lon="-8.826587">
        <ele>6.8</ele>
        <time>1970-01-01T00:40:18.000Z</time>
      </trkpt>
      <trkpt lat="42.329002" lon="-8.826574">
        <ele>6.8</ele>
        <time>1970-01-01T00:40:19.000Z</time>
      </trkpt>
      <trkpt lat="42.329006" lon="-8.826559">
        <ele>6.6</ele>
        <time>1970-01-01T00:40:20.000Z</time>
      </trkpt>
      <trkpt lat="42.329008" lon="-8.82654">
        <ele>6.6</ele>
        <time>1970-01-01T00:40:21.000Z</time>
      </trkpt>
      <trkpt lat="42.329012" lon="-8.826523">
        <ele>6.6</ele>
        <time>1970-01-01T00:40:22.000Z</time>
      </trkpt>
      <trkpt lat="42.329012" lon="-8.8265">
        <ele>6.6</ele>
        <time>1970-01-01T00:40:23.000Z</time>
      </trkpt>
      <trkpt lat="42.329007" lon="-8.826479">
        <ele>6.4</ele>
        <time>1970-01-01T00:40:24.000Z</time>
      </trkpt>
      <trkpt lat="42.329004" lon="-8.82646">
        <ele>6.4</ele>
        <time>1970-01-01T00:40:25.000Z</time>
      </trkpt>
      <trkpt lat="42.329002" lon="-8.826445">
        <ele>6.6</ele>
        <time>1970-01-01T00:40:26.000Z</time>
      </trkpt>
      <trkpt lat="42.329" lon="-8.826433">
        <ele>6.6</ele>
        <time>1970-01-01T00:40:27.000Z</time>
      </trkpt>
      <trkpt lat="42.328999" lon="-8.826419">
        <ele>6.6</ele>
        <time>1970-01-01T00:40:28.000Z</time>
      </trkpt>
      <trkpt lat="42.329" lon="-8.826405">
        <ele>6.4</ele>
        <time>1970-01-01T00:40:29.000Z</time>
      </trkpt>
      <trkpt lat="42.329" lon="-8.826387">
        <ele>6.2</ele>
        <time>1970-01-01T00:40:30.000Z</time>
      </trkpt>
      <trkpt lat="42.328999" lon="-8.826366">
        <ele>6</ele>
        <time>1970-01-01T00:40:31.000Z</time>
      </trkpt>
      <trkpt lat="42.328996" lon="-8.826343">
        <ele>6</ele>
        <time>1970-01-01T00:40:32.000Z</time>
      </trkpt>
      <trkpt lat="42.328995" lon="-8.826319">
        <ele>6</ele>
        <time>1970-01-01T00:40:33.000Z</time>
      </trkpt>
      <trkpt lat="42.328991" lon="-8.826296">
        <ele>6</ele>
        <time>1970-01-01T00:40:34.000Z</time>
      </trkpt>
      <trkpt lat="42.32899" lon="-8.826274">
        <ele>6</ele>
        <time>1970-01-01T00:40:35.000Z</time>
      </trkpt>
      <trkpt lat="42.32899" lon="-8.826258">
        <ele>6</ele>
        <time>1970-01-01T00:40:36.000Z</time>
      </trkpt>
      <trkpt lat="42.328992" lon="-8.826243">
        <ele>6</ele>
        <time>1970-01-01T00:40:37.000Z</time>
      </trkpt>
      <trkpt lat="42.328997" lon="-8.826231">
        <ele>6</ele>
        <time>1970-01-01T00:40:38.000Z</time>
      </trkpt>
      <trkpt lat="42.329005" lon="-8.82622">
        <ele>6</ele>
        <time>1970-01-01T00:40:39.000Z</time>
      </trkpt>
      <trkpt lat="42.329012" lon="-8.826209">
        <ele>6</ele>
        <time>1970-01-01T00:40:40.000Z</time>
      </trkpt>
      <trkpt lat="42.329021" lon="-8.826198">
        <ele>5.6</ele>
        <time>1970-01-01T00:40:41.000Z</time>
      </trkpt>
      <trkpt lat="42.32903" lon="-8.826183">
        <ele>5.4</ele>
        <time>1970-01-01T00:40:42.000Z</time>
      </trkpt>
      <trkpt lat="42.329041" lon="-8.826163">
        <ele>5.4</ele>
        <time>1970-01-01T00:40:43.000Z</time>
      </trkpt>
      <trkpt lat="42.329048" lon="-8.826145">
        <ele>5.2</ele>
        <time>1970-01-01T00:40:44.000Z</time>
      </trkpt>
      <trkpt lat="42.329053" lon="-8.826131">
        <ele>5.4</ele>
        <time>1970-01-01T00:40:45.000Z</time>
      </trkpt>
      <trkpt lat="42.329059" lon="-8.826116">
        <ele>5.2</ele>
        <time>1970-01-01T00:40:46.000Z</time>
      </trkpt>
      <trkpt lat="42.329067" lon="-8.826105">
        <ele>5.4</ele>
        <time>1970-01-01T00:40:47.000Z</time>
      </trkpt>
      <trkpt lat="42.329073" lon="-8.826092">
        <ele>5.6</ele>
        <time>1970-01-01T00:40:48.000Z</time>
      </trkpt>
      <trkpt lat="42.32908" lon="-8.826079">
        <ele>5.6</ele>
        <time>1970-01-01T00:40:49.000Z</time>
      </trkpt>
      <trkpt lat="42.329089" lon="-8.826067">
        <ele>5.8</ele>
        <time>1970-01-01T00:40:50.000Z</time>
      </trkpt>
      <trkpt lat="42.329098" lon="-8.826055">
        <ele>5.8</ele>
        <time>1970-01-01T00:40:51.000Z</time>
      </trkpt>
      <trkpt lat="42.329105" lon="-8.826045">
        <ele>5.8</ele>
        <time>1970-01-01T00:40:52.000Z</time>
      </trkpt>
      <trkpt lat="42.329111" lon="-8.826037">
        <ele>5.6</ele>
        <time>1970-01-01T00:40:53.000Z</time>
      </trkpt>
      <trkpt lat="42.329115" lon="-8.826031">
        <ele>5.6</ele>
        <time>1970-01-01T00:40:54.000Z</time>
      </trkpt>
      <trkpt lat="42.32912" lon="-8.826027">
        <ele>5.6</ele>
        <time>1970-01-01T00:40:55.000Z</time>
      </trkpt>
      <trkpt lat="42.329122" lon="-8.826016">
        <ele>5.4</ele>
        <time>1970-01-01T00:40:56.000Z</time>
      </trkpt>
      <trkpt lat="42.329125" lon="-8.826001">
        <ele>5.4</ele>
        <time>1970-01-01T00:40:57.000Z</time>
      </trkpt>
      <trkpt lat="42.32913" lon="-8.825985">
        <ele>5</ele>
        <time>1970-01-01T00:40:58.000Z</time>
      </trkpt>
      <trkpt lat="42.329135" lon="-8.825979">
        <ele>5</ele>
        <time>1970-01-01T00:40:59.000Z</time>
      </trkpt>
      <trkpt lat="42.329143" lon="-8.825977">
        <ele>4.8</ele>
        <time>1970-01-01T00:41:00.000Z</time>
      </trkpt>
      <trkpt lat="42.32915" lon="-8.825978">
        <ele>4.8</ele>
        <time>1970-01-01T00:41:01.000Z</time>
      </trkpt>
      <trkpt lat="42.329157" lon="-8.825979">
        <ele>4.8</ele>
        <time>1970-01-01T00:41:02.000Z</time>
      </trkpt>
      <trkpt lat="42.329163" lon="-8.825984">
        <ele>4.6</ele>
        <time>1970-01-01T00:41:03.000Z</time>
      </trkpt>
      <trkpt lat="42.329175" lon="-8.82599">
        <ele>4.6</ele>
        <time>1970-01-01T00:41:04.000Z</time>
      </trkpt>
      <trkpt lat="42.329187" lon="-8.825997">
        <ele>4.6</ele>
        <time>1970-01-01T00:41:05.000Z</time>
      </trkpt>
      <trkpt lat="42.329199" lon="-8.826001">
        <ele>4.6</ele>
        <time>1970-01-01T00:41:06.000Z</time>
      </trkpt>
      <trkpt lat="42.329211" lon="-8.826007">
        <ele>4.4</ele>
        <time>1970-01-01T00:41:07.000Z</time>
      </trkpt>
      <trkpt lat="42.329222" lon="-8.826009">
        <ele>4.4</ele>
        <time>1970-01-01T00:41:08.000Z</time>
      </trkpt>
      <trkpt lat="42.329234" lon="-8.826006">
        <ele>4.4</ele>
        <time>1970-01-01T00:41:09.000Z</time>
      </trkpt>
      <trkpt lat="42.329248" lon="-8.826006">
        <ele>4.4</ele>
        <time>1970-01-01T00:41:10.000Z</time>
      </trkpt>
      <trkpt lat="42.329263" lon="-8.826006">
        <ele>4.4</ele>
        <time>1970-01-01T00:41:11.000Z</time>
      </trkpt>
      <trkpt lat="42.329277" lon="-8.826003">
        <ele>4.4</ele>
        <time>1970-01-01T00:41:12.000Z</time>
      </trkpt>
      <trkpt lat="42.329292" lon="-8.826004">
        <ele>4.4</ele>
        <time>1970-01-01T00:41:13.000Z</time>
      </trkpt>
      <trkpt lat="42.329306" lon="-8.826006">
        <ele>4.4</ele>
        <time>1970-01-01T00:41:14.000Z</time>
      </trkpt>
      <trkpt lat="42.329318" lon="-8.826008">
        <ele>4.4</ele>
        <time>1970-01-01T00:41:15.000Z</time>
      </trkpt>
      <trkpt lat="42.329328" lon="-8.826012">
        <ele>4.4</ele>
        <time>1970-01-01T00:41:16.000Z</time>
      </trkpt>
      <trkpt lat="42.329336" lon="-8.826018">
        <ele>4.4</ele>
        <time>1970-01-01T00:41:17.000Z</time>
      </trkpt>
      <trkpt lat="42.329343" lon="-8.826023">
        <ele>4.4</ele>
        <time>1970-01-01T00:41:18.000Z</time>
      </trkpt>
      <trkpt lat="42.329348" lon="-8.82603">
        <ele>4.4</ele>
        <time>1970-01-01T00:41:19.000Z</time>
      </trkpt>
      <trkpt lat="42.329354" lon="-8.826044">
        <ele>4.4</ele>
        <time>1970-01-01T00:41:20.000Z</time>
      </trkpt>
      <trkpt lat="42.329363" lon="-8.826058">
        <ele>4.4</ele>
        <time>1970-01-01T00:41:21.000Z</time>
      </trkpt>
      <trkpt lat="42.329377" lon="-8.826068">
        <ele>4.2</ele>
        <time>1970-01-01T00:41:22.000Z</time>
      </trkpt>
      <trkpt lat="42.329392" lon="-8.826071">
        <ele>4.4</ele>
        <time>1970-01-01T00:41:23.000Z</time>
      </trkpt>
      <trkpt lat="42.3294" lon="-8.826072">
        <ele>4.4</ele>
        <time>1970-01-01T00:41:24.000Z</time>
      </trkpt>
      <trkpt lat="42.329408" lon="-8.826072">
        <ele>4.6</ele>
        <time>1970-01-01T00:41:25.000Z</time>
      </trkpt>
      <trkpt lat="42.329417" lon="-8.826069">
        <ele>4.6</ele>
        <time>1970-01-01T00:41:26.000Z</time>
      </trkpt>
      <trkpt lat="42.329425" lon="-8.826065">
        <ele>4.8</ele>
        <time>1970-01-01T00:41:27.000Z</time>
      </trkpt>
      <trkpt lat="42.329432" lon="-8.826063">
        <ele>4.8</ele>
        <time>1970-01-01T00:41:28.000Z</time>
      </trkpt>
      <trkpt lat="42.329436" lon="-8.826061">
        <ele>5</ele>
        <time>1970-01-01T00:41:29.000Z</time>
      </trkpt>
      <trkpt lat="42.329439" lon="-8.82606">
        <ele>5</ele>
        <time>1970-01-01T00:41:30.000Z</time>
      </trkpt>
      <trkpt lat="42.329443" lon="-8.826064">
        <ele>5</ele>
        <time>1970-01-01T00:41:31.000Z</time>
      </trkpt>
      <trkpt lat="42.329445" lon="-8.826066">
        <ele>5</ele>
        <time>1970-01-01T00:41:32.000Z</time>
      </trkpt>
      <trkpt lat="42.329446" lon="-8.826063">
        <ele>5.2</ele>
        <time>1970-01-01T00:41:33.000Z</time>
      </trkpt>
      <trkpt lat="42.329446" lon="-8.826058">
        <ele>5.2</ele>
        <time>1970-01-01T00:41:34.000Z</time>
      </trkpt>
      <trkpt lat="42.329443" lon="-8.826048">
        <ele>5.2</ele>
        <time>1970-01-01T00:41:35.000Z</time>
      </trkpt>
      <trkpt lat="42.329438" lon="-8.826042">
        <ele>5.2</ele>
        <time>1970-01-01T00:41:36.000Z</time>
      </trkpt>
      <trkpt lat="42.329433" lon="-8.826032">
        <ele>5.2</ele>
        <time>1970-01-01T00:41:37.000Z</time>
      </trkpt>
      <trkpt lat="42.329426" lon="-8.82602">
        <ele>5.2</ele>
        <time>1970-01-01T00:41:38.000Z</time>
      </trkpt>
      <trkpt lat="42.329422" lon="-8.826012">
        <ele>5.4</ele>
        <time>1970-01-01T00:41:39.000Z</time>
      </trkpt>
      <trkpt lat="42.329421" lon="-8.826007">
        <ele>5.4</ele>
        <time>1970-01-01T00:41:40.000Z</time>
      </trkpt>
      <trkpt lat="42.329423" lon="-8.826005">
        <ele>5.2</ele>
        <time>1970-01-01T00:41:41.000Z</time>
      </trkpt>
      <trkpt lat="42.329426" lon="-8.826006">
        <ele>5.4</ele>
        <time>1970-01-01T00:41:42.000Z</time>
      </trkpt>
      <trkpt lat="42.329429" lon="-8.826006">
        <ele>5.4</ele>
        <time>1970-01-01T00:41:43.000Z</time>
      </trkpt>
      <trkpt lat="42.32943" lon="-8.826006">
        <ele>5.6</ele>
        <time>1970-01-01T00:41:44.000Z</time>
      </trkpt>
      <trkpt lat="42.329427" lon="-8.826004">
        <ele>5.6</ele>
        <time>1970-01-01T00:41:45.000Z</time>
      </trkpt>
      <trkpt lat="42.329427" lon="-8.826005">
        <ele>5.6</ele>
        <time>1970-01-01T00:41:46.000Z</time>
      </trkpt>
      <trkpt lat="42.329423" lon="-8.826003">
        <ele>5.6</ele>
        <time>1970-01-01T00:41:47.000Z</time>
      </trkpt>
      <trkpt lat="42.32942" lon="-8.826002">
        <ele>5.8</ele>
        <time>1970-01-01T00:41:48.000Z</time>
      </trkpt>
      <trkpt lat="42.32942" lon="-8.826">
        <ele>5.8</ele>
        <time>1970-01-01T00:41:49.000Z</time>
      </trkpt>
      <trkpt lat="42.329421" lon="-8.825998">
        <ele>5.6</ele>
        <time>1970-01-01T00:41:50.000Z</time>
      </trkpt>
      <trkpt lat="42.329421" lon="-8.825992">
        <ele>5.6</ele>
        <time>1970-01-01T00:41:51.000Z</time>
      </trkpt>
      <trkpt lat="42.329421" lon="-8.825984">
        <ele>5.6</ele>
        <time>1970-01-01T00:41:52.000Z</time>
      </trkpt>
      <trkpt lat="42.329418" lon="-8.825972">
        <ele>5.6</ele>
        <time>1970-01-01T00:41:53.000Z</time>
      </trkpt>
      <trkpt lat="42.329418" lon="-8.82596">
        <ele>5.6</ele>
        <time>1970-01-01T00:41:54.000Z</time>
      </trkpt>
      <trkpt lat="42.329417" lon="-8.825945">
        <ele>5.6</ele>
        <time>1970-01-01T00:41:55.000Z</time>
      </trkpt>
      <trkpt lat="42.329419" lon="-8.825932">
        <ele>5.6</ele>
        <time>1970-01-01T00:41:56.000Z</time>
      </trkpt>
      <trkpt lat="42.329422" lon="-8.825918">
        <ele>5.8</ele>
        <time>1970-01-01T00:41:57.000Z</time>
      </trkpt>
      <trkpt lat="42.329426" lon="-8.825908">
        <ele>6</ele>
        <time>1970-01-01T00:41:58.000Z</time>
      </trkpt>
      <trkpt lat="42.329427" lon="-8.825895">
        <ele>6</ele>
        <time>1970-01-01T00:41:59.000Z</time>
      </trkpt>
      <trkpt lat="42.329429" lon="-8.825881">
        <ele>6</ele>
        <time>1970-01-01T00:42:00.000Z</time>
      </trkpt>
      <trkpt lat="42.329427" lon="-8.825868">
        <ele>6</ele>
        <time>1970-01-01T00:42:01.000Z</time>
      </trkpt>
      <trkpt lat="42.329425" lon="-8.825854">
        <ele>6.2</ele>
        <time>1970-01-01T00:42:02.000Z</time>
      </trkpt>
      <trkpt lat="42.32942" lon="-8.825838">
        <ele>6.2</ele>
        <time>1970-01-01T00:42:03.000Z</time>
      </trkpt>
      <trkpt lat="42.329415" lon="-8.825823">
        <ele>6</ele>
        <time>1970-01-01T00:42:04.000Z</time>
      </trkpt>
      <trkpt lat="42.32941" lon="-8.82581">
        <ele>6</ele>
        <time>1970-01-01T00:42:05.000Z</time>
      </trkpt>
      <trkpt lat="42.329405" lon="-8.825796">
        <ele>6</ele>
        <time>1970-01-01T00:42:06.000Z</time>
      </trkpt>
      <trkpt lat="42.329399" lon="-8.82578">
        <ele>6</ele>
        <time>1970-01-01T00:42:07.000Z</time>
      </trkpt>
      <trkpt lat="42.329394" lon="-8.825764">
        <ele>6</ele>
        <time>1970-01-01T00:42:08.000Z</time>
      </trkpt>
      <trkpt lat="42.32939" lon="-8.825748">
        <ele>6</ele>
        <time>1970-01-01T00:42:09.000Z</time>
      </trkpt>
      <trkpt lat="42.329389" lon="-8.825737">
        <ele>6</ele>
        <time>1970-01-01T00:42:10.000Z</time>
      </trkpt>
      <trkpt lat="42.32939" lon="-8.825726">
        <ele>6</ele>
        <time>1970-01-01T00:42:11.000Z</time>
      </trkpt>
      <trkpt lat="42.329393" lon="-8.825713">
        <ele>6.2</ele>
        <time>1970-01-01T00:42:12.000Z</time>
      </trkpt>
      <trkpt lat="42.329395" lon="-8.825703">
        <ele>6.6</ele>
        <time>1970-01-01T00:42:13.000Z</time>
      </trkpt>
      <trkpt lat="42.329399" lon="-8.82569">
        <ele>6.8</ele>
        <time>1970-01-01T00:42:14.000Z</time>
      </trkpt>
      <trkpt lat="42.329403" lon="-8.825674">
        <ele>7</ele>
        <time>1970-01-01T00:42:15.000Z</time>
      </trkpt>
      <trkpt lat="42.32941" lon="-8.825657">
        <ele>7</ele>
        <time>1970-01-01T00:42:16.000Z</time>
      </trkpt>
      <trkpt lat="42.329416" lon="-8.825639">
        <ele>7.2</ele>
        <time>1970-01-01T00:42:17.000Z</time>
      </trkpt>
      <trkpt lat="42.329417" lon="-8.825621">
        <ele>7.4</ele>
        <time>1970-01-01T00:42:18.000Z</time>
      </trkpt>
      <trkpt lat="42.329421" lon="-8.825608">
        <ele>7.4</ele>
        <time>1970-01-01T00:42:19.000Z</time>
      </trkpt>
      <trkpt lat="42.329421" lon="-8.825593">
        <ele>7.6</ele>
        <time>1970-01-01T00:42:20.000Z</time>
      </trkpt>
      <trkpt lat="42.32942" lon="-8.825576">
        <ele>7.6</ele>
        <time>1970-01-01T00:42:21.000Z</time>
      </trkpt>
      <trkpt lat="42.329416" lon="-8.825558">
        <ele>7.6</ele>
        <time>1970-01-01T00:42:22.000Z</time>
      </trkpt>
      <trkpt lat="42.329407" lon="-8.825547">
        <ele>8</ele>
        <time>1970-01-01T00:42:23.000Z</time>
      </trkpt>
      <trkpt lat="42.329402" lon="-8.825538">
        <ele>8.4</ele>
        <time>1970-01-01T00:42:24.000Z</time>
      </trkpt>
      <trkpt lat="42.329395" lon="-8.825519">
        <ele>8.6</ele>
        <time>1970-01-01T00:42:25.000Z</time>
      </trkpt>
      <trkpt lat="42.329385" lon="-8.8255">
        <ele>8.8</ele>
        <time>1970-01-01T00:42:26.000Z</time>
      </trkpt>
      <trkpt lat="42.329371" lon="-8.825477">
        <ele>9</ele>
        <time>1970-01-01T00:42:27.000Z</time>
      </trkpt>
      <trkpt lat="42.329357" lon="-8.825454">
        <ele>9.2</ele>
        <time>1970-01-01T00:42:28.000Z</time>
      </trkpt>
      <trkpt lat="42.329345" lon="-8.825434">
        <ele>9.2</ele>
        <time>1970-01-01T00:42:29.000Z</time>
      </trkpt>
      <trkpt lat="42.329333" lon="-8.825415">
        <ele>9.2</ele>
        <time>1970-01-01T00:42:30.000Z</time>
      </trkpt>
      <trkpt lat="42.329321" lon="-8.825403">
        <ele>9.4</ele>
        <time>1970-01-01T00:42:31.000Z</time>
      </trkpt>
      <trkpt lat="42.329308" lon="-8.825393">
        <ele>9.4</ele>
        <time>1970-01-01T00:42:32.000Z</time>
      </trkpt>
      <trkpt lat="42.329296" lon="-8.825387">
        <ele>9.4</ele>
        <time>1970-01-01T00:42:33.000Z</time>
      </trkpt>
      <trkpt lat="42.329282" lon="-8.825367">
        <ele>9.4</ele>
        <time>1970-01-01T00:42:34.000Z</time>
      </trkpt>
      <trkpt lat="42.329272" lon="-8.825354">
        <ele>9.4</ele>
        <time>1970-01-01T00:42:35.000Z</time>
      </trkpt>
      <trkpt lat="42.329268" lon="-8.825341">
        <ele>9.4</ele>
        <time>1970-01-01T00:42:36.000Z</time>
      </trkpt>
      <trkpt lat="42.32926" lon="-8.82533">
        <ele>9</ele>
        <time>1970-01-01T00:42:37.000Z</time>
      </trkpt>
      <trkpt lat="42.329253" lon="-8.825318">
        <ele>8.8</ele>
        <time>1970-01-01T00:42:38.000Z</time>
      </trkpt>
      <trkpt lat="42.329247" lon="-8.825299">
        <ele>8.8</ele>
        <time>1970-01-01T00:42:39.000Z</time>
      </trkpt>
      <trkpt lat="42.32924" lon="-8.825279">
        <ele>8.8</ele>
        <time>1970-01-01T00:42:40.000Z</time>
      </trkpt>
      <trkpt lat="42.329234" lon="-8.825258">
        <ele>8.8</ele>
        <time>1970-01-01T00:42:41.000Z</time>
      </trkpt>
      <trkpt lat="42.329231" lon="-8.825241">
        <ele>8.8</ele>
        <time>1970-01-01T00:42:42.000Z</time>
      </trkpt>
      <trkpt lat="42.329225" lon="-8.825231">
        <ele>8.8</ele>
        <time>1970-01-01T00:42:43.000Z</time>
      </trkpt>
      <trkpt lat="42.329216" lon="-8.825226">
        <ele>8.8</ele>
        <time>1970-01-01T00:42:44.000Z</time>
      </trkpt>
      <trkpt lat="42.329204" lon="-8.825232">
        <ele>8.8</ele>
        <time>1970-01-01T00:42:45.000Z</time>
      </trkpt>
      <trkpt lat="42.329193" lon="-8.825236">
        <ele>8.8</ele>
        <time>1970-01-01T00:42:46.000Z</time>
      </trkpt>
      <trkpt lat="42.329187" lon="-8.82523">
        <ele>9</ele>
        <time>1970-01-01T00:42:47.000Z</time>
      </trkpt>
      <trkpt lat="42.329183" lon="-8.825226">
        <ele>9</ele>
        <time>1970-01-01T00:42:48.000Z</time>
      </trkpt>
      <trkpt lat="42.32918" lon="-8.825223">
        <ele>9</ele>
        <time>1970-01-01T00:42:49.000Z</time>
      </trkpt>
      <trkpt lat="42.329177" lon="-8.825219">
        <ele>9</ele>
        <time>1970-01-01T00:42:50.000Z</time>
      </trkpt>
      <trkpt lat="42.329174" lon="-8.825213">
        <ele>9</ele>
        <time>1970-01-01T00:42:51.000Z</time>
      </trkpt>
      <trkpt lat="42.32917" lon="-8.825208">
        <ele>9</ele>
        <time>1970-01-01T00:42:52.000Z</time>
      </trkpt>
      <trkpt lat="42.329161" lon="-8.825191">
        <ele>9</ele>
        <time>1970-01-01T00:42:53.000Z</time>
      </trkpt>
      <trkpt lat="42.32916" lon="-8.825179">
        <ele>9</ele>
        <time>1970-01-01T00:42:54.000Z</time>
      </trkpt>
      <trkpt lat="42.329159" lon="-8.825172">
        <ele>8.8</ele>
        <time>1970-01-01T00:42:55.000Z</time>
      </trkpt>
      <trkpt lat="42.329157" lon="-8.82516">
        <ele>8.6</ele>
        <time>1970-01-01T00:42:56.000Z</time>
      </trkpt>
      <trkpt lat="42.329156" lon="-8.825151">
        <ele>8.6</ele>
        <time>1970-01-01T00:42:57.000Z</time>
      </trkpt>
      <trkpt lat="42.329159" lon="-8.825142">
        <ele>8.6</ele>
        <time>1970-01-01T00:42:58.000Z</time>
      </trkpt>
      <trkpt lat="42.329158" lon="-8.825137">
        <ele>8.6</ele>
        <time>1970-01-01T00:42:59.000Z</time>
      </trkpt>
      <trkpt lat="42.329149" lon="-8.825127">
        <ele>8.6</ele>
        <time>1970-01-01T00:43:00.000Z</time>
      </trkpt>
      <trkpt lat="42.329143" lon="-8.825122">
        <ele>8.6</ele>
        <time>1970-01-01T00:43:01.000Z</time>
      </trkpt>
      <trkpt lat="42.329139" lon="-8.825121">
        <ele>8.4</ele>
        <time>1970-01-01T00:43:02.000Z</time>
      </trkpt>
      <trkpt lat="42.329134" lon="-8.825122">
        <ele>8.4</ele>
        <time>1970-01-01T00:43:03.000Z</time>
      </trkpt>
      <trkpt lat="42.329131" lon="-8.825123">
        <ele>8.6</ele>
        <time>1970-01-01T00:43:04.000Z</time>
      </trkpt>
      <trkpt lat="42.329126" lon="-8.825113">
        <ele>8.6</ele>
        <time>1970-01-01T00:43:05.000Z</time>
      </trkpt>
      <trkpt lat="42.329123" lon="-8.825105">
        <ele>8.6</ele>
        <time>1970-01-01T00:43:06.000Z</time>
      </trkpt>
      <trkpt lat="42.32912" lon="-8.825096">
        <ele>8.8</ele>
        <time>1970-01-01T00:43:07.000Z</time>
      </trkpt>
      <trkpt lat="42.329119" lon="-8.825087">
        <ele>9</ele>
        <time>1970-01-01T00:43:08.000Z</time>
      </trkpt>
      <trkpt lat="42.329118" lon="-8.825076">
        <ele>9.2</ele>
        <time>1970-01-01T00:43:09.000Z</time>
      </trkpt>
      <trkpt lat="42.329122" lon="-8.825061">
        <ele>9.4</ele>
        <time>1970-01-01T00:43:10.000Z</time>
      </trkpt>
      <trkpt lat="42.329129" lon="-8.825047">
        <ele>9.4</ele>
        <time>1970-01-01T00:43:11.000Z</time>
      </trkpt>
      <trkpt lat="42.329135" lon="-8.825026">
        <ele>9.6</ele>
        <time>1970-01-01T00:43:12.000Z</time>
      </trkpt>
      <trkpt lat="42.329142" lon="-8.825003">
        <ele>9.6</ele>
        <time>1970-01-01T00:43:13.000Z</time>
      </trkpt>
      <trkpt lat="42.329148" lon="-8.824983">
        <ele>9.6</ele>
        <time>1970-01-01T00:43:14.000Z</time>
      </trkpt>
      <trkpt lat="42.329155" lon="-8.824965">
        <ele>9.8</ele>
        <time>1970-01-01T00:43:15.000Z</time>
      </trkpt>
      <trkpt lat="42.329161" lon="-8.824943">
        <ele>10</ele>
        <time>1970-01-01T00:43:16.000Z</time>
      </trkpt>
      <trkpt lat="42.329166" lon="-8.824921">
        <ele>10.2</ele>
        <time>1970-01-01T00:43:17.000Z</time>
      </trkpt>
      <trkpt lat="42.329172" lon="-8.824897">
        <ele>10.2</ele>
        <time>1970-01-01T00:43:18.000Z</time>
      </trkpt>
      <trkpt lat="42.329177" lon="-8.824873">
        <ele>10.4</ele>
        <time>1970-01-01T00:43:19.000Z</time>
      </trkpt>
      <trkpt lat="42.329184" lon="-8.824851">
        <ele>10.4</ele>
        <time>1970-01-01T00:43:20.000Z</time>
      </trkpt>
      <trkpt lat="42.329188" lon="-8.824835">
        <ele>10.4</ele>
        <time>1970-01-01T00:43:21.000Z</time>
      </trkpt>
      <trkpt lat="42.329191" lon="-8.824819">
        <ele>10.4</ele>
        <time>1970-01-01T00:43:22.000Z</time>
      </trkpt>
      <trkpt lat="42.329196" lon="-8.824805">
        <ele>10.2</ele>
        <time>1970-01-01T00:43:23.000Z</time>
      </trkpt>
      <trkpt lat="42.329203" lon="-8.824795">
        <ele>10.2</ele>
        <time>1970-01-01T00:43:24.000Z</time>
      </trkpt>
      <trkpt lat="42.329209" lon="-8.824784">
        <ele>10</ele>
        <time>1970-01-01T00:43:25.000Z</time>
      </trkpt>
      <trkpt lat="42.329217" lon="-8.82477">
        <ele>10</ele>
        <time>1970-01-01T00:43:26.000Z</time>
      </trkpt>
      <trkpt lat="42.329222" lon="-8.824758">
        <ele>9.8</ele>
        <time>1970-01-01T00:43:27.000Z</time>
      </trkpt>
      <trkpt lat="42.329226" lon="-8.824747">
        <ele>9.8</ele>
        <time>1970-01-01T00:43:28.000Z</time>
      </trkpt>
      <trkpt lat="42.329234" lon="-8.824737">
        <ele>9.8</ele>
        <time>1970-01-01T00:43:29.000Z</time>
      </trkpt>
      <trkpt lat="42.329238" lon="-8.824726">
        <ele>9.6</ele>
        <time>1970-01-01T00:43:30.000Z</time>
      </trkpt>
      <trkpt lat="42.329239" lon="-8.824712">
        <ele>9.6</ele>
        <time>1970-01-01T00:43:31.000Z</time>
      </trkpt>
      <trkpt lat="42.32924" lon="-8.824695">
        <ele>9.6</ele>
        <time>1970-01-01T00:43:32.000Z</time>
      </trkpt>
      <trkpt lat="42.32924" lon="-8.824677">
        <ele>9.6</ele>
        <time>1970-01-01T00:43:33.000Z</time>
      </trkpt>
      <trkpt lat="42.329239" lon="-8.824661">
        <ele>9.6</ele>
        <time>1970-01-01T00:43:34.000Z</time>
      </trkpt>
      <trkpt lat="42.329242" lon="-8.82464">
        <ele>9.6</ele>
        <time>1970-01-01T00:43:35.000Z</time>
      </trkpt>
      <trkpt lat="42.329242" lon="-8.824621">
        <ele>9.6</ele>
        <time>1970-01-01T00:43:36.000Z</time>
      </trkpt>
      <trkpt lat="42.329244" lon="-8.824605">
        <ele>9.6</ele>
        <time>1970-01-01T00:43:37.000Z</time>
      </trkpt>
      <trkpt lat="42.329245" lon="-8.824587">
        <ele>9.6</ele>
        <time>1970-01-01T00:43:38.000Z</time>
      </trkpt>
      <trkpt lat="42.329245" lon="-8.824566">
        <ele>9.6</ele>
        <time>1970-01-01T00:43:39.000Z</time>
      </trkpt>
      <trkpt lat="42.329245" lon="-8.82455">
        <ele>9.6</ele>
        <time>1970-01-01T00:43:40.000Z</time>
      </trkpt>
      <trkpt lat="42.329226" lon="-8.824529">
        <ele>9.6</ele>
        <time>1970-01-01T00:43:41.000Z</time>
      </trkpt>
      <trkpt lat="42.329216" lon="-8.824506">
        <ele>9.8</ele>
        <time>1970-01-01T00:43:42.000Z</time>
      </trkpt>
      <trkpt lat="42.329213" lon="-8.824487">
        <ele>10.2</ele>
        <time>1970-01-01T00:43:43.000Z</time>
      </trkpt>
      <trkpt lat="42.32921" lon="-8.82447">
        <ele>10.4</ele>
        <time>1970-01-01T00:43:44.000Z</time>
      </trkpt>
      <trkpt lat="42.329206" lon="-8.824446">
        <ele>10.6</ele>
        <time>1970-01-01T00:43:45.000Z</time>
      </trkpt>
      <trkpt lat="42.329205" lon="-8.82443">
        <ele>10.6</ele>
        <time>1970-01-01T00:43:46.000Z</time>
      </trkpt>
      <trkpt lat="42.329206" lon="-8.824412">
        <ele>10.6</ele>
        <time>1970-01-01T00:43:47.000Z</time>
      </trkpt>
      <trkpt lat="42.329207" lon="-8.824391">
        <ele>10.6</ele>
        <time>1970-01-01T00:43:48.000Z</time>
      </trkpt>
      <trkpt lat="42.329206" lon="-8.824377">
        <ele>11</ele>
        <time>1970-01-01T00:43:49.000Z</time>
      </trkpt>
      <trkpt lat="42.329209" lon="-8.824364">
        <ele>11</ele>
        <time>1970-01-01T00:43:50.000Z</time>
      </trkpt>
      <trkpt lat="42.329214" lon="-8.824351">
        <ele>11.2</ele>
        <time>1970-01-01T00:43:51.000Z</time>
      </trkpt>
      <trkpt lat="42.329219" lon="-8.824339">
        <ele>11.4</ele>
        <time>1970-01-01T00:43:52.000Z</time>
      </trkpt>
      <trkpt lat="42.329229" lon="-8.824328">
        <ele>11.4</ele>
        <time>1970-01-01T00:43:53.000Z</time>
      </trkpt>
      <trkpt lat="42.329237" lon="-8.824315">
        <ele>11.4</ele>
        <time>1970-01-01T00:43:54.000Z</time>
      </trkpt>
      <trkpt lat="42.329246" lon="-8.824301">
        <ele>11.6</ele>
        <time>1970-01-01T00:43:55.000Z</time>
      </trkpt>
      <trkpt lat="42.32925" lon="-8.824286">
        <ele>11.6</ele>
        <time>1970-01-01T00:43:56.000Z</time>
      </trkpt>
      <trkpt lat="42.329257" lon="-8.824264">
        <ele>11.8</ele>
        <time>1970-01-01T00:43:57.000Z</time>
      </trkpt>
      <trkpt lat="42.329259" lon="-8.824245">
        <ele>12</ele>
        <time>1970-01-01T00:43:58.000Z</time>
      </trkpt>
      <trkpt lat="42.329259" lon="-8.824223">
        <ele>12</ele>
        <time>1970-01-01T00:43:59.000Z</time>
      </trkpt>
      <trkpt lat="42.329261" lon="-8.824204">
        <ele>12</ele>
        <time>1970-01-01T00:44:00.000Z</time>
      </trkpt>
      <trkpt lat="42.329262" lon="-8.824186">
        <ele>12</ele>
        <time>1970-01-01T00:44:01.000Z</time>
      </trkpt>
      <trkpt lat="42.329262" lon="-8.82417">
        <ele>12</ele>
        <time>1970-01-01T00:44:02.000Z</time>
      </trkpt>
      <trkpt lat="42.329262" lon="-8.824155">
        <ele>12.2</ele>
        <time>1970-01-01T00:44:03.000Z</time>
      </trkpt>
      <trkpt lat="42.329262" lon="-8.824139">
        <ele>12.2</ele>
        <time>1970-01-01T00:44:04.000Z</time>
      </trkpt>
      <trkpt lat="42.329261" lon="-8.824125">
        <ele>12.2</ele>
        <time>1970-01-01T00:44:05.000Z</time>
      </trkpt>
      <trkpt lat="42.329259" lon="-8.824113">
        <ele>12.4</ele>
        <time>1970-01-01T00:44:06.000Z</time>
      </trkpt>
      <trkpt lat="42.329259" lon="-8.824101">
        <ele>12.6</ele>
        <time>1970-01-01T00:44:07.000Z</time>
      </trkpt>
      <trkpt lat="42.329257" lon="-8.82409">
        <ele>12.8</ele>
        <time>1970-01-01T00:44:08.000Z</time>
      </trkpt>
      <trkpt lat="42.329253" lon="-8.824079">
        <ele>13</ele>
        <time>1970-01-01T00:44:09.000Z</time>
      </trkpt>
      <trkpt lat="42.32925" lon="-8.824068">
        <ele>13</ele>
        <time>1970-01-01T00:44:10.000Z</time>
      </trkpt>
      <trkpt lat="42.329246" lon="-8.824056">
        <ele>13.2</ele>
        <time>1970-01-01T00:44:11.000Z</time>
      </trkpt>
      <trkpt lat="42.329244" lon="-8.824046">
        <ele>13.2</ele>
        <time>1970-01-01T00:44:12.000Z</time>
      </trkpt>
      <trkpt lat="42.32924" lon="-8.824037">
        <ele>13.4</ele>
        <time>1970-01-01T00:44:13.000Z</time>
      </trkpt>
      <trkpt lat="42.329238" lon="-8.824026">
        <ele>13.6</ele>
        <time>1970-01-01T00:44:14.000Z</time>
      </trkpt>
      <trkpt lat="42.329236" lon="-8.824016">
        <ele>13.6</ele>
        <time>1970-01-01T00:44:15.000Z</time>
      </trkpt>
      <trkpt lat="42.329234" lon="-8.824004">
        <ele>13.8</ele>
        <time>1970-01-01T00:44:16.000Z</time>
      </trkpt>
      <trkpt lat="42.329234" lon="-8.823991">
        <ele>13.8</ele>
        <time>1970-01-01T00:44:17.000Z</time>
      </trkpt>
      <trkpt lat="42.329237" lon="-8.823977">
        <ele>13.8</ele>
        <time>1970-01-01T00:44:18.000Z</time>
      </trkpt>
      <trkpt lat="42.329238" lon="-8.823965">
        <ele>13.8</ele>
        <time>1970-01-01T00:44:19.000Z</time>
      </trkpt>
      <trkpt lat="42.329241" lon="-8.823955">
        <ele>14</ele>
        <time>1970-01-01T00:44:20.000Z</time>
      </trkpt>
      <trkpt lat="42.329245" lon="-8.823942">
        <ele>14.2</ele>
        <time>1970-01-01T00:44:21.000Z</time>
      </trkpt>
      <trkpt lat="42.32925" lon="-8.823933">
        <ele>14.6</ele>
        <time>1970-01-01T00:44:22.000Z</time>
      </trkpt>
      <trkpt lat="42.329257" lon="-8.823923">
        <ele>14.6</ele>
        <time>1970-01-01T00:44:23.000Z</time>
      </trkpt>
      <trkpt lat="42.329263" lon="-8.823912">
        <ele>15.2</ele>
        <time>1970-01-01T00:44:24.000Z</time>
      </trkpt>
      <trkpt lat="42.32927" lon="-8.823902">
        <ele>15.6</ele>
        <time>1970-01-01T00:44:25.000Z</time>
      </trkpt>
      <trkpt lat="42.329276" lon="-8.823891">
        <ele>15.8</ele>
        <time>1970-01-01T00:44:26.000Z</time>
      </trkpt>
      <trkpt lat="42.329282" lon="-8.823877">
        <ele>16</ele>
        <time>1970-01-01T00:44:27.000Z</time>
      </trkpt>
      <trkpt lat="42.329289" lon="-8.823862">
        <ele>16</ele>
        <time>1970-01-01T00:44:28.000Z</time>
      </trkpt>
      <trkpt lat="42.329293" lon="-8.823849">
        <ele>16.2</ele>
        <time>1970-01-01T00:44:29.000Z</time>
      </trkpt>
      <trkpt lat="42.329298" lon="-8.823836">
        <ele>16.4</ele>
        <time>1970-01-01T00:44:30.000Z</time>
      </trkpt>
      <trkpt lat="42.329302" lon="-8.823822">
        <ele>16.4</ele>
        <time>1970-01-01T00:44:31.000Z</time>
      </trkpt>
      <trkpt lat="42.329308" lon="-8.823813">
        <ele>16.8</ele>
        <time>1970-01-01T00:44:32.000Z</time>
      </trkpt>
      <trkpt lat="42.329316" lon="-8.823806">
        <ele>17</ele>
        <time>1970-01-01T00:44:33.000Z</time>
      </trkpt>
      <trkpt lat="42.329323" lon="-8.823799">
        <ele>17.2</ele>
        <time>1970-01-01T00:44:34.000Z</time>
      </trkpt>
      <trkpt lat="42.32933" lon="-8.823787">
        <ele>17.4</ele>
        <time>1970-01-01T00:44:35.000Z</time>
      </trkpt>
      <trkpt lat="42.329337" lon="-8.823776">
        <ele>17.4</ele>
        <time>1970-01-01T00:44:36.000Z</time>
      </trkpt>
      <trkpt lat="42.329343" lon="-8.823767">
        <ele>17.4</ele>
        <time>1970-01-01T00:44:37.000Z</time>
      </trkpt>
      <trkpt lat="42.329349" lon="-8.823758">
        <ele>17.6</ele>
        <time>1970-01-01T00:44:38.000Z</time>
      </trkpt>
      <trkpt lat="42.329359" lon="-8.823751">
        <ele>17.6</ele>
        <time>1970-01-01T00:44:39.000Z</time>
      </trkpt>
      <trkpt lat="42.329374" lon="-8.823743">
        <ele>17.6</ele>
        <time>1970-01-01T00:44:40.000Z</time>
      </trkpt>
      <trkpt lat="42.329382" lon="-8.823738">
        <ele>17.6</ele>
        <time>1970-01-01T00:44:41.000Z</time>
      </trkpt>
      <trkpt lat="42.329391" lon="-8.823735">
        <ele>17.8</ele>
        <time>1970-01-01T00:44:42.000Z</time>
      </trkpt>
      <trkpt lat="42.329398" lon="-8.823729">
        <ele>17.8</ele>
        <time>1970-01-01T00:44:43.000Z</time>
      </trkpt>
      <trkpt lat="42.329407" lon="-8.823719">
        <ele>17.8</ele>
        <time>1970-01-01T00:44:44.000Z</time>
      </trkpt>
      <trkpt lat="42.329417" lon="-8.823706">
        <ele>17.8</ele>
        <time>1970-01-01T00:44:45.000Z</time>
      </trkpt>
      <trkpt lat="42.329427" lon="-8.823691">
        <ele>18</ele>
        <time>1970-01-01T00:44:46.000Z</time>
      </trkpt>
      <trkpt lat="42.329439" lon="-8.823678">
        <ele>18.2</ele>
        <time>1970-01-01T00:44:47.000Z</time>
      </trkpt>
      <trkpt lat="42.329449" lon="-8.823664">
        <ele>18.2</ele>
        <time>1970-01-01T00:44:48.000Z</time>
      </trkpt>
      <trkpt lat="42.32946" lon="-8.82365">
        <ele>18.4</ele>
        <time>1970-01-01T00:44:49.000Z</time>
      </trkpt>
      <trkpt lat="42.32947" lon="-8.823637">
        <ele>18.6</ele>
        <time>1970-01-01T00:44:50.000Z</time>
      </trkpt>
      <trkpt lat="42.329481" lon="-8.823619">
        <ele>18.6</ele>
        <time>1970-01-01T00:44:51.000Z</time>
      </trkpt>
      <trkpt lat="42.329492" lon="-8.823602">
        <ele>18.8</ele>
        <time>1970-01-01T00:44:52.000Z</time>
      </trkpt>
      <trkpt lat="42.329505" lon="-8.823587">
        <ele>18.8</ele>
        <time>1970-01-01T00:44:53.000Z</time>
      </trkpt>
      <trkpt lat="42.329522" lon="-8.823571">
        <ele>19</ele>
        <time>1970-01-01T00:44:54.000Z</time>
      </trkpt>
      <trkpt lat="42.329527" lon="-8.823557">
        <ele>19</ele>
        <time>1970-01-01T00:44:55.000Z</time>
      </trkpt>
      <trkpt lat="42.329534" lon="-8.823538">
        <ele>19.2</ele>
        <time>1970-01-01T00:44:56.000Z</time>
      </trkpt>
      <trkpt lat="42.329538" lon="-8.823524">
        <ele>19.6</ele>
        <time>1970-01-01T00:44:57.000Z</time>
      </trkpt>
      <trkpt lat="42.329546" lon="-8.823512">
        <ele>19.6</ele>
        <time>1970-01-01T00:44:58.000Z</time>
      </trkpt>
      <trkpt lat="42.329556" lon="-8.823501">
        <ele>19.8</ele>
        <time>1970-01-01T00:44:59.000Z</time>
      </trkpt>
      <trkpt lat="42.329569" lon="-8.823487">
        <ele>20.2</ele>
        <time>1970-01-01T00:45:00.000Z</time>
      </trkpt>
      <trkpt lat="42.329581" lon="-8.823474">
        <ele>20.2</ele>
        <time>1970-01-01T00:45:01.000Z</time>
      </trkpt>
      <trkpt lat="42.329591" lon="-8.82347">
        <ele>20.4</ele>
        <time>1970-01-01T00:45:02.000Z</time>
      </trkpt>
      <trkpt lat="42.329599" lon="-8.823461">
        <ele>20.4</ele>
        <time>1970-01-01T00:45:03.000Z</time>
      </trkpt>
      <trkpt lat="42.329611" lon="-8.82345">
        <ele>20.6</ele>
        <time>1970-01-01T00:45:04.000Z</time>
      </trkpt>
      <trkpt lat="42.329619" lon="-8.82345">
        <ele>20.6</ele>
        <time>1970-01-01T00:45:05.000Z</time>
      </trkpt>
      <trkpt lat="42.329624" lon="-8.823446">
        <ele>21.2</ele>
        <time>1970-01-01T00:45:06.000Z</time>
      </trkpt>
      <trkpt lat="42.329629" lon="-8.823435">
        <ele>21.6</ele>
        <time>1970-01-01T00:45:07.000Z</time>
      </trkpt>
      <trkpt lat="42.329633" lon="-8.823424">
        <ele>21.6</ele>
        <time>1970-01-01T00:45:08.000Z</time>
      </trkpt>
      <trkpt lat="42.329639" lon="-8.823411">
        <ele>21.8</ele>
        <time>1970-01-01T00:45:09.000Z</time>
      </trkpt>
      <trkpt lat="42.329645" lon="-8.823397">
        <ele>21.8</ele>
        <time>1970-01-01T00:45:10.000Z</time>
      </trkpt>
      <trkpt lat="42.329654" lon="-8.823384">
        <ele>21.8</ele>
        <time>1970-01-01T00:45:11.000Z</time>
      </trkpt>
      <trkpt lat="42.32966" lon="-8.823372">
        <ele>22</ele>
        <time>1970-01-01T00:45:12.000Z</time>
      </trkpt>
      <trkpt lat="42.32967" lon="-8.823359">
        <ele>22</ele>
        <time>1970-01-01T00:45:13.000Z</time>
      </trkpt>
      <trkpt lat="42.329675" lon="-8.823347">
        <ele>22</ele>
        <time>1970-01-01T00:45:14.000Z</time>
      </trkpt>
      <trkpt lat="42.329681" lon="-8.823335">
        <ele>22</ele>
        <time>1970-01-01T00:45:15.000Z</time>
      </trkpt>
      <trkpt lat="42.329687" lon="-8.823323">
        <ele>22.2</ele>
        <time>1970-01-01T00:45:16.000Z</time>
      </trkpt>
      <trkpt lat="42.329695" lon="-8.823312">
        <ele>22.2</ele>
        <time>1970-01-01T00:45:17.000Z</time>
      </trkpt>
      <trkpt lat="42.329701" lon="-8.823304">
        <ele>22.2</ele>
        <time>1970-01-01T00:45:18.000Z</time>
      </trkpt>
      <trkpt lat="42.329707" lon="-8.823298">
        <ele>22.2</ele>
        <time>1970-01-01T00:45:19.000Z</time>
      </trkpt>
      <trkpt lat="42.329713" lon="-8.823293">
        <ele>22.2</ele>
        <time>1970-01-01T00:45:20.000Z</time>
      </trkpt>
      <trkpt lat="42.329718" lon="-8.823284">
        <ele>22.2</ele>
        <time>1970-01-01T00:45:21.000Z</time>
      </trkpt>
      <trkpt lat="42.329723" lon="-8.823278">
        <ele>22.4</ele>
        <time>1970-01-01T00:45:22.000Z</time>
      </trkpt>
      <trkpt lat="42.329726" lon="-8.823273">
        <ele>22.4</ele>
        <time>1970-01-01T00:45:23.000Z</time>
      </trkpt>
      <trkpt lat="42.329728" lon="-8.823268">
        <ele>22.4</ele>
        <time>1970-01-01T00:45:24.000Z</time>
      </trkpt>
      <trkpt lat="42.329731" lon="-8.823265">
        <ele>22.6</ele>
        <time>1970-01-01T00:45:25.000Z</time>
      </trkpt>
      <trkpt lat="42.329734" lon="-8.823263">
        <ele>22.6</ele>
        <time>1970-01-01T00:45:26.000Z</time>
      </trkpt>
      <trkpt lat="42.329736" lon="-8.823258">
        <ele>22.6</ele>
        <time>1970-01-01T00:45:27.000Z</time>
      </trkpt>
      <trkpt lat="42.329737" lon="-8.823251">
        <ele>22.6</ele>
        <time>1970-01-01T00:45:28.000Z</time>
      </trkpt>
      <trkpt lat="42.32974" lon="-8.823245">
        <ele>22.8</ele>
        <time>1970-01-01T00:45:29.000Z</time>
      </trkpt>
      <trkpt lat="42.329745" lon="-8.823238">
        <ele>23</ele>
        <time>1970-01-01T00:45:30.000Z</time>
      </trkpt>
      <trkpt lat="42.329751" lon="-8.823229">
        <ele>23</ele>
        <time>1970-01-01T00:45:31.000Z</time>
      </trkpt>
      <trkpt lat="42.32976" lon="-8.823212">
        <ele>23.2</ele>
        <time>1970-01-01T00:45:32.000Z</time>
      </trkpt>
      <trkpt lat="42.329769" lon="-8.823193">
        <ele>23.2</ele>
        <time>1970-01-01T00:45:33.000Z</time>
      </trkpt>
      <trkpt lat="42.329777" lon="-8.82318">
        <ele>23.4</ele>
        <time>1970-01-01T00:45:34.000Z</time>
      </trkpt>
      <trkpt lat="42.32979" lon="-8.823166">
        <ele>23.8</ele>
        <time>1970-01-01T00:45:35.000Z</time>
      </trkpt>
      <trkpt lat="42.329797" lon="-8.823155">
        <ele>24</ele>
        <time>1970-01-01T00:45:36.000Z</time>
      </trkpt>
      <trkpt lat="42.329805" lon="-8.823145">
        <ele>24</ele>
        <time>1970-01-01T00:45:37.000Z</time>
      </trkpt>
      <trkpt lat="42.329814" lon="-8.823135">
        <ele>24.2</ele>
        <time>1970-01-01T00:45:38.000Z</time>
      </trkpt>
      <trkpt lat="42.329822" lon="-8.823126">
        <ele>24.2</ele>
        <time>1970-01-01T00:45:39.000Z</time>
      </trkpt>
      <trkpt lat="42.329831" lon="-8.823117">
        <ele>24.4</ele>
        <time>1970-01-01T00:45:40.000Z</time>
      </trkpt>
      <trkpt lat="42.329836" lon="-8.823108">
        <ele>24.6</ele>
        <time>1970-01-01T00:45:41.000Z</time>
      </trkpt>
      <trkpt lat="42.329841" lon="-8.823099">
        <ele>24.6</ele>
        <time>1970-01-01T00:45:42.000Z</time>
      </trkpt>
      <trkpt lat="42.32985" lon="-8.823086">
        <ele>24.8</ele>
        <time>1970-01-01T00:45:43.000Z</time>
      </trkpt>
      <trkpt lat="42.329863" lon="-8.823065">
        <ele>24.8</ele>
        <time>1970-01-01T00:45:44.000Z</time>
      </trkpt>
      <trkpt lat="42.329877" lon="-8.823037">
        <ele>24.8</ele>
        <time>1970-01-01T00:45:45.000Z</time>
      </trkpt>
      <trkpt lat="42.32988" lon="-8.823012">
        <ele>24.8</ele>
        <time>1970-01-01T00:45:46.000Z</time>
      </trkpt>
      <trkpt lat="42.329883" lon="-8.822983">
        <ele>25</ele>
        <time>1970-01-01T00:45:47.000Z</time>
      </trkpt>
      <trkpt lat="42.329886" lon="-8.822962">
        <ele>25.2</ele>
        <time>1970-01-01T00:45:48.000Z</time>
      </trkpt>
      <trkpt lat="42.329888" lon="-8.822944">
        <ele>25.2</ele>
        <time>1970-01-01T00:45:49.000Z</time>
      </trkpt>
      <trkpt lat="42.329888" lon="-8.822931">
        <ele>25.6</ele>
        <time>1970-01-01T00:45:50.000Z</time>
      </trkpt>
      <trkpt lat="42.329888" lon="-8.822915">
        <ele>25.6</ele>
        <time>1970-01-01T00:45:51.000Z</time>
      </trkpt>
      <trkpt lat="42.329888" lon="-8.822899">
        <ele>25.8</ele>
        <time>1970-01-01T00:45:52.000Z</time>
      </trkpt>
      <trkpt lat="42.329887" lon="-8.822882">
        <ele>26</ele>
        <time>1970-01-01T00:45:53.000Z</time>
      </trkpt>
      <trkpt lat="42.329885" lon="-8.822871">
        <ele>26.2</ele>
        <time>1970-01-01T00:45:54.000Z</time>
      </trkpt>
      <trkpt lat="42.329885" lon="-8.822861">
        <ele>26.2</ele>
        <time>1970-01-01T00:45:55.000Z</time>
      </trkpt>
      <trkpt lat="42.329889" lon="-8.822844">
        <ele>26.2</ele>
        <time>1970-01-01T00:45:56.000Z</time>
      </trkpt>
      <trkpt lat="42.329891" lon="-8.822829">
        <ele>26.4</ele>
        <time>1970-01-01T00:45:57.000Z</time>
      </trkpt>
      <trkpt lat="42.329891" lon="-8.822812">
        <ele>26.8</ele>
        <time>1970-01-01T00:45:58.000Z</time>
      </trkpt>
      <trkpt lat="42.329889" lon="-8.822799">
        <ele>27</ele>
        <time>1970-01-01T00:45:59.000Z</time>
      </trkpt>
      <trkpt lat="42.329889" lon="-8.822789">
        <ele>27.2</ele>
        <time>1970-01-01T00:46:00.000Z</time>
      </trkpt>
      <trkpt lat="42.329893" lon="-8.822777">
        <ele>27.6</ele>
        <time>1970-01-01T00:46:01.000Z</time>
      </trkpt>
      <trkpt lat="42.329896" lon="-8.822768">
        <ele>28</ele>
        <time>1970-01-01T00:46:02.000Z</time>
      </trkpt>
      <trkpt lat="42.3299" lon="-8.822758">
        <ele>28.2</ele>
        <time>1970-01-01T00:46:03.000Z</time>
      </trkpt>
      <trkpt lat="42.329908" lon="-8.822742">
        <ele>28.6</ele>
        <time>1970-01-01T00:46:04.000Z</time>
      </trkpt>
      <trkpt lat="42.329918" lon="-8.822722">
        <ele>28.8</ele>
        <time>1970-01-01T00:46:05.000Z</time>
      </trkpt>
      <trkpt lat="42.329923" lon="-8.82271">
        <ele>29.2</ele>
        <time>1970-01-01T00:46:06.000Z</time>
      </trkpt>
      <trkpt lat="42.329929" lon="-8.822695">
        <ele>29.4</ele>
        <time>1970-01-01T00:46:07.000Z</time>
      </trkpt>
      <trkpt lat="42.329937" lon="-8.82268">
        <ele>29.6</ele>
        <time>1970-01-01T00:46:08.000Z</time>
      </trkpt>
      <trkpt lat="42.329943" lon="-8.822668">
        <ele>29.6</ele>
        <time>1970-01-01T00:46:09.000Z</time>
      </trkpt>
      <trkpt lat="42.32995" lon="-8.822651">
        <ele>29.6</ele>
        <time>1970-01-01T00:46:10.000Z</time>
      </trkpt>
      <trkpt lat="42.329956" lon="-8.82264">
        <ele>29.8</ele>
        <time>1970-01-01T00:46:11.000Z</time>
      </trkpt>
      <trkpt lat="42.329959" lon="-8.822628">
        <ele>30</ele>
        <time>1970-01-01T00:46:12.000Z</time>
      </trkpt>
      <trkpt lat="42.329961" lon="-8.822612">
        <ele>30.4</ele>
        <time>1970-01-01T00:46:13.000Z</time>
      </trkpt>
      <trkpt lat="42.329962" lon="-8.822591">
        <ele>30.8</ele>
        <time>1970-01-01T00:46:14.000Z</time>
      </trkpt>
      <trkpt lat="42.329963" lon="-8.822569">
        <ele>31.2</ele>
        <time>1970-01-01T00:46:15.000Z</time>
      </trkpt>
      <trkpt lat="42.329967" lon="-8.82255">
        <ele>31.4</ele>
        <time>1970-01-01T00:46:16.000Z</time>
      </trkpt>
      <trkpt lat="42.329969" lon="-8.822535">
        <ele>31.6</ele>
        <time>1970-01-01T00:46:17.000Z</time>
      </trkpt>
      <trkpt lat="42.329976" lon="-8.822519">
        <ele>32</ele>
        <time>1970-01-01T00:46:18.000Z</time>
      </trkpt>
      <trkpt lat="42.329982" lon="-8.822508">
        <ele>32.2</ele>
        <time>1970-01-01T00:46:19.000Z</time>
      </trkpt>
      <trkpt lat="42.329991" lon="-8.822493">
        <ele>32.4</ele>
        <time>1970-01-01T00:46:20.000Z</time>
      </trkpt>
      <trkpt lat="42.329998" lon="-8.82248">
        <ele>32.6</ele>
        <time>1970-01-01T00:46:21.000Z</time>
      </trkpt>
      <trkpt lat="42.330005" lon="-8.822466">
        <ele>32.8</ele>
        <time>1970-01-01T00:46:22.000Z</time>
      </trkpt>
      <trkpt lat="42.330013" lon="-8.822448">
        <ele>32.8</ele>
        <time>1970-01-01T00:46:23.000Z</time>
      </trkpt>
      <trkpt lat="42.33002" lon="-8.822434">
        <ele>33</ele>
        <time>1970-01-01T00:46:24.000Z</time>
      </trkpt>
      <trkpt lat="42.330024" lon="-8.822419">
        <ele>33</ele>
        <time>1970-01-01T00:46:25.000Z</time>
      </trkpt>
      <trkpt lat="42.330025" lon="-8.822404">
        <ele>33.2</ele>
        <time>1970-01-01T00:46:26.000Z</time>
      </trkpt>
      <trkpt lat="42.330028" lon="-8.822395">
        <ele>33.4</ele>
        <time>1970-01-01T00:46:27.000Z</time>
      </trkpt>
      <trkpt lat="42.330031" lon="-8.822384">
        <ele>33.6</ele>
        <time>1970-01-01T00:46:28.000Z</time>
      </trkpt>
      <trkpt lat="42.330036" lon="-8.822369">
        <ele>33.6</ele>
        <time>1970-01-01T00:46:29.000Z</time>
      </trkpt>
      <trkpt lat="42.330041" lon="-8.822358">
        <ele>33.8</ele>
        <time>1970-01-01T00:46:30.000Z</time>
      </trkpt>
      <trkpt lat="42.330045" lon="-8.822345">
        <ele>34</ele>
        <time>1970-01-01T00:46:31.000Z</time>
      </trkpt>
      <trkpt lat="42.330049" lon="-8.822332">
        <ele>34.2</ele>
        <time>1970-01-01T00:46:32.000Z</time>
      </trkpt>
      <trkpt lat="42.330054" lon="-8.822321">
        <ele>34.2</ele>
        <time>1970-01-01T00:46:33.000Z</time>
      </trkpt>
      <trkpt lat="42.330057" lon="-8.822313">
        <ele>34.2</ele>
        <time>1970-01-01T00:46:34.000Z</time>
      </trkpt>
      <trkpt lat="42.330061" lon="-8.822304">
        <ele>34.2</ele>
        <time>1970-01-01T00:46:35.000Z</time>
      </trkpt>
      <trkpt lat="42.330064" lon="-8.822292">
        <ele>34.2</ele>
        <time>1970-01-01T00:46:36.000Z</time>
      </trkpt>
      <trkpt lat="42.33007" lon="-8.822277">
        <ele>34.6</ele>
        <time>1970-01-01T00:46:37.000Z</time>
      </trkpt>
      <trkpt lat="42.330078" lon="-8.822264">
        <ele>35</ele>
        <time>1970-01-01T00:46:38.000Z</time>
      </trkpt>
      <trkpt lat="42.330087" lon="-8.822252">
        <ele>35.4</ele>
        <time>1970-01-01T00:46:39.000Z</time>
      </trkpt>
      <trkpt lat="42.330097" lon="-8.822239">
        <ele>35.6</ele>
        <time>1970-01-01T00:46:40.000Z</time>
      </trkpt>
      <trkpt lat="42.330105" lon="-8.822227">
        <ele>35.8</ele>
        <time>1970-01-01T00:46:41.000Z</time>
      </trkpt>
      <trkpt lat="42.330109" lon="-8.822213">
        <ele>36</ele>
        <time>1970-01-01T00:46:42.000Z</time>
      </trkpt>
      <trkpt lat="42.33011" lon="-8.822199">
        <ele>36</ele>
        <time>1970-01-01T00:46:43.000Z</time>
      </trkpt>
      <trkpt lat="42.330111" lon="-8.822186">
        <ele>36.2</ele>
        <time>1970-01-01T00:46:44.000Z</time>
      </trkpt>
      <trkpt lat="42.330114" lon="-8.822172">
        <ele>36.2</ele>
        <time>1970-01-01T00:46:45.000Z</time>
      </trkpt>
      <trkpt lat="42.330116" lon="-8.822157">
        <ele>36.6</ele>
        <time>1970-01-01T00:46:46.000Z</time>
      </trkpt>
      <trkpt lat="42.330119" lon="-8.822145">
        <ele>36.6</ele>
        <time>1970-01-01T00:46:47.000Z</time>
      </trkpt>
      <trkpt lat="42.33012" lon="-8.822131">
        <ele>36.8</ele>
        <time>1970-01-01T00:46:48.000Z</time>
      </trkpt>
      <trkpt lat="42.330123" lon="-8.822121">
        <ele>36.8</ele>
        <time>1970-01-01T00:46:49.000Z</time>
      </trkpt>
      <trkpt lat="42.330127" lon="-8.822107">
        <ele>36.8</ele>
        <time>1970-01-01T00:46:50.000Z</time>
      </trkpt>
      <trkpt lat="42.33013" lon="-8.822093">
        <ele>37</ele>
        <time>1970-01-01T00:46:51.000Z</time>
      </trkpt>
      <trkpt lat="42.330131" lon="-8.822085">
        <ele>37.2</ele>
        <time>1970-01-01T00:46:52.000Z</time>
      </trkpt>
      <trkpt lat="42.330133" lon="-8.822073">
        <ele>37.4</ele>
        <time>1970-01-01T00:46:53.000Z</time>
      </trkpt>
      <trkpt lat="42.330135" lon="-8.822064">
        <ele>37.6</ele>
        <time>1970-01-01T00:46:54.000Z</time>
      </trkpt>
      <trkpt lat="42.330136" lon="-8.822055">
        <ele>38</ele>
        <time>1970-01-01T00:46:55.000Z</time>
      </trkpt>
      <trkpt lat="42.330139" lon="-8.822046">
        <ele>38.2</ele>
        <time>1970-01-01T00:46:56.000Z</time>
      </trkpt>
      <trkpt lat="42.330143" lon="-8.822034">
        <ele>38.4</ele>
        <time>1970-01-01T00:46:57.000Z</time>
      </trkpt>
      <trkpt lat="42.330146" lon="-8.822022">
        <ele>38.6</ele>
        <time>1970-01-01T00:46:58.000Z</time>
      </trkpt>
      <trkpt lat="42.330153" lon="-8.82201">
        <ele>39</ele>
        <time>1970-01-01T00:46:59.000Z</time>
      </trkpt>
      <trkpt lat="42.330163" lon="-8.821992">
        <ele>39.2</ele>
        <time>1970-01-01T00:47:00.000Z</time>
      </trkpt>
      <trkpt lat="42.330165" lon="-8.821973">
        <ele>39.2</ele>
        <time>1970-01-01T00:47:01.000Z</time>
      </trkpt>
      <trkpt lat="42.33017" lon="-8.821964">
        <ele>39.4</ele>
        <time>1970-01-01T00:47:02.000Z</time>
      </trkpt>
      <trkpt lat="42.330174" lon="-8.821953">
        <ele>39.6</ele>
        <time>1970-01-01T00:47:03.000Z</time>
      </trkpt>
      <trkpt lat="42.330181" lon="-8.82194">
        <ele>40</ele>
        <time>1970-01-01T00:47:04.000Z</time>
      </trkpt>
      <trkpt lat="42.330186" lon="-8.821929">
        <ele>40</ele>
        <time>1970-01-01T00:47:05.000Z</time>
      </trkpt>
      <trkpt lat="42.330196" lon="-8.821913">
        <ele>40.2</ele>
        <time>1970-01-01T00:47:06.000Z</time>
      </trkpt>
      <trkpt lat="42.330201" lon="-8.821902">
        <ele>40.2</ele>
        <time>1970-01-01T00:47:07.000Z</time>
      </trkpt>
      <trkpt lat="42.330208" lon="-8.821894">
        <ele>40</ele>
        <time>1970-01-01T00:47:08.000Z</time>
      </trkpt>
      <trkpt lat="42.330213" lon="-8.821889">
        <ele>40</ele>
        <time>1970-01-01T00:47:09.000Z</time>
      </trkpt>
      <trkpt lat="42.330218" lon="-8.821887">
        <ele>39.8</ele>
        <time>1970-01-01T00:47:10.000Z</time>
      </trkpt>
      <trkpt lat="42.330225" lon="-8.821884">
        <ele>39.8</ele>
        <time>1970-01-01T00:47:11.000Z</time>
      </trkpt>
      <trkpt lat="42.330233" lon="-8.821877">
        <ele>39.6</ele>
        <time>1970-01-01T00:47:12.000Z</time>
      </trkpt>
      <trkpt lat="42.330241" lon="-8.821863">
        <ele>39.4</ele>
        <time>1970-01-01T00:47:13.000Z</time>
      </trkpt>
      <trkpt lat="42.330248" lon="-8.82185">
        <ele>39.4</ele>
        <time>1970-01-01T00:47:14.000Z</time>
      </trkpt>
      <trkpt lat="42.330259" lon="-8.821825">
        <ele>39.2</ele>
        <time>1970-01-01T00:47:15.000Z</time>
      </trkpt>
      <trkpt lat="42.330267" lon="-8.821802">
        <ele>39.2</ele>
        <time>1970-01-01T00:47:16.000Z</time>
      </trkpt>
      <trkpt lat="42.330272" lon="-8.821781">
        <ele>39.2</ele>
        <time>1970-01-01T00:47:17.000Z</time>
      </trkpt>
      <trkpt lat="42.330275" lon="-8.821762">
        <ele>39.2</ele>
        <time>1970-01-01T00:47:18.000Z</time>
      </trkpt>
      <trkpt lat="42.330278" lon="-8.821745">
        <ele>39.2</ele>
        <time>1970-01-01T00:47:19.000Z</time>
      </trkpt>
      <trkpt lat="42.33028" lon="-8.821728">
        <ele>39</ele>
        <time>1970-01-01T00:47:20.000Z</time>
      </trkpt>
      <trkpt lat="42.330282" lon="-8.821714">
        <ele>39.2</ele>
        <time>1970-01-01T00:47:21.000Z</time>
      </trkpt>
      <trkpt lat="42.330285" lon="-8.8217">
        <ele>39.2</ele>
        <time>1970-01-01T00:47:22.000Z</time>
      </trkpt>
      <trkpt lat="42.330289" lon="-8.821686">
        <ele>39.2</ele>
        <time>1970-01-01T00:47:23.000Z</time>
      </trkpt>
      <trkpt lat="42.33029" lon="-8.821667">
        <ele>39.2</ele>
        <time>1970-01-01T00:47:24.000Z</time>
      </trkpt>
      <trkpt lat="42.330292" lon="-8.821648">
        <ele>39.4</ele>
        <time>1970-01-01T00:47:25.000Z</time>
      </trkpt>
      <trkpt lat="42.330295" lon="-8.821631">
        <ele>39.4</ele>
        <time>1970-01-01T00:47:26.000Z</time>
      </trkpt>
      <trkpt lat="42.330299" lon="-8.821617">
        <ele>39.6</ele>
        <time>1970-01-01T00:47:27.000Z</time>
      </trkpt>
      <trkpt lat="42.330302" lon="-8.821599">
        <ele>39.4</ele>
        <time>1970-01-01T00:47:28.000Z</time>
      </trkpt>
      <trkpt lat="42.330308" lon="-8.821574">
        <ele>39.2</ele>
        <time>1970-01-01T00:47:29.000Z</time>
      </trkpt>
      <trkpt lat="42.330313" lon="-8.82156">
        <ele>39</ele>
        <time>1970-01-01T00:47:30.000Z</time>
      </trkpt>
      <trkpt lat="42.330317" lon="-8.821546">
        <ele>39</ele>
        <time>1970-01-01T00:47:31.000Z</time>
      </trkpt>
      <trkpt lat="42.33032" lon="-8.821533">
        <ele>39</ele>
        <time>1970-01-01T00:47:32.000Z</time>
      </trkpt>
      <trkpt lat="42.330329" lon="-8.82152">
        <ele>38.8</ele>
        <time>1970-01-01T00:47:33.000Z</time>
      </trkpt>
      <trkpt lat="42.330338" lon="-8.821508">
        <ele>38.8</ele>
        <time>1970-01-01T00:47:34.000Z</time>
      </trkpt>
      <trkpt lat="42.330344" lon="-8.821488">
        <ele>38.6</ele>
        <time>1970-01-01T00:47:35.000Z</time>
      </trkpt>
      <trkpt lat="42.330345" lon="-8.821467">
        <ele>38.4</ele>
        <time>1970-01-01T00:47:36.000Z</time>
      </trkpt>
      <trkpt lat="42.330347" lon="-8.821441">
        <ele>38.4</ele>
        <time>1970-01-01T00:47:37.000Z</time>
      </trkpt>
      <trkpt lat="42.330352" lon="-8.821418">
        <ele>38.4</ele>
        <time>1970-01-01T00:47:38.000Z</time>
      </trkpt>
      <trkpt lat="42.330357" lon="-8.821403">
        <ele>38.4</ele>
        <time>1970-01-01T00:47:39.000Z</time>
      </trkpt>
      <trkpt lat="42.330364" lon="-8.821383">
        <ele>38.4</ele>
        <time>1970-01-01T00:47:40.000Z</time>
      </trkpt>
      <trkpt lat="42.330372" lon="-8.821366">
        <ele>38.4</ele>
        <time>1970-01-01T00:47:41.000Z</time>
      </trkpt>
      <trkpt lat="42.330381" lon="-8.821351">
        <ele>38.4</ele>
        <time>1970-01-01T00:47:42.000Z</time>
      </trkpt>
      <trkpt lat="42.330387" lon="-8.821338">
        <ele>38.6</ele>
        <time>1970-01-01T00:47:43.000Z</time>
      </trkpt>
      <trkpt lat="42.330393" lon="-8.821325">
        <ele>38.6</ele>
        <time>1970-01-01T00:47:44.000Z</time>
      </trkpt>
      <trkpt lat="42.330402" lon="-8.821306">
        <ele>38.6</ele>
        <time>1970-01-01T00:47:45.000Z</time>
      </trkpt>
      <trkpt lat="42.330411" lon="-8.821286">
        <ele>38.6</ele>
        <time>1970-01-01T00:47:46.000Z</time>
      </trkpt>
      <trkpt lat="42.330421" lon="-8.821269">
        <ele>38.6</ele>
        <time>1970-01-01T00:47:47.000Z</time>
      </trkpt>
      <trkpt lat="42.33043" lon="-8.821254">
        <ele>38.6</ele>
        <time>1970-01-01T00:47:48.000Z</time>
      </trkpt>
      <trkpt lat="42.330435" lon="-8.821239">
        <ele>38.6</ele>
        <time>1970-01-01T00:47:49.000Z</time>
      </trkpt>
      <trkpt lat="42.330443" lon="-8.821227">
        <ele>38.4</ele>
        <time>1970-01-01T00:47:50.000Z</time>
      </trkpt>
      <trkpt lat="42.33045" lon="-8.821215">
        <ele>38.6</ele>
        <time>1970-01-01T00:47:51.000Z</time>
      </trkpt>
      <trkpt lat="42.330455" lon="-8.821203">
        <ele>38.6</ele>
        <time>1970-01-01T00:47:52.000Z</time>
      </trkpt>
      <trkpt lat="42.330459" lon="-8.821188">
        <ele>38.8</ele>
        <time>1970-01-01T00:47:53.000Z</time>
      </trkpt>
      <trkpt lat="42.330461" lon="-8.821174">
        <ele>38.8</ele>
        <time>1970-01-01T00:47:54.000Z</time>
      </trkpt>
      <trkpt lat="42.330462" lon="-8.82116">
        <ele>38.8</ele>
        <time>1970-01-01T00:47:55.000Z</time>
      </trkpt>
      <trkpt lat="42.330465" lon="-8.821146">
        <ele>38.8</ele>
        <time>1970-01-01T00:47:56.000Z</time>
      </trkpt>
      <trkpt lat="42.330469" lon="-8.821137">
        <ele>38.8</ele>
        <time>1970-01-01T00:47:57.000Z</time>
      </trkpt>
      <trkpt lat="42.330474" lon="-8.821124">
        <ele>38.8</ele>
        <time>1970-01-01T00:47:58.000Z</time>
      </trkpt>
      <trkpt lat="42.330482" lon="-8.821109">
        <ele>39</ele>
        <time>1970-01-01T00:47:59.000Z</time>
      </trkpt>
      <trkpt lat="42.33049" lon="-8.821094">
        <ele>39.2</ele>
        <time>1970-01-01T00:48:00.000Z</time>
      </trkpt>
      <trkpt lat="42.330498" lon="-8.821082">
        <ele>39.2</ele>
        <time>1970-01-01T00:48:01.000Z</time>
      </trkpt>
      <trkpt lat="42.330508" lon="-8.821069">
        <ele>39.2</ele>
        <time>1970-01-01T00:48:02.000Z</time>
      </trkpt>
      <trkpt lat="42.330517" lon="-8.821056">
        <ele>39.2</ele>
        <time>1970-01-01T00:48:03.000Z</time>
      </trkpt>
      <trkpt lat="42.330526" lon="-8.821042">
        <ele>39.2</ele>
        <time>1970-01-01T00:48:04.000Z</time>
      </trkpt>
      <trkpt lat="42.330534" lon="-8.821028">
        <ele>39.4</ele>
        <time>1970-01-01T00:48:05.000Z</time>
      </trkpt>
      <trkpt lat="42.330539" lon="-8.82101">
        <ele>39.4</ele>
        <time>1970-01-01T00:48:06.000Z</time>
      </trkpt>
      <trkpt lat="42.330542" lon="-8.820991">
        <ele>39.6</ele>
        <time>1970-01-01T00:48:07.000Z</time>
      </trkpt>
      <trkpt lat="42.330546" lon="-8.820973">
        <ele>40</ele>
        <time>1970-01-01T00:48:08.000Z</time>
      </trkpt>
      <trkpt lat="42.330549" lon="-8.820956">
        <ele>40.2</ele>
        <time>1970-01-01T00:48:09.000Z</time>
      </trkpt>
      <trkpt lat="42.330556" lon="-8.820937">
        <ele>40.2</ele>
        <time>1970-01-01T00:48:10.000Z</time>
      </trkpt>
      <trkpt lat="42.330561" lon="-8.82092">
        <ele>40.2</ele>
        <time>1970-01-01T00:48:11.000Z</time>
      </trkpt>
      <trkpt lat="42.330564" lon="-8.820905">
        <ele>40.2</ele>
        <time>1970-01-01T00:48:12.000Z</time>
      </trkpt>
      <trkpt lat="42.330568" lon="-8.820889">
        <ele>40.4</ele>
        <time>1970-01-01T00:48:13.000Z</time>
      </trkpt>
      <trkpt lat="42.330572" lon="-8.820875">
        <ele>40.4</ele>
        <time>1970-01-01T00:48:14.000Z</time>
      </trkpt>
      <trkpt lat="42.330578" lon="-8.820866">
        <ele>40.6</ele>
        <time>1970-01-01T00:48:15.000Z</time>
      </trkpt>
      <trkpt lat="42.330583" lon="-8.820856">
        <ele>40.8</ele>
        <time>1970-01-01T00:48:16.000Z</time>
      </trkpt>
      <trkpt lat="42.330586" lon="-8.820845">
        <ele>41.2</ele>
        <time>1970-01-01T00:48:17.000Z</time>
      </trkpt>
      <trkpt lat="42.33059" lon="-8.820838">
        <ele>41.4</ele>
        <time>1970-01-01T00:48:18.000Z</time>
      </trkpt>
      <trkpt lat="42.330592" lon="-8.820829">
        <ele>41.6</ele>
        <time>1970-01-01T00:48:19.000Z</time>
      </trkpt>
      <trkpt lat="42.330592" lon="-8.820824">
        <ele>41.8</ele>
        <time>1970-01-01T00:48:20.000Z</time>
      </trkpt>
      <trkpt lat="42.330592" lon="-8.820815">
        <ele>42.2</ele>
        <time>1970-01-01T00:48:21.000Z</time>
      </trkpt>
      <trkpt lat="42.330591" lon="-8.820802">
        <ele>42.6</ele>
        <time>1970-01-01T00:48:22.000Z</time>
      </trkpt>
      <trkpt lat="42.330588" lon="-8.820786">
        <ele>42.8</ele>
        <time>1970-01-01T00:48:23.000Z</time>
      </trkpt>
      <trkpt lat="42.330584" lon="-8.82077">
        <ele>43</ele>
        <time>1970-01-01T00:48:24.000Z</time>
      </trkpt>
      <trkpt lat="42.330579" lon="-8.820752">
        <ele>43.2</ele>
        <time>1970-01-01T00:48:25.000Z</time>
      </trkpt>
      <trkpt lat="42.330576" lon="-8.820736">
        <ele>43.6</ele>
        <time>1970-01-01T00:48:26.000Z</time>
      </trkpt>
      <trkpt lat="42.330576" lon="-8.820722">
        <ele>44</ele>
        <time>1970-01-01T00:48:27.000Z</time>
      </trkpt>
      <trkpt lat="42.330575" lon="-8.820707">
        <ele>44.4</ele>
        <time>1970-01-01T00:48:28.000Z</time>
      </trkpt>
      <trkpt lat="42.330571" lon="-8.820693">
        <ele>44.4</ele>
        <time>1970-01-01T00:48:29.000Z</time>
      </trkpt>
      <trkpt lat="42.33057" lon="-8.82068">
        <ele>44.6</ele>
        <time>1970-01-01T00:48:30.000Z</time>
      </trkpt>
      <trkpt lat="42.330568" lon="-8.82067">
        <ele>44.8</ele>
        <time>1970-01-01T00:48:31.000Z</time>
      </trkpt>
      <trkpt lat="42.330569" lon="-8.820661">
        <ele>45.2</ele>
        <time>1970-01-01T00:48:32.000Z</time>
      </trkpt>
      <trkpt lat="42.330565" lon="-8.820648">
        <ele>45.6</ele>
        <time>1970-01-01T00:48:33.000Z</time>
      </trkpt>
      <trkpt lat="42.330562" lon="-8.820633">
        <ele>45.8</ele>
        <time>1970-01-01T00:48:34.000Z</time>
      </trkpt>
      <trkpt lat="42.330559" lon="-8.820618">
        <ele>46</ele>
        <time>1970-01-01T00:48:35.000Z</time>
      </trkpt>
      <trkpt lat="42.330556" lon="-8.820603">
        <ele>46.4</ele>
        <time>1970-01-01T00:48:36.000Z</time>
      </trkpt>
      <trkpt lat="42.330553" lon="-8.820584">
        <ele>46.8</ele>
        <time>1970-01-01T00:48:37.000Z</time>
      </trkpt>
      <trkpt lat="42.330549" lon="-8.820567">
        <ele>46.8</ele>
        <time>1970-01-01T00:48:38.000Z</time>
      </trkpt>
      <trkpt lat="42.330552" lon="-8.820549">
        <ele>47.2</ele>
        <time>1970-01-01T00:48:39.000Z</time>
      </trkpt>
      <trkpt lat="42.330556" lon="-8.820533">
        <ele>47.4</ele>
        <time>1970-01-01T00:48:40.000Z</time>
      </trkpt>
      <trkpt lat="42.330571" lon="-8.820516">
        <ele>47.6</ele>
        <time>1970-01-01T00:48:41.000Z</time>
      </trkpt>
      <trkpt lat="42.330566" lon="-8.820488">
        <ele>47.6</ele>
        <time>1970-01-01T00:48:42.000Z</time>
      </trkpt>
      <trkpt lat="42.330566" lon="-8.820474">
        <ele>47.8</ele>
        <time>1970-01-01T00:48:43.000Z</time>
      </trkpt>
      <trkpt lat="42.330564" lon="-8.820459">
        <ele>47.8</ele>
        <time>1970-01-01T00:48:44.000Z</time>
      </trkpt>
      <trkpt lat="42.33056" lon="-8.820445">
        <ele>48</ele>
        <time>1970-01-01T00:48:45.000Z</time>
      </trkpt>
      <trkpt lat="42.33056" lon="-8.820435">
        <ele>48.4</ele>
        <time>1970-01-01T00:48:46.000Z</time>
      </trkpt>
      <trkpt lat="42.33056" lon="-8.820424">
        <ele>48.6</ele>
        <time>1970-01-01T00:48:47.000Z</time>
      </trkpt>
      <trkpt lat="42.330559" lon="-8.820418">
        <ele>48.6</ele>
        <time>1970-01-01T00:48:48.000Z</time>
      </trkpt>
      <trkpt lat="42.330562" lon="-8.82041">
        <ele>49</ele>
        <time>1970-01-01T00:48:49.000Z</time>
      </trkpt>
      <trkpt lat="42.330564" lon="-8.820402">
        <ele>49</ele>
        <time>1970-01-01T00:48:50.000Z</time>
      </trkpt>
      <trkpt lat="42.330568" lon="-8.820391">
        <ele>49.2</ele>
        <time>1970-01-01T00:48:51.000Z</time>
      </trkpt>
      <trkpt lat="42.330572" lon="-8.820378">
        <ele>49.4</ele>
        <time>1970-01-01T00:48:52.000Z</time>
      </trkpt>
      <trkpt lat="42.330575" lon="-8.820365">
        <ele>49.8</ele>
        <time>1970-01-01T00:48:53.000Z</time>
      </trkpt>
      <trkpt lat="42.330577" lon="-8.820347">
        <ele>50</ele>
        <time>1970-01-01T00:48:54.000Z</time>
      </trkpt>
      <trkpt lat="42.330579" lon="-8.82033">
        <ele>50.2</ele>
        <time>1970-01-01T00:48:55.000Z</time>
      </trkpt>
      <trkpt lat="42.33058" lon="-8.820312">
        <ele>50.4</ele>
        <time>1970-01-01T00:48:56.000Z</time>
      </trkpt>
      <trkpt lat="42.330582" lon="-8.820295">
        <ele>50.8</ele>
        <time>1970-01-01T00:48:57.000Z</time>
      </trkpt>
      <trkpt lat="42.330584" lon="-8.820281">
        <ele>51</ele>
        <time>1970-01-01T00:48:58.000Z</time>
      </trkpt>
      <trkpt lat="42.330586" lon="-8.82027">
        <ele>51.2</ele>
        <time>1970-01-01T00:48:59.000Z</time>
      </trkpt>
      <trkpt lat="42.330587" lon="-8.820259">
        <ele>51.4</ele>
        <time>1970-01-01T00:49:00.000Z</time>
      </trkpt>
      <trkpt lat="42.33059" lon="-8.820246">
        <ele>51.6</ele>
        <time>1970-01-01T00:49:01.000Z</time>
      </trkpt>
      <trkpt lat="42.330594" lon="-8.820236">
        <ele>51.6</ele>
        <time>1970-01-01T00:49:02.000Z</time>
      </trkpt>
      <trkpt lat="42.330598" lon="-8.820228">
        <ele>51.6</ele>
        <time>1970-01-01T00:49:03.000Z</time>
      </trkpt>
      <trkpt lat="42.330602" lon="-8.820226">
        <ele>51.6</ele>
        <time>1970-01-01T00:49:04.000Z</time>
      </trkpt>
      <trkpt lat="42.330604" lon="-8.820219">
        <ele>51.6</ele>
        <time>1970-01-01T00:49:05.000Z</time>
      </trkpt>
      <trkpt lat="42.330607" lon="-8.820213">
        <ele>51.8</ele>
        <time>1970-01-01T00:49:06.000Z</time>
      </trkpt>
      <trkpt lat="42.33061" lon="-8.820204">
        <ele>51.8</ele>
        <time>1970-01-01T00:49:07.000Z</time>
      </trkpt>
      <trkpt lat="42.330611" lon="-8.820192">
        <ele>52.2</ele>
        <time>1970-01-01T00:49:08.000Z</time>
      </trkpt>
      <trkpt lat="42.330611" lon="-8.820179">
        <ele>52.4</ele>
        <time>1970-01-01T00:49:09.000Z</time>
      </trkpt>
      <trkpt lat="42.330609" lon="-8.820166">
        <ele>52.6</ele>
        <time>1970-01-01T00:49:10.000Z</time>
      </trkpt>
      <trkpt lat="42.330611" lon="-8.820158">
        <ele>52.8</ele>
        <time>1970-01-01T00:49:11.000Z</time>
      </trkpt>
      <trkpt lat="42.330614" lon="-8.820155">
        <ele>53</ele>
        <time>1970-01-01T00:49:12.000Z</time>
      </trkpt>
      <trkpt lat="42.330618" lon="-8.820152">
        <ele>53.2</ele>
        <time>1970-01-01T00:49:13.000Z</time>
      </trkpt>
      <trkpt lat="42.330624" lon="-8.820152">
        <ele>53.4</ele>
        <time>1970-01-01T00:49:14.000Z</time>
      </trkpt>
      <trkpt lat="42.33063" lon="-8.820147">
        <ele>53.8</ele>
        <time>1970-01-01T00:49:15.000Z</time>
      </trkpt>
      <trkpt lat="42.330633" lon="-8.820142">
        <ele>54</ele>
        <time>1970-01-01T00:49:16.000Z</time>
      </trkpt>
      <trkpt lat="42.330645" lon="-8.82013">
        <ele>54.2</ele>
        <time>1970-01-01T00:49:17.000Z</time>
      </trkpt>
      <trkpt lat="42.330654" lon="-8.820115">
        <ele>54.4</ele>
        <time>1970-01-01T00:49:18.000Z</time>
      </trkpt>
      <trkpt lat="42.33066" lon="-8.820103">
        <ele>54.6</ele>
        <time>1970-01-01T00:49:19.000Z</time>
      </trkpt>
      <trkpt lat="42.330665" lon="-8.820092">
        <ele>54.6</ele>
        <time>1970-01-01T00:49:20.000Z</time>
      </trkpt>
      <trkpt lat="42.33067" lon="-8.82008">
        <ele>54.6</ele>
        <time>1970-01-01T00:49:21.000Z</time>
      </trkpt>
      <trkpt lat="42.330676" lon="-8.820067">
        <ele>54.4</ele>
        <time>1970-01-01T00:49:22.000Z</time>
      </trkpt>
      <trkpt lat="42.33068" lon="-8.820051">
        <ele>54.4</ele>
        <time>1970-01-01T00:49:23.000Z</time>
      </trkpt>
      <trkpt lat="42.330686" lon="-8.820038">
        <ele>54.4</ele>
        <time>1970-01-01T00:49:24.000Z</time>
      </trkpt>
      <trkpt lat="42.330691" lon="-8.820026">
        <ele>54.4</ele>
        <time>1970-01-01T00:49:25.000Z</time>
      </trkpt>
      <trkpt lat="42.330695" lon="-8.820013">
        <ele>54.6</ele>
        <time>1970-01-01T00:49:26.000Z</time>
      </trkpt>
      <trkpt lat="42.330703" lon="-8.82">
        <ele>55</ele>
        <time>1970-01-01T00:49:27.000Z</time>
      </trkpt>
      <trkpt lat="42.330714" lon="-8.819982">
        <ele>55.2</ele>
        <time>1970-01-01T00:49:28.000Z</time>
      </trkpt>
      <trkpt lat="42.33072" lon="-8.819972">
        <ele>55.6</ele>
        <time>1970-01-01T00:49:29.000Z</time>
      </trkpt>
      <trkpt lat="42.330727" lon="-8.819958">
        <ele>56</ele>
        <time>1970-01-01T00:49:30.000Z</time>
      </trkpt>
      <trkpt lat="42.330735" lon="-8.819942">
        <ele>56.2</ele>
        <time>1970-01-01T00:49:31.000Z</time>
      </trkpt>
      <trkpt lat="42.33074" lon="-8.819925">
        <ele>56.4</ele>
        <time>1970-01-01T00:49:32.000Z</time>
      </trkpt>
      <trkpt lat="42.330747" lon="-8.819911">
        <ele>56.6</ele>
        <time>1970-01-01T00:49:33.000Z</time>
      </trkpt>
      <trkpt lat="42.330756" lon="-8.819894">
        <ele>56.6</ele>
        <time>1970-01-01T00:49:34.000Z</time>
      </trkpt>
      <trkpt lat="42.330764" lon="-8.819875">
        <ele>56.6</ele>
        <time>1970-01-01T00:49:35.000Z</time>
      </trkpt>
      <trkpt lat="42.330773" lon="-8.819859">
        <ele>56.6</ele>
        <time>1970-01-01T00:49:36.000Z</time>
      </trkpt>
      <trkpt lat="42.330779" lon="-8.819844">
        <ele>56.6</ele>
        <time>1970-01-01T00:49:37.000Z</time>
      </trkpt>
      <trkpt lat="42.330788" lon="-8.819828">
        <ele>56.8</ele>
        <time>1970-01-01T00:49:38.000Z</time>
      </trkpt>
      <trkpt lat="42.330794" lon="-8.819816">
        <ele>57.4</ele>
        <time>1970-01-01T00:49:39.000Z</time>
      </trkpt>
      <trkpt lat="42.330799" lon="-8.819797">
        <ele>57.6</ele>
        <time>1970-01-01T00:49:40.000Z</time>
      </trkpt>
      <trkpt lat="42.330803" lon="-8.819784">
        <ele>57.8</ele>
        <time>1970-01-01T00:49:41.000Z</time>
      </trkpt>
      <trkpt lat="42.330804" lon="-8.819771">
        <ele>58.2</ele>
        <time>1970-01-01T00:49:42.000Z</time>
      </trkpt>
      <trkpt lat="42.330804" lon="-8.819753">
        <ele>58.2</ele>
        <time>1970-01-01T00:49:43.000Z</time>
      </trkpt>
      <trkpt lat="42.330806" lon="-8.819725">
        <ele>58.6</ele>
        <time>1970-01-01T00:49:44.000Z</time>
      </trkpt>
      <trkpt lat="42.330806" lon="-8.819706">
        <ele>58.8</ele>
        <time>1970-01-01T00:49:45.000Z</time>
      </trkpt>
      <trkpt lat="42.330806" lon="-8.81969">
        <ele>59</ele>
        <time>1970-01-01T00:49:46.000Z</time>
      </trkpt>
      <trkpt lat="42.330807" lon="-8.819673">
        <ele>59.2</ele>
        <time>1970-01-01T00:49:47.000Z</time>
      </trkpt>
      <trkpt lat="42.330814" lon="-8.819652">
        <ele>59.4</ele>
        <time>1970-01-01T00:49:48.000Z</time>
      </trkpt>
      <trkpt lat="42.330813" lon="-8.819632">
        <ele>59.6</ele>
        <time>1970-01-01T00:49:49.000Z</time>
      </trkpt>
      <trkpt lat="42.330812" lon="-8.819614">
        <ele>59.6</ele>
        <time>1970-01-01T00:49:50.000Z</time>
      </trkpt>
      <trkpt lat="42.330807" lon="-8.819599">
        <ele>59.6</ele>
        <time>1970-01-01T00:49:51.000Z</time>
      </trkpt>
      <trkpt lat="42.3308" lon="-8.81959">
        <ele>60</ele>
        <time>1970-01-01T00:49:52.000Z</time>
      </trkpt>
      <trkpt lat="42.330792" lon="-8.819585">
        <ele>60</ele>
        <time>1970-01-01T00:49:53.000Z</time>
      </trkpt>
      <trkpt lat="42.330783" lon="-8.81958">
        <ele>60.2</ele>
        <time>1970-01-01T00:49:54.000Z</time>
      </trkpt>
      <trkpt lat="42.330772" lon="-8.819575">
        <ele>60.2</ele>
        <time>1970-01-01T00:49:55.000Z</time>
      </trkpt>
      <trkpt lat="42.330757" lon="-8.819571">
        <ele>60.4</ele>
        <time>1970-01-01T00:49:56.000Z</time>
      </trkpt>
      <trkpt lat="42.330742" lon="-8.819568">
        <ele>60.4</ele>
        <time>1970-01-01T00:49:57.000Z</time>
      </trkpt>
      <trkpt lat="42.330729" lon="-8.819567">
        <ele>60.6</ele>
        <time>1970-01-01T00:49:58.000Z</time>
      </trkpt>
      <trkpt lat="42.330717" lon="-8.819567">
        <ele>61</ele>
        <time>1970-01-01T00:49:59.000Z</time>
      </trkpt>
      <trkpt lat="42.330704" lon="-8.819564">
        <ele>61.2</ele>
        <time>1970-01-01T00:50:00.000Z</time>
      </trkpt>
      <trkpt lat="42.330692" lon="-8.81956">
        <ele>61.4</ele>
        <time>1970-01-01T00:50:01.000Z</time>
      </trkpt>
      <trkpt lat="42.33068" lon="-8.819558">
        <ele>61.4</ele>
        <time>1970-01-01T00:50:02.000Z</time>
      </trkpt>
      <trkpt lat="42.330669" lon="-8.819553">
        <ele>61.4</ele>
        <time>1970-01-01T00:50:03.000Z</time>
      </trkpt>
      <trkpt lat="42.330659" lon="-8.819546">
        <ele>61.6</ele>
        <time>1970-01-01T00:50:04.000Z</time>
      </trkpt>
      <trkpt lat="42.33065" lon="-8.81954">
        <ele>61.6</ele>
        <time>1970-01-01T00:50:05.000Z</time>
      </trkpt>
      <trkpt lat="42.33064" lon="-8.819534">
        <ele>61.6</ele>
        <time>1970-01-01T00:50:06.000Z</time>
      </trkpt>
      <trkpt lat="42.330632" lon="-8.819525">
        <ele>61.8</ele>
        <time>1970-01-01T00:50:07.000Z</time>
      </trkpt>
      <trkpt lat="42.330622" lon="-8.819514">
        <ele>62</ele>
        <time>1970-01-01T00:50:08.000Z</time>
      </trkpt>
      <trkpt lat="42.330613" lon="-8.819504">
        <ele>62</ele>
        <time>1970-01-01T00:50:09.000Z</time>
      </trkpt>
      <trkpt lat="42.330604" lon="-8.819494">
        <ele>62</ele>
        <time>1970-01-01T00:50:10.000Z</time>
      </trkpt>
      <trkpt lat="42.330595" lon="-8.819485">
        <ele>61.8</ele>
        <time>1970-01-01T00:50:11.000Z</time>
      </trkpt>
      <trkpt lat="42.330584" lon="-8.819477">
        <ele>62</ele>
        <time>1970-01-01T00:50:12.000Z</time>
      </trkpt>
      <trkpt lat="42.330574" lon="-8.819473">
        <ele>62</ele>
        <time>1970-01-01T00:50:13.000Z</time>
      </trkpt>
      <trkpt lat="42.330563" lon="-8.819471">
        <ele>62</ele>
        <time>1970-01-01T00:50:14.000Z</time>
      </trkpt>
      <trkpt lat="42.33055" lon="-8.81947">
        <ele>62.2</ele>
        <time>1970-01-01T00:50:15.000Z</time>
      </trkpt>
      <trkpt lat="42.330538" lon="-8.819464">
        <ele>62.2</ele>
        <time>1970-01-01T00:50:16.000Z</time>
      </trkpt>
      <trkpt lat="42.330529" lon="-8.819458">
        <ele>62.4</ele>
        <time>1970-01-01T00:50:17.000Z</time>
      </trkpt>
      <trkpt lat="42.330519" lon="-8.819453">
        <ele>62.4</ele>
        <time>1970-01-01T00:50:18.000Z</time>
      </trkpt>
      <trkpt lat="42.33051" lon="-8.819445">
        <ele>62.6</ele>
        <time>1970-01-01T00:50:19.000Z</time>
      </trkpt>
      <trkpt lat="42.330499" lon="-8.819434">
        <ele>62.6</ele>
        <time>1970-01-01T00:50:20.000Z</time>
      </trkpt>
      <trkpt lat="42.330491" lon="-8.819433">
        <ele>62.6</ele>
        <time>1970-01-01T00:50:21.000Z</time>
      </trkpt>
      <trkpt lat="42.330482" lon="-8.819427">
        <ele>62.8</ele>
        <time>1970-01-01T00:50:22.000Z</time>
      </trkpt>
      <trkpt lat="42.33047" lon="-8.81942">
        <ele>62.8</ele>
        <time>1970-01-01T00:50:23.000Z</time>
      </trkpt>
      <trkpt lat="42.330461" lon="-8.819412">
        <ele>62.8</ele>
        <time>1970-01-01T00:50:24.000Z</time>
      </trkpt>
      <trkpt lat="42.33045" lon="-8.819406">
        <ele>63.2</ele>
        <time>1970-01-01T00:50:25.000Z</time>
      </trkpt>
      <trkpt lat="42.33044" lon="-8.819402">
        <ele>63.4</ele>
        <time>1970-01-01T00:50:26.000Z</time>
      </trkpt>
      <trkpt lat="42.330426" lon="-8.819395">
        <ele>63.6</ele>
        <time>1970-01-01T00:50:27.000Z</time>
      </trkpt>
      <trkpt lat="42.330414" lon="-8.819387">
        <ele>63.6</ele>
        <time>1970-01-01T00:50:28.000Z</time>
      </trkpt>
      <trkpt lat="42.3304" lon="-8.819377">
        <ele>63.6</ele>
        <time>1970-01-01T00:50:29.000Z</time>
      </trkpt>
      <trkpt lat="42.330389" lon="-8.819368">
        <ele>63.8</ele>
        <time>1970-01-01T00:50:30.000Z</time>
      </trkpt>
      <trkpt lat="42.330382" lon="-8.819361">
        <ele>64</ele>
        <time>1970-01-01T00:50:31.000Z</time>
      </trkpt>
      <trkpt lat="42.330374" lon="-8.819354">
        <ele>64</ele>
        <time>1970-01-01T00:50:32.000Z</time>
      </trkpt>
      <trkpt lat="42.330359" lon="-8.819343">
        <ele>64.2</ele>
        <time>1970-01-01T00:50:33.000Z</time>
      </trkpt>
      <trkpt lat="42.330345" lon="-8.819338">
        <ele>64.2</ele>
        <time>1970-01-01T00:50:34.000Z</time>
      </trkpt>
      <trkpt lat="42.330328" lon="-8.819329">
        <ele>64.4</ele>
        <time>1970-01-01T00:50:35.000Z</time>
      </trkpt>
      <trkpt lat="42.330312" lon="-8.819325">
        <ele>64.6</ele>
        <time>1970-01-01T00:50:36.000Z</time>
      </trkpt>
      <trkpt lat="42.330297" lon="-8.81932">
        <ele>64.8</ele>
        <time>1970-01-01T00:50:37.000Z</time>
      </trkpt>
      <trkpt lat="42.330281" lon="-8.819319">
        <ele>64.8</ele>
        <time>1970-01-01T00:50:38.000Z</time>
      </trkpt>
      <trkpt lat="42.330265" lon="-8.819317">
        <ele>65</ele>
        <time>1970-01-01T00:50:39.000Z</time>
      </trkpt>
      <trkpt lat="42.330246" lon="-8.819318">
        <ele>65</ele>
        <time>1970-01-01T00:50:40.000Z</time>
      </trkpt>
      <trkpt lat="42.330225" lon="-8.819317">
        <ele>65</ele>
        <time>1970-01-01T00:50:41.000Z</time>
      </trkpt>
      <trkpt lat="42.330203" lon="-8.819316">
        <ele>64.8</ele>
        <time>1970-01-01T00:50:42.000Z</time>
      </trkpt>
      <trkpt lat="42.330182" lon="-8.81932">
        <ele>64.8</ele>
        <time>1970-01-01T00:50:43.000Z</time>
      </trkpt>
      <trkpt lat="42.330164" lon="-8.819323">
        <ele>64.8</ele>
        <time>1970-01-01T00:50:44.000Z</time>
      </trkpt>
      <trkpt lat="42.330149" lon="-8.819323">
        <ele>64.8</ele>
        <time>1970-01-01T00:50:45.000Z</time>
      </trkpt>
      <trkpt lat="42.330135" lon="-8.819322">
        <ele>65.2</ele>
        <time>1970-01-01T00:50:46.000Z</time>
      </trkpt>
      <trkpt lat="42.330122" lon="-8.819322">
        <ele>65.4</ele>
        <time>1970-01-01T00:50:47.000Z</time>
      </trkpt>
      <trkpt lat="42.33011" lon="-8.819327">
        <ele>65.6</ele>
        <time>1970-01-01T00:50:48.000Z</time>
      </trkpt>
      <trkpt lat="42.330096" lon="-8.819336">
        <ele>65.8</ele>
        <time>1970-01-01T00:50:49.000Z</time>
      </trkpt>
      <trkpt lat="42.330085" lon="-8.81934">
        <ele>66</ele>
        <time>1970-01-01T00:50:50.000Z</time>
      </trkpt>
      <trkpt lat="42.330073" lon="-8.819346">
        <ele>66.2</ele>
        <time>1970-01-01T00:50:51.000Z</time>
      </trkpt>
      <trkpt lat="42.33006" lon="-8.819354">
        <ele>66.4</ele>
        <time>1970-01-01T00:50:52.000Z</time>
      </trkpt>
      <trkpt lat="42.330047" lon="-8.819364">
        <ele>66.6</ele>
        <time>1970-01-01T00:50:53.000Z</time>
      </trkpt>
      <trkpt lat="42.330033" lon="-8.81937">
        <ele>66.6</ele>
        <time>1970-01-01T00:50:54.000Z</time>
      </trkpt>
      <trkpt lat="42.330019" lon="-8.819375">
        <ele>66.8</ele>
        <time>1970-01-01T00:50:55.000Z</time>
      </trkpt>
      <trkpt lat="42.330007" lon="-8.819376">
        <ele>66.8</ele>
        <time>1970-01-01T00:50:56.000Z</time>
      </trkpt>
      <trkpt lat="42.329996" lon="-8.819383">
        <ele>66.8</ele>
        <time>1970-01-01T00:50:57.000Z</time>
      </trkpt>
      <trkpt lat="42.329986" lon="-8.819391">
        <ele>67</ele>
        <time>1970-01-01T00:50:58.000Z</time>
      </trkpt>
      <trkpt lat="42.329975" lon="-8.819397">
        <ele>67.2</ele>
        <time>1970-01-01T00:50:59.000Z</time>
      </trkpt>
      <trkpt lat="42.329964" lon="-8.819402">
        <ele>67.2</ele>
        <time>1970-01-01T00:51:00.000Z</time>
      </trkpt>
      <trkpt lat="42.329953" lon="-8.819406">
        <ele>67.2</ele>
        <time>1970-01-01T00:51:01.000Z</time>
      </trkpt>
      <trkpt lat="42.329943" lon="-8.819411">
        <ele>67.2</ele>
        <time>1970-01-01T00:51:02.000Z</time>
      </trkpt>
      <trkpt lat="42.329934" lon="-8.81942">
        <ele>67.4</ele>
        <time>1970-01-01T00:51:03.000Z</time>
      </trkpt>
      <trkpt lat="42.329925" lon="-8.819429">
        <ele>67.6</ele>
        <time>1970-01-01T00:51:04.000Z</time>
      </trkpt>
      <trkpt lat="42.329917" lon="-8.819441">
        <ele>67.6</ele>
        <time>1970-01-01T00:51:05.000Z</time>
      </trkpt>
      <trkpt lat="42.329908" lon="-8.819453">
        <ele>67.6</ele>
        <time>1970-01-01T00:51:06.000Z</time>
      </trkpt>
      <trkpt lat="42.3299" lon="-8.819463">
        <ele>67.8</ele>
        <time>1970-01-01T00:51:07.000Z</time>
      </trkpt>
      <trkpt lat="42.329889" lon="-8.819474">
        <ele>68</ele>
        <time>1970-01-01T00:51:08.000Z</time>
      </trkpt>
      <trkpt lat="42.329876" lon="-8.819483">
        <ele>68</ele>
        <time>1970-01-01T00:51:09.000Z</time>
      </trkpt>
      <trkpt lat="42.329863" lon="-8.819488">
        <ele>68</ele>
        <time>1970-01-01T00:51:10.000Z</time>
      </trkpt>
      <trkpt lat="42.32985" lon="-8.819493">
        <ele>68</ele>
        <time>1970-01-01T00:51:11.000Z</time>
      </trkpt>
      <trkpt lat="42.329836" lon="-8.8195">
        <ele>68.2</ele>
        <time>1970-01-01T00:51:12.000Z</time>
      </trkpt>
      <trkpt lat="42.329827" lon="-8.819505">
        <ele>68.2</ele>
        <time>1970-01-01T00:51:13.000Z</time>
      </trkpt>
      <trkpt lat="42.329818" lon="-8.81951">
        <ele>68.2</ele>
        <time>1970-01-01T00:51:14.000Z</time>
      </trkpt>
      <trkpt lat="42.329808" lon="-8.819515">
        <ele>68.4</ele>
        <time>1970-01-01T00:51:15.000Z</time>
      </trkpt>
      <trkpt lat="42.329793" lon="-8.819518">
        <ele>68.4</ele>
        <time>1970-01-01T00:51:16.000Z</time>
      </trkpt>
      <trkpt lat="42.329777" lon="-8.819522">
        <ele>68.4</ele>
        <time>1970-01-01T00:51:17.000Z</time>
      </trkpt>
      <trkpt lat="42.329761" lon="-8.819529">
        <ele>68.6</ele>
        <time>1970-01-01T00:51:18.000Z</time>
      </trkpt>
      <trkpt lat="42.329746" lon="-8.819537">
        <ele>68.6</ele>
        <time>1970-01-01T00:51:19.000Z</time>
      </trkpt>
      <trkpt lat="42.329732" lon="-8.819544">
        <ele>68.6</ele>
        <time>1970-01-01T00:51:20.000Z</time>
      </trkpt>
      <trkpt lat="42.329719" lon="-8.819545">
        <ele>68.8</ele>
        <time>1970-01-01T00:51:21.000Z</time>
      </trkpt>
      <trkpt lat="42.329704" lon="-8.819552">
        <ele>68.8</ele>
        <time>1970-01-01T00:51:22.000Z</time>
      </trkpt>
      <trkpt lat="42.329691" lon="-8.819551">
        <ele>68.8</ele>
        <time>1970-01-01T00:51:23.000Z</time>
      </trkpt>
      <trkpt lat="42.329679" lon="-8.819548">
        <ele>69</ele>
        <time>1970-01-01T00:51:24.000Z</time>
      </trkpt>
      <trkpt lat="42.329666" lon="-8.819547">
        <ele>69</ele>
        <time>1970-01-01T00:51:25.000Z</time>
      </trkpt>
      <trkpt lat="42.329653" lon="-8.819546">
        <ele>69</ele>
        <time>1970-01-01T00:51:26.000Z</time>
      </trkpt>
      <trkpt lat="42.32964" lon="-8.81955">
        <ele>69</ele>
        <time>1970-01-01T00:51:27.000Z</time>
      </trkpt>
      <trkpt lat="42.329625" lon="-8.819555">
        <ele>69</ele>
        <time>1970-01-01T00:51:28.000Z</time>
      </trkpt>
      <trkpt lat="42.329611" lon="-8.819563">
        <ele>69.2</ele>
        <time>1970-01-01T00:51:29.000Z</time>
      </trkpt>
      <trkpt lat="42.329596" lon="-8.819568">
        <ele>69.2</ele>
        <time>1970-01-01T00:51:30.000Z</time>
      </trkpt>
      <trkpt lat="42.329579" lon="-8.819571">
        <ele>69.2</ele>
        <time>1970-01-01T00:51:31.000Z</time>
      </trkpt>
      <trkpt lat="42.329564" lon="-8.819577">
        <ele>69.2</ele>
        <time>1970-01-01T00:51:32.000Z</time>
      </trkpt>
      <trkpt lat="42.32955" lon="-8.819586">
        <ele>69.4</ele>
        <time>1970-01-01T00:51:33.000Z</time>
      </trkpt>
      <trkpt lat="42.32954" lon="-8.8196">
        <ele>69.6</ele>
        <time>1970-01-01T00:51:34.000Z</time>
      </trkpt>
      <trkpt lat="42.329527" lon="-8.819612">
        <ele>69.6</ele>
        <time>1970-01-01T00:51:35.000Z</time>
      </trkpt>
      <trkpt lat="42.329514" lon="-8.819623">
        <ele>69.6</ele>
        <time>1970-01-01T00:51:36.000Z</time>
      </trkpt>
      <trkpt lat="42.329501" lon="-8.819636">
        <ele>69.6</ele>
        <time>1970-01-01T00:51:37.000Z</time>
      </trkpt>
      <trkpt lat="42.329485" lon="-8.819652">
        <ele>69.8</ele>
        <time>1970-01-01T00:51:38.000Z</time>
      </trkpt>
      <trkpt lat="42.329469" lon="-8.819668">
        <ele>69.8</ele>
        <time>1970-01-01T00:51:39.000Z</time>
      </trkpt>
      <trkpt lat="42.329456" lon="-8.819685">
        <ele>69.8</ele>
        <time>1970-01-01T00:51:40.000Z</time>
      </trkpt>
      <trkpt lat="42.32944" lon="-8.819696">
        <ele>69.8</ele>
        <time>1970-01-01T00:51:41.000Z</time>
      </trkpt>
      <trkpt lat="42.329425" lon="-8.819704">
        <ele>69.8</ele>
        <time>1970-01-01T00:51:42.000Z</time>
      </trkpt>
      <trkpt lat="42.329412" lon="-8.819703">
        <ele>69.8</ele>
        <time>1970-01-01T00:51:43.000Z</time>
      </trkpt>
      <trkpt lat="42.329401" lon="-8.819703">
        <ele>70</ele>
        <time>1970-01-01T00:51:44.000Z</time>
      </trkpt>
      <trkpt lat="42.329388" lon="-8.8197">
        <ele>70</ele>
        <time>1970-01-01T00:51:45.000Z</time>
      </trkpt>
      <trkpt lat="42.329381" lon="-8.819694">
        <ele>70</ele>
        <time>1970-01-01T00:51:46.000Z</time>
      </trkpt>
      <trkpt lat="42.329371" lon="-8.819686">
        <ele>70</ele>
        <time>1970-01-01T00:51:47.000Z</time>
      </trkpt>
      <trkpt lat="42.329359" lon="-8.81968">
        <ele>70</ele>
        <time>1970-01-01T00:51:48.000Z</time>
      </trkpt>
      <trkpt lat="42.329349" lon="-8.819678">
        <ele>70</ele>
        <time>1970-01-01T00:51:49.000Z</time>
      </trkpt>
      <trkpt lat="42.329338" lon="-8.819676">
        <ele>70.2</ele>
        <time>1970-01-01T00:51:50.000Z</time>
      </trkpt>
      <trkpt lat="42.329326" lon="-8.819669">
        <ele>70.2</ele>
        <time>1970-01-01T00:51:51.000Z</time>
      </trkpt>
      <trkpt lat="42.329315" lon="-8.819666">
        <ele>70.2</ele>
        <time>1970-01-01T00:51:52.000Z</time>
      </trkpt>
      <trkpt lat="42.329305" lon="-8.819665">
        <ele>70.4</ele>
        <time>1970-01-01T00:51:53.000Z</time>
      </trkpt>
      <trkpt lat="42.329296" lon="-8.819662">
        <ele>70.6</ele>
        <time>1970-01-01T00:51:54.000Z</time>
      </trkpt>
      <trkpt lat="42.329282" lon="-8.81966">
        <ele>70.6</ele>
        <time>1970-01-01T00:51:55.000Z</time>
      </trkpt>
      <trkpt lat="42.329268" lon="-8.819659">
        <ele>70.8</ele>
        <time>1970-01-01T00:51:56.000Z</time>
      </trkpt>
      <trkpt lat="42.329254" lon="-8.81966">
        <ele>70.8</ele>
        <time>1970-01-01T00:51:57.000Z</time>
      </trkpt>
      <trkpt lat="42.32924" lon="-8.819659">
        <ele>70.8</ele>
        <time>1970-01-01T00:51:58.000Z</time>
      </trkpt>
      <trkpt lat="42.329226" lon="-8.819656">
        <ele>70.8</ele>
        <time>1970-01-01T00:51:59.000Z</time>
      </trkpt>
      <trkpt lat="42.329214" lon="-8.819654">
        <ele>70.8</ele>
        <time>1970-01-01T00:52:00.000Z</time>
      </trkpt>
      <trkpt lat="42.329206" lon="-8.81965">
        <ele>70.8</ele>
        <time>1970-01-01T00:52:01.000Z</time>
      </trkpt>
      <trkpt lat="42.329196" lon="-8.819645">
        <ele>70.8</ele>
        <time>1970-01-01T00:52:02.000Z</time>
      </trkpt>
      <trkpt lat="42.329188" lon="-8.819638">
        <ele>71.2</ele>
        <time>1970-01-01T00:52:03.000Z</time>
      </trkpt>
      <trkpt lat="42.329178" lon="-8.819633">
        <ele>71.6</ele>
        <time>1970-01-01T00:52:04.000Z</time>
      </trkpt>
      <trkpt lat="42.329169" lon="-8.819627">
        <ele>71.8</ele>
        <time>1970-01-01T00:52:05.000Z</time>
      </trkpt>
      <trkpt lat="42.329159" lon="-8.819622">
        <ele>71.8</ele>
        <time>1970-01-01T00:52:06.000Z</time>
      </trkpt>
      <trkpt lat="42.329151" lon="-8.819614">
        <ele>71.8</ele>
        <time>1970-01-01T00:52:07.000Z</time>
      </trkpt>
      <trkpt lat="42.329142" lon="-8.819604">
        <ele>72</ele>
        <time>1970-01-01T00:52:08.000Z</time>
      </trkpt>
      <trkpt lat="42.32913" lon="-8.819584">
        <ele>72.2</ele>
        <time>1970-01-01T00:52:09.000Z</time>
      </trkpt>
      <trkpt lat="42.329122" lon="-8.81957">
        <ele>72.4</ele>
        <time>1970-01-01T00:52:10.000Z</time>
      </trkpt>
      <trkpt lat="42.329114" lon="-8.819556">
        <ele>72.4</ele>
        <time>1970-01-01T00:52:11.000Z</time>
      </trkpt>
      <trkpt lat="42.329105" lon="-8.819544">
        <ele>72.6</ele>
        <time>1970-01-01T00:52:12.000Z</time>
      </trkpt>
      <trkpt lat="42.329094" lon="-8.819534">
        <ele>72.8</ele>
        <time>1970-01-01T00:52:13.000Z</time>
      </trkpt>
      <trkpt lat="42.329083" lon="-8.819527">
        <ele>73</ele>
        <time>1970-01-01T00:52:14.000Z</time>
      </trkpt>
      <trkpt lat="42.329069" lon="-8.819521">
        <ele>73.2</ele>
        <time>1970-01-01T00:52:15.000Z</time>
      </trkpt>
      <trkpt lat="42.329056" lon="-8.819518">
        <ele>73.4</ele>
        <time>1970-01-01T00:52:16.000Z</time>
      </trkpt>
      <trkpt lat="42.329043" lon="-8.819513">
        <ele>73.6</ele>
        <time>1970-01-01T00:52:17.000Z</time>
      </trkpt>
      <trkpt lat="42.329027" lon="-8.819505">
        <ele>73.8</ele>
        <time>1970-01-01T00:52:18.000Z</time>
      </trkpt>
      <trkpt lat="42.329012" lon="-8.819498">
        <ele>73.8</ele>
        <time>1970-01-01T00:52:19.000Z</time>
      </trkpt>
      <trkpt lat="42.329" lon="-8.819495">
        <ele>74.2</ele>
        <time>1970-01-01T00:52:20.000Z</time>
      </trkpt>
      <trkpt lat="42.32899" lon="-8.819488">
        <ele>74.4</ele>
        <time>1970-01-01T00:52:21.000Z</time>
      </trkpt>
      <trkpt lat="42.328979" lon="-8.819482">
        <ele>74.6</ele>
        <time>1970-01-01T00:52:22.000Z</time>
      </trkpt>
      <trkpt lat="42.328967" lon="-8.819481">
        <ele>74.8</ele>
        <time>1970-01-01T00:52:23.000Z</time>
      </trkpt>
      <trkpt lat="42.328952" lon="-8.819479">
        <ele>74.8</ele>
        <time>1970-01-01T00:52:24.000Z</time>
      </trkpt>
      <trkpt lat="42.328937" lon="-8.819476">
        <ele>74.8</ele>
        <time>1970-01-01T00:52:25.000Z</time>
      </trkpt>
      <trkpt lat="42.328924" lon="-8.819473">
        <ele>74.8</ele>
        <time>1970-01-01T00:52:26.000Z</time>
      </trkpt>
      <trkpt lat="42.328912" lon="-8.819474">
        <ele>74.8</ele>
        <time>1970-01-01T00:52:27.000Z</time>
      </trkpt>
      <trkpt lat="42.328901" lon="-8.819479">
        <ele>75</ele>
        <time>1970-01-01T00:52:28.000Z</time>
      </trkpt>
      <trkpt lat="42.32889" lon="-8.819481">
        <ele>75</ele>
        <time>1970-01-01T00:52:29.000Z</time>
      </trkpt>
      <trkpt lat="42.328879" lon="-8.819482">
        <ele>75</ele>
        <time>1970-01-01T00:52:30.000Z</time>
      </trkpt>
      <trkpt lat="42.32887" lon="-8.819481">
        <ele>75.2</ele>
        <time>1970-01-01T00:52:31.000Z</time>
      </trkpt>
      <trkpt lat="42.328858" lon="-8.819479">
        <ele>75.2</ele>
        <time>1970-01-01T00:52:32.000Z</time>
      </trkpt>
      <trkpt lat="42.328846" lon="-8.819479">
        <ele>75.2</ele>
        <time>1970-01-01T00:52:33.000Z</time>
      </trkpt>
      <trkpt lat="42.328837" lon="-8.819474">
        <ele>75.2</ele>
        <time>1970-01-01T00:52:34.000Z</time>
      </trkpt>
      <trkpt lat="42.32883" lon="-8.81947">
        <ele>75.2</ele>
        <time>1970-01-01T00:52:35.000Z</time>
      </trkpt>
      <trkpt lat="42.328828" lon="-8.819464">
        <ele>75.2</ele>
        <time>1970-01-01T00:52:36.000Z</time>
      </trkpt>
      <trkpt lat="42.328823" lon="-8.819459">
        <ele>75.2</ele>
        <time>1970-01-01T00:52:37.000Z</time>
      </trkpt>
      <trkpt lat="42.328822" lon="-8.819448">
        <ele>75.2</ele>
        <time>1970-01-01T00:52:38.000Z</time>
      </trkpt>
      <trkpt lat="42.328818" lon="-8.819435">
        <ele>75.2</ele>
        <time>1970-01-01T00:52:39.000Z</time>
      </trkpt>
      <trkpt lat="42.328818" lon="-8.819424">
        <ele>75.2</ele>
        <time>1970-01-01T00:52:40.000Z</time>
      </trkpt>
      <trkpt lat="42.328818" lon="-8.819417">
        <ele>75.4</ele>
        <time>1970-01-01T00:52:41.000Z</time>
      </trkpt>
      <trkpt lat="42.32882" lon="-8.819412">
        <ele>75.6</ele>
        <time>1970-01-01T00:52:42.000Z</time>
      </trkpt>
      <trkpt lat="42.328822" lon="-8.819408">
        <ele>75.8</ele>
        <time>1970-01-01T00:52:43.000Z</time>
      </trkpt>
      <trkpt lat="42.328823" lon="-8.819404">
        <ele>76</ele>
        <time>1970-01-01T00:52:44.000Z</time>
      </trkpt>
      <trkpt lat="42.328822" lon="-8.819394">
        <ele>76.2</ele>
        <time>1970-01-01T00:52:45.000Z</time>
      </trkpt>
      <trkpt lat="42.328822" lon="-8.819384">
        <ele>76.4</ele>
        <time>1970-01-01T00:52:46.000Z</time>
      </trkpt>
      <trkpt lat="42.328821" lon="-8.819377">
        <ele>76.4</ele>
        <time>1970-01-01T00:52:47.000Z</time>
      </trkpt>
      <trkpt lat="42.32882" lon="-8.819372">
        <ele>76.6</ele>
        <time>1970-01-01T00:52:48.000Z</time>
      </trkpt>
      <trkpt lat="42.328818" lon="-8.819359">
        <ele>76.6</ele>
        <time>1970-01-01T00:52:49.000Z</time>
      </trkpt>
      <trkpt lat="42.328816" lon="-8.81935">
        <ele>77</ele>
        <time>1970-01-01T00:52:50.000Z</time>
      </trkpt>
      <trkpt lat="42.328816" lon="-8.81934">
        <ele>77.4</ele>
        <time>1970-01-01T00:52:51.000Z</time>
      </trkpt>
      <trkpt lat="42.328816" lon="-8.819327">
        <ele>77.8</ele>
        <time>1970-01-01T00:52:52.000Z</time>
      </trkpt>
      <trkpt lat="42.328816" lon="-8.819313">
        <ele>78.2</ele>
        <time>1970-01-01T00:52:53.000Z</time>
      </trkpt>
      <trkpt lat="42.328817" lon="-8.819304">
        <ele>78.8</ele>
        <time>1970-01-01T00:52:54.000Z</time>
      </trkpt>
      <trkpt lat="42.328821" lon="-8.819293">
        <ele>79</ele>
        <time>1970-01-01T00:52:55.000Z</time>
      </trkpt>
      <trkpt lat="42.328826" lon="-8.819284">
        <ele>79.2</ele>
        <time>1970-01-01T00:52:56.000Z</time>
      </trkpt>
      <trkpt lat="42.328829" lon="-8.819273">
        <ele>79.2</ele>
        <time>1970-01-01T00:52:57.000Z</time>
      </trkpt>
      <trkpt lat="42.328831" lon="-8.819262">
        <ele>79.4</ele>
        <time>1970-01-01T00:52:58.000Z</time>
      </trkpt>
      <trkpt lat="42.328834" lon="-8.819254">
        <ele>79.8</ele>
        <time>1970-01-01T00:52:59.000Z</time>
      </trkpt>
      <trkpt lat="42.328837" lon="-8.819249">
        <ele>80</ele>
        <time>1970-01-01T00:53:00.000Z</time>
      </trkpt>
      <trkpt lat="42.32884" lon="-8.819243">
        <ele>80.2</ele>
        <time>1970-01-01T00:53:01.000Z</time>
      </trkpt>
      <trkpt lat="42.328842" lon="-8.819236">
        <ele>80.8</ele>
        <time>1970-01-01T00:53:02.000Z</time>
      </trkpt>
      <trkpt lat="42.328846" lon="-8.819228">
        <ele>81.2</ele>
        <time>1970-01-01T00:53:03.000Z</time>
      </trkpt>
      <trkpt lat="42.328851" lon="-8.819218">
        <ele>81.6</ele>
        <time>1970-01-01T00:53:04.000Z</time>
      </trkpt>
      <trkpt lat="42.328855" lon="-8.819213">
        <ele>81.8</ele>
        <time>1970-01-01T00:53:05.000Z</time>
      </trkpt>
      <trkpt lat="42.328854" lon="-8.819204">
        <ele>82.2</ele>
        <time>1970-01-01T00:53:06.000Z</time>
      </trkpt>
      <trkpt lat="42.328851" lon="-8.819193">
        <ele>82.6</ele>
        <time>1970-01-01T00:53:07.000Z</time>
      </trkpt>
      <trkpt lat="42.32885" lon="-8.819189">
        <ele>82.8</ele>
        <time>1970-01-01T00:53:08.000Z</time>
      </trkpt>
      <trkpt lat="42.328849" lon="-8.819189">
        <ele>82.8</ele>
        <time>1970-01-01T00:53:09.000Z</time>
      </trkpt>
      <trkpt lat="42.328851" lon="-8.819187">
        <ele>83</ele>
        <time>1970-01-01T00:53:10.000Z</time>
      </trkpt>
      <trkpt lat="42.328855" lon="-8.819181">
        <ele>83</ele>
        <time>1970-01-01T00:53:11.000Z</time>
      </trkpt>
      <trkpt lat="42.328863" lon="-8.819174">
        <ele>83.4</ele>
        <time>1970-01-01T00:53:12.000Z</time>
      </trkpt>
      <trkpt lat="42.328867" lon="-8.819167">
        <ele>83.8</ele>
        <time>1970-01-01T00:53:13.000Z</time>
      </trkpt>
      <trkpt lat="42.328872" lon="-8.819159">
        <ele>84.2</ele>
        <time>1970-01-01T00:53:14.000Z</time>
      </trkpt>
      <trkpt lat="42.328878" lon="-8.819153">
        <ele>84.6</ele>
        <time>1970-01-01T00:53:15.000Z</time>
      </trkpt>
      <trkpt lat="42.328883" lon="-8.819145">
        <ele>84.8</ele>
        <time>1970-01-01T00:53:16.000Z</time>
      </trkpt>
      <trkpt lat="42.328887" lon="-8.819135">
        <ele>85.2</ele>
        <time>1970-01-01T00:53:17.000Z</time>
      </trkpt>
      <trkpt lat="42.328889" lon="-8.819125">
        <ele>85.2</ele>
        <time>1970-01-01T00:53:18.000Z</time>
      </trkpt>
      <trkpt lat="42.328893" lon="-8.819115">
        <ele>85.4</ele>
        <time>1970-01-01T00:53:19.000Z</time>
      </trkpt>
      <trkpt lat="42.328897" lon="-8.819105">
        <ele>85.6</ele>
        <time>1970-01-01T00:53:20.000Z</time>
      </trkpt>
      <trkpt lat="42.328903" lon="-8.819091">
        <ele>86</ele>
        <time>1970-01-01T00:53:21.000Z</time>
      </trkpt>
      <trkpt lat="42.328908" lon="-8.819073">
        <ele>86.2</ele>
        <time>1970-01-01T00:53:22.000Z</time>
      </trkpt>
      <trkpt lat="42.328916" lon="-8.819061">
        <ele>86.6</ele>
        <time>1970-01-01T00:53:23.000Z</time>
      </trkpt>
      <trkpt lat="42.328922" lon="-8.819046">
        <ele>86.8</ele>
        <time>1970-01-01T00:53:24.000Z</time>
      </trkpt>
      <trkpt lat="42.328927" lon="-8.819037">
        <ele>87</ele>
        <time>1970-01-01T00:53:25.000Z</time>
      </trkpt>
      <trkpt lat="42.328931" lon="-8.819033">
        <ele>87.2</ele>
        <time>1970-01-01T00:53:26.000Z</time>
      </trkpt>
      <trkpt lat="42.328932" lon="-8.819021">
        <ele>87.4</ele>
        <time>1970-01-01T00:53:27.000Z</time>
      </trkpt>
      <trkpt lat="42.328929" lon="-8.819008">
        <ele>87.6</ele>
        <time>1970-01-01T00:53:28.000Z</time>
      </trkpt>
      <trkpt lat="42.328927" lon="-8.818999">
        <ele>87.8</ele>
        <time>1970-01-01T00:53:29.000Z</time>
      </trkpt>
      <trkpt lat="42.328925" lon="-8.818994">
        <ele>88</ele>
        <time>1970-01-01T00:53:30.000Z</time>
      </trkpt>
      <trkpt lat="42.328924" lon="-8.818988">
        <ele>88.6</ele>
        <time>1970-01-01T00:53:31.000Z</time>
      </trkpt>
      <trkpt lat="42.328924" lon="-8.818981">
        <ele>89</ele>
        <time>1970-01-01T00:53:32.000Z</time>
      </trkpt>
      <trkpt lat="42.328924" lon="-8.818975">
        <ele>89.4</ele>
        <time>1970-01-01T00:53:33.000Z</time>
      </trkpt>
      <trkpt lat="42.328926" lon="-8.818971">
        <ele>89.6</ele>
        <time>1970-01-01T00:53:34.000Z</time>
      </trkpt>
      <trkpt lat="42.328926" lon="-8.818965">
        <ele>89.6</ele>
        <time>1970-01-01T00:53:35.000Z</time>
      </trkpt>
      <trkpt lat="42.328928" lon="-8.818957">
        <ele>89.6</ele>
        <time>1970-01-01T00:53:36.000Z</time>
      </trkpt>
      <trkpt lat="42.32893" lon="-8.81895">
        <ele>89.8</ele>
        <time>1970-01-01T00:53:37.000Z</time>
      </trkpt>
      <trkpt lat="42.328929" lon="-8.818941">
        <ele>90</ele>
        <time>1970-01-01T00:53:38.000Z</time>
      </trkpt>
      <trkpt lat="42.328929" lon="-8.81893">
        <ele>90.4</ele>
        <time>1970-01-01T00:53:39.000Z</time>
      </trkpt>
      <trkpt lat="42.328928" lon="-8.818923">
        <ele>90.6</ele>
        <time>1970-01-01T00:53:40.000Z</time>
      </trkpt>
      <trkpt lat="42.328927" lon="-8.818913">
        <ele>90.8</ele>
        <time>1970-01-01T00:53:41.000Z</time>
      </trkpt>
      <trkpt lat="42.328925" lon="-8.818907">
        <ele>91</ele>
        <time>1970-01-01T00:53:42.000Z</time>
      </trkpt>
      <trkpt lat="42.328924" lon="-8.818899">
        <ele>91.6</ele>
        <time>1970-01-01T00:53:43.000Z</time>
      </trkpt>
      <trkpt lat="42.328922" lon="-8.818893">
        <ele>91.8</ele>
        <time>1970-01-01T00:53:44.000Z</time>
      </trkpt>
      <trkpt lat="42.328923" lon="-8.818888">
        <ele>92.2</ele>
        <time>1970-01-01T00:53:45.000Z</time>
      </trkpt>
      <trkpt lat="42.328924" lon="-8.818882">
        <ele>92.4</ele>
        <time>1970-01-01T00:53:46.000Z</time>
      </trkpt>
      <trkpt lat="42.328925" lon="-8.818875">
        <ele>92.6</ele>
        <time>1970-01-01T00:53:47.000Z</time>
      </trkpt>
      <trkpt lat="42.328929" lon="-8.818868">
        <ele>92.8</ele>
        <time>1970-01-01T00:53:48.000Z</time>
      </trkpt>
      <trkpt lat="42.328935" lon="-8.818865">
        <ele>93</ele>
        <time>1970-01-01T00:53:49.000Z</time>
      </trkpt>
      <trkpt lat="42.328942" lon="-8.818862">
        <ele>93</ele>
        <time>1970-01-01T00:53:50.000Z</time>
      </trkpt>
      <trkpt lat="42.32895" lon="-8.818859">
        <ele>93.4</ele>
        <time>1970-01-01T00:53:51.000Z</time>
      </trkpt>
      <trkpt lat="42.328955" lon="-8.818852">
        <ele>93.8</ele>
        <time>1970-01-01T00:53:52.000Z</time>
      </trkpt>
      <trkpt lat="42.328963" lon="-8.818844">
        <ele>94</ele>
        <time>1970-01-01T00:53:53.000Z</time>
      </trkpt>
      <trkpt lat="42.328967" lon="-8.818832">
        <ele>94.2</ele>
        <time>1970-01-01T00:53:54.000Z</time>
      </trkpt>
      <trkpt lat="42.328971" lon="-8.81882">
        <ele>94.6</ele>
        <time>1970-01-01T00:53:55.000Z</time>
      </trkpt>
      <trkpt lat="42.328975" lon="-8.81881">
        <ele>95.2</ele>
        <time>1970-01-01T00:53:56.000Z</time>
      </trkpt>
      <trkpt lat="42.328981" lon="-8.818801">
        <ele>95.4</ele>
        <time>1970-01-01T00:53:57.000Z</time>
      </trkpt>
      <trkpt lat="42.328984" lon="-8.818791">
        <ele>95.6</ele>
        <time>1970-01-01T00:53:58.000Z</time>
      </trkpt>
      <trkpt lat="42.32899" lon="-8.818781">
        <ele>95.8</ele>
        <time>1970-01-01T00:53:59.000Z</time>
      </trkpt>
      <trkpt lat="42.328993" lon="-8.818773">
        <ele>96.2</ele>
        <time>1970-01-01T00:54:00.000Z</time>
      </trkpt>
      <trkpt lat="42.328997" lon="-8.818769">
        <ele>96.6</ele>
        <time>1970-01-01T00:54:01.000Z</time>
      </trkpt>
      <trkpt lat="42.329001" lon="-8.818766">
        <ele>96.8</ele>
        <time>1970-01-01T00:54:02.000Z</time>
      </trkpt>
      <trkpt lat="42.329003" lon="-8.818766">
        <ele>97.2</ele>
        <time>1970-01-01T00:54:03.000Z</time>
      </trkpt>
      <trkpt lat="42.329005" lon="-8.818768">
        <ele>97.4</ele>
        <time>1970-01-01T00:54:04.000Z</time>
      </trkpt>
      <trkpt lat="42.32901" lon="-8.818765">
        <ele>97.6</ele>
        <time>1970-01-01T00:54:05.000Z</time>
      </trkpt>
      <trkpt lat="42.32902" lon="-8.818757">
        <ele>98</ele>
        <time>1970-01-01T00:54:06.000Z</time>
      </trkpt>
      <trkpt lat="42.32903" lon="-8.818746">
        <ele>98.4</ele>
        <time>1970-01-01T00:54:07.000Z</time>
      </trkpt>
      <trkpt lat="42.329038" lon="-8.818737">
        <ele>98.4</ele>
        <time>1970-01-01T00:54:08.000Z</time>
      </trkpt>
      <trkpt lat="42.32905" lon="-8.818731">
        <ele>98.6</ele>
        <time>1970-01-01T00:54:09.000Z</time>
      </trkpt>
      <trkpt lat="42.329059" lon="-8.818721">
        <ele>98.6</ele>
        <time>1970-01-01T00:54:10.000Z</time>
      </trkpt>
      <trkpt lat="42.329068" lon="-8.818708">
        <ele>98.8</ele>
        <time>1970-01-01T00:54:11.000Z</time>
      </trkpt>
      <trkpt lat="42.329075" lon="-8.818694">
        <ele>99.2</ele>
        <time>1970-01-01T00:54:12.000Z</time>
      </trkpt>
      <trkpt lat="42.32908" lon="-8.818683">
        <ele>99.4</ele>
        <time>1970-01-01T00:54:13.000Z</time>
      </trkpt>
      <trkpt lat="42.329087" lon="-8.818671">
        <ele>99.6</ele>
        <time>1970-01-01T00:54:14.000Z</time>
      </trkpt>
      <trkpt lat="42.329094" lon="-8.818666">
        <ele>100</ele>
        <time>1970-01-01T00:54:15.000Z</time>
      </trkpt>
      <trkpt lat="42.329102" lon="-8.81866">
        <ele>100.2</ele>
        <time>1970-01-01T00:54:16.000Z</time>
      </trkpt>
      <trkpt lat="42.329111" lon="-8.818654">
        <ele>100.4</ele>
        <time>1970-01-01T00:54:17.000Z</time>
      </trkpt>
      <trkpt lat="42.329118" lon="-8.818645">
        <ele>100.6</ele>
        <time>1970-01-01T00:54:18.000Z</time>
      </trkpt>
      <trkpt lat="42.329126" lon="-8.818637">
        <ele>100.6</ele>
        <time>1970-01-01T00:54:19.000Z</time>
      </trkpt>
      <trkpt lat="42.329131" lon="-8.818628">
        <ele>100.8</ele>
        <time>1970-01-01T00:54:20.000Z</time>
      </trkpt>
      <trkpt lat="42.329139" lon="-8.818623">
        <ele>100.8</ele>
        <time>1970-01-01T00:54:21.000Z</time>
      </trkpt>
      <trkpt lat="42.329145" lon="-8.81862">
        <ele>101</ele>
        <time>1970-01-01T00:54:22.000Z</time>
      </trkpt>
      <trkpt lat="42.329149" lon="-8.818621">
        <ele>101.2</ele>
        <time>1970-01-01T00:54:23.000Z</time>
      </trkpt>
      <trkpt lat="42.329157" lon="-8.818616">
        <ele>101.8</ele>
        <time>1970-01-01T00:54:24.000Z</time>
      </trkpt>
      <trkpt lat="42.329167" lon="-8.81861">
        <ele>102</ele>
        <time>1970-01-01T00:54:25.000Z</time>
      </trkpt>
      <trkpt lat="42.329178" lon="-8.818599">
        <ele>102.2</ele>
        <time>1970-01-01T00:54:26.000Z</time>
      </trkpt>
      <trkpt lat="42.329186" lon="-8.818588">
        <ele>102.4</ele>
        <time>1970-01-01T00:54:27.000Z</time>
      </trkpt>
      <trkpt lat="42.32919" lon="-8.81858">
        <ele>102.4</ele>
        <time>1970-01-01T00:54:28.000Z</time>
      </trkpt>
      <trkpt lat="42.329194" lon="-8.818577">
        <ele>102.4</ele>
        <time>1970-01-01T00:54:29.000Z</time>
      </trkpt>
      <trkpt lat="42.329195" lon="-8.818565">
        <ele>102.6</ele>
        <time>1970-01-01T00:54:30.000Z</time>
      </trkpt>
      <trkpt lat="42.329195" lon="-8.818555">
        <ele>103.2</ele>
        <time>1970-01-01T00:54:31.000Z</time>
      </trkpt>
      <trkpt lat="42.329194" lon="-8.818542">
        <ele>103.6</ele>
        <time>1970-01-01T00:54:32.000Z</time>
      </trkpt>
      <trkpt lat="42.329197" lon="-8.818533">
        <ele>103.8</ele>
        <time>1970-01-01T00:54:33.000Z</time>
      </trkpt>
      <trkpt lat="42.329198" lon="-8.818524">
        <ele>104</ele>
        <time>1970-01-01T00:54:34.000Z</time>
      </trkpt>
      <trkpt lat="42.3292" lon="-8.818516">
        <ele>104</ele>
        <time>1970-01-01T00:54:35.000Z</time>
      </trkpt>
      <trkpt lat="42.329202" lon="-8.818506">
        <ele>104</ele>
        <time>1970-01-01T00:54:36.000Z</time>
      </trkpt>
      <trkpt lat="42.329202" lon="-8.818495">
        <ele>104.4</ele>
        <time>1970-01-01T00:54:37.000Z</time>
      </trkpt>
      <trkpt lat="42.329201" lon="-8.818481">
        <ele>104.6</ele>
        <time>1970-01-01T00:54:38.000Z</time>
      </trkpt>
      <trkpt lat="42.329202" lon="-8.81847">
        <ele>105.2</ele>
        <time>1970-01-01T00:54:39.000Z</time>
      </trkpt>
      <trkpt lat="42.329205" lon="-8.818464">
        <ele>105.6</ele>
        <time>1970-01-01T00:54:40.000Z</time>
      </trkpt>
      <trkpt lat="42.329209" lon="-8.818459">
        <ele>105.8</ele>
        <time>1970-01-01T00:54:41.000Z</time>
      </trkpt>
      <trkpt lat="42.329213" lon="-8.818453">
        <ele>106</ele>
        <time>1970-01-01T00:54:42.000Z</time>
      </trkpt>
      <trkpt lat="42.329217" lon="-8.818447">
        <ele>106</ele>
        <time>1970-01-01T00:54:43.000Z</time>
      </trkpt>
      <trkpt lat="42.329222" lon="-8.81844">
        <ele>106.4</ele>
        <time>1970-01-01T00:54:44.000Z</time>
      </trkpt>
      <trkpt lat="42.329226" lon="-8.818432">
        <ele>106.8</ele>
        <time>1970-01-01T00:54:45.000Z</time>
      </trkpt>
      <trkpt lat="42.329233" lon="-8.818425">
        <ele>107</ele>
        <time>1970-01-01T00:54:46.000Z</time>
      </trkpt>
      <trkpt lat="42.329239" lon="-8.818419">
        <ele>107.2</ele>
        <time>1970-01-01T00:54:47.000Z</time>
      </trkpt>
      <trkpt lat="42.329246" lon="-8.818413">
        <ele>107.2</ele>
        <time>1970-01-01T00:54:48.000Z</time>
      </trkpt>
      <trkpt lat="42.329252" lon="-8.818405">
        <ele>107.6</ele>
        <time>1970-01-01T00:54:49.000Z</time>
      </trkpt>
      <trkpt lat="42.329255" lon="-8.818387">
        <ele>107.8</ele>
        <time>1970-01-01T00:54:50.000Z</time>
      </trkpt>
      <trkpt lat="42.329256" lon="-8.818371">
        <ele>108</ele>
        <time>1970-01-01T00:54:51.000Z</time>
      </trkpt>
      <trkpt lat="42.329255" lon="-8.818355">
        <ele>108</ele>
        <time>1970-01-01T00:54:52.000Z</time>
      </trkpt>
      <trkpt lat="42.329258" lon="-8.818352">
        <ele>108.2</ele>
        <time>1970-01-01T00:54:53.000Z</time>
      </trkpt>
      <trkpt lat="42.32926" lon="-8.818353">
        <ele>108.6</ele>
        <time>1970-01-01T00:54:54.000Z</time>
      </trkpt>
      <trkpt lat="42.329254" lon="-8.818347">
        <ele>108.8</ele>
        <time>1970-01-01T00:54:55.000Z</time>
      </trkpt>
      <trkpt lat="42.329247" lon="-8.818337">
        <ele>109.2</ele>
        <time>1970-01-01T00:54:56.000Z</time>
      </trkpt>
      <trkpt lat="42.329241" lon="-8.818322">
        <ele>109.4</ele>
        <time>1970-01-01T00:54:57.000Z</time>
      </trkpt>
      <trkpt lat="42.329232" lon="-8.818307">
        <ele>109.8</ele>
        <time>1970-01-01T00:54:58.000Z</time>
      </trkpt>
      <trkpt lat="42.329224" lon="-8.818295">
        <ele>110</ele>
        <time>1970-01-01T00:54:59.000Z</time>
      </trkpt>
      <trkpt lat="42.329214" lon="-8.818288">
        <ele>110.2</ele>
        <time>1970-01-01T00:55:00.000Z</time>
      </trkpt>
      <trkpt lat="42.329204" lon="-8.81829">
        <ele>110.4</ele>
        <time>1970-01-01T00:55:01.000Z</time>
      </trkpt>
      <trkpt lat="42.329188" lon="-8.818291">
        <ele>110.4</ele>
        <time>1970-01-01T00:55:02.000Z</time>
      </trkpt>
      <trkpt lat="42.32917" lon="-8.818294">
        <ele>110.4</ele>
        <time>1970-01-01T00:55:03.000Z</time>
      </trkpt>
      <trkpt lat="42.329151" lon="-8.818297">
        <ele>110.4</ele>
        <time>1970-01-01T00:55:04.000Z</time>
      </trkpt>
      <trkpt lat="42.329135" lon="-8.8183">
        <ele>110.6</ele>
        <time>1970-01-01T00:55:05.000Z</time>
      </trkpt>
      <trkpt lat="42.329118" lon="-8.818304">
        <ele>110.6</ele>
        <time>1970-01-01T00:55:06.000Z</time>
      </trkpt>
      <trkpt lat="42.329103" lon="-8.818311">
        <ele>110.6</ele>
        <time>1970-01-01T00:55:07.000Z</time>
      </trkpt>
      <trkpt lat="42.329091" lon="-8.818324">
        <ele>110.6</ele>
        <time>1970-01-01T00:55:08.000Z</time>
      </trkpt>
      <trkpt lat="42.329078" lon="-8.818333">
        <ele>110.6</ele>
        <time>1970-01-01T00:55:09.000Z</time>
      </trkpt>
      <trkpt lat="42.329067" lon="-8.818349">
        <ele>110.4</ele>
        <time>1970-01-01T00:55:10.000Z</time>
      </trkpt>
      <trkpt lat="42.329057" lon="-8.818358">
        <ele>110.4</ele>
        <time>1970-01-01T00:55:11.000Z</time>
      </trkpt>
      <trkpt lat="42.329043" lon="-8.818364">
        <ele>110.4</ele>
        <time>1970-01-01T00:55:12.000Z</time>
      </trkpt>
      <trkpt lat="42.329028" lon="-8.818369">
        <ele>110</ele>
        <time>1970-01-01T00:55:13.000Z</time>
      </trkpt>
      <trkpt lat="42.329014" lon="-8.81837">
        <ele>109.8</ele>
        <time>1970-01-01T00:55:14.000Z</time>
      </trkpt>
      <trkpt lat="42.329002" lon="-8.81837">
        <ele>109.8</ele>
        <time>1970-01-01T00:55:15.000Z</time>
      </trkpt>
      <trkpt lat="42.328993" lon="-8.818375">
        <ele>109.6</ele>
        <time>1970-01-01T00:55:16.000Z</time>
      </trkpt>
      <trkpt lat="42.328985" lon="-8.818378">
        <ele>109.6</ele>
        <time>1970-01-01T00:55:17.000Z</time>
      </trkpt>
      <trkpt lat="42.328977" lon="-8.818386">
        <ele>109.4</ele>
        <time>1970-01-01T00:55:18.000Z</time>
      </trkpt>
      <trkpt lat="42.328969" lon="-8.818401">
        <ele>109.2</ele>
        <time>1970-01-01T00:55:19.000Z</time>
      </trkpt>
      <trkpt lat="42.328958" lon="-8.818416">
        <ele>109.2</ele>
        <time>1970-01-01T00:55:20.000Z</time>
      </trkpt>
      <trkpt lat="42.328946" lon="-8.818426">
        <ele>109</ele>
        <time>1970-01-01T00:55:21.000Z</time>
      </trkpt>
      <trkpt lat="42.328933" lon="-8.818434">
        <ele>108.8</ele>
        <time>1970-01-01T00:55:22.000Z</time>
      </trkpt>
      <trkpt lat="42.328925" lon="-8.818438">
        <ele>108.6</ele>
        <time>1970-01-01T00:55:23.000Z</time>
      </trkpt>
      <trkpt lat="42.328919" lon="-8.818442">
        <ele>108.4</ele>
        <time>1970-01-01T00:55:24.000Z</time>
      </trkpt>
      <trkpt lat="42.328912" lon="-8.818438">
        <ele>108.2</ele>
        <time>1970-01-01T00:55:25.000Z</time>
      </trkpt>
      <trkpt lat="42.328905" lon="-8.818435">
        <ele>108</ele>
        <time>1970-01-01T00:55:26.000Z</time>
      </trkpt>
      <trkpt lat="42.328895" lon="-8.818432">
        <ele>108</ele>
        <time>1970-01-01T00:55:27.000Z</time>
      </trkpt>
      <trkpt lat="42.328886" lon="-8.818434">
        <ele>107.6</ele>
        <time>1970-01-01T00:55:28.000Z</time>
      </trkpt>
      <trkpt lat="42.32888" lon="-8.818439">
        <ele>107.2</ele>
        <time>1970-01-01T00:55:29.000Z</time>
      </trkpt>
      <trkpt lat="42.328874" lon="-8.818444">
        <ele>107</ele>
        <time>1970-01-01T00:55:30.000Z</time>
      </trkpt>
      <trkpt lat="42.328866" lon="-8.818444">
        <ele>107</ele>
        <time>1970-01-01T00:55:31.000Z</time>
      </trkpt>
      <trkpt lat="42.328857" lon="-8.818439">
        <ele>106.8</ele>
        <time>1970-01-01T00:55:32.000Z</time>
      </trkpt>
      <trkpt lat="42.328845" lon="-8.818425">
        <ele>106.8</ele>
        <time>1970-01-01T00:55:33.000Z</time>
      </trkpt>
      <trkpt lat="42.32884" lon="-8.818418">
        <ele>106.8</ele>
        <time>1970-01-01T00:55:34.000Z</time>
      </trkpt>
      <trkpt lat="42.328835" lon="-8.818415">
        <ele>106.8</ele>
        <time>1970-01-01T00:55:35.000Z</time>
      </trkpt>
      <trkpt lat="42.328825" lon="-8.818409">
        <ele>106.8</ele>
        <time>1970-01-01T00:55:36.000Z</time>
      </trkpt>
      <trkpt lat="42.328814" lon="-8.818407">
        <ele>106.6</ele>
        <time>1970-01-01T00:55:37.000Z</time>
      </trkpt>
      <trkpt lat="42.328799" lon="-8.818411">
        <ele>106.6</ele>
        <time>1970-01-01T00:55:38.000Z</time>
      </trkpt>
      <trkpt lat="42.328784" lon="-8.818417">
        <ele>106.4</ele>
        <time>1970-01-01T00:55:39.000Z</time>
      </trkpt>
      <trkpt lat="42.328769" lon="-8.818422">
        <ele>106.2</ele>
        <time>1970-01-01T00:55:40.000Z</time>
      </trkpt>
      <trkpt lat="42.328756" lon="-8.81843">
        <ele>106</ele>
        <time>1970-01-01T00:55:41.000Z</time>
      </trkpt>
      <trkpt lat="42.328743" lon="-8.818438">
        <ele>105.8</ele>
        <time>1970-01-01T00:55:42.000Z</time>
      </trkpt>
      <trkpt lat="42.328728" lon="-8.818442">
        <ele>104.8</ele>
        <time>1970-01-01T00:55:43.000Z</time>
      </trkpt>
      <trkpt lat="42.328715" lon="-8.818441">
        <ele>104.2</ele>
        <time>1970-01-01T00:55:44.000Z</time>
      </trkpt>
      <trkpt lat="42.328701" lon="-8.818444">
        <ele>103.8</ele>
        <time>1970-01-01T00:55:45.000Z</time>
      </trkpt>
      <trkpt lat="42.328687" lon="-8.818447">
        <ele>103.4</ele>
        <time>1970-01-01T00:55:46.000Z</time>
      </trkpt>
      <trkpt lat="42.328672" lon="-8.818448">
        <ele>103</ele>
        <time>1970-01-01T00:55:47.000Z</time>
      </trkpt>
      <trkpt lat="42.328659" lon="-8.818448">
        <ele>102.6</ele>
        <time>1970-01-01T00:55:48.000Z</time>
      </trkpt>
      <trkpt lat="42.328648" lon="-8.818444">
        <ele>102.2</ele>
        <time>1970-01-01T00:55:49.000Z</time>
      </trkpt>
      <trkpt lat="42.328636" lon="-8.818437">
        <ele>101.8</ele>
        <time>1970-01-01T00:55:50.000Z</time>
      </trkpt>
      <trkpt lat="42.328625" lon="-8.81843">
        <ele>101.6</ele>
        <time>1970-01-01T00:55:51.000Z</time>
      </trkpt>
      <trkpt lat="42.328613" lon="-8.818425">
        <ele>101.4</ele>
        <time>1970-01-01T00:55:52.000Z</time>
      </trkpt>
      <trkpt lat="42.328602" lon="-8.818423">
        <ele>100.8</ele>
        <time>1970-01-01T00:55:53.000Z</time>
      </trkpt>
      <trkpt lat="42.328593" lon="-8.818424">
        <ele>100.4</ele>
        <time>1970-01-01T00:55:54.000Z</time>
      </trkpt>
      <trkpt lat="42.328583" lon="-8.818422">
        <ele>100</ele>
        <time>1970-01-01T00:55:55.000Z</time>
      </trkpt>
      <trkpt lat="42.328573" lon="-8.818418">
        <ele>99.8</ele>
        <time>1970-01-01T00:55:56.000Z</time>
      </trkpt>
      <trkpt lat="42.328561" lon="-8.818416">
        <ele>99.6</ele>
        <time>1970-01-01T00:55:57.000Z</time>
      </trkpt>
      <trkpt lat="42.32855" lon="-8.81842">
        <ele>99.6</ele>
        <time>1970-01-01T00:55:58.000Z</time>
      </trkpt>
      <trkpt lat="42.328539" lon="-8.818424">
        <ele>99.6</ele>
        <time>1970-01-01T00:55:59.000Z</time>
      </trkpt>
      <trkpt lat="42.328528" lon="-8.818431">
        <ele>99.6</ele>
        <time>1970-01-01T00:56:00.000Z</time>
      </trkpt>
      <trkpt lat="42.328518" lon="-8.81843">
        <ele>99.6</ele>
        <time>1970-01-01T00:56:01.000Z</time>
      </trkpt>
      <trkpt lat="42.328509" lon="-8.818425">
        <ele>99.6</ele>
        <time>1970-01-01T00:56:02.000Z</time>
      </trkpt>
      <trkpt lat="42.328501" lon="-8.818421">
        <ele>99.6</ele>
        <time>1970-01-01T00:56:03.000Z</time>
      </trkpt>
      <trkpt lat="42.328493" lon="-8.818415">
        <ele>99.2</ele>
        <time>1970-01-01T00:56:04.000Z</time>
      </trkpt>
      <trkpt lat="42.328485" lon="-8.81841">
        <ele>99</ele>
        <time>1970-01-01T00:56:05.000Z</time>
      </trkpt>
      <trkpt lat="42.328475" lon="-8.818408">
        <ele>99</ele>
        <time>1970-01-01T00:56:06.000Z</time>
      </trkpt>
      <trkpt lat="42.328463" lon="-8.818402">
        <ele>98.8</ele>
        <time>1970-01-01T00:56:07.000Z</time>
      </trkpt>
      <trkpt lat="42.328449" lon="-8.818389">
        <ele>98.4</ele>
        <time>1970-01-01T00:56:08.000Z</time>
      </trkpt>
      <trkpt lat="42.328437" lon="-8.818374">
        <ele>98.2</ele>
        <time>1970-01-01T00:56:09.000Z</time>
      </trkpt>
      <trkpt lat="42.328427" lon="-8.818364">
        <ele>98</ele>
        <time>1970-01-01T00:56:10.000Z</time>
      </trkpt>
      <trkpt lat="42.328417" lon="-8.818355">
        <ele>97.8</ele>
        <time>1970-01-01T00:56:11.000Z</time>
      </trkpt>
      <trkpt lat="42.328408" lon="-8.818344">
        <ele>97.6</ele>
        <time>1970-01-01T00:56:12.000Z</time>
      </trkpt>
      <trkpt lat="42.328397" lon="-8.818335">
        <ele>97.4</ele>
        <time>1970-01-01T00:56:13.000Z</time>
      </trkpt>
      <trkpt lat="42.328386" lon="-8.818327">
        <ele>97.2</ele>
        <time>1970-01-01T00:56:14.000Z</time>
      </trkpt>
      <trkpt lat="42.328373" lon="-8.818312">
        <ele>97.2</ele>
        <time>1970-01-01T00:56:15.000Z</time>
      </trkpt>
      <trkpt lat="42.328355" lon="-8.818291">
        <ele>97</ele>
        <time>1970-01-01T00:56:16.000Z</time>
      </trkpt>
      <trkpt lat="42.328339" lon="-8.818276">
        <ele>97</ele>
        <time>1970-01-01T00:56:17.000Z</time>
      </trkpt>
      <trkpt lat="42.328325" lon="-8.818261">
        <ele>97</ele>
        <time>1970-01-01T00:56:18.000Z</time>
      </trkpt>
      <trkpt lat="42.328312" lon="-8.818241">
        <ele>96.8</ele>
        <time>1970-01-01T00:56:19.000Z</time>
      </trkpt>
      <trkpt lat="42.3283" lon="-8.818222">
        <ele>96.8</ele>
        <time>1970-01-01T00:56:20.000Z</time>
      </trkpt>
      <trkpt lat="42.328291" lon="-8.818198">
        <ele>96.4</ele>
        <time>1970-01-01T00:56:21.000Z</time>
      </trkpt>
      <trkpt lat="42.328278" lon="-8.818179">
        <ele>96.2</ele>
        <time>1970-01-01T00:56:22.000Z</time>
      </trkpt>
      <trkpt lat="42.328269" lon="-8.818156">
        <ele>96</ele>
        <time>1970-01-01T00:56:23.000Z</time>
      </trkpt>
      <trkpt lat="42.32826" lon="-8.818138">
        <ele>96</ele>
        <time>1970-01-01T00:56:24.000Z</time>
      </trkpt>
      <trkpt lat="42.328251" lon="-8.818116">
        <ele>96</ele>
        <time>1970-01-01T00:56:25.000Z</time>
      </trkpt>
      <trkpt lat="42.328242" lon="-8.818099">
        <ele>96</ele>
        <time>1970-01-01T00:56:26.000Z</time>
      </trkpt>
      <trkpt lat="42.328236" lon="-8.818083">
        <ele>96</ele>
        <time>1970-01-01T00:56:27.000Z</time>
      </trkpt>
      <trkpt lat="42.32823" lon="-8.818063">
        <ele>96</ele>
        <time>1970-01-01T00:56:28.000Z</time>
      </trkpt>
      <trkpt lat="42.328222" lon="-8.818043">
        <ele>96</ele>
        <time>1970-01-01T00:56:29.000Z</time>
      </trkpt>
      <trkpt lat="42.328215" lon="-8.818028">
        <ele>96</ele>
        <time>1970-01-01T00:56:30.000Z</time>
      </trkpt>
      <trkpt lat="42.328208" lon="-8.818016">
        <ele>96</ele>
        <time>1970-01-01T00:56:31.000Z</time>
      </trkpt>
      <trkpt lat="42.328198" lon="-8.818001">
        <ele>95.8</ele>
        <time>1970-01-01T00:56:32.000Z</time>
      </trkpt>
      <trkpt lat="42.32819" lon="-8.817997">
        <ele>95.8</ele>
        <time>1970-01-01T00:56:33.000Z</time>
      </trkpt>
      <trkpt lat="42.328183" lon="-8.817988">
        <ele>95.8</ele>
        <time>1970-01-01T00:56:34.000Z</time>
      </trkpt>
      <trkpt lat="42.328173" lon="-8.817975">
        <ele>95.8</ele>
        <time>1970-01-01T00:56:35.000Z</time>
      </trkpt>
      <trkpt lat="42.328169" lon="-8.817966">
        <ele>95.6</ele>
        <time>1970-01-01T00:56:36.000Z</time>
      </trkpt>
      <trkpt lat="42.328161" lon="-8.817961">
        <ele>95.8</ele>
        <time>1970-01-01T00:56:37.000Z</time>
      </trkpt>
      <trkpt lat="42.32815" lon="-8.81796">
        <ele>95.8</ele>
        <time>1970-01-01T00:56:38.000Z</time>
      </trkpt>
      <trkpt lat="42.328136" lon="-8.817953">
        <ele>96</ele>
        <time>1970-01-01T00:56:39.000Z</time>
      </trkpt>
      <trkpt lat="42.32812" lon="-8.817948">
        <ele>96</ele>
        <time>1970-01-01T00:56:40.000Z</time>
      </trkpt>
      <trkpt lat="42.328106" lon="-8.817944">
        <ele>96.2</ele>
        <time>1970-01-01T00:56:41.000Z</time>
      </trkpt>
      <trkpt lat="42.328091" lon="-8.817941">
        <ele>96.2</ele>
        <time>1970-01-01T00:56:42.000Z</time>
      </trkpt>
      <trkpt lat="42.328074" lon="-8.817934">
        <ele>96.2</ele>
        <time>1970-01-01T00:56:43.000Z</time>
      </trkpt>
      <trkpt lat="42.328061" lon="-8.817929">
        <ele>96</ele>
        <time>1970-01-01T00:56:44.000Z</time>
      </trkpt>
      <trkpt lat="42.328047" lon="-8.817925">
        <ele>96.2</ele>
        <time>1970-01-01T00:56:45.000Z</time>
      </trkpt>
      <trkpt lat="42.328032" lon="-8.817916">
        <ele>96.2</ele>
        <time>1970-01-01T00:56:46.000Z</time>
      </trkpt>
      <trkpt lat="42.328019" lon="-8.817911">
        <ele>96.2</ele>
        <time>1970-01-01T00:56:47.000Z</time>
      </trkpt>
      <trkpt lat="42.328005" lon="-8.817908">
        <ele>96</ele>
        <time>1970-01-01T00:56:48.000Z</time>
      </trkpt>
      <trkpt lat="42.32799" lon="-8.817909">
        <ele>96</ele>
        <time>1970-01-01T00:56:49.000Z</time>
      </trkpt>
      <trkpt lat="42.327975" lon="-8.817907">
        <ele>96</ele>
        <time>1970-01-01T00:56:50.000Z</time>
      </trkpt>
      <trkpt lat="42.32796" lon="-8.817915">
        <ele>95.8</ele>
        <time>1970-01-01T00:56:51.000Z</time>
      </trkpt>
      <trkpt lat="42.327948" lon="-8.817921">
        <ele>95.8</ele>
        <time>1970-01-01T00:56:52.000Z</time>
      </trkpt>
      <trkpt lat="42.327935" lon="-8.817929">
        <ele>95.6</ele>
        <time>1970-01-01T00:56:53.000Z</time>
      </trkpt>
      <trkpt lat="42.327921" lon="-8.817935">
        <ele>95.4</ele>
        <time>1970-01-01T00:56:54.000Z</time>
      </trkpt>
      <trkpt lat="42.327908" lon="-8.817941">
        <ele>95.2</ele>
        <time>1970-01-01T00:56:55.000Z</time>
      </trkpt>
      <trkpt lat="42.327895" lon="-8.817942">
        <ele>95</ele>
        <time>1970-01-01T00:56:56.000Z</time>
      </trkpt>
      <trkpt lat="42.327884" lon="-8.817943">
        <ele>94.6</ele>
        <time>1970-01-01T00:56:57.000Z</time>
      </trkpt>
      <trkpt lat="42.327875" lon="-8.817944">
        <ele>94.2</ele>
        <time>1970-01-01T00:56:58.000Z</time>
      </trkpt>
      <trkpt lat="42.327865" lon="-8.817945">
        <ele>94.2</ele>
        <time>1970-01-01T00:56:59.000Z</time>
      </trkpt>
      <trkpt lat="42.327855" lon="-8.817947">
        <ele>94.6</ele>
        <time>1970-01-01T00:57:00.000Z</time>
      </trkpt>
      <trkpt lat="42.327843" lon="-8.817947">
        <ele>94.8</ele>
        <time>1970-01-01T00:57:01.000Z</time>
      </trkpt>
      <trkpt lat="42.327832" lon="-8.817948">
        <ele>94.8</ele>
        <time>1970-01-01T00:57:02.000Z</time>
      </trkpt>
      <trkpt lat="42.327823" lon="-8.817951">
        <ele>94.8</ele>
        <time>1970-01-01T00:57:03.000Z</time>
      </trkpt>
      <trkpt lat="42.327813" lon="-8.817954">
        <ele>94.8</ele>
        <time>1970-01-01T00:57:04.000Z</time>
      </trkpt>
      <trkpt lat="42.3278" lon="-8.817959">
        <ele>94.6</ele>
        <time>1970-01-01T00:57:05.000Z</time>
      </trkpt>
      <trkpt lat="42.327789" lon="-8.817965">
        <ele>94.4</ele>
        <time>1970-01-01T00:57:06.000Z</time>
      </trkpt>
      <trkpt lat="42.327777" lon="-8.817975">
        <ele>94.2</ele>
        <time>1970-01-01T00:57:07.000Z</time>
      </trkpt>
      <trkpt lat="42.327764" lon="-8.817984">
        <ele>93.8</ele>
        <time>1970-01-01T00:57:08.000Z</time>
      </trkpt>
      <trkpt lat="42.327753" lon="-8.81799">
        <ele>94</ele>
        <time>1970-01-01T00:57:09.000Z</time>
      </trkpt>
      <trkpt lat="42.327744" lon="-8.817996">
        <ele>94</ele>
        <time>1970-01-01T00:57:10.000Z</time>
      </trkpt>
      <trkpt lat="42.327734" lon="-8.817998">
        <ele>94</ele>
        <time>1970-01-01T00:57:11.000Z</time>
      </trkpt>
      <trkpt lat="42.327725" lon="-8.817997">
        <ele>94</ele>
        <time>1970-01-01T00:57:12.000Z</time>
      </trkpt>
      <trkpt lat="42.327715" lon="-8.817995">
        <ele>93.8</ele>
        <time>1970-01-01T00:57:13.000Z</time>
      </trkpt>
      <trkpt lat="42.327705" lon="-8.817997">
        <ele>93.8</ele>
        <time>1970-01-01T00:57:14.000Z</time>
      </trkpt>
      <trkpt lat="42.327694" lon="-8.817994">
        <ele>94</ele>
        <time>1970-01-01T00:57:15.000Z</time>
      </trkpt>
      <trkpt lat="42.327683" lon="-8.81799">
        <ele>94</ele>
        <time>1970-01-01T00:57:16.000Z</time>
      </trkpt>
      <trkpt lat="42.327674" lon="-8.817986">
        <ele>93.8</ele>
        <time>1970-01-01T00:57:17.000Z</time>
      </trkpt>
      <trkpt lat="42.327663" lon="-8.817981">
        <ele>93.6</ele>
        <time>1970-01-01T00:57:18.000Z</time>
      </trkpt>
      <trkpt lat="42.327651" lon="-8.817977">
        <ele>93.6</ele>
        <time>1970-01-01T00:57:19.000Z</time>
      </trkpt>
      <trkpt lat="42.327638" lon="-8.817974">
        <ele>93.6</ele>
        <time>1970-01-01T00:57:20.000Z</time>
      </trkpt>
      <trkpt lat="42.327623" lon="-8.817974">
        <ele>93.6</ele>
        <time>1970-01-01T00:57:21.000Z</time>
      </trkpt>
      <trkpt lat="42.327609" lon="-8.817969">
        <ele>93.6</ele>
        <time>1970-01-01T00:57:22.000Z</time>
      </trkpt>
      <trkpt lat="42.327594" lon="-8.817965">
        <ele>93.6</ele>
        <time>1970-01-01T00:57:23.000Z</time>
      </trkpt>
      <trkpt lat="42.327578" lon="-8.817962">
        <ele>93.6</ele>
        <time>1970-01-01T00:57:24.000Z</time>
      </trkpt>
      <trkpt lat="42.327561" lon="-8.817959">
        <ele>93.8</ele>
        <time>1970-01-01T00:57:25.000Z</time>
      </trkpt>
      <trkpt lat="42.327543" lon="-8.817953">
        <ele>94</ele>
        <time>1970-01-01T00:57:26.000Z</time>
      </trkpt>
      <trkpt lat="42.327526" lon="-8.817951">
        <ele>94</ele>
        <time>1970-01-01T00:57:27.000Z</time>
      </trkpt>
      <trkpt lat="42.327509" lon="-8.817946">
        <ele>94</ele>
        <time>1970-01-01T00:57:28.000Z</time>
      </trkpt>
      <trkpt lat="42.327497" lon="-8.817942">
        <ele>94</ele>
        <time>1970-01-01T00:57:29.000Z</time>
      </trkpt>
      <trkpt lat="42.327485" lon="-8.81794">
        <ele>94</ele>
        <time>1970-01-01T00:57:30.000Z</time>
      </trkpt>
      <trkpt lat="42.327474" lon="-8.817939">
        <ele>94</ele>
        <time>1970-01-01T00:57:31.000Z</time>
      </trkpt>
      <trkpt lat="42.327463" lon="-8.817936">
        <ele>94</ele>
        <time>1970-01-01T00:57:32.000Z</time>
      </trkpt>
      <trkpt lat="42.327453" lon="-8.817934">
        <ele>94</ele>
        <time>1970-01-01T00:57:33.000Z</time>
      </trkpt>
      <trkpt lat="42.327443" lon="-8.817931">
        <ele>94</ele>
        <time>1970-01-01T00:57:34.000Z</time>
      </trkpt>
      <trkpt lat="42.327434" lon="-8.817929">
        <ele>94</ele>
        <time>1970-01-01T00:57:35.000Z</time>
      </trkpt>
      <trkpt lat="42.327425" lon="-8.817925">
        <ele>94</ele>
        <time>1970-01-01T00:57:36.000Z</time>
      </trkpt>
      <trkpt lat="42.327414" lon="-8.817924">
        <ele>94</ele>
        <time>1970-01-01T00:57:37.000Z</time>
      </trkpt>
      <trkpt lat="42.327401" lon="-8.817919">
        <ele>94</ele>
        <time>1970-01-01T00:57:38.000Z</time>
      </trkpt>
      <trkpt lat="42.327388" lon="-8.817919">
        <ele>94</ele>
        <time>1970-01-01T00:57:39.000Z</time>
      </trkpt>
      <trkpt lat="42.327377" lon="-8.817914">
        <ele>94</ele>
        <time>1970-01-01T00:57:40.000Z</time>
      </trkpt>
      <trkpt lat="42.327365" lon="-8.817906">
        <ele>94.2</ele>
        <time>1970-01-01T00:57:41.000Z</time>
      </trkpt>
      <trkpt lat="42.327354" lon="-8.817898">
        <ele>94.2</ele>
        <time>1970-01-01T00:57:42.000Z</time>
      </trkpt>
      <trkpt lat="42.327343" lon="-8.817893">
        <ele>94.2</ele>
        <time>1970-01-01T00:57:43.000Z</time>
      </trkpt>
      <trkpt lat="42.327333" lon="-8.81789">
        <ele>94.2</ele>
        <time>1970-01-01T00:57:44.000Z</time>
      </trkpt>
      <trkpt lat="42.327318" lon="-8.817883">
        <ele>94.2</ele>
        <time>1970-01-01T00:57:45.000Z</time>
      </trkpt>
      <trkpt lat="42.327305" lon="-8.817877">
        <ele>94.4</ele>
        <time>1970-01-01T00:57:46.000Z</time>
      </trkpt>
      <trkpt lat="42.327291" lon="-8.81787">
        <ele>94.4</ele>
        <time>1970-01-01T00:57:47.000Z</time>
      </trkpt>
      <trkpt lat="42.327274" lon="-8.817865">
        <ele>94.6</ele>
        <time>1970-01-01T00:57:48.000Z</time>
      </trkpt>
      <trkpt lat="42.327261" lon="-8.817854">
        <ele>94.6</ele>
        <time>1970-01-01T00:57:49.000Z</time>
      </trkpt>
      <trkpt lat="42.32725" lon="-8.817848">
        <ele>94.6</ele>
        <time>1970-01-01T00:57:50.000Z</time>
      </trkpt>
      <trkpt lat="42.327238" lon="-8.817839">
        <ele>94.8</ele>
        <time>1970-01-01T00:57:51.000Z</time>
      </trkpt>
      <trkpt lat="42.327225" lon="-8.817838">
        <ele>94.8</ele>
        <time>1970-01-01T00:57:52.000Z</time>
      </trkpt>
      <trkpt lat="42.32721" lon="-8.817837">
        <ele>94.8</ele>
        <time>1970-01-01T00:57:53.000Z</time>
      </trkpt>
      <trkpt lat="42.327198" lon="-8.817834">
        <ele>94.8</ele>
        <time>1970-01-01T00:57:54.000Z</time>
      </trkpt>
      <trkpt lat="42.327186" lon="-8.817829">
        <ele>94.8</ele>
        <time>1970-01-01T00:57:55.000Z</time>
      </trkpt>
      <trkpt lat="42.327176" lon="-8.817827">
        <ele>94.8</ele>
        <time>1970-01-01T00:57:56.000Z</time>
      </trkpt>
      <trkpt lat="42.327166" lon="-8.817828">
        <ele>94.6</ele>
        <time>1970-01-01T00:57:57.000Z</time>
      </trkpt>
      <trkpt lat="42.327155" lon="-8.817826">
        <ele>94.6</ele>
        <time>1970-01-01T00:57:58.000Z</time>
      </trkpt>
      <trkpt lat="42.327143" lon="-8.817824">
        <ele>94.6</ele>
        <time>1970-01-01T00:57:59.000Z</time>
      </trkpt>
      <trkpt lat="42.327131" lon="-8.81782">
        <ele>94.6</ele>
        <time>1970-01-01T00:58:00.000Z</time>
      </trkpt>
      <trkpt lat="42.327117" lon="-8.817809">
        <ele>94.8</ele>
        <time>1970-01-01T00:58:01.000Z</time>
      </trkpt>
      <trkpt lat="42.327103" lon="-8.8178">
        <ele>94.6</ele>
        <time>1970-01-01T00:58:02.000Z</time>
      </trkpt>
      <trkpt lat="42.327087" lon="-8.817799">
        <ele>94.6</ele>
        <time>1970-01-01T00:58:03.000Z</time>
      </trkpt>
      <trkpt lat="42.32707" lon="-8.817794">
        <ele>94.6</ele>
        <time>1970-01-01T00:58:04.000Z</time>
      </trkpt>
      <trkpt lat="42.32705" lon="-8.817792">
        <ele>94.6</ele>
        <time>1970-01-01T00:58:05.000Z</time>
      </trkpt>
      <trkpt lat="42.32703" lon="-8.817791">
        <ele>94.6</ele>
        <time>1970-01-01T00:58:06.000Z</time>
      </trkpt>
      <trkpt lat="42.327011" lon="-8.817789">
        <ele>94.6</ele>
        <time>1970-01-01T00:58:07.000Z</time>
      </trkpt>
      <trkpt lat="42.326995" lon="-8.817786">
        <ele>94.6</ele>
        <time>1970-01-01T00:58:08.000Z</time>
      </trkpt>
      <trkpt lat="42.326979" lon="-8.817785">
        <ele>94.6</ele>
        <time>1970-01-01T00:58:09.000Z</time>
      </trkpt>
      <trkpt lat="42.326961" lon="-8.817783">
        <ele>94.6</ele>
        <time>1970-01-01T00:58:10.000Z</time>
      </trkpt>
      <trkpt lat="42.326945" lon="-8.817782">
        <ele>94.6</ele>
        <time>1970-01-01T00:58:11.000Z</time>
      </trkpt>
      <trkpt lat="42.326933" lon="-8.817784">
        <ele>94.6</ele>
        <time>1970-01-01T00:58:12.000Z</time>
      </trkpt>
      <trkpt lat="42.326921" lon="-8.817786">
        <ele>94.8</ele>
        <time>1970-01-01T00:58:13.000Z</time>
      </trkpt>
      <trkpt lat="42.326906" lon="-8.817781">
        <ele>94.8</ele>
        <time>1970-01-01T00:58:14.000Z</time>
      </trkpt>
      <trkpt lat="42.326891" lon="-8.817778">
        <ele>94.6</ele>
        <time>1970-01-01T00:58:15.000Z</time>
      </trkpt>
      <trkpt lat="42.326878" lon="-8.817775">
        <ele>94.8</ele>
        <time>1970-01-01T00:58:16.000Z</time>
      </trkpt>
      <trkpt lat="42.326864" lon="-8.817774">
        <ele>95</ele>
        <time>1970-01-01T00:58:17.000Z</time>
      </trkpt>
      <trkpt lat="42.326851" lon="-8.817775">
        <ele>95.2</ele>
        <time>1970-01-01T00:58:18.000Z</time>
      </trkpt>
      <trkpt lat="42.326838" lon="-8.817773">
        <ele>95.2</ele>
        <time>1970-01-01T00:58:19.000Z</time>
      </trkpt>
      <trkpt lat="42.326824" lon="-8.817776">
        <ele>95.2</ele>
        <time>1970-01-01T00:58:20.000Z</time>
      </trkpt>
      <trkpt lat="42.326813" lon="-8.817775">
        <ele>95.4</ele>
        <time>1970-01-01T00:58:21.000Z</time>
      </trkpt>
      <trkpt lat="42.3268" lon="-8.817772">
        <ele>95.4</ele>
        <time>1970-01-01T00:58:22.000Z</time>
      </trkpt>
      <trkpt lat="42.326784" lon="-8.817777">
        <ele>95.4</ele>
        <time>1970-01-01T00:58:23.000Z</time>
      </trkpt>
      <trkpt lat="42.326772" lon="-8.817776">
        <ele>95.4</ele>
        <time>1970-01-01T00:58:24.000Z</time>
      </trkpt>
      <trkpt lat="42.326758" lon="-8.817779">
        <ele>95.4</ele>
        <time>1970-01-01T00:58:25.000Z</time>
      </trkpt>
      <trkpt lat="42.326741" lon="-8.817781">
        <ele>95.4</ele>
        <time>1970-01-01T00:58:26.000Z</time>
      </trkpt>
      <trkpt lat="42.326726" lon="-8.817783">
        <ele>95.6</ele>
        <time>1970-01-01T00:58:27.000Z</time>
      </trkpt>
      <trkpt lat="42.326711" lon="-8.817781">
        <ele>95.8</ele>
        <time>1970-01-01T00:58:28.000Z</time>
      </trkpt>
      <trkpt lat="42.326696" lon="-8.81778">
        <ele>95.8</ele>
        <time>1970-01-01T00:58:29.000Z</time>
      </trkpt>
      <trkpt lat="42.32668" lon="-8.817787">
        <ele>95.8</ele>
        <time>1970-01-01T00:58:30.000Z</time>
      </trkpt>
      <trkpt lat="42.326667" lon="-8.817792">
        <ele>95.8</ele>
        <time>1970-01-01T00:58:31.000Z</time>
      </trkpt>
      <trkpt lat="42.326654" lon="-8.817797">
        <ele>95.8</ele>
        <time>1970-01-01T00:58:32.000Z</time>
      </trkpt>
      <trkpt lat="42.32664" lon="-8.817801">
        <ele>95.8</ele>
        <time>1970-01-01T00:58:33.000Z</time>
      </trkpt>
      <trkpt lat="42.326628" lon="-8.817809">
        <ele>95.8</ele>
        <time>1970-01-01T00:58:34.000Z</time>
      </trkpt>
      <trkpt lat="42.326617" lon="-8.817816">
        <ele>95.8</ele>
        <time>1970-01-01T00:58:35.000Z</time>
      </trkpt>
      <trkpt lat="42.326606" lon="-8.817827">
        <ele>95.8</ele>
        <time>1970-01-01T00:58:36.000Z</time>
      </trkpt>
      <trkpt lat="42.326592" lon="-8.817838">
        <ele>96</ele>
        <time>1970-01-01T00:58:37.000Z</time>
      </trkpt>
      <trkpt lat="42.32658" lon="-8.817847">
        <ele>96.2</ele>
        <time>1970-01-01T00:58:38.000Z</time>
      </trkpt>
      <trkpt lat="42.326565" lon="-8.817864">
        <ele>96.2</ele>
        <time>1970-01-01T00:58:39.000Z</time>
      </trkpt>
      <trkpt lat="42.32655" lon="-8.81787">
        <ele>96.4</ele>
        <time>1970-01-01T00:58:40.000Z</time>
      </trkpt>
      <trkpt lat="42.326532" lon="-8.817876">
        <ele>96.6</ele>
        <time>1970-01-01T00:58:41.000Z</time>
      </trkpt>
      <trkpt lat="42.326519" lon="-8.817891">
        <ele>96.8</ele>
        <time>1970-01-01T00:58:42.000Z</time>
      </trkpt>
      <trkpt lat="42.326501" lon="-8.817908">
        <ele>96.8</ele>
        <time>1970-01-01T00:58:43.000Z</time>
      </trkpt>
      <trkpt lat="42.326486" lon="-8.817918">
        <ele>96.8</ele>
        <time>1970-01-01T00:58:44.000Z</time>
      </trkpt>
      <trkpt lat="42.326472" lon="-8.817932">
        <ele>97</ele>
        <time>1970-01-01T00:58:45.000Z</time>
      </trkpt>
      <trkpt lat="42.326461" lon="-8.817944">
        <ele>97</ele>
        <time>1970-01-01T00:58:46.000Z</time>
      </trkpt>
      <trkpt lat="42.326448" lon="-8.817954">
        <ele>97</ele>
        <time>1970-01-01T00:58:47.000Z</time>
      </trkpt>
      <trkpt lat="42.326436" lon="-8.817963">
        <ele>97</ele>
        <time>1970-01-01T00:58:48.000Z</time>
      </trkpt>
      <trkpt lat="42.326428" lon="-8.817973">
        <ele>97.2</ele>
        <time>1970-01-01T00:58:49.000Z</time>
      </trkpt>
      <trkpt lat="42.326424" lon="-8.817981">
        <ele>97.2</ele>
        <time>1970-01-01T00:58:50.000Z</time>
      </trkpt>
      <trkpt lat="42.326419" lon="-8.817985">
        <ele>97.2</ele>
        <time>1970-01-01T00:58:51.000Z</time>
      </trkpt>
      <trkpt lat="42.326428" lon="-8.818004">
        <ele>97</ele>
        <time>1970-01-01T00:58:52.000Z</time>
      </trkpt>
      <trkpt lat="42.326444" lon="-8.818025">
        <ele>96.8</ele>
        <time>1970-01-01T00:58:53.000Z</time>
      </trkpt>
      <trkpt lat="42.326461" lon="-8.818047">
        <ele>96.6</ele>
        <time>1970-01-01T00:58:54.000Z</time>
      </trkpt>
      <trkpt lat="42.326475" lon="-8.818061">
        <ele>96.4</ele>
        <time>1970-01-01T00:58:55.000Z</time>
      </trkpt>
      <trkpt lat="42.326488" lon="-8.81808">
        <ele>96.4</ele>
        <time>1970-01-01T00:58:56.000Z</time>
      </trkpt>
      <trkpt lat="42.326501" lon="-8.818104">
        <ele>96</ele>
        <time>1970-01-01T00:58:57.000Z</time>
      </trkpt>
      <trkpt lat="42.326511" lon="-8.818123">
        <ele>95.6</ele>
        <time>1970-01-01T00:58:58.000Z</time>
      </trkpt>
      <trkpt lat="42.326519" lon="-8.818136">
        <ele>95.6</ele>
        <time>1970-01-01T00:58:59.000Z</time>
      </trkpt>
      <trkpt lat="42.326525" lon="-8.818155">
        <ele>95.4</ele>
        <time>1970-01-01T00:59:00.000Z</time>
      </trkpt>
      <trkpt lat="42.326528" lon="-8.818171">
        <ele>95.4</ele>
        <time>1970-01-01T00:59:01.000Z</time>
      </trkpt>
      <trkpt lat="42.32653" lon="-8.818185">
        <ele>95.2</ele>
        <time>1970-01-01T00:59:02.000Z</time>
      </trkpt>
      <trkpt lat="42.326528" lon="-8.818203">
        <ele>95</ele>
        <time>1970-01-01T00:59:03.000Z</time>
      </trkpt>
      <trkpt lat="42.326526" lon="-8.818219">
        <ele>95</ele>
        <time>1970-01-01T00:59:04.000Z</time>
      </trkpt>
      <trkpt lat="42.326524" lon="-8.818235">
        <ele>94.8</ele>
        <time>1970-01-01T00:59:05.000Z</time>
      </trkpt>
      <trkpt lat="42.326523" lon="-8.818253">
        <ele>94.8</ele>
        <time>1970-01-01T00:59:06.000Z</time>
      </trkpt>
      <trkpt lat="42.326521" lon="-8.81827">
        <ele>94.6</ele>
        <time>1970-01-01T00:59:07.000Z</time>
      </trkpt>
      <trkpt lat="42.326515" lon="-8.818286">
        <ele>94.2</ele>
        <time>1970-01-01T00:59:08.000Z</time>
      </trkpt>
      <trkpt lat="42.326509" lon="-8.8183">
        <ele>94</ele>
        <time>1970-01-01T00:59:09.000Z</time>
      </trkpt>
      <trkpt lat="42.326505" lon="-8.818311">
        <ele>93.6</ele>
        <time>1970-01-01T00:59:10.000Z</time>
      </trkpt>
      <trkpt lat="42.326497" lon="-8.818322">
        <ele>93.2</ele>
        <time>1970-01-01T00:59:11.000Z</time>
      </trkpt>
      <trkpt lat="42.326491" lon="-8.818336">
        <ele>93</ele>
        <time>1970-01-01T00:59:12.000Z</time>
      </trkpt>
      <trkpt lat="42.326481" lon="-8.818355">
        <ele>92.8</ele>
        <time>1970-01-01T00:59:13.000Z</time>
      </trkpt>
      <trkpt lat="42.326474" lon="-8.818378">
        <ele>92.6</ele>
        <time>1970-01-01T00:59:14.000Z</time>
      </trkpt>
      <trkpt lat="42.326468" lon="-8.818392">
        <ele>92.4</ele>
        <time>1970-01-01T00:59:15.000Z</time>
      </trkpt>
      <trkpt lat="42.326461" lon="-8.818404">
        <ele>92.2</ele>
        <time>1970-01-01T00:59:16.000Z</time>
      </trkpt>
      <trkpt lat="42.326449" lon="-8.818426">
        <ele>92</ele>
        <time>1970-01-01T00:59:17.000Z</time>
      </trkpt>
      <trkpt lat="42.326444" lon="-8.818436">
        <ele>92</ele>
        <time>1970-01-01T00:59:18.000Z</time>
      </trkpt>
      <trkpt lat="42.326441" lon="-8.818446">
        <ele>91.8</ele>
        <time>1970-01-01T00:59:19.000Z</time>
      </trkpt>
      <trkpt lat="42.32644" lon="-8.818454">
        <ele>91.6</ele>
        <time>1970-01-01T00:59:20.000Z</time>
      </trkpt>
      <trkpt lat="42.326439" lon="-8.818465">
        <ele>91.2</ele>
        <time>1970-01-01T00:59:21.000Z</time>
      </trkpt>
      <trkpt lat="42.326437" lon="-8.818476">
        <ele>91</ele>
        <time>1970-01-01T00:59:22.000Z</time>
      </trkpt>
      <trkpt lat="42.326434" lon="-8.818491">
        <ele>90.8</ele>
        <time>1970-01-01T00:59:23.000Z</time>
      </trkpt>
      <trkpt lat="42.326431" lon="-8.818507">
        <ele>90.4</ele>
        <time>1970-01-01T00:59:24.000Z</time>
      </trkpt>
      <trkpt lat="42.326429" lon="-8.818526">
        <ele>90</ele>
        <time>1970-01-01T00:59:25.000Z</time>
      </trkpt>
      <trkpt lat="42.326427" lon="-8.818545">
        <ele>89.8</ele>
        <time>1970-01-01T00:59:26.000Z</time>
      </trkpt>
      <trkpt lat="42.326428" lon="-8.818566">
        <ele>89.4</ele>
        <time>1970-01-01T00:59:27.000Z</time>
      </trkpt>
      <trkpt lat="42.326424" lon="-8.818581">
        <ele>89.2</ele>
        <time>1970-01-01T00:59:28.000Z</time>
      </trkpt>
      <trkpt lat="42.326424" lon="-8.818596">
        <ele>88.6</ele>
        <time>1970-01-01T00:59:29.000Z</time>
      </trkpt>
      <trkpt lat="42.326425" lon="-8.818612">
        <ele>88.2</ele>
        <time>1970-01-01T00:59:30.000Z</time>
      </trkpt>
      <trkpt lat="42.326428" lon="-8.818631">
        <ele>88</ele>
        <time>1970-01-01T00:59:31.000Z</time>
      </trkpt>
      <trkpt lat="42.326427" lon="-8.818656">
        <ele>87.8</ele>
        <time>1970-01-01T00:59:32.000Z</time>
      </trkpt>
      <trkpt lat="42.326432" lon="-8.81867">
        <ele>87.4</ele>
        <time>1970-01-01T00:59:33.000Z</time>
      </trkpt>
      <trkpt lat="42.326439" lon="-8.81868">
        <ele>87.4</ele>
        <time>1970-01-01T00:59:34.000Z</time>
      </trkpt>
      <trkpt lat="42.326447" lon="-8.81869">
        <ele>87.2</ele>
        <time>1970-01-01T00:59:35.000Z</time>
      </trkpt>
      <trkpt lat="42.326455" lon="-8.818699">
        <ele>87.2</ele>
        <time>1970-01-01T00:59:36.000Z</time>
      </trkpt>
      <trkpt lat="42.326464" lon="-8.818715">
        <ele>87</ele>
        <time>1970-01-01T00:59:37.000Z</time>
      </trkpt>
      <trkpt lat="42.326474" lon="-8.818731">
        <ele>87</ele>
        <time>1970-01-01T00:59:38.000Z</time>
      </trkpt>
      <trkpt lat="42.326477" lon="-8.818754">
        <ele>87</ele>
        <time>1970-01-01T00:59:39.000Z</time>
      </trkpt>
      <trkpt lat="42.326482" lon="-8.818761">
        <ele>86.6</ele>
        <time>1970-01-01T00:59:40.000Z</time>
      </trkpt>
      <trkpt lat="42.326489" lon="-8.818771">
        <ele>86.2</ele>
        <time>1970-01-01T00:59:41.000Z</time>
      </trkpt>
      <trkpt lat="42.326495" lon="-8.818783">
        <ele>85.6</ele>
        <time>1970-01-01T00:59:42.000Z</time>
      </trkpt>
      <trkpt lat="42.326499" lon="-8.818797">
        <ele>85.2</ele>
        <time>1970-01-01T00:59:43.000Z</time>
      </trkpt>
      <trkpt lat="42.326505" lon="-8.818813">
        <ele>84.8</ele>
        <time>1970-01-01T00:59:44.000Z</time>
      </trkpt>
      <trkpt lat="42.326508" lon="-8.818833">
        <ele>84.8</ele>
        <time>1970-01-01T00:59:45.000Z</time>
      </trkpt>
      <trkpt lat="42.326511" lon="-8.818848">
        <ele>84.6</ele>
        <time>1970-01-01T00:59:46.000Z</time>
      </trkpt>
      <trkpt lat="42.326514" lon="-8.818867">
        <ele>84.6</ele>
        <time>1970-01-01T00:59:47.000Z</time>
      </trkpt>
      <trkpt lat="42.326513" lon="-8.818885">
        <ele>84.4</ele>
        <time>1970-01-01T00:59:48.000Z</time>
      </trkpt>
      <trkpt lat="42.326512" lon="-8.818899">
        <ele>84.4</ele>
        <time>1970-01-01T00:59:49.000Z</time>
      </trkpt>
      <trkpt lat="42.32651" lon="-8.818911">
        <ele>83.8</ele>
        <time>1970-01-01T00:59:50.000Z</time>
      </trkpt>
      <trkpt lat="42.326508" lon="-8.818925">
        <ele>83.6</ele>
        <time>1970-01-01T00:59:51.000Z</time>
      </trkpt>
      <trkpt lat="42.326506" lon="-8.818938">
        <ele>83.4</ele>
        <time>1970-01-01T00:59:52.000Z</time>
      </trkpt>
      <trkpt lat="42.326508" lon="-8.818945">
        <ele>83.4</ele>
        <time>1970-01-01T00:59:53.000Z</time>
      </trkpt>
      <trkpt lat="42.326509" lon="-8.818957">
        <ele>83.2</ele>
        <time>1970-01-01T00:59:54.000Z</time>
      </trkpt>
      <trkpt lat="42.326503" lon="-8.818987">
        <ele>83.2</ele>
        <time>1970-01-01T00:59:55.000Z</time>
      </trkpt>
      <trkpt lat="42.326505" lon="-8.818997">
        <ele>83</ele>
        <time>1970-01-01T00:59:56.000Z</time>
      </trkpt>
      <trkpt lat="42.326506" lon="-8.819018">
        <ele>83</ele>
        <time>1970-01-01T00:59:57.000Z</time>
      </trkpt>
      <trkpt lat="42.326508" lon="-8.819039">
        <ele>83</ele>
        <time>1970-01-01T00:59:58.000Z</time>
      </trkpt>
      <trkpt lat="42.326508" lon="-8.819061">
        <ele>82.6</ele>
        <time>1970-01-01T00:59:59.000Z</time>
      </trkpt>
      <trkpt lat="42.326509" lon="-8.819085">
        <ele>82.2</ele>
        <time>1970-01-01T01:00:00.000Z</time>
      </trkpt>
      <trkpt lat="42.32651" lon="-8.819112">
        <ele>82</ele>
        <time>1970-01-01T01:00:01.000Z</time>
      </trkpt>
      <trkpt lat="42.326518" lon="-8.819142">
        <ele>82</ele>
        <time>1970-01-01T01:00:02.000Z</time>
      </trkpt>
      <trkpt lat="42.326523" lon="-8.819162">
        <ele>81.8</ele>
        <time>1970-01-01T01:00:03.000Z</time>
      </trkpt>
      <trkpt lat="42.326526" lon="-8.81918">
        <ele>81.8</ele>
        <time>1970-01-01T01:00:04.000Z</time>
      </trkpt>
      <trkpt lat="42.326529" lon="-8.819197">
        <ele>82</ele>
        <time>1970-01-01T01:00:05.000Z</time>
      </trkpt>
      <trkpt lat="42.326531" lon="-8.819211">
        <ele>82</ele>
        <time>1970-01-01T01:00:06.000Z</time>
      </trkpt>
      <trkpt lat="42.326537" lon="-8.819225">
        <ele>82</ele>
        <time>1970-01-01T01:00:07.000Z</time>
      </trkpt>
      <trkpt lat="42.326542" lon="-8.819239">
        <ele>82</ele>
        <time>1970-01-01T01:00:08.000Z</time>
      </trkpt>
      <trkpt lat="42.326543" lon="-8.819256">
        <ele>81.8</ele>
        <time>1970-01-01T01:00:09.000Z</time>
      </trkpt>
      <trkpt lat="42.326547" lon="-8.81927">
        <ele>81.4</ele>
        <time>1970-01-01T01:00:10.000Z</time>
      </trkpt>
      <trkpt lat="42.326552" lon="-8.819287">
        <ele>81</ele>
        <time>1970-01-01T01:00:11.000Z</time>
      </trkpt>
      <trkpt lat="42.326561" lon="-8.819299">
        <ele>80.6</ele>
        <time>1970-01-01T01:00:12.000Z</time>
      </trkpt>
      <trkpt lat="42.326573" lon="-8.819312">
        <ele>79.8</ele>
        <time>1970-01-01T01:00:13.000Z</time>
      </trkpt>
      <trkpt lat="42.326585" lon="-8.819325">
        <ele>79.4</ele>
        <time>1970-01-01T01:00:14.000Z</time>
      </trkpt>
      <trkpt lat="42.326596" lon="-8.819336">
        <ele>79.2</ele>
        <time>1970-01-01T01:00:15.000Z</time>
      </trkpt>
      <trkpt lat="42.326606" lon="-8.819348">
        <ele>79</ele>
        <time>1970-01-01T01:00:16.000Z</time>
      </trkpt>
      <trkpt lat="42.326613" lon="-8.819357">
        <ele>79</ele>
        <time>1970-01-01T01:00:17.000Z</time>
      </trkpt>
      <trkpt lat="42.326618" lon="-8.819365">
        <ele>79</ele>
        <time>1970-01-01T01:00:18.000Z</time>
      </trkpt>
      <trkpt lat="42.326623" lon="-8.819373">
        <ele>79</ele>
        <time>1970-01-01T01:00:19.000Z</time>
      </trkpt>
      <trkpt lat="42.326627" lon="-8.81938">
        <ele>79</ele>
        <time>1970-01-01T01:00:20.000Z</time>
      </trkpt>
      <trkpt lat="42.326631" lon="-8.819391">
        <ele>79</ele>
        <time>1970-01-01T01:00:21.000Z</time>
      </trkpt>
      <trkpt lat="42.326634" lon="-8.819409">
        <ele>79</ele>
        <time>1970-01-01T01:00:22.000Z</time>
      </trkpt>
      <trkpt lat="42.32664" lon="-8.819423">
        <ele>79</ele>
        <time>1970-01-01T01:00:23.000Z</time>
      </trkpt>
      <trkpt lat="42.326646" lon="-8.81944">
        <ele>78.8</ele>
        <time>1970-01-01T01:00:24.000Z</time>
      </trkpt>
      <trkpt lat="42.326654" lon="-8.819459">
        <ele>78.8</ele>
        <time>1970-01-01T01:00:25.000Z</time>
      </trkpt>
      <trkpt lat="42.326661" lon="-8.819478">
        <ele>78.8</ele>
        <time>1970-01-01T01:00:26.000Z</time>
      </trkpt>
      <trkpt lat="42.326667" lon="-8.819495">
        <ele>79</ele>
        <time>1970-01-01T01:00:27.000Z</time>
      </trkpt>
      <trkpt lat="42.326671" lon="-8.819516">
        <ele>79</ele>
        <time>1970-01-01T01:00:28.000Z</time>
      </trkpt>
      <trkpt lat="42.326673" lon="-8.819535">
        <ele>79</ele>
        <time>1970-01-01T01:00:29.000Z</time>
      </trkpt>
      <trkpt lat="42.326674" lon="-8.819552">
        <ele>79.2</ele>
        <time>1970-01-01T01:00:30.000Z</time>
      </trkpt>
      <trkpt lat="42.32667" lon="-8.819566">
        <ele>79.2</ele>
        <time>1970-01-01T01:00:31.000Z</time>
      </trkpt>
      <trkpt lat="42.326668" lon="-8.819578">
        <ele>79.2</ele>
        <time>1970-01-01T01:00:32.000Z</time>
      </trkpt>
      <trkpt lat="42.326667" lon="-8.819592">
        <ele>78.8</ele>
        <time>1970-01-01T01:00:33.000Z</time>
      </trkpt>
      <trkpt lat="42.326668" lon="-8.819607">
        <ele>78.6</ele>
        <time>1970-01-01T01:00:34.000Z</time>
      </trkpt>
      <trkpt lat="42.326671" lon="-8.819626">
        <ele>78.4</ele>
        <time>1970-01-01T01:00:35.000Z</time>
      </trkpt>
      <trkpt lat="42.326676" lon="-8.819648">
        <ele>78.4</ele>
        <time>1970-01-01T01:00:36.000Z</time>
      </trkpt>
      <trkpt lat="42.326681" lon="-8.819674">
        <ele>78.4</ele>
        <time>1970-01-01T01:00:37.000Z</time>
      </trkpt>
      <trkpt lat="42.326689" lon="-8.819697">
        <ele>78.2</ele>
        <time>1970-01-01T01:00:38.000Z</time>
      </trkpt>
      <trkpt lat="42.326699" lon="-8.819722">
        <ele>78.4</ele>
        <time>1970-01-01T01:00:39.000Z</time>
      </trkpt>
      <trkpt lat="42.326707" lon="-8.81974">
        <ele>78.4</ele>
        <time>1970-01-01T01:00:40.000Z</time>
      </trkpt>
      <trkpt lat="42.326717" lon="-8.819758">
        <ele>78.4</ele>
        <time>1970-01-01T01:00:41.000Z</time>
      </trkpt>
      <trkpt lat="42.326727" lon="-8.819775">
        <ele>78.6</ele>
        <time>1970-01-01T01:00:42.000Z</time>
      </trkpt>
      <trkpt lat="42.326736" lon="-8.819792">
        <ele>78.8</ele>
        <time>1970-01-01T01:00:43.000Z</time>
      </trkpt>
      <trkpt lat="42.326746" lon="-8.819814">
        <ele>78.6</ele>
        <time>1970-01-01T01:00:44.000Z</time>
      </trkpt>
      <trkpt lat="42.326752" lon="-8.819832">
        <ele>78.6</ele>
        <time>1970-01-01T01:00:45.000Z</time>
      </trkpt>
      <trkpt lat="42.326758" lon="-8.819849">
        <ele>78.6</ele>
        <time>1970-01-01T01:00:46.000Z</time>
      </trkpt>
      <trkpt lat="42.326767" lon="-8.819868">
        <ele>78.8</ele>
        <time>1970-01-01T01:00:47.000Z</time>
      </trkpt>
      <trkpt lat="42.326777" lon="-8.81989">
        <ele>78.8</ele>
        <time>1970-01-01T01:00:48.000Z</time>
      </trkpt>
      <trkpt lat="42.326786" lon="-8.819912">
        <ele>78.8</ele>
        <time>1970-01-01T01:00:49.000Z</time>
      </trkpt>
      <trkpt lat="42.326791" lon="-8.819925">
        <ele>78.8</ele>
        <time>1970-01-01T01:00:50.000Z</time>
      </trkpt>
      <trkpt lat="42.326797" lon="-8.819936">
        <ele>78.6</ele>
        <time>1970-01-01T01:00:51.000Z</time>
      </trkpt>
      <trkpt lat="42.326803" lon="-8.81995">
        <ele>78.4</ele>
        <time>1970-01-01T01:00:52.000Z</time>
      </trkpt>
      <trkpt lat="42.326812" lon="-8.819962">
        <ele>78.2</ele>
        <time>1970-01-01T01:00:53.000Z</time>
      </trkpt>
      <trkpt lat="42.326822" lon="-8.819976">
        <ele>78.2</ele>
        <time>1970-01-01T01:00:54.000Z</time>
      </trkpt>
      <trkpt lat="42.326833" lon="-8.819992">
        <ele>78</ele>
        <time>1970-01-01T01:00:55.000Z</time>
      </trkpt>
      <trkpt lat="42.326845" lon="-8.820005">
        <ele>78</ele>
        <time>1970-01-01T01:00:56.000Z</time>
      </trkpt>
      <trkpt lat="42.326855" lon="-8.820015">
        <ele>78</ele>
        <time>1970-01-01T01:00:57.000Z</time>
      </trkpt>
      <trkpt lat="42.326867" lon="-8.820026">
        <ele>77.8</ele>
        <time>1970-01-01T01:00:58.000Z</time>
      </trkpt>
      <trkpt lat="42.326878" lon="-8.820043">
        <ele>77.8</ele>
        <time>1970-01-01T01:00:59.000Z</time>
      </trkpt>
      <trkpt lat="42.326887" lon="-8.820056">
        <ele>77.6</ele>
        <time>1970-01-01T01:01:00.000Z</time>
      </trkpt>
      <trkpt lat="42.326893" lon="-8.820064">
        <ele>77.2</ele>
        <time>1970-01-01T01:01:01.000Z</time>
      </trkpt>
      <trkpt lat="42.326901" lon="-8.820076">
        <ele>76.8</ele>
        <time>1970-01-01T01:01:02.000Z</time>
      </trkpt>
      <trkpt lat="42.326909" lon="-8.820096">
        <ele>76.8</ele>
        <time>1970-01-01T01:01:03.000Z</time>
      </trkpt>
      <trkpt lat="42.326915" lon="-8.820113">
        <ele>76.8</ele>
        <time>1970-01-01T01:01:04.000Z</time>
      </trkpt>
      <trkpt lat="42.32692" lon="-8.820129">
        <ele>76.6</ele>
        <time>1970-01-01T01:01:05.000Z</time>
      </trkpt>
      <trkpt lat="42.326921" lon="-8.820142">
        <ele>76.6</ele>
        <time>1970-01-01T01:01:06.000Z</time>
      </trkpt>
      <trkpt lat="42.326924" lon="-8.820156">
        <ele>76.6</ele>
        <time>1970-01-01T01:01:07.000Z</time>
      </trkpt>
      <trkpt lat="42.326926" lon="-8.820172">
        <ele>76.2</ele>
        <time>1970-01-01T01:01:08.000Z</time>
      </trkpt>
      <trkpt lat="42.326928" lon="-8.820187">
        <ele>76</ele>
        <time>1970-01-01T01:01:09.000Z</time>
      </trkpt>
      <trkpt lat="42.326931" lon="-8.820201">
        <ele>75.8</ele>
        <time>1970-01-01T01:01:10.000Z</time>
      </trkpt>
      <trkpt lat="42.326932" lon="-8.820216">
        <ele>75.8</ele>
        <time>1970-01-01T01:01:11.000Z</time>
      </trkpt>
      <trkpt lat="42.326931" lon="-8.820228">
        <ele>75.8</ele>
        <time>1970-01-01T01:01:12.000Z</time>
      </trkpt>
      <trkpt lat="42.326932" lon="-8.820241">
        <ele>75.2</ele>
        <time>1970-01-01T01:01:13.000Z</time>
      </trkpt>
      <trkpt lat="42.326932" lon="-8.820257">
        <ele>74.6</ele>
        <time>1970-01-01T01:01:14.000Z</time>
      </trkpt>
      <trkpt lat="42.326932" lon="-8.820271">
        <ele>74</ele>
        <time>1970-01-01T01:01:15.000Z</time>
      </trkpt>
      <trkpt lat="42.326931" lon="-8.82029">
        <ele>73.6</ele>
        <time>1970-01-01T01:01:16.000Z</time>
      </trkpt>
      <trkpt lat="42.326935" lon="-8.820309">
        <ele>73.4</ele>
        <time>1970-01-01T01:01:17.000Z</time>
      </trkpt>
      <trkpt lat="42.326935" lon="-8.820327">
        <ele>73.2</ele>
        <time>1970-01-01T01:01:18.000Z</time>
      </trkpt>
      <trkpt lat="42.326938" lon="-8.820352">
        <ele>72.8</ele>
        <time>1970-01-01T01:01:19.000Z</time>
      </trkpt>
      <trkpt lat="42.326944" lon="-8.820378">
        <ele>72.4</ele>
        <time>1970-01-01T01:01:20.000Z</time>
      </trkpt>
      <trkpt lat="42.326949" lon="-8.820398">
        <ele>72.2</ele>
        <time>1970-01-01T01:01:21.000Z</time>
      </trkpt>
      <trkpt lat="42.326955" lon="-8.820417">
        <ele>72</ele>
        <time>1970-01-01T01:01:22.000Z</time>
      </trkpt>
      <trkpt lat="42.326966" lon="-8.820447">
        <ele>71.8</ele>
        <time>1970-01-01T01:01:23.000Z</time>
      </trkpt>
      <trkpt lat="42.326976" lon="-8.820474">
        <ele>71.4</ele>
        <time>1970-01-01T01:01:24.000Z</time>
      </trkpt>
      <trkpt lat="42.326987" lon="-8.820498">
        <ele>71</ele>
        <time>1970-01-01T01:01:25.000Z</time>
      </trkpt>
      <trkpt lat="42.326998" lon="-8.82052">
        <ele>70.8</ele>
        <time>1970-01-01T01:01:26.000Z</time>
      </trkpt>
      <trkpt lat="42.327007" lon="-8.820537">
        <ele>70.2</ele>
        <time>1970-01-01T01:01:27.000Z</time>
      </trkpt>
      <trkpt lat="42.327019" lon="-8.820553">
        <ele>69.8</ele>
        <time>1970-01-01T01:01:28.000Z</time>
      </trkpt>
      <trkpt lat="42.32703" lon="-8.820566">
        <ele>69.6</ele>
        <time>1970-01-01T01:01:29.000Z</time>
      </trkpt>
      <trkpt lat="42.327041" lon="-8.820575">
        <ele>69.4</ele>
        <time>1970-01-01T01:01:30.000Z</time>
      </trkpt>
      <trkpt lat="42.327053" lon="-8.820584">
        <ele>69.2</ele>
        <time>1970-01-01T01:01:31.000Z</time>
      </trkpt>
      <trkpt lat="42.327066" lon="-8.820592">
        <ele>69</ele>
        <time>1970-01-01T01:01:32.000Z</time>
      </trkpt>
      <trkpt lat="42.327081" lon="-8.820603">
        <ele>68.8</ele>
        <time>1970-01-01T01:01:33.000Z</time>
      </trkpt>
      <trkpt lat="42.327093" lon="-8.820613">
        <ele>68.6</ele>
        <time>1970-01-01T01:01:34.000Z</time>
      </trkpt>
      <trkpt lat="42.327105" lon="-8.820622">
        <ele>68.6</ele>
        <time>1970-01-01T01:01:35.000Z</time>
      </trkpt>
      <trkpt lat="42.327114" lon="-8.82063">
        <ele>68.4</ele>
        <time>1970-01-01T01:01:36.000Z</time>
      </trkpt>
      <trkpt lat="42.327122" lon="-8.82064">
        <ele>68.4</ele>
        <time>1970-01-01T01:01:37.000Z</time>
      </trkpt>
      <trkpt lat="42.327128" lon="-8.820647">
        <ele>68.4</ele>
        <time>1970-01-01T01:01:38.000Z</time>
      </trkpt>
      <trkpt lat="42.327134" lon="-8.820652">
        <ele>68.2</ele>
        <time>1970-01-01T01:01:39.000Z</time>
      </trkpt>
      <trkpt lat="42.327142" lon="-8.820665">
        <ele>68.2</ele>
        <time>1970-01-01T01:01:40.000Z</time>
      </trkpt>
      <trkpt lat="42.327151" lon="-8.820682">
        <ele>68</ele>
        <time>1970-01-01T01:01:41.000Z</time>
      </trkpt>
      <trkpt lat="42.327159" lon="-8.820699">
        <ele>67.4</ele>
        <time>1970-01-01T01:01:42.000Z</time>
      </trkpt>
      <trkpt lat="42.327167" lon="-8.820722">
        <ele>67</ele>
        <time>1970-01-01T01:01:43.000Z</time>
      </trkpt>
      <trkpt lat="42.327175" lon="-8.820743">
        <ele>66.8</ele>
        <time>1970-01-01T01:01:44.000Z</time>
      </trkpt>
      <trkpt lat="42.327183" lon="-8.820769">
        <ele>66.6</ele>
        <time>1970-01-01T01:01:45.000Z</time>
      </trkpt>
      <trkpt lat="42.32719" lon="-8.82079">
        <ele>66.6</ele>
        <time>1970-01-01T01:01:46.000Z</time>
      </trkpt>
      <trkpt lat="42.327197" lon="-8.820813">
        <ele>66.6</ele>
        <time>1970-01-01T01:01:47.000Z</time>
      </trkpt>
      <trkpt lat="42.327201" lon="-8.82084">
        <ele>66.4</ele>
        <time>1970-01-01T01:01:48.000Z</time>
      </trkpt>
      <trkpt lat="42.32721" lon="-8.820854">
        <ele>66.4</ele>
        <time>1970-01-01T01:01:49.000Z</time>
      </trkpt>
      <trkpt lat="42.32722" lon="-8.820866">
        <ele>65.8</ele>
        <time>1970-01-01T01:01:50.000Z</time>
      </trkpt>
      <trkpt lat="42.327231" lon="-8.820877">
        <ele>65.6</ele>
        <time>1970-01-01T01:01:51.000Z</time>
      </trkpt>
      <trkpt lat="42.327242" lon="-8.820887">
        <ele>65.4</ele>
        <time>1970-01-01T01:01:52.000Z</time>
      </trkpt>
      <trkpt lat="42.327252" lon="-8.820903">
        <ele>65.4</ele>
        <time>1970-01-01T01:01:53.000Z</time>
      </trkpt>
      <trkpt lat="42.327262" lon="-8.820922">
        <ele>65.4</ele>
        <time>1970-01-01T01:01:54.000Z</time>
      </trkpt>
      <trkpt lat="42.327268" lon="-8.820938">
        <ele>65.4</ele>
        <time>1970-01-01T01:01:55.000Z</time>
      </trkpt>
      <trkpt lat="42.327273" lon="-8.82095">
        <ele>65.4</ele>
        <time>1970-01-01T01:01:56.000Z</time>
      </trkpt>
      <trkpt lat="42.327278" lon="-8.820963">
        <ele>65.2</ele>
        <time>1970-01-01T01:01:57.000Z</time>
      </trkpt>
      <trkpt lat="42.327284" lon="-8.820975">
        <ele>64.8</ele>
        <time>1970-01-01T01:01:58.000Z</time>
      </trkpt>
      <trkpt lat="42.327292" lon="-8.820988">
        <ele>64.6</ele>
        <time>1970-01-01T01:01:59.000Z</time>
      </trkpt>
      <trkpt lat="42.327304" lon="-8.821008">
        <ele>64.4</ele>
        <time>1970-01-01T01:02:00.000Z</time>
      </trkpt>
      <trkpt lat="42.327319" lon="-8.821031">
        <ele>64.2</ele>
        <time>1970-01-01T01:02:01.000Z</time>
      </trkpt>
      <trkpt lat="42.327332" lon="-8.821044">
        <ele>64</ele>
        <time>1970-01-01T01:02:02.000Z</time>
      </trkpt>
      <trkpt lat="42.327344" lon="-8.821047">
        <ele>63.8</ele>
        <time>1970-01-01T01:02:03.000Z</time>
      </trkpt>
      <trkpt lat="42.327356" lon="-8.82105">
        <ele>63.8</ele>
        <time>1970-01-01T01:02:04.000Z</time>
      </trkpt>
      <trkpt lat="42.327368" lon="-8.821053">
        <ele>63.8</ele>
        <time>1970-01-01T01:02:05.000Z</time>
      </trkpt>
      <trkpt lat="42.327379" lon="-8.821057">
        <ele>63.8</ele>
        <time>1970-01-01T01:02:06.000Z</time>
      </trkpt>
      <trkpt lat="42.327386" lon="-8.821061">
        <ele>63.6</ele>
        <time>1970-01-01T01:02:07.000Z</time>
      </trkpt>
      <trkpt lat="42.327392" lon="-8.821067">
        <ele>63.6</ele>
        <time>1970-01-01T01:02:08.000Z</time>
      </trkpt>
      <trkpt lat="42.327397" lon="-8.821078">
        <ele>63.6</ele>
        <time>1970-01-01T01:02:09.000Z</time>
      </trkpt>
      <trkpt lat="42.327401" lon="-8.821089">
        <ele>63.8</ele>
        <time>1970-01-01T01:02:10.000Z</time>
      </trkpt>
      <trkpt lat="42.327403" lon="-8.821095">
        <ele>63.8</ele>
        <time>1970-01-01T01:02:11.000Z</time>
      </trkpt>
      <trkpt lat="42.327402" lon="-8.821102">
        <ele>63.6</ele>
        <time>1970-01-01T01:02:12.000Z</time>
      </trkpt>
      <trkpt lat="42.327398" lon="-8.821107">
        <ele>63.4</ele>
        <time>1970-01-01T01:02:13.000Z</time>
      </trkpt>
      <trkpt lat="42.32739" lon="-8.821111">
        <ele>63.2</ele>
        <time>1970-01-01T01:02:14.000Z</time>
      </trkpt>
      <trkpt lat="42.327382" lon="-8.821118">
        <ele>63.2</ele>
        <time>1970-01-01T01:02:15.000Z</time>
      </trkpt>
      <trkpt lat="42.327375" lon="-8.821126">
        <ele>63.2</ele>
        <time>1970-01-01T01:02:16.000Z</time>
      </trkpt>
      <trkpt lat="42.327368" lon="-8.821133">
        <ele>63.2</ele>
        <time>1970-01-01T01:02:17.000Z</time>
      </trkpt>
      <trkpt lat="42.327361" lon="-8.82114">
        <ele>63.2</ele>
        <time>1970-01-01T01:02:18.000Z</time>
      </trkpt>
      <trkpt lat="42.327354" lon="-8.821149">
        <ele>63</ele>
        <time>1970-01-01T01:02:19.000Z</time>
      </trkpt>
      <trkpt lat="42.32735" lon="-8.821161">
        <ele>63</ele>
        <time>1970-01-01T01:02:20.000Z</time>
      </trkpt>
      <trkpt lat="42.327345" lon="-8.821175">
        <ele>63</ele>
        <time>1970-01-01T01:02:21.000Z</time>
      </trkpt>
      <trkpt lat="42.32734" lon="-8.821188">
        <ele>62.8</ele>
        <time>1970-01-01T01:02:22.000Z</time>
      </trkpt>
      <trkpt lat="42.327334" lon="-8.8212">
        <ele>62.6</ele>
        <time>1970-01-01T01:02:23.000Z</time>
      </trkpt>
      <trkpt lat="42.327327" lon="-8.821213">
        <ele>62.2</ele>
        <time>1970-01-01T01:02:24.000Z</time>
      </trkpt>
      <trkpt lat="42.327319" lon="-8.821228">
        <ele>62</ele>
        <time>1970-01-01T01:02:25.000Z</time>
      </trkpt>
      <trkpt lat="42.327312" lon="-8.821244">
        <ele>62</ele>
        <time>1970-01-01T01:02:26.000Z</time>
      </trkpt>
      <trkpt lat="42.327306" lon="-8.821259">
        <ele>61.8</ele>
        <time>1970-01-01T01:02:27.000Z</time>
      </trkpt>
      <trkpt lat="42.327299" lon="-8.821272">
        <ele>61.6</ele>
        <time>1970-01-01T01:02:28.000Z</time>
      </trkpt>
      <trkpt lat="42.32729" lon="-8.821282">
        <ele>61.4</ele>
        <time>1970-01-01T01:02:29.000Z</time>
      </trkpt>
      <trkpt lat="42.327281" lon="-8.82129">
        <ele>61.4</ele>
        <time>1970-01-01T01:02:30.000Z</time>
      </trkpt>
      <trkpt lat="42.327274" lon="-8.821298">
        <ele>61.4</ele>
        <time>1970-01-01T01:02:31.000Z</time>
      </trkpt>
      <trkpt lat="42.327265" lon="-8.821305">
        <ele>61.4</ele>
        <time>1970-01-01T01:02:32.000Z</time>
      </trkpt>
      <trkpt lat="42.327257" lon="-8.821312">
        <ele>61.2</ele>
        <time>1970-01-01T01:02:33.000Z</time>
      </trkpt>
      <trkpt lat="42.32725" lon="-8.821322">
        <ele>61</ele>
        <time>1970-01-01T01:02:34.000Z</time>
      </trkpt>
      <trkpt lat="42.327244" lon="-8.821335">
        <ele>60.8</ele>
        <time>1970-01-01T01:02:35.000Z</time>
      </trkpt>
      <trkpt lat="42.327236" lon="-8.82134">
        <ele>60.4</ele>
        <time>1970-01-01T01:02:36.000Z</time>
      </trkpt>
      <trkpt lat="42.327226" lon="-8.821344">
        <ele>60.4</ele>
        <time>1970-01-01T01:02:37.000Z</time>
      </trkpt>
      <trkpt lat="42.327215" lon="-8.821353">
        <ele>60.4</ele>
        <time>1970-01-01T01:02:38.000Z</time>
      </trkpt>
      <trkpt lat="42.327207" lon="-8.821364">
        <ele>60.2</ele>
        <time>1970-01-01T01:02:39.000Z</time>
      </trkpt>
      <trkpt lat="42.327198" lon="-8.821378">
        <ele>60</ele>
        <time>1970-01-01T01:02:40.000Z</time>
      </trkpt>
      <trkpt lat="42.327191" lon="-8.821389">
        <ele>59.8</ele>
        <time>1970-01-01T01:02:41.000Z</time>
      </trkpt>
      <trkpt lat="42.32718" lon="-8.821401">
        <ele>59.8</ele>
        <time>1970-01-01T01:02:42.000Z</time>
      </trkpt>
      <trkpt lat="42.327166" lon="-8.821411">
        <ele>59.2</ele>
        <time>1970-01-01T01:02:43.000Z</time>
      </trkpt>
      <trkpt lat="42.327151" lon="-8.821424">
        <ele>59</ele>
        <time>1970-01-01T01:02:44.000Z</time>
      </trkpt>
      <trkpt lat="42.327136" lon="-8.821435">
        <ele>58.8</ele>
        <time>1970-01-01T01:02:45.000Z</time>
      </trkpt>
      <trkpt lat="42.32712" lon="-8.821448">
        <ele>58.8</ele>
        <time>1970-01-01T01:02:46.000Z</time>
      </trkpt>
      <trkpt lat="42.327103" lon="-8.82146">
        <ele>58.8</ele>
        <time>1970-01-01T01:02:47.000Z</time>
      </trkpt>
      <trkpt lat="42.327085" lon="-8.821476">
        <ele>58.8</ele>
        <time>1970-01-01T01:02:48.000Z</time>
      </trkpt>
      <trkpt lat="42.327067" lon="-8.821491">
        <ele>58.8</ele>
        <time>1970-01-01T01:02:49.000Z</time>
      </trkpt>
      <trkpt lat="42.327054" lon="-8.821502">
        <ele>58.8</ele>
        <time>1970-01-01T01:02:50.000Z</time>
      </trkpt>
      <trkpt lat="42.327041" lon="-8.82151">
        <ele>58.8</ele>
        <time>1970-01-01T01:02:51.000Z</time>
      </trkpt>
      <trkpt lat="42.327026" lon="-8.82152">
        <ele>58.8</ele>
        <time>1970-01-01T01:02:52.000Z</time>
      </trkpt>
      <trkpt lat="42.327012" lon="-8.82153">
        <ele>58.8</ele>
        <time>1970-01-01T01:02:53.000Z</time>
      </trkpt>
      <trkpt lat="42.327001" lon="-8.821542">
        <ele>58.8</ele>
        <time>1970-01-01T01:02:54.000Z</time>
      </trkpt>
      <trkpt lat="42.326988" lon="-8.821559">
        <ele>58.8</ele>
        <time>1970-01-01T01:02:55.000Z</time>
      </trkpt>
      <trkpt lat="42.326977" lon="-8.821573">
        <ele>58.8</ele>
        <time>1970-01-01T01:02:56.000Z</time>
      </trkpt>
      <trkpt lat="42.32697" lon="-8.821583">
        <ele>58.6</ele>
        <time>1970-01-01T01:02:57.000Z</time>
      </trkpt>
      <trkpt lat="42.326962" lon="-8.82159">
        <ele>58.2</ele>
        <time>1970-01-01T01:02:58.000Z</time>
      </trkpt>
      <trkpt lat="42.326954" lon="-8.821598">
        <ele>58.2</ele>
        <time>1970-01-01T01:02:59.000Z</time>
      </trkpt>
      <trkpt lat="42.326945" lon="-8.821611">
        <ele>58</ele>
        <time>1970-01-01T01:03:00.000Z</time>
      </trkpt>
      <trkpt lat="42.326935" lon="-8.821618">
        <ele>58</ele>
        <time>1970-01-01T01:03:01.000Z</time>
      </trkpt>
      <trkpt lat="42.326926" lon="-8.821618">
        <ele>58</ele>
        <time>1970-01-01T01:03:02.000Z</time>
      </trkpt>
      <trkpt lat="42.326918" lon="-8.821609">
        <ele>57.8</ele>
        <time>1970-01-01T01:03:03.000Z</time>
      </trkpt>
      <trkpt lat="42.32691" lon="-8.821607">
        <ele>57.8</ele>
        <time>1970-01-01T01:03:04.000Z</time>
      </trkpt>
      <trkpt lat="42.3269" lon="-8.821611">
        <ele>57.6</ele>
        <time>1970-01-01T01:03:05.000Z</time>
      </trkpt>
      <trkpt lat="42.326894" lon="-8.821612">
        <ele>57.4</ele>
        <time>1970-01-01T01:03:06.000Z</time>
      </trkpt>
      <trkpt lat="42.326887" lon="-8.821614">
        <ele>57.4</ele>
        <time>1970-01-01T01:03:07.000Z</time>
      </trkpt>
      <trkpt lat="42.326877" lon="-8.82161">
        <ele>57.2</ele>
        <time>1970-01-01T01:03:08.000Z</time>
      </trkpt>
      <trkpt lat="42.326866" lon="-8.821605">
        <ele>56.8</ele>
        <time>1970-01-01T01:03:09.000Z</time>
      </trkpt>
      <trkpt lat="42.326855" lon="-8.821596">
        <ele>56.8</ele>
        <time>1970-01-01T01:03:10.000Z</time>
      </trkpt>
      <trkpt lat="42.326845" lon="-8.821592">
        <ele>56.6</ele>
        <time>1970-01-01T01:03:11.000Z</time>
      </trkpt>
      <trkpt lat="42.326833" lon="-8.821585">
        <ele>56.6</ele>
        <time>1970-01-01T01:03:12.000Z</time>
      </trkpt>
      <trkpt lat="42.326823" lon="-8.821568">
        <ele>56.6</ele>
        <time>1970-01-01T01:03:13.000Z</time>
      </trkpt>
      <trkpt lat="42.326814" lon="-8.821552">
        <ele>56.6</ele>
        <time>1970-01-01T01:03:14.000Z</time>
      </trkpt>
      <trkpt lat="42.326807" lon="-8.821538">
        <ele>56.6</ele>
        <time>1970-01-01T01:03:15.000Z</time>
      </trkpt>
      <trkpt lat="42.326801" lon="-8.821521">
        <ele>56.6</ele>
        <time>1970-01-01T01:03:16.000Z</time>
      </trkpt>
      <trkpt lat="42.326794" lon="-8.821505">
        <ele>56.6</ele>
        <time>1970-01-01T01:03:17.000Z</time>
      </trkpt>
      <trkpt lat="42.326788" lon="-8.821489">
        <ele>56.6</ele>
        <time>1970-01-01T01:03:18.000Z</time>
      </trkpt>
      <trkpt lat="42.326782" lon="-8.821472">
        <ele>56.6</ele>
        <time>1970-01-01T01:03:19.000Z</time>
      </trkpt>
      <trkpt lat="42.326779" lon="-8.821456">
        <ele>56</ele>
        <time>1970-01-01T01:03:20.000Z</time>
      </trkpt>
      <trkpt lat="42.326776" lon="-8.821446">
        <ele>55.6</ele>
        <time>1970-01-01T01:03:21.000Z</time>
      </trkpt>
      <trkpt lat="42.326772" lon="-8.821439">
        <ele>55.4</ele>
        <time>1970-01-01T01:03:22.000Z</time>
      </trkpt>
      <trkpt lat="42.326769" lon="-8.82143">
        <ele>55</ele>
        <time>1970-01-01T01:03:23.000Z</time>
      </trkpt>
      <trkpt lat="42.326763" lon="-8.821421">
        <ele>54.4</ele>
        <time>1970-01-01T01:03:24.000Z</time>
      </trkpt>
      <trkpt lat="42.326754" lon="-8.821408">
        <ele>54.2</ele>
        <time>1970-01-01T01:03:25.000Z</time>
      </trkpt>
      <trkpt lat="42.326744" lon="-8.821401">
        <ele>54</ele>
        <time>1970-01-01T01:03:26.000Z</time>
      </trkpt>
      <trkpt lat="42.326733" lon="-8.821398">
        <ele>54</ele>
        <time>1970-01-01T01:03:27.000Z</time>
      </trkpt>
      <trkpt lat="42.326722" lon="-8.821394">
        <ele>54</ele>
        <time>1970-01-01T01:03:28.000Z</time>
      </trkpt>
      <trkpt lat="42.326709" lon="-8.821392">
        <ele>54</ele>
        <time>1970-01-01T01:03:29.000Z</time>
      </trkpt>
      <trkpt lat="42.326698" lon="-8.821391">
        <ele>53.6</ele>
        <time>1970-01-01T01:03:30.000Z</time>
      </trkpt>
      <trkpt lat="42.326685" lon="-8.821392">
        <ele>53.4</ele>
        <time>1970-01-01T01:03:31.000Z</time>
      </trkpt>
      <trkpt lat="42.326672" lon="-8.821391">
        <ele>53.4</ele>
        <time>1970-01-01T01:03:32.000Z</time>
      </trkpt>
      <trkpt lat="42.326658" lon="-8.821391">
        <ele>53</ele>
        <time>1970-01-01T01:03:33.000Z</time>
      </trkpt>
      <trkpt lat="42.326644" lon="-8.821392">
        <ele>52.6</ele>
        <time>1970-01-01T01:03:34.000Z</time>
      </trkpt>
      <trkpt lat="42.326628" lon="-8.821393">
        <ele>52.4</ele>
        <time>1970-01-01T01:03:35.000Z</time>
      </trkpt>
      <trkpt lat="42.326612" lon="-8.8214">
        <ele>51.6</ele>
        <time>1970-01-01T01:03:36.000Z</time>
      </trkpt>
      <trkpt lat="42.326596" lon="-8.821407">
        <ele>51.2</ele>
        <time>1970-01-01T01:03:37.000Z</time>
      </trkpt>
      <trkpt lat="42.326579" lon="-8.821414">
        <ele>50.4</ele>
        <time>1970-01-01T01:03:38.000Z</time>
      </trkpt>
      <trkpt lat="42.326563" lon="-8.821423">
        <ele>50.2</ele>
        <time>1970-01-01T01:03:39.000Z</time>
      </trkpt>
      <trkpt lat="42.326549" lon="-8.821434">
        <ele>50</ele>
        <time>1970-01-01T01:03:40.000Z</time>
      </trkpt>
      <trkpt lat="42.326536" lon="-8.821443">
        <ele>50</ele>
        <time>1970-01-01T01:03:41.000Z</time>
      </trkpt>
      <trkpt lat="42.326525" lon="-8.821451">
        <ele>49.8</ele>
        <time>1970-01-01T01:03:42.000Z</time>
      </trkpt>
      <trkpt lat="42.326514" lon="-8.821461">
        <ele>49.8</ele>
        <time>1970-01-01T01:03:43.000Z</time>
      </trkpt>
      <trkpt lat="42.326503" lon="-8.82147">
        <ele>49.8</ele>
        <time>1970-01-01T01:03:44.000Z</time>
      </trkpt>
      <trkpt lat="42.326495" lon="-8.821484">
        <ele>50</ele>
        <time>1970-01-01T01:03:45.000Z</time>
      </trkpt>
      <trkpt lat="42.326489" lon="-8.821497">
        <ele>50</ele>
        <time>1970-01-01T01:03:46.000Z</time>
      </trkpt>
      <trkpt lat="42.326484" lon="-8.821508">
        <ele>50</ele>
        <time>1970-01-01T01:03:47.000Z</time>
      </trkpt>
      <trkpt lat="42.326476" lon="-8.821518">
        <ele>49.4</ele>
        <time>1970-01-01T01:03:48.000Z</time>
      </trkpt>
      <trkpt lat="42.326464" lon="-8.821531">
        <ele>49</ele>
        <time>1970-01-01T01:03:49.000Z</time>
      </trkpt>
      <trkpt lat="42.326455" lon="-8.82154">
        <ele>48.2</ele>
        <time>1970-01-01T01:03:50.000Z</time>
      </trkpt>
      <trkpt lat="42.326444" lon="-8.821551">
        <ele>47.8</ele>
        <time>1970-01-01T01:03:51.000Z</time>
      </trkpt>
      <trkpt lat="42.326432" lon="-8.821567">
        <ele>47.4</ele>
        <time>1970-01-01T01:03:52.000Z</time>
      </trkpt>
      <trkpt lat="42.326421" lon="-8.821584">
        <ele>46.8</ele>
        <time>1970-01-01T01:03:53.000Z</time>
      </trkpt>
      <trkpt lat="42.326409" lon="-8.8216">
        <ele>46.4</ele>
        <time>1970-01-01T01:03:54.000Z</time>
      </trkpt>
      <trkpt lat="42.326397" lon="-8.821621">
        <ele>46.2</ele>
        <time>1970-01-01T01:03:55.000Z</time>
      </trkpt>
      <trkpt lat="42.326389" lon="-8.821635">
        <ele>46</ele>
        <time>1970-01-01T01:03:56.000Z</time>
      </trkpt>
      <trkpt lat="42.326379" lon="-8.821658">
        <ele>45.8</ele>
        <time>1970-01-01T01:03:57.000Z</time>
      </trkpt>
      <trkpt lat="42.326368" lon="-8.821683">
        <ele>45.8</ele>
        <time>1970-01-01T01:03:58.000Z</time>
      </trkpt>
      <trkpt lat="42.326358" lon="-8.821706">
        <ele>45.8</ele>
        <time>1970-01-01T01:03:59.000Z</time>
      </trkpt>
      <trkpt lat="42.326351" lon="-8.821724">
        <ele>45.6</ele>
        <time>1970-01-01T01:04:00.000Z</time>
      </trkpt>
      <trkpt lat="42.326346" lon="-8.821742">
        <ele>45.4</ele>
        <time>1970-01-01T01:04:01.000Z</time>
      </trkpt>
      <trkpt lat="42.326343" lon="-8.821755">
        <ele>45.2</ele>
        <time>1970-01-01T01:04:02.000Z</time>
      </trkpt>
      <trkpt lat="42.326341" lon="-8.821769">
        <ele>44.6</ele>
        <time>1970-01-01T01:04:03.000Z</time>
      </trkpt>
      <trkpt lat="42.326341" lon="-8.821784">
        <ele>44.2</ele>
        <time>1970-01-01T01:04:04.000Z</time>
      </trkpt>
      <trkpt lat="42.326342" lon="-8.821801">
        <ele>44</ele>
        <time>1970-01-01T01:04:05.000Z</time>
      </trkpt>
      <trkpt lat="42.326341" lon="-8.821816">
        <ele>43.6</ele>
        <time>1970-01-01T01:04:06.000Z</time>
      </trkpt>
      <trkpt lat="42.326344" lon="-8.821836">
        <ele>43.4</ele>
        <time>1970-01-01T01:04:07.000Z</time>
      </trkpt>
      <trkpt lat="42.326351" lon="-8.821856">
        <ele>43.4</ele>
        <time>1970-01-01T01:04:08.000Z</time>
      </trkpt>
      <trkpt lat="42.326354" lon="-8.821873">
        <ele>43.2</ele>
        <time>1970-01-01T01:04:09.000Z</time>
      </trkpt>
      <trkpt lat="42.326359" lon="-8.821886">
        <ele>43</ele>
        <time>1970-01-01T01:04:10.000Z</time>
      </trkpt>
      <trkpt lat="42.326365" lon="-8.821899">
        <ele>42.6</ele>
        <time>1970-01-01T01:04:11.000Z</time>
      </trkpt>
      <trkpt lat="42.326372" lon="-8.821913">
        <ele>42.6</ele>
        <time>1970-01-01T01:04:12.000Z</time>
      </trkpt>
      <trkpt lat="42.326379" lon="-8.821923">
        <ele>42.4</ele>
        <time>1970-01-01T01:04:13.000Z</time>
      </trkpt>
      <trkpt lat="42.326386" lon="-8.821935">
        <ele>42</ele>
        <time>1970-01-01T01:04:14.000Z</time>
      </trkpt>
      <trkpt lat="42.326391" lon="-8.821948">
        <ele>41.6</ele>
        <time>1970-01-01T01:04:15.000Z</time>
      </trkpt>
      <trkpt lat="42.326395" lon="-8.821961">
        <ele>41.6</ele>
        <time>1970-01-01T01:04:16.000Z</time>
      </trkpt>
      <trkpt lat="42.326398" lon="-8.821981">
        <ele>41.6</ele>
        <time>1970-01-01T01:04:17.000Z</time>
      </trkpt>
      <trkpt lat="42.326402" lon="-8.821998">
        <ele>41.6</ele>
        <time>1970-01-01T01:04:18.000Z</time>
      </trkpt>
      <trkpt lat="42.326407" lon="-8.82202">
        <ele>41.2</ele>
        <time>1970-01-01T01:04:19.000Z</time>
      </trkpt>
      <trkpt lat="42.326413" lon="-8.822045">
        <ele>41.2</ele>
        <time>1970-01-01T01:04:20.000Z</time>
      </trkpt>
      <trkpt lat="42.326419" lon="-8.822068">
        <ele>41</ele>
        <time>1970-01-01T01:04:21.000Z</time>
      </trkpt>
      <trkpt lat="42.326426" lon="-8.822085">
        <ele>41</ele>
        <time>1970-01-01T01:04:22.000Z</time>
      </trkpt>
      <trkpt lat="42.326429" lon="-8.822108">
        <ele>40.8</ele>
        <time>1970-01-01T01:04:23.000Z</time>
      </trkpt>
      <trkpt lat="42.326437" lon="-8.822127">
        <ele>40.4</ele>
        <time>1970-01-01T01:04:24.000Z</time>
      </trkpt>
      <trkpt lat="42.326445" lon="-8.822146">
        <ele>40.2</ele>
        <time>1970-01-01T01:04:25.000Z</time>
      </trkpt>
      <trkpt lat="42.326452" lon="-8.822166">
        <ele>39.8</ele>
        <time>1970-01-01T01:04:26.000Z</time>
      </trkpt>
      <trkpt lat="42.326461" lon="-8.822183">
        <ele>39.8</ele>
        <time>1970-01-01T01:04:27.000Z</time>
      </trkpt>
      <trkpt lat="42.326467" lon="-8.822198">
        <ele>39.6</ele>
        <time>1970-01-01T01:04:28.000Z</time>
      </trkpt>
      <trkpt lat="42.326471" lon="-8.82221">
        <ele>39.6</ele>
        <time>1970-01-01T01:04:29.000Z</time>
      </trkpt>
      <trkpt lat="42.326474" lon="-8.822224">
        <ele>39.4</ele>
        <time>1970-01-01T01:04:30.000Z</time>
      </trkpt>
      <trkpt lat="42.326478" lon="-8.822237">
        <ele>39.2</ele>
        <time>1970-01-01T01:04:31.000Z</time>
      </trkpt>
      <trkpt lat="42.326485" lon="-8.822257">
        <ele>39</ele>
        <time>1970-01-01T01:04:32.000Z</time>
      </trkpt>
      <trkpt lat="42.326493" lon="-8.822276">
        <ele>38.8</ele>
        <time>1970-01-01T01:04:33.000Z</time>
      </trkpt>
      <trkpt lat="42.326499" lon="-8.822288">
        <ele>38.6</ele>
        <time>1970-01-01T01:04:34.000Z</time>
      </trkpt>
      <trkpt lat="42.326506" lon="-8.822301">
        <ele>38.4</ele>
        <time>1970-01-01T01:04:35.000Z</time>
      </trkpt>
      <trkpt lat="42.326514" lon="-8.822319">
        <ele>38.2</ele>
        <time>1970-01-01T01:04:36.000Z</time>
      </trkpt>
      <trkpt lat="42.326522" lon="-8.822338">
        <ele>38</ele>
        <time>1970-01-01T01:04:37.000Z</time>
      </trkpt>
      <trkpt lat="42.326527" lon="-8.822352">
        <ele>38</ele>
        <time>1970-01-01T01:04:38.000Z</time>
      </trkpt>
      <trkpt lat="42.326531" lon="-8.822367">
        <ele>37.8</ele>
        <time>1970-01-01T01:04:39.000Z</time>
      </trkpt>
      <trkpt lat="42.326531" lon="-8.822382">
        <ele>37.8</ele>
        <time>1970-01-01T01:04:40.000Z</time>
      </trkpt>
      <trkpt lat="42.326529" lon="-8.822397">
        <ele>37.6</ele>
        <time>1970-01-01T01:04:41.000Z</time>
      </trkpt>
      <trkpt lat="42.326527" lon="-8.822411">
        <ele>37.6</ele>
        <time>1970-01-01T01:04:42.000Z</time>
      </trkpt>
      <trkpt lat="42.326525" lon="-8.822424">
        <ele>37.4</ele>
        <time>1970-01-01T01:04:43.000Z</time>
      </trkpt>
      <trkpt lat="42.326523" lon="-8.82244">
        <ele>37.2</ele>
        <time>1970-01-01T01:04:44.000Z</time>
      </trkpt>
      <trkpt lat="42.326522" lon="-8.822456">
        <ele>37</ele>
        <time>1970-01-01T01:04:45.000Z</time>
      </trkpt>
      <trkpt lat="42.326524" lon="-8.82247">
        <ele>36.8</ele>
        <time>1970-01-01T01:04:46.000Z</time>
      </trkpt>
      <trkpt lat="42.326525" lon="-8.822483">
        <ele>36.4</ele>
        <time>1970-01-01T01:04:47.000Z</time>
      </trkpt>
      <trkpt lat="42.326526" lon="-8.822495">
        <ele>36.2</ele>
        <time>1970-01-01T01:04:48.000Z</time>
      </trkpt>
      <trkpt lat="42.326525" lon="-8.822506">
        <ele>36</ele>
        <time>1970-01-01T01:04:49.000Z</time>
      </trkpt>
      <trkpt lat="42.326525" lon="-8.822515">
        <ele>35.6</ele>
        <time>1970-01-01T01:04:50.000Z</time>
      </trkpt>
      <trkpt lat="42.326527" lon="-8.822525">
        <ele>35</ele>
        <time>1970-01-01T01:04:51.000Z</time>
      </trkpt>
      <trkpt lat="42.326531" lon="-8.822541">
        <ele>34.8</ele>
        <time>1970-01-01T01:04:52.000Z</time>
      </trkpt>
      <trkpt lat="42.326532" lon="-8.82255">
        <ele>34.4</ele>
        <time>1970-01-01T01:04:53.000Z</time>
      </trkpt>
      <trkpt lat="42.326537" lon="-8.822563">
        <ele>34</ele>
        <time>1970-01-01T01:04:54.000Z</time>
      </trkpt>
      <trkpt lat="42.326539" lon="-8.822572">
        <ele>34</ele>
        <time>1970-01-01T01:04:55.000Z</time>
      </trkpt>
      <trkpt lat="42.326539" lon="-8.822584">
        <ele>33.8</ele>
        <time>1970-01-01T01:04:56.000Z</time>
      </trkpt>
      <trkpt lat="42.32654" lon="-8.822598">
        <ele>33.8</ele>
        <time>1970-01-01T01:04:57.000Z</time>
      </trkpt>
      <trkpt lat="42.32654" lon="-8.822615">
        <ele>33.6</ele>
        <time>1970-01-01T01:04:58.000Z</time>
      </trkpt>
      <trkpt lat="42.326543" lon="-8.822632">
        <ele>33.6</ele>
        <time>1970-01-01T01:04:59.000Z</time>
      </trkpt>
      <trkpt lat="42.326544" lon="-8.822651">
        <ele>33.4</ele>
        <time>1970-01-01T01:05:00.000Z</time>
      </trkpt>
      <trkpt lat="42.326541" lon="-8.822665">
        <ele>33.4</ele>
        <time>1970-01-01T01:05:01.000Z</time>
      </trkpt>
      <trkpt lat="42.32654" lon="-8.822678">
        <ele>33.2</ele>
        <time>1970-01-01T01:05:02.000Z</time>
      </trkpt>
      <trkpt lat="42.326537" lon="-8.822694">
        <ele>33.2</ele>
        <time>1970-01-01T01:05:03.000Z</time>
      </trkpt>
      <trkpt lat="42.326533" lon="-8.822712">
        <ele>33</ele>
        <time>1970-01-01T01:05:04.000Z</time>
      </trkpt>
      <trkpt lat="42.326531" lon="-8.822733">
        <ele>33</ele>
        <time>1970-01-01T01:05:05.000Z</time>
      </trkpt>
      <trkpt lat="42.326531" lon="-8.822751">
        <ele>32.8</ele>
        <time>1970-01-01T01:05:06.000Z</time>
      </trkpt>
      <trkpt lat="42.32653" lon="-8.822764">
        <ele>32.8</ele>
        <time>1970-01-01T01:05:07.000Z</time>
      </trkpt>
      <trkpt lat="42.326531" lon="-8.822779">
        <ele>32.4</ele>
        <time>1970-01-01T01:05:08.000Z</time>
      </trkpt>
      <trkpt lat="42.326538" lon="-8.822795">
        <ele>32</ele>
        <time>1970-01-01T01:05:09.000Z</time>
      </trkpt>
      <trkpt lat="42.326548" lon="-8.822808">
        <ele>31.8</ele>
        <time>1970-01-01T01:05:10.000Z</time>
      </trkpt>
      <trkpt lat="42.326559" lon="-8.82283">
        <ele>31.6</ele>
        <time>1970-01-01T01:05:11.000Z</time>
      </trkpt>
      <trkpt lat="42.326567" lon="-8.822843">
        <ele>31.4</ele>
        <time>1970-01-01T01:05:12.000Z</time>
      </trkpt>
      <trkpt lat="42.326577" lon="-8.822859">
        <ele>31.2</ele>
        <time>1970-01-01T01:05:13.000Z</time>
      </trkpt>
      <trkpt lat="42.32659" lon="-8.822876">
        <ele>31.2</ele>
        <time>1970-01-01T01:05:14.000Z</time>
      </trkpt>
      <trkpt lat="42.326604" lon="-8.822893">
        <ele>31.2</ele>
        <time>1970-01-01T01:05:15.000Z</time>
      </trkpt>
      <trkpt lat="42.32662" lon="-8.822904">
        <ele>31.6</ele>
        <time>1970-01-01T01:05:16.000Z</time>
      </trkpt>
      <trkpt lat="42.326639" lon="-8.822918">
        <ele>31.4</ele>
        <time>1970-01-01T01:05:17.000Z</time>
      </trkpt>
      <trkpt lat="42.326657" lon="-8.822922">
        <ele>31.4</ele>
        <time>1970-01-01T01:05:18.000Z</time>
      </trkpt>
      <trkpt lat="42.326668" lon="-8.822926">
        <ele>31.4</ele>
        <time>1970-01-01T01:05:19.000Z</time>
      </trkpt>
      <trkpt lat="42.326678" lon="-8.822933">
        <ele>31.4</ele>
        <time>1970-01-01T01:05:20.000Z</time>
      </trkpt>
      <trkpt lat="42.32669" lon="-8.822935">
        <ele>31.6</ele>
        <time>1970-01-01T01:05:21.000Z</time>
      </trkpt>
      <trkpt lat="42.326701" lon="-8.822938">
        <ele>31.6</ele>
        <time>1970-01-01T01:05:22.000Z</time>
      </trkpt>
      <trkpt lat="42.326716" lon="-8.822937">
        <ele>31.6</ele>
        <time>1970-01-01T01:05:23.000Z</time>
      </trkpt>
      <trkpt lat="42.326728" lon="-8.822938">
        <ele>31.8</ele>
        <time>1970-01-01T01:05:24.000Z</time>
      </trkpt>
      <trkpt lat="42.326739" lon="-8.822938">
        <ele>32</ele>
        <time>1970-01-01T01:05:25.000Z</time>
      </trkpt>
      <trkpt lat="42.326749" lon="-8.822938">
        <ele>32.2</ele>
        <time>1970-01-01T01:05:26.000Z</time>
      </trkpt>
      <trkpt lat="42.326758" lon="-8.822938">
        <ele>32.4</ele>
        <time>1970-01-01T01:05:27.000Z</time>
      </trkpt>
      <trkpt lat="42.326768" lon="-8.822939">
        <ele>32.6</ele>
        <time>1970-01-01T01:05:28.000Z</time>
      </trkpt>
      <trkpt lat="42.326778" lon="-8.822945">
        <ele>33</ele>
        <time>1970-01-01T01:05:29.000Z</time>
      </trkpt>
      <trkpt lat="42.326794" lon="-8.822949">
        <ele>33.2</ele>
        <time>1970-01-01T01:05:30.000Z</time>
      </trkpt>
      <trkpt lat="42.326805" lon="-8.822955">
        <ele>33.6</ele>
        <time>1970-01-01T01:05:31.000Z</time>
      </trkpt>
      <trkpt lat="42.326812" lon="-8.82296">
        <ele>33.6</ele>
        <time>1970-01-01T01:05:32.000Z</time>
      </trkpt>
      <trkpt lat="42.32682" lon="-8.822965">
        <ele>34.2</ele>
        <time>1970-01-01T01:05:33.000Z</time>
      </trkpt>
      <trkpt lat="42.326827" lon="-8.822974">
        <ele>34.4</ele>
        <time>1970-01-01T01:05:34.000Z</time>
      </trkpt>
      <trkpt lat="42.326834" lon="-8.822981">
        <ele>34.8</ele>
        <time>1970-01-01T01:05:35.000Z</time>
      </trkpt>
      <trkpt lat="42.326843" lon="-8.822993">
        <ele>35.2</ele>
        <time>1970-01-01T01:05:36.000Z</time>
      </trkpt>
      <trkpt lat="42.326853" lon="-8.822998">
        <ele>35.2</ele>
        <time>1970-01-01T01:05:37.000Z</time>
      </trkpt>
      <trkpt lat="42.326865" lon="-8.823002">
        <ele>35.6</ele>
        <time>1970-01-01T01:05:38.000Z</time>
      </trkpt>
      <trkpt lat="42.326874" lon="-8.823009">
        <ele>35.8</ele>
        <time>1970-01-01T01:05:39.000Z</time>
      </trkpt>
      <trkpt lat="42.326885" lon="-8.823019">
        <ele>36</ele>
        <time>1970-01-01T01:05:40.000Z</time>
      </trkpt>
      <trkpt lat="42.326894" lon="-8.82303">
        <ele>36</ele>
        <time>1970-01-01T01:05:41.000Z</time>
      </trkpt>
      <trkpt lat="42.326902" lon="-8.823036">
        <ele>36</ele>
        <time>1970-01-01T01:05:42.000Z</time>
      </trkpt>
      <trkpt lat="42.326913" lon="-8.823048">
        <ele>36.2</ele>
        <time>1970-01-01T01:05:43.000Z</time>
      </trkpt>
      <trkpt lat="42.32692" lon="-8.823055">
        <ele>36.2</ele>
        <time>1970-01-01T01:05:44.000Z</time>
      </trkpt>
      <trkpt lat="42.326929" lon="-8.823069">
        <ele>36.2</ele>
        <time>1970-01-01T01:05:45.000Z</time>
      </trkpt>
      <trkpt lat="42.326938" lon="-8.82308">
        <ele>36.4</ele>
        <time>1970-01-01T01:05:46.000Z</time>
      </trkpt>
      <trkpt lat="42.326949" lon="-8.823092">
        <ele>36.4</ele>
        <time>1970-01-01T01:05:47.000Z</time>
      </trkpt>
      <trkpt lat="42.326961" lon="-8.823103">
        <ele>36.6</ele>
        <time>1970-01-01T01:05:48.000Z</time>
      </trkpt>
      <trkpt lat="42.326973" lon="-8.823113">
        <ele>36.6</ele>
        <time>1970-01-01T01:05:49.000Z</time>
      </trkpt>
      <trkpt lat="42.326983" lon="-8.823119">
        <ele>36.8</ele>
        <time>1970-01-01T01:05:50.000Z</time>
      </trkpt>
      <trkpt lat="42.326995" lon="-8.823126">
        <ele>37</ele>
        <time>1970-01-01T01:05:51.000Z</time>
      </trkpt>
      <trkpt lat="42.327009" lon="-8.823131">
        <ele>37</ele>
        <time>1970-01-01T01:05:52.000Z</time>
      </trkpt>
      <trkpt lat="42.327024" lon="-8.82314">
        <ele>37.2</ele>
        <time>1970-01-01T01:05:53.000Z</time>
      </trkpt>
      <trkpt lat="42.327036" lon="-8.823148">
        <ele>37.4</ele>
        <time>1970-01-01T01:05:54.000Z</time>
      </trkpt>
      <trkpt lat="42.327049" lon="-8.823157">
        <ele>37.4</ele>
        <time>1970-01-01T01:05:55.000Z</time>
      </trkpt>
      <trkpt lat="42.32706" lon="-8.823163">
        <ele>37.6</ele>
        <time>1970-01-01T01:05:56.000Z</time>
      </trkpt>
      <trkpt lat="42.327071" lon="-8.82317">
        <ele>37.8</ele>
        <time>1970-01-01T01:05:57.000Z</time>
      </trkpt>
      <trkpt lat="42.327083" lon="-8.823177">
        <ele>38</ele>
        <time>1970-01-01T01:05:58.000Z</time>
      </trkpt>
      <trkpt lat="42.327098" lon="-8.823176">
        <ele>38.2</ele>
        <time>1970-01-01T01:05:59.000Z</time>
      </trkpt>
      <trkpt lat="42.327117" lon="-8.823166">
        <ele>38.6</ele>
        <time>1970-01-01T01:06:00.000Z</time>
      </trkpt>
      <trkpt lat="42.327132" lon="-8.823161">
        <ele>38.8</ele>
        <time>1970-01-01T01:06:01.000Z</time>
      </trkpt>
      <trkpt lat="42.327146" lon="-8.823152">
        <ele>39</ele>
        <time>1970-01-01T01:06:02.000Z</time>
      </trkpt>
      <trkpt lat="42.32716" lon="-8.823143">
        <ele>39</ele>
        <time>1970-01-01T01:06:03.000Z</time>
      </trkpt>
      <trkpt lat="42.327173" lon="-8.823138">
        <ele>39</ele>
        <time>1970-01-01T01:06:04.000Z</time>
      </trkpt>
      <trkpt lat="42.327184" lon="-8.823133">
        <ele>39</ele>
        <time>1970-01-01T01:06:05.000Z</time>
      </trkpt>
      <trkpt lat="42.327192" lon="-8.82313">
        <ele>39.2</ele>
        <time>1970-01-01T01:06:06.000Z</time>
      </trkpt>
      <trkpt lat="42.327202" lon="-8.823127">
        <ele>39.2</ele>
        <time>1970-01-01T01:06:07.000Z</time>
      </trkpt>
      <trkpt lat="42.327209" lon="-8.823125">
        <ele>39.4</ele>
        <time>1970-01-01T01:06:08.000Z</time>
      </trkpt>
      <trkpt lat="42.327212" lon="-8.823126">
        <ele>39.4</ele>
        <time>1970-01-01T01:06:09.000Z</time>
      </trkpt>
      <trkpt lat="42.327213" lon="-8.823126">
        <ele>39.4</ele>
        <time>1970-01-01T01:06:10.000Z</time>
      </trkpt>
      <trkpt lat="42.327211" lon="-8.823132">
        <ele>39.6</ele>
        <time>1970-01-01T01:06:11.000Z</time>
      </trkpt>
      <trkpt lat="42.32721" lon="-8.82314">
        <ele>39.6</ele>
        <time>1970-01-01T01:06:12.000Z</time>
      </trkpt>
      <trkpt lat="42.327203" lon="-8.823155">
        <ele>39.6</ele>
        <time>1970-01-01T01:06:13.000Z</time>
      </trkpt>
      <trkpt lat="42.327195" lon="-8.823175">
        <ele>39.2</ele>
        <time>1970-01-01T01:06:14.000Z</time>
      </trkpt>
      <trkpt lat="42.32719" lon="-8.823201">
        <ele>39</ele>
        <time>1970-01-01T01:06:15.000Z</time>
      </trkpt>
      <trkpt lat="42.327183" lon="-8.823218">
        <ele>39</ele>
        <time>1970-01-01T01:06:16.000Z</time>
      </trkpt>
      <trkpt lat="42.327176" lon="-8.823236">
        <ele>38.8</ele>
        <time>1970-01-01T01:06:17.000Z</time>
      </trkpt>
      <trkpt lat="42.327168" lon="-8.823257">
        <ele>38.8</ele>
        <time>1970-01-01T01:06:18.000Z</time>
      </trkpt>
      <trkpt lat="42.327159" lon="-8.823274">
        <ele>38.8</ele>
        <time>1970-01-01T01:06:19.000Z</time>
      </trkpt>
      <trkpt lat="42.327148" lon="-8.823291">
        <ele>38.6</ele>
        <time>1970-01-01T01:06:20.000Z</time>
      </trkpt>
      <trkpt lat="42.327139" lon="-8.823308">
        <ele>38.6</ele>
        <time>1970-01-01T01:06:21.000Z</time>
      </trkpt>
      <trkpt lat="42.327133" lon="-8.823322">
        <ele>38.4</ele>
        <time>1970-01-01T01:06:22.000Z</time>
      </trkpt>
      <trkpt lat="42.327128" lon="-8.823337">
        <ele>38.2</ele>
        <time>1970-01-01T01:06:23.000Z</time>
      </trkpt>
      <trkpt lat="42.327123" lon="-8.823349">
        <ele>38</ele>
        <time>1970-01-01T01:06:24.000Z</time>
      </trkpt>
      <trkpt lat="42.32712" lon="-8.823359">
        <ele>37.6</ele>
        <time>1970-01-01T01:06:25.000Z</time>
      </trkpt>
      <trkpt lat="42.327119" lon="-8.823368">
        <ele>37.2</ele>
        <time>1970-01-01T01:06:26.000Z</time>
      </trkpt>
      <trkpt lat="42.327119" lon="-8.823378">
        <ele>36.8</ele>
        <time>1970-01-01T01:06:27.000Z</time>
      </trkpt>
      <trkpt lat="42.327119" lon="-8.823391">
        <ele>36.4</ele>
        <time>1970-01-01T01:06:28.000Z</time>
      </trkpt>
      <trkpt lat="42.327119" lon="-8.823406">
        <ele>36.2</ele>
        <time>1970-01-01T01:06:29.000Z</time>
      </trkpt>
      <trkpt lat="42.327119" lon="-8.823422">
        <ele>36.2</ele>
        <time>1970-01-01T01:06:30.000Z</time>
      </trkpt>
      <trkpt lat="42.32712" lon="-8.823439">
        <ele>36</ele>
        <time>1970-01-01T01:06:31.000Z</time>
      </trkpt>
      <trkpt lat="42.32712" lon="-8.823454">
        <ele>36</ele>
        <time>1970-01-01T01:06:32.000Z</time>
      </trkpt>
      <trkpt lat="42.327119" lon="-8.823469">
        <ele>36</ele>
        <time>1970-01-01T01:06:33.000Z</time>
      </trkpt>
      <trkpt lat="42.327114" lon="-8.823485">
        <ele>35.8</ele>
        <time>1970-01-01T01:06:34.000Z</time>
      </trkpt>
      <trkpt lat="42.327111" lon="-8.823498">
        <ele>35.6</ele>
        <time>1970-01-01T01:06:35.000Z</time>
      </trkpt>
      <trkpt lat="42.327108" lon="-8.823512">
        <ele>35.4</ele>
        <time>1970-01-01T01:06:36.000Z</time>
      </trkpt>
      <trkpt lat="42.327104" lon="-8.823526">
        <ele>35</ele>
        <time>1970-01-01T01:06:37.000Z</time>
      </trkpt>
      <trkpt lat="42.327097" lon="-8.823537">
        <ele>34.8</ele>
        <time>1970-01-01T01:06:38.000Z</time>
      </trkpt>
      <trkpt lat="42.327092" lon="-8.82355">
        <ele>34.6</ele>
        <time>1970-01-01T01:06:39.000Z</time>
      </trkpt>
      <trkpt lat="42.327083" lon="-8.823565">
        <ele>34.4</ele>
        <time>1970-01-01T01:06:40.000Z</time>
      </trkpt>
      <trkpt lat="42.327074" lon="-8.823583">
        <ele>34.2</ele>
        <time>1970-01-01T01:06:41.000Z</time>
      </trkpt>
      <trkpt lat="42.327067" lon="-8.8236">
        <ele>33.2</ele>
        <time>1970-01-01T01:06:42.000Z</time>
      </trkpt>
      <trkpt lat="42.327063" lon="-8.82362">
        <ele>32.8</ele>
        <time>1970-01-01T01:06:43.000Z</time>
      </trkpt>
      <trkpt lat="42.327064" lon="-8.823642">
        <ele>32.4</ele>
        <time>1970-01-01T01:06:44.000Z</time>
      </trkpt>
      <trkpt lat="42.327065" lon="-8.823667">
        <ele>32.4</ele>
        <time>1970-01-01T01:06:45.000Z</time>
      </trkpt>
      <trkpt lat="42.327066" lon="-8.823687">
        <ele>32.4</ele>
        <time>1970-01-01T01:06:46.000Z</time>
      </trkpt>
      <trkpt lat="42.327067" lon="-8.823705">
        <ele>32.4</ele>
        <time>1970-01-01T01:06:47.000Z</time>
      </trkpt>
      <trkpt lat="42.327069" lon="-8.823723">
        <ele>32.4</ele>
        <time>1970-01-01T01:06:48.000Z</time>
      </trkpt>
      <trkpt lat="42.327073" lon="-8.823744">
        <ele>32.4</ele>
        <time>1970-01-01T01:06:49.000Z</time>
      </trkpt>
      <trkpt lat="42.327078" lon="-8.823762">
        <ele>32</ele>
        <time>1970-01-01T01:06:50.000Z</time>
      </trkpt>
      <trkpt lat="42.327086" lon="-8.823781">
        <ele>31.6</ele>
        <time>1970-01-01T01:06:51.000Z</time>
      </trkpt>
      <trkpt lat="42.327096" lon="-8.823802">
        <ele>31.4</ele>
        <time>1970-01-01T01:06:52.000Z</time>
      </trkpt>
      <trkpt lat="42.327107" lon="-8.823822">
        <ele>31.2</ele>
        <time>1970-01-01T01:06:53.000Z</time>
      </trkpt>
      <trkpt lat="42.327116" lon="-8.823842">
        <ele>30.8</ele>
        <time>1970-01-01T01:06:54.000Z</time>
      </trkpt>
      <trkpt lat="42.327122" lon="-8.823857">
        <ele>30.6</ele>
        <time>1970-01-01T01:06:55.000Z</time>
      </trkpt>
      <trkpt lat="42.327131" lon="-8.823876">
        <ele>30.6</ele>
        <time>1970-01-01T01:06:56.000Z</time>
      </trkpt>
      <trkpt lat="42.327139" lon="-8.823892">
        <ele>30.4</ele>
        <time>1970-01-01T01:06:57.000Z</time>
      </trkpt>
      <trkpt lat="42.327148" lon="-8.82391">
        <ele>30.2</ele>
        <time>1970-01-01T01:06:58.000Z</time>
      </trkpt>
      <trkpt lat="42.327156" lon="-8.82393">
        <ele>30</ele>
        <time>1970-01-01T01:06:59.000Z</time>
      </trkpt>
      <trkpt lat="42.327162" lon="-8.82395">
        <ele>29.8</ele>
        <time>1970-01-01T01:07:00.000Z</time>
      </trkpt>
      <trkpt lat="42.327167" lon="-8.82397">
        <ele>29.8</ele>
        <time>1970-01-01T01:07:01.000Z</time>
      </trkpt>
      <trkpt lat="42.32717" lon="-8.823987">
        <ele>29.2</ele>
        <time>1970-01-01T01:07:02.000Z</time>
      </trkpt>
      <trkpt lat="42.327173" lon="-8.824006">
        <ele>28.8</ele>
        <time>1970-01-01T01:07:03.000Z</time>
      </trkpt>
      <trkpt lat="42.327172" lon="-8.824022">
        <ele>28.4</ele>
        <time>1970-01-01T01:07:04.000Z</time>
      </trkpt>
      <trkpt lat="42.327171" lon="-8.824035">
        <ele>28.2</ele>
        <time>1970-01-01T01:07:05.000Z</time>
      </trkpt>
      <trkpt lat="42.327169" lon="-8.824046">
        <ele>28</ele>
        <time>1970-01-01T01:07:06.000Z</time>
      </trkpt>
      <trkpt lat="42.327166" lon="-8.824054">
        <ele>27.8</ele>
        <time>1970-01-01T01:07:07.000Z</time>
      </trkpt>
      <trkpt lat="42.327162" lon="-8.824059">
        <ele>27.8</ele>
        <time>1970-01-01T01:07:08.000Z</time>
      </trkpt>
      <trkpt lat="42.327156" lon="-8.824063">
        <ele>27.6</ele>
        <time>1970-01-01T01:07:09.000Z</time>
      </trkpt>
      <trkpt lat="42.327147" lon="-8.824062">
        <ele>27.4</ele>
        <time>1970-01-01T01:07:10.000Z</time>
      </trkpt>
      <trkpt lat="42.327136" lon="-8.824059">
        <ele>27.4</ele>
        <time>1970-01-01T01:07:11.000Z</time>
      </trkpt>
      <trkpt lat="42.327125" lon="-8.824062">
        <ele>27.2</ele>
        <time>1970-01-01T01:07:12.000Z</time>
      </trkpt>
      <trkpt lat="42.327113" lon="-8.824065">
        <ele>27.2</ele>
        <time>1970-01-01T01:07:13.000Z</time>
      </trkpt>
      <trkpt lat="42.3271" lon="-8.824071">
        <ele>27</ele>
        <time>1970-01-01T01:07:14.000Z</time>
      </trkpt>
      <trkpt lat="42.327084" lon="-8.824082">
        <ele>26.8</ele>
        <time>1970-01-01T01:07:15.000Z</time>
      </trkpt>
      <trkpt lat="42.327069" lon="-8.824088">
        <ele>26.8</ele>
        <time>1970-01-01T01:07:16.000Z</time>
      </trkpt>
      <trkpt lat="42.327056" lon="-8.824091">
        <ele>26.8</ele>
        <time>1970-01-01T01:07:17.000Z</time>
      </trkpt>
      <trkpt lat="42.327044" lon="-8.824093">
        <ele>26.6</ele>
        <time>1970-01-01T01:07:18.000Z</time>
      </trkpt>
      <trkpt lat="42.327033" lon="-8.824096">
        <ele>26.4</ele>
        <time>1970-01-01T01:07:19.000Z</time>
      </trkpt>
      <trkpt lat="42.327023" lon="-8.824097">
        <ele>26.2</ele>
        <time>1970-01-01T01:07:20.000Z</time>
      </trkpt>
      <trkpt lat="42.327013" lon="-8.824095">
        <ele>26</ele>
        <time>1970-01-01T01:07:21.000Z</time>
      </trkpt>
      <trkpt lat="42.327003" lon="-8.824096">
        <ele>25.6</ele>
        <time>1970-01-01T01:07:22.000Z</time>
      </trkpt>
      <trkpt lat="42.326994" lon="-8.824096">
        <ele>25.6</ele>
        <time>1970-01-01T01:07:23.000Z</time>
      </trkpt>
      <trkpt lat="42.326983" lon="-8.824098">
        <ele>25.4</ele>
        <time>1970-01-01T01:07:24.000Z</time>
      </trkpt>
      <trkpt lat="42.326975" lon="-8.824099">
        <ele>25.2</ele>
        <time>1970-01-01T01:07:25.000Z</time>
      </trkpt>
      <trkpt lat="42.326963" lon="-8.824106">
        <ele>25</ele>
        <time>1970-01-01T01:07:26.000Z</time>
      </trkpt>
      <trkpt lat="42.326953" lon="-8.824114">
        <ele>24.8</ele>
        <time>1970-01-01T01:07:27.000Z</time>
      </trkpt>
      <trkpt lat="42.326945" lon="-8.824117">
        <ele>24.8</ele>
        <time>1970-01-01T01:07:28.000Z</time>
      </trkpt>
      <trkpt lat="42.326935" lon="-8.824121">
        <ele>24.8</ele>
        <time>1970-01-01T01:07:29.000Z</time>
      </trkpt>
      <trkpt lat="42.326925" lon="-8.824125">
        <ele>24.8</ele>
        <time>1970-01-01T01:07:30.000Z</time>
      </trkpt>
      <trkpt lat="42.326915" lon="-8.824128">
        <ele>24</ele>
        <time>1970-01-01T01:07:31.000Z</time>
      </trkpt>
      <trkpt lat="42.326905" lon="-8.824132">
        <ele>23.8</ele>
        <time>1970-01-01T01:07:32.000Z</time>
      </trkpt>
      <trkpt lat="42.326891" lon="-8.824136">
        <ele>23.6</ele>
        <time>1970-01-01T01:07:33.000Z</time>
      </trkpt>
      <trkpt lat="42.326876" lon="-8.82414">
        <ele>23.4</ele>
        <time>1970-01-01T01:07:34.000Z</time>
      </trkpt>
      <trkpt lat="42.326859" lon="-8.824146">
        <ele>23.2</ele>
        <time>1970-01-01T01:07:35.000Z</time>
      </trkpt>
      <trkpt lat="42.326842" lon="-8.824155">
        <ele>23</ele>
        <time>1970-01-01T01:07:36.000Z</time>
      </trkpt>
      <trkpt lat="42.326827" lon="-8.824165">
        <ele>23</ele>
        <time>1970-01-01T01:07:37.000Z</time>
      </trkpt>
      <trkpt lat="42.326812" lon="-8.824173">
        <ele>22.8</ele>
        <time>1970-01-01T01:07:38.000Z</time>
      </trkpt>
      <trkpt lat="42.326799" lon="-8.824183">
        <ele>22.6</ele>
        <time>1970-01-01T01:07:39.000Z</time>
      </trkpt>
      <trkpt lat="42.326787" lon="-8.82419">
        <ele>22.4</ele>
        <time>1970-01-01T01:07:40.000Z</time>
      </trkpt>
      <trkpt lat="42.326774" lon="-8.824199">
        <ele>22.4</ele>
        <time>1970-01-01T01:07:41.000Z</time>
      </trkpt>
      <trkpt lat="42.326766" lon="-8.824219">
        <ele>22.4</ele>
        <time>1970-01-01T01:07:42.000Z</time>
      </trkpt>
      <trkpt lat="42.326758" lon="-8.82424">
        <ele>22.2</ele>
        <time>1970-01-01T01:07:43.000Z</time>
      </trkpt>
      <trkpt lat="42.32675" lon="-8.824256">
        <ele>22.2</ele>
        <time>1970-01-01T01:07:44.000Z</time>
      </trkpt>
      <trkpt lat="42.326742" lon="-8.824269">
        <ele>22.2</ele>
        <time>1970-01-01T01:07:45.000Z</time>
      </trkpt>
      <trkpt lat="42.326733" lon="-8.82428">
        <ele>22</ele>
        <time>1970-01-01T01:07:46.000Z</time>
      </trkpt>
      <trkpt lat="42.326726" lon="-8.824293">
        <ele>22</ele>
        <time>1970-01-01T01:07:47.000Z</time>
      </trkpt>
      <trkpt lat="42.326719" lon="-8.824303">
        <ele>21.8</ele>
        <time>1970-01-01T01:07:48.000Z</time>
      </trkpt>
      <trkpt lat="42.32671" lon="-8.824315">
        <ele>21.2</ele>
        <time>1970-01-01T01:07:49.000Z</time>
      </trkpt>
      <trkpt lat="42.326704" lon="-8.824335">
        <ele>20.8</ele>
        <time>1970-01-01T01:07:50.000Z</time>
      </trkpt>
      <trkpt lat="42.326696" lon="-8.824356">
        <ele>20.6</ele>
        <time>1970-01-01T01:07:51.000Z</time>
      </trkpt>
      <trkpt lat="42.326686" lon="-8.824377">
        <ele>20.4</ele>
        <time>1970-01-01T01:07:52.000Z</time>
      </trkpt>
      <trkpt lat="42.326674" lon="-8.824392">
        <ele>20.2</ele>
        <time>1970-01-01T01:07:53.000Z</time>
      </trkpt>
      <trkpt lat="42.326661" lon="-8.824406">
        <ele>20.2</ele>
        <time>1970-01-01T01:07:54.000Z</time>
      </trkpt>
      <trkpt lat="42.326647" lon="-8.824416">
        <ele>20</ele>
        <time>1970-01-01T01:07:55.000Z</time>
      </trkpt>
      <trkpt lat="42.326633" lon="-8.824424">
        <ele>20</ele>
        <time>1970-01-01T01:07:56.000Z</time>
      </trkpt>
      <trkpt lat="42.326621" lon="-8.824433">
        <ele>19.8</ele>
        <time>1970-01-01T01:07:57.000Z</time>
      </trkpt>
      <trkpt lat="42.326611" lon="-8.824441">
        <ele>19.8</ele>
        <time>1970-01-01T01:07:58.000Z</time>
      </trkpt>
      <trkpt lat="42.326603" lon="-8.824448">
        <ele>19.8</ele>
        <time>1970-01-01T01:07:59.000Z</time>
      </trkpt>
      <trkpt lat="42.326596" lon="-8.824455">
        <ele>19.8</ele>
        <time>1970-01-01T01:08:00.000Z</time>
      </trkpt>
      <trkpt lat="42.326588" lon="-8.824462">
        <ele>19.8</ele>
        <time>1970-01-01T01:08:01.000Z</time>
      </trkpt>
      <trkpt lat="42.326576" lon="-8.824464">
        <ele>19.8</ele>
        <time>1970-01-01T01:08:02.000Z</time>
      </trkpt>
      <trkpt lat="42.326565" lon="-8.824464">
        <ele>19.8</ele>
        <time>1970-01-01T01:08:03.000Z</time>
      </trkpt>
      <trkpt lat="42.326554" lon="-8.824465">
        <ele>19.8</ele>
        <time>1970-01-01T01:08:04.000Z</time>
      </trkpt>
      <trkpt lat="42.326544" lon="-8.824469">
        <ele>19.8</ele>
        <time>1970-01-01T01:08:05.000Z</time>
      </trkpt>
      <trkpt lat="42.326531" lon="-8.824475">
        <ele>19.6</ele>
        <time>1970-01-01T01:08:06.000Z</time>
      </trkpt>
      <trkpt lat="42.326519" lon="-8.824482">
        <ele>19.4</ele>
        <time>1970-01-01T01:08:07.000Z</time>
      </trkpt>
      <trkpt lat="42.326505" lon="-8.824486">
        <ele>19.4</ele>
        <time>1970-01-01T01:08:08.000Z</time>
      </trkpt>
      <trkpt lat="42.326492" lon="-8.824487">
        <ele>19.4</ele>
        <time>1970-01-01T01:08:09.000Z</time>
      </trkpt>
      <trkpt lat="42.326478" lon="-8.824487">
        <ele>19.4</ele>
        <time>1970-01-01T01:08:10.000Z</time>
      </trkpt>
      <trkpt lat="42.326464" lon="-8.824489">
        <ele>19.4</ele>
        <time>1970-01-01T01:08:11.000Z</time>
      </trkpt>
      <trkpt lat="42.326449" lon="-8.824493">
        <ele>19.2</ele>
        <time>1970-01-01T01:08:12.000Z</time>
      </trkpt>
      <trkpt lat="42.326432" lon="-8.824495">
        <ele>19.4</ele>
        <time>1970-01-01T01:08:13.000Z</time>
      </trkpt>
      <trkpt lat="42.326413" lon="-8.824499">
        <ele>19.4</ele>
        <time>1970-01-01T01:08:14.000Z</time>
      </trkpt>
      <trkpt lat="42.326396" lon="-8.824506">
        <ele>19.4</ele>
        <time>1970-01-01T01:08:15.000Z</time>
      </trkpt>
      <trkpt lat="42.32638" lon="-8.824512">
        <ele>19.2</ele>
        <time>1970-01-01T01:08:16.000Z</time>
      </trkpt>
      <trkpt lat="42.326363" lon="-8.82452">
        <ele>19</ele>
        <time>1970-01-01T01:08:17.000Z</time>
      </trkpt>
      <trkpt lat="42.326346" lon="-8.824527">
        <ele>18.8</ele>
        <time>1970-01-01T01:08:18.000Z</time>
      </trkpt>
      <trkpt lat="42.326329" lon="-8.824535">
        <ele>18.8</ele>
        <time>1970-01-01T01:08:19.000Z</time>
      </trkpt>
      <trkpt lat="42.326314" lon="-8.824542">
        <ele>18.8</ele>
        <time>1970-01-01T01:08:20.000Z</time>
      </trkpt>
      <trkpt lat="42.326299" lon="-8.824545">
        <ele>18.8</ele>
        <time>1970-01-01T01:08:21.000Z</time>
      </trkpt>
      <trkpt lat="42.326287" lon="-8.824552">
        <ele>18.6</ele>
        <time>1970-01-01T01:08:22.000Z</time>
      </trkpt>
      <trkpt lat="42.326281" lon="-8.824553">
        <ele>18.4</ele>
        <time>1970-01-01T01:08:23.000Z</time>
      </trkpt>
      <trkpt lat="42.326276" lon="-8.824554">
        <ele>18.2</ele>
        <time>1970-01-01T01:08:24.000Z</time>
      </trkpt>
      <trkpt lat="42.32627" lon="-8.824558">
        <ele>18.2</ele>
        <time>1970-01-01T01:08:25.000Z</time>
      </trkpt>
      <trkpt lat="42.326261" lon="-8.824552">
        <ele>18</ele>
        <time>1970-01-01T01:08:26.000Z</time>
      </trkpt>
      <trkpt lat="42.326251" lon="-8.824548">
        <ele>18</ele>
        <time>1970-01-01T01:08:27.000Z</time>
      </trkpt>
      <trkpt lat="42.326241" lon="-8.824549">
        <ele>17.8</ele>
        <time>1970-01-01T01:08:28.000Z</time>
      </trkpt>
      <trkpt lat="42.326228" lon="-8.824562">
        <ele>17.8</ele>
        <time>1970-01-01T01:08:29.000Z</time>
      </trkpt>
      <trkpt lat="42.326216" lon="-8.824582">
        <ele>17.6</ele>
        <time>1970-01-01T01:08:30.000Z</time>
      </trkpt>
      <trkpt lat="42.32621" lon="-8.824591">
        <ele>17.6</ele>
        <time>1970-01-01T01:08:31.000Z</time>
      </trkpt>
      <trkpt lat="42.326205" lon="-8.824597">
        <ele>17.2</ele>
        <time>1970-01-01T01:08:32.000Z</time>
      </trkpt>
      <trkpt lat="42.326203" lon="-8.824606">
        <ele>17.2</ele>
        <time>1970-01-01T01:08:33.000Z</time>
      </trkpt>
      <trkpt lat="42.3262" lon="-8.824615">
        <ele>17</ele>
        <time>1970-01-01T01:08:34.000Z</time>
      </trkpt>
      <trkpt lat="42.326194" lon="-8.824625">
        <ele>17</ele>
        <time>1970-01-01T01:08:35.000Z</time>
      </trkpt>
      <trkpt lat="42.326185" lon="-8.824632">
        <ele>16.8</ele>
        <time>1970-01-01T01:08:36.000Z</time>
      </trkpt>
      <trkpt lat="42.326173" lon="-8.824642">
        <ele>16.8</ele>
        <time>1970-01-01T01:08:37.000Z</time>
      </trkpt>
      <trkpt lat="42.326158" lon="-8.82466">
        <ele>16.8</ele>
        <time>1970-01-01T01:08:38.000Z</time>
      </trkpt>
      <trkpt lat="42.326144" lon="-8.824675">
        <ele>16.8</ele>
        <time>1970-01-01T01:08:39.000Z</time>
      </trkpt>
      <trkpt lat="42.32613" lon="-8.824694">
        <ele>16.8</ele>
        <time>1970-01-01T01:08:40.000Z</time>
      </trkpt>
      <trkpt lat="42.326118" lon="-8.824708">
        <ele>16.8</ele>
        <time>1970-01-01T01:08:41.000Z</time>
      </trkpt>
      <trkpt lat="42.326112" lon="-8.824715">
        <ele>16.6</ele>
        <time>1970-01-01T01:08:42.000Z</time>
      </trkpt>
      <trkpt lat="42.326107" lon="-8.824724">
        <ele>16.4</ele>
        <time>1970-01-01T01:08:43.000Z</time>
      </trkpt>
      <trkpt lat="42.326106" lon="-8.824734">
        <ele>16.6</ele>
        <time>1970-01-01T01:08:44.000Z</time>
      </trkpt>
      <trkpt lat="42.326101" lon="-8.824747">
        <ele>16.6</ele>
        <time>1970-01-01T01:08:45.000Z</time>
      </trkpt>
      <trkpt lat="42.326094" lon="-8.824761">
        <ele>16.6</ele>
        <time>1970-01-01T01:08:46.000Z</time>
      </trkpt>
      <trkpt lat="42.326087" lon="-8.824778">
        <ele>16.4</ele>
        <time>1970-01-01T01:08:47.000Z</time>
      </trkpt>
      <trkpt lat="42.32608" lon="-8.824799">
        <ele>16.4</ele>
        <time>1970-01-01T01:08:48.000Z</time>
      </trkpt>
      <trkpt lat="42.326073" lon="-8.824819">
        <ele>16.6</ele>
        <time>1970-01-01T01:08:49.000Z</time>
      </trkpt>
      <trkpt lat="42.326069" lon="-8.824842">
        <ele>16.6</ele>
        <time>1970-01-01T01:08:50.000Z</time>
      </trkpt>
      <trkpt lat="42.326065" lon="-8.824858">
        <ele>16.4</ele>
        <time>1970-01-01T01:08:51.000Z</time>
      </trkpt>
      <trkpt lat="42.326065" lon="-8.824872">
        <ele>16.4</ele>
        <time>1970-01-01T01:08:52.000Z</time>
      </trkpt>
      <trkpt lat="42.326065" lon="-8.82489">
        <ele>16.2</ele>
        <time>1970-01-01T01:08:53.000Z</time>
      </trkpt>
      <trkpt lat="42.326067" lon="-8.824903">
        <ele>16.2</ele>
        <time>1970-01-01T01:08:54.000Z</time>
      </trkpt>
      <trkpt lat="42.326069" lon="-8.82492">
        <ele>16</ele>
        <time>1970-01-01T01:08:55.000Z</time>
      </trkpt>
      <trkpt lat="42.32607" lon="-8.824939">
        <ele>15.8</ele>
        <time>1970-01-01T01:08:56.000Z</time>
      </trkpt>
      <trkpt lat="42.326073" lon="-8.824963">
        <ele>15.6</ele>
        <time>1970-01-01T01:08:57.000Z</time>
      </trkpt>
      <trkpt lat="42.326075" lon="-8.824979">
        <ele>15.2</ele>
        <time>1970-01-01T01:08:58.000Z</time>
      </trkpt>
      <trkpt lat="42.326077" lon="-8.824992">
        <ele>14.8</ele>
        <time>1970-01-01T01:08:59.000Z</time>
      </trkpt>
      <trkpt lat="42.326079" lon="-8.825005">
        <ele>14.4</ele>
        <time>1970-01-01T01:09:00.000Z</time>
      </trkpt>
      <trkpt lat="42.32608" lon="-8.825014">
        <ele>14.4</ele>
        <time>1970-01-01T01:09:01.000Z</time>
      </trkpt>
      <trkpt lat="42.326079" lon="-8.82502">
        <ele>14.2</ele>
        <time>1970-01-01T01:09:02.000Z</time>
      </trkpt>
      <trkpt lat="42.326074" lon="-8.825026">
        <ele>14</ele>
        <time>1970-01-01T01:09:03.000Z</time>
      </trkpt>
      <trkpt lat="42.326065" lon="-8.825032">
        <ele>14</ele>
        <time>1970-01-01T01:09:04.000Z</time>
      </trkpt>
      <trkpt lat="42.326054" lon="-8.825039">
        <ele>13.8</ele>
        <time>1970-01-01T01:09:05.000Z</time>
      </trkpt>
      <trkpt lat="42.326042" lon="-8.825054">
        <ele>13.8</ele>
        <time>1970-01-01T01:09:06.000Z</time>
      </trkpt>
      <trkpt lat="42.326032" lon="-8.825069">
        <ele>13.6</ele>
        <time>1970-01-01T01:09:07.000Z</time>
      </trkpt>
      <trkpt lat="42.326024" lon="-8.825083">
        <ele>13.4</ele>
        <time>1970-01-01T01:09:08.000Z</time>
      </trkpt>
      <trkpt lat="42.326015" lon="-8.825096">
        <ele>13</ele>
        <time>1970-01-01T01:09:09.000Z</time>
      </trkpt>
      <trkpt lat="42.326007" lon="-8.825103">
        <ele>12.8</ele>
        <time>1970-01-01T01:09:10.000Z</time>
      </trkpt>
      <trkpt lat="42.326" lon="-8.825107">
        <ele>12.6</ele>
        <time>1970-01-01T01:09:11.000Z</time>
      </trkpt>
      <trkpt lat="42.325993" lon="-8.825116">
        <ele>12.6</ele>
        <time>1970-01-01T01:09:12.000Z</time>
      </trkpt>
      <trkpt lat="42.325986" lon="-8.825127">
        <ele>12.6</ele>
        <time>1970-01-01T01:09:13.000Z</time>
      </trkpt>
      <trkpt lat="42.325982" lon="-8.825141">
        <ele>12.4</ele>
        <time>1970-01-01T01:09:14.000Z</time>
      </trkpt>
      <trkpt lat="42.325977" lon="-8.825157">
        <ele>12.4</ele>
        <time>1970-01-01T01:09:15.000Z</time>
      </trkpt>
      <trkpt lat="42.325973" lon="-8.825169">
        <ele>12</ele>
        <time>1970-01-01T01:09:16.000Z</time>
      </trkpt>
      <trkpt lat="42.325969" lon="-8.825171">
        <ele>11.8</ele>
        <time>1970-01-01T01:09:17.000Z</time>
      </trkpt>
      <trkpt lat="42.325965" lon="-8.825177">
        <ele>11.6</ele>
        <time>1970-01-01T01:09:18.000Z</time>
      </trkpt>
      <trkpt lat="42.325958" lon="-8.825189">
        <ele>11.4</ele>
        <time>1970-01-01T01:09:19.000Z</time>
      </trkpt>
      <trkpt lat="42.325949" lon="-8.825203">
        <ele>11.4</ele>
        <time>1970-01-01T01:09:20.000Z</time>
      </trkpt>
      <trkpt lat="42.325939" lon="-8.825218">
        <ele>11.4</ele>
        <time>1970-01-01T01:09:21.000Z</time>
      </trkpt>
      <trkpt lat="42.32593" lon="-8.825232">
        <ele>11.2</ele>
        <time>1970-01-01T01:09:22.000Z</time>
      </trkpt>
      <trkpt lat="42.325919" lon="-8.825246">
        <ele>10.4</ele>
        <time>1970-01-01T01:09:23.000Z</time>
      </trkpt>
      <trkpt lat="42.325908" lon="-8.825257">
        <ele>10</ele>
        <time>1970-01-01T01:09:24.000Z</time>
      </trkpt>
      <trkpt lat="42.325898" lon="-8.825266">
        <ele>9.8</ele>
        <time>1970-01-01T01:09:25.000Z</time>
      </trkpt>
      <trkpt lat="42.325886" lon="-8.825272">
        <ele>9.4</ele>
        <time>1970-01-01T01:09:26.000Z</time>
      </trkpt>
      <trkpt lat="42.325875" lon="-8.825267">
        <ele>9.4</ele>
        <time>1970-01-01T01:09:27.000Z</time>
      </trkpt>
      <trkpt lat="42.325867" lon="-8.82526">
        <ele>9.2</ele>
        <time>1970-01-01T01:09:28.000Z</time>
      </trkpt>
      <trkpt lat="42.325859" lon="-8.825254">
        <ele>9.2</ele>
        <time>1970-01-01T01:09:29.000Z</time>
      </trkpt>
      <trkpt lat="42.325849" lon="-8.825254">
        <ele>9</ele>
        <time>1970-01-01T01:09:30.000Z</time>
      </trkpt>
      <trkpt lat="42.325839" lon="-8.825255">
        <ele>8.8</ele>
        <time>1970-01-01T01:09:31.000Z</time>
      </trkpt>
      <trkpt lat="42.325828" lon="-8.825257">
        <ele>8.6</ele>
        <time>1970-01-01T01:09:32.000Z</time>
      </trkpt>
      <trkpt lat="42.325816" lon="-8.825254">
        <ele>8.6</ele>
        <time>1970-01-01T01:09:33.000Z</time>
      </trkpt>
      <trkpt lat="42.325801" lon="-8.825255">
        <ele>8.6</ele>
        <time>1970-01-01T01:09:34.000Z</time>
      </trkpt>
      <trkpt lat="42.325784" lon="-8.825253">
        <ele>8.4</ele>
        <time>1970-01-01T01:09:35.000Z</time>
      </trkpt>
      <trkpt lat="42.325766" lon="-8.825251">
        <ele>8.4</ele>
        <time>1970-01-01T01:09:36.000Z</time>
      </trkpt>
      <trkpt lat="42.325747" lon="-8.825254">
        <ele>8.2</ele>
        <time>1970-01-01T01:09:37.000Z</time>
      </trkpt>
      <trkpt lat="42.32573" lon="-8.825257">
        <ele>7.8</ele>
        <time>1970-01-01T01:09:38.000Z</time>
      </trkpt>
      <trkpt lat="42.325716" lon="-8.82526">
        <ele>7.4</ele>
        <time>1970-01-01T01:09:39.000Z</time>
      </trkpt>
      <trkpt lat="42.325703" lon="-8.825258">
        <ele>7</ele>
        <time>1970-01-01T01:09:40.000Z</time>
      </trkpt>
      <trkpt lat="42.325692" lon="-8.825255">
        <ele>6.2</ele>
        <time>1970-01-01T01:09:41.000Z</time>
      </trkpt>
      <trkpt lat="42.325681" lon="-8.82525">
        <ele>5.6</ele>
        <time>1970-01-01T01:09:42.000Z</time>
      </trkpt>
      <trkpt lat="42.325668" lon="-8.825239">
        <ele>5.2</ele>
        <time>1970-01-01T01:09:43.000Z</time>
      </trkpt>
      <trkpt lat="42.325655" lon="-8.825231">
        <ele>5</ele>
        <time>1970-01-01T01:09:44.000Z</time>
      </trkpt>
      <trkpt lat="42.325643" lon="-8.82522">
        <ele>5</ele>
        <time>1970-01-01T01:09:45.000Z</time>
      </trkpt>
      <trkpt lat="42.325632" lon="-8.825211">
        <ele>5.2</ele>
        <time>1970-01-01T01:09:46.000Z</time>
      </trkpt>
      <trkpt lat="42.325621" lon="-8.825202">
        <ele>5.2</ele>
        <time>1970-01-01T01:09:47.000Z</time>
      </trkpt>
      <trkpt lat="42.325613" lon="-8.825191">
        <ele>5.2</ele>
        <time>1970-01-01T01:09:48.000Z</time>
      </trkpt>
      <trkpt lat="42.325603" lon="-8.825181">
        <ele>5.2</ele>
        <time>1970-01-01T01:09:49.000Z</time>
      </trkpt>
      <trkpt lat="42.325594" lon="-8.82517">
        <ele>5</ele>
        <time>1970-01-01T01:09:50.000Z</time>
      </trkpt>
      <trkpt lat="42.325583" lon="-8.825157">
        <ele>4.8</ele>
        <time>1970-01-01T01:09:51.000Z</time>
      </trkpt>
      <trkpt lat="42.325571" lon="-8.825144">
        <ele>4.4</ele>
        <time>1970-01-01T01:09:52.000Z</time>
      </trkpt>
      <trkpt lat="42.325562" lon="-8.825132">
        <ele>4.2</ele>
        <time>1970-01-01T01:09:53.000Z</time>
      </trkpt>
      <trkpt lat="42.325554" lon="-8.825117">
        <ele>4</ele>
        <time>1970-01-01T01:09:54.000Z</time>
      </trkpt>
      <trkpt lat="42.325546" lon="-8.825104">
        <ele>3.8</ele>
        <time>1970-01-01T01:09:55.000Z</time>
      </trkpt>
      <trkpt lat="42.325539" lon="-8.825095">
        <ele>3.4</ele>
        <time>1970-01-01T01:09:56.000Z</time>
      </trkpt>
      <trkpt lat="42.32553" lon="-8.825082">
        <ele>3.4</ele>
        <time>1970-01-01T01:09:57.000Z</time>
      </trkpt>
      <trkpt lat="42.325524" lon="-8.825067">
        <ele>3</ele>
        <time>1970-01-01T01:09:58.000Z</time>
      </trkpt>
      <trkpt lat="42.325519" lon="-8.825055">
        <ele>2.6</ele>
        <time>1970-01-01T01:09:59.000Z</time>
      </trkpt>
      <trkpt lat="42.325515" lon="-8.825045">
        <ele>2.4</ele>
        <time>1970-01-01T01:10:00.000Z</time>
      </trkpt>
      <trkpt lat="42.325509" lon="-8.825035">
        <ele>2.2</ele>
        <time>1970-01-01T01:10:01.000Z</time>
      </trkpt>
      <trkpt lat="42.325502" lon="-8.82503">
        <ele>2</ele>
        <time>1970-01-01T01:10:02.000Z</time>
      </trkpt>
      <trkpt lat="42.325491" lon="-8.825026">
        <ele>1.8</ele>
        <time>1970-01-01T01:10:03.000Z</time>
      </trkpt>
      <trkpt lat="42.32548" lon="-8.825022">
        <ele>1.8</ele>
        <time>1970-01-01T01:10:04.000Z</time>
      </trkpt>
      <trkpt lat="42.325463" lon="-8.825022">
        <ele>1.6</ele>
        <time>1970-01-01T01:10:05.000Z</time>
      </trkpt>
      <trkpt lat="42.325444" lon="-8.825022">
        <ele>1.4</ele>
        <time>1970-01-01T01:10:06.000Z</time>
      </trkpt>
      <trkpt lat="42.325426" lon="-8.825018">
        <ele>1.4</ele>
        <time>1970-01-01T01:10:07.000Z</time>
      </trkpt>
      <trkpt lat="42.32541" lon="-8.825012">
        <ele>1.4</ele>
        <time>1970-01-01T01:10:08.000Z</time>
      </trkpt>
      <trkpt lat="42.325396" lon="-8.82501">
        <ele>1.4</ele>
        <time>1970-01-01T01:10:09.000Z</time>
      </trkpt>
      <trkpt lat="42.325382" lon="-8.825006">
        <ele>1.2</ele>
        <time>1970-01-01T01:10:10.000Z</time>
      </trkpt>
      <trkpt lat="42.325364" lon="-8.825005">
        <ele>1</ele>
        <time>1970-01-01T01:10:11.000Z</time>
      </trkpt>
      <trkpt lat="42.325348" lon="-8.825004">
        <ele>0.6</ele>
        <time>1970-01-01T01:10:12.000Z</time>
      </trkpt>
      <trkpt lat="42.325331" lon="-8.825005">
        <ele>0.4</ele>
        <time>1970-01-01T01:10:13.000Z</time>
      </trkpt>
      <trkpt lat="42.325315" lon="-8.825003">
        <ele>-0.2</ele>
        <time>1970-01-01T01:10:14.000Z</time>
      </trkpt>
      <trkpt lat="42.325297" lon="-8.825002">
        <ele>-0.6</ele>
        <time>1970-01-01T01:10:15.000Z</time>
      </trkpt>
      <trkpt lat="42.325276" lon="-8.825001">
        <ele>-0.8</ele>
        <time>1970-01-01T01:10:16.000Z</time>
      </trkpt>
      <trkpt lat="42.325259" lon="-8.824999">
        <ele>-1</ele>
        <time>1970-01-01T01:10:17.000Z</time>
      </trkpt>
      <trkpt lat="42.325248" lon="-8.824996">
        <ele>-1</ele>
        <time>1970-01-01T01:10:18.000Z</time>
      </trkpt>
      <trkpt lat="42.325239" lon="-8.824996">
        <ele>-1</ele>
        <time>1970-01-01T01:10:19.000Z</time>
      </trkpt>
      <trkpt lat="42.325227" lon="-8.825004">
        <ele>-1.2</ele>
        <time>1970-01-01T01:10:20.000Z</time>
      </trkpt>
      <trkpt lat="42.325216" lon="-8.825015">
        <ele>-1.2</ele>
        <time>1970-01-01T01:10:21.000Z</time>
      </trkpt>
      <trkpt lat="42.325207" lon="-8.825012">
        <ele>-1.2</ele>
        <time>1970-01-01T01:10:22.000Z</time>
      </trkpt>
      <trkpt lat="42.325197" lon="-8.82501">
        <ele>-1.4</ele>
        <time>1970-01-01T01:10:23.000Z</time>
      </trkpt>
      <trkpt lat="42.325185" lon="-8.825009">
        <ele>-1.4</ele>
        <time>1970-01-01T01:10:24.000Z</time>
      </trkpt>
      <trkpt lat="42.325175" lon="-8.825002">
        <ele>-1.6</ele>
        <time>1970-01-01T01:10:25.000Z</time>
      </trkpt>
      <trkpt lat="42.325166" lon="-8.824999">
        <ele>-1.6</ele>
        <time>1970-01-01T01:10:26.000Z</time>
      </trkpt>
      <trkpt lat="42.325155" lon="-8.824999">
        <ele>-1.8</ele>
        <time>1970-01-01T01:10:27.000Z</time>
      </trkpt>
      <trkpt lat="42.325144" lon="-8.824996">
        <ele>-1.8</ele>
        <time>1970-01-01T01:10:28.000Z</time>
      </trkpt>
      <trkpt lat="42.32513" lon="-8.824989">
        <ele>-1.8</ele>
        <time>1970-01-01T01:10:29.000Z</time>
      </trkpt>
      <trkpt lat="42.325117" lon="-8.824986">
        <ele>-1.8</ele>
        <time>1970-01-01T01:10:30.000Z</time>
      </trkpt>
      <trkpt lat="42.325105" lon="-8.824986">
        <ele>-1.8</ele>
        <time>1970-01-01T01:10:31.000Z</time>
      </trkpt>
      <trkpt lat="42.325095" lon="-8.82499">
        <ele>-1.8</ele>
        <time>1970-01-01T01:10:32.000Z</time>
      </trkpt>
      <trkpt lat="42.325084" lon="-8.824994">
        <ele>-2</ele>
        <time>1970-01-01T01:10:33.000Z</time>
      </trkpt>
      <trkpt lat="42.325072" lon="-8.824996">
        <ele>-2</ele>
        <time>1970-01-01T01:10:34.000Z</time>
      </trkpt>
      <trkpt lat="42.32506" lon="-8.824997">
        <ele>-2.2</ele>
        <time>1970-01-01T01:10:35.000Z</time>
      </trkpt>
      <trkpt lat="42.325046" lon="-8.824997">
        <ele>-2</ele>
        <time>1970-01-01T01:10:36.000Z</time>
      </trkpt>
      <trkpt lat="42.325035" lon="-8.824999">
        <ele>-2</ele>
        <time>1970-01-01T01:10:37.000Z</time>
      </trkpt>
      <trkpt lat="42.325027" lon="-8.824999">
        <ele>-1.6</ele>
        <time>1970-01-01T01:10:38.000Z</time>
      </trkpt>
      <trkpt lat="42.325015" lon="-8.824994">
        <ele>-1.6</ele>
        <time>1970-01-01T01:10:39.000Z</time>
      </trkpt>
      <trkpt lat="42.325003" lon="-8.824985">
        <ele>-1.6</ele>
        <time>1970-01-01T01:10:40.000Z</time>
      </trkpt>
      <trkpt lat="42.324989" lon="-8.824974">
        <ele>-1.6</ele>
        <time>1970-01-01T01:10:41.000Z</time>
      </trkpt>
      <trkpt lat="42.324979" lon="-8.824963">
        <ele>-1.6</ele>
        <time>1970-01-01T01:10:42.000Z</time>
      </trkpt>
      <trkpt lat="42.324973" lon="-8.824955">
        <ele>-1.6</ele>
        <time>1970-01-01T01:10:43.000Z</time>
      </trkpt>
      <trkpt lat="42.324967" lon="-8.824946">
        <ele>-1.8</ele>
        <time>1970-01-01T01:10:44.000Z</time>
      </trkpt>
      <trkpt lat="42.32496" lon="-8.824935">
        <ele>-2</ele>
        <time>1970-01-01T01:10:45.000Z</time>
      </trkpt>
      <trkpt lat="42.324957" lon="-8.824928">
        <ele>-2.2</ele>
        <time>1970-01-01T01:10:46.000Z</time>
      </trkpt>
      <trkpt lat="42.324956" lon="-8.824917">
        <ele>-2</ele>
        <time>1970-01-01T01:10:47.000Z</time>
      </trkpt>
      <trkpt lat="42.324954" lon="-8.824907">
        <ele>-2</ele>
        <time>1970-01-01T01:10:48.000Z</time>
      </trkpt>
      <trkpt lat="42.324948" lon="-8.824893">
        <ele>-1.8</ele>
        <time>1970-01-01T01:10:49.000Z</time>
      </trkpt>
      <trkpt lat="42.324945" lon="-8.824879">
        <ele>-1.8</ele>
        <time>1970-01-01T01:10:50.000Z</time>
      </trkpt>
      <trkpt lat="42.324942" lon="-8.824865">
        <ele>-1.8</ele>
        <time>1970-01-01T01:10:51.000Z</time>
      </trkpt>
      <trkpt lat="42.324938" lon="-8.82485">
        <ele>-1.6</ele>
        <time>1970-01-01T01:10:52.000Z</time>
      </trkpt>
      <trkpt lat="42.324935" lon="-8.824833">
        <ele>-1.4</ele>
        <time>1970-01-01T01:10:53.000Z</time>
      </trkpt>
      <trkpt lat="42.324931" lon="-8.824817">
        <ele>-1.2</ele>
        <time>1970-01-01T01:10:54.000Z</time>
      </trkpt>
      <trkpt lat="42.324927" lon="-8.824801">
        <ele>-1.2</ele>
        <time>1970-01-01T01:10:55.000Z</time>
      </trkpt>
      <trkpt lat="42.324921" lon="-8.824783">
        <ele>-0.8</ele>
        <time>1970-01-01T01:10:56.000Z</time>
      </trkpt>
      <trkpt lat="42.324915" lon="-8.824763">
        <ele>-0.6</ele>
        <time>1970-01-01T01:10:57.000Z</time>
      </trkpt>
      <trkpt lat="42.324909" lon="-8.824748">
        <ele>-0.6</ele>
        <time>1970-01-01T01:10:58.000Z</time>
      </trkpt>
      <trkpt lat="42.3249" lon="-8.824734">
        <ele>-0.4</ele>
        <time>1970-01-01T01:10:59.000Z</time>
      </trkpt>
      <trkpt lat="42.324896" lon="-8.824721">
        <ele>-0.2</ele>
        <time>1970-01-01T01:11:00.000Z</time>
      </trkpt>
      <trkpt lat="42.324892" lon="-8.824706">
        <ele>-0.2</ele>
        <time>1970-01-01T01:11:01.000Z</time>
      </trkpt>
      <trkpt lat="42.324887" lon="-8.82469">
        <ele>-0.2</ele>
        <time>1970-01-01T01:11:02.000Z</time>
      </trkpt>
      <trkpt lat="42.32488" lon="-8.824673">
        <ele>0.2</ele>
        <time>1970-01-01T01:11:03.000Z</time>
      </trkpt>
      <trkpt lat="42.324873" lon="-8.824654">
        <ele>0.4</ele>
        <time>1970-01-01T01:11:04.000Z</time>
      </trkpt>
      <trkpt lat="42.324866" lon="-8.824646">
        <ele>0.6</ele>
        <time>1970-01-01T01:11:05.000Z</time>
      </trkpt>
      <trkpt lat="42.32486" lon="-8.824633">
        <ele>0.6</ele>
        <time>1970-01-01T01:11:06.000Z</time>
      </trkpt>
      <trkpt lat="42.324854" lon="-8.824622">
        <ele>0.6</ele>
        <time>1970-01-01T01:11:07.000Z</time>
      </trkpt>
      <trkpt lat="42.324848" lon="-8.824616">
        <ele>0.6</ele>
        <time>1970-01-01T01:11:08.000Z</time>
      </trkpt>
      <trkpt lat="42.324848" lon="-8.824603">
        <ele>0.6</ele>
        <time>1970-01-01T01:11:09.000Z</time>
      </trkpt>
      <trkpt lat="42.324851" lon="-8.824582">
        <ele>0.6</ele>
        <time>1970-01-01T01:11:10.000Z</time>
      </trkpt>
      <trkpt lat="42.324851" lon="-8.82456">
        <ele>0.6</ele>
        <time>1970-01-01T01:11:11.000Z</time>
      </trkpt>
      <trkpt lat="42.324848" lon="-8.824542">
        <ele>0.6</ele>
        <time>1970-01-01T01:11:12.000Z</time>
      </trkpt>
      <trkpt lat="42.324846" lon="-8.824524">
        <ele>0.8</ele>
        <time>1970-01-01T01:11:13.000Z</time>
      </trkpt>
      <trkpt lat="42.324847" lon="-8.824509">
        <ele>1</ele>
        <time>1970-01-01T01:11:14.000Z</time>
      </trkpt>
      <trkpt lat="42.324847" lon="-8.824498">
        <ele>1.4</ele>
        <time>1970-01-01T01:11:15.000Z</time>
      </trkpt>
      <trkpt lat="42.324847" lon="-8.824487">
        <ele>1.8</ele>
        <time>1970-01-01T01:11:16.000Z</time>
      </trkpt>
      <trkpt lat="42.324845" lon="-8.824472">
        <ele>2</ele>
        <time>1970-01-01T01:11:17.000Z</time>
      </trkpt>
      <trkpt lat="42.324842" lon="-8.824457">
        <ele>2.2</ele>
        <time>1970-01-01T01:11:18.000Z</time>
      </trkpt>
      <trkpt lat="42.324839" lon="-8.824439">
        <ele>2.2</ele>
        <time>1970-01-01T01:11:19.000Z</time>
      </trkpt>
      <trkpt lat="42.324835" lon="-8.824426">
        <ele>2.2</ele>
        <time>1970-01-01T01:11:20.000Z</time>
      </trkpt>
      <trkpt lat="42.32483" lon="-8.824409">
        <ele>2.6</ele>
        <time>1970-01-01T01:11:21.000Z</time>
      </trkpt>
      <trkpt lat="42.324825" lon="-8.824386">
        <ele>3</ele>
        <time>1970-01-01T01:11:22.000Z</time>
      </trkpt>
      <trkpt lat="42.324821" lon="-8.824373">
        <ele>3.2</ele>
        <time>1970-01-01T01:11:23.000Z</time>
      </trkpt>
      <trkpt lat="42.324817" lon="-8.824354">
        <ele>3.4</ele>
        <time>1970-01-01T01:11:24.000Z</time>
      </trkpt>
      <trkpt lat="42.324819" lon="-8.824335">
        <ele>3.6</ele>
        <time>1970-01-01T01:11:25.000Z</time>
      </trkpt>
      <trkpt lat="42.324822" lon="-8.824326">
        <ele>3.6</ele>
        <time>1970-01-01T01:11:26.000Z</time>
      </trkpt>
      <trkpt lat="42.324824" lon="-8.824313">
        <ele>4</ele>
        <time>1970-01-01T01:11:27.000Z</time>
      </trkpt>
      <trkpt lat="42.32483" lon="-8.824296">
        <ele>4.2</ele>
        <time>1970-01-01T01:11:28.000Z</time>
      </trkpt>
      <trkpt lat="42.324836" lon="-8.82429">
        <ele>4.4</ele>
        <time>1970-01-01T01:11:29.000Z</time>
      </trkpt>
      <trkpt lat="42.32484" lon="-8.824281">
        <ele>4.6</ele>
        <time>1970-01-01T01:11:30.000Z</time>
      </trkpt>
      <trkpt lat="42.324842" lon="-8.824271">
        <ele>4.6</ele>
        <time>1970-01-01T01:11:31.000Z</time>
      </trkpt>
      <trkpt lat="42.324842" lon="-8.824273">
        <ele>4.6</ele>
        <time>1970-01-01T01:11:32.000Z</time>
      </trkpt>
      <trkpt lat="42.324845" lon="-8.824267">
        <ele>4.6</ele>
        <time>1970-01-01T01:11:33.000Z</time>
      </trkpt>
      <trkpt lat="42.324849" lon="-8.824262">
        <ele>5.4</ele>
        <time>1970-01-01T01:11:34.000Z</time>
      </trkpt>
      <trkpt lat="42.324851" lon="-8.824254">
        <ele>5.8</ele>
        <time>1970-01-01T01:11:35.000Z</time>
      </trkpt>
      <trkpt lat="42.324857" lon="-8.824242">
        <ele>6</ele>
        <time>1970-01-01T01:11:36.000Z</time>
      </trkpt>
      <trkpt lat="42.324861" lon="-8.82423">
        <ele>6.4</ele>
        <time>1970-01-01T01:11:37.000Z</time>
      </trkpt>
      <trkpt lat="42.324866" lon="-8.824216">
        <ele>6.6</ele>
        <time>1970-01-01T01:11:38.000Z</time>
      </trkpt>
      <trkpt lat="42.324873" lon="-8.824197">
        <ele>6.8</ele>
        <time>1970-01-01T01:11:39.000Z</time>
      </trkpt>
      <trkpt lat="42.324877" lon="-8.824185">
        <ele>7.2</ele>
        <time>1970-01-01T01:11:40.000Z</time>
      </trkpt>
      <trkpt lat="42.324883" lon="-8.824175">
        <ele>7.6</ele>
        <time>1970-01-01T01:11:41.000Z</time>
      </trkpt>
      <trkpt lat="42.324888" lon="-8.824168">
        <ele>7.8</ele>
        <time>1970-01-01T01:11:42.000Z</time>
      </trkpt>
      <trkpt lat="42.324894" lon="-8.82417">
        <ele>8.2</ele>
        <time>1970-01-01T01:11:43.000Z</time>
      </trkpt>
      <trkpt lat="42.324904" lon="-8.824161">
        <ele>8.4</ele>
        <time>1970-01-01T01:11:44.000Z</time>
      </trkpt>
      <trkpt lat="42.32491" lon="-8.82415">
        <ele>8.8</ele>
        <time>1970-01-01T01:11:45.000Z</time>
      </trkpt>
      <trkpt lat="42.324913" lon="-8.824135">
        <ele>9.2</ele>
        <time>1970-01-01T01:11:46.000Z</time>
      </trkpt>
      <trkpt lat="42.324916" lon="-8.824121">
        <ele>9.4</ele>
        <time>1970-01-01T01:11:47.000Z</time>
      </trkpt>
      <trkpt lat="42.324915" lon="-8.824112">
        <ele>9.4</ele>
        <time>1970-01-01T01:11:48.000Z</time>
      </trkpt>
      <trkpt lat="42.324917" lon="-8.824104">
        <ele>9.6</ele>
        <time>1970-01-01T01:11:49.000Z</time>
      </trkpt>
      <trkpt lat="42.324918" lon="-8.824098">
        <ele>10</ele>
        <time>1970-01-01T01:11:50.000Z</time>
      </trkpt>
      <trkpt lat="42.324917" lon="-8.824091">
        <ele>10.2</ele>
        <time>1970-01-01T01:11:51.000Z</time>
      </trkpt>
      <trkpt lat="42.324923" lon="-8.82408">
        <ele>10.6</ele>
        <time>1970-01-01T01:11:52.000Z</time>
      </trkpt>
      <trkpt lat="42.324926" lon="-8.824073">
        <ele>10.8</ele>
        <time>1970-01-01T01:11:53.000Z</time>
      </trkpt>
      <trkpt lat="42.32493" lon="-8.824061">
        <ele>11.2</ele>
        <time>1970-01-01T01:11:54.000Z</time>
      </trkpt>
      <trkpt lat="42.324934" lon="-8.824047">
        <ele>11.4</ele>
        <time>1970-01-01T01:11:55.000Z</time>
      </trkpt>
      <trkpt lat="42.324936" lon="-8.824038">
        <ele>11.4</ele>
        <time>1970-01-01T01:11:56.000Z</time>
      </trkpt>
      <trkpt lat="42.324941" lon="-8.824017">
        <ele>11.6</ele>
        <time>1970-01-01T01:11:57.000Z</time>
      </trkpt>
      <trkpt lat="42.324948" lon="-8.824004">
        <ele>11.8</ele>
        <time>1970-01-01T01:11:58.000Z</time>
      </trkpt>
      <trkpt lat="42.324955" lon="-8.823997">
        <ele>11.8</ele>
        <time>1970-01-01T01:11:59.000Z</time>
      </trkpt>
      <trkpt lat="42.324962" lon="-8.823983">
        <ele>11.8</ele>
        <time>1970-01-01T01:12:00.000Z</time>
      </trkpt>
      <trkpt lat="42.324967" lon="-8.823978">
        <ele>12.2</ele>
        <time>1970-01-01T01:12:01.000Z</time>
      </trkpt>
      <trkpt lat="42.324972" lon="-8.823962">
        <ele>12.4</ele>
        <time>1970-01-01T01:12:02.000Z</time>
      </trkpt>
      <trkpt lat="42.324975" lon="-8.823954">
        <ele>12.8</ele>
        <time>1970-01-01T01:12:03.000Z</time>
      </trkpt>
      <trkpt lat="42.324978" lon="-8.823945">
        <ele>12.8</ele>
        <time>1970-01-01T01:12:04.000Z</time>
      </trkpt>
      <trkpt lat="42.324983" lon="-8.823931">
        <ele>13</ele>
        <time>1970-01-01T01:12:05.000Z</time>
      </trkpt>
      <trkpt lat="42.324987" lon="-8.823921">
        <ele>13</ele>
        <time>1970-01-01T01:12:06.000Z</time>
      </trkpt>
      <trkpt lat="42.324992" lon="-8.823912">
        <ele>13.4</ele>
        <time>1970-01-01T01:12:07.000Z</time>
      </trkpt>
      <trkpt lat="42.324995" lon="-8.823905">
        <ele>13.6</ele>
        <time>1970-01-01T01:12:08.000Z</time>
      </trkpt>
      <trkpt lat="42.324999" lon="-8.823896">
        <ele>14</ele>
        <time>1970-01-01T01:12:09.000Z</time>
      </trkpt>
      <trkpt lat="42.325003" lon="-8.823885">
        <ele>14.6</ele>
        <time>1970-01-01T01:12:10.000Z</time>
      </trkpt>
      <trkpt lat="42.325007" lon="-8.823881">
        <ele>14.8</ele>
        <time>1970-01-01T01:12:11.000Z</time>
      </trkpt>
      <trkpt lat="42.32501" lon="-8.823872">
        <ele>15</ele>
        <time>1970-01-01T01:12:12.000Z</time>
      </trkpt>
      <trkpt lat="42.325013" lon="-8.823863">
        <ele>15.2</ele>
        <time>1970-01-01T01:12:13.000Z</time>
      </trkpt>
      <trkpt lat="42.325019" lon="-8.823848">
        <ele>15.4</ele>
        <time>1970-01-01T01:12:14.000Z</time>
      </trkpt>
      <trkpt lat="42.325026" lon="-8.823835">
        <ele>15.8</ele>
        <time>1970-01-01T01:12:15.000Z</time>
      </trkpt>
      <trkpt lat="42.325033" lon="-8.823827">
        <ele>16.2</ele>
        <time>1970-01-01T01:12:16.000Z</time>
      </trkpt>
      <trkpt lat="42.32504" lon="-8.823815">
        <ele>16.4</ele>
        <time>1970-01-01T01:12:17.000Z</time>
      </trkpt>
      <trkpt lat="42.325048" lon="-8.823809">
        <ele>16.6</ele>
        <time>1970-01-01T01:12:18.000Z</time>
      </trkpt>
      <trkpt lat="42.325063" lon="-8.823804">
        <ele>17</ele>
        <time>1970-01-01T01:12:19.000Z</time>
      </trkpt>
      <trkpt lat="42.325073" lon="-8.823797">
        <ele>17.4</ele>
        <time>1970-01-01T01:12:20.000Z</time>
      </trkpt>
      <trkpt lat="42.325081" lon="-8.823788">
        <ele>17.6</ele>
        <time>1970-01-01T01:12:21.000Z</time>
      </trkpt>
      <trkpt lat="42.325085" lon="-8.823779">
        <ele>17.6</ele>
        <time>1970-01-01T01:12:22.000Z</time>
      </trkpt>
      <trkpt lat="42.325089" lon="-8.823769">
        <ele>18</ele>
        <time>1970-01-01T01:12:23.000Z</time>
      </trkpt>
      <trkpt lat="42.325094" lon="-8.823765">
        <ele>18.2</ele>
        <time>1970-01-01T01:12:24.000Z</time>
      </trkpt>
      <trkpt lat="42.325097" lon="-8.823763">
        <ele>18.2</ele>
        <time>1970-01-01T01:12:25.000Z</time>
      </trkpt>
      <trkpt lat="42.325102" lon="-8.82376">
        <ele>18.4</ele>
        <time>1970-01-01T01:12:26.000Z</time>
      </trkpt>
      <trkpt lat="42.325108" lon="-8.823756">
        <ele>18.4</ele>
        <time>1970-01-01T01:12:27.000Z</time>
      </trkpt>
      <trkpt lat="42.325115" lon="-8.823741">
        <ele>18.8</ele>
        <time>1970-01-01T01:12:28.000Z</time>
      </trkpt>
      <trkpt lat="42.325119" lon="-8.823728">
        <ele>18.8</ele>
        <time>1970-01-01T01:12:29.000Z</time>
      </trkpt>
      <trkpt lat="42.325121" lon="-8.823715">
        <ele>19</ele>
        <time>1970-01-01T01:12:30.000Z</time>
      </trkpt>
      <trkpt lat="42.325125" lon="-8.823707">
        <ele>19.6</ele>
        <time>1970-01-01T01:12:31.000Z</time>
      </trkpt>
      <trkpt lat="42.325128" lon="-8.823697">
        <ele>19.8</ele>
        <time>1970-01-01T01:12:32.000Z</time>
      </trkpt>
      <trkpt lat="42.325127" lon="-8.823685">
        <ele>20.2</ele>
        <time>1970-01-01T01:12:33.000Z</time>
      </trkpt>
      <trkpt lat="42.325123" lon="-8.823673">
        <ele>20.6</ele>
        <time>1970-01-01T01:12:34.000Z</time>
      </trkpt>
      <trkpt lat="42.325117" lon="-8.823664">
        <ele>20.8</ele>
        <time>1970-01-01T01:12:35.000Z</time>
      </trkpt>
      <trkpt lat="42.325109" lon="-8.823654">
        <ele>20.8</ele>
        <time>1970-01-01T01:12:36.000Z</time>
      </trkpt>
      <trkpt lat="42.325107" lon="-8.823631">
        <ele>21</ele>
        <time>1970-01-01T01:12:37.000Z</time>
      </trkpt>
      <trkpt lat="42.325104" lon="-8.823616">
        <ele>21.4</ele>
        <time>1970-01-01T01:12:38.000Z</time>
      </trkpt>
      <trkpt lat="42.325102" lon="-8.823602">
        <ele>21.4</ele>
        <time>1970-01-01T01:12:39.000Z</time>
      </trkpt>
      <trkpt lat="42.325102" lon="-8.823591">
        <ele>21.6</ele>
        <time>1970-01-01T01:12:40.000Z</time>
      </trkpt>
      <trkpt lat="42.325104" lon="-8.823578">
        <ele>21.8</ele>
        <time>1970-01-01T01:12:41.000Z</time>
      </trkpt>
      <trkpt lat="42.325105" lon="-8.823563">
        <ele>21.8</ele>
        <time>1970-01-01T01:12:42.000Z</time>
      </trkpt>
      <trkpt lat="42.325103" lon="-8.823546">
        <ele>22</ele>
        <time>1970-01-01T01:12:43.000Z</time>
      </trkpt>
      <trkpt lat="42.325102" lon="-8.823532">
        <ele>22.2</ele>
        <time>1970-01-01T01:12:44.000Z</time>
      </trkpt>
      <trkpt lat="42.325104" lon="-8.823525">
        <ele>22.6</ele>
        <time>1970-01-01T01:12:45.000Z</time>
      </trkpt>
      <trkpt lat="42.325108" lon="-8.823522">
        <ele>22.8</ele>
        <time>1970-01-01T01:12:46.000Z</time>
      </trkpt>
      <trkpt lat="42.325115" lon="-8.82352">
        <ele>23.2</ele>
        <time>1970-01-01T01:12:47.000Z</time>
      </trkpt>
      <trkpt lat="42.325123" lon="-8.823518">
        <ele>23.6</ele>
        <time>1970-01-01T01:12:48.000Z</time>
      </trkpt>
      <trkpt lat="42.325132" lon="-8.823514">
        <ele>23.8</ele>
        <time>1970-01-01T01:12:49.000Z</time>
      </trkpt>
      <trkpt lat="42.325142" lon="-8.823513">
        <ele>24</ele>
        <time>1970-01-01T01:12:50.000Z</time>
      </trkpt>
      <trkpt lat="42.325155" lon="-8.823518">
        <ele>24.4</ele>
        <time>1970-01-01T01:12:51.000Z</time>
      </trkpt>
      <trkpt lat="42.325167" lon="-8.823522">
        <ele>24.4</ele>
        <time>1970-01-01T01:12:52.000Z</time>
      </trkpt>
      <trkpt lat="42.325174" lon="-8.823517">
        <ele>24.6</ele>
        <time>1970-01-01T01:12:53.000Z</time>
      </trkpt>
      <trkpt lat="42.325178" lon="-8.823504">
        <ele>24.8</ele>
        <time>1970-01-01T01:12:54.000Z</time>
      </trkpt>
      <trkpt lat="42.325179" lon="-8.823485">
        <ele>25</ele>
        <time>1970-01-01T01:12:55.000Z</time>
      </trkpt>
      <trkpt lat="42.325178" lon="-8.823458">
        <ele>25.2</ele>
        <time>1970-01-01T01:12:56.000Z</time>
      </trkpt>
      <trkpt lat="42.32517" lon="-8.823435">
        <ele>25.4</ele>
        <time>1970-01-01T01:12:57.000Z</time>
      </trkpt>
      <trkpt lat="42.32517" lon="-8.823417">
        <ele>25.6</ele>
        <time>1970-01-01T01:12:58.000Z</time>
      </trkpt>
      <trkpt lat="42.325169" lon="-8.823408">
        <ele>25.6</ele>
        <time>1970-01-01T01:12:59.000Z</time>
      </trkpt>
      <trkpt lat="42.325169" lon="-8.823394">
        <ele>25.6</ele>
        <time>1970-01-01T01:13:00.000Z</time>
      </trkpt>
      <trkpt lat="42.32517" lon="-8.823386">
        <ele>25.8</ele>
        <time>1970-01-01T01:13:01.000Z</time>
      </trkpt>
      <trkpt lat="42.325173" lon="-8.823368">
        <ele>26</ele>
        <time>1970-01-01T01:13:02.000Z</time>
      </trkpt>
      <trkpt lat="42.325171" lon="-8.823351">
        <ele>26.2</ele>
        <time>1970-01-01T01:13:03.000Z</time>
      </trkpt>
      <trkpt lat="42.32517" lon="-8.823325">
        <ele>26.4</ele>
        <time>1970-01-01T01:13:04.000Z</time>
      </trkpt>
      <trkpt lat="42.325171" lon="-8.823302">
        <ele>26.8</ele>
        <time>1970-01-01T01:13:05.000Z</time>
      </trkpt>
      <trkpt lat="42.325172" lon="-8.823279">
        <ele>27</ele>
        <time>1970-01-01T01:13:06.000Z</time>
      </trkpt>
      <trkpt lat="42.325169" lon="-8.823257">
        <ele>27.2</ele>
        <time>1970-01-01T01:13:07.000Z</time>
      </trkpt>
      <trkpt lat="42.325165" lon="-8.82324">
        <ele>27.4</ele>
        <time>1970-01-01T01:13:08.000Z</time>
      </trkpt>
      <trkpt lat="42.325158" lon="-8.823229">
        <ele>27.4</ele>
        <time>1970-01-01T01:13:09.000Z</time>
      </trkpt>
      <trkpt lat="42.325152" lon="-8.82322">
        <ele>27.6</ele>
        <time>1970-01-01T01:13:10.000Z</time>
      </trkpt>
      <trkpt lat="42.325142" lon="-8.823215">
        <ele>27.6</ele>
        <time>1970-01-01T01:13:11.000Z</time>
      </trkpt>
      <trkpt lat="42.325137" lon="-8.823199">
        <ele>27.8</ele>
        <time>1970-01-01T01:13:12.000Z</time>
      </trkpt>
      <trkpt lat="42.32513" lon="-8.823185">
        <ele>27.8</ele>
        <time>1970-01-01T01:13:13.000Z</time>
      </trkpt>
      <trkpt lat="42.325124" lon="-8.823166">
        <ele>28</ele>
        <time>1970-01-01T01:13:14.000Z</time>
      </trkpt>
      <trkpt lat="42.325119" lon="-8.823154">
        <ele>28.4</ele>
        <time>1970-01-01T01:13:15.000Z</time>
      </trkpt>
      <trkpt lat="42.325116" lon="-8.823137">
        <ele>28.8</ele>
        <time>1970-01-01T01:13:16.000Z</time>
      </trkpt>
      <trkpt lat="42.325112" lon="-8.823128">
        <ele>29</ele>
        <time>1970-01-01T01:13:17.000Z</time>
      </trkpt>
      <trkpt lat="42.325108" lon="-8.823114">
        <ele>29.2</ele>
        <time>1970-01-01T01:13:18.000Z</time>
      </trkpt>
      <trkpt lat="42.325104" lon="-8.823097">
        <ele>29.4</ele>
        <time>1970-01-01T01:13:19.000Z</time>
      </trkpt>
      <trkpt lat="42.325102" lon="-8.823079">
        <ele>29.6</ele>
        <time>1970-01-01T01:13:20.000Z</time>
      </trkpt>
      <trkpt lat="42.325102" lon="-8.823064">
        <ele>29.8</ele>
        <time>1970-01-01T01:13:21.000Z</time>
      </trkpt>
      <trkpt lat="42.3251" lon="-8.823045">
        <ele>30</ele>
        <time>1970-01-01T01:13:22.000Z</time>
      </trkpt>
      <trkpt lat="42.325103" lon="-8.823029">
        <ele>30</ele>
        <time>1970-01-01T01:13:23.000Z</time>
      </trkpt>
      <trkpt lat="42.325105" lon="-8.823016">
        <ele>30.2</ele>
        <time>1970-01-01T01:13:24.000Z</time>
      </trkpt>
      <trkpt lat="42.325104" lon="-8.823002">
        <ele>30.2</ele>
        <time>1970-01-01T01:13:25.000Z</time>
      </trkpt>
      <trkpt lat="42.3251" lon="-8.822984">
        <ele>30.2</ele>
        <time>1970-01-01T01:13:26.000Z</time>
      </trkpt>
      <trkpt lat="42.325097" lon="-8.822963">
        <ele>30.2</ele>
        <time>1970-01-01T01:13:27.000Z</time>
      </trkpt>
      <trkpt lat="42.325092" lon="-8.822942">
        <ele>30.2</ele>
        <time>1970-01-01T01:13:28.000Z</time>
      </trkpt>
      <trkpt lat="42.325094" lon="-8.822926">
        <ele>30.2</ele>
        <time>1970-01-01T01:13:29.000Z</time>
      </trkpt>
      <trkpt lat="42.325098" lon="-8.822916">
        <ele>30.2</ele>
        <time>1970-01-01T01:13:30.000Z</time>
      </trkpt>
      <trkpt lat="42.325103" lon="-8.8229">
        <ele>30.2</ele>
        <time>1970-01-01T01:13:31.000Z</time>
      </trkpt>
      <trkpt lat="42.325105" lon="-8.822884">
        <ele>30.8</ele>
        <time>1970-01-01T01:13:32.000Z</time>
      </trkpt>
      <trkpt lat="42.325106" lon="-8.822866">
        <ele>30.8</ele>
        <time>1970-01-01T01:13:33.000Z</time>
      </trkpt>
      <trkpt lat="42.325108" lon="-8.822851">
        <ele>31</ele>
        <time>1970-01-01T01:13:34.000Z</time>
      </trkpt>
      <trkpt lat="42.32511" lon="-8.822838">
        <ele>31.2</ele>
        <time>1970-01-01T01:13:35.000Z</time>
      </trkpt>
      <trkpt lat="42.325113" lon="-8.82282">
        <ele>31.4</ele>
        <time>1970-01-01T01:13:36.000Z</time>
      </trkpt>
      <trkpt lat="42.325115" lon="-8.822809">
        <ele>31.4</ele>
        <time>1970-01-01T01:13:37.000Z</time>
      </trkpt>
      <trkpt lat="42.325118" lon="-8.822796">
        <ele>31.4</ele>
        <time>1970-01-01T01:13:38.000Z</time>
      </trkpt>
      <trkpt lat="42.325117" lon="-8.822783">
        <ele>31.4</ele>
        <time>1970-01-01T01:13:39.000Z</time>
      </trkpt>
      <trkpt lat="42.325116" lon="-8.822763">
        <ele>31.6</ele>
        <time>1970-01-01T01:13:40.000Z</time>
      </trkpt>
      <trkpt lat="42.325112" lon="-8.822745">
        <ele>31.6</ele>
        <time>1970-01-01T01:13:41.000Z</time>
      </trkpt>
      <trkpt lat="42.325109" lon="-8.822721">
        <ele>31.6</ele>
        <time>1970-01-01T01:13:42.000Z</time>
      </trkpt>
      <trkpt lat="42.325108" lon="-8.822699">
        <ele>31.6</ele>
        <time>1970-01-01T01:13:43.000Z</time>
      </trkpt>
      <trkpt lat="42.325107" lon="-8.822677">
        <ele>31.8</ele>
        <time>1970-01-01T01:13:44.000Z</time>
      </trkpt>
      <trkpt lat="42.325106" lon="-8.822658">
        <ele>31.8</ele>
        <time>1970-01-01T01:13:45.000Z</time>
      </trkpt>
      <trkpt lat="42.325102" lon="-8.82264">
        <ele>32</ele>
        <time>1970-01-01T01:13:46.000Z</time>
      </trkpt>
      <trkpt lat="42.325096" lon="-8.822623">
        <ele>32.2</ele>
        <time>1970-01-01T01:13:47.000Z</time>
      </trkpt>
      <trkpt lat="42.325088" lon="-8.822602">
        <ele>32.4</ele>
        <time>1970-01-01T01:13:48.000Z</time>
      </trkpt>
      <trkpt lat="42.325078" lon="-8.82258">
        <ele>32.6</ele>
        <time>1970-01-01T01:13:49.000Z</time>
      </trkpt>
      <trkpt lat="42.32507" lon="-8.822564">
        <ele>32.8</ele>
        <time>1970-01-01T01:13:50.000Z</time>
      </trkpt>
      <trkpt lat="42.325062" lon="-8.822549">
        <ele>33</ele>
        <time>1970-01-01T01:13:51.000Z</time>
      </trkpt>
      <trkpt lat="42.325054" lon="-8.822535">
        <ele>33</ele>
        <time>1970-01-01T01:13:52.000Z</time>
      </trkpt>
      <trkpt lat="42.325046" lon="-8.822527">
        <ele>33</ele>
        <time>1970-01-01T01:13:53.000Z</time>
      </trkpt>
      <trkpt lat="42.325035" lon="-8.822516">
        <ele>33.2</ele>
        <time>1970-01-01T01:13:54.000Z</time>
      </trkpt>
      <trkpt lat="42.325024" lon="-8.822505">
        <ele>33.2</ele>
        <time>1970-01-01T01:13:55.000Z</time>
      </trkpt>
      <trkpt lat="42.325015" lon="-8.822493">
        <ele>33.2</ele>
        <time>1970-01-01T01:13:56.000Z</time>
      </trkpt>
      <trkpt lat="42.325006" lon="-8.822482">
        <ele>33.2</ele>
        <time>1970-01-01T01:13:57.000Z</time>
      </trkpt>
      <trkpt lat="42.324996" lon="-8.822467">
        <ele>33.4</ele>
        <time>1970-01-01T01:13:58.000Z</time>
      </trkpt>
      <trkpt lat="42.324985" lon="-8.822452">
        <ele>33.4</ele>
        <time>1970-01-01T01:13:59.000Z</time>
      </trkpt>
      <trkpt lat="42.324977" lon="-8.822439">
        <ele>33.4</ele>
        <time>1970-01-01T01:14:00.000Z</time>
      </trkpt>
      <trkpt lat="42.324968" lon="-8.822428">
        <ele>33.6</ele>
        <time>1970-01-01T01:14:01.000Z</time>
      </trkpt>
      <trkpt lat="42.324957" lon="-8.822415">
        <ele>33.6</ele>
        <time>1970-01-01T01:14:02.000Z</time>
      </trkpt>
      <trkpt lat="42.324945" lon="-8.822402">
        <ele>33.8</ele>
        <time>1970-01-01T01:14:03.000Z</time>
      </trkpt>
      <trkpt lat="42.32493" lon="-8.822388">
        <ele>34</ele>
        <time>1970-01-01T01:14:04.000Z</time>
      </trkpt>
      <trkpt lat="42.324918" lon="-8.822379">
        <ele>34</ele>
        <time>1970-01-01T01:14:05.000Z</time>
      </trkpt>
      <trkpt lat="42.324904" lon="-8.82237">
        <ele>34.2</ele>
        <time>1970-01-01T01:14:06.000Z</time>
      </trkpt>
      <trkpt lat="42.324889" lon="-8.822365">
        <ele>34.2</ele>
        <time>1970-01-01T01:14:07.000Z</time>
      </trkpt>
      <trkpt lat="42.324875" lon="-8.822355">
        <ele>34.4</ele>
        <time>1970-01-01T01:14:08.000Z</time>
      </trkpt>
      <trkpt lat="42.32486" lon="-8.822346">
        <ele>34.6</ele>
        <time>1970-01-01T01:14:09.000Z</time>
      </trkpt>
      <trkpt lat="42.324845" lon="-8.822339">
        <ele>34.6</ele>
        <time>1970-01-01T01:14:10.000Z</time>
      </trkpt>
      <trkpt lat="42.324833" lon="-8.82233">
        <ele>34.6</ele>
        <time>1970-01-01T01:14:11.000Z</time>
      </trkpt>
      <trkpt lat="42.324824" lon="-8.822314">
        <ele>34.8</ele>
        <time>1970-01-01T01:14:12.000Z</time>
      </trkpt>
      <trkpt lat="42.324815" lon="-8.8223">
        <ele>34.8</ele>
        <time>1970-01-01T01:14:13.000Z</time>
      </trkpt>
      <trkpt lat="42.324806" lon="-8.82229">
        <ele>34.8</ele>
        <time>1970-01-01T01:14:14.000Z</time>
      </trkpt>
      <trkpt lat="42.324798" lon="-8.822279">
        <ele>35</ele>
        <time>1970-01-01T01:14:15.000Z</time>
      </trkpt>
      <trkpt lat="42.324792" lon="-8.822266">
        <ele>35.2</ele>
        <time>1970-01-01T01:14:16.000Z</time>
      </trkpt>
      <trkpt lat="42.324786" lon="-8.82225">
        <ele>35.4</ele>
        <time>1970-01-01T01:14:17.000Z</time>
      </trkpt>
      <trkpt lat="42.324783" lon="-8.822236">
        <ele>35.8</ele>
        <time>1970-01-01T01:14:18.000Z</time>
      </trkpt>
      <trkpt lat="42.324782" lon="-8.822212">
        <ele>36</ele>
        <time>1970-01-01T01:14:19.000Z</time>
      </trkpt>
      <trkpt lat="42.324779" lon="-8.822188">
        <ele>36.2</ele>
        <time>1970-01-01T01:14:20.000Z</time>
      </trkpt>
      <trkpt lat="42.324775" lon="-8.822164">
        <ele>36.2</ele>
        <time>1970-01-01T01:14:21.000Z</time>
      </trkpt>
      <trkpt lat="42.324772" lon="-8.822143">
        <ele>36.2</ele>
        <time>1970-01-01T01:14:22.000Z</time>
      </trkpt>
      <trkpt lat="42.324769" lon="-8.82213">
        <ele>36.2</ele>
        <time>1970-01-01T01:14:23.000Z</time>
      </trkpt>
      <trkpt lat="42.324761" lon="-8.82212">
        <ele>36.2</ele>
        <time>1970-01-01T01:14:24.000Z</time>
      </trkpt>
      <trkpt lat="42.324755" lon="-8.822103">
        <ele>36.2</ele>
        <time>1970-01-01T01:14:25.000Z</time>
      </trkpt>
      <trkpt lat="42.324749" lon="-8.822085">
        <ele>36.2</ele>
        <time>1970-01-01T01:14:26.000Z</time>
      </trkpt>
      <trkpt lat="42.324745" lon="-8.822063">
        <ele>36</ele>
        <time>1970-01-01T01:14:27.000Z</time>
      </trkpt>
      <trkpt lat="42.32474" lon="-8.822045">
        <ele>36.2</ele>
        <time>1970-01-01T01:14:28.000Z</time>
      </trkpt>
      <trkpt lat="42.324735" lon="-8.822034">
        <ele>36.2</ele>
        <time>1970-01-01T01:14:29.000Z</time>
      </trkpt>
      <trkpt lat="42.324729" lon="-8.822021">
        <ele>36.2</ele>
        <time>1970-01-01T01:14:30.000Z</time>
      </trkpt>
      <trkpt lat="42.324722" lon="-8.822007">
        <ele>36.2</ele>
        <time>1970-01-01T01:14:31.000Z</time>
      </trkpt>
      <trkpt lat="42.324714" lon="-8.82199">
        <ele>36.4</ele>
        <time>1970-01-01T01:14:32.000Z</time>
      </trkpt>
      <trkpt lat="42.324705" lon="-8.821976">
        <ele>36.4</ele>
        <time>1970-01-01T01:14:33.000Z</time>
      </trkpt>
      <trkpt lat="42.324696" lon="-8.821961">
        <ele>36.4</ele>
        <time>1970-01-01T01:14:34.000Z</time>
      </trkpt>
      <trkpt lat="42.324687" lon="-8.821946">
        <ele>36.4</ele>
        <time>1970-01-01T01:14:35.000Z</time>
      </trkpt>
      <trkpt lat="42.324678" lon="-8.821929">
        <ele>36.4</ele>
        <time>1970-01-01T01:14:36.000Z</time>
      </trkpt>
      <trkpt lat="42.324666" lon="-8.821913">
        <ele>36.4</ele>
        <time>1970-01-01T01:14:37.000Z</time>
      </trkpt>
      <trkpt lat="42.324658" lon="-8.821899">
        <ele>36.4</ele>
        <time>1970-01-01T01:14:38.000Z</time>
      </trkpt>
      <trkpt lat="42.324652" lon="-8.821887">
        <ele>36.4</ele>
        <time>1970-01-01T01:14:39.000Z</time>
      </trkpt>
      <trkpt lat="42.324648" lon="-8.821875">
        <ele>36.6</ele>
        <time>1970-01-01T01:14:40.000Z</time>
      </trkpt>
      <trkpt lat="42.324645" lon="-8.821861">
        <ele>36.6</ele>
        <time>1970-01-01T01:14:41.000Z</time>
      </trkpt>
      <trkpt lat="42.324643" lon="-8.82185">
        <ele>36.6</ele>
        <time>1970-01-01T01:14:42.000Z</time>
      </trkpt>
      <trkpt lat="42.324641" lon="-8.821838">
        <ele>36.8</ele>
        <time>1970-01-01T01:14:43.000Z</time>
      </trkpt>
      <trkpt lat="42.324637" lon="-8.821824">
        <ele>37</ele>
        <time>1970-01-01T01:14:44.000Z</time>
      </trkpt>
      <trkpt lat="42.324635" lon="-8.82181">
        <ele>37</ele>
        <time>1970-01-01T01:14:45.000Z</time>
      </trkpt>
      <trkpt lat="42.324633" lon="-8.821794">
        <ele>37.2</ele>
        <time>1970-01-01T01:14:46.000Z</time>
      </trkpt>
      <trkpt lat="42.324629" lon="-8.821775">
        <ele>37.2</ele>
        <time>1970-01-01T01:14:47.000Z</time>
      </trkpt>
      <trkpt lat="42.324626" lon="-8.821749">
        <ele>37.2</ele>
        <time>1970-01-01T01:14:48.000Z</time>
      </trkpt>
      <trkpt lat="42.324622" lon="-8.821722">
        <ele>37.2</ele>
        <time>1970-01-01T01:14:49.000Z</time>
      </trkpt>
      <trkpt lat="42.324617" lon="-8.821703">
        <ele>37.2</ele>
        <time>1970-01-01T01:14:50.000Z</time>
      </trkpt>
      <trkpt lat="42.324611" lon="-8.821682">
        <ele>37.2</ele>
        <time>1970-01-01T01:14:51.000Z</time>
      </trkpt>
      <trkpt lat="42.324605" lon="-8.821661">
        <ele>37.4</ele>
        <time>1970-01-01T01:14:52.000Z</time>
      </trkpt>
      <trkpt lat="42.324598" lon="-8.82164">
        <ele>37.6</ele>
        <time>1970-01-01T01:14:53.000Z</time>
      </trkpt>
      <trkpt lat="42.32459" lon="-8.821621">
        <ele>37.6</ele>
        <time>1970-01-01T01:14:54.000Z</time>
      </trkpt>
      <trkpt lat="42.324582" lon="-8.821597">
        <ele>37.8</ele>
        <time>1970-01-01T01:14:55.000Z</time>
      </trkpt>
      <trkpt lat="42.324572" lon="-8.82158">
        <ele>37.8</ele>
        <time>1970-01-01T01:14:56.000Z</time>
      </trkpt>
      <trkpt lat="42.324562" lon="-8.821562">
        <ele>38</ele>
        <time>1970-01-01T01:14:57.000Z</time>
      </trkpt>
      <trkpt lat="42.324555" lon="-8.82154">
        <ele>38</ele>
        <time>1970-01-01T01:14:58.000Z</time>
      </trkpt>
      <trkpt lat="42.324547" lon="-8.821522">
        <ele>38.2</ele>
        <time>1970-01-01T01:14:59.000Z</time>
      </trkpt>
      <trkpt lat="42.324536" lon="-8.821502">
        <ele>38.4</ele>
        <time>1970-01-01T01:15:00.000Z</time>
      </trkpt>
      <trkpt lat="42.324527" lon="-8.821489">
        <ele>38.6</ele>
        <time>1970-01-01T01:15:01.000Z</time>
      </trkpt>
      <trkpt lat="42.324519" lon="-8.821479">
        <ele>38.6</ele>
        <time>1970-01-01T01:15:02.000Z</time>
      </trkpt>
      <trkpt lat="42.324513" lon="-8.82147">
        <ele>38.8</ele>
        <time>1970-01-01T01:15:03.000Z</time>
      </trkpt>
      <trkpt lat="42.324506" lon="-8.821462">
        <ele>38.8</ele>
        <time>1970-01-01T01:15:04.000Z</time>
      </trkpt>
      <trkpt lat="42.324503" lon="-8.821454">
        <ele>39.2</ele>
        <time>1970-01-01T01:15:05.000Z</time>
      </trkpt>
      <trkpt lat="42.324499" lon="-8.821448">
        <ele>39.4</ele>
        <time>1970-01-01T01:15:06.000Z</time>
      </trkpt>
      <trkpt lat="42.324498" lon="-8.821441">
        <ele>39.6</ele>
        <time>1970-01-01T01:15:07.000Z</time>
      </trkpt>
      <trkpt lat="42.324497" lon="-8.821434">
        <ele>39.8</ele>
        <time>1970-01-01T01:15:08.000Z</time>
      </trkpt>
      <trkpt lat="42.324496" lon="-8.821425">
        <ele>40</ele>
        <time>1970-01-01T01:15:09.000Z</time>
      </trkpt>
      <trkpt lat="42.324499" lon="-8.821408">
        <ele>40</ele>
        <time>1970-01-01T01:15:10.000Z</time>
      </trkpt>
      <trkpt lat="42.324504" lon="-8.821397">
        <ele>40.2</ele>
        <time>1970-01-01T01:15:11.000Z</time>
      </trkpt>
      <trkpt lat="42.324511" lon="-8.82139">
        <ele>40.4</ele>
        <time>1970-01-01T01:15:12.000Z</time>
      </trkpt>
      <trkpt lat="42.32452" lon="-8.821387">
        <ele>40.6</ele>
        <time>1970-01-01T01:15:13.000Z</time>
      </trkpt>
      <trkpt lat="42.324527" lon="-8.821382">
        <ele>41</ele>
        <time>1970-01-01T01:15:14.000Z</time>
      </trkpt>
      <trkpt lat="42.324534" lon="-8.821378">
        <ele>41.2</ele>
        <time>1970-01-01T01:15:15.000Z</time>
      </trkpt>
      <trkpt lat="42.324541" lon="-8.821375">
        <ele>41.4</ele>
        <time>1970-01-01T01:15:16.000Z</time>
      </trkpt>
      <trkpt lat="42.324551" lon="-8.82137">
        <ele>41.6</ele>
        <time>1970-01-01T01:15:17.000Z</time>
      </trkpt>
      <trkpt lat="42.324562" lon="-8.821364">
        <ele>41.8</ele>
        <time>1970-01-01T01:15:18.000Z</time>
      </trkpt>
      <trkpt lat="42.324573" lon="-8.821359">
        <ele>41.8</ele>
        <time>1970-01-01T01:15:19.000Z</time>
      </trkpt>
      <trkpt lat="42.324586" lon="-8.821353">
        <ele>42</ele>
        <time>1970-01-01T01:15:20.000Z</time>
      </trkpt>
      <trkpt lat="42.324598" lon="-8.821346">
        <ele>42.2</ele>
        <time>1970-01-01T01:15:21.000Z</time>
      </trkpt>
      <trkpt lat="42.324611" lon="-8.821338">
        <ele>42.2</ele>
        <time>1970-01-01T01:15:22.000Z</time>
      </trkpt>
      <trkpt lat="42.324625" lon="-8.821332">
        <ele>42.4</ele>
        <time>1970-01-01T01:15:23.000Z</time>
      </trkpt>
      <trkpt lat="42.324638" lon="-8.821326">
        <ele>42.4</ele>
        <time>1970-01-01T01:15:24.000Z</time>
      </trkpt>
      <trkpt lat="42.324651" lon="-8.821319">
        <ele>42.4</ele>
        <time>1970-01-01T01:15:25.000Z</time>
      </trkpt>
      <trkpt lat="42.324662" lon="-8.821315">
        <ele>42.6</ele>
        <time>1970-01-01T01:15:26.000Z</time>
      </trkpt>
      <trkpt lat="42.324676" lon="-8.821315">
        <ele>42.8</ele>
        <time>1970-01-01T01:15:27.000Z</time>
      </trkpt>
      <trkpt lat="42.324686" lon="-8.821314">
        <ele>42.8</ele>
        <time>1970-01-01T01:15:28.000Z</time>
      </trkpt>
      <trkpt lat="42.324697" lon="-8.821312">
        <ele>43.2</ele>
        <time>1970-01-01T01:15:29.000Z</time>
      </trkpt>
      <trkpt lat="42.324709" lon="-8.821306">
        <ele>43.2</ele>
        <time>1970-01-01T01:15:30.000Z</time>
      </trkpt>
      <trkpt lat="42.324723" lon="-8.821299">
        <ele>43.2</ele>
        <time>1970-01-01T01:15:31.000Z</time>
      </trkpt>
      <trkpt lat="42.324731" lon="-8.82129">
        <ele>43.2</ele>
        <time>1970-01-01T01:15:32.000Z</time>
      </trkpt>
      <trkpt lat="42.324741" lon="-8.821286">
        <ele>42.8</ele>
        <time>1970-01-01T01:15:33.000Z</time>
      </trkpt>
      <trkpt lat="42.324751" lon="-8.821285">
        <ele>42.8</ele>
        <time>1970-01-01T01:15:34.000Z</time>
      </trkpt>
      <trkpt lat="42.324759" lon="-8.821281">
        <ele>42.8</ele>
        <time>1970-01-01T01:15:35.000Z</time>
      </trkpt>
      <trkpt lat="42.32477" lon="-8.821278">
        <ele>42.8</ele>
        <time>1970-01-01T01:15:36.000Z</time>
      </trkpt>
      <trkpt lat="42.324787" lon="-8.821274">
        <ele>42.8</ele>
        <time>1970-01-01T01:15:37.000Z</time>
      </trkpt>
      <trkpt lat="42.324799" lon="-8.82127">
        <ele>42.8</ele>
        <time>1970-01-01T01:15:38.000Z</time>
      </trkpt>
      <trkpt lat="42.324811" lon="-8.821267">
        <ele>43</ele>
        <time>1970-01-01T01:15:39.000Z</time>
      </trkpt>
      <trkpt lat="42.324824" lon="-8.821266">
        <ele>43.2</ele>
        <time>1970-01-01T01:15:40.000Z</time>
      </trkpt>
      <trkpt lat="42.324838" lon="-8.821266">
        <ele>43.4</ele>
        <time>1970-01-01T01:15:41.000Z</time>
      </trkpt>
      <trkpt lat="42.324853" lon="-8.821266">
        <ele>43.6</ele>
        <time>1970-01-01T01:15:42.000Z</time>
      </trkpt>
      <trkpt lat="42.324868" lon="-8.821264">
        <ele>43.6</ele>
        <time>1970-01-01T01:15:43.000Z</time>
      </trkpt>
      <trkpt lat="42.324881" lon="-8.821264">
        <ele>43.8</ele>
        <time>1970-01-01T01:15:44.000Z</time>
      </trkpt>
      <trkpt lat="42.324896" lon="-8.821269">
        <ele>43.8</ele>
        <time>1970-01-01T01:15:45.000Z</time>
      </trkpt>
      <trkpt lat="42.324908" lon="-8.82127">
        <ele>44</ele>
        <time>1970-01-01T01:15:46.000Z</time>
      </trkpt>
      <trkpt lat="42.324922" lon="-8.821274">
        <ele>44</ele>
        <time>1970-01-01T01:15:47.000Z</time>
      </trkpt>
      <trkpt lat="42.324933" lon="-8.821276">
        <ele>44</ele>
        <time>1970-01-01T01:15:48.000Z</time>
      </trkpt>
      <trkpt lat="42.324947" lon="-8.821278">
        <ele>44</ele>
        <time>1970-01-01T01:15:49.000Z</time>
      </trkpt>
      <trkpt lat="42.324961" lon="-8.821283">
        <ele>44</ele>
        <time>1970-01-01T01:15:50.000Z</time>
      </trkpt>
      <trkpt lat="42.324976" lon="-8.821285">
        <ele>44.2</ele>
        <time>1970-01-01T01:15:51.000Z</time>
      </trkpt>
      <trkpt lat="42.32499" lon="-8.821284">
        <ele>44.2</ele>
        <time>1970-01-01T01:15:52.000Z</time>
      </trkpt>
      <trkpt lat="42.324999" lon="-8.821274">
        <ele>44.2</ele>
        <time>1970-01-01T01:15:53.000Z</time>
      </trkpt>
      <trkpt lat="42.325003" lon="-8.821261">
        <ele>44.6</ele>
        <time>1970-01-01T01:15:54.000Z</time>
      </trkpt>
      <trkpt lat="42.325009" lon="-8.821249">
        <ele>44.8</ele>
        <time>1970-01-01T01:15:55.000Z</time>
      </trkpt>
      <trkpt lat="42.325019" lon="-8.821242">
        <ele>44.8</ele>
        <time>1970-01-01T01:15:56.000Z</time>
      </trkpt>
      <trkpt lat="42.325024" lon="-8.821236">
        <ele>44.8</ele>
        <time>1970-01-01T01:15:57.000Z</time>
      </trkpt>
      <trkpt lat="42.325035" lon="-8.821228">
        <ele>45</ele>
        <time>1970-01-01T01:15:58.000Z</time>
      </trkpt>
      <trkpt lat="42.325043" lon="-8.821222">
        <ele>45.4</ele>
        <time>1970-01-01T01:15:59.000Z</time>
      </trkpt>
      <trkpt lat="42.325048" lon="-8.821216">
        <ele>45.6</ele>
        <time>1970-01-01T01:16:00.000Z</time>
      </trkpt>
      <trkpt lat="42.325051" lon="-8.821213">
        <ele>46</ele>
        <time>1970-01-01T01:16:01.000Z</time>
      </trkpt>
      <trkpt lat="42.325052" lon="-8.821213">
        <ele>46.4</ele>
        <time>1970-01-01T01:16:02.000Z</time>
      </trkpt>
      <trkpt lat="42.325056" lon="-8.821211">
        <ele>46.6</ele>
        <time>1970-01-01T01:16:03.000Z</time>
      </trkpt>
      <trkpt lat="42.325061" lon="-8.821206">
        <ele>46.8</ele>
        <time>1970-01-01T01:16:04.000Z</time>
      </trkpt>
      <trkpt lat="42.325066" lon="-8.821199">
        <ele>47</ele>
        <time>1970-01-01T01:16:05.000Z</time>
      </trkpt>
      <trkpt lat="42.325071" lon="-8.82119">
        <ele>47.2</ele>
        <time>1970-01-01T01:16:06.000Z</time>
      </trkpt>
      <trkpt lat="42.325077" lon="-8.821179">
        <ele>47.4</ele>
        <time>1970-01-01T01:16:07.000Z</time>
      </trkpt>
      <trkpt lat="42.325083" lon="-8.821164">
        <ele>47.8</ele>
        <time>1970-01-01T01:16:08.000Z</time>
      </trkpt>
      <trkpt lat="42.325087" lon="-8.82115">
        <ele>48</ele>
        <time>1970-01-01T01:16:09.000Z</time>
      </trkpt>
      <trkpt lat="42.325087" lon="-8.821136">
        <ele>48.2</ele>
        <time>1970-01-01T01:16:10.000Z</time>
      </trkpt>
      <trkpt lat="42.32509" lon="-8.821121">
        <ele>48.6</ele>
        <time>1970-01-01T01:16:11.000Z</time>
      </trkpt>
      <trkpt lat="42.325094" lon="-8.821109">
        <ele>49</ele>
        <time>1970-01-01T01:16:12.000Z</time>
      </trkpt>
      <trkpt lat="42.3251" lon="-8.821094">
        <ele>49.2</ele>
        <time>1970-01-01T01:16:13.000Z</time>
      </trkpt>
      <trkpt lat="42.325103" lon="-8.821074">
        <ele>49.6</ele>
        <time>1970-01-01T01:16:14.000Z</time>
      </trkpt>
      <trkpt lat="42.325107" lon="-8.821052">
        <ele>50</ele>
        <time>1970-01-01T01:16:15.000Z</time>
      </trkpt>
      <trkpt lat="42.325113" lon="-8.821038">
        <ele>50</ele>
        <time>1970-01-01T01:16:16.000Z</time>
      </trkpt>
      <trkpt lat="42.325118" lon="-8.821029">
        <ele>50.2</ele>
        <time>1970-01-01T01:16:17.000Z</time>
      </trkpt>
      <trkpt lat="42.325123" lon="-8.821012">
        <ele>50.4</ele>
        <time>1970-01-01T01:16:18.000Z</time>
      </trkpt>
      <trkpt lat="42.325127" lon="-8.821001">
        <ele>50.4</ele>
        <time>1970-01-01T01:16:19.000Z</time>
      </trkpt>
      <trkpt lat="42.32513" lon="-8.820984">
        <ele>50.8</ele>
        <time>1970-01-01T01:16:20.000Z</time>
      </trkpt>
      <trkpt lat="42.325133" lon="-8.820969">
        <ele>51.2</ele>
        <time>1970-01-01T01:16:21.000Z</time>
      </trkpt>
      <trkpt lat="42.325133" lon="-8.820957">
        <ele>51.2</ele>
        <time>1970-01-01T01:16:22.000Z</time>
      </trkpt>
      <trkpt lat="42.325132" lon="-8.820948">
        <ele>51.4</ele>
        <time>1970-01-01T01:16:23.000Z</time>
      </trkpt>
      <trkpt lat="42.325132" lon="-8.820932">
        <ele>52.2</ele>
        <time>1970-01-01T01:16:24.000Z</time>
      </trkpt>
      <trkpt lat="42.325132" lon="-8.82091">
        <ele>52.6</ele>
        <time>1970-01-01T01:16:25.000Z</time>
      </trkpt>
      <trkpt lat="42.325131" lon="-8.82088">
        <ele>53</ele>
        <time>1970-01-01T01:16:26.000Z</time>
      </trkpt>
      <trkpt lat="42.325131" lon="-8.820862">
        <ele>53</ele>
        <time>1970-01-01T01:16:27.000Z</time>
      </trkpt>
      <trkpt lat="42.325132" lon="-8.820851">
        <ele>53.2</ele>
        <time>1970-01-01T01:16:28.000Z</time>
      </trkpt>
      <trkpt lat="42.325133" lon="-8.82084">
        <ele>53.2</ele>
        <time>1970-01-01T01:16:29.000Z</time>
      </trkpt>
      <trkpt lat="42.325136" lon="-8.820834">
        <ele>53.4</ele>
        <time>1970-01-01T01:16:30.000Z</time>
      </trkpt>
      <trkpt lat="42.325137" lon="-8.820828">
        <ele>53.6</ele>
        <time>1970-01-01T01:16:31.000Z</time>
      </trkpt>
      <trkpt lat="42.32514" lon="-8.820818">
        <ele>54.2</ele>
        <time>1970-01-01T01:16:32.000Z</time>
      </trkpt>
      <trkpt lat="42.325142" lon="-8.820805">
        <ele>54.6</ele>
        <time>1970-01-01T01:16:33.000Z</time>
      </trkpt>
      <trkpt lat="42.325143" lon="-8.820794">
        <ele>55</ele>
        <time>1970-01-01T01:16:34.000Z</time>
      </trkpt>
      <trkpt lat="42.325146" lon="-8.820786">
        <ele>55.4</ele>
        <time>1970-01-01T01:16:35.000Z</time>
      </trkpt>
      <trkpt lat="42.325148" lon="-8.820778">
        <ele>55.6</ele>
        <time>1970-01-01T01:16:36.000Z</time>
      </trkpt>
      <trkpt lat="42.325147" lon="-8.820771">
        <ele>55.6</ele>
        <time>1970-01-01T01:16:37.000Z</time>
      </trkpt>
      <trkpt lat="42.325148" lon="-8.820766">
        <ele>56</ele>
        <time>1970-01-01T01:16:38.000Z</time>
      </trkpt>
      <trkpt lat="42.325148" lon="-8.82076">
        <ele>56.4</ele>
        <time>1970-01-01T01:16:39.000Z</time>
      </trkpt>
      <trkpt lat="42.325148" lon="-8.820752">
        <ele>56.6</ele>
        <time>1970-01-01T01:16:40.000Z</time>
      </trkpt>
      <trkpt lat="42.325149" lon="-8.820743">
        <ele>56.8</ele>
        <time>1970-01-01T01:16:41.000Z</time>
      </trkpt>
      <trkpt lat="42.325148" lon="-8.820734">
        <ele>57</ele>
        <time>1970-01-01T01:16:42.000Z</time>
      </trkpt>
      <trkpt lat="42.325149" lon="-8.820728">
        <ele>57.2</ele>
        <time>1970-01-01T01:16:43.000Z</time>
      </trkpt>
      <trkpt lat="42.325151" lon="-8.820718">
        <ele>57.4</ele>
        <time>1970-01-01T01:16:44.000Z</time>
      </trkpt>
      <trkpt lat="42.325156" lon="-8.820711">
        <ele>57.8</ele>
        <time>1970-01-01T01:16:45.000Z</time>
      </trkpt>
      <trkpt lat="42.325162" lon="-8.820701">
        <ele>58</ele>
        <time>1970-01-01T01:16:46.000Z</time>
      </trkpt>
      <trkpt lat="42.325164" lon="-8.820689">
        <ele>58.4</ele>
        <time>1970-01-01T01:16:47.000Z</time>
      </trkpt>
      <trkpt lat="42.325167" lon="-8.820683">
        <ele>58.6</ele>
        <time>1970-01-01T01:16:48.000Z</time>
      </trkpt>
      <trkpt lat="42.325168" lon="-8.820674">
        <ele>58.8</ele>
        <time>1970-01-01T01:16:49.000Z</time>
      </trkpt>
      <trkpt lat="42.325168" lon="-8.82067">
        <ele>59</ele>
        <time>1970-01-01T01:16:50.000Z</time>
      </trkpt>
      <trkpt lat="42.325168" lon="-8.820666">
        <ele>59.2</ele>
        <time>1970-01-01T01:16:51.000Z</time>
      </trkpt>
      <trkpt lat="42.325165" lon="-8.820664">
        <ele>59.6</ele>
        <time>1970-01-01T01:16:52.000Z</time>
      </trkpt>
      <trkpt lat="42.325162" lon="-8.820654">
        <ele>59.6</ele>
        <time>1970-01-01T01:16:53.000Z</time>
      </trkpt>
      <trkpt lat="42.32516" lon="-8.820642">
        <ele>60</ele>
        <time>1970-01-01T01:16:54.000Z</time>
      </trkpt>
      <trkpt lat="42.325162" lon="-8.820624">
        <ele>60.2</ele>
        <time>1970-01-01T01:16:55.000Z</time>
      </trkpt>
      <trkpt lat="42.325166" lon="-8.820614">
        <ele>60.4</ele>
        <time>1970-01-01T01:16:56.000Z</time>
      </trkpt>
      <trkpt lat="42.32517" lon="-8.820604">
        <ele>60.6</ele>
        <time>1970-01-01T01:16:57.000Z</time>
      </trkpt>
      <trkpt lat="42.325174" lon="-8.820595">
        <ele>60.8</ele>
        <time>1970-01-01T01:16:58.000Z</time>
      </trkpt>
      <trkpt lat="42.325181" lon="-8.820587">
        <ele>61.2</ele>
        <time>1970-01-01T01:16:59.000Z</time>
      </trkpt>
      <trkpt lat="42.325185" lon="-8.820574">
        <ele>61.4</ele>
        <time>1970-01-01T01:17:00.000Z</time>
      </trkpt>
      <trkpt lat="42.325191" lon="-8.820566">
        <ele>61.6</ele>
        <time>1970-01-01T01:17:01.000Z</time>
      </trkpt>
      <trkpt lat="42.325192" lon="-8.820555">
        <ele>62</ele>
        <time>1970-01-01T01:17:02.000Z</time>
      </trkpt>
      <trkpt lat="42.325196" lon="-8.820549">
        <ele>62.4</ele>
        <time>1970-01-01T01:17:03.000Z</time>
      </trkpt>
      <trkpt lat="42.325197" lon="-8.820548">
        <ele>62.6</ele>
        <time>1970-01-01T01:17:04.000Z</time>
      </trkpt>
      <trkpt lat="42.3252" lon="-8.820543">
        <ele>62.8</ele>
        <time>1970-01-01T01:17:05.000Z</time>
      </trkpt>
      <trkpt lat="42.325203" lon="-8.820528">
        <ele>63</ele>
        <time>1970-01-01T01:17:06.000Z</time>
      </trkpt>
      <trkpt lat="42.325204" lon="-8.820516">
        <ele>63</ele>
        <time>1970-01-01T01:17:07.000Z</time>
      </trkpt>
      <trkpt lat="42.325202" lon="-8.820505">
        <ele>63.2</ele>
        <time>1970-01-01T01:17:08.000Z</time>
      </trkpt>
      <trkpt lat="42.325202" lon="-8.820495">
        <ele>64</ele>
        <time>1970-01-01T01:17:09.000Z</time>
      </trkpt>
      <trkpt lat="42.325202" lon="-8.820481">
        <ele>64.4</ele>
        <time>1970-01-01T01:17:10.000Z</time>
      </trkpt>
      <trkpt lat="42.325202" lon="-8.820474">
        <ele>64.6</ele>
        <time>1970-01-01T01:17:11.000Z</time>
      </trkpt>
      <trkpt lat="42.325199" lon="-8.820462">
        <ele>64.8</ele>
        <time>1970-01-01T01:17:12.000Z</time>
      </trkpt>
      <trkpt lat="42.325199" lon="-8.820453">
        <ele>65</ele>
        <time>1970-01-01T01:17:13.000Z</time>
      </trkpt>
      <trkpt lat="42.3252" lon="-8.820443">
        <ele>65.2</ele>
        <time>1970-01-01T01:17:14.000Z</time>
      </trkpt>
      <trkpt lat="42.3252" lon="-8.82042">
        <ele>65.8</ele>
        <time>1970-01-01T01:17:15.000Z</time>
      </trkpt>
      <trkpt lat="42.325202" lon="-8.820402">
        <ele>66</ele>
        <time>1970-01-01T01:17:16.000Z</time>
      </trkpt>
      <trkpt lat="42.325208" lon="-8.82039">
        <ele>66.4</ele>
        <time>1970-01-01T01:17:17.000Z</time>
      </trkpt>
      <trkpt lat="42.325213" lon="-8.820381">
        <ele>66.4</ele>
        <time>1970-01-01T01:17:18.000Z</time>
      </trkpt>
      <trkpt lat="42.325213" lon="-8.82037">
        <ele>66.6</ele>
        <time>1970-01-01T01:17:19.000Z</time>
      </trkpt>
      <trkpt lat="42.325216" lon="-8.820361">
        <ele>66.6</ele>
        <time>1970-01-01T01:17:20.000Z</time>
      </trkpt>
      <trkpt lat="42.325221" lon="-8.820353">
        <ele>67</ele>
        <time>1970-01-01T01:17:21.000Z</time>
      </trkpt>
      <trkpt lat="42.325219" lon="-8.820341">
        <ele>67.4</ele>
        <time>1970-01-01T01:17:22.000Z</time>
      </trkpt>
      <trkpt lat="42.325218" lon="-8.820326">
        <ele>67.8</ele>
        <time>1970-01-01T01:17:23.000Z</time>
      </trkpt>
      <trkpt lat="42.325213" lon="-8.820306">
        <ele>68.2</ele>
        <time>1970-01-01T01:17:24.000Z</time>
      </trkpt>
      <trkpt lat="42.325209" lon="-8.820289">
        <ele>68.4</ele>
        <time>1970-01-01T01:17:25.000Z</time>
      </trkpt>
      <trkpt lat="42.325211" lon="-8.820282">
        <ele>68.6</ele>
        <time>1970-01-01T01:17:26.000Z</time>
      </trkpt>
      <trkpt lat="42.32521" lon="-8.820268">
        <ele>68.6</ele>
        <time>1970-01-01T01:17:27.000Z</time>
      </trkpt>
      <trkpt lat="42.325208" lon="-8.820257">
        <ele>68.6</ele>
        <time>1970-01-01T01:17:28.000Z</time>
      </trkpt>
      <trkpt lat="42.325205" lon="-8.820243">
        <ele>68.8</ele>
        <time>1970-01-01T01:17:29.000Z</time>
      </trkpt>
      <trkpt lat="42.325203" lon="-8.820222">
        <ele>69</ele>
        <time>1970-01-01T01:17:30.000Z</time>
      </trkpt>
      <trkpt lat="42.325197" lon="-8.820207">
        <ele>69.2</ele>
        <time>1970-01-01T01:17:31.000Z</time>
      </trkpt>
      <trkpt lat="42.325193" lon="-8.82019">
        <ele>69.4</ele>
        <time>1970-01-01T01:17:32.000Z</time>
      </trkpt>
      <trkpt lat="42.325191" lon="-8.820176">
        <ele>69.6</ele>
        <time>1970-01-01T01:17:33.000Z</time>
      </trkpt>
      <trkpt lat="42.325189" lon="-8.820167">
        <ele>70</ele>
        <time>1970-01-01T01:17:34.000Z</time>
      </trkpt>
      <trkpt lat="42.325191" lon="-8.820159">
        <ele>70.2</ele>
        <time>1970-01-01T01:17:35.000Z</time>
      </trkpt>
      <trkpt lat="42.32519" lon="-8.820152">
        <ele>70.6</ele>
        <time>1970-01-01T01:17:36.000Z</time>
      </trkpt>
      <trkpt lat="42.325187" lon="-8.820148">
        <ele>70.8</ele>
        <time>1970-01-01T01:17:37.000Z</time>
      </trkpt>
      <trkpt lat="42.325182" lon="-8.820149">
        <ele>71</ele>
        <time>1970-01-01T01:17:38.000Z</time>
      </trkpt>
      <trkpt lat="42.325178" lon="-8.820145">
        <ele>71.2</ele>
        <time>1970-01-01T01:17:39.000Z</time>
      </trkpt>
      <trkpt lat="42.325172" lon="-8.820145">
        <ele>71.2</ele>
        <time>1970-01-01T01:17:40.000Z</time>
      </trkpt>
      <trkpt lat="42.32516" lon="-8.820146">
        <ele>71.2</ele>
        <time>1970-01-01T01:17:41.000Z</time>
      </trkpt>
      <trkpt lat="42.325144" lon="-8.82015">
        <ele>71.2</ele>
        <time>1970-01-01T01:17:42.000Z</time>
      </trkpt>
      <trkpt lat="42.325127" lon="-8.820144">
        <ele>71.2</ele>
        <time>1970-01-01T01:17:43.000Z</time>
      </trkpt>
      <trkpt lat="42.32511" lon="-8.820142">
        <ele>71.4</ele>
        <time>1970-01-01T01:17:44.000Z</time>
      </trkpt>
      <trkpt lat="42.325093" lon="-8.820131">
        <ele>71.4</ele>
        <time>1970-01-01T01:17:45.000Z</time>
      </trkpt>
      <trkpt lat="42.325084" lon="-8.820132">
        <ele>71.6</ele>
        <time>1970-01-01T01:17:46.000Z</time>
      </trkpt>
      <trkpt lat="42.325078" lon="-8.820133">
        <ele>71.6</ele>
        <time>1970-01-01T01:17:47.000Z</time>
      </trkpt>
      <trkpt lat="42.325072" lon="-8.82013">
        <ele>71.6</ele>
        <time>1970-01-01T01:17:48.000Z</time>
      </trkpt>
      <trkpt lat="42.325066" lon="-8.820126">
        <ele>71.6</ele>
        <time>1970-01-01T01:17:49.000Z</time>
      </trkpt>
      <trkpt lat="42.325065" lon="-8.820123">
        <ele>71.8</ele>
        <time>1970-01-01T01:17:50.000Z</time>
      </trkpt>
      <trkpt lat="42.32506" lon="-8.820111">
        <ele>71.8</ele>
        <time>1970-01-01T01:17:51.000Z</time>
      </trkpt>
      <trkpt lat="42.325057" lon="-8.820101">
        <ele>71.8</ele>
        <time>1970-01-01T01:17:52.000Z</time>
      </trkpt>
      <trkpt lat="42.325053" lon="-8.82009">
        <ele>72</ele>
        <time>1970-01-01T01:17:53.000Z</time>
      </trkpt>
      <trkpt lat="42.325048" lon="-8.820082">
        <ele>72.2</ele>
        <time>1970-01-01T01:17:54.000Z</time>
      </trkpt>
      <trkpt lat="42.32504" lon="-8.820067">
        <ele>72.4</ele>
        <time>1970-01-01T01:17:55.000Z</time>
      </trkpt>
      <trkpt lat="42.325037" lon="-8.820059">
        <ele>72.8</ele>
        <time>1970-01-01T01:17:56.000Z</time>
      </trkpt>
      <trkpt lat="42.325034" lon="-8.820051">
        <ele>73.2</ele>
        <time>1970-01-01T01:17:57.000Z</time>
      </trkpt>
      <trkpt lat="42.325029" lon="-8.820042">
        <ele>73.6</ele>
        <time>1970-01-01T01:17:58.000Z</time>
      </trkpt>
      <trkpt lat="42.325022" lon="-8.820033">
        <ele>73.8</ele>
        <time>1970-01-01T01:17:59.000Z</time>
      </trkpt>
      <trkpt lat="42.325017" lon="-8.820024">
        <ele>74</ele>
        <time>1970-01-01T01:18:00.000Z</time>
      </trkpt>
      <trkpt lat="42.325012" lon="-8.820016">
        <ele>74.4</ele>
        <time>1970-01-01T01:18:01.000Z</time>
      </trkpt>
      <trkpt lat="42.325012" lon="-8.820012">
        <ele>74.4</ele>
        <time>1970-01-01T01:18:02.000Z</time>
      </trkpt>
      <trkpt lat="42.325014" lon="-8.820011">
        <ele>74.6</ele>
        <time>1970-01-01T01:18:03.000Z</time>
      </trkpt>
      <trkpt lat="42.325013" lon="-8.820007">
        <ele>74.8</ele>
        <time>1970-01-01T01:18:04.000Z</time>
      </trkpt>
      <trkpt lat="42.32501" lon="-8.819997">
        <ele>75</ele>
        <time>1970-01-01T01:18:05.000Z</time>
      </trkpt>
      <trkpt lat="42.325007" lon="-8.819985">
        <ele>75</ele>
        <time>1970-01-01T01:18:06.000Z</time>
      </trkpt>
      <trkpt lat="42.325005" lon="-8.819977">
        <ele>75.2</ele>
        <time>1970-01-01T01:18:07.000Z</time>
      </trkpt>
      <trkpt lat="42.325005" lon="-8.819973">
        <ele>75.6</ele>
        <time>1970-01-01T01:18:08.000Z</time>
      </trkpt>
      <trkpt lat="42.325008" lon="-8.819973">
        <ele>76</ele>
        <time>1970-01-01T01:18:09.000Z</time>
      </trkpt>
      <trkpt lat="42.32501" lon="-8.819973">
        <ele>76.4</ele>
        <time>1970-01-01T01:18:10.000Z</time>
      </trkpt>
      <trkpt lat="42.325016" lon="-8.819974">
        <ele>76.6</ele>
        <time>1970-01-01T01:18:11.000Z</time>
      </trkpt>
      <trkpt lat="42.325023" lon="-8.819971">
        <ele>76.8</ele>
        <time>1970-01-01T01:18:12.000Z</time>
      </trkpt>
      <trkpt lat="42.325029" lon="-8.819965">
        <ele>77</ele>
        <time>1970-01-01T01:18:13.000Z</time>
      </trkpt>
      <trkpt lat="42.325036" lon="-8.819959">
        <ele>77</ele>
        <time>1970-01-01T01:18:14.000Z</time>
      </trkpt>
      <trkpt lat="42.325038" lon="-8.819951">
        <ele>77.4</ele>
        <time>1970-01-01T01:18:15.000Z</time>
      </trkpt>
      <trkpt lat="42.325042" lon="-8.819943">
        <ele>77.4</ele>
        <time>1970-01-01T01:18:16.000Z</time>
      </trkpt>
      <trkpt lat="42.325044" lon="-8.819936">
        <ele>77.8</ele>
        <time>1970-01-01T01:18:17.000Z</time>
      </trkpt>
      <trkpt lat="42.325044" lon="-8.819923">
        <ele>78</ele>
        <time>1970-01-01T01:18:18.000Z</time>
      </trkpt>
      <trkpt lat="42.325041" lon="-8.819912">
        <ele>78.2</ele>
        <time>1970-01-01T01:18:19.000Z</time>
      </trkpt>
      <trkpt lat="42.32504" lon="-8.8199">
        <ele>78.6</ele>
        <time>1970-01-01T01:18:20.000Z</time>
      </trkpt>
      <trkpt lat="42.325042" lon="-8.819888">
        <ele>78.8</ele>
        <time>1970-01-01T01:18:21.000Z</time>
      </trkpt>
      <trkpt lat="42.325045" lon="-8.819879">
        <ele>79</ele>
        <time>1970-01-01T01:18:22.000Z</time>
      </trkpt>
      <trkpt lat="42.325049" lon="-8.819868">
        <ele>79.2</ele>
        <time>1970-01-01T01:18:23.000Z</time>
      </trkpt>
      <trkpt lat="42.325053" lon="-8.819857">
        <ele>79.4</ele>
        <time>1970-01-01T01:18:24.000Z</time>
      </trkpt>
      <trkpt lat="42.325057" lon="-8.819846">
        <ele>79.6</ele>
        <time>1970-01-01T01:18:25.000Z</time>
      </trkpt>
      <trkpt lat="42.325063" lon="-8.819833">
        <ele>79.8</ele>
        <time>1970-01-01T01:18:26.000Z</time>
      </trkpt>
      <trkpt lat="42.32507" lon="-8.819824">
        <ele>79.8</ele>
        <time>1970-01-01T01:18:27.000Z</time>
      </trkpt>
      <trkpt lat="42.325079" lon="-8.819815">
        <ele>80.2</ele>
        <time>1970-01-01T01:18:28.000Z</time>
      </trkpt>
      <trkpt lat="42.325087" lon="-8.819807">
        <ele>80.6</ele>
        <time>1970-01-01T01:18:29.000Z</time>
      </trkpt>
      <trkpt lat="42.325093" lon="-8.8198">
        <ele>80.6</ele>
        <time>1970-01-01T01:18:30.000Z</time>
      </trkpt>
      <trkpt lat="42.325098" lon="-8.81979">
        <ele>80.8</ele>
        <time>1970-01-01T01:18:31.000Z</time>
      </trkpt>
      <trkpt lat="42.325102" lon="-8.819778">
        <ele>81</ele>
        <time>1970-01-01T01:18:32.000Z</time>
      </trkpt>
      <trkpt lat="42.325106" lon="-8.819764">
        <ele>81.2</ele>
        <time>1970-01-01T01:18:33.000Z</time>
      </trkpt>
      <trkpt lat="42.325111" lon="-8.819745">
        <ele>81.6</ele>
        <time>1970-01-01T01:18:34.000Z</time>
      </trkpt>
      <trkpt lat="42.325121" lon="-8.819735">
        <ele>81.6</ele>
        <time>1970-01-01T01:18:35.000Z</time>
      </trkpt>
      <trkpt lat="42.325127" lon="-8.819725">
        <ele>82</ele>
        <time>1970-01-01T01:18:36.000Z</time>
      </trkpt>
      <trkpt lat="42.325129" lon="-8.819715">
        <ele>82.2</ele>
        <time>1970-01-01T01:18:37.000Z</time>
      </trkpt>
      <trkpt lat="42.325132" lon="-8.81971">
        <ele>82.6</ele>
        <time>1970-01-01T01:18:38.000Z</time>
      </trkpt>
      <trkpt lat="42.325137" lon="-8.819706">
        <ele>82.8</ele>
        <time>1970-01-01T01:18:39.000Z</time>
      </trkpt>
      <trkpt lat="42.325142" lon="-8.819691">
        <ele>83.4</ele>
        <time>1970-01-01T01:18:40.000Z</time>
      </trkpt>
      <trkpt lat="42.32515" lon="-8.819676">
        <ele>83.8</ele>
        <time>1970-01-01T01:18:41.000Z</time>
      </trkpt>
      <trkpt lat="42.325159" lon="-8.819672">
        <ele>84</ele>
        <time>1970-01-01T01:18:42.000Z</time>
      </trkpt>
      <trkpt lat="42.325167" lon="-8.81967">
        <ele>84.2</ele>
        <time>1970-01-01T01:18:43.000Z</time>
      </trkpt>
      <trkpt lat="42.325177" lon="-8.819662">
        <ele>84.4</ele>
        <time>1970-01-01T01:18:44.000Z</time>
      </trkpt>
      <trkpt lat="42.325188" lon="-8.819655">
        <ele>84.4</ele>
        <time>1970-01-01T01:18:45.000Z</time>
      </trkpt>
      <trkpt lat="42.325199" lon="-8.819646">
        <ele>84.6</ele>
        <time>1970-01-01T01:18:46.000Z</time>
      </trkpt>
      <trkpt lat="42.325206" lon="-8.819633">
        <ele>84.6</ele>
        <time>1970-01-01T01:18:47.000Z</time>
      </trkpt>
      <trkpt lat="42.325211" lon="-8.819617">
        <ele>84.8</ele>
        <time>1970-01-01T01:18:48.000Z</time>
      </trkpt>
      <trkpt lat="42.325216" lon="-8.819606">
        <ele>84.8</ele>
        <time>1970-01-01T01:18:49.000Z</time>
      </trkpt>
      <trkpt lat="42.32522" lon="-8.819591">
        <ele>84.8</ele>
        <time>1970-01-01T01:18:50.000Z</time>
      </trkpt>
      <trkpt lat="42.325225" lon="-8.819581">
        <ele>85</ele>
        <time>1970-01-01T01:18:51.000Z</time>
      </trkpt>
      <trkpt lat="42.325231" lon="-8.819575">
        <ele>85.2</ele>
        <time>1970-01-01T01:18:52.000Z</time>
      </trkpt>
      <trkpt lat="42.325237" lon="-8.819567">
        <ele>85.4</ele>
        <time>1970-01-01T01:18:53.000Z</time>
      </trkpt>
      <trkpt lat="42.325244" lon="-8.819559">
        <ele>85.8</ele>
        <time>1970-01-01T01:18:54.000Z</time>
      </trkpt>
      <trkpt lat="42.325248" lon="-8.819555">
        <ele>86.2</ele>
        <time>1970-01-01T01:18:55.000Z</time>
      </trkpt>
      <trkpt lat="42.325251" lon="-8.819546">
        <ele>86.4</ele>
        <time>1970-01-01T01:18:56.000Z</time>
      </trkpt>
      <trkpt lat="42.325255" lon="-8.819533">
        <ele>86.6</ele>
        <time>1970-01-01T01:18:57.000Z</time>
      </trkpt>
      <trkpt lat="42.325259" lon="-8.819516">
        <ele>86.8</ele>
        <time>1970-01-01T01:18:58.000Z</time>
      </trkpt>
      <trkpt lat="42.325264" lon="-8.8195">
        <ele>87</ele>
        <time>1970-01-01T01:18:59.000Z</time>
      </trkpt>
      <trkpt lat="42.32527" lon="-8.819488">
        <ele>87.2</ele>
        <time>1970-01-01T01:19:00.000Z</time>
      </trkpt>
      <trkpt lat="42.325275" lon="-8.81948">
        <ele>87.4</ele>
        <time>1970-01-01T01:19:01.000Z</time>
      </trkpt>
      <trkpt lat="42.325282" lon="-8.819475">
        <ele>87.8</ele>
        <time>1970-01-01T01:19:02.000Z</time>
      </trkpt>
      <trkpt lat="42.325287" lon="-8.81947">
        <ele>88</ele>
        <time>1970-01-01T01:19:03.000Z</time>
      </trkpt>
      <trkpt lat="42.325292" lon="-8.819459">
        <ele>88.2</ele>
        <time>1970-01-01T01:19:04.000Z</time>
      </trkpt>
      <trkpt lat="42.325299" lon="-8.819441">
        <ele>88.2</ele>
        <time>1970-01-01T01:19:05.000Z</time>
      </trkpt>
      <trkpt lat="42.325309" lon="-8.819424">
        <ele>88</ele>
        <time>1970-01-01T01:19:06.000Z</time>
      </trkpt>
      <trkpt lat="42.325319" lon="-8.819413">
        <ele>88.2</ele>
        <time>1970-01-01T01:19:07.000Z</time>
      </trkpt>
      <trkpt lat="42.325326" lon="-8.819405">
        <ele>88.2</ele>
        <time>1970-01-01T01:19:08.000Z</time>
      </trkpt>
      <trkpt lat="42.325334" lon="-8.819392">
        <ele>88.4</ele>
        <time>1970-01-01T01:19:09.000Z</time>
      </trkpt>
      <trkpt lat="42.325338" lon="-8.819375">
        <ele>88.8</ele>
        <time>1970-01-01T01:19:10.000Z</time>
      </trkpt>
      <trkpt lat="42.325341" lon="-8.819358">
        <ele>89.2</ele>
        <time>1970-01-01T01:19:11.000Z</time>
      </trkpt>
      <trkpt lat="42.325343" lon="-8.819346">
        <ele>89.6</ele>
        <time>1970-01-01T01:19:12.000Z</time>
      </trkpt>
      <trkpt lat="42.325345" lon="-8.81934">
        <ele>89.8</ele>
        <time>1970-01-01T01:19:13.000Z</time>
      </trkpt>
      <trkpt lat="42.325346" lon="-8.81933">
        <ele>90</ele>
        <time>1970-01-01T01:19:14.000Z</time>
      </trkpt>
      <trkpt lat="42.325344" lon="-8.819315">
        <ele>90</ele>
        <time>1970-01-01T01:19:15.000Z</time>
      </trkpt>
      <trkpt lat="42.325338" lon="-8.8193">
        <ele>90</ele>
        <time>1970-01-01T01:19:16.000Z</time>
      </trkpt>
      <trkpt lat="42.325333" lon="-8.81929">
        <ele>90.4</ele>
        <time>1970-01-01T01:19:17.000Z</time>
      </trkpt>
      <trkpt lat="42.325327" lon="-8.819279">
        <ele>90.8</ele>
        <time>1970-01-01T01:19:18.000Z</time>
      </trkpt>
      <trkpt lat="42.32532" lon="-8.819266">
        <ele>91</ele>
        <time>1970-01-01T01:19:19.000Z</time>
      </trkpt>
      <trkpt lat="42.325312" lon="-8.819252">
        <ele>91.2</ele>
        <time>1970-01-01T01:19:20.000Z</time>
      </trkpt>
      <trkpt lat="42.325306" lon="-8.819243">
        <ele>91.4</ele>
        <time>1970-01-01T01:19:21.000Z</time>
      </trkpt>
      <trkpt lat="42.325297" lon="-8.819236">
        <ele>91.6</ele>
        <time>1970-01-01T01:19:22.000Z</time>
      </trkpt>
      <trkpt lat="42.325288" lon="-8.819224">
        <ele>92</ele>
        <time>1970-01-01T01:19:23.000Z</time>
      </trkpt>
      <trkpt lat="42.325282" lon="-8.819214">
        <ele>92.2</ele>
        <time>1970-01-01T01:19:24.000Z</time>
      </trkpt>
      <trkpt lat="42.325277" lon="-8.819201">
        <ele>92.6</ele>
        <time>1970-01-01T01:19:25.000Z</time>
      </trkpt>
      <trkpt lat="42.325273" lon="-8.819189">
        <ele>92.8</ele>
        <time>1970-01-01T01:19:26.000Z</time>
      </trkpt>
      <trkpt lat="42.325274" lon="-8.819185">
        <ele>93.2</ele>
        <time>1970-01-01T01:19:27.000Z</time>
      </trkpt>
      <trkpt lat="42.325275" lon="-8.819183">
        <ele>93.2</ele>
        <time>1970-01-01T01:19:28.000Z</time>
      </trkpt>
      <trkpt lat="42.325272" lon="-8.819175">
        <ele>93.4</ele>
        <time>1970-01-01T01:19:29.000Z</time>
      </trkpt>
      <trkpt lat="42.32527" lon="-8.819167">
        <ele>93.6</ele>
        <time>1970-01-01T01:19:30.000Z</time>
      </trkpt>
      <trkpt lat="42.325269" lon="-8.819159">
        <ele>93.6</ele>
        <time>1970-01-01T01:19:31.000Z</time>
      </trkpt>
      <trkpt lat="42.325267" lon="-8.81915">
        <ele>94</ele>
        <time>1970-01-01T01:19:32.000Z</time>
      </trkpt>
      <trkpt lat="42.325265" lon="-8.819141">
        <ele>94.2</ele>
        <time>1970-01-01T01:19:33.000Z</time>
      </trkpt>
      <trkpt lat="42.325264" lon="-8.819133">
        <ele>94.4</ele>
        <time>1970-01-01T01:19:34.000Z</time>
      </trkpt>
      <trkpt lat="42.325264" lon="-8.819123">
        <ele>94.8</ele>
        <time>1970-01-01T01:19:35.000Z</time>
      </trkpt>
      <trkpt lat="42.325262" lon="-8.81911">
        <ele>95</ele>
        <time>1970-01-01T01:19:36.000Z</time>
      </trkpt>
      <trkpt lat="42.32526" lon="-8.819098">
        <ele>95</ele>
        <time>1970-01-01T01:19:37.000Z</time>
      </trkpt>
      <trkpt lat="42.325257" lon="-8.819091">
        <ele>95.2</ele>
        <time>1970-01-01T01:19:38.000Z</time>
      </trkpt>
      <trkpt lat="42.325254" lon="-8.819084">
        <ele>95.4</ele>
        <time>1970-01-01T01:19:39.000Z</time>
      </trkpt>
      <trkpt lat="42.325248" lon="-8.819074">
        <ele>95.6</ele>
        <time>1970-01-01T01:19:40.000Z</time>
      </trkpt>
      <trkpt lat="42.325242" lon="-8.819064">
        <ele>96</ele>
        <time>1970-01-01T01:19:41.000Z</time>
      </trkpt>
      <trkpt lat="42.325239" lon="-8.819055">
        <ele>96.2</ele>
        <time>1970-01-01T01:19:42.000Z</time>
      </trkpt>
      <trkpt lat="42.325237" lon="-8.819048">
        <ele>96.6</ele>
        <time>1970-01-01T01:19:43.000Z</time>
      </trkpt>
      <trkpt lat="42.325237" lon="-8.819042">
        <ele>97</ele>
        <time>1970-01-01T01:19:44.000Z</time>
      </trkpt>
      <trkpt lat="42.325237" lon="-8.81903">
        <ele>97.2</ele>
        <time>1970-01-01T01:19:45.000Z</time>
      </trkpt>
      <trkpt lat="42.325238" lon="-8.819015">
        <ele>97.4</ele>
        <time>1970-01-01T01:19:46.000Z</time>
      </trkpt>
      <trkpt lat="42.325237" lon="-8.819006">
        <ele>97.6</ele>
        <time>1970-01-01T01:19:47.000Z</time>
      </trkpt>
      <trkpt lat="42.325236" lon="-8.819003">
        <ele>98.4</ele>
        <time>1970-01-01T01:19:48.000Z</time>
      </trkpt>
      <trkpt lat="42.325232" lon="-8.818998">
        <ele>98.6</ele>
        <time>1970-01-01T01:19:49.000Z</time>
      </trkpt>
      <trkpt lat="42.325229" lon="-8.818995">
        <ele>98.8</ele>
        <time>1970-01-01T01:19:50.000Z</time>
      </trkpt>
      <trkpt lat="42.325229" lon="-8.818989">
        <ele>99</ele>
        <time>1970-01-01T01:19:51.000Z</time>
      </trkpt>
      <trkpt lat="42.325232" lon="-8.818985">
        <ele>99</ele>
        <time>1970-01-01T01:19:52.000Z</time>
      </trkpt>
      <trkpt lat="42.325234" lon="-8.818979">
        <ele>99.2</ele>
        <time>1970-01-01T01:19:53.000Z</time>
      </trkpt>
      <trkpt lat="42.325238" lon="-8.81897">
        <ele>99.4</ele>
        <time>1970-01-01T01:19:54.000Z</time>
      </trkpt>
      <trkpt lat="42.325244" lon="-8.818961">
        <ele>99.6</ele>
        <time>1970-01-01T01:19:55.000Z</time>
      </trkpt>
      <trkpt lat="42.325249" lon="-8.818953">
        <ele>100</ele>
        <time>1970-01-01T01:19:56.000Z</time>
      </trkpt>
      <trkpt lat="42.325248" lon="-8.818939">
        <ele>100.2</ele>
        <time>1970-01-01T01:19:57.000Z</time>
      </trkpt>
      <trkpt lat="42.325248" lon="-8.818926">
        <ele>100.6</ele>
        <time>1970-01-01T01:19:58.000Z</time>
      </trkpt>
      <trkpt lat="42.325246" lon="-8.818912">
        <ele>101</ele>
        <time>1970-01-01T01:19:59.000Z</time>
      </trkpt>
      <trkpt lat="42.325242" lon="-8.818901">
        <ele>101</ele>
        <time>1970-01-01T01:20:00.000Z</time>
      </trkpt>
      <trkpt lat="42.325235" lon="-8.818893">
        <ele>101.2</ele>
        <time>1970-01-01T01:20:01.000Z</time>
      </trkpt>
      <trkpt lat="42.325229" lon="-8.818884">
        <ele>101.6</ele>
        <time>1970-01-01T01:20:02.000Z</time>
      </trkpt>
      <trkpt lat="42.325222" lon="-8.818877">
        <ele>101.8</ele>
        <time>1970-01-01T01:20:03.000Z</time>
      </trkpt>
      <trkpt lat="42.325218" lon="-8.818868">
        <ele>102</ele>
        <time>1970-01-01T01:20:04.000Z</time>
      </trkpt>
      <trkpt lat="42.325214" lon="-8.818862">
        <ele>102</ele>
        <time>1970-01-01T01:20:05.000Z</time>
      </trkpt>
      <trkpt lat="42.325213" lon="-8.818857">
        <ele>102</ele>
        <time>1970-01-01T01:20:06.000Z</time>
      </trkpt>
      <trkpt lat="42.325213" lon="-8.818849">
        <ele>102.4</ele>
        <time>1970-01-01T01:20:07.000Z</time>
      </trkpt>
      <trkpt lat="42.325212" lon="-8.818839">
        <ele>102.8</ele>
        <time>1970-01-01T01:20:08.000Z</time>
      </trkpt>
      <trkpt lat="42.32521" lon="-8.818827">
        <ele>103</ele>
        <time>1970-01-01T01:20:09.000Z</time>
      </trkpt>
      <trkpt lat="42.325209" lon="-8.818817">
        <ele>103.2</ele>
        <time>1970-01-01T01:20:10.000Z</time>
      </trkpt>
      <trkpt lat="42.325206" lon="-8.818809">
        <ele>103.4</ele>
        <time>1970-01-01T01:20:11.000Z</time>
      </trkpt>
      <trkpt lat="42.325203" lon="-8.818801">
        <ele>103.6</ele>
        <time>1970-01-01T01:20:12.000Z</time>
      </trkpt>
      <trkpt lat="42.3252" lon="-8.818791">
        <ele>104</ele>
        <time>1970-01-01T01:20:13.000Z</time>
      </trkpt>
      <trkpt lat="42.325199" lon="-8.818788">
        <ele>104.2</ele>
        <time>1970-01-01T01:20:14.000Z</time>
      </trkpt>
      <trkpt lat="42.3252" lon="-8.818783">
        <ele>104.4</ele>
        <time>1970-01-01T01:20:15.000Z</time>
      </trkpt>
      <trkpt lat="42.325203" lon="-8.818777">
        <ele>104.8</ele>
        <time>1970-01-01T01:20:16.000Z</time>
      </trkpt>
      <trkpt lat="42.325204" lon="-8.818769">
        <ele>105.2</ele>
        <time>1970-01-01T01:20:17.000Z</time>
      </trkpt>
      <trkpt lat="42.325205" lon="-8.818759">
        <ele>105.4</ele>
        <time>1970-01-01T01:20:18.000Z</time>
      </trkpt>
      <trkpt lat="42.325204" lon="-8.818749">
        <ele>105.4</ele>
        <time>1970-01-01T01:20:19.000Z</time>
      </trkpt>
      <trkpt lat="42.325203" lon="-8.818736">
        <ele>105.6</ele>
        <time>1970-01-01T01:20:20.000Z</time>
      </trkpt>
      <trkpt lat="42.325202" lon="-8.818722">
        <ele>105.8</ele>
        <time>1970-01-01T01:20:21.000Z</time>
      </trkpt>
      <trkpt lat="42.3252" lon="-8.81871">
        <ele>106</ele>
        <time>1970-01-01T01:20:22.000Z</time>
      </trkpt>
      <trkpt lat="42.325199" lon="-8.81871">
        <ele>106.2</ele>
        <time>1970-01-01T01:20:23.000Z</time>
      </trkpt>
      <trkpt lat="42.325194" lon="-8.818705">
        <ele>106.4</ele>
        <time>1970-01-01T01:20:24.000Z</time>
      </trkpt>
      <trkpt lat="42.325188" lon="-8.818702">
        <ele>106.6</ele>
        <time>1970-01-01T01:20:25.000Z</time>
      </trkpt>
      <trkpt lat="42.325182" lon="-8.8187">
        <ele>106.6</ele>
        <time>1970-01-01T01:20:26.000Z</time>
      </trkpt>
      <trkpt lat="42.325176" lon="-8.818695">
        <ele>107</ele>
        <time>1970-01-01T01:20:27.000Z</time>
      </trkpt>
      <trkpt lat="42.32517" lon="-8.818695">
        <ele>107.2</ele>
        <time>1970-01-01T01:20:28.000Z</time>
      </trkpt>
      <trkpt lat="42.325166" lon="-8.818696">
        <ele>107.6</ele>
        <time>1970-01-01T01:20:29.000Z</time>
      </trkpt>
      <trkpt lat="42.325163" lon="-8.818692">
        <ele>107.8</ele>
        <time>1970-01-01T01:20:30.000Z</time>
      </trkpt>
      <trkpt lat="42.32516" lon="-8.818679">
        <ele>108</ele>
        <time>1970-01-01T01:20:31.000Z</time>
      </trkpt>
      <trkpt lat="42.325158" lon="-8.818663">
        <ele>108.4</ele>
        <time>1970-01-01T01:20:32.000Z</time>
      </trkpt>
      <trkpt lat="42.325159" lon="-8.818653">
        <ele>108.4</ele>
        <time>1970-01-01T01:20:33.000Z</time>
      </trkpt>
      <trkpt lat="42.325164" lon="-8.818645">
        <ele>108.6</ele>
        <time>1970-01-01T01:20:34.000Z</time>
      </trkpt>
      <trkpt lat="42.325164" lon="-8.818636">
        <ele>108.8</ele>
        <time>1970-01-01T01:20:35.000Z</time>
      </trkpt>
      <trkpt lat="42.325166" lon="-8.81863">
        <ele>108.8</ele>
        <time>1970-01-01T01:20:36.000Z</time>
      </trkpt>
      <trkpt lat="42.325164" lon="-8.818624">
        <ele>109</ele>
        <time>1970-01-01T01:20:37.000Z</time>
      </trkpt>
      <trkpt lat="42.325158" lon="-8.818622">
        <ele>109.2</ele>
        <time>1970-01-01T01:20:38.000Z</time>
      </trkpt>
      <trkpt lat="42.325148" lon="-8.818619">
        <ele>109.4</ele>
        <time>1970-01-01T01:20:39.000Z</time>
      </trkpt>
      <trkpt lat="42.32514" lon="-8.818625">
        <ele>109.6</ele>
        <time>1970-01-01T01:20:40.000Z</time>
      </trkpt>
      <trkpt lat="42.32513" lon="-8.818626">
        <ele>109.8</ele>
        <time>1970-01-01T01:20:41.000Z</time>
      </trkpt>
      <trkpt lat="42.325122" lon="-8.818623">
        <ele>110.2</ele>
        <time>1970-01-01T01:20:42.000Z</time>
      </trkpt>
      <trkpt lat="42.325113" lon="-8.818619">
        <ele>110.4</ele>
        <time>1970-01-01T01:20:43.000Z</time>
      </trkpt>
      <trkpt lat="42.325105" lon="-8.818617">
        <ele>110.6</ele>
        <time>1970-01-01T01:20:44.000Z</time>
      </trkpt>
      <trkpt lat="42.325097" lon="-8.818615">
        <ele>110.8</ele>
        <time>1970-01-01T01:20:45.000Z</time>
      </trkpt>
      <trkpt lat="42.325089" lon="-8.818611">
        <ele>110.8</ele>
        <time>1970-01-01T01:20:46.000Z</time>
      </trkpt>
      <trkpt lat="42.32508" lon="-8.818604">
        <ele>111</ele>
        <time>1970-01-01T01:20:47.000Z</time>
      </trkpt>
      <trkpt lat="42.325071" lon="-8.818605">
        <ele>111</ele>
        <time>1970-01-01T01:20:48.000Z</time>
      </trkpt>
      <trkpt lat="42.325064" lon="-8.818602">
        <ele>111.2</ele>
        <time>1970-01-01T01:20:49.000Z</time>
      </trkpt>
      <trkpt lat="42.325059" lon="-8.818595">
        <ele>111.8</ele>
        <time>1970-01-01T01:20:50.000Z</time>
      </trkpt>
      <trkpt lat="42.325056" lon="-8.81859">
        <ele>112</ele>
        <time>1970-01-01T01:20:51.000Z</time>
      </trkpt>
      <trkpt lat="42.325058" lon="-8.818581">
        <ele>112</ele>
        <time>1970-01-01T01:20:52.000Z</time>
      </trkpt>
      <trkpt lat="42.325065" lon="-8.818569">
        <ele>112.2</ele>
        <time>1970-01-01T01:20:53.000Z</time>
      </trkpt>
      <trkpt lat="42.325075" lon="-8.81856">
        <ele>112.2</ele>
        <time>1970-01-01T01:20:54.000Z</time>
      </trkpt>
      <trkpt lat="42.325084" lon="-8.818555">
        <ele>112.2</ele>
        <time>1970-01-01T01:20:55.000Z</time>
      </trkpt>
      <trkpt lat="42.325092" lon="-8.818552">
        <ele>112.2</ele>
        <time>1970-01-01T01:20:56.000Z</time>
      </trkpt>
      <trkpt lat="42.325101" lon="-8.818551">
        <ele>112.4</ele>
        <time>1970-01-01T01:20:57.000Z</time>
      </trkpt>
      <trkpt lat="42.325112" lon="-8.818552">
        <ele>112.4</ele>
        <time>1970-01-01T01:20:58.000Z</time>
      </trkpt>
      <trkpt lat="42.325123" lon="-8.818545">
        <ele>112.8</ele>
        <time>1970-01-01T01:20:59.000Z</time>
      </trkpt>
      <trkpt lat="42.325132" lon="-8.818535">
        <ele>113</ele>
        <time>1970-01-01T01:21:00.000Z</time>
      </trkpt>
      <trkpt lat="42.325137" lon="-8.818523">
        <ele>113.2</ele>
        <time>1970-01-01T01:21:01.000Z</time>
      </trkpt>
      <trkpt lat="42.325141" lon="-8.81851">
        <ele>113.4</ele>
        <time>1970-01-01T01:21:02.000Z</time>
      </trkpt>
      <trkpt lat="42.325146" lon="-8.818491">
        <ele>113.6</ele>
        <time>1970-01-01T01:21:03.000Z</time>
      </trkpt>
      <trkpt lat="42.325151" lon="-8.818473">
        <ele>113.6</ele>
        <time>1970-01-01T01:21:04.000Z</time>
      </trkpt>
      <trkpt lat="42.325151" lon="-8.818453">
        <ele>113.6</ele>
        <time>1970-01-01T01:21:05.000Z</time>
      </trkpt>
      <trkpt lat="42.325146" lon="-8.818434">
        <ele>113.6</ele>
        <time>1970-01-01T01:21:06.000Z</time>
      </trkpt>
      <trkpt lat="42.325144" lon="-8.818425">
        <ele>113.6</ele>
        <time>1970-01-01T01:21:07.000Z</time>
      </trkpt>
      <trkpt lat="42.325137" lon="-8.818416">
        <ele>113.6</ele>
        <time>1970-01-01T01:21:08.000Z</time>
      </trkpt>
      <trkpt lat="42.325131" lon="-8.818409">
        <ele>113.8</ele>
        <time>1970-01-01T01:21:09.000Z</time>
      </trkpt>
      <trkpt lat="42.325126" lon="-8.8184">
        <ele>113.6</ele>
        <time>1970-01-01T01:21:10.000Z</time>
      </trkpt>
      <trkpt lat="42.325121" lon="-8.818389">
        <ele>113.6</ele>
        <time>1970-01-01T01:21:11.000Z</time>
      </trkpt>
      <trkpt lat="42.325118" lon="-8.818373">
        <ele>113.4</ele>
        <time>1970-01-01T01:21:12.000Z</time>
      </trkpt>
      <trkpt lat="42.325116" lon="-8.818355">
        <ele>113.4</ele>
        <time>1970-01-01T01:21:13.000Z</time>
      </trkpt>
      <trkpt lat="42.325118" lon="-8.818337">
        <ele>113.4</ele>
        <time>1970-01-01T01:21:14.000Z</time>
      </trkpt>
      <trkpt lat="42.325124" lon="-8.818325">
        <ele>113.4</ele>
        <time>1970-01-01T01:21:15.000Z</time>
      </trkpt>
      <trkpt lat="42.325129" lon="-8.81831">
        <ele>113.4</ele>
        <time>1970-01-01T01:21:16.000Z</time>
      </trkpt>
      <trkpt lat="42.325134" lon="-8.818297">
        <ele>113.4</ele>
        <time>1970-01-01T01:21:17.000Z</time>
      </trkpt>
      <trkpt lat="42.325141" lon="-8.818282">
        <ele>113.2</ele>
        <time>1970-01-01T01:21:18.000Z</time>
      </trkpt>
      <trkpt lat="42.325142" lon="-8.818271">
        <ele>113</ele>
        <time>1970-01-01T01:21:19.000Z</time>
      </trkpt>
      <trkpt lat="42.325139" lon="-8.818258">
        <ele>113</ele>
        <time>1970-01-01T01:21:20.000Z</time>
      </trkpt>
      <trkpt lat="42.325134" lon="-8.818246">
        <ele>112.8</ele>
        <time>1970-01-01T01:21:21.000Z</time>
      </trkpt>
      <trkpt lat="42.325126" lon="-8.818237">
        <ele>112.8</ele>
        <time>1970-01-01T01:21:22.000Z</time>
      </trkpt>
      <trkpt lat="42.325118" lon="-8.818232">
        <ele>112.2</ele>
        <time>1970-01-01T01:21:23.000Z</time>
      </trkpt>
      <trkpt lat="42.325109" lon="-8.818229">
        <ele>111.8</ele>
        <time>1970-01-01T01:21:24.000Z</time>
      </trkpt>
      <trkpt lat="42.325102" lon="-8.818224">
        <ele>111.4</ele>
        <time>1970-01-01T01:21:25.000Z</time>
      </trkpt>
      <trkpt lat="42.325095" lon="-8.818223">
        <ele>110.8</ele>
        <time>1970-01-01T01:21:26.000Z</time>
      </trkpt>
      <trkpt lat="42.325087" lon="-8.818224">
        <ele>110.4</ele>
        <time>1970-01-01T01:21:27.000Z</time>
      </trkpt>
      <trkpt lat="42.325082" lon="-8.818222">
        <ele>110.2</ele>
        <time>1970-01-01T01:21:28.000Z</time>
      </trkpt>
      <trkpt lat="42.325075" lon="-8.818216">
        <ele>110</ele>
        <time>1970-01-01T01:21:29.000Z</time>
      </trkpt>
      <trkpt lat="42.325066" lon="-8.81821">
        <ele>109.6</ele>
        <time>1970-01-01T01:21:30.000Z</time>
      </trkpt>
      <trkpt lat="42.325057" lon="-8.818206">
        <ele>109.4</ele>
        <time>1970-01-01T01:21:31.000Z</time>
      </trkpt>
      <trkpt lat="42.325046" lon="-8.818203">
        <ele>109</ele>
        <time>1970-01-01T01:21:32.000Z</time>
      </trkpt>
      <trkpt lat="42.325036" lon="-8.818195">
        <ele>108.8</ele>
        <time>1970-01-01T01:21:33.000Z</time>
      </trkpt>
      <trkpt lat="42.325026" lon="-8.818187">
        <ele>108.2</ele>
        <time>1970-01-01T01:21:34.000Z</time>
      </trkpt>
      <trkpt lat="42.325018" lon="-8.818179">
        <ele>108</ele>
        <time>1970-01-01T01:21:35.000Z</time>
      </trkpt>
      <trkpt lat="42.325012" lon="-8.818165">
        <ele>107.8</ele>
        <time>1970-01-01T01:21:36.000Z</time>
      </trkpt>
      <trkpt lat="42.32501" lon="-8.81815">
        <ele>107.2</ele>
        <time>1970-01-01T01:21:37.000Z</time>
      </trkpt>
      <trkpt lat="42.325011" lon="-8.818135">
        <ele>106.6</ele>
        <time>1970-01-01T01:21:38.000Z</time>
      </trkpt>
      <trkpt lat="42.325012" lon="-8.818125">
        <ele>106.2</ele>
        <time>1970-01-01T01:21:39.000Z</time>
      </trkpt>
      <trkpt lat="42.32501" lon="-8.818114">
        <ele>105.6</ele>
        <time>1970-01-01T01:21:40.000Z</time>
      </trkpt>
      <trkpt lat="42.325009" lon="-8.8181">
        <ele>105.2</ele>
        <time>1970-01-01T01:21:41.000Z</time>
      </trkpt>
      <trkpt lat="42.325005" lon="-8.818088">
        <ele>104.8</ele>
        <time>1970-01-01T01:21:42.000Z</time>
      </trkpt>
      <trkpt lat="42.325001" lon="-8.818082">
        <ele>104.6</ele>
        <time>1970-01-01T01:21:43.000Z</time>
      </trkpt>
      <trkpt lat="42.324998" lon="-8.818077">
        <ele>104.2</ele>
        <time>1970-01-01T01:21:44.000Z</time>
      </trkpt>
      <trkpt lat="42.324996" lon="-8.818071">
        <ele>103.6</ele>
        <time>1970-01-01T01:21:45.000Z</time>
      </trkpt>
      <trkpt lat="42.324995" lon="-8.818061">
        <ele>103.2</ele>
        <time>1970-01-01T01:21:46.000Z</time>
      </trkpt>
      <trkpt lat="42.324992" lon="-8.818053">
        <ele>103</ele>
        <time>1970-01-01T01:21:47.000Z</time>
      </trkpt>
      <trkpt lat="42.324987" lon="-8.818044">
        <ele>102.8</ele>
        <time>1970-01-01T01:21:48.000Z</time>
      </trkpt>
      <trkpt lat="42.32498" lon="-8.818036">
        <ele>102.4</ele>
        <time>1970-01-01T01:21:49.000Z</time>
      </trkpt>
      <trkpt lat="42.324973" lon="-8.818028">
        <ele>102.2</ele>
        <time>1970-01-01T01:21:50.000Z</time>
      </trkpt>
      <trkpt lat="42.324968" lon="-8.818022">
        <ele>102</ele>
        <time>1970-01-01T01:21:51.000Z</time>
      </trkpt>
      <trkpt lat="42.324962" lon="-8.818015">
        <ele>101.8</ele>
        <time>1970-01-01T01:21:52.000Z</time>
      </trkpt>
      <trkpt lat="42.324957" lon="-8.818008">
        <ele>101.4</ele>
        <time>1970-01-01T01:21:53.000Z</time>
      </trkpt>
      <trkpt lat="42.324952" lon="-8.817999">
        <ele>101.2</ele>
        <time>1970-01-01T01:21:54.000Z</time>
      </trkpt>
      <trkpt lat="42.324951" lon="-8.817989">
        <ele>101</ele>
        <time>1970-01-01T01:21:55.000Z</time>
      </trkpt>
      <trkpt lat="42.324956" lon="-8.817979">
        <ele>100.6</ele>
        <time>1970-01-01T01:21:56.000Z</time>
      </trkpt>
      <trkpt lat="42.324962" lon="-8.81797">
        <ele>100.4</ele>
        <time>1970-01-01T01:21:57.000Z</time>
      </trkpt>
      <trkpt lat="42.324969" lon="-8.817959">
        <ele>100</ele>
        <time>1970-01-01T01:21:58.000Z</time>
      </trkpt>
      <trkpt lat="42.324977" lon="-8.817951">
        <ele>99.8</ele>
        <time>1970-01-01T01:21:59.000Z</time>
      </trkpt>
      <trkpt lat="42.324985" lon="-8.817937">
        <ele>99.6</ele>
        <time>1970-01-01T01:22:00.000Z</time>
      </trkpt>
      <trkpt lat="42.324993" lon="-8.817924">
        <ele>99.6</ele>
        <time>1970-01-01T01:22:01.000Z</time>
      </trkpt>
      <trkpt lat="42.325" lon="-8.817919">
        <ele>99.4</ele>
        <time>1970-01-01T01:22:02.000Z</time>
      </trkpt>
      <trkpt lat="42.325004" lon="-8.817906">
        <ele>99.4</ele>
        <time>1970-01-01T01:22:03.000Z</time>
      </trkpt>
      <trkpt lat="42.325007" lon="-8.817895">
        <ele>99.2</ele>
        <time>1970-01-01T01:22:04.000Z</time>
      </trkpt>
      <trkpt lat="42.325011" lon="-8.81789">
        <ele>99</ele>
        <time>1970-01-01T01:22:05.000Z</time>
      </trkpt>
      <trkpt lat="42.325017" lon="-8.817888">
        <ele>99</ele>
        <time>1970-01-01T01:22:06.000Z</time>
      </trkpt>
      <trkpt lat="42.325024" lon="-8.817887">
        <ele>99</ele>
        <time>1970-01-01T01:22:07.000Z</time>
      </trkpt>
      <trkpt lat="42.325032" lon="-8.817883">
        <ele>99</ele>
        <time>1970-01-01T01:22:08.000Z</time>
      </trkpt>
      <trkpt lat="42.325036" lon="-8.817874">
        <ele>99</ele>
        <time>1970-01-01T01:22:09.000Z</time>
      </trkpt>
      <trkpt lat="42.325038" lon="-8.817862">
        <ele>99</ele>
        <time>1970-01-01T01:22:10.000Z</time>
      </trkpt>
      <trkpt lat="42.32504" lon="-8.817848">
        <ele>99</ele>
        <time>1970-01-01T01:22:11.000Z</time>
      </trkpt>
      <trkpt lat="42.325047" lon="-8.817832">
        <ele>99</ele>
        <time>1970-01-01T01:22:12.000Z</time>
      </trkpt>
      <trkpt lat="42.325055" lon="-8.817816">
        <ele>98.8</ele>
        <time>1970-01-01T01:22:13.000Z</time>
      </trkpt>
      <trkpt lat="42.32506" lon="-8.817803">
        <ele>98.8</ele>
        <time>1970-01-01T01:22:14.000Z</time>
      </trkpt>
      <trkpt lat="42.325065" lon="-8.81779">
        <ele>98.8</ele>
        <time>1970-01-01T01:22:15.000Z</time>
      </trkpt>
      <trkpt lat="42.325071" lon="-8.817778">
        <ele>98.6</ele>
        <time>1970-01-01T01:22:16.000Z</time>
      </trkpt>
      <trkpt lat="42.325078" lon="-8.81777">
        <ele>98.6</ele>
        <time>1970-01-01T01:22:17.000Z</time>
      </trkpt>
      <trkpt lat="42.325086" lon="-8.817762">
        <ele>98.2</ele>
        <time>1970-01-01T01:22:18.000Z</time>
      </trkpt>
      <trkpt lat="42.325092" lon="-8.817755">
        <ele>98</ele>
        <time>1970-01-01T01:22:19.000Z</time>
      </trkpt>
      <trkpt lat="42.325098" lon="-8.817744">
        <ele>97.8</ele>
        <time>1970-01-01T01:22:20.000Z</time>
      </trkpt>
      <trkpt lat="42.325103" lon="-8.817733">
        <ele>97.6</ele>
        <time>1970-01-01T01:22:21.000Z</time>
      </trkpt>
      <trkpt lat="42.32511" lon="-8.817718">
        <ele>97.6</ele>
        <time>1970-01-01T01:22:22.000Z</time>
      </trkpt>
      <trkpt lat="42.325116" lon="-8.817702">
        <ele>97.6</ele>
        <time>1970-01-01T01:22:23.000Z</time>
      </trkpt>
      <trkpt lat="42.325121" lon="-8.817686">
        <ele>97.4</ele>
        <time>1970-01-01T01:22:24.000Z</time>
      </trkpt>
      <trkpt lat="42.325126" lon="-8.817671">
        <ele>97.4</ele>
        <time>1970-01-01T01:22:25.000Z</time>
      </trkpt>
      <trkpt lat="42.325128" lon="-8.817661">
        <ele>97.4</ele>
        <time>1970-01-01T01:22:26.000Z</time>
      </trkpt>
      <trkpt lat="42.325129" lon="-8.817644">
        <ele>97.2</ele>
        <time>1970-01-01T01:22:27.000Z</time>
      </trkpt>
      <trkpt lat="42.325123" lon="-8.817618">
        <ele>97.2</ele>
        <time>1970-01-01T01:22:28.000Z</time>
      </trkpt>
      <trkpt lat="42.325124" lon="-8.817607">
        <ele>97.2</ele>
        <time>1970-01-01T01:22:29.000Z</time>
      </trkpt>
      <trkpt lat="42.325124" lon="-8.817597">
        <ele>97</ele>
        <time>1970-01-01T01:22:30.000Z</time>
      </trkpt>
      <trkpt lat="42.32512" lon="-8.817589">
        <ele>97</ele>
        <time>1970-01-01T01:22:31.000Z</time>
      </trkpt>
      <trkpt lat="42.32511" lon="-8.817579">
        <ele>96.8</ele>
        <time>1970-01-01T01:22:32.000Z</time>
      </trkpt>
      <trkpt lat="42.325098" lon="-8.817574">
        <ele>96.6</ele>
        <time>1970-01-01T01:22:33.000Z</time>
      </trkpt>
      <trkpt lat="42.32509" lon="-8.817573">
        <ele>96.4</ele>
        <time>1970-01-01T01:22:34.000Z</time>
      </trkpt>
      <trkpt lat="42.325085" lon="-8.817572">
        <ele>96.2</ele>
        <time>1970-01-01T01:22:35.000Z</time>
      </trkpt>
      <trkpt lat="42.325079" lon="-8.817571">
        <ele>96.2</ele>
        <time>1970-01-01T01:22:36.000Z</time>
      </trkpt>
      <trkpt lat="42.325075" lon="-8.817568">
        <ele>96</ele>
        <time>1970-01-01T01:22:37.000Z</time>
      </trkpt>
      <trkpt lat="42.325072" lon="-8.817566">
        <ele>95.8</ele>
        <time>1970-01-01T01:22:38.000Z</time>
      </trkpt>
      <trkpt lat="42.325067" lon="-8.817567">
        <ele>95.8</ele>
        <time>1970-01-01T01:22:39.000Z</time>
      </trkpt>
      <trkpt lat="42.325062" lon="-8.817569">
        <ele>95.6</ele>
        <time>1970-01-01T01:22:40.000Z</time>
      </trkpt>
      <trkpt lat="42.325057" lon="-8.81757">
        <ele>95.4</ele>
        <time>1970-01-01T01:22:41.000Z</time>
      </trkpt>
      <trkpt lat="42.325052" lon="-8.817572">
        <ele>95.4</ele>
        <time>1970-01-01T01:22:42.000Z</time>
      </trkpt>
      <trkpt lat="42.325045" lon="-8.817575">
        <ele>95.4</ele>
        <time>1970-01-01T01:22:43.000Z</time>
      </trkpt>
      <trkpt lat="42.325039" lon="-8.817575">
        <ele>95.4</ele>
        <time>1970-01-01T01:22:44.000Z</time>
      </trkpt>
      <trkpt lat="42.325034" lon="-8.817576">
        <ele>95.4</ele>
        <time>1970-01-01T01:22:45.000Z</time>
      </trkpt>
      <trkpt lat="42.325026" lon="-8.817579">
        <ele>95.2</ele>
        <time>1970-01-01T01:22:46.000Z</time>
      </trkpt>
      <trkpt lat="42.32502" lon="-8.817573">
        <ele>95.2</ele>
        <time>1970-01-01T01:22:47.000Z</time>
      </trkpt>
      <trkpt lat="42.325014" lon="-8.817568">
        <ele>95.2</ele>
        <time>1970-01-01T01:22:48.000Z</time>
      </trkpt>
      <trkpt lat="42.325009" lon="-8.81757">
        <ele>95.2</ele>
        <time>1970-01-01T01:22:49.000Z</time>
      </trkpt>
      <trkpt lat="42.325004" lon="-8.817573">
        <ele>95.2</ele>
        <time>1970-01-01T01:22:50.000Z</time>
      </trkpt>
      <trkpt lat="42.324994" lon="-8.817582">
        <ele>95.2</ele>
        <time>1970-01-01T01:22:51.000Z</time>
      </trkpt>
      <trkpt lat="42.324991" lon="-8.817585">
        <ele>95.2</ele>
        <time>1970-01-01T01:22:52.000Z</time>
      </trkpt>
      <trkpt lat="42.324989" lon="-8.817585">
        <ele>95.2</ele>
        <time>1970-01-01T01:22:53.000Z</time>
      </trkpt>
      <trkpt lat="42.324988" lon="-8.817584">
        <ele>95.4</ele>
        <time>1970-01-01T01:22:54.000Z</time>
      </trkpt>
      <trkpt lat="42.324983" lon="-8.817584">
        <ele>95.4</ele>
        <time>1970-01-01T01:22:55.000Z</time>
      </trkpt>
      <trkpt lat="42.324978" lon="-8.81758">
        <ele>95.4</ele>
        <time>1970-01-01T01:22:56.000Z</time>
      </trkpt>
      <trkpt lat="42.324976" lon="-8.817575">
        <ele>95.4</ele>
        <time>1970-01-01T01:22:57.000Z</time>
      </trkpt>
      <trkpt lat="42.324973" lon="-8.817574">
        <ele>95.4</ele>
        <time>1970-01-01T01:22:58.000Z</time>
      </trkpt>
      <trkpt lat="42.32497" lon="-8.817575">
        <ele>95.4</ele>
        <time>1970-01-01T01:22:59.000Z</time>
      </trkpt>
      <trkpt lat="42.324967" lon="-8.817573">
        <ele>95.4</ele>
        <time>1970-01-01T01:23:00.000Z</time>
      </trkpt>
      <trkpt lat="42.324964" lon="-8.817575">
        <ele>95.4</ele>
        <time>1970-01-01T01:23:01.000Z</time>
      </trkpt>
      <trkpt lat="42.324962" lon="-8.817579">
        <ele>95.2</ele>
        <time>1970-01-01T01:23:02.000Z</time>
      </trkpt>
      <trkpt lat="42.32496" lon="-8.817584">
        <ele>95.2</ele>
        <time>1970-01-01T01:23:03.000Z</time>
      </trkpt>
      <trkpt lat="42.32496" lon="-8.817583">
        <ele>95</ele>
        <time>1970-01-01T01:23:04.000Z</time>
      </trkpt>
      <trkpt lat="42.324962" lon="-8.817579">
        <ele>95</ele>
        <time>1970-01-01T01:23:05.000Z</time>
      </trkpt>
      <trkpt lat="42.324966" lon="-8.817572">
        <ele>95</ele>
        <time>1970-01-01T01:23:06.000Z</time>
      </trkpt>
      <trkpt lat="42.324968" lon="-8.81757">
        <ele>95</ele>
        <time>1970-01-01T01:23:07.000Z</time>
      </trkpt>
      <trkpt lat="42.324969" lon="-8.817573">
        <ele>95</ele>
        <time>1970-01-01T01:23:08.000Z</time>
      </trkpt>
      <trkpt lat="42.324971" lon="-8.817575">
        <ele>95</ele>
        <time>1970-01-01T01:23:09.000Z</time>
      </trkpt>
      <trkpt lat="42.324972" lon="-8.817581">
        <ele>95</ele>
        <time>1970-01-01T01:23:10.000Z</time>
      </trkpt>
      <trkpt lat="42.324971" lon="-8.817594">
        <ele>95</ele>
        <time>1970-01-01T01:23:11.000Z</time>
      </trkpt>
      <trkpt lat="42.324969" lon="-8.8176">
        <ele>94.8</ele>
        <time>1970-01-01T01:23:12.000Z</time>
      </trkpt>
      <trkpt lat="42.324963" lon="-8.817608">
        <ele>94.6</ele>
        <time>1970-01-01T01:23:13.000Z</time>
      </trkpt>
      <trkpt lat="42.324958" lon="-8.817613">
        <ele>94.6</ele>
        <time>1970-01-01T01:23:14.000Z</time>
      </trkpt>
      <trkpt lat="42.324952" lon="-8.817621">
        <ele>94.4</ele>
        <time>1970-01-01T01:23:15.000Z</time>
      </trkpt>
      <trkpt lat="42.324945" lon="-8.817626">
        <ele>94</ele>
        <time>1970-01-01T01:23:16.000Z</time>
      </trkpt>
      <trkpt lat="42.324936" lon="-8.817635">
        <ele>93.8</ele>
        <time>1970-01-01T01:23:17.000Z</time>
      </trkpt>
      <trkpt lat="42.324931" lon="-8.817641">
        <ele>93.8</ele>
        <time>1970-01-01T01:23:18.000Z</time>
      </trkpt>
      <trkpt lat="42.324924" lon="-8.817647">
        <ele>93.6</ele>
        <time>1970-01-01T01:23:19.000Z</time>
      </trkpt>
      <trkpt lat="42.324916" lon="-8.817655">
        <ele>93.4</ele>
        <time>1970-01-01T01:23:20.000Z</time>
      </trkpt>
      <trkpt lat="42.324907" lon="-8.817665">
        <ele>93.2</ele>
        <time>1970-01-01T01:23:21.000Z</time>
      </trkpt>
      <trkpt lat="42.324897" lon="-8.817676">
        <ele>93.2</ele>
        <time>1970-01-01T01:23:22.000Z</time>
      </trkpt>
      <trkpt lat="42.324888" lon="-8.817691">
        <ele>93</ele>
        <time>1970-01-01T01:23:23.000Z</time>
      </trkpt>
      <trkpt lat="42.32488" lon="-8.817708">
        <ele>92.6</ele>
        <time>1970-01-01T01:23:24.000Z</time>
      </trkpt>
      <trkpt lat="42.324872" lon="-8.817726">
        <ele>92.6</ele>
        <time>1970-01-01T01:23:25.000Z</time>
      </trkpt>
      <trkpt lat="42.324865" lon="-8.817734">
        <ele>92.4</ele>
        <time>1970-01-01T01:23:26.000Z</time>
      </trkpt>
      <trkpt lat="42.324855" lon="-8.817748">
        <ele>92</ele>
        <time>1970-01-01T01:23:27.000Z</time>
      </trkpt>
      <trkpt lat="42.324845" lon="-8.817763">
        <ele>91.6</ele>
        <time>1970-01-01T01:23:28.000Z</time>
      </trkpt>
      <trkpt lat="42.324835" lon="-8.817771">
        <ele>91.4</ele>
        <time>1970-01-01T01:23:29.000Z</time>
      </trkpt>
      <trkpt lat="42.324825" lon="-8.817776">
        <ele>91.4</ele>
        <time>1970-01-01T01:23:30.000Z</time>
      </trkpt>
      <trkpt lat="42.324813" lon="-8.817787">
        <ele>91</ele>
        <time>1970-01-01T01:23:31.000Z</time>
      </trkpt>
      <trkpt lat="42.324799" lon="-8.8178">
        <ele>90.8</ele>
        <time>1970-01-01T01:23:32.000Z</time>
      </trkpt>
      <trkpt lat="42.324788" lon="-8.817808">
        <ele>90.6</ele>
        <time>1970-01-01T01:23:33.000Z</time>
      </trkpt>
      <trkpt lat="42.324776" lon="-8.817813">
        <ele>90</ele>
        <time>1970-01-01T01:23:34.000Z</time>
      </trkpt>
      <trkpt lat="42.324762" lon="-8.817816">
        <ele>89.8</ele>
        <time>1970-01-01T01:23:35.000Z</time>
      </trkpt>
      <trkpt lat="42.324749" lon="-8.817815">
        <ele>89.6</ele>
        <time>1970-01-01T01:23:36.000Z</time>
      </trkpt>
      <trkpt lat="42.324738" lon="-8.817815">
        <ele>89.4</ele>
        <time>1970-01-01T01:23:37.000Z</time>
      </trkpt>
      <trkpt lat="42.324728" lon="-8.817815">
        <ele>89.4</ele>
        <time>1970-01-01T01:23:38.000Z</time>
      </trkpt>
      <trkpt lat="42.324716" lon="-8.817816">
        <ele>89.4</ele>
        <time>1970-01-01T01:23:39.000Z</time>
      </trkpt>
      <trkpt lat="42.324702" lon="-8.817815">
        <ele>89.4</ele>
        <time>1970-01-01T01:23:40.000Z</time>
      </trkpt>
      <trkpt lat="42.324687" lon="-8.817812">
        <ele>89.2</ele>
        <time>1970-01-01T01:23:41.000Z</time>
      </trkpt>
      <trkpt lat="42.324674" lon="-8.817812">
        <ele>89</ele>
        <time>1970-01-01T01:23:42.000Z</time>
      </trkpt>
      <trkpt lat="42.324659" lon="-8.81781">
        <ele>88.8</ele>
        <time>1970-01-01T01:23:43.000Z</time>
      </trkpt>
      <trkpt lat="42.324648" lon="-8.817814">
        <ele>88.2</ele>
        <time>1970-01-01T01:23:44.000Z</time>
      </trkpt>
      <trkpt lat="42.324637" lon="-8.81782">
        <ele>88</ele>
        <time>1970-01-01T01:23:45.000Z</time>
      </trkpt>
      <trkpt lat="42.324629" lon="-8.817828">
        <ele>88</ele>
        <time>1970-01-01T01:23:46.000Z</time>
      </trkpt>
      <trkpt lat="42.324622" lon="-8.817836">
        <ele>87.8</ele>
        <time>1970-01-01T01:23:47.000Z</time>
      </trkpt>
      <trkpt lat="42.324614" lon="-8.817846">
        <ele>87.6</ele>
        <time>1970-01-01T01:23:48.000Z</time>
      </trkpt>
      <trkpt lat="42.324606" lon="-8.817858">
        <ele>87.4</ele>
        <time>1970-01-01T01:23:49.000Z</time>
      </trkpt>
      <trkpt lat="42.324596" lon="-8.817873">
        <ele>87.2</ele>
        <time>1970-01-01T01:23:50.000Z</time>
      </trkpt>
      <trkpt lat="42.324587" lon="-8.817885">
        <ele>87</ele>
        <time>1970-01-01T01:23:51.000Z</time>
      </trkpt>
      <trkpt lat="42.324578" lon="-8.8179">
        <ele>86.8</ele>
        <time>1970-01-01T01:23:52.000Z</time>
      </trkpt>
      <trkpt lat="42.324567" lon="-8.817913">
        <ele>86.6</ele>
        <time>1970-01-01T01:23:53.000Z</time>
      </trkpt>
      <trkpt lat="42.324559" lon="-8.817927">
        <ele>86.6</ele>
        <time>1970-01-01T01:23:54.000Z</time>
      </trkpt>
      <trkpt lat="42.324549" lon="-8.817943">
        <ele>86.6</ele>
        <time>1970-01-01T01:23:55.000Z</time>
      </trkpt>
      <trkpt lat="42.324541" lon="-8.817955">
        <ele>86.4</ele>
        <time>1970-01-01T01:23:56.000Z</time>
      </trkpt>
      <trkpt lat="42.324534" lon="-8.817966">
        <ele>86.2</ele>
        <time>1970-01-01T01:23:57.000Z</time>
      </trkpt>
      <trkpt lat="42.324527" lon="-8.817973">
        <ele>85.8</ele>
        <time>1970-01-01T01:23:58.000Z</time>
      </trkpt>
      <trkpt lat="42.324518" lon="-8.817978">
        <ele>85.6</ele>
        <time>1970-01-01T01:23:59.000Z</time>
      </trkpt>
      <trkpt lat="42.324511" lon="-8.817984">
        <ele>85.6</ele>
        <time>1970-01-01T01:24:00.000Z</time>
      </trkpt>
      <trkpt lat="42.324506" lon="-8.817995">
        <ele>85.4</ele>
        <time>1970-01-01T01:24:01.000Z</time>
      </trkpt>
      <trkpt lat="42.324502" lon="-8.818006">
        <ele>85.2</ele>
        <time>1970-01-01T01:24:02.000Z</time>
      </trkpt>
      <trkpt lat="42.324497" lon="-8.818015">
        <ele>85</ele>
        <time>1970-01-01T01:24:03.000Z</time>
      </trkpt>
      <trkpt lat="42.324487" lon="-8.818022">
        <ele>84.6</ele>
        <time>1970-01-01T01:24:04.000Z</time>
      </trkpt>
      <trkpt lat="42.324476" lon="-8.818031">
        <ele>84.6</ele>
        <time>1970-01-01T01:24:05.000Z</time>
      </trkpt>
      <trkpt lat="42.324463" lon="-8.81804">
        <ele>84</ele>
        <time>1970-01-01T01:24:06.000Z</time>
      </trkpt>
      <trkpt lat="42.324451" lon="-8.818051">
        <ele>83.8</ele>
        <time>1970-01-01T01:24:07.000Z</time>
      </trkpt>
      <trkpt lat="42.32444" lon="-8.818061">
        <ele>83.6</ele>
        <time>1970-01-01T01:24:08.000Z</time>
      </trkpt>
      <trkpt lat="42.324431" lon="-8.818073">
        <ele>83.4</ele>
        <time>1970-01-01T01:24:09.000Z</time>
      </trkpt>
      <trkpt lat="42.32442" lon="-8.818083">
        <ele>83</ele>
        <time>1970-01-01T01:24:10.000Z</time>
      </trkpt>
      <trkpt lat="42.324406" lon="-8.818091">
        <ele>82.6</ele>
        <time>1970-01-01T01:24:11.000Z</time>
      </trkpt>
      <trkpt lat="42.324391" lon="-8.818103">
        <ele>82.4</ele>
        <time>1970-01-01T01:24:12.000Z</time>
      </trkpt>
      <trkpt lat="42.324375" lon="-8.818118">
        <ele>82.2</ele>
        <time>1970-01-01T01:24:13.000Z</time>
      </trkpt>
      <trkpt lat="42.32436" lon="-8.81813">
        <ele>82</ele>
        <time>1970-01-01T01:24:14.000Z</time>
      </trkpt>
      <trkpt lat="42.324348" lon="-8.818146">
        <ele>82</ele>
        <time>1970-01-01T01:24:15.000Z</time>
      </trkpt>
      <trkpt lat="42.324334" lon="-8.818166">
        <ele>81.6</ele>
        <time>1970-01-01T01:24:16.000Z</time>
      </trkpt>
      <trkpt lat="42.324321" lon="-8.818182">
        <ele>81.6</ele>
        <time>1970-01-01T01:24:17.000Z</time>
      </trkpt>
      <trkpt lat="42.324307" lon="-8.818196">
        <ele>81.4</ele>
        <time>1970-01-01T01:24:18.000Z</time>
      </trkpt>
      <trkpt lat="42.324292" lon="-8.818214">
        <ele>81.2</ele>
        <time>1970-01-01T01:24:19.000Z</time>
      </trkpt>
      <trkpt lat="42.324277" lon="-8.81823">
        <ele>81.2</ele>
        <time>1970-01-01T01:24:20.000Z</time>
      </trkpt>
      <trkpt lat="42.324263" lon="-8.818246">
        <ele>81</ele>
        <time>1970-01-01T01:24:21.000Z</time>
      </trkpt>
      <trkpt lat="42.324247" lon="-8.818261">
        <ele>80.8</ele>
        <time>1970-01-01T01:24:22.000Z</time>
      </trkpt>
      <trkpt lat="42.324233" lon="-8.818276">
        <ele>80.8</ele>
        <time>1970-01-01T01:24:23.000Z</time>
      </trkpt>
      <trkpt lat="42.32422" lon="-8.818295">
        <ele>80.6</ele>
        <time>1970-01-01T01:24:24.000Z</time>
      </trkpt>
      <trkpt lat="42.324209" lon="-8.818305">
        <ele>80.4</ele>
        <time>1970-01-01T01:24:25.000Z</time>
      </trkpt>
      <trkpt lat="42.324196" lon="-8.818315">
        <ele>80.4</ele>
        <time>1970-01-01T01:24:26.000Z</time>
      </trkpt>
      <trkpt lat="42.324187" lon="-8.818322">
        <ele>80.4</ele>
        <time>1970-01-01T01:24:27.000Z</time>
      </trkpt>
      <trkpt lat="42.324176" lon="-8.818326">
        <ele>80.2</ele>
        <time>1970-01-01T01:24:28.000Z</time>
      </trkpt>
      <trkpt lat="42.324169" lon="-8.81833">
        <ele>80</ele>
        <time>1970-01-01T01:24:29.000Z</time>
      </trkpt>
      <trkpt lat="42.324162" lon="-8.818334">
        <ele>80</ele>
        <time>1970-01-01T01:24:30.000Z</time>
      </trkpt>
      <trkpt lat="42.324154" lon="-8.818335">
        <ele>79.8</ele>
        <time>1970-01-01T01:24:31.000Z</time>
      </trkpt>
      <trkpt lat="42.324148" lon="-8.818338">
        <ele>79.8</ele>
        <time>1970-01-01T01:24:32.000Z</time>
      </trkpt>
      <trkpt lat="42.324139" lon="-8.818342">
        <ele>79.8</ele>
        <time>1970-01-01T01:24:33.000Z</time>
      </trkpt>
      <trkpt lat="42.324132" lon="-8.818344">
        <ele>79.4</ele>
        <time>1970-01-01T01:24:34.000Z</time>
      </trkpt>
      <trkpt lat="42.324125" lon="-8.818343">
        <ele>78.8</ele>
        <time>1970-01-01T01:24:35.000Z</time>
      </trkpt>
      <trkpt lat="42.324119" lon="-8.818341">
        <ele>78.6</ele>
        <time>1970-01-01T01:24:36.000Z</time>
      </trkpt>
      <trkpt lat="42.324111" lon="-8.818336">
        <ele>78.2</ele>
        <time>1970-01-01T01:24:37.000Z</time>
      </trkpt>
      <trkpt lat="42.324101" lon="-8.818329">
        <ele>78</ele>
        <time>1970-01-01T01:24:38.000Z</time>
      </trkpt>
      <trkpt lat="42.324091" lon="-8.818321">
        <ele>77.6</ele>
        <time>1970-01-01T01:24:39.000Z</time>
      </trkpt>
      <trkpt lat="42.324083" lon="-8.818316">
        <ele>77.4</ele>
        <time>1970-01-01T01:24:40.000Z</time>
      </trkpt>
      <trkpt lat="42.324076" lon="-8.818311">
        <ele>77.2</ele>
        <time>1970-01-01T01:24:41.000Z</time>
      </trkpt>
      <trkpt lat="42.324067" lon="-8.818307">
        <ele>77</ele>
        <time>1970-01-01T01:24:42.000Z</time>
      </trkpt>
      <trkpt lat="42.324058" lon="-8.818304">
        <ele>76.8</ele>
        <time>1970-01-01T01:24:43.000Z</time>
      </trkpt>
      <trkpt lat="42.324046" lon="-8.818305">
        <ele>76.2</ele>
        <time>1970-01-01T01:24:44.000Z</time>
      </trkpt>
      <trkpt lat="42.324036" lon="-8.818301">
        <ele>76</ele>
        <time>1970-01-01T01:24:45.000Z</time>
      </trkpt>
      <trkpt lat="42.324023" lon="-8.818299">
        <ele>75.6</ele>
        <time>1970-01-01T01:24:46.000Z</time>
      </trkpt>
      <trkpt lat="42.324009" lon="-8.818299">
        <ele>75.4</ele>
        <time>1970-01-01T01:24:47.000Z</time>
      </trkpt>
      <trkpt lat="42.323996" lon="-8.8183">
        <ele>74.8</ele>
        <time>1970-01-01T01:24:48.000Z</time>
      </trkpt>
      <trkpt lat="42.32398" lon="-8.818305">
        <ele>74.4</ele>
        <time>1970-01-01T01:24:49.000Z</time>
      </trkpt>
      <trkpt lat="42.323966" lon="-8.818308">
        <ele>74.2</ele>
        <time>1970-01-01T01:24:50.000Z</time>
      </trkpt>
      <trkpt lat="42.323954" lon="-8.818314">
        <ele>73.8</ele>
        <time>1970-01-01T01:24:51.000Z</time>
      </trkpt>
      <trkpt lat="42.323942" lon="-8.818321">
        <ele>73.4</ele>
        <time>1970-01-01T01:24:52.000Z</time>
      </trkpt>
      <trkpt lat="42.323931" lon="-8.818328">
        <ele>73.2</ele>
        <time>1970-01-01T01:24:53.000Z</time>
      </trkpt>
      <trkpt lat="42.323921" lon="-8.818336">
        <ele>73</ele>
        <time>1970-01-01T01:24:54.000Z</time>
      </trkpt>
      <trkpt lat="42.323911" lon="-8.818346">
        <ele>73</ele>
        <time>1970-01-01T01:24:55.000Z</time>
      </trkpt>
      <trkpt lat="42.323901" lon="-8.818352">
        <ele>72.6</ele>
        <time>1970-01-01T01:24:56.000Z</time>
      </trkpt>
      <trkpt lat="42.32389" lon="-8.818358">
        <ele>72.4</ele>
        <time>1970-01-01T01:24:57.000Z</time>
      </trkpt>
      <trkpt lat="42.323882" lon="-8.818364">
        <ele>71.8</ele>
        <time>1970-01-01T01:24:58.000Z</time>
      </trkpt>
      <trkpt lat="42.323873" lon="-8.818367">
        <ele>71.4</ele>
        <time>1970-01-01T01:24:59.000Z</time>
      </trkpt>
      <trkpt lat="42.323867" lon="-8.818377">
        <ele>71</ele>
        <time>1970-01-01T01:25:00.000Z</time>
      </trkpt>
      <trkpt lat="42.323861" lon="-8.818387">
        <ele>70.6</ele>
        <time>1970-01-01T01:25:01.000Z</time>
      </trkpt>
      <trkpt lat="42.323853" lon="-8.818397">
        <ele>70.4</ele>
        <time>1970-01-01T01:25:02.000Z</time>
      </trkpt>
      <trkpt lat="42.32384" lon="-8.818417">
        <ele>70.4</ele>
        <time>1970-01-01T01:25:03.000Z</time>
      </trkpt>
      <trkpt lat="42.32383" lon="-8.818429">
        <ele>70.4</ele>
        <time>1970-01-01T01:25:04.000Z</time>
      </trkpt>
      <trkpt lat="42.323819" lon="-8.81844">
        <ele>70</ele>
        <time>1970-01-01T01:25:05.000Z</time>
      </trkpt>
      <trkpt lat="42.323809" lon="-8.81845">
        <ele>70</ele>
        <time>1970-01-01T01:25:06.000Z</time>
      </trkpt>
      <trkpt lat="42.3238" lon="-8.818458">
        <ele>69.8</ele>
        <time>1970-01-01T01:25:07.000Z</time>
      </trkpt>
      <trkpt lat="42.32379" lon="-8.818467">
        <ele>69.8</ele>
        <time>1970-01-01T01:25:08.000Z</time>
      </trkpt>
      <trkpt lat="42.323782" lon="-8.818475">
        <ele>69.6</ele>
        <time>1970-01-01T01:25:09.000Z</time>
      </trkpt>
      <trkpt lat="42.323773" lon="-8.818482">
        <ele>69.6</ele>
        <time>1970-01-01T01:25:10.000Z</time>
      </trkpt>
      <trkpt lat="42.323763" lon="-8.81849">
        <ele>69.4</ele>
        <time>1970-01-01T01:25:11.000Z</time>
      </trkpt>
      <trkpt lat="42.323754" lon="-8.818496">
        <ele>69.4</ele>
        <time>1970-01-01T01:25:12.000Z</time>
      </trkpt>
      <trkpt lat="42.323743" lon="-8.818505">
        <ele>69.2</ele>
        <time>1970-01-01T01:25:13.000Z</time>
      </trkpt>
      <trkpt lat="42.323731" lon="-8.818513">
        <ele>69</ele>
        <time>1970-01-01T01:25:14.000Z</time>
      </trkpt>
      <trkpt lat="42.323722" lon="-8.818524">
        <ele>69</ele>
        <time>1970-01-01T01:25:15.000Z</time>
      </trkpt>
      <trkpt lat="42.323709" lon="-8.818533">
        <ele>68.8</ele>
        <time>1970-01-01T01:25:16.000Z</time>
      </trkpt>
      <trkpt lat="42.323694" lon="-8.818538">
        <ele>68.4</ele>
        <time>1970-01-01T01:25:17.000Z</time>
      </trkpt>
      <trkpt lat="42.323681" lon="-8.818544">
        <ele>68.2</ele>
        <time>1970-01-01T01:25:18.000Z</time>
      </trkpt>
      <trkpt lat="42.32367" lon="-8.818549">
        <ele>67.8</ele>
        <time>1970-01-01T01:25:19.000Z</time>
      </trkpt>
      <trkpt lat="42.323661" lon="-8.818553">
        <ele>67.6</ele>
        <time>1970-01-01T01:25:20.000Z</time>
      </trkpt>
      <trkpt lat="42.323652" lon="-8.818557">
        <ele>67.4</ele>
        <time>1970-01-01T01:25:21.000Z</time>
      </trkpt>
      <trkpt lat="42.323646" lon="-8.818562">
        <ele>67</ele>
        <time>1970-01-01T01:25:22.000Z</time>
      </trkpt>
      <trkpt lat="42.32364" lon="-8.818567">
        <ele>66.8</ele>
        <time>1970-01-01T01:25:23.000Z</time>
      </trkpt>
      <trkpt lat="42.323634" lon="-8.818571">
        <ele>66.8</ele>
        <time>1970-01-01T01:25:24.000Z</time>
      </trkpt>
      <trkpt lat="42.323629" lon="-8.818573">
        <ele>66.6</ele>
        <time>1970-01-01T01:25:25.000Z</time>
      </trkpt>
      <trkpt lat="42.323624" lon="-8.818574">
        <ele>66.4</ele>
        <time>1970-01-01T01:25:26.000Z</time>
      </trkpt>
      <trkpt lat="42.323616" lon="-8.818571">
        <ele>66.2</ele>
        <time>1970-01-01T01:25:27.000Z</time>
      </trkpt>
      <trkpt lat="42.323609" lon="-8.818565">
        <ele>66</ele>
        <time>1970-01-01T01:25:28.000Z</time>
      </trkpt>
      <trkpt lat="42.323602" lon="-8.818555">
        <ele>65.6</ele>
        <time>1970-01-01T01:25:29.000Z</time>
      </trkpt>
      <trkpt lat="42.323594" lon="-8.818543">
        <ele>65</ele>
        <time>1970-01-01T01:25:30.000Z</time>
      </trkpt>
      <trkpt lat="42.323587" lon="-8.818537">
        <ele>64.6</ele>
        <time>1970-01-01T01:25:31.000Z</time>
      </trkpt>
      <trkpt lat="42.323581" lon="-8.818537">
        <ele>64.4</ele>
        <time>1970-01-01T01:25:32.000Z</time>
      </trkpt>
      <trkpt lat="42.323573" lon="-8.818538">
        <ele>64</ele>
        <time>1970-01-01T01:25:33.000Z</time>
      </trkpt>
      <trkpt lat="42.323565" lon="-8.818541">
        <ele>63.6</ele>
        <time>1970-01-01T01:25:34.000Z</time>
      </trkpt>
      <trkpt lat="42.323554" lon="-8.818545">
        <ele>63.2</ele>
        <time>1970-01-01T01:25:35.000Z</time>
      </trkpt>
      <trkpt lat="42.323545" lon="-8.818548">
        <ele>62.8</ele>
        <time>1970-01-01T01:25:36.000Z</time>
      </trkpt>
      <trkpt lat="42.323533" lon="-8.818556">
        <ele>62.6</ele>
        <time>1970-01-01T01:25:37.000Z</time>
      </trkpt>
      <trkpt lat="42.323522" lon="-8.818568">
        <ele>62.4</ele>
        <time>1970-01-01T01:25:38.000Z</time>
      </trkpt>
      <trkpt lat="42.323511" lon="-8.818576">
        <ele>62.2</ele>
        <time>1970-01-01T01:25:39.000Z</time>
      </trkpt>
      <trkpt lat="42.323499" lon="-8.818587">
        <ele>62</ele>
        <time>1970-01-01T01:25:40.000Z</time>
      </trkpt>
      <trkpt lat="42.323488" lon="-8.8186">
        <ele>61.6</ele>
        <time>1970-01-01T01:25:41.000Z</time>
      </trkpt>
      <trkpt lat="42.323476" lon="-8.818614">
        <ele>61.6</ele>
        <time>1970-01-01T01:25:42.000Z</time>
      </trkpt>
      <trkpt lat="42.323466" lon="-8.818624">
        <ele>61.2</ele>
        <time>1970-01-01T01:25:43.000Z</time>
      </trkpt>
      <trkpt lat="42.323454" lon="-8.818633">
        <ele>61</ele>
        <time>1970-01-01T01:25:44.000Z</time>
      </trkpt>
      <trkpt lat="42.323445" lon="-8.818643">
        <ele>60.6</ele>
        <time>1970-01-01T01:25:45.000Z</time>
      </trkpt>
      <trkpt lat="42.323434" lon="-8.818653">
        <ele>60.6</ele>
        <time>1970-01-01T01:25:46.000Z</time>
      </trkpt>
      <trkpt lat="42.323425" lon="-8.818667">
        <ele>60.2</ele>
        <time>1970-01-01T01:25:47.000Z</time>
      </trkpt>
      <trkpt lat="42.323416" lon="-8.818681">
        <ele>60</ele>
        <time>1970-01-01T01:25:48.000Z</time>
      </trkpt>
      <trkpt lat="42.323407" lon="-8.81869">
        <ele>59.6</ele>
        <time>1970-01-01T01:25:49.000Z</time>
      </trkpt>
      <trkpt lat="42.323399" lon="-8.818695">
        <ele>59.4</ele>
        <time>1970-01-01T01:25:50.000Z</time>
      </trkpt>
      <trkpt lat="42.323389" lon="-8.8187">
        <ele>59.2</ele>
        <time>1970-01-01T01:25:51.000Z</time>
      </trkpt>
      <trkpt lat="42.323379" lon="-8.818705">
        <ele>59</ele>
        <time>1970-01-01T01:25:52.000Z</time>
      </trkpt>
      <trkpt lat="42.323368" lon="-8.818711">
        <ele>59</ele>
        <time>1970-01-01T01:25:53.000Z</time>
      </trkpt>
      <trkpt lat="42.323357" lon="-8.818719">
        <ele>58.6</ele>
        <time>1970-01-01T01:25:54.000Z</time>
      </trkpt>
      <trkpt lat="42.323348" lon="-8.818728">
        <ele>58.2</ele>
        <time>1970-01-01T01:25:55.000Z</time>
      </trkpt>
      <trkpt lat="42.323341" lon="-8.818735">
        <ele>58</ele>
        <time>1970-01-01T01:25:56.000Z</time>
      </trkpt>
      <trkpt lat="42.323332" lon="-8.818741">
        <ele>57.6</ele>
        <time>1970-01-01T01:25:57.000Z</time>
      </trkpt>
      <trkpt lat="42.323324" lon="-8.818747">
        <ele>57.4</ele>
        <time>1970-01-01T01:25:58.000Z</time>
      </trkpt>
      <trkpt lat="42.323316" lon="-8.818753">
        <ele>57.4</ele>
        <time>1970-01-01T01:25:59.000Z</time>
      </trkpt>
      <trkpt lat="42.323309" lon="-8.81876">
        <ele>57.2</ele>
        <time>1970-01-01T01:26:00.000Z</time>
      </trkpt>
      <trkpt lat="42.323302" lon="-8.818768">
        <ele>57.4</ele>
        <time>1970-01-01T01:26:01.000Z</time>
      </trkpt>
      <trkpt lat="42.323295" lon="-8.818776">
        <ele>57.4</ele>
        <time>1970-01-01T01:26:02.000Z</time>
      </trkpt>
      <trkpt lat="42.323285" lon="-8.818786">
        <ele>57.4</ele>
        <time>1970-01-01T01:26:03.000Z</time>
      </trkpt>
      <trkpt lat="42.323275" lon="-8.818797">
        <ele>57.2</ele>
        <time>1970-01-01T01:26:04.000Z</time>
      </trkpt>
      <trkpt lat="42.323264" lon="-8.81881">
        <ele>57</ele>
        <time>1970-01-01T01:26:05.000Z</time>
      </trkpt>
      <trkpt lat="42.323254" lon="-8.818826">
        <ele>56.6</ele>
        <time>1970-01-01T01:26:06.000Z</time>
      </trkpt>
      <trkpt lat="42.323246" lon="-8.818842">
        <ele>56.2</ele>
        <time>1970-01-01T01:26:07.000Z</time>
      </trkpt>
      <trkpt lat="42.323238" lon="-8.818857">
        <ele>56</ele>
        <time>1970-01-01T01:26:08.000Z</time>
      </trkpt>
      <trkpt lat="42.323229" lon="-8.818871">
        <ele>55.8</ele>
        <time>1970-01-01T01:26:09.000Z</time>
      </trkpt>
      <trkpt lat="42.323222" lon="-8.818889">
        <ele>55.8</ele>
        <time>1970-01-01T01:26:10.000Z</time>
      </trkpt>
      <trkpt lat="42.323216" lon="-8.818903">
        <ele>55.6</ele>
        <time>1970-01-01T01:26:11.000Z</time>
      </trkpt>
      <trkpt lat="42.32321" lon="-8.818915">
        <ele>55.4</ele>
        <time>1970-01-01T01:26:12.000Z</time>
      </trkpt>
      <trkpt lat="42.323205" lon="-8.818929">
        <ele>55.4</ele>
        <time>1970-01-01T01:26:13.000Z</time>
      </trkpt>
      <trkpt lat="42.323199" lon="-8.818939">
        <ele>55.2</ele>
        <time>1970-01-01T01:26:14.000Z</time>
      </trkpt>
      <trkpt lat="42.32319" lon="-8.818946">
        <ele>55</ele>
        <time>1970-01-01T01:26:15.000Z</time>
      </trkpt>
      <trkpt lat="42.323182" lon="-8.818952">
        <ele>54.4</ele>
        <time>1970-01-01T01:26:16.000Z</time>
      </trkpt>
      <trkpt lat="42.323178" lon="-8.818956">
        <ele>54</ele>
        <time>1970-01-01T01:26:17.000Z</time>
      </trkpt>
      <trkpt lat="42.323175" lon="-8.818954">
        <ele>53.8</ele>
        <time>1970-01-01T01:26:18.000Z</time>
      </trkpt>
      <trkpt lat="42.323173" lon="-8.818949">
        <ele>53.8</ele>
        <time>1970-01-01T01:26:19.000Z</time>
      </trkpt>
      <trkpt lat="42.32317" lon="-8.818941">
        <ele>53.6</ele>
        <time>1970-01-01T01:26:20.000Z</time>
      </trkpt>
      <trkpt lat="42.323168" lon="-8.818943">
        <ele>53.6</ele>
        <time>1970-01-01T01:26:21.000Z</time>
      </trkpt>
      <trkpt lat="42.323169" lon="-8.818939">
        <ele>53.6</ele>
        <time>1970-01-01T01:26:22.000Z</time>
      </trkpt>
      <trkpt lat="42.323177" lon="-8.818927">
        <ele>53.6</ele>
        <time>1970-01-01T01:26:23.000Z</time>
      </trkpt>
      <trkpt lat="42.323186" lon="-8.818915">
        <ele>53.4</ele>
        <time>1970-01-01T01:26:24.000Z</time>
      </trkpt>
      <trkpt lat="42.323191" lon="-8.818904">
        <ele>53.4</ele>
        <time>1970-01-01T01:26:25.000Z</time>
      </trkpt>
      <trkpt lat="42.323198" lon="-8.818887">
        <ele>53.4</ele>
        <time>1970-01-01T01:26:26.000Z</time>
      </trkpt>
      <trkpt lat="42.323206" lon="-8.818866">
        <ele>53.6</ele>
        <time>1970-01-01T01:26:27.000Z</time>
      </trkpt>
      <trkpt lat="42.323212" lon="-8.818843">
        <ele>53.6</ele>
        <time>1970-01-01T01:26:28.000Z</time>
      </trkpt>
      <trkpt lat="42.32322" lon="-8.818818">
        <ele>53.8</ele>
        <time>1970-01-01T01:26:29.000Z</time>
      </trkpt>
      <trkpt lat="42.323225" lon="-8.818795">
        <ele>53.8</ele>
        <time>1970-01-01T01:26:30.000Z</time>
      </trkpt>
      <trkpt lat="42.323229" lon="-8.818776">
        <ele>53.8</ele>
        <time>1970-01-01T01:26:31.000Z</time>
      </trkpt>
      <trkpt lat="42.323231" lon="-8.818762">
        <ele>54</ele>
        <time>1970-01-01T01:26:32.000Z</time>
      </trkpt>
      <trkpt lat="42.32323" lon="-8.818749">
        <ele>54.2</ele>
        <time>1970-01-01T01:26:33.000Z</time>
      </trkpt>
      <trkpt lat="42.323231" lon="-8.81874">
        <ele>54.2</ele>
        <time>1970-01-01T01:26:34.000Z</time>
      </trkpt>
      <trkpt lat="42.323232" lon="-8.818732">
        <ele>54.2</ele>
        <time>1970-01-01T01:26:35.000Z</time>
      </trkpt>
      <trkpt lat="42.323231" lon="-8.818723">
        <ele>54.2</ele>
        <time>1970-01-01T01:26:36.000Z</time>
      </trkpt>
      <trkpt lat="42.323232" lon="-8.818715">
        <ele>54.4</ele>
        <time>1970-01-01T01:26:37.000Z</time>
      </trkpt>
      <trkpt lat="42.323228" lon="-8.818703">
        <ele>54.6</ele>
        <time>1970-01-01T01:26:38.000Z</time>
      </trkpt>
      <trkpt lat="42.323227" lon="-8.818691">
        <ele>54.6</ele>
        <time>1970-01-01T01:26:39.000Z</time>
      </trkpt>
      <trkpt lat="42.323227" lon="-8.81868">
        <ele>54.8</ele>
        <time>1970-01-01T01:26:40.000Z</time>
      </trkpt>
      <trkpt lat="42.323224" lon="-8.81867">
        <ele>54.8</ele>
        <time>1970-01-01T01:26:41.000Z</time>
      </trkpt>
      <trkpt lat="42.323219" lon="-8.81866">
        <ele>54.8</ele>
        <time>1970-01-01T01:26:42.000Z</time>
      </trkpt>
      <trkpt lat="42.323218" lon="-8.818649">
        <ele>55</ele>
        <time>1970-01-01T01:26:43.000Z</time>
      </trkpt>
      <trkpt lat="42.323214" lon="-8.818639">
        <ele>55.2</ele>
        <time>1970-01-01T01:26:44.000Z</time>
      </trkpt>
      <trkpt lat="42.323212" lon="-8.818629">
        <ele>55.2</ele>
        <time>1970-01-01T01:26:45.000Z</time>
      </trkpt>
      <trkpt lat="42.323207" lon="-8.81862">
        <ele>55.4</ele>
        <time>1970-01-01T01:26:46.000Z</time>
      </trkpt>
      <trkpt lat="42.323202" lon="-8.818612">
        <ele>55.6</ele>
        <time>1970-01-01T01:26:47.000Z</time>
      </trkpt>
      <trkpt lat="42.323197" lon="-8.818602">
        <ele>56</ele>
        <time>1970-01-01T01:26:48.000Z</time>
      </trkpt>
      <trkpt lat="42.32319" lon="-8.818588">
        <ele>56.2</ele>
        <time>1970-01-01T01:26:49.000Z</time>
      </trkpt>
      <trkpt lat="42.32318" lon="-8.818576">
        <ele>56.6</ele>
        <time>1970-01-01T01:26:50.000Z</time>
      </trkpt>
      <trkpt lat="42.32317" lon="-8.818563">
        <ele>56.6</ele>
        <time>1970-01-01T01:26:51.000Z</time>
      </trkpt>
      <trkpt lat="42.323162" lon="-8.818552">
        <ele>57.2</ele>
        <time>1970-01-01T01:26:52.000Z</time>
      </trkpt>
      <trkpt lat="42.323155" lon="-8.81854">
        <ele>57.4</ele>
        <time>1970-01-01T01:26:53.000Z</time>
      </trkpt>
      <trkpt lat="42.323147" lon="-8.818533">
        <ele>57.6</ele>
        <time>1970-01-01T01:26:54.000Z</time>
      </trkpt>
      <trkpt lat="42.323138" lon="-8.818525">
        <ele>57.8</ele>
        <time>1970-01-01T01:26:55.000Z</time>
      </trkpt>
      <trkpt lat="42.323128" lon="-8.818514">
        <ele>58.2</ele>
        <time>1970-01-01T01:26:56.000Z</time>
      </trkpt>
      <trkpt lat="42.323118" lon="-8.818505">
        <ele>58.4</ele>
        <time>1970-01-01T01:26:57.000Z</time>
      </trkpt>
      <trkpt lat="42.323107" lon="-8.818493">
        <ele>58.4</ele>
        <time>1970-01-01T01:26:58.000Z</time>
      </trkpt>
      <trkpt lat="42.323093" lon="-8.818477">
        <ele>58.6</ele>
        <time>1970-01-01T01:26:59.000Z</time>
      </trkpt>
      <trkpt lat="42.323084" lon="-8.818474">
        <ele>58.6</ele>
        <time>1970-01-01T01:27:00.000Z</time>
      </trkpt>
      <trkpt lat="42.323073" lon="-8.818467">
        <ele>58.6</ele>
        <time>1970-01-01T01:27:01.000Z</time>
      </trkpt>
      <trkpt lat="42.323061" lon="-8.818459">
        <ele>58.8</ele>
        <time>1970-01-01T01:27:02.000Z</time>
      </trkpt>
      <trkpt lat="42.32305" lon="-8.818451">
        <ele>59</ele>
        <time>1970-01-01T01:27:03.000Z</time>
      </trkpt>
      <trkpt lat="42.32304" lon="-8.818441">
        <ele>59.2</ele>
        <time>1970-01-01T01:27:04.000Z</time>
      </trkpt>
      <trkpt lat="42.323032" lon="-8.818435">
        <ele>59.2</ele>
        <time>1970-01-01T01:27:05.000Z</time>
      </trkpt>
      <trkpt lat="42.323021" lon="-8.818425">
        <ele>59.4</ele>
        <time>1970-01-01T01:27:06.000Z</time>
      </trkpt>
      <trkpt lat="42.323012" lon="-8.818424">
        <ele>59.6</ele>
        <time>1970-01-01T01:27:07.000Z</time>
      </trkpt>
      <trkpt lat="42.323001" lon="-8.81842">
        <ele>59.8</ele>
        <time>1970-01-01T01:27:08.000Z</time>
      </trkpt>
      <trkpt lat="42.322993" lon="-8.818412">
        <ele>59.8</ele>
        <time>1970-01-01T01:27:09.000Z</time>
      </trkpt>
      <trkpt lat="42.322984" lon="-8.818402">
        <ele>59.6</ele>
        <time>1970-01-01T01:27:10.000Z</time>
      </trkpt>
      <trkpt lat="42.322978" lon="-8.818397">
        <ele>59.8</ele>
        <time>1970-01-01T01:27:11.000Z</time>
      </trkpt>
      <trkpt lat="42.322973" lon="-8.818393">
        <ele>60</ele>
        <time>1970-01-01T01:27:12.000Z</time>
      </trkpt>
      <trkpt lat="42.322966" lon="-8.818391">
        <ele>60.4</ele>
        <time>1970-01-01T01:27:13.000Z</time>
      </trkpt>
      <trkpt lat="42.322957" lon="-8.818388">
        <ele>60.8</ele>
        <time>1970-01-01T01:27:14.000Z</time>
      </trkpt>
      <trkpt lat="42.322945" lon="-8.818384">
        <ele>61.2</ele>
        <time>1970-01-01T01:27:15.000Z</time>
      </trkpt>
      <trkpt lat="42.322932" lon="-8.818376">
        <ele>61.4</ele>
        <time>1970-01-01T01:27:16.000Z</time>
      </trkpt>
      <trkpt lat="42.322919" lon="-8.818371">
        <ele>61.4</ele>
        <time>1970-01-01T01:27:17.000Z</time>
      </trkpt>
      <trkpt lat="42.322907" lon="-8.818366">
        <ele>61.6</ele>
        <time>1970-01-01T01:27:18.000Z</time>
      </trkpt>
      <trkpt lat="42.322896" lon="-8.818362">
        <ele>61.8</ele>
        <time>1970-01-01T01:27:19.000Z</time>
      </trkpt>
      <trkpt lat="42.322887" lon="-8.81836">
        <ele>61.8</ele>
        <time>1970-01-01T01:27:20.000Z</time>
      </trkpt>
      <trkpt lat="42.322879" lon="-8.818356">
        <ele>61.8</ele>
        <time>1970-01-01T01:27:21.000Z</time>
      </trkpt>
      <trkpt lat="42.322872" lon="-8.818348">
        <ele>62</ele>
        <time>1970-01-01T01:27:22.000Z</time>
      </trkpt>
      <trkpt lat="42.322862" lon="-8.818339">
        <ele>62.2</ele>
        <time>1970-01-01T01:27:23.000Z</time>
      </trkpt>
      <trkpt lat="42.322854" lon="-8.818334">
        <ele>62.4</ele>
        <time>1970-01-01T01:27:24.000Z</time>
      </trkpt>
      <trkpt lat="42.322843" lon="-8.818323">
        <ele>62.4</ele>
        <time>1970-01-01T01:27:25.000Z</time>
      </trkpt>
      <trkpt lat="42.322836" lon="-8.818312">
        <ele>62.6</ele>
        <time>1970-01-01T01:27:26.000Z</time>
      </trkpt>
      <trkpt lat="42.322834" lon="-8.818301">
        <ele>62.8</ele>
        <time>1970-01-01T01:27:27.000Z</time>
      </trkpt>
      <trkpt lat="42.322829" lon="-8.818293">
        <ele>63</ele>
        <time>1970-01-01T01:27:28.000Z</time>
      </trkpt>
      <trkpt lat="42.322822" lon="-8.818283">
        <ele>63.2</ele>
        <time>1970-01-01T01:27:29.000Z</time>
      </trkpt>
      <trkpt lat="42.322813" lon="-8.81827">
        <ele>63.2</ele>
        <time>1970-01-01T01:27:30.000Z</time>
      </trkpt>
      <trkpt lat="42.322805" lon="-8.818259">
        <ele>63.4</ele>
        <time>1970-01-01T01:27:31.000Z</time>
      </trkpt>
      <trkpt lat="42.322795" lon="-8.818247">
        <ele>63.4</ele>
        <time>1970-01-01T01:27:32.000Z</time>
      </trkpt>
      <trkpt lat="42.322784" lon="-8.818235">
        <ele>63.4</ele>
        <time>1970-01-01T01:27:33.000Z</time>
      </trkpt>
      <trkpt lat="42.322776" lon="-8.818225">
        <ele>63.8</ele>
        <time>1970-01-01T01:27:34.000Z</time>
      </trkpt>
      <trkpt lat="42.322767" lon="-8.818216">
        <ele>64</ele>
        <time>1970-01-01T01:27:35.000Z</time>
      </trkpt>
      <trkpt lat="42.322758" lon="-8.818205">
        <ele>64.2</ele>
        <time>1970-01-01T01:27:36.000Z</time>
      </trkpt>
      <trkpt lat="42.322749" lon="-8.818194">
        <ele>64.2</ele>
        <time>1970-01-01T01:27:37.000Z</time>
      </trkpt>
      <trkpt lat="42.322742" lon="-8.818183">
        <ele>64.2</ele>
        <time>1970-01-01T01:27:38.000Z</time>
      </trkpt>
      <trkpt lat="42.322734" lon="-8.818173">
        <ele>64.2</ele>
        <time>1970-01-01T01:27:39.000Z</time>
      </trkpt>
      <trkpt lat="42.322723" lon="-8.818167">
        <ele>64.4</ele>
        <time>1970-01-01T01:27:40.000Z</time>
      </trkpt>
      <trkpt lat="42.32271" lon="-8.818161">
        <ele>64.4</ele>
        <time>1970-01-01T01:27:41.000Z</time>
      </trkpt>
      <trkpt lat="42.322699" lon="-8.818158">
        <ele>64.4</ele>
        <time>1970-01-01T01:27:42.000Z</time>
      </trkpt>
      <trkpt lat="42.32269" lon="-8.818155">
        <ele>64.4</ele>
        <time>1970-01-01T01:27:43.000Z</time>
      </trkpt>
      <trkpt lat="42.322681" lon="-8.818152">
        <ele>64.4</ele>
        <time>1970-01-01T01:27:44.000Z</time>
      </trkpt>
      <trkpt lat="42.322673" lon="-8.81815">
        <ele>64.4</ele>
        <time>1970-01-01T01:27:45.000Z</time>
      </trkpt>
      <trkpt lat="42.322665" lon="-8.818147">
        <ele>64.4</ele>
        <time>1970-01-01T01:27:46.000Z</time>
      </trkpt>
      <trkpt lat="42.322656" lon="-8.818143">
        <ele>64.4</ele>
        <time>1970-01-01T01:27:47.000Z</time>
      </trkpt>
      <trkpt lat="42.322647" lon="-8.818139">
        <ele>64.2</ele>
        <time>1970-01-01T01:27:48.000Z</time>
      </trkpt>
      <trkpt lat="42.322636" lon="-8.818137">
        <ele>64.2</ele>
        <time>1970-01-01T01:27:49.000Z</time>
      </trkpt>
      <trkpt lat="42.322626" lon="-8.818132">
        <ele>64.2</ele>
        <time>1970-01-01T01:27:50.000Z</time>
      </trkpt>
      <trkpt lat="42.322615" lon="-8.818126">
        <ele>64.4</ele>
        <time>1970-01-01T01:27:51.000Z</time>
      </trkpt>
      <trkpt lat="42.322604" lon="-8.818112">
        <ele>64.6</ele>
        <time>1970-01-01T01:27:52.000Z</time>
      </trkpt>
      <trkpt lat="42.322592" lon="-8.818096">
        <ele>64.8</ele>
        <time>1970-01-01T01:27:53.000Z</time>
      </trkpt>
      <trkpt lat="42.32258" lon="-8.818083">
        <ele>64.8</ele>
        <time>1970-01-01T01:27:54.000Z</time>
      </trkpt>
      <trkpt lat="42.322572" lon="-8.818068">
        <ele>65</ele>
        <time>1970-01-01T01:27:55.000Z</time>
      </trkpt>
      <trkpt lat="42.322558" lon="-8.818063">
        <ele>65</ele>
        <time>1970-01-01T01:27:56.000Z</time>
      </trkpt>
      <trkpt lat="42.322549" lon="-8.818045">
        <ele>65</ele>
        <time>1970-01-01T01:27:57.000Z</time>
      </trkpt>
      <trkpt lat="42.322541" lon="-8.81803">
        <ele>65</ele>
        <time>1970-01-01T01:27:58.000Z</time>
      </trkpt>
      <trkpt lat="42.322535" lon="-8.818016">
        <ele>65.2</ele>
        <time>1970-01-01T01:27:59.000Z</time>
      </trkpt>
      <trkpt lat="42.322528" lon="-8.818003">
        <ele>65.2</ele>
        <time>1970-01-01T01:28:00.000Z</time>
      </trkpt>
      <trkpt lat="42.322523" lon="-8.817985">
        <ele>65.2</ele>
        <time>1970-01-01T01:28:01.000Z</time>
      </trkpt>
      <trkpt lat="42.322521" lon="-8.81797">
        <ele>65.2</ele>
        <time>1970-01-01T01:28:02.000Z</time>
      </trkpt>
      <trkpt lat="42.322521" lon="-8.817948">
        <ele>65.2</ele>
        <time>1970-01-01T01:28:03.000Z</time>
      </trkpt>
      <trkpt lat="42.32252" lon="-8.817927">
        <ele>65.4</ele>
        <time>1970-01-01T01:28:04.000Z</time>
      </trkpt>
      <trkpt lat="42.322519" lon="-8.817906">
        <ele>65.6</ele>
        <time>1970-01-01T01:28:05.000Z</time>
      </trkpt>
      <trkpt lat="42.322516" lon="-8.817887">
        <ele>65.6</ele>
        <time>1970-01-01T01:28:06.000Z</time>
      </trkpt>
      <trkpt lat="42.322512" lon="-8.81787">
        <ele>65.8</ele>
        <time>1970-01-01T01:28:07.000Z</time>
      </trkpt>
      <trkpt lat="42.322509" lon="-8.817858">
        <ele>65.8</ele>
        <time>1970-01-01T01:28:08.000Z</time>
      </trkpt>
      <trkpt lat="42.322507" lon="-8.817844">
        <ele>66</ele>
        <time>1970-01-01T01:28:09.000Z</time>
      </trkpt>
      <trkpt lat="42.322504" lon="-8.817826">
        <ele>66</ele>
        <time>1970-01-01T01:28:10.000Z</time>
      </trkpt>
      <trkpt lat="42.322501" lon="-8.817813">
        <ele>66</ele>
        <time>1970-01-01T01:28:11.000Z</time>
      </trkpt>
      <trkpt lat="42.322497" lon="-8.817805">
        <ele>66</ele>
        <time>1970-01-01T01:28:12.000Z</time>
      </trkpt>
      <trkpt lat="42.322491" lon="-8.817796">
        <ele>66</ele>
        <time>1970-01-01T01:28:13.000Z</time>
      </trkpt>
      <trkpt lat="42.322486" lon="-8.817788">
        <ele>65.8</ele>
        <time>1970-01-01T01:28:14.000Z</time>
      </trkpt>
      <trkpt lat="42.322477" lon="-8.817786">
        <ele>65.6</ele>
        <time>1970-01-01T01:28:15.000Z</time>
      </trkpt>
      <trkpt lat="42.322466" lon="-8.817786">
        <ele>65.6</ele>
        <time>1970-01-01T01:28:16.000Z</time>
      </trkpt>
      <trkpt lat="42.322453" lon="-8.81779">
        <ele>65.6</ele>
        <time>1970-01-01T01:28:17.000Z</time>
      </trkpt>
      <trkpt lat="42.322442" lon="-8.817793">
        <ele>65.4</ele>
        <time>1970-01-01T01:28:18.000Z</time>
      </trkpt>
      <trkpt lat="42.32243" lon="-8.817795">
        <ele>65.8</ele>
        <time>1970-01-01T01:28:19.000Z</time>
      </trkpt>
      <trkpt lat="42.322415" lon="-8.817792">
        <ele>65.8</ele>
        <time>1970-01-01T01:28:20.000Z</time>
      </trkpt>
      <trkpt lat="42.322402" lon="-8.817785">
        <ele>66</ele>
        <time>1970-01-01T01:28:21.000Z</time>
      </trkpt>
      <trkpt lat="42.322388" lon="-8.817773">
        <ele>66</ele>
        <time>1970-01-01T01:28:22.000Z</time>
      </trkpt>
      <trkpt lat="42.322373" lon="-8.81777">
        <ele>66</ele>
        <time>1970-01-01T01:28:23.000Z</time>
      </trkpt>
      <trkpt lat="42.32236" lon="-8.817768">
        <ele>65.8</ele>
        <time>1970-01-01T01:28:24.000Z</time>
      </trkpt>
      <trkpt lat="42.322347" lon="-8.817768">
        <ele>65.8</ele>
        <time>1970-01-01T01:28:25.000Z</time>
      </trkpt>
      <trkpt lat="42.322337" lon="-8.817772">
        <ele>65.4</ele>
        <time>1970-01-01T01:28:26.000Z</time>
      </trkpt>
      <trkpt lat="42.322327" lon="-8.817777">
        <ele>65.2</ele>
        <time>1970-01-01T01:28:27.000Z</time>
      </trkpt>
      <trkpt lat="42.322316" lon="-8.817784">
        <ele>65</ele>
        <time>1970-01-01T01:28:28.000Z</time>
      </trkpt>
      <trkpt lat="42.322302" lon="-8.817799">
        <ele>65</ele>
        <time>1970-01-01T01:28:29.000Z</time>
      </trkpt>
      <trkpt lat="42.322287" lon="-8.817811">
        <ele>64.8</ele>
        <time>1970-01-01T01:28:30.000Z</time>
      </trkpt>
      <trkpt lat="42.322273" lon="-8.817824">
        <ele>64.8</ele>
        <time>1970-01-01T01:28:31.000Z</time>
      </trkpt>
      <trkpt lat="42.322261" lon="-8.817834">
        <ele>64.6</ele>
        <time>1970-01-01T01:28:32.000Z</time>
      </trkpt>
      <trkpt lat="42.322249" lon="-8.817845">
        <ele>64.6</ele>
        <time>1970-01-01T01:28:33.000Z</time>
      </trkpt>
      <trkpt lat="42.322236" lon="-8.817851">
        <ele>64.8</ele>
        <time>1970-01-01T01:28:34.000Z</time>
      </trkpt>
      <trkpt lat="42.322221" lon="-8.817859">
        <ele>64.8</ele>
        <time>1970-01-01T01:28:35.000Z</time>
      </trkpt>
      <trkpt lat="42.32221" lon="-8.817865">
        <ele>64.8</ele>
        <time>1970-01-01T01:28:36.000Z</time>
      </trkpt>
      <trkpt lat="42.322197" lon="-8.817874">
        <ele>65</ele>
        <time>1970-01-01T01:28:37.000Z</time>
      </trkpt>
      <trkpt lat="42.322185" lon="-8.81788">
        <ele>65</ele>
        <time>1970-01-01T01:28:38.000Z</time>
      </trkpt>
      <trkpt lat="42.322174" lon="-8.817886">
        <ele>65</ele>
        <time>1970-01-01T01:28:39.000Z</time>
      </trkpt>
      <trkpt lat="42.32216" lon="-8.817899">
        <ele>65</ele>
        <time>1970-01-01T01:28:40.000Z</time>
      </trkpt>
      <trkpt lat="42.322152" lon="-8.81791">
        <ele>65</ele>
        <time>1970-01-01T01:28:41.000Z</time>
      </trkpt>
      <trkpt lat="42.322141" lon="-8.817927">
        <ele>65</ele>
        <time>1970-01-01T01:28:42.000Z</time>
      </trkpt>
      <trkpt lat="42.32213" lon="-8.817944">
        <ele>64.8</ele>
        <time>1970-01-01T01:28:43.000Z</time>
      </trkpt>
      <trkpt lat="42.32212" lon="-8.817956">
        <ele>64.6</ele>
        <time>1970-01-01T01:28:44.000Z</time>
      </trkpt>
      <trkpt lat="42.322106" lon="-8.817973">
        <ele>64.4</ele>
        <time>1970-01-01T01:28:45.000Z</time>
      </trkpt>
      <trkpt lat="42.322097" lon="-8.817987">
        <ele>64.2</ele>
        <time>1970-01-01T01:28:46.000Z</time>
      </trkpt>
      <trkpt lat="42.322089" lon="-8.818001">
        <ele>64.2</ele>
        <time>1970-01-01T01:28:47.000Z</time>
      </trkpt>
      <trkpt lat="42.322083" lon="-8.818019">
        <ele>64.2</ele>
        <time>1970-01-01T01:28:48.000Z</time>
      </trkpt>
      <trkpt lat="42.322077" lon="-8.818033">
        <ele>64</ele>
        <time>1970-01-01T01:28:49.000Z</time>
      </trkpt>
      <trkpt lat="42.322072" lon="-8.818046">
        <ele>63.8</ele>
        <time>1970-01-01T01:28:50.000Z</time>
      </trkpt>
      <trkpt lat="42.322062" lon="-8.818059">
        <ele>63.8</ele>
        <time>1970-01-01T01:28:51.000Z</time>
      </trkpt>
      <trkpt lat="42.322054" lon="-8.818072">
        <ele>63.8</ele>
        <time>1970-01-01T01:28:52.000Z</time>
      </trkpt>
      <trkpt lat="42.322043" lon="-8.818085">
        <ele>63.8</ele>
        <time>1970-01-01T01:28:53.000Z</time>
      </trkpt>
      <trkpt lat="42.322033" lon="-8.818095">
        <ele>63.6</ele>
        <time>1970-01-01T01:28:54.000Z</time>
      </trkpt>
      <trkpt lat="42.322024" lon="-8.818106">
        <ele>63.4</ele>
        <time>1970-01-01T01:28:55.000Z</time>
      </trkpt>
      <trkpt lat="42.322015" lon="-8.818113">
        <ele>63.2</ele>
        <time>1970-01-01T01:28:56.000Z</time>
      </trkpt>
      <trkpt lat="42.322005" lon="-8.818121">
        <ele>63.2</ele>
        <time>1970-01-01T01:28:57.000Z</time>
      </trkpt>
      <trkpt lat="42.321994" lon="-8.81813">
        <ele>63.4</ele>
        <time>1970-01-01T01:28:58.000Z</time>
      </trkpt>
      <trkpt lat="42.321984" lon="-8.818138">
        <ele>63.4</ele>
        <time>1970-01-01T01:28:59.000Z</time>
      </trkpt>
      <trkpt lat="42.321977" lon="-8.818146">
        <ele>63</ele>
        <time>1970-01-01T01:29:00.000Z</time>
      </trkpt>
      <trkpt lat="42.321969" lon="-8.818157">
        <ele>63</ele>
        <time>1970-01-01T01:29:01.000Z</time>
      </trkpt>
      <trkpt lat="42.321959" lon="-8.818166">
        <ele>62.8</ele>
        <time>1970-01-01T01:29:02.000Z</time>
      </trkpt>
      <trkpt lat="42.321949" lon="-8.818172">
        <ele>62.6</ele>
        <time>1970-01-01T01:29:03.000Z</time>
      </trkpt>
      <trkpt lat="42.321939" lon="-8.818178">
        <ele>62.4</ele>
        <time>1970-01-01T01:29:04.000Z</time>
      </trkpt>
      <trkpt lat="42.321927" lon="-8.818183">
        <ele>62.4</ele>
        <time>1970-01-01T01:29:05.000Z</time>
      </trkpt>
      <trkpt lat="42.321919" lon="-8.818189">
        <ele>62.2</ele>
        <time>1970-01-01T01:29:06.000Z</time>
      </trkpt>
      <trkpt lat="42.321911" lon="-8.818192">
        <ele>62.2</ele>
        <time>1970-01-01T01:29:07.000Z</time>
      </trkpt>
      <trkpt lat="42.321903" lon="-8.818194">
        <ele>62</ele>
        <time>1970-01-01T01:29:08.000Z</time>
      </trkpt>
      <trkpt lat="42.321891" lon="-8.818194">
        <ele>62</ele>
        <time>1970-01-01T01:29:09.000Z</time>
      </trkpt>
      <trkpt lat="42.321879" lon="-8.818198">
        <ele>61.8</ele>
        <time>1970-01-01T01:29:10.000Z</time>
      </trkpt>
      <trkpt lat="42.321869" lon="-8.818204">
        <ele>61.6</ele>
        <time>1970-01-01T01:29:11.000Z</time>
      </trkpt>
      <trkpt lat="42.321859" lon="-8.818211">
        <ele>61.6</ele>
        <time>1970-01-01T01:29:12.000Z</time>
      </trkpt>
      <trkpt lat="42.321846" lon="-8.81822">
        <ele>61.6</ele>
        <time>1970-01-01T01:29:13.000Z</time>
      </trkpt>
      <trkpt lat="42.321835" lon="-8.818225">
        <ele>61.4</ele>
        <time>1970-01-01T01:29:14.000Z</time>
      </trkpt>
      <trkpt lat="42.321822" lon="-8.818229">
        <ele>61.4</ele>
        <time>1970-01-01T01:29:15.000Z</time>
      </trkpt>
      <trkpt lat="42.321802" lon="-8.818237">
        <ele>61.4</ele>
        <time>1970-01-01T01:29:16.000Z</time>
      </trkpt>
      <trkpt lat="42.321786" lon="-8.818247">
        <ele>61.4</ele>
        <time>1970-01-01T01:29:17.000Z</time>
      </trkpt>
      <trkpt lat="42.321768" lon="-8.818269">
        <ele>61.4</ele>
        <time>1970-01-01T01:29:18.000Z</time>
      </trkpt>
      <trkpt lat="42.321757" lon="-8.818278">
        <ele>61.2</ele>
        <time>1970-01-01T01:29:19.000Z</time>
      </trkpt>
      <trkpt lat="42.321745" lon="-8.818282">
        <ele>61</ele>
        <time>1970-01-01T01:29:20.000Z</time>
      </trkpt>
      <trkpt lat="42.321733" lon="-8.818286">
        <ele>61.2</ele>
        <time>1970-01-01T01:29:21.000Z</time>
      </trkpt>
      <trkpt lat="42.321721" lon="-8.818285">
        <ele>61.2</ele>
        <time>1970-01-01T01:29:22.000Z</time>
      </trkpt>
      <trkpt lat="42.321709" lon="-8.818283">
        <ele>61.4</ele>
        <time>1970-01-01T01:29:23.000Z</time>
      </trkpt>
      <trkpt lat="42.321699" lon="-8.818281">
        <ele>61.6</ele>
        <time>1970-01-01T01:29:24.000Z</time>
      </trkpt>
      <trkpt lat="42.321689" lon="-8.818277">
        <ele>61.6</ele>
        <time>1970-01-01T01:29:25.000Z</time>
      </trkpt>
      <trkpt lat="42.321677" lon="-8.818273">
        <ele>61.8</ele>
        <time>1970-01-01T01:29:26.000Z</time>
      </trkpt>
      <trkpt lat="42.321666" lon="-8.818273">
        <ele>62</ele>
        <time>1970-01-01T01:29:27.000Z</time>
      </trkpt>
      <trkpt lat="42.321655" lon="-8.818275">
        <ele>62.2</ele>
        <time>1970-01-01T01:29:28.000Z</time>
      </trkpt>
      <trkpt lat="42.321643" lon="-8.818275">
        <ele>62.2</ele>
        <time>1970-01-01T01:29:29.000Z</time>
      </trkpt>
      <trkpt lat="42.321629" lon="-8.818276">
        <ele>62.2</ele>
        <time>1970-01-01T01:29:30.000Z</time>
      </trkpt>
      <trkpt lat="42.321617" lon="-8.818274">
        <ele>62.2</ele>
        <time>1970-01-01T01:29:31.000Z</time>
      </trkpt>
      <trkpt lat="42.321605" lon="-8.818271">
        <ele>62.2</ele>
        <time>1970-01-01T01:29:32.000Z</time>
      </trkpt>
      <trkpt lat="42.321592" lon="-8.818266">
        <ele>62.4</ele>
        <time>1970-01-01T01:29:33.000Z</time>
      </trkpt>
      <trkpt lat="42.32158" lon="-8.818259">
        <ele>62.2</ele>
        <time>1970-01-01T01:29:34.000Z</time>
      </trkpt>
      <trkpt lat="42.321569" lon="-8.81825">
        <ele>62.2</ele>
        <time>1970-01-01T01:29:35.000Z</time>
      </trkpt>
      <trkpt lat="42.321559" lon="-8.818233">
        <ele>62.4</ele>
        <time>1970-01-01T01:29:36.000Z</time>
      </trkpt>
      <trkpt lat="42.32155" lon="-8.818225">
        <ele>62.4</ele>
        <time>1970-01-01T01:29:37.000Z</time>
      </trkpt>
      <trkpt lat="42.321541" lon="-8.818218">
        <ele>62.6</ele>
        <time>1970-01-01T01:29:38.000Z</time>
      </trkpt>
      <trkpt lat="42.32153" lon="-8.818207">
        <ele>62.4</ele>
        <time>1970-01-01T01:29:39.000Z</time>
      </trkpt>
      <trkpt lat="42.321519" lon="-8.8182">
        <ele>62.4</ele>
        <time>1970-01-01T01:29:40.000Z</time>
      </trkpt>
      <trkpt lat="42.321508" lon="-8.818195">
        <ele>62.6</ele>
        <time>1970-01-01T01:29:41.000Z</time>
      </trkpt>
      <trkpt lat="42.321496" lon="-8.818186">
        <ele>62.8</ele>
        <time>1970-01-01T01:29:42.000Z</time>
      </trkpt>
      <trkpt lat="42.321485" lon="-8.818186">
        <ele>62.8</ele>
        <time>1970-01-01T01:29:43.000Z</time>
      </trkpt>
      <trkpt lat="42.321475" lon="-8.818183">
        <ele>62.8</ele>
        <time>1970-01-01T01:29:44.000Z</time>
      </trkpt>
      <trkpt lat="42.321465" lon="-8.81818">
        <ele>62.6</ele>
        <time>1970-01-01T01:29:45.000Z</time>
      </trkpt>
      <trkpt lat="42.321456" lon="-8.81818">
        <ele>62.6</ele>
        <time>1970-01-01T01:29:46.000Z</time>
      </trkpt>
      <trkpt lat="42.321447" lon="-8.818182">
        <ele>62.6</ele>
        <time>1970-01-01T01:29:47.000Z</time>
      </trkpt>
      <trkpt lat="42.321436" lon="-8.818177">
        <ele>62.6</ele>
        <time>1970-01-01T01:29:48.000Z</time>
      </trkpt>
      <trkpt lat="42.321424" lon="-8.81817">
        <ele>62.4</ele>
        <time>1970-01-01T01:29:49.000Z</time>
      </trkpt>
      <trkpt lat="42.32141" lon="-8.818162">
        <ele>62.4</ele>
        <time>1970-01-01T01:29:50.000Z</time>
      </trkpt>
      <trkpt lat="42.321397" lon="-8.818154">
        <ele>62.4</ele>
        <time>1970-01-01T01:29:51.000Z</time>
      </trkpt>
      <trkpt lat="42.321383" lon="-8.818147">
        <ele>62.4</ele>
        <time>1970-01-01T01:29:52.000Z</time>
      </trkpt>
      <trkpt lat="42.321371" lon="-8.818142">
        <ele>62.4</ele>
        <time>1970-01-01T01:29:53.000Z</time>
      </trkpt>
      <trkpt lat="42.32136" lon="-8.818138">
        <ele>62</ele>
        <time>1970-01-01T01:29:54.000Z</time>
      </trkpt>
      <trkpt lat="42.321351" lon="-8.818137">
        <ele>62</ele>
        <time>1970-01-01T01:29:55.000Z</time>
      </trkpt>
      <trkpt lat="42.321341" lon="-8.818136">
        <ele>62.2</ele>
        <time>1970-01-01T01:29:56.000Z</time>
      </trkpt>
      <trkpt lat="42.32133" lon="-8.818132">
        <ele>62.2</ele>
        <time>1970-01-01T01:29:57.000Z</time>
      </trkpt>
      <trkpt lat="42.32132" lon="-8.818128">
        <ele>62.4</ele>
        <time>1970-01-01T01:29:58.000Z</time>
      </trkpt>
      <trkpt lat="42.321306" lon="-8.818122">
        <ele>62.2</ele>
        <time>1970-01-01T01:29:59.000Z</time>
      </trkpt>
      <trkpt lat="42.32129" lon="-8.818115">
        <ele>62</ele>
        <time>1970-01-01T01:30:00.000Z</time>
      </trkpt>
      <trkpt lat="42.321271" lon="-8.81811">
        <ele>62</ele>
        <time>1970-01-01T01:30:01.000Z</time>
      </trkpt>
      <trkpt lat="42.321253" lon="-8.818107">
        <ele>62</ele>
        <time>1970-01-01T01:30:02.000Z</time>
      </trkpt>
      <trkpt lat="42.321235" lon="-8.818104">
        <ele>61.8</ele>
        <time>1970-01-01T01:30:03.000Z</time>
      </trkpt>
      <trkpt lat="42.321219" lon="-8.8181">
        <ele>61.8</ele>
        <time>1970-01-01T01:30:04.000Z</time>
      </trkpt>
      <trkpt lat="42.321203" lon="-8.818097">
        <ele>61.4</ele>
        <time>1970-01-01T01:30:05.000Z</time>
      </trkpt>
      <trkpt lat="42.321187" lon="-8.818095">
        <ele>61</ele>
        <time>1970-01-01T01:30:06.000Z</time>
      </trkpt>
      <trkpt lat="42.32117" lon="-8.818097">
        <ele>61</ele>
        <time>1970-01-01T01:30:07.000Z</time>
      </trkpt>
      <trkpt lat="42.321155" lon="-8.8181">
        <ele>60.8</ele>
        <time>1970-01-01T01:30:08.000Z</time>
      </trkpt>
      <trkpt lat="42.321142" lon="-8.818106">
        <ele>60.8</ele>
        <time>1970-01-01T01:30:09.000Z</time>
      </trkpt>
      <trkpt lat="42.32113" lon="-8.818114">
        <ele>60.8</ele>
        <time>1970-01-01T01:30:10.000Z</time>
      </trkpt>
      <trkpt lat="42.321118" lon="-8.81812">
        <ele>60.6</ele>
        <time>1970-01-01T01:30:11.000Z</time>
      </trkpt>
      <trkpt lat="42.321105" lon="-8.818126">
        <ele>60.6</ele>
        <time>1970-01-01T01:30:12.000Z</time>
      </trkpt>
      <trkpt lat="42.321092" lon="-8.818132">
        <ele>60.6</ele>
        <time>1970-01-01T01:30:13.000Z</time>
      </trkpt>
      <trkpt lat="42.321079" lon="-8.81814">
        <ele>60.6</ele>
        <time>1970-01-01T01:30:14.000Z</time>
      </trkpt>
      <trkpt lat="42.321065" lon="-8.818151">
        <ele>60.6</ele>
        <time>1970-01-01T01:30:15.000Z</time>
      </trkpt>
      <trkpt lat="42.321051" lon="-8.818162">
        <ele>60.4</ele>
        <time>1970-01-01T01:30:16.000Z</time>
      </trkpt>
      <trkpt lat="42.321039" lon="-8.818173">
        <ele>60.4</ele>
        <time>1970-01-01T01:30:17.000Z</time>
      </trkpt>
      <trkpt lat="42.321028" lon="-8.818181">
        <ele>60.2</ele>
        <time>1970-01-01T01:30:18.000Z</time>
      </trkpt>
      <trkpt lat="42.321014" lon="-8.818199">
        <ele>60</ele>
        <time>1970-01-01T01:30:19.000Z</time>
      </trkpt>
      <trkpt lat="42.321001" lon="-8.818211">
        <ele>60</ele>
        <time>1970-01-01T01:30:20.000Z</time>
      </trkpt>
      <trkpt lat="42.320991" lon="-8.818219">
        <ele>59.6</ele>
        <time>1970-01-01T01:30:21.000Z</time>
      </trkpt>
      <trkpt lat="42.320983" lon="-8.818226">
        <ele>59.6</ele>
        <time>1970-01-01T01:30:22.000Z</time>
      </trkpt>
      <trkpt lat="42.320976" lon="-8.818233">
        <ele>59.4</ele>
        <time>1970-01-01T01:30:23.000Z</time>
      </trkpt>
      <trkpt lat="42.320968" lon="-8.818239">
        <ele>59.4</ele>
        <time>1970-01-01T01:30:24.000Z</time>
      </trkpt>
      <trkpt lat="42.32096" lon="-8.818247">
        <ele>59.4</ele>
        <time>1970-01-01T01:30:25.000Z</time>
      </trkpt>
      <trkpt lat="42.32095" lon="-8.818255">
        <ele>59.4</ele>
        <time>1970-01-01T01:30:26.000Z</time>
      </trkpt>
      <trkpt lat="42.320938" lon="-8.818265">
        <ele>59.4</ele>
        <time>1970-01-01T01:30:27.000Z</time>
      </trkpt>
      <trkpt lat="42.320925" lon="-8.818276">
        <ele>59.4</ele>
        <time>1970-01-01T01:30:28.000Z</time>
      </trkpt>
      <trkpt lat="42.320912" lon="-8.818283">
        <ele>59.4</ele>
        <time>1970-01-01T01:30:29.000Z</time>
      </trkpt>
      <trkpt lat="42.320898" lon="-8.818289">
        <ele>59.4</ele>
        <time>1970-01-01T01:30:30.000Z</time>
      </trkpt>
      <trkpt lat="42.320884" lon="-8.818296">
        <ele>59.2</ele>
        <time>1970-01-01T01:30:31.000Z</time>
      </trkpt>
      <trkpt lat="42.32087" lon="-8.818303">
        <ele>59</ele>
        <time>1970-01-01T01:30:32.000Z</time>
      </trkpt>
      <trkpt lat="42.320856" lon="-8.81831">
        <ele>58.6</ele>
        <time>1970-01-01T01:30:33.000Z</time>
      </trkpt>
      <trkpt lat="42.32084" lon="-8.818317">
        <ele>58.4</ele>
        <time>1970-01-01T01:30:34.000Z</time>
      </trkpt>
      <trkpt lat="42.320825" lon="-8.818322">
        <ele>58.2</ele>
        <time>1970-01-01T01:30:35.000Z</time>
      </trkpt>
      <trkpt lat="42.320811" lon="-8.818329">
        <ele>58</ele>
        <time>1970-01-01T01:30:36.000Z</time>
      </trkpt>
      <trkpt lat="42.320796" lon="-8.818333">
        <ele>57.8</ele>
        <time>1970-01-01T01:30:37.000Z</time>
      </trkpt>
      <trkpt lat="42.320786" lon="-8.818333">
        <ele>57.8</ele>
        <time>1970-01-01T01:30:38.000Z</time>
      </trkpt>
      <trkpt lat="42.320774" lon="-8.818336">
        <ele>57.6</ele>
        <time>1970-01-01T01:30:39.000Z</time>
      </trkpt>
      <trkpt lat="42.32076" lon="-8.818337">
        <ele>57.6</ele>
        <time>1970-01-01T01:30:40.000Z</time>
      </trkpt>
      <trkpt lat="42.320747" lon="-8.818338">
        <ele>57.4</ele>
        <time>1970-01-01T01:30:41.000Z</time>
      </trkpt>
      <trkpt lat="42.320735" lon="-8.818344">
        <ele>57.4</ele>
        <time>1970-01-01T01:30:42.000Z</time>
      </trkpt>
      <trkpt lat="42.320723" lon="-8.818351">
        <ele>57.2</ele>
        <time>1970-01-01T01:30:43.000Z</time>
      </trkpt>
      <trkpt lat="42.320711" lon="-8.818364">
        <ele>57.2</ele>
        <time>1970-01-01T01:30:44.000Z</time>
      </trkpt>
      <trkpt lat="42.320694" lon="-8.818374">
        <ele>57.2</ele>
        <time>1970-01-01T01:30:45.000Z</time>
      </trkpt>
      <trkpt lat="42.32068" lon="-8.818389">
        <ele>57</ele>
        <time>1970-01-01T01:30:46.000Z</time>
      </trkpt>
      <trkpt lat="42.320665" lon="-8.818403">
        <ele>56.8</ele>
        <time>1970-01-01T01:30:47.000Z</time>
      </trkpt>
      <trkpt lat="42.320648" lon="-8.818415">
        <ele>56.4</ele>
        <time>1970-01-01T01:30:48.000Z</time>
      </trkpt>
      <trkpt lat="42.320633" lon="-8.818424">
        <ele>56</ele>
        <time>1970-01-01T01:30:49.000Z</time>
      </trkpt>
      <trkpt lat="42.320622" lon="-8.818435">
        <ele>55.8</ele>
        <time>1970-01-01T01:30:50.000Z</time>
      </trkpt>
      <trkpt lat="42.320611" lon="-8.818443">
        <ele>55.6</ele>
        <time>1970-01-01T01:30:51.000Z</time>
      </trkpt>
      <trkpt lat="42.3206" lon="-8.818452">
        <ele>55.4</ele>
        <time>1970-01-01T01:30:52.000Z</time>
      </trkpt>
      <trkpt lat="42.32059" lon="-8.818462">
        <ele>55.4</ele>
        <time>1970-01-01T01:30:53.000Z</time>
      </trkpt>
      <trkpt lat="42.320579" lon="-8.818473">
        <ele>55.2</ele>
        <time>1970-01-01T01:30:54.000Z</time>
      </trkpt>
      <trkpt lat="42.32057" lon="-8.818485">
        <ele>54.6</ele>
        <time>1970-01-01T01:30:55.000Z</time>
      </trkpt>
      <trkpt lat="42.320562" lon="-8.818499">
        <ele>54.2</ele>
        <time>1970-01-01T01:30:56.000Z</time>
      </trkpt>
      <trkpt lat="42.320555" lon="-8.81851">
        <ele>53.8</ele>
        <time>1970-01-01T01:30:57.000Z</time>
      </trkpt>
      <trkpt lat="42.320549" lon="-8.81852">
        <ele>53.4</ele>
        <time>1970-01-01T01:30:58.000Z</time>
      </trkpt>
      <trkpt lat="42.320543" lon="-8.818532">
        <ele>52.8</ele>
        <time>1970-01-01T01:30:59.000Z</time>
      </trkpt>
      <trkpt lat="42.320536" lon="-8.818548">
        <ele>52.4</ele>
        <time>1970-01-01T01:31:00.000Z</time>
      </trkpt>
      <trkpt lat="42.320531" lon="-8.818562">
        <ele>52.2</ele>
        <time>1970-01-01T01:31:01.000Z</time>
      </trkpt>
      <trkpt lat="42.320524" lon="-8.818572">
        <ele>52</ele>
        <time>1970-01-01T01:31:02.000Z</time>
      </trkpt>
      <trkpt lat="42.320516" lon="-8.81858">
        <ele>51.8</ele>
        <time>1970-01-01T01:31:03.000Z</time>
      </trkpt>
      <trkpt lat="42.320511" lon="-8.818589">
        <ele>51.6</ele>
        <time>1970-01-01T01:31:04.000Z</time>
      </trkpt>
      <trkpt lat="42.320505" lon="-8.818597">
        <ele>51.4</ele>
        <time>1970-01-01T01:31:05.000Z</time>
      </trkpt>
      <trkpt lat="42.320497" lon="-8.8186">
        <ele>51.4</ele>
        <time>1970-01-01T01:31:06.000Z</time>
      </trkpt>
      <trkpt lat="42.320485" lon="-8.818596">
        <ele>51.2</ele>
        <time>1970-01-01T01:31:07.000Z</time>
      </trkpt>
      <trkpt lat="42.320471" lon="-8.818584">
        <ele>51</ele>
        <time>1970-01-01T01:31:08.000Z</time>
      </trkpt>
      <trkpt lat="42.320459" lon="-8.81858">
        <ele>51</ele>
        <time>1970-01-01T01:31:09.000Z</time>
      </trkpt>
      <trkpt lat="42.320446" lon="-8.818571">
        <ele>50.6</ele>
        <time>1970-01-01T01:31:10.000Z</time>
      </trkpt>
      <trkpt lat="42.320433" lon="-8.818563">
        <ele>50.4</ele>
        <time>1970-01-01T01:31:11.000Z</time>
      </trkpt>
      <trkpt lat="42.32042" lon="-8.818553">
        <ele>50.4</ele>
        <time>1970-01-01T01:31:12.000Z</time>
      </trkpt>
      <trkpt lat="42.320404" lon="-8.818542">
        <ele>50.2</ele>
        <time>1970-01-01T01:31:13.000Z</time>
      </trkpt>
      <trkpt lat="42.320393" lon="-8.818535">
        <ele>50</ele>
        <time>1970-01-01T01:31:14.000Z</time>
      </trkpt>
      <trkpt lat="42.320382" lon="-8.818527">
        <ele>50</ele>
        <time>1970-01-01T01:31:15.000Z</time>
      </trkpt>
      <trkpt lat="42.320372" lon="-8.818513">
        <ele>49.6</ele>
        <time>1970-01-01T01:31:16.000Z</time>
      </trkpt>
      <trkpt lat="42.320363" lon="-8.818503">
        <ele>49.6</ele>
        <time>1970-01-01T01:31:17.000Z</time>
      </trkpt>
      <trkpt lat="42.320355" lon="-8.818492">
        <ele>49.6</ele>
        <time>1970-01-01T01:31:18.000Z</time>
      </trkpt>
      <trkpt lat="42.320345" lon="-8.818478">
        <ele>49.6</ele>
        <time>1970-01-01T01:31:19.000Z</time>
      </trkpt>
      <trkpt lat="42.320332" lon="-8.818463">
        <ele>49.4</ele>
        <time>1970-01-01T01:31:20.000Z</time>
      </trkpt>
      <trkpt lat="42.320318" lon="-8.818453">
        <ele>49.4</ele>
        <time>1970-01-01T01:31:21.000Z</time>
      </trkpt>
      <trkpt lat="42.320309" lon="-8.818446">
        <ele>49.6</ele>
        <time>1970-01-01T01:31:22.000Z</time>
      </trkpt>
      <trkpt lat="42.320299" lon="-8.818432">
        <ele>49.6</ele>
        <time>1970-01-01T01:31:23.000Z</time>
      </trkpt>
      <trkpt lat="42.32029" lon="-8.818419">
        <ele>49.6</ele>
        <time>1970-01-01T01:31:24.000Z</time>
      </trkpt>
      <trkpt lat="42.320282" lon="-8.818412">
        <ele>49.4</ele>
        <time>1970-01-01T01:31:25.000Z</time>
      </trkpt>
      <trkpt lat="42.320271" lon="-8.818408">
        <ele>49.4</ele>
        <time>1970-01-01T01:31:26.000Z</time>
      </trkpt>
      <trkpt lat="42.320255" lon="-8.818405">
        <ele>49.2</ele>
        <time>1970-01-01T01:31:27.000Z</time>
      </trkpt>
      <trkpt lat="42.320238" lon="-8.818406">
        <ele>49.2</ele>
        <time>1970-01-01T01:31:28.000Z</time>
      </trkpt>
      <trkpt lat="42.32022" lon="-8.818413">
        <ele>49</ele>
        <time>1970-01-01T01:31:29.000Z</time>
      </trkpt>
      <trkpt lat="42.320207" lon="-8.818424">
        <ele>49</ele>
        <time>1970-01-01T01:31:30.000Z</time>
      </trkpt>
      <trkpt lat="42.320197" lon="-8.818442">
        <ele>49</ele>
        <time>1970-01-01T01:31:31.000Z</time>
      </trkpt>
      <trkpt lat="42.320191" lon="-8.818462">
        <ele>48.8</ele>
        <time>1970-01-01T01:31:32.000Z</time>
      </trkpt>
      <trkpt lat="42.320184" lon="-8.818485">
        <ele>48.8</ele>
        <time>1970-01-01T01:31:33.000Z</time>
      </trkpt>
      <trkpt lat="42.320181" lon="-8.818505">
        <ele>48.6</ele>
        <time>1970-01-01T01:31:34.000Z</time>
      </trkpt>
      <trkpt lat="42.320177" lon="-8.818527">
        <ele>48.2</ele>
        <time>1970-01-01T01:31:35.000Z</time>
      </trkpt>
      <trkpt lat="42.320171" lon="-8.818549">
        <ele>48</ele>
        <time>1970-01-01T01:31:36.000Z</time>
      </trkpt>
      <trkpt lat="42.320164" lon="-8.818572">
        <ele>47.8</ele>
        <time>1970-01-01T01:31:37.000Z</time>
      </trkpt>
      <trkpt lat="42.320157" lon="-8.818594">
        <ele>47.6</ele>
        <time>1970-01-01T01:31:38.000Z</time>
      </trkpt>
      <trkpt lat="42.320153" lon="-8.818613">
        <ele>47.4</ele>
        <time>1970-01-01T01:31:39.000Z</time>
      </trkpt>
      <trkpt lat="42.320147" lon="-8.818632">
        <ele>47</ele>
        <time>1970-01-01T01:31:40.000Z</time>
      </trkpt>
      <trkpt lat="42.320143" lon="-8.818653">
        <ele>46.4</ele>
        <time>1970-01-01T01:31:41.000Z</time>
      </trkpt>
      <trkpt lat="42.320139" lon="-8.818673">
        <ele>46.2</ele>
        <time>1970-01-01T01:31:42.000Z</time>
      </trkpt>
      <trkpt lat="42.320137" lon="-8.818694">
        <ele>46</ele>
        <time>1970-01-01T01:31:43.000Z</time>
      </trkpt>
      <trkpt lat="42.320136" lon="-8.818715">
        <ele>45.8</ele>
        <time>1970-01-01T01:31:44.000Z</time>
      </trkpt>
      <trkpt lat="42.320137" lon="-8.81874">
        <ele>45.8</ele>
        <time>1970-01-01T01:31:45.000Z</time>
      </trkpt>
      <trkpt lat="42.32014" lon="-8.81876">
        <ele>46</ele>
        <time>1970-01-01T01:31:46.000Z</time>
      </trkpt>
      <trkpt lat="42.320143" lon="-8.818776">
        <ele>46</ele>
        <time>1970-01-01T01:31:47.000Z</time>
      </trkpt>
      <trkpt lat="42.320147" lon="-8.818797">
        <ele>46</ele>
        <time>1970-01-01T01:31:48.000Z</time>
      </trkpt>
      <trkpt lat="42.320152" lon="-8.818818">
        <ele>46</ele>
        <time>1970-01-01T01:31:49.000Z</time>
      </trkpt>
      <trkpt lat="42.320157" lon="-8.818836">
        <ele>46</ele>
        <time>1970-01-01T01:31:50.000Z</time>
      </trkpt>
      <trkpt lat="42.320161" lon="-8.818853">
        <ele>46</ele>
        <time>1970-01-01T01:31:51.000Z</time>
      </trkpt>
      <trkpt lat="42.320166" lon="-8.818877">
        <ele>46</ele>
        <time>1970-01-01T01:31:52.000Z</time>
      </trkpt>
      <trkpt lat="42.320167" lon="-8.818898">
        <ele>45.8</ele>
        <time>1970-01-01T01:31:53.000Z</time>
      </trkpt>
      <trkpt lat="42.320167" lon="-8.818917">
        <ele>45.8</ele>
        <time>1970-01-01T01:31:54.000Z</time>
      </trkpt>
      <trkpt lat="42.320167" lon="-8.818939">
        <ele>45.6</ele>
        <time>1970-01-01T01:31:55.000Z</time>
      </trkpt>
      <trkpt lat="42.320168" lon="-8.81896">
        <ele>45.6</ele>
        <time>1970-01-01T01:31:56.000Z</time>
      </trkpt>
      <trkpt lat="42.320167" lon="-8.818976">
        <ele>45.4</ele>
        <time>1970-01-01T01:31:57.000Z</time>
      </trkpt>
      <trkpt lat="42.320167" lon="-8.818992">
        <ele>45.4</ele>
        <time>1970-01-01T01:31:58.000Z</time>
      </trkpt>
      <trkpt lat="42.320165" lon="-8.819007">
        <ele>45.4</ele>
        <time>1970-01-01T01:31:59.000Z</time>
      </trkpt>
      <trkpt lat="42.320164" lon="-8.819024">
        <ele>45.4</ele>
        <time>1970-01-01T01:32:00.000Z</time>
      </trkpt>
      <trkpt lat="42.320165" lon="-8.819039">
        <ele>45.4</ele>
        <time>1970-01-01T01:32:01.000Z</time>
      </trkpt>
      <trkpt lat="42.320168" lon="-8.819055">
        <ele>45</ele>
        <time>1970-01-01T01:32:02.000Z</time>
      </trkpt>
      <trkpt lat="42.32017" lon="-8.819077">
        <ele>44.8</ele>
        <time>1970-01-01T01:32:03.000Z</time>
      </trkpt>
      <trkpt lat="42.320169" lon="-8.819099">
        <ele>45</ele>
        <time>1970-01-01T01:32:04.000Z</time>
      </trkpt>
      <trkpt lat="42.320171" lon="-8.819121">
        <ele>45</ele>
        <time>1970-01-01T01:32:05.000Z</time>
      </trkpt>
      <trkpt lat="42.32017" lon="-8.819145">
        <ele>44.8</ele>
        <time>1970-01-01T01:32:06.000Z</time>
      </trkpt>
      <trkpt lat="42.320171" lon="-8.819174">
        <ele>44.8</ele>
        <time>1970-01-01T01:32:07.000Z</time>
      </trkpt>
      <trkpt lat="42.320169" lon="-8.819193">
        <ele>44.8</ele>
        <time>1970-01-01T01:32:08.000Z</time>
      </trkpt>
      <trkpt lat="42.320165" lon="-8.819208">
        <ele>44.8</ele>
        <time>1970-01-01T01:32:09.000Z</time>
      </trkpt>
      <trkpt lat="42.320168" lon="-8.819223">
        <ele>44.8</ele>
        <time>1970-01-01T01:32:10.000Z</time>
      </trkpt>
      <trkpt lat="42.32017" lon="-8.819243">
        <ele>44.8</ele>
        <time>1970-01-01T01:32:11.000Z</time>
      </trkpt>
      <trkpt lat="42.320172" lon="-8.819258">
        <ele>44.8</ele>
        <time>1970-01-01T01:32:12.000Z</time>
      </trkpt>
      <trkpt lat="42.320173" lon="-8.819271">
        <ele>44.8</ele>
        <time>1970-01-01T01:32:13.000Z</time>
      </trkpt>
      <trkpt lat="42.320173" lon="-8.819289">
        <ele>44.8</ele>
        <time>1970-01-01T01:32:14.000Z</time>
      </trkpt>
      <trkpt lat="42.320176" lon="-8.819312">
        <ele>44.8</ele>
        <time>1970-01-01T01:32:15.000Z</time>
      </trkpt>
      <trkpt lat="42.32018" lon="-8.819326">
        <ele>44.8</ele>
        <time>1970-01-01T01:32:16.000Z</time>
      </trkpt>
      <trkpt lat="42.320183" lon="-8.819338">
        <ele>44.8</ele>
        <time>1970-01-01T01:32:17.000Z</time>
      </trkpt>
      <trkpt lat="42.320188" lon="-8.819356">
        <ele>44.6</ele>
        <time>1970-01-01T01:32:18.000Z</time>
      </trkpt>
      <trkpt lat="42.320192" lon="-8.819376">
        <ele>44.6</ele>
        <time>1970-01-01T01:32:19.000Z</time>
      </trkpt>
      <trkpt lat="42.320197" lon="-8.819397">
        <ele>44.2</ele>
        <time>1970-01-01T01:32:20.000Z</time>
      </trkpt>
      <trkpt lat="42.320202" lon="-8.819411">
        <ele>43.8</ele>
        <time>1970-01-01T01:32:21.000Z</time>
      </trkpt>
      <trkpt lat="42.320207" lon="-8.819426">
        <ele>43.6</ele>
        <time>1970-01-01T01:32:22.000Z</time>
      </trkpt>
      <trkpt lat="42.320211" lon="-8.819443">
        <ele>43.6</ele>
        <time>1970-01-01T01:32:23.000Z</time>
      </trkpt>
      <trkpt lat="42.320214" lon="-8.819459">
        <ele>43.4</ele>
        <time>1970-01-01T01:32:24.000Z</time>
      </trkpt>
      <trkpt lat="42.320215" lon="-8.81947">
        <ele>43.4</ele>
        <time>1970-01-01T01:32:25.000Z</time>
      </trkpt>
      <trkpt lat="42.320217" lon="-8.819484">
        <ele>43.4</ele>
        <time>1970-01-01T01:32:26.000Z</time>
      </trkpt>
      <trkpt lat="42.32022" lon="-8.819505">
        <ele>43.4</ele>
        <time>1970-01-01T01:32:27.000Z</time>
      </trkpt>
      <trkpt lat="42.320224" lon="-8.819532">
        <ele>43.4</ele>
        <time>1970-01-01T01:32:28.000Z</time>
      </trkpt>
      <trkpt lat="42.320225" lon="-8.819551">
        <ele>43.4</ele>
        <time>1970-01-01T01:32:29.000Z</time>
      </trkpt>
      <trkpt lat="42.320226" lon="-8.819568">
        <ele>43.4</ele>
        <time>1970-01-01T01:32:30.000Z</time>
      </trkpt>
      <trkpt lat="42.320227" lon="-8.819584">
        <ele>43.4</ele>
        <time>1970-01-01T01:32:31.000Z</time>
      </trkpt>
      <trkpt lat="42.320229" lon="-8.8196">
        <ele>43.2</ele>
        <time>1970-01-01T01:32:32.000Z</time>
      </trkpt>
      <trkpt lat="42.32023" lon="-8.819619">
        <ele>43</ele>
        <time>1970-01-01T01:32:33.000Z</time>
      </trkpt>
      <trkpt lat="42.32023" lon="-8.819631">
        <ele>42.8</ele>
        <time>1970-01-01T01:32:34.000Z</time>
      </trkpt>
      <trkpt lat="42.320232" lon="-8.81964">
        <ele>42.8</ele>
        <time>1970-01-01T01:32:35.000Z</time>
      </trkpt>
      <trkpt lat="42.320234" lon="-8.819651">
        <ele>42.8</ele>
        <time>1970-01-01T01:32:36.000Z</time>
      </trkpt>
      <trkpt lat="42.320235" lon="-8.819665">
        <ele>42.8</ele>
        <time>1970-01-01T01:32:37.000Z</time>
      </trkpt>
      <trkpt lat="42.320235" lon="-8.819682">
        <ele>42.8</ele>
        <time>1970-01-01T01:32:38.000Z</time>
      </trkpt>
      <trkpt lat="42.320237" lon="-8.8197">
        <ele>42.8</ele>
        <time>1970-01-01T01:32:39.000Z</time>
      </trkpt>
      <trkpt lat="42.32024" lon="-8.819719">
        <ele>42.6</ele>
        <time>1970-01-01T01:32:40.000Z</time>
      </trkpt>
      <trkpt lat="42.320241" lon="-8.81974">
        <ele>42.6</ele>
        <time>1970-01-01T01:32:41.000Z</time>
      </trkpt>
      <trkpt lat="42.320243" lon="-8.819763">
        <ele>42.2</ele>
        <time>1970-01-01T01:32:42.000Z</time>
      </trkpt>
      <trkpt lat="42.320243" lon="-8.819786">
        <ele>42</ele>
        <time>1970-01-01T01:32:43.000Z</time>
      </trkpt>
      <trkpt lat="42.320239" lon="-8.819806">
        <ele>42</ele>
        <time>1970-01-01T01:32:44.000Z</time>
      </trkpt>
      <trkpt lat="42.320233" lon="-8.819827">
        <ele>41.8</ele>
        <time>1970-01-01T01:32:45.000Z</time>
      </trkpt>
      <trkpt lat="42.320226" lon="-8.81985">
        <ele>41.6</ele>
        <time>1970-01-01T01:32:46.000Z</time>
      </trkpt>
      <trkpt lat="42.320219" lon="-8.819871">
        <ele>41.2</ele>
        <time>1970-01-01T01:32:47.000Z</time>
      </trkpt>
      <trkpt lat="42.320214" lon="-8.819897">
        <ele>41</ele>
        <time>1970-01-01T01:32:48.000Z</time>
      </trkpt>
      <trkpt lat="42.32021" lon="-8.81991">
        <ele>41</ele>
        <time>1970-01-01T01:32:49.000Z</time>
      </trkpt>
      <trkpt lat="42.320204" lon="-8.819919">
        <ele>41</ele>
        <time>1970-01-01T01:32:50.000Z</time>
      </trkpt>
      <trkpt lat="42.320202" lon="-8.81993">
        <ele>40.8</ele>
        <time>1970-01-01T01:32:51.000Z</time>
      </trkpt>
      <trkpt lat="42.320204" lon="-8.819947">
        <ele>40.8</ele>
        <time>1970-01-01T01:32:52.000Z</time>
      </trkpt>
      <trkpt lat="42.320211" lon="-8.819973">
        <ele>40.4</ele>
        <time>1970-01-01T01:32:53.000Z</time>
      </trkpt>
      <trkpt lat="42.320212" lon="-8.819991">
        <ele>40.6</ele>
        <time>1970-01-01T01:32:54.000Z</time>
      </trkpt>
      <trkpt lat="42.320211" lon="-8.820003">
        <ele>40.6</ele>
        <time>1970-01-01T01:32:55.000Z</time>
      </trkpt>
      <trkpt lat="42.320212" lon="-8.820014">
        <ele>40.4</ele>
        <time>1970-01-01T01:32:56.000Z</time>
      </trkpt>
      <trkpt lat="42.320213" lon="-8.820031">
        <ele>39.8</ele>
        <time>1970-01-01T01:32:57.000Z</time>
      </trkpt>
      <trkpt lat="42.320214" lon="-8.820052">
        <ele>39.6</ele>
        <time>1970-01-01T01:32:58.000Z</time>
      </trkpt>
      <trkpt lat="42.320214" lon="-8.820073">
        <ele>39.6</ele>
        <time>1970-01-01T01:32:59.000Z</time>
      </trkpt>
      <trkpt lat="42.320214" lon="-8.820093">
        <ele>39.4</ele>
        <time>1970-01-01T01:33:00.000Z</time>
      </trkpt>
      <trkpt lat="42.320213" lon="-8.820109">
        <ele>39.4</ele>
        <time>1970-01-01T01:33:01.000Z</time>
      </trkpt>
      <trkpt lat="42.320212" lon="-8.820128">
        <ele>39.4</ele>
        <time>1970-01-01T01:33:02.000Z</time>
      </trkpt>
      <trkpt lat="42.320215" lon="-8.820147">
        <ele>39.2</ele>
        <time>1970-01-01T01:33:03.000Z</time>
      </trkpt>
      <trkpt lat="42.320219" lon="-8.820169">
        <ele>39</ele>
        <time>1970-01-01T01:33:04.000Z</time>
      </trkpt>
      <trkpt lat="42.320223" lon="-8.820191">
        <ele>39</ele>
        <time>1970-01-01T01:33:05.000Z</time>
      </trkpt>
      <trkpt lat="42.320225" lon="-8.820207">
        <ele>39</ele>
        <time>1970-01-01T01:33:06.000Z</time>
      </trkpt>
      <trkpt lat="42.320226" lon="-8.820219">
        <ele>38.8</ele>
        <time>1970-01-01T01:33:07.000Z</time>
      </trkpt>
      <trkpt lat="42.320227" lon="-8.820233">
        <ele>39</ele>
        <time>1970-01-01T01:33:08.000Z</time>
      </trkpt>
      <trkpt lat="42.320227" lon="-8.820247">
        <ele>39.2</ele>
        <time>1970-01-01T01:33:09.000Z</time>
      </trkpt>
      <trkpt lat="42.320229" lon="-8.820268">
        <ele>39.2</ele>
        <time>1970-01-01T01:33:10.000Z</time>
      </trkpt>
      <trkpt lat="42.320231" lon="-8.820288">
        <ele>39.2</ele>
        <time>1970-01-01T01:33:11.000Z</time>
      </trkpt>
      <trkpt lat="42.320231" lon="-8.820306">
        <ele>38.6</ele>
        <time>1970-01-01T01:33:12.000Z</time>
      </trkpt>
      <trkpt lat="42.320229" lon="-8.82032">
        <ele>38.4</ele>
        <time>1970-01-01T01:33:13.000Z</time>
      </trkpt>
      <trkpt lat="42.320225" lon="-8.820331">
        <ele>38.2</ele>
        <time>1970-01-01T01:33:14.000Z</time>
      </trkpt>
      <trkpt lat="42.320223" lon="-8.820347">
        <ele>38</ele>
        <time>1970-01-01T01:33:15.000Z</time>
      </trkpt>
      <trkpt lat="42.320223" lon="-8.820366">
        <ele>37.2</ele>
        <time>1970-01-01T01:33:16.000Z</time>
      </trkpt>
      <trkpt lat="42.320224" lon="-8.820385">
        <ele>37</ele>
        <time>1970-01-01T01:33:17.000Z</time>
      </trkpt>
      <trkpt lat="42.320226" lon="-8.820412">
        <ele>36.8</ele>
        <time>1970-01-01T01:33:18.000Z</time>
      </trkpt>
      <trkpt lat="42.32023" lon="-8.820437">
        <ele>36.6</ele>
        <time>1970-01-01T01:33:19.000Z</time>
      </trkpt>
      <trkpt lat="42.320235" lon="-8.820455">
        <ele>36.6</ele>
        <time>1970-01-01T01:33:20.000Z</time>
      </trkpt>
      <trkpt lat="42.320237" lon="-8.820469">
        <ele>36.6</ele>
        <time>1970-01-01T01:33:21.000Z</time>
      </trkpt>
      <trkpt lat="42.320237" lon="-8.820481">
        <ele>36.6</ele>
        <time>1970-01-01T01:33:22.000Z</time>
      </trkpt>
      <trkpt lat="42.32024" lon="-8.820497">
        <ele>36.8</ele>
        <time>1970-01-01T01:33:23.000Z</time>
      </trkpt>
      <trkpt lat="42.320241" lon="-8.820511">
        <ele>36.8</ele>
        <time>1970-01-01T01:33:24.000Z</time>
      </trkpt>
      <trkpt lat="42.320241" lon="-8.820527">
        <ele>36.8</ele>
        <time>1970-01-01T01:33:25.000Z</time>
      </trkpt>
      <trkpt lat="42.320241" lon="-8.820551">
        <ele>36.8</ele>
        <time>1970-01-01T01:33:26.000Z</time>
      </trkpt>
      <trkpt lat="42.320239" lon="-8.820573">
        <ele>36.8</ele>
        <time>1970-01-01T01:33:27.000Z</time>
      </trkpt>
      <trkpt lat="42.320237" lon="-8.820586">
        <ele>36.6</ele>
        <time>1970-01-01T01:33:28.000Z</time>
      </trkpt>
      <trkpt lat="42.320236" lon="-8.820595">
        <ele>36.4</ele>
        <time>1970-01-01T01:33:29.000Z</time>
      </trkpt>
      <trkpt lat="42.320237" lon="-8.82061">
        <ele>36.4</ele>
        <time>1970-01-01T01:33:30.000Z</time>
      </trkpt>
      <trkpt lat="42.32024" lon="-8.820625">
        <ele>36.2</ele>
        <time>1970-01-01T01:33:31.000Z</time>
      </trkpt>
      <trkpt lat="42.320245" lon="-8.820644">
        <ele>36.2</ele>
        <time>1970-01-01T01:33:32.000Z</time>
      </trkpt>
      <trkpt lat="42.32025" lon="-8.820665">
        <ele>36</ele>
        <time>1970-01-01T01:33:33.000Z</time>
      </trkpt>
      <trkpt lat="42.320255" lon="-8.820689">
        <ele>36</ele>
        <time>1970-01-01T01:33:34.000Z</time>
      </trkpt>
      <trkpt lat="42.32026" lon="-8.820712">
        <ele>36</ele>
        <time>1970-01-01T01:33:35.000Z</time>
      </trkpt>
      <trkpt lat="42.320265" lon="-8.82073">
        <ele>36</ele>
        <time>1970-01-01T01:33:36.000Z</time>
      </trkpt>
      <trkpt lat="42.32027" lon="-8.820742">
        <ele>36</ele>
        <time>1970-01-01T01:33:37.000Z</time>
      </trkpt>
      <trkpt lat="42.320276" lon="-8.820753">
        <ele>36</ele>
        <time>1970-01-01T01:33:38.000Z</time>
      </trkpt>
      <trkpt lat="42.32028" lon="-8.820765">
        <ele>35.8</ele>
        <time>1970-01-01T01:33:39.000Z</time>
      </trkpt>
      <trkpt lat="42.320283" lon="-8.820779">
        <ele>35.8</ele>
        <time>1970-01-01T01:33:40.000Z</time>
      </trkpt>
      <trkpt lat="42.32029" lon="-8.8208">
        <ele>35.6</ele>
        <time>1970-01-01T01:33:41.000Z</time>
      </trkpt>
      <trkpt lat="42.320297" lon="-8.820825">
        <ele>35.4</ele>
        <time>1970-01-01T01:33:42.000Z</time>
      </trkpt>
      <trkpt lat="42.320305" lon="-8.820851">
        <ele>35.4</ele>
        <time>1970-01-01T01:33:43.000Z</time>
      </trkpt>
      <trkpt lat="42.320311" lon="-8.82087">
        <ele>35</ele>
        <time>1970-01-01T01:33:44.000Z</time>
      </trkpt>
      <trkpt lat="42.320313" lon="-8.820881">
        <ele>34.8</ele>
        <time>1970-01-01T01:33:45.000Z</time>
      </trkpt>
      <trkpt lat="42.320316" lon="-8.820888">
        <ele>34.6</ele>
        <time>1970-01-01T01:33:46.000Z</time>
      </trkpt>
      <trkpt lat="42.320318" lon="-8.820895">
        <ele>34.6</ele>
        <time>1970-01-01T01:33:47.000Z</time>
      </trkpt>
      <trkpt lat="42.320322" lon="-8.820906">
        <ele>34.4</ele>
        <time>1970-01-01T01:33:48.000Z</time>
      </trkpt>
      <trkpt lat="42.320323" lon="-8.820924">
        <ele>34.4</ele>
        <time>1970-01-01T01:33:49.000Z</time>
      </trkpt>
      <trkpt lat="42.320324" lon="-8.82094">
        <ele>34.4</ele>
        <time>1970-01-01T01:33:50.000Z</time>
      </trkpt>
      <trkpt lat="42.320323" lon="-8.820961">
        <ele>34.2</ele>
        <time>1970-01-01T01:33:51.000Z</time>
      </trkpt>
      <trkpt lat="42.320325" lon="-8.820983">
        <ele>34.2</ele>
        <time>1970-01-01T01:33:52.000Z</time>
      </trkpt>
      <trkpt lat="42.320329" lon="-8.82101">
        <ele>34.2</ele>
        <time>1970-01-01T01:33:53.000Z</time>
      </trkpt>
      <trkpt lat="42.320334" lon="-8.821037">
        <ele>34.2</ele>
        <time>1970-01-01T01:33:54.000Z</time>
      </trkpt>
      <trkpt lat="42.320342" lon="-8.821062">
        <ele>34.2</ele>
        <time>1970-01-01T01:33:55.000Z</time>
      </trkpt>
      <trkpt lat="42.320347" lon="-8.821082">
        <ele>34.2</ele>
        <time>1970-01-01T01:33:56.000Z</time>
      </trkpt>
      <trkpt lat="42.320352" lon="-8.821101">
        <ele>34.2</ele>
        <time>1970-01-01T01:33:57.000Z</time>
      </trkpt>
      <trkpt lat="42.320354" lon="-8.821112">
        <ele>34.2</ele>
        <time>1970-01-01T01:33:58.000Z</time>
      </trkpt>
      <trkpt lat="42.320356" lon="-8.821119">
        <ele>34</ele>
        <time>1970-01-01T01:33:59.000Z</time>
      </trkpt>
      <trkpt lat="42.32036" lon="-8.821127">
        <ele>34</ele>
        <time>1970-01-01T01:34:00.000Z</time>
      </trkpt>
      <trkpt lat="42.320363" lon="-8.821136">
        <ele>34</ele>
        <time>1970-01-01T01:34:01.000Z</time>
      </trkpt>
      <trkpt lat="42.320365" lon="-8.821149">
        <ele>34</ele>
        <time>1970-01-01T01:34:02.000Z</time>
      </trkpt>
      <trkpt lat="42.320367" lon="-8.821165">
        <ele>34</ele>
        <time>1970-01-01T01:34:03.000Z</time>
      </trkpt>
      <trkpt lat="42.320371" lon="-8.821186">
        <ele>33.8</ele>
        <time>1970-01-01T01:34:04.000Z</time>
      </trkpt>
      <trkpt lat="42.320376" lon="-8.821209">
        <ele>33.4</ele>
        <time>1970-01-01T01:34:05.000Z</time>
      </trkpt>
      <trkpt lat="42.32038" lon="-8.82123">
        <ele>33.4</ele>
        <time>1970-01-01T01:34:06.000Z</time>
      </trkpt>
      <trkpt lat="42.320382" lon="-8.821254">
        <ele>33.2</ele>
        <time>1970-01-01T01:34:07.000Z</time>
      </trkpt>
      <trkpt lat="42.320384" lon="-8.82128">
        <ele>33.2</ele>
        <time>1970-01-01T01:34:08.000Z</time>
      </trkpt>
      <trkpt lat="42.320385" lon="-8.821309">
        <ele>33.2</ele>
        <time>1970-01-01T01:34:09.000Z</time>
      </trkpt>
      <trkpt lat="42.320383" lon="-8.82134">
        <ele>33</ele>
        <time>1970-01-01T01:34:10.000Z</time>
      </trkpt>
      <trkpt lat="42.320385" lon="-8.821368">
        <ele>33</ele>
        <time>1970-01-01T01:34:11.000Z</time>
      </trkpt>
      <trkpt lat="42.320386" lon="-8.821388">
        <ele>32.6</ele>
        <time>1970-01-01T01:34:12.000Z</time>
      </trkpt>
      <trkpt lat="42.320387" lon="-8.821401">
        <ele>32.4</ele>
        <time>1970-01-01T01:34:13.000Z</time>
      </trkpt>
      <trkpt lat="42.320389" lon="-8.821405">
        <ele>32.4</ele>
        <time>1970-01-01T01:34:14.000Z</time>
      </trkpt>
      <trkpt lat="42.320388" lon="-8.821413">
        <ele>32.2</ele>
        <time>1970-01-01T01:34:15.000Z</time>
      </trkpt>
      <trkpt lat="42.320388" lon="-8.821419">
        <ele>32</ele>
        <time>1970-01-01T01:34:16.000Z</time>
      </trkpt>
      <trkpt lat="42.320383" lon="-8.821425">
        <ele>32</ele>
        <time>1970-01-01T01:34:17.000Z</time>
      </trkpt>
      <trkpt lat="42.320378" lon="-8.821433">
        <ele>31.8</ele>
        <time>1970-01-01T01:34:18.000Z</time>
      </trkpt>
      <trkpt lat="42.320372" lon="-8.82144">
        <ele>31.8</ele>
        <time>1970-01-01T01:34:19.000Z</time>
      </trkpt>
      <trkpt lat="42.32037" lon="-8.821443">
        <ele>31.6</ele>
        <time>1970-01-01T01:34:20.000Z</time>
      </trkpt>
      <trkpt lat="42.320368" lon="-8.821448">
        <ele>31.6</ele>
        <time>1970-01-01T01:34:21.000Z</time>
      </trkpt>
      <trkpt lat="42.320366" lon="-8.821455">
        <ele>31.4</ele>
        <time>1970-01-01T01:34:22.000Z</time>
      </trkpt>
      <trkpt lat="42.32036" lon="-8.821469">
        <ele>31.4</ele>
        <time>1970-01-01T01:34:23.000Z</time>
      </trkpt>
      <trkpt lat="42.320355" lon="-8.821481">
        <ele>31.2</ele>
        <time>1970-01-01T01:34:24.000Z</time>
      </trkpt>
      <trkpt lat="42.320348" lon="-8.821494">
        <ele>31</ele>
        <time>1970-01-01T01:34:25.000Z</time>
      </trkpt>
      <trkpt lat="42.320338" lon="-8.821506">
        <ele>30.8</ele>
        <time>1970-01-01T01:34:26.000Z</time>
      </trkpt>
      <trkpt lat="42.320328" lon="-8.821521">
        <ele>30.6</ele>
        <time>1970-01-01T01:34:27.000Z</time>
      </trkpt>
      <trkpt lat="42.320316" lon="-8.821532">
        <ele>30.2</ele>
        <time>1970-01-01T01:34:28.000Z</time>
      </trkpt>
      <trkpt lat="42.3203" lon="-8.821544">
        <ele>30</ele>
        <time>1970-01-01T01:34:29.000Z</time>
      </trkpt>
      <trkpt lat="42.320286" lon="-8.821546">
        <ele>29.8</ele>
        <time>1970-01-01T01:34:30.000Z</time>
      </trkpt>
      <trkpt lat="42.320272" lon="-8.821545">
        <ele>29.6</ele>
        <time>1970-01-01T01:34:31.000Z</time>
      </trkpt>
      <trkpt lat="42.320259" lon="-8.821545">
        <ele>29.6</ele>
        <time>1970-01-01T01:34:32.000Z</time>
      </trkpt>
      <trkpt lat="42.320247" lon="-8.821546">
        <ele>29.4</ele>
        <time>1970-01-01T01:34:33.000Z</time>
      </trkpt>
      <trkpt lat="42.320237" lon="-8.821552">
        <ele>29.2</ele>
        <time>1970-01-01T01:34:34.000Z</time>
      </trkpt>
      <trkpt lat="42.320228" lon="-8.821555">
        <ele>29</ele>
        <time>1970-01-01T01:34:35.000Z</time>
      </trkpt>
      <trkpt lat="42.320218" lon="-8.821557">
        <ele>29</ele>
        <time>1970-01-01T01:34:36.000Z</time>
      </trkpt>
      <trkpt lat="42.32021" lon="-8.821558">
        <ele>28.6</ele>
        <time>1970-01-01T01:34:37.000Z</time>
      </trkpt>
      <trkpt lat="42.320202" lon="-8.821558">
        <ele>28</ele>
        <time>1970-01-01T01:34:38.000Z</time>
      </trkpt>
      <trkpt lat="42.320194" lon="-8.821559">
        <ele>27.6</ele>
        <time>1970-01-01T01:34:39.000Z</time>
      </trkpt>
      <trkpt lat="42.320185" lon="-8.821557">
        <ele>27.2</ele>
        <time>1970-01-01T01:34:40.000Z</time>
      </trkpt>
      <trkpt lat="42.320176" lon="-8.821553">
        <ele>26.8</ele>
        <time>1970-01-01T01:34:41.000Z</time>
      </trkpt>
      <trkpt lat="42.320167" lon="-8.821552">
        <ele>26.6</ele>
        <time>1970-01-01T01:34:42.000Z</time>
      </trkpt>
      <trkpt lat="42.32016" lon="-8.821552">
        <ele>26.4</ele>
        <time>1970-01-01T01:34:43.000Z</time>
      </trkpt>
      <trkpt lat="42.320152" lon="-8.821554">
        <ele>26</ele>
        <time>1970-01-01T01:34:44.000Z</time>
      </trkpt>
      <trkpt lat="42.320145" lon="-8.821555">
        <ele>25.6</ele>
        <time>1970-01-01T01:34:45.000Z</time>
      </trkpt>
      <trkpt lat="42.320136" lon="-8.821558">
        <ele>25.4</ele>
        <time>1970-01-01T01:34:46.000Z</time>
      </trkpt>
      <trkpt lat="42.320128" lon="-8.821564">
        <ele>25</ele>
        <time>1970-01-01T01:34:47.000Z</time>
      </trkpt>
      <trkpt lat="42.320118" lon="-8.821577">
        <ele>24.8</ele>
        <time>1970-01-01T01:34:48.000Z</time>
      </trkpt>
      <trkpt lat="42.32011" lon="-8.82159">
        <ele>24.6</ele>
        <time>1970-01-01T01:34:49.000Z</time>
      </trkpt>
      <trkpt lat="42.320104" lon="-8.821609">
        <ele>24.2</ele>
        <time>1970-01-01T01:34:50.000Z</time>
      </trkpt>
      <trkpt lat="42.320106" lon="-8.821628">
        <ele>24</ele>
        <time>1970-01-01T01:34:51.000Z</time>
      </trkpt>
      <trkpt lat="42.32011" lon="-8.821645">
        <ele>23.8</ele>
        <time>1970-01-01T01:34:52.000Z</time>
      </trkpt>
      <trkpt lat="42.320116" lon="-8.821662">
        <ele>23.4</ele>
        <time>1970-01-01T01:34:53.000Z</time>
      </trkpt>
      <trkpt lat="42.320127" lon="-8.821682">
        <ele>23.2</ele>
        <time>1970-01-01T01:34:54.000Z</time>
      </trkpt>
      <trkpt lat="42.320139" lon="-8.821698">
        <ele>23</ele>
        <time>1970-01-01T01:34:55.000Z</time>
      </trkpt>
      <trkpt lat="42.320154" lon="-8.821716">
        <ele>22.8</ele>
        <time>1970-01-01T01:34:56.000Z</time>
      </trkpt>
      <trkpt lat="42.320168" lon="-8.821729">
        <ele>22.4</ele>
        <time>1970-01-01T01:34:57.000Z</time>
      </trkpt>
      <trkpt lat="42.320179" lon="-8.821744">
        <ele>22.2</ele>
        <time>1970-01-01T01:34:58.000Z</time>
      </trkpt>
      <trkpt lat="42.320187" lon="-8.821765">
        <ele>22.2</ele>
        <time>1970-01-01T01:34:59.000Z</time>
      </trkpt>
      <trkpt lat="42.320197" lon="-8.821786">
        <ele>22</ele>
        <time>1970-01-01T01:35:00.000Z</time>
      </trkpt>
      <trkpt lat="42.32021" lon="-8.821813">
        <ele>22</ele>
        <time>1970-01-01T01:35:01.000Z</time>
      </trkpt>
      <trkpt lat="42.320222" lon="-8.821849">
        <ele>22</ele>
        <time>1970-01-01T01:35:02.000Z</time>
      </trkpt>
      <trkpt lat="42.320234" lon="-8.82189">
        <ele>21.8</ele>
        <time>1970-01-01T01:35:03.000Z</time>
      </trkpt>
      <trkpt lat="42.32024" lon="-8.821924">
        <ele>21.8</ele>
        <time>1970-01-01T01:35:04.000Z</time>
      </trkpt>
      <trkpt lat="42.32025" lon="-8.821943">
        <ele>21.8</ele>
        <time>1970-01-01T01:35:05.000Z</time>
      </trkpt>
      <trkpt lat="42.320257" lon="-8.821957">
        <ele>21.8</ele>
        <time>1970-01-01T01:35:06.000Z</time>
      </trkpt>
      <trkpt lat="42.320263" lon="-8.82197">
        <ele>21.6</ele>
        <time>1970-01-01T01:35:07.000Z</time>
      </trkpt>
      <trkpt lat="42.320267" lon="-8.82198">
        <ele>21.2</ele>
        <time>1970-01-01T01:35:08.000Z</time>
      </trkpt>
      <trkpt lat="42.320269" lon="-8.821988">
        <ele>21.2</ele>
        <time>1970-01-01T01:35:09.000Z</time>
      </trkpt>
      <trkpt lat="42.320272" lon="-8.821996">
        <ele>21.2</ele>
        <time>1970-01-01T01:35:10.000Z</time>
      </trkpt>
      <trkpt lat="42.320272" lon="-8.822003">
        <ele>21.2</ele>
        <time>1970-01-01T01:35:11.000Z</time>
      </trkpt>
      <trkpt lat="42.32027" lon="-8.822011">
        <ele>21.2</ele>
        <time>1970-01-01T01:35:12.000Z</time>
      </trkpt>
      <trkpt lat="42.320266" lon="-8.82202">
        <ele>21.2</ele>
        <time>1970-01-01T01:35:13.000Z</time>
      </trkpt>
      <trkpt lat="42.320262" lon="-8.822034">
        <ele>21.2</ele>
        <time>1970-01-01T01:35:14.000Z</time>
      </trkpt>
      <trkpt lat="42.320254" lon="-8.822045">
        <ele>21.2</ele>
        <time>1970-01-01T01:35:15.000Z</time>
      </trkpt>
      <trkpt lat="42.320246" lon="-8.822053">
        <ele>21</ele>
        <time>1970-01-01T01:35:16.000Z</time>
      </trkpt>
      <trkpt lat="42.320238" lon="-8.822058">
        <ele>20.8</ele>
        <time>1970-01-01T01:35:17.000Z</time>
      </trkpt>
      <trkpt lat="42.320232" lon="-8.82207">
        <ele>20.8</ele>
        <time>1970-01-01T01:35:18.000Z</time>
      </trkpt>
      <trkpt lat="42.320226" lon="-8.822079">
        <ele>20.4</ele>
        <time>1970-01-01T01:35:19.000Z</time>
      </trkpt>
      <trkpt lat="42.320218" lon="-8.822087">
        <ele>20</ele>
        <time>1970-01-01T01:35:20.000Z</time>
      </trkpt>
      <trkpt lat="42.320206" lon="-8.822099">
        <ele>19.8</ele>
        <time>1970-01-01T01:35:21.000Z</time>
      </trkpt>
      <trkpt lat="42.320194" lon="-8.822115">
        <ele>19.8</ele>
        <time>1970-01-01T01:35:22.000Z</time>
      </trkpt>
      <trkpt lat="42.320177" lon="-8.82213">
        <ele>19.6</ele>
        <time>1970-01-01T01:35:23.000Z</time>
      </trkpt>
      <trkpt lat="42.320164" lon="-8.822148">
        <ele>19.4</ele>
        <time>1970-01-01T01:35:24.000Z</time>
      </trkpt>
      <trkpt lat="42.320149" lon="-8.822169">
        <ele>19.4</ele>
        <time>1970-01-01T01:35:25.000Z</time>
      </trkpt>
      <trkpt lat="42.32014" lon="-8.822181">
        <ele>19.4</ele>
        <time>1970-01-01T01:35:26.000Z</time>
      </trkpt>
      <trkpt lat="42.320132" lon="-8.822194">
        <ele>19.4</ele>
        <time>1970-01-01T01:35:27.000Z</time>
      </trkpt>
      <trkpt lat="42.320124" lon="-8.82221">
        <ele>19.4</ele>
        <time>1970-01-01T01:35:28.000Z</time>
      </trkpt>
      <trkpt lat="42.32012" lon="-8.822232">
        <ele>19.4</ele>
        <time>1970-01-01T01:35:29.000Z</time>
      </trkpt>
      <trkpt lat="42.320118" lon="-8.822247">
        <ele>19.2</ele>
        <time>1970-01-01T01:35:30.000Z</time>
      </trkpt>
      <trkpt lat="42.32012" lon="-8.822268">
        <ele>19.2</ele>
        <time>1970-01-01T01:35:31.000Z</time>
      </trkpt>
      <trkpt lat="42.32012" lon="-8.822287">
        <ele>19.2</ele>
        <time>1970-01-01T01:35:32.000Z</time>
      </trkpt>
      <trkpt lat="42.320117" lon="-8.822301">
        <ele>19.2</ele>
        <time>1970-01-01T01:35:33.000Z</time>
      </trkpt>
      <trkpt lat="42.320108" lon="-8.822315">
        <ele>19.2</ele>
        <time>1970-01-01T01:35:34.000Z</time>
      </trkpt>
      <trkpt lat="42.320099" lon="-8.822324">
        <ele>19</ele>
        <time>1970-01-01T01:35:35.000Z</time>
      </trkpt>
      <trkpt lat="42.320087" lon="-8.822336">
        <ele>19</ele>
        <time>1970-01-01T01:35:36.000Z</time>
      </trkpt>
      <trkpt lat="42.320076" lon="-8.822349">
        <ele>19.2</ele>
        <time>1970-01-01T01:35:37.000Z</time>
      </trkpt>
      <trkpt lat="42.320065" lon="-8.82236">
        <ele>18.8</ele>
        <time>1970-01-01T01:35:38.000Z</time>
      </trkpt>
      <trkpt lat="42.320052" lon="-8.822373">
        <ele>18.4</ele>
        <time>1970-01-01T01:35:39.000Z</time>
      </trkpt>
      <trkpt lat="42.32004" lon="-8.822387">
        <ele>18.4</ele>
        <time>1970-01-01T01:35:40.000Z</time>
      </trkpt>
      <trkpt lat="42.320027" lon="-8.822401">
        <ele>18.2</ele>
        <time>1970-01-01T01:35:41.000Z</time>
      </trkpt>
      <trkpt lat="42.320019" lon="-8.822409">
        <ele>18.2</ele>
        <time>1970-01-01T01:35:42.000Z</time>
      </trkpt>
      <trkpt lat="42.320011" lon="-8.822416">
        <ele>18.2</ele>
        <time>1970-01-01T01:35:43.000Z</time>
      </trkpt>
      <trkpt lat="42.320002" lon="-8.822429">
        <ele>18.2</ele>
        <time>1970-01-01T01:35:44.000Z</time>
      </trkpt>
      <trkpt lat="42.319993" lon="-8.822445">
        <ele>18.2</ele>
        <time>1970-01-01T01:35:45.000Z</time>
      </trkpt>
      <trkpt lat="42.319983" lon="-8.822462">
        <ele>18.2</ele>
        <time>1970-01-01T01:35:46.000Z</time>
      </trkpt>
      <trkpt lat="42.319977" lon="-8.822478">
        <ele>18.2</ele>
        <time>1970-01-01T01:35:47.000Z</time>
      </trkpt>
      <trkpt lat="42.319976" lon="-8.822495">
        <ele>18.2</ele>
        <time>1970-01-01T01:35:48.000Z</time>
      </trkpt>
      <trkpt lat="42.319973" lon="-8.82251">
        <ele>18.2</ele>
        <time>1970-01-01T01:35:49.000Z</time>
      </trkpt>
      <trkpt lat="42.319968" lon="-8.822519">
        <ele>18</ele>
        <time>1970-01-01T01:35:50.000Z</time>
      </trkpt>
      <trkpt lat="42.319963" lon="-8.822527">
        <ele>18</ele>
        <time>1970-01-01T01:35:51.000Z</time>
      </trkpt>
      <trkpt lat="42.319956" lon="-8.822535">
        <ele>18</ele>
        <time>1970-01-01T01:35:52.000Z</time>
      </trkpt>
      <trkpt lat="42.319946" lon="-8.822546">
        <ele>17.8</ele>
        <time>1970-01-01T01:35:53.000Z</time>
      </trkpt>
      <trkpt lat="42.319934" lon="-8.822552">
        <ele>17.6</ele>
        <time>1970-01-01T01:35:54.000Z</time>
      </trkpt>
      <trkpt lat="42.319922" lon="-8.82256">
        <ele>17.6</ele>
        <time>1970-01-01T01:35:55.000Z</time>
      </trkpt>
      <trkpt lat="42.319906" lon="-8.822577">
        <ele>17.6</ele>
        <time>1970-01-01T01:35:56.000Z</time>
      </trkpt>
      <trkpt lat="42.319889" lon="-8.822589">
        <ele>17.6</ele>
        <time>1970-01-01T01:35:57.000Z</time>
      </trkpt>
      <trkpt lat="42.319874" lon="-8.822595">
        <ele>17.6</ele>
        <time>1970-01-01T01:35:58.000Z</time>
      </trkpt>
      <trkpt lat="42.319864" lon="-8.822595">
        <ele>17.6</ele>
        <time>1970-01-01T01:35:59.000Z</time>
      </trkpt>
      <trkpt lat="42.319854" lon="-8.822595">
        <ele>17.6</ele>
        <time>1970-01-01T01:36:00.000Z</time>
      </trkpt>
      <trkpt lat="42.319843" lon="-8.822589">
        <ele>17.8</ele>
        <time>1970-01-01T01:36:01.000Z</time>
      </trkpt>
      <trkpt lat="42.319829" lon="-8.822588">
        <ele>17.8</ele>
        <time>1970-01-01T01:36:02.000Z</time>
      </trkpt>
      <trkpt lat="42.319815" lon="-8.822591">
        <ele>17.8</ele>
        <time>1970-01-01T01:36:03.000Z</time>
      </trkpt>
      <trkpt lat="42.319801" lon="-8.822594">
        <ele>17.6</ele>
        <time>1970-01-01T01:36:04.000Z</time>
      </trkpt>
      <trkpt lat="42.319783" lon="-8.822602">
        <ele>17.6</ele>
        <time>1970-01-01T01:36:05.000Z</time>
      </trkpt>
      <trkpt lat="42.319765" lon="-8.822613">
        <ele>17.4</ele>
        <time>1970-01-01T01:36:06.000Z</time>
      </trkpt>
      <trkpt lat="42.319754" lon="-8.822619">
        <ele>17.2</ele>
        <time>1970-01-01T01:36:07.000Z</time>
      </trkpt>
      <trkpt lat="42.319743" lon="-8.822626">
        <ele>17.2</ele>
        <time>1970-01-01T01:36:08.000Z</time>
      </trkpt>
      <trkpt lat="42.319729" lon="-8.82263">
        <ele>17</ele>
        <time>1970-01-01T01:36:09.000Z</time>
      </trkpt>
      <trkpt lat="42.319716" lon="-8.822628">
        <ele>17</ele>
        <time>1970-01-01T01:36:10.000Z</time>
      </trkpt>
      <trkpt lat="42.319705" lon="-8.822624">
        <ele>17</ele>
        <time>1970-01-01T01:36:11.000Z</time>
      </trkpt>
      <trkpt lat="42.319693" lon="-8.822617">
        <ele>17</ele>
        <time>1970-01-01T01:36:12.000Z</time>
      </trkpt>
      <trkpt lat="42.319683" lon="-8.822611">
        <ele>17</ele>
        <time>1970-01-01T01:36:13.000Z</time>
      </trkpt>
      <trkpt lat="42.31967" lon="-8.822604">
        <ele>17</ele>
        <time>1970-01-01T01:36:14.000Z</time>
      </trkpt>
      <trkpt lat="42.319659" lon="-8.822599">
        <ele>17.2</ele>
        <time>1970-01-01T01:36:15.000Z</time>
      </trkpt>
      <trkpt lat="42.319648" lon="-8.822595">
        <ele>17</ele>
        <time>1970-01-01T01:36:16.000Z</time>
      </trkpt>
      <trkpt lat="42.319638" lon="-8.822594">
        <ele>16.8</ele>
        <time>1970-01-01T01:36:17.000Z</time>
      </trkpt>
      <trkpt lat="42.319627" lon="-8.822597">
        <ele>16.6</ele>
        <time>1970-01-01T01:36:18.000Z</time>
      </trkpt>
      <trkpt lat="42.319615" lon="-8.822596">
        <ele>16.8</ele>
        <time>1970-01-01T01:36:19.000Z</time>
      </trkpt>
      <trkpt lat="42.319604" lon="-8.822595">
        <ele>16.8</ele>
        <time>1970-01-01T01:36:20.000Z</time>
      </trkpt>
      <trkpt lat="42.319591" lon="-8.822598">
        <ele>17</ele>
        <time>1970-01-01T01:36:21.000Z</time>
      </trkpt>
      <trkpt lat="42.319578" lon="-8.822593">
        <ele>17</ele>
        <time>1970-01-01T01:36:22.000Z</time>
      </trkpt>
      <trkpt lat="42.319565" lon="-8.822593">
        <ele>16.8</ele>
        <time>1970-01-01T01:36:23.000Z</time>
      </trkpt>
      <trkpt lat="42.319553" lon="-8.822594">
        <ele>16.8</ele>
        <time>1970-01-01T01:36:24.000Z</time>
      </trkpt>
      <trkpt lat="42.31954" lon="-8.822596">
        <ele>17</ele>
        <time>1970-01-01T01:36:25.000Z</time>
      </trkpt>
      <trkpt lat="42.319527" lon="-8.822596">
        <ele>16.4</ele>
        <time>1970-01-01T01:36:26.000Z</time>
      </trkpt>
      <trkpt lat="42.319514" lon="-8.822594">
        <ele>16.2</ele>
        <time>1970-01-01T01:36:27.000Z</time>
      </trkpt>
      <trkpt lat="42.319501" lon="-8.822591">
        <ele>16</ele>
        <time>1970-01-01T01:36:28.000Z</time>
      </trkpt>
      <trkpt lat="42.319489" lon="-8.822587">
        <ele>16</ele>
        <time>1970-01-01T01:36:29.000Z</time>
      </trkpt>
      <trkpt lat="42.319476" lon="-8.822578">
        <ele>16</ele>
        <time>1970-01-01T01:36:30.000Z</time>
      </trkpt>
      <trkpt lat="42.319462" lon="-8.82257">
        <ele>16.2</ele>
        <time>1970-01-01T01:36:31.000Z</time>
      </trkpt>
      <trkpt lat="42.319448" lon="-8.822562">
        <ele>16.2</ele>
        <time>1970-01-01T01:36:32.000Z</time>
      </trkpt>
      <trkpt lat="42.319431" lon="-8.822563">
        <ele>16.2</ele>
        <time>1970-01-01T01:36:33.000Z</time>
      </trkpt>
      <trkpt lat="42.31941" lon="-8.822572">
        <ele>16.2</ele>
        <time>1970-01-01T01:36:34.000Z</time>
      </trkpt>
      <trkpt lat="42.319393" lon="-8.822578">
        <ele>16</ele>
        <time>1970-01-01T01:36:35.000Z</time>
      </trkpt>
      <trkpt lat="42.319378" lon="-8.822584">
        <ele>16</ele>
        <time>1970-01-01T01:36:36.000Z</time>
      </trkpt>
      <trkpt lat="42.319362" lon="-8.822594">
        <ele>15.8</ele>
        <time>1970-01-01T01:36:37.000Z</time>
      </trkpt>
      <trkpt lat="42.31935" lon="-8.822597">
        <ele>15.6</ele>
        <time>1970-01-01T01:36:38.000Z</time>
      </trkpt>
      <trkpt lat="42.319338" lon="-8.822602">
        <ele>15.6</ele>
        <time>1970-01-01T01:36:39.000Z</time>
      </trkpt>
      <trkpt lat="42.319326" lon="-8.822607">
        <ele>15.6</ele>
        <time>1970-01-01T01:36:40.000Z</time>
      </trkpt>
      <trkpt lat="42.319314" lon="-8.82261">
        <ele>15.8</ele>
        <time>1970-01-01T01:36:41.000Z</time>
      </trkpt>
      <trkpt lat="42.3193" lon="-8.822607">
        <ele>15.8</ele>
        <time>1970-01-01T01:36:42.000Z</time>
      </trkpt>
      <trkpt lat="42.319288" lon="-8.822603">
        <ele>15.8</ele>
        <time>1970-01-01T01:36:43.000Z</time>
      </trkpt>
      <trkpt lat="42.319275" lon="-8.822601">
        <ele>15.4</ele>
        <time>1970-01-01T01:36:44.000Z</time>
      </trkpt>
      <trkpt lat="42.319262" lon="-8.8226">
        <ele>15</ele>
        <time>1970-01-01T01:36:45.000Z</time>
      </trkpt>
      <trkpt lat="42.31925" lon="-8.822602">
        <ele>14.8</ele>
        <time>1970-01-01T01:36:46.000Z</time>
      </trkpt>
      <trkpt lat="42.319237" lon="-8.822609">
        <ele>14.6</ele>
        <time>1970-01-01T01:36:47.000Z</time>
      </trkpt>
      <trkpt lat="42.319222" lon="-8.822623">
        <ele>14.6</ele>
        <time>1970-01-01T01:36:48.000Z</time>
      </trkpt>
      <trkpt lat="42.319212" lon="-8.822633">
        <ele>14.4</ele>
        <time>1970-01-01T01:36:49.000Z</time>
      </trkpt>
      <trkpt lat="42.319202" lon="-8.822644">
        <ele>14.4</ele>
        <time>1970-01-01T01:36:50.000Z</time>
      </trkpt>
      <trkpt lat="42.31919" lon="-8.822654">
        <ele>14.4</ele>
        <time>1970-01-01T01:36:51.000Z</time>
      </trkpt>
      <trkpt lat="42.319179" lon="-8.822662">
        <ele>14.4</ele>
        <time>1970-01-01T01:36:52.000Z</time>
      </trkpt>
      <trkpt lat="42.319169" lon="-8.82267">
        <ele>14.4</ele>
        <time>1970-01-01T01:36:53.000Z</time>
      </trkpt>
      <trkpt lat="42.319161" lon="-8.822678">
        <ele>14.4</ele>
        <time>1970-01-01T01:36:54.000Z</time>
      </trkpt>
      <trkpt lat="42.319151" lon="-8.822686">
        <ele>14.2</ele>
        <time>1970-01-01T01:36:55.000Z</time>
      </trkpt>
      <trkpt lat="42.31914" lon="-8.822698">
        <ele>14.2</ele>
        <time>1970-01-01T01:36:56.000Z</time>
      </trkpt>
      <trkpt lat="42.31913" lon="-8.822705">
        <ele>14</ele>
        <time>1970-01-01T01:36:57.000Z</time>
      </trkpt>
      <trkpt lat="42.31912" lon="-8.822709">
        <ele>14.2</ele>
        <time>1970-01-01T01:36:58.000Z</time>
      </trkpt>
      <trkpt lat="42.319111" lon="-8.822712">
        <ele>14.2</ele>
        <time>1970-01-01T01:36:59.000Z</time>
      </trkpt>
      <trkpt lat="42.319106" lon="-8.822715">
        <ele>14.2</ele>
        <time>1970-01-01T01:37:00.000Z</time>
      </trkpt>
      <trkpt lat="42.319103" lon="-8.822716">
        <ele>14</ele>
        <time>1970-01-01T01:37:01.000Z</time>
      </trkpt>
      <trkpt lat="42.319102" lon="-8.82271">
        <ele>14</ele>
        <time>1970-01-01T01:37:02.000Z</time>
      </trkpt>
      <trkpt lat="42.319092" lon="-8.822711">
        <ele>14</ele>
        <time>1970-01-01T01:37:03.000Z</time>
      </trkpt>
      <trkpt lat="42.319081" lon="-8.822714">
        <ele>13.8</ele>
        <time>1970-01-01T01:37:04.000Z</time>
      </trkpt>
      <trkpt lat="42.319071" lon="-8.822721">
        <ele>13.8</ele>
        <time>1970-01-01T01:37:05.000Z</time>
      </trkpt>
      <trkpt lat="42.319061" lon="-8.822734">
        <ele>13.2</ele>
        <time>1970-01-01T01:37:06.000Z</time>
      </trkpt>
      <trkpt lat="42.319054" lon="-8.822746">
        <ele>12.8</ele>
        <time>1970-01-01T01:37:07.000Z</time>
      </trkpt>
      <trkpt lat="42.319047" lon="-8.822765">
        <ele>12.8</ele>
        <time>1970-01-01T01:37:08.000Z</time>
      </trkpt>
      <trkpt lat="42.319039" lon="-8.822777">
        <ele>12.6</ele>
        <time>1970-01-01T01:37:09.000Z</time>
      </trkpt>
      <trkpt lat="42.319029" lon="-8.822785">
        <ele>12</ele>
        <time>1970-01-01T01:37:10.000Z</time>
      </trkpt>
      <trkpt lat="42.319019" lon="-8.822793">
        <ele>11.8</ele>
        <time>1970-01-01T01:37:11.000Z</time>
      </trkpt>
      <trkpt lat="42.319011" lon="-8.822804">
        <ele>11.6</ele>
        <time>1970-01-01T01:37:12.000Z</time>
      </trkpt>
      <trkpt lat="42.319002" lon="-8.822812">
        <ele>11.6</ele>
        <time>1970-01-01T01:37:13.000Z</time>
      </trkpt>
      <trkpt lat="42.318995" lon="-8.822822">
        <ele>11.4</ele>
        <time>1970-01-01T01:37:14.000Z</time>
      </trkpt>
      <trkpt lat="42.31899" lon="-8.822832">
        <ele>11.2</ele>
        <time>1970-01-01T01:37:15.000Z</time>
      </trkpt>
      <trkpt lat="42.318984" lon="-8.822842">
        <ele>11</ele>
        <time>1970-01-01T01:37:16.000Z</time>
      </trkpt>
      <trkpt lat="42.318975" lon="-8.822852">
        <ele>11</ele>
        <time>1970-01-01T01:37:17.000Z</time>
      </trkpt>
      <trkpt lat="42.318967" lon="-8.822862">
        <ele>10.6</ele>
        <time>1970-01-01T01:37:18.000Z</time>
      </trkpt>
      <trkpt lat="42.318957" lon="-8.822873">
        <ele>10.2</ele>
        <time>1970-01-01T01:37:19.000Z</time>
      </trkpt>
      <trkpt lat="42.318947" lon="-8.822896">
        <ele>10</ele>
        <time>1970-01-01T01:37:20.000Z</time>
      </trkpt>
      <trkpt lat="42.318939" lon="-8.822913">
        <ele>9.8</ele>
        <time>1970-01-01T01:37:21.000Z</time>
      </trkpt>
      <trkpt lat="42.318933" lon="-8.822923">
        <ele>9.4</ele>
        <time>1970-01-01T01:37:22.000Z</time>
      </trkpt>
      <trkpt lat="42.318926" lon="-8.822934">
        <ele>9.2</ele>
        <time>1970-01-01T01:37:23.000Z</time>
      </trkpt>
      <trkpt lat="42.318919" lon="-8.822948">
        <ele>9</ele>
        <time>1970-01-01T01:37:24.000Z</time>
      </trkpt>
      <trkpt lat="42.318913" lon="-8.822964">
        <ele>8.8</ele>
        <time>1970-01-01T01:37:25.000Z</time>
      </trkpt>
      <trkpt lat="42.31891" lon="-8.822985">
        <ele>8.4</ele>
        <time>1970-01-01T01:37:26.000Z</time>
      </trkpt>
      <trkpt lat="42.318907" lon="-8.823004">
        <ele>8.2</ele>
        <time>1970-01-01T01:37:27.000Z</time>
      </trkpt>
      <trkpt lat="42.318903" lon="-8.82302">
        <ele>8</ele>
        <time>1970-01-01T01:37:28.000Z</time>
      </trkpt>
      <trkpt lat="42.3189" lon="-8.82303">
        <ele>7.6</ele>
        <time>1970-01-01T01:37:29.000Z</time>
      </trkpt>
      <trkpt lat="42.318897" lon="-8.823039">
        <ele>7.6</ele>
        <time>1970-01-01T01:37:30.000Z</time>
      </trkpt>
      <trkpt lat="42.318894" lon="-8.823044">
        <ele>7.4</ele>
        <time>1970-01-01T01:37:31.000Z</time>
      </trkpt>
      <trkpt lat="42.318887" lon="-8.823048">
        <ele>7.2</ele>
        <time>1970-01-01T01:37:32.000Z</time>
      </trkpt>
      <trkpt lat="42.318877" lon="-8.823046">
        <ele>7.2</ele>
        <time>1970-01-01T01:37:33.000Z</time>
      </trkpt>
      <trkpt lat="42.318864" lon="-8.823044">
        <ele>7</ele>
        <time>1970-01-01T01:37:34.000Z</time>
      </trkpt>
      <trkpt lat="42.318855" lon="-8.823046">
        <ele>7</ele>
        <time>1970-01-01T01:37:35.000Z</time>
      </trkpt>
      <trkpt lat="42.318848" lon="-8.823045">
        <ele>7</ele>
        <time>1970-01-01T01:37:36.000Z</time>
      </trkpt>
      <trkpt lat="42.318842" lon="-8.823044">
        <ele>7</ele>
        <time>1970-01-01T01:37:37.000Z</time>
      </trkpt>
      <trkpt lat="42.318835" lon="-8.823047">
        <ele>6.8</ele>
        <time>1970-01-01T01:37:38.000Z</time>
      </trkpt>
      <trkpt lat="42.318824" lon="-8.82305">
        <ele>6.8</ele>
        <time>1970-01-01T01:37:39.000Z</time>
      </trkpt>
      <trkpt lat="42.318812" lon="-8.823053">
        <ele>6.8</ele>
        <time>1970-01-01T01:37:40.000Z</time>
      </trkpt>
      <trkpt lat="42.318799" lon="-8.823061">
        <ele>6.8</ele>
        <time>1970-01-01T01:37:41.000Z</time>
      </trkpt>
      <trkpt lat="42.318789" lon="-8.823064">
        <ele>6.2</ele>
        <time>1970-01-01T01:37:42.000Z</time>
      </trkpt>
      <trkpt lat="42.318779" lon="-8.823063">
        <ele>6</ele>
        <time>1970-01-01T01:37:43.000Z</time>
      </trkpt>
      <trkpt lat="42.318766" lon="-8.823058">
        <ele>5.6</ele>
        <time>1970-01-01T01:37:44.000Z</time>
      </trkpt>
      <trkpt lat="42.318754" lon="-8.823053">
        <ele>5.4</ele>
        <time>1970-01-01T01:37:45.000Z</time>
      </trkpt>
      <trkpt lat="42.318742" lon="-8.823049">
        <ele>5.4</ele>
        <time>1970-01-01T01:37:46.000Z</time>
      </trkpt>
      <trkpt lat="42.318729" lon="-8.823048">
        <ele>5.2</ele>
        <time>1970-01-01T01:37:47.000Z</time>
      </trkpt>
      <trkpt lat="42.318717" lon="-8.82305">
        <ele>5</ele>
        <time>1970-01-01T01:37:48.000Z</time>
      </trkpt>
      <trkpt lat="42.318707" lon="-8.823052">
        <ele>5</ele>
        <time>1970-01-01T01:37:49.000Z</time>
      </trkpt>
      <trkpt lat="42.318698" lon="-8.823053">
        <ele>5.2</ele>
        <time>1970-01-01T01:37:50.000Z</time>
      </trkpt>
      <trkpt lat="42.318691" lon="-8.823056">
        <ele>5.4</ele>
        <time>1970-01-01T01:37:51.000Z</time>
      </trkpt>
      <trkpt lat="42.318685" lon="-8.823057">
        <ele>5.4</ele>
        <time>1970-01-01T01:37:52.000Z</time>
      </trkpt>
      <trkpt lat="42.31868" lon="-8.823058">
        <ele>5.2</ele>
        <time>1970-01-01T01:37:53.000Z</time>
      </trkpt>
      <trkpt lat="42.318674" lon="-8.823055">
        <ele>5</ele>
        <time>1970-01-01T01:37:54.000Z</time>
      </trkpt>
      <trkpt lat="42.318667" lon="-8.823054">
        <ele>5</ele>
        <time>1970-01-01T01:37:55.000Z</time>
      </trkpt>
      <trkpt lat="42.31866" lon="-8.823053">
        <ele>4.8</ele>
        <time>1970-01-01T01:37:56.000Z</time>
      </trkpt>
      <trkpt lat="42.318654" lon="-8.82305">
        <ele>4.8</ele>
        <time>1970-01-01T01:37:57.000Z</time>
      </trkpt>
      <trkpt lat="42.318648" lon="-8.823051">
        <ele>4.6</ele>
        <time>1970-01-01T01:37:58.000Z</time>
      </trkpt>
      <trkpt lat="42.318641" lon="-8.823049">
        <ele>4.6</ele>
        <time>1970-01-01T01:37:59.000Z</time>
      </trkpt>
      <trkpt lat="42.318634" lon="-8.823047">
        <ele>4.6</ele>
        <time>1970-01-01T01:38:00.000Z</time>
      </trkpt>
      <trkpt lat="42.318631" lon="-8.823041">
        <ele>4.6</ele>
        <time>1970-01-01T01:38:01.000Z</time>
      </trkpt>
      <trkpt lat="42.318627" lon="-8.823037">
        <ele>4.6</ele>
        <time>1970-01-01T01:38:02.000Z</time>
      </trkpt>
      <trkpt lat="42.318624" lon="-8.82303">
        <ele>4.8</ele>
        <time>1970-01-01T01:38:03.000Z</time>
      </trkpt>
      <trkpt lat="42.31862" lon="-8.823023">
        <ele>4.6</ele>
        <time>1970-01-01T01:38:04.000Z</time>
      </trkpt>
      <trkpt lat="42.318619" lon="-8.823019">
        <ele>4.6</ele>
        <time>1970-01-01T01:38:05.000Z</time>
      </trkpt>
      <trkpt lat="42.318622" lon="-8.823022">
        <ele>4.6</ele>
        <time>1970-01-01T01:38:06.000Z</time>
      </trkpt>
      <trkpt lat="42.318626" lon="-8.823025">
        <ele>4.8</ele>
        <time>1970-01-01T01:38:07.000Z</time>
      </trkpt>
      <trkpt lat="42.31863" lon="-8.823023">
        <ele>4.8</ele>
        <time>1970-01-01T01:38:08.000Z</time>
      </trkpt>
      <trkpt lat="42.318634" lon="-8.823022">
        <ele>5.4</ele>
        <time>1970-01-01T01:38:09.000Z</time>
      </trkpt>
      <trkpt lat="42.318639" lon="-8.823015">
        <ele>5.8</ele>
        <time>1970-01-01T01:38:10.000Z</time>
      </trkpt>
      <trkpt lat="42.318641" lon="-8.823008">
        <ele>6</ele>
        <time>1970-01-01T01:38:11.000Z</time>
      </trkpt>
      <trkpt lat="42.318641" lon="-8.822996">
        <ele>6.2</ele>
        <time>1970-01-01T01:38:12.000Z</time>
      </trkpt>
      <trkpt lat="42.318642" lon="-8.822982">
        <ele>6.2</ele>
        <time>1970-01-01T01:38:13.000Z</time>
      </trkpt>
      <trkpt lat="42.318645" lon="-8.822973">
        <ele>6.2</ele>
        <time>1970-01-01T01:38:14.000Z</time>
      </trkpt>
      <trkpt lat="42.318649" lon="-8.822963">
        <ele>6.6</ele>
        <time>1970-01-01T01:38:15.000Z</time>
      </trkpt>
      <trkpt lat="42.318655" lon="-8.822949">
        <ele>6.8</ele>
        <time>1970-01-01T01:38:16.000Z</time>
      </trkpt>
      <trkpt lat="42.318657" lon="-8.822943">
        <ele>7.4</ele>
        <time>1970-01-01T01:38:17.000Z</time>
      </trkpt>
      <trkpt lat="42.318655" lon="-8.82294">
        <ele>7.6</ele>
        <time>1970-01-01T01:38:18.000Z</time>
      </trkpt>
      <trkpt lat="42.318652" lon="-8.822939">
        <ele>7.6</ele>
        <time>1970-01-01T01:38:19.000Z</time>
      </trkpt>
      <trkpt lat="42.318653" lon="-8.822935">
        <ele>7.8</ele>
        <time>1970-01-01T01:38:20.000Z</time>
      </trkpt>
      <trkpt lat="42.318656" lon="-8.822931">
        <ele>8.2</ele>
        <time>1970-01-01T01:38:21.000Z</time>
      </trkpt>
      <trkpt lat="42.318661" lon="-8.822923">
        <ele>8.4</ele>
        <time>1970-01-01T01:38:22.000Z</time>
      </trkpt>
      <trkpt lat="42.318668" lon="-8.822921">
        <ele>9</ele>
        <time>1970-01-01T01:38:23.000Z</time>
      </trkpt>
      <trkpt lat="42.31867" lon="-8.822916">
        <ele>9.2</ele>
        <time>1970-01-01T01:38:24.000Z</time>
      </trkpt>
      <trkpt lat="42.31867" lon="-8.822915">
        <ele>9.6</ele>
        <time>1970-01-01T01:38:25.000Z</time>
      </trkpt>
      <trkpt lat="42.318675" lon="-8.822913">
        <ele>9.8</ele>
        <time>1970-01-01T01:38:26.000Z</time>
      </trkpt>
      <trkpt lat="42.318679" lon="-8.822912">
        <ele>10</ele>
        <time>1970-01-01T01:38:27.000Z</time>
      </trkpt>
      <trkpt lat="42.318682" lon="-8.822908">
        <ele>10</ele>
        <time>1970-01-01T01:38:28.000Z</time>
      </trkpt>
      <trkpt lat="42.31868" lon="-8.822893">
        <ele>10.2</ele>
        <time>1970-01-01T01:38:29.000Z</time>
      </trkpt>
      <trkpt lat="42.318676" lon="-8.822874">
        <ele>10.2</ele>
        <time>1970-01-01T01:38:30.000Z</time>
      </trkpt>
      <trkpt lat="42.318673" lon="-8.822861">
        <ele>10.4</ele>
        <time>1970-01-01T01:38:31.000Z</time>
      </trkpt>
      <trkpt lat="42.318663" lon="-8.822856">
        <ele>10.6</ele>
        <time>1970-01-01T01:38:32.000Z</time>
      </trkpt>
      <trkpt lat="42.318654" lon="-8.822851">
        <ele>11</ele>
        <time>1970-01-01T01:38:33.000Z</time>
      </trkpt>
      <trkpt lat="42.318649" lon="-8.822834">
        <ele>11.6</ele>
        <time>1970-01-01T01:38:34.000Z</time>
      </trkpt>
      <trkpt lat="42.31864" lon="-8.822825">
        <ele>11.8</ele>
        <time>1970-01-01T01:38:35.000Z</time>
      </trkpt>
      <trkpt lat="42.318633" lon="-8.82282">
        <ele>12</ele>
        <time>1970-01-01T01:38:36.000Z</time>
      </trkpt>
      <trkpt lat="42.31863" lon="-8.822818">
        <ele>12.2</ele>
        <time>1970-01-01T01:38:37.000Z</time>
      </trkpt>
      <trkpt lat="42.318628" lon="-8.822816">
        <ele>12.2</ele>
        <time>1970-01-01T01:38:38.000Z</time>
      </trkpt>
      <trkpt lat="42.318623" lon="-8.822817">
        <ele>12.4</ele>
        <time>1970-01-01T01:38:39.000Z</time>
      </trkpt>
      <trkpt lat="42.318614" lon="-8.82282">
        <ele>12.4</ele>
        <time>1970-01-01T01:38:40.000Z</time>
      </trkpt>
      <trkpt lat="42.318603" lon="-8.822824">
        <ele>12.6</ele>
        <time>1970-01-01T01:38:41.000Z</time>
      </trkpt>
      <trkpt lat="42.318593" lon="-8.822828">
        <ele>12.8</ele>
        <time>1970-01-01T01:38:42.000Z</time>
      </trkpt>
      <trkpt lat="42.318585" lon="-8.822828">
        <ele>13</ele>
        <time>1970-01-01T01:38:43.000Z</time>
      </trkpt>
      <trkpt lat="42.318578" lon="-8.822826">
        <ele>13.2</ele>
        <time>1970-01-01T01:38:44.000Z</time>
      </trkpt>
      <trkpt lat="42.318571" lon="-8.822823">
        <ele>13.4</ele>
        <time>1970-01-01T01:38:45.000Z</time>
      </trkpt>
      <trkpt lat="42.318563" lon="-8.822817">
        <ele>13.6</ele>
        <time>1970-01-01T01:38:46.000Z</time>
      </trkpt>
      <trkpt lat="42.318557" lon="-8.822814">
        <ele>14</ele>
        <time>1970-01-01T01:38:47.000Z</time>
      </trkpt>
      <trkpt lat="42.318554" lon="-8.822807">
        <ele>14</ele>
        <time>1970-01-01T01:38:48.000Z</time>
      </trkpt>
      <trkpt lat="42.31855" lon="-8.822799">
        <ele>14.2</ele>
        <time>1970-01-01T01:38:49.000Z</time>
      </trkpt>
      <trkpt lat="42.318547" lon="-8.822789">
        <ele>14.4</ele>
        <time>1970-01-01T01:38:50.000Z</time>
      </trkpt>
      <trkpt lat="42.318546" lon="-8.822785">
        <ele>14.6</ele>
        <time>1970-01-01T01:38:51.000Z</time>
      </trkpt>
      <trkpt lat="42.318545" lon="-8.822772">
        <ele>14.8</ele>
        <time>1970-01-01T01:38:52.000Z</time>
      </trkpt>
      <trkpt lat="42.318543" lon="-8.822752">
        <ele>15</ele>
        <time>1970-01-01T01:38:53.000Z</time>
      </trkpt>
      <trkpt lat="42.318544" lon="-8.82274">
        <ele>15.2</ele>
        <time>1970-01-01T01:38:54.000Z</time>
      </trkpt>
      <trkpt lat="42.318543" lon="-8.822731">
        <ele>15.4</ele>
        <time>1970-01-01T01:38:55.000Z</time>
      </trkpt>
      <trkpt lat="42.318541" lon="-8.822723">
        <ele>15.8</ele>
        <time>1970-01-01T01:38:56.000Z</time>
      </trkpt>
      <trkpt lat="42.318536" lon="-8.822717">
        <ele>16.2</ele>
        <time>1970-01-01T01:38:57.000Z</time>
      </trkpt>
      <trkpt lat="42.318526" lon="-8.822718">
        <ele>16.4</ele>
        <time>1970-01-01T01:38:58.000Z</time>
      </trkpt>
      <trkpt lat="42.318519" lon="-8.822715">
        <ele>16.6</ele>
        <time>1970-01-01T01:38:59.000Z</time>
      </trkpt>
      <trkpt lat="42.318519" lon="-8.822708">
        <ele>16.8</ele>
        <time>1970-01-01T01:39:00.000Z</time>
      </trkpt>
      <trkpt lat="42.318519" lon="-8.822705">
        <ele>17</ele>
        <time>1970-01-01T01:39:01.000Z</time>
      </trkpt>
      <trkpt lat="42.31852" lon="-8.822698">
        <ele>17.2</ele>
        <time>1970-01-01T01:39:02.000Z</time>
      </trkpt>
      <trkpt lat="42.31852" lon="-8.822694">
        <ele>17.6</ele>
        <time>1970-01-01T01:39:03.000Z</time>
      </trkpt>
      <trkpt lat="42.318518" lon="-8.822686">
        <ele>17.8</ele>
        <time>1970-01-01T01:39:04.000Z</time>
      </trkpt>
      <trkpt lat="42.31852" lon="-8.822678">
        <ele>18</ele>
        <time>1970-01-01T01:39:05.000Z</time>
      </trkpt>
      <trkpt lat="42.318524" lon="-8.822671">
        <ele>18.2</ele>
        <time>1970-01-01T01:39:06.000Z</time>
      </trkpt>
      <trkpt lat="42.318527" lon="-8.822666">
        <ele>19.2</ele>
        <time>1970-01-01T01:39:07.000Z</time>
      </trkpt>
      <trkpt lat="42.318526" lon="-8.822659">
        <ele>19.8</ele>
        <time>1970-01-01T01:39:08.000Z</time>
      </trkpt>
      <trkpt lat="42.318522" lon="-8.822647">
        <ele>20.2</ele>
        <time>1970-01-01T01:39:09.000Z</time>
      </trkpt>
      <trkpt lat="42.318518" lon="-8.822641">
        <ele>20.4</ele>
        <time>1970-01-01T01:39:10.000Z</time>
      </trkpt>
      <trkpt lat="42.318516" lon="-8.822633">
        <ele>20.6</ele>
        <time>1970-01-01T01:39:11.000Z</time>
      </trkpt>
      <trkpt lat="42.318512" lon="-8.82263">
        <ele>20.8</ele>
        <time>1970-01-01T01:39:12.000Z</time>
      </trkpt>
      <trkpt lat="42.318504" lon="-8.822624">
        <ele>21</ele>
        <time>1970-01-01T01:39:13.000Z</time>
      </trkpt>
      <trkpt lat="42.318497" lon="-8.822615">
        <ele>21.2</ele>
        <time>1970-01-01T01:39:14.000Z</time>
      </trkpt>
      <trkpt lat="42.318492" lon="-8.822605">
        <ele>21.2</ele>
        <time>1970-01-01T01:39:15.000Z</time>
      </trkpt>
      <trkpt lat="42.318488" lon="-8.822593">
        <ele>21.6</ele>
        <time>1970-01-01T01:39:16.000Z</time>
      </trkpt>
      <trkpt lat="42.318482" lon="-8.822582">
        <ele>21.8</ele>
        <time>1970-01-01T01:39:17.000Z</time>
      </trkpt>
      <trkpt lat="42.318474" lon="-8.822578">
        <ele>22.2</ele>
        <time>1970-01-01T01:39:18.000Z</time>
      </trkpt>
      <trkpt lat="42.318467" lon="-8.822582">
        <ele>22.4</ele>
        <time>1970-01-01T01:39:19.000Z</time>
      </trkpt>
      <trkpt lat="42.318461" lon="-8.822585">
        <ele>22.6</ele>
        <time>1970-01-01T01:39:20.000Z</time>
      </trkpt>
      <trkpt lat="42.318456" lon="-8.822588">
        <ele>22.6</ele>
        <time>1970-01-01T01:39:21.000Z</time>
      </trkpt>
      <trkpt lat="42.318449" lon="-8.822588">
        <ele>22.8</ele>
        <time>1970-01-01T01:39:22.000Z</time>
      </trkpt>
      <trkpt lat="42.318439" lon="-8.82259">
        <ele>23</ele>
        <time>1970-01-01T01:39:23.000Z</time>
      </trkpt>
      <trkpt lat="42.318428" lon="-8.82259">
        <ele>23</ele>
        <time>1970-01-01T01:39:24.000Z</time>
      </trkpt>
      <trkpt lat="42.318416" lon="-8.822587">
        <ele>23</ele>
        <time>1970-01-01T01:39:25.000Z</time>
      </trkpt>
      <trkpt lat="42.318403" lon="-8.822585">
        <ele>23.2</ele>
        <time>1970-01-01T01:39:26.000Z</time>
      </trkpt>
      <trkpt lat="42.318391" lon="-8.822582">
        <ele>23.6</ele>
        <time>1970-01-01T01:39:27.000Z</time>
      </trkpt>
      <trkpt lat="42.318386" lon="-8.822577">
        <ele>23.8</ele>
        <time>1970-01-01T01:39:28.000Z</time>
      </trkpt>
      <trkpt lat="42.318381" lon="-8.82257">
        <ele>23.8</ele>
        <time>1970-01-01T01:39:29.000Z</time>
      </trkpt>
      <trkpt lat="42.318376" lon="-8.822559">
        <ele>23.8</ele>
        <time>1970-01-01T01:39:30.000Z</time>
      </trkpt>
      <trkpt lat="42.318377" lon="-8.822552">
        <ele>24</ele>
        <time>1970-01-01T01:39:31.000Z</time>
      </trkpt>
      <trkpt lat="42.31838" lon="-8.82255">
        <ele>23.8</ele>
        <time>1970-01-01T01:39:32.000Z</time>
      </trkpt>
      <trkpt lat="42.31838" lon="-8.822549">
        <ele>23.8</ele>
        <time>1970-01-01T01:39:33.000Z</time>
      </trkpt>
      <trkpt lat="42.318377" lon="-8.82255">
        <ele>23.6</ele>
        <time>1970-01-01T01:39:34.000Z</time>
      </trkpt>
      <trkpt lat="42.318369" lon="-8.822547">
        <ele>23.6</ele>
        <time>1970-01-01T01:39:35.000Z</time>
      </trkpt>
      <trkpt lat="42.318357" lon="-8.822551">
        <ele>23.4</ele>
        <time>1970-01-01T01:39:36.000Z</time>
      </trkpt>
      <trkpt lat="42.318345" lon="-8.822549">
        <ele>23.4</ele>
        <time>1970-01-01T01:39:37.000Z</time>
      </trkpt>
      <trkpt lat="42.318333" lon="-8.82255">
        <ele>23</ele>
        <time>1970-01-01T01:39:38.000Z</time>
      </trkpt>
      <trkpt lat="42.318325" lon="-8.822552">
        <ele>22.8</ele>
        <time>1970-01-01T01:39:39.000Z</time>
      </trkpt>
      <trkpt lat="42.318319" lon="-8.822554">
        <ele>22.8</ele>
        <time>1970-01-01T01:39:40.000Z</time>
      </trkpt>
      <trkpt lat="42.318313" lon="-8.822556">
        <ele>22.6</ele>
        <time>1970-01-01T01:39:41.000Z</time>
      </trkpt>
      <trkpt lat="42.318301" lon="-8.822563">
        <ele>22.6</ele>
        <time>1970-01-01T01:39:42.000Z</time>
      </trkpt>
      <trkpt lat="42.318291" lon="-8.822568">
        <ele>22.6</ele>
        <time>1970-01-01T01:39:43.000Z</time>
      </trkpt>
      <trkpt lat="42.318281" lon="-8.822568">
        <ele>22.6</ele>
        <time>1970-01-01T01:39:44.000Z</time>
      </trkpt>
      <trkpt lat="42.318271" lon="-8.822568">
        <ele>22.4</ele>
        <time>1970-01-01T01:39:45.000Z</time>
      </trkpt>
      <trkpt lat="42.318262" lon="-8.822561">
        <ele>22.4</ele>
        <time>1970-01-01T01:39:46.000Z</time>
      </trkpt>
      <trkpt lat="42.318255" lon="-8.822552">
        <ele>22.4</ele>
        <time>1970-01-01T01:39:47.000Z</time>
      </trkpt>
      <trkpt lat="42.31825" lon="-8.822546">
        <ele>22.6</ele>
        <time>1970-01-01T01:39:48.000Z</time>
      </trkpt>
      <trkpt lat="42.318246" lon="-8.822538">
        <ele>22.6</ele>
        <time>1970-01-01T01:39:49.000Z</time>
      </trkpt>
      <trkpt lat="42.318239" lon="-8.822528">
        <ele>22.6</ele>
        <time>1970-01-01T01:39:50.000Z</time>
      </trkpt>
      <trkpt lat="42.31823" lon="-8.822522">
        <ele>22.6</ele>
        <time>1970-01-01T01:39:51.000Z</time>
      </trkpt>
      <trkpt lat="42.318222" lon="-8.82251">
        <ele>22.8</ele>
        <time>1970-01-01T01:39:52.000Z</time>
      </trkpt>
      <trkpt lat="42.318216" lon="-8.822503">
        <ele>22.8</ele>
        <time>1970-01-01T01:39:53.000Z</time>
      </trkpt>
      <trkpt lat="42.318209" lon="-8.822494">
        <ele>22.8</ele>
        <time>1970-01-01T01:39:54.000Z</time>
      </trkpt>
      <trkpt lat="42.318201" lon="-8.822482">
        <ele>23</ele>
        <time>1970-01-01T01:39:55.000Z</time>
      </trkpt>
      <trkpt lat="42.318191" lon="-8.822478">
        <ele>23.4</ele>
        <time>1970-01-01T01:39:56.000Z</time>
      </trkpt>
      <trkpt lat="42.318183" lon="-8.822473">
        <ele>23.6</ele>
        <time>1970-01-01T01:39:57.000Z</time>
      </trkpt>
      <trkpt lat="42.318176" lon="-8.822467">
        <ele>23.8</ele>
        <time>1970-01-01T01:39:58.000Z</time>
      </trkpt>
      <trkpt lat="42.318167" lon="-8.822463">
        <ele>24</ele>
        <time>1970-01-01T01:39:59.000Z</time>
      </trkpt>
      <trkpt lat="42.318159" lon="-8.822458">
        <ele>24.2</ele>
        <time>1970-01-01T01:40:00.000Z</time>
      </trkpt>
      <trkpt lat="42.318148" lon="-8.822452">
        <ele>24.4</ele>
        <time>1970-01-01T01:40:01.000Z</time>
      </trkpt>
      <trkpt lat="42.31814" lon="-8.822441">
        <ele>24.4</ele>
        <time>1970-01-01T01:40:02.000Z</time>
      </trkpt>
      <trkpt lat="42.318128" lon="-8.822432">
        <ele>24.8</ele>
        <time>1970-01-01T01:40:03.000Z</time>
      </trkpt>
      <trkpt lat="42.318118" lon="-8.822421">
        <ele>25.2</ele>
        <time>1970-01-01T01:40:04.000Z</time>
      </trkpt>
      <trkpt lat="42.318109" lon="-8.822413">
        <ele>25.4</ele>
        <time>1970-01-01T01:40:05.000Z</time>
      </trkpt>
      <trkpt lat="42.318101" lon="-8.822411">
        <ele>25.6</ele>
        <time>1970-01-01T01:40:06.000Z</time>
      </trkpt>
      <trkpt lat="42.318091" lon="-8.822409">
        <ele>25.6</ele>
        <time>1970-01-01T01:40:07.000Z</time>
      </trkpt>
      <trkpt lat="42.318082" lon="-8.822404">
        <ele>25.6</ele>
        <time>1970-01-01T01:40:08.000Z</time>
      </trkpt>
      <trkpt lat="42.318077" lon="-8.822394">
        <ele>25.6</ele>
        <time>1970-01-01T01:40:09.000Z</time>
      </trkpt>
      <trkpt lat="42.318067" lon="-8.822388">
        <ele>25.6</ele>
        <time>1970-01-01T01:40:10.000Z</time>
      </trkpt>
      <trkpt lat="42.31806" lon="-8.822381">
        <ele>25.6</ele>
        <time>1970-01-01T01:40:11.000Z</time>
      </trkpt>
      <trkpt lat="42.318052" lon="-8.822379">
        <ele>25.6</ele>
        <time>1970-01-01T01:40:12.000Z</time>
      </trkpt>
      <trkpt lat="42.318044" lon="-8.822379">
        <ele>25.6</ele>
        <time>1970-01-01T01:40:13.000Z</time>
      </trkpt>
      <trkpt lat="42.318037" lon="-8.822372">
        <ele>26.2</ele>
        <time>1970-01-01T01:40:14.000Z</time>
      </trkpt>
      <trkpt lat="42.318028" lon="-8.822366">
        <ele>26.4</ele>
        <time>1970-01-01T01:40:15.000Z</time>
      </trkpt>
      <trkpt lat="42.318021" lon="-8.822363">
        <ele>26.6</ele>
        <time>1970-01-01T01:40:16.000Z</time>
      </trkpt>
      <trkpt lat="42.318018" lon="-8.822358">
        <ele>26.6</ele>
        <time>1970-01-01T01:40:17.000Z</time>
      </trkpt>
      <trkpt lat="42.318016" lon="-8.822348">
        <ele>26.8</ele>
        <time>1970-01-01T01:40:18.000Z</time>
      </trkpt>
      <trkpt lat="42.318012" lon="-8.822341">
        <ele>26.8</ele>
        <time>1970-01-01T01:40:19.000Z</time>
      </trkpt>
      <trkpt lat="42.318004" lon="-8.822336">
        <ele>26.8</ele>
        <time>1970-01-01T01:40:20.000Z</time>
      </trkpt>
      <trkpt lat="42.317996" lon="-8.822331">
        <ele>27</ele>
        <time>1970-01-01T01:40:21.000Z</time>
      </trkpt>
      <trkpt lat="42.317986" lon="-8.822326">
        <ele>27.2</ele>
        <time>1970-01-01T01:40:22.000Z</time>
      </trkpt>
      <trkpt lat="42.317978" lon="-8.822315">
        <ele>27.4</ele>
        <time>1970-01-01T01:40:23.000Z</time>
      </trkpt>
      <trkpt lat="42.317972" lon="-8.822297">
        <ele>27.6</ele>
        <time>1970-01-01T01:40:24.000Z</time>
      </trkpt>
      <trkpt lat="42.317963" lon="-8.82229">
        <ele>27.8</ele>
        <time>1970-01-01T01:40:25.000Z</time>
      </trkpt>
      <trkpt lat="42.31795" lon="-8.822291">
        <ele>28.2</ele>
        <time>1970-01-01T01:40:26.000Z</time>
      </trkpt>
      <trkpt lat="42.31794" lon="-8.82229">
        <ele>28.4</ele>
        <time>1970-01-01T01:40:27.000Z</time>
      </trkpt>
      <trkpt lat="42.317928" lon="-8.822293">
        <ele>28.4</ele>
        <time>1970-01-01T01:40:28.000Z</time>
      </trkpt>
      <trkpt lat="42.317916" lon="-8.822299">
        <ele>28.4</ele>
        <time>1970-01-01T01:40:29.000Z</time>
      </trkpt>
      <trkpt lat="42.317907" lon="-8.822301">
        <ele>28.4</ele>
        <time>1970-01-01T01:40:30.000Z</time>
      </trkpt>
      <trkpt lat="42.317902" lon="-8.822301">
        <ele>28.6</ele>
        <time>1970-01-01T01:40:31.000Z</time>
      </trkpt>
      <trkpt lat="42.317898" lon="-8.822305">
        <ele>28.6</ele>
        <time>1970-01-01T01:40:32.000Z</time>
      </trkpt>
      <trkpt lat="42.317898" lon="-8.822305">
        <ele>28.6</ele>
        <time>1970-01-01T01:40:33.000Z</time>
      </trkpt>
      <trkpt lat="42.3179" lon="-8.822302">
        <ele>28.6</ele>
        <time>1970-01-01T01:40:34.000Z</time>
      </trkpt>
      <trkpt lat="42.317901" lon="-8.822293">
        <ele>28.6</ele>
        <time>1970-01-01T01:40:35.000Z</time>
      </trkpt>
      <trkpt lat="42.317902" lon="-8.822282">
        <ele>28.8</ele>
        <time>1970-01-01T01:40:36.000Z</time>
      </trkpt>
      <trkpt lat="42.317901" lon="-8.82227">
        <ele>29.2</ele>
        <time>1970-01-01T01:40:37.000Z</time>
      </trkpt>
      <trkpt lat="42.317899" lon="-8.822254">
        <ele>29.4</ele>
        <time>1970-01-01T01:40:38.000Z</time>
      </trkpt>
      <trkpt lat="42.317896" lon="-8.82224">
        <ele>29.4</ele>
        <time>1970-01-01T01:40:39.000Z</time>
      </trkpt>
      <trkpt lat="42.317897" lon="-8.822228">
        <ele>29.4</ele>
        <time>1970-01-01T01:40:40.000Z</time>
      </trkpt>
      <trkpt lat="42.317896" lon="-8.822216">
        <ele>29.6</ele>
        <time>1970-01-01T01:40:41.000Z</time>
      </trkpt>
      <trkpt lat="42.317898" lon="-8.822198">
        <ele>29.6</ele>
        <time>1970-01-01T01:40:42.000Z</time>
      </trkpt>
      <trkpt lat="42.317895" lon="-8.822193">
        <ele>29.6</ele>
        <time>1970-01-01T01:40:43.000Z</time>
      </trkpt>
      <trkpt lat="42.317894" lon="-8.822184">
        <ele>30.2</ele>
        <time>1970-01-01T01:40:44.000Z</time>
      </trkpt>
      <trkpt lat="42.317892" lon="-8.822172">
        <ele>30.6</ele>
        <time>1970-01-01T01:40:45.000Z</time>
      </trkpt>
      <trkpt lat="42.317893" lon="-8.822164">
        <ele>31</ele>
        <time>1970-01-01T01:40:46.000Z</time>
      </trkpt>
      <trkpt lat="42.317894" lon="-8.822152">
        <ele>31.4</ele>
        <time>1970-01-01T01:40:47.000Z</time>
      </trkpt>
      <trkpt lat="42.317897" lon="-8.822141">
        <ele>31.6</ele>
        <time>1970-01-01T01:40:48.000Z</time>
      </trkpt>
      <trkpt lat="42.317901" lon="-8.822135">
        <ele>32</ele>
        <time>1970-01-01T01:40:49.000Z</time>
      </trkpt>
      <trkpt lat="42.317905" lon="-8.82213">
        <ele>32.2</ele>
        <time>1970-01-01T01:40:50.000Z</time>
      </trkpt>
      <trkpt lat="42.317908" lon="-8.822124">
        <ele>32.2</ele>
        <time>1970-01-01T01:40:51.000Z</time>
      </trkpt>
      <trkpt lat="42.317909" lon="-8.822113">
        <ele>32.6</ele>
        <time>1970-01-01T01:40:52.000Z</time>
      </trkpt>
      <trkpt lat="42.317908" lon="-8.8221">
        <ele>32.8</ele>
        <time>1970-01-01T01:40:53.000Z</time>
      </trkpt>
      <trkpt lat="42.317907" lon="-8.822089">
        <ele>33</ele>
        <time>1970-01-01T01:40:54.000Z</time>
      </trkpt>
      <trkpt lat="42.317905" lon="-8.822083">
        <ele>33.4</ele>
        <time>1970-01-01T01:40:55.000Z</time>
      </trkpt>
      <trkpt lat="42.317901" lon="-8.822069">
        <ele>33.4</ele>
        <time>1970-01-01T01:40:56.000Z</time>
      </trkpt>
      <trkpt lat="42.317896" lon="-8.822052">
        <ele>33.8</ele>
        <time>1970-01-01T01:40:57.000Z</time>
      </trkpt>
      <trkpt lat="42.317891" lon="-8.822035">
        <ele>34.2</ele>
        <time>1970-01-01T01:40:58.000Z</time>
      </trkpt>
      <trkpt lat="42.317891" lon="-8.822026">
        <ele>34.2</ele>
        <time>1970-01-01T01:40:59.000Z</time>
      </trkpt>
      <trkpt lat="42.31789" lon="-8.822018">
        <ele>34.6</ele>
        <time>1970-01-01T01:41:00.000Z</time>
      </trkpt>
      <trkpt lat="42.317888" lon="-8.822005">
        <ele>34.8</ele>
        <time>1970-01-01T01:41:01.000Z</time>
      </trkpt>
      <trkpt lat="42.317882" lon="-8.821994">
        <ele>35</ele>
        <time>1970-01-01T01:41:02.000Z</time>
      </trkpt>
      <trkpt lat="42.317875" lon="-8.821989">
        <ele>35.4</ele>
        <time>1970-01-01T01:41:03.000Z</time>
      </trkpt>
      <trkpt lat="42.317867" lon="-8.821984">
        <ele>35.6</ele>
        <time>1970-01-01T01:41:04.000Z</time>
      </trkpt>
      <trkpt lat="42.31786" lon="-8.821977">
        <ele>35.8</ele>
        <time>1970-01-01T01:41:05.000Z</time>
      </trkpt>
      <trkpt lat="42.317854" lon="-8.821969">
        <ele>36</ele>
        <time>1970-01-01T01:41:06.000Z</time>
      </trkpt>
      <trkpt lat="42.317852" lon="-8.821967">
        <ele>36.2</ele>
        <time>1970-01-01T01:41:07.000Z</time>
      </trkpt>
      <trkpt lat="42.317852" lon="-8.821963">
        <ele>36.4</ele>
        <time>1970-01-01T01:41:08.000Z</time>
      </trkpt>
      <trkpt lat="42.317852" lon="-8.821965">
        <ele>36.4</ele>
        <time>1970-01-01T01:41:09.000Z</time>
      </trkpt>
      <trkpt lat="42.317854" lon="-8.821957">
        <ele>36.6</ele>
        <time>1970-01-01T01:41:10.000Z</time>
      </trkpt>
      <trkpt lat="42.317853" lon="-8.821946">
        <ele>36.6</ele>
        <time>1970-01-01T01:41:11.000Z</time>
      </trkpt>
      <trkpt lat="42.317851" lon="-8.821932">
        <ele>36.8</ele>
        <time>1970-01-01T01:41:12.000Z</time>
      </trkpt>
      <trkpt lat="42.317846" lon="-8.821911">
        <ele>37</ele>
        <time>1970-01-01T01:41:13.000Z</time>
      </trkpt>
      <trkpt lat="42.31784" lon="-8.821898">
        <ele>37</ele>
        <time>1970-01-01T01:41:14.000Z</time>
      </trkpt>
      <trkpt lat="42.317836" lon="-8.82189">
        <ele>37.2</ele>
        <time>1970-01-01T01:41:15.000Z</time>
      </trkpt>
      <trkpt lat="42.317829" lon="-8.821884">
        <ele>37.4</ele>
        <time>1970-01-01T01:41:16.000Z</time>
      </trkpt>
      <trkpt lat="42.317821" lon="-8.82188">
        <ele>37.4</ele>
        <time>1970-01-01T01:41:17.000Z</time>
      </trkpt>
      <trkpt lat="42.317811" lon="-8.821879">
        <ele>37.6</ele>
        <time>1970-01-01T01:41:18.000Z</time>
      </trkpt>
      <trkpt lat="42.317802" lon="-8.821876">
        <ele>37.6</ele>
        <time>1970-01-01T01:41:19.000Z</time>
      </trkpt>
      <trkpt lat="42.317791" lon="-8.821868">
        <ele>37.6</ele>
        <time>1970-01-01T01:41:20.000Z</time>
      </trkpt>
      <trkpt lat="42.317778" lon="-8.82187">
        <ele>37.6</ele>
        <time>1970-01-01T01:41:21.000Z</time>
      </trkpt>
      <trkpt lat="42.317768" lon="-8.821869">
        <ele>37.6</ele>
        <time>1970-01-01T01:41:22.000Z</time>
      </trkpt>
      <trkpt lat="42.317759" lon="-8.821864">
        <ele>37.6</ele>
        <time>1970-01-01T01:41:23.000Z</time>
      </trkpt>
      <trkpt lat="42.317752" lon="-8.821862">
        <ele>37.6</ele>
        <time>1970-01-01T01:41:24.000Z</time>
      </trkpt>
      <trkpt lat="42.317744" lon="-8.821861">
        <ele>37.6</ele>
        <time>1970-01-01T01:41:25.000Z</time>
      </trkpt>
      <trkpt lat="42.317736" lon="-8.821858">
        <ele>37.6</ele>
        <time>1970-01-01T01:41:26.000Z</time>
      </trkpt>
      <trkpt lat="42.317729" lon="-8.821862">
        <ele>37.6</ele>
        <time>1970-01-01T01:41:27.000Z</time>
      </trkpt>
      <trkpt lat="42.317721" lon="-8.821868">
        <ele>37.4</ele>
        <time>1970-01-01T01:41:28.000Z</time>
      </trkpt>
      <trkpt lat="42.31771" lon="-8.821878">
        <ele>37.4</ele>
        <time>1970-01-01T01:41:29.000Z</time>
      </trkpt>
      <trkpt lat="42.317699" lon="-8.821889">
        <ele>37.4</ele>
        <time>1970-01-01T01:41:30.000Z</time>
      </trkpt>
      <trkpt lat="42.317691" lon="-8.821904">
        <ele>37.2</ele>
        <time>1970-01-01T01:41:31.000Z</time>
      </trkpt>
      <trkpt lat="42.317686" lon="-8.821918">
        <ele>37.2</ele>
        <time>1970-01-01T01:41:32.000Z</time>
      </trkpt>
      <trkpt lat="42.317684" lon="-8.821929">
        <ele>37.2</ele>
        <time>1970-01-01T01:41:33.000Z</time>
      </trkpt>
      <trkpt lat="42.317682" lon="-8.821937">
        <ele>37.2</ele>
        <time>1970-01-01T01:41:34.000Z</time>
      </trkpt>
      <trkpt lat="42.317678" lon="-8.821942">
        <ele>36.8</ele>
        <time>1970-01-01T01:41:35.000Z</time>
      </trkpt>
      <trkpt lat="42.317673" lon="-8.821942">
        <ele>36.6</ele>
        <time>1970-01-01T01:41:36.000Z</time>
      </trkpt>
      <trkpt lat="42.317669" lon="-8.821946">
        <ele>36.4</ele>
        <time>1970-01-01T01:41:37.000Z</time>
      </trkpt>
      <trkpt lat="42.317665" lon="-8.821953">
        <ele>36</ele>
        <time>1970-01-01T01:41:38.000Z</time>
      </trkpt>
      <trkpt lat="42.317659" lon="-8.821956">
        <ele>35.8</ele>
        <time>1970-01-01T01:41:39.000Z</time>
      </trkpt>
      <trkpt lat="42.317653" lon="-8.821958">
        <ele>35.6</ele>
        <time>1970-01-01T01:41:40.000Z</time>
      </trkpt>
      <trkpt lat="42.317644" lon="-8.82196">
        <ele>35.4</ele>
        <time>1970-01-01T01:41:41.000Z</time>
      </trkpt>
      <trkpt lat="42.317634" lon="-8.821964">
        <ele>35.2</ele>
        <time>1970-01-01T01:41:42.000Z</time>
      </trkpt>
      <trkpt lat="42.31762" lon="-8.821965">
        <ele>35.2</ele>
        <time>1970-01-01T01:41:43.000Z</time>
      </trkpt>
      <trkpt lat="42.317606" lon="-8.821972">
        <ele>35</ele>
        <time>1970-01-01T01:41:44.000Z</time>
      </trkpt>
      <trkpt lat="42.317594" lon="-8.82198">
        <ele>35</ele>
        <time>1970-01-01T01:41:45.000Z</time>
      </trkpt>
      <trkpt lat="42.317585" lon="-8.821992">
        <ele>34.8</ele>
        <time>1970-01-01T01:41:46.000Z</time>
      </trkpt>
      <trkpt lat="42.317582" lon="-8.822005">
        <ele>34.4</ele>
        <time>1970-01-01T01:41:47.000Z</time>
      </trkpt>
      <trkpt lat="42.317582" lon="-8.822018">
        <ele>34.2</ele>
        <time>1970-01-01T01:41:48.000Z</time>
      </trkpt>
      <trkpt lat="42.317581" lon="-8.822029">
        <ele>34.2</ele>
        <time>1970-01-01T01:41:49.000Z</time>
      </trkpt>
      <trkpt lat="42.317578" lon="-8.822034">
        <ele>34</ele>
        <time>1970-01-01T01:41:50.000Z</time>
      </trkpt>
      <trkpt lat="42.317575" lon="-8.822037">
        <ele>34</ele>
        <time>1970-01-01T01:41:51.000Z</time>
      </trkpt>
      <trkpt lat="42.317574" lon="-8.822039">
        <ele>33.8</ele>
        <time>1970-01-01T01:41:52.000Z</time>
      </trkpt>
      <trkpt lat="42.31757" lon="-8.822042">
        <ele>33.4</ele>
        <time>1970-01-01T01:41:53.000Z</time>
      </trkpt>
      <trkpt lat="42.317563" lon="-8.822041">
        <ele>33.2</ele>
        <time>1970-01-01T01:41:54.000Z</time>
      </trkpt>
      <trkpt lat="42.317553" lon="-8.822034">
        <ele>33</ele>
        <time>1970-01-01T01:41:55.000Z</time>
      </trkpt>
      <trkpt lat="42.317541" lon="-8.822031">
        <ele>32.8</ele>
        <time>1970-01-01T01:41:56.000Z</time>
      </trkpt>
      <trkpt lat="42.317532" lon="-8.822026">
        <ele>32.6</ele>
        <time>1970-01-01T01:41:57.000Z</time>
      </trkpt>
      <trkpt lat="42.317526" lon="-8.822024">
        <ele>32.4</ele>
        <time>1970-01-01T01:41:58.000Z</time>
      </trkpt>
      <trkpt lat="42.317516" lon="-8.822023">
        <ele>32.4</ele>
        <time>1970-01-01T01:41:59.000Z</time>
      </trkpt>
      <trkpt lat="42.317504" lon="-8.822022">
        <ele>32.2</ele>
        <time>1970-01-01T01:42:00.000Z</time>
      </trkpt>
      <trkpt lat="42.317493" lon="-8.822022">
        <ele>32.6</ele>
        <time>1970-01-01T01:42:01.000Z</time>
      </trkpt>
      <trkpt lat="42.317484" lon="-8.822021">
        <ele>32.8</ele>
        <time>1970-01-01T01:42:02.000Z</time>
      </trkpt>
      <trkpt lat="42.317475" lon="-8.822019">
        <ele>33</ele>
        <time>1970-01-01T01:42:03.000Z</time>
      </trkpt>
      <trkpt lat="42.317466" lon="-8.82202">
        <ele>33</ele>
        <time>1970-01-01T01:42:04.000Z</time>
      </trkpt>
      <trkpt lat="42.317458" lon="-8.822023">
        <ele>33.2</ele>
        <time>1970-01-01T01:42:05.000Z</time>
      </trkpt>
      <trkpt lat="42.317449" lon="-8.822028">
        <ele>32.8</ele>
        <time>1970-01-01T01:42:06.000Z</time>
      </trkpt>
      <trkpt lat="42.317441" lon="-8.822032">
        <ele>32.6</ele>
        <time>1970-01-01T01:42:07.000Z</time>
      </trkpt>
      <trkpt lat="42.317434" lon="-8.822032">
        <ele>32.4</ele>
        <time>1970-01-01T01:42:08.000Z</time>
      </trkpt>
      <trkpt lat="42.317428" lon="-8.822033">
        <ele>32.2</ele>
        <time>1970-01-01T01:42:09.000Z</time>
      </trkpt>
      <trkpt lat="42.317423" lon="-8.822033">
        <ele>32</ele>
        <time>1970-01-01T01:42:10.000Z</time>
      </trkpt>
      <trkpt lat="42.317419" lon="-8.822032">
        <ele>32</ele>
        <time>1970-01-01T01:42:11.000Z</time>
      </trkpt>
      <trkpt lat="42.317416" lon="-8.822028">
        <ele>32</ele>
        <time>1970-01-01T01:42:12.000Z</time>
      </trkpt>
      <trkpt lat="42.317412" lon="-8.822018">
        <ele>32</ele>
        <time>1970-01-01T01:42:13.000Z</time>
      </trkpt>
      <trkpt lat="42.317408" lon="-8.822008">
        <ele>31.4</ele>
        <time>1970-01-01T01:42:14.000Z</time>
      </trkpt>
      <trkpt lat="42.317401" lon="-8.821996">
        <ele>31.2</ele>
        <time>1970-01-01T01:42:15.000Z</time>
      </trkpt>
      <trkpt lat="42.317392" lon="-8.821985">
        <ele>31</ele>
        <time>1970-01-01T01:42:16.000Z</time>
      </trkpt>
      <trkpt lat="42.317383" lon="-8.821977">
        <ele>30.8</ele>
        <time>1970-01-01T01:42:17.000Z</time>
      </trkpt>
      <trkpt lat="42.317374" lon="-8.821971">
        <ele>30.6</ele>
        <time>1970-01-01T01:42:18.000Z</time>
      </trkpt>
      <trkpt lat="42.317364" lon="-8.821963">
        <ele>30.4</ele>
        <time>1970-01-01T01:42:19.000Z</time>
      </trkpt>
      <trkpt lat="42.317356" lon="-8.821952">
        <ele>30.4</ele>
        <time>1970-01-01T01:42:20.000Z</time>
      </trkpt>
      <trkpt lat="42.317346" lon="-8.821942">
        <ele>30.2</ele>
        <time>1970-01-01T01:42:21.000Z</time>
      </trkpt>
      <trkpt lat="42.317338" lon="-8.821932">
        <ele>30</ele>
        <time>1970-01-01T01:42:22.000Z</time>
      </trkpt>
      <trkpt lat="42.317332" lon="-8.821922">
        <ele>29.8</ele>
        <time>1970-01-01T01:42:23.000Z</time>
      </trkpt>
      <trkpt lat="42.317327" lon="-8.821915">
        <ele>29.8</ele>
        <time>1970-01-01T01:42:24.000Z</time>
      </trkpt>
      <trkpt lat="42.317324" lon="-8.821911">
        <ele>29.6</ele>
        <time>1970-01-01T01:42:25.000Z</time>
      </trkpt>
      <trkpt lat="42.31732" lon="-8.821907">
        <ele>29.6</ele>
        <time>1970-01-01T01:42:26.000Z</time>
      </trkpt>
      <trkpt lat="42.317313" lon="-8.821899">
        <ele>29.6</ele>
        <time>1970-01-01T01:42:27.000Z</time>
      </trkpt>
      <trkpt lat="42.317304" lon="-8.821892">
        <ele>29.8</ele>
        <time>1970-01-01T01:42:28.000Z</time>
      </trkpt>
      <trkpt lat="42.317292" lon="-8.821889">
        <ele>29.6</ele>
        <time>1970-01-01T01:42:29.000Z</time>
      </trkpt>
      <trkpt lat="42.317279" lon="-8.821888">
        <ele>29.6</ele>
        <time>1970-01-01T01:42:30.000Z</time>
      </trkpt>
      <trkpt lat="42.317267" lon="-8.821889">
        <ele>29</ele>
        <time>1970-01-01T01:42:31.000Z</time>
      </trkpt>
      <trkpt lat="42.317255" lon="-8.821891">
        <ele>28.8</ele>
        <time>1970-01-01T01:42:32.000Z</time>
      </trkpt>
      <trkpt lat="42.317243" lon="-8.821891">
        <ele>28.6</ele>
        <time>1970-01-01T01:42:33.000Z</time>
      </trkpt>
      <trkpt lat="42.317231" lon="-8.821893">
        <ele>28.4</ele>
        <time>1970-01-01T01:42:34.000Z</time>
      </trkpt>
      <trkpt lat="42.317222" lon="-8.821895">
        <ele>28.4</ele>
        <time>1970-01-01T01:42:35.000Z</time>
      </trkpt>
      <trkpt lat="42.317211" lon="-8.821898">
        <ele>28</ele>
        <time>1970-01-01T01:42:36.000Z</time>
      </trkpt>
      <trkpt lat="42.317204" lon="-8.82191">
        <ele>27.4</ele>
        <time>1970-01-01T01:42:37.000Z</time>
      </trkpt>
      <trkpt lat="42.317196" lon="-8.821919">
        <ele>27.2</ele>
        <time>1970-01-01T01:42:38.000Z</time>
      </trkpt>
      <trkpt lat="42.31719" lon="-8.821928">
        <ele>27</ele>
        <time>1970-01-01T01:42:39.000Z</time>
      </trkpt>
      <trkpt lat="42.317186" lon="-8.821936">
        <ele>26.2</ele>
        <time>1970-01-01T01:42:40.000Z</time>
      </trkpt>
      <trkpt lat="42.317179" lon="-8.821942">
        <ele>25.8</ele>
        <time>1970-01-01T01:42:41.000Z</time>
      </trkpt>
      <trkpt lat="42.317169" lon="-8.821948">
        <ele>25.6</ele>
        <time>1970-01-01T01:42:42.000Z</time>
      </trkpt>
      <trkpt lat="42.317157" lon="-8.821955">
        <ele>25.6</ele>
        <time>1970-01-01T01:42:43.000Z</time>
      </trkpt>
      <trkpt lat="42.317144" lon="-8.821963">
        <ele>25.4</ele>
        <time>1970-01-01T01:42:44.000Z</time>
      </trkpt>
      <trkpt lat="42.317133" lon="-8.821974">
        <ele>25.4</ele>
        <time>1970-01-01T01:42:45.000Z</time>
      </trkpt>
      <trkpt lat="42.317127" lon="-8.821985">
        <ele>25.2</ele>
        <time>1970-01-01T01:42:46.000Z</time>
      </trkpt>
      <trkpt lat="42.317122" lon="-8.822001">
        <ele>25.2</ele>
        <time>1970-01-01T01:42:47.000Z</time>
      </trkpt>
      <trkpt lat="42.317116" lon="-8.82202">
        <ele>24.8</ele>
        <time>1970-01-01T01:42:48.000Z</time>
      </trkpt>
      <trkpt lat="42.317115" lon="-8.822037">
        <ele>24.6</ele>
        <time>1970-01-01T01:42:49.000Z</time>
      </trkpt>
      <trkpt lat="42.317116" lon="-8.822051">
        <ele>24.4</ele>
        <time>1970-01-01T01:42:50.000Z</time>
      </trkpt>
      <trkpt lat="42.317115" lon="-8.822065">
        <ele>24</ele>
        <time>1970-01-01T01:42:51.000Z</time>
      </trkpt>
      <trkpt lat="42.317115" lon="-8.822081">
        <ele>23.8</ele>
        <time>1970-01-01T01:42:52.000Z</time>
      </trkpt>
      <trkpt lat="42.317115" lon="-8.822097">
        <ele>23.6</ele>
        <time>1970-01-01T01:42:53.000Z</time>
      </trkpt>
      <trkpt lat="42.317114" lon="-8.822111">
        <ele>23.6</ele>
        <time>1970-01-01T01:42:54.000Z</time>
      </trkpt>
      <trkpt lat="42.317114" lon="-8.822127">
        <ele>23.4</ele>
        <time>1970-01-01T01:42:55.000Z</time>
      </trkpt>
      <trkpt lat="42.317111" lon="-8.822141">
        <ele>23</ele>
        <time>1970-01-01T01:42:56.000Z</time>
      </trkpt>
      <trkpt lat="42.317107" lon="-8.822147">
        <ele>22.2</ele>
        <time>1970-01-01T01:42:57.000Z</time>
      </trkpt>
      <trkpt lat="42.317105" lon="-8.82215">
        <ele>21</ele>
        <time>1970-01-01T01:42:58.000Z</time>
      </trkpt>
      <trkpt lat="42.317102" lon="-8.822155">
        <ele>20.6</ele>
        <time>1970-01-01T01:42:59.000Z</time>
      </trkpt>
      <trkpt lat="42.317098" lon="-8.822157">
        <ele>20.2</ele>
        <time>1970-01-01T01:43:00.000Z</time>
      </trkpt>
      <trkpt lat="42.317097" lon="-8.822156">
        <ele>20.2</ele>
        <time>1970-01-01T01:43:01.000Z</time>
      </trkpt>
      <trkpt lat="42.317097" lon="-8.822148">
        <ele>20.2</ele>
        <time>1970-01-01T01:43:02.000Z</time>
      </trkpt>
      <trkpt lat="42.317097" lon="-8.822138">
        <ele>20.2</ele>
        <time>1970-01-01T01:43:03.000Z</time>
      </trkpt>
      <trkpt lat="42.317101" lon="-8.822129">
        <ele>20.4</ele>
        <time>1970-01-01T01:43:04.000Z</time>
      </trkpt>
      <trkpt lat="42.317102" lon="-8.822121">
        <ele>20.4</ele>
        <time>1970-01-01T01:43:05.000Z</time>
      </trkpt>
      <trkpt lat="42.317102" lon="-8.822113">
        <ele>20.4</ele>
        <time>1970-01-01T01:43:06.000Z</time>
      </trkpt>
      <trkpt lat="42.317099" lon="-8.822105">
        <ele>20.4</ele>
        <time>1970-01-01T01:43:07.000Z</time>
      </trkpt>
      <trkpt lat="42.3171" lon="-8.822103">
        <ele>20.4</ele>
        <time>1970-01-01T01:43:08.000Z</time>
      </trkpt>
      <trkpt lat="42.3171" lon="-8.822103">
        <ele>20.4</ele>
        <time>1970-01-01T01:43:09.000Z</time>
      </trkpt>
      <trkpt lat="42.31709" lon="-8.82213">
        <ele>20.8</ele>
        <time>1970-01-01T01:43:47.000Z</time>
      </trkpt>
      <trkpt lat="42.317092" lon="-8.822112">
        <ele>20.8</ele>
        <time>1970-01-01T01:43:48.000Z</time>
      </trkpt>
      <trkpt lat="42.317097" lon="-8.822094">
        <ele>20.6</ele>
        <time>1970-01-01T01:43:49.000Z</time>
      </trkpt>
      <trkpt lat="42.317095" lon="-8.822076">
        <ele>20.4</ele>
        <time>1970-01-01T01:43:50.000Z</time>
      </trkpt>
      <trkpt lat="42.317091" lon="-8.822067">
        <ele>20.4</ele>
        <time>1970-01-01T01:43:51.000Z</time>
      </trkpt>
      <trkpt lat="42.317084" lon="-8.822055">
        <ele>20.6</ele>
        <time>1970-01-01T01:43:52.000Z</time>
      </trkpt>
      <trkpt lat="42.317076" lon="-8.822041">
        <ele>20.6</ele>
        <time>1970-01-01T01:43:53.000Z</time>
      </trkpt>
      <trkpt lat="42.317068" lon="-8.822025">
        <ele>20.6</ele>
        <time>1970-01-01T01:43:54.000Z</time>
      </trkpt>
      <trkpt lat="42.317057" lon="-8.822007">
        <ele>20.6</ele>
        <time>1970-01-01T01:43:55.000Z</time>
      </trkpt>
      <trkpt lat="42.31705" lon="-8.822">
        <ele>20.6</ele>
        <time>1970-01-01T01:43:56.000Z</time>
      </trkpt>
      <trkpt lat="42.317044" lon="-8.821994">
        <ele>20.8</ele>
        <time>1970-01-01T01:43:57.000Z</time>
      </trkpt>
      <trkpt lat="42.31704" lon="-8.821991">
        <ele>21</ele>
        <time>1970-01-01T01:43:58.000Z</time>
      </trkpt>
      <trkpt lat="42.317032" lon="-8.82199">
        <ele>21.2</ele>
        <time>1970-01-01T01:43:59.000Z</time>
      </trkpt>
      <trkpt lat="42.317024" lon="-8.821991">
        <ele>21.2</ele>
        <time>1970-01-01T01:44:00.000Z</time>
      </trkpt>
      <trkpt lat="42.317016" lon="-8.821994">
        <ele>21.2</ele>
        <time>1970-01-01T01:44:01.000Z</time>
      </trkpt>
      <trkpt lat="42.317008" lon="-8.821996">
        <ele>21.2</ele>
        <time>1970-01-01T01:44:02.000Z</time>
      </trkpt>
      <trkpt lat="42.317001" lon="-8.822005">
        <ele>21.2</ele>
        <time>1970-01-01T01:44:03.000Z</time>
      </trkpt>
      <trkpt lat="42.316993" lon="-8.822014">
        <ele>21</ele>
        <time>1970-01-01T01:44:04.000Z</time>
      </trkpt>
      <trkpt lat="42.316983" lon="-8.822017">
        <ele>21</ele>
        <time>1970-01-01T01:44:05.000Z</time>
      </trkpt>
      <trkpt lat="42.316974" lon="-8.822021">
        <ele>21</ele>
        <time>1970-01-01T01:44:06.000Z</time>
      </trkpt>
      <trkpt lat="42.316967" lon="-8.822023">
        <ele>21</ele>
        <time>1970-01-01T01:44:07.000Z</time>
      </trkpt>
      <trkpt lat="42.31696" lon="-8.822028">
        <ele>20.8</ele>
        <time>1970-01-01T01:44:08.000Z</time>
      </trkpt>
      <trkpt lat="42.316952" lon="-8.822033">
        <ele>20.8</ele>
        <time>1970-01-01T01:44:09.000Z</time>
      </trkpt>
      <trkpt lat="42.316943" lon="-8.822037">
        <ele>20.4</ele>
        <time>1970-01-01T01:44:10.000Z</time>
      </trkpt>
      <trkpt lat="42.316934" lon="-8.82204">
        <ele>20.4</ele>
        <time>1970-01-01T01:44:11.000Z</time>
      </trkpt>
      <trkpt lat="42.316925" lon="-8.822045">
        <ele>20</ele>
        <time>1970-01-01T01:44:12.000Z</time>
      </trkpt>
      <trkpt lat="42.31692" lon="-8.82205">
        <ele>19.8</ele>
        <time>1970-01-01T01:44:13.000Z</time>
      </trkpt>
      <trkpt lat="42.316914" lon="-8.822052">
        <ele>19.6</ele>
        <time>1970-01-01T01:44:14.000Z</time>
      </trkpt>
      <trkpt lat="42.316906" lon="-8.82205">
        <ele>19.2</ele>
        <time>1970-01-01T01:44:15.000Z</time>
      </trkpt>
      <trkpt lat="42.316899" lon="-8.822048">
        <ele>18.8</ele>
        <time>1970-01-01T01:44:16.000Z</time>
      </trkpt>
      <trkpt lat="42.316893" lon="-8.822049">
        <ele>18.6</ele>
        <time>1970-01-01T01:44:17.000Z</time>
      </trkpt>
      <trkpt lat="42.316885" lon="-8.822051">
        <ele>18.4</ele>
        <time>1970-01-01T01:44:18.000Z</time>
      </trkpt>
      <trkpt lat="42.316877" lon="-8.822052">
        <ele>18.2</ele>
        <time>1970-01-01T01:44:19.000Z</time>
      </trkpt>
      <trkpt lat="42.316867" lon="-8.822052">
        <ele>18</ele>
        <time>1970-01-01T01:44:20.000Z</time>
      </trkpt>
      <trkpt lat="42.316857" lon="-8.822052">
        <ele>17.6</ele>
        <time>1970-01-01T01:44:21.000Z</time>
      </trkpt>
      <trkpt lat="42.316848" lon="-8.822047">
        <ele>17</ele>
        <time>1970-01-01T01:44:22.000Z</time>
      </trkpt>
      <trkpt lat="42.316839" lon="-8.822043">
        <ele>16.8</ele>
        <time>1970-01-01T01:44:23.000Z</time>
      </trkpt>
      <trkpt lat="42.316829" lon="-8.822041">
        <ele>16.6</ele>
        <time>1970-01-01T01:44:24.000Z</time>
      </trkpt>
      <trkpt lat="42.31682" lon="-8.82204">
        <ele>16.4</ele>
        <time>1970-01-01T01:44:25.000Z</time>
      </trkpt>
      <trkpt lat="42.31681" lon="-8.822036">
        <ele>16.4</ele>
        <time>1970-01-01T01:44:26.000Z</time>
      </trkpt>
      <trkpt lat="42.316801" lon="-8.822031">
        <ele>16</ele>
        <time>1970-01-01T01:44:27.000Z</time>
      </trkpt>
      <trkpt lat="42.316794" lon="-8.822027">
        <ele>15.8</ele>
        <time>1970-01-01T01:44:28.000Z</time>
      </trkpt>
      <trkpt lat="42.316789" lon="-8.822024">
        <ele>15.6</ele>
        <time>1970-01-01T01:44:29.000Z</time>
      </trkpt>
      <trkpt lat="42.316785" lon="-8.822023">
        <ele>15.4</ele>
        <time>1970-01-01T01:44:30.000Z</time>
      </trkpt>
      <trkpt lat="42.316782" lon="-8.822024">
        <ele>15</ele>
        <time>1970-01-01T01:44:31.000Z</time>
      </trkpt>
      <trkpt lat="42.316778" lon="-8.822027">
        <ele>14.6</ele>
        <time>1970-01-01T01:44:32.000Z</time>
      </trkpt>
      <trkpt lat="42.316771" lon="-8.822026">
        <ele>14.4</ele>
        <time>1970-01-01T01:44:33.000Z</time>
      </trkpt>
      <trkpt lat="42.316763" lon="-8.822028">
        <ele>14.4</ele>
        <time>1970-01-01T01:44:34.000Z</time>
      </trkpt>
      <trkpt lat="42.316752" lon="-8.82203">
        <ele>14.2</ele>
        <time>1970-01-01T01:44:35.000Z</time>
      </trkpt>
      <trkpt lat="42.316742" lon="-8.822031">
        <ele>14.2</ele>
        <time>1970-01-01T01:44:36.000Z</time>
      </trkpt>
      <trkpt lat="42.316733" lon="-8.82203">
        <ele>14.2</ele>
        <time>1970-01-01T01:44:37.000Z</time>
      </trkpt>
      <trkpt lat="42.316727" lon="-8.822026">
        <ele>14</ele>
        <time>1970-01-01T01:44:38.000Z</time>
      </trkpt>
      <trkpt lat="42.316726" lon="-8.822019">
        <ele>13.6</ele>
        <time>1970-01-01T01:44:39.000Z</time>
      </trkpt>
      <trkpt lat="42.316727" lon="-8.822013">
        <ele>13.2</ele>
        <time>1970-01-01T01:44:40.000Z</time>
      </trkpt>
      <trkpt lat="42.316727" lon="-8.822004">
        <ele>13.2</ele>
        <time>1970-01-01T01:44:41.000Z</time>
      </trkpt>
      <trkpt lat="42.316724" lon="-8.821997">
        <ele>12.8</ele>
        <time>1970-01-01T01:44:42.000Z</time>
      </trkpt>
      <trkpt lat="42.316721" lon="-8.82199">
        <ele>12.2</ele>
        <time>1970-01-01T01:44:43.000Z</time>
      </trkpt>
      <trkpt lat="42.316717" lon="-8.821989">
        <ele>12.2</ele>
        <time>1970-01-01T01:44:44.000Z</time>
      </trkpt>
      <trkpt lat="42.316714" lon="-8.821991">
        <ele>12.4</ele>
        <time>1970-01-01T01:44:45.000Z</time>
      </trkpt>
      <trkpt lat="42.316712" lon="-8.821999">
        <ele>12.4</ele>
        <time>1970-01-01T01:44:46.000Z</time>
      </trkpt>
      <trkpt lat="42.316708" lon="-8.822005">
        <ele>12.2</ele>
        <time>1970-01-01T01:44:47.000Z</time>
      </trkpt>
      <trkpt lat="42.316706" lon="-8.822012">
        <ele>12.2</ele>
        <time>1970-01-01T01:44:48.000Z</time>
      </trkpt>
      <trkpt lat="42.316704" lon="-8.822025">
        <ele>12</ele>
        <time>1970-01-01T01:44:49.000Z</time>
      </trkpt>
      <trkpt lat="42.316705" lon="-8.822037">
        <ele>12</ele>
        <time>1970-01-01T01:44:50.000Z</time>
      </trkpt>
      <trkpt lat="42.316707" lon="-8.822049">
        <ele>12</ele>
        <time>1970-01-01T01:44:51.000Z</time>
      </trkpt>
      <trkpt lat="42.316706" lon="-8.822055">
        <ele>12</ele>
        <time>1970-01-01T01:44:52.000Z</time>
      </trkpt>
      <trkpt lat="42.316705" lon="-8.822057">
        <ele>12</ele>
        <time>1970-01-01T01:44:53.000Z</time>
      </trkpt>
      <trkpt lat="42.316702" lon="-8.822057">
        <ele>12</ele>
        <time>1970-01-01T01:44:54.000Z</time>
      </trkpt>
      <trkpt lat="42.316698" lon="-8.82206">
        <ele>12</ele>
        <time>1970-01-01T01:44:55.000Z</time>
      </trkpt>
      <trkpt lat="42.316691" lon="-8.822058">
        <ele>11.8</ele>
        <time>1970-01-01T01:44:56.000Z</time>
      </trkpt>
      <trkpt lat="42.316684" lon="-8.822051">
        <ele>11.4</ele>
        <time>1970-01-01T01:44:57.000Z</time>
      </trkpt>
      <trkpt lat="42.316676" lon="-8.822039">
        <ele>11</ele>
        <time>1970-01-01T01:44:58.000Z</time>
      </trkpt>
      <trkpt lat="42.316672" lon="-8.822027">
        <ele>10.8</ele>
        <time>1970-01-01T01:44:59.000Z</time>
      </trkpt>
      <trkpt lat="42.316666" lon="-8.82202">
        <ele>10.8</ele>
        <time>1970-01-01T01:45:00.000Z</time>
      </trkpt>
      <trkpt lat="42.316662" lon="-8.822015">
        <ele>10.6</ele>
        <time>1970-01-01T01:45:01.000Z</time>
      </trkpt>
      <trkpt lat="42.316658" lon="-8.822012">
        <ele>10.6</ele>
        <time>1970-01-01T01:45:02.000Z</time>
      </trkpt>
      <trkpt lat="42.316653" lon="-8.822012">
        <ele>10.6</ele>
        <time>1970-01-01T01:45:03.000Z</time>
      </trkpt>
      <trkpt lat="42.316652" lon="-8.822011">
        <ele>10.4</ele>
        <time>1970-01-01T01:45:04.000Z</time>
      </trkpt>
      <trkpt lat="42.316649" lon="-8.822014">
        <ele>10.4</ele>
        <time>1970-01-01T01:45:05.000Z</time>
      </trkpt>
      <trkpt lat="42.316647" lon="-8.822017">
        <ele>10.2</ele>
        <time>1970-01-01T01:45:06.000Z</time>
      </trkpt>
      <trkpt lat="42.316645" lon="-8.822015">
        <ele>10</ele>
        <time>1970-01-01T01:45:07.000Z</time>
      </trkpt>
      <trkpt lat="42.316643" lon="-8.822014">
        <ele>10</ele>
        <time>1970-01-01T01:45:08.000Z</time>
      </trkpt>
      <trkpt lat="42.316642" lon="-8.822013">
        <ele>9.8</ele>
        <time>1970-01-01T01:45:09.000Z</time>
      </trkpt>
      <trkpt lat="42.316643" lon="-8.822015">
        <ele>9.8</ele>
        <time>1970-01-01T01:45:10.000Z</time>
      </trkpt>
      <trkpt lat="42.316642" lon="-8.822014">
        <ele>9.8</ele>
        <time>1970-01-01T01:45:11.000Z</time>
      </trkpt>
      <trkpt lat="42.31664" lon="-8.822011">
        <ele>9.6</ele>
        <time>1970-01-01T01:45:12.000Z</time>
      </trkpt>
      <trkpt lat="42.316637" lon="-8.822007">
        <ele>9.4</ele>
        <time>1970-01-01T01:45:13.000Z</time>
      </trkpt>
      <trkpt lat="42.316636" lon="-8.822005">
        <ele>9.4</ele>
        <time>1970-01-01T01:45:14.000Z</time>
      </trkpt>
      <trkpt lat="42.316636" lon="-8.822002">
        <ele>9.2</ele>
        <time>1970-01-01T01:45:15.000Z</time>
      </trkpt>
      <trkpt lat="42.316634" lon="-8.822001">
        <ele>9</ele>
        <time>1970-01-01T01:45:16.000Z</time>
      </trkpt>
      <trkpt lat="42.316632" lon="-8.822003">
        <ele>9</ele>
        <time>1970-01-01T01:45:17.000Z</time>
      </trkpt>
      <trkpt lat="42.316629" lon="-8.822005">
        <ele>9</ele>
        <time>1970-01-01T01:45:18.000Z</time>
      </trkpt>
      <trkpt lat="42.316626" lon="-8.822005">
        <ele>9.2</ele>
        <time>1970-01-01T01:45:19.000Z</time>
      </trkpt>
      <trkpt lat="42.316624" lon="-8.822008">
        <ele>9.2</ele>
        <time>1970-01-01T01:45:20.000Z</time>
      </trkpt>
      <trkpt lat="42.31662" lon="-8.822009">
        <ele>9.2</ele>
        <time>1970-01-01T01:45:21.000Z</time>
      </trkpt>
      <trkpt lat="42.316616" lon="-8.822009">
        <ele>9.2</ele>
        <time>1970-01-01T01:45:22.000Z</time>
      </trkpt>
      <trkpt lat="42.316608" lon="-8.822007">
        <ele>9.4</ele>
        <time>1970-01-01T01:45:23.000Z</time>
      </trkpt>
      <trkpt lat="42.316605" lon="-8.822008">
        <ele>9.4</ele>
        <time>1970-01-01T01:45:24.000Z</time>
      </trkpt>
      <trkpt lat="42.316602" lon="-8.822007">
        <ele>9.4</ele>
        <time>1970-01-01T01:45:25.000Z</time>
      </trkpt>
      <trkpt lat="42.316599" lon="-8.822">
        <ele>9.4</ele>
        <time>1970-01-01T01:45:26.000Z</time>
      </trkpt>
      <trkpt lat="42.316595" lon="-8.82199">
        <ele>9.4</ele>
        <time>1970-01-01T01:45:27.000Z</time>
      </trkpt>
      <trkpt lat="42.316592" lon="-8.821983">
        <ele>9.4</ele>
        <time>1970-01-01T01:45:28.000Z</time>
      </trkpt>
      <trkpt lat="42.31659" lon="-8.821975">
        <ele>9.4</ele>
        <time>1970-01-01T01:45:29.000Z</time>
      </trkpt>
      <trkpt lat="42.316588" lon="-8.821963">
        <ele>9.4</ele>
        <time>1970-01-01T01:45:30.000Z</time>
      </trkpt>
      <trkpt lat="42.316584" lon="-8.821953">
        <ele>9.2</ele>
        <time>1970-01-01T01:45:31.000Z</time>
      </trkpt>
      <trkpt lat="42.316578" lon="-8.821941">
        <ele>9</ele>
        <time>1970-01-01T01:45:32.000Z</time>
      </trkpt>
      <trkpt lat="42.316574" lon="-8.82193">
        <ele>8.8</ele>
        <time>1970-01-01T01:45:33.000Z</time>
      </trkpt>
      <trkpt lat="42.316569" lon="-8.821923">
        <ele>9</ele>
        <time>1970-01-01T01:45:34.000Z</time>
      </trkpt>
      <trkpt lat="42.316566" lon="-8.821925">
        <ele>9</ele>
        <time>1970-01-01T01:45:35.000Z</time>
      </trkpt>
      <trkpt lat="42.316558" lon="-8.821929">
        <ele>8.8</ele>
        <time>1970-01-01T01:45:36.000Z</time>
      </trkpt>
      <trkpt lat="42.316553" lon="-8.821935">
        <ele>8.8</ele>
        <time>1970-01-01T01:45:37.000Z</time>
      </trkpt>
      <trkpt lat="42.316547" lon="-8.821941">
        <ele>8.6</ele>
        <time>1970-01-01T01:45:38.000Z</time>
      </trkpt>
      <trkpt lat="42.316541" lon="-8.821947">
        <ele>8.4</ele>
        <time>1970-01-01T01:45:39.000Z</time>
      </trkpt>
      <trkpt lat="42.316535" lon="-8.821952">
        <ele>8.4</ele>
        <time>1970-01-01T01:45:40.000Z</time>
      </trkpt>
      <trkpt lat="42.316528" lon="-8.821955">
        <ele>8.2</ele>
        <time>1970-01-01T01:45:41.000Z</time>
      </trkpt>
      <trkpt lat="42.316522" lon="-8.821956">
        <ele>8.2</ele>
        <time>1970-01-01T01:45:42.000Z</time>
      </trkpt>
      <trkpt lat="42.316517" lon="-8.821948">
        <ele>8</ele>
        <time>1970-01-01T01:45:43.000Z</time>
      </trkpt>
      <trkpt lat="42.316512" lon="-8.82194">
        <ele>8</ele>
        <time>1970-01-01T01:45:44.000Z</time>
      </trkpt>
      <trkpt lat="42.31651" lon="-8.821929">
        <ele>8</ele>
        <time>1970-01-01T01:45:45.000Z</time>
      </trkpt>
      <trkpt lat="42.316508" lon="-8.821918">
        <ele>8</ele>
        <time>1970-01-01T01:45:46.000Z</time>
      </trkpt>
      <trkpt lat="42.316506" lon="-8.821906">
        <ele>7.8</ele>
        <time>1970-01-01T01:45:47.000Z</time>
      </trkpt>
      <trkpt lat="42.316504" lon="-8.82189">
        <ele>7.4</ele>
        <time>1970-01-01T01:45:48.000Z</time>
      </trkpt>
      <trkpt lat="42.3165" lon="-8.821872">
        <ele>7</ele>
        <time>1970-01-01T01:45:49.000Z</time>
      </trkpt>
      <trkpt lat="42.316493" lon="-8.821855">
        <ele>6.8</ele>
        <time>1970-01-01T01:45:50.000Z</time>
      </trkpt>
      <trkpt lat="42.316488" lon="-8.821844">
        <ele>6.6</ele>
        <time>1970-01-01T01:45:51.000Z</time>
      </trkpt>
      <trkpt lat="42.316482" lon="-8.821834">
        <ele>6.6</ele>
        <time>1970-01-01T01:45:52.000Z</time>
      </trkpt>
      <trkpt lat="42.316478" lon="-8.821826">
        <ele>6.6</ele>
        <time>1970-01-01T01:45:53.000Z</time>
      </trkpt>
      <trkpt lat="42.316477" lon="-8.821814">
        <ele>6.6</ele>
        <time>1970-01-01T01:45:54.000Z</time>
      </trkpt>
      <trkpt lat="42.316471" lon="-8.821807">
        <ele>6.6</ele>
        <time>1970-01-01T01:45:55.000Z</time>
      </trkpt>
      <trkpt lat="42.316466" lon="-8.821801">
        <ele>6.6</ele>
        <time>1970-01-01T01:45:56.000Z</time>
      </trkpt>
      <trkpt lat="42.316462" lon="-8.821797">
        <ele>6.6</ele>
        <time>1970-01-01T01:45:57.000Z</time>
      </trkpt>
      <trkpt lat="42.316457" lon="-8.821795">
        <ele>6.6</ele>
        <time>1970-01-01T01:45:58.000Z</time>
      </trkpt>
      <trkpt lat="42.316447" lon="-8.821795">
        <ele>6.4</ele>
        <time>1970-01-01T01:45:59.000Z</time>
      </trkpt>
      <trkpt lat="42.316436" lon="-8.821794">
        <ele>6.2</ele>
        <time>1970-01-01T01:46:00.000Z</time>
      </trkpt>
      <trkpt lat="42.316425" lon="-8.821795">
        <ele>6.2</ele>
        <time>1970-01-01T01:46:01.000Z</time>
      </trkpt>
      <trkpt lat="42.316416" lon="-8.821798">
        <ele>6</ele>
        <time>1970-01-01T01:46:02.000Z</time>
      </trkpt>
      <trkpt lat="42.316406" lon="-8.821805">
        <ele>6</ele>
        <time>1970-01-01T01:46:03.000Z</time>
      </trkpt>
      <trkpt lat="42.316397" lon="-8.821809">
        <ele>5.8</ele>
        <time>1970-01-01T01:46:04.000Z</time>
      </trkpt>
      <trkpt lat="42.316391" lon="-8.821816">
        <ele>5.6</ele>
        <time>1970-01-01T01:46:05.000Z</time>
      </trkpt>
      <trkpt lat="42.316381" lon="-8.821822">
        <ele>5.4</ele>
        <time>1970-01-01T01:46:06.000Z</time>
      </trkpt>
      <trkpt lat="42.316375" lon="-8.821828">
        <ele>5</ele>
        <time>1970-01-01T01:46:07.000Z</time>
      </trkpt>
      <trkpt lat="42.316367" lon="-8.821836">
        <ele>4.8</ele>
        <time>1970-01-01T01:46:08.000Z</time>
      </trkpt>
      <trkpt lat="42.316361" lon="-8.821845">
        <ele>4.6</ele>
        <time>1970-01-01T01:46:09.000Z</time>
      </trkpt>
      <trkpt lat="42.316353" lon="-8.82186">
        <ele>4.4</ele>
        <time>1970-01-01T01:46:10.000Z</time>
      </trkpt>
      <trkpt lat="42.316344" lon="-8.821874">
        <ele>4.4</ele>
        <time>1970-01-01T01:46:11.000Z</time>
      </trkpt>
      <trkpt lat="42.316335" lon="-8.821887">
        <ele>4.2</ele>
        <time>1970-01-01T01:46:12.000Z</time>
      </trkpt>
      <trkpt lat="42.316329" lon="-8.821891">
        <ele>4.2</ele>
        <time>1970-01-01T01:46:13.000Z</time>
      </trkpt>
      <trkpt lat="42.316324" lon="-8.821893">
        <ele>4.2</ele>
        <time>1970-01-01T01:46:14.000Z</time>
      </trkpt>
      <trkpt lat="42.316321" lon="-8.821895">
        <ele>4.2</ele>
        <time>1970-01-01T01:46:15.000Z</time>
      </trkpt>
      <trkpt lat="42.316317" lon="-8.821899">
        <ele>4.2</ele>
        <time>1970-01-01T01:46:16.000Z</time>
      </trkpt>
      <trkpt lat="42.316313" lon="-8.821906">
        <ele>4.2</ele>
        <time>1970-01-01T01:46:17.000Z</time>
      </trkpt>
      <trkpt lat="42.316308" lon="-8.821912">
        <ele>4.2</ele>
        <time>1970-01-01T01:46:18.000Z</time>
      </trkpt>
      <trkpt lat="42.316304" lon="-8.821914">
        <ele>4</ele>
        <time>1970-01-01T01:46:19.000Z</time>
      </trkpt>
      <trkpt lat="42.316297" lon="-8.821915">
        <ele>4</ele>
        <time>1970-01-01T01:46:20.000Z</time>
      </trkpt>
      <trkpt lat="42.316292" lon="-8.821913">
        <ele>4</ele>
        <time>1970-01-01T01:46:21.000Z</time>
      </trkpt>
      <trkpt lat="42.316285" lon="-8.821908">
        <ele>4</ele>
        <time>1970-01-01T01:46:22.000Z</time>
      </trkpt>
      <trkpt lat="42.316286" lon="-8.821908">
        <ele>4</ele>
        <time>1970-01-01T01:46:23.000Z</time>
      </trkpt>
      <trkpt lat="42.316286" lon="-8.821907">
        <ele>4</ele>
        <time>1970-01-01T01:46:24.000Z</time>
      </trkpt>
      <trkpt lat="42.316287" lon="-8.821906">
        <ele>4</ele>
        <time>1970-01-01T01:46:25.000Z</time>
      </trkpt>
      <trkpt lat="42.316285" lon="-8.821907">
        <ele>4</ele>
        <time>1970-01-01T01:46:26.000Z</time>
      </trkpt>
      <trkpt lat="42.31628" lon="-8.821908">
        <ele>4</ele>
        <time>1970-01-01T01:46:27.000Z</time>
      </trkpt>
      <trkpt lat="42.316275" lon="-8.82191">
        <ele>4</ele>
        <time>1970-01-01T01:46:28.000Z</time>
      </trkpt>
      <trkpt lat="42.316269" lon="-8.821913">
        <ele>3.6</ele>
        <time>1970-01-01T01:46:29.000Z</time>
      </trkpt>
      <trkpt lat="42.316262" lon="-8.821914">
        <ele>3.4</ele>
        <time>1970-01-01T01:46:30.000Z</time>
      </trkpt>
      <trkpt lat="42.316256" lon="-8.821916">
        <ele>3.4</ele>
        <time>1970-01-01T01:46:31.000Z</time>
      </trkpt>
      <trkpt lat="42.316251" lon="-8.821917">
        <ele>3.2</ele>
        <time>1970-01-01T01:46:32.000Z</time>
      </trkpt>
      <trkpt lat="42.316247" lon="-8.821918">
        <ele>2.8</ele>
        <time>1970-01-01T01:46:33.000Z</time>
      </trkpt>
      <trkpt lat="42.316241" lon="-8.821914">
        <ele>2.8</ele>
        <time>1970-01-01T01:46:34.000Z</time>
      </trkpt>
      <trkpt lat="42.316234" lon="-8.821907">
        <ele>2.6</ele>
        <time>1970-01-01T01:46:35.000Z</time>
      </trkpt>
      <trkpt lat="42.316229" lon="-8.8219">
        <ele>2.4</ele>
        <time>1970-01-01T01:46:36.000Z</time>
      </trkpt>
      <trkpt lat="42.316226" lon="-8.821886">
        <ele>2.2</ele>
        <time>1970-01-01T01:46:37.000Z</time>
      </trkpt>
      <trkpt lat="42.316217" lon="-8.821874">
        <ele>2</ele>
        <time>1970-01-01T01:46:38.000Z</time>
      </trkpt>
      <trkpt lat="42.316209" lon="-8.821862">
        <ele>2</ele>
        <time>1970-01-01T01:46:39.000Z</time>
      </trkpt>
      <trkpt lat="42.316202" lon="-8.821853">
        <ele>2</ele>
        <time>1970-01-01T01:46:40.000Z</time>
      </trkpt>
      <trkpt lat="42.316197" lon="-8.821848">
        <ele>2</ele>
        <time>1970-01-01T01:46:41.000Z</time>
      </trkpt>
      <trkpt lat="42.316193" lon="-8.821845">
        <ele>1.8</ele>
        <time>1970-01-01T01:46:42.000Z</time>
      </trkpt>
      <trkpt lat="42.316188" lon="-8.821843">
        <ele>1.8</ele>
        <time>1970-01-01T01:46:43.000Z</time>
      </trkpt>
      <trkpt lat="42.316183" lon="-8.821844">
        <ele>1.8</ele>
        <time>1970-01-01T01:46:44.000Z</time>
      </trkpt>
      <trkpt lat="42.316178" lon="-8.821848">
        <ele>1.8</ele>
        <time>1970-01-01T01:46:45.000Z</time>
      </trkpt>
      <trkpt lat="42.316171" lon="-8.821854">
        <ele>1.6</ele>
        <time>1970-01-01T01:46:46.000Z</time>
      </trkpt>
      <trkpt lat="42.316164" lon="-8.821867">
        <ele>1.4</ele>
        <time>1970-01-01T01:46:47.000Z</time>
      </trkpt>
      <trkpt lat="42.316157" lon="-8.821889">
        <ele>1.2</ele>
        <time>1970-01-01T01:46:48.000Z</time>
      </trkpt>
      <trkpt lat="42.316153" lon="-8.821911">
        <ele>1.2</ele>
        <time>1970-01-01T01:46:49.000Z</time>
      </trkpt>
      <trkpt lat="42.31615" lon="-8.821929">
        <ele>1</ele>
        <time>1970-01-01T01:46:50.000Z</time>
      </trkpt>
      <trkpt lat="42.31615" lon="-8.821945">
        <ele>0.8</ele>
        <time>1970-01-01T01:46:51.000Z</time>
      </trkpt>
      <trkpt lat="42.31615" lon="-8.821957">
        <ele>0.8</ele>
        <time>1970-01-01T01:46:52.000Z</time>
      </trkpt>
      <trkpt lat="42.316152" lon="-8.821967">
        <ele>0.6</ele>
        <time>1970-01-01T01:46:53.000Z</time>
      </trkpt>
      <trkpt lat="42.316157" lon="-8.821979">
        <ele>0.6</ele>
        <time>1970-01-01T01:46:54.000Z</time>
      </trkpt>
      <trkpt lat="42.316161" lon="-8.821987">
        <ele>0.4</ele>
        <time>1970-01-01T01:46:55.000Z</time>
      </trkpt>
      <trkpt lat="42.316161" lon="-8.82199">
        <ele>0.4</ele>
        <time>1970-01-01T01:46:56.000Z</time>
      </trkpt>
      <trkpt lat="42.316161" lon="-8.821994">
        <ele>0.2</ele>
        <time>1970-01-01T01:46:57.000Z</time>
      </trkpt>
      <trkpt lat="42.31616" lon="-8.822">
        <ele>0.2</ele>
        <time>1970-01-01T01:46:58.000Z</time>
      </trkpt>
      <trkpt lat="42.316161" lon="-8.82201">
        <ele>0.2</ele>
        <time>1970-01-01T01:46:59.000Z</time>
      </trkpt>
      <trkpt lat="42.316162" lon="-8.822021">
        <ele>0.2</ele>
        <time>1970-01-01T01:47:00.000Z</time>
      </trkpt>
      <trkpt lat="42.316163" lon="-8.822035">
        <ele>-0.2</ele>
        <time>1970-01-01T01:47:01.000Z</time>
      </trkpt>
      <trkpt lat="42.316163" lon="-8.822048">
        <ele>-0.4</ele>
        <time>1970-01-01T01:47:02.000Z</time>
      </trkpt>
      <trkpt lat="42.316164" lon="-8.822058">
        <ele>-0.6</ele>
        <time>1970-01-01T01:47:03.000Z</time>
      </trkpt>
      <trkpt lat="42.316164" lon="-8.822066">
        <ele>-0.8</ele>
        <time>1970-01-01T01:47:04.000Z</time>
      </trkpt>
      <trkpt lat="42.316161" lon="-8.822069">
        <ele>-1.4</ele>
        <time>1970-01-01T01:47:05.000Z</time>
      </trkpt>
      <trkpt lat="42.316157" lon="-8.822068">
        <ele>-1.8</ele>
        <time>1970-01-01T01:47:06.000Z</time>
      </trkpt>
      <trkpt lat="42.316152" lon="-8.822065">
        <ele>-2</ele>
        <time>1970-01-01T01:47:07.000Z</time>
      </trkpt>
      <trkpt lat="42.316146" lon="-8.822063">
        <ele>-2</ele>
        <time>1970-01-01T01:47:08.000Z</time>
      </trkpt>
      <trkpt lat="42.316139" lon="-8.822059">
        <ele>-2.2</ele>
        <time>1970-01-01T01:47:09.000Z</time>
      </trkpt>
      <trkpt lat="42.31613" lon="-8.822047">
        <ele>-2.2</ele>
        <time>1970-01-01T01:47:10.000Z</time>
      </trkpt>
      <trkpt lat="42.316122" lon="-8.822031">
        <ele>-2.2</ele>
        <time>1970-01-01T01:47:11.000Z</time>
      </trkpt>
      <trkpt lat="42.316114" lon="-8.822017">
        <ele>-2.2</ele>
        <time>1970-01-01T01:47:12.000Z</time>
      </trkpt>
      <trkpt lat="42.316107" lon="-8.822009">
        <ele>-2.4</ele>
        <time>1970-01-01T01:47:13.000Z</time>
      </trkpt>
      <trkpt lat="42.316104" lon="-8.822005">
        <ele>-2.4</ele>
        <time>1970-01-01T01:47:14.000Z</time>
      </trkpt>
      <trkpt lat="42.316102" lon="-8.822005">
        <ele>-2.6</ele>
        <time>1970-01-01T01:47:15.000Z</time>
      </trkpt>
      <trkpt lat="42.316099" lon="-8.822006">
        <ele>-3</ele>
        <time>1970-01-01T01:47:16.000Z</time>
      </trkpt>
      <trkpt lat="42.316094" lon="-8.822008">
        <ele>-3.2</ele>
        <time>1970-01-01T01:47:17.000Z</time>
      </trkpt>
      <trkpt lat="42.316087" lon="-8.822007">
        <ele>-3.4</ele>
        <time>1970-01-01T01:47:18.000Z</time>
      </trkpt>
      <trkpt lat="42.316082" lon="-8.822005">
        <ele>-3.4</ele>
        <time>1970-01-01T01:47:19.000Z</time>
      </trkpt>
      <trkpt lat="42.316077" lon="-8.822002">
        <ele>-3.4</ele>
        <time>1970-01-01T01:47:20.000Z</time>
      </trkpt>
      <trkpt lat="42.316076" lon="-8.822003">
        <ele>-3.4</ele>
        <time>1970-01-01T01:47:21.000Z</time>
      </trkpt>
      <trkpt lat="42.316073" lon="-8.822003">
        <ele>-3.4</ele>
        <time>1970-01-01T01:47:22.000Z</time>
      </trkpt>
      <trkpt lat="42.316072" lon="-8.822004">
        <ele>-3.6</ele>
        <time>1970-01-01T01:47:23.000Z</time>
      </trkpt>
      <trkpt lat="42.316068" lon="-8.821995">
        <ele>-4</ele>
        <time>1970-01-01T01:47:24.000Z</time>
      </trkpt>
      <trkpt lat="42.316065" lon="-8.82199">
        <ele>-4.4</ele>
        <time>1970-01-01T01:47:25.000Z</time>
      </trkpt>
      <trkpt lat="42.31606" lon="-8.821985">
        <ele>-5</ele>
        <time>1970-01-01T01:47:26.000Z</time>
      </trkpt>
      <trkpt lat="42.31605" lon="-8.821979">
        <ele>-5.4</ele>
        <time>1970-01-01T01:47:27.000Z</time>
      </trkpt>
      <trkpt lat="42.316037" lon="-8.82197">
        <ele>-5.6</ele>
        <time>1970-01-01T01:47:28.000Z</time>
      </trkpt>
      <trkpt lat="42.316025" lon="-8.821962">
        <ele>-5.8</ele>
        <time>1970-01-01T01:47:29.000Z</time>
      </trkpt>
      <trkpt lat="42.316014" lon="-8.821954">
        <ele>-5.8</ele>
        <time>1970-01-01T01:47:30.000Z</time>
      </trkpt>
      <trkpt lat="42.316005" lon="-8.821939">
        <ele>-6</ele>
        <time>1970-01-01T01:47:31.000Z</time>
      </trkpt>
      <trkpt lat="42.315995" lon="-8.821928">
        <ele>-6.2</ele>
        <time>1970-01-01T01:47:32.000Z</time>
      </trkpt>
      <trkpt lat="42.315984" lon="-8.821915">
        <ele>-6.4</ele>
        <time>1970-01-01T01:47:33.000Z</time>
      </trkpt>
      <trkpt lat="42.315973" lon="-8.821904">
        <ele>-6.6</ele>
        <time>1970-01-01T01:47:34.000Z</time>
      </trkpt>
      <trkpt lat="42.315963" lon="-8.821893">
        <ele>-6.4</ele>
        <time>1970-01-01T01:47:35.000Z</time>
      </trkpt>
      <trkpt lat="42.315954" lon="-8.821883">
        <ele>-6.4</ele>
        <time>1970-01-01T01:47:36.000Z</time>
      </trkpt>
      <trkpt lat="42.315945" lon="-8.821872">
        <ele>-6.2</ele>
        <time>1970-01-01T01:47:37.000Z</time>
      </trkpt>
      <trkpt lat="42.315938" lon="-8.821861">
        <ele>-6</ele>
        <time>1970-01-01T01:47:38.000Z</time>
      </trkpt>
      <trkpt lat="42.315931" lon="-8.821849">
        <ele>-5.8</ele>
        <time>1970-01-01T01:47:39.000Z</time>
      </trkpt>
      <trkpt lat="42.315922" lon="-8.821835">
        <ele>-5.6</ele>
        <time>1970-01-01T01:47:40.000Z</time>
      </trkpt>
      <trkpt lat="42.315916" lon="-8.821827">
        <ele>-5.6</ele>
        <time>1970-01-01T01:47:41.000Z</time>
      </trkpt>
      <trkpt lat="42.315909" lon="-8.821822">
        <ele>-5.4</ele>
        <time>1970-01-01T01:47:42.000Z</time>
      </trkpt>
      <trkpt lat="42.315903" lon="-8.821817">
        <ele>-5.2</ele>
        <time>1970-01-01T01:47:43.000Z</time>
      </trkpt>
      <trkpt lat="42.315899" lon="-8.821815">
        <ele>-5.2</ele>
        <time>1970-01-01T01:47:44.000Z</time>
      </trkpt>
      <trkpt lat="42.315892" lon="-8.821815">
        <ele>-5.2</ele>
        <time>1970-01-01T01:47:45.000Z</time>
      </trkpt>
      <trkpt lat="42.315882" lon="-8.821824">
        <ele>-5.2</ele>
        <time>1970-01-01T01:47:46.000Z</time>
      </trkpt>
      <trkpt lat="42.315875" lon="-8.821833">
        <ele>-5</ele>
        <time>1970-01-01T01:47:47.000Z</time>
      </trkpt>
      <trkpt lat="42.315871" lon="-8.82184">
        <ele>-5</ele>
        <time>1970-01-01T01:47:48.000Z</time>
      </trkpt>
      <trkpt lat="42.315868" lon="-8.821848">
        <ele>-4.8</ele>
        <time>1970-01-01T01:47:49.000Z</time>
      </trkpt>
      <trkpt lat="42.315869" lon="-8.821852">
        <ele>-4.6</ele>
        <time>1970-01-01T01:47:50.000Z</time>
      </trkpt>
      <trkpt lat="42.31587" lon="-8.821856">
        <ele>-4.6</ele>
        <time>1970-01-01T01:47:51.000Z</time>
      </trkpt>
      <trkpt lat="42.315871" lon="-8.821858">
        <ele>-4.8</ele>
        <time>1970-01-01T01:47:52.000Z</time>
      </trkpt>
      <trkpt lat="42.315874" lon="-8.821855">
        <ele>-4.8</ele>
        <time>1970-01-01T01:47:53.000Z</time>
      </trkpt>
      <trkpt lat="42.315875" lon="-8.821842">
        <ele>-4.8</ele>
        <time>1970-01-01T01:47:54.000Z</time>
      </trkpt>
      <trkpt lat="42.315875" lon="-8.821834">
        <ele>-4.8</ele>
        <time>1970-01-01T01:47:55.000Z</time>
      </trkpt>
      <trkpt lat="42.315869" lon="-8.821821">
        <ele>-4.8</ele>
        <time>1970-01-01T01:47:56.000Z</time>
      </trkpt>
      <trkpt lat="42.315864" lon="-8.821801">
        <ele>-4.8</ele>
        <time>1970-01-01T01:47:57.000Z</time>
      </trkpt>
      <trkpt lat="42.315855" lon="-8.821784">
        <ele>-4.8</ele>
        <time>1970-01-01T01:47:58.000Z</time>
      </trkpt>
      <trkpt lat="42.315845" lon="-8.821773">
        <ele>-4.6</ele>
        <time>1970-01-01T01:47:59.000Z</time>
      </trkpt>
      <trkpt lat="42.315838" lon="-8.821768">
        <ele>-4.6</ele>
        <time>1970-01-01T01:48:00.000Z</time>
      </trkpt>
      <trkpt lat="42.315829" lon="-8.821765">
        <ele>-4.6</ele>
        <time>1970-01-01T01:48:01.000Z</time>
      </trkpt>
      <trkpt lat="42.315819" lon="-8.821765">
        <ele>-4.4</ele>
        <time>1970-01-01T01:48:02.000Z</time>
      </trkpt>
      <trkpt lat="42.315811" lon="-8.821771">
        <ele>-4.6</ele>
        <time>1970-01-01T01:48:03.000Z</time>
      </trkpt>
      <trkpt lat="42.315806" lon="-8.821783">
        <ele>-4.8</ele>
        <time>1970-01-01T01:48:04.000Z</time>
      </trkpt>
      <trkpt lat="42.315802" lon="-8.821797">
        <ele>-4.8</ele>
        <time>1970-01-01T01:48:05.000Z</time>
      </trkpt>
      <trkpt lat="42.315793" lon="-8.821811">
        <ele>-4.8</ele>
        <time>1970-01-01T01:48:06.000Z</time>
      </trkpt>
      <trkpt lat="42.315783" lon="-8.821819">
        <ele>-5</ele>
        <time>1970-01-01T01:48:07.000Z</time>
      </trkpt>
      <trkpt lat="42.315772" lon="-8.821822">
        <ele>-5</ele>
        <time>1970-01-01T01:48:08.000Z</time>
      </trkpt>
      <trkpt lat="42.315761" lon="-8.821823">
        <ele>-4.8</ele>
        <time>1970-01-01T01:48:09.000Z</time>
      </trkpt>
      <trkpt lat="42.315749" lon="-8.821821">
        <ele>-4.8</ele>
        <time>1970-01-01T01:48:10.000Z</time>
      </trkpt>
      <trkpt lat="42.315737" lon="-8.821817">
        <ele>-4.6</ele>
        <time>1970-01-01T01:48:11.000Z</time>
      </trkpt>
      <trkpt lat="42.315728" lon="-8.821809">
        <ele>-4.6</ele>
        <time>1970-01-01T01:48:12.000Z</time>
      </trkpt>
      <trkpt lat="42.315719" lon="-8.821801">
        <ele>-4.4</ele>
        <time>1970-01-01T01:48:13.000Z</time>
      </trkpt>
      <trkpt lat="42.315708" lon="-8.821797">
        <ele>-4.4</ele>
        <time>1970-01-01T01:48:14.000Z</time>
      </trkpt>
      <trkpt lat="42.315699" lon="-8.821795">
        <ele>-4.4</ele>
        <time>1970-01-01T01:48:15.000Z</time>
      </trkpt>
      <trkpt lat="42.315691" lon="-8.821793">
        <ele>-4.6</ele>
        <time>1970-01-01T01:48:16.000Z</time>
      </trkpt>
      <trkpt lat="42.315687" lon="-8.821794">
        <ele>-4.8</ele>
        <time>1970-01-01T01:48:17.000Z</time>
      </trkpt>
      <trkpt lat="42.315685" lon="-8.821796">
        <ele>-5.4</ele>
        <time>1970-01-01T01:48:18.000Z</time>
      </trkpt>
      <trkpt lat="42.315685" lon="-8.821796">
        <ele>-6</ele>
        <time>1970-01-01T01:48:19.000Z</time>
      </trkpt>
      <trkpt lat="42.315683" lon="-8.821792">
        <ele>-6.2</ele>
        <time>1970-01-01T01:48:20.000Z</time>
      </trkpt>
      <trkpt lat="42.315679" lon="-8.821787">
        <ele>-6.6</ele>
        <time>1970-01-01T01:48:21.000Z</time>
      </trkpt>
      <trkpt lat="42.315672" lon="-8.821786">
        <ele>-6.8</ele>
        <time>1970-01-01T01:48:22.000Z</time>
      </trkpt>
      <trkpt lat="42.315664" lon="-8.82179">
        <ele>-6.8</ele>
        <time>1970-01-01T01:48:23.000Z</time>
      </trkpt>
      <trkpt lat="42.315657" lon="-8.821797">
        <ele>-6.8</ele>
        <time>1970-01-01T01:48:24.000Z</time>
      </trkpt>
      <trkpt lat="42.315648" lon="-8.821804">
        <ele>-7</ele>
        <time>1970-01-01T01:48:25.000Z</time>
      </trkpt>
      <trkpt lat="42.315639" lon="-8.821808">
        <ele>-7</ele>
        <time>1970-01-01T01:48:26.000Z</time>
      </trkpt>
      <trkpt lat="42.315631" lon="-8.821809">
        <ele>-7</ele>
        <time>1970-01-01T01:48:27.000Z</time>
      </trkpt>
      <trkpt lat="42.31562" lon="-8.821809">
        <ele>-7.2</ele>
        <time>1970-01-01T01:48:28.000Z</time>
      </trkpt>
      <trkpt lat="42.31561" lon="-8.821809">
        <ele>-7.2</ele>
        <time>1970-01-01T01:48:29.000Z</time>
      </trkpt>
      <trkpt lat="42.315595" lon="-8.821811">
        <ele>-7.4</ele>
        <time>1970-01-01T01:48:30.000Z</time>
      </trkpt>
      <trkpt lat="42.315581" lon="-8.821818">
        <ele>-7.4</ele>
        <time>1970-01-01T01:48:31.000Z</time>
      </trkpt>
      <trkpt lat="42.315568" lon="-8.82183">
        <ele>-7.4</ele>
        <time>1970-01-01T01:48:32.000Z</time>
      </trkpt>
      <trkpt lat="42.31556" lon="-8.82184">
        <ele>-7.4</ele>
        <time>1970-01-01T01:48:33.000Z</time>
      </trkpt>
      <trkpt lat="42.315556" lon="-8.821852">
        <ele>-7.4</ele>
        <time>1970-01-01T01:48:34.000Z</time>
      </trkpt>
      <trkpt lat="42.315547" lon="-8.821863">
        <ele>-7.6</ele>
        <time>1970-01-01T01:48:35.000Z</time>
      </trkpt>
      <trkpt lat="42.315536" lon="-8.821871">
        <ele>-7.4</ele>
        <time>1970-01-01T01:48:36.000Z</time>
      </trkpt>
      <trkpt lat="42.315523" lon="-8.821875">
        <ele>-7.2</ele>
        <time>1970-01-01T01:48:37.000Z</time>
      </trkpt>
      <trkpt lat="42.315507" lon="-8.821874">
        <ele>-7.2</ele>
        <time>1970-01-01T01:48:38.000Z</time>
      </trkpt>
      <trkpt lat="42.315492" lon="-8.821875">
        <ele>-7.2</ele>
        <time>1970-01-01T01:48:39.000Z</time>
      </trkpt>
      <trkpt lat="42.315475" lon="-8.821871">
        <ele>-7.2</ele>
        <time>1970-01-01T01:48:40.000Z</time>
      </trkpt>
      <trkpt lat="42.315462" lon="-8.821865">
        <ele>-7.2</ele>
        <time>1970-01-01T01:48:41.000Z</time>
      </trkpt>
      <trkpt lat="42.315453" lon="-8.821857">
        <ele>-7.2</ele>
        <time>1970-01-01T01:48:42.000Z</time>
      </trkpt>
      <trkpt lat="42.315448" lon="-8.82185">
        <ele>-7.2</ele>
        <time>1970-01-01T01:48:43.000Z</time>
      </trkpt>
      <trkpt lat="42.31544" lon="-8.821841">
        <ele>-7.2</ele>
        <time>1970-01-01T01:48:44.000Z</time>
      </trkpt>
      <trkpt lat="42.315435" lon="-8.821829">
        <ele>-7.2</ele>
        <time>1970-01-01T01:48:45.000Z</time>
      </trkpt>
      <trkpt lat="42.31543" lon="-8.821822">
        <ele>-7</ele>
        <time>1970-01-01T01:48:46.000Z</time>
      </trkpt>
      <trkpt lat="42.315425" lon="-8.82182">
        <ele>-6.6</ele>
        <time>1970-01-01T01:48:47.000Z</time>
      </trkpt>
      <trkpt lat="42.315419" lon="-8.821818">
        <ele>-6.4</ele>
        <time>1970-01-01T01:48:48.000Z</time>
      </trkpt>
      <trkpt lat="42.315414" lon="-8.821816">
        <ele>-6.2</ele>
        <time>1970-01-01T01:48:49.000Z</time>
      </trkpt>
      <trkpt lat="42.315406" lon="-8.821817">
        <ele>-6.2</ele>
        <time>1970-01-01T01:48:50.000Z</time>
      </trkpt>
      <trkpt lat="42.315395" lon="-8.821823">
        <ele>-6</ele>
        <time>1970-01-01T01:48:51.000Z</time>
      </trkpt>
      <trkpt lat="42.315382" lon="-8.821827">
        <ele>-5.8</ele>
        <time>1970-01-01T01:48:52.000Z</time>
      </trkpt>
      <trkpt lat="42.31537" lon="-8.82183">
        <ele>-5.6</ele>
        <time>1970-01-01T01:48:53.000Z</time>
      </trkpt>
      <trkpt lat="42.31536" lon="-8.821831">
        <ele>-5.6</ele>
        <time>1970-01-01T01:48:54.000Z</time>
      </trkpt>
      <trkpt lat="42.31535" lon="-8.821831">
        <ele>-5.4</ele>
        <time>1970-01-01T01:48:55.000Z</time>
      </trkpt>
      <trkpt lat="42.315341" lon="-8.821823">
        <ele>-5.4</ele>
        <time>1970-01-01T01:48:56.000Z</time>
      </trkpt>
      <trkpt lat="42.315332" lon="-8.821814">
        <ele>-5.4</ele>
        <time>1970-01-01T01:48:57.000Z</time>
      </trkpt>
      <trkpt lat="42.315324" lon="-8.821804">
        <ele>-5.2</ele>
        <time>1970-01-01T01:48:58.000Z</time>
      </trkpt>
      <trkpt lat="42.315317" lon="-8.821796">
        <ele>-5</ele>
        <time>1970-01-01T01:48:59.000Z</time>
      </trkpt>
      <trkpt lat="42.315312" lon="-8.821789">
        <ele>-5</ele>
        <time>1970-01-01T01:49:00.000Z</time>
      </trkpt>
      <trkpt lat="42.315305" lon="-8.821791">
        <ele>-4.6</ele>
        <time>1970-01-01T01:49:01.000Z</time>
      </trkpt>
      <trkpt lat="42.315298" lon="-8.821797">
        <ele>-4.4</ele>
        <time>1970-01-01T01:49:02.000Z</time>
      </trkpt>
      <trkpt lat="42.315288" lon="-8.821803">
        <ele>-4.4</ele>
        <time>1970-01-01T01:49:03.000Z</time>
      </trkpt>
      <trkpt lat="42.315278" lon="-8.821804">
        <ele>-4.4</ele>
        <time>1970-01-01T01:49:04.000Z</time>
      </trkpt>
      <trkpt lat="42.315266" lon="-8.821802">
        <ele>-4.4</ele>
        <time>1970-01-01T01:49:05.000Z</time>
      </trkpt>
      <trkpt lat="42.315254" lon="-8.82179">
        <ele>-4.2</ele>
        <time>1970-01-01T01:49:06.000Z</time>
      </trkpt>
      <trkpt lat="42.315241" lon="-8.821783">
        <ele>-4.2</ele>
        <time>1970-01-01T01:49:07.000Z</time>
      </trkpt>
      <trkpt lat="42.315229" lon="-8.821776">
        <ele>-4.2</ele>
        <time>1970-01-01T01:49:08.000Z</time>
      </trkpt>
      <trkpt lat="42.315217" lon="-8.821774">
        <ele>-4.4</ele>
        <time>1970-01-01T01:49:09.000Z</time>
      </trkpt>
      <trkpt lat="42.315205" lon="-8.821774">
        <ele>-4.4</ele>
        <time>1970-01-01T01:49:10.000Z</time>
      </trkpt>
      <trkpt lat="42.315192" lon="-8.82178">
        <ele>-4.4</ele>
        <time>1970-01-01T01:49:11.000Z</time>
      </trkpt>
      <trkpt lat="42.315177" lon="-8.82179">
        <ele>-4.4</ele>
        <time>1970-01-01T01:49:12.000Z</time>
      </trkpt>
      <trkpt lat="42.315168" lon="-8.821799">
        <ele>-3.6</ele>
        <time>1970-01-01T01:49:13.000Z</time>
      </trkpt>
      <trkpt lat="42.315159" lon="-8.821803">
        <ele>-3.4</ele>
        <time>1970-01-01T01:49:14.000Z</time>
      </trkpt>
      <trkpt lat="42.315151" lon="-8.821807">
        <ele>-3.2</ele>
        <time>1970-01-01T01:49:15.000Z</time>
      </trkpt>
      <trkpt lat="42.315143" lon="-8.821814">
        <ele>-3</ele>
        <time>1970-01-01T01:49:16.000Z</time>
      </trkpt>
      <trkpt lat="42.315134" lon="-8.821822">
        <ele>-2.8</ele>
        <time>1970-01-01T01:49:17.000Z</time>
      </trkpt>
      <trkpt lat="42.315123" lon="-8.821829">
        <ele>-2.8</ele>
        <time>1970-01-01T01:49:18.000Z</time>
      </trkpt>
      <trkpt lat="42.315112" lon="-8.821837">
        <ele>-3</ele>
        <time>1970-01-01T01:49:19.000Z</time>
      </trkpt>
      <trkpt lat="42.3151" lon="-8.821844">
        <ele>-3</ele>
        <time>1970-01-01T01:49:20.000Z</time>
      </trkpt>
      <trkpt lat="42.315091" lon="-8.821855">
        <ele>-3</ele>
        <time>1970-01-01T01:49:21.000Z</time>
      </trkpt>
      <trkpt lat="42.315085" lon="-8.82186">
        <ele>-3.2</ele>
        <time>1970-01-01T01:49:22.000Z</time>
      </trkpt>
      <trkpt lat="42.315077" lon="-8.821868">
        <ele>-3.4</ele>
        <time>1970-01-01T01:49:23.000Z</time>
      </trkpt>
      <trkpt lat="42.315069" lon="-8.821879">
        <ele>-3.6</ele>
        <time>1970-01-01T01:49:24.000Z</time>
      </trkpt>
      <trkpt lat="42.315064" lon="-8.821886">
        <ele>-3.8</ele>
        <time>1970-01-01T01:49:25.000Z</time>
      </trkpt>
      <trkpt lat="42.315058" lon="-8.821892">
        <ele>-3.8</ele>
        <time>1970-01-01T01:49:26.000Z</time>
      </trkpt>
      <trkpt lat="42.315052" lon="-8.821895">
        <ele>-3.8</ele>
        <time>1970-01-01T01:49:27.000Z</time>
      </trkpt>
      <trkpt lat="42.315041" lon="-8.821899">
        <ele>-3.8</ele>
        <time>1970-01-01T01:49:28.000Z</time>
      </trkpt>
      <trkpt lat="42.315028" lon="-8.821903">
        <ele>-3.6</ele>
        <time>1970-01-01T01:49:29.000Z</time>
      </trkpt>
      <trkpt lat="42.315015" lon="-8.821916">
        <ele>-3.6</ele>
        <time>1970-01-01T01:49:30.000Z</time>
      </trkpt>
      <trkpt lat="42.315005" lon="-8.821923">
        <ele>-3.4</ele>
        <time>1970-01-01T01:49:31.000Z</time>
      </trkpt>
      <trkpt lat="42.314995" lon="-8.821936">
        <ele>-3.4</ele>
        <time>1970-01-01T01:49:32.000Z</time>
      </trkpt>
      <trkpt lat="42.314987" lon="-8.821949">
        <ele>-3.6</ele>
        <time>1970-01-01T01:49:33.000Z</time>
      </trkpt>
      <trkpt lat="42.314981" lon="-8.821962">
        <ele>-3.8</ele>
        <time>1970-01-01T01:49:34.000Z</time>
      </trkpt>
      <trkpt lat="42.314974" lon="-8.821975">
        <ele>-3.8</ele>
        <time>1970-01-01T01:49:35.000Z</time>
      </trkpt>
      <trkpt lat="42.314968" lon="-8.821984">
        <ele>-3.8</ele>
        <time>1970-01-01T01:49:36.000Z</time>
      </trkpt>
      <trkpt lat="42.314961" lon="-8.821993">
        <ele>-4</ele>
        <time>1970-01-01T01:49:37.000Z</time>
      </trkpt>
      <trkpt lat="42.314954" lon="-8.821995">
        <ele>-4.2</ele>
        <time>1970-01-01T01:49:38.000Z</time>
      </trkpt>
      <trkpt lat="42.314945" lon="-8.822002">
        <ele>-4.4</ele>
        <time>1970-01-01T01:49:39.000Z</time>
      </trkpt>
      <trkpt lat="42.314935" lon="-8.822008">
        <ele>-4.6</ele>
        <time>1970-01-01T01:49:40.000Z</time>
      </trkpt>
      <trkpt lat="42.314927" lon="-8.82201">
        <ele>-4.8</ele>
        <time>1970-01-01T01:49:41.000Z</time>
      </trkpt>
      <trkpt lat="42.314917" lon="-8.822004">
        <ele>-5.4</ele>
        <time>1970-01-01T01:49:42.000Z</time>
      </trkpt>
      <trkpt lat="42.314903" lon="-8.821994">
        <ele>-5.8</ele>
        <time>1970-01-01T01:49:43.000Z</time>
      </trkpt>
      <trkpt lat="42.314886" lon="-8.821984">
        <ele>-6</ele>
        <time>1970-01-01T01:49:44.000Z</time>
      </trkpt>
      <trkpt lat="42.314868" lon="-8.821977">
        <ele>-6.2</ele>
        <time>1970-01-01T01:49:45.000Z</time>
      </trkpt>
      <trkpt lat="42.314855" lon="-8.821973">
        <ele>-6.4</ele>
        <time>1970-01-01T01:49:46.000Z</time>
      </trkpt>
      <trkpt lat="42.314844" lon="-8.821969">
        <ele>-6.4</ele>
        <time>1970-01-01T01:49:47.000Z</time>
      </trkpt>
      <trkpt lat="42.314837" lon="-8.821964">
        <ele>-6.4</ele>
        <time>1970-01-01T01:49:48.000Z</time>
      </trkpt>
      <trkpt lat="42.314832" lon="-8.821962">
        <ele>-6.4</ele>
        <time>1970-01-01T01:49:49.000Z</time>
      </trkpt>
      <trkpt lat="42.314828" lon="-8.821962">
        <ele>-6.2</ele>
        <time>1970-01-01T01:49:50.000Z</time>
      </trkpt>
      <trkpt lat="42.314821" lon="-8.821961">
        <ele>-6</ele>
        <time>1970-01-01T01:49:51.000Z</time>
      </trkpt>
      <trkpt lat="42.314816" lon="-8.821955">
        <ele>-5.8</ele>
        <time>1970-01-01T01:49:52.000Z</time>
      </trkpt>
      <trkpt lat="42.314806" lon="-8.821951">
        <ele>-5.8</ele>
        <time>1970-01-01T01:49:53.000Z</time>
      </trkpt>
      <trkpt lat="42.314798" lon="-8.821941">
        <ele>-5.8</ele>
        <time>1970-01-01T01:49:54.000Z</time>
      </trkpt>
      <trkpt lat="42.314792" lon="-8.821935">
        <ele>-5.8</ele>
        <time>1970-01-01T01:49:55.000Z</time>
      </trkpt>
      <trkpt lat="42.314788" lon="-8.821932">
        <ele>-5.8</ele>
        <time>1970-01-01T01:49:56.000Z</time>
      </trkpt>
      <trkpt lat="42.314786" lon="-8.821929">
        <ele>-5.8</ele>
        <time>1970-01-01T01:49:57.000Z</time>
      </trkpt>
      <trkpt lat="42.314781" lon="-8.821922">
        <ele>-6</ele>
        <time>1970-01-01T01:49:58.000Z</time>
      </trkpt>
      <trkpt lat="42.31478" lon="-8.821915">
        <ele>-6.2</ele>
        <time>1970-01-01T01:49:59.000Z</time>
      </trkpt>
      <trkpt lat="42.314772" lon="-8.821908">
        <ele>-6.4</ele>
        <time>1970-01-01T01:50:00.000Z</time>
      </trkpt>
      <trkpt lat="42.314759" lon="-8.821894">
        <ele>-6.2</ele>
        <time>1970-01-01T01:50:01.000Z</time>
      </trkpt>
      <trkpt lat="42.314747" lon="-8.821884">
        <ele>-6.2</ele>
        <time>1970-01-01T01:50:02.000Z</time>
      </trkpt>
      <trkpt lat="42.314737" lon="-8.821866">
        <ele>-6.2</ele>
        <time>1970-01-01T01:50:03.000Z</time>
      </trkpt>
      <trkpt lat="42.314729" lon="-8.821848">
        <ele>-6</ele>
        <time>1970-01-01T01:50:04.000Z</time>
      </trkpt>
      <trkpt lat="42.314724" lon="-8.82184">
        <ele>-5.8</ele>
        <time>1970-01-01T01:50:05.000Z</time>
      </trkpt>
      <trkpt lat="42.314719" lon="-8.821826">
        <ele>-5.8</ele>
        <time>1970-01-01T01:50:06.000Z</time>
      </trkpt>
      <trkpt lat="42.31471" lon="-8.821817">
        <ele>-5.6</ele>
        <time>1970-01-01T01:50:07.000Z</time>
      </trkpt>
      <trkpt lat="42.314702" lon="-8.821804">
        <ele>-5.4</ele>
        <time>1970-01-01T01:50:08.000Z</time>
      </trkpt>
      <trkpt lat="42.314695" lon="-8.821795">
        <ele>-5.4</ele>
        <time>1970-01-01T01:50:09.000Z</time>
      </trkpt>
      <trkpt lat="42.314691" lon="-8.82179">
        <ele>-5.4</ele>
        <time>1970-01-01T01:50:10.000Z</time>
      </trkpt>
      <trkpt lat="42.314691" lon="-8.82178">
        <ele>-5.4</ele>
        <time>1970-01-01T01:50:11.000Z</time>
      </trkpt>
      <trkpt lat="42.314693" lon="-8.821771">
        <ele>-5.6</ele>
        <time>1970-01-01T01:50:12.000Z</time>
      </trkpt>
      <trkpt lat="42.314698" lon="-8.821762">
        <ele>-5.6</ele>
        <time>1970-01-01T01:50:13.000Z</time>
      </trkpt>
      <trkpt lat="42.314705" lon="-8.821746">
        <ele>-5.8</ele>
        <time>1970-01-01T01:50:14.000Z</time>
      </trkpt>
      <trkpt lat="42.314714" lon="-8.821731">
        <ele>-5.8</ele>
        <time>1970-01-01T01:50:15.000Z</time>
      </trkpt>
      <trkpt lat="42.314723" lon="-8.821715">
        <ele>-5.8</ele>
        <time>1970-01-01T01:50:16.000Z</time>
      </trkpt>
      <trkpt lat="42.314727" lon="-8.8217">
        <ele>-5.8</ele>
        <time>1970-01-01T01:50:17.000Z</time>
      </trkpt>
      <trkpt lat="42.314733" lon="-8.821685">
        <ele>-5.8</ele>
        <time>1970-01-01T01:50:18.000Z</time>
      </trkpt>
      <trkpt lat="42.314737" lon="-8.821666">
        <ele>-5.8</ele>
        <time>1970-01-01T01:50:19.000Z</time>
      </trkpt>
      <trkpt lat="42.314741" lon="-8.821648">
        <ele>-6.2</ele>
        <time>1970-01-01T01:50:20.000Z</time>
      </trkpt>
      <trkpt lat="42.314747" lon="-8.821633">
        <ele>-6.2</ele>
        <time>1970-01-01T01:50:21.000Z</time>
      </trkpt>
      <trkpt lat="42.31475" lon="-8.821617">
        <ele>-6.4</ele>
        <time>1970-01-01T01:50:22.000Z</time>
      </trkpt>
      <trkpt lat="42.314754" lon="-8.821603">
        <ele>-6.6</ele>
        <time>1970-01-01T01:50:23.000Z</time>
      </trkpt>
      <trkpt lat="42.314756" lon="-8.821592">
        <ele>-7</ele>
        <time>1970-01-01T01:50:24.000Z</time>
      </trkpt>
      <trkpt lat="42.314759" lon="-8.821584">
        <ele>-7.4</ele>
        <time>1970-01-01T01:50:25.000Z</time>
      </trkpt>
      <trkpt lat="42.314762" lon="-8.821577">
        <ele>-7.4</ele>
        <time>1970-01-01T01:50:26.000Z</time>
      </trkpt>
      <trkpt lat="42.314765" lon="-8.821568">
        <ele>-7.6</ele>
        <time>1970-01-01T01:50:27.000Z</time>
      </trkpt>
      <trkpt lat="42.314764" lon="-8.821558">
        <ele>-7.8</ele>
        <time>1970-01-01T01:50:28.000Z</time>
      </trkpt>
      <trkpt lat="42.314763" lon="-8.821546">
        <ele>-8</ele>
        <time>1970-01-01T01:50:29.000Z</time>
      </trkpt>
      <trkpt lat="42.314764" lon="-8.821529">
        <ele>-8</ele>
        <time>1970-01-01T01:50:30.000Z</time>
      </trkpt>
      <trkpt lat="42.314767" lon="-8.821513">
        <ele>-8.2</ele>
        <time>1970-01-01T01:50:31.000Z</time>
      </trkpt>
      <trkpt lat="42.31477" lon="-8.821496">
        <ele>-8.6</ele>
        <time>1970-01-01T01:50:32.000Z</time>
      </trkpt>
      <trkpt lat="42.314773" lon="-8.821477">
        <ele>-8.8</ele>
        <time>1970-01-01T01:50:33.000Z</time>
      </trkpt>
      <trkpt lat="42.314777" lon="-8.821465">
        <ele>-8.8</ele>
        <time>1970-01-01T01:50:34.000Z</time>
      </trkpt>
      <trkpt lat="42.314778" lon="-8.821455">
        <ele>-9.2</ele>
        <time>1970-01-01T01:50:35.000Z</time>
      </trkpt>
      <trkpt lat="42.314785" lon="-8.821449">
        <ele>-9.4</ele>
        <time>1970-01-01T01:50:36.000Z</time>
      </trkpt>
      <trkpt lat="42.314793" lon="-8.821443">
        <ele>-9.6</ele>
        <time>1970-01-01T01:50:37.000Z</time>
      </trkpt>
      <trkpt lat="42.314795" lon="-8.821433">
        <ele>-9.2</ele>
        <time>1970-01-01T01:50:38.000Z</time>
      </trkpt>
      <trkpt lat="42.314795" lon="-8.821421">
        <ele>-8.8</ele>
        <time>1970-01-01T01:50:39.000Z</time>
      </trkpt>
      <trkpt lat="42.314793" lon="-8.82141">
        <ele>-9</ele>
        <time>1970-01-01T01:50:40.000Z</time>
      </trkpt>
      <trkpt lat="42.314793" lon="-8.821399">
        <ele>-9.2</ele>
        <time>1970-01-01T01:50:41.000Z</time>
      </trkpt>
      <trkpt lat="42.314793" lon="-8.821388">
        <ele>-9.4</ele>
        <time>1970-01-01T01:50:42.000Z</time>
      </trkpt>
      <trkpt lat="42.314794" lon="-8.821377">
        <ele>-9.4</ele>
        <time>1970-01-01T01:50:43.000Z</time>
      </trkpt>
      <trkpt lat="42.314799" lon="-8.821366">
        <ele>-9.6</ele>
        <time>1970-01-01T01:50:44.000Z</time>
      </trkpt>
      <trkpt lat="42.314803" lon="-8.821354">
        <ele>-9.6</ele>
        <time>1970-01-01T01:50:45.000Z</time>
      </trkpt>
      <trkpt lat="42.314805" lon="-8.821342">
        <ele>-9.6</ele>
        <time>1970-01-01T01:50:46.000Z</time>
      </trkpt>
      <trkpt lat="42.314806" lon="-8.821326">
        <ele>-9.6</ele>
        <time>1970-01-01T01:50:47.000Z</time>
      </trkpt>
      <trkpt lat="42.314808" lon="-8.821309">
        <ele>-9.4</ele>
        <time>1970-01-01T01:50:48.000Z</time>
      </trkpt>
      <trkpt lat="42.314806" lon="-8.821295">
        <ele>-9.4</ele>
        <time>1970-01-01T01:50:49.000Z</time>
      </trkpt>
      <trkpt lat="42.314805" lon="-8.821286">
        <ele>-9.4</ele>
        <time>1970-01-01T01:50:50.000Z</time>
      </trkpt>
      <trkpt lat="42.314802" lon="-8.821271">
        <ele>-9.4</ele>
        <time>1970-01-01T01:50:51.000Z</time>
      </trkpt>
      <trkpt lat="42.314804" lon="-8.821251">
        <ele>-9.4</ele>
        <time>1970-01-01T01:50:52.000Z</time>
      </trkpt>
      <trkpt lat="42.314806" lon="-8.821228">
        <ele>-9.4</ele>
        <time>1970-01-01T01:50:53.000Z</time>
      </trkpt>
      <trkpt lat="42.314806" lon="-8.821207">
        <ele>-9.8</ele>
        <time>1970-01-01T01:50:54.000Z</time>
      </trkpt>
      <trkpt lat="42.314807" lon="-8.821193">
        <ele>-9.8</ele>
        <time>1970-01-01T01:50:55.000Z</time>
      </trkpt>
      <trkpt lat="42.314805" lon="-8.821178">
        <ele>-9.6</ele>
        <time>1970-01-01T01:50:56.000Z</time>
      </trkpt>
      <trkpt lat="42.314799" lon="-8.821164">
        <ele>-9.6</ele>
        <time>1970-01-01T01:50:57.000Z</time>
      </trkpt>
      <trkpt lat="42.314793" lon="-8.821144">
        <ele>-9.8</ele>
        <time>1970-01-01T01:50:58.000Z</time>
      </trkpt>
      <trkpt lat="42.314786" lon="-8.821124">
        <ele>-10</ele>
        <time>1970-01-01T01:50:59.000Z</time>
      </trkpt>
      <trkpt lat="42.31478" lon="-8.82111">
        <ele>-10</ele>
        <time>1970-01-01T01:51:00.000Z</time>
      </trkpt>
      <trkpt lat="42.314774" lon="-8.821095">
        <ele>-9.8</ele>
        <time>1970-01-01T01:51:01.000Z</time>
      </trkpt>
      <trkpt lat="42.314766" lon="-8.821077">
        <ele>-9.6</ele>
        <time>1970-01-01T01:51:02.000Z</time>
      </trkpt>
      <trkpt lat="42.314756" lon="-8.821057">
        <ele>-9.6</ele>
        <time>1970-01-01T01:51:03.000Z</time>
      </trkpt>
      <trkpt lat="42.314742" lon="-8.821041">
        <ele>-9.4</ele>
        <time>1970-01-01T01:51:04.000Z</time>
      </trkpt>
      <trkpt lat="42.314732" lon="-8.821024">
        <ele>-9.4</ele>
        <time>1970-01-01T01:51:05.000Z</time>
      </trkpt>
      <trkpt lat="42.314723" lon="-8.821006">
        <ele>-9.6</ele>
        <time>1970-01-01T01:51:06.000Z</time>
      </trkpt>
      <trkpt lat="42.314715" lon="-8.820992">
        <ele>-9.6</ele>
        <time>1970-01-01T01:51:07.000Z</time>
      </trkpt>
      <trkpt lat="42.314707" lon="-8.820979">
        <ele>-9.6</ele>
        <time>1970-01-01T01:51:08.000Z</time>
      </trkpt>
      <trkpt lat="42.3147" lon="-8.820964">
        <ele>-9.6</ele>
        <time>1970-01-01T01:51:09.000Z</time>
      </trkpt>
      <trkpt lat="42.314694" lon="-8.820946">
        <ele>-9.8</ele>
        <time>1970-01-01T01:51:10.000Z</time>
      </trkpt>
      <trkpt lat="42.314688" lon="-8.820931">
        <ele>-9.8</ele>
        <time>1970-01-01T01:51:11.000Z</time>
      </trkpt>
      <trkpt lat="42.314683" lon="-8.820913">
        <ele>-9.8</ele>
        <time>1970-01-01T01:51:12.000Z</time>
      </trkpt>
      <trkpt lat="42.314679" lon="-8.820895">
        <ele>-9.8</ele>
        <time>1970-01-01T01:51:13.000Z</time>
      </trkpt>
      <trkpt lat="42.314676" lon="-8.82088">
        <ele>-9.8</ele>
        <time>1970-01-01T01:51:14.000Z</time>
      </trkpt>
      <trkpt lat="42.314672" lon="-8.820868">
        <ele>-9.8</ele>
        <time>1970-01-01T01:51:15.000Z</time>
      </trkpt>
      <trkpt lat="42.314668" lon="-8.820855">
        <ele>-9.8</ele>
        <time>1970-01-01T01:51:16.000Z</time>
      </trkpt>
      <trkpt lat="42.314664" lon="-8.820843">
        <ele>-9.8</ele>
        <time>1970-01-01T01:51:17.000Z</time>
      </trkpt>
      <trkpt lat="42.314657" lon="-8.820834">
        <ele>-9.8</ele>
        <time>1970-01-01T01:51:18.000Z</time>
      </trkpt>
      <trkpt lat="42.314652" lon="-8.820827">
        <ele>-9.8</ele>
        <time>1970-01-01T01:51:19.000Z</time>
      </trkpt>
      <trkpt lat="42.314652" lon="-8.820821">
        <ele>-9.6</ele>
        <time>1970-01-01T01:51:20.000Z</time>
      </trkpt>
      <trkpt lat="42.314653" lon="-8.820811">
        <ele>-9.6</ele>
        <time>1970-01-01T01:51:21.000Z</time>
      </trkpt>
      <trkpt lat="42.314656" lon="-8.820804">
        <ele>-9.8</ele>
        <time>1970-01-01T01:51:22.000Z</time>
      </trkpt>
      <trkpt lat="42.31466" lon="-8.8208">
        <ele>-9.6</ele>
        <time>1970-01-01T01:51:23.000Z</time>
      </trkpt>
      <trkpt lat="42.314663" lon="-8.820798">
        <ele>-9.4</ele>
        <time>1970-01-01T01:51:24.000Z</time>
      </trkpt>
      <trkpt lat="42.314664" lon="-8.8208">
        <ele>-9.2</ele>
        <time>1970-01-01T01:51:25.000Z</time>
      </trkpt>
      <trkpt lat="42.314668" lon="-8.820805">
        <ele>-9</ele>
        <time>1970-01-01T01:51:26.000Z</time>
      </trkpt>
      <trkpt lat="42.314673" lon="-8.820809">
        <ele>-9</ele>
        <time>1970-01-01T01:51:27.000Z</time>
      </trkpt>
      <trkpt lat="42.314677" lon="-8.820811">
        <ele>-8.8</ele>
        <time>1970-01-01T01:51:28.000Z</time>
      </trkpt>
      <trkpt lat="42.314682" lon="-8.820813">
        <ele>-8.6</ele>
        <time>1970-01-01T01:51:29.000Z</time>
      </trkpt>
      <trkpt lat="42.314689" lon="-8.820806">
        <ele>-8.6</ele>
        <time>1970-01-01T01:51:30.000Z</time>
      </trkpt>
      <trkpt lat="42.314696" lon="-8.820794">
        <ele>-8.6</ele>
        <time>1970-01-01T01:51:31.000Z</time>
      </trkpt>
      <trkpt lat="42.314702" lon="-8.820778">
        <ele>-8.4</ele>
        <time>1970-01-01T01:51:32.000Z</time>
      </trkpt>
      <trkpt lat="42.314707" lon="-8.820762">
        <ele>-8.2</ele>
        <time>1970-01-01T01:51:33.000Z</time>
      </trkpt>
      <trkpt lat="42.314709" lon="-8.820745">
        <ele>-7.6</ele>
        <time>1970-01-01T01:51:34.000Z</time>
      </trkpt>
      <trkpt lat="42.31471" lon="-8.820734">
        <ele>-7.4</ele>
        <time>1970-01-01T01:51:35.000Z</time>
      </trkpt>
      <trkpt lat="42.314709" lon="-8.820727">
        <ele>-7.2</ele>
        <time>1970-01-01T01:51:36.000Z</time>
      </trkpt>
      <trkpt lat="42.31471" lon="-8.820713">
        <ele>-7.2</ele>
        <time>1970-01-01T01:51:37.000Z</time>
      </trkpt>
      <trkpt lat="42.314712" lon="-8.820695">
        <ele>-7.2</ele>
        <time>1970-01-01T01:51:38.000Z</time>
      </trkpt>
      <trkpt lat="42.314717" lon="-8.820686">
        <ele>-7</ele>
        <time>1970-01-01T01:51:39.000Z</time>
      </trkpt>
      <trkpt lat="42.314724" lon="-8.820682">
        <ele>-7</ele>
        <time>1970-01-01T01:51:40.000Z</time>
      </trkpt>
      <trkpt lat="42.314729" lon="-8.820673">
        <ele>-7</ele>
        <time>1970-01-01T01:51:41.000Z</time>
      </trkpt>
      <trkpt lat="42.314738" lon="-8.820665">
        <ele>-6.8</ele>
        <time>1970-01-01T01:51:42.000Z</time>
      </trkpt>
      <trkpt lat="42.314749" lon="-8.820657">
        <ele>-6.8</ele>
        <time>1970-01-01T01:51:43.000Z</time>
      </trkpt>
      <trkpt lat="42.314758" lon="-8.820648">
        <ele>-6.8</ele>
        <time>1970-01-01T01:51:44.000Z</time>
      </trkpt>
      <trkpt lat="42.314767" lon="-8.82064">
        <ele>-6.8</ele>
        <time>1970-01-01T01:51:45.000Z</time>
      </trkpt>
      <trkpt lat="42.314778" lon="-8.820638">
        <ele>-6.8</ele>
        <time>1970-01-01T01:51:46.000Z</time>
      </trkpt>
      <trkpt lat="42.314787" lon="-8.820641">
        <ele>-6.8</ele>
        <time>1970-01-01T01:51:47.000Z</time>
      </trkpt>
      <trkpt lat="42.314795" lon="-8.820645">
        <ele>-6.8</ele>
        <time>1970-01-01T01:51:48.000Z</time>
      </trkpt>
      <trkpt lat="42.314801" lon="-8.820647">
        <ele>-6.8</ele>
        <time>1970-01-01T01:51:49.000Z</time>
      </trkpt>
      <trkpt lat="42.314804" lon="-8.820648">
        <ele>-6.4</ele>
        <time>1970-01-01T01:51:50.000Z</time>
      </trkpt>
      <trkpt lat="42.314801" lon="-8.820647">
        <ele>-6.6</ele>
        <time>1970-01-01T01:51:51.000Z</time>
      </trkpt>
      <trkpt lat="42.314794" lon="-8.820646">
        <ele>-6.8</ele>
        <time>1970-01-01T01:51:52.000Z</time>
      </trkpt>
      <trkpt lat="42.31479" lon="-8.820644">
        <ele>-6.8</ele>
        <time>1970-01-01T01:51:53.000Z</time>
      </trkpt>
      <trkpt lat="42.314792" lon="-8.820645">
        <ele>-7</ele>
        <time>1970-01-01T01:51:54.000Z</time>
      </trkpt>
      <trkpt lat="42.314797" lon="-8.820644">
        <ele>-7</ele>
        <time>1970-01-01T01:51:55.000Z</time>
      </trkpt>
      <trkpt lat="42.314807" lon="-8.820635">
        <ele>-7</ele>
        <time>1970-01-01T01:51:56.000Z</time>
      </trkpt>
      <trkpt lat="42.314814" lon="-8.820618">
        <ele>-7</ele>
        <time>1970-01-01T01:51:57.000Z</time>
      </trkpt>
      <trkpt lat="42.314821" lon="-8.820604">
        <ele>-7</ele>
        <time>1970-01-01T01:51:58.000Z</time>
      </trkpt>
      <trkpt lat="42.314828" lon="-8.820592">
        <ele>-7</ele>
        <time>1970-01-01T01:51:59.000Z</time>
      </trkpt>
      <trkpt lat="42.314833" lon="-8.820583">
        <ele>-7</ele>
        <time>1970-01-01T01:52:00.000Z</time>
      </trkpt>
      <trkpt lat="42.31484" lon="-8.82057">
        <ele>-7.2</ele>
        <time>1970-01-01T01:52:01.000Z</time>
      </trkpt>
      <trkpt lat="42.314849" lon="-8.820554">
        <ele>-7.2</ele>
        <time>1970-01-01T01:52:02.000Z</time>
      </trkpt>
      <trkpt lat="42.314855" lon="-8.820547">
        <ele>-7.6</ele>
        <time>1970-01-01T01:52:03.000Z</time>
      </trkpt>
      <trkpt lat="42.314859" lon="-8.820539">
        <ele>-8</ele>
        <time>1970-01-01T01:52:04.000Z</time>
      </trkpt>
      <trkpt lat="42.314864" lon="-8.820524">
        <ele>-8.6</ele>
        <time>1970-01-01T01:52:05.000Z</time>
      </trkpt>
      <trkpt lat="42.314871" lon="-8.820511">
        <ele>-9</ele>
        <time>1970-01-01T01:52:06.000Z</time>
      </trkpt>
      <trkpt lat="42.314881" lon="-8.820504">
        <ele>-9.2</ele>
        <time>1970-01-01T01:52:07.000Z</time>
      </trkpt>
      <trkpt lat="42.314886" lon="-8.820497">
        <ele>-9.2</ele>
        <time>1970-01-01T01:52:08.000Z</time>
      </trkpt>
      <trkpt lat="42.314887" lon="-8.82049">
        <ele>-9.2</ele>
        <time>1970-01-01T01:52:09.000Z</time>
      </trkpt>
      <trkpt lat="42.31489" lon="-8.820484">
        <ele>-9.4</ele>
        <time>1970-01-01T01:52:10.000Z</time>
      </trkpt>
      <trkpt lat="42.314893" lon="-8.820481">
        <ele>-9.4</ele>
        <time>1970-01-01T01:52:11.000Z</time>
      </trkpt>
      <trkpt lat="42.314896" lon="-8.820478">
        <ele>-9.4</ele>
        <time>1970-01-01T01:52:12.000Z</time>
      </trkpt>
      <trkpt lat="42.314901" lon="-8.820475">
        <ele>-9.4</ele>
        <time>1970-01-01T01:52:13.000Z</time>
      </trkpt>
      <trkpt lat="42.314907" lon="-8.820468">
        <ele>-9.4</ele>
        <time>1970-01-01T01:52:14.000Z</time>
      </trkpt>
      <trkpt lat="42.31491" lon="-8.820455">
        <ele>-9.4</ele>
        <time>1970-01-01T01:52:15.000Z</time>
      </trkpt>
      <trkpt lat="42.314914" lon="-8.820438">
        <ele>-9.4</ele>
        <time>1970-01-01T01:52:16.000Z</time>
      </trkpt>
      <trkpt lat="42.31492" lon="-8.820423">
        <ele>-9.4</ele>
        <time>1970-01-01T01:52:17.000Z</time>
      </trkpt>
      <trkpt lat="42.314928" lon="-8.820407">
        <ele>-9.2</ele>
        <time>1970-01-01T01:52:18.000Z</time>
      </trkpt>
      <trkpt lat="42.314934" lon="-8.820393">
        <ele>-9.2</ele>
        <time>1970-01-01T01:52:19.000Z</time>
      </trkpt>
      <trkpt lat="42.314936" lon="-8.820381">
        <ele>-9</ele>
        <time>1970-01-01T01:52:20.000Z</time>
      </trkpt>
      <trkpt lat="42.314936" lon="-8.820378">
        <ele>-9.2</ele>
        <time>1970-01-01T01:52:21.000Z</time>
      </trkpt>
      <trkpt lat="42.314935" lon="-8.820372">
        <ele>-9.2</ele>
        <time>1970-01-01T01:52:22.000Z</time>
      </trkpt>
      <trkpt lat="42.314937" lon="-8.82036">
        <ele>-9</ele>
        <time>1970-01-01T01:52:23.000Z</time>
      </trkpt>
      <trkpt lat="42.314942" lon="-8.820348">
        <ele>-9</ele>
        <time>1970-01-01T01:52:24.000Z</time>
      </trkpt>
      <trkpt lat="42.314947" lon="-8.82034">
        <ele>-9</ele>
        <time>1970-01-01T01:52:25.000Z</time>
      </trkpt>
      <trkpt lat="42.314953" lon="-8.820335">
        <ele>-9</ele>
        <time>1970-01-01T01:52:26.000Z</time>
      </trkpt>
      <trkpt lat="42.314959" lon="-8.82033">
        <ele>-8.8</ele>
        <time>1970-01-01T01:52:27.000Z</time>
      </trkpt>
      <trkpt lat="42.314965" lon="-8.820319">
        <ele>-8.8</ele>
        <time>1970-01-01T01:52:28.000Z</time>
      </trkpt>
      <trkpt lat="42.31497" lon="-8.820301">
        <ele>-8.8</ele>
        <time>1970-01-01T01:52:29.000Z</time>
      </trkpt>
      <trkpt lat="42.314974" lon="-8.820294">
        <ele>-8.8</ele>
        <time>1970-01-01T01:52:30.000Z</time>
      </trkpt>
      <trkpt lat="42.314977" lon="-8.820299">
        <ele>-8.8</ele>
        <time>1970-01-01T01:52:31.000Z</time>
      </trkpt>
      <trkpt lat="42.314979" lon="-8.820302">
        <ele>-8.8</ele>
        <time>1970-01-01T01:52:32.000Z</time>
      </trkpt>
      <trkpt lat="42.314982" lon="-8.820299">
        <ele>-8.8</ele>
        <time>1970-01-01T01:52:33.000Z</time>
      </trkpt>
      <trkpt lat="42.314984" lon="-8.820293">
        <ele>-8.8</ele>
        <time>1970-01-01T01:52:34.000Z</time>
      </trkpt>
      <trkpt lat="42.314985" lon="-8.820281">
        <ele>-8.6</ele>
        <time>1970-01-01T01:52:35.000Z</time>
      </trkpt>
      <trkpt lat="42.314986" lon="-8.820264">
        <ele>-8.6</ele>
        <time>1970-01-01T01:52:36.000Z</time>
      </trkpt>
      <trkpt lat="42.314987" lon="-8.820247">
        <ele>-8.4</ele>
        <time>1970-01-01T01:52:37.000Z</time>
      </trkpt>
      <trkpt lat="42.31499" lon="-8.820231">
        <ele>-8.2</ele>
        <time>1970-01-01T01:52:38.000Z</time>
      </trkpt>
      <trkpt lat="42.314993" lon="-8.820211">
        <ele>-8.2</ele>
        <time>1970-01-01T01:52:39.000Z</time>
      </trkpt>
      <trkpt lat="42.314994" lon="-8.820192">
        <ele>-8.2</ele>
        <time>1970-01-01T01:52:40.000Z</time>
      </trkpt>
      <trkpt lat="42.314996" lon="-8.820184">
        <ele>-8.2</ele>
        <time>1970-01-01T01:52:41.000Z</time>
      </trkpt>
      <trkpt lat="42.315" lon="-8.820176">
        <ele>-8</ele>
        <time>1970-01-01T01:52:42.000Z</time>
      </trkpt>
      <trkpt lat="42.315004" lon="-8.820167">
        <ele>-8</ele>
        <time>1970-01-01T01:52:43.000Z</time>
      </trkpt>
      <trkpt lat="42.315011" lon="-8.820153">
        <ele>-7.8</ele>
        <time>1970-01-01T01:52:44.000Z</time>
      </trkpt>
      <trkpt lat="42.315016" lon="-8.820137">
        <ele>-7.8</ele>
        <time>1970-01-01T01:52:45.000Z</time>
      </trkpt>
      <trkpt lat="42.315023" lon="-8.820131">
        <ele>-7.8</ele>
        <time>1970-01-01T01:52:46.000Z</time>
      </trkpt>
      <trkpt lat="42.315031" lon="-8.820124">
        <ele>-7.8</ele>
        <time>1970-01-01T01:52:47.000Z</time>
      </trkpt>
      <trkpt lat="42.315039" lon="-8.820109">
        <ele>-7.6</ele>
        <time>1970-01-01T01:52:48.000Z</time>
      </trkpt>
      <trkpt lat="42.315043" lon="-8.820089">
        <ele>-7.4</ele>
        <time>1970-01-01T01:52:49.000Z</time>
      </trkpt>
      <trkpt lat="42.315044" lon="-8.820067">
        <ele>-7.2</ele>
        <time>1970-01-01T01:52:50.000Z</time>
      </trkpt>
      <trkpt lat="42.315043" lon="-8.82004">
        <ele>-7</ele>
        <time>1970-01-01T01:52:51.000Z</time>
      </trkpt>
      <trkpt lat="42.315044" lon="-8.820025">
        <ele>-6.8</ele>
        <time>1970-01-01T01:52:52.000Z</time>
      </trkpt>
      <trkpt lat="42.315046" lon="-8.820015">
        <ele>-6.8</ele>
        <time>1970-01-01T01:52:53.000Z</time>
      </trkpt>
      <trkpt lat="42.315047" lon="-8.820009">
        <ele>-6.4</ele>
        <time>1970-01-01T01:52:54.000Z</time>
      </trkpt>
      <trkpt lat="42.315051" lon="-8.82">
        <ele>-6.2</ele>
        <time>1970-01-01T01:52:55.000Z</time>
      </trkpt>
      <trkpt lat="42.315056" lon="-8.819983">
        <ele>-6</ele>
        <time>1970-01-01T01:52:56.000Z</time>
      </trkpt>
      <trkpt lat="42.315057" lon="-8.819964">
        <ele>-5.8</ele>
        <time>1970-01-01T01:52:57.000Z</time>
      </trkpt>
      <trkpt lat="42.315055" lon="-8.819957">
        <ele>-5.8</ele>
        <time>1970-01-01T01:52:58.000Z</time>
      </trkpt>
      <trkpt lat="42.315055" lon="-8.819946">
        <ele>-5.6</ele>
        <time>1970-01-01T01:52:59.000Z</time>
      </trkpt>
      <trkpt lat="42.315057" lon="-8.819932">
        <ele>-5.6</ele>
        <time>1970-01-01T01:53:00.000Z</time>
      </trkpt>
      <trkpt lat="42.31506" lon="-8.819915">
        <ele>-5.6</ele>
        <time>1970-01-01T01:53:01.000Z</time>
      </trkpt>
      <trkpt lat="42.315062" lon="-8.819902">
        <ele>-5.6</ele>
        <time>1970-01-01T01:53:02.000Z</time>
      </trkpt>
      <trkpt lat="42.315064" lon="-8.819893">
        <ele>-5.6</ele>
        <time>1970-01-01T01:53:03.000Z</time>
      </trkpt>
      <trkpt lat="42.315067" lon="-8.819882">
        <ele>-5.6</ele>
        <time>1970-01-01T01:53:04.000Z</time>
      </trkpt>
      <trkpt lat="42.315071" lon="-8.819869">
        <ele>-5.6</ele>
        <time>1970-01-01T01:53:05.000Z</time>
      </trkpt>
      <trkpt lat="42.315076" lon="-8.819854">
        <ele>-5.8</ele>
        <time>1970-01-01T01:53:06.000Z</time>
      </trkpt>
      <trkpt lat="42.315079" lon="-8.819834">
        <ele>-5.8</ele>
        <time>1970-01-01T01:53:07.000Z</time>
      </trkpt>
      <trkpt lat="42.315082" lon="-8.819818">
        <ele>-5.8</ele>
        <time>1970-01-01T01:53:08.000Z</time>
      </trkpt>
      <trkpt lat="42.315088" lon="-8.819803">
        <ele>-5.8</ele>
        <time>1970-01-01T01:53:09.000Z</time>
      </trkpt>
      <trkpt lat="42.315089" lon="-8.819789">
        <ele>-5.8</ele>
        <time>1970-01-01T01:53:10.000Z</time>
      </trkpt>
      <trkpt lat="42.315091" lon="-8.819775">
        <ele>-5.8</ele>
        <time>1970-01-01T01:53:11.000Z</time>
      </trkpt>
      <trkpt lat="42.315093" lon="-8.819758">
        <ele>-5.8</ele>
        <time>1970-01-01T01:53:12.000Z</time>
      </trkpt>
      <trkpt lat="42.315097" lon="-8.819741">
        <ele>-5.6</ele>
        <time>1970-01-01T01:53:13.000Z</time>
      </trkpt>
      <trkpt lat="42.315098" lon="-8.819721">
        <ele>-5.6</ele>
        <time>1970-01-01T01:53:14.000Z</time>
      </trkpt>
      <trkpt lat="42.3151" lon="-8.8197">
        <ele>-5.4</ele>
        <time>1970-01-01T01:53:15.000Z</time>
      </trkpt>
      <trkpt lat="42.315105" lon="-8.819686">
        <ele>-5.2</ele>
        <time>1970-01-01T01:53:16.000Z</time>
      </trkpt>
      <trkpt lat="42.315107" lon="-8.819665">
        <ele>-5.2</ele>
        <time>1970-01-01T01:53:17.000Z</time>
      </trkpt>
      <trkpt lat="42.315109" lon="-8.819648">
        <ele>-5.2</ele>
        <time>1970-01-01T01:53:18.000Z</time>
      </trkpt>
      <trkpt lat="42.31511" lon="-8.819637">
        <ele>-5.2</ele>
        <time>1970-01-01T01:53:19.000Z</time>
      </trkpt>
      <trkpt lat="42.315113" lon="-8.819623">
        <ele>-5.2</ele>
        <time>1970-01-01T01:53:20.000Z</time>
      </trkpt>
      <trkpt lat="42.315119" lon="-8.81961">
        <ele>-5.2</ele>
        <time>1970-01-01T01:53:21.000Z</time>
      </trkpt>
      <trkpt lat="42.315125" lon="-8.819596">
        <ele>-5.4</ele>
        <time>1970-01-01T01:53:22.000Z</time>
      </trkpt>
      <trkpt lat="42.315128" lon="-8.819578">
        <ele>-5.6</ele>
        <time>1970-01-01T01:53:23.000Z</time>
      </trkpt>
      <trkpt lat="42.315129" lon="-8.819563">
        <ele>-5.6</ele>
        <time>1970-01-01T01:53:24.000Z</time>
      </trkpt>
      <trkpt lat="42.315129" lon="-8.81954">
        <ele>-5.8</ele>
        <time>1970-01-01T01:53:25.000Z</time>
      </trkpt>
      <trkpt lat="42.315131" lon="-8.819513">
        <ele>-5.8</ele>
        <time>1970-01-01T01:53:26.000Z</time>
      </trkpt>
      <trkpt lat="42.315132" lon="-8.819498">
        <ele>-5.8</ele>
        <time>1970-01-01T01:53:27.000Z</time>
      </trkpt>
      <trkpt lat="42.315131" lon="-8.81948">
        <ele>-5.8</ele>
        <time>1970-01-01T01:53:28.000Z</time>
      </trkpt>
      <trkpt lat="42.31513" lon="-8.819463">
        <ele>-5.8</ele>
        <time>1970-01-01T01:53:29.000Z</time>
      </trkpt>
      <trkpt lat="42.315125" lon="-8.819447">
        <ele>-6</ele>
        <time>1970-01-01T01:53:30.000Z</time>
      </trkpt>
      <trkpt lat="42.31512" lon="-8.819431">
        <ele>-5.8</ele>
        <time>1970-01-01T01:53:31.000Z</time>
      </trkpt>
      <trkpt lat="42.315115" lon="-8.81941">
        <ele>-6</ele>
        <time>1970-01-01T01:53:32.000Z</time>
      </trkpt>
      <trkpt lat="42.315113" lon="-8.819396">
        <ele>-6.4</ele>
        <time>1970-01-01T01:53:33.000Z</time>
      </trkpt>
      <trkpt lat="42.315113" lon="-8.81938">
        <ele>-6.4</ele>
        <time>1970-01-01T01:53:34.000Z</time>
      </trkpt>
      <trkpt lat="42.315112" lon="-8.819358">
        <ele>-6.6</ele>
        <time>1970-01-01T01:53:35.000Z</time>
      </trkpt>
      <trkpt lat="42.315109" lon="-8.819345">
        <ele>-6.6</ele>
        <time>1970-01-01T01:53:36.000Z</time>
      </trkpt>
      <trkpt lat="42.315106" lon="-8.819344">
        <ele>-6.6</ele>
        <time>1970-01-01T01:53:37.000Z</time>
      </trkpt>
      <trkpt lat="42.315104" lon="-8.819341">
        <ele>-6.6</ele>
        <time>1970-01-01T01:53:38.000Z</time>
      </trkpt>
      <trkpt lat="42.315098" lon="-8.819337">
        <ele>-6.8</ele>
        <time>1970-01-01T01:53:39.000Z</time>
      </trkpt>
      <trkpt lat="42.315096" lon="-8.819329">
        <ele>-6.8</ele>
        <time>1970-01-01T01:53:40.000Z</time>
      </trkpt>
      <trkpt lat="42.315096" lon="-8.819317">
        <ele>-6.8</ele>
        <time>1970-01-01T01:53:41.000Z</time>
      </trkpt>
      <trkpt lat="42.3151" lon="-8.819296">
        <ele>-7</ele>
        <time>1970-01-01T01:53:42.000Z</time>
      </trkpt>
      <trkpt lat="42.315105" lon="-8.81927">
        <ele>-7</ele>
        <time>1970-01-01T01:53:43.000Z</time>
      </trkpt>
      <trkpt lat="42.315109" lon="-8.819239">
        <ele>-7.2</ele>
        <time>1970-01-01T01:53:44.000Z</time>
      </trkpt>
      <trkpt lat="42.315112" lon="-8.819206">
        <ele>-7.2</ele>
        <time>1970-01-01T01:53:45.000Z</time>
      </trkpt>
      <trkpt lat="42.315111" lon="-8.819179">
        <ele>-7.2</ele>
        <time>1970-01-01T01:53:46.000Z</time>
      </trkpt>
      <trkpt lat="42.315109" lon="-8.819158">
        <ele>-7.2</ele>
        <time>1970-01-01T01:53:47.000Z</time>
      </trkpt>
      <trkpt lat="42.315104" lon="-8.819149">
        <ele>-7.4</ele>
        <time>1970-01-01T01:53:48.000Z</time>
      </trkpt>
      <trkpt lat="42.315098" lon="-8.819141">
        <ele>-7.4</ele>
        <time>1970-01-01T01:53:49.000Z</time>
      </trkpt>
      <trkpt lat="42.315091" lon="-8.819137">
        <ele>-7.8</ele>
        <time>1970-01-01T01:53:50.000Z</time>
      </trkpt>
      <trkpt lat="42.315082" lon="-8.819133">
        <ele>-7.8</ele>
        <time>1970-01-01T01:53:51.000Z</time>
      </trkpt>
      <trkpt lat="42.315077" lon="-8.819123">
        <ele>-8</ele>
        <time>1970-01-01T01:53:52.000Z</time>
      </trkpt>
      <trkpt lat="42.315075" lon="-8.819105">
        <ele>-7.8</ele>
        <time>1970-01-01T01:53:53.000Z</time>
      </trkpt>
      <trkpt lat="42.315076" lon="-8.819079">
        <ele>-7.6</ele>
        <time>1970-01-01T01:53:54.000Z</time>
      </trkpt>
      <trkpt lat="42.315076" lon="-8.819049">
        <ele>-7.6</ele>
        <time>1970-01-01T01:53:55.000Z</time>
      </trkpt>
      <trkpt lat="42.315075" lon="-8.819018">
        <ele>-7.6</ele>
        <time>1970-01-01T01:53:56.000Z</time>
      </trkpt>
      <trkpt lat="42.315071" lon="-8.818985">
        <ele>-7.6</ele>
        <time>1970-01-01T01:53:57.000Z</time>
      </trkpt>
      <trkpt lat="42.315068" lon="-8.818954">
        <ele>-7.6</ele>
        <time>1970-01-01T01:53:58.000Z</time>
      </trkpt>
      <trkpt lat="42.315063" lon="-8.818929">
        <ele>-7.8</ele>
        <time>1970-01-01T01:53:59.000Z</time>
      </trkpt>
      <trkpt lat="42.315054" lon="-8.818913">
        <ele>-7.8</ele>
        <time>1970-01-01T01:54:00.000Z</time>
      </trkpt>
      <trkpt lat="42.315044" lon="-8.818911">
        <ele>-7.8</ele>
        <time>1970-01-01T01:54:01.000Z</time>
      </trkpt>
      <trkpt lat="42.315031" lon="-8.81892">
        <ele>-7.6</ele>
        <time>1970-01-01T01:54:02.000Z</time>
      </trkpt>
      <trkpt lat="42.315022" lon="-8.81893">
        <ele>-7.6</ele>
        <time>1970-01-01T01:54:03.000Z</time>
      </trkpt>
      <trkpt lat="42.315011" lon="-8.81894">
        <ele>-7.8</ele>
        <time>1970-01-01T01:54:04.000Z</time>
      </trkpt>
      <trkpt lat="42.315" lon="-8.818944">
        <ele>-7.8</ele>
        <time>1970-01-01T01:54:05.000Z</time>
      </trkpt>
      <trkpt lat="42.31499" lon="-8.818944">
        <ele>-7.8</ele>
        <time>1970-01-01T01:54:06.000Z</time>
      </trkpt>
      <trkpt lat="42.314979" lon="-8.818939">
        <ele>-8</ele>
        <time>1970-01-01T01:54:07.000Z</time>
      </trkpt>
      <trkpt lat="42.314969" lon="-8.818924">
        <ele>-8</ele>
        <time>1970-01-01T01:54:08.000Z</time>
      </trkpt>
      <trkpt lat="42.314963" lon="-8.818914">
        <ele>-8.2</ele>
        <time>1970-01-01T01:54:09.000Z</time>
      </trkpt>
      <trkpt lat="42.314957" lon="-8.818902">
        <ele>-8.2</ele>
        <time>1970-01-01T01:54:10.000Z</time>
      </trkpt>
      <trkpt lat="42.314952" lon="-8.818882">
        <ele>-8.4</ele>
        <time>1970-01-01T01:54:11.000Z</time>
      </trkpt>
      <trkpt lat="42.314941" lon="-8.818866">
        <ele>-8.6</ele>
        <time>1970-01-01T01:54:12.000Z</time>
      </trkpt>
      <trkpt lat="42.31493" lon="-8.818849">
        <ele>-8.6</ele>
        <time>1970-01-01T01:54:13.000Z</time>
      </trkpt>
      <trkpt lat="42.31492" lon="-8.818833">
        <ele>-8.6</ele>
        <time>1970-01-01T01:54:14.000Z</time>
      </trkpt>
      <trkpt lat="42.314909" lon="-8.81882">
        <ele>-8.8</ele>
        <time>1970-01-01T01:54:15.000Z</time>
      </trkpt>
      <trkpt lat="42.314901" lon="-8.818806">
        <ele>-8.8</ele>
        <time>1970-01-01T01:54:16.000Z</time>
      </trkpt>
      <trkpt lat="42.314897" lon="-8.818788">
        <ele>-8.8</ele>
        <time>1970-01-01T01:54:17.000Z</time>
      </trkpt>
      <trkpt lat="42.31489" lon="-8.818768">
        <ele>-8.8</ele>
        <time>1970-01-01T01:54:18.000Z</time>
      </trkpt>
      <trkpt lat="42.314878" lon="-8.818744">
        <ele>-8.8</ele>
        <time>1970-01-01T01:54:19.000Z</time>
      </trkpt>
      <trkpt lat="42.314866" lon="-8.818721">
        <ele>-8.8</ele>
        <time>1970-01-01T01:54:20.000Z</time>
      </trkpt>
      <trkpt lat="42.314856" lon="-8.818698">
        <ele>-8.8</ele>
        <time>1970-01-01T01:54:21.000Z</time>
      </trkpt>
      <trkpt lat="42.31485" lon="-8.818681">
        <ele>-8.8</ele>
        <time>1970-01-01T01:54:22.000Z</time>
      </trkpt>
      <trkpt lat="42.314843" lon="-8.818667">
        <ele>-8.4</ele>
        <time>1970-01-01T01:54:23.000Z</time>
      </trkpt>
      <trkpt lat="42.314835" lon="-8.818653">
        <ele>-8.4</ele>
        <time>1970-01-01T01:54:24.000Z</time>
      </trkpt>
      <trkpt lat="42.314829" lon="-8.81864">
        <ele>-8.2</ele>
        <time>1970-01-01T01:54:25.000Z</time>
      </trkpt>
      <trkpt lat="42.314824" lon="-8.818633">
        <ele>-8.2</ele>
        <time>1970-01-01T01:54:26.000Z</time>
      </trkpt>
      <trkpt lat="42.314819" lon="-8.818621">
        <ele>-8</ele>
        <time>1970-01-01T01:54:27.000Z</time>
      </trkpt>
      <trkpt lat="42.314815" lon="-8.818612">
        <ele>-8</ele>
        <time>1970-01-01T01:54:28.000Z</time>
      </trkpt>
      <trkpt lat="42.314811" lon="-8.818613">
        <ele>-7.8</ele>
        <time>1970-01-01T01:54:29.000Z</time>
      </trkpt>
      <trkpt lat="42.314807" lon="-8.818605">
        <ele>-7.6</ele>
        <time>1970-01-01T01:54:30.000Z</time>
      </trkpt>
      <trkpt lat="42.3148" lon="-8.818598">
        <ele>-7.6</ele>
        <time>1970-01-01T01:54:31.000Z</time>
      </trkpt>
      <trkpt lat="42.314792" lon="-8.818589">
        <ele>-7.6</ele>
        <time>1970-01-01T01:54:32.000Z</time>
      </trkpt>
      <trkpt lat="42.314784" lon="-8.81858">
        <ele>-7.6</ele>
        <time>1970-01-01T01:54:33.000Z</time>
      </trkpt>
      <trkpt lat="42.314775" lon="-8.818567">
        <ele>-7.6</ele>
        <time>1970-01-01T01:54:34.000Z</time>
      </trkpt>
      <trkpt lat="42.314765" lon="-8.818553">
        <ele>-7.4</ele>
        <time>1970-01-01T01:54:35.000Z</time>
      </trkpt>
      <trkpt lat="42.314752" lon="-8.818536">
        <ele>-7.4</ele>
        <time>1970-01-01T01:54:36.000Z</time>
      </trkpt>
      <trkpt lat="42.31474" lon="-8.81852">
        <ele>-7.2</ele>
        <time>1970-01-01T01:54:37.000Z</time>
      </trkpt>
      <trkpt lat="42.314728" lon="-8.818503">
        <ele>-7.2</ele>
        <time>1970-01-01T01:54:38.000Z</time>
      </trkpt>
      <trkpt lat="42.314717" lon="-8.818485">
        <ele>-7.2</ele>
        <time>1970-01-01T01:54:39.000Z</time>
      </trkpt>
      <trkpt lat="42.314708" lon="-8.818468">
        <ele>-7.2</ele>
        <time>1970-01-01T01:54:40.000Z</time>
      </trkpt>
      <trkpt lat="42.314698" lon="-8.818457">
        <ele>-7.2</ele>
        <time>1970-01-01T01:54:41.000Z</time>
      </trkpt>
      <trkpt lat="42.314691" lon="-8.818449">
        <ele>-7.2</ele>
        <time>1970-01-01T01:54:42.000Z</time>
      </trkpt>
      <trkpt lat="42.314684" lon="-8.818451">
        <ele>-7.2</ele>
        <time>1970-01-01T01:54:43.000Z</time>
      </trkpt>
      <trkpt lat="42.314683" lon="-8.818449">
        <ele>-7.2</ele>
        <time>1970-01-01T01:54:44.000Z</time>
      </trkpt>
      <trkpt lat="42.314687" lon="-8.818453">
        <ele>-7</ele>
        <time>1970-01-01T01:54:45.000Z</time>
      </trkpt>
      <trkpt lat="42.314687" lon="-8.818462">
        <ele>-7</ele>
        <time>1970-01-01T01:54:46.000Z</time>
      </trkpt>
      <trkpt lat="42.314689" lon="-8.818468">
        <ele>-7</ele>
        <time>1970-01-01T01:54:47.000Z</time>
      </trkpt>
      <trkpt lat="42.314687" lon="-8.818468">
        <ele>-7</ele>
        <time>1970-01-01T01:54:48.000Z</time>
      </trkpt>
      <trkpt lat="42.314682" lon="-8.818455">
        <ele>-7</ele>
        <time>1970-01-01T01:54:49.000Z</time>
      </trkpt>
      <trkpt lat="42.314679" lon="-8.81843">
        <ele>-7</ele>
        <time>1970-01-01T01:54:50.000Z</time>
      </trkpt>
      <trkpt lat="42.314677" lon="-8.818417">
        <ele>-6.8</ele>
        <time>1970-01-01T01:54:51.000Z</time>
      </trkpt>
      <trkpt lat="42.314675" lon="-8.818403">
        <ele>-6.8</ele>
        <time>1970-01-01T01:54:52.000Z</time>
      </trkpt>
      <trkpt lat="42.31467" lon="-8.81839">
        <ele>-6.6</ele>
        <time>1970-01-01T01:54:53.000Z</time>
      </trkpt>
      <trkpt lat="42.314665" lon="-8.818368">
        <ele>-6.2</ele>
        <time>1970-01-01T01:54:54.000Z</time>
      </trkpt>
      <trkpt lat="42.314657" lon="-8.818345">
        <ele>-6</ele>
        <time>1970-01-01T01:54:55.000Z</time>
      </trkpt>
      <trkpt lat="42.314654" lon="-8.81832">
        <ele>-6</ele>
        <time>1970-01-01T01:54:56.000Z</time>
      </trkpt>
      <trkpt lat="42.314645" lon="-8.81829">
        <ele>-6</ele>
        <time>1970-01-01T01:54:57.000Z</time>
      </trkpt>
      <trkpt lat="42.314639" lon="-8.818263">
        <ele>-6</ele>
        <time>1970-01-01T01:54:58.000Z</time>
      </trkpt>
      <trkpt lat="42.31463" lon="-8.818245">
        <ele>-6</ele>
        <time>1970-01-01T01:54:59.000Z</time>
      </trkpt>
      <trkpt lat="42.314622" lon="-8.818235">
        <ele>-6</ele>
        <time>1970-01-01T01:55:00.000Z</time>
      </trkpt>
      <trkpt lat="42.314615" lon="-8.818233">
        <ele>-6.2</ele>
        <time>1970-01-01T01:55:01.000Z</time>
      </trkpt>
      <trkpt lat="42.314607" lon="-8.818232">
        <ele>-6.2</ele>
        <time>1970-01-01T01:55:02.000Z</time>
      </trkpt>
      <trkpt lat="42.314596" lon="-8.818224">
        <ele>-6.6</ele>
        <time>1970-01-01T01:55:03.000Z</time>
      </trkpt>
      <trkpt lat="42.314585" lon="-8.818223">
        <ele>-6.6</ele>
        <time>1970-01-01T01:55:04.000Z</time>
      </trkpt>
      <trkpt lat="42.314572" lon="-8.818223">
        <ele>-6.6</ele>
        <time>1970-01-01T01:55:05.000Z</time>
      </trkpt>
      <trkpt lat="42.314561" lon="-8.81822">
        <ele>-6.8</ele>
        <time>1970-01-01T01:55:06.000Z</time>
      </trkpt>
      <trkpt lat="42.314553" lon="-8.818217">
        <ele>-6.8</ele>
        <time>1970-01-01T01:55:07.000Z</time>
      </trkpt>
      <trkpt lat="42.314547" lon="-8.818221">
        <ele>-6.8</ele>
        <time>1970-01-01T01:55:08.000Z</time>
      </trkpt>
      <trkpt lat="42.31454" lon="-8.818226">
        <ele>-6.6</ele>
        <time>1970-01-01T01:55:09.000Z</time>
      </trkpt>
      <trkpt lat="42.314534" lon="-8.818225">
        <ele>-6.6</ele>
        <time>1970-01-01T01:55:10.000Z</time>
      </trkpt>
      <trkpt lat="42.314526" lon="-8.818213">
        <ele>-6.6</ele>
        <time>1970-01-01T01:55:11.000Z</time>
      </trkpt>
      <trkpt lat="42.314522" lon="-8.818193">
        <ele>-6.4</ele>
        <time>1970-01-01T01:55:12.000Z</time>
      </trkpt>
      <trkpt lat="42.314518" lon="-8.818176">
        <ele>-6.2</ele>
        <time>1970-01-01T01:55:13.000Z</time>
      </trkpt>
      <trkpt lat="42.314511" lon="-8.818168">
        <ele>-6.2</ele>
        <time>1970-01-01T01:55:14.000Z</time>
      </trkpt>
      <trkpt lat="42.314497" lon="-8.818173">
        <ele>-6.2</ele>
        <time>1970-01-01T01:55:15.000Z</time>
      </trkpt>
      <trkpt lat="42.314489" lon="-8.818185">
        <ele>-6.2</ele>
        <time>1970-01-01T01:55:16.000Z</time>
      </trkpt>
      <trkpt lat="42.314487" lon="-8.818196">
        <ele>-6.2</ele>
        <time>1970-01-01T01:55:17.000Z</time>
      </trkpt>
      <trkpt lat="42.31449" lon="-8.818188">
        <ele>-6.2</ele>
        <time>1970-01-01T01:55:18.000Z</time>
      </trkpt>
      <trkpt lat="42.314489" lon="-8.818182">
        <ele>-6.4</ele>
        <time>1970-01-01T01:55:19.000Z</time>
      </trkpt>
      <trkpt lat="42.314481" lon="-8.818178">
        <ele>-6.4</ele>
        <time>1970-01-01T01:55:20.000Z</time>
      </trkpt>
      <trkpt lat="42.314476" lon="-8.818172">
        <ele>-6.4</ele>
        <time>1970-01-01T01:55:21.000Z</time>
      </trkpt>
      <trkpt lat="42.314475" lon="-8.818166">
        <ele>-6.4</ele>
        <time>1970-01-01T01:55:22.000Z</time>
      </trkpt>
      <trkpt lat="42.314476" lon="-8.818164">
        <ele>-6.2</ele>
        <time>1970-01-01T01:55:23.000Z</time>
      </trkpt>
      <trkpt lat="42.314474" lon="-8.81817">
        <ele>-6.2</ele>
        <time>1970-01-01T01:55:24.000Z</time>
      </trkpt>
      <trkpt lat="42.31448" lon="-8.818175">
        <ele>-6.2</ele>
        <time>1970-01-01T01:55:25.000Z</time>
      </trkpt>
      <trkpt lat="42.314483" lon="-8.818176">
        <ele>-6.2</ele>
        <time>1970-01-01T01:55:26.000Z</time>
      </trkpt>
      <trkpt lat="42.31448" lon="-8.81816">
        <ele>-6.2</ele>
        <time>1970-01-01T01:55:27.000Z</time>
      </trkpt>
      <trkpt lat="42.314473" lon="-8.818149">
        <ele>-6.2</ele>
        <time>1970-01-01T01:55:28.000Z</time>
      </trkpt>
      <trkpt lat="42.314469" lon="-8.818131">
        <ele>-6.2</ele>
        <time>1970-01-01T01:55:29.000Z</time>
      </trkpt>
      <trkpt lat="42.314462" lon="-8.818122">
        <ele>-6.2</ele>
        <time>1970-01-01T01:55:30.000Z</time>
      </trkpt>
      <trkpt lat="42.314453" lon="-8.818108">
        <ele>-6.2</ele>
        <time>1970-01-01T01:55:31.000Z</time>
      </trkpt>
      <trkpt lat="42.314442" lon="-8.818102">
        <ele>-5.8</ele>
        <time>1970-01-01T01:55:32.000Z</time>
      </trkpt>
      <trkpt lat="42.314432" lon="-8.818102">
        <ele>-6</ele>
        <time>1970-01-01T01:55:33.000Z</time>
      </trkpt>
      <trkpt lat="42.314419" lon="-8.818107">
        <ele>-6</ele>
        <time>1970-01-01T01:55:34.000Z</time>
      </trkpt>
      <trkpt lat="42.314402" lon="-8.818114">
        <ele>-6</ele>
        <time>1970-01-01T01:55:35.000Z</time>
      </trkpt>
      <trkpt lat="42.314384" lon="-8.818116">
        <ele>-6</ele>
        <time>1970-01-01T01:55:36.000Z</time>
      </trkpt>
      <trkpt lat="42.314369" lon="-8.818115">
        <ele>-6.2</ele>
        <time>1970-01-01T01:55:37.000Z</time>
      </trkpt>
      <trkpt lat="42.314362" lon="-8.818097">
        <ele>-6.2</ele>
        <time>1970-01-01T01:55:38.000Z</time>
      </trkpt>
      <trkpt lat="42.314356" lon="-8.81808">
        <ele>-6.2</ele>
        <time>1970-01-01T01:55:39.000Z</time>
      </trkpt>
      <trkpt lat="42.314348" lon="-8.81806">
        <ele>-6.2</ele>
        <time>1970-01-01T01:55:40.000Z</time>
      </trkpt>
      <trkpt lat="42.314342" lon="-8.818041">
        <ele>-6.2</ele>
        <time>1970-01-01T01:55:41.000Z</time>
      </trkpt>
      <trkpt lat="42.314327" lon="-8.818031">
        <ele>-6</ele>
        <time>1970-01-01T01:55:42.000Z</time>
      </trkpt>
      <trkpt lat="42.314311" lon="-8.818028">
        <ele>-6.2</ele>
        <time>1970-01-01T01:55:43.000Z</time>
      </trkpt>
      <trkpt lat="42.314293" lon="-8.818034">
        <ele>-6.2</ele>
        <time>1970-01-01T01:55:44.000Z</time>
      </trkpt>
      <trkpt lat="42.314276" lon="-8.818042">
        <ele>-6</ele>
        <time>1970-01-01T01:55:45.000Z</time>
      </trkpt>
      <trkpt lat="42.314261" lon="-8.818037">
        <ele>-5.8</ele>
        <time>1970-01-01T01:55:46.000Z</time>
      </trkpt>
      <trkpt lat="42.314248" lon="-8.818022">
        <ele>-5.8</ele>
        <time>1970-01-01T01:55:47.000Z</time>
      </trkpt>
      <trkpt lat="42.314236" lon="-8.817996">
        <ele>-5.8</ele>
        <time>1970-01-01T01:55:48.000Z</time>
      </trkpt>
      <trkpt lat="42.314224" lon="-8.817979">
        <ele>-5.8</ele>
        <time>1970-01-01T01:55:49.000Z</time>
      </trkpt>
      <trkpt lat="42.31421" lon="-8.817973">
        <ele>-5.8</ele>
        <time>1970-01-01T01:55:50.000Z</time>
      </trkpt>
      <trkpt lat="42.314195" lon="-8.817981">
        <ele>-5.8</ele>
        <time>1970-01-01T01:55:51.000Z</time>
      </trkpt>
      <trkpt lat="42.314179" lon="-8.817989">
        <ele>-6</ele>
        <time>1970-01-01T01:55:52.000Z</time>
      </trkpt>
      <trkpt lat="42.314167" lon="-8.817993">
        <ele>-6</ele>
        <time>1970-01-01T01:55:53.000Z</time>
      </trkpt>
      <trkpt lat="42.314154" lon="-8.817993">
        <ele>-6</ele>
        <time>1970-01-01T01:55:54.000Z</time>
      </trkpt>
      <trkpt lat="42.314143" lon="-8.817991">
        <ele>-6.4</ele>
        <time>1970-01-01T01:55:55.000Z</time>
      </trkpt>
      <trkpt lat="42.314137" lon="-8.817976">
        <ele>-6.6</ele>
        <time>1970-01-01T01:55:56.000Z</time>
      </trkpt>
      <trkpt lat="42.314128" lon="-8.817965">
        <ele>-6.6</ele>
        <time>1970-01-01T01:55:57.000Z</time>
      </trkpt>
      <trkpt lat="42.314116" lon="-8.817955">
        <ele>-6.8</ele>
        <time>1970-01-01T01:55:58.000Z</time>
      </trkpt>
      <trkpt lat="42.3141" lon="-8.817946">
        <ele>-6.8</ele>
        <time>1970-01-01T01:55:59.000Z</time>
      </trkpt>
      <trkpt lat="42.314083" lon="-8.817941">
        <ele>-6.8</ele>
        <time>1970-01-01T01:56:00.000Z</time>
      </trkpt>
      <trkpt lat="42.314067" lon="-8.81794">
        <ele>-7</ele>
        <time>1970-01-01T01:56:01.000Z</time>
      </trkpt>
      <trkpt lat="42.314052" lon="-8.817942">
        <ele>-7</ele>
        <time>1970-01-01T01:56:02.000Z</time>
      </trkpt>
      <trkpt lat="42.31404" lon="-8.817935">
        <ele>-7</ele>
        <time>1970-01-01T01:56:03.000Z</time>
      </trkpt>
      <trkpt lat="42.314032" lon="-8.81792">
        <ele>-6.4</ele>
        <time>1970-01-01T01:56:04.000Z</time>
      </trkpt>
      <trkpt lat="42.314018" lon="-8.817905">
        <ele>-6.2</ele>
        <time>1970-01-01T01:56:05.000Z</time>
      </trkpt>
      <trkpt lat="42.314003" lon="-8.817897">
        <ele>-6.4</ele>
        <time>1970-01-01T01:56:06.000Z</time>
      </trkpt>
      <trkpt lat="42.313985" lon="-8.817896">
        <ele>-6.6</ele>
        <time>1970-01-01T01:56:07.000Z</time>
      </trkpt>
      <trkpt lat="42.313968" lon="-8.817897">
        <ele>-6.6</ele>
        <time>1970-01-01T01:56:08.000Z</time>
      </trkpt>
      <trkpt lat="42.31395" lon="-8.817897">
        <ele>-6.8</ele>
        <time>1970-01-01T01:56:09.000Z</time>
      </trkpt>
      <trkpt lat="42.313943" lon="-8.817884">
        <ele>-7.2</ele>
        <time>1970-01-01T01:56:10.000Z</time>
      </trkpt>
      <trkpt lat="42.313941" lon="-8.817867">
        <ele>-7.6</ele>
        <time>1970-01-01T01:56:11.000Z</time>
      </trkpt>
      <trkpt lat="42.313934" lon="-8.817854">
        <ele>-7.8</ele>
        <time>1970-01-01T01:56:12.000Z</time>
      </trkpt>
      <trkpt lat="42.313924" lon="-8.817849">
        <ele>-7.8</ele>
        <time>1970-01-01T01:56:13.000Z</time>
      </trkpt>
      <trkpt lat="42.313911" lon="-8.817844">
        <ele>-8</ele>
        <time>1970-01-01T01:56:14.000Z</time>
      </trkpt>
      <trkpt lat="42.313896" lon="-8.817845">
        <ele>-8.2</ele>
        <time>1970-01-01T01:56:15.000Z</time>
      </trkpt>
      <trkpt lat="42.313882" lon="-8.817846">
        <ele>-8.2</ele>
        <time>1970-01-01T01:56:16.000Z</time>
      </trkpt>
      <trkpt lat="42.313871" lon="-8.817838">
        <ele>-8.2</ele>
        <time>1970-01-01T01:56:17.000Z</time>
      </trkpt>
      <trkpt lat="42.313856" lon="-8.817829">
        <ele>-8.2</ele>
        <time>1970-01-01T01:56:18.000Z</time>
      </trkpt>
      <trkpt lat="42.313841" lon="-8.817827">
        <ele>-8.2</ele>
        <time>1970-01-01T01:56:19.000Z</time>
      </trkpt>
      <trkpt lat="42.313832" lon="-8.817831">
        <ele>-8.4</ele>
        <time>1970-01-01T01:56:20.000Z</time>
      </trkpt>
      <trkpt lat="42.31382" lon="-8.817846">
        <ele>-8.6</ele>
        <time>1970-01-01T01:56:21.000Z</time>
      </trkpt>
      <trkpt lat="42.313805" lon="-8.817862">
        <ele>-8.8</ele>
        <time>1970-01-01T01:56:22.000Z</time>
      </trkpt>
      <trkpt lat="42.313788" lon="-8.817867">
        <ele>-8.8</ele>
        <time>1970-01-01T01:56:23.000Z</time>
      </trkpt>
      <trkpt lat="42.313779" lon="-8.817872">
        <ele>-8.8</ele>
        <time>1970-01-01T01:56:24.000Z</time>
      </trkpt>
      <trkpt lat="42.313771" lon="-8.817882">
        <ele>-9</ele>
        <time>1970-01-01T01:56:25.000Z</time>
      </trkpt>
      <trkpt lat="42.31376" lon="-8.817894">
        <ele>-9</ele>
        <time>1970-01-01T01:56:26.000Z</time>
      </trkpt>
      <trkpt lat="42.313745" lon="-8.817901">
        <ele>-9</ele>
        <time>1970-01-01T01:56:27.000Z</time>
      </trkpt>
      <trkpt lat="42.313733" lon="-8.817901">
        <ele>-9</ele>
        <time>1970-01-01T01:56:28.000Z</time>
      </trkpt>
      <trkpt lat="42.313721" lon="-8.817896">
        <ele>-9</ele>
        <time>1970-01-01T01:56:29.000Z</time>
      </trkpt>
      <trkpt lat="42.313707" lon="-8.817892">
        <ele>-9</ele>
        <time>1970-01-01T01:56:30.000Z</time>
      </trkpt>
      <trkpt lat="42.313689" lon="-8.81789">
        <ele>-9.2</ele>
        <time>1970-01-01T01:56:31.000Z</time>
      </trkpt>
      <trkpt lat="42.313672" lon="-8.817891">
        <ele>-9.2</ele>
        <time>1970-01-01T01:56:32.000Z</time>
      </trkpt>
      <trkpt lat="42.313657" lon="-8.817891">
        <ele>-9.4</ele>
        <time>1970-01-01T01:56:33.000Z</time>
      </trkpt>
      <trkpt lat="42.313645" lon="-8.817884">
        <ele>-9.4</ele>
        <time>1970-01-01T01:56:34.000Z</time>
      </trkpt>
      <trkpt lat="42.313632" lon="-8.817875">
        <ele>-9.4</ele>
        <time>1970-01-01T01:56:35.000Z</time>
      </trkpt>
      <trkpt lat="42.313624" lon="-8.817874">
        <ele>-9.4</ele>
        <time>1970-01-01T01:56:36.000Z</time>
      </trkpt>
      <trkpt lat="42.313614" lon="-8.817876">
        <ele>-9.4</ele>
        <time>1970-01-01T01:56:37.000Z</time>
      </trkpt>
      <trkpt lat="42.313603" lon="-8.81788">
        <ele>-9.4</ele>
        <time>1970-01-01T01:56:38.000Z</time>
      </trkpt>
      <trkpt lat="42.313594" lon="-8.817874">
        <ele>-9.4</ele>
        <time>1970-01-01T01:56:39.000Z</time>
      </trkpt>
      <trkpt lat="42.313586" lon="-8.817869">
        <ele>-9.4</ele>
        <time>1970-01-01T01:56:40.000Z</time>
      </trkpt>
      <trkpt lat="42.313571" lon="-8.817872">
        <ele>-9.4</ele>
        <time>1970-01-01T01:56:41.000Z</time>
      </trkpt>
      <trkpt lat="42.313554" lon="-8.817883">
        <ele>-9.4</ele>
        <time>1970-01-01T01:56:42.000Z</time>
      </trkpt>
      <trkpt lat="42.313538" lon="-8.817892">
        <ele>-9.8</ele>
        <time>1970-01-01T01:56:43.000Z</time>
      </trkpt>
      <trkpt lat="42.313531" lon="-8.817888">
        <ele>-10.2</ele>
        <time>1970-01-01T01:56:44.000Z</time>
      </trkpt>
      <trkpt lat="42.313523" lon="-8.817884">
        <ele>-10.4</ele>
        <time>1970-01-01T01:56:45.000Z</time>
      </trkpt>
      <trkpt lat="42.313513" lon="-8.817883">
        <ele>-10.6</ele>
        <time>1970-01-01T01:56:46.000Z</time>
      </trkpt>
      <trkpt lat="42.313499" lon="-8.81789">
        <ele>-10.6</ele>
        <time>1970-01-01T01:56:47.000Z</time>
      </trkpt>
      <trkpt lat="42.313486" lon="-8.817895">
        <ele>-10.6</ele>
        <time>1970-01-01T01:56:48.000Z</time>
      </trkpt>
      <trkpt lat="42.313475" lon="-8.817892">
        <ele>-10.6</ele>
        <time>1970-01-01T01:56:49.000Z</time>
      </trkpt>
      <trkpt lat="42.313464" lon="-8.817893">
        <ele>-10.6</ele>
        <time>1970-01-01T01:56:50.000Z</time>
      </trkpt>
      <trkpt lat="42.313453" lon="-8.817902">
        <ele>-10.4</ele>
        <time>1970-01-01T01:56:51.000Z</time>
      </trkpt>
      <trkpt lat="42.313443" lon="-8.817912">
        <ele>-10.4</ele>
        <time>1970-01-01T01:56:52.000Z</time>
      </trkpt>
      <trkpt lat="42.313434" lon="-8.817915">
        <ele>-10.4</ele>
        <time>1970-01-01T01:56:53.000Z</time>
      </trkpt>
      <trkpt lat="42.313423" lon="-8.817921">
        <ele>-10.4</ele>
        <time>1970-01-01T01:56:54.000Z</time>
      </trkpt>
      <trkpt lat="42.313414" lon="-8.817931">
        <ele>-10.4</ele>
        <time>1970-01-01T01:56:55.000Z</time>
      </trkpt>
      <trkpt lat="42.313406" lon="-8.817938">
        <ele>-10.4</ele>
        <time>1970-01-01T01:56:56.000Z</time>
      </trkpt>
      <trkpt lat="42.3134" lon="-8.817941">
        <ele>-10.4</ele>
        <time>1970-01-01T01:56:57.000Z</time>
      </trkpt>
      <trkpt lat="42.313393" lon="-8.817948">
        <ele>-10.4</ele>
        <time>1970-01-01T01:56:58.000Z</time>
      </trkpt>
      <trkpt lat="42.313391" lon="-8.81796">
        <ele>-10</ele>
        <time>1970-01-01T01:56:59.000Z</time>
      </trkpt>
      <trkpt lat="42.313386" lon="-8.817968">
        <ele>-9.8</ele>
        <time>1970-01-01T01:57:00.000Z</time>
      </trkpt>
      <trkpt lat="42.313381" lon="-8.817975">
        <ele>-9.6</ele>
        <time>1970-01-01T01:57:01.000Z</time>
      </trkpt>
      <trkpt lat="42.313375" lon="-8.817978">
        <ele>-9.4</ele>
        <time>1970-01-01T01:57:02.000Z</time>
      </trkpt>
      <trkpt lat="42.313364" lon="-8.817984">
        <ele>-9.2</ele>
        <time>1970-01-01T01:57:03.000Z</time>
      </trkpt>
      <trkpt lat="42.313353" lon="-8.81799">
        <ele>-9</ele>
        <time>1970-01-01T01:57:04.000Z</time>
      </trkpt>
      <trkpt lat="42.313341" lon="-8.817995">
        <ele>-8.6</ele>
        <time>1970-01-01T01:57:05.000Z</time>
      </trkpt>
      <trkpt lat="42.313332" lon="-8.817999">
        <ele>-8.6</ele>
        <time>1970-01-01T01:57:06.000Z</time>
      </trkpt>
      <trkpt lat="42.313322" lon="-8.818005">
        <ele>-8.4</ele>
        <time>1970-01-01T01:57:07.000Z</time>
      </trkpt>
      <trkpt lat="42.313311" lon="-8.818015">
        <ele>-8.2</ele>
        <time>1970-01-01T01:57:08.000Z</time>
      </trkpt>
      <trkpt lat="42.313304" lon="-8.818027">
        <ele>-8.2</ele>
        <time>1970-01-01T01:57:09.000Z</time>
      </trkpt>
      <trkpt lat="42.313299" lon="-8.818035">
        <ele>-8</ele>
        <time>1970-01-01T01:57:10.000Z</time>
      </trkpt>
      <trkpt lat="42.313295" lon="-8.818038">
        <ele>-7.8</ele>
        <time>1970-01-01T01:57:11.000Z</time>
      </trkpt>
      <trkpt lat="42.313298" lon="-8.818035">
        <ele>-7.6</ele>
        <time>1970-01-01T01:57:12.000Z</time>
      </trkpt>
      <trkpt lat="42.313305" lon="-8.818031">
        <ele>-7.4</ele>
        <time>1970-01-01T01:57:13.000Z</time>
      </trkpt>
      <trkpt lat="42.31331" lon="-8.818028">
        <ele>-7.2</ele>
        <time>1970-01-01T01:57:14.000Z</time>
      </trkpt>
      <trkpt lat="42.313315" lon="-8.818026">
        <ele>-7.2</ele>
        <time>1970-01-01T01:57:15.000Z</time>
      </trkpt>
      <trkpt lat="42.313316" lon="-8.818028">
        <ele>-7.2</ele>
        <time>1970-01-01T01:57:16.000Z</time>
      </trkpt>
      <trkpt lat="42.313319" lon="-8.818031">
        <ele>-7.2</ele>
        <time>1970-01-01T01:57:17.000Z</time>
      </trkpt>
      <trkpt lat="42.313321" lon="-8.818031">
        <ele>-7</ele>
        <time>1970-01-01T01:57:18.000Z</time>
      </trkpt>
      <trkpt lat="42.313324" lon="-8.818031">
        <ele>-7</ele>
        <time>1970-01-01T01:57:19.000Z</time>
      </trkpt>
      <trkpt lat="42.313326" lon="-8.81803">
        <ele>-7</ele>
        <time>1970-01-01T01:57:20.000Z</time>
      </trkpt>
      <trkpt lat="42.313329" lon="-8.818031">
        <ele>-7.2</ele>
        <time>1970-01-01T01:57:21.000Z</time>
      </trkpt>
      <trkpt lat="42.313334" lon="-8.818034">
        <ele>-7.2</ele>
        <time>1970-01-01T01:57:22.000Z</time>
      </trkpt>
      <trkpt lat="42.313336" lon="-8.818036">
        <ele>-7.4</ele>
        <time>1970-01-01T01:57:23.000Z</time>
      </trkpt>
      <trkpt lat="42.313339" lon="-8.818037">
        <ele>-7.4</ele>
        <time>1970-01-01T01:57:24.000Z</time>
      </trkpt>
      <trkpt lat="42.313334" lon="-8.818035">
        <ele>-7.4</ele>
        <time>1970-01-01T01:57:25.000Z</time>
      </trkpt>
      <trkpt lat="42.31333" lon="-8.81803">
        <ele>-7.4</ele>
        <time>1970-01-01T01:57:26.000Z</time>
      </trkpt>
      <trkpt lat="42.313324" lon="-8.818027">
        <ele>-7.4</ele>
        <time>1970-01-01T01:57:27.000Z</time>
      </trkpt>
      <trkpt lat="42.313318" lon="-8.818027">
        <ele>-7.6</ele>
        <time>1970-01-01T01:57:28.000Z</time>
      </trkpt>
      <trkpt lat="42.313316" lon="-8.818023">
        <ele>-7.4</ele>
        <time>1970-01-01T01:57:29.000Z</time>
      </trkpt>
      <trkpt lat="42.313317" lon="-8.81802">
        <ele>-7.6</ele>
        <time>1970-01-01T01:57:30.000Z</time>
      </trkpt>
      <trkpt lat="42.313318" lon="-8.818012">
        <ele>-7.6</ele>
        <time>1970-01-01T01:57:31.000Z</time>
      </trkpt>
      <trkpt lat="42.313317" lon="-8.818002">
        <ele>-7.4</ele>
        <time>1970-01-01T01:57:32.000Z</time>
      </trkpt>
      <trkpt lat="42.313309" lon="-8.818001">
        <ele>-7.6</ele>
        <time>1970-01-01T01:57:33.000Z</time>
      </trkpt>
      <trkpt lat="42.313298" lon="-8.818009">
        <ele>-7.6</ele>
        <time>1970-01-01T01:57:34.000Z</time>
      </trkpt>
      <trkpt lat="42.313287" lon="-8.818016">
        <ele>-7.6</ele>
        <time>1970-01-01T01:57:35.000Z</time>
      </trkpt>
      <trkpt lat="42.313278" lon="-8.818023">
        <ele>-7.6</ele>
        <time>1970-01-01T01:57:36.000Z</time>
      </trkpt>
      <trkpt lat="42.313266" lon="-8.818031">
        <ele>-7.4</ele>
        <time>1970-01-01T01:57:37.000Z</time>
      </trkpt>
      <trkpt lat="42.313255" lon="-8.818032">
        <ele>-7.4</ele>
        <time>1970-01-01T01:57:38.000Z</time>
      </trkpt>
      <trkpt lat="42.313243" lon="-8.818031">
        <ele>-7.2</ele>
        <time>1970-01-01T01:57:39.000Z</time>
      </trkpt>
      <trkpt lat="42.313235" lon="-8.818027">
        <ele>-7.2</ele>
        <time>1970-01-01T01:57:40.000Z</time>
      </trkpt>
      <trkpt lat="42.313228" lon="-8.817998">
        <ele>-7</ele>
        <time>1970-01-01T01:57:41.000Z</time>
      </trkpt>
      <trkpt lat="42.313214" lon="-8.818008">
        <ele>-6.8</ele>
        <time>1970-01-01T01:57:42.000Z</time>
      </trkpt>
      <trkpt lat="42.313201" lon="-8.818019">
        <ele>-6.8</ele>
        <time>1970-01-01T01:57:43.000Z</time>
      </trkpt>
      <trkpt lat="42.313191" lon="-8.81803">
        <ele>-6.6</ele>
        <time>1970-01-01T01:57:44.000Z</time>
      </trkpt>
      <trkpt lat="42.313182" lon="-8.818038">
        <ele>-6.4</ele>
        <time>1970-01-01T01:57:45.000Z</time>
      </trkpt>
      <trkpt lat="42.313174" lon="-8.818051">
        <ele>-6.2</ele>
        <time>1970-01-01T01:57:46.000Z</time>
      </trkpt>
      <trkpt lat="42.313168" lon="-8.818062">
        <ele>-5.8</ele>
        <time>1970-01-01T01:57:47.000Z</time>
      </trkpt>
      <trkpt lat="42.313159" lon="-8.818071">
        <ele>-5.4</ele>
        <time>1970-01-01T01:57:48.000Z</time>
      </trkpt>
      <trkpt lat="42.31315" lon="-8.818075">
        <ele>-5.4</ele>
        <time>1970-01-01T01:57:49.000Z</time>
      </trkpt>
      <trkpt lat="42.313141" lon="-8.818078">
        <ele>-5.2</ele>
        <time>1970-01-01T01:57:50.000Z</time>
      </trkpt>
      <trkpt lat="42.313131" lon="-8.818082">
        <ele>-5.2</ele>
        <time>1970-01-01T01:57:51.000Z</time>
      </trkpt>
      <trkpt lat="42.313123" lon="-8.818084">
        <ele>-5.2</ele>
        <time>1970-01-01T01:57:52.000Z</time>
      </trkpt>
      <trkpt lat="42.313115" lon="-8.818085">
        <ele>-5</ele>
        <time>1970-01-01T01:57:53.000Z</time>
      </trkpt>
      <trkpt lat="42.313107" lon="-8.818084">
        <ele>-5</ele>
        <time>1970-01-01T01:57:54.000Z</time>
      </trkpt>
      <trkpt lat="42.313097" lon="-8.818085">
        <ele>-4.8</ele>
        <time>1970-01-01T01:57:55.000Z</time>
      </trkpt>
      <trkpt lat="42.313078" lon="-8.818093">
        <ele>-4.8</ele>
        <time>1970-01-01T01:57:56.000Z</time>
      </trkpt>
      <trkpt lat="42.313071" lon="-8.818079">
        <ele>-4.6</ele>
        <time>1970-01-01T01:57:57.000Z</time>
      </trkpt>
      <trkpt lat="42.313063" lon="-8.818062">
        <ele>-4.6</ele>
        <time>1970-01-01T01:57:58.000Z</time>
      </trkpt>
      <trkpt lat="42.313055" lon="-8.818043">
        <ele>-4.2</ele>
        <time>1970-01-01T01:57:59.000Z</time>
      </trkpt>
      <trkpt lat="42.313049" lon="-8.818029">
        <ele>-3.8</ele>
        <time>1970-01-01T01:58:00.000Z</time>
      </trkpt>
      <trkpt lat="42.313042" lon="-8.818012">
        <ele>-3.8</ele>
        <time>1970-01-01T01:58:01.000Z</time>
      </trkpt>
      <trkpt lat="42.313036" lon="-8.817999">
        <ele>-4</ele>
        <time>1970-01-01T01:58:02.000Z</time>
      </trkpt>
      <trkpt lat="42.313031" lon="-8.817991">
        <ele>-4</ele>
        <time>1970-01-01T01:58:03.000Z</time>
      </trkpt>
      <trkpt lat="42.31303" lon="-8.817973">
        <ele>-3.4</ele>
        <time>1970-01-01T01:58:04.000Z</time>
      </trkpt>
      <trkpt lat="42.313029" lon="-8.817953">
        <ele>-3.2</ele>
        <time>1970-01-01T01:58:05.000Z</time>
      </trkpt>
      <trkpt lat="42.313024" lon="-8.81794">
        <ele>-3</ele>
        <time>1970-01-01T01:58:06.000Z</time>
      </trkpt>
      <trkpt lat="42.313016" lon="-8.817925">
        <ele>-2.8</ele>
        <time>1970-01-01T01:58:07.000Z</time>
      </trkpt>
      <trkpt lat="42.313011" lon="-8.81791">
        <ele>-2.8</ele>
        <time>1970-01-01T01:58:08.000Z</time>
      </trkpt>
      <trkpt lat="42.313" lon="-8.817904">
        <ele>-2.6</ele>
        <time>1970-01-01T01:58:09.000Z</time>
      </trkpt>
      <trkpt lat="42.312997" lon="-8.817887">
        <ele>-2.6</ele>
        <time>1970-01-01T01:58:10.000Z</time>
      </trkpt>
      <trkpt lat="42.312992" lon="-8.817866">
        <ele>-2.6</ele>
        <time>1970-01-01T01:58:11.000Z</time>
      </trkpt>
      <trkpt lat="42.312983" lon="-8.817855">
        <ele>-2.6</ele>
        <time>1970-01-01T01:58:12.000Z</time>
      </trkpt>
      <trkpt lat="42.312975" lon="-8.817846">
        <ele>-2.2</ele>
        <time>1970-01-01T01:58:13.000Z</time>
      </trkpt>
      <trkpt lat="42.312974" lon="-8.817823">
        <ele>-1.8</ele>
        <time>1970-01-01T01:58:14.000Z</time>
      </trkpt>
      <trkpt lat="42.312972" lon="-8.817808">
        <ele>-1.6</ele>
        <time>1970-01-01T01:58:15.000Z</time>
      </trkpt>
      <trkpt lat="42.31297" lon="-8.817797">
        <ele>-1.6</ele>
        <time>1970-01-01T01:58:16.000Z</time>
      </trkpt>
      <trkpt lat="42.312969" lon="-8.817775">
        <ele>-1.4</ele>
        <time>1970-01-01T01:58:17.000Z</time>
      </trkpt>
      <trkpt lat="42.312963" lon="-8.817763">
        <ele>-1.4</ele>
        <time>1970-01-01T01:58:18.000Z</time>
      </trkpt>
      <trkpt lat="42.312959" lon="-8.817751">
        <ele>-1.2</ele>
        <time>1970-01-01T01:58:19.000Z</time>
      </trkpt>
      <trkpt lat="42.312959" lon="-8.817725">
        <ele>-1.2</ele>
        <time>1970-01-01T01:58:20.000Z</time>
      </trkpt>
      <trkpt lat="42.312953" lon="-8.817712">
        <ele>-1.2</ele>
        <time>1970-01-01T01:58:21.000Z</time>
      </trkpt>
      <trkpt lat="42.312947" lon="-8.817702">
        <ele>-1.2</ele>
        <time>1970-01-01T01:58:22.000Z</time>
      </trkpt>
      <trkpt lat="42.312944" lon="-8.817683">
        <ele>-0.8</ele>
        <time>1970-01-01T01:58:23.000Z</time>
      </trkpt>
      <trkpt lat="42.312942" lon="-8.817667">
        <ele>-0.6</ele>
        <time>1970-01-01T01:58:24.000Z</time>
      </trkpt>
      <trkpt lat="42.31294" lon="-8.817659">
        <ele>-0.6</ele>
        <time>1970-01-01T01:58:25.000Z</time>
      </trkpt>
      <trkpt lat="42.31294" lon="-8.817644">
        <ele>-0.4</ele>
        <time>1970-01-01T01:58:26.000Z</time>
      </trkpt>
      <trkpt lat="42.312938" lon="-8.817633">
        <ele>-0.4</ele>
        <time>1970-01-01T01:58:27.000Z</time>
      </trkpt>
      <trkpt lat="42.312933" lon="-8.817624">
        <ele>-0.2</ele>
        <time>1970-01-01T01:58:28.000Z</time>
      </trkpt>
      <trkpt lat="42.312929" lon="-8.817603">
        <ele>0</ele>
        <time>1970-01-01T01:58:29.000Z</time>
      </trkpt>
      <trkpt lat="42.312922" lon="-8.817588">
        <ele>0.2</ele>
        <time>1970-01-01T01:58:30.000Z</time>
      </trkpt>
      <trkpt lat="42.312913" lon="-8.817573">
        <ele>0.4</ele>
        <time>1970-01-01T01:58:31.000Z</time>
      </trkpt>
      <trkpt lat="42.312911" lon="-8.817555">
        <ele>0.4</ele>
        <time>1970-01-01T01:58:32.000Z</time>
      </trkpt>
      <trkpt lat="42.312908" lon="-8.817546">
        <ele>0.6</ele>
        <time>1970-01-01T01:58:33.000Z</time>
      </trkpt>
      <trkpt lat="42.312901" lon="-8.817537">
        <ele>0.8</ele>
        <time>1970-01-01T01:58:34.000Z</time>
      </trkpt>
      <trkpt lat="42.312894" lon="-8.817525">
        <ele>1.2</ele>
        <time>1970-01-01T01:58:35.000Z</time>
      </trkpt>
      <trkpt lat="42.312887" lon="-8.817516">
        <ele>1.6</ele>
        <time>1970-01-01T01:58:36.000Z</time>
      </trkpt>
      <trkpt lat="42.312879" lon="-8.817501">
        <ele>1.8</ele>
        <time>1970-01-01T01:58:37.000Z</time>
      </trkpt>
      <trkpt lat="42.31287" lon="-8.817487">
        <ele>1.8</ele>
        <time>1970-01-01T01:58:38.000Z</time>
      </trkpt>
      <trkpt lat="42.312861" lon="-8.817475">
        <ele>2</ele>
        <time>1970-01-01T01:58:39.000Z</time>
      </trkpt>
      <trkpt lat="42.312854" lon="-8.817458">
        <ele>2</ele>
        <time>1970-01-01T01:58:40.000Z</time>
      </trkpt>
      <trkpt lat="42.312846" lon="-8.817441">
        <ele>2.2</ele>
        <time>1970-01-01T01:58:41.000Z</time>
      </trkpt>
      <trkpt lat="42.312837" lon="-8.817425">
        <ele>2.2</ele>
        <time>1970-01-01T01:58:42.000Z</time>
      </trkpt>
      <trkpt lat="42.31283" lon="-8.817403">
        <ele>2.2</ele>
        <time>1970-01-01T01:58:43.000Z</time>
      </trkpt>
      <trkpt lat="42.312827" lon="-8.817387">
        <ele>2.4</ele>
        <time>1970-01-01T01:58:44.000Z</time>
      </trkpt>
      <trkpt lat="42.312824" lon="-8.817372">
        <ele>2.8</ele>
        <time>1970-01-01T01:58:45.000Z</time>
      </trkpt>
      <trkpt lat="42.31282" lon="-8.817361">
        <ele>3.2</ele>
        <time>1970-01-01T01:58:46.000Z</time>
      </trkpt>
      <trkpt lat="42.312814" lon="-8.817354">
        <ele>3.4</ele>
        <time>1970-01-01T01:58:47.000Z</time>
      </trkpt>
      <trkpt lat="42.312806" lon="-8.817342">
        <ele>3.6</ele>
        <time>1970-01-01T01:58:48.000Z</time>
      </trkpt>
      <trkpt lat="42.312792" lon="-8.817335">
        <ele>3.6</ele>
        <time>1970-01-01T01:58:49.000Z</time>
      </trkpt>
      <trkpt lat="42.31278" lon="-8.81733">
        <ele>3.8</ele>
        <time>1970-01-01T01:58:50.000Z</time>
      </trkpt>
      <trkpt lat="42.312766" lon="-8.817311">
        <ele>3.8</ele>
        <time>1970-01-01T01:58:51.000Z</time>
      </trkpt>
      <trkpt lat="42.312753" lon="-8.817302">
        <ele>4</ele>
        <time>1970-01-01T01:58:52.000Z</time>
      </trkpt>
      <trkpt lat="42.312741" lon="-8.817288">
        <ele>4</ele>
        <time>1970-01-01T01:58:53.000Z</time>
      </trkpt>
      <trkpt lat="42.31273" lon="-8.81727">
        <ele>4</ele>
        <time>1970-01-01T01:58:54.000Z</time>
      </trkpt>
      <trkpt lat="42.312719" lon="-8.817256">
        <ele>4.2</ele>
        <time>1970-01-01T01:58:55.000Z</time>
      </trkpt>
      <trkpt lat="42.312709" lon="-8.81724">
        <ele>4.4</ele>
        <time>1970-01-01T01:58:56.000Z</time>
      </trkpt>
      <trkpt lat="42.312699" lon="-8.817236">
        <ele>4.6</ele>
        <time>1970-01-01T01:58:57.000Z</time>
      </trkpt>
      <trkpt lat="42.31269" lon="-8.817233">
        <ele>4.6</ele>
        <time>1970-01-01T01:58:58.000Z</time>
      </trkpt>
      <trkpt lat="42.312681" lon="-8.817225">
        <ele>4.6</ele>
        <time>1970-01-01T01:58:59.000Z</time>
      </trkpt>
      <trkpt lat="42.312671" lon="-8.817219">
        <ele>4.4</ele>
        <time>1970-01-01T01:59:00.000Z</time>
      </trkpt>
      <trkpt lat="42.312661" lon="-8.817216">
        <ele>4.4</ele>
        <time>1970-01-01T01:59:01.000Z</time>
      </trkpt>
      <trkpt lat="42.312653" lon="-8.817211">
        <ele>4.4</ele>
        <time>1970-01-01T01:59:02.000Z</time>
      </trkpt>
      <trkpt lat="42.312642" lon="-8.817205">
        <ele>4.4</ele>
        <time>1970-01-01T01:59:03.000Z</time>
      </trkpt>
      <trkpt lat="42.312629" lon="-8.817197">
        <ele>4.4</ele>
        <time>1970-01-01T01:59:04.000Z</time>
      </trkpt>
      <trkpt lat="42.312618" lon="-8.817191">
        <ele>4.8</ele>
        <time>1970-01-01T01:59:05.000Z</time>
      </trkpt>
      <trkpt lat="42.312608" lon="-8.817181">
        <ele>5</ele>
        <time>1970-01-01T01:59:06.000Z</time>
      </trkpt>
      <trkpt lat="42.312597" lon="-8.817174">
        <ele>5</ele>
        <time>1970-01-01T01:59:07.000Z</time>
      </trkpt>
      <trkpt lat="42.312584" lon="-8.817166">
        <ele>5.2</ele>
        <time>1970-01-01T01:59:08.000Z</time>
      </trkpt>
      <trkpt lat="42.312569" lon="-8.81716">
        <ele>5.2</ele>
        <time>1970-01-01T01:59:09.000Z</time>
      </trkpt>
      <trkpt lat="42.312555" lon="-8.817156">
        <ele>5.4</ele>
        <time>1970-01-01T01:59:10.000Z</time>
      </trkpt>
      <trkpt lat="42.312544" lon="-8.817146">
        <ele>5.4</ele>
        <time>1970-01-01T01:59:11.000Z</time>
      </trkpt>
      <trkpt lat="42.312533" lon="-8.817144">
        <ele>5.6</ele>
        <time>1970-01-01T01:59:12.000Z</time>
      </trkpt>
      <trkpt lat="42.312522" lon="-8.817139">
        <ele>5.6</ele>
        <time>1970-01-01T01:59:13.000Z</time>
      </trkpt>
      <trkpt lat="42.312512" lon="-8.817137">
        <ele>5.8</ele>
        <time>1970-01-01T01:59:14.000Z</time>
      </trkpt>
      <trkpt lat="42.312502" lon="-8.817135">
        <ele>5.8</ele>
        <time>1970-01-01T01:59:15.000Z</time>
      </trkpt>
      <trkpt lat="42.312493" lon="-8.817126">
        <ele>6</ele>
        <time>1970-01-01T01:59:16.000Z</time>
      </trkpt>
      <trkpt lat="42.31248" lon="-8.81712">
        <ele>6</ele>
        <time>1970-01-01T01:59:17.000Z</time>
      </trkpt>
      <trkpt lat="42.312469" lon="-8.817104">
        <ele>6</ele>
        <time>1970-01-01T01:59:18.000Z</time>
      </trkpt>
      <trkpt lat="42.312456" lon="-8.817096">
        <ele>6</ele>
        <time>1970-01-01T01:59:19.000Z</time>
      </trkpt>
      <trkpt lat="42.312445" lon="-8.817087">
        <ele>6</ele>
        <time>1970-01-01T01:59:20.000Z</time>
      </trkpt>
      <trkpt lat="42.312431" lon="-8.817079">
        <ele>6</ele>
        <time>1970-01-01T01:59:21.000Z</time>
      </trkpt>
      <trkpt lat="42.312418" lon="-8.817069">
        <ele>6</ele>
        <time>1970-01-01T01:59:22.000Z</time>
      </trkpt>
      <trkpt lat="42.312404" lon="-8.817058">
        <ele>6</ele>
        <time>1970-01-01T01:59:23.000Z</time>
      </trkpt>
      <trkpt lat="42.31239" lon="-8.817052">
        <ele>6</ele>
        <time>1970-01-01T01:59:24.000Z</time>
      </trkpt>
      <trkpt lat="42.312376" lon="-8.817042">
        <ele>6</ele>
        <time>1970-01-01T01:59:25.000Z</time>
      </trkpt>
      <trkpt lat="42.312362" lon="-8.81703">
        <ele>6</ele>
        <time>1970-01-01T01:59:26.000Z</time>
      </trkpt>
      <trkpt lat="42.312349" lon="-8.817022">
        <ele>6</ele>
        <time>1970-01-01T01:59:27.000Z</time>
      </trkpt>
      <trkpt lat="42.312338" lon="-8.81702">
        <ele>6</ele>
        <time>1970-01-01T01:59:28.000Z</time>
      </trkpt>
      <trkpt lat="42.312327" lon="-8.817014">
        <ele>6</ele>
        <time>1970-01-01T01:59:29.000Z</time>
      </trkpt>
      <trkpt lat="42.312315" lon="-8.817012">
        <ele>6</ele>
        <time>1970-01-01T01:59:30.000Z</time>
      </trkpt>
      <trkpt lat="42.312302" lon="-8.817008">
        <ele>6</ele>
        <time>1970-01-01T01:59:31.000Z</time>
      </trkpt>
      <trkpt lat="42.312289" lon="-8.816996">
        <ele>6</ele>
        <time>1970-01-01T01:59:32.000Z</time>
      </trkpt>
      <trkpt lat="42.312274" lon="-8.81699">
        <ele>6</ele>
        <time>1970-01-01T01:59:33.000Z</time>
      </trkpt>
      <trkpt lat="42.312263" lon="-8.81698">
        <ele>6</ele>
        <time>1970-01-01T01:59:34.000Z</time>
      </trkpt>
      <trkpt lat="42.312249" lon="-8.816979">
        <ele>6.2</ele>
        <time>1970-01-01T01:59:35.000Z</time>
      </trkpt>
      <trkpt lat="42.312237" lon="-8.81697">
        <ele>6.2</ele>
        <time>1970-01-01T01:59:36.000Z</time>
      </trkpt>
      <trkpt lat="42.312224" lon="-8.816967">
        <ele>6.2</ele>
        <time>1970-01-01T01:59:37.000Z</time>
      </trkpt>
      <trkpt lat="42.312214" lon="-8.816959">
        <ele>6.6</ele>
        <time>1970-01-01T01:59:38.000Z</time>
      </trkpt>
      <trkpt lat="42.312202" lon="-8.816952">
        <ele>6.8</ele>
        <time>1970-01-01T01:59:39.000Z</time>
      </trkpt>
      <trkpt lat="42.312189" lon="-8.81694">
        <ele>6.6</ele>
        <time>1970-01-01T01:59:40.000Z</time>
      </trkpt>
      <trkpt lat="42.312176" lon="-8.816935">
        <ele>7</ele>
        <time>1970-01-01T01:59:41.000Z</time>
      </trkpt>
      <trkpt lat="42.312163" lon="-8.816931">
        <ele>7</ele>
        <time>1970-01-01T01:59:42.000Z</time>
      </trkpt>
      <trkpt lat="42.31215" lon="-8.816927">
        <ele>7</ele>
        <time>1970-01-01T01:59:43.000Z</time>
      </trkpt>
      <trkpt lat="42.312137" lon="-8.816922">
        <ele>7</ele>
        <time>1970-01-01T01:59:44.000Z</time>
      </trkpt>
      <trkpt lat="42.312124" lon="-8.816922">
        <ele>7</ele>
        <time>1970-01-01T01:59:45.000Z</time>
      </trkpt>
      <trkpt lat="42.31211" lon="-8.816927">
        <ele>7</ele>
        <time>1970-01-01T01:59:46.000Z</time>
      </trkpt>
      <trkpt lat="42.312098" lon="-8.816925">
        <ele>7.2</ele>
        <time>1970-01-01T01:59:47.000Z</time>
      </trkpt>
      <trkpt lat="42.312089" lon="-8.816919">
        <ele>7.2</ele>
        <time>1970-01-01T01:59:48.000Z</time>
      </trkpt>
      <trkpt lat="42.312086" lon="-8.816906">
        <ele>7.2</ele>
        <time>1970-01-01T01:59:49.000Z</time>
      </trkpt>
      <trkpt lat="42.31208" lon="-8.816894">
        <ele>7.4</ele>
        <time>1970-01-01T01:59:50.000Z</time>
      </trkpt>
      <trkpt lat="42.312073" lon="-8.816877">
        <ele>7.6</ele>
        <time>1970-01-01T01:59:51.000Z</time>
      </trkpt>
      <trkpt lat="42.312063" lon="-8.81687">
        <ele>7.8</ele>
        <time>1970-01-01T01:59:52.000Z</time>
      </trkpt>
      <trkpt lat="42.312053" lon="-8.816859">
        <ele>7.8</ele>
        <time>1970-01-01T01:59:53.000Z</time>
      </trkpt>
      <trkpt lat="42.312043" lon="-8.816853">
        <ele>8</ele>
        <time>1970-01-01T01:59:54.000Z</time>
      </trkpt>
      <trkpt lat="42.312033" lon="-8.816843">
        <ele>8</ele>
        <time>1970-01-01T01:59:55.000Z</time>
      </trkpt>
      <trkpt lat="42.312023" lon="-8.81684">
        <ele>8.2</ele>
        <time>1970-01-01T01:59:56.000Z</time>
      </trkpt>
      <trkpt lat="42.312014" lon="-8.816836">
        <ele>8.2</ele>
        <time>1970-01-01T01:59:57.000Z</time>
      </trkpt>
      <trkpt lat="42.312005" lon="-8.81683">
        <ele>8.4</ele>
        <time>1970-01-01T01:59:58.000Z</time>
      </trkpt>
      <trkpt lat="42.311996" lon="-8.816825">
        <ele>8.4</ele>
        <time>1970-01-01T01:59:59.000Z</time>
      </trkpt>
      <trkpt lat="42.311988" lon="-8.81682">
        <ele>8.6</ele>
        <time>1970-01-01T02:00:00.000Z</time>
      </trkpt>
      <trkpt lat="42.311979" lon="-8.816814">
        <ele>8.8</ele>
        <time>1970-01-01T02:00:01.000Z</time>
      </trkpt>
      <trkpt lat="42.31197" lon="-8.816807">
        <ele>8.8</ele>
        <time>1970-01-01T02:00:02.000Z</time>
      </trkpt>
      <trkpt lat="42.311962" lon="-8.816799">
        <ele>8.8</ele>
        <time>1970-01-01T02:00:03.000Z</time>
      </trkpt>
      <trkpt lat="42.311952" lon="-8.816797">
        <ele>9</ele>
        <time>1970-01-01T02:00:04.000Z</time>
      </trkpt>
      <trkpt lat="42.311936" lon="-8.816793">
        <ele>9</ele>
        <time>1970-01-01T02:00:05.000Z</time>
      </trkpt>
      <trkpt lat="42.311922" lon="-8.816793">
        <ele>9.2</ele>
        <time>1970-01-01T02:00:06.000Z</time>
      </trkpt>
      <trkpt lat="42.31191" lon="-8.816786">
        <ele>9.2</ele>
        <time>1970-01-01T02:00:07.000Z</time>
      </trkpt>
      <trkpt lat="42.311897" lon="-8.81677">
        <ele>9.4</ele>
        <time>1970-01-01T02:00:08.000Z</time>
      </trkpt>
      <trkpt lat="42.311883" lon="-8.816754">
        <ele>9.6</ele>
        <time>1970-01-01T02:00:09.000Z</time>
      </trkpt>
      <trkpt lat="42.311864" lon="-8.816753">
        <ele>9.6</ele>
        <time>1970-01-01T02:00:10.000Z</time>
      </trkpt>
      <trkpt lat="42.311851" lon="-8.816752">
        <ele>9.6</ele>
        <time>1970-01-01T02:00:11.000Z</time>
      </trkpt>
      <trkpt lat="42.311837" lon="-8.816756">
        <ele>9.6</ele>
        <time>1970-01-01T02:00:12.000Z</time>
      </trkpt>
      <trkpt lat="42.311829" lon="-8.816758">
        <ele>9.6</ele>
        <time>1970-01-01T02:00:13.000Z</time>
      </trkpt>
      <trkpt lat="42.311816" lon="-8.816765">
        <ele>9.6</ele>
        <time>1970-01-01T02:00:14.000Z</time>
      </trkpt>
      <trkpt lat="42.311806" lon="-8.816768">
        <ele>9.6</ele>
        <time>1970-01-01T02:00:15.000Z</time>
      </trkpt>
      <trkpt lat="42.311799" lon="-8.816768">
        <ele>9.4</ele>
        <time>1970-01-01T02:00:16.000Z</time>
      </trkpt>
      <trkpt lat="42.311793" lon="-8.816762">
        <ele>9.2</ele>
        <time>1970-01-01T02:00:17.000Z</time>
      </trkpt>
      <trkpt lat="42.311788" lon="-8.816756">
        <ele>9.2</ele>
        <time>1970-01-01T02:00:18.000Z</time>
      </trkpt>
      <trkpt lat="42.311782" lon="-8.81675">
        <ele>9.4</ele>
        <time>1970-01-01T02:00:19.000Z</time>
      </trkpt>
      <trkpt lat="42.311775" lon="-8.816742">
        <ele>9.8</ele>
        <time>1970-01-01T02:00:20.000Z</time>
      </trkpt>
      <trkpt lat="42.311769" lon="-8.816723">
        <ele>10.4</ele>
        <time>1970-01-01T02:00:21.000Z</time>
      </trkpt>
      <trkpt lat="42.311764" lon="-8.816709">
        <ele>10.4</ele>
        <time>1970-01-01T02:00:22.000Z</time>
      </trkpt>
      <trkpt lat="42.311755" lon="-8.816699">
        <ele>10.6</ele>
        <time>1970-01-01T02:00:23.000Z</time>
      </trkpt>
      <trkpt lat="42.311748" lon="-8.816692">
        <ele>10.6</ele>
        <time>1970-01-01T02:00:24.000Z</time>
      </trkpt>
      <trkpt lat="42.31174" lon="-8.816683">
        <ele>10.8</ele>
        <time>1970-01-01T02:00:25.000Z</time>
      </trkpt>
      <trkpt lat="42.311728" lon="-8.816682">
        <ele>11</ele>
        <time>1970-01-01T02:00:26.000Z</time>
      </trkpt>
      <trkpt lat="42.311716" lon="-8.81668">
        <ele>11.2</ele>
        <time>1970-01-01T02:00:27.000Z</time>
      </trkpt>
      <trkpt lat="42.311708" lon="-8.816676">
        <ele>11.4</ele>
        <time>1970-01-01T02:00:28.000Z</time>
      </trkpt>
      <trkpt lat="42.311697" lon="-8.816675">
        <ele>11.4</ele>
        <time>1970-01-01T02:00:29.000Z</time>
      </trkpt>
      <trkpt lat="42.31168" lon="-8.816678">
        <ele>11.6</ele>
        <time>1970-01-01T02:00:30.000Z</time>
      </trkpt>
      <trkpt lat="42.311663" lon="-8.816675">
        <ele>11.6</ele>
        <time>1970-01-01T02:00:31.000Z</time>
      </trkpt>
      <trkpt lat="42.311653" lon="-8.816665">
        <ele>11.8</ele>
        <time>1970-01-01T02:00:32.000Z</time>
      </trkpt>
      <trkpt lat="42.31164" lon="-8.816663">
        <ele>12.2</ele>
        <time>1970-01-01T02:00:33.000Z</time>
      </trkpt>
      <trkpt lat="42.311635" lon="-8.816656">
        <ele>12.4</ele>
        <time>1970-01-01T02:00:34.000Z</time>
      </trkpt>
      <trkpt lat="42.311624" lon="-8.816657">
        <ele>12.6</ele>
        <time>1970-01-01T02:00:35.000Z</time>
      </trkpt>
      <trkpt lat="42.311614" lon="-8.816653">
        <ele>12.6</ele>
        <time>1970-01-01T02:00:36.000Z</time>
      </trkpt>
      <trkpt lat="42.311604" lon="-8.816646">
        <ele>13</ele>
        <time>1970-01-01T02:00:37.000Z</time>
      </trkpt>
      <trkpt lat="42.311596" lon="-8.816637">
        <ele>13.4</ele>
        <time>1970-01-01T02:00:38.000Z</time>
      </trkpt>
      <trkpt lat="42.311588" lon="-8.816629">
        <ele>13.6</ele>
        <time>1970-01-01T02:00:39.000Z</time>
      </trkpt>
      <trkpt lat="42.311578" lon="-8.816623">
        <ele>13.8</ele>
        <time>1970-01-01T02:00:40.000Z</time>
      </trkpt>
      <trkpt lat="42.311566" lon="-8.816616">
        <ele>13.8</ele>
        <time>1970-01-01T02:00:41.000Z</time>
      </trkpt>
      <trkpt lat="42.311555" lon="-8.816603">
        <ele>13.8</ele>
        <time>1970-01-01T02:00:42.000Z</time>
      </trkpt>
      <trkpt lat="42.311548" lon="-8.816588">
        <ele>14</ele>
        <time>1970-01-01T02:00:43.000Z</time>
      </trkpt>
      <trkpt lat="42.311543" lon="-8.816575">
        <ele>14</ele>
        <time>1970-01-01T02:00:44.000Z</time>
      </trkpt>
      <trkpt lat="42.311538" lon="-8.816554">
        <ele>14</ele>
        <time>1970-01-01T02:00:45.000Z</time>
      </trkpt>
      <trkpt lat="42.311526" lon="-8.816531">
        <ele>14</ele>
        <time>1970-01-01T02:00:46.000Z</time>
      </trkpt>
      <trkpt lat="42.311518" lon="-8.816521">
        <ele>14.2</ele>
        <time>1970-01-01T02:00:47.000Z</time>
      </trkpt>
      <trkpt lat="42.311507" lon="-8.816518">
        <ele>14.6</ele>
        <time>1970-01-01T02:00:48.000Z</time>
      </trkpt>
      <trkpt lat="42.311499" lon="-8.816518">
        <ele>14.8</ele>
        <time>1970-01-01T02:00:49.000Z</time>
      </trkpt>
      <trkpt lat="42.311495" lon="-8.816515">
        <ele>14.6</ele>
        <time>1970-01-01T02:00:50.000Z</time>
      </trkpt>
      <trkpt lat="42.311488" lon="-8.816504">
        <ele>14.8</ele>
        <time>1970-01-01T02:00:51.000Z</time>
      </trkpt>
      <trkpt lat="42.311481" lon="-8.816492">
        <ele>14.8</ele>
        <time>1970-01-01T02:00:52.000Z</time>
      </trkpt>
      <trkpt lat="42.311467" lon="-8.816482">
        <ele>15.2</ele>
        <time>1970-01-01T02:00:53.000Z</time>
      </trkpt>
      <trkpt lat="42.311453" lon="-8.816473">
        <ele>15</ele>
        <time>1970-01-01T02:00:54.000Z</time>
      </trkpt>
      <trkpt lat="42.311435" lon="-8.816468">
        <ele>15.4</ele>
        <time>1970-01-01T02:00:55.000Z</time>
      </trkpt>
      <trkpt lat="42.311423" lon="-8.816462">
        <ele>15.6</ele>
        <time>1970-01-01T02:00:56.000Z</time>
      </trkpt>
      <trkpt lat="42.311412" lon="-8.816459">
        <ele>15.8</ele>
        <time>1970-01-01T02:00:57.000Z</time>
      </trkpt>
      <trkpt lat="42.311402" lon="-8.816455">
        <ele>16</ele>
        <time>1970-01-01T02:00:58.000Z</time>
      </trkpt>
      <trkpt lat="42.311391" lon="-8.816445">
        <ele>15.8</ele>
        <time>1970-01-01T02:00:59.000Z</time>
      </trkpt>
      <trkpt lat="42.311374" lon="-8.816429">
        <ele>15.8</ele>
        <time>1970-01-01T02:01:00.000Z</time>
      </trkpt>
      <trkpt lat="42.311361" lon="-8.816417">
        <ele>15.8</ele>
        <time>1970-01-01T02:01:01.000Z</time>
      </trkpt>
      <trkpt lat="42.311352" lon="-8.816407">
        <ele>16</ele>
        <time>1970-01-01T02:01:02.000Z</time>
      </trkpt>
      <trkpt lat="42.311345" lon="-8.816399">
        <ele>16</ele>
        <time>1970-01-01T02:01:03.000Z</time>
      </trkpt>
      <trkpt lat="42.311336" lon="-8.816383">
        <ele>16</ele>
        <time>1970-01-01T02:01:04.000Z</time>
      </trkpt>
      <trkpt lat="42.311328" lon="-8.816371">
        <ele>15.8</ele>
        <time>1970-01-01T02:01:05.000Z</time>
      </trkpt>
      <trkpt lat="42.31132" lon="-8.816353">
        <ele>15.8</ele>
        <time>1970-01-01T02:01:06.000Z</time>
      </trkpt>
      <trkpt lat="42.311311" lon="-8.816341">
        <ele>15.6</ele>
        <time>1970-01-01T02:01:07.000Z</time>
      </trkpt>
      <trkpt lat="42.311302" lon="-8.816328">
        <ele>15.4</ele>
        <time>1970-01-01T02:01:08.000Z</time>
      </trkpt>
      <trkpt lat="42.311293" lon="-8.816316">
        <ele>15.4</ele>
        <time>1970-01-01T02:01:09.000Z</time>
      </trkpt>
      <trkpt lat="42.311285" lon="-8.816306">
        <ele>15.2</ele>
        <time>1970-01-01T02:01:10.000Z</time>
      </trkpt>
      <trkpt lat="42.311276" lon="-8.816292">
        <ele>15.4</ele>
        <time>1970-01-01T02:01:11.000Z</time>
      </trkpt>
      <trkpt lat="42.311266" lon="-8.816286">
        <ele>15.2</ele>
        <time>1970-01-01T02:01:12.000Z</time>
      </trkpt>
      <trkpt lat="42.311255" lon="-8.816281">
        <ele>15.2</ele>
        <time>1970-01-01T02:01:13.000Z</time>
      </trkpt>
      <trkpt lat="42.311241" lon="-8.816273">
        <ele>15.2</ele>
        <time>1970-01-01T02:01:14.000Z</time>
      </trkpt>
      <trkpt lat="42.311224" lon="-8.816271">
        <ele>15</ele>
        <time>1970-01-01T02:01:15.000Z</time>
      </trkpt>
      <trkpt lat="42.311215" lon="-8.816263">
        <ele>14.8</ele>
        <time>1970-01-01T02:01:16.000Z</time>
      </trkpt>
      <trkpt lat="42.311202" lon="-8.816259">
        <ele>14.6</ele>
        <time>1970-01-01T02:01:17.000Z</time>
      </trkpt>
      <trkpt lat="42.311191" lon="-8.816263">
        <ele>14.6</ele>
        <time>1970-01-01T02:01:18.000Z</time>
      </trkpt>
      <trkpt lat="42.311181" lon="-8.816261">
        <ele>14.8</ele>
        <time>1970-01-01T02:01:19.000Z</time>
      </trkpt>
      <trkpt lat="42.311171" lon="-8.816255">
        <ele>14.6</ele>
        <time>1970-01-01T02:01:20.000Z</time>
      </trkpt>
      <trkpt lat="42.311163" lon="-8.816245">
        <ele>14.6</ele>
        <time>1970-01-01T02:01:21.000Z</time>
      </trkpt>
      <trkpt lat="42.31115" lon="-8.816244">
        <ele>14.8</ele>
        <time>1970-01-01T02:01:22.000Z</time>
      </trkpt>
      <trkpt lat="42.311141" lon="-8.816237">
        <ele>14.8</ele>
        <time>1970-01-01T02:01:23.000Z</time>
      </trkpt>
      <trkpt lat="42.31113" lon="-8.81622">
        <ele>14.8</ele>
        <time>1970-01-01T02:01:24.000Z</time>
      </trkpt>
      <trkpt lat="42.311118" lon="-8.816206">
        <ele>14.8</ele>
        <time>1970-01-01T02:01:25.000Z</time>
      </trkpt>
      <trkpt lat="42.311102" lon="-8.816193">
        <ele>14.8</ele>
        <time>1970-01-01T02:01:26.000Z</time>
      </trkpt>
      <trkpt lat="42.311085" lon="-8.816188">
        <ele>14.8</ele>
        <time>1970-01-01T02:01:27.000Z</time>
      </trkpt>
      <trkpt lat="42.311072" lon="-8.816189">
        <ele>14.8</ele>
        <time>1970-01-01T02:01:28.000Z</time>
      </trkpt>
      <trkpt lat="42.311061" lon="-8.816192">
        <ele>14.8</ele>
        <time>1970-01-01T02:01:29.000Z</time>
      </trkpt>
      <trkpt lat="42.311053" lon="-8.816195">
        <ele>14.8</ele>
        <time>1970-01-01T02:01:30.000Z</time>
      </trkpt>
      <trkpt lat="42.311045" lon="-8.816195">
        <ele>14.6</ele>
        <time>1970-01-01T02:01:31.000Z</time>
      </trkpt>
      <trkpt lat="42.311035" lon="-8.816192">
        <ele>14.4</ele>
        <time>1970-01-01T02:01:32.000Z</time>
      </trkpt>
      <trkpt lat="42.311022" lon="-8.816193">
        <ele>14.4</ele>
        <time>1970-01-01T02:01:33.000Z</time>
      </trkpt>
      <trkpt lat="42.31101" lon="-8.816195">
        <ele>14.2</ele>
        <time>1970-01-01T02:01:34.000Z</time>
      </trkpt>
      <trkpt lat="42.310997" lon="-8.816197">
        <ele>13.8</ele>
        <time>1970-01-01T02:01:35.000Z</time>
      </trkpt>
      <trkpt lat="42.310983" lon="-8.816202">
        <ele>13.8</ele>
        <time>1970-01-01T02:01:36.000Z</time>
      </trkpt>
      <trkpt lat="42.31097" lon="-8.816208">
        <ele>13.6</ele>
        <time>1970-01-01T02:01:37.000Z</time>
      </trkpt>
      <trkpt lat="42.31096" lon="-8.816212">
        <ele>13.6</ele>
        <time>1970-01-01T02:01:38.000Z</time>
      </trkpt>
      <trkpt lat="42.310951" lon="-8.816212">
        <ele>13.6</ele>
        <time>1970-01-01T02:01:39.000Z</time>
      </trkpt>
      <trkpt lat="42.310943" lon="-8.816211">
        <ele>13.8</ele>
        <time>1970-01-01T02:01:40.000Z</time>
      </trkpt>
      <trkpt lat="42.310934" lon="-8.816213">
        <ele>14</ele>
        <time>1970-01-01T02:01:41.000Z</time>
      </trkpt>
      <trkpt lat="42.310924" lon="-8.816217">
        <ele>14</ele>
        <time>1970-01-01T02:01:42.000Z</time>
      </trkpt>
      <trkpt lat="42.310917" lon="-8.81622">
        <ele>14.2</ele>
        <time>1970-01-01T02:01:43.000Z</time>
      </trkpt>
      <trkpt lat="42.310908" lon="-8.81622">
        <ele>14.2</ele>
        <time>1970-01-01T02:01:44.000Z</time>
      </trkpt>
      <trkpt lat="42.310898" lon="-8.816218">
        <ele>14.2</ele>
        <time>1970-01-01T02:01:45.000Z</time>
      </trkpt>
      <trkpt lat="42.310886" lon="-8.816214">
        <ele>14.4</ele>
        <time>1970-01-01T02:01:46.000Z</time>
      </trkpt>
      <trkpt lat="42.310874" lon="-8.816211">
        <ele>14.6</ele>
        <time>1970-01-01T02:01:47.000Z</time>
      </trkpt>
      <trkpt lat="42.310864" lon="-8.816208">
        <ele>14.6</ele>
        <time>1970-01-01T02:01:48.000Z</time>
      </trkpt>
      <trkpt lat="42.310853" lon="-8.816205">
        <ele>14.2</ele>
        <time>1970-01-01T02:01:49.000Z</time>
      </trkpt>
      <trkpt lat="42.310842" lon="-8.816203">
        <ele>14</ele>
        <time>1970-01-01T02:01:50.000Z</time>
      </trkpt>
      <trkpt lat="42.310827" lon="-8.816199">
        <ele>14</ele>
        <time>1970-01-01T02:01:51.000Z</time>
      </trkpt>
      <trkpt lat="42.310816" lon="-8.816196">
        <ele>13.8</ele>
        <time>1970-01-01T02:01:52.000Z</time>
      </trkpt>
      <trkpt lat="42.310802" lon="-8.816195">
        <ele>13.8</ele>
        <time>1970-01-01T02:01:53.000Z</time>
      </trkpt>
      <trkpt lat="42.31079" lon="-8.816198">
        <ele>13.8</ele>
        <time>1970-01-01T02:01:54.000Z</time>
      </trkpt>
      <trkpt lat="42.310778" lon="-8.816199">
        <ele>13.8</ele>
        <time>1970-01-01T02:01:55.000Z</time>
      </trkpt>
      <trkpt lat="42.310764" lon="-8.816201">
        <ele>13.8</ele>
        <time>1970-01-01T02:01:56.000Z</time>
      </trkpt>
      <trkpt lat="42.310752" lon="-8.816202">
        <ele>13.8</ele>
        <time>1970-01-01T02:01:57.000Z</time>
      </trkpt>
      <trkpt lat="42.310739" lon="-8.816204">
        <ele>13.8</ele>
        <time>1970-01-01T02:01:58.000Z</time>
      </trkpt>
      <trkpt lat="42.310724" lon="-8.816207">
        <ele>14</ele>
        <time>1970-01-01T02:01:59.000Z</time>
      </trkpt>
      <trkpt lat="42.310707" lon="-8.816209">
        <ele>14</ele>
        <time>1970-01-01T02:02:00.000Z</time>
      </trkpt>
      <trkpt lat="42.310691" lon="-8.816212">
        <ele>13.8</ele>
        <time>1970-01-01T02:02:01.000Z</time>
      </trkpt>
      <trkpt lat="42.310676" lon="-8.816217">
        <ele>13.8</ele>
        <time>1970-01-01T02:02:02.000Z</time>
      </trkpt>
      <trkpt lat="42.310661" lon="-8.816224">
        <ele>13.8</ele>
        <time>1970-01-01T02:02:03.000Z</time>
      </trkpt>
      <trkpt lat="42.310649" lon="-8.816231">
        <ele>13.8</ele>
        <time>1970-01-01T02:02:04.000Z</time>
      </trkpt>
      <trkpt lat="42.310637" lon="-8.816233">
        <ele>14</ele>
        <time>1970-01-01T02:02:05.000Z</time>
      </trkpt>
      <trkpt lat="42.310619" lon="-8.816234">
        <ele>14</ele>
        <time>1970-01-01T02:02:06.000Z</time>
      </trkpt>
      <trkpt lat="42.310598" lon="-8.816231">
        <ele>13.8</ele>
        <time>1970-01-01T02:02:07.000Z</time>
      </trkpt>
      <trkpt lat="42.310579" lon="-8.816232">
        <ele>13.8</ele>
        <time>1970-01-01T02:02:08.000Z</time>
      </trkpt>
      <trkpt lat="42.310564" lon="-8.816231">
        <ele>13.8</ele>
        <time>1970-01-01T02:02:09.000Z</time>
      </trkpt>
      <trkpt lat="42.310552" lon="-8.816226">
        <ele>13.8</ele>
        <time>1970-01-01T02:02:10.000Z</time>
      </trkpt>
      <trkpt lat="42.310543" lon="-8.816225">
        <ele>13.8</ele>
        <time>1970-01-01T02:02:11.000Z</time>
      </trkpt>
      <trkpt lat="42.310531" lon="-8.816219">
        <ele>13.6</ele>
        <time>1970-01-01T02:02:12.000Z</time>
      </trkpt>
      <trkpt lat="42.31052" lon="-8.816216">
        <ele>13.4</ele>
        <time>1970-01-01T02:02:13.000Z</time>
      </trkpt>
      <trkpt lat="42.310505" lon="-8.816212">
        <ele>13.4</ele>
        <time>1970-01-01T02:02:14.000Z</time>
      </trkpt>
      <trkpt lat="42.310491" lon="-8.816208">
        <ele>13.6</ele>
        <time>1970-01-01T02:02:15.000Z</time>
      </trkpt>
      <trkpt lat="42.310478" lon="-8.816209">
        <ele>13.6</ele>
        <time>1970-01-01T02:02:16.000Z</time>
      </trkpt>
      <trkpt lat="42.310471" lon="-8.81621">
        <ele>13.6</ele>
        <time>1970-01-01T02:02:17.000Z</time>
      </trkpt>
      <trkpt lat="42.310466" lon="-8.816207">
        <ele>13.4</ele>
        <time>1970-01-01T02:02:18.000Z</time>
      </trkpt>
      <trkpt lat="42.310449" lon="-8.816211">
        <ele>13.4</ele>
        <time>1970-01-01T02:02:19.000Z</time>
      </trkpt>
      <trkpt lat="42.310428" lon="-8.816213">
        <ele>13.4</ele>
        <time>1970-01-01T02:02:20.000Z</time>
      </trkpt>
      <trkpt lat="42.310411" lon="-8.81621">
        <ele>13.4</ele>
        <time>1970-01-01T02:02:21.000Z</time>
      </trkpt>
      <trkpt lat="42.310398" lon="-8.816209">
        <ele>13.4</ele>
        <time>1970-01-01T02:02:22.000Z</time>
      </trkpt>
      <trkpt lat="42.310384" lon="-8.816211">
        <ele>13.4</ele>
        <time>1970-01-01T02:02:23.000Z</time>
      </trkpt>
      <trkpt lat="42.310371" lon="-8.816211">
        <ele>13.2</ele>
        <time>1970-01-01T02:02:24.000Z</time>
      </trkpt>
      <trkpt lat="42.310359" lon="-8.816211">
        <ele>13.2</ele>
        <time>1970-01-01T02:02:25.000Z</time>
      </trkpt>
      <trkpt lat="42.310346" lon="-8.816213">
        <ele>13.2</ele>
        <time>1970-01-01T02:02:26.000Z</time>
      </trkpt>
      <trkpt lat="42.310333" lon="-8.816219">
        <ele>13</ele>
        <time>1970-01-01T02:02:27.000Z</time>
      </trkpt>
      <trkpt lat="42.31032" lon="-8.816221">
        <ele>12.8</ele>
        <time>1970-01-01T02:02:28.000Z</time>
      </trkpt>
      <trkpt lat="42.310306" lon="-8.816226">
        <ele>12.6</ele>
        <time>1970-01-01T02:02:29.000Z</time>
      </trkpt>
      <trkpt lat="42.310292" lon="-8.816228">
        <ele>12.6</ele>
        <time>1970-01-01T02:02:30.000Z</time>
      </trkpt>
      <trkpt lat="42.310277" lon="-8.816231">
        <ele>12.4</ele>
        <time>1970-01-01T02:02:31.000Z</time>
      </trkpt>
      <trkpt lat="42.310262" lon="-8.816235">
        <ele>12.2</ele>
        <time>1970-01-01T02:02:32.000Z</time>
      </trkpt>
      <trkpt lat="42.310248" lon="-8.816237">
        <ele>12.6</ele>
        <time>1970-01-01T02:02:33.000Z</time>
      </trkpt>
      <trkpt lat="42.310236" lon="-8.816235">
        <ele>12.6</ele>
        <time>1970-01-01T02:02:34.000Z</time>
      </trkpt>
      <trkpt lat="42.310223" lon="-8.816235">
        <ele>12.6</ele>
        <time>1970-01-01T02:02:35.000Z</time>
      </trkpt>
      <trkpt lat="42.31021" lon="-8.816234">
        <ele>12.4</ele>
        <time>1970-01-01T02:02:36.000Z</time>
      </trkpt>
      <trkpt lat="42.310195" lon="-8.816234">
        <ele>12.4</ele>
        <time>1970-01-01T02:02:37.000Z</time>
      </trkpt>
      <trkpt lat="42.310183" lon="-8.816234">
        <ele>12.4</ele>
        <time>1970-01-01T02:02:38.000Z</time>
      </trkpt>
      <trkpt lat="42.31017" lon="-8.816238">
        <ele>12.4</ele>
        <time>1970-01-01T02:02:39.000Z</time>
      </trkpt>
      <trkpt lat="42.310158" lon="-8.816243">
        <ele>12.4</ele>
        <time>1970-01-01T02:02:40.000Z</time>
      </trkpt>
      <trkpt lat="42.310144" lon="-8.81625">
        <ele>12.4</ele>
        <time>1970-01-01T02:02:41.000Z</time>
      </trkpt>
      <trkpt lat="42.31013" lon="-8.816254">
        <ele>12.6</ele>
        <time>1970-01-01T02:02:42.000Z</time>
      </trkpt>
      <trkpt lat="42.310115" lon="-8.816258">
        <ele>12.8</ele>
        <time>1970-01-01T02:02:43.000Z</time>
      </trkpt>
      <trkpt lat="42.3101" lon="-8.816257">
        <ele>13</ele>
        <time>1970-01-01T02:02:44.000Z</time>
      </trkpt>
      <trkpt lat="42.310084" lon="-8.816262">
        <ele>13</ele>
        <time>1970-01-01T02:02:45.000Z</time>
      </trkpt>
      <trkpt lat="42.310072" lon="-8.816265">
        <ele>12.8</ele>
        <time>1970-01-01T02:02:46.000Z</time>
      </trkpt>
      <trkpt lat="42.310063" lon="-8.816263">
        <ele>12.8</ele>
        <time>1970-01-01T02:02:47.000Z</time>
      </trkpt>
      <trkpt lat="42.310056" lon="-8.816264">
        <ele>12.8</ele>
        <time>1970-01-01T02:02:48.000Z</time>
      </trkpt>
      <trkpt lat="42.310048" lon="-8.816272">
        <ele>12.8</ele>
        <time>1970-01-01T02:02:49.000Z</time>
      </trkpt>
      <trkpt lat="42.310042" lon="-8.816281">
        <ele>12.8</ele>
        <time>1970-01-01T02:02:50.000Z</time>
      </trkpt>
      <trkpt lat="42.310035" lon="-8.816288">
        <ele>12.6</ele>
        <time>1970-01-01T02:02:51.000Z</time>
      </trkpt>
      <trkpt lat="42.310025" lon="-8.816289">
        <ele>12.4</ele>
        <time>1970-01-01T02:02:52.000Z</time>
      </trkpt>
      <trkpt lat="42.310014" lon="-8.816287">
        <ele>12.2</ele>
        <time>1970-01-01T02:02:53.000Z</time>
      </trkpt>
      <trkpt lat="42.310001" lon="-8.816284">
        <ele>12.2</ele>
        <time>1970-01-01T02:02:54.000Z</time>
      </trkpt>
      <trkpt lat="42.309991" lon="-8.81628">
        <ele>12.4</ele>
        <time>1970-01-01T02:02:55.000Z</time>
      </trkpt>
      <trkpt lat="42.309978" lon="-8.816277">
        <ele>12.6</ele>
        <time>1970-01-01T02:02:56.000Z</time>
      </trkpt>
      <trkpt lat="42.309962" lon="-8.816283">
        <ele>12.8</ele>
        <time>1970-01-01T02:02:57.000Z</time>
      </trkpt>
      <trkpt lat="42.309949" lon="-8.816293">
        <ele>12.6</ele>
        <time>1970-01-01T02:02:58.000Z</time>
      </trkpt>
      <trkpt lat="42.30994" lon="-8.816301">
        <ele>12.6</ele>
        <time>1970-01-01T02:02:59.000Z</time>
      </trkpt>
      <trkpt lat="42.309934" lon="-8.816313">
        <ele>12.4</ele>
        <time>1970-01-01T02:03:00.000Z</time>
      </trkpt>
      <trkpt lat="42.309928" lon="-8.816324">
        <ele>12.4</ele>
        <time>1970-01-01T02:03:01.000Z</time>
      </trkpt>
      <trkpt lat="42.309926" lon="-8.816336">
        <ele>12.2</ele>
        <time>1970-01-01T02:03:02.000Z</time>
      </trkpt>
      <trkpt lat="42.309922" lon="-8.816348">
        <ele>12.2</ele>
        <time>1970-01-01T02:03:03.000Z</time>
      </trkpt>
      <trkpt lat="42.309916" lon="-8.81636">
        <ele>12</ele>
        <time>1970-01-01T02:03:04.000Z</time>
      </trkpt>
      <trkpt lat="42.309905" lon="-8.81638">
        <ele>11.8</ele>
        <time>1970-01-01T02:03:05.000Z</time>
      </trkpt>
      <trkpt lat="42.309903" lon="-8.816401">
        <ele>11.6</ele>
        <time>1970-01-01T02:03:06.000Z</time>
      </trkpt>
      <trkpt lat="42.309901" lon="-8.816417">
        <ele>11.4</ele>
        <time>1970-01-01T02:03:07.000Z</time>
      </trkpt>
      <trkpt lat="42.309899" lon="-8.816432">
        <ele>11.4</ele>
        <time>1970-01-01T02:03:08.000Z</time>
      </trkpt>
      <trkpt lat="42.309897" lon="-8.816449">
        <ele>11.6</ele>
        <time>1970-01-01T02:03:09.000Z</time>
      </trkpt>
      <trkpt lat="42.309892" lon="-8.816465">
        <ele>11.8</ele>
        <time>1970-01-01T02:03:10.000Z</time>
      </trkpt>
      <trkpt lat="42.309889" lon="-8.816482">
        <ele>12</ele>
        <time>1970-01-01T02:03:11.000Z</time>
      </trkpt>
      <trkpt lat="42.309889" lon="-8.816497">
        <ele>12</ele>
        <time>1970-01-01T02:03:12.000Z</time>
      </trkpt>
      <trkpt lat="42.309888" lon="-8.816513">
        <ele>12.4</ele>
        <time>1970-01-01T02:03:13.000Z</time>
      </trkpt>
      <trkpt lat="42.309883" lon="-8.81653">
        <ele>12.4</ele>
        <time>1970-01-01T02:03:14.000Z</time>
      </trkpt>
      <trkpt lat="42.309878" lon="-8.816545">
        <ele>12.4</ele>
        <time>1970-01-01T02:03:15.000Z</time>
      </trkpt>
      <trkpt lat="42.309875" lon="-8.816559">
        <ele>12.4</ele>
        <time>1970-01-01T02:03:16.000Z</time>
      </trkpt>
      <trkpt lat="42.309874" lon="-8.81657">
        <ele>12.2</ele>
        <time>1970-01-01T02:03:17.000Z</time>
      </trkpt>
      <trkpt lat="42.309874" lon="-8.816585">
        <ele>12.2</ele>
        <time>1970-01-01T02:03:18.000Z</time>
      </trkpt>
      <trkpt lat="42.309873" lon="-8.816603">
        <ele>12</ele>
        <time>1970-01-01T02:03:19.000Z</time>
      </trkpt>
      <trkpt lat="42.309873" lon="-8.816616">
        <ele>12</ele>
        <time>1970-01-01T02:03:20.000Z</time>
      </trkpt>
      <trkpt lat="42.309872" lon="-8.816627">
        <ele>12</ele>
        <time>1970-01-01T02:03:21.000Z</time>
      </trkpt>
      <trkpt lat="42.309869" lon="-8.816637">
        <ele>12</ele>
        <time>1970-01-01T02:03:22.000Z</time>
      </trkpt>
      <trkpt lat="42.309865" lon="-8.816648">
        <ele>12</ele>
        <time>1970-01-01T02:03:23.000Z</time>
      </trkpt>
      <trkpt lat="42.30986" lon="-8.81666">
        <ele>12</ele>
        <time>1970-01-01T02:03:24.000Z</time>
      </trkpt>
      <trkpt lat="42.309855" lon="-8.816676">
        <ele>12</ele>
        <time>1970-01-01T02:03:25.000Z</time>
      </trkpt>
      <trkpt lat="42.30985" lon="-8.816691">
        <ele>12</ele>
        <time>1970-01-01T02:03:26.000Z</time>
      </trkpt>
      <trkpt lat="42.309849" lon="-8.816702">
        <ele>12.2</ele>
        <time>1970-01-01T02:03:27.000Z</time>
      </trkpt>
      <trkpt lat="42.309849" lon="-8.816714">
        <ele>12.2</ele>
        <time>1970-01-01T02:03:28.000Z</time>
      </trkpt>
      <trkpt lat="42.309848" lon="-8.81673">
        <ele>12.6</ele>
        <time>1970-01-01T02:03:29.000Z</time>
      </trkpt>
      <trkpt lat="42.309849" lon="-8.816744">
        <ele>12.8</ele>
        <time>1970-01-01T02:03:30.000Z</time>
      </trkpt>
      <trkpt lat="42.309847" lon="-8.81676">
        <ele>13</ele>
        <time>1970-01-01T02:03:31.000Z</time>
      </trkpt>
      <trkpt lat="42.309844" lon="-8.816775">
        <ele>13</ele>
        <time>1970-01-01T02:03:32.000Z</time>
      </trkpt>
      <trkpt lat="42.309843" lon="-8.816787">
        <ele>13.2</ele>
        <time>1970-01-01T02:03:33.000Z</time>
      </trkpt>
      <trkpt lat="42.309842" lon="-8.816799">
        <ele>13.2</ele>
        <time>1970-01-01T02:03:34.000Z</time>
      </trkpt>
      <trkpt lat="42.30984" lon="-8.816814">
        <ele>13.2</ele>
        <time>1970-01-01T02:03:35.000Z</time>
      </trkpt>
      <trkpt lat="42.30984" lon="-8.816827">
        <ele>13</ele>
        <time>1970-01-01T02:03:36.000Z</time>
      </trkpt>
      <trkpt lat="42.30984" lon="-8.816836">
        <ele>12.8</ele>
        <time>1970-01-01T02:03:37.000Z</time>
      </trkpt>
      <trkpt lat="42.309837" lon="-8.81685">
        <ele>12.6</ele>
        <time>1970-01-01T02:03:38.000Z</time>
      </trkpt>
      <trkpt lat="42.309839" lon="-8.816859">
        <ele>12.6</ele>
        <time>1970-01-01T02:03:39.000Z</time>
      </trkpt>
      <trkpt lat="42.309843" lon="-8.816867">
        <ele>12.6</ele>
        <time>1970-01-01T02:03:40.000Z</time>
      </trkpt>
      <trkpt lat="42.309847" lon="-8.816877">
        <ele>12.8</ele>
        <time>1970-01-01T02:03:41.000Z</time>
      </trkpt>
      <trkpt lat="42.30985" lon="-8.816889">
        <ele>13.2</ele>
        <time>1970-01-01T02:03:42.000Z</time>
      </trkpt>
      <trkpt lat="42.309851" lon="-8.816904">
        <ele>13.4</ele>
        <time>1970-01-01T02:03:43.000Z</time>
      </trkpt>
      <trkpt lat="42.309848" lon="-8.816919">
        <ele>13.4</ele>
        <time>1970-01-01T02:03:44.000Z</time>
      </trkpt>
      <trkpt lat="42.309844" lon="-8.816936">
        <ele>13.4</ele>
        <time>1970-01-01T02:03:45.000Z</time>
      </trkpt>
      <trkpt lat="42.30984" lon="-8.816954">
        <ele>13.2</ele>
        <time>1970-01-01T02:03:46.000Z</time>
      </trkpt>
      <trkpt lat="42.309837" lon="-8.816969">
        <ele>13.4</ele>
        <time>1970-01-01T02:03:47.000Z</time>
      </trkpt>
      <trkpt lat="42.309832" lon="-8.816986">
        <ele>13.2</ele>
        <time>1970-01-01T02:03:48.000Z</time>
      </trkpt>
      <trkpt lat="42.309832" lon="-8.817004">
        <ele>13.2</ele>
        <time>1970-01-01T02:03:49.000Z</time>
      </trkpt>
      <trkpt lat="42.309833" lon="-8.81702">
        <ele>13.2</ele>
        <time>1970-01-01T02:03:50.000Z</time>
      </trkpt>
      <trkpt lat="42.309834" lon="-8.817034">
        <ele>13.2</ele>
        <time>1970-01-01T02:03:51.000Z</time>
      </trkpt>
      <trkpt lat="42.309834" lon="-8.817049">
        <ele>13</ele>
        <time>1970-01-01T02:03:52.000Z</time>
      </trkpt>
      <trkpt lat="42.309835" lon="-8.817068">
        <ele>13</ele>
        <time>1970-01-01T02:03:53.000Z</time>
      </trkpt>
      <trkpt lat="42.309834" lon="-8.817086">
        <ele>13</ele>
        <time>1970-01-01T02:03:54.000Z</time>
      </trkpt>
      <trkpt lat="42.309833" lon="-8.817102">
        <ele>12.8</ele>
        <time>1970-01-01T02:03:55.000Z</time>
      </trkpt>
      <trkpt lat="42.309832" lon="-8.817115">
        <ele>13.2</ele>
        <time>1970-01-01T02:03:56.000Z</time>
      </trkpt>
      <trkpt lat="42.309832" lon="-8.817128">
        <ele>13.4</ele>
        <time>1970-01-01T02:03:57.000Z</time>
      </trkpt>
      <trkpt lat="42.309831" lon="-8.817141">
        <ele>13.6</ele>
        <time>1970-01-01T02:03:58.000Z</time>
      </trkpt>
      <trkpt lat="42.309832" lon="-8.81716">
        <ele>13.6</ele>
        <time>1970-01-01T02:03:59.000Z</time>
      </trkpt>
      <trkpt lat="42.309831" lon="-8.817181">
        <ele>13.8</ele>
        <time>1970-01-01T02:04:00.000Z</time>
      </trkpt>
      <trkpt lat="42.309831" lon="-8.817203">
        <ele>13.6</ele>
        <time>1970-01-01T02:04:01.000Z</time>
      </trkpt>
      <trkpt lat="42.309831" lon="-8.81722">
        <ele>13.6</ele>
        <time>1970-01-01T02:04:02.000Z</time>
      </trkpt>
      <trkpt lat="42.309831" lon="-8.817235">
        <ele>13.6</ele>
        <time>1970-01-01T02:04:03.000Z</time>
      </trkpt>
      <trkpt lat="42.309835" lon="-8.817253">
        <ele>13.4</ele>
        <time>1970-01-01T02:04:04.000Z</time>
      </trkpt>
      <trkpt lat="42.309838" lon="-8.817275">
        <ele>13.4</ele>
        <time>1970-01-01T02:04:05.000Z</time>
      </trkpt>
      <trkpt lat="42.309838" lon="-8.817294">
        <ele>13.4</ele>
        <time>1970-01-01T02:04:06.000Z</time>
      </trkpt>
      <trkpt lat="42.309837" lon="-8.817311">
        <ele>13.4</ele>
        <time>1970-01-01T02:04:07.000Z</time>
      </trkpt>
      <trkpt lat="42.309836" lon="-8.817325">
        <ele>13.4</ele>
        <time>1970-01-01T02:04:08.000Z</time>
      </trkpt>
      <trkpt lat="42.309835" lon="-8.817342">
        <ele>13.4</ele>
        <time>1970-01-01T02:04:09.000Z</time>
      </trkpt>
      <trkpt lat="42.309833" lon="-8.817356">
        <ele>13.2</ele>
        <time>1970-01-01T02:04:10.000Z</time>
      </trkpt>
      <trkpt lat="42.30983" lon="-8.817372">
        <ele>13.4</ele>
        <time>1970-01-01T02:04:11.000Z</time>
      </trkpt>
      <trkpt lat="42.309827" lon="-8.817388">
        <ele>13.4</ele>
        <time>1970-01-01T02:04:12.000Z</time>
      </trkpt>
      <trkpt lat="42.309825" lon="-8.817404">
        <ele>13.4</ele>
        <time>1970-01-01T02:04:13.000Z</time>
      </trkpt>
      <trkpt lat="42.309822" lon="-8.817421">
        <ele>13.4</ele>
        <time>1970-01-01T02:04:14.000Z</time>
      </trkpt>
      <trkpt lat="42.309822" lon="-8.817436">
        <ele>13.2</ele>
        <time>1970-01-01T02:04:15.000Z</time>
      </trkpt>
      <trkpt lat="42.309821" lon="-8.817454">
        <ele>13.2</ele>
        <time>1970-01-01T02:04:16.000Z</time>
      </trkpt>
      <trkpt lat="42.309821" lon="-8.817468">
        <ele>13</ele>
        <time>1970-01-01T02:04:17.000Z</time>
      </trkpt>
      <trkpt lat="42.30982" lon="-8.81748">
        <ele>12.8</ele>
        <time>1970-01-01T02:04:18.000Z</time>
      </trkpt>
      <trkpt lat="42.309821" lon="-8.81749">
        <ele>12.8</ele>
        <time>1970-01-01T02:04:19.000Z</time>
      </trkpt>
      <trkpt lat="42.309824" lon="-8.817494">
        <ele>12.8</ele>
        <time>1970-01-01T02:04:20.000Z</time>
      </trkpt>
      <trkpt lat="42.309826" lon="-8.817493">
        <ele>12.8</ele>
        <time>1970-01-01T02:04:21.000Z</time>
      </trkpt>
      <trkpt lat="42.309826" lon="-8.817491">
        <ele>12.8</ele>
        <time>1970-01-01T02:04:22.000Z</time>
      </trkpt>
      <trkpt lat="42.309825" lon="-8.81749">
        <ele>12.8</ele>
        <time>1970-01-01T02:04:23.000Z</time>
      </trkpt>
      <trkpt lat="42.309823" lon="-8.817485">
        <ele>13</ele>
        <time>1970-01-01T02:04:24.000Z</time>
      </trkpt>
      <trkpt lat="42.309823" lon="-8.817482">
        <ele>13</ele>
        <time>1970-01-01T02:04:25.000Z</time>
      </trkpt>
      <trkpt lat="42.309828" lon="-8.817483">
        <ele>13</ele>
        <time>1970-01-01T02:04:26.000Z</time>
      </trkpt>
      <trkpt lat="42.309833" lon="-8.817489">
        <ele>12.8</ele>
        <time>1970-01-01T02:04:27.000Z</time>
      </trkpt>
      <trkpt lat="42.309834" lon="-8.817494">
        <ele>12.8</ele>
        <time>1970-01-01T02:04:28.000Z</time>
      </trkpt>
      <trkpt lat="42.309834" lon="-8.817495">
        <ele>12.8</ele>
        <time>1970-01-01T02:04:29.000Z</time>
      </trkpt>
      <trkpt lat="42.309835" lon="-8.817498">
        <ele>12.8</ele>
        <time>1970-01-01T02:04:30.000Z</time>
      </trkpt>
      <trkpt lat="42.309835" lon="-8.817499">
        <ele>12.8</ele>
        <time>1970-01-01T02:04:31.000Z</time>
      </trkpt>
      <trkpt lat="42.309837" lon="-8.817499">
        <ele>12.8</ele>
        <time>1970-01-01T02:04:32.000Z</time>
      </trkpt>
      <trkpt lat="42.309838" lon="-8.817502">
        <ele>12.6</ele>
        <time>1970-01-01T02:04:33.000Z</time>
      </trkpt>
      <trkpt lat="42.309842" lon="-8.817504">
        <ele>12.6</ele>
        <time>1970-01-01T02:04:34.000Z</time>
      </trkpt>
      <trkpt lat="42.309843" lon="-8.817506">
        <ele>12.8</ele>
        <time>1970-01-01T02:04:35.000Z</time>
      </trkpt>
      <trkpt lat="42.309844" lon="-8.817508">
        <ele>12.8</ele>
        <time>1970-01-01T02:04:36.000Z</time>
      </trkpt>
      <trkpt lat="42.309843" lon="-8.817509">
        <ele>12.6</ele>
        <time>1970-01-01T02:04:37.000Z</time>
      </trkpt>
      <trkpt lat="42.309841" lon="-8.81751">
        <ele>12.6</ele>
        <time>1970-01-01T02:04:38.000Z</time>
      </trkpt>
      <trkpt lat="42.309834" lon="-8.817509">
        <ele>12.8</ele>
        <time>1970-01-01T02:04:39.000Z</time>
      </trkpt>
      <trkpt lat="42.309828" lon="-8.817508">
        <ele>12.8</ele>
        <time>1970-01-01T02:04:40.000Z</time>
      </trkpt>
      <trkpt lat="42.309824" lon="-8.817508">
        <ele>12.8</ele>
        <time>1970-01-01T02:04:41.000Z</time>
      </trkpt>
      <trkpt lat="42.309818" lon="-8.817512">
        <ele>12.8</ele>
        <time>1970-01-01T02:04:42.000Z</time>
      </trkpt>
      <trkpt lat="42.309812" lon="-8.817519">
        <ele>12.8</ele>
        <time>1970-01-01T02:04:43.000Z</time>
      </trkpt>
      <trkpt lat="42.309812" lon="-8.817531">
        <ele>12.8</ele>
        <time>1970-01-01T02:04:44.000Z</time>
      </trkpt>
      <trkpt lat="42.309814" lon="-8.81754">
        <ele>12.8</ele>
        <time>1970-01-01T02:04:45.000Z</time>
      </trkpt>
      <trkpt lat="42.309816" lon="-8.817548">
        <ele>12.8</ele>
        <time>1970-01-01T02:04:46.000Z</time>
      </trkpt>
      <trkpt lat="42.309816" lon="-8.817555">
        <ele>12.8</ele>
        <time>1970-01-01T02:04:47.000Z</time>
      </trkpt>
      <trkpt lat="42.309814" lon="-8.817557">
        <ele>12.8</ele>
        <time>1970-01-01T02:04:48.000Z</time>
      </trkpt>
      <trkpt lat="42.309809" lon="-8.817557">
        <ele>12.8</ele>
        <time>1970-01-01T02:04:49.000Z</time>
      </trkpt>
      <trkpt lat="42.309807" lon="-8.817559">
        <ele>12.8</ele>
        <time>1970-01-01T02:04:50.000Z</time>
      </trkpt>
      <trkpt lat="42.309803" lon="-8.817569">
        <ele>12.6</ele>
        <time>1970-01-01T02:04:51.000Z</time>
      </trkpt>
      <trkpt lat="42.309795" lon="-8.817583">
        <ele>12.2</ele>
        <time>1970-01-01T02:04:52.000Z</time>
      </trkpt>
      <trkpt lat="42.30978" lon="-8.817592">
        <ele>12</ele>
        <time>1970-01-01T02:04:53.000Z</time>
      </trkpt>
      <trkpt lat="42.309766" lon="-8.817596">
        <ele>11.8</ele>
        <time>1970-01-01T02:04:54.000Z</time>
      </trkpt>
      <trkpt lat="42.309754" lon="-8.817598">
        <ele>12</ele>
        <time>1970-01-01T02:04:55.000Z</time>
      </trkpt>
      <trkpt lat="42.309744" lon="-8.817602">
        <ele>12</ele>
        <time>1970-01-01T02:04:56.000Z</time>
      </trkpt>
      <trkpt lat="42.309736" lon="-8.817614">
        <ele>11.8</ele>
        <time>1970-01-01T02:04:57.000Z</time>
      </trkpt>
      <trkpt lat="42.309732" lon="-8.817627">
        <ele>11.6</ele>
        <time>1970-01-01T02:04:58.000Z</time>
      </trkpt>
      <trkpt lat="42.309726" lon="-8.817639">
        <ele>11.8</ele>
        <time>1970-01-01T02:04:59.000Z</time>
      </trkpt>
      <trkpt lat="42.309716" lon="-8.817646">
        <ele>11.8</ele>
        <time>1970-01-01T02:05:00.000Z</time>
      </trkpt>
      <trkpt lat="42.309707" lon="-8.817649">
        <ele>11.6</ele>
        <time>1970-01-01T02:05:01.000Z</time>
      </trkpt>
      <trkpt lat="42.309695" lon="-8.817648">
        <ele>11.4</ele>
        <time>1970-01-01T02:05:02.000Z</time>
      </trkpt>
      <trkpt lat="42.309679" lon="-8.817645">
        <ele>11</ele>
        <time>1970-01-01T02:05:03.000Z</time>
      </trkpt>
      <trkpt lat="42.309665" lon="-8.817644">
        <ele>10.8</ele>
        <time>1970-01-01T02:05:04.000Z</time>
      </trkpt>
      <trkpt lat="42.309656" lon="-8.817647">
        <ele>10.8</ele>
        <time>1970-01-01T02:05:05.000Z</time>
      </trkpt>
      <trkpt lat="42.309647" lon="-8.817648">
        <ele>10.6</ele>
        <time>1970-01-01T02:05:06.000Z</time>
      </trkpt>
      <trkpt lat="42.309632" lon="-8.817647">
        <ele>10.4</ele>
        <time>1970-01-01T02:05:07.000Z</time>
      </trkpt>
      <trkpt lat="42.309619" lon="-8.817645">
        <ele>10.4</ele>
        <time>1970-01-01T02:05:08.000Z</time>
      </trkpt>
      <trkpt lat="42.309604" lon="-8.81764">
        <ele>10.4</ele>
        <time>1970-01-01T02:05:09.000Z</time>
      </trkpt>
      <trkpt lat="42.30959" lon="-8.817632">
        <ele>10.2</ele>
        <time>1970-01-01T02:05:10.000Z</time>
      </trkpt>
      <trkpt lat="42.30958" lon="-8.81763">
        <ele>10.2</ele>
        <time>1970-01-01T02:05:11.000Z</time>
      </trkpt>
      <trkpt lat="42.309572" lon="-8.817628">
        <ele>10.2</ele>
        <time>1970-01-01T02:05:12.000Z</time>
      </trkpt>
      <trkpt lat="42.309565" lon="-8.817628">
        <ele>10.2</ele>
        <time>1970-01-01T02:05:13.000Z</time>
      </trkpt>
      <trkpt lat="42.309552" lon="-8.817632">
        <ele>10.2</ele>
        <time>1970-01-01T02:05:14.000Z</time>
      </trkpt>
      <trkpt lat="42.309534" lon="-8.81764">
        <ele>10</ele>
        <time>1970-01-01T02:05:15.000Z</time>
      </trkpt>
      <trkpt lat="42.309519" lon="-8.817651">
        <ele>9.8</ele>
        <time>1970-01-01T02:05:16.000Z</time>
      </trkpt>
      <trkpt lat="42.309508" lon="-8.817656">
        <ele>9.2</ele>
        <time>1970-01-01T02:05:17.000Z</time>
      </trkpt>
      <trkpt lat="42.309497" lon="-8.817659">
        <ele>8.8</ele>
        <time>1970-01-01T02:05:18.000Z</time>
      </trkpt>
      <trkpt lat="42.309487" lon="-8.817661">
        <ele>8.8</ele>
        <time>1970-01-01T02:05:19.000Z</time>
      </trkpt>
      <trkpt lat="42.309479" lon="-8.817661">
        <ele>8.6</ele>
        <time>1970-01-01T02:05:20.000Z</time>
      </trkpt>
      <trkpt lat="42.309469" lon="-8.817659">
        <ele>8.8</ele>
        <time>1970-01-01T02:05:21.000Z</time>
      </trkpt>
      <trkpt lat="42.309458" lon="-8.817655">
        <ele>8.8</ele>
        <time>1970-01-01T02:05:22.000Z</time>
      </trkpt>
      <trkpt lat="42.309446" lon="-8.81765">
        <ele>8.6</ele>
        <time>1970-01-01T02:05:23.000Z</time>
      </trkpt>
      <trkpt lat="42.309432" lon="-8.817646">
        <ele>8.4</ele>
        <time>1970-01-01T02:05:24.000Z</time>
      </trkpt>
      <trkpt lat="42.309423" lon="-8.817642">
        <ele>8.6</ele>
        <time>1970-01-01T02:05:25.000Z</time>
      </trkpt>
      <trkpt lat="42.309416" lon="-8.817635">
        <ele>8.6</ele>
        <time>1970-01-01T02:05:26.000Z</time>
      </trkpt>
      <trkpt lat="42.30941" lon="-8.817624">
        <ele>8.4</ele>
        <time>1970-01-01T02:05:27.000Z</time>
      </trkpt>
      <trkpt lat="42.309402" lon="-8.81761">
        <ele>8.4</ele>
        <time>1970-01-01T02:05:28.000Z</time>
      </trkpt>
      <trkpt lat="42.309397" lon="-8.817598">
        <ele>8.4</ele>
        <time>1970-01-01T02:05:29.000Z</time>
      </trkpt>
      <trkpt lat="42.30939" lon="-8.817587">
        <ele>8.2</ele>
        <time>1970-01-01T02:05:30.000Z</time>
      </trkpt>
      <trkpt lat="42.309383" lon="-8.817574">
        <ele>8.2</ele>
        <time>1970-01-01T02:05:31.000Z</time>
      </trkpt>
      <trkpt lat="42.309375" lon="-8.81756">
        <ele>8.2</ele>
        <time>1970-01-01T02:05:32.000Z</time>
      </trkpt>
      <trkpt lat="42.309367" lon="-8.817547">
        <ele>8</ele>
        <time>1970-01-01T02:05:33.000Z</time>
      </trkpt>
      <trkpt lat="42.309359" lon="-8.817533">
        <ele>8</ele>
        <time>1970-01-01T02:05:34.000Z</time>
      </trkpt>
      <trkpt lat="42.309351" lon="-8.817524">
        <ele>7.8</ele>
        <time>1970-01-01T02:05:35.000Z</time>
      </trkpt>
      <trkpt lat="42.309341" lon="-8.81752">
        <ele>7.8</ele>
        <time>1970-01-01T02:05:36.000Z</time>
      </trkpt>
      <trkpt lat="42.309333" lon="-8.817519">
        <ele>7.8</ele>
        <time>1970-01-01T02:05:37.000Z</time>
      </trkpt>
      <trkpt lat="42.309327" lon="-8.817524">
        <ele>7.6</ele>
        <time>1970-01-01T02:05:38.000Z</time>
      </trkpt>
      <trkpt lat="42.309321" lon="-8.81754">
        <ele>7.4</ele>
        <time>1970-01-01T02:05:39.000Z</time>
      </trkpt>
      <trkpt lat="42.309319" lon="-8.817564">
        <ele>7.4</ele>
        <time>1970-01-01T02:05:40.000Z</time>
      </trkpt>
      <trkpt lat="42.309313" lon="-8.817584">
        <ele>7.2</ele>
        <time>1970-01-01T02:05:41.000Z</time>
      </trkpt>
      <trkpt lat="42.309306" lon="-8.817593">
        <ele>7</ele>
        <time>1970-01-01T02:05:42.000Z</time>
      </trkpt>
      <trkpt lat="42.309301" lon="-8.817604">
        <ele>7</ele>
        <time>1970-01-01T02:05:43.000Z</time>
      </trkpt>
      <trkpt lat="42.309298" lon="-8.817621">
        <ele>7</ele>
        <time>1970-01-01T02:05:44.000Z</time>
      </trkpt>
      <trkpt lat="42.309296" lon="-8.817628">
        <ele>7</ele>
        <time>1970-01-01T02:05:45.000Z</time>
      </trkpt>
      <trkpt lat="42.309297" lon="-8.81763">
        <ele>7</ele>
        <time>1970-01-01T02:05:46.000Z</time>
      </trkpt>
      <trkpt lat="42.309296" lon="-8.817626">
        <ele>6.8</ele>
        <time>1970-01-01T02:05:47.000Z</time>
      </trkpt>
      <trkpt lat="42.309296" lon="-8.817627">
        <ele>6.6</ele>
        <time>1970-01-01T02:05:48.000Z</time>
      </trkpt>
      <trkpt lat="42.309292" lon="-8.817628">
        <ele>6.4</ele>
        <time>1970-01-01T02:05:49.000Z</time>
      </trkpt>
      <trkpt lat="42.30929" lon="-8.817625">
        <ele>6.2</ele>
        <time>1970-01-01T02:05:50.000Z</time>
      </trkpt>
      <trkpt lat="42.309286" lon="-8.817624">
        <ele>5.6</ele>
        <time>1970-01-01T02:05:51.000Z</time>
      </trkpt>
      <trkpt lat="42.309276" lon="-8.81762">
        <ele>5.2</ele>
        <time>1970-01-01T02:05:52.000Z</time>
      </trkpt>
      <trkpt lat="42.309265" lon="-8.81761">
        <ele>4.6</ele>
        <time>1970-01-01T02:05:53.000Z</time>
      </trkpt>
      <trkpt lat="42.309257" lon="-8.817596">
        <ele>4.4</ele>
        <time>1970-01-01T02:05:54.000Z</time>
      </trkpt>
      <trkpt lat="42.309247" lon="-8.817582">
        <ele>4.2</ele>
        <time>1970-01-01T02:05:55.000Z</time>
      </trkpt>
      <trkpt lat="42.309234" lon="-8.817574">
        <ele>4</ele>
        <time>1970-01-01T02:05:56.000Z</time>
      </trkpt>
      <trkpt lat="42.309223" lon="-8.817563">
        <ele>3.6</ele>
        <time>1970-01-01T02:05:57.000Z</time>
      </trkpt>
      <trkpt lat="42.309218" lon="-8.817557">
        <ele>3.6</ele>
        <time>1970-01-01T02:05:58.000Z</time>
      </trkpt>
      <trkpt lat="42.309212" lon="-8.817548">
        <ele>3.6</ele>
        <time>1970-01-01T02:05:59.000Z</time>
      </trkpt>
      <trkpt lat="42.309207" lon="-8.817532">
        <ele>3.6</ele>
        <time>1970-01-01T02:06:00.000Z</time>
      </trkpt>
      <trkpt lat="42.309199" lon="-8.817519">
        <ele>3.6</ele>
        <time>1970-01-01T02:06:01.000Z</time>
      </trkpt>
      <trkpt lat="42.309193" lon="-8.81751">
        <ele>3.4</ele>
        <time>1970-01-01T02:06:02.000Z</time>
      </trkpt>
      <trkpt lat="42.30919" lon="-8.817502">
        <ele>3.2</ele>
        <time>1970-01-01T02:06:03.000Z</time>
      </trkpt>
      <trkpt lat="42.309184" lon="-8.817491">
        <ele>3</ele>
        <time>1970-01-01T02:06:04.000Z</time>
      </trkpt>
      <trkpt lat="42.309179" lon="-8.817477">
        <ele>3</ele>
        <time>1970-01-01T02:06:05.000Z</time>
      </trkpt>
      <trkpt lat="42.309176" lon="-8.817463">
        <ele>3</ele>
        <time>1970-01-01T02:06:06.000Z</time>
      </trkpt>
      <trkpt lat="42.309173" lon="-8.817447">
        <ele>2.8</ele>
        <time>1970-01-01T02:06:07.000Z</time>
      </trkpt>
      <trkpt lat="42.309169" lon="-8.817437">
        <ele>2.8</ele>
        <time>1970-01-01T02:06:08.000Z</time>
      </trkpt>
      <trkpt lat="42.309161" lon="-8.817427">
        <ele>2.8</ele>
        <time>1970-01-01T02:06:09.000Z</time>
      </trkpt>
      <trkpt lat="42.309147" lon="-8.817416">
        <ele>3</ele>
        <time>1970-01-01T02:06:10.000Z</time>
      </trkpt>
      <trkpt lat="42.309133" lon="-8.817405">
        <ele>3</ele>
        <time>1970-01-01T02:06:11.000Z</time>
      </trkpt>
      <trkpt lat="42.309122" lon="-8.817389">
        <ele>3</ele>
        <time>1970-01-01T02:06:12.000Z</time>
      </trkpt>
      <trkpt lat="42.309111" lon="-8.817371">
        <ele>3</ele>
        <time>1970-01-01T02:06:13.000Z</time>
      </trkpt>
      <trkpt lat="42.309101" lon="-8.81735">
        <ele>3</ele>
        <time>1970-01-01T02:06:14.000Z</time>
      </trkpt>
      <trkpt lat="42.309091" lon="-8.817334">
        <ele>3</ele>
        <time>1970-01-01T02:06:15.000Z</time>
      </trkpt>
      <trkpt lat="42.309088" lon="-8.817326">
        <ele>2.8</ele>
        <time>1970-01-01T02:06:16.000Z</time>
      </trkpt>
      <trkpt lat="42.309088" lon="-8.817322">
        <ele>2.6</ele>
        <time>1970-01-01T02:06:17.000Z</time>
      </trkpt>
      <trkpt lat="42.309085" lon="-8.81732">
        <ele>2.4</ele>
        <time>1970-01-01T02:06:18.000Z</time>
      </trkpt>
      <trkpt lat="42.30908" lon="-8.817316">
        <ele>2.2</ele>
        <time>1970-01-01T02:06:19.000Z</time>
      </trkpt>
      <trkpt lat="42.309076" lon="-8.817308">
        <ele>2.2</ele>
        <time>1970-01-01T02:06:20.000Z</time>
      </trkpt>
      <trkpt lat="42.309073" lon="-8.817302">
        <ele>2.2</ele>
        <time>1970-01-01T02:06:21.000Z</time>
      </trkpt>
      <trkpt lat="42.30907" lon="-8.817298">
        <ele>2.2</ele>
        <time>1970-01-01T02:06:22.000Z</time>
      </trkpt>
      <trkpt lat="42.309069" lon="-8.81729">
        <ele>2</ele>
        <time>1970-01-01T02:06:23.000Z</time>
      </trkpt>
      <trkpt lat="42.309064" lon="-8.817283">
        <ele>2</ele>
        <time>1970-01-01T02:06:24.000Z</time>
      </trkpt>
      <trkpt lat="42.309056" lon="-8.817277">
        <ele>2</ele>
        <time>1970-01-01T02:06:25.000Z</time>
      </trkpt>
      <trkpt lat="42.309047" lon="-8.817277">
        <ele>2.2</ele>
        <time>1970-01-01T02:06:26.000Z</time>
      </trkpt>
      <trkpt lat="42.30904" lon="-8.817277">
        <ele>2.2</ele>
        <time>1970-01-01T02:06:27.000Z</time>
      </trkpt>
      <trkpt lat="42.309031" lon="-8.817279">
        <ele>2.2</ele>
        <time>1970-01-01T02:06:28.000Z</time>
      </trkpt>
      <trkpt lat="42.309026" lon="-8.817289">
        <ele>2.4</ele>
        <time>1970-01-01T02:06:29.000Z</time>
      </trkpt>
      <trkpt lat="42.309021" lon="-8.817291">
        <ele>2.4</ele>
        <time>1970-01-01T02:06:30.000Z</time>
      </trkpt>
      <trkpt lat="42.309018" lon="-8.817298">
        <ele>2.4</ele>
        <time>1970-01-01T02:06:31.000Z</time>
      </trkpt>
      <trkpt lat="42.309018" lon="-8.817306">
        <ele>2.4</ele>
        <time>1970-01-01T02:06:32.000Z</time>
      </trkpt>
      <trkpt lat="42.309019" lon="-8.817306">
        <ele>2.2</ele>
        <time>1970-01-01T02:06:33.000Z</time>
      </trkpt>
      <trkpt lat="42.309018" lon="-8.817303">
        <ele>2</ele>
        <time>1970-01-01T02:06:34.000Z</time>
      </trkpt>
      <trkpt lat="42.309018" lon="-8.817301">
        <ele>2</ele>
        <time>1970-01-01T02:06:35.000Z</time>
      </trkpt>
      <trkpt lat="42.309013" lon="-8.817302">
        <ele>2</ele>
        <time>1970-01-01T02:06:36.000Z</time>
      </trkpt>
      <trkpt lat="42.309007" lon="-8.817301">
        <ele>2</ele>
        <time>1970-01-01T02:06:37.000Z</time>
      </trkpt>
      <trkpt lat="42.309001" lon="-8.817302">
        <ele>2</ele>
        <time>1970-01-01T02:06:38.000Z</time>
      </trkpt>
      <trkpt lat="42.308999" lon="-8.817302">
        <ele>1.8</ele>
        <time>1970-01-01T02:06:39.000Z</time>
      </trkpt>
      <trkpt lat="42.308993" lon="-8.817301">
        <ele>1.6</ele>
        <time>1970-01-01T02:06:40.000Z</time>
      </trkpt>
      <trkpt lat="42.308987" lon="-8.8173">
        <ele>1.4</ele>
        <time>1970-01-01T02:06:41.000Z</time>
      </trkpt>
      <trkpt lat="42.308981" lon="-8.817295">
        <ele>1</ele>
        <time>1970-01-01T02:06:42.000Z</time>
      </trkpt>
      <trkpt lat="42.308976" lon="-8.817287">
        <ele>0.6</ele>
        <time>1970-01-01T02:06:43.000Z</time>
      </trkpt>
      <trkpt lat="42.308972" lon="-8.817274">
        <ele>0.6</ele>
        <time>1970-01-01T02:06:44.000Z</time>
      </trkpt>
      <trkpt lat="42.308963" lon="-8.817257">
        <ele>0.2</ele>
        <time>1970-01-01T02:06:45.000Z</time>
      </trkpt>
      <trkpt lat="42.308953" lon="-8.81724">
        <ele>0</ele>
        <time>1970-01-01T02:06:46.000Z</time>
      </trkpt>
      <trkpt lat="42.308943" lon="-8.817225">
        <ele>0</ele>
        <time>1970-01-01T02:06:47.000Z</time>
      </trkpt>
      <trkpt lat="42.308934" lon="-8.817216">
        <ele>0</ele>
        <time>1970-01-01T02:06:48.000Z</time>
      </trkpt>
      <trkpt lat="42.308926" lon="-8.817206">
        <ele>-0.2</ele>
        <time>1970-01-01T02:06:49.000Z</time>
      </trkpt>
      <trkpt lat="42.30892" lon="-8.817197">
        <ele>-0.2</ele>
        <time>1970-01-01T02:06:50.000Z</time>
      </trkpt>
      <trkpt lat="42.308912" lon="-8.81719">
        <ele>-0.4</ele>
        <time>1970-01-01T02:06:51.000Z</time>
      </trkpt>
      <trkpt lat="42.308904" lon="-8.817184">
        <ele>-0.6</ele>
        <time>1970-01-01T02:06:52.000Z</time>
      </trkpt>
      <trkpt lat="42.308892" lon="-8.817178">
        <ele>-0.6</ele>
        <time>1970-01-01T02:06:53.000Z</time>
      </trkpt>
      <trkpt lat="42.308879" lon="-8.817175">
        <ele>-0.6</ele>
        <time>1970-01-01T02:06:54.000Z</time>
      </trkpt>
      <trkpt lat="42.308867" lon="-8.817176">
        <ele>-0.6</ele>
        <time>1970-01-01T02:06:55.000Z</time>
      </trkpt>
      <trkpt lat="42.308855" lon="-8.817178">
        <ele>-0.8</ele>
        <time>1970-01-01T02:06:56.000Z</time>
      </trkpt>
      <trkpt lat="42.308844" lon="-8.817182">
        <ele>-1</ele>
        <time>1970-01-01T02:06:57.000Z</time>
      </trkpt>
      <trkpt lat="42.308833" lon="-8.817188">
        <ele>-1.2</ele>
        <time>1970-01-01T02:06:58.000Z</time>
      </trkpt>
      <trkpt lat="42.308826" lon="-8.817199">
        <ele>-1</ele>
        <time>1970-01-01T02:06:59.000Z</time>
      </trkpt>
      <trkpt lat="42.30882" lon="-8.817203">
        <ele>-1.4</ele>
        <time>1970-01-01T02:07:00.000Z</time>
      </trkpt>
      <trkpt lat="42.308812" lon="-8.817202">
        <ele>-1.8</ele>
        <time>1970-01-01T02:07:01.000Z</time>
      </trkpt>
      <trkpt lat="42.308807" lon="-8.817197">
        <ele>-2</ele>
        <time>1970-01-01T02:07:02.000Z</time>
      </trkpt>
      <trkpt lat="42.308801" lon="-8.817186">
        <ele>-2.2</ele>
        <time>1970-01-01T02:07:03.000Z</time>
      </trkpt>
      <trkpt lat="42.308794" lon="-8.817177">
        <ele>-2.4</ele>
        <time>1970-01-01T02:07:04.000Z</time>
      </trkpt>
      <trkpt lat="42.308787" lon="-8.817168">
        <ele>-2.6</ele>
        <time>1970-01-01T02:07:05.000Z</time>
      </trkpt>
      <trkpt lat="42.308779" lon="-8.817162">
        <ele>-2.8</ele>
        <time>1970-01-01T02:07:06.000Z</time>
      </trkpt>
      <trkpt lat="42.308773" lon="-8.817156">
        <ele>-2.8</ele>
        <time>1970-01-01T02:07:07.000Z</time>
      </trkpt>
      <trkpt lat="42.308767" lon="-8.817151">
        <ele>-2.8</ele>
        <time>1970-01-01T02:07:08.000Z</time>
      </trkpt>
      <trkpt lat="42.308758" lon="-8.817151">
        <ele>-3</ele>
        <time>1970-01-01T02:07:09.000Z</time>
      </trkpt>
      <trkpt lat="42.308746" lon="-8.817151">
        <ele>-3.2</ele>
        <time>1970-01-01T02:07:10.000Z</time>
      </trkpt>
      <trkpt lat="42.308732" lon="-8.817151">
        <ele>-3</ele>
        <time>1970-01-01T02:07:11.000Z</time>
      </trkpt>
      <trkpt lat="42.308719" lon="-8.817142">
        <ele>-3</ele>
        <time>1970-01-01T02:07:12.000Z</time>
      </trkpt>
      <trkpt lat="42.308708" lon="-8.817136">
        <ele>-2.8</ele>
        <time>1970-01-01T02:07:13.000Z</time>
      </trkpt>
      <trkpt lat="42.308702" lon="-8.817129">
        <ele>-2.8</ele>
        <time>1970-01-01T02:07:14.000Z</time>
      </trkpt>
      <trkpt lat="42.308693" lon="-8.817121">
        <ele>-2.8</ele>
        <time>1970-01-01T02:07:15.000Z</time>
      </trkpt>
      <trkpt lat="42.308685" lon="-8.817115">
        <ele>-2.6</ele>
        <time>1970-01-01T02:07:16.000Z</time>
      </trkpt>
      <trkpt lat="42.308675" lon="-8.817113">
        <ele>-2.2</ele>
        <time>1970-01-01T02:07:17.000Z</time>
      </trkpt>
      <trkpt lat="42.308661" lon="-8.817111">
        <ele>-2.2</ele>
        <time>1970-01-01T02:07:18.000Z</time>
      </trkpt>
      <trkpt lat="42.308644" lon="-8.817108">
        <ele>-2.2</ele>
        <time>1970-01-01T02:07:19.000Z</time>
      </trkpt>
      <trkpt lat="42.308629" lon="-8.817108">
        <ele>-2.2</ele>
        <time>1970-01-01T02:07:20.000Z</time>
      </trkpt>
      <trkpt lat="42.308622" lon="-8.817105">
        <ele>-2</ele>
        <time>1970-01-01T02:07:21.000Z</time>
      </trkpt>
      <trkpt lat="42.308615" lon="-8.817109">
        <ele>-2</ele>
        <time>1970-01-01T02:07:22.000Z</time>
      </trkpt>
      <trkpt lat="42.308606" lon="-8.817114">
        <ele>-2</ele>
        <time>1970-01-01T02:07:23.000Z</time>
      </trkpt>
      <trkpt lat="42.3086" lon="-8.817117">
        <ele>-2.2</ele>
        <time>1970-01-01T02:07:24.000Z</time>
      </trkpt>
      <trkpt lat="42.308597" lon="-8.817122">
        <ele>-2.2</ele>
        <time>1970-01-01T02:07:25.000Z</time>
      </trkpt>
      <trkpt lat="42.308594" lon="-8.817124">
        <ele>-2.2</ele>
        <time>1970-01-01T02:07:26.000Z</time>
      </trkpt>
      <trkpt lat="42.308586" lon="-8.817119">
        <ele>-2.4</ele>
        <time>1970-01-01T02:07:27.000Z</time>
      </trkpt>
      <trkpt lat="42.308577" lon="-8.817117">
        <ele>-2.4</ele>
        <time>1970-01-01T02:07:28.000Z</time>
      </trkpt>
      <trkpt lat="42.308564" lon="-8.81712">
        <ele>-2.4</ele>
        <time>1970-01-01T02:07:29.000Z</time>
      </trkpt>
      <trkpt lat="42.308554" lon="-8.817126">
        <ele>-2.6</ele>
        <time>1970-01-01T02:07:30.000Z</time>
      </trkpt>
      <trkpt lat="42.308543" lon="-8.817133">
        <ele>-2.6</ele>
        <time>1970-01-01T02:07:31.000Z</time>
      </trkpt>
      <trkpt lat="42.308532" lon="-8.81714">
        <ele>-2.8</ele>
        <time>1970-01-01T02:07:32.000Z</time>
      </trkpt>
      <trkpt lat="42.308522" lon="-8.817143">
        <ele>-2.8</ele>
        <time>1970-01-01T02:07:33.000Z</time>
      </trkpt>
      <trkpt lat="42.30851" lon="-8.817143">
        <ele>-3</ele>
        <time>1970-01-01T02:07:34.000Z</time>
      </trkpt>
      <trkpt lat="42.308495" lon="-8.817142">
        <ele>-3</ele>
        <time>1970-01-01T02:07:35.000Z</time>
      </trkpt>
      <trkpt lat="42.308481" lon="-8.817142">
        <ele>-3</ele>
        <time>1970-01-01T02:07:36.000Z</time>
      </trkpt>
      <trkpt lat="42.308464" lon="-8.817147">
        <ele>-3</ele>
        <time>1970-01-01T02:07:37.000Z</time>
      </trkpt>
      <trkpt lat="42.308451" lon="-8.817148">
        <ele>-3</ele>
        <time>1970-01-01T02:07:38.000Z</time>
      </trkpt>
      <trkpt lat="42.308438" lon="-8.817144">
        <ele>-3</ele>
        <time>1970-01-01T02:07:39.000Z</time>
      </trkpt>
      <trkpt lat="42.308426" lon="-8.817139">
        <ele>-3</ele>
        <time>1970-01-01T02:07:40.000Z</time>
      </trkpt>
      <trkpt lat="42.308413" lon="-8.817134">
        <ele>-3</ele>
        <time>1970-01-01T02:07:41.000Z</time>
      </trkpt>
      <trkpt lat="42.308399" lon="-8.817131">
        <ele>-3</ele>
        <time>1970-01-01T02:07:42.000Z</time>
      </trkpt>
      <trkpt lat="42.30839" lon="-8.817133">
        <ele>-3.2</ele>
        <time>1970-01-01T02:07:43.000Z</time>
      </trkpt>
      <trkpt lat="42.308376" lon="-8.81713">
        <ele>-3.4</ele>
        <time>1970-01-01T02:07:44.000Z</time>
      </trkpt>
      <trkpt lat="42.308361" lon="-8.817128">
        <ele>-3.4</ele>
        <time>1970-01-01T02:07:45.000Z</time>
      </trkpt>
      <trkpt lat="42.308346" lon="-8.817122">
        <ele>-3.4</ele>
        <time>1970-01-01T02:07:46.000Z</time>
      </trkpt>
      <trkpt lat="42.308334" lon="-8.817119">
        <ele>-3.6</ele>
        <time>1970-01-01T02:07:47.000Z</time>
      </trkpt>
      <trkpt lat="42.308321" lon="-8.817116">
        <ele>-3.8</ele>
        <time>1970-01-01T02:07:48.000Z</time>
      </trkpt>
      <trkpt lat="42.308314" lon="-8.817109">
        <ele>-3.8</ele>
        <time>1970-01-01T02:07:49.000Z</time>
      </trkpt>
      <trkpt lat="42.308308" lon="-8.817098">
        <ele>-4</ele>
        <time>1970-01-01T02:07:50.000Z</time>
      </trkpt>
      <trkpt lat="42.308306" lon="-8.817085">
        <ele>-4.2</ele>
        <time>1970-01-01T02:07:51.000Z</time>
      </trkpt>
      <trkpt lat="42.308298" lon="-8.817075">
        <ele>-4.4</ele>
        <time>1970-01-01T02:07:52.000Z</time>
      </trkpt>
      <trkpt lat="42.308288" lon="-8.817075">
        <ele>-4.4</ele>
        <time>1970-01-01T02:07:53.000Z</time>
      </trkpt>
      <trkpt lat="42.308281" lon="-8.817065">
        <ele>-4.4</ele>
        <time>1970-01-01T02:07:54.000Z</time>
      </trkpt>
      <trkpt lat="42.308275" lon="-8.817048">
        <ele>-4.4</ele>
        <time>1970-01-01T02:07:55.000Z</time>
      </trkpt>
      <trkpt lat="42.308265" lon="-8.817027">
        <ele>-4.2</ele>
        <time>1970-01-01T02:07:56.000Z</time>
      </trkpt>
      <trkpt lat="42.308255" lon="-8.817006">
        <ele>-4.2</ele>
        <time>1970-01-01T02:07:57.000Z</time>
      </trkpt>
      <trkpt lat="42.308244" lon="-8.816988">
        <ele>-4.2</ele>
        <time>1970-01-01T02:07:58.000Z</time>
      </trkpt>
      <trkpt lat="42.308239" lon="-8.816969">
        <ele>-4</ele>
        <time>1970-01-01T02:07:59.000Z</time>
      </trkpt>
      <trkpt lat="42.308236" lon="-8.81695">
        <ele>-3.4</ele>
        <time>1970-01-01T02:08:00.000Z</time>
      </trkpt>
      <trkpt lat="42.30824" lon="-8.816933">
        <ele>-3.2</ele>
        <time>1970-01-01T02:08:01.000Z</time>
      </trkpt>
      <trkpt lat="42.308245" lon="-8.816915">
        <ele>-3</ele>
        <time>1970-01-01T02:08:02.000Z</time>
      </trkpt>
      <trkpt lat="42.30825" lon="-8.816902">
        <ele>-3</ele>
        <time>1970-01-01T02:08:03.000Z</time>
      </trkpt>
      <trkpt lat="42.308256" lon="-8.816892">
        <ele>-3</ele>
        <time>1970-01-01T02:08:04.000Z</time>
      </trkpt>
      <trkpt lat="42.308263" lon="-8.816884">
        <ele>-3</ele>
        <time>1970-01-01T02:08:05.000Z</time>
      </trkpt>
      <trkpt lat="42.30827" lon="-8.816875">
        <ele>-3</ele>
        <time>1970-01-01T02:08:06.000Z</time>
      </trkpt>
      <trkpt lat="42.308278" lon="-8.816858">
        <ele>-3</ele>
        <time>1970-01-01T02:08:07.000Z</time>
      </trkpt>
      <trkpt lat="42.308283" lon="-8.816839">
        <ele>-3</ele>
        <time>1970-01-01T02:08:08.000Z</time>
      </trkpt>
      <trkpt lat="42.308286" lon="-8.816824">
        <ele>-3</ele>
        <time>1970-01-01T02:08:09.000Z</time>
      </trkpt>
      <trkpt lat="42.30829" lon="-8.816809">
        <ele>-3</ele>
        <time>1970-01-01T02:08:10.000Z</time>
      </trkpt>
      <trkpt lat="42.308293" lon="-8.816794">
        <ele>-2.8</ele>
        <time>1970-01-01T02:08:11.000Z</time>
      </trkpt>
      <trkpt lat="42.308296" lon="-8.816779">
        <ele>-2.6</ele>
        <time>1970-01-01T02:08:12.000Z</time>
      </trkpt>
      <trkpt lat="42.308299" lon="-8.81676">
        <ele>-2.6</ele>
        <time>1970-01-01T02:08:13.000Z</time>
      </trkpt>
      <trkpt lat="42.308299" lon="-8.816744">
        <ele>-2.4</ele>
        <time>1970-01-01T02:08:14.000Z</time>
      </trkpt>
      <trkpt lat="42.308295" lon="-8.816727">
        <ele>-2.4</ele>
        <time>1970-01-01T02:08:15.000Z</time>
      </trkpt>
      <trkpt lat="42.308288" lon="-8.816711">
        <ele>-3</ele>
        <time>1970-01-01T02:08:16.000Z</time>
      </trkpt>
      <trkpt lat="42.308278" lon="-8.816697">
        <ele>-3.2</ele>
        <time>1970-01-01T02:08:17.000Z</time>
      </trkpt>
      <trkpt lat="42.308268" lon="-8.816682">
        <ele>-3.2</ele>
        <time>1970-01-01T02:08:18.000Z</time>
      </trkpt>
      <trkpt lat="42.308264" lon="-8.816675">
        <ele>-3.4</ele>
        <time>1970-01-01T02:08:19.000Z</time>
      </trkpt>
      <trkpt lat="42.308254" lon="-8.816671">
        <ele>-3.6</ele>
        <time>1970-01-01T02:08:20.000Z</time>
      </trkpt>
      <trkpt lat="42.308245" lon="-8.816668">
        <ele>-3.8</ele>
        <time>1970-01-01T02:08:21.000Z</time>
      </trkpt>
      <trkpt lat="42.308227" lon="-8.816669">
        <ele>-3.8</ele>
        <time>1970-01-01T02:08:22.000Z</time>
      </trkpt>
      <trkpt lat="42.308214" lon="-8.816661">
        <ele>-3.8</ele>
        <time>1970-01-01T02:08:23.000Z</time>
      </trkpt>
      <trkpt lat="42.308196" lon="-8.816654">
        <ele>-4</ele>
        <time>1970-01-01T02:08:24.000Z</time>
      </trkpt>
      <trkpt lat="42.308181" lon="-8.816638">
        <ele>-3.8</ele>
        <time>1970-01-01T02:08:25.000Z</time>
      </trkpt>
      <trkpt lat="42.308166" lon="-8.816624">
        <ele>-3.6</ele>
        <time>1970-01-01T02:08:26.000Z</time>
      </trkpt>
      <trkpt lat="42.308155" lon="-8.816607">
        <ele>-3.6</ele>
        <time>1970-01-01T02:08:27.000Z</time>
      </trkpt>
      <trkpt lat="42.308145" lon="-8.816587">
        <ele>-3.6</ele>
        <time>1970-01-01T02:08:28.000Z</time>
      </trkpt>
      <trkpt lat="42.308134" lon="-8.816576">
        <ele>-3.4</ele>
        <time>1970-01-01T02:08:29.000Z</time>
      </trkpt>
      <trkpt lat="42.308122" lon="-8.816565">
        <ele>-3.4</ele>
        <time>1970-01-01T02:08:30.000Z</time>
      </trkpt>
      <trkpt lat="42.308111" lon="-8.816554">
        <ele>-3.2</ele>
        <time>1970-01-01T02:08:31.000Z</time>
      </trkpt>
      <trkpt lat="42.308103" lon="-8.81654">
        <ele>-3.2</ele>
        <time>1970-01-01T02:08:32.000Z</time>
      </trkpt>
      <trkpt lat="42.308097" lon="-8.81653">
        <ele>-3.2</ele>
        <time>1970-01-01T02:08:33.000Z</time>
      </trkpt>
      <trkpt lat="42.308092" lon="-8.816515">
        <ele>-3.2</ele>
        <time>1970-01-01T02:08:34.000Z</time>
      </trkpt>
      <trkpt lat="42.308085" lon="-8.816501">
        <ele>-3.4</ele>
        <time>1970-01-01T02:08:35.000Z</time>
      </trkpt>
      <trkpt lat="42.308078" lon="-8.816489">
        <ele>-3.4</ele>
        <time>1970-01-01T02:08:36.000Z</time>
      </trkpt>
      <trkpt lat="42.308066" lon="-8.816478">
        <ele>-3.4</ele>
        <time>1970-01-01T02:08:37.000Z</time>
      </trkpt>
      <trkpt lat="42.308054" lon="-8.816463">
        <ele>-3.8</ele>
        <time>1970-01-01T02:08:38.000Z</time>
      </trkpt>
      <trkpt lat="42.308048" lon="-8.816445">
        <ele>-4</ele>
        <time>1970-01-01T02:08:39.000Z</time>
      </trkpt>
      <trkpt lat="42.308043" lon="-8.816421">
        <ele>-4.4</ele>
        <time>1970-01-01T02:08:40.000Z</time>
      </trkpt>
      <trkpt lat="42.308034" lon="-8.816401">
        <ele>-4.4</ele>
        <time>1970-01-01T02:08:41.000Z</time>
      </trkpt>
      <trkpt lat="42.308024" lon="-8.816383">
        <ele>-4.6</ele>
        <time>1970-01-01T02:08:42.000Z</time>
      </trkpt>
      <trkpt lat="42.308013" lon="-8.816368">
        <ele>-4.6</ele>
        <time>1970-01-01T02:08:43.000Z</time>
      </trkpt>
      <trkpt lat="42.308003" lon="-8.816352">
        <ele>-4.6</ele>
        <time>1970-01-01T02:08:44.000Z</time>
      </trkpt>
      <trkpt lat="42.307995" lon="-8.816339">
        <ele>-4.6</ele>
        <time>1970-01-01T02:08:45.000Z</time>
      </trkpt>
      <trkpt lat="42.307986" lon="-8.816329">
        <ele>-4.4</ele>
        <time>1970-01-01T02:08:46.000Z</time>
      </trkpt>
      <trkpt lat="42.307975" lon="-8.816315">
        <ele>-4.4</ele>
        <time>1970-01-01T02:08:47.000Z</time>
      </trkpt>
      <trkpt lat="42.307967" lon="-8.816307">
        <ele>-4.2</ele>
        <time>1970-01-01T02:08:48.000Z</time>
      </trkpt>
      <trkpt lat="42.307957" lon="-8.816299">
        <ele>-4.2</ele>
        <time>1970-01-01T02:08:49.000Z</time>
      </trkpt>
      <trkpt lat="42.307946" lon="-8.816292">
        <ele>-4.2</ele>
        <time>1970-01-01T02:08:50.000Z</time>
      </trkpt>
      <trkpt lat="42.307934" lon="-8.81628">
        <ele>-4.2</ele>
        <time>1970-01-01T02:08:51.000Z</time>
      </trkpt>
      <trkpt lat="42.307922" lon="-8.816266">
        <ele>-4.2</ele>
        <time>1970-01-01T02:08:52.000Z</time>
      </trkpt>
      <trkpt lat="42.307915" lon="-8.816248">
        <ele>-3.8</ele>
        <time>1970-01-01T02:08:53.000Z</time>
      </trkpt>
      <trkpt lat="42.307903" lon="-8.816236">
        <ele>-3.6</ele>
        <time>1970-01-01T02:08:54.000Z</time>
      </trkpt>
      <trkpt lat="42.307888" lon="-8.816228">
        <ele>-4</ele>
        <time>1970-01-01T02:08:55.000Z</time>
      </trkpt>
      <trkpt lat="42.307877" lon="-8.816223">
        <ele>-4</ele>
        <time>1970-01-01T02:08:56.000Z</time>
      </trkpt>
      <trkpt lat="42.307868" lon="-8.816219">
        <ele>-4.2</ele>
        <time>1970-01-01T02:08:57.000Z</time>
      </trkpt>
      <trkpt lat="42.307858" lon="-8.816217">
        <ele>-4.2</ele>
        <time>1970-01-01T02:08:58.000Z</time>
      </trkpt>
      <trkpt lat="42.307848" lon="-8.816216">
        <ele>-4.4</ele>
        <time>1970-01-01T02:08:59.000Z</time>
      </trkpt>
      <trkpt lat="42.30784" lon="-8.816214">
        <ele>-4.6</ele>
        <time>1970-01-01T02:09:00.000Z</time>
      </trkpt>
      <trkpt lat="42.307833" lon="-8.816214">
        <ele>-4.8</ele>
        <time>1970-01-01T02:09:01.000Z</time>
      </trkpt>
      <trkpt lat="42.307828" lon="-8.816213">
        <ele>-5</ele>
        <time>1970-01-01T02:09:02.000Z</time>
      </trkpt>
      <trkpt lat="42.307823" lon="-8.816213">
        <ele>-5</ele>
        <time>1970-01-01T02:09:03.000Z</time>
      </trkpt>
      <trkpt lat="42.307816" lon="-8.816214">
        <ele>-5.2</ele>
        <time>1970-01-01T02:09:04.000Z</time>
      </trkpt>
      <trkpt lat="42.307814" lon="-8.816217">
        <ele>-5.4</ele>
        <time>1970-01-01T02:09:05.000Z</time>
      </trkpt>
      <trkpt lat="42.30781" lon="-8.816216">
        <ele>-5.6</ele>
        <time>1970-01-01T02:09:06.000Z</time>
      </trkpt>
      <trkpt lat="42.307803" lon="-8.816218">
        <ele>-5.6</ele>
        <time>1970-01-01T02:09:07.000Z</time>
      </trkpt>
      <trkpt lat="42.307795" lon="-8.816222">
        <ele>-5.8</ele>
        <time>1970-01-01T02:09:08.000Z</time>
      </trkpt>
      <trkpt lat="42.307791" lon="-8.816221">
        <ele>-5.8</ele>
        <time>1970-01-01T02:09:09.000Z</time>
      </trkpt>
      <trkpt lat="42.307777" lon="-8.816226">
        <ele>-5.8</ele>
        <time>1970-01-01T02:09:10.000Z</time>
      </trkpt>
      <trkpt lat="42.307776" lon="-8.816228">
        <ele>-6</ele>
        <time>1970-01-01T02:09:11.000Z</time>
      </trkpt>
      <trkpt lat="42.30777" lon="-8.816228">
        <ele>-6.2</ele>
        <time>1970-01-01T02:09:12.000Z</time>
      </trkpt>
      <trkpt lat="42.307765" lon="-8.81623">
        <ele>-6.2</ele>
        <time>1970-01-01T02:09:13.000Z</time>
      </trkpt>
      <trkpt lat="42.307762" lon="-8.816228">
        <ele>-6.4</ele>
        <time>1970-01-01T02:09:14.000Z</time>
      </trkpt>
      <trkpt lat="42.30776" lon="-8.816231">
        <ele>-6.4</ele>
        <time>1970-01-01T02:09:15.000Z</time>
      </trkpt>
      <trkpt lat="42.307755" lon="-8.816234">
        <ele>-6.4</ele>
        <time>1970-01-01T02:09:16.000Z</time>
      </trkpt>
      <trkpt lat="42.307752" lon="-8.816236">
        <ele>-6.4</ele>
        <time>1970-01-01T02:09:17.000Z</time>
      </trkpt>
      <trkpt lat="42.307751" lon="-8.816239">
        <ele>-6.4</ele>
        <time>1970-01-01T02:09:18.000Z</time>
      </trkpt>
      <trkpt lat="42.307754" lon="-8.816244">
        <ele>-6.6</ele>
        <time>1970-01-01T02:09:19.000Z</time>
      </trkpt>
      <trkpt lat="42.307761" lon="-8.816246">
        <ele>-6.6</ele>
        <time>1970-01-01T02:09:20.000Z</time>
      </trkpt>
      <trkpt lat="42.307768" lon="-8.816246">
        <ele>-6.6</ele>
        <time>1970-01-01T02:09:21.000Z</time>
      </trkpt>
      <trkpt lat="42.307775" lon="-8.81625">
        <ele>-6.6</ele>
        <time>1970-01-01T02:09:22.000Z</time>
      </trkpt>
      <trkpt lat="42.30778" lon="-8.816252">
        <ele>-6.8</ele>
        <time>1970-01-01T02:09:23.000Z</time>
      </trkpt>
      <trkpt lat="42.307785" lon="-8.81625">
        <ele>-6.6</ele>
        <time>1970-01-01T02:09:24.000Z</time>
      </trkpt>
      <trkpt lat="42.307795" lon="-8.816249">
        <ele>-6.4</ele>
        <time>1970-01-01T02:09:25.000Z</time>
      </trkpt>
      <trkpt lat="42.307805" lon="-8.816244">
        <ele>-6.8</ele>
        <time>1970-01-01T02:09:26.000Z</time>
      </trkpt>
      <trkpt lat="42.307812" lon="-8.816236">
        <ele>-7</ele>
        <time>1970-01-01T02:09:27.000Z</time>
      </trkpt>
      <trkpt lat="42.307821" lon="-8.816225">
        <ele>-6.6</ele>
        <time>1970-01-01T02:09:28.000Z</time>
      </trkpt>
      <trkpt lat="42.307825" lon="-8.81621">
        <ele>-6.2</ele>
        <time>1970-01-01T02:09:29.000Z</time>
      </trkpt>
      <trkpt lat="42.307828" lon="-8.816195">
        <ele>-6</ele>
        <time>1970-01-01T02:09:30.000Z</time>
      </trkpt>
      <trkpt lat="42.307834" lon="-8.816182">
        <ele>-6</ele>
        <time>1970-01-01T02:09:31.000Z</time>
      </trkpt>
      <trkpt lat="42.307839" lon="-8.816172">
        <ele>-6.2</ele>
        <time>1970-01-01T02:09:32.000Z</time>
      </trkpt>
      <trkpt lat="42.307848" lon="-8.816165">
        <ele>-6.2</ele>
        <time>1970-01-01T02:09:33.000Z</time>
      </trkpt>
      <trkpt lat="42.307857" lon="-8.816159">
        <ele>-6.4</ele>
        <time>1970-01-01T02:09:34.000Z</time>
      </trkpt>
      <trkpt lat="42.307875" lon="-8.816149">
        <ele>-6.6</ele>
        <time>1970-01-01T02:09:35.000Z</time>
      </trkpt>
      <trkpt lat="42.307885" lon="-8.816141">
        <ele>-6.6</ele>
        <time>1970-01-01T02:09:36.000Z</time>
      </trkpt>
      <trkpt lat="42.307895" lon="-8.816133">
        <ele>-6.6</ele>
        <time>1970-01-01T02:09:37.000Z</time>
      </trkpt>
      <trkpt lat="42.307908" lon="-8.816128">
        <ele>-6.6</ele>
        <time>1970-01-01T02:09:38.000Z</time>
      </trkpt>
      <trkpt lat="42.307919" lon="-8.816121">
        <ele>-6.4</ele>
        <time>1970-01-01T02:09:39.000Z</time>
      </trkpt>
      <trkpt lat="42.307929" lon="-8.81611">
        <ele>-6</ele>
        <time>1970-01-01T02:09:40.000Z</time>
      </trkpt>
      <trkpt lat="42.307939" lon="-8.816101">
        <ele>-5.8</ele>
        <time>1970-01-01T02:09:41.000Z</time>
      </trkpt>
      <trkpt lat="42.307949" lon="-8.816089">
        <ele>-5.6</ele>
        <time>1970-01-01T02:09:42.000Z</time>
      </trkpt>
      <trkpt lat="42.307954" lon="-8.81608">
        <ele>-5.6</ele>
        <time>1970-01-01T02:09:43.000Z</time>
      </trkpt>
      <trkpt lat="42.30796" lon="-8.816071">
        <ele>-5.4</ele>
        <time>1970-01-01T02:09:44.000Z</time>
      </trkpt>
      <trkpt lat="42.307968" lon="-8.816061">
        <ele>-5.4</ele>
        <time>1970-01-01T02:09:45.000Z</time>
      </trkpt>
      <trkpt lat="42.307976" lon="-8.816045">
        <ele>-5.4</ele>
        <time>1970-01-01T02:09:46.000Z</time>
      </trkpt>
      <trkpt lat="42.307981" lon="-8.816025">
        <ele>-5.4</ele>
        <time>1970-01-01T02:09:47.000Z</time>
      </trkpt>
      <trkpt lat="42.307985" lon="-8.816006">
        <ele>-5.4</ele>
        <time>1970-01-01T02:09:48.000Z</time>
      </trkpt>
      <trkpt lat="42.307987" lon="-8.815983">
        <ele>-5.2</ele>
        <time>1970-01-01T02:09:49.000Z</time>
      </trkpt>
      <trkpt lat="42.307985" lon="-8.815964">
        <ele>-5.2</ele>
        <time>1970-01-01T02:09:50.000Z</time>
      </trkpt>
      <trkpt lat="42.307984" lon="-8.815948">
        <ele>-5.2</ele>
        <time>1970-01-01T02:09:51.000Z</time>
      </trkpt>
      <trkpt lat="42.307984" lon="-8.815936">
        <ele>-5.2</ele>
        <time>1970-01-01T02:09:52.000Z</time>
      </trkpt>
      <trkpt lat="42.307984" lon="-8.815923">
        <ele>-5</ele>
        <time>1970-01-01T02:09:53.000Z</time>
      </trkpt>
      <trkpt lat="42.307986" lon="-8.815913">
        <ele>-4.8</ele>
        <time>1970-01-01T02:09:54.000Z</time>
      </trkpt>
      <trkpt lat="42.307985" lon="-8.815903">
        <ele>-4.4</ele>
        <time>1970-01-01T02:09:55.000Z</time>
      </trkpt>
      <trkpt lat="42.307984" lon="-8.815894">
        <ele>-4.2</ele>
        <time>1970-01-01T02:09:56.000Z</time>
      </trkpt>
      <trkpt lat="42.307985" lon="-8.815882">
        <ele>-4.2</ele>
        <time>1970-01-01T02:09:57.000Z</time>
      </trkpt>
      <trkpt lat="42.30799" lon="-8.81587">
        <ele>-3.8</ele>
        <time>1970-01-01T02:09:58.000Z</time>
      </trkpt>
      <trkpt lat="42.307996" lon="-8.815859">
        <ele>-3.6</ele>
        <time>1970-01-01T02:09:59.000Z</time>
      </trkpt>
      <trkpt lat="42.307999" lon="-8.815843">
        <ele>-3.4</ele>
        <time>1970-01-01T02:10:00.000Z</time>
      </trkpt>
      <trkpt lat="42.308003" lon="-8.815822">
        <ele>-3.2</ele>
        <time>1970-01-01T02:10:01.000Z</time>
      </trkpt>
      <trkpt lat="42.308008" lon="-8.815797">
        <ele>-3.2</ele>
        <time>1970-01-01T02:10:02.000Z</time>
      </trkpt>
      <trkpt lat="42.308014" lon="-8.815776">
        <ele>-3.2</ele>
        <time>1970-01-01T02:10:03.000Z</time>
      </trkpt>
      <trkpt lat="42.308021" lon="-8.815758">
        <ele>-3.2</ele>
        <time>1970-01-01T02:10:04.000Z</time>
      </trkpt>
      <trkpt lat="42.308029" lon="-8.815741">
        <ele>-3.4</ele>
        <time>1970-01-01T02:10:05.000Z</time>
      </trkpt>
      <trkpt lat="42.308038" lon="-8.815724">
        <ele>-3.6</ele>
        <time>1970-01-01T02:10:06.000Z</time>
      </trkpt>
      <trkpt lat="42.308042" lon="-8.81571">
        <ele>-3.6</ele>
        <time>1970-01-01T02:10:07.000Z</time>
      </trkpt>
      <trkpt lat="42.308048" lon="-8.815692">
        <ele>-3.6</ele>
        <time>1970-01-01T02:10:08.000Z</time>
      </trkpt>
      <trkpt lat="42.308056" lon="-8.815673">
        <ele>-3.6</ele>
        <time>1970-01-01T02:10:09.000Z</time>
      </trkpt>
      <trkpt lat="42.308061" lon="-8.815656">
        <ele>-3.4</ele>
        <time>1970-01-01T02:10:10.000Z</time>
      </trkpt>
      <trkpt lat="42.308067" lon="-8.815638">
        <ele>-3.4</ele>
        <time>1970-01-01T02:10:11.000Z</time>
      </trkpt>
      <trkpt lat="42.308074" lon="-8.815618">
        <ele>-3.4</ele>
        <time>1970-01-01T02:10:12.000Z</time>
      </trkpt>
      <trkpt lat="42.308079" lon="-8.815598">
        <ele>-3.4</ele>
        <time>1970-01-01T02:10:13.000Z</time>
      </trkpt>
      <trkpt lat="42.308081" lon="-8.815578">
        <ele>-3.6</ele>
        <time>1970-01-01T02:10:14.000Z</time>
      </trkpt>
      <trkpt lat="42.308083" lon="-8.81556">
        <ele>-3.6</ele>
        <time>1970-01-01T02:10:15.000Z</time>
      </trkpt>
      <trkpt lat="42.30808" lon="-8.815548">
        <ele>-3.4</ele>
        <time>1970-01-01T02:10:16.000Z</time>
      </trkpt>
      <trkpt lat="42.308081" lon="-8.815535">
        <ele>-3.2</ele>
        <time>1970-01-01T02:10:17.000Z</time>
      </trkpt>
      <trkpt lat="42.308082" lon="-8.81552">
        <ele>-3</ele>
        <time>1970-01-01T02:10:18.000Z</time>
      </trkpt>
      <trkpt lat="42.308082" lon="-8.815504">
        <ele>-2.8</ele>
        <time>1970-01-01T02:10:19.000Z</time>
      </trkpt>
      <trkpt lat="42.30808" lon="-8.815485">
        <ele>-2.8</ele>
        <time>1970-01-01T02:10:20.000Z</time>
      </trkpt>
      <trkpt lat="42.308075" lon="-8.815466">
        <ele>-2.6</ele>
        <time>1970-01-01T02:10:21.000Z</time>
      </trkpt>
      <trkpt lat="42.308069" lon="-8.815452">
        <ele>-2.6</ele>
        <time>1970-01-01T02:10:22.000Z</time>
      </trkpt>
      <trkpt lat="42.308063" lon="-8.815436">
        <ele>-2.6</ele>
        <time>1970-01-01T02:10:23.000Z</time>
      </trkpt>
      <trkpt lat="42.308061" lon="-8.815422">
        <ele>-2.4</ele>
        <time>1970-01-01T02:10:24.000Z</time>
      </trkpt>
      <trkpt lat="42.308058" lon="-8.815409">
        <ele>-2.4</ele>
        <time>1970-01-01T02:10:25.000Z</time>
      </trkpt>
      <trkpt lat="42.308055" lon="-8.815393">
        <ele>-2.2</ele>
        <time>1970-01-01T02:10:26.000Z</time>
      </trkpt>
      <trkpt lat="42.308049" lon="-8.815379">
        <ele>-2.2</ele>
        <time>1970-01-01T02:10:27.000Z</time>
      </trkpt>
      <trkpt lat="42.308046" lon="-8.815363">
        <ele>-2.2</ele>
        <time>1970-01-01T02:10:28.000Z</time>
      </trkpt>
      <trkpt lat="42.308044" lon="-8.815344">
        <ele>-2.2</ele>
        <time>1970-01-01T02:10:29.000Z</time>
      </trkpt>
      <trkpt lat="42.308038" lon="-8.81532">
        <ele>-2.2</ele>
        <time>1970-01-01T02:10:30.000Z</time>
      </trkpt>
      <trkpt lat="42.308026" lon="-8.815299">
        <ele>-2.2</ele>
        <time>1970-01-01T02:10:31.000Z</time>
      </trkpt>
      <trkpt lat="42.308015" lon="-8.815293">
        <ele>-2</ele>
        <time>1970-01-01T02:10:32.000Z</time>
      </trkpt>
      <trkpt lat="42.308002" lon="-8.815288">
        <ele>-2</ele>
        <time>1970-01-01T02:10:33.000Z</time>
      </trkpt>
      <trkpt lat="42.307991" lon="-8.815284">
        <ele>-1.8</ele>
        <time>1970-01-01T02:10:34.000Z</time>
      </trkpt>
      <trkpt lat="42.307981" lon="-8.815277">
        <ele>-1.6</ele>
        <time>1970-01-01T02:10:35.000Z</time>
      </trkpt>
      <trkpt lat="42.307968" lon="-8.815267">
        <ele>-1.4</ele>
        <time>1970-01-01T02:10:36.000Z</time>
      </trkpt>
      <trkpt lat="42.307958" lon="-8.815255">
        <ele>-1.2</ele>
        <time>1970-01-01T02:10:37.000Z</time>
      </trkpt>
      <trkpt lat="42.307947" lon="-8.815234">
        <ele>-1</ele>
        <time>1970-01-01T02:10:38.000Z</time>
      </trkpt>
      <trkpt lat="42.30794" lon="-8.815216">
        <ele>-0.8</ele>
        <time>1970-01-01T02:10:39.000Z</time>
      </trkpt>
      <trkpt lat="42.307932" lon="-8.815189">
        <ele>-0.8</ele>
        <time>1970-01-01T02:10:40.000Z</time>
      </trkpt>
      <trkpt lat="42.307924" lon="-8.815167">
        <ele>-0.8</ele>
        <time>1970-01-01T02:10:41.000Z</time>
      </trkpt>
      <trkpt lat="42.307914" lon="-8.815144">
        <ele>-0.8</ele>
        <time>1970-01-01T02:10:42.000Z</time>
      </trkpt>
      <trkpt lat="42.307907" lon="-8.815123">
        <ele>-0.6</ele>
        <time>1970-01-01T02:10:43.000Z</time>
      </trkpt>
      <trkpt lat="42.307901" lon="-8.815106">
        <ele>-0.6</ele>
        <time>1970-01-01T02:10:44.000Z</time>
      </trkpt>
      <trkpt lat="42.307898" lon="-8.815088">
        <ele>-0.6</ele>
        <time>1970-01-01T02:10:45.000Z</time>
      </trkpt>
      <trkpt lat="42.307895" lon="-8.815072">
        <ele>-0.4</ele>
        <time>1970-01-01T02:10:46.000Z</time>
      </trkpt>
      <trkpt lat="42.307892" lon="-8.815059">
        <ele>-0.4</ele>
        <time>1970-01-01T02:10:47.000Z</time>
      </trkpt>
      <trkpt lat="42.307888" lon="-8.815048">
        <ele>-0.2</ele>
        <time>1970-01-01T02:10:48.000Z</time>
      </trkpt>
      <trkpt lat="42.307885" lon="-8.815039">
        <ele>-0.2</ele>
        <time>1970-01-01T02:10:49.000Z</time>
      </trkpt>
      <trkpt lat="42.30788" lon="-8.815025">
        <ele>0</ele>
        <time>1970-01-01T02:10:50.000Z</time>
      </trkpt>
      <trkpt lat="42.307875" lon="-8.815014">
        <ele>0</ele>
        <time>1970-01-01T02:10:51.000Z</time>
      </trkpt>
      <trkpt lat="42.307874" lon="-8.815006">
        <ele>0.2</ele>
        <time>1970-01-01T02:10:52.000Z</time>
      </trkpt>
      <trkpt lat="42.307874" lon="-8.814996">
        <ele>0.2</ele>
        <time>1970-01-01T02:10:53.000Z</time>
      </trkpt>
      <trkpt lat="42.307876" lon="-8.814981">
        <ele>0.4</ele>
        <time>1970-01-01T02:10:54.000Z</time>
      </trkpt>
      <trkpt lat="42.30788" lon="-8.814958">
        <ele>0.4</ele>
        <time>1970-01-01T02:10:55.000Z</time>
      </trkpt>
      <trkpt lat="42.307885" lon="-8.814936">
        <ele>0.6</ele>
        <time>1970-01-01T02:10:56.000Z</time>
      </trkpt>
      <trkpt lat="42.307888" lon="-8.814917">
        <ele>0.4</ele>
        <time>1970-01-01T02:10:57.000Z</time>
      </trkpt>
      <trkpt lat="42.307897" lon="-8.814891">
        <ele>0.6</ele>
        <time>1970-01-01T02:10:58.000Z</time>
      </trkpt>
      <trkpt lat="42.307901" lon="-8.814864">
        <ele>0.4</ele>
        <time>1970-01-01T02:10:59.000Z</time>
      </trkpt>
      <trkpt lat="42.307904" lon="-8.81484">
        <ele>0.4</ele>
        <time>1970-01-01T02:11:00.000Z</time>
      </trkpt>
      <trkpt lat="42.307906" lon="-8.814823">
        <ele>0.4</ele>
        <time>1970-01-01T02:11:01.000Z</time>
      </trkpt>
      <trkpt lat="42.307904" lon="-8.81481">
        <ele>0.4</ele>
        <time>1970-01-01T02:11:02.000Z</time>
      </trkpt>
      <trkpt lat="42.307905" lon="-8.8148">
        <ele>0.4</ele>
        <time>1970-01-01T02:11:03.000Z</time>
      </trkpt>
      <trkpt lat="42.307908" lon="-8.814786">
        <ele>0.6</ele>
        <time>1970-01-01T02:11:04.000Z</time>
      </trkpt>
      <trkpt lat="42.307916" lon="-8.81477">
        <ele>0.8</ele>
        <time>1970-01-01T02:11:05.000Z</time>
      </trkpt>
      <trkpt lat="42.307927" lon="-8.814756">
        <ele>1</ele>
        <time>1970-01-01T02:11:06.000Z</time>
      </trkpt>
      <trkpt lat="42.307943" lon="-8.814742">
        <ele>1</ele>
        <time>1970-01-01T02:11:07.000Z</time>
      </trkpt>
      <trkpt lat="42.30796" lon="-8.814732">
        <ele>1.2</ele>
        <time>1970-01-01T02:11:08.000Z</time>
      </trkpt>
      <trkpt lat="42.307975" lon="-8.81472">
        <ele>1.2</ele>
        <time>1970-01-01T02:11:09.000Z</time>
      </trkpt>
      <trkpt lat="42.307988" lon="-8.814705">
        <ele>1.2</ele>
        <time>1970-01-01T02:11:10.000Z</time>
      </trkpt>
      <trkpt lat="42.307996" lon="-8.814688">
        <ele>1.2</ele>
        <time>1970-01-01T02:11:11.000Z</time>
      </trkpt>
      <trkpt lat="42.308005" lon="-8.81467">
        <ele>1.2</ele>
        <time>1970-01-01T02:11:12.000Z</time>
      </trkpt>
      <trkpt lat="42.308015" lon="-8.814654">
        <ele>1</ele>
        <time>1970-01-01T02:11:13.000Z</time>
      </trkpt>
      <trkpt lat="42.308028" lon="-8.814631">
        <ele>1</ele>
        <time>1970-01-01T02:11:14.000Z</time>
      </trkpt>
      <trkpt lat="42.308041" lon="-8.81461">
        <ele>1.2</ele>
        <time>1970-01-01T02:11:15.000Z</time>
      </trkpt>
      <trkpt lat="42.30805" lon="-8.814594">
        <ele>1.4</ele>
        <time>1970-01-01T02:11:16.000Z</time>
      </trkpt>
      <trkpt lat="42.30806" lon="-8.814578">
        <ele>1.6</ele>
        <time>1970-01-01T02:11:17.000Z</time>
      </trkpt>
      <trkpt lat="42.308068" lon="-8.814566">
        <ele>1.6</ele>
        <time>1970-01-01T02:11:18.000Z</time>
      </trkpt>
      <trkpt lat="42.308076" lon="-8.814557">
        <ele>1.6</ele>
        <time>1970-01-01T02:11:19.000Z</time>
      </trkpt>
      <trkpt lat="42.308083" lon="-8.814551">
        <ele>1.2</ele>
        <time>1970-01-01T02:11:20.000Z</time>
      </trkpt>
      <trkpt lat="42.308088" lon="-8.814546">
        <ele>1.2</ele>
        <time>1970-01-01T02:11:21.000Z</time>
      </trkpt>
      <trkpt lat="42.308091" lon="-8.814549">
        <ele>1</ele>
        <time>1970-01-01T02:11:22.000Z</time>
      </trkpt>
      <trkpt lat="42.308091" lon="-8.814549">
        <ele>1</ele>
        <time>1970-01-01T02:11:23.000Z</time>
      </trkpt>
      <trkpt lat="42.308099" lon="-8.814545">
        <ele>1</ele>
        <time>1970-01-01T02:11:24.000Z</time>
      </trkpt>
      <trkpt lat="42.308105" lon="-8.814538">
        <ele>0.8</ele>
        <time>1970-01-01T02:11:25.000Z</time>
      </trkpt>
      <trkpt lat="42.308112" lon="-8.814519">
        <ele>0.8</ele>
        <time>1970-01-01T02:11:26.000Z</time>
      </trkpt>
      <trkpt lat="42.308117" lon="-8.8145">
        <ele>0.8</ele>
        <time>1970-01-01T02:11:27.000Z</time>
      </trkpt>
      <trkpt lat="42.308116" lon="-8.814476">
        <ele>0.8</ele>
        <time>1970-01-01T02:11:28.000Z</time>
      </trkpt>
      <trkpt lat="42.308114" lon="-8.81445">
        <ele>0.6</ele>
        <time>1970-01-01T02:11:29.000Z</time>
      </trkpt>
      <trkpt lat="42.30811" lon="-8.814427">
        <ele>0.6</ele>
        <time>1970-01-01T02:11:30.000Z</time>
      </trkpt>
      <trkpt lat="42.308113" lon="-8.81441">
        <ele>0.6</ele>
        <time>1970-01-01T02:11:31.000Z</time>
      </trkpt>
      <trkpt lat="42.308112" lon="-8.814402">
        <ele>0.6</ele>
        <time>1970-01-01T02:11:32.000Z</time>
      </trkpt>
      <trkpt lat="42.308108" lon="-8.814392">
        <ele>0.6</ele>
        <time>1970-01-01T02:11:33.000Z</time>
      </trkpt>
      <trkpt lat="42.308106" lon="-8.814373">
        <ele>0.8</ele>
        <time>1970-01-01T02:11:34.000Z</time>
      </trkpt>
      <trkpt lat="42.308102" lon="-8.814351">
        <ele>1.2</ele>
        <time>1970-01-01T02:11:35.000Z</time>
      </trkpt>
      <trkpt lat="42.308098" lon="-8.814331">
        <ele>1.4</ele>
        <time>1970-01-01T02:11:36.000Z</time>
      </trkpt>
      <trkpt lat="42.308096" lon="-8.814309">
        <ele>1.6</ele>
        <time>1970-01-01T02:11:37.000Z</time>
      </trkpt>
      <trkpt lat="42.308099" lon="-8.814284">
        <ele>1.6</ele>
        <time>1970-01-01T02:11:38.000Z</time>
      </trkpt>
      <trkpt lat="42.308097" lon="-8.814268">
        <ele>1.8</ele>
        <time>1970-01-01T02:11:39.000Z</time>
      </trkpt>
      <trkpt lat="42.308096" lon="-8.814251">
        <ele>2.4</ele>
        <time>1970-01-01T02:11:40.000Z</time>
      </trkpt>
      <trkpt lat="42.308097" lon="-8.814227">
        <ele>2.8</ele>
        <time>1970-01-01T02:11:41.000Z</time>
      </trkpt>
      <trkpt lat="42.308098" lon="-8.814212">
        <ele>2.8</ele>
        <time>1970-01-01T02:11:42.000Z</time>
      </trkpt>
      <trkpt lat="42.308099" lon="-8.814193">
        <ele>3</ele>
        <time>1970-01-01T02:11:43.000Z</time>
      </trkpt>
      <trkpt lat="42.308097" lon="-8.814175">
        <ele>3</ele>
        <time>1970-01-01T02:11:44.000Z</time>
      </trkpt>
      <trkpt lat="42.308093" lon="-8.814163">
        <ele>3</ele>
        <time>1970-01-01T02:11:45.000Z</time>
      </trkpt>
      <trkpt lat="42.308088" lon="-8.814151">
        <ele>3</ele>
        <time>1970-01-01T02:11:46.000Z</time>
      </trkpt>
      <trkpt lat="42.308081" lon="-8.814137">
        <ele>2.8</ele>
        <time>1970-01-01T02:11:47.000Z</time>
      </trkpt>
      <trkpt lat="42.308078" lon="-8.814126">
        <ele>2.8</ele>
        <time>1970-01-01T02:11:48.000Z</time>
      </trkpt>
      <trkpt lat="42.308075" lon="-8.814114">
        <ele>2.6</ele>
        <time>1970-01-01T02:11:49.000Z</time>
      </trkpt>
      <trkpt lat="42.308072" lon="-8.814096">
        <ele>3</ele>
        <time>1970-01-01T02:11:50.000Z</time>
      </trkpt>
      <trkpt lat="42.308066" lon="-8.814077">
        <ele>2.8</ele>
        <time>1970-01-01T02:11:51.000Z</time>
      </trkpt>
      <trkpt lat="42.308056" lon="-8.814056">
        <ele>3.2</ele>
        <time>1970-01-01T02:11:52.000Z</time>
      </trkpt>
      <trkpt lat="42.308049" lon="-8.814038">
        <ele>2.8</ele>
        <time>1970-01-01T02:11:53.000Z</time>
      </trkpt>
      <trkpt lat="42.308038" lon="-8.814016">
        <ele>3.2</ele>
        <time>1970-01-01T02:11:54.000Z</time>
      </trkpt>
      <trkpt lat="42.308028" lon="-8.813995">
        <ele>3.6</ele>
        <time>1970-01-01T02:11:55.000Z</time>
      </trkpt>
      <trkpt lat="42.30802" lon="-8.813978">
        <ele>3.8</ele>
        <time>1970-01-01T02:11:56.000Z</time>
      </trkpt>
      <trkpt lat="42.308014" lon="-8.813967">
        <ele>3.8</ele>
        <time>1970-01-01T02:11:57.000Z</time>
      </trkpt>
      <trkpt lat="42.308011" lon="-8.81396">
        <ele>3.8</ele>
        <time>1970-01-01T02:11:58.000Z</time>
      </trkpt>
      <trkpt lat="42.308011" lon="-8.81395">
        <ele>3.8</ele>
        <time>1970-01-01T02:11:59.000Z</time>
      </trkpt>
      <trkpt lat="42.308012" lon="-8.81394">
        <ele>4</ele>
        <time>1970-01-01T02:12:00.000Z</time>
      </trkpt>
      <trkpt lat="42.308014" lon="-8.813929">
        <ele>4.2</ele>
        <time>1970-01-01T02:12:01.000Z</time>
      </trkpt>
      <trkpt lat="42.308014" lon="-8.813918">
        <ele>4.4</ele>
        <time>1970-01-01T02:12:02.000Z</time>
      </trkpt>
      <trkpt lat="42.308024" lon="-8.813903">
        <ele>4</ele>
        <time>1970-01-01T02:12:03.000Z</time>
      </trkpt>
      <trkpt lat="42.308027" lon="-8.813892">
        <ele>4.4</ele>
        <time>1970-01-01T02:12:04.000Z</time>
      </trkpt>
      <trkpt lat="42.308029" lon="-8.813883">
        <ele>4.6</ele>
        <time>1970-01-01T02:12:05.000Z</time>
      </trkpt>
      <trkpt lat="42.30803" lon="-8.813871">
        <ele>4.6</ele>
        <time>1970-01-01T02:12:06.000Z</time>
      </trkpt>
      <trkpt lat="42.308031" lon="-8.81386">
        <ele>4.6</ele>
        <time>1970-01-01T02:12:07.000Z</time>
      </trkpt>
      <trkpt lat="42.308031" lon="-8.813845">
        <ele>4.6</ele>
        <time>1970-01-01T02:12:08.000Z</time>
      </trkpt>
      <trkpt lat="42.308035" lon="-8.813831">
        <ele>4.6</ele>
        <time>1970-01-01T02:12:09.000Z</time>
      </trkpt>
      <trkpt lat="42.308038" lon="-8.813816">
        <ele>4.4</ele>
        <time>1970-01-01T02:12:10.000Z</time>
      </trkpt>
      <trkpt lat="42.308039" lon="-8.813799">
        <ele>4.2</ele>
        <time>1970-01-01T02:12:11.000Z</time>
      </trkpt>
      <trkpt lat="42.30804" lon="-8.813779">
        <ele>4</ele>
        <time>1970-01-01T02:12:12.000Z</time>
      </trkpt>
      <trkpt lat="42.308036" lon="-8.813753">
        <ele>4</ele>
        <time>1970-01-01T02:12:13.000Z</time>
      </trkpt>
      <trkpt lat="42.308039" lon="-8.813736">
        <ele>4.2</ele>
        <time>1970-01-01T02:12:14.000Z</time>
      </trkpt>
      <trkpt lat="42.308041" lon="-8.813717">
        <ele>4.2</ele>
        <time>1970-01-01T02:12:15.000Z</time>
      </trkpt>
      <trkpt lat="42.308041" lon="-8.813695">
        <ele>4.4</ele>
        <time>1970-01-01T02:12:16.000Z</time>
      </trkpt>
      <trkpt lat="42.308058" lon="-8.813671">
        <ele>4.6</ele>
        <time>1970-01-01T02:12:17.000Z</time>
      </trkpt>
      <trkpt lat="42.308056" lon="-8.81364">
        <ele>4.6</ele>
        <time>1970-01-01T02:12:18.000Z</time>
      </trkpt>
      <trkpt lat="42.308057" lon="-8.813618">
        <ele>4.6</ele>
        <time>1970-01-01T02:12:19.000Z</time>
      </trkpt>
      <trkpt lat="42.308055" lon="-8.813604">
        <ele>4.6</ele>
        <time>1970-01-01T02:12:20.000Z</time>
      </trkpt>
      <trkpt lat="42.308056" lon="-8.813587">
        <ele>4.6</ele>
        <time>1970-01-01T02:12:21.000Z</time>
      </trkpt>
      <trkpt lat="42.308051" lon="-8.813566">
        <ele>4.6</ele>
        <time>1970-01-01T02:12:22.000Z</time>
      </trkpt>
      <trkpt lat="42.308047" lon="-8.813546">
        <ele>4.8</ele>
        <time>1970-01-01T02:12:23.000Z</time>
      </trkpt>
      <trkpt lat="42.308044" lon="-8.81353">
        <ele>4.8</ele>
        <time>1970-01-01T02:12:24.000Z</time>
      </trkpt>
      <trkpt lat="42.308041" lon="-8.813512">
        <ele>4.8</ele>
        <time>1970-01-01T02:12:25.000Z</time>
      </trkpt>
      <trkpt lat="42.308041" lon="-8.8135">
        <ele>4.8</ele>
        <time>1970-01-01T02:12:26.000Z</time>
      </trkpt>
      <trkpt lat="42.308035" lon="-8.81349">
        <ele>5</ele>
        <time>1970-01-01T02:12:27.000Z</time>
      </trkpt>
      <trkpt lat="42.308027" lon="-8.813481">
        <ele>5.2</ele>
        <time>1970-01-01T02:12:28.000Z</time>
      </trkpt>
      <trkpt lat="42.308019" lon="-8.813474">
        <ele>5.4</ele>
        <time>1970-01-01T02:12:29.000Z</time>
      </trkpt>
      <trkpt lat="42.30801" lon="-8.813473">
        <ele>5.6</ele>
        <time>1970-01-01T02:12:30.000Z</time>
      </trkpt>
      <trkpt lat="42.307998" lon="-8.813473">
        <ele>5.8</ele>
        <time>1970-01-01T02:12:31.000Z</time>
      </trkpt>
      <trkpt lat="42.307983" lon="-8.813474">
        <ele>6</ele>
        <time>1970-01-01T02:12:32.000Z</time>
      </trkpt>
      <trkpt lat="42.307971" lon="-8.813464">
        <ele>6.2</ele>
        <time>1970-01-01T02:12:33.000Z</time>
      </trkpt>
      <trkpt lat="42.307955" lon="-8.813452">
        <ele>6.4</ele>
        <time>1970-01-01T02:12:34.000Z</time>
      </trkpt>
      <trkpt lat="42.307943" lon="-8.813445">
        <ele>6.4</ele>
        <time>1970-01-01T02:12:35.000Z</time>
      </trkpt>
      <trkpt lat="42.307932" lon="-8.813442">
        <ele>6.4</ele>
        <time>1970-01-01T02:12:36.000Z</time>
      </trkpt>
      <trkpt lat="42.307923" lon="-8.813438">
        <ele>6.6</ele>
        <time>1970-01-01T02:12:37.000Z</time>
      </trkpt>
      <trkpt lat="42.307914" lon="-8.813431">
        <ele>6.6</ele>
        <time>1970-01-01T02:12:38.000Z</time>
      </trkpt>
      <trkpt lat="42.307905" lon="-8.813424">
        <ele>6.6</ele>
        <time>1970-01-01T02:12:39.000Z</time>
      </trkpt>
      <trkpt lat="42.307896" lon="-8.813423">
        <ele>6.6</ele>
        <time>1970-01-01T02:12:40.000Z</time>
      </trkpt>
      <trkpt lat="42.307889" lon="-8.813419">
        <ele>6.4</ele>
        <time>1970-01-01T02:12:41.000Z</time>
      </trkpt>
      <trkpt lat="42.307878" lon="-8.813414">
        <ele>6.4</ele>
        <time>1970-01-01T02:12:42.000Z</time>
      </trkpt>
      <trkpt lat="42.307864" lon="-8.813404">
        <ele>6.4</ele>
        <time>1970-01-01T02:12:43.000Z</time>
      </trkpt>
      <trkpt lat="42.30785" lon="-8.813395">
        <ele>6.4</ele>
        <time>1970-01-01T02:12:44.000Z</time>
      </trkpt>
      <trkpt lat="42.307834" lon="-8.813384">
        <ele>6.4</ele>
        <time>1970-01-01T02:12:45.000Z</time>
      </trkpt>
      <trkpt lat="42.307819" lon="-8.813371">
        <ele>6.2</ele>
        <time>1970-01-01T02:12:46.000Z</time>
      </trkpt>
      <trkpt lat="42.307805" lon="-8.813362">
        <ele>6.4</ele>
        <time>1970-01-01T02:12:47.000Z</time>
      </trkpt>
      <trkpt lat="42.307792" lon="-8.813353">
        <ele>6.8</ele>
        <time>1970-01-01T02:12:48.000Z</time>
      </trkpt>
      <trkpt lat="42.307778" lon="-8.813345">
        <ele>7</ele>
        <time>1970-01-01T02:12:49.000Z</time>
      </trkpt>
      <trkpt lat="42.307762" lon="-8.813339">
        <ele>7</ele>
        <time>1970-01-01T02:12:50.000Z</time>
      </trkpt>
      <trkpt lat="42.307747" lon="-8.813335">
        <ele>7</ele>
        <time>1970-01-01T02:12:51.000Z</time>
      </trkpt>
      <trkpt lat="42.307734" lon="-8.81333">
        <ele>7</ele>
        <time>1970-01-01T02:12:52.000Z</time>
      </trkpt>
      <trkpt lat="42.307715" lon="-8.813326">
        <ele>7</ele>
        <time>1970-01-01T02:12:53.000Z</time>
      </trkpt>
      <trkpt lat="42.307701" lon="-8.813322">
        <ele>7</ele>
        <time>1970-01-01T02:12:54.000Z</time>
      </trkpt>
      <trkpt lat="42.30769" lon="-8.813316">
        <ele>7</ele>
        <time>1970-01-01T02:12:55.000Z</time>
      </trkpt>
      <trkpt lat="42.307676" lon="-8.813314">
        <ele>7</ele>
        <time>1970-01-01T02:12:56.000Z</time>
      </trkpt>
      <trkpt lat="42.307663" lon="-8.813306">
        <ele>7</ele>
        <time>1970-01-01T02:12:57.000Z</time>
      </trkpt>
      <trkpt lat="42.307647" lon="-8.813304">
        <ele>7</ele>
        <time>1970-01-01T02:12:58.000Z</time>
      </trkpt>
      <trkpt lat="42.307631" lon="-8.813303">
        <ele>7</ele>
        <time>1970-01-01T02:12:59.000Z</time>
      </trkpt>
      <trkpt lat="42.307621" lon="-8.813299">
        <ele>7.4</ele>
        <time>1970-01-01T02:13:00.000Z</time>
      </trkpt>
      <trkpt lat="42.307611" lon="-8.81329">
        <ele>7.6</ele>
        <time>1970-01-01T02:13:01.000Z</time>
      </trkpt>
      <trkpt lat="42.307603" lon="-8.813283">
        <ele>7.6</ele>
        <time>1970-01-01T02:13:02.000Z</time>
      </trkpt>
      <trkpt lat="42.307594" lon="-8.813271">
        <ele>7.6</ele>
        <time>1970-01-01T02:13:03.000Z</time>
      </trkpt>
      <trkpt lat="42.307584" lon="-8.813263">
        <ele>7.8</ele>
        <time>1970-01-01T02:13:04.000Z</time>
      </trkpt>
      <trkpt lat="42.307575" lon="-8.813256">
        <ele>7.8</ele>
        <time>1970-01-01T02:13:05.000Z</time>
      </trkpt>
      <trkpt lat="42.307566" lon="-8.813254">
        <ele>7.8</ele>
        <time>1970-01-01T02:13:06.000Z</time>
      </trkpt>
      <trkpt lat="42.30756" lon="-8.813251">
        <ele>7.8</ele>
        <time>1970-01-01T02:13:07.000Z</time>
      </trkpt>
      <trkpt lat="42.307554" lon="-8.813249">
        <ele>7.4</ele>
        <time>1970-01-01T02:13:08.000Z</time>
      </trkpt>
      <trkpt lat="42.307546" lon="-8.813247">
        <ele>7.4</ele>
        <time>1970-01-01T02:13:09.000Z</time>
      </trkpt>
      <trkpt lat="42.307538" lon="-8.813239">
        <ele>7.4</ele>
        <time>1970-01-01T02:13:10.000Z</time>
      </trkpt>
      <trkpt lat="42.307522" lon="-8.813233">
        <ele>7.4</ele>
        <time>1970-01-01T02:13:11.000Z</time>
      </trkpt>
      <trkpt lat="42.307504" lon="-8.813225">
        <ele>7.4</ele>
        <time>1970-01-01T02:13:12.000Z</time>
      </trkpt>
      <trkpt lat="42.307488" lon="-8.813219">
        <ele>7.4</ele>
        <time>1970-01-01T02:13:13.000Z</time>
      </trkpt>
      <trkpt lat="42.307474" lon="-8.813211">
        <ele>7.4</ele>
        <time>1970-01-01T02:13:14.000Z</time>
      </trkpt>
      <trkpt lat="42.307457" lon="-8.813207">
        <ele>7.4</ele>
        <time>1970-01-01T02:13:15.000Z</time>
      </trkpt>
      <trkpt lat="42.307442" lon="-8.813198">
        <ele>7.6</ele>
        <time>1970-01-01T02:13:16.000Z</time>
      </trkpt>
      <trkpt lat="42.307429" lon="-8.81319">
        <ele>7.8</ele>
        <time>1970-01-01T02:13:17.000Z</time>
      </trkpt>
      <trkpt lat="42.307412" lon="-8.813176">
        <ele>7.4</ele>
        <time>1970-01-01T02:13:18.000Z</time>
      </trkpt>
      <trkpt lat="42.307395" lon="-8.813166">
        <ele>7.2</ele>
        <time>1970-01-01T02:13:19.000Z</time>
      </trkpt>
      <trkpt lat="42.30738" lon="-8.813157">
        <ele>7.4</ele>
        <time>1970-01-01T02:13:20.000Z</time>
      </trkpt>
      <trkpt lat="42.307364" lon="-8.813153">
        <ele>7.4</ele>
        <time>1970-01-01T02:13:21.000Z</time>
      </trkpt>
      <trkpt lat="42.307352" lon="-8.813148">
        <ele>7.6</ele>
        <time>1970-01-01T02:13:22.000Z</time>
      </trkpt>
      <trkpt lat="42.307336" lon="-8.81315">
        <ele>7.6</ele>
        <time>1970-01-01T02:13:23.000Z</time>
      </trkpt>
      <trkpt lat="42.307318" lon="-8.813144">
        <ele>7.6</ele>
        <time>1970-01-01T02:13:24.000Z</time>
      </trkpt>
      <trkpt lat="42.307284" lon="-8.813134">
        <ele>7.6</ele>
        <time>1970-01-01T02:13:25.000Z</time>
      </trkpt>
      <trkpt lat="42.30726" lon="-8.813136">
        <ele>7.6</ele>
        <time>1970-01-01T02:13:26.000Z</time>
      </trkpt>
      <trkpt lat="42.307239" lon="-8.813137">
        <ele>7.4</ele>
        <time>1970-01-01T02:13:27.000Z</time>
      </trkpt>
      <trkpt lat="42.307226" lon="-8.813143">
        <ele>7.2</ele>
        <time>1970-01-01T02:13:28.000Z</time>
      </trkpt>
      <trkpt lat="42.307213" lon="-8.81315">
        <ele>7.2</ele>
        <time>1970-01-01T02:13:29.000Z</time>
      </trkpt>
      <trkpt lat="42.307191" lon="-8.81316">
        <ele>7.2</ele>
        <time>1970-01-01T02:13:30.000Z</time>
      </trkpt>
      <trkpt lat="42.307186" lon="-8.813163">
        <ele>7.2</ele>
        <time>1970-01-01T02:13:31.000Z</time>
      </trkpt>
      <trkpt lat="42.307175" lon="-8.813163">
        <ele>7.2</ele>
        <time>1970-01-01T02:13:32.000Z</time>
      </trkpt>
      <trkpt lat="42.307168" lon="-8.813169">
        <ele>7.4</ele>
        <time>1970-01-01T02:13:33.000Z</time>
      </trkpt>
      <trkpt lat="42.30716" lon="-8.813172">
        <ele>7.4</ele>
        <time>1970-01-01T02:13:34.000Z</time>
      </trkpt>
      <trkpt lat="42.307152" lon="-8.813177">
        <ele>7.4</ele>
        <time>1970-01-01T02:13:35.000Z</time>
      </trkpt>
      <trkpt lat="42.307145" lon="-8.813181">
        <ele>7.4</ele>
        <time>1970-01-01T02:13:36.000Z</time>
      </trkpt>
      <trkpt lat="42.307134" lon="-8.813183">
        <ele>7.4</ele>
        <time>1970-01-01T02:13:37.000Z</time>
      </trkpt>
      <trkpt lat="42.307122" lon="-8.81318">
        <ele>7.4</ele>
        <time>1970-01-01T02:13:38.000Z</time>
      </trkpt>
      <trkpt lat="42.307108" lon="-8.813174">
        <ele>7.6</ele>
        <time>1970-01-01T02:13:39.000Z</time>
      </trkpt>
      <trkpt lat="42.307096" lon="-8.813171">
        <ele>7.8</ele>
        <time>1970-01-01T02:13:40.000Z</time>
      </trkpt>
      <trkpt lat="42.307085" lon="-8.81317">
        <ele>8</ele>
        <time>1970-01-01T02:13:41.000Z</time>
      </trkpt>
      <trkpt lat="42.307075" lon="-8.813162">
        <ele>8</ele>
        <time>1970-01-01T02:13:42.000Z</time>
      </trkpt>
      <trkpt lat="42.307067" lon="-8.813154">
        <ele>7.8</ele>
        <time>1970-01-01T02:13:43.000Z</time>
      </trkpt>
      <trkpt lat="42.307059" lon="-8.813149">
        <ele>8</ele>
        <time>1970-01-01T02:13:44.000Z</time>
      </trkpt>
      <trkpt lat="42.307053" lon="-8.813142">
        <ele>8</ele>
        <time>1970-01-01T02:13:45.000Z</time>
      </trkpt>
      <trkpt lat="42.307046" lon="-8.813132">
        <ele>8.2</ele>
        <time>1970-01-01T02:13:46.000Z</time>
      </trkpt>
      <trkpt lat="42.307044" lon="-8.813119">
        <ele>8.2</ele>
        <time>1970-01-01T02:13:47.000Z</time>
      </trkpt>
      <trkpt lat="42.307046" lon="-8.813104">
        <ele>8</ele>
        <time>1970-01-01T02:13:48.000Z</time>
      </trkpt>
      <trkpt lat="42.307047" lon="-8.813089">
        <ele>8.2</ele>
        <time>1970-01-01T02:13:49.000Z</time>
      </trkpt>
      <trkpt lat="42.307046" lon="-8.813078">
        <ele>8.4</ele>
        <time>1970-01-01T02:13:50.000Z</time>
      </trkpt>
      <trkpt lat="42.307044" lon="-8.813067">
        <ele>8.4</ele>
        <time>1970-01-01T02:13:51.000Z</time>
      </trkpt>
      <trkpt lat="42.307041" lon="-8.813056">
        <ele>8.4</ele>
        <time>1970-01-01T02:13:52.000Z</time>
      </trkpt>
      <trkpt lat="42.307038" lon="-8.813045">
        <ele>8.6</ele>
        <time>1970-01-01T02:13:53.000Z</time>
      </trkpt>
      <trkpt lat="42.307036" lon="-8.813041">
        <ele>8.6</ele>
        <time>1970-01-01T02:13:54.000Z</time>
      </trkpt>
      <trkpt lat="42.307033" lon="-8.813035">
        <ele>8.6</ele>
        <time>1970-01-01T02:13:55.000Z</time>
      </trkpt>
      <trkpt lat="42.307032" lon="-8.813026">
        <ele>8.6</ele>
        <time>1970-01-01T02:13:56.000Z</time>
      </trkpt>
      <trkpt lat="42.307029" lon="-8.813015">
        <ele>8.6</ele>
        <time>1970-01-01T02:13:57.000Z</time>
      </trkpt>
      <trkpt lat="42.307025" lon="-8.813006">
        <ele>8.4</ele>
        <time>1970-01-01T02:13:58.000Z</time>
      </trkpt>
      <trkpt lat="42.307022" lon="-8.81299">
        <ele>8.4</ele>
        <time>1970-01-01T02:13:59.000Z</time>
      </trkpt>
      <trkpt lat="42.307021" lon="-8.812977">
        <ele>8.6</ele>
        <time>1970-01-01T02:14:00.000Z</time>
      </trkpt>
      <trkpt lat="42.307019" lon="-8.812963">
        <ele>8.6</ele>
        <time>1970-01-01T02:14:01.000Z</time>
      </trkpt>
      <trkpt lat="42.307016" lon="-8.812952">
        <ele>8.6</ele>
        <time>1970-01-01T02:14:02.000Z</time>
      </trkpt>
      <trkpt lat="42.307008" lon="-8.812937">
        <ele>8.6</ele>
        <time>1970-01-01T02:14:03.000Z</time>
      </trkpt>
      <trkpt lat="42.306998" lon="-8.812917">
        <ele>8.6</ele>
        <time>1970-01-01T02:14:04.000Z</time>
      </trkpt>
      <trkpt lat="42.306989" lon="-8.812909">
        <ele>8.6</ele>
        <time>1970-01-01T02:14:05.000Z</time>
      </trkpt>
      <trkpt lat="42.306978" lon="-8.812893">
        <ele>8.8</ele>
        <time>1970-01-01T02:14:06.000Z</time>
      </trkpt>
      <trkpt lat="42.306972" lon="-8.812871">
        <ele>8.6</ele>
        <time>1970-01-01T02:14:07.000Z</time>
      </trkpt>
      <trkpt lat="42.306969" lon="-8.812853">
        <ele>8.6</ele>
        <time>1970-01-01T02:14:08.000Z</time>
      </trkpt>
      <trkpt lat="42.306964" lon="-8.812836">
        <ele>8.6</ele>
        <time>1970-01-01T02:14:09.000Z</time>
      </trkpt>
      <trkpt lat="42.306958" lon="-8.812817">
        <ele>8.6</ele>
        <time>1970-01-01T02:14:10.000Z</time>
      </trkpt>
      <trkpt lat="42.306952" lon="-8.812799">
        <ele>8.6</ele>
        <time>1970-01-01T02:14:11.000Z</time>
      </trkpt>
      <trkpt lat="42.306943" lon="-8.812782">
        <ele>8.8</ele>
        <time>1970-01-01T02:14:12.000Z</time>
      </trkpt>
      <trkpt lat="42.306936" lon="-8.812769">
        <ele>8.6</ele>
        <time>1970-01-01T02:14:13.000Z</time>
      </trkpt>
      <trkpt lat="42.306932" lon="-8.812755">
        <ele>8.6</ele>
        <time>1970-01-01T02:14:14.000Z</time>
      </trkpt>
      <trkpt lat="42.306927" lon="-8.812741">
        <ele>8.6</ele>
        <time>1970-01-01T02:14:15.000Z</time>
      </trkpt>
      <trkpt lat="42.30692" lon="-8.812729">
        <ele>8.2</ele>
        <time>1970-01-01T02:14:16.000Z</time>
      </trkpt>
      <trkpt lat="42.306915" lon="-8.812715">
        <ele>8.2</ele>
        <time>1970-01-01T02:14:17.000Z</time>
      </trkpt>
      <trkpt lat="42.306905" lon="-8.812696">
        <ele>8.2</ele>
        <time>1970-01-01T02:14:18.000Z</time>
      </trkpt>
      <trkpt lat="42.3069" lon="-8.81268">
        <ele>8</ele>
        <time>1970-01-01T02:14:19.000Z</time>
      </trkpt>
      <trkpt lat="42.306896" lon="-8.812666">
        <ele>8.2</ele>
        <time>1970-01-01T02:14:20.000Z</time>
      </trkpt>
      <trkpt lat="42.30689" lon="-8.812653">
        <ele>8.2</ele>
        <time>1970-01-01T02:14:21.000Z</time>
      </trkpt>
      <trkpt lat="42.306884" lon="-8.81264">
        <ele>8.2</ele>
        <time>1970-01-01T02:14:22.000Z</time>
      </trkpt>
      <trkpt lat="42.30688" lon="-8.812629">
        <ele>8.4</ele>
        <time>1970-01-01T02:14:23.000Z</time>
      </trkpt>
      <trkpt lat="42.306874" lon="-8.81261">
        <ele>8.6</ele>
        <time>1970-01-01T02:14:24.000Z</time>
      </trkpt>
      <trkpt lat="42.30687" lon="-8.812587">
        <ele>8.8</ele>
        <time>1970-01-01T02:14:25.000Z</time>
      </trkpt>
      <trkpt lat="42.306869" lon="-8.812568">
        <ele>8.8</ele>
        <time>1970-01-01T02:14:26.000Z</time>
      </trkpt>
      <trkpt lat="42.306865" lon="-8.812552">
        <ele>9</ele>
        <time>1970-01-01T02:14:27.000Z</time>
      </trkpt>
      <trkpt lat="42.306862" lon="-8.812542">
        <ele>9</ele>
        <time>1970-01-01T02:14:28.000Z</time>
      </trkpt>
      <trkpt lat="42.30686" lon="-8.812531">
        <ele>9.2</ele>
        <time>1970-01-01T02:14:29.000Z</time>
      </trkpt>
      <trkpt lat="42.306861" lon="-8.812524">
        <ele>9</ele>
        <time>1970-01-01T02:14:30.000Z</time>
      </trkpt>
      <trkpt lat="42.30686" lon="-8.812514">
        <ele>9</ele>
        <time>1970-01-01T02:14:31.000Z</time>
      </trkpt>
      <trkpt lat="42.306859" lon="-8.812505">
        <ele>9</ele>
        <time>1970-01-01T02:14:32.000Z</time>
      </trkpt>
      <trkpt lat="42.306855" lon="-8.812497">
        <ele>9.2</ele>
        <time>1970-01-01T02:14:33.000Z</time>
      </trkpt>
      <trkpt lat="42.306854" lon="-8.812489">
        <ele>9.2</ele>
        <time>1970-01-01T02:14:34.000Z</time>
      </trkpt>
      <trkpt lat="42.306853" lon="-8.812478">
        <ele>9.2</ele>
        <time>1970-01-01T02:14:35.000Z</time>
      </trkpt>
      <trkpt lat="42.306852" lon="-8.812468">
        <ele>9.2</ele>
        <time>1970-01-01T02:14:36.000Z</time>
      </trkpt>
      <trkpt lat="42.306855" lon="-8.812454">
        <ele>9.2</ele>
        <time>1970-01-01T02:14:37.000Z</time>
      </trkpt>
      <trkpt lat="42.306858" lon="-8.812436">
        <ele>9.2</ele>
        <time>1970-01-01T02:14:38.000Z</time>
      </trkpt>
      <trkpt lat="42.306862" lon="-8.81242">
        <ele>9.4</ele>
        <time>1970-01-01T02:14:39.000Z</time>
      </trkpt>
      <trkpt lat="42.306862" lon="-8.812404">
        <ele>9.2</ele>
        <time>1970-01-01T02:14:40.000Z</time>
      </trkpt>
      <trkpt lat="42.306858" lon="-8.812381">
        <ele>9.4</ele>
        <time>1970-01-01T02:14:41.000Z</time>
      </trkpt>
      <trkpt lat="42.306858" lon="-8.812355">
        <ele>9.4</ele>
        <time>1970-01-01T02:14:42.000Z</time>
      </trkpt>
      <trkpt lat="42.306857" lon="-8.812338">
        <ele>9.4</ele>
        <time>1970-01-01T02:14:43.000Z</time>
      </trkpt>
      <trkpt lat="42.306851" lon="-8.812318">
        <ele>9.4</ele>
        <time>1970-01-01T02:14:44.000Z</time>
      </trkpt>
      <trkpt lat="42.306846" lon="-8.812305">
        <ele>9.6</ele>
        <time>1970-01-01T02:14:45.000Z</time>
      </trkpt>
      <trkpt lat="42.306844" lon="-8.812286">
        <ele>9.4</ele>
        <time>1970-01-01T02:14:46.000Z</time>
      </trkpt>
      <trkpt lat="42.306842" lon="-8.812272">
        <ele>9.4</ele>
        <time>1970-01-01T02:14:47.000Z</time>
      </trkpt>
      <trkpt lat="42.306837" lon="-8.812255">
        <ele>9.4</ele>
        <time>1970-01-01T02:14:48.000Z</time>
      </trkpt>
      <trkpt lat="42.306836" lon="-8.812245">
        <ele>9.4</ele>
        <time>1970-01-01T02:14:49.000Z</time>
      </trkpt>
      <trkpt lat="42.306837" lon="-8.812231">
        <ele>9.4</ele>
        <time>1970-01-01T02:14:50.000Z</time>
      </trkpt>
      <trkpt lat="42.306838" lon="-8.812219">
        <ele>9.4</ele>
        <time>1970-01-01T02:14:51.000Z</time>
      </trkpt>
      <trkpt lat="42.306838" lon="-8.812202">
        <ele>9.4</ele>
        <time>1970-01-01T02:14:52.000Z</time>
      </trkpt>
      <trkpt lat="42.306835" lon="-8.812184">
        <ele>9.4</ele>
        <time>1970-01-01T02:14:53.000Z</time>
      </trkpt>
      <trkpt lat="42.306832" lon="-8.812166">
        <ele>9.4</ele>
        <time>1970-01-01T02:14:54.000Z</time>
      </trkpt>
      <trkpt lat="42.306835" lon="-8.812154">
        <ele>9.4</ele>
        <time>1970-01-01T02:14:55.000Z</time>
      </trkpt>
      <trkpt lat="42.306839" lon="-8.812143">
        <ele>9.4</ele>
        <time>1970-01-01T02:14:56.000Z</time>
      </trkpt>
      <trkpt lat="42.306842" lon="-8.812134">
        <ele>9.4</ele>
        <time>1970-01-01T02:14:57.000Z</time>
      </trkpt>
      <trkpt lat="42.306842" lon="-8.812126">
        <ele>9.2</ele>
        <time>1970-01-01T02:14:58.000Z</time>
      </trkpt>
      <trkpt lat="42.306842" lon="-8.812118">
        <ele>9</ele>
        <time>1970-01-01T02:14:59.000Z</time>
      </trkpt>
      <trkpt lat="42.306845" lon="-8.812112">
        <ele>9</ele>
        <time>1970-01-01T02:15:00.000Z</time>
      </trkpt>
      <trkpt lat="42.306853" lon="-8.812105">
        <ele>9.2</ele>
        <time>1970-01-01T02:15:01.000Z</time>
      </trkpt>
      <trkpt lat="42.306861" lon="-8.812098">
        <ele>9.4</ele>
        <time>1970-01-01T02:15:02.000Z</time>
      </trkpt>
      <trkpt lat="42.306869" lon="-8.812091">
        <ele>9.2</ele>
        <time>1970-01-01T02:15:03.000Z</time>
      </trkpt>
      <trkpt lat="42.306882" lon="-8.812079">
        <ele>9.4</ele>
        <time>1970-01-01T02:15:04.000Z</time>
      </trkpt>
      <trkpt lat="42.306892" lon="-8.812067">
        <ele>9.6</ele>
        <time>1970-01-01T02:15:05.000Z</time>
      </trkpt>
      <trkpt lat="42.3069" lon="-8.812047">
        <ele>9.6</ele>
        <time>1970-01-01T02:15:06.000Z</time>
      </trkpt>
      <trkpt lat="42.306908" lon="-8.812024">
        <ele>9.6</ele>
        <time>1970-01-01T02:15:07.000Z</time>
      </trkpt>
      <trkpt lat="42.306911" lon="-8.812004">
        <ele>9.8</ele>
        <time>1970-01-01T02:15:08.000Z</time>
      </trkpt>
      <trkpt lat="42.306909" lon="-8.811987">
        <ele>9.6</ele>
        <time>1970-01-01T02:15:09.000Z</time>
      </trkpt>
      <trkpt lat="42.30691" lon="-8.811973">
        <ele>9.6</ele>
        <time>1970-01-01T02:15:10.000Z</time>
      </trkpt>
      <trkpt lat="42.306906" lon="-8.811959">
        <ele>9.6</ele>
        <time>1970-01-01T02:15:11.000Z</time>
      </trkpt>
      <trkpt lat="42.306905" lon="-8.811942">
        <ele>9.6</ele>
        <time>1970-01-01T02:15:12.000Z</time>
      </trkpt>
      <trkpt lat="42.306902" lon="-8.811924">
        <ele>9.6</ele>
        <time>1970-01-01T02:15:13.000Z</time>
      </trkpt>
      <trkpt lat="42.306899" lon="-8.811913">
        <ele>9.8</ele>
        <time>1970-01-01T02:15:14.000Z</time>
      </trkpt>
      <trkpt lat="42.306897" lon="-8.811905">
        <ele>9.8</ele>
        <time>1970-01-01T02:15:15.000Z</time>
      </trkpt>
      <trkpt lat="42.30689" lon="-8.811898">
        <ele>9.8</ele>
        <time>1970-01-01T02:15:16.000Z</time>
      </trkpt>
      <trkpt lat="42.306886" lon="-8.811887">
        <ele>9.8</ele>
        <time>1970-01-01T02:15:17.000Z</time>
      </trkpt>
      <trkpt lat="42.306886" lon="-8.811877">
        <ele>9.8</ele>
        <time>1970-01-01T02:15:18.000Z</time>
      </trkpt>
      <trkpt lat="42.306882" lon="-8.811865">
        <ele>10</ele>
        <time>1970-01-01T02:15:19.000Z</time>
      </trkpt>
      <trkpt lat="42.306879" lon="-8.811846">
        <ele>10</ele>
        <time>1970-01-01T02:15:20.000Z</time>
      </trkpt>
      <trkpt lat="42.306874" lon="-8.811823">
        <ele>10</ele>
        <time>1970-01-01T02:15:21.000Z</time>
      </trkpt>
      <trkpt lat="42.306871" lon="-8.811802">
        <ele>10</ele>
        <time>1970-01-01T02:15:22.000Z</time>
      </trkpt>
      <trkpt lat="42.306867" lon="-8.811776">
        <ele>10</ele>
        <time>1970-01-01T02:15:23.000Z</time>
      </trkpt>
      <trkpt lat="42.306863" lon="-8.811755">
        <ele>10</ele>
        <time>1970-01-01T02:15:24.000Z</time>
      </trkpt>
      <trkpt lat="42.306858" lon="-8.811739">
        <ele>10.4</ele>
        <time>1970-01-01T02:15:25.000Z</time>
      </trkpt>
      <trkpt lat="42.306853" lon="-8.811722">
        <ele>10.4</ele>
        <time>1970-01-01T02:15:26.000Z</time>
      </trkpt>
      <trkpt lat="42.306847" lon="-8.811704">
        <ele>10.4</ele>
        <time>1970-01-01T02:15:27.000Z</time>
      </trkpt>
      <trkpt lat="42.306841" lon="-8.811685">
        <ele>10.6</ele>
        <time>1970-01-01T02:15:28.000Z</time>
      </trkpt>
      <trkpt lat="42.306836" lon="-8.811672">
        <ele>10.8</ele>
        <time>1970-01-01T02:15:29.000Z</time>
      </trkpt>
      <trkpt lat="42.306836" lon="-8.811657">
        <ele>11.2</ele>
        <time>1970-01-01T02:15:30.000Z</time>
      </trkpt>
      <trkpt lat="42.306836" lon="-8.81164">
        <ele>11.2</ele>
        <time>1970-01-01T02:15:31.000Z</time>
      </trkpt>
      <trkpt lat="42.306839" lon="-8.811618">
        <ele>11.2</ele>
        <time>1970-01-01T02:15:32.000Z</time>
      </trkpt>
      <trkpt lat="42.306843" lon="-8.811599">
        <ele>11.2</ele>
        <time>1970-01-01T02:15:33.000Z</time>
      </trkpt>
      <trkpt lat="42.306847" lon="-8.811588">
        <ele>11.4</ele>
        <time>1970-01-01T02:15:34.000Z</time>
      </trkpt>
      <trkpt lat="42.306855" lon="-8.811576">
        <ele>11.4</ele>
        <time>1970-01-01T02:15:35.000Z</time>
      </trkpt>
      <trkpt lat="42.30686" lon="-8.811561">
        <ele>11.6</ele>
        <time>1970-01-01T02:15:36.000Z</time>
      </trkpt>
      <trkpt lat="42.306866" lon="-8.811549">
        <ele>11.4</ele>
        <time>1970-01-01T02:15:37.000Z</time>
      </trkpt>
      <trkpt lat="42.306871" lon="-8.811542">
        <ele>11.4</ele>
        <time>1970-01-01T02:15:38.000Z</time>
      </trkpt>
      <trkpt lat="42.306877" lon="-8.811532">
        <ele>11.4</ele>
        <time>1970-01-01T02:15:39.000Z</time>
      </trkpt>
      <trkpt lat="42.306884" lon="-8.81152">
        <ele>11.4</ele>
        <time>1970-01-01T02:15:40.000Z</time>
      </trkpt>
      <trkpt lat="42.306891" lon="-8.811507">
        <ele>11.6</ele>
        <time>1970-01-01T02:15:41.000Z</time>
      </trkpt>
      <trkpt lat="42.3069" lon="-8.811489">
        <ele>11.6</ele>
        <time>1970-01-01T02:15:42.000Z</time>
      </trkpt>
      <trkpt lat="42.306911" lon="-8.811476">
        <ele>11.6</ele>
        <time>1970-01-01T02:15:43.000Z</time>
      </trkpt>
      <trkpt lat="42.306911" lon="-8.811476">
        <ele>11.6</ele>
        <time>1970-01-01T02:15:44.000Z</time>
      </trkpt>
      <trkpt lat="42.306919" lon="-8.811466">
        <ele>11.6</ele>
        <time>1970-01-01T02:15:45.000Z</time>
      </trkpt>
      <trkpt lat="42.306924" lon="-8.811453">
        <ele>12</ele>
        <time>1970-01-01T02:15:46.000Z</time>
      </trkpt>
      <trkpt lat="42.306928" lon="-8.811438">
        <ele>12.2</ele>
        <time>1970-01-01T02:15:47.000Z</time>
      </trkpt>
      <trkpt lat="42.306934" lon="-8.81142">
        <ele>12.2</ele>
        <time>1970-01-01T02:15:48.000Z</time>
      </trkpt>
      <trkpt lat="42.306937" lon="-8.811401">
        <ele>12.2</ele>
        <time>1970-01-01T02:15:49.000Z</time>
      </trkpt>
      <trkpt lat="42.306943" lon="-8.811382">
        <ele>12.2</ele>
        <time>1970-01-01T02:15:50.000Z</time>
      </trkpt>
      <trkpt lat="42.306949" lon="-8.811364">
        <ele>12.6</ele>
        <time>1970-01-01T02:15:51.000Z</time>
      </trkpt>
      <trkpt lat="42.30696" lon="-8.811345">
        <ele>12.8</ele>
        <time>1970-01-01T02:15:52.000Z</time>
      </trkpt>
      <trkpt lat="42.306967" lon="-8.81133">
        <ele>13.2</ele>
        <time>1970-01-01T02:15:53.000Z</time>
      </trkpt>
      <trkpt lat="42.306971" lon="-8.811317">
        <ele>13.2</ele>
        <time>1970-01-01T02:15:54.000Z</time>
      </trkpt>
      <trkpt lat="42.306976" lon="-8.811305">
        <ele>13.4</ele>
        <time>1970-01-01T02:15:55.000Z</time>
      </trkpt>
      <trkpt lat="42.30698" lon="-8.811299">
        <ele>13.6</ele>
        <time>1970-01-01T02:15:56.000Z</time>
      </trkpt>
      <trkpt lat="42.306984" lon="-8.811286">
        <ele>14</ele>
        <time>1970-01-01T02:15:57.000Z</time>
      </trkpt>
      <trkpt lat="42.306986" lon="-8.811273">
        <ele>14</ele>
        <time>1970-01-01T02:15:58.000Z</time>
      </trkpt>
      <trkpt lat="42.30699" lon="-8.81126">
        <ele>14.2</ele>
        <time>1970-01-01T02:15:59.000Z</time>
      </trkpt>
      <trkpt lat="42.306996" lon="-8.811247">
        <ele>14.6</ele>
        <time>1970-01-01T02:16:00.000Z</time>
      </trkpt>
      <trkpt lat="42.307002" lon="-8.811233">
        <ele>14.8</ele>
        <time>1970-01-01T02:16:01.000Z</time>
      </trkpt>
      <trkpt lat="42.307007" lon="-8.811218">
        <ele>15.2</ele>
        <time>1970-01-01T02:16:02.000Z</time>
      </trkpt>
      <trkpt lat="42.307012" lon="-8.811207">
        <ele>15.4</ele>
        <time>1970-01-01T02:16:03.000Z</time>
      </trkpt>
      <trkpt lat="42.307017" lon="-8.811195">
        <ele>15.6</ele>
        <time>1970-01-01T02:16:04.000Z</time>
      </trkpt>
      <trkpt lat="42.307025" lon="-8.811185">
        <ele>15.6</ele>
        <time>1970-01-01T02:16:05.000Z</time>
      </trkpt>
      <trkpt lat="42.307035" lon="-8.811178">
        <ele>15.8</ele>
        <time>1970-01-01T02:16:06.000Z</time>
      </trkpt>
      <trkpt lat="42.307042" lon="-8.81117">
        <ele>16.2</ele>
        <time>1970-01-01T02:16:07.000Z</time>
      </trkpt>
      <trkpt lat="42.307053" lon="-8.811163">
        <ele>16.6</ele>
        <time>1970-01-01T02:16:08.000Z</time>
      </trkpt>
      <trkpt lat="42.307067" lon="-8.811149">
        <ele>16.8</ele>
        <time>1970-01-01T02:16:09.000Z</time>
      </trkpt>
      <trkpt lat="42.307078" lon="-8.81114">
        <ele>17</ele>
        <time>1970-01-01T02:16:10.000Z</time>
      </trkpt>
      <trkpt lat="42.307085" lon="-8.811131">
        <ele>17</ele>
        <time>1970-01-01T02:16:11.000Z</time>
      </trkpt>
      <trkpt lat="42.307094" lon="-8.811116">
        <ele>17</ele>
        <time>1970-01-01T02:16:12.000Z</time>
      </trkpt>
      <trkpt lat="42.307099" lon="-8.811101">
        <ele>17</ele>
        <time>1970-01-01T02:16:13.000Z</time>
      </trkpt>
      <trkpt lat="42.307103" lon="-8.81109">
        <ele>16.8</ele>
        <time>1970-01-01T02:16:14.000Z</time>
      </trkpt>
      <trkpt lat="42.307108" lon="-8.811081">
        <ele>16.6</ele>
        <time>1970-01-01T02:16:15.000Z</time>
      </trkpt>
      <trkpt lat="42.307114" lon="-8.811075">
        <ele>16.4</ele>
        <time>1970-01-01T02:16:16.000Z</time>
      </trkpt>
      <trkpt lat="42.307122" lon="-8.811072">
        <ele>16.4</ele>
        <time>1970-01-01T02:16:17.000Z</time>
      </trkpt>
      <trkpt lat="42.30713" lon="-8.811069">
        <ele>16.2</ele>
        <time>1970-01-01T02:16:18.000Z</time>
      </trkpt>
      <trkpt lat="42.307138" lon="-8.811065">
        <ele>16.2</ele>
        <time>1970-01-01T02:16:19.000Z</time>
      </trkpt>
      <trkpt lat="42.307146" lon="-8.811053">
        <ele>16</ele>
        <time>1970-01-01T02:16:20.000Z</time>
      </trkpt>
      <trkpt lat="42.307157" lon="-8.811038">
        <ele>15.8</ele>
        <time>1970-01-01T02:16:21.000Z</time>
      </trkpt>
      <trkpt lat="42.307168" lon="-8.811019">
        <ele>15.8</ele>
        <time>1970-01-01T02:16:22.000Z</time>
      </trkpt>
      <trkpt lat="42.307187" lon="-8.810994">
        <ele>15.8</ele>
        <time>1970-01-01T02:16:23.000Z</time>
      </trkpt>
      <trkpt lat="42.307198" lon="-8.810977">
        <ele>15.8</ele>
        <time>1970-01-01T02:16:24.000Z</time>
      </trkpt>
      <trkpt lat="42.307213" lon="-8.810952">
        <ele>15.8</ele>
        <time>1970-01-01T02:16:25.000Z</time>
      </trkpt>
      <trkpt lat="42.307229" lon="-8.810924">
        <ele>15.8</ele>
        <time>1970-01-01T02:16:26.000Z</time>
      </trkpt>
      <trkpt lat="42.307242" lon="-8.810903">
        <ele>15.8</ele>
        <time>1970-01-01T02:16:27.000Z</time>
      </trkpt>
      <trkpt lat="42.307255" lon="-8.810883">
        <ele>16</ele>
        <time>1970-01-01T02:16:28.000Z</time>
      </trkpt>
      <trkpt lat="42.307265" lon="-8.810863">
        <ele>16</ele>
        <time>1970-01-01T02:16:29.000Z</time>
      </trkpt>
      <trkpt lat="42.307271" lon="-8.810855">
        <ele>16.2</ele>
        <time>1970-01-01T02:16:30.000Z</time>
      </trkpt>
      <trkpt lat="42.307275" lon="-8.810858">
        <ele>16.2</ele>
        <time>1970-01-01T02:16:31.000Z</time>
      </trkpt>
      <trkpt lat="42.307282" lon="-8.810858">
        <ele>16.2</ele>
        <time>1970-01-01T02:16:32.000Z</time>
      </trkpt>
      <trkpt lat="42.307289" lon="-8.810855">
        <ele>16</ele>
        <time>1970-01-01T02:16:33.000Z</time>
      </trkpt>
      <trkpt lat="42.307298" lon="-8.810844">
        <ele>16</ele>
        <time>1970-01-01T02:16:34.000Z</time>
      </trkpt>
      <trkpt lat="42.307304" lon="-8.810828">
        <ele>16</ele>
        <time>1970-01-01T02:16:35.000Z</time>
      </trkpt>
      <trkpt lat="42.307312" lon="-8.810804">
        <ele>16</ele>
        <time>1970-01-01T02:16:36.000Z</time>
      </trkpt>
      <trkpt lat="42.307321" lon="-8.810788">
        <ele>16</ele>
        <time>1970-01-01T02:16:37.000Z</time>
      </trkpt>
      <trkpt lat="42.307332" lon="-8.810777">
        <ele>16</ele>
        <time>1970-01-01T02:16:38.000Z</time>
      </trkpt>
      <trkpt lat="42.307343" lon="-8.810774">
        <ele>16</ele>
        <time>1970-01-01T02:16:39.000Z</time>
      </trkpt>
      <trkpt lat="42.307352" lon="-8.810771">
        <ele>16</ele>
        <time>1970-01-01T02:16:40.000Z</time>
      </trkpt>
      <trkpt lat="42.307361" lon="-8.810768">
        <ele>16</ele>
        <time>1970-01-01T02:16:41.000Z</time>
      </trkpt>
      <trkpt lat="42.30737" lon="-8.810765">
        <ele>16</ele>
        <time>1970-01-01T02:16:42.000Z</time>
      </trkpt>
      <trkpt lat="42.30738" lon="-8.810758">
        <ele>16</ele>
        <time>1970-01-01T02:16:43.000Z</time>
      </trkpt>
      <trkpt lat="42.30739" lon="-8.810749">
        <ele>16</ele>
        <time>1970-01-01T02:16:44.000Z</time>
      </trkpt>
      <trkpt lat="42.307401" lon="-8.810737">
        <ele>16.4</ele>
        <time>1970-01-01T02:16:45.000Z</time>
      </trkpt>
      <trkpt lat="42.307413" lon="-8.810724">
        <ele>16.2</ele>
        <time>1970-01-01T02:16:46.000Z</time>
      </trkpt>
      <trkpt lat="42.307424" lon="-8.810715">
        <ele>16</ele>
        <time>1970-01-01T02:16:47.000Z</time>
      </trkpt>
      <trkpt lat="42.307432" lon="-8.810701">
        <ele>16</ele>
        <time>1970-01-01T02:16:48.000Z</time>
      </trkpt>
      <trkpt lat="42.307439" lon="-8.810688">
        <ele>16</ele>
        <time>1970-01-01T02:16:49.000Z</time>
      </trkpt>
      <trkpt lat="42.307444" lon="-8.810682">
        <ele>16.2</ele>
        <time>1970-01-01T02:16:50.000Z</time>
      </trkpt>
      <trkpt lat="42.30745" lon="-8.810678">
        <ele>16.4</ele>
        <time>1970-01-01T02:16:51.000Z</time>
      </trkpt>
      <trkpt lat="42.307458" lon="-8.810675">
        <ele>16.4</ele>
        <time>1970-01-01T02:16:52.000Z</time>
      </trkpt>
      <trkpt lat="42.307468" lon="-8.810669">
        <ele>16.4</ele>
        <time>1970-01-01T02:16:53.000Z</time>
      </trkpt>
      <trkpt lat="42.307474" lon="-8.810659">
        <ele>16.4</ele>
        <time>1970-01-01T02:16:54.000Z</time>
      </trkpt>
      <trkpt lat="42.30748" lon="-8.810644">
        <ele>16.6</ele>
        <time>1970-01-01T02:16:55.000Z</time>
      </trkpt>
      <trkpt lat="42.307486" lon="-8.810635">
        <ele>16.6</ele>
        <time>1970-01-01T02:16:56.000Z</time>
      </trkpt>
      <trkpt lat="42.30749" lon="-8.810629">
        <ele>16.8</ele>
        <time>1970-01-01T02:16:57.000Z</time>
      </trkpt>
      <trkpt lat="42.307493" lon="-8.810621">
        <ele>16.8</ele>
        <time>1970-01-01T02:16:58.000Z</time>
      </trkpt>
      <trkpt lat="42.307503" lon="-8.81061">
        <ele>16.8</ele>
        <time>1970-01-01T02:16:59.000Z</time>
      </trkpt>
      <trkpt lat="42.307512" lon="-8.810603">
        <ele>16.8</ele>
        <time>1970-01-01T02:17:00.000Z</time>
      </trkpt>
      <trkpt lat="42.307526" lon="-8.810595">
        <ele>16.8</ele>
        <time>1970-01-01T02:17:01.000Z</time>
      </trkpt>
      <trkpt lat="42.307539" lon="-8.810587">
        <ele>16.6</ele>
        <time>1970-01-01T02:17:02.000Z</time>
      </trkpt>
      <trkpt lat="42.307545" lon="-8.810575">
        <ele>16.4</ele>
        <time>1970-01-01T02:17:03.000Z</time>
      </trkpt>
      <trkpt lat="42.307553" lon="-8.810561">
        <ele>16</ele>
        <time>1970-01-01T02:17:04.000Z</time>
      </trkpt>
      <trkpt lat="42.30756" lon="-8.810546">
        <ele>16</ele>
        <time>1970-01-01T02:17:05.000Z</time>
      </trkpt>
      <trkpt lat="42.307569" lon="-8.810527">
        <ele>15.8</ele>
        <time>1970-01-01T02:17:06.000Z</time>
      </trkpt>
      <trkpt lat="42.307573" lon="-8.810505">
        <ele>15.8</ele>
        <time>1970-01-01T02:17:07.000Z</time>
      </trkpt>
      <trkpt lat="42.307577" lon="-8.81048">
        <ele>15.8</ele>
        <time>1970-01-01T02:17:08.000Z</time>
      </trkpt>
      <trkpt lat="42.307584" lon="-8.810465">
        <ele>16</ele>
        <time>1970-01-01T02:17:09.000Z</time>
      </trkpt>
      <trkpt lat="42.307587" lon="-8.810453">
        <ele>16</ele>
        <time>1970-01-01T02:17:10.000Z</time>
      </trkpt>
      <trkpt lat="42.307586" lon="-8.810446">
        <ele>16</ele>
        <time>1970-01-01T02:17:11.000Z</time>
      </trkpt>
      <trkpt lat="42.307592" lon="-8.810436">
        <ele>16.2</ele>
        <time>1970-01-01T02:17:12.000Z</time>
      </trkpt>
      <trkpt lat="42.307596" lon="-8.810426">
        <ele>16.2</ele>
        <time>1970-01-01T02:17:13.000Z</time>
      </trkpt>
      <trkpt lat="42.307603" lon="-8.810417">
        <ele>16.4</ele>
        <time>1970-01-01T02:17:14.000Z</time>
      </trkpt>
      <trkpt lat="42.307617" lon="-8.810403">
        <ele>16.4</ele>
        <time>1970-01-01T02:17:15.000Z</time>
      </trkpt>
      <trkpt lat="42.307631" lon="-8.810383">
        <ele>16.4</ele>
        <time>1970-01-01T02:17:16.000Z</time>
      </trkpt>
      <trkpt lat="42.307644" lon="-8.810366">
        <ele>16.4</ele>
        <time>1970-01-01T02:17:17.000Z</time>
      </trkpt>
      <trkpt lat="42.307654" lon="-8.810353">
        <ele>16.8</ele>
        <time>1970-01-01T02:17:18.000Z</time>
      </trkpt>
      <trkpt lat="42.307664" lon="-8.81034">
        <ele>16.6</ele>
        <time>1970-01-01T02:17:19.000Z</time>
      </trkpt>
      <trkpt lat="42.307677" lon="-8.81033">
        <ele>16.6</ele>
        <time>1970-01-01T02:17:20.000Z</time>
      </trkpt>
      <trkpt lat="42.307689" lon="-8.810323">
        <ele>16.6</ele>
        <time>1970-01-01T02:17:21.000Z</time>
      </trkpt>
      <trkpt lat="42.307699" lon="-8.810321">
        <ele>16.6</ele>
        <time>1970-01-01T02:17:22.000Z</time>
      </trkpt>
      <trkpt lat="42.307709" lon="-8.810319">
        <ele>16.6</ele>
        <time>1970-01-01T02:17:23.000Z</time>
      </trkpt>
      <trkpt lat="42.307716" lon="-8.810316">
        <ele>16.6</ele>
        <time>1970-01-01T02:17:24.000Z</time>
      </trkpt>
      <trkpt lat="42.307724" lon="-8.810312">
        <ele>16.4</ele>
        <time>1970-01-01T02:17:25.000Z</time>
      </trkpt>
      <trkpt lat="42.307733" lon="-8.810306">
        <ele>16.4</ele>
        <time>1970-01-01T02:17:26.000Z</time>
      </trkpt>
      <trkpt lat="42.30774" lon="-8.8103">
        <ele>16.2</ele>
        <time>1970-01-01T02:17:27.000Z</time>
      </trkpt>
      <trkpt lat="42.307748" lon="-8.810289">
        <ele>16.2</ele>
        <time>1970-01-01T02:17:28.000Z</time>
      </trkpt>
      <trkpt lat="42.307755" lon="-8.810278">
        <ele>16.2</ele>
        <time>1970-01-01T02:17:29.000Z</time>
      </trkpt>
      <trkpt lat="42.307764" lon="-8.810262">
        <ele>15.8</ele>
        <time>1970-01-01T02:17:30.000Z</time>
      </trkpt>
      <trkpt lat="42.307769" lon="-8.810255">
        <ele>15.6</ele>
        <time>1970-01-01T02:17:31.000Z</time>
      </trkpt>
      <trkpt lat="42.307778" lon="-8.810244">
        <ele>15.4</ele>
        <time>1970-01-01T02:17:32.000Z</time>
      </trkpt>
      <trkpt lat="42.307784" lon="-8.810235">
        <ele>15.4</ele>
        <time>1970-01-01T02:17:33.000Z</time>
      </trkpt>
      <trkpt lat="42.307792" lon="-8.810227">
        <ele>15.4</ele>
        <time>1970-01-01T02:17:34.000Z</time>
      </trkpt>
      <trkpt lat="42.3078" lon="-8.810214">
        <ele>15.4</ele>
        <time>1970-01-01T02:17:35.000Z</time>
      </trkpt>
      <trkpt lat="42.307811" lon="-8.810206">
        <ele>15.4</ele>
        <time>1970-01-01T02:17:36.000Z</time>
      </trkpt>
      <trkpt lat="42.307822" lon="-8.810199">
        <ele>15.2</ele>
        <time>1970-01-01T02:17:37.000Z</time>
      </trkpt>
      <trkpt lat="42.307832" lon="-8.810187">
        <ele>15</ele>
        <time>1970-01-01T02:17:38.000Z</time>
      </trkpt>
      <trkpt lat="42.30784" lon="-8.810175">
        <ele>15.2</ele>
        <time>1970-01-01T02:17:39.000Z</time>
      </trkpt>
      <trkpt lat="42.307851" lon="-8.81016">
        <ele>15.2</ele>
        <time>1970-01-01T02:17:40.000Z</time>
      </trkpt>
      <trkpt lat="42.307861" lon="-8.81015">
        <ele>15</ele>
        <time>1970-01-01T02:17:41.000Z</time>
      </trkpt>
      <trkpt lat="42.307875" lon="-8.810142">
        <ele>15</ele>
        <time>1970-01-01T02:17:42.000Z</time>
      </trkpt>
      <trkpt lat="42.307883" lon="-8.810136">
        <ele>15</ele>
        <time>1970-01-01T02:17:43.000Z</time>
      </trkpt>
      <trkpt lat="42.307892" lon="-8.810128">
        <ele>15</ele>
        <time>1970-01-01T02:17:44.000Z</time>
      </trkpt>
      <trkpt lat="42.3079" lon="-8.810121">
        <ele>15.4</ele>
        <time>1970-01-01T02:17:45.000Z</time>
      </trkpt>
      <trkpt lat="42.307908" lon="-8.810116">
        <ele>15.4</ele>
        <time>1970-01-01T02:17:46.000Z</time>
      </trkpt>
      <trkpt lat="42.307921" lon="-8.810104">
        <ele>15.4</ele>
        <time>1970-01-01T02:17:47.000Z</time>
      </trkpt>
      <trkpt lat="42.307938" lon="-8.810092">
        <ele>15.4</ele>
        <time>1970-01-01T02:17:48.000Z</time>
      </trkpt>
      <trkpt lat="42.307952" lon="-8.810088">
        <ele>15.6</ele>
        <time>1970-01-01T02:17:49.000Z</time>
      </trkpt>
      <trkpt lat="42.307964" lon="-8.810083">
        <ele>15.4</ele>
        <time>1970-01-01T02:17:50.000Z</time>
      </trkpt>
      <trkpt lat="42.307978" lon="-8.81008">
        <ele>15.2</ele>
        <time>1970-01-01T02:17:51.000Z</time>
      </trkpt>
      <trkpt lat="42.307994" lon="-8.81007">
        <ele>15.2</ele>
        <time>1970-01-01T02:17:52.000Z</time>
      </trkpt>
      <trkpt lat="42.308007" lon="-8.81006">
        <ele>15.2</ele>
        <time>1970-01-01T02:17:53.000Z</time>
      </trkpt>
      <trkpt lat="42.308025" lon="-8.810056">
        <ele>15.4</ele>
        <time>1970-01-01T02:17:54.000Z</time>
      </trkpt>
      <trkpt lat="42.308041" lon="-8.810052">
        <ele>15.4</ele>
        <time>1970-01-01T02:17:55.000Z</time>
      </trkpt>
      <trkpt lat="42.308053" lon="-8.810044">
        <ele>15.2</ele>
        <time>1970-01-01T02:17:56.000Z</time>
      </trkpt>
      <trkpt lat="42.308065" lon="-8.81003">
        <ele>15.2</ele>
        <time>1970-01-01T02:17:57.000Z</time>
      </trkpt>
      <trkpt lat="42.308077" lon="-8.810018">
        <ele>15.2</ele>
        <time>1970-01-01T02:17:58.000Z</time>
      </trkpt>
      <trkpt lat="42.30809" lon="-8.810009">
        <ele>15.2</ele>
        <time>1970-01-01T02:17:59.000Z</time>
      </trkpt>
      <trkpt lat="42.308102" lon="-8.809998">
        <ele>15.2</ele>
        <time>1970-01-01T02:18:00.000Z</time>
      </trkpt>
      <trkpt lat="42.308111" lon="-8.809983">
        <ele>15</ele>
        <time>1970-01-01T02:18:01.000Z</time>
      </trkpt>
      <trkpt lat="42.308121" lon="-8.809968">
        <ele>14.6</ele>
        <time>1970-01-01T02:18:02.000Z</time>
      </trkpt>
      <trkpt lat="42.30813" lon="-8.809955">
        <ele>14.4</ele>
        <time>1970-01-01T02:18:03.000Z</time>
      </trkpt>
      <trkpt lat="42.308138" lon="-8.809943">
        <ele>14.4</ele>
        <time>1970-01-01T02:18:04.000Z</time>
      </trkpt>
      <trkpt lat="42.308144" lon="-8.809931">
        <ele>14.6</ele>
        <time>1970-01-01T02:18:05.000Z</time>
      </trkpt>
      <trkpt lat="42.308151" lon="-8.80992">
        <ele>14.8</ele>
        <time>1970-01-01T02:18:06.000Z</time>
      </trkpt>
      <trkpt lat="42.308157" lon="-8.809905">
        <ele>15</ele>
        <time>1970-01-01T02:18:07.000Z</time>
      </trkpt>
      <trkpt lat="42.308163" lon="-8.809886">
        <ele>15.2</ele>
        <time>1970-01-01T02:18:08.000Z</time>
      </trkpt>
      <trkpt lat="42.308171" lon="-8.809871">
        <ele>15.2</ele>
        <time>1970-01-01T02:18:09.000Z</time>
      </trkpt>
      <trkpt lat="42.308179" lon="-8.809856">
        <ele>15.2</ele>
        <time>1970-01-01T02:18:10.000Z</time>
      </trkpt>
      <trkpt lat="42.308187" lon="-8.80984">
        <ele>15.2</ele>
        <time>1970-01-01T02:18:11.000Z</time>
      </trkpt>
      <trkpt lat="42.308194" lon="-8.809826">
        <ele>15.2</ele>
        <time>1970-01-01T02:18:12.000Z</time>
      </trkpt>
      <trkpt lat="42.308203" lon="-8.809809">
        <ele>15.4</ele>
        <time>1970-01-01T02:18:13.000Z</time>
      </trkpt>
      <trkpt lat="42.308212" lon="-8.809792">
        <ele>15.4</ele>
        <time>1970-01-01T02:18:14.000Z</time>
      </trkpt>
      <trkpt lat="42.308223" lon="-8.809774">
        <ele>15.4</ele>
        <time>1970-01-01T02:18:15.000Z</time>
      </trkpt>
      <trkpt lat="42.308233" lon="-8.80976">
        <ele>15.4</ele>
        <time>1970-01-01T02:18:16.000Z</time>
      </trkpt>
      <trkpt lat="42.308242" lon="-8.809749">
        <ele>15.6</ele>
        <time>1970-01-01T02:18:17.000Z</time>
      </trkpt>
      <trkpt lat="42.308248" lon="-8.809744">
        <ele>15.8</ele>
        <time>1970-01-01T02:18:18.000Z</time>
      </trkpt>
      <trkpt lat="42.308254" lon="-8.809737">
        <ele>16</ele>
        <time>1970-01-01T02:18:19.000Z</time>
      </trkpt>
      <trkpt lat="42.308257" lon="-8.809727">
        <ele>16</ele>
        <time>1970-01-01T02:18:20.000Z</time>
      </trkpt>
      <trkpt lat="42.308261" lon="-8.809713">
        <ele>16.2</ele>
        <time>1970-01-01T02:18:21.000Z</time>
      </trkpt>
      <trkpt lat="42.308264" lon="-8.809699">
        <ele>16.4</ele>
        <time>1970-01-01T02:18:22.000Z</time>
      </trkpt>
      <trkpt lat="42.308268" lon="-8.809686">
        <ele>16.4</ele>
        <time>1970-01-01T02:18:23.000Z</time>
      </trkpt>
      <trkpt lat="42.308273" lon="-8.809668">
        <ele>16.4</ele>
        <time>1970-01-01T02:18:24.000Z</time>
      </trkpt>
      <trkpt lat="42.308275" lon="-8.809657">
        <ele>16.6</ele>
        <time>1970-01-01T02:18:25.000Z</time>
      </trkpt>
      <trkpt lat="42.308278" lon="-8.809648">
        <ele>16.6</ele>
        <time>1970-01-01T02:18:26.000Z</time>
      </trkpt>
      <trkpt lat="42.308279" lon="-8.809646">
        <ele>16.6</ele>
        <time>1970-01-01T02:18:27.000Z</time>
      </trkpt>
      <trkpt lat="42.308282" lon="-8.809645">
        <ele>16.6</ele>
        <time>1970-01-01T02:18:28.000Z</time>
      </trkpt>
      <trkpt lat="42.308286" lon="-8.809636">
        <ele>16.6</ele>
        <time>1970-01-01T02:18:29.000Z</time>
      </trkpt>
      <trkpt lat="42.308287" lon="-8.809634">
        <ele>16.6</ele>
        <time>1970-01-01T02:18:30.000Z</time>
      </trkpt>
      <trkpt lat="42.308293" lon="-8.809623">
        <ele>16.6</ele>
        <time>1970-01-01T02:18:31.000Z</time>
      </trkpt>
      <trkpt lat="42.3083" lon="-8.80961">
        <ele>16.6</ele>
        <time>1970-01-01T02:18:32.000Z</time>
      </trkpt>
      <trkpt lat="42.308304" lon="-8.809603">
        <ele>16.4</ele>
        <time>1970-01-01T02:18:33.000Z</time>
      </trkpt>
      <trkpt lat="42.308309" lon="-8.809595">
        <ele>16.4</ele>
        <time>1970-01-01T02:18:34.000Z</time>
      </trkpt>
      <trkpt lat="42.308315" lon="-8.809586">
        <ele>16.4</ele>
        <time>1970-01-01T02:18:35.000Z</time>
      </trkpt>
      <trkpt lat="42.30832" lon="-8.809574">
        <ele>16.2</ele>
        <time>1970-01-01T02:18:36.000Z</time>
      </trkpt>
      <trkpt lat="42.308324" lon="-8.809565">
        <ele>16.4</ele>
        <time>1970-01-01T02:18:37.000Z</time>
      </trkpt>
      <trkpt lat="42.308331" lon="-8.809552">
        <ele>16.4</ele>
        <time>1970-01-01T02:18:38.000Z</time>
      </trkpt>
      <trkpt lat="42.308335" lon="-8.809542">
        <ele>16.4</ele>
        <time>1970-01-01T02:18:39.000Z</time>
      </trkpt>
      <trkpt lat="42.308341" lon="-8.809528">
        <ele>16.4</ele>
        <time>1970-01-01T02:18:40.000Z</time>
      </trkpt>
      <trkpt lat="42.30835" lon="-8.809508">
        <ele>16.6</ele>
        <time>1970-01-01T02:18:41.000Z</time>
      </trkpt>
      <trkpt lat="42.308357" lon="-8.80949">
        <ele>16.6</ele>
        <time>1970-01-01T02:18:42.000Z</time>
      </trkpt>
      <trkpt lat="42.308356" lon="-8.809476">
        <ele>16.8</ele>
        <time>1970-01-01T02:18:43.000Z</time>
      </trkpt>
      <trkpt lat="42.308355" lon="-8.809458">
        <ele>16.8</ele>
        <time>1970-01-01T02:18:44.000Z</time>
      </trkpt>
      <trkpt lat="42.308355" lon="-8.809445">
        <ele>17</ele>
        <time>1970-01-01T02:18:45.000Z</time>
      </trkpt>
      <trkpt lat="42.308358" lon="-8.809434">
        <ele>17.2</ele>
        <time>1970-01-01T02:18:46.000Z</time>
      </trkpt>
      <trkpt lat="42.30836" lon="-8.809424">
        <ele>17.4</ele>
        <time>1970-01-01T02:18:47.000Z</time>
      </trkpt>
      <trkpt lat="42.308361" lon="-8.809412">
        <ele>17.6</ele>
        <time>1970-01-01T02:18:48.000Z</time>
      </trkpt>
      <trkpt lat="42.308362" lon="-8.809396">
        <ele>17.8</ele>
        <time>1970-01-01T02:18:49.000Z</time>
      </trkpt>
      <trkpt lat="42.308362" lon="-8.809382">
        <ele>17.8</ele>
        <time>1970-01-01T02:18:50.000Z</time>
      </trkpt>
      <trkpt lat="42.308364" lon="-8.809369">
        <ele>17.8</ele>
        <time>1970-01-01T02:18:51.000Z</time>
      </trkpt>
      <trkpt lat="42.308367" lon="-8.809357">
        <ele>18</ele>
        <time>1970-01-01T02:18:52.000Z</time>
      </trkpt>
      <trkpt lat="42.30837" lon="-8.809344">
        <ele>18</ele>
        <time>1970-01-01T02:18:53.000Z</time>
      </trkpt>
      <trkpt lat="42.308373" lon="-8.80933">
        <ele>18</ele>
        <time>1970-01-01T02:18:54.000Z</time>
      </trkpt>
      <trkpt lat="42.308374" lon="-8.809316">
        <ele>18.2</ele>
        <time>1970-01-01T02:18:55.000Z</time>
      </trkpt>
      <trkpt lat="42.308374" lon="-8.809304">
        <ele>18.2</ele>
        <time>1970-01-01T02:18:56.000Z</time>
      </trkpt>
      <trkpt lat="42.308373" lon="-8.809293">
        <ele>18.2</ele>
        <time>1970-01-01T02:18:57.000Z</time>
      </trkpt>
      <trkpt lat="42.308371" lon="-8.809282">
        <ele>18.4</ele>
        <time>1970-01-01T02:18:58.000Z</time>
      </trkpt>
      <trkpt lat="42.30837" lon="-8.809265">
        <ele>18.6</ele>
        <time>1970-01-01T02:18:59.000Z</time>
      </trkpt>
      <trkpt lat="42.308372" lon="-8.809251">
        <ele>18.6</ele>
        <time>1970-01-01T02:19:00.000Z</time>
      </trkpt>
      <trkpt lat="42.308374" lon="-8.809235">
        <ele>18.4</ele>
        <time>1970-01-01T02:19:01.000Z</time>
      </trkpt>
      <trkpt lat="42.308371" lon="-8.809217">
        <ele>18.4</ele>
        <time>1970-01-01T02:19:02.000Z</time>
      </trkpt>
      <trkpt lat="42.308376" lon="-8.809195">
        <ele>18.6</ele>
        <time>1970-01-01T02:19:03.000Z</time>
      </trkpt>
      <trkpt lat="42.308377" lon="-8.809169">
        <ele>18.6</ele>
        <time>1970-01-01T02:19:04.000Z</time>
      </trkpt>
      <trkpt lat="42.308375" lon="-8.809152">
        <ele>18.6</ele>
        <time>1970-01-01T02:19:05.000Z</time>
      </trkpt>
      <trkpt lat="42.30837" lon="-8.809121">
        <ele>18.6</ele>
        <time>1970-01-01T02:19:06.000Z</time>
      </trkpt>
      <trkpt lat="42.308369" lon="-8.809103">
        <ele>18.6</ele>
        <time>1970-01-01T02:19:07.000Z</time>
      </trkpt>
      <trkpt lat="42.308365" lon="-8.809088">
        <ele>18.6</ele>
        <time>1970-01-01T02:19:08.000Z</time>
      </trkpt>
      <trkpt lat="42.308363" lon="-8.809063">
        <ele>18.8</ele>
        <time>1970-01-01T02:19:09.000Z</time>
      </trkpt>
      <trkpt lat="42.308357" lon="-8.809034">
        <ele>19</ele>
        <time>1970-01-01T02:19:10.000Z</time>
      </trkpt>
      <trkpt lat="42.30835" lon="-8.809006">
        <ele>19.2</ele>
        <time>1970-01-01T02:19:11.000Z</time>
      </trkpt>
      <trkpt lat="42.308346" lon="-8.808987">
        <ele>19.2</ele>
        <time>1970-01-01T02:19:12.000Z</time>
      </trkpt>
      <trkpt lat="42.308342" lon="-8.808973">
        <ele>19.4</ele>
        <time>1970-01-01T02:19:13.000Z</time>
      </trkpt>
      <trkpt lat="42.308337" lon="-8.808962">
        <ele>19.4</ele>
        <time>1970-01-01T02:19:14.000Z</time>
      </trkpt>
      <trkpt lat="42.308333" lon="-8.80895">
        <ele>19.8</ele>
        <time>1970-01-01T02:19:15.000Z</time>
      </trkpt>
      <trkpt lat="42.30833" lon="-8.808932">
        <ele>19.6</ele>
        <time>1970-01-01T02:19:16.000Z</time>
      </trkpt>
      <trkpt lat="42.308327" lon="-8.808915">
        <ele>19.6</ele>
        <time>1970-01-01T02:19:17.000Z</time>
      </trkpt>
      <trkpt lat="42.308325" lon="-8.80889">
        <ele>19.4</ele>
        <time>1970-01-01T02:19:18.000Z</time>
      </trkpt>
      <trkpt lat="42.308319" lon="-8.808873">
        <ele>19.4</ele>
        <time>1970-01-01T02:19:19.000Z</time>
      </trkpt>
      <trkpt lat="42.308316" lon="-8.808862">
        <ele>19.4</ele>
        <time>1970-01-01T02:19:20.000Z</time>
      </trkpt>
      <trkpt lat="42.308311" lon="-8.808833">
        <ele>19.6</ele>
        <time>1970-01-01T02:19:21.000Z</time>
      </trkpt>
      <trkpt lat="42.308312" lon="-8.808813">
        <ele>19.8</ele>
        <time>1970-01-01T02:19:22.000Z</time>
      </trkpt>
      <trkpt lat="42.30832" lon="-8.808786">
        <ele>19.8</ele>
        <time>1970-01-01T02:19:23.000Z</time>
      </trkpt>
      <trkpt lat="42.308328" lon="-8.80877">
        <ele>20</ele>
        <time>1970-01-01T02:19:24.000Z</time>
      </trkpt>
      <trkpt lat="42.308332" lon="-8.808753">
        <ele>20.6</ele>
        <time>1970-01-01T02:19:25.000Z</time>
      </trkpt>
      <trkpt lat="42.308339" lon="-8.808734">
        <ele>20.8</ele>
        <time>1970-01-01T02:19:26.000Z</time>
      </trkpt>
      <trkpt lat="42.308343" lon="-8.808723">
        <ele>21</ele>
        <time>1970-01-01T02:19:27.000Z</time>
      </trkpt>
      <trkpt lat="42.308348" lon="-8.80871">
        <ele>21.2</ele>
        <time>1970-01-01T02:19:28.000Z</time>
      </trkpt>
      <trkpt lat="42.308351" lon="-8.808699">
        <ele>21.2</ele>
        <time>1970-01-01T02:19:29.000Z</time>
      </trkpt>
      <trkpt lat="42.308354" lon="-8.808692">
        <ele>21.4</ele>
        <time>1970-01-01T02:19:30.000Z</time>
      </trkpt>
      <trkpt lat="42.308359" lon="-8.808681">
        <ele>21.6</ele>
        <time>1970-01-01T02:19:31.000Z</time>
      </trkpt>
      <trkpt lat="42.308362" lon="-8.808673">
        <ele>21.8</ele>
        <time>1970-01-01T02:19:32.000Z</time>
      </trkpt>
      <trkpt lat="42.308365" lon="-8.808669">
        <ele>21.8</ele>
        <time>1970-01-01T02:19:33.000Z</time>
      </trkpt>
      <trkpt lat="42.308371" lon="-8.808661">
        <ele>22</ele>
        <time>1970-01-01T02:19:34.000Z</time>
      </trkpt>
      <trkpt lat="42.308379" lon="-8.808654">
        <ele>22.2</ele>
        <time>1970-01-01T02:19:35.000Z</time>
      </trkpt>
      <trkpt lat="42.308393" lon="-8.808648">
        <ele>22.4</ele>
        <time>1970-01-01T02:19:36.000Z</time>
      </trkpt>
      <trkpt lat="42.308408" lon="-8.808638">
        <ele>22.6</ele>
        <time>1970-01-01T02:19:37.000Z</time>
      </trkpt>
      <trkpt lat="42.308421" lon="-8.808638">
        <ele>22.8</ele>
        <time>1970-01-01T02:19:38.000Z</time>
      </trkpt>
      <trkpt lat="42.308429" lon="-8.808642">
        <ele>23</ele>
        <time>1970-01-01T02:19:39.000Z</time>
      </trkpt>
      <trkpt lat="42.308445" lon="-8.808646">
        <ele>23</ele>
        <time>1970-01-01T02:19:40.000Z</time>
      </trkpt>
      <trkpt lat="42.308452" lon="-8.808653">
        <ele>23.2</ele>
        <time>1970-01-01T02:19:41.000Z</time>
      </trkpt>
      <trkpt lat="42.30846" lon="-8.808657">
        <ele>23.2</ele>
        <time>1970-01-01T02:19:42.000Z</time>
      </trkpt>
      <trkpt lat="42.308468" lon="-8.808658">
        <ele>23.2</ele>
        <time>1970-01-01T02:19:43.000Z</time>
      </trkpt>
      <trkpt lat="42.308476" lon="-8.80866">
        <ele>23</ele>
        <time>1970-01-01T02:19:44.000Z</time>
      </trkpt>
      <trkpt lat="42.308487" lon="-8.80866">
        <ele>23.4</ele>
        <time>1970-01-01T02:19:45.000Z</time>
      </trkpt>
      <trkpt lat="42.308495" lon="-8.808662">
        <ele>23.4</ele>
        <time>1970-01-01T02:19:46.000Z</time>
      </trkpt>
      <trkpt lat="42.308508" lon="-8.808661">
        <ele>23.4</ele>
        <time>1970-01-01T02:19:47.000Z</time>
      </trkpt>
      <trkpt lat="42.308521" lon="-8.80866">
        <ele>23.2</ele>
        <time>1970-01-01T02:19:48.000Z</time>
      </trkpt>
      <trkpt lat="42.308532" lon="-8.808663">
        <ele>23</ele>
        <time>1970-01-01T02:19:49.000Z</time>
      </trkpt>
      <trkpt lat="42.308544" lon="-8.808663">
        <ele>23.2</ele>
        <time>1970-01-01T02:19:50.000Z</time>
      </trkpt>
      <trkpt lat="42.308549" lon="-8.808667">
        <ele>23.4</ele>
        <time>1970-01-01T02:19:51.000Z</time>
      </trkpt>
      <trkpt lat="42.308553" lon="-8.808674">
        <ele>23.4</ele>
        <time>1970-01-01T02:19:52.000Z</time>
      </trkpt>
      <trkpt lat="42.308559" lon="-8.808671">
        <ele>23.2</ele>
        <time>1970-01-01T02:19:53.000Z</time>
      </trkpt>
      <trkpt lat="42.308564" lon="-8.808674">
        <ele>23.4</ele>
        <time>1970-01-01T02:19:54.000Z</time>
      </trkpt>
      <trkpt lat="42.308573" lon="-8.808675">
        <ele>23.4</ele>
        <time>1970-01-01T02:19:55.000Z</time>
      </trkpt>
      <trkpt lat="42.308578" lon="-8.808681">
        <ele>23.8</ele>
        <time>1970-01-01T02:19:56.000Z</time>
      </trkpt>
      <trkpt lat="42.308588" lon="-8.808684">
        <ele>23.6</ele>
        <time>1970-01-01T02:19:57.000Z</time>
      </trkpt>
      <trkpt lat="42.308602" lon="-8.808685">
        <ele>23.4</ele>
        <time>1970-01-01T02:19:58.000Z</time>
      </trkpt>
      <trkpt lat="42.308624" lon="-8.808684">
        <ele>23.4</ele>
        <time>1970-01-01T02:19:59.000Z</time>
      </trkpt>
      <trkpt lat="42.308639" lon="-8.80868">
        <ele>23.4</ele>
        <time>1970-01-01T02:20:00.000Z</time>
      </trkpt>
      <trkpt lat="42.308652" lon="-8.808674">
        <ele>23.4</ele>
        <time>1970-01-01T02:20:01.000Z</time>
      </trkpt>
      <trkpt lat="42.308664" lon="-8.808677">
        <ele>23.6</ele>
        <time>1970-01-01T02:20:02.000Z</time>
      </trkpt>
      <trkpt lat="42.308677" lon="-8.808674">
        <ele>24.2</ele>
        <time>1970-01-01T02:20:03.000Z</time>
      </trkpt>
      <trkpt lat="42.308697" lon="-8.808674">
        <ele>24.4</ele>
        <time>1970-01-01T02:20:04.000Z</time>
      </trkpt>
      <trkpt lat="42.308715" lon="-8.808671">
        <ele>24.4</ele>
        <time>1970-01-01T02:20:05.000Z</time>
      </trkpt>
      <trkpt lat="42.308731" lon="-8.808667">
        <ele>24.6</ele>
        <time>1970-01-01T02:20:06.000Z</time>
      </trkpt>
      <trkpt lat="42.308744" lon="-8.808665">
        <ele>24.6</ele>
        <time>1970-01-01T02:20:07.000Z</time>
      </trkpt>
      <trkpt lat="42.308756" lon="-8.808665">
        <ele>24.6</ele>
        <time>1970-01-01T02:20:08.000Z</time>
      </trkpt>
      <trkpt lat="42.308765" lon="-8.808665">
        <ele>24.2</ele>
        <time>1970-01-01T02:20:09.000Z</time>
      </trkpt>
      <trkpt lat="42.308777" lon="-8.808657">
        <ele>24</ele>
        <time>1970-01-01T02:20:10.000Z</time>
      </trkpt>
      <trkpt lat="42.308787" lon="-8.808656">
        <ele>24</ele>
        <time>1970-01-01T02:20:11.000Z</time>
      </trkpt>
      <trkpt lat="42.308796" lon="-8.808651">
        <ele>24.2</ele>
        <time>1970-01-01T02:20:12.000Z</time>
      </trkpt>
      <trkpt lat="42.308806" lon="-8.808651">
        <ele>24.2</ele>
        <time>1970-01-01T02:20:13.000Z</time>
      </trkpt>
      <trkpt lat="42.308815" lon="-8.80865">
        <ele>24.4</ele>
        <time>1970-01-01T02:20:14.000Z</time>
      </trkpt>
      <trkpt lat="42.308822" lon="-8.808649">
        <ele>24.4</ele>
        <time>1970-01-01T02:20:15.000Z</time>
      </trkpt>
      <trkpt lat="42.308832" lon="-8.808641">
        <ele>24.8</ele>
        <time>1970-01-01T02:20:16.000Z</time>
      </trkpt>
      <trkpt lat="42.308843" lon="-8.808633">
        <ele>24.6</ele>
        <time>1970-01-01T02:20:17.000Z</time>
      </trkpt>
      <trkpt lat="42.308853" lon="-8.808633">
        <ele>24.8</ele>
        <time>1970-01-01T02:20:18.000Z</time>
      </trkpt>
      <trkpt lat="42.308864" lon="-8.808632">
        <ele>25</ele>
        <time>1970-01-01T02:20:19.000Z</time>
      </trkpt>
      <trkpt lat="42.308875" lon="-8.808635">
        <ele>25</ele>
        <time>1970-01-01T02:20:20.000Z</time>
      </trkpt>
      <trkpt lat="42.308886" lon="-8.808639">
        <ele>25.2</ele>
        <time>1970-01-01T02:20:21.000Z</time>
      </trkpt>
      <trkpt lat="42.308896" lon="-8.808645">
        <ele>25.2</ele>
        <time>1970-01-01T02:20:22.000Z</time>
      </trkpt>
      <trkpt lat="42.308905" lon="-8.808649">
        <ele>25.2</ele>
        <time>1970-01-01T02:20:23.000Z</time>
      </trkpt>
      <trkpt lat="42.308916" lon="-8.808657">
        <ele>25.2</ele>
        <time>1970-01-01T02:20:24.000Z</time>
      </trkpt>
      <trkpt lat="42.308931" lon="-8.808664">
        <ele>25.2</ele>
        <time>1970-01-01T02:20:25.000Z</time>
      </trkpt>
      <trkpt lat="42.308946" lon="-8.80867">
        <ele>25</ele>
        <time>1970-01-01T02:20:26.000Z</time>
      </trkpt>
      <trkpt lat="42.30896" lon="-8.808674">
        <ele>24.8</ele>
        <time>1970-01-01T02:20:27.000Z</time>
      </trkpt>
      <trkpt lat="42.30897" lon="-8.808676">
        <ele>24.6</ele>
        <time>1970-01-01T02:20:28.000Z</time>
      </trkpt>
      <trkpt lat="42.308981" lon="-8.808678">
        <ele>24.6</ele>
        <time>1970-01-01T02:20:29.000Z</time>
      </trkpt>
      <trkpt lat="42.308991" lon="-8.808675">
        <ele>24.6</ele>
        <time>1970-01-01T02:20:30.000Z</time>
      </trkpt>
      <trkpt lat="42.309002" lon="-8.808661">
        <ele>24.6</ele>
        <time>1970-01-01T02:20:31.000Z</time>
      </trkpt>
      <trkpt lat="42.309012" lon="-8.808642">
        <ele>24.6</ele>
        <time>1970-01-01T02:20:32.000Z</time>
      </trkpt>
      <trkpt lat="42.309024" lon="-8.808623">
        <ele>24.6</ele>
        <time>1970-01-01T02:20:33.000Z</time>
      </trkpt>
      <trkpt lat="42.309031" lon="-8.808612">
        <ele>24.8</ele>
        <time>1970-01-01T02:20:34.000Z</time>
      </trkpt>
      <trkpt lat="42.309033" lon="-8.808601">
        <ele>25</ele>
        <time>1970-01-01T02:20:35.000Z</time>
      </trkpt>
      <trkpt lat="42.309038" lon="-8.808586">
        <ele>25</ele>
        <time>1970-01-01T02:20:36.000Z</time>
      </trkpt>
      <trkpt lat="42.309046" lon="-8.808567">
        <ele>25.2</ele>
        <time>1970-01-01T02:20:37.000Z</time>
      </trkpt>
      <trkpt lat="42.309053" lon="-8.808553">
        <ele>25.4</ele>
        <time>1970-01-01T02:20:38.000Z</time>
      </trkpt>
      <trkpt lat="42.30906" lon="-8.808542">
        <ele>25.8</ele>
        <time>1970-01-01T02:20:39.000Z</time>
      </trkpt>
      <trkpt lat="42.309071" lon="-8.808528">
        <ele>25.8</ele>
        <time>1970-01-01T02:20:40.000Z</time>
      </trkpt>
      <trkpt lat="42.309081" lon="-8.808514">
        <ele>26.4</ele>
        <time>1970-01-01T02:20:41.000Z</time>
      </trkpt>
      <trkpt lat="42.309086" lon="-8.808505">
        <ele>26.4</ele>
        <time>1970-01-01T02:20:42.000Z</time>
      </trkpt>
      <trkpt lat="42.309093" lon="-8.808499">
        <ele>26.4</ele>
        <time>1970-01-01T02:20:43.000Z</time>
      </trkpt>
      <trkpt lat="42.309104" lon="-8.808495">
        <ele>26.6</ele>
        <time>1970-01-01T02:20:44.000Z</time>
      </trkpt>
      <trkpt lat="42.309113" lon="-8.808493">
        <ele>26.8</ele>
        <time>1970-01-01T02:20:45.000Z</time>
      </trkpt>
      <trkpt lat="42.309123" lon="-8.808489">
        <ele>26.8</ele>
        <time>1970-01-01T02:20:46.000Z</time>
      </trkpt>
      <trkpt lat="42.309134" lon="-8.808487">
        <ele>26.8</ele>
        <time>1970-01-01T02:20:47.000Z</time>
      </trkpt>
      <trkpt lat="42.309146" lon="-8.808485">
        <ele>27</ele>
        <time>1970-01-01T02:20:48.000Z</time>
      </trkpt>
      <trkpt lat="42.309156" lon="-8.808481">
        <ele>27</ele>
        <time>1970-01-01T02:20:49.000Z</time>
      </trkpt>
      <trkpt lat="42.309171" lon="-8.808468">
        <ele>27</ele>
        <time>1970-01-01T02:20:50.000Z</time>
      </trkpt>
      <trkpt lat="42.309182" lon="-8.808458">
        <ele>27.2</ele>
        <time>1970-01-01T02:20:51.000Z</time>
      </trkpt>
      <trkpt lat="42.309191" lon="-8.808448">
        <ele>27</ele>
        <time>1970-01-01T02:20:52.000Z</time>
      </trkpt>
      <trkpt lat="42.309201" lon="-8.808437">
        <ele>27</ele>
        <time>1970-01-01T02:20:53.000Z</time>
      </trkpt>
      <trkpt lat="42.309212" lon="-8.808423">
        <ele>27.2</ele>
        <time>1970-01-01T02:20:54.000Z</time>
      </trkpt>
      <trkpt lat="42.309222" lon="-8.808406">
        <ele>27.2</ele>
        <time>1970-01-01T02:20:55.000Z</time>
      </trkpt>
      <trkpt lat="42.309228" lon="-8.808396">
        <ele>27.4</ele>
        <time>1970-01-01T02:20:56.000Z</time>
      </trkpt>
      <trkpt lat="42.309237" lon="-8.808384">
        <ele>27.4</ele>
        <time>1970-01-01T02:20:57.000Z</time>
      </trkpt>
      <trkpt lat="42.309248" lon="-8.808369">
        <ele>27.4</ele>
        <time>1970-01-01T02:20:58.000Z</time>
      </trkpt>
      <trkpt lat="42.309255" lon="-8.808358">
        <ele>27.4</ele>
        <time>1970-01-01T02:20:59.000Z</time>
      </trkpt>
      <trkpt lat="42.309266" lon="-8.808341">
        <ele>27.4</ele>
        <time>1970-01-01T02:21:00.000Z</time>
      </trkpt>
      <trkpt lat="42.309273" lon="-8.808327">
        <ele>27.4</ele>
        <time>1970-01-01T02:21:01.000Z</time>
      </trkpt>
      <trkpt lat="42.309279" lon="-8.808314">
        <ele>27.4</ele>
        <time>1970-01-01T02:21:02.000Z</time>
      </trkpt>
      <trkpt lat="42.309284" lon="-8.808301">
        <ele>27.4</ele>
        <time>1970-01-01T02:21:03.000Z</time>
      </trkpt>
      <trkpt lat="42.309291" lon="-8.808284">
        <ele>27.2</ele>
        <time>1970-01-01T02:21:04.000Z</time>
      </trkpt>
      <trkpt lat="42.309297" lon="-8.808262">
        <ele>27</ele>
        <time>1970-01-01T02:21:05.000Z</time>
      </trkpt>
      <trkpt lat="42.3093" lon="-8.808243">
        <ele>26.8</ele>
        <time>1970-01-01T02:21:06.000Z</time>
      </trkpt>
      <trkpt lat="42.309303" lon="-8.808227">
        <ele>26.6</ele>
        <time>1970-01-01T02:21:07.000Z</time>
      </trkpt>
      <trkpt lat="42.309307" lon="-8.808212">
        <ele>26.6</ele>
        <time>1970-01-01T02:21:08.000Z</time>
      </trkpt>
      <trkpt lat="42.309311" lon="-8.808196">
        <ele>26.4</ele>
        <time>1970-01-01T02:21:09.000Z</time>
      </trkpt>
      <trkpt lat="42.309317" lon="-8.808179">
        <ele>26.4</ele>
        <time>1970-01-01T02:21:10.000Z</time>
      </trkpt>
      <trkpt lat="42.309322" lon="-8.808163">
        <ele>26.2</ele>
        <time>1970-01-01T02:21:11.000Z</time>
      </trkpt>
      <trkpt lat="42.309329" lon="-8.808146">
        <ele>26.2</ele>
        <time>1970-01-01T02:21:12.000Z</time>
      </trkpt>
      <trkpt lat="42.309339" lon="-8.80813">
        <ele>26.2</ele>
        <time>1970-01-01T02:21:13.000Z</time>
      </trkpt>
      <trkpt lat="42.309351" lon="-8.808116">
        <ele>26.4</ele>
        <time>1970-01-01T02:21:14.000Z</time>
      </trkpt>
      <trkpt lat="42.309363" lon="-8.808105">
        <ele>26.4</ele>
        <time>1970-01-01T02:21:15.000Z</time>
      </trkpt>
      <trkpt lat="42.309375" lon="-8.808094">
        <ele>26.2</ele>
        <time>1970-01-01T02:21:16.000Z</time>
      </trkpt>
      <trkpt lat="42.309387" lon="-8.808081">
        <ele>26.2</ele>
        <time>1970-01-01T02:21:17.000Z</time>
      </trkpt>
      <trkpt lat="42.309397" lon="-8.808074">
        <ele>26.2</ele>
        <time>1970-01-01T02:21:18.000Z</time>
      </trkpt>
      <trkpt lat="42.309405" lon="-8.808066">
        <ele>26.2</ele>
        <time>1970-01-01T02:21:19.000Z</time>
      </trkpt>
      <trkpt lat="42.309414" lon="-8.808057">
        <ele>26</ele>
        <time>1970-01-01T02:21:20.000Z</time>
      </trkpt>
      <trkpt lat="42.309424" lon="-8.808046">
        <ele>25.6</ele>
        <time>1970-01-01T02:21:21.000Z</time>
      </trkpt>
      <trkpt lat="42.309432" lon="-8.808035">
        <ele>25.6</ele>
        <time>1970-01-01T02:21:22.000Z</time>
      </trkpt>
      <trkpt lat="42.309441" lon="-8.808025">
        <ele>25.4</ele>
        <time>1970-01-01T02:21:23.000Z</time>
      </trkpt>
      <trkpt lat="42.309453" lon="-8.808015">
        <ele>25.4</ele>
        <time>1970-01-01T02:21:24.000Z</time>
      </trkpt>
      <trkpt lat="42.309464" lon="-8.808003">
        <ele>25.4</ele>
        <time>1970-01-01T02:21:25.000Z</time>
      </trkpt>
      <trkpt lat="42.309481" lon="-8.807991">
        <ele>25.4</ele>
        <time>1970-01-01T02:21:26.000Z</time>
      </trkpt>
      <trkpt lat="42.309495" lon="-8.807986">
        <ele>25.8</ele>
        <time>1970-01-01T02:21:27.000Z</time>
      </trkpt>
      <trkpt lat="42.309509" lon="-8.807984">
        <ele>26</ele>
        <time>1970-01-01T02:21:28.000Z</time>
      </trkpt>
      <trkpt lat="42.309527" lon="-8.807977">
        <ele>26</ele>
        <time>1970-01-01T02:21:29.000Z</time>
      </trkpt>
      <trkpt lat="42.30955" lon="-8.807958">
        <ele>26</ele>
        <time>1970-01-01T02:21:30.000Z</time>
      </trkpt>
      <trkpt lat="42.309562" lon="-8.807945">
        <ele>26</ele>
        <time>1970-01-01T02:21:31.000Z</time>
      </trkpt>
      <trkpt lat="42.309574" lon="-8.807931">
        <ele>26</ele>
        <time>1970-01-01T02:21:32.000Z</time>
      </trkpt>
      <trkpt lat="42.309584" lon="-8.807919">
        <ele>25.8</ele>
        <time>1970-01-01T02:21:33.000Z</time>
      </trkpt>
      <trkpt lat="42.309594" lon="-8.807908">
        <ele>25.8</ele>
        <time>1970-01-01T02:21:34.000Z</time>
      </trkpt>
      <trkpt lat="42.309604" lon="-8.807901">
        <ele>25.8</ele>
        <time>1970-01-01T02:21:35.000Z</time>
      </trkpt>
      <trkpt lat="42.309614" lon="-8.807896">
        <ele>25.6</ele>
        <time>1970-01-01T02:21:36.000Z</time>
      </trkpt>
      <trkpt lat="42.309624" lon="-8.807893">
        <ele>25.6</ele>
        <time>1970-01-01T02:21:37.000Z</time>
      </trkpt>
      <trkpt lat="42.309641" lon="-8.80788">
        <ele>25.6</ele>
        <time>1970-01-01T02:21:38.000Z</time>
      </trkpt>
      <trkpt lat="42.309654" lon="-8.807876">
        <ele>25.4</ele>
        <time>1970-01-01T02:21:39.000Z</time>
      </trkpt>
      <trkpt lat="42.30967" lon="-8.80787">
        <ele>25.4</ele>
        <time>1970-01-01T02:21:40.000Z</time>
      </trkpt>
      <trkpt lat="42.309682" lon="-8.807866">
        <ele>25.4</ele>
        <time>1970-01-01T02:21:41.000Z</time>
      </trkpt>
      <trkpt lat="42.309692" lon="-8.80786">
        <ele>25.4</ele>
        <time>1970-01-01T02:21:42.000Z</time>
      </trkpt>
      <trkpt lat="42.309705" lon="-8.807847">
        <ele>25.4</ele>
        <time>1970-01-01T02:21:43.000Z</time>
      </trkpt>
      <trkpt lat="42.309718" lon="-8.807833">
        <ele>25.4</ele>
        <time>1970-01-01T02:21:44.000Z</time>
      </trkpt>
      <trkpt lat="42.309726" lon="-8.807827">
        <ele>25.4</ele>
        <time>1970-01-01T02:21:45.000Z</time>
      </trkpt>
      <trkpt lat="42.30974" lon="-8.807812">
        <ele>25.4</ele>
        <time>1970-01-01T02:21:46.000Z</time>
      </trkpt>
      <trkpt lat="42.30975" lon="-8.807805">
        <ele>25.2</ele>
        <time>1970-01-01T02:21:47.000Z</time>
      </trkpt>
      <trkpt lat="42.309759" lon="-8.807798">
        <ele>25.2</ele>
        <time>1970-01-01T02:21:48.000Z</time>
      </trkpt>
      <trkpt lat="42.309767" lon="-8.80778">
        <ele>25</ele>
        <time>1970-01-01T02:21:49.000Z</time>
      </trkpt>
      <trkpt lat="42.30977" lon="-8.807764">
        <ele>25</ele>
        <time>1970-01-01T02:21:50.000Z</time>
      </trkpt>
      <trkpt lat="42.309772" lon="-8.807755">
        <ele>25.2</ele>
        <time>1970-01-01T02:21:51.000Z</time>
      </trkpt>
      <trkpt lat="42.309774" lon="-8.807744">
        <ele>25.2</ele>
        <time>1970-01-01T02:21:52.000Z</time>
      </trkpt>
      <trkpt lat="42.309777" lon="-8.807734">
        <ele>25.4</ele>
        <time>1970-01-01T02:21:53.000Z</time>
      </trkpt>
      <trkpt lat="42.309778" lon="-8.807723">
        <ele>25.6</ele>
        <time>1970-01-01T02:21:54.000Z</time>
      </trkpt>
      <trkpt lat="42.309778" lon="-8.80771">
        <ele>25.8</ele>
        <time>1970-01-01T02:21:55.000Z</time>
      </trkpt>
      <trkpt lat="42.309777" lon="-8.807697">
        <ele>26</ele>
        <time>1970-01-01T02:21:56.000Z</time>
      </trkpt>
      <trkpt lat="42.309774" lon="-8.807684">
        <ele>26</ele>
        <time>1970-01-01T02:21:57.000Z</time>
      </trkpt>
      <trkpt lat="42.309772" lon="-8.80766">
        <ele>26</ele>
        <time>1970-01-01T02:21:58.000Z</time>
      </trkpt>
      <trkpt lat="42.309768" lon="-8.807641">
        <ele>26</ele>
        <time>1970-01-01T02:21:59.000Z</time>
      </trkpt>
      <trkpt lat="42.309762" lon="-8.807619">
        <ele>26</ele>
        <time>1970-01-01T02:22:00.000Z</time>
      </trkpt>
      <trkpt lat="42.309758" lon="-8.807602">
        <ele>26</ele>
        <time>1970-01-01T02:22:01.000Z</time>
      </trkpt>
      <trkpt lat="42.309755" lon="-8.807587">
        <ele>25.8</ele>
        <time>1970-01-01T02:22:02.000Z</time>
      </trkpt>
      <trkpt lat="42.309755" lon="-8.80757">
        <ele>25.8</ele>
        <time>1970-01-01T02:22:03.000Z</time>
      </trkpt>
      <trkpt lat="42.309754" lon="-8.80756">
        <ele>25.8</ele>
        <time>1970-01-01T02:22:04.000Z</time>
      </trkpt>
      <trkpt lat="42.309746" lon="-8.807556">
        <ele>25.8</ele>
        <time>1970-01-01T02:22:05.000Z</time>
      </trkpt>
      <trkpt lat="42.309745" lon="-8.807548">
        <ele>26</ele>
        <time>1970-01-01T02:22:06.000Z</time>
      </trkpt>
      <trkpt lat="42.309745" lon="-8.807545">
        <ele>25.8</ele>
        <time>1970-01-01T02:22:07.000Z</time>
      </trkpt>
      <trkpt lat="42.30975" lon="-8.807534">
        <ele>25.8</ele>
        <time>1970-01-01T02:22:08.000Z</time>
      </trkpt>
      <trkpt lat="42.309757" lon="-8.807514">
        <ele>25.6</ele>
        <time>1970-01-01T02:22:09.000Z</time>
      </trkpt>
      <trkpt lat="42.309757" lon="-8.807502">
        <ele>25.6</ele>
        <time>1970-01-01T02:22:10.000Z</time>
      </trkpt>
      <trkpt lat="42.309757" lon="-8.807487">
        <ele>25.6</ele>
        <time>1970-01-01T02:22:11.000Z</time>
      </trkpt>
      <trkpt lat="42.309755" lon="-8.807474">
        <ele>25.6</ele>
        <time>1970-01-01T02:22:12.000Z</time>
      </trkpt>
      <trkpt lat="42.309752" lon="-8.807461">
        <ele>25.6</ele>
        <time>1970-01-01T02:22:13.000Z</time>
      </trkpt>
      <trkpt lat="42.309749" lon="-8.807447">
        <ele>25.8</ele>
        <time>1970-01-01T02:22:14.000Z</time>
      </trkpt>
      <trkpt lat="42.309746" lon="-8.807434">
        <ele>26</ele>
        <time>1970-01-01T02:22:15.000Z</time>
      </trkpt>
      <trkpt lat="42.309745" lon="-8.80742">
        <ele>26</ele>
        <time>1970-01-01T02:22:16.000Z</time>
      </trkpt>
      <trkpt lat="42.309746" lon="-8.807408">
        <ele>26</ele>
        <time>1970-01-01T02:22:17.000Z</time>
      </trkpt>
      <trkpt lat="42.309747" lon="-8.80739">
        <ele>25.6</ele>
        <time>1970-01-01T02:22:18.000Z</time>
      </trkpt>
      <trkpt lat="42.309741" lon="-8.807371">
        <ele>25.4</ele>
        <time>1970-01-01T02:22:19.000Z</time>
      </trkpt>
      <trkpt lat="42.309735" lon="-8.807349">
        <ele>25.4</ele>
        <time>1970-01-01T02:22:20.000Z</time>
      </trkpt>
      <trkpt lat="42.309726" lon="-8.807331">
        <ele>25.4</ele>
        <time>1970-01-01T02:22:21.000Z</time>
      </trkpt>
      <trkpt lat="42.309717" lon="-8.807319">
        <ele>25.4</ele>
        <time>1970-01-01T02:22:22.000Z</time>
      </trkpt>
      <trkpt lat="42.309705" lon="-8.807312">
        <ele>25.6</ele>
        <time>1970-01-01T02:22:23.000Z</time>
      </trkpt>
      <trkpt lat="42.309695" lon="-8.807302">
        <ele>25.6</ele>
        <time>1970-01-01T02:22:24.000Z</time>
      </trkpt>
      <trkpt lat="42.309684" lon="-8.807293">
        <ele>25.8</ele>
        <time>1970-01-01T02:22:25.000Z</time>
      </trkpt>
      <trkpt lat="42.309672" lon="-8.807289">
        <ele>26</ele>
        <time>1970-01-01T02:22:26.000Z</time>
      </trkpt>
      <trkpt lat="42.309659" lon="-8.807276">
        <ele>26</ele>
        <time>1970-01-01T02:22:27.000Z</time>
      </trkpt>
      <trkpt lat="42.309646" lon="-8.807262">
        <ele>26</ele>
        <time>1970-01-01T02:22:28.000Z</time>
      </trkpt>
      <trkpt lat="42.309634" lon="-8.807251">
        <ele>26</ele>
        <time>1970-01-01T02:22:29.000Z</time>
      </trkpt>
      <trkpt lat="42.309626" lon="-8.807244">
        <ele>26</ele>
        <time>1970-01-01T02:22:30.000Z</time>
      </trkpt>
      <trkpt lat="42.309622" lon="-8.807234">
        <ele>26.4</ele>
        <time>1970-01-01T02:22:31.000Z</time>
      </trkpt>
      <trkpt lat="42.309618" lon="-8.807225">
        <ele>26.4</ele>
        <time>1970-01-01T02:22:32.000Z</time>
      </trkpt>
      <trkpt lat="42.309617" lon="-8.807217">
        <ele>26.6</ele>
        <time>1970-01-01T02:22:33.000Z</time>
      </trkpt>
      <trkpt lat="42.309618" lon="-8.807207">
        <ele>26.6</ele>
        <time>1970-01-01T02:22:34.000Z</time>
      </trkpt>
      <trkpt lat="42.309618" lon="-8.807191">
        <ele>26.8</ele>
        <time>1970-01-01T02:22:35.000Z</time>
      </trkpt>
      <trkpt lat="42.30962" lon="-8.807165">
        <ele>26.8</ele>
        <time>1970-01-01T02:22:36.000Z</time>
      </trkpt>
      <trkpt lat="42.309612" lon="-8.807149">
        <ele>26.8</ele>
        <time>1970-01-01T02:22:37.000Z</time>
      </trkpt>
      <trkpt lat="42.309607" lon="-8.80713">
        <ele>27</ele>
        <time>1970-01-01T02:22:38.000Z</time>
      </trkpt>
      <trkpt lat="42.309601" lon="-8.807114">
        <ele>27</ele>
        <time>1970-01-01T02:22:39.000Z</time>
      </trkpt>
      <trkpt lat="42.309595" lon="-8.8071">
        <ele>27</ele>
        <time>1970-01-01T02:22:40.000Z</time>
      </trkpt>
      <trkpt lat="42.30959" lon="-8.807086">
        <ele>27</ele>
        <time>1970-01-01T02:22:41.000Z</time>
      </trkpt>
      <trkpt lat="42.309584" lon="-8.80707">
        <ele>27</ele>
        <time>1970-01-01T02:22:42.000Z</time>
      </trkpt>
      <trkpt lat="42.30958" lon="-8.807055">
        <ele>27</ele>
        <time>1970-01-01T02:22:43.000Z</time>
      </trkpt>
      <trkpt lat="42.309574" lon="-8.807051">
        <ele>27</ele>
        <time>1970-01-01T02:22:44.000Z</time>
      </trkpt>
      <trkpt lat="42.309566" lon="-8.807046">
        <ele>27</ele>
        <time>1970-01-01T02:22:45.000Z</time>
      </trkpt>
      <trkpt lat="42.309557" lon="-8.807041">
        <ele>27</ele>
        <time>1970-01-01T02:22:46.000Z</time>
      </trkpt>
      <trkpt lat="42.30955" lon="-8.807037">
        <ele>27.2</ele>
        <time>1970-01-01T02:22:47.000Z</time>
      </trkpt>
      <trkpt lat="42.309545" lon="-8.807035">
        <ele>27.6</ele>
        <time>1970-01-01T02:22:48.000Z</time>
      </trkpt>
      <trkpt lat="42.309538" lon="-8.807032">
        <ele>28</ele>
        <time>1970-01-01T02:22:49.000Z</time>
      </trkpt>
      <trkpt lat="42.30953" lon="-8.807029">
        <ele>28.4</ele>
        <time>1970-01-01T02:22:50.000Z</time>
      </trkpt>
      <trkpt lat="42.309515" lon="-8.807034">
        <ele>28.6</ele>
        <time>1970-01-01T02:22:51.000Z</time>
      </trkpt>
      <trkpt lat="42.309504" lon="-8.807035">
        <ele>28.8</ele>
        <time>1970-01-01T02:22:52.000Z</time>
      </trkpt>
      <trkpt lat="42.309497" lon="-8.807034">
        <ele>29</ele>
        <time>1970-01-01T02:22:53.000Z</time>
      </trkpt>
      <trkpt lat="42.30949" lon="-8.807037">
        <ele>29.2</ele>
        <time>1970-01-01T02:22:54.000Z</time>
      </trkpt>
      <trkpt lat="42.309482" lon="-8.80704">
        <ele>29.4</ele>
        <time>1970-01-01T02:22:55.000Z</time>
      </trkpt>
      <trkpt lat="42.309476" lon="-8.807038">
        <ele>29.4</ele>
        <time>1970-01-01T02:22:56.000Z</time>
      </trkpt>
      <trkpt lat="42.309471" lon="-8.807034">
        <ele>29.6</ele>
        <time>1970-01-01T02:22:57.000Z</time>
      </trkpt>
      <trkpt lat="42.309461" lon="-8.807031">
        <ele>29.6</ele>
        <time>1970-01-01T02:22:58.000Z</time>
      </trkpt>
      <trkpt lat="42.309455" lon="-8.807029">
        <ele>29.8</ele>
        <time>1970-01-01T02:22:59.000Z</time>
      </trkpt>
      <trkpt lat="42.309448" lon="-8.807027">
        <ele>30.2</ele>
        <time>1970-01-01T02:23:00.000Z</time>
      </trkpt>
      <trkpt lat="42.309437" lon="-8.807025">
        <ele>30</ele>
        <time>1970-01-01T02:23:01.000Z</time>
      </trkpt>
      <trkpt lat="42.309431" lon="-8.807024">
        <ele>30.2</ele>
        <time>1970-01-01T02:23:02.000Z</time>
      </trkpt>
      <trkpt lat="42.309423" lon="-8.807025">
        <ele>30.4</ele>
        <time>1970-01-01T02:23:03.000Z</time>
      </trkpt>
      <trkpt lat="42.309419" lon="-8.807016">
        <ele>31</ele>
        <time>1970-01-01T02:23:04.000Z</time>
      </trkpt>
      <trkpt lat="42.309415" lon="-8.807007">
        <ele>31.2</ele>
        <time>1970-01-01T02:23:05.000Z</time>
      </trkpt>
      <trkpt lat="42.309416" lon="-8.806994">
        <ele>31.2</ele>
        <time>1970-01-01T02:23:06.000Z</time>
      </trkpt>
      <trkpt lat="42.309421" lon="-8.806975">
        <ele>31.2</ele>
        <time>1970-01-01T02:23:07.000Z</time>
      </trkpt>
      <trkpt lat="42.309423" lon="-8.806963">
        <ele>31.2</ele>
        <time>1970-01-01T02:23:08.000Z</time>
      </trkpt>
      <trkpt lat="42.309425" lon="-8.806951">
        <ele>31.2</ele>
        <time>1970-01-01T02:23:09.000Z</time>
      </trkpt>
      <trkpt lat="42.309427" lon="-8.806938">
        <ele>31.2</ele>
        <time>1970-01-01T02:23:10.000Z</time>
      </trkpt>
      <trkpt lat="42.309431" lon="-8.806924">
        <ele>31</ele>
        <time>1970-01-01T02:23:11.000Z</time>
      </trkpt>
      <trkpt lat="42.309435" lon="-8.806909">
        <ele>31</ele>
        <time>1970-01-01T02:23:12.000Z</time>
      </trkpt>
      <trkpt lat="42.309438" lon="-8.806898">
        <ele>31.2</ele>
        <time>1970-01-01T02:23:13.000Z</time>
      </trkpt>
      <trkpt lat="42.309442" lon="-8.806887">
        <ele>31.2</ele>
        <time>1970-01-01T02:23:14.000Z</time>
      </trkpt>
      <trkpt lat="42.309448" lon="-8.806873">
        <ele>31.2</ele>
        <time>1970-01-01T02:23:15.000Z</time>
      </trkpt>
      <trkpt lat="42.309452" lon="-8.80686">
        <ele>31.6</ele>
        <time>1970-01-01T02:23:16.000Z</time>
      </trkpt>
      <trkpt lat="42.309456" lon="-8.806851">
        <ele>31.6</ele>
        <time>1970-01-01T02:23:17.000Z</time>
      </trkpt>
      <trkpt lat="42.309462" lon="-8.806843">
        <ele>31.6</ele>
        <time>1970-01-01T02:23:18.000Z</time>
      </trkpt>
      <trkpt lat="42.309466" lon="-8.806844">
        <ele>31.8</ele>
        <time>1970-01-01T02:23:19.000Z</time>
      </trkpt>
      <trkpt lat="42.309468" lon="-8.806846">
        <ele>31.4</ele>
        <time>1970-01-01T02:23:20.000Z</time>
      </trkpt>
      <trkpt lat="42.309471" lon="-8.806841">
        <ele>31.6</ele>
        <time>1970-01-01T02:23:21.000Z</time>
      </trkpt>
      <trkpt lat="42.309472" lon="-8.806837">
        <ele>31.6</ele>
        <time>1970-01-01T02:23:22.000Z</time>
      </trkpt>
      <trkpt lat="42.309474" lon="-8.806835">
        <ele>31.6</ele>
        <time>1970-01-01T02:23:23.000Z</time>
      </trkpt>
      <trkpt lat="42.309477" lon="-8.806831">
        <ele>31.6</ele>
        <time>1970-01-01T02:23:24.000Z</time>
      </trkpt>
      <trkpt lat="42.309478" lon="-8.806828">
        <ele>31.6</ele>
        <time>1970-01-01T02:23:25.000Z</time>
      </trkpt>
      <trkpt lat="42.309481" lon="-8.806831">
        <ele>31.6</ele>
        <time>1970-01-01T02:23:26.000Z</time>
      </trkpt>
      <trkpt lat="42.309483" lon="-8.806835">
        <ele>31.6</ele>
        <time>1970-01-01T02:23:27.000Z</time>
      </trkpt>
      <trkpt lat="42.309482" lon="-8.80684">
        <ele>31.6</ele>
        <time>1970-01-01T02:23:28.000Z</time>
      </trkpt>
      <trkpt lat="42.309484" lon="-8.806837">
        <ele>31.6</ele>
        <time>1970-01-01T02:23:29.000Z</time>
      </trkpt>
      <trkpt lat="42.309487" lon="-8.80683">
        <ele>31.6</ele>
        <time>1970-01-01T02:23:30.000Z</time>
      </trkpt>
      <trkpt lat="42.30949" lon="-8.806818">
        <ele>31.6</ele>
        <time>1970-01-01T02:23:31.000Z</time>
      </trkpt>
      <trkpt lat="42.309493" lon="-8.806803">
        <ele>31.6</ele>
        <time>1970-01-01T02:23:32.000Z</time>
      </trkpt>
      <trkpt lat="42.309493" lon="-8.806787">
        <ele>31.4</ele>
        <time>1970-01-01T02:23:33.000Z</time>
      </trkpt>
      <trkpt lat="42.309493" lon="-8.80677">
        <ele>31.2</ele>
        <time>1970-01-01T02:23:34.000Z</time>
      </trkpt>
      <trkpt lat="42.309493" lon="-8.806756">
        <ele>31</ele>
        <time>1970-01-01T02:23:35.000Z</time>
      </trkpt>
      <trkpt lat="42.309492" lon="-8.806739">
        <ele>31</ele>
        <time>1970-01-01T02:23:36.000Z</time>
      </trkpt>
      <trkpt lat="42.309489" lon="-8.806722">
        <ele>31</ele>
        <time>1970-01-01T02:23:37.000Z</time>
      </trkpt>
      <trkpt lat="42.309488" lon="-8.806712">
        <ele>31</ele>
        <time>1970-01-01T02:23:38.000Z</time>
      </trkpt>
      <trkpt lat="42.309484" lon="-8.806703">
        <ele>31.2</ele>
        <time>1970-01-01T02:23:39.000Z</time>
      </trkpt>
      <trkpt lat="42.309479" lon="-8.80669">
        <ele>31.2</ele>
        <time>1970-01-01T02:23:40.000Z</time>
      </trkpt>
      <trkpt lat="42.309473" lon="-8.806671">
        <ele>31.2</ele>
        <time>1970-01-01T02:23:41.000Z</time>
      </trkpt>
      <trkpt lat="42.309467" lon="-8.806648">
        <ele>31.6</ele>
        <time>1970-01-01T02:23:42.000Z</time>
      </trkpt>
      <trkpt lat="42.309462" lon="-8.80663">
        <ele>32</ele>
        <time>1970-01-01T02:23:43.000Z</time>
      </trkpt>
      <trkpt lat="42.309453" lon="-8.806605">
        <ele>32.4</ele>
        <time>1970-01-01T02:23:44.000Z</time>
      </trkpt>
      <trkpt lat="42.309444" lon="-8.806587">
        <ele>32.4</ele>
        <time>1970-01-01T02:23:45.000Z</time>
      </trkpt>
      <trkpt lat="42.309433" lon="-8.806573">
        <ele>32.4</ele>
        <time>1970-01-01T02:23:46.000Z</time>
      </trkpt>
      <trkpt lat="42.309424" lon="-8.80656">
        <ele>32.4</ele>
        <time>1970-01-01T02:23:47.000Z</time>
      </trkpt>
      <trkpt lat="42.309416" lon="-8.806548">
        <ele>32.4</ele>
        <time>1970-01-01T02:23:48.000Z</time>
      </trkpt>
      <trkpt lat="42.309409" lon="-8.806534">
        <ele>32.4</ele>
        <time>1970-01-01T02:23:49.000Z</time>
      </trkpt>
      <trkpt lat="42.309404" lon="-8.806521">
        <ele>32.2</ele>
        <time>1970-01-01T02:23:50.000Z</time>
      </trkpt>
      <trkpt lat="42.309402" lon="-8.806504">
        <ele>32</ele>
        <time>1970-01-01T02:23:51.000Z</time>
      </trkpt>
      <trkpt lat="42.309402" lon="-8.806488">
        <ele>32</ele>
        <time>1970-01-01T02:23:52.000Z</time>
      </trkpt>
      <trkpt lat="42.309406" lon="-8.80647">
        <ele>31.8</ele>
        <time>1970-01-01T02:23:53.000Z</time>
      </trkpt>
      <trkpt lat="42.309407" lon="-8.806452">
        <ele>32</ele>
        <time>1970-01-01T02:23:54.000Z</time>
      </trkpt>
      <trkpt lat="42.309407" lon="-8.806439">
        <ele>31.8</ele>
        <time>1970-01-01T02:23:55.000Z</time>
      </trkpt>
      <trkpt lat="42.309407" lon="-8.806428">
        <ele>31.6</ele>
        <time>1970-01-01T02:23:56.000Z</time>
      </trkpt>
      <trkpt lat="42.309406" lon="-8.806419">
        <ele>31.6</ele>
        <time>1970-01-01T02:23:57.000Z</time>
      </trkpt>
      <trkpt lat="42.309408" lon="-8.806407">
        <ele>31.4</ele>
        <time>1970-01-01T02:23:58.000Z</time>
      </trkpt>
      <trkpt lat="42.30941" lon="-8.806395">
        <ele>31.4</ele>
        <time>1970-01-01T02:23:59.000Z</time>
      </trkpt>
      <trkpt lat="42.309412" lon="-8.806383">
        <ele>31.4</ele>
        <time>1970-01-01T02:24:00.000Z</time>
      </trkpt>
      <trkpt lat="42.309414" lon="-8.80637">
        <ele>31.4</ele>
        <time>1970-01-01T02:24:01.000Z</time>
      </trkpt>
      <trkpt lat="42.309413" lon="-8.806358">
        <ele>31.4</ele>
        <time>1970-01-01T02:24:02.000Z</time>
      </trkpt>
      <trkpt lat="42.309412" lon="-8.806341">
        <ele>31.6</ele>
        <time>1970-01-01T02:24:03.000Z</time>
      </trkpt>
      <trkpt lat="42.309412" lon="-8.806323">
        <ele>31.6</ele>
        <time>1970-01-01T02:24:04.000Z</time>
      </trkpt>
      <trkpt lat="42.30941" lon="-8.806307">
        <ele>31.6</ele>
        <time>1970-01-01T02:24:05.000Z</time>
      </trkpt>
      <trkpt lat="42.309408" lon="-8.806292">
        <ele>31.6</ele>
        <time>1970-01-01T02:24:06.000Z</time>
      </trkpt>
      <trkpt lat="42.309404" lon="-8.806271">
        <ele>31.8</ele>
        <time>1970-01-01T02:24:07.000Z</time>
      </trkpt>
      <trkpt lat="42.309401" lon="-8.806251">
        <ele>31.8</ele>
        <time>1970-01-01T02:24:08.000Z</time>
      </trkpt>
      <trkpt lat="42.309399" lon="-8.806231">
        <ele>32</ele>
        <time>1970-01-01T02:24:09.000Z</time>
      </trkpt>
      <trkpt lat="42.309399" lon="-8.80622">
        <ele>32</ele>
        <time>1970-01-01T02:24:10.000Z</time>
      </trkpt>
      <trkpt lat="42.309397" lon="-8.806211">
        <ele>32</ele>
        <time>1970-01-01T02:24:11.000Z</time>
      </trkpt>
      <trkpt lat="42.309392" lon="-8.806201">
        <ele>32</ele>
        <time>1970-01-01T02:24:12.000Z</time>
      </trkpt>
      <trkpt lat="42.309389" lon="-8.806195">
        <ele>32</ele>
        <time>1970-01-01T02:24:13.000Z</time>
      </trkpt>
      <trkpt lat="42.30938" lon="-8.806186">
        <ele>32</ele>
        <time>1970-01-01T02:24:14.000Z</time>
      </trkpt>
      <trkpt lat="42.309378" lon="-8.806174">
        <ele>32</ele>
        <time>1970-01-01T02:24:15.000Z</time>
      </trkpt>
      <trkpt lat="42.309374" lon="-8.806153">
        <ele>32</ele>
        <time>1970-01-01T02:24:16.000Z</time>
      </trkpt>
      <trkpt lat="42.309375" lon="-8.806138">
        <ele>32</ele>
        <time>1970-01-01T02:24:17.000Z</time>
      </trkpt>
      <trkpt lat="42.309374" lon="-8.806124">
        <ele>32.2</ele>
        <time>1970-01-01T02:24:18.000Z</time>
      </trkpt>
      <trkpt lat="42.309372" lon="-8.806104">
        <ele>32.2</ele>
        <time>1970-01-01T02:24:19.000Z</time>
      </trkpt>
      <trkpt lat="42.309369" lon="-8.806078">
        <ele>32.4</ele>
        <time>1970-01-01T02:24:20.000Z</time>
      </trkpt>
      <trkpt lat="42.309362" lon="-8.80605">
        <ele>32.4</ele>
        <time>1970-01-01T02:24:21.000Z</time>
      </trkpt>
      <trkpt lat="42.309354" lon="-8.806031">
        <ele>32.4</ele>
        <time>1970-01-01T02:24:22.000Z</time>
      </trkpt>
      <trkpt lat="42.309346" lon="-8.806015">
        <ele>32</ele>
        <time>1970-01-01T02:24:23.000Z</time>
      </trkpt>
      <trkpt lat="42.30934" lon="-8.806005">
        <ele>31.8</ele>
        <time>1970-01-01T02:24:24.000Z</time>
      </trkpt>
      <trkpt lat="42.309333" lon="-8.805995">
        <ele>31.8</ele>
        <time>1970-01-01T02:24:25.000Z</time>
      </trkpt>
      <trkpt lat="42.309322" lon="-8.805988">
        <ele>31.2</ele>
        <time>1970-01-01T02:24:26.000Z</time>
      </trkpt>
      <trkpt lat="42.309313" lon="-8.80598">
        <ele>31</ele>
        <time>1970-01-01T02:24:27.000Z</time>
      </trkpt>
      <trkpt lat="42.309307" lon="-8.805973">
        <ele>31</ele>
        <time>1970-01-01T02:24:28.000Z</time>
      </trkpt>
      <trkpt lat="42.309303" lon="-8.805967">
        <ele>31</ele>
        <time>1970-01-01T02:24:29.000Z</time>
      </trkpt>
      <trkpt lat="42.309302" lon="-8.805963">
        <ele>31.2</ele>
        <time>1970-01-01T02:24:30.000Z</time>
      </trkpt>
      <trkpt lat="42.309308" lon="-8.805961">
        <ele>31.2</ele>
        <time>1970-01-01T02:24:31.000Z</time>
      </trkpt>
      <trkpt lat="42.309307" lon="-8.805968">
        <ele>31.4</ele>
        <time>1970-01-01T02:24:32.000Z</time>
      </trkpt>
      <trkpt lat="42.309307" lon="-8.805968">
        <ele>31.6</ele>
        <time>1970-01-01T02:24:33.000Z</time>
      </trkpt>
      <trkpt lat="42.309306" lon="-8.805964">
        <ele>31.8</ele>
        <time>1970-01-01T02:24:34.000Z</time>
      </trkpt>
      <trkpt lat="42.309304" lon="-8.805964">
        <ele>32</ele>
        <time>1970-01-01T02:24:35.000Z</time>
      </trkpt>
      <trkpt lat="42.3093" lon="-8.805965">
        <ele>31.8</ele>
        <time>1970-01-01T02:24:36.000Z</time>
      </trkpt>
      <trkpt lat="42.309297" lon="-8.805967">
        <ele>31.8</ele>
        <time>1970-01-01T02:24:37.000Z</time>
      </trkpt>
      <trkpt lat="42.309294" lon="-8.805969">
        <ele>32</ele>
        <time>1970-01-01T02:24:38.000Z</time>
      </trkpt>
      <trkpt lat="42.309292" lon="-8.805974">
        <ele>32</ele>
        <time>1970-01-01T02:24:39.000Z</time>
      </trkpt>
      <trkpt lat="42.309292" lon="-8.805986">
        <ele>32</ele>
        <time>1970-01-01T02:24:40.000Z</time>
      </trkpt>
      <trkpt lat="42.309293" lon="-8.805994">
        <ele>32.2</ele>
        <time>1970-01-01T02:24:41.000Z</time>
      </trkpt>
      <trkpt lat="42.309296" lon="-8.805997">
        <ele>32.4</ele>
        <time>1970-01-01T02:24:42.000Z</time>
      </trkpt>
      <trkpt lat="42.309297" lon="-8.805997">
        <ele>32.4</ele>
        <time>1970-01-01T02:24:43.000Z</time>
      </trkpt>
      <trkpt lat="42.309299" lon="-8.805988">
        <ele>32.6</ele>
        <time>1970-01-01T02:24:44.000Z</time>
      </trkpt>
      <trkpt lat="42.309301" lon="-8.805978">
        <ele>32.6</ele>
        <time>1970-01-01T02:24:45.000Z</time>
      </trkpt>
      <trkpt lat="42.309301" lon="-8.805965">
        <ele>32.6</ele>
        <time>1970-01-01T02:24:46.000Z</time>
      </trkpt>
      <trkpt lat="42.309299" lon="-8.805948">
        <ele>32.6</ele>
        <time>1970-01-01T02:24:47.000Z</time>
      </trkpt>
      <trkpt lat="42.309302" lon="-8.805934">
        <ele>32.4</ele>
        <time>1970-01-01T02:24:48.000Z</time>
      </trkpt>
      <trkpt lat="42.309308" lon="-8.805922">
        <ele>32</ele>
        <time>1970-01-01T02:24:49.000Z</time>
      </trkpt>
      <trkpt lat="42.309312" lon="-8.80591">
        <ele>31.8</ele>
        <time>1970-01-01T02:24:50.000Z</time>
      </trkpt>
      <trkpt lat="42.309312" lon="-8.805892">
        <ele>31.8</ele>
        <time>1970-01-01T02:24:51.000Z</time>
      </trkpt>
      <trkpt lat="42.309314" lon="-8.805875">
        <ele>31.6</ele>
        <time>1970-01-01T02:24:52.000Z</time>
      </trkpt>
      <trkpt lat="42.309317" lon="-8.805858">
        <ele>31.4</ele>
        <time>1970-01-01T02:24:53.000Z</time>
      </trkpt>
      <trkpt lat="42.309321" lon="-8.805849">
        <ele>31.6</ele>
        <time>1970-01-01T02:24:54.000Z</time>
      </trkpt>
      <trkpt lat="42.309335" lon="-8.805828">
        <ele>32</ele>
        <time>1970-01-01T02:24:55.000Z</time>
      </trkpt>
      <trkpt lat="42.309343" lon="-8.805809">
        <ele>32.2</ele>
        <time>1970-01-01T02:24:56.000Z</time>
      </trkpt>
      <trkpt lat="42.309342" lon="-8.805783">
        <ele>32.2</ele>
        <time>1970-01-01T02:24:57.000Z</time>
      </trkpt>
      <trkpt lat="42.309349" lon="-8.805763">
        <ele>32.4</ele>
        <time>1970-01-01T02:24:58.000Z</time>
      </trkpt>
      <trkpt lat="42.309362" lon="-8.80575">
        <ele>32.6</ele>
        <time>1970-01-01T02:24:59.000Z</time>
      </trkpt>
      <trkpt lat="42.309376" lon="-8.805742">
        <ele>32.8</ele>
        <time>1970-01-01T02:25:00.000Z</time>
      </trkpt>
      <trkpt lat="42.309381" lon="-8.805733">
        <ele>32.8</ele>
        <time>1970-01-01T02:25:01.000Z</time>
      </trkpt>
      <trkpt lat="42.309382" lon="-8.805719">
        <ele>33</ele>
        <time>1970-01-01T02:25:02.000Z</time>
      </trkpt>
      <trkpt lat="42.309387" lon="-8.805709">
        <ele>33</ele>
        <time>1970-01-01T02:25:03.000Z</time>
      </trkpt>
      <trkpt lat="42.309392" lon="-8.805701">
        <ele>33</ele>
        <time>1970-01-01T02:25:04.000Z</time>
      </trkpt>
      <trkpt lat="42.3094" lon="-8.805692">
        <ele>33</ele>
        <time>1970-01-01T02:25:05.000Z</time>
      </trkpt>
      <trkpt lat="42.309411" lon="-8.805687">
        <ele>33</ele>
        <time>1970-01-01T02:25:06.000Z</time>
      </trkpt>
      <trkpt lat="42.309419" lon="-8.80568">
        <ele>33.2</ele>
        <time>1970-01-01T02:25:07.000Z</time>
      </trkpt>
      <trkpt lat="42.30943" lon="-8.805671">
        <ele>33.4</ele>
        <time>1970-01-01T02:25:08.000Z</time>
      </trkpt>
      <trkpt lat="42.309442" lon="-8.805659">
        <ele>33.8</ele>
        <time>1970-01-01T02:25:09.000Z</time>
      </trkpt>
      <trkpt lat="42.309449" lon="-8.805652">
        <ele>33.8</ele>
        <time>1970-01-01T02:25:10.000Z</time>
      </trkpt>
      <trkpt lat="42.309457" lon="-8.805643">
        <ele>34</ele>
        <time>1970-01-01T02:25:11.000Z</time>
      </trkpt>
      <trkpt lat="42.309463" lon="-8.805634">
        <ele>34.2</ele>
        <time>1970-01-01T02:25:12.000Z</time>
      </trkpt>
      <trkpt lat="42.309473" lon="-8.80562">
        <ele>34.2</ele>
        <time>1970-01-01T02:25:13.000Z</time>
      </trkpt>
      <trkpt lat="42.309489" lon="-8.8056">
        <ele>34.4</ele>
        <time>1970-01-01T02:25:14.000Z</time>
      </trkpt>
      <trkpt lat="42.309498" lon="-8.805587">
        <ele>34.4</ele>
        <time>1970-01-01T02:25:15.000Z</time>
      </trkpt>
      <trkpt lat="42.309504" lon="-8.805578">
        <ele>34.4</ele>
        <time>1970-01-01T02:25:16.000Z</time>
      </trkpt>
      <trkpt lat="42.30951" lon="-8.805572">
        <ele>34.4</ele>
        <time>1970-01-01T02:25:17.000Z</time>
      </trkpt>
      <trkpt lat="42.309513" lon="-8.805563">
        <ele>34.4</ele>
        <time>1970-01-01T02:25:18.000Z</time>
      </trkpt>
      <trkpt lat="42.309519" lon="-8.805553">
        <ele>34.6</ele>
        <time>1970-01-01T02:25:19.000Z</time>
      </trkpt>
      <trkpt lat="42.309528" lon="-8.805543">
        <ele>34.6</ele>
        <time>1970-01-01T02:25:20.000Z</time>
      </trkpt>
      <trkpt lat="42.309531" lon="-8.805535">
        <ele>34.8</ele>
        <time>1970-01-01T02:25:21.000Z</time>
      </trkpt>
      <trkpt lat="42.309537" lon="-8.805518">
        <ele>35.2</ele>
        <time>1970-01-01T02:25:22.000Z</time>
      </trkpt>
      <trkpt lat="42.30954" lon="-8.805501">
        <ele>35.2</ele>
        <time>1970-01-01T02:25:23.000Z</time>
      </trkpt>
      <trkpt lat="42.309541" lon="-8.805481">
        <ele>35.4</ele>
        <time>1970-01-01T02:25:24.000Z</time>
      </trkpt>
      <trkpt lat="42.309546" lon="-8.805462">
        <ele>35.6</ele>
        <time>1970-01-01T02:25:25.000Z</time>
      </trkpt>
      <trkpt lat="42.309549" lon="-8.805446">
        <ele>35.8</ele>
        <time>1970-01-01T02:25:26.000Z</time>
      </trkpt>
      <trkpt lat="42.30955" lon="-8.80543">
        <ele>35.8</ele>
        <time>1970-01-01T02:25:27.000Z</time>
      </trkpt>
      <trkpt lat="42.309559" lon="-8.805413">
        <ele>35.8</ele>
        <time>1970-01-01T02:25:28.000Z</time>
      </trkpt>
      <trkpt lat="42.309563" lon="-8.805396">
        <ele>36</ele>
        <time>1970-01-01T02:25:29.000Z</time>
      </trkpt>
      <trkpt lat="42.309571" lon="-8.805374">
        <ele>36.2</ele>
        <time>1970-01-01T02:25:30.000Z</time>
      </trkpt>
      <trkpt lat="42.309571" lon="-8.805353">
        <ele>36.6</ele>
        <time>1970-01-01T02:25:31.000Z</time>
      </trkpt>
      <trkpt lat="42.309574" lon="-8.805328">
        <ele>36.8</ele>
        <time>1970-01-01T02:25:32.000Z</time>
      </trkpt>
      <trkpt lat="42.309577" lon="-8.80531">
        <ele>37</ele>
        <time>1970-01-01T02:25:33.000Z</time>
      </trkpt>
      <trkpt lat="42.309582" lon="-8.805297">
        <ele>37.4</ele>
        <time>1970-01-01T02:25:34.000Z</time>
      </trkpt>
      <trkpt lat="42.309588" lon="-8.80528">
        <ele>37.8</ele>
        <time>1970-01-01T02:25:35.000Z</time>
      </trkpt>
      <trkpt lat="42.309593" lon="-8.805256">
        <ele>38</ele>
        <time>1970-01-01T02:25:36.000Z</time>
      </trkpt>
      <trkpt lat="42.309599" lon="-8.805242">
        <ele>38.4</ele>
        <time>1970-01-01T02:25:37.000Z</time>
      </trkpt>
      <trkpt lat="42.309601" lon="-8.805233">
        <ele>38.6</ele>
        <time>1970-01-01T02:25:38.000Z</time>
      </trkpt>
      <trkpt lat="42.309602" lon="-8.805221">
        <ele>38.8</ele>
        <time>1970-01-01T02:25:39.000Z</time>
      </trkpt>
      <trkpt lat="42.309603" lon="-8.805212">
        <ele>38.8</ele>
        <time>1970-01-01T02:25:40.000Z</time>
      </trkpt>
      <trkpt lat="42.3096" lon="-8.805214">
        <ele>39</ele>
        <time>1970-01-01T02:25:41.000Z</time>
      </trkpt>
      <trkpt lat="42.3096" lon="-8.805219">
        <ele>39.2</ele>
        <time>1970-01-01T02:25:42.000Z</time>
      </trkpt>
      <trkpt lat="42.3096" lon="-8.805222">
        <ele>39.4</ele>
        <time>1970-01-01T02:25:43.000Z</time>
      </trkpt>
      <trkpt lat="42.309601" lon="-8.805223">
        <ele>39.6</ele>
        <time>1970-01-01T02:25:44.000Z</time>
      </trkpt>
      <trkpt lat="42.309603" lon="-8.805229">
        <ele>39.6</ele>
        <time>1970-01-01T02:25:45.000Z</time>
      </trkpt>
      <trkpt lat="42.309606" lon="-8.80524">
        <ele>39.6</ele>
        <time>1970-01-01T02:25:46.000Z</time>
      </trkpt>
      <trkpt lat="42.309609" lon="-8.805255">
        <ele>39.6</ele>
        <time>1970-01-01T02:25:47.000Z</time>
      </trkpt>
      <trkpt lat="42.309613" lon="-8.805279">
        <ele>39.6</ele>
        <time>1970-01-01T02:25:48.000Z</time>
      </trkpt>
      <trkpt lat="42.309617" lon="-8.805299">
        <ele>39.2</ele>
        <time>1970-01-01T02:25:49.000Z</time>
      </trkpt>
      <trkpt lat="42.309621" lon="-8.805314">
        <ele>39</ele>
        <time>1970-01-01T02:25:50.000Z</time>
      </trkpt>
      <trkpt lat="42.309628" lon="-8.805328">
        <ele>38.8</ele>
        <time>1970-01-01T02:25:51.000Z</time>
      </trkpt>
      <trkpt lat="42.309633" lon="-8.805341">
        <ele>38.6</ele>
        <time>1970-01-01T02:25:52.000Z</time>
      </trkpt>
      <trkpt lat="42.309639" lon="-8.805353">
        <ele>38.4</ele>
        <time>1970-01-01T02:25:53.000Z</time>
      </trkpt>
      <trkpt lat="42.309644" lon="-8.805367">
        <ele>37.8</ele>
        <time>1970-01-01T02:25:54.000Z</time>
      </trkpt>
      <trkpt lat="42.309649" lon="-8.805378">
        <ele>37.6</ele>
        <time>1970-01-01T02:25:55.000Z</time>
      </trkpt>
      <trkpt lat="42.309657" lon="-8.805381">
        <ele>37.2</ele>
        <time>1970-01-01T02:25:56.000Z</time>
      </trkpt>
      <trkpt lat="42.309665" lon="-8.805384">
        <ele>37</ele>
        <time>1970-01-01T02:25:57.000Z</time>
      </trkpt>
      <trkpt lat="42.309671" lon="-8.805389">
        <ele>36.6</ele>
        <time>1970-01-01T02:25:58.000Z</time>
      </trkpt>
      <trkpt lat="42.309679" lon="-8.805395">
        <ele>36.2</ele>
        <time>1970-01-01T02:25:59.000Z</time>
      </trkpt>
      <trkpt lat="42.309686" lon="-8.805403">
        <ele>35.6</ele>
        <time>1970-01-01T02:26:00.000Z</time>
      </trkpt>
      <trkpt lat="42.309693" lon="-8.805413">
        <ele>35.4</ele>
        <time>1970-01-01T02:26:01.000Z</time>
      </trkpt>
      <trkpt lat="42.3097" lon="-8.805418">
        <ele>35.2</ele>
        <time>1970-01-01T02:26:02.000Z</time>
      </trkpt>
      <trkpt lat="42.309702" lon="-8.805421">
        <ele>35</ele>
        <time>1970-01-01T02:26:03.000Z</time>
      </trkpt>
      <trkpt lat="42.309704" lon="-8.805427">
        <ele>35</ele>
        <time>1970-01-01T02:26:04.000Z</time>
      </trkpt>
      <trkpt lat="42.309704" lon="-8.805428">
        <ele>35</ele>
        <time>1970-01-01T02:26:05.000Z</time>
      </trkpt>
      <trkpt lat="42.309705" lon="-8.805429">
        <ele>35.2</ele>
        <time>1970-01-01T02:26:06.000Z</time>
      </trkpt>
      <trkpt lat="42.309709" lon="-8.805427">
        <ele>35.2</ele>
        <time>1970-01-01T02:26:07.000Z</time>
      </trkpt>
      <trkpt lat="42.309715" lon="-8.805422">
        <ele>35</ele>
        <time>1970-01-01T02:26:08.000Z</time>
      </trkpt>
      <trkpt lat="42.30972" lon="-8.80542">
        <ele>35</ele>
        <time>1970-01-01T02:26:09.000Z</time>
      </trkpt>
      <trkpt lat="42.309726" lon="-8.805415">
        <ele>35.2</ele>
        <time>1970-01-01T02:26:10.000Z</time>
      </trkpt>
      <trkpt lat="42.309739" lon="-8.80541">
        <ele>35.2</ele>
        <time>1970-01-01T02:26:11.000Z</time>
      </trkpt>
      <trkpt lat="42.309757" lon="-8.805402">
        <ele>35.2</ele>
        <time>1970-01-01T02:26:12.000Z</time>
      </trkpt>
      <trkpt lat="42.309769" lon="-8.805395">
        <ele>35.2</ele>
        <time>1970-01-01T02:26:13.000Z</time>
      </trkpt>
      <trkpt lat="42.309779" lon="-8.805379">
        <ele>35.4</ele>
        <time>1970-01-01T02:26:14.000Z</time>
      </trkpt>
      <trkpt lat="42.309788" lon="-8.805365">
        <ele>35.4</ele>
        <time>1970-01-01T02:26:15.000Z</time>
      </trkpt>
      <trkpt lat="42.309795" lon="-8.805355">
        <ele>35.6</ele>
        <time>1970-01-01T02:26:16.000Z</time>
      </trkpt>
      <trkpt lat="42.309804" lon="-8.805341">
        <ele>35.6</ele>
        <time>1970-01-01T02:26:17.000Z</time>
      </trkpt>
      <trkpt lat="42.309815" lon="-8.805331">
        <ele>35.8</ele>
        <time>1970-01-01T02:26:18.000Z</time>
      </trkpt>
      <trkpt lat="42.309828" lon="-8.805318">
        <ele>36</ele>
        <time>1970-01-01T02:26:19.000Z</time>
      </trkpt>
      <trkpt lat="42.309838" lon="-8.80531">
        <ele>36.4</ele>
        <time>1970-01-01T02:26:20.000Z</time>
      </trkpt>
      <trkpt lat="42.309847" lon="-8.805295">
        <ele>36.4</ele>
        <time>1970-01-01T02:26:21.000Z</time>
      </trkpt>
      <trkpt lat="42.309853" lon="-8.805279">
        <ele>36.8</ele>
        <time>1970-01-01T02:26:22.000Z</time>
      </trkpt>
      <trkpt lat="42.309858" lon="-8.805266">
        <ele>36.8</ele>
        <time>1970-01-01T02:26:23.000Z</time>
      </trkpt>
      <trkpt lat="42.30986" lon="-8.805251">
        <ele>37</ele>
        <time>1970-01-01T02:26:24.000Z</time>
      </trkpt>
      <trkpt lat="42.309865" lon="-8.805244">
        <ele>37</ele>
        <time>1970-01-01T02:26:25.000Z</time>
      </trkpt>
      <trkpt lat="42.309873" lon="-8.80523">
        <ele>37</ele>
        <time>1970-01-01T02:26:26.000Z</time>
      </trkpt>
      <trkpt lat="42.309878" lon="-8.805214">
        <ele>37</ele>
        <time>1970-01-01T02:26:27.000Z</time>
      </trkpt>
      <trkpt lat="42.309882" lon="-8.805206">
        <ele>37</ele>
        <time>1970-01-01T02:26:28.000Z</time>
      </trkpt>
      <trkpt lat="42.309889" lon="-8.80519">
        <ele>37.2</ele>
        <time>1970-01-01T02:26:29.000Z</time>
      </trkpt>
      <trkpt lat="42.309897" lon="-8.80518">
        <ele>37.2</ele>
        <time>1970-01-01T02:26:30.000Z</time>
      </trkpt>
      <trkpt lat="42.309908" lon="-8.805171">
        <ele>37.4</ele>
        <time>1970-01-01T02:26:31.000Z</time>
      </trkpt>
      <trkpt lat="42.30992" lon="-8.805159">
        <ele>37.4</ele>
        <time>1970-01-01T02:26:32.000Z</time>
      </trkpt>
      <trkpt lat="42.309934" lon="-8.805148">
        <ele>37.6</ele>
        <time>1970-01-01T02:26:33.000Z</time>
      </trkpt>
      <trkpt lat="42.309942" lon="-8.80514">
        <ele>37.6</ele>
        <time>1970-01-01T02:26:34.000Z</time>
      </trkpt>
      <trkpt lat="42.30995" lon="-8.805133">
        <ele>37.8</ele>
        <time>1970-01-01T02:26:35.000Z</time>
      </trkpt>
      <trkpt lat="42.309956" lon="-8.805126">
        <ele>38</ele>
        <time>1970-01-01T02:26:36.000Z</time>
      </trkpt>
      <trkpt lat="42.309964" lon="-8.805115">
        <ele>38.4</ele>
        <time>1970-01-01T02:26:37.000Z</time>
      </trkpt>
      <trkpt lat="42.309972" lon="-8.805106">
        <ele>38.6</ele>
        <time>1970-01-01T02:26:38.000Z</time>
      </trkpt>
      <trkpt lat="42.309983" lon="-8.805096">
        <ele>38.6</ele>
        <time>1970-01-01T02:26:39.000Z</time>
      </trkpt>
      <trkpt lat="42.309994" lon="-8.805083">
        <ele>38.8</ele>
        <time>1970-01-01T02:26:40.000Z</time>
      </trkpt>
      <trkpt lat="42.310002" lon="-8.805075">
        <ele>38.8</ele>
        <time>1970-01-01T02:26:41.000Z</time>
      </trkpt>
      <trkpt lat="42.310009" lon="-8.805067">
        <ele>38.6</ele>
        <time>1970-01-01T02:26:42.000Z</time>
      </trkpt>
      <trkpt lat="42.310015" lon="-8.805059">
        <ele>38.6</ele>
        <time>1970-01-01T02:26:43.000Z</time>
      </trkpt>
      <trkpt lat="42.31002" lon="-8.805051">
        <ele>38.4</ele>
        <time>1970-01-01T02:26:44.000Z</time>
      </trkpt>
      <trkpt lat="42.310025" lon="-8.805043">
        <ele>38.4</ele>
        <time>1970-01-01T02:26:45.000Z</time>
      </trkpt>
      <trkpt lat="42.31003" lon="-8.805029">
        <ele>38.2</ele>
        <time>1970-01-01T02:26:46.000Z</time>
      </trkpt>
      <trkpt lat="42.310041" lon="-8.805013">
        <ele>38.4</ele>
        <time>1970-01-01T02:26:47.000Z</time>
      </trkpt>
      <trkpt lat="42.310048" lon="-8.804998">
        <ele>38.6</ele>
        <time>1970-01-01T02:26:48.000Z</time>
      </trkpt>
      <trkpt lat="42.310058" lon="-8.804977">
        <ele>39</ele>
        <time>1970-01-01T02:26:49.000Z</time>
      </trkpt>
      <trkpt lat="42.310062" lon="-8.804961">
        <ele>39</ele>
        <time>1970-01-01T02:26:50.000Z</time>
      </trkpt>
      <trkpt lat="42.310063" lon="-8.804949">
        <ele>39.2</ele>
        <time>1970-01-01T02:26:51.000Z</time>
      </trkpt>
      <trkpt lat="42.310065" lon="-8.804933">
        <ele>39.4</ele>
        <time>1970-01-01T02:26:52.000Z</time>
      </trkpt>
      <trkpt lat="42.310069" lon="-8.804919">
        <ele>39.4</ele>
        <time>1970-01-01T02:26:53.000Z</time>
      </trkpt>
      <trkpt lat="42.310076" lon="-8.804901">
        <ele>39.6</ele>
        <time>1970-01-01T02:26:54.000Z</time>
      </trkpt>
      <trkpt lat="42.310081" lon="-8.804881">
        <ele>39.8</ele>
        <time>1970-01-01T02:26:55.000Z</time>
      </trkpt>
      <trkpt lat="42.310087" lon="-8.804873">
        <ele>39.8</ele>
        <time>1970-01-01T02:26:56.000Z</time>
      </trkpt>
      <trkpt lat="42.310094" lon="-8.80485">
        <ele>40</ele>
        <time>1970-01-01T02:26:57.000Z</time>
      </trkpt>
      <trkpt lat="42.310097" lon="-8.804825">
        <ele>40</ele>
        <time>1970-01-01T02:26:58.000Z</time>
      </trkpt>
      <trkpt lat="42.3101" lon="-8.804797">
        <ele>39.8</ele>
        <time>1970-01-01T02:26:59.000Z</time>
      </trkpt>
      <trkpt lat="42.310099" lon="-8.804781">
        <ele>39.8</ele>
        <time>1970-01-01T02:27:00.000Z</time>
      </trkpt>
      <trkpt lat="42.310098" lon="-8.804768">
        <ele>40</ele>
        <time>1970-01-01T02:27:01.000Z</time>
      </trkpt>
      <trkpt lat="42.310098" lon="-8.804758">
        <ele>40.2</ele>
        <time>1970-01-01T02:27:02.000Z</time>
      </trkpt>
      <trkpt lat="42.310097" lon="-8.80475">
        <ele>40.2</ele>
        <time>1970-01-01T02:27:03.000Z</time>
      </trkpt>
      <trkpt lat="42.310097" lon="-8.804741">
        <ele>40.2</ele>
        <time>1970-01-01T02:27:04.000Z</time>
      </trkpt>
      <trkpt lat="42.310099" lon="-8.804733">
        <ele>40.2</ele>
        <time>1970-01-01T02:27:05.000Z</time>
      </trkpt>
      <trkpt lat="42.3101" lon="-8.804731">
        <ele>40.2</ele>
        <time>1970-01-01T02:27:06.000Z</time>
      </trkpt>
      <trkpt lat="42.310102" lon="-8.804728">
        <ele>40.2</ele>
        <time>1970-01-01T02:27:07.000Z</time>
      </trkpt>
      <trkpt lat="42.310105" lon="-8.804725">
        <ele>40</ele>
        <time>1970-01-01T02:27:08.000Z</time>
      </trkpt>
      <trkpt lat="42.310106" lon="-8.804725">
        <ele>40</ele>
        <time>1970-01-01T02:27:09.000Z</time>
      </trkpt>
      <trkpt lat="42.310101" lon="-8.804732">
        <ele>40.2</ele>
        <time>1970-01-01T02:27:10.000Z</time>
      </trkpt>
      <trkpt lat="42.310097" lon="-8.804735">
        <ele>40.2</ele>
        <time>1970-01-01T02:27:11.000Z</time>
      </trkpt>
      <trkpt lat="42.310097" lon="-8.804733">
        <ele>40.4</ele>
        <time>1970-01-01T02:27:12.000Z</time>
      </trkpt>
      <trkpt lat="42.310097" lon="-8.804732">
        <ele>40.4</ele>
        <time>1970-01-01T02:27:13.000Z</time>
      </trkpt>
      <trkpt lat="42.310095" lon="-8.804735">
        <ele>40.6</ele>
        <time>1970-01-01T02:27:14.000Z</time>
      </trkpt>
      <trkpt lat="42.310093" lon="-8.804734">
        <ele>40.6</ele>
        <time>1970-01-01T02:27:15.000Z</time>
      </trkpt>
      <trkpt lat="42.310092" lon="-8.80473">
        <ele>40.6</ele>
        <time>1970-01-01T02:27:16.000Z</time>
      </trkpt>
      <trkpt lat="42.310098" lon="-8.804724">
        <ele>40.6</ele>
        <time>1970-01-01T02:27:17.000Z</time>
      </trkpt>
      <trkpt lat="42.310101" lon="-8.804719">
        <ele>40.2</ele>
        <time>1970-01-01T02:27:18.000Z</time>
      </trkpt>
      <trkpt lat="42.310103" lon="-8.804707">
        <ele>40</ele>
        <time>1970-01-01T02:27:19.000Z</time>
      </trkpt>
      <trkpt lat="42.310104" lon="-8.804694">
        <ele>40</ele>
        <time>1970-01-01T02:27:20.000Z</time>
      </trkpt>
      <trkpt lat="42.310104" lon="-8.80468">
        <ele>40</ele>
        <time>1970-01-01T02:27:21.000Z</time>
      </trkpt>
      <trkpt lat="42.310101" lon="-8.804671">
        <ele>40</ele>
        <time>1970-01-01T02:27:22.000Z</time>
      </trkpt>
      <trkpt lat="42.310098" lon="-8.804657">
        <ele>40.2</ele>
        <time>1970-01-01T02:27:23.000Z</time>
      </trkpt>
      <trkpt lat="42.310095" lon="-8.804641">
        <ele>40.4</ele>
        <time>1970-01-01T02:27:24.000Z</time>
      </trkpt>
      <trkpt lat="42.310094" lon="-8.804615">
        <ele>40.6</ele>
        <time>1970-01-01T02:27:25.000Z</time>
      </trkpt>
      <trkpt lat="42.310101" lon="-8.804596">
        <ele>41</ele>
        <time>1970-01-01T02:27:26.000Z</time>
      </trkpt>
      <trkpt lat="42.310108" lon="-8.804582">
        <ele>41.2</ele>
        <time>1970-01-01T02:27:27.000Z</time>
      </trkpt>
      <trkpt lat="42.310111" lon="-8.804574">
        <ele>41.4</ele>
        <time>1970-01-01T02:27:28.000Z</time>
      </trkpt>
      <trkpt lat="42.310115" lon="-8.804571">
        <ele>41.6</ele>
        <time>1970-01-01T02:27:29.000Z</time>
      </trkpt>
      <trkpt lat="42.310117" lon="-8.804564">
        <ele>41.6</ele>
        <time>1970-01-01T02:27:30.000Z</time>
      </trkpt>
      <trkpt lat="42.310127" lon="-8.804545">
        <ele>41.6</ele>
        <time>1970-01-01T02:27:31.000Z</time>
      </trkpt>
      <trkpt lat="42.31013" lon="-8.804535">
        <ele>42</ele>
        <time>1970-01-01T02:27:32.000Z</time>
      </trkpt>
      <trkpt lat="42.310132" lon="-8.804525">
        <ele>42.4</ele>
        <time>1970-01-01T02:27:33.000Z</time>
      </trkpt>
      <trkpt lat="42.310134" lon="-8.804514">
        <ele>42.6</ele>
        <time>1970-01-01T02:27:34.000Z</time>
      </trkpt>
      <trkpt lat="42.310136" lon="-8.804502">
        <ele>42.6</ele>
        <time>1970-01-01T02:27:35.000Z</time>
      </trkpt>
      <trkpt lat="42.310136" lon="-8.804493">
        <ele>43</ele>
        <time>1970-01-01T02:27:36.000Z</time>
      </trkpt>
      <trkpt lat="42.310135" lon="-8.804485">
        <ele>43.4</ele>
        <time>1970-01-01T02:27:37.000Z</time>
      </trkpt>
      <trkpt lat="42.310136" lon="-8.804477">
        <ele>43.6</ele>
        <time>1970-01-01T02:27:38.000Z</time>
      </trkpt>
      <trkpt lat="42.310136" lon="-8.804472">
        <ele>43.8</ele>
        <time>1970-01-01T02:27:39.000Z</time>
      </trkpt>
      <trkpt lat="42.310134" lon="-8.804468">
        <ele>43.6</ele>
        <time>1970-01-01T02:27:40.000Z</time>
      </trkpt>
      <trkpt lat="42.310132" lon="-8.804463">
        <ele>43.8</ele>
        <time>1970-01-01T02:27:41.000Z</time>
      </trkpt>
      <trkpt lat="42.310127" lon="-8.804463">
        <ele>43.8</ele>
        <time>1970-01-01T02:27:42.000Z</time>
      </trkpt>
      <trkpt lat="42.310124" lon="-8.804468">
        <ele>43.6</ele>
        <time>1970-01-01T02:27:43.000Z</time>
      </trkpt>
      <trkpt lat="42.310122" lon="-8.80447">
        <ele>43.6</ele>
        <time>1970-01-01T02:27:44.000Z</time>
      </trkpt>
      <trkpt lat="42.310117" lon="-8.804473">
        <ele>43.6</ele>
        <time>1970-01-01T02:27:45.000Z</time>
      </trkpt>
      <trkpt lat="42.310114" lon="-8.804472">
        <ele>43.6</ele>
        <time>1970-01-01T02:27:46.000Z</time>
      </trkpt>
      <trkpt lat="42.310111" lon="-8.804471">
        <ele>43.6</ele>
        <time>1970-01-01T02:27:47.000Z</time>
      </trkpt>
      <trkpt lat="42.310108" lon="-8.804468">
        <ele>43.4</ele>
        <time>1970-01-01T02:27:48.000Z</time>
      </trkpt>
      <trkpt lat="42.310107" lon="-8.804468">
        <ele>43.4</ele>
        <time>1970-01-01T02:27:49.000Z</time>
      </trkpt>
      <trkpt lat="42.310105" lon="-8.804468">
        <ele>43.4</ele>
        <time>1970-01-01T02:27:50.000Z</time>
      </trkpt>
      <trkpt lat="42.310104" lon="-8.804467">
        <ele>43.4</ele>
        <time>1970-01-01T02:27:51.000Z</time>
      </trkpt>
      <trkpt lat="42.310103" lon="-8.804464">
        <ele>43.6</ele>
        <time>1970-01-01T02:27:52.000Z</time>
      </trkpt>
      <trkpt lat="42.310103" lon="-8.80446">
        <ele>43.6</ele>
        <time>1970-01-01T02:27:53.000Z</time>
      </trkpt>
      <trkpt lat="42.3101" lon="-8.804459">
        <ele>43.6</ele>
        <time>1970-01-01T02:27:54.000Z</time>
      </trkpt>
      <trkpt lat="42.310098" lon="-8.804458">
        <ele>43.6</ele>
        <time>1970-01-01T02:27:55.000Z</time>
      </trkpt>
      <trkpt lat="42.310096" lon="-8.804457">
        <ele>43.6</ele>
        <time>1970-01-01T02:27:56.000Z</time>
      </trkpt>
      <trkpt lat="42.310094" lon="-8.804457">
        <ele>43.6</ele>
        <time>1970-01-01T02:27:57.000Z</time>
      </trkpt>
      <trkpt lat="42.310093" lon="-8.804459">
        <ele>43.8</ele>
        <time>1970-01-01T02:27:58.000Z</time>
      </trkpt>
      <trkpt lat="42.310091" lon="-8.804461">
        <ele>43.8</ele>
        <time>1970-01-01T02:27:59.000Z</time>
      </trkpt>
      <trkpt lat="42.310089" lon="-8.804462">
        <ele>43.8</ele>
        <time>1970-01-01T02:28:00.000Z</time>
      </trkpt>
      <trkpt lat="42.310087" lon="-8.804466">
        <ele>44</ele>
        <time>1970-01-01T02:28:01.000Z</time>
      </trkpt>
      <trkpt lat="42.310082" lon="-8.804475">
        <ele>44.2</ele>
        <time>1970-01-01T02:28:02.000Z</time>
      </trkpt>
      <trkpt lat="42.310077" lon="-8.80448">
        <ele>44.4</ele>
        <time>1970-01-01T02:28:03.000Z</time>
      </trkpt>
      <trkpt lat="42.310071" lon="-8.804487">
        <ele>44.4</ele>
        <time>1970-01-01T02:28:04.000Z</time>
      </trkpt>
      <trkpt lat="42.310064" lon="-8.804498">
        <ele>44.6</ele>
        <time>1970-01-01T02:28:05.000Z</time>
      </trkpt>
      <trkpt lat="42.310059" lon="-8.804507">
        <ele>44.6</ele>
        <time>1970-01-01T02:28:06.000Z</time>
      </trkpt>
      <trkpt lat="42.310053" lon="-8.804511">
        <ele>44.8</ele>
        <time>1970-01-01T02:28:07.000Z</time>
      </trkpt>
      <trkpt lat="42.310046" lon="-8.804514">
        <ele>44.8</ele>
        <time>1970-01-01T02:28:08.000Z</time>
      </trkpt>
      <trkpt lat="42.310041" lon="-8.804518">
        <ele>45</ele>
        <time>1970-01-01T02:28:09.000Z</time>
      </trkpt>
      <trkpt lat="42.310032" lon="-8.804532">
        <ele>45</ele>
        <time>1970-01-01T02:28:10.000Z</time>
      </trkpt>
      <trkpt lat="42.310024" lon="-8.804538">
        <ele>45</ele>
        <time>1970-01-01T02:28:11.000Z</time>
      </trkpt>
      <trkpt lat="42.310018" lon="-8.804544">
        <ele>45</ele>
        <time>1970-01-01T02:28:12.000Z</time>
      </trkpt>
      <trkpt lat="42.31001" lon="-8.80455">
        <ele>45</ele>
        <time>1970-01-01T02:28:13.000Z</time>
      </trkpt>
      <trkpt lat="42.310002" lon="-8.804557">
        <ele>45</ele>
        <time>1970-01-01T02:28:14.000Z</time>
      </trkpt>
      <trkpt lat="42.309993" lon="-8.804565">
        <ele>45</ele>
        <time>1970-01-01T02:28:15.000Z</time>
      </trkpt>
      <trkpt lat="42.30998" lon="-8.804576">
        <ele>45</ele>
        <time>1970-01-01T02:28:16.000Z</time>
      </trkpt>
      <trkpt lat="42.309969" lon="-8.804588">
        <ele>45.6</ele>
        <time>1970-01-01T02:28:17.000Z</time>
      </trkpt>
      <trkpt lat="42.309959" lon="-8.804602">
        <ele>46</ele>
        <time>1970-01-01T02:28:18.000Z</time>
      </trkpt>
      <trkpt lat="42.309951" lon="-8.804613">
        <ele>46.2</ele>
        <time>1970-01-01T02:28:19.000Z</time>
      </trkpt>
      <trkpt lat="42.30994" lon="-8.804624">
        <ele>46.2</ele>
        <time>1970-01-01T02:28:20.000Z</time>
      </trkpt>
      <trkpt lat="42.309931" lon="-8.804631">
        <ele>46.4</ele>
        <time>1970-01-01T02:28:21.000Z</time>
      </trkpt>
      <trkpt lat="42.309922" lon="-8.804638">
        <ele>46.6</ele>
        <time>1970-01-01T02:28:22.000Z</time>
      </trkpt>
      <trkpt lat="42.309911" lon="-8.804649">
        <ele>46.8</ele>
        <time>1970-01-01T02:28:23.000Z</time>
      </trkpt>
      <trkpt lat="42.309899" lon="-8.804663">
        <ele>47</ele>
        <time>1970-01-01T02:28:24.000Z</time>
      </trkpt>
      <trkpt lat="42.309891" lon="-8.80467">
        <ele>47</ele>
        <time>1970-01-01T02:28:25.000Z</time>
      </trkpt>
      <trkpt lat="42.309883" lon="-8.804677">
        <ele>47.2</ele>
        <time>1970-01-01T02:28:26.000Z</time>
      </trkpt>
      <trkpt lat="42.309876" lon="-8.804683">
        <ele>47.2</ele>
        <time>1970-01-01T02:28:27.000Z</time>
      </trkpt>
      <trkpt lat="42.309869" lon="-8.804687">
        <ele>47.4</ele>
        <time>1970-01-01T02:28:28.000Z</time>
      </trkpt>
      <trkpt lat="42.309859" lon="-8.804692">
        <ele>47.4</ele>
        <time>1970-01-01T02:28:29.000Z</time>
      </trkpt>
      <trkpt lat="42.309836" lon="-8.804697">
        <ele>47.4</ele>
        <time>1970-01-01T02:28:30.000Z</time>
      </trkpt>
      <trkpt lat="42.309818" lon="-8.804709">
        <ele>47.6</ele>
        <time>1970-01-01T02:28:31.000Z</time>
      </trkpt>
      <trkpt lat="42.309809" lon="-8.804719">
        <ele>47.8</ele>
        <time>1970-01-01T02:28:32.000Z</time>
      </trkpt>
      <trkpt lat="42.3098" lon="-8.804725">
        <ele>47.8</ele>
        <time>1970-01-01T02:28:33.000Z</time>
      </trkpt>
      <trkpt lat="42.30979" lon="-8.804731">
        <ele>47.8</ele>
        <time>1970-01-01T02:28:34.000Z</time>
      </trkpt>
      <trkpt lat="42.309779" lon="-8.80474">
        <ele>48</ele>
        <time>1970-01-01T02:28:35.000Z</time>
      </trkpt>
      <trkpt lat="42.309768" lon="-8.804745">
        <ele>48</ele>
        <time>1970-01-01T02:28:36.000Z</time>
      </trkpt>
      <trkpt lat="42.309757" lon="-8.804753">
        <ele>48.4</ele>
        <time>1970-01-01T02:28:37.000Z</time>
      </trkpt>
      <trkpt lat="42.309744" lon="-8.804765">
        <ele>48.6</ele>
        <time>1970-01-01T02:28:38.000Z</time>
      </trkpt>
      <trkpt lat="42.309732" lon="-8.804774">
        <ele>49</ele>
        <time>1970-01-01T02:28:39.000Z</time>
      </trkpt>
      <trkpt lat="42.309723" lon="-8.804777">
        <ele>49.2</ele>
        <time>1970-01-01T02:28:40.000Z</time>
      </trkpt>
      <trkpt lat="42.309713" lon="-8.804781">
        <ele>49.4</ele>
        <time>1970-01-01T02:28:41.000Z</time>
      </trkpt>
      <trkpt lat="42.309703" lon="-8.804785">
        <ele>49.6</ele>
        <time>1970-01-01T02:28:42.000Z</time>
      </trkpt>
      <trkpt lat="42.309691" lon="-8.804792">
        <ele>49.8</ele>
        <time>1970-01-01T02:28:43.000Z</time>
      </trkpt>
      <trkpt lat="42.309678" lon="-8.804799">
        <ele>50.2</ele>
        <time>1970-01-01T02:28:44.000Z</time>
      </trkpt>
      <trkpt lat="42.309666" lon="-8.8048">
        <ele>50.4</ele>
        <time>1970-01-01T02:28:45.000Z</time>
      </trkpt>
      <trkpt lat="42.309654" lon="-8.804802">
        <ele>50.6</ele>
        <time>1970-01-01T02:28:46.000Z</time>
      </trkpt>
      <trkpt lat="42.309643" lon="-8.804802">
        <ele>50.8</ele>
        <time>1970-01-01T02:28:47.000Z</time>
      </trkpt>
      <trkpt lat="42.309631" lon="-8.804805">
        <ele>50.8</ele>
        <time>1970-01-01T02:28:48.000Z</time>
      </trkpt>
      <trkpt lat="42.309623" lon="-8.804805">
        <ele>51</ele>
        <time>1970-01-01T02:28:49.000Z</time>
      </trkpt>
      <trkpt lat="42.309614" lon="-8.804806">
        <ele>51</ele>
        <time>1970-01-01T02:28:50.000Z</time>
      </trkpt>
      <trkpt lat="42.309602" lon="-8.804806">
        <ele>51</ele>
        <time>1970-01-01T02:28:51.000Z</time>
      </trkpt>
      <trkpt lat="42.309591" lon="-8.804808">
        <ele>51.4</ele>
        <time>1970-01-01T02:28:52.000Z</time>
      </trkpt>
      <trkpt lat="42.30958" lon="-8.804807">
        <ele>51.6</ele>
        <time>1970-01-01T02:28:53.000Z</time>
      </trkpt>
      <trkpt lat="42.30957" lon="-8.804809">
        <ele>51.8</ele>
        <time>1970-01-01T02:28:54.000Z</time>
      </trkpt>
      <trkpt lat="42.309559" lon="-8.804812">
        <ele>52</ele>
        <time>1970-01-01T02:28:55.000Z</time>
      </trkpt>
      <trkpt lat="42.309546" lon="-8.804817">
        <ele>52.2</ele>
        <time>1970-01-01T02:28:56.000Z</time>
      </trkpt>
      <trkpt lat="42.309532" lon="-8.804818">
        <ele>52.2</ele>
        <time>1970-01-01T02:28:57.000Z</time>
      </trkpt>
      <trkpt lat="42.309518" lon="-8.804816">
        <ele>52.4</ele>
        <time>1970-01-01T02:28:58.000Z</time>
      </trkpt>
      <trkpt lat="42.309502" lon="-8.804814">
        <ele>52.4</ele>
        <time>1970-01-01T02:28:59.000Z</time>
      </trkpt>
      <trkpt lat="42.309489" lon="-8.804811">
        <ele>52.6</ele>
        <time>1970-01-01T02:29:00.000Z</time>
      </trkpt>
      <trkpt lat="42.309478" lon="-8.804803">
        <ele>52.6</ele>
        <time>1970-01-01T02:29:01.000Z</time>
      </trkpt>
      <trkpt lat="42.309465" lon="-8.804795">
        <ele>52.6</ele>
        <time>1970-01-01T02:29:02.000Z</time>
      </trkpt>
      <trkpt lat="42.309452" lon="-8.804792">
        <ele>52.6</ele>
        <time>1970-01-01T02:29:03.000Z</time>
      </trkpt>
      <trkpt lat="42.309438" lon="-8.804782">
        <ele>52.6</ele>
        <time>1970-01-01T02:29:04.000Z</time>
      </trkpt>
      <trkpt lat="42.309424" lon="-8.804776">
        <ele>52.6</ele>
        <time>1970-01-01T02:29:05.000Z</time>
      </trkpt>
      <trkpt lat="42.309412" lon="-8.804772">
        <ele>52.6</ele>
        <time>1970-01-01T02:29:06.000Z</time>
      </trkpt>
      <trkpt lat="42.309402" lon="-8.804768">
        <ele>52.6</ele>
        <time>1970-01-01T02:29:07.000Z</time>
      </trkpt>
      <trkpt lat="42.309394" lon="-8.804764">
        <ele>52.8</ele>
        <time>1970-01-01T02:29:08.000Z</time>
      </trkpt>
      <trkpt lat="42.309386" lon="-8.804759">
        <ele>52.8</ele>
        <time>1970-01-01T02:29:09.000Z</time>
      </trkpt>
      <trkpt lat="42.309377" lon="-8.804759">
        <ele>52.8</ele>
        <time>1970-01-01T02:29:10.000Z</time>
      </trkpt>
      <trkpt lat="42.309364" lon="-8.804761">
        <ele>53</ele>
        <time>1970-01-01T02:29:11.000Z</time>
      </trkpt>
      <trkpt lat="42.309354" lon="-8.804756">
        <ele>53</ele>
        <time>1970-01-01T02:29:12.000Z</time>
      </trkpt>
      <trkpt lat="42.309342" lon="-8.804762">
        <ele>53.2</ele>
        <time>1970-01-01T02:29:13.000Z</time>
      </trkpt>
      <trkpt lat="42.309332" lon="-8.804767">
        <ele>53.2</ele>
        <time>1970-01-01T02:29:14.000Z</time>
      </trkpt>
      <trkpt lat="42.309323" lon="-8.804766">
        <ele>53.4</ele>
        <time>1970-01-01T02:29:15.000Z</time>
      </trkpt>
      <trkpt lat="42.309315" lon="-8.804757">
        <ele>53.8</ele>
        <time>1970-01-01T02:29:16.000Z</time>
      </trkpt>
      <trkpt lat="42.309308" lon="-8.804752">
        <ele>54.2</ele>
        <time>1970-01-01T02:29:17.000Z</time>
      </trkpt>
      <trkpt lat="42.309301" lon="-8.804744">
        <ele>54.6</ele>
        <time>1970-01-01T02:29:18.000Z</time>
      </trkpt>
      <trkpt lat="42.309295" lon="-8.80474">
        <ele>54.6</ele>
        <time>1970-01-01T02:29:19.000Z</time>
      </trkpt>
      <trkpt lat="42.309288" lon="-8.804734">
        <ele>54.8</ele>
        <time>1970-01-01T02:29:20.000Z</time>
      </trkpt>
      <trkpt lat="42.30928" lon="-8.804723">
        <ele>55</ele>
        <time>1970-01-01T02:29:21.000Z</time>
      </trkpt>
      <trkpt lat="42.309273" lon="-8.804716">
        <ele>55.4</ele>
        <time>1970-01-01T02:29:22.000Z</time>
      </trkpt>
      <trkpt lat="42.309265" lon="-8.804705">
        <ele>55.6</ele>
        <time>1970-01-01T02:29:23.000Z</time>
      </trkpt>
      <trkpt lat="42.309255" lon="-8.8047">
        <ele>56</ele>
        <time>1970-01-01T02:29:24.000Z</time>
      </trkpt>
      <trkpt lat="42.309247" lon="-8.804693">
        <ele>56</ele>
        <time>1970-01-01T02:29:25.000Z</time>
      </trkpt>
      <trkpt lat="42.30924" lon="-8.804687">
        <ele>56.2</ele>
        <time>1970-01-01T02:29:26.000Z</time>
      </trkpt>
      <trkpt lat="42.30923" lon="-8.804684">
        <ele>56.2</ele>
        <time>1970-01-01T02:29:27.000Z</time>
      </trkpt>
      <trkpt lat="42.30922" lon="-8.804676">
        <ele>56.2</ele>
        <time>1970-01-01T02:29:28.000Z</time>
      </trkpt>
      <trkpt lat="42.309211" lon="-8.804672">
        <ele>56</ele>
        <time>1970-01-01T02:29:29.000Z</time>
      </trkpt>
      <trkpt lat="42.309203" lon="-8.804666">
        <ele>56.2</ele>
        <time>1970-01-01T02:29:30.000Z</time>
      </trkpt>
      <trkpt lat="42.309194" lon="-8.804663">
        <ele>56.2</ele>
        <time>1970-01-01T02:29:31.000Z</time>
      </trkpt>
      <trkpt lat="42.309181" lon="-8.804661">
        <ele>56.2</ele>
        <time>1970-01-01T02:29:32.000Z</time>
      </trkpt>
      <trkpt lat="42.309171" lon="-8.804654">
        <ele>56.4</ele>
        <time>1970-01-01T02:29:33.000Z</time>
      </trkpt>
      <trkpt lat="42.309158" lon="-8.804649">
        <ele>56.8</ele>
        <time>1970-01-01T02:29:34.000Z</time>
      </trkpt>
      <trkpt lat="42.309144" lon="-8.804642">
        <ele>57</ele>
        <time>1970-01-01T02:29:35.000Z</time>
      </trkpt>
      <trkpt lat="42.309133" lon="-8.804634">
        <ele>57.2</ele>
        <time>1970-01-01T02:29:36.000Z</time>
      </trkpt>
      <trkpt lat="42.309124" lon="-8.804627">
        <ele>57.6</ele>
        <time>1970-01-01T02:29:37.000Z</time>
      </trkpt>
      <trkpt lat="42.309115" lon="-8.804618">
        <ele>57.6</ele>
        <time>1970-01-01T02:29:38.000Z</time>
      </trkpt>
      <trkpt lat="42.309105" lon="-8.804605">
        <ele>57.8</ele>
        <time>1970-01-01T02:29:39.000Z</time>
      </trkpt>
      <trkpt lat="42.309096" lon="-8.804598">
        <ele>58</ele>
        <time>1970-01-01T02:29:40.000Z</time>
      </trkpt>
      <trkpt lat="42.309084" lon="-8.804597">
        <ele>58</ele>
        <time>1970-01-01T02:29:41.000Z</time>
      </trkpt>
      <trkpt lat="42.309073" lon="-8.804595">
        <ele>58.2</ele>
        <time>1970-01-01T02:29:42.000Z</time>
      </trkpt>
      <trkpt lat="42.309062" lon="-8.804595">
        <ele>58.4</ele>
        <time>1970-01-01T02:29:43.000Z</time>
      </trkpt>
      <trkpt lat="42.309051" lon="-8.804597">
        <ele>58.4</ele>
        <time>1970-01-01T02:29:44.000Z</time>
      </trkpt>
      <trkpt lat="42.309042" lon="-8.804595">
        <ele>58.4</ele>
        <time>1970-01-01T02:29:45.000Z</time>
      </trkpt>
      <trkpt lat="42.309031" lon="-8.804593">
        <ele>58.6</ele>
        <time>1970-01-01T02:29:46.000Z</time>
      </trkpt>
      <trkpt lat="42.309023" lon="-8.80459">
        <ele>58.8</ele>
        <time>1970-01-01T02:29:47.000Z</time>
      </trkpt>
      <trkpt lat="42.309016" lon="-8.804585">
        <ele>58.8</ele>
        <time>1970-01-01T02:29:48.000Z</time>
      </trkpt>
      <trkpt lat="42.309009" lon="-8.804573">
        <ele>58.8</ele>
        <time>1970-01-01T02:29:49.000Z</time>
      </trkpt>
      <trkpt lat="42.309002" lon="-8.804566">
        <ele>59.2</ele>
        <time>1970-01-01T02:29:50.000Z</time>
      </trkpt>
      <trkpt lat="42.309" lon="-8.804556">
        <ele>59.2</ele>
        <time>1970-01-01T02:29:51.000Z</time>
      </trkpt>
      <trkpt lat="42.308994" lon="-8.80455">
        <ele>59.4</ele>
        <time>1970-01-01T02:29:52.000Z</time>
      </trkpt>
      <trkpt lat="42.308986" lon="-8.804548">
        <ele>60</ele>
        <time>1970-01-01T02:29:53.000Z</time>
      </trkpt>
      <trkpt lat="42.30898" lon="-8.804545">
        <ele>60.2</ele>
        <time>1970-01-01T02:29:54.000Z</time>
      </trkpt>
      <trkpt lat="42.308975" lon="-8.804544">
        <ele>60.4</ele>
        <time>1970-01-01T02:29:55.000Z</time>
      </trkpt>
      <trkpt lat="42.308968" lon="-8.804539">
        <ele>60.4</ele>
        <time>1970-01-01T02:29:56.000Z</time>
      </trkpt>
      <trkpt lat="42.308961" lon="-8.804538">
        <ele>60.6</ele>
        <time>1970-01-01T02:29:57.000Z</time>
      </trkpt>
      <trkpt lat="42.308956" lon="-8.804535">
        <ele>60.8</ele>
        <time>1970-01-01T02:29:58.000Z</time>
      </trkpt>
      <trkpt lat="42.308949" lon="-8.804533">
        <ele>60.8</ele>
        <time>1970-01-01T02:29:59.000Z</time>
      </trkpt>
      <trkpt lat="42.308945" lon="-8.804526">
        <ele>61</ele>
        <time>1970-01-01T02:30:00.000Z</time>
      </trkpt>
      <trkpt lat="42.308941" lon="-8.804516">
        <ele>61.2</ele>
        <time>1970-01-01T02:30:01.000Z</time>
      </trkpt>
      <trkpt lat="42.308937" lon="-8.804509">
        <ele>61.4</ele>
        <time>1970-01-01T02:30:02.000Z</time>
      </trkpt>
      <trkpt lat="42.308931" lon="-8.804503">
        <ele>61.6</ele>
        <time>1970-01-01T02:30:03.000Z</time>
      </trkpt>
      <trkpt lat="42.308921" lon="-8.804498">
        <ele>61.8</ele>
        <time>1970-01-01T02:30:04.000Z</time>
      </trkpt>
      <trkpt lat="42.308914" lon="-8.80449">
        <ele>62.2</ele>
        <time>1970-01-01T02:30:05.000Z</time>
      </trkpt>
      <trkpt lat="42.3089" lon="-8.804481">
        <ele>62.4</ele>
        <time>1970-01-01T02:30:06.000Z</time>
      </trkpt>
      <trkpt lat="42.308888" lon="-8.804465">
        <ele>62.6</ele>
        <time>1970-01-01T02:30:07.000Z</time>
      </trkpt>
      <trkpt lat="42.30888" lon="-8.804446">
        <ele>62.8</ele>
        <time>1970-01-01T02:30:08.000Z</time>
      </trkpt>
      <trkpt lat="42.308875" lon="-8.804434">
        <ele>62.8</ele>
        <time>1970-01-01T02:30:09.000Z</time>
      </trkpt>
      <trkpt lat="42.308867" lon="-8.804422">
        <ele>63</ele>
        <time>1970-01-01T02:30:10.000Z</time>
      </trkpt>
      <trkpt lat="42.308862" lon="-8.80441">
        <ele>63.2</ele>
        <time>1970-01-01T02:30:11.000Z</time>
      </trkpt>
      <trkpt lat="42.308854" lon="-8.804398">
        <ele>63.2</ele>
        <time>1970-01-01T02:30:12.000Z</time>
      </trkpt>
      <trkpt lat="42.308846" lon="-8.804389">
        <ele>63.2</ele>
        <time>1970-01-01T02:30:13.000Z</time>
      </trkpt>
      <trkpt lat="42.308842" lon="-8.804377">
        <ele>63.2</ele>
        <time>1970-01-01T02:30:14.000Z</time>
      </trkpt>
      <trkpt lat="42.308837" lon="-8.804361">
        <ele>63.4</ele>
        <time>1970-01-01T02:30:15.000Z</time>
      </trkpt>
      <trkpt lat="42.308834" lon="-8.804345">
        <ele>63.6</ele>
        <time>1970-01-01T02:30:16.000Z</time>
      </trkpt>
      <trkpt lat="42.308831" lon="-8.804329">
        <ele>63.8</ele>
        <time>1970-01-01T02:30:17.000Z</time>
      </trkpt>
      <trkpt lat="42.308824" lon="-8.804319">
        <ele>64</ele>
        <time>1970-01-01T02:30:18.000Z</time>
      </trkpt>
      <trkpt lat="42.308824" lon="-8.804302">
        <ele>64.2</ele>
        <time>1970-01-01T02:30:19.000Z</time>
      </trkpt>
      <trkpt lat="42.308819" lon="-8.804287">
        <ele>64.4</ele>
        <time>1970-01-01T02:30:20.000Z</time>
      </trkpt>
      <trkpt lat="42.308815" lon="-8.804276">
        <ele>64.6</ele>
        <time>1970-01-01T02:30:21.000Z</time>
      </trkpt>
      <trkpt lat="42.308809" lon="-8.804262">
        <ele>65</ele>
        <time>1970-01-01T02:30:22.000Z</time>
      </trkpt>
      <trkpt lat="42.308805" lon="-8.804247">
        <ele>65</ele>
        <time>1970-01-01T02:30:23.000Z</time>
      </trkpt>
      <trkpt lat="42.3088" lon="-8.804232">
        <ele>65.2</ele>
        <time>1970-01-01T02:30:24.000Z</time>
      </trkpt>
      <trkpt lat="42.308798" lon="-8.804218">
        <ele>65.2</ele>
        <time>1970-01-01T02:30:25.000Z</time>
      </trkpt>
      <trkpt lat="42.308799" lon="-8.804203">
        <ele>65.2</ele>
        <time>1970-01-01T02:30:26.000Z</time>
      </trkpt>
      <trkpt lat="42.308802" lon="-8.804188">
        <ele>65.2</ele>
        <time>1970-01-01T02:30:27.000Z</time>
      </trkpt>
      <trkpt lat="42.308802" lon="-8.804176">
        <ele>65.4</ele>
        <time>1970-01-01T02:30:28.000Z</time>
      </trkpt>
      <trkpt lat="42.30881" lon="-8.804151">
        <ele>65.6</ele>
        <time>1970-01-01T02:30:29.000Z</time>
      </trkpt>
      <trkpt lat="42.308814" lon="-8.804136">
        <ele>65.8</ele>
        <time>1970-01-01T02:30:30.000Z</time>
      </trkpt>
      <trkpt lat="42.308817" lon="-8.804124">
        <ele>66.2</ele>
        <time>1970-01-01T02:30:31.000Z</time>
      </trkpt>
      <trkpt lat="42.308821" lon="-8.804112">
        <ele>66.4</ele>
        <time>1970-01-01T02:30:32.000Z</time>
      </trkpt>
      <trkpt lat="42.308834" lon="-8.804096">
        <ele>66.6</ele>
        <time>1970-01-01T02:30:33.000Z</time>
      </trkpt>
      <trkpt lat="42.308841" lon="-8.804084">
        <ele>66.6</ele>
        <time>1970-01-01T02:30:34.000Z</time>
      </trkpt>
      <trkpt lat="42.308849" lon="-8.804073">
        <ele>66.8</ele>
        <time>1970-01-01T02:30:35.000Z</time>
      </trkpt>
      <trkpt lat="42.308861" lon="-8.804066">
        <ele>67</ele>
        <time>1970-01-01T02:30:36.000Z</time>
      </trkpt>
      <trkpt lat="42.308874" lon="-8.804057">
        <ele>67.2</ele>
        <time>1970-01-01T02:30:37.000Z</time>
      </trkpt>
      <trkpt lat="42.308888" lon="-8.804046">
        <ele>67.4</ele>
        <time>1970-01-01T02:30:38.000Z</time>
      </trkpt>
      <trkpt lat="42.308905" lon="-8.804033">
        <ele>67.6</ele>
        <time>1970-01-01T02:30:39.000Z</time>
      </trkpt>
      <trkpt lat="42.308917" lon="-8.804025">
        <ele>67.6</ele>
        <time>1970-01-01T02:30:40.000Z</time>
      </trkpt>
      <trkpt lat="42.30892" lon="-8.804017">
        <ele>67.8</ele>
        <time>1970-01-01T02:30:41.000Z</time>
      </trkpt>
      <trkpt lat="42.308925" lon="-8.804007">
        <ele>67.8</ele>
        <time>1970-01-01T02:30:42.000Z</time>
      </trkpt>
      <trkpt lat="42.308934" lon="-8.803991">
        <ele>68.4</ele>
        <time>1970-01-01T02:30:43.000Z</time>
      </trkpt>
      <trkpt lat="42.308941" lon="-8.803979">
        <ele>68.6</ele>
        <time>1970-01-01T02:30:44.000Z</time>
      </trkpt>
      <trkpt lat="42.308949" lon="-8.803971">
        <ele>68.8</ele>
        <time>1970-01-01T02:30:45.000Z</time>
      </trkpt>
      <trkpt lat="42.30895" lon="-8.80396">
        <ele>68.8</ele>
        <time>1970-01-01T02:30:46.000Z</time>
      </trkpt>
      <trkpt lat="42.308956" lon="-8.803947">
        <ele>69</ele>
        <time>1970-01-01T02:30:47.000Z</time>
      </trkpt>
      <trkpt lat="42.30896" lon="-8.803939">
        <ele>69.2</ele>
        <time>1970-01-01T02:30:48.000Z</time>
      </trkpt>
      <trkpt lat="42.308965" lon="-8.80393">
        <ele>69.4</ele>
        <time>1970-01-01T02:30:49.000Z</time>
      </trkpt>
      <trkpt lat="42.308968" lon="-8.803924">
        <ele>69.6</ele>
        <time>1970-01-01T02:30:50.000Z</time>
      </trkpt>
      <trkpt lat="42.308972" lon="-8.803913">
        <ele>69.6</ele>
        <time>1970-01-01T02:30:51.000Z</time>
      </trkpt>
      <trkpt lat="42.308976" lon="-8.803903">
        <ele>69.4</ele>
        <time>1970-01-01T02:30:52.000Z</time>
      </trkpt>
      <trkpt lat="42.308981" lon="-8.803895">
        <ele>69.4</ele>
        <time>1970-01-01T02:30:53.000Z</time>
      </trkpt>
      <trkpt lat="42.308988" lon="-8.803881">
        <ele>69.8</ele>
        <time>1970-01-01T02:30:54.000Z</time>
      </trkpt>
      <trkpt lat="42.308992" lon="-8.803868">
        <ele>69.8</ele>
        <time>1970-01-01T02:30:55.000Z</time>
      </trkpt>
      <trkpt lat="42.308999" lon="-8.803855">
        <ele>70</ele>
        <time>1970-01-01T02:30:56.000Z</time>
      </trkpt>
      <trkpt lat="42.309009" lon="-8.803837">
        <ele>70.2</ele>
        <time>1970-01-01T02:30:57.000Z</time>
      </trkpt>
      <trkpt lat="42.309013" lon="-8.803826">
        <ele>70.2</ele>
        <time>1970-01-01T02:30:58.000Z</time>
      </trkpt>
      <trkpt lat="42.309014" lon="-8.803814">
        <ele>70.4</ele>
        <time>1970-01-01T02:30:59.000Z</time>
      </trkpt>
      <trkpt lat="42.309015" lon="-8.803793">
        <ele>70.8</ele>
        <time>1970-01-01T02:31:00.000Z</time>
      </trkpt>
      <trkpt lat="42.309019" lon="-8.803766">
        <ele>71</ele>
        <time>1970-01-01T02:31:01.000Z</time>
      </trkpt>
      <trkpt lat="42.309028" lon="-8.803742">
        <ele>71</ele>
        <time>1970-01-01T02:31:02.000Z</time>
      </trkpt>
      <trkpt lat="42.309037" lon="-8.803717">
        <ele>71.2</ele>
        <time>1970-01-01T02:31:03.000Z</time>
      </trkpt>
      <trkpt lat="42.309045" lon="-8.803699">
        <ele>71.2</ele>
        <time>1970-01-01T02:31:04.000Z</time>
      </trkpt>
      <trkpt lat="42.309054" lon="-8.803688">
        <ele>71.2</ele>
        <time>1970-01-01T02:31:05.000Z</time>
      </trkpt>
      <trkpt lat="42.309063" lon="-8.803675">
        <ele>71.4</ele>
        <time>1970-01-01T02:31:06.000Z</time>
      </trkpt>
      <trkpt lat="42.309075" lon="-8.80366">
        <ele>71.4</ele>
        <time>1970-01-01T02:31:07.000Z</time>
      </trkpt>
      <trkpt lat="42.309085" lon="-8.803648">
        <ele>71.6</ele>
        <time>1970-01-01T02:31:08.000Z</time>
      </trkpt>
      <trkpt lat="42.309091" lon="-8.803633">
        <ele>71.6</ele>
        <time>1970-01-01T02:31:09.000Z</time>
      </trkpt>
      <trkpt lat="42.309095" lon="-8.803617">
        <ele>71.6</ele>
        <time>1970-01-01T02:31:10.000Z</time>
      </trkpt>
      <trkpt lat="42.3091" lon="-8.8036">
        <ele>71.8</ele>
        <time>1970-01-01T02:31:11.000Z</time>
      </trkpt>
      <trkpt lat="42.309106" lon="-8.803586">
        <ele>71.6</ele>
        <time>1970-01-01T02:31:12.000Z</time>
      </trkpt>
      <trkpt lat="42.309104" lon="-8.803578">
        <ele>71.6</ele>
        <time>1970-01-01T02:31:13.000Z</time>
      </trkpt>
      <trkpt lat="42.3091" lon="-8.80357">
        <ele>71.8</ele>
        <time>1970-01-01T02:31:14.000Z</time>
      </trkpt>
      <trkpt lat="42.309093" lon="-8.803565">
        <ele>71.8</ele>
        <time>1970-01-01T02:31:15.000Z</time>
      </trkpt>
      <trkpt lat="42.309082" lon="-8.80356">
        <ele>71.6</ele>
        <time>1970-01-01T02:31:16.000Z</time>
      </trkpt>
      <trkpt lat="42.309072" lon="-8.80356">
        <ele>71.4</ele>
        <time>1970-01-01T02:31:17.000Z</time>
      </trkpt>
      <trkpt lat="42.30906" lon="-8.803563">
        <ele>71.4</ele>
        <time>1970-01-01T02:31:18.000Z</time>
      </trkpt>
      <trkpt lat="42.309045" lon="-8.803564">
        <ele>71.2</ele>
        <time>1970-01-01T02:31:19.000Z</time>
      </trkpt>
      <trkpt lat="42.30903" lon="-8.803569">
        <ele>71</ele>
        <time>1970-01-01T02:31:20.000Z</time>
      </trkpt>
      <trkpt lat="42.30901" lon="-8.803572">
        <ele>70.8</ele>
        <time>1970-01-01T02:31:21.000Z</time>
      </trkpt>
      <trkpt lat="42.308988" lon="-8.803581">
        <ele>70.2</ele>
        <time>1970-01-01T02:31:22.000Z</time>
      </trkpt>
      <trkpt lat="42.308976" lon="-8.80359">
        <ele>70</ele>
        <time>1970-01-01T02:31:23.000Z</time>
      </trkpt>
      <trkpt lat="42.308967" lon="-8.8036">
        <ele>69.6</ele>
        <time>1970-01-01T02:31:24.000Z</time>
      </trkpt>
      <trkpt lat="42.308953" lon="-8.803613">
        <ele>69.2</ele>
        <time>1970-01-01T02:31:25.000Z</time>
      </trkpt>
      <trkpt lat="42.308944" lon="-8.803623">
        <ele>69.2</ele>
        <time>1970-01-01T02:31:26.000Z</time>
      </trkpt>
      <trkpt lat="42.308934" lon="-8.803637">
        <ele>69</ele>
        <time>1970-01-01T02:31:27.000Z</time>
      </trkpt>
      <trkpt lat="42.308919" lon="-8.803645">
        <ele>68.8</ele>
        <time>1970-01-01T02:31:28.000Z</time>
      </trkpt>
      <trkpt lat="42.308907" lon="-8.803657">
        <ele>68.8</ele>
        <time>1970-01-01T02:31:29.000Z</time>
      </trkpt>
      <trkpt lat="42.308894" lon="-8.803672">
        <ele>68.6</ele>
        <time>1970-01-01T02:31:30.000Z</time>
      </trkpt>
      <trkpt lat="42.308885" lon="-8.803686">
        <ele>68.6</ele>
        <time>1970-01-01T02:31:31.000Z</time>
      </trkpt>
      <trkpt lat="42.308869" lon="-8.803702">
        <ele>68.6</ele>
        <time>1970-01-01T02:31:32.000Z</time>
      </trkpt>
      <trkpt lat="42.308856" lon="-8.803715">
        <ele>68.6</ele>
        <time>1970-01-01T02:31:33.000Z</time>
      </trkpt>
      <trkpt lat="42.308842" lon="-8.803735">
        <ele>68.2</ele>
        <time>1970-01-01T02:31:34.000Z</time>
      </trkpt>
      <trkpt lat="42.308829" lon="-8.803754">
        <ele>67.8</ele>
        <time>1970-01-01T02:31:35.000Z</time>
      </trkpt>
      <trkpt lat="42.308817" lon="-8.803762">
        <ele>67.4</ele>
        <time>1970-01-01T02:31:36.000Z</time>
      </trkpt>
      <trkpt lat="42.308804" lon="-8.803773">
        <ele>67.2</ele>
        <time>1970-01-01T02:31:37.000Z</time>
      </trkpt>
      <trkpt lat="42.308787" lon="-8.803786">
        <ele>67.2</ele>
        <time>1970-01-01T02:31:38.000Z</time>
      </trkpt>
      <trkpt lat="42.308749" lon="-8.8038">
        <ele>67.2</ele>
        <time>1970-01-01T02:31:39.000Z</time>
      </trkpt>
      <trkpt lat="42.308736" lon="-8.803811">
        <ele>67.2</ele>
        <time>1970-01-01T02:31:40.000Z</time>
      </trkpt>
      <trkpt lat="42.308722" lon="-8.803823">
        <ele>67.2</ele>
        <time>1970-01-01T02:31:41.000Z</time>
      </trkpt>
      <trkpt lat="42.308713" lon="-8.803834">
        <ele>67.2</ele>
        <time>1970-01-01T02:31:42.000Z</time>
      </trkpt>
      <trkpt lat="42.308705" lon="-8.80384">
        <ele>67.4</ele>
        <time>1970-01-01T02:31:43.000Z</time>
      </trkpt>
      <trkpt lat="42.308692" lon="-8.803846">
        <ele>67.2</ele>
        <time>1970-01-01T02:31:44.000Z</time>
      </trkpt>
      <trkpt lat="42.308682" lon="-8.803846">
        <ele>67</ele>
        <time>1970-01-01T02:31:45.000Z</time>
      </trkpt>
      <trkpt lat="42.308666" lon="-8.803843">
        <ele>67</ele>
        <time>1970-01-01T02:31:46.000Z</time>
      </trkpt>
      <trkpt lat="42.308656" lon="-8.803842">
        <ele>67</ele>
        <time>1970-01-01T02:31:47.000Z</time>
      </trkpt>
      <trkpt lat="42.308647" lon="-8.803842">
        <ele>66.8</ele>
        <time>1970-01-01T02:31:48.000Z</time>
      </trkpt>
      <trkpt lat="42.308642" lon="-8.803845">
        <ele>66.4</ele>
        <time>1970-01-01T02:31:49.000Z</time>
      </trkpt>
      <trkpt lat="42.308636" lon="-8.803848">
        <ele>65.8</ele>
        <time>1970-01-01T02:31:50.000Z</time>
      </trkpt>
      <trkpt lat="42.308629" lon="-8.803853">
        <ele>65.6</ele>
        <time>1970-01-01T02:31:51.000Z</time>
      </trkpt>
      <trkpt lat="42.308623" lon="-8.803857">
        <ele>65.2</ele>
        <time>1970-01-01T02:31:52.000Z</time>
      </trkpt>
      <trkpt lat="42.308617" lon="-8.803863">
        <ele>65</ele>
        <time>1970-01-01T02:31:53.000Z</time>
      </trkpt>
      <trkpt lat="42.308609" lon="-8.80387">
        <ele>65</ele>
        <time>1970-01-01T02:31:54.000Z</time>
      </trkpt>
      <trkpt lat="42.308599" lon="-8.803878">
        <ele>65</ele>
        <time>1970-01-01T02:31:55.000Z</time>
      </trkpt>
      <trkpt lat="42.308594" lon="-8.803881">
        <ele>65</ele>
        <time>1970-01-01T02:31:56.000Z</time>
      </trkpt>
      <trkpt lat="42.308588" lon="-8.803884">
        <ele>65</ele>
        <time>1970-01-01T02:31:57.000Z</time>
      </trkpt>
      <trkpt lat="42.308582" lon="-8.803887">
        <ele>65</ele>
        <time>1970-01-01T02:31:58.000Z</time>
      </trkpt>
      <trkpt lat="42.308575" lon="-8.803893">
        <ele>65.2</ele>
        <time>1970-01-01T02:31:59.000Z</time>
      </trkpt>
      <trkpt lat="42.30857" lon="-8.803899">
        <ele>65.4</ele>
        <time>1970-01-01T02:32:00.000Z</time>
      </trkpt>
      <trkpt lat="42.308563" lon="-8.803908">
        <ele>65.2</ele>
        <time>1970-01-01T02:32:01.000Z</time>
      </trkpt>
      <trkpt lat="42.308556" lon="-8.80392">
        <ele>65.2</ele>
        <time>1970-01-01T02:32:02.000Z</time>
      </trkpt>
      <trkpt lat="42.30855" lon="-8.803933">
        <ele>65.2</ele>
        <time>1970-01-01T02:32:03.000Z</time>
      </trkpt>
      <trkpt lat="42.308543" lon="-8.80394">
        <ele>65.4</ele>
        <time>1970-01-01T02:32:04.000Z</time>
      </trkpt>
      <trkpt lat="42.308535" lon="-8.803947">
        <ele>65.4</ele>
        <time>1970-01-01T02:32:05.000Z</time>
      </trkpt>
      <trkpt lat="42.308527" lon="-8.803957">
        <ele>64.8</ele>
        <time>1970-01-01T02:32:06.000Z</time>
      </trkpt>
      <trkpt lat="42.308517" lon="-8.803965">
        <ele>64.6</ele>
        <time>1970-01-01T02:32:07.000Z</time>
      </trkpt>
      <trkpt lat="42.308511" lon="-8.803969">
        <ele>64.4</ele>
        <time>1970-01-01T02:32:08.000Z</time>
      </trkpt>
      <trkpt lat="42.308507" lon="-8.803973">
        <ele>64.4</ele>
        <time>1970-01-01T02:32:09.000Z</time>
      </trkpt>
      <trkpt lat="42.308502" lon="-8.803977">
        <ele>64.2</ele>
        <time>1970-01-01T02:32:10.000Z</time>
      </trkpt>
      <trkpt lat="42.308495" lon="-8.803984">
        <ele>64.2</ele>
        <time>1970-01-01T02:32:11.000Z</time>
      </trkpt>
      <trkpt lat="42.308492" lon="-8.803992">
        <ele>64.2</ele>
        <time>1970-01-01T02:32:12.000Z</time>
      </trkpt>
      <trkpt lat="42.308481" lon="-8.804013">
        <ele>64.4</ele>
        <time>1970-01-01T02:32:13.000Z</time>
      </trkpt>
      <trkpt lat="42.308474" lon="-8.804025">
        <ele>64.6</ele>
        <time>1970-01-01T02:32:14.000Z</time>
      </trkpt>
      <trkpt lat="42.308467" lon="-8.804035">
        <ele>64.6</ele>
        <time>1970-01-01T02:32:15.000Z</time>
      </trkpt>
      <trkpt lat="42.308456" lon="-8.804047">
        <ele>64.6</ele>
        <time>1970-01-01T02:32:16.000Z</time>
      </trkpt>
      <trkpt lat="42.308445" lon="-8.804062">
        <ele>64.6</ele>
        <time>1970-01-01T02:32:17.000Z</time>
      </trkpt>
      <trkpt lat="42.308433" lon="-8.804078">
        <ele>64.6</ele>
        <time>1970-01-01T02:32:18.000Z</time>
      </trkpt>
      <trkpt lat="42.308426" lon="-8.804087">
        <ele>64.6</ele>
        <time>1970-01-01T02:32:19.000Z</time>
      </trkpt>
      <trkpt lat="42.308419" lon="-8.804094">
        <ele>65</ele>
        <time>1970-01-01T02:32:20.000Z</time>
      </trkpt>
      <trkpt lat="42.308394" lon="-8.804114">
        <ele>65</ele>
        <time>1970-01-01T02:32:21.000Z</time>
      </trkpt>
      <trkpt lat="42.308385" lon="-8.804121">
        <ele>65</ele>
        <time>1970-01-01T02:32:22.000Z</time>
      </trkpt>
      <trkpt lat="42.308366" lon="-8.804136">
        <ele>65</ele>
        <time>1970-01-01T02:32:23.000Z</time>
      </trkpt>
      <trkpt lat="42.308354" lon="-8.804143">
        <ele>65</ele>
        <time>1970-01-01T02:32:24.000Z</time>
      </trkpt>
      <trkpt lat="42.308345" lon="-8.804152">
        <ele>65</ele>
        <time>1970-01-01T02:32:25.000Z</time>
      </trkpt>
      <trkpt lat="42.308336" lon="-8.804161">
        <ele>65.2</ele>
        <time>1970-01-01T02:32:26.000Z</time>
      </trkpt>
      <trkpt lat="42.308327" lon="-8.804173">
        <ele>65.2</ele>
        <time>1970-01-01T02:32:27.000Z</time>
      </trkpt>
      <trkpt lat="42.30832" lon="-8.804184">
        <ele>65.2</ele>
        <time>1970-01-01T02:32:28.000Z</time>
      </trkpt>
      <trkpt lat="42.308313" lon="-8.80419">
        <ele>65.2</ele>
        <time>1970-01-01T02:32:29.000Z</time>
      </trkpt>
      <trkpt lat="42.308307" lon="-8.8042">
        <ele>65.2</ele>
        <time>1970-01-01T02:32:30.000Z</time>
      </trkpt>
      <trkpt lat="42.308299" lon="-8.804213">
        <ele>65.2</ele>
        <time>1970-01-01T02:32:31.000Z</time>
      </trkpt>
      <trkpt lat="42.30829" lon="-8.804226">
        <ele>65.2</ele>
        <time>1970-01-01T02:32:32.000Z</time>
      </trkpt>
      <trkpt lat="42.30828" lon="-8.804237">
        <ele>65.2</ele>
        <time>1970-01-01T02:32:33.000Z</time>
      </trkpt>
      <trkpt lat="42.308273" lon="-8.804244">
        <ele>65.2</ele>
        <time>1970-01-01T02:32:34.000Z</time>
      </trkpt>
      <trkpt lat="42.308264" lon="-8.804252">
        <ele>65.2</ele>
        <time>1970-01-01T02:32:35.000Z</time>
      </trkpt>
      <trkpt lat="42.308255" lon="-8.804262">
        <ele>65</ele>
        <time>1970-01-01T02:32:36.000Z</time>
      </trkpt>
      <trkpt lat="42.308245" lon="-8.804269">
        <ele>65.2</ele>
        <time>1970-01-01T02:32:37.000Z</time>
      </trkpt>
      <trkpt lat="42.308229" lon="-8.804284">
        <ele>65.4</ele>
        <time>1970-01-01T02:32:38.000Z</time>
      </trkpt>
      <trkpt lat="42.308213" lon="-8.804297">
        <ele>65.4</ele>
        <time>1970-01-01T02:32:39.000Z</time>
      </trkpt>
      <trkpt lat="42.308202" lon="-8.804307">
        <ele>65.6</ele>
        <time>1970-01-01T02:32:40.000Z</time>
      </trkpt>
      <trkpt lat="42.308193" lon="-8.804319">
        <ele>65.6</ele>
        <time>1970-01-01T02:32:41.000Z</time>
      </trkpt>
      <trkpt lat="42.308185" lon="-8.804335">
        <ele>65.8</ele>
        <time>1970-01-01T02:32:42.000Z</time>
      </trkpt>
      <trkpt lat="42.308177" lon="-8.804349">
        <ele>66</ele>
        <time>1970-01-01T02:32:43.000Z</time>
      </trkpt>
      <trkpt lat="42.308165" lon="-8.804362">
        <ele>66.2</ele>
        <time>1970-01-01T02:32:44.000Z</time>
      </trkpt>
      <trkpt lat="42.308153" lon="-8.804372">
        <ele>66.2</ele>
        <time>1970-01-01T02:32:45.000Z</time>
      </trkpt>
      <trkpt lat="42.308142" lon="-8.804379">
        <ele>66</ele>
        <time>1970-01-01T02:32:46.000Z</time>
      </trkpt>
      <trkpt lat="42.30813" lon="-8.804387">
        <ele>66</ele>
        <time>1970-01-01T02:32:47.000Z</time>
      </trkpt>
      <trkpt lat="42.308117" lon="-8.804395">
        <ele>66.2</ele>
        <time>1970-01-01T02:32:48.000Z</time>
      </trkpt>
      <trkpt lat="42.308108" lon="-8.804398">
        <ele>66.2</ele>
        <time>1970-01-01T02:32:49.000Z</time>
      </trkpt>
      <trkpt lat="42.3081" lon="-8.804403">
        <ele>66.4</ele>
        <time>1970-01-01T02:32:50.000Z</time>
      </trkpt>
      <trkpt lat="42.308093" lon="-8.804409">
        <ele>66.4</ele>
        <time>1970-01-01T02:32:51.000Z</time>
      </trkpt>
      <trkpt lat="42.308085" lon="-8.804419">
        <ele>66.4</ele>
        <time>1970-01-01T02:32:52.000Z</time>
      </trkpt>
      <trkpt lat="42.308079" lon="-8.804429">
        <ele>66.6</ele>
        <time>1970-01-01T02:32:53.000Z</time>
      </trkpt>
      <trkpt lat="42.308071" lon="-8.804444">
        <ele>66.4</ele>
        <time>1970-01-01T02:32:54.000Z</time>
      </trkpt>
      <trkpt lat="42.308065" lon="-8.804453">
        <ele>66.4</ele>
        <time>1970-01-01T02:32:55.000Z</time>
      </trkpt>
      <trkpt lat="42.30806" lon="-8.804464">
        <ele>66.2</ele>
        <time>1970-01-01T02:32:56.000Z</time>
      </trkpt>
      <trkpt lat="42.308054" lon="-8.804475">
        <ele>66.2</ele>
        <time>1970-01-01T02:32:57.000Z</time>
      </trkpt>
      <trkpt lat="42.308047" lon="-8.804488">
        <ele>66</ele>
        <time>1970-01-01T02:32:58.000Z</time>
      </trkpt>
      <trkpt lat="42.308038" lon="-8.804503">
        <ele>66</ele>
        <time>1970-01-01T02:32:59.000Z</time>
      </trkpt>
      <trkpt lat="42.308029" lon="-8.804517">
        <ele>66</ele>
        <time>1970-01-01T02:33:00.000Z</time>
      </trkpt>
      <trkpt lat="42.308022" lon="-8.804533">
        <ele>66</ele>
        <time>1970-01-01T02:33:01.000Z</time>
      </trkpt>
      <trkpt lat="42.308016" lon="-8.804554">
        <ele>66</ele>
        <time>1970-01-01T02:33:02.000Z</time>
      </trkpt>
      <trkpt lat="42.308006" lon="-8.804575">
        <ele>66</ele>
        <time>1970-01-01T02:33:03.000Z</time>
      </trkpt>
      <trkpt lat="42.307993" lon="-8.804587">
        <ele>65.6</ele>
        <time>1970-01-01T02:33:04.000Z</time>
      </trkpt>
      <trkpt lat="42.30798" lon="-8.804593">
        <ele>65.8</ele>
        <time>1970-01-01T02:33:05.000Z</time>
      </trkpt>
      <trkpt lat="42.307968" lon="-8.804599">
        <ele>66</ele>
        <time>1970-01-01T02:33:06.000Z</time>
      </trkpt>
      <trkpt lat="42.307953" lon="-8.804606">
        <ele>66</ele>
        <time>1970-01-01T02:33:07.000Z</time>
      </trkpt>
      <trkpt lat="42.307945" lon="-8.804611">
        <ele>66.2</ele>
        <time>1970-01-01T02:33:08.000Z</time>
      </trkpt>
      <trkpt lat="42.307935" lon="-8.804616">
        <ele>65.6</ele>
        <time>1970-01-01T02:33:09.000Z</time>
      </trkpt>
      <trkpt lat="42.307922" lon="-8.804624">
        <ele>65.4</ele>
        <time>1970-01-01T02:33:10.000Z</time>
      </trkpt>
      <trkpt lat="42.307909" lon="-8.804629">
        <ele>65.2</ele>
        <time>1970-01-01T02:33:11.000Z</time>
      </trkpt>
      <trkpt lat="42.307894" lon="-8.804635">
        <ele>65.2</ele>
        <time>1970-01-01T02:33:12.000Z</time>
      </trkpt>
      <trkpt lat="42.307877" lon="-8.804641">
        <ele>65</ele>
        <time>1970-01-01T02:33:13.000Z</time>
      </trkpt>
      <trkpt lat="42.30786" lon="-8.804645">
        <ele>65</ele>
        <time>1970-01-01T02:33:14.000Z</time>
      </trkpt>
      <trkpt lat="42.307845" lon="-8.80465">
        <ele>65</ele>
        <time>1970-01-01T02:33:15.000Z</time>
      </trkpt>
      <trkpt lat="42.307826" lon="-8.804657">
        <ele>65</ele>
        <time>1970-01-01T02:33:16.000Z</time>
      </trkpt>
      <trkpt lat="42.307809" lon="-8.804669">
        <ele>65.2</ele>
        <time>1970-01-01T02:33:17.000Z</time>
      </trkpt>
      <trkpt lat="42.307795" lon="-8.804678">
        <ele>65.2</ele>
        <time>1970-01-01T02:33:18.000Z</time>
      </trkpt>
      <trkpt lat="42.307782" lon="-8.804687">
        <ele>65.2</ele>
        <time>1970-01-01T02:33:19.000Z</time>
      </trkpt>
      <trkpt lat="42.307772" lon="-8.804697">
        <ele>65.2</ele>
        <time>1970-01-01T02:33:20.000Z</time>
      </trkpt>
      <trkpt lat="42.307761" lon="-8.804712">
        <ele>65</ele>
        <time>1970-01-01T02:33:21.000Z</time>
      </trkpt>
      <trkpt lat="42.307753" lon="-8.804723">
        <ele>64.6</ele>
        <time>1970-01-01T02:33:22.000Z</time>
      </trkpt>
      <trkpt lat="42.307746" lon="-8.804736">
        <ele>65.2</ele>
        <time>1970-01-01T02:33:23.000Z</time>
      </trkpt>
      <trkpt lat="42.307735" lon="-8.804746">
        <ele>65.2</ele>
        <time>1970-01-01T02:33:24.000Z</time>
      </trkpt>
      <trkpt lat="42.307724" lon="-8.804758">
        <ele>65.2</ele>
        <time>1970-01-01T02:33:25.000Z</time>
      </trkpt>
      <trkpt lat="42.30771" lon="-8.804764">
        <ele>65.2</ele>
        <time>1970-01-01T02:33:26.000Z</time>
      </trkpt>
      <trkpt lat="42.307695" lon="-8.804768">
        <ele>65</ele>
        <time>1970-01-01T02:33:27.000Z</time>
      </trkpt>
      <trkpt lat="42.307681" lon="-8.804771">
        <ele>64.8</ele>
        <time>1970-01-01T02:33:28.000Z</time>
      </trkpt>
      <trkpt lat="42.307668" lon="-8.804775">
        <ele>64.8</ele>
        <time>1970-01-01T02:33:29.000Z</time>
      </trkpt>
      <trkpt lat="42.307658" lon="-8.804779">
        <ele>64.6</ele>
        <time>1970-01-01T02:33:30.000Z</time>
      </trkpt>
      <trkpt lat="42.307652" lon="-8.804782">
        <ele>64.4</ele>
        <time>1970-01-01T02:33:31.000Z</time>
      </trkpt>
      <trkpt lat="42.307646" lon="-8.804786">
        <ele>64.4</ele>
        <time>1970-01-01T02:33:32.000Z</time>
      </trkpt>
      <trkpt lat="42.307639" lon="-8.80479">
        <ele>64.4</ele>
        <time>1970-01-01T02:33:33.000Z</time>
      </trkpt>
      <trkpt lat="42.307632" lon="-8.804796">
        <ele>64.2</ele>
        <time>1970-01-01T02:33:34.000Z</time>
      </trkpt>
      <trkpt lat="42.307627" lon="-8.804801">
        <ele>64.2</ele>
        <time>1970-01-01T02:33:35.000Z</time>
      </trkpt>
      <trkpt lat="42.307616" lon="-8.80481">
        <ele>64.4</ele>
        <time>1970-01-01T02:33:36.000Z</time>
      </trkpt>
      <trkpt lat="42.307605" lon="-8.804823">
        <ele>64.4</ele>
        <time>1970-01-01T02:33:37.000Z</time>
      </trkpt>
      <trkpt lat="42.307596" lon="-8.804838">
        <ele>64.4</ele>
        <time>1970-01-01T02:33:38.000Z</time>
      </trkpt>
      <trkpt lat="42.307587" lon="-8.804853">
        <ele>64.6</ele>
        <time>1970-01-01T02:33:39.000Z</time>
      </trkpt>
      <trkpt lat="42.307577" lon="-8.804862">
        <ele>64.6</ele>
        <time>1970-01-01T02:33:40.000Z</time>
      </trkpt>
      <trkpt lat="42.307565" lon="-8.804873">
        <ele>64.8</ele>
        <time>1970-01-01T02:33:41.000Z</time>
      </trkpt>
      <trkpt lat="42.307555" lon="-8.804881">
        <ele>65</ele>
        <time>1970-01-01T02:33:42.000Z</time>
      </trkpt>
      <trkpt lat="42.307542" lon="-8.804891">
        <ele>65</ele>
        <time>1970-01-01T02:33:43.000Z</time>
      </trkpt>
      <trkpt lat="42.307528" lon="-8.804902">
        <ele>65.2</ele>
        <time>1970-01-01T02:33:44.000Z</time>
      </trkpt>
      <trkpt lat="42.307518" lon="-8.804918">
        <ele>65.2</ele>
        <time>1970-01-01T02:33:45.000Z</time>
      </trkpt>
      <trkpt lat="42.307511" lon="-8.804936">
        <ele>65.2</ele>
        <time>1970-01-01T02:33:46.000Z</time>
      </trkpt>
      <trkpt lat="42.307504" lon="-8.804952">
        <ele>65.4</ele>
        <time>1970-01-01T02:33:47.000Z</time>
      </trkpt>
      <trkpt lat="42.307499" lon="-8.804969">
        <ele>65.2</ele>
        <time>1970-01-01T02:33:48.000Z</time>
      </trkpt>
      <trkpt lat="42.307494" lon="-8.804983">
        <ele>65.2</ele>
        <time>1970-01-01T02:33:49.000Z</time>
      </trkpt>
      <trkpt lat="42.307492" lon="-8.804994">
        <ele>65</ele>
        <time>1970-01-01T02:33:50.000Z</time>
      </trkpt>
      <trkpt lat="42.30749" lon="-8.805007">
        <ele>64.8</ele>
        <time>1970-01-01T02:33:51.000Z</time>
      </trkpt>
      <trkpt lat="42.307485" lon="-8.805023">
        <ele>64.6</ele>
        <time>1970-01-01T02:33:52.000Z</time>
      </trkpt>
      <trkpt lat="42.307481" lon="-8.80504">
        <ele>64.6</ele>
        <time>1970-01-01T02:33:53.000Z</time>
      </trkpt>
      <trkpt lat="42.307474" lon="-8.805057">
        <ele>64.6</ele>
        <time>1970-01-01T02:33:54.000Z</time>
      </trkpt>
      <trkpt lat="42.30747" lon="-8.805072">
        <ele>64.6</ele>
        <time>1970-01-01T02:33:55.000Z</time>
      </trkpt>
      <trkpt lat="42.307466" lon="-8.805087">
        <ele>64.8</ele>
        <time>1970-01-01T02:33:56.000Z</time>
      </trkpt>
      <trkpt lat="42.307462" lon="-8.805103">
        <ele>65</ele>
        <time>1970-01-01T02:33:57.000Z</time>
      </trkpt>
      <trkpt lat="42.307459" lon="-8.805118">
        <ele>65</ele>
        <time>1970-01-01T02:33:58.000Z</time>
      </trkpt>
      <trkpt lat="42.307457" lon="-8.80513">
        <ele>65</ele>
        <time>1970-01-01T02:33:59.000Z</time>
      </trkpt>
      <trkpt lat="42.307452" lon="-8.805143">
        <ele>65</ele>
        <time>1970-01-01T02:34:00.000Z</time>
      </trkpt>
      <trkpt lat="42.307447" lon="-8.805157">
        <ele>65</ele>
        <time>1970-01-01T02:34:01.000Z</time>
      </trkpt>
      <trkpt lat="42.307443" lon="-8.805168">
        <ele>65.2</ele>
        <time>1970-01-01T02:34:02.000Z</time>
      </trkpt>
      <trkpt lat="42.307441" lon="-8.805176">
        <ele>65.2</ele>
        <time>1970-01-01T02:34:03.000Z</time>
      </trkpt>
      <trkpt lat="42.307437" lon="-8.80518">
        <ele>65.2</ele>
        <time>1970-01-01T02:34:04.000Z</time>
      </trkpt>
      <trkpt lat="42.307433" lon="-8.805183">
        <ele>65.2</ele>
        <time>1970-01-01T02:34:05.000Z</time>
      </trkpt>
      <trkpt lat="42.30743" lon="-8.805185">
        <ele>65.4</ele>
        <time>1970-01-01T02:34:06.000Z</time>
      </trkpt>
      <trkpt lat="42.307427" lon="-8.805183">
        <ele>65.6</ele>
        <time>1970-01-01T02:34:07.000Z</time>
      </trkpt>
      <trkpt lat="42.307424" lon="-8.805181">
        <ele>65.6</ele>
        <time>1970-01-01T02:34:08.000Z</time>
      </trkpt>
      <trkpt lat="42.307421" lon="-8.805181">
        <ele>65.6</ele>
        <time>1970-01-01T02:34:09.000Z</time>
      </trkpt>
      <trkpt lat="42.307418" lon="-8.805181">
        <ele>65.8</ele>
        <time>1970-01-01T02:34:10.000Z</time>
      </trkpt>
      <trkpt lat="42.307415" lon="-8.805182">
        <ele>66</ele>
        <time>1970-01-01T02:34:11.000Z</time>
      </trkpt>
      <trkpt lat="42.307412" lon="-8.805183">
        <ele>66.2</ele>
        <time>1970-01-01T02:34:12.000Z</time>
      </trkpt>
      <trkpt lat="42.307409" lon="-8.805183">
        <ele>66.4</ele>
        <time>1970-01-01T02:34:13.000Z</time>
      </trkpt>
      <trkpt lat="42.307406" lon="-8.805183">
        <ele>66.8</ele>
        <time>1970-01-01T02:34:14.000Z</time>
      </trkpt>
      <trkpt lat="42.307404" lon="-8.805179">
        <ele>67</ele>
        <time>1970-01-01T02:34:15.000Z</time>
      </trkpt>
      <trkpt lat="42.307403" lon="-8.80518">
        <ele>67.2</ele>
        <time>1970-01-01T02:34:16.000Z</time>
      </trkpt>
      <trkpt lat="42.307404" lon="-8.805182">
        <ele>67.2</ele>
        <time>1970-01-01T02:34:17.000Z</time>
      </trkpt>
      <trkpt lat="42.307404" lon="-8.805182">
        <ele>67.4</ele>
        <time>1970-01-01T02:34:18.000Z</time>
      </trkpt>
      <trkpt lat="42.307405" lon="-8.805178">
        <ele>67.4</ele>
        <time>1970-01-01T02:34:19.000Z</time>
      </trkpt>
      <trkpt lat="42.307404" lon="-8.805172">
        <ele>67.4</ele>
        <time>1970-01-01T02:34:20.000Z</time>
      </trkpt>
      <trkpt lat="42.307404" lon="-8.805167">
        <ele>67.6</ele>
        <time>1970-01-01T02:34:21.000Z</time>
      </trkpt>
      <trkpt lat="42.307403" lon="-8.805165">
        <ele>67.8</ele>
        <time>1970-01-01T02:34:22.000Z</time>
      </trkpt>
      <trkpt lat="42.307401" lon="-8.805168">
        <ele>67.8</ele>
        <time>1970-01-01T02:34:23.000Z</time>
      </trkpt>
      <trkpt lat="42.307399" lon="-8.805176">
        <ele>68</ele>
        <time>1970-01-01T02:34:24.000Z</time>
      </trkpt>
      <trkpt lat="42.307396" lon="-8.805184">
        <ele>68</ele>
        <time>1970-01-01T02:34:25.000Z</time>
      </trkpt>
      <trkpt lat="42.307391" lon="-8.805194">
        <ele>68</ele>
        <time>1970-01-01T02:34:26.000Z</time>
      </trkpt>
      <trkpt lat="42.307389" lon="-8.805206">
        <ele>68.2</ele>
        <time>1970-01-01T02:34:27.000Z</time>
      </trkpt>
      <trkpt lat="42.307385" lon="-8.805217">
        <ele>68.2</ele>
        <time>1970-01-01T02:34:28.000Z</time>
      </trkpt>
      <trkpt lat="42.307383" lon="-8.805224">
        <ele>68.2</ele>
        <time>1970-01-01T02:34:29.000Z</time>
      </trkpt>
      <trkpt lat="42.307384" lon="-8.805227">
        <ele>68.2</ele>
        <time>1970-01-01T02:34:30.000Z</time>
      </trkpt>
      <trkpt lat="42.307386" lon="-8.805231">
        <ele>68.2</ele>
        <time>1970-01-01T02:34:31.000Z</time>
      </trkpt>
      <trkpt lat="42.307388" lon="-8.805233">
        <ele>68</ele>
        <time>1970-01-01T02:34:32.000Z</time>
      </trkpt>
      <trkpt lat="42.307394" lon="-8.805235">
        <ele>68.2</ele>
        <time>1970-01-01T02:34:33.000Z</time>
      </trkpt>
      <trkpt lat="42.307394" lon="-8.805229">
        <ele>68</ele>
        <time>1970-01-01T02:34:34.000Z</time>
      </trkpt>
      <trkpt lat="42.307397" lon="-8.805224">
        <ele>67.8</ele>
        <time>1970-01-01T02:34:35.000Z</time>
      </trkpt>
      <trkpt lat="42.307397" lon="-8.805219">
        <ele>67.8</ele>
        <time>1970-01-01T02:34:36.000Z</time>
      </trkpt>
      <trkpt lat="42.307398" lon="-8.805214">
        <ele>67.6</ele>
        <time>1970-01-01T02:34:37.000Z</time>
      </trkpt>
      <trkpt lat="42.3074" lon="-8.805212">
        <ele>67.8</ele>
        <time>1970-01-01T02:34:38.000Z</time>
      </trkpt>
      <trkpt lat="42.307401" lon="-8.80521">
        <ele>68</ele>
        <time>1970-01-01T02:34:39.000Z</time>
      </trkpt>
      <trkpt lat="42.307402" lon="-8.805211">
        <ele>68.2</ele>
        <time>1970-01-01T02:34:40.000Z</time>
      </trkpt>
      <trkpt lat="42.307403" lon="-8.805212">
        <ele>68.2</ele>
        <time>1970-01-01T02:34:41.000Z</time>
      </trkpt>
      <trkpt lat="42.307403" lon="-8.805213">
        <ele>68.2</ele>
        <time>1970-01-01T02:34:42.000Z</time>
      </trkpt>
      <trkpt lat="42.307403" lon="-8.805212">
        <ele>68.2</ele>
        <time>1970-01-01T02:34:43.000Z</time>
      </trkpt>
      <trkpt lat="42.307403" lon="-8.80521">
        <ele>68.2</ele>
        <time>1970-01-01T02:34:44.000Z</time>
      </trkpt>
      <trkpt lat="42.307405" lon="-8.80521">
        <ele>68.2</ele>
        <time>1970-01-01T02:34:45.000Z</time>
      </trkpt>
      <trkpt lat="42.307406" lon="-8.805209">
        <ele>68</ele>
        <time>1970-01-01T02:34:46.000Z</time>
      </trkpt>
      <trkpt lat="42.307408" lon="-8.805208">
        <ele>68</ele>
        <time>1970-01-01T02:34:47.000Z</time>
      </trkpt>
      <trkpt lat="42.30741" lon="-8.805208">
        <ele>68</ele>
        <time>1970-01-01T02:34:48.000Z</time>
      </trkpt>
      <trkpt lat="42.307411" lon="-8.805206">
        <ele>68</ele>
        <time>1970-01-01T02:34:49.000Z</time>
      </trkpt>
      <trkpt lat="42.307411" lon="-8.805209">
        <ele>68</ele>
        <time>1970-01-01T02:34:50.000Z</time>
      </trkpt>
      <trkpt lat="42.30741" lon="-8.805212">
        <ele>68</ele>
        <time>1970-01-01T02:34:51.000Z</time>
      </trkpt>
      <trkpt lat="42.307407" lon="-8.805217">
        <ele>68</ele>
        <time>1970-01-01T02:34:52.000Z</time>
      </trkpt>
      <trkpt lat="42.307405" lon="-8.805221">
        <ele>68</ele>
        <time>1970-01-01T02:34:53.000Z</time>
      </trkpt>
      <trkpt lat="42.307404" lon="-8.805227">
        <ele>67.8</ele>
        <time>1970-01-01T02:34:54.000Z</time>
      </trkpt>
      <trkpt lat="42.307396" lon="-8.80523">
        <ele>67.6</ele>
        <time>1970-01-01T02:34:55.000Z</time>
      </trkpt>
      <trkpt lat="42.307391" lon="-8.80523">
        <ele>67.6</ele>
        <time>1970-01-01T02:34:56.000Z</time>
      </trkpt>
      <trkpt lat="42.307383" lon="-8.80523">
        <ele>67.4</ele>
        <time>1970-01-01T02:34:57.000Z</time>
      </trkpt>
      <trkpt lat="42.307374" lon="-8.805234">
        <ele>67.4</ele>
        <time>1970-01-01T02:34:58.000Z</time>
      </trkpt>
      <trkpt lat="42.307367" lon="-8.805238">
        <ele>67.6</ele>
        <time>1970-01-01T02:34:59.000Z</time>
      </trkpt>
      <trkpt lat="42.307359" lon="-8.805243">
        <ele>68.2</ele>
        <time>1970-01-01T02:35:00.000Z</time>
      </trkpt>
      <trkpt lat="42.307347" lon="-8.805247">
        <ele>68.4</ele>
        <time>1970-01-01T02:35:01.000Z</time>
      </trkpt>
      <trkpt lat="42.307336" lon="-8.80525">
        <ele>68.6</ele>
        <time>1970-01-01T02:35:02.000Z</time>
      </trkpt>
      <trkpt lat="42.307323" lon="-8.805256">
        <ele>69</ele>
        <time>1970-01-01T02:35:03.000Z</time>
      </trkpt>
      <trkpt lat="42.307311" lon="-8.805267">
        <ele>69.4</ele>
        <time>1970-01-01T02:35:04.000Z</time>
      </trkpt>
      <trkpt lat="42.307299" lon="-8.805276">
        <ele>69.8</ele>
        <time>1970-01-01T02:35:05.000Z</time>
      </trkpt>
      <trkpt lat="42.307289" lon="-8.805285">
        <ele>70.2</ele>
        <time>1970-01-01T02:35:06.000Z</time>
      </trkpt>
      <trkpt lat="42.30728" lon="-8.80529">
        <ele>70.4</ele>
        <time>1970-01-01T02:35:07.000Z</time>
      </trkpt>
      <trkpt lat="42.30727" lon="-8.805293">
        <ele>70.8</ele>
        <time>1970-01-01T02:35:08.000Z</time>
      </trkpt>
      <trkpt lat="42.307258" lon="-8.805296">
        <ele>71.2</ele>
        <time>1970-01-01T02:35:09.000Z</time>
      </trkpt>
      <trkpt lat="42.307241" lon="-8.805302">
        <ele>71.6</ele>
        <time>1970-01-01T02:35:10.000Z</time>
      </trkpt>
      <trkpt lat="42.307228" lon="-8.805307">
        <ele>72</ele>
        <time>1970-01-01T02:35:11.000Z</time>
      </trkpt>
      <trkpt lat="42.307213" lon="-8.805316">
        <ele>72</ele>
        <time>1970-01-01T02:35:12.000Z</time>
      </trkpt>
      <trkpt lat="42.3072" lon="-8.805329">
        <ele>72.2</ele>
        <time>1970-01-01T02:35:13.000Z</time>
      </trkpt>
      <trkpt lat="42.307188" lon="-8.805337">
        <ele>72.6</ele>
        <time>1970-01-01T02:35:14.000Z</time>
      </trkpt>
      <trkpt lat="42.307177" lon="-8.80534">
        <ele>73</ele>
        <time>1970-01-01T02:35:15.000Z</time>
      </trkpt>
      <trkpt lat="42.307164" lon="-8.805349">
        <ele>73.2</ele>
        <time>1970-01-01T02:35:16.000Z</time>
      </trkpt>
      <trkpt lat="42.307152" lon="-8.805356">
        <ele>73.6</ele>
        <time>1970-01-01T02:35:17.000Z</time>
      </trkpt>
      <trkpt lat="42.307144" lon="-8.805359">
        <ele>73.6</ele>
        <time>1970-01-01T02:35:18.000Z</time>
      </trkpt>
      <trkpt lat="42.307138" lon="-8.805363">
        <ele>74</ele>
        <time>1970-01-01T02:35:19.000Z</time>
      </trkpt>
      <trkpt lat="42.307134" lon="-8.80536">
        <ele>74.2</ele>
        <time>1970-01-01T02:35:20.000Z</time>
      </trkpt>
      <trkpt lat="42.307129" lon="-8.805361">
        <ele>74.4</ele>
        <time>1970-01-01T02:35:21.000Z</time>
      </trkpt>
      <trkpt lat="42.307123" lon="-8.805366">
        <ele>74.4</ele>
        <time>1970-01-01T02:35:22.000Z</time>
      </trkpt>
      <trkpt lat="42.307115" lon="-8.805368">
        <ele>74.8</ele>
        <time>1970-01-01T02:35:23.000Z</time>
      </trkpt>
      <trkpt lat="42.307105" lon="-8.805363">
        <ele>75.4</ele>
        <time>1970-01-01T02:35:24.000Z</time>
      </trkpt>
      <trkpt lat="42.307097" lon="-8.805357">
        <ele>75.6</ele>
        <time>1970-01-01T02:35:25.000Z</time>
      </trkpt>
      <trkpt lat="42.307088" lon="-8.805351">
        <ele>76.2</ele>
        <time>1970-01-01T02:35:26.000Z</time>
      </trkpt>
      <trkpt lat="42.307083" lon="-8.805354">
        <ele>76.4</ele>
        <time>1970-01-01T02:35:27.000Z</time>
      </trkpt>
      <trkpt lat="42.307085" lon="-8.805361">
        <ele>76.8</ele>
        <time>1970-01-01T02:35:28.000Z</time>
      </trkpt>
      <trkpt lat="42.307087" lon="-8.805364">
        <ele>76.8</ele>
        <time>1970-01-01T02:35:29.000Z</time>
      </trkpt>
      <trkpt lat="42.307079" lon="-8.805363">
        <ele>77</ele>
        <time>1970-01-01T02:35:30.000Z</time>
      </trkpt>
      <trkpt lat="42.307065" lon="-8.805362">
        <ele>77.2</ele>
        <time>1970-01-01T02:35:31.000Z</time>
      </trkpt>
      <trkpt lat="42.307053" lon="-8.805362">
        <ele>77.8</ele>
        <time>1970-01-01T02:35:32.000Z</time>
      </trkpt>
      <trkpt lat="42.307043" lon="-8.805365">
        <ele>77.6</ele>
        <time>1970-01-01T02:35:33.000Z</time>
      </trkpt>
      <trkpt lat="42.307032" lon="-8.805372">
        <ele>77.4</ele>
        <time>1970-01-01T02:35:34.000Z</time>
      </trkpt>
      <trkpt lat="42.307022" lon="-8.805378">
        <ele>77.4</ele>
        <time>1970-01-01T02:35:35.000Z</time>
      </trkpt>
      <trkpt lat="42.30701" lon="-8.805385">
        <ele>77.6</ele>
        <time>1970-01-01T02:35:36.000Z</time>
      </trkpt>
      <trkpt lat="42.307001" lon="-8.805393">
        <ele>78</ele>
        <time>1970-01-01T02:35:37.000Z</time>
      </trkpt>
      <trkpt lat="42.306991" lon="-8.805401">
        <ele>77.8</ele>
        <time>1970-01-01T02:35:38.000Z</time>
      </trkpt>
      <trkpt lat="42.30698" lon="-8.805413">
        <ele>77.8</ele>
        <time>1970-01-01T02:35:39.000Z</time>
      </trkpt>
      <trkpt lat="42.306969" lon="-8.805421">
        <ele>77.8</ele>
        <time>1970-01-01T02:35:40.000Z</time>
      </trkpt>
      <trkpt lat="42.306957" lon="-8.805423">
        <ele>77.8</ele>
        <time>1970-01-01T02:35:41.000Z</time>
      </trkpt>
      <trkpt lat="42.306947" lon="-8.805427">
        <ele>78</ele>
        <time>1970-01-01T02:35:42.000Z</time>
      </trkpt>
      <trkpt lat="42.306938" lon="-8.805432">
        <ele>78.2</ele>
        <time>1970-01-01T02:35:43.000Z</time>
      </trkpt>
      <trkpt lat="42.306929" lon="-8.805438">
        <ele>78.4</ele>
        <time>1970-01-01T02:35:44.000Z</time>
      </trkpt>
      <trkpt lat="42.306918" lon="-8.805443">
        <ele>78.4</ele>
        <time>1970-01-01T02:35:45.000Z</time>
      </trkpt>
      <trkpt lat="42.306906" lon="-8.805448">
        <ele>78.4</ele>
        <time>1970-01-01T02:35:46.000Z</time>
      </trkpt>
      <trkpt lat="42.306892" lon="-8.80545">
        <ele>78.4</ele>
        <time>1970-01-01T02:35:47.000Z</time>
      </trkpt>
      <trkpt lat="42.306878" lon="-8.805449">
        <ele>78.4</ele>
        <time>1970-01-01T02:35:48.000Z</time>
      </trkpt>
      <trkpt lat="42.306864" lon="-8.805454">
        <ele>78.4</ele>
        <time>1970-01-01T02:35:49.000Z</time>
      </trkpt>
      <trkpt lat="42.306852" lon="-8.805465">
        <ele>78.2</ele>
        <time>1970-01-01T02:35:50.000Z</time>
      </trkpt>
      <trkpt lat="42.306844" lon="-8.805471">
        <ele>78.2</ele>
        <time>1970-01-01T02:35:51.000Z</time>
      </trkpt>
      <trkpt lat="42.306837" lon="-8.805476">
        <ele>78</ele>
        <time>1970-01-01T02:35:52.000Z</time>
      </trkpt>
      <trkpt lat="42.306826" lon="-8.80548">
        <ele>77.8</ele>
        <time>1970-01-01T02:35:53.000Z</time>
      </trkpt>
      <trkpt lat="42.306812" lon="-8.805487">
        <ele>77.8</ele>
        <time>1970-01-01T02:35:54.000Z</time>
      </trkpt>
      <trkpt lat="42.306799" lon="-8.805494">
        <ele>77.4</ele>
        <time>1970-01-01T02:35:55.000Z</time>
      </trkpt>
      <trkpt lat="42.306786" lon="-8.805503">
        <ele>77</ele>
        <time>1970-01-01T02:35:56.000Z</time>
      </trkpt>
      <trkpt lat="42.306774" lon="-8.805511">
        <ele>77</ele>
        <time>1970-01-01T02:35:57.000Z</time>
      </trkpt>
      <trkpt lat="42.306762" lon="-8.805517">
        <ele>77</ele>
        <time>1970-01-01T02:35:58.000Z</time>
      </trkpt>
      <trkpt lat="42.30675" lon="-8.80552">
        <ele>76.6</ele>
        <time>1970-01-01T02:35:59.000Z</time>
      </trkpt>
      <trkpt lat="42.306738" lon="-8.805522">
        <ele>76.6</ele>
        <time>1970-01-01T02:36:00.000Z</time>
      </trkpt>
      <trkpt lat="42.306725" lon="-8.805528">
        <ele>76.6</ele>
        <time>1970-01-01T02:36:01.000Z</time>
      </trkpt>
      <trkpt lat="42.306714" lon="-8.805526">
        <ele>76.8</ele>
        <time>1970-01-01T02:36:02.000Z</time>
      </trkpt>
      <trkpt lat="42.306702" lon="-8.805522">
        <ele>76.8</ele>
        <time>1970-01-01T02:36:03.000Z</time>
      </trkpt>
      <trkpt lat="42.306693" lon="-8.805519">
        <ele>76.8</ele>
        <time>1970-01-01T02:36:04.000Z</time>
      </trkpt>
      <trkpt lat="42.306685" lon="-8.805515">
        <ele>76.8</ele>
        <time>1970-01-01T02:36:05.000Z</time>
      </trkpt>
      <trkpt lat="42.306675" lon="-8.805511">
        <ele>77</ele>
        <time>1970-01-01T02:36:06.000Z</time>
      </trkpt>
      <trkpt lat="42.306664" lon="-8.805504">
        <ele>77</ele>
        <time>1970-01-01T02:36:07.000Z</time>
      </trkpt>
      <trkpt lat="42.306653" lon="-8.805498">
        <ele>77</ele>
        <time>1970-01-01T02:36:08.000Z</time>
      </trkpt>
      <trkpt lat="42.306645" lon="-8.805493">
        <ele>77</ele>
        <time>1970-01-01T02:36:09.000Z</time>
      </trkpt>
      <trkpt lat="42.306639" lon="-8.80549">
        <ele>77</ele>
        <time>1970-01-01T02:36:10.000Z</time>
      </trkpt>
      <trkpt lat="42.306634" lon="-8.805484">
        <ele>76.8</ele>
        <time>1970-01-01T02:36:11.000Z</time>
      </trkpt>
      <trkpt lat="42.306629" lon="-8.805482">
        <ele>76.8</ele>
        <time>1970-01-01T02:36:12.000Z</time>
      </trkpt>
      <trkpt lat="42.306627" lon="-8.805477">
        <ele>76.8</ele>
        <time>1970-01-01T02:36:13.000Z</time>
      </trkpt>
      <trkpt lat="42.306629" lon="-8.805467">
        <ele>76.8</ele>
        <time>1970-01-01T02:36:14.000Z</time>
      </trkpt>
      <trkpt lat="42.306631" lon="-8.805467">
        <ele>76.8</ele>
        <time>1970-01-01T02:36:15.000Z</time>
      </trkpt>
      <trkpt lat="42.306635" lon="-8.805466">
        <ele>76.4</ele>
        <time>1970-01-01T02:36:16.000Z</time>
      </trkpt>
      <trkpt lat="42.306639" lon="-8.805464">
        <ele>76.6</ele>
        <time>1970-01-01T02:36:17.000Z</time>
      </trkpt>
      <trkpt lat="42.306638" lon="-8.80546">
        <ele>76.6</ele>
        <time>1970-01-01T02:36:18.000Z</time>
      </trkpt>
      <trkpt lat="42.30664" lon="-8.805455">
        <ele>76.6</ele>
        <time>1970-01-01T02:36:19.000Z</time>
      </trkpt>
      <trkpt lat="42.306641" lon="-8.805454">
        <ele>76.6</ele>
        <time>1970-01-01T02:36:20.000Z</time>
      </trkpt>
      <trkpt lat="42.306641" lon="-8.805453">
        <ele>76.6</ele>
        <time>1970-01-01T02:36:21.000Z</time>
      </trkpt>
      <trkpt lat="42.306641" lon="-8.805453">
        <ele>76.4</ele>
        <time>1970-01-01T02:36:22.000Z</time>
      </trkpt>
      <trkpt lat="42.306646" lon="-8.805448">
        <ele>76.4</ele>
        <time>1970-01-01T02:36:23.000Z</time>
      </trkpt>
      <trkpt lat="42.306653" lon="-8.805445">
        <ele>76.4</ele>
        <time>1970-01-01T02:36:24.000Z</time>
      </trkpt>
      <trkpt lat="42.306658" lon="-8.80544">
        <ele>77.4</ele>
        <time>1970-01-01T02:36:25.000Z</time>
      </trkpt>
      <trkpt lat="42.306664" lon="-8.80543">
        <ele>77.8</ele>
        <time>1970-01-01T02:36:26.000Z</time>
      </trkpt>
      <trkpt lat="42.306669" lon="-8.805418">
        <ele>78</ele>
        <time>1970-01-01T02:36:27.000Z</time>
      </trkpt>
      <trkpt lat="42.306668" lon="-8.805411">
        <ele>78.2</ele>
        <time>1970-01-01T02:36:28.000Z</time>
      </trkpt>
      <trkpt lat="42.306666" lon="-8.805406">
        <ele>78.4</ele>
        <time>1970-01-01T02:36:29.000Z</time>
      </trkpt>
      <trkpt lat="42.306667" lon="-8.805399">
        <ele>78.4</ele>
        <time>1970-01-01T02:36:30.000Z</time>
      </trkpt>
      <trkpt lat="42.306668" lon="-8.805393">
        <ele>78.4</ele>
        <time>1970-01-01T02:36:31.000Z</time>
      </trkpt>
      <trkpt lat="42.306664" lon="-8.805388">
        <ele>78.4</ele>
        <time>1970-01-01T02:36:32.000Z</time>
      </trkpt>
      <trkpt lat="42.306659" lon="-8.805382">
        <ele>78.4</ele>
        <time>1970-01-01T02:36:33.000Z</time>
      </trkpt>
      <trkpt lat="42.306655" lon="-8.805371">
        <ele>78.4</ele>
        <time>1970-01-01T02:36:34.000Z</time>
      </trkpt>
      <trkpt lat="42.30665" lon="-8.805362">
        <ele>78.4</ele>
        <time>1970-01-01T02:36:35.000Z</time>
      </trkpt>
      <trkpt lat="42.306645" lon="-8.805354">
        <ele>78.6</ele>
        <time>1970-01-01T02:36:36.000Z</time>
      </trkpt>
      <trkpt lat="42.30664" lon="-8.805349">
        <ele>79</ele>
        <time>1970-01-01T02:36:37.000Z</time>
      </trkpt>
      <trkpt lat="42.306633" lon="-8.805347">
        <ele>79.2</ele>
        <time>1970-01-01T02:36:38.000Z</time>
      </trkpt>
      <trkpt lat="42.306625" lon="-8.805343">
        <ele>79.4</ele>
        <time>1970-01-01T02:36:39.000Z</time>
      </trkpt>
      <trkpt lat="42.306619" lon="-8.805338">
        <ele>79.6</ele>
        <time>1970-01-01T02:36:40.000Z</time>
      </trkpt>
      <trkpt lat="42.306615" lon="-8.80533">
        <ele>79.6</ele>
        <time>1970-01-01T02:36:41.000Z</time>
      </trkpt>
      <trkpt lat="42.306611" lon="-8.80532">
        <ele>79.8</ele>
        <time>1970-01-01T02:36:42.000Z</time>
      </trkpt>
      <trkpt lat="42.306606" lon="-8.805315">
        <ele>79.8</ele>
        <time>1970-01-01T02:36:43.000Z</time>
      </trkpt>
      <trkpt lat="42.306601" lon="-8.805311">
        <ele>80.6</ele>
        <time>1970-01-01T02:36:44.000Z</time>
      </trkpt>
      <trkpt lat="42.306596" lon="-8.80531">
        <ele>81.2</ele>
        <time>1970-01-01T02:36:45.000Z</time>
      </trkpt>
      <trkpt lat="42.306593" lon="-8.805308">
        <ele>81.4</ele>
        <time>1970-01-01T02:36:46.000Z</time>
      </trkpt>
      <trkpt lat="42.306591" lon="-8.805303">
        <ele>81.6</ele>
        <time>1970-01-01T02:36:47.000Z</time>
      </trkpt>
      <trkpt lat="42.306589" lon="-8.805299">
        <ele>81.6</ele>
        <time>1970-01-01T02:36:48.000Z</time>
      </trkpt>
      <trkpt lat="42.306587" lon="-8.805293">
        <ele>82.2</ele>
        <time>1970-01-01T02:36:49.000Z</time>
      </trkpt>
      <trkpt lat="42.306586" lon="-8.80529">
        <ele>82.6</ele>
        <time>1970-01-01T02:36:50.000Z</time>
      </trkpt>
      <trkpt lat="42.306586" lon="-8.805287">
        <ele>83</ele>
        <time>1970-01-01T02:36:51.000Z</time>
      </trkpt>
      <trkpt lat="42.306589" lon="-8.805285">
        <ele>83.4</ele>
        <time>1970-01-01T02:36:52.000Z</time>
      </trkpt>
      <trkpt lat="42.306595" lon="-8.805284">
        <ele>83.6</ele>
        <time>1970-01-01T02:36:53.000Z</time>
      </trkpt>
      <trkpt lat="42.306601" lon="-8.805282">
        <ele>83.8</ele>
        <time>1970-01-01T02:36:54.000Z</time>
      </trkpt>
      <trkpt lat="42.306606" lon="-8.805275">
        <ele>84</ele>
        <time>1970-01-01T02:36:55.000Z</time>
      </trkpt>
      <trkpt lat="42.306611" lon="-8.805261">
        <ele>84.4</ele>
        <time>1970-01-01T02:36:56.000Z</time>
      </trkpt>
      <trkpt lat="42.306611" lon="-8.805243">
        <ele>84.6</ele>
        <time>1970-01-01T02:36:57.000Z</time>
      </trkpt>
      <trkpt lat="42.306606" lon="-8.805232">
        <ele>84.8</ele>
        <time>1970-01-01T02:36:58.000Z</time>
      </trkpt>
      <trkpt lat="42.306602" lon="-8.805228">
        <ele>85</ele>
        <time>1970-01-01T02:36:59.000Z</time>
      </trkpt>
      <trkpt lat="42.306597" lon="-8.805222">
        <ele>85.2</ele>
        <time>1970-01-01T02:37:00.000Z</time>
      </trkpt>
      <trkpt lat="42.306592" lon="-8.805215">
        <ele>85.4</ele>
        <time>1970-01-01T02:37:01.000Z</time>
      </trkpt>
      <trkpt lat="42.306585" lon="-8.805208">
        <ele>85.6</ele>
        <time>1970-01-01T02:37:02.000Z</time>
      </trkpt>
      <trkpt lat="42.30658" lon="-8.805199">
        <ele>86.4</ele>
        <time>1970-01-01T02:37:03.000Z</time>
      </trkpt>
      <trkpt lat="42.306575" lon="-8.805188">
        <ele>86.8</ele>
        <time>1970-01-01T02:37:04.000Z</time>
      </trkpt>
      <trkpt lat="42.306571" lon="-8.805175">
        <ele>87</ele>
        <time>1970-01-01T02:37:05.000Z</time>
      </trkpt>
      <trkpt lat="42.306568" lon="-8.805162">
        <ele>87.2</ele>
        <time>1970-01-01T02:37:06.000Z</time>
      </trkpt>
      <trkpt lat="42.306566" lon="-8.805146">
        <ele>87.2</ele>
        <time>1970-01-01T02:37:07.000Z</time>
      </trkpt>
      <trkpt lat="42.306565" lon="-8.805134">
        <ele>87.4</ele>
        <time>1970-01-01T02:37:08.000Z</time>
      </trkpt>
      <trkpt lat="42.306563" lon="-8.805127">
        <ele>87.8</ele>
        <time>1970-01-01T02:37:09.000Z</time>
      </trkpt>
      <trkpt lat="42.306562" lon="-8.805122">
        <ele>88</ele>
        <time>1970-01-01T02:37:10.000Z</time>
      </trkpt>
      <trkpt lat="42.306563" lon="-8.805114">
        <ele>88.2</ele>
        <time>1970-01-01T02:37:11.000Z</time>
      </trkpt>
      <trkpt lat="42.306564" lon="-8.80511">
        <ele>88.2</ele>
        <time>1970-01-01T02:37:12.000Z</time>
      </trkpt>
      <trkpt lat="42.306569" lon="-8.805103">
        <ele>88.4</ele>
        <time>1970-01-01T02:37:13.000Z</time>
      </trkpt>
      <trkpt lat="42.306578" lon="-8.80509">
        <ele>88.6</ele>
        <time>1970-01-01T02:37:14.000Z</time>
      </trkpt>
      <trkpt lat="42.306586" lon="-8.805074">
        <ele>88.6</ele>
        <time>1970-01-01T02:37:15.000Z</time>
      </trkpt>
      <trkpt lat="42.30659" lon="-8.805064">
        <ele>88.6</ele>
        <time>1970-01-01T02:37:16.000Z</time>
      </trkpt>
      <trkpt lat="42.306595" lon="-8.805055">
        <ele>88.8</ele>
        <time>1970-01-01T02:37:17.000Z</time>
      </trkpt>
      <trkpt lat="42.306598" lon="-8.805049">
        <ele>89.4</ele>
        <time>1970-01-01T02:37:18.000Z</time>
      </trkpt>
      <trkpt lat="42.3066" lon="-8.805045">
        <ele>89.8</ele>
        <time>1970-01-01T02:37:19.000Z</time>
      </trkpt>
      <trkpt lat="42.306605" lon="-8.805036">
        <ele>90</ele>
        <time>1970-01-01T02:37:20.000Z</time>
      </trkpt>
      <trkpt lat="42.306606" lon="-8.805033">
        <ele>90.2</ele>
        <time>1970-01-01T02:37:21.000Z</time>
      </trkpt>
      <trkpt lat="42.306606" lon="-8.805037">
        <ele>90.2</ele>
        <time>1970-01-01T02:37:22.000Z</time>
      </trkpt>
      <trkpt lat="42.306606" lon="-8.80504">
        <ele>90.6</ele>
        <time>1970-01-01T02:37:23.000Z</time>
      </trkpt>
      <trkpt lat="42.306606" lon="-8.805042">
        <ele>91</ele>
        <time>1970-01-01T02:37:24.000Z</time>
      </trkpt>
      <trkpt lat="42.306606" lon="-8.805039">
        <ele>91.2</ele>
        <time>1970-01-01T02:37:25.000Z</time>
      </trkpt>
      <trkpt lat="42.306609" lon="-8.805038">
        <ele>91.2</ele>
        <time>1970-01-01T02:37:26.000Z</time>
      </trkpt>
      <trkpt lat="42.306614" lon="-8.805043">
        <ele>91.2</ele>
        <time>1970-01-01T02:37:27.000Z</time>
      </trkpt>
      <trkpt lat="42.306613" lon="-8.805046">
        <ele>91.2</ele>
        <time>1970-01-01T02:37:28.000Z</time>
      </trkpt>
      <trkpt lat="42.306602" lon="-8.805051">
        <ele>91.4</ele>
        <time>1970-01-01T02:37:29.000Z</time>
      </trkpt>
      <trkpt lat="42.306593" lon="-8.805059">
        <ele>91.4</ele>
        <time>1970-01-01T02:37:30.000Z</time>
      </trkpt>
      <trkpt lat="42.306585" lon="-8.805066">
        <ele>91.6</ele>
        <time>1970-01-01T02:37:31.000Z</time>
      </trkpt>
      <trkpt lat="42.306577" lon="-8.80507">
        <ele>91.6</ele>
        <time>1970-01-01T02:37:32.000Z</time>
      </trkpt>
      <trkpt lat="42.306567" lon="-8.805077">
        <ele>91.8</ele>
        <time>1970-01-01T02:37:33.000Z</time>
      </trkpt>
      <trkpt lat="42.306557" lon="-8.805084">
        <ele>91.8</ele>
        <time>1970-01-01T02:37:34.000Z</time>
      </trkpt>
      <trkpt lat="42.306543" lon="-8.805089">
        <ele>91.6</ele>
        <time>1970-01-01T02:37:35.000Z</time>
      </trkpt>
      <trkpt lat="42.306529" lon="-8.805094">
        <ele>91.6</ele>
        <time>1970-01-01T02:37:36.000Z</time>
      </trkpt>
      <trkpt lat="42.306515" lon="-8.805096">
        <ele>91.6</ele>
        <time>1970-01-01T02:37:37.000Z</time>
      </trkpt>
      <trkpt lat="42.306508" lon="-8.805101">
        <ele>91.6</ele>
        <time>1970-01-01T02:37:38.000Z</time>
      </trkpt>
      <trkpt lat="42.306502" lon="-8.805104">
        <ele>91.4</ele>
        <time>1970-01-01T02:37:39.000Z</time>
      </trkpt>
      <trkpt lat="42.306495" lon="-8.805107">
        <ele>91.2</ele>
        <time>1970-01-01T02:37:40.000Z</time>
      </trkpt>
      <trkpt lat="42.306486" lon="-8.80511">
        <ele>91</ele>
        <time>1970-01-01T02:37:41.000Z</time>
      </trkpt>
      <trkpt lat="42.306479" lon="-8.805116">
        <ele>90.8</ele>
        <time>1970-01-01T02:37:42.000Z</time>
      </trkpt>
      <trkpt lat="42.306471" lon="-8.805125">
        <ele>91</ele>
        <time>1970-01-01T02:37:43.000Z</time>
      </trkpt>
      <trkpt lat="42.306466" lon="-8.805131">
        <ele>90.8</ele>
        <time>1970-01-01T02:37:44.000Z</time>
      </trkpt>
      <trkpt lat="42.306463" lon="-8.805135">
        <ele>90.8</ele>
        <time>1970-01-01T02:37:45.000Z</time>
      </trkpt>
      <trkpt lat="42.30646" lon="-8.805137">
        <ele>91</ele>
        <time>1970-01-01T02:37:46.000Z</time>
      </trkpt>
      <trkpt lat="42.306458" lon="-8.80514">
        <ele>91.2</ele>
        <time>1970-01-01T02:37:47.000Z</time>
      </trkpt>
      <trkpt lat="42.306454" lon="-8.805141">
        <ele>91.4</ele>
        <time>1970-01-01T02:37:48.000Z</time>
      </trkpt>
      <trkpt lat="42.306451" lon="-8.805136">
        <ele>91.4</ele>
        <time>1970-01-01T02:37:49.000Z</time>
      </trkpt>
      <trkpt lat="42.306449" lon="-8.805131">
        <ele>91.8</ele>
        <time>1970-01-01T02:37:50.000Z</time>
      </trkpt>
      <trkpt lat="42.306449" lon="-8.805127">
        <ele>92</ele>
        <time>1970-01-01T02:37:51.000Z</time>
      </trkpt>
      <trkpt lat="42.306446" lon="-8.805124">
        <ele>92.2</ele>
        <time>1970-01-01T02:37:52.000Z</time>
      </trkpt>
      <trkpt lat="42.306444" lon="-8.805117">
        <ele>92.4</ele>
        <time>1970-01-01T02:37:53.000Z</time>
      </trkpt>
      <trkpt lat="42.306444" lon="-8.805109">
        <ele>93</ele>
        <time>1970-01-01T02:37:54.000Z</time>
      </trkpt>
      <trkpt lat="42.30644" lon="-8.805107">
        <ele>93.4</ele>
        <time>1970-01-01T02:37:55.000Z</time>
      </trkpt>
      <trkpt lat="42.306434" lon="-8.805108">
        <ele>93.8</ele>
        <time>1970-01-01T02:37:56.000Z</time>
      </trkpt>
      <trkpt lat="42.306425" lon="-8.805111">
        <ele>94.2</ele>
        <time>1970-01-01T02:37:57.000Z</time>
      </trkpt>
      <trkpt lat="42.306415" lon="-8.805109">
        <ele>94.2</ele>
        <time>1970-01-01T02:37:58.000Z</time>
      </trkpt>
      <trkpt lat="42.306406" lon="-8.805102">
        <ele>94.6</ele>
        <time>1970-01-01T02:37:59.000Z</time>
      </trkpt>
      <trkpt lat="42.306396" lon="-8.805088">
        <ele>94.8</ele>
        <time>1970-01-01T02:38:00.000Z</time>
      </trkpt>
      <trkpt lat="42.306387" lon="-8.805081">
        <ele>95</ele>
        <time>1970-01-01T02:38:01.000Z</time>
      </trkpt>
      <trkpt lat="42.306379" lon="-8.805073">
        <ele>95.2</ele>
        <time>1970-01-01T02:38:02.000Z</time>
      </trkpt>
      <trkpt lat="42.306372" lon="-8.805066">
        <ele>95.2</ele>
        <time>1970-01-01T02:38:03.000Z</time>
      </trkpt>
      <trkpt lat="42.306366" lon="-8.80506">
        <ele>95.2</ele>
        <time>1970-01-01T02:38:04.000Z</time>
      </trkpt>
      <trkpt lat="42.306359" lon="-8.805056">
        <ele>95.4</ele>
        <time>1970-01-01T02:38:05.000Z</time>
      </trkpt>
      <trkpt lat="42.306352" lon="-8.805044">
        <ele>95.4</ele>
        <time>1970-01-01T02:38:06.000Z</time>
      </trkpt>
      <trkpt lat="42.306346" lon="-8.805035">
        <ele>95.4</ele>
        <time>1970-01-01T02:38:07.000Z</time>
      </trkpt>
      <trkpt lat="42.306343" lon="-8.805031">
        <ele>95.6</ele>
        <time>1970-01-01T02:38:08.000Z</time>
      </trkpt>
      <trkpt lat="42.306343" lon="-8.805025">
        <ele>95.8</ele>
        <time>1970-01-01T02:38:09.000Z</time>
      </trkpt>
      <trkpt lat="42.306342" lon="-8.805023">
        <ele>96.2</ele>
        <time>1970-01-01T02:38:10.000Z</time>
      </trkpt>
      <trkpt lat="42.30634" lon="-8.80502">
        <ele>96.6</ele>
        <time>1970-01-01T02:38:11.000Z</time>
      </trkpt>
      <trkpt lat="42.306338" lon="-8.805014">
        <ele>96.8</ele>
        <time>1970-01-01T02:38:12.000Z</time>
      </trkpt>
      <trkpt lat="42.306335" lon="-8.805011">
        <ele>96.8</ele>
        <time>1970-01-01T02:38:13.000Z</time>
      </trkpt>
      <trkpt lat="42.306332" lon="-8.80501">
        <ele>97</ele>
        <time>1970-01-01T02:38:14.000Z</time>
      </trkpt>
      <trkpt lat="42.306332" lon="-8.805006">
        <ele>97.4</ele>
        <time>1970-01-01T02:38:15.000Z</time>
      </trkpt>
      <trkpt lat="42.306327" lon="-8.805003">
        <ele>98</ele>
        <time>1970-01-01T02:38:16.000Z</time>
      </trkpt>
      <trkpt lat="42.306324" lon="-8.805">
        <ele>98.4</ele>
        <time>1970-01-01T02:38:17.000Z</time>
      </trkpt>
      <trkpt lat="42.306317" lon="-8.804996">
        <ele>98.6</ele>
        <time>1970-01-01T02:38:18.000Z</time>
      </trkpt>
      <trkpt lat="42.306312" lon="-8.804993">
        <ele>99</ele>
        <time>1970-01-01T02:38:19.000Z</time>
      </trkpt>
      <trkpt lat="42.306308" lon="-8.804991">
        <ele>99</ele>
        <time>1970-01-01T02:38:20.000Z</time>
      </trkpt>
      <trkpt lat="42.3063" lon="-8.804991">
        <ele>99.2</ele>
        <time>1970-01-01T02:38:21.000Z</time>
      </trkpt>
      <trkpt lat="42.306292" lon="-8.80499">
        <ele>99.6</ele>
        <time>1970-01-01T02:38:22.000Z</time>
      </trkpt>
      <trkpt lat="42.306291" lon="-8.804986">
        <ele>99.8</ele>
        <time>1970-01-01T02:38:23.000Z</time>
      </trkpt>
      <trkpt lat="42.306291" lon="-8.804987">
        <ele>100.2</ele>
        <time>1970-01-01T02:38:24.000Z</time>
      </trkpt>
      <trkpt lat="42.30629" lon="-8.804996">
        <ele>100.6</ele>
        <time>1970-01-01T02:38:25.000Z</time>
      </trkpt>
      <trkpt lat="42.306286" lon="-8.804998">
        <ele>100.8</ele>
        <time>1970-01-01T02:38:26.000Z</time>
      </trkpt>
      <trkpt lat="42.306281" lon="-8.805003">
        <ele>100.8</ele>
        <time>1970-01-01T02:38:27.000Z</time>
      </trkpt>
      <trkpt lat="42.306277" lon="-8.805008">
        <ele>101.2</ele>
        <time>1970-01-01T02:38:28.000Z</time>
      </trkpt>
      <trkpt lat="42.306274" lon="-8.805009">
        <ele>101.4</ele>
        <time>1970-01-01T02:38:29.000Z</time>
      </trkpt>
      <trkpt lat="42.306272" lon="-8.805008">
        <ele>101.4</ele>
        <time>1970-01-01T02:38:30.000Z</time>
      </trkpt>
      <trkpt lat="42.306269" lon="-8.805008">
        <ele>101.8</ele>
        <time>1970-01-01T02:38:31.000Z</time>
      </trkpt>
      <trkpt lat="42.306262" lon="-8.805008">
        <ele>102</ele>
        <time>1970-01-01T02:38:32.000Z</time>
      </trkpt>
      <trkpt lat="42.306254" lon="-8.805008">
        <ele>102</ele>
        <time>1970-01-01T02:38:33.000Z</time>
      </trkpt>
      <trkpt lat="42.306249" lon="-8.805007">
        <ele>102</ele>
        <time>1970-01-01T02:38:34.000Z</time>
      </trkpt>
      <trkpt lat="42.306246" lon="-8.805006">
        <ele>102</ele>
        <time>1970-01-01T02:38:35.000Z</time>
      </trkpt>
      <trkpt lat="42.306243" lon="-8.805006">
        <ele>102</ele>
        <time>1970-01-01T02:38:36.000Z</time>
      </trkpt>
      <trkpt lat="42.306239" lon="-8.805007">
        <ele>102</ele>
        <time>1970-01-01T02:38:37.000Z</time>
      </trkpt>
      <trkpt lat="42.306235" lon="-8.805007">
        <ele>102</ele>
        <time>1970-01-01T02:38:38.000Z</time>
      </trkpt>
      <trkpt lat="42.306231" lon="-8.805008">
        <ele>102</ele>
        <time>1970-01-01T02:38:39.000Z</time>
      </trkpt>
      <trkpt lat="42.306227" lon="-8.805011">
        <ele>102.2</ele>
        <time>1970-01-01T02:38:40.000Z</time>
      </trkpt>
      <trkpt lat="42.306223" lon="-8.805014">
        <ele>102.2</ele>
        <time>1970-01-01T02:38:41.000Z</time>
      </trkpt>
      <trkpt lat="42.306218" lon="-8.805015">
        <ele>102</ele>
        <time>1970-01-01T02:38:42.000Z</time>
      </trkpt>
      <trkpt lat="42.306213" lon="-8.805014">
        <ele>102</ele>
        <time>1970-01-01T02:38:43.000Z</time>
      </trkpt>
      <trkpt lat="42.306208" lon="-8.805016">
        <ele>102.2</ele>
        <time>1970-01-01T02:38:44.000Z</time>
      </trkpt>
      <trkpt lat="42.306204" lon="-8.805018">
        <ele>102</ele>
        <time>1970-01-01T02:38:45.000Z</time>
      </trkpt>
      <trkpt lat="42.306199" lon="-8.805018">
        <ele>102</ele>
        <time>1970-01-01T02:38:46.000Z</time>
      </trkpt>
      <trkpt lat="42.306195" lon="-8.805019">
        <ele>102.2</ele>
        <time>1970-01-01T02:38:47.000Z</time>
      </trkpt>
      <trkpt lat="42.306191" lon="-8.805019">
        <ele>102.2</ele>
        <time>1970-01-01T02:38:48.000Z</time>
      </trkpt>
      <trkpt lat="42.306187" lon="-8.805019">
        <ele>102.2</ele>
        <time>1970-01-01T02:38:49.000Z</time>
      </trkpt>
      <trkpt lat="42.306183" lon="-8.80502">
        <ele>102.2</ele>
        <time>1970-01-01T02:38:50.000Z</time>
      </trkpt>
      <trkpt lat="42.306178" lon="-8.805021">
        <ele>102.2</ele>
        <time>1970-01-01T02:38:51.000Z</time>
      </trkpt>
      <trkpt lat="42.306173" lon="-8.805022">
        <ele>102.4</ele>
        <time>1970-01-01T02:38:52.000Z</time>
      </trkpt>
      <trkpt lat="42.306168" lon="-8.805025">
        <ele>102.6</ele>
        <time>1970-01-01T02:38:53.000Z</time>
      </trkpt>
      <trkpt lat="42.306158" lon="-8.805022">
        <ele>102.8</ele>
        <time>1970-01-01T02:38:54.000Z</time>
      </trkpt>
      <trkpt lat="42.306151" lon="-8.805022">
        <ele>103.2</ele>
        <time>1970-01-01T02:38:55.000Z</time>
      </trkpt>
      <trkpt lat="42.306144" lon="-8.805019">
        <ele>103.6</ele>
        <time>1970-01-01T02:38:56.000Z</time>
      </trkpt>
      <trkpt lat="42.306136" lon="-8.805019">
        <ele>103.8</ele>
        <time>1970-01-01T02:38:57.000Z</time>
      </trkpt>
      <trkpt lat="42.306129" lon="-8.805018">
        <ele>104</ele>
        <time>1970-01-01T02:38:58.000Z</time>
      </trkpt>
      <trkpt lat="42.306124" lon="-8.80502">
        <ele>104</ele>
        <time>1970-01-01T02:38:59.000Z</time>
      </trkpt>
      <trkpt lat="42.306118" lon="-8.805024">
        <ele>104.2</ele>
        <time>1970-01-01T02:39:00.000Z</time>
      </trkpt>
      <trkpt lat="42.306111" lon="-8.805028">
        <ele>104.4</ele>
        <time>1970-01-01T02:39:01.000Z</time>
      </trkpt>
      <trkpt lat="42.306105" lon="-8.80503">
        <ele>104.4</ele>
        <time>1970-01-01T02:39:02.000Z</time>
      </trkpt>
      <trkpt lat="42.306099" lon="-8.805031">
        <ele>104.6</ele>
        <time>1970-01-01T02:39:03.000Z</time>
      </trkpt>
      <trkpt lat="42.306094" lon="-8.805031">
        <ele>105</ele>
        <time>1970-01-01T02:39:04.000Z</time>
      </trkpt>
      <trkpt lat="42.306089" lon="-8.805028">
        <ele>105.2</ele>
        <time>1970-01-01T02:39:05.000Z</time>
      </trkpt>
      <trkpt lat="42.306083" lon="-8.805027">
        <ele>105</ele>
        <time>1970-01-01T02:39:06.000Z</time>
      </trkpt>
      <trkpt lat="42.306081" lon="-8.805027">
        <ele>105.2</ele>
        <time>1970-01-01T02:39:07.000Z</time>
      </trkpt>
      <trkpt lat="42.306082" lon="-8.805029">
        <ele>105.2</ele>
        <time>1970-01-01T02:39:08.000Z</time>
      </trkpt>
      <trkpt lat="42.306083" lon="-8.805032">
        <ele>105</ele>
        <time>1970-01-01T02:39:09.000Z</time>
      </trkpt>
      <trkpt lat="42.306084" lon="-8.805036">
        <ele>105</ele>
        <time>1970-01-01T02:39:10.000Z</time>
      </trkpt>
      <trkpt lat="42.306085" lon="-8.805033">
        <ele>104.8</ele>
        <time>1970-01-01T02:39:11.000Z</time>
      </trkpt>
      <trkpt lat="42.306079" lon="-8.805033">
        <ele>104.8</ele>
        <time>1970-01-01T02:39:12.000Z</time>
      </trkpt>
      <trkpt lat="42.30607" lon="-8.805039">
        <ele>104.8</ele>
        <time>1970-01-01T02:39:13.000Z</time>
      </trkpt>
      <trkpt lat="42.306065" lon="-8.80504">
        <ele>104.4</ele>
        <time>1970-01-01T02:39:14.000Z</time>
      </trkpt>
      <trkpt lat="42.306059" lon="-8.80504">
        <ele>104.2</ele>
        <time>1970-01-01T02:39:15.000Z</time>
      </trkpt>
      <trkpt lat="42.30605" lon="-8.805039">
        <ele>104.2</ele>
        <time>1970-01-01T02:39:16.000Z</time>
      </trkpt>
      <trkpt lat="42.306043" lon="-8.805041">
        <ele>104</ele>
        <time>1970-01-01T02:39:17.000Z</time>
      </trkpt>
      <trkpt lat="42.306036" lon="-8.805047">
        <ele>104</ele>
        <time>1970-01-01T02:39:18.000Z</time>
      </trkpt>
      <trkpt lat="42.306027" lon="-8.805057">
        <ele>103.6</ele>
        <time>1970-01-01T02:39:19.000Z</time>
      </trkpt>
      <trkpt lat="42.30602" lon="-8.805074">
        <ele>103.4</ele>
        <time>1970-01-01T02:39:20.000Z</time>
      </trkpt>
      <trkpt lat="42.306019" lon="-8.805087">
        <ele>103.2</ele>
        <time>1970-01-01T02:39:21.000Z</time>
      </trkpt>
      <trkpt lat="42.306021" lon="-8.805098">
        <ele>103</ele>
        <time>1970-01-01T02:39:22.000Z</time>
      </trkpt>
      <trkpt lat="42.306019" lon="-8.805101">
        <ele>103</ele>
        <time>1970-01-01T02:39:23.000Z</time>
      </trkpt>
      <trkpt lat="42.306016" lon="-8.805105">
        <ele>102.8</ele>
        <time>1970-01-01T02:39:24.000Z</time>
      </trkpt>
      <trkpt lat="42.30601" lon="-8.805107">
        <ele>102.8</ele>
        <time>1970-01-01T02:39:25.000Z</time>
      </trkpt>
      <trkpt lat="42.306006" lon="-8.80511">
        <ele>102.8</ele>
        <time>1970-01-01T02:39:26.000Z</time>
      </trkpt>
      <trkpt lat="42.306003" lon="-8.805112">
        <ele>102.6</ele>
        <time>1970-01-01T02:39:27.000Z</time>
      </trkpt>
      <trkpt lat="42.306" lon="-8.805114">
        <ele>102.6</ele>
        <time>1970-01-01T02:39:28.000Z</time>
      </trkpt>
      <trkpt lat="42.305997" lon="-8.805119">
        <ele>102.6</ele>
        <time>1970-01-01T02:39:29.000Z</time>
      </trkpt>
      <trkpt lat="42.305994" lon="-8.805125">
        <ele>102.6</ele>
        <time>1970-01-01T02:39:30.000Z</time>
      </trkpt>
      <trkpt lat="42.305991" lon="-8.805133">
        <ele>102.4</ele>
        <time>1970-01-01T02:39:31.000Z</time>
      </trkpt>
      <trkpt lat="42.305989" lon="-8.805139">
        <ele>102.4</ele>
        <time>1970-01-01T02:39:32.000Z</time>
      </trkpt>
      <trkpt lat="42.305987" lon="-8.805143">
        <ele>102.2</ele>
        <time>1970-01-01T02:39:33.000Z</time>
      </trkpt>
      <trkpt lat="42.305981" lon="-8.805145">
        <ele>102.2</ele>
        <time>1970-01-01T02:39:34.000Z</time>
      </trkpt>
      <trkpt lat="42.305974" lon="-8.805146">
        <ele>102.2</ele>
        <time>1970-01-01T02:39:35.000Z</time>
      </trkpt>
      <trkpt lat="42.305969" lon="-8.805145">
        <ele>102.4</ele>
        <time>1970-01-01T02:39:36.000Z</time>
      </trkpt>
      <trkpt lat="42.305966" lon="-8.805145">
        <ele>102.6</ele>
        <time>1970-01-01T02:39:37.000Z</time>
      </trkpt>
      <trkpt lat="42.305963" lon="-8.805146">
        <ele>102.8</ele>
        <time>1970-01-01T02:39:38.000Z</time>
      </trkpt>
      <trkpt lat="42.305957" lon="-8.805151">
        <ele>102.8</ele>
        <time>1970-01-01T02:39:39.000Z</time>
      </trkpt>
      <trkpt lat="42.30595" lon="-8.805156">
        <ele>103</ele>
        <time>1970-01-01T02:39:40.000Z</time>
      </trkpt>
      <trkpt lat="42.305945" lon="-8.805159">
        <ele>103.2</ele>
        <time>1970-01-01T02:39:41.000Z</time>
      </trkpt>
      <trkpt lat="42.30594" lon="-8.805161">
        <ele>103.2</ele>
        <time>1970-01-01T02:39:42.000Z</time>
      </trkpt>
      <trkpt lat="42.305934" lon="-8.805164">
        <ele>103.6</ele>
        <time>1970-01-01T02:39:43.000Z</time>
      </trkpt>
      <trkpt lat="42.305929" lon="-8.805168">
        <ele>103.8</ele>
        <time>1970-01-01T02:39:44.000Z</time>
      </trkpt>
      <trkpt lat="42.305924" lon="-8.805167">
        <ele>104</ele>
        <time>1970-01-01T02:39:45.000Z</time>
      </trkpt>
      <trkpt lat="42.30592" lon="-8.805166">
        <ele>104.4</ele>
        <time>1970-01-01T02:39:46.000Z</time>
      </trkpt>
      <trkpt lat="42.305917" lon="-8.805163">
        <ele>104.6</ele>
        <time>1970-01-01T02:39:47.000Z</time>
      </trkpt>
      <trkpt lat="42.305912" lon="-8.805161">
        <ele>105</ele>
        <time>1970-01-01T02:39:48.000Z</time>
      </trkpt>
      <trkpt lat="42.305911" lon="-8.805156">
        <ele>105.2</ele>
        <time>1970-01-01T02:39:49.000Z</time>
      </trkpt>
      <trkpt lat="42.30591" lon="-8.805153">
        <ele>105.2</ele>
        <time>1970-01-01T02:39:50.000Z</time>
      </trkpt>
      <trkpt lat="42.305912" lon="-8.80515">
        <ele>105.2</ele>
        <time>1970-01-01T02:39:51.000Z</time>
      </trkpt>
      <trkpt lat="42.305914" lon="-8.805148">
        <ele>105.2</ele>
        <time>1970-01-01T02:39:52.000Z</time>
      </trkpt>
      <trkpt lat="42.305915" lon="-8.805146">
        <ele>105.2</ele>
        <time>1970-01-01T02:39:53.000Z</time>
      </trkpt>
      <trkpt lat="42.305911" lon="-8.805144">
        <ele>105.2</ele>
        <time>1970-01-01T02:39:54.000Z</time>
      </trkpt>
      <trkpt lat="42.305906" lon="-8.805147">
        <ele>105</ele>
        <time>1970-01-01T02:39:55.000Z</time>
      </trkpt>
      <trkpt lat="42.305904" lon="-8.805148">
        <ele>105</ele>
        <time>1970-01-01T02:39:56.000Z</time>
      </trkpt>
      <trkpt lat="42.305903" lon="-8.805149">
        <ele>105</ele>
        <time>1970-01-01T02:39:57.000Z</time>
      </trkpt>
      <trkpt lat="42.305905" lon="-8.805147">
        <ele>105</ele>
        <time>1970-01-01T02:39:58.000Z</time>
      </trkpt>
      <trkpt lat="42.305909" lon="-8.80514">
        <ele>105.2</ele>
        <time>1970-01-01T02:39:59.000Z</time>
      </trkpt>
      <trkpt lat="42.305912" lon="-8.80513">
        <ele>105.4</ele>
        <time>1970-01-01T02:40:00.000Z</time>
      </trkpt>
      <trkpt lat="42.305911" lon="-8.805121">
        <ele>105.8</ele>
        <time>1970-01-01T02:40:01.000Z</time>
      </trkpt>
      <trkpt lat="42.305908" lon="-8.805114">
        <ele>106.2</ele>
        <time>1970-01-01T02:40:02.000Z</time>
      </trkpt>
      <trkpt lat="42.305907" lon="-8.805107">
        <ele>106.4</ele>
        <time>1970-01-01T02:40:03.000Z</time>
      </trkpt>
      <trkpt lat="42.305904" lon="-8.805099">
        <ele>106.8</ele>
        <time>1970-01-01T02:40:04.000Z</time>
      </trkpt>
      <trkpt lat="42.305904" lon="-8.805094">
        <ele>107.2</ele>
        <time>1970-01-01T02:40:05.000Z</time>
      </trkpt>
      <trkpt lat="42.305903" lon="-8.805089">
        <ele>107.6</ele>
        <time>1970-01-01T02:40:06.000Z</time>
      </trkpt>
      <trkpt lat="42.3059" lon="-8.805084">
        <ele>107.8</ele>
        <time>1970-01-01T02:40:07.000Z</time>
      </trkpt>
      <trkpt lat="42.305896" lon="-8.805078">
        <ele>107.8</ele>
        <time>1970-01-01T02:40:08.000Z</time>
      </trkpt>
      <trkpt lat="42.305892" lon="-8.805072">
        <ele>107.8</ele>
        <time>1970-01-01T02:40:09.000Z</time>
      </trkpt>
      <trkpt lat="42.30589" lon="-8.805066">
        <ele>108</ele>
        <time>1970-01-01T02:40:10.000Z</time>
      </trkpt>
      <trkpt lat="42.305891" lon="-8.805058">
        <ele>108</ele>
        <time>1970-01-01T02:40:11.000Z</time>
      </trkpt>
      <trkpt lat="42.305895" lon="-8.805051">
        <ele>108.4</ele>
        <time>1970-01-01T02:40:12.000Z</time>
      </trkpt>
      <trkpt lat="42.305896" lon="-8.805046">
        <ele>108.8</ele>
        <time>1970-01-01T02:40:13.000Z</time>
      </trkpt>
      <trkpt lat="42.305898" lon="-8.805043">
        <ele>109.2</ele>
        <time>1970-01-01T02:40:14.000Z</time>
      </trkpt>
      <trkpt lat="42.3059" lon="-8.805031">
        <ele>109.4</ele>
        <time>1970-01-01T02:40:15.000Z</time>
      </trkpt>
      <trkpt lat="42.305899" lon="-8.805024">
        <ele>109.8</ele>
        <time>1970-01-01T02:40:16.000Z</time>
      </trkpt>
      <trkpt lat="42.305901" lon="-8.805018">
        <ele>109.8</ele>
        <time>1970-01-01T02:40:17.000Z</time>
      </trkpt>
      <trkpt lat="42.305908" lon="-8.805014">
        <ele>110</ele>
        <time>1970-01-01T02:40:18.000Z</time>
      </trkpt>
      <trkpt lat="42.30591" lon="-8.80501">
        <ele>109.8</ele>
        <time>1970-01-01T02:40:19.000Z</time>
      </trkpt>
      <trkpt lat="42.305915" lon="-8.805006">
        <ele>109.8</ele>
        <time>1970-01-01T02:40:20.000Z</time>
      </trkpt>
      <trkpt lat="42.305917" lon="-8.805001">
        <ele>110</ele>
        <time>1970-01-01T02:40:21.000Z</time>
      </trkpt>
      <trkpt lat="42.305924" lon="-8.804986">
        <ele>110</ele>
        <time>1970-01-01T02:40:22.000Z</time>
      </trkpt>
      <trkpt lat="42.305932" lon="-8.804977">
        <ele>110.6</ele>
        <time>1970-01-01T02:40:23.000Z</time>
      </trkpt>
      <trkpt lat="42.305936" lon="-8.804976">
        <ele>110.8</ele>
        <time>1970-01-01T02:40:24.000Z</time>
      </trkpt>
      <trkpt lat="42.305938" lon="-8.804979">
        <ele>111</ele>
        <time>1970-01-01T02:40:25.000Z</time>
      </trkpt>
      <trkpt lat="42.30594" lon="-8.80498">
        <ele>111.2</ele>
        <time>1970-01-01T02:40:26.000Z</time>
      </trkpt>
      <trkpt lat="42.305942" lon="-8.80498">
        <ele>111.2</ele>
        <time>1970-01-01T02:40:27.000Z</time>
      </trkpt>
      <trkpt lat="42.30594" lon="-8.804988">
        <ele>111.8</ele>
        <time>1970-01-01T02:40:28.000Z</time>
      </trkpt>
      <trkpt lat="42.30594" lon="-8.804989">
        <ele>112</ele>
        <time>1970-01-01T02:40:29.000Z</time>
      </trkpt>
      <trkpt lat="42.305937" lon="-8.804989">
        <ele>112.2</ele>
        <time>1970-01-01T02:40:30.000Z</time>
      </trkpt>
      <trkpt lat="42.305934" lon="-8.804989">
        <ele>112.4</ele>
        <time>1970-01-01T02:40:31.000Z</time>
      </trkpt>
      <trkpt lat="42.305932" lon="-8.804984">
        <ele>112.4</ele>
        <time>1970-01-01T02:40:32.000Z</time>
      </trkpt>
      <trkpt lat="42.305934" lon="-8.804973">
        <ele>112.6</ele>
        <time>1970-01-01T02:40:33.000Z</time>
      </trkpt>
      <trkpt lat="42.305932" lon="-8.804967">
        <ele>112.6</ele>
        <time>1970-01-01T02:40:34.000Z</time>
      </trkpt>
      <trkpt lat="42.305926" lon="-8.804959">
        <ele>112.8</ele>
        <time>1970-01-01T02:40:35.000Z</time>
      </trkpt>
      <trkpt lat="42.305924" lon="-8.804956">
        <ele>113</ele>
        <time>1970-01-01T02:40:36.000Z</time>
      </trkpt>
      <trkpt lat="42.305923" lon="-8.804952">
        <ele>113.2</ele>
        <time>1970-01-01T02:40:37.000Z</time>
      </trkpt>
      <trkpt lat="42.305921" lon="-8.804951">
        <ele>113.4</ele>
        <time>1970-01-01T02:40:38.000Z</time>
      </trkpt>
      <trkpt lat="42.30592" lon="-8.804948">
        <ele>113.6</ele>
        <time>1970-01-01T02:40:39.000Z</time>
      </trkpt>
      <trkpt lat="42.305918" lon="-8.804943">
        <ele>113.8</ele>
        <time>1970-01-01T02:40:40.000Z</time>
      </trkpt>
      <trkpt lat="42.305916" lon="-8.804941">
        <ele>113.8</ele>
        <time>1970-01-01T02:40:41.000Z</time>
      </trkpt>
      <trkpt lat="42.305913" lon="-8.804938">
        <ele>114</ele>
        <time>1970-01-01T02:40:42.000Z</time>
      </trkpt>
      <trkpt lat="42.305909" lon="-8.804933">
        <ele>114.4</ele>
        <time>1970-01-01T02:40:43.000Z</time>
      </trkpt>
      <trkpt lat="42.305904" lon="-8.804927">
        <ele>114.8</ele>
        <time>1970-01-01T02:40:44.000Z</time>
      </trkpt>
      <trkpt lat="42.305897" lon="-8.804915">
        <ele>115.2</ele>
        <time>1970-01-01T02:40:45.000Z</time>
      </trkpt>
      <trkpt lat="42.305891" lon="-8.804912">
        <ele>115.2</ele>
        <time>1970-01-01T02:40:46.000Z</time>
      </trkpt>
      <trkpt lat="42.30589" lon="-8.804908">
        <ele>115.4</ele>
        <time>1970-01-01T02:40:47.000Z</time>
      </trkpt>
      <trkpt lat="42.305887" lon="-8.804909">
        <ele>115.4</ele>
        <time>1970-01-01T02:40:48.000Z</time>
      </trkpt>
      <trkpt lat="42.305884" lon="-8.804907">
        <ele>115.6</ele>
        <time>1970-01-01T02:40:49.000Z</time>
      </trkpt>
      <trkpt lat="42.305882" lon="-8.804909">
        <ele>115.6</ele>
        <time>1970-01-01T02:40:50.000Z</time>
      </trkpt>
      <trkpt lat="42.30588" lon="-8.80491">
        <ele>115.6</ele>
        <time>1970-01-01T02:40:51.000Z</time>
      </trkpt>
      <trkpt lat="42.305879" lon="-8.804911">
        <ele>115.8</ele>
        <time>1970-01-01T02:40:52.000Z</time>
      </trkpt>
      <trkpt lat="42.305878" lon="-8.804909">
        <ele>115.8</ele>
        <time>1970-01-01T02:40:53.000Z</time>
      </trkpt>
      <trkpt lat="42.305879" lon="-8.804907">
        <ele>116.2</ele>
        <time>1970-01-01T02:40:54.000Z</time>
      </trkpt>
      <trkpt lat="42.305879" lon="-8.804905">
        <ele>116.6</ele>
        <time>1970-01-01T02:40:55.000Z</time>
      </trkpt>
      <trkpt lat="42.305878" lon="-8.804903">
        <ele>117</ele>
        <time>1970-01-01T02:40:56.000Z</time>
      </trkpt>
      <trkpt lat="42.305877" lon="-8.804902">
        <ele>117.4</ele>
        <time>1970-01-01T02:40:57.000Z</time>
      </trkpt>
      <trkpt lat="42.305873" lon="-8.8049">
        <ele>117.4</ele>
        <time>1970-01-01T02:40:58.000Z</time>
      </trkpt>
      <trkpt lat="42.305869" lon="-8.804896">
        <ele>117.6</ele>
        <time>1970-01-01T02:40:59.000Z</time>
      </trkpt>
      <trkpt lat="42.305868" lon="-8.804892">
        <ele>117.8</ele>
        <time>1970-01-01T02:41:00.000Z</time>
      </trkpt>
      <trkpt lat="42.305867" lon="-8.804892">
        <ele>118.2</ele>
        <time>1970-01-01T02:41:01.000Z</time>
      </trkpt>
      <trkpt lat="42.305864" lon="-8.804891">
        <ele>118.6</ele>
        <time>1970-01-01T02:41:02.000Z</time>
      </trkpt>
      <trkpt lat="42.305862" lon="-8.804891">
        <ele>118.8</ele>
        <time>1970-01-01T02:41:03.000Z</time>
      </trkpt>
      <trkpt lat="42.305861" lon="-8.804894">
        <ele>118.8</ele>
        <time>1970-01-01T02:41:04.000Z</time>
      </trkpt>
      <trkpt lat="42.305862" lon="-8.804892">
        <ele>119.2</ele>
        <time>1970-01-01T02:41:05.000Z</time>
      </trkpt>
      <trkpt lat="42.305866" lon="-8.804888">
        <ele>119.6</ele>
        <time>1970-01-01T02:41:06.000Z</time>
      </trkpt>
      <trkpt lat="42.305868" lon="-8.804881">
        <ele>119.6</ele>
        <time>1970-01-01T02:41:07.000Z</time>
      </trkpt>
      <trkpt lat="42.30587" lon="-8.804876">
        <ele>120</ele>
        <time>1970-01-01T02:41:08.000Z</time>
      </trkpt>
      <trkpt lat="42.305871" lon="-8.804872">
        <ele>120.2</ele>
        <time>1970-01-01T02:41:09.000Z</time>
      </trkpt>
      <trkpt lat="42.305874" lon="-8.804865">
        <ele>120.4</ele>
        <time>1970-01-01T02:41:10.000Z</time>
      </trkpt>
      <trkpt lat="42.305876" lon="-8.804857">
        <ele>120.4</ele>
        <time>1970-01-01T02:41:11.000Z</time>
      </trkpt>
      <trkpt lat="42.305877" lon="-8.804853">
        <ele>120.4</ele>
        <time>1970-01-01T02:41:12.000Z</time>
      </trkpt>
      <trkpt lat="42.305879" lon="-8.804847">
        <ele>120.6</ele>
        <time>1970-01-01T02:41:13.000Z</time>
      </trkpt>
      <trkpt lat="42.30588" lon="-8.804841">
        <ele>120.6</ele>
        <time>1970-01-01T02:41:14.000Z</time>
      </trkpt>
      <trkpt lat="42.30588" lon="-8.804836">
        <ele>120.6</ele>
        <time>1970-01-01T02:41:15.000Z</time>
      </trkpt>
      <trkpt lat="42.30588" lon="-8.804831">
        <ele>120.6</ele>
        <time>1970-01-01T02:41:16.000Z</time>
      </trkpt>
      <trkpt lat="42.30588" lon="-8.804824">
        <ele>120.8</ele>
        <time>1970-01-01T02:41:17.000Z</time>
      </trkpt>
      <trkpt lat="42.305879" lon="-8.804821">
        <ele>121</ele>
        <time>1970-01-01T02:41:18.000Z</time>
      </trkpt>
      <trkpt lat="42.305872" lon="-8.804816">
        <ele>121.4</ele>
        <time>1970-01-01T02:41:19.000Z</time>
      </trkpt>
      <trkpt lat="42.305868" lon="-8.804813">
        <ele>121.8</ele>
        <time>1970-01-01T02:41:20.000Z</time>
      </trkpt>
      <trkpt lat="42.305867" lon="-8.804802">
        <ele>122.2</ele>
        <time>1970-01-01T02:41:21.000Z</time>
      </trkpt>
      <trkpt lat="42.305864" lon="-8.804794">
        <ele>122.4</ele>
        <time>1970-01-01T02:41:22.000Z</time>
      </trkpt>
      <trkpt lat="42.305862" lon="-8.804788">
        <ele>122.6</ele>
        <time>1970-01-01T02:41:23.000Z</time>
      </trkpt>
      <trkpt lat="42.305861" lon="-8.804784">
        <ele>122.6</ele>
        <time>1970-01-01T02:41:24.000Z</time>
      </trkpt>
      <trkpt lat="42.30586" lon="-8.804783">
        <ele>122.6</ele>
        <time>1970-01-01T02:41:25.000Z</time>
      </trkpt>
      <trkpt lat="42.305858" lon="-8.804782">
        <ele>122.6</ele>
        <time>1970-01-01T02:41:26.000Z</time>
      </trkpt>
      <trkpt lat="42.305857" lon="-8.804781">
        <ele>122.8</ele>
        <time>1970-01-01T02:41:27.000Z</time>
      </trkpt>
      <trkpt lat="42.305856" lon="-8.804778">
        <ele>122.8</ele>
        <time>1970-01-01T02:41:28.000Z</time>
      </trkpt>
      <trkpt lat="42.305855" lon="-8.804773">
        <ele>123.2</ele>
        <time>1970-01-01T02:41:29.000Z</time>
      </trkpt>
      <trkpt lat="42.305854" lon="-8.80477">
        <ele>123.4</ele>
        <time>1970-01-01T02:41:30.000Z</time>
      </trkpt>
      <trkpt lat="42.305856" lon="-8.804759">
        <ele>123.8</ele>
        <time>1970-01-01T02:41:31.000Z</time>
      </trkpt>
      <trkpt lat="42.305857" lon="-8.804752">
        <ele>124</ele>
        <time>1970-01-01T02:41:32.000Z</time>
      </trkpt>
      <trkpt lat="42.30586" lon="-8.804747">
        <ele>124.4</ele>
        <time>1970-01-01T02:41:33.000Z</time>
      </trkpt>
      <trkpt lat="42.305863" lon="-8.80474">
        <ele>124.8</ele>
        <time>1970-01-01T02:41:34.000Z</time>
      </trkpt>
      <trkpt lat="42.305865" lon="-8.804728">
        <ele>125</ele>
        <time>1970-01-01T02:41:35.000Z</time>
      </trkpt>
      <trkpt lat="42.305868" lon="-8.804716">
        <ele>125.2</ele>
        <time>1970-01-01T02:41:36.000Z</time>
      </trkpt>
      <trkpt lat="42.30587" lon="-8.804704">
        <ele>125.4</ele>
        <time>1970-01-01T02:41:37.000Z</time>
      </trkpt>
      <trkpt lat="42.305869" lon="-8.804694">
        <ele>125.4</ele>
        <time>1970-01-01T02:41:38.000Z</time>
      </trkpt>
      <trkpt lat="42.305867" lon="-8.804685">
        <ele>125.4</ele>
        <time>1970-01-01T02:41:39.000Z</time>
      </trkpt>
      <trkpt lat="42.305865" lon="-8.804677">
        <ele>125.4</ele>
        <time>1970-01-01T02:41:40.000Z</time>
      </trkpt>
      <trkpt lat="42.305859" lon="-8.804664">
        <ele>125.8</ele>
        <time>1970-01-01T02:41:41.000Z</time>
      </trkpt>
      <trkpt lat="42.305855" lon="-8.80465">
        <ele>126</ele>
        <time>1970-01-01T02:41:42.000Z</time>
      </trkpt>
      <trkpt lat="42.305852" lon="-8.804636">
        <ele>126.6</ele>
        <time>1970-01-01T02:41:43.000Z</time>
      </trkpt>
      <trkpt lat="42.30585" lon="-8.804621">
        <ele>126.8</ele>
        <time>1970-01-01T02:41:44.000Z</time>
      </trkpt>
      <trkpt lat="42.305847" lon="-8.80461">
        <ele>127</ele>
        <time>1970-01-01T02:41:45.000Z</time>
      </trkpt>
      <trkpt lat="42.305845" lon="-8.8046">
        <ele>127.2</ele>
        <time>1970-01-01T02:41:46.000Z</time>
      </trkpt>
      <trkpt lat="42.30584" lon="-8.804592">
        <ele>127.2</ele>
        <time>1970-01-01T02:41:47.000Z</time>
      </trkpt>
      <trkpt lat="42.305834" lon="-8.804582">
        <ele>127.4</ele>
        <time>1970-01-01T02:41:48.000Z</time>
      </trkpt>
      <trkpt lat="42.305827" lon="-8.804575">
        <ele>127.6</ele>
        <time>1970-01-01T02:41:49.000Z</time>
      </trkpt>
      <trkpt lat="42.305826" lon="-8.804571">
        <ele>127.8</ele>
        <time>1970-01-01T02:41:50.000Z</time>
      </trkpt>
      <trkpt lat="42.305825" lon="-8.804575">
        <ele>128.2</ele>
        <time>1970-01-01T02:41:51.000Z</time>
      </trkpt>
      <trkpt lat="42.305825" lon="-8.804581">
        <ele>128.6</ele>
        <time>1970-01-01T02:41:52.000Z</time>
      </trkpt>
      <trkpt lat="42.305826" lon="-8.80459">
        <ele>128.8</ele>
        <time>1970-01-01T02:41:53.000Z</time>
      </trkpt>
      <trkpt lat="42.305827" lon="-8.804596">
        <ele>129.2</ele>
        <time>1970-01-01T02:41:54.000Z</time>
      </trkpt>
      <trkpt lat="42.305837" lon="-8.804592">
        <ele>129.4</ele>
        <time>1970-01-01T02:41:55.000Z</time>
      </trkpt>
      <trkpt lat="42.305848" lon="-8.804586">
        <ele>129.4</ele>
        <time>1970-01-01T02:41:56.000Z</time>
      </trkpt>
      <trkpt lat="42.305857" lon="-8.80458">
        <ele>129.6</ele>
        <time>1970-01-01T02:41:57.000Z</time>
      </trkpt>
      <trkpt lat="42.305862" lon="-8.804581">
        <ele>129.8</ele>
        <time>1970-01-01T02:41:58.000Z</time>
      </trkpt>
      <trkpt lat="42.305866" lon="-8.804584">
        <ele>130</ele>
        <time>1970-01-01T02:41:59.000Z</time>
      </trkpt>
      <trkpt lat="42.305867" lon="-8.804586">
        <ele>130.2</ele>
        <time>1970-01-01T02:42:00.000Z</time>
      </trkpt>
      <trkpt lat="42.30587" lon="-8.804587">
        <ele>130.2</ele>
        <time>1970-01-01T02:42:01.000Z</time>
      </trkpt>
      <trkpt lat="42.305876" lon="-8.804578">
        <ele>130.4</ele>
        <time>1970-01-01T02:42:02.000Z</time>
      </trkpt>
      <trkpt lat="42.305882" lon="-8.804569">
        <ele>130.4</ele>
        <time>1970-01-01T02:42:03.000Z</time>
      </trkpt>
      <trkpt lat="42.305891" lon="-8.80456">
        <ele>130.6</ele>
        <time>1970-01-01T02:42:04.000Z</time>
      </trkpt>
      <trkpt lat="42.305897" lon="-8.804554">
        <ele>131</ele>
        <time>1970-01-01T02:42:05.000Z</time>
      </trkpt>
      <trkpt lat="42.3059" lon="-8.804548">
        <ele>131</ele>
        <time>1970-01-01T02:42:06.000Z</time>
      </trkpt>
      <trkpt lat="42.305903" lon="-8.804542">
        <ele>131</ele>
        <time>1970-01-01T02:42:07.000Z</time>
      </trkpt>
      <trkpt lat="42.305904" lon="-8.804536">
        <ele>131</ele>
        <time>1970-01-01T02:42:08.000Z</time>
      </trkpt>
      <trkpt lat="42.305902" lon="-8.80453">
        <ele>131</ele>
        <time>1970-01-01T02:42:09.000Z</time>
      </trkpt>
      <trkpt lat="42.305899" lon="-8.804527">
        <ele>131.2</ele>
        <time>1970-01-01T02:42:10.000Z</time>
      </trkpt>
      <trkpt lat="42.305898" lon="-8.804526">
        <ele>131</ele>
        <time>1970-01-01T02:42:11.000Z</time>
      </trkpt>
      <trkpt lat="42.305898" lon="-8.804527">
        <ele>131</ele>
        <time>1970-01-01T02:42:12.000Z</time>
      </trkpt>
      <trkpt lat="42.3059" lon="-8.80453">
        <ele>131</ele>
        <time>1970-01-01T02:42:13.000Z</time>
      </trkpt>
      <trkpt lat="42.305902" lon="-8.804532">
        <ele>131.2</ele>
        <time>1970-01-01T02:42:14.000Z</time>
      </trkpt>
      <trkpt lat="42.305902" lon="-8.804535">
        <ele>131.2</ele>
        <time>1970-01-01T02:42:15.000Z</time>
      </trkpt>
      <trkpt lat="42.305901" lon="-8.80454">
        <ele>131.2</ele>
        <time>1970-01-01T02:42:16.000Z</time>
      </trkpt>
      <trkpt lat="42.3059" lon="-8.804541">
        <ele>131.4</ele>
        <time>1970-01-01T02:42:17.000Z</time>
      </trkpt>
      <trkpt lat="42.305897" lon="-8.804541">
        <ele>131.4</ele>
        <time>1970-01-01T02:42:18.000Z</time>
      </trkpt>
      <trkpt lat="42.305896" lon="-8.804544">
        <ele>131.4</ele>
        <time>1970-01-01T02:42:19.000Z</time>
      </trkpt>
      <trkpt lat="42.305897" lon="-8.804549">
        <ele>131.4</ele>
        <time>1970-01-01T02:42:20.000Z</time>
      </trkpt>
      <trkpt lat="42.305898" lon="-8.804555">
        <ele>131.2</ele>
        <time>1970-01-01T02:42:21.000Z</time>
      </trkpt>
      <trkpt lat="42.305904" lon="-8.804559">
        <ele>131</ele>
        <time>1970-01-01T02:42:22.000Z</time>
      </trkpt>
      <trkpt lat="42.305908" lon="-8.80457">
        <ele>131</ele>
        <time>1970-01-01T02:42:23.000Z</time>
      </trkpt>
      <trkpt lat="42.305916" lon="-8.804581">
        <ele>131</ele>
        <time>1970-01-01T02:42:24.000Z</time>
      </trkpt>
      <trkpt lat="42.305921" lon="-8.804584">
        <ele>130.8</ele>
        <time>1970-01-01T02:42:25.000Z</time>
      </trkpt>
      <trkpt lat="42.305925" lon="-8.804588">
        <ele>130.8</ele>
        <time>1970-01-01T02:42:26.000Z</time>
      </trkpt>
      <trkpt lat="42.305927" lon="-8.804592">
        <ele>130.8</ele>
        <time>1970-01-01T02:42:27.000Z</time>
      </trkpt>
      <trkpt lat="42.305927" lon="-8.80459">
        <ele>130.8</ele>
        <time>1970-01-01T02:42:28.000Z</time>
      </trkpt>
      <trkpt lat="42.305925" lon="-8.804588">
        <ele>131</ele>
        <time>1970-01-01T02:42:29.000Z</time>
      </trkpt>
      <trkpt lat="42.305924" lon="-8.804586">
        <ele>131</ele>
        <time>1970-01-01T02:42:30.000Z</time>
      </trkpt>
      <trkpt lat="42.30592" lon="-8.804582">
        <ele>130.8</ele>
        <time>1970-01-01T02:42:31.000Z</time>
      </trkpt>
      <trkpt lat="42.305912" lon="-8.80457">
        <ele>130.6</ele>
        <time>1970-01-01T02:42:32.000Z</time>
      </trkpt>
      <trkpt lat="42.305905" lon="-8.804556">
        <ele>130.6</ele>
        <time>1970-01-01T02:42:33.000Z</time>
      </trkpt>
      <trkpt lat="42.305896" lon="-8.804544">
        <ele>130.8</ele>
        <time>1970-01-01T02:42:34.000Z</time>
      </trkpt>
      <trkpt lat="42.305891" lon="-8.804534">
        <ele>130.8</ele>
        <time>1970-01-01T02:42:35.000Z</time>
      </trkpt>
      <trkpt lat="42.305887" lon="-8.804527">
        <ele>130.6</ele>
        <time>1970-01-01T02:42:36.000Z</time>
      </trkpt>
      <trkpt lat="42.305881" lon="-8.804523">
        <ele>130.6</ele>
        <time>1970-01-01T02:42:37.000Z</time>
      </trkpt>
      <trkpt lat="42.305876" lon="-8.804524">
        <ele>130.4</ele>
        <time>1970-01-01T02:42:38.000Z</time>
      </trkpt>
      <trkpt lat="42.305872" lon="-8.804526">
        <ele>130.6</ele>
        <time>1970-01-01T02:42:39.000Z</time>
      </trkpt>
      <trkpt lat="42.305872" lon="-8.80453">
        <ele>130.8</ele>
        <time>1970-01-01T02:42:40.000Z</time>
      </trkpt>
      <trkpt lat="42.305871" lon="-8.804534">
        <ele>130.8</ele>
        <time>1970-01-01T02:42:41.000Z</time>
      </trkpt>
      <trkpt lat="42.305871" lon="-8.80454">
        <ele>131</ele>
        <time>1970-01-01T02:42:42.000Z</time>
      </trkpt>
      <trkpt lat="42.305871" lon="-8.80454">
        <ele>131</ele>
        <time>1970-01-01T02:42:43.000Z</time>
      </trkpt>
      <trkpt lat="42.305871" lon="-8.804541">
        <ele>131</ele>
        <time>1970-01-01T02:42:44.000Z</time>
      </trkpt>
      <trkpt lat="42.305868" lon="-8.80454">
        <ele>131.2</ele>
        <time>1970-01-01T02:42:45.000Z</time>
      </trkpt>
      <trkpt lat="42.305866" lon="-8.80454">
        <ele>131.2</ele>
        <time>1970-01-01T02:42:46.000Z</time>
      </trkpt>
      <trkpt lat="42.305867" lon="-8.80454">
        <ele>131.2</ele>
        <time>1970-01-01T02:42:47.000Z</time>
      </trkpt>
      <trkpt lat="42.30587" lon="-8.804538">
        <ele>131</ele>
        <time>1970-01-01T02:42:48.000Z</time>
      </trkpt>
      <trkpt lat="42.305874" lon="-8.804538">
        <ele>130.8</ele>
        <time>1970-01-01T02:42:49.000Z</time>
      </trkpt>
      <trkpt lat="42.305876" lon="-8.804538">
        <ele>131</ele>
        <time>1970-01-01T02:42:50.000Z</time>
      </trkpt>
      <trkpt lat="42.305878" lon="-8.804539">
        <ele>131</ele>
        <time>1970-01-01T02:42:51.000Z</time>
      </trkpt>
      <trkpt lat="42.305878" lon="-8.804542">
        <ele>131</ele>
        <time>1970-01-01T02:42:52.000Z</time>
      </trkpt>
      <trkpt lat="42.305874" lon="-8.804543">
        <ele>131.2</ele>
        <time>1970-01-01T02:42:53.000Z</time>
      </trkpt>
      <trkpt lat="42.305869" lon="-8.804544">
        <ele>131.2</ele>
        <time>1970-01-01T02:42:54.000Z</time>
      </trkpt>
      <trkpt lat="42.305861" lon="-8.804544">
        <ele>131.4</ele>
        <time>1970-01-01T02:42:55.000Z</time>
      </trkpt>
      <trkpt lat="42.305859" lon="-8.804545">
        <ele>131.4</ele>
        <time>1970-01-01T02:42:56.000Z</time>
      </trkpt>
      <trkpt lat="42.305863" lon="-8.804552">
        <ele>131.2</ele>
        <time>1970-01-01T02:42:57.000Z</time>
      </trkpt>
      <trkpt lat="42.305863" lon="-8.804552">
        <ele>131.2</ele>
        <time>1970-01-01T02:42:58.000Z</time>
      </trkpt>
      <trkpt lat="42.305836" lon="-8.804534">
        <ele>130.2</ele>
        <time>1970-01-01T02:44:46.000Z</time>
      </trkpt>
      <trkpt lat="42.305833" lon="-8.804534">
        <ele>130.2</ele>
        <time>1970-01-01T02:44:47.000Z</time>
      </trkpt>
      <trkpt lat="42.30583" lon="-8.804534">
        <ele>130.2</ele>
        <time>1970-01-01T02:44:48.000Z</time>
      </trkpt>
      <trkpt lat="42.305827" lon="-8.804538">
        <ele>130.2</ele>
        <time>1970-01-01T02:44:49.000Z</time>
      </trkpt>
      <trkpt lat="42.305819" lon="-8.804531">
        <ele>130.2</ele>
        <time>1970-01-01T02:44:50.000Z</time>
      </trkpt>
      <trkpt lat="42.305811" lon="-8.804521">
        <ele>130.2</ele>
        <time>1970-01-01T02:44:51.000Z</time>
      </trkpt>
      <trkpt lat="42.305804" lon="-8.804506">
        <ele>130.2</ele>
        <time>1970-01-01T02:44:52.000Z</time>
      </trkpt>
      <trkpt lat="42.305799" lon="-8.804495">
        <ele>130.2</ele>
        <time>1970-01-01T02:44:53.000Z</time>
      </trkpt>
      <trkpt lat="42.305793" lon="-8.804486">
        <ele>130.2</ele>
        <time>1970-01-01T02:44:54.000Z</time>
      </trkpt>
      <trkpt lat="42.305786" lon="-8.804477">
        <ele>130.2</ele>
        <time>1970-01-01T02:44:55.000Z</time>
      </trkpt>
      <trkpt lat="42.305782" lon="-8.804473">
        <ele>130.2</ele>
        <time>1970-01-01T02:44:56.000Z</time>
      </trkpt>
      <trkpt lat="42.305779" lon="-8.804469">
        <ele>130.2</ele>
        <time>1970-01-01T02:44:57.000Z</time>
      </trkpt>
      <trkpt lat="42.305779" lon="-8.804465">
        <ele>130.6</ele>
        <time>1970-01-01T02:44:58.000Z</time>
      </trkpt>
      <trkpt lat="42.305777" lon="-8.804455">
        <ele>131</ele>
        <time>1970-01-01T02:44:59.000Z</time>
      </trkpt>
      <trkpt lat="42.305775" lon="-8.804444">
        <ele>131.4</ele>
        <time>1970-01-01T02:45:00.000Z</time>
      </trkpt>
      <trkpt lat="42.305775" lon="-8.804432">
        <ele>131.4</ele>
        <time>1970-01-01T02:45:01.000Z</time>
      </trkpt>
      <trkpt lat="42.305774" lon="-8.804425">
        <ele>131.4</ele>
        <time>1970-01-01T02:45:02.000Z</time>
      </trkpt>
      <trkpt lat="42.305771" lon="-8.804421">
        <ele>131.4</ele>
        <time>1970-01-01T02:45:03.000Z</time>
      </trkpt>
      <trkpt lat="42.30577" lon="-8.80442">
        <ele>131.4</ele>
        <time>1970-01-01T02:45:04.000Z</time>
      </trkpt>
      <trkpt lat="42.305767" lon="-8.804419">
        <ele>131.4</ele>
        <time>1970-01-01T02:45:05.000Z</time>
      </trkpt>
      <trkpt lat="42.305768" lon="-8.80442">
        <ele>131.2</ele>
        <time>1970-01-01T02:45:06.000Z</time>
      </trkpt>
      <trkpt lat="42.305767" lon="-8.804417">
        <ele>131</ele>
        <time>1970-01-01T02:45:07.000Z</time>
      </trkpt>
      <trkpt lat="42.305768" lon="-8.804411">
        <ele>130.8</ele>
        <time>1970-01-01T02:45:08.000Z</time>
      </trkpt>
      <trkpt lat="42.305771" lon="-8.804399">
        <ele>130.8</ele>
        <time>1970-01-01T02:45:09.000Z</time>
      </trkpt>
      <trkpt lat="42.305772" lon="-8.804389">
        <ele>130.8</ele>
        <time>1970-01-01T02:45:10.000Z</time>
      </trkpt>
      <trkpt lat="42.305773" lon="-8.804382">
        <ele>130.6</ele>
        <time>1970-01-01T02:45:11.000Z</time>
      </trkpt>
      <trkpt lat="42.305772" lon="-8.804375">
        <ele>130.2</ele>
        <time>1970-01-01T02:45:12.000Z</time>
      </trkpt>
      <trkpt lat="42.305769" lon="-8.80437">
        <ele>129.8</ele>
        <time>1970-01-01T02:45:13.000Z</time>
      </trkpt>
      <trkpt lat="42.305763" lon="-8.804371">
        <ele>129.6</ele>
        <time>1970-01-01T02:45:14.000Z</time>
      </trkpt>
      <trkpt lat="42.305757" lon="-8.80437">
        <ele>129.4</ele>
        <time>1970-01-01T02:45:15.000Z</time>
      </trkpt>
      <trkpt lat="42.30575" lon="-8.804366">
        <ele>129.2</ele>
        <time>1970-01-01T02:45:16.000Z</time>
      </trkpt>
      <trkpt lat="42.305745" lon="-8.804363">
        <ele>128.8</ele>
        <time>1970-01-01T02:45:17.000Z</time>
      </trkpt>
      <trkpt lat="42.305739" lon="-8.804352">
        <ele>128.6</ele>
        <time>1970-01-01T02:45:18.000Z</time>
      </trkpt>
      <trkpt lat="42.305733" lon="-8.804345">
        <ele>128.2</ele>
        <time>1970-01-01T02:45:19.000Z</time>
      </trkpt>
      <trkpt lat="42.305728" lon="-8.804334">
        <ele>128.2</ele>
        <time>1970-01-01T02:45:20.000Z</time>
      </trkpt>
      <trkpt lat="42.305722" lon="-8.804325">
        <ele>127.8</ele>
        <time>1970-01-01T02:45:21.000Z</time>
      </trkpt>
      <trkpt lat="42.30572" lon="-8.804314">
        <ele>127.6</ele>
        <time>1970-01-01T02:45:22.000Z</time>
      </trkpt>
      <trkpt lat="42.305718" lon="-8.804306">
        <ele>127.2</ele>
        <time>1970-01-01T02:45:23.000Z</time>
      </trkpt>
      <trkpt lat="42.305715" lon="-8.804296">
        <ele>126.8</ele>
        <time>1970-01-01T02:45:24.000Z</time>
      </trkpt>
      <trkpt lat="42.305713" lon="-8.804288">
        <ele>126.6</ele>
        <time>1970-01-01T02:45:25.000Z</time>
      </trkpt>
      <trkpt lat="42.30571" lon="-8.804277">
        <ele>126.4</ele>
        <time>1970-01-01T02:45:26.000Z</time>
      </trkpt>
      <trkpt lat="42.30571" lon="-8.804265">
        <ele>126.2</ele>
        <time>1970-01-01T02:45:27.000Z</time>
      </trkpt>
      <trkpt lat="42.305703" lon="-8.804246">
        <ele>126</ele>
        <time>1970-01-01T02:45:28.000Z</time>
      </trkpt>
      <trkpt lat="42.305698" lon="-8.804218">
        <ele>125.8</ele>
        <time>1970-01-01T02:45:29.000Z</time>
      </trkpt>
      <trkpt lat="42.305693" lon="-8.804201">
        <ele>125.6</ele>
        <time>1970-01-01T02:45:30.000Z</time>
      </trkpt>
      <trkpt lat="42.305687" lon="-8.804183">
        <ele>125.2</ele>
        <time>1970-01-01T02:45:31.000Z</time>
      </trkpt>
      <trkpt lat="42.30568" lon="-8.804167">
        <ele>125</ele>
        <time>1970-01-01T02:45:32.000Z</time>
      </trkpt>
      <trkpt lat="42.305672" lon="-8.804141">
        <ele>124.8</ele>
        <time>1970-01-01T02:45:33.000Z</time>
      </trkpt>
      <trkpt lat="42.305665" lon="-8.804125">
        <ele>124.4</ele>
        <time>1970-01-01T02:45:34.000Z</time>
      </trkpt>
      <trkpt lat="42.305661" lon="-8.804109">
        <ele>124.2</ele>
        <time>1970-01-01T02:45:35.000Z</time>
      </trkpt>
      <trkpt lat="42.30566" lon="-8.804095">
        <ele>124</ele>
        <time>1970-01-01T02:45:36.000Z</time>
      </trkpt>
      <trkpt lat="42.305659" lon="-8.804087">
        <ele>123.8</ele>
        <time>1970-01-01T02:45:37.000Z</time>
      </trkpt>
      <trkpt lat="42.305655" lon="-8.804084">
        <ele>123.6</ele>
        <time>1970-01-01T02:45:38.000Z</time>
      </trkpt>
      <trkpt lat="42.305654" lon="-8.804081">
        <ele>123.6</ele>
        <time>1970-01-01T02:45:39.000Z</time>
      </trkpt>
      <trkpt lat="42.305658" lon="-8.804076">
        <ele>123.4</ele>
        <time>1970-01-01T02:45:40.000Z</time>
      </trkpt>
      <trkpt lat="42.305657" lon="-8.80407">
        <ele>123.2</ele>
        <time>1970-01-01T02:45:41.000Z</time>
      </trkpt>
      <trkpt lat="42.305658" lon="-8.804065">
        <ele>123</ele>
        <time>1970-01-01T02:45:42.000Z</time>
      </trkpt>
      <trkpt lat="42.30566" lon="-8.804056">
        <ele>123.2</ele>
        <time>1970-01-01T02:45:43.000Z</time>
      </trkpt>
      <trkpt lat="42.305662" lon="-8.804054">
        <ele>123.4</ele>
        <time>1970-01-01T02:45:44.000Z</time>
      </trkpt>
      <trkpt lat="42.305673" lon="-8.804056">
        <ele>123.4</ele>
        <time>1970-01-01T02:45:45.000Z</time>
      </trkpt>
      <trkpt lat="42.305675" lon="-8.804055">
        <ele>123.6</ele>
        <time>1970-01-01T02:45:46.000Z</time>
      </trkpt>
      <trkpt lat="42.305695" lon="-8.804037">
        <ele>123.6</ele>
        <time>1970-01-01T02:45:47.000Z</time>
      </trkpt>
      <trkpt lat="42.305703" lon="-8.804038">
        <ele>123.6</ele>
        <time>1970-01-01T02:45:48.000Z</time>
      </trkpt>
      <trkpt lat="42.305707" lon="-8.804045">
        <ele>123.6</ele>
        <time>1970-01-01T02:45:49.000Z</time>
      </trkpt>
      <trkpt lat="42.305708" lon="-8.804051">
        <ele>123.6</ele>
        <time>1970-01-01T02:45:50.000Z</time>
      </trkpt>
      <trkpt lat="42.305711" lon="-8.804051">
        <ele>123.6</ele>
        <time>1970-01-01T02:45:51.000Z</time>
      </trkpt>
      <trkpt lat="42.305713" lon="-8.804048">
        <ele>123.4</ele>
        <time>1970-01-01T02:45:52.000Z</time>
      </trkpt>
      <trkpt lat="42.305715" lon="-8.804047">
        <ele>123.4</ele>
        <time>1970-01-01T02:45:53.000Z</time>
      </trkpt>
      <trkpt lat="42.305718" lon="-8.804043">
        <ele>123.2</ele>
        <time>1970-01-01T02:45:54.000Z</time>
      </trkpt>
      <trkpt lat="42.305724" lon="-8.804038">
        <ele>123.2</ele>
        <time>1970-01-01T02:45:55.000Z</time>
      </trkpt>
      <trkpt lat="42.305733" lon="-8.804033">
        <ele>123.2</ele>
        <time>1970-01-01T02:45:56.000Z</time>
      </trkpt>
      <trkpt lat="42.305744" lon="-8.804026">
        <ele>123</ele>
        <time>1970-01-01T02:45:57.000Z</time>
      </trkpt>
      <trkpt lat="42.305751" lon="-8.804018">
        <ele>123</ele>
        <time>1970-01-01T02:45:58.000Z</time>
      </trkpt>
      <trkpt lat="42.305757" lon="-8.804012">
        <ele>122.8</ele>
        <time>1970-01-01T02:45:59.000Z</time>
      </trkpt>
      <trkpt lat="42.305763" lon="-8.804003">
        <ele>123</ele>
        <time>1970-01-01T02:46:00.000Z</time>
      </trkpt>
      <trkpt lat="42.305781" lon="-8.803994">
        <ele>123</ele>
        <time>1970-01-01T02:46:01.000Z</time>
      </trkpt>
      <trkpt lat="42.305788" lon="-8.803985">
        <ele>123</ele>
        <time>1970-01-01T02:46:02.000Z</time>
      </trkpt>
      <trkpt lat="42.305801" lon="-8.803977">
        <ele>123</ele>
        <time>1970-01-01T02:46:03.000Z</time>
      </trkpt>
      <trkpt lat="42.305818" lon="-8.803963">
        <ele>123</ele>
        <time>1970-01-01T02:46:04.000Z</time>
      </trkpt>
      <trkpt lat="42.305831" lon="-8.803953">
        <ele>122.6</ele>
        <time>1970-01-01T02:46:05.000Z</time>
      </trkpt>
      <trkpt lat="42.305846" lon="-8.803938">
        <ele>122</ele>
        <time>1970-01-01T02:46:06.000Z</time>
      </trkpt>
      <trkpt lat="42.305861" lon="-8.80393">
        <ele>121.6</ele>
        <time>1970-01-01T02:46:07.000Z</time>
      </trkpt>
      <trkpt lat="42.305874" lon="-8.80392">
        <ele>121.4</ele>
        <time>1970-01-01T02:46:08.000Z</time>
      </trkpt>
      <trkpt lat="42.305892" lon="-8.803911">
        <ele>121.2</ele>
        <time>1970-01-01T02:46:09.000Z</time>
      </trkpt>
      <trkpt lat="42.305916" lon="-8.803898">
        <ele>121.2</ele>
        <time>1970-01-01T02:46:10.000Z</time>
      </trkpt>
      <trkpt lat="42.305929" lon="-8.80389">
        <ele>121.2</ele>
        <time>1970-01-01T02:46:11.000Z</time>
      </trkpt>
      <trkpt lat="42.305945" lon="-8.803884">
        <ele>121</ele>
        <time>1970-01-01T02:46:12.000Z</time>
      </trkpt>
      <trkpt lat="42.305961" lon="-8.803874">
        <ele>120.8</ele>
        <time>1970-01-01T02:46:13.000Z</time>
      </trkpt>
      <trkpt lat="42.305981" lon="-8.803864">
        <ele>120.6</ele>
        <time>1970-01-01T02:46:14.000Z</time>
      </trkpt>
      <trkpt lat="42.306002" lon="-8.803843">
        <ele>120.4</ele>
        <time>1970-01-01T02:46:15.000Z</time>
      </trkpt>
      <trkpt lat="42.306017" lon="-8.803829">
        <ele>120.4</ele>
        <time>1970-01-01T02:46:16.000Z</time>
      </trkpt>
      <trkpt lat="42.30603" lon="-8.803816">
        <ele>120.4</ele>
        <time>1970-01-01T02:46:17.000Z</time>
      </trkpt>
      <trkpt lat="42.306045" lon="-8.803803">
        <ele>120.2</ele>
        <time>1970-01-01T02:46:18.000Z</time>
      </trkpt>
      <trkpt lat="42.306058" lon="-8.80379">
        <ele>120</ele>
        <time>1970-01-01T02:46:19.000Z</time>
      </trkpt>
      <trkpt lat="42.306068" lon="-8.80378">
        <ele>119.6</ele>
        <time>1970-01-01T02:46:20.000Z</time>
      </trkpt>
      <trkpt lat="42.306077" lon="-8.803772">
        <ele>119.4</ele>
        <time>1970-01-01T02:46:21.000Z</time>
      </trkpt>
      <trkpt lat="42.306089" lon="-8.803762">
        <ele>119.8</ele>
        <time>1970-01-01T02:46:22.000Z</time>
      </trkpt>
      <trkpt lat="42.306098" lon="-8.803754">
        <ele>119.6</ele>
        <time>1970-01-01T02:46:23.000Z</time>
      </trkpt>
      <trkpt lat="42.306109" lon="-8.803746">
        <ele>119.8</ele>
        <time>1970-01-01T02:46:24.000Z</time>
      </trkpt>
      <trkpt lat="42.306122" lon="-8.803737">
        <ele>119.6</ele>
        <time>1970-01-01T02:46:25.000Z</time>
      </trkpt>
      <trkpt lat="42.306136" lon="-8.803724">
        <ele>119.8</ele>
        <time>1970-01-01T02:46:26.000Z</time>
      </trkpt>
      <trkpt lat="42.30615" lon="-8.803708">
        <ele>120</ele>
        <time>1970-01-01T02:46:27.000Z</time>
      </trkpt>
      <trkpt lat="42.306166" lon="-8.803698">
        <ele>119.6</ele>
        <time>1970-01-01T02:46:28.000Z</time>
      </trkpt>
      <trkpt lat="42.306177" lon="-8.803689">
        <ele>119.6</ele>
        <time>1970-01-01T02:46:29.000Z</time>
      </trkpt>
      <trkpt lat="42.30619" lon="-8.803679">
        <ele>119.4</ele>
        <time>1970-01-01T02:46:30.000Z</time>
      </trkpt>
      <trkpt lat="42.3062" lon="-8.80367">
        <ele>119.2</ele>
        <time>1970-01-01T02:46:31.000Z</time>
      </trkpt>
      <trkpt lat="42.306208" lon="-8.803657">
        <ele>118.8</ele>
        <time>1970-01-01T02:46:32.000Z</time>
      </trkpt>
      <trkpt lat="42.30621" lon="-8.80364">
        <ele>118.6</ele>
        <time>1970-01-01T02:46:33.000Z</time>
      </trkpt>
      <trkpt lat="42.306214" lon="-8.803625">
        <ele>118.6</ele>
        <time>1970-01-01T02:46:34.000Z</time>
      </trkpt>
      <trkpt lat="42.306216" lon="-8.80361">
        <ele>118.4</ele>
        <time>1970-01-01T02:46:35.000Z</time>
      </trkpt>
      <trkpt lat="42.306218" lon="-8.803595">
        <ele>118.4</ele>
        <time>1970-01-01T02:46:36.000Z</time>
      </trkpt>
      <trkpt lat="42.306216" lon="-8.803581">
        <ele>118.2</ele>
        <time>1970-01-01T02:46:37.000Z</time>
      </trkpt>
      <trkpt lat="42.306219" lon="-8.803568">
        <ele>118.2</ele>
        <time>1970-01-01T02:46:38.000Z</time>
      </trkpt>
      <trkpt lat="42.30622" lon="-8.80355">
        <ele>118.2</ele>
        <time>1970-01-01T02:46:39.000Z</time>
      </trkpt>
      <trkpt lat="42.306221" lon="-8.803534">
        <ele>118.2</ele>
        <time>1970-01-01T02:46:40.000Z</time>
      </trkpt>
      <trkpt lat="42.306222" lon="-8.803514">
        <ele>118.2</ele>
        <time>1970-01-01T02:46:41.000Z</time>
      </trkpt>
      <trkpt lat="42.306225" lon="-8.803493">
        <ele>118.4</ele>
        <time>1970-01-01T02:46:42.000Z</time>
      </trkpt>
      <trkpt lat="42.30623" lon="-8.803475">
        <ele>118.4</ele>
        <time>1970-01-01T02:46:43.000Z</time>
      </trkpt>
      <trkpt lat="42.306237" lon="-8.803457">
        <ele>118.4</ele>
        <time>1970-01-01T02:46:44.000Z</time>
      </trkpt>
      <trkpt lat="42.306242" lon="-8.803442">
        <ele>118.4</ele>
        <time>1970-01-01T02:46:45.000Z</time>
      </trkpt>
      <trkpt lat="42.306246" lon="-8.803425">
        <ele>118.6</ele>
        <time>1970-01-01T02:46:46.000Z</time>
      </trkpt>
      <trkpt lat="42.306251" lon="-8.80341">
        <ele>118.6</ele>
        <time>1970-01-01T02:46:47.000Z</time>
      </trkpt>
      <trkpt lat="42.306256" lon="-8.803393">
        <ele>118.6</ele>
        <time>1970-01-01T02:46:48.000Z</time>
      </trkpt>
      <trkpt lat="42.306259" lon="-8.803377">
        <ele>118.2</ele>
        <time>1970-01-01T02:46:49.000Z</time>
      </trkpt>
      <trkpt lat="42.306262" lon="-8.803361">
        <ele>118.2</ele>
        <time>1970-01-01T02:46:50.000Z</time>
      </trkpt>
      <trkpt lat="42.306267" lon="-8.803343">
        <ele>117.8</ele>
        <time>1970-01-01T02:46:51.000Z</time>
      </trkpt>
      <trkpt lat="42.306272" lon="-8.803328">
        <ele>117.4</ele>
        <time>1970-01-01T02:46:52.000Z</time>
      </trkpt>
      <trkpt lat="42.306277" lon="-8.803312">
        <ele>117.4</ele>
        <time>1970-01-01T02:46:53.000Z</time>
      </trkpt>
      <trkpt lat="42.306282" lon="-8.803296">
        <ele>117.2</ele>
        <time>1970-01-01T02:46:54.000Z</time>
      </trkpt>
      <trkpt lat="42.30629" lon="-8.803283">
        <ele>116.6</ele>
        <time>1970-01-01T02:46:55.000Z</time>
      </trkpt>
      <trkpt lat="42.3063" lon="-8.803274">
        <ele>116.2</ele>
        <time>1970-01-01T02:46:56.000Z</time>
      </trkpt>
      <trkpt lat="42.306309" lon="-8.803264">
        <ele>116</ele>
        <time>1970-01-01T02:46:57.000Z</time>
      </trkpt>
      <trkpt lat="42.30632" lon="-8.803252">
        <ele>115.8</ele>
        <time>1970-01-01T02:46:58.000Z</time>
      </trkpt>
      <trkpt lat="42.30633" lon="-8.803239">
        <ele>115.6</ele>
        <time>1970-01-01T02:46:59.000Z</time>
      </trkpt>
      <trkpt lat="42.30634" lon="-8.803226">
        <ele>115</ele>
        <time>1970-01-01T02:47:00.000Z</time>
      </trkpt>
      <trkpt lat="42.306348" lon="-8.803217">
        <ele>114.8</ele>
        <time>1970-01-01T02:47:01.000Z</time>
      </trkpt>
      <trkpt lat="42.306351" lon="-8.803216">
        <ele>114.6</ele>
        <time>1970-01-01T02:47:02.000Z</time>
      </trkpt>
      <trkpt lat="42.306358" lon="-8.80321">
        <ele>114.6</ele>
        <time>1970-01-01T02:47:03.000Z</time>
      </trkpt>
      <trkpt lat="42.306367" lon="-8.803203">
        <ele>114.4</ele>
        <time>1970-01-01T02:47:04.000Z</time>
      </trkpt>
      <trkpt lat="42.306375" lon="-8.8032">
        <ele>114.2</ele>
        <time>1970-01-01T02:47:05.000Z</time>
      </trkpt>
      <trkpt lat="42.306383" lon="-8.803198">
        <ele>114</ele>
        <time>1970-01-01T02:47:06.000Z</time>
      </trkpt>
      <trkpt lat="42.306393" lon="-8.803195">
        <ele>114</ele>
        <time>1970-01-01T02:47:07.000Z</time>
      </trkpt>
      <trkpt lat="42.306401" lon="-8.803195">
        <ele>113.8</ele>
        <time>1970-01-01T02:47:08.000Z</time>
      </trkpt>
      <trkpt lat="42.306407" lon="-8.803195">
        <ele>113.8</ele>
        <time>1970-01-01T02:47:09.000Z</time>
      </trkpt>
      <trkpt lat="42.306411" lon="-8.803194">
        <ele>113.8</ele>
        <time>1970-01-01T02:47:10.000Z</time>
      </trkpt>
      <trkpt lat="42.306418" lon="-8.803197">
        <ele>113.8</ele>
        <time>1970-01-01T02:47:11.000Z</time>
      </trkpt>
      <trkpt lat="42.306427" lon="-8.803202">
        <ele>113.8</ele>
        <time>1970-01-01T02:47:12.000Z</time>
      </trkpt>
      <trkpt lat="42.306434" lon="-8.803207">
        <ele>113.8</ele>
        <time>1970-01-01T02:47:13.000Z</time>
      </trkpt>
      <trkpt lat="42.306436" lon="-8.803208">
        <ele>113.8</ele>
        <time>1970-01-01T02:47:14.000Z</time>
      </trkpt>
      <trkpt lat="42.306439" lon="-8.803205">
        <ele>113.8</ele>
        <time>1970-01-01T02:47:15.000Z</time>
      </trkpt>
      <trkpt lat="42.306444" lon="-8.803196">
        <ele>113.8</ele>
        <time>1970-01-01T02:47:16.000Z</time>
      </trkpt>
      <trkpt lat="42.306448" lon="-8.803181">
        <ele>113.8</ele>
        <time>1970-01-01T02:47:17.000Z</time>
      </trkpt>
      <trkpt lat="42.306459" lon="-8.803182">
        <ele>113.6</ele>
        <time>1970-01-01T02:47:18.000Z</time>
      </trkpt>
      <trkpt lat="42.30647" lon="-8.803176">
        <ele>113.2</ele>
        <time>1970-01-01T02:47:19.000Z</time>
      </trkpt>
      <trkpt lat="42.306481" lon="-8.803164">
        <ele>113.4</ele>
        <time>1970-01-01T02:47:20.000Z</time>
      </trkpt>
      <trkpt lat="42.306493" lon="-8.80315">
        <ele>113.2</ele>
        <time>1970-01-01T02:47:21.000Z</time>
      </trkpt>
      <trkpt lat="42.306505" lon="-8.803136">
        <ele>113</ele>
        <time>1970-01-01T02:47:22.000Z</time>
      </trkpt>
      <trkpt lat="42.306515" lon="-8.803123">
        <ele>113</ele>
        <time>1970-01-01T02:47:23.000Z</time>
      </trkpt>
      <trkpt lat="42.306521" lon="-8.803112">
        <ele>113</ele>
        <time>1970-01-01T02:47:24.000Z</time>
      </trkpt>
      <trkpt lat="42.30653" lon="-8.803097">
        <ele>113</ele>
        <time>1970-01-01T02:47:25.000Z</time>
      </trkpt>
      <trkpt lat="42.306538" lon="-8.803086">
        <ele>113</ele>
        <time>1970-01-01T02:47:26.000Z</time>
      </trkpt>
      <trkpt lat="42.306547" lon="-8.803073">
        <ele>113</ele>
        <time>1970-01-01T02:47:27.000Z</time>
      </trkpt>
      <trkpt lat="42.306557" lon="-8.803063">
        <ele>113</ele>
        <time>1970-01-01T02:47:28.000Z</time>
      </trkpt>
      <trkpt lat="42.306567" lon="-8.803057">
        <ele>113</ele>
        <time>1970-01-01T02:47:29.000Z</time>
      </trkpt>
      <trkpt lat="42.306578" lon="-8.803052">
        <ele>113.2</ele>
        <time>1970-01-01T02:47:30.000Z</time>
      </trkpt>
      <trkpt lat="42.306588" lon="-8.803043">
        <ele>113</ele>
        <time>1970-01-01T02:47:31.000Z</time>
      </trkpt>
      <trkpt lat="42.306597" lon="-8.803033">
        <ele>113</ele>
        <time>1970-01-01T02:47:32.000Z</time>
      </trkpt>
      <trkpt lat="42.306607" lon="-8.803026">
        <ele>113.2</ele>
        <time>1970-01-01T02:47:33.000Z</time>
      </trkpt>
      <trkpt lat="42.306616" lon="-8.80302">
        <ele>113.2</ele>
        <time>1970-01-01T02:47:34.000Z</time>
      </trkpt>
      <trkpt lat="42.306627" lon="-8.803014">
        <ele>113.2</ele>
        <time>1970-01-01T02:47:35.000Z</time>
      </trkpt>
      <trkpt lat="42.30664" lon="-8.803008">
        <ele>113.2</ele>
        <time>1970-01-01T02:47:36.000Z</time>
      </trkpt>
      <trkpt lat="42.306652" lon="-8.803">
        <ele>113</ele>
        <time>1970-01-01T02:47:37.000Z</time>
      </trkpt>
      <trkpt lat="42.306664" lon="-8.80299">
        <ele>113</ele>
        <time>1970-01-01T02:47:38.000Z</time>
      </trkpt>
      <trkpt lat="42.306677" lon="-8.802979">
        <ele>113.2</ele>
        <time>1970-01-01T02:47:39.000Z</time>
      </trkpt>
      <trkpt lat="42.306691" lon="-8.80297">
        <ele>113.2</ele>
        <time>1970-01-01T02:47:40.000Z</time>
      </trkpt>
      <trkpt lat="42.306709" lon="-8.802957">
        <ele>113.2</ele>
        <time>1970-01-01T02:47:41.000Z</time>
      </trkpt>
      <trkpt lat="42.30673" lon="-8.80295">
        <ele>113.2</ele>
        <time>1970-01-01T02:47:42.000Z</time>
      </trkpt>
      <trkpt lat="42.306747" lon="-8.802941">
        <ele>113.2</ele>
        <time>1970-01-01T02:47:43.000Z</time>
      </trkpt>
      <trkpt lat="42.306762" lon="-8.802933">
        <ele>113.2</ele>
        <time>1970-01-01T02:47:44.000Z</time>
      </trkpt>
      <trkpt lat="42.306778" lon="-8.802929">
        <ele>113.6</ele>
        <time>1970-01-01T02:47:45.000Z</time>
      </trkpt>
      <trkpt lat="42.306792" lon="-8.802927">
        <ele>113.6</ele>
        <time>1970-01-01T02:47:46.000Z</time>
      </trkpt>
      <trkpt lat="42.306808" lon="-8.802928">
        <ele>113.8</ele>
        <time>1970-01-01T02:47:47.000Z</time>
      </trkpt>
      <trkpt lat="42.306821" lon="-8.802929">
        <ele>113.6</ele>
        <time>1970-01-01T02:47:48.000Z</time>
      </trkpt>
      <trkpt lat="42.306833" lon="-8.80293">
        <ele>113.4</ele>
        <time>1970-01-01T02:47:49.000Z</time>
      </trkpt>
      <trkpt lat="42.306845" lon="-8.802929">
        <ele>113.6</ele>
        <time>1970-01-01T02:47:50.000Z</time>
      </trkpt>
      <trkpt lat="42.306853" lon="-8.802923">
        <ele>113.6</ele>
        <time>1970-01-01T02:47:51.000Z</time>
      </trkpt>
      <trkpt lat="42.306858" lon="-8.802912">
        <ele>113.6</ele>
        <time>1970-01-01T02:47:52.000Z</time>
      </trkpt>
      <trkpt lat="42.306866" lon="-8.8029">
        <ele>113.6</ele>
        <time>1970-01-01T02:47:53.000Z</time>
      </trkpt>
      <trkpt lat="42.306875" lon="-8.802891">
        <ele>113.4</ele>
        <time>1970-01-01T02:47:54.000Z</time>
      </trkpt>
      <trkpt lat="42.306881" lon="-8.802879">
        <ele>113.4</ele>
        <time>1970-01-01T02:47:55.000Z</time>
      </trkpt>
      <trkpt lat="42.306884" lon="-8.802866">
        <ele>113.4</ele>
        <time>1970-01-01T02:47:56.000Z</time>
      </trkpt>
      <trkpt lat="42.306884" lon="-8.802856">
        <ele>113.4</ele>
        <time>1970-01-01T02:47:57.000Z</time>
      </trkpt>
      <trkpt lat="42.306885" lon="-8.80284">
        <ele>113.4</ele>
        <time>1970-01-01T02:47:58.000Z</time>
      </trkpt>
      <trkpt lat="42.306875" lon="-8.802819">
        <ele>113.4</ele>
        <time>1970-01-01T02:47:59.000Z</time>
      </trkpt>
      <trkpt lat="42.306861" lon="-8.802805">
        <ele>113.4</ele>
        <time>1970-01-01T02:48:00.000Z</time>
      </trkpt>
      <trkpt lat="42.306845" lon="-8.80279">
        <ele>113.4</ele>
        <time>1970-01-01T02:48:01.000Z</time>
      </trkpt>
      <trkpt lat="42.306829" lon="-8.802781">
        <ele>113.6</ele>
        <time>1970-01-01T02:48:02.000Z</time>
      </trkpt>
      <trkpt lat="42.306814" lon="-8.802775">
        <ele>113.8</ele>
        <time>1970-01-01T02:48:03.000Z</time>
      </trkpt>
      <trkpt lat="42.306799" lon="-8.80277">
        <ele>114</ele>
        <time>1970-01-01T02:48:04.000Z</time>
      </trkpt>
      <trkpt lat="42.306788" lon="-8.802762">
        <ele>114.6</ele>
        <time>1970-01-01T02:48:05.000Z</time>
      </trkpt>
      <trkpt lat="42.306778" lon="-8.802754">
        <ele>114.8</ele>
        <time>1970-01-01T02:48:06.000Z</time>
      </trkpt>
      <trkpt lat="42.306768" lon="-8.802746">
        <ele>115.2</ele>
        <time>1970-01-01T02:48:07.000Z</time>
      </trkpt>
      <trkpt lat="42.306758" lon="-8.802738">
        <ele>115.6</ele>
        <time>1970-01-01T02:48:08.000Z</time>
      </trkpt>
      <trkpt lat="42.306745" lon="-8.802734">
        <ele>115.8</ele>
        <time>1970-01-01T02:48:09.000Z</time>
      </trkpt>
      <trkpt lat="42.306734" lon="-8.802731">
        <ele>116</ele>
        <time>1970-01-01T02:48:10.000Z</time>
      </trkpt>
      <trkpt lat="42.306723" lon="-8.80273">
        <ele>116</ele>
        <time>1970-01-01T02:48:11.000Z</time>
      </trkpt>
      <trkpt lat="42.306714" lon="-8.80273">
        <ele>116.2</ele>
        <time>1970-01-01T02:48:12.000Z</time>
      </trkpt>
      <trkpt lat="42.306707" lon="-8.802729">
        <ele>116.4</ele>
        <time>1970-01-01T02:48:13.000Z</time>
      </trkpt>
      <trkpt lat="42.306703" lon="-8.802727">
        <ele>116.6</ele>
        <time>1970-01-01T02:48:14.000Z</time>
      </trkpt>
      <trkpt lat="42.306694" lon="-8.802724">
        <ele>116.6</ele>
        <time>1970-01-01T02:48:15.000Z</time>
      </trkpt>
      <trkpt lat="42.306683" lon="-8.802724">
        <ele>116.6</ele>
        <time>1970-01-01T02:48:16.000Z</time>
      </trkpt>
      <trkpt lat="42.306671" lon="-8.80273">
        <ele>116.8</ele>
        <time>1970-01-01T02:48:17.000Z</time>
      </trkpt>
      <trkpt lat="42.306657" lon="-8.802736">
        <ele>116.8</ele>
        <time>1970-01-01T02:48:18.000Z</time>
      </trkpt>
      <trkpt lat="42.30664" lon="-8.80274">
        <ele>116.8</ele>
        <time>1970-01-01T02:48:19.000Z</time>
      </trkpt>
      <trkpt lat="42.306624" lon="-8.802743">
        <ele>116.8</ele>
        <time>1970-01-01T02:48:20.000Z</time>
      </trkpt>
      <trkpt lat="42.306612" lon="-8.802742">
        <ele>116.8</ele>
        <time>1970-01-01T02:48:21.000Z</time>
      </trkpt>
      <trkpt lat="42.306599" lon="-8.80274">
        <ele>116.8</ele>
        <time>1970-01-01T02:48:22.000Z</time>
      </trkpt>
      <trkpt lat="42.306585" lon="-8.802741">
        <ele>116.6</ele>
        <time>1970-01-01T02:48:23.000Z</time>
      </trkpt>
      <trkpt lat="42.306573" lon="-8.802747">
        <ele>116.8</ele>
        <time>1970-01-01T02:48:24.000Z</time>
      </trkpt>
      <trkpt lat="42.30656" lon="-8.802754">
        <ele>117</ele>
        <time>1970-01-01T02:48:25.000Z</time>
      </trkpt>
      <trkpt lat="42.306544" lon="-8.802758">
        <ele>117.4</ele>
        <time>1970-01-01T02:48:26.000Z</time>
      </trkpt>
      <trkpt lat="42.306527" lon="-8.802757">
        <ele>117.4</ele>
        <time>1970-01-01T02:48:27.000Z</time>
      </trkpt>
      <trkpt lat="42.306511" lon="-8.802755">
        <ele>117.4</ele>
        <time>1970-01-01T02:48:28.000Z</time>
      </trkpt>
      <trkpt lat="42.306497" lon="-8.802752">
        <ele>117.4</ele>
        <time>1970-01-01T02:48:29.000Z</time>
      </trkpt>
      <trkpt lat="42.306484" lon="-8.80275">
        <ele>117.4</ele>
        <time>1970-01-01T02:48:30.000Z</time>
      </trkpt>
      <trkpt lat="42.306475" lon="-8.802749">
        <ele>117.4</ele>
        <time>1970-01-01T02:48:31.000Z</time>
      </trkpt>
      <trkpt lat="42.306466" lon="-8.802747">
        <ele>117.6</ele>
        <time>1970-01-01T02:48:32.000Z</time>
      </trkpt>
      <trkpt lat="42.306455" lon="-8.802748">
        <ele>117.6</ele>
        <time>1970-01-01T02:48:33.000Z</time>
      </trkpt>
      <trkpt lat="42.306442" lon="-8.802745">
        <ele>117.6</ele>
        <time>1970-01-01T02:48:34.000Z</time>
      </trkpt>
      <trkpt lat="42.306429" lon="-8.802742">
        <ele>117.6</ele>
        <time>1970-01-01T02:48:35.000Z</time>
      </trkpt>
      <trkpt lat="42.306416" lon="-8.802741">
        <ele>117.6</ele>
        <time>1970-01-01T02:48:36.000Z</time>
      </trkpt>
      <trkpt lat="42.306403" lon="-8.802744">
        <ele>117.6</ele>
        <time>1970-01-01T02:48:37.000Z</time>
      </trkpt>
      <trkpt lat="42.306389" lon="-8.802747">
        <ele>117.6</ele>
        <time>1970-01-01T02:48:38.000Z</time>
      </trkpt>
      <trkpt lat="42.306374" lon="-8.802749">
        <ele>117.4</ele>
        <time>1970-01-01T02:48:39.000Z</time>
      </trkpt>
      <trkpt lat="42.30636" lon="-8.802751">
        <ele>117.6</ele>
        <time>1970-01-01T02:48:40.000Z</time>
      </trkpt>
      <trkpt lat="42.306345" lon="-8.802754">
        <ele>118</ele>
        <time>1970-01-01T02:48:41.000Z</time>
      </trkpt>
      <trkpt lat="42.306331" lon="-8.802753">
        <ele>118</ele>
        <time>1970-01-01T02:48:42.000Z</time>
      </trkpt>
      <trkpt lat="42.306317" lon="-8.802749">
        <ele>118.2</ele>
        <time>1970-01-01T02:48:43.000Z</time>
      </trkpt>
      <trkpt lat="42.306303" lon="-8.802739">
        <ele>118.2</ele>
        <time>1970-01-01T02:48:44.000Z</time>
      </trkpt>
      <trkpt lat="42.306292" lon="-8.802732">
        <ele>118.4</ele>
        <time>1970-01-01T02:48:45.000Z</time>
      </trkpt>
      <trkpt lat="42.306282" lon="-8.802723">
        <ele>118.4</ele>
        <time>1970-01-01T02:48:46.000Z</time>
      </trkpt>
      <trkpt lat="42.306273" lon="-8.802716">
        <ele>118.6</ele>
        <time>1970-01-01T02:48:47.000Z</time>
      </trkpt>
      <trkpt lat="42.306265" lon="-8.802709">
        <ele>118.8</ele>
        <time>1970-01-01T02:48:48.000Z</time>
      </trkpt>
      <trkpt lat="42.306257" lon="-8.802705">
        <ele>118.8</ele>
        <time>1970-01-01T02:48:49.000Z</time>
      </trkpt>
      <trkpt lat="42.306246" lon="-8.802702">
        <ele>118.8</ele>
        <time>1970-01-01T02:48:50.000Z</time>
      </trkpt>
      <trkpt lat="42.306232" lon="-8.802695">
        <ele>119</ele>
        <time>1970-01-01T02:48:51.000Z</time>
      </trkpt>
      <trkpt lat="42.306217" lon="-8.802688">
        <ele>119</ele>
        <time>1970-01-01T02:48:52.000Z</time>
      </trkpt>
      <trkpt lat="42.306203" lon="-8.802678">
        <ele>119</ele>
        <time>1970-01-01T02:48:53.000Z</time>
      </trkpt>
      <trkpt lat="42.306191" lon="-8.802671">
        <ele>119</ele>
        <time>1970-01-01T02:48:54.000Z</time>
      </trkpt>
      <trkpt lat="42.30618" lon="-8.802663">
        <ele>119.2</ele>
        <time>1970-01-01T02:48:55.000Z</time>
      </trkpt>
      <trkpt lat="42.30617" lon="-8.802654">
        <ele>119.2</ele>
        <time>1970-01-01T02:48:56.000Z</time>
      </trkpt>
      <trkpt lat="42.306161" lon="-8.802645">
        <ele>119.2</ele>
        <time>1970-01-01T02:48:57.000Z</time>
      </trkpt>
      <trkpt lat="42.306152" lon="-8.802631">
        <ele>119.2</ele>
        <time>1970-01-01T02:48:58.000Z</time>
      </trkpt>
      <trkpt lat="42.306142" lon="-8.802619">
        <ele>119.4</ele>
        <time>1970-01-01T02:48:59.000Z</time>
      </trkpt>
      <trkpt lat="42.306131" lon="-8.802607">
        <ele>119.6</ele>
        <time>1970-01-01T02:49:00.000Z</time>
      </trkpt>
      <trkpt lat="42.306125" lon="-8.802602">
        <ele>119.6</ele>
        <time>1970-01-01T02:49:01.000Z</time>
      </trkpt>
      <trkpt lat="42.30612" lon="-8.802597">
        <ele>119.6</ele>
        <time>1970-01-01T02:49:02.000Z</time>
      </trkpt>
      <trkpt lat="42.306113" lon="-8.802589">
        <ele>119.6</ele>
        <time>1970-01-01T02:49:03.000Z</time>
      </trkpt>
      <trkpt lat="42.306105" lon="-8.802582">
        <ele>119.8</ele>
        <time>1970-01-01T02:49:04.000Z</time>
      </trkpt>
      <trkpt lat="42.306099" lon="-8.802574">
        <ele>120</ele>
        <time>1970-01-01T02:49:05.000Z</time>
      </trkpt>
      <trkpt lat="42.306091" lon="-8.802567">
        <ele>120.4</ele>
        <time>1970-01-01T02:49:06.000Z</time>
      </trkpt>
      <trkpt lat="42.306082" lon="-8.802557">
        <ele>120.8</ele>
        <time>1970-01-01T02:49:07.000Z</time>
      </trkpt>
      <trkpt lat="42.306072" lon="-8.802545">
        <ele>120.8</ele>
        <time>1970-01-01T02:49:08.000Z</time>
      </trkpt>
      <trkpt lat="42.306067" lon="-8.802534">
        <ele>121</ele>
        <time>1970-01-01T02:49:09.000Z</time>
      </trkpt>
      <trkpt lat="42.306062" lon="-8.802525">
        <ele>120.8</ele>
        <time>1970-01-01T02:49:10.000Z</time>
      </trkpt>
      <trkpt lat="42.306059" lon="-8.802516">
        <ele>120.8</ele>
        <time>1970-01-01T02:49:11.000Z</time>
      </trkpt>
      <trkpt lat="42.306058" lon="-8.802505">
        <ele>121</ele>
        <time>1970-01-01T02:49:12.000Z</time>
      </trkpt>
      <trkpt lat="42.306056" lon="-8.802493">
        <ele>121</ele>
        <time>1970-01-01T02:49:13.000Z</time>
      </trkpt>
      <trkpt lat="42.306052" lon="-8.802479">
        <ele>121.6</ele>
        <time>1970-01-01T02:49:14.000Z</time>
      </trkpt>
      <trkpt lat="42.306048" lon="-8.802467">
        <ele>122.2</ele>
        <time>1970-01-01T02:49:15.000Z</time>
      </trkpt>
      <trkpt lat="42.306042" lon="-8.802458">
        <ele>122.6</ele>
        <time>1970-01-01T02:49:16.000Z</time>
      </trkpt>
      <trkpt lat="42.306037" lon="-8.802448">
        <ele>122.8</ele>
        <time>1970-01-01T02:49:17.000Z</time>
      </trkpt>
      <trkpt lat="42.306033" lon="-8.802443">
        <ele>122.8</ele>
        <time>1970-01-01T02:49:18.000Z</time>
      </trkpt>
      <trkpt lat="42.306027" lon="-8.802436">
        <ele>123</ele>
        <time>1970-01-01T02:49:19.000Z</time>
      </trkpt>
      <trkpt lat="42.306019" lon="-8.802424">
        <ele>123.2</ele>
        <time>1970-01-01T02:49:20.000Z</time>
      </trkpt>
      <trkpt lat="42.306011" lon="-8.80241">
        <ele>123.4</ele>
        <time>1970-01-01T02:49:21.000Z</time>
      </trkpt>
      <trkpt lat="42.306006" lon="-8.802396">
        <ele>123.6</ele>
        <time>1970-01-01T02:49:22.000Z</time>
      </trkpt>
      <trkpt lat="42.305999" lon="-8.802386">
        <ele>123.6</ele>
        <time>1970-01-01T02:49:23.000Z</time>
      </trkpt>
      <trkpt lat="42.305994" lon="-8.802372">
        <ele>123.8</ele>
        <time>1970-01-01T02:49:24.000Z</time>
      </trkpt>
      <trkpt lat="42.305989" lon="-8.802356">
        <ele>124.4</ele>
        <time>1970-01-01T02:49:25.000Z</time>
      </trkpt>
      <trkpt lat="42.305984" lon="-8.802342">
        <ele>124.6</ele>
        <time>1970-01-01T02:49:26.000Z</time>
      </trkpt>
      <trkpt lat="42.305979" lon="-8.802331">
        <ele>124.8</ele>
        <time>1970-01-01T02:49:27.000Z</time>
      </trkpt>
      <trkpt lat="42.305976" lon="-8.802318">
        <ele>125</ele>
        <time>1970-01-01T02:49:28.000Z</time>
      </trkpt>
      <trkpt lat="42.305974" lon="-8.802304">
        <ele>125.2</ele>
        <time>1970-01-01T02:49:29.000Z</time>
      </trkpt>
      <trkpt lat="42.305971" lon="-8.802295">
        <ele>125.2</ele>
        <time>1970-01-01T02:49:30.000Z</time>
      </trkpt>
      <trkpt lat="42.305969" lon="-8.802283">
        <ele>125.4</ele>
        <time>1970-01-01T02:49:31.000Z</time>
      </trkpt>
      <trkpt lat="42.305967" lon="-8.80227">
        <ele>125.6</ele>
        <time>1970-01-01T02:49:32.000Z</time>
      </trkpt>
      <trkpt lat="42.305965" lon="-8.802255">
        <ele>126</ele>
        <time>1970-01-01T02:49:33.000Z</time>
      </trkpt>
      <trkpt lat="42.305964" lon="-8.802244">
        <ele>126.2</ele>
        <time>1970-01-01T02:49:34.000Z</time>
      </trkpt>
      <trkpt lat="42.305961" lon="-8.802233">
        <ele>126.2</ele>
        <time>1970-01-01T02:49:35.000Z</time>
      </trkpt>
      <trkpt lat="42.305961" lon="-8.802225">
        <ele>126.6</ele>
        <time>1970-01-01T02:49:36.000Z</time>
      </trkpt>
      <trkpt lat="42.30596" lon="-8.802218">
        <ele>126.6</ele>
        <time>1970-01-01T02:49:37.000Z</time>
      </trkpt>
      <trkpt lat="42.30596" lon="-8.80221">
        <ele>127</ele>
        <time>1970-01-01T02:49:38.000Z</time>
      </trkpt>
      <trkpt lat="42.305954" lon="-8.802195">
        <ele>127.2</ele>
        <time>1970-01-01T02:49:39.000Z</time>
      </trkpt>
      <trkpt lat="42.305948" lon="-8.802181">
        <ele>127.6</ele>
        <time>1970-01-01T02:49:40.000Z</time>
      </trkpt>
      <trkpt lat="42.305937" lon="-8.80217">
        <ele>127.8</ele>
        <time>1970-01-01T02:49:41.000Z</time>
      </trkpt>
      <trkpt lat="42.305922" lon="-8.802159">
        <ele>128.2</ele>
        <time>1970-01-01T02:49:42.000Z</time>
      </trkpt>
      <trkpt lat="42.305907" lon="-8.802151">
        <ele>128.6</ele>
        <time>1970-01-01T02:49:43.000Z</time>
      </trkpt>
      <trkpt lat="42.305892" lon="-8.802144">
        <ele>129</ele>
        <time>1970-01-01T02:49:44.000Z</time>
      </trkpt>
      <trkpt lat="42.305877" lon="-8.802133">
        <ele>129.2</ele>
        <time>1970-01-01T02:49:45.000Z</time>
      </trkpt>
      <trkpt lat="42.305864" lon="-8.802121">
        <ele>129.4</ele>
        <time>1970-01-01T02:49:46.000Z</time>
      </trkpt>
      <trkpt lat="42.305853" lon="-8.802113">
        <ele>129.8</ele>
        <time>1970-01-01T02:49:47.000Z</time>
      </trkpt>
      <trkpt lat="42.305842" lon="-8.802104">
        <ele>130</ele>
        <time>1970-01-01T02:49:48.000Z</time>
      </trkpt>
      <trkpt lat="42.305833" lon="-8.802095">
        <ele>130</ele>
        <time>1970-01-01T02:49:49.000Z</time>
      </trkpt>
      <trkpt lat="42.305826" lon="-8.802088">
        <ele>130.4</ele>
        <time>1970-01-01T02:49:50.000Z</time>
      </trkpt>
      <trkpt lat="42.305814" lon="-8.802083">
        <ele>130.6</ele>
        <time>1970-01-01T02:49:51.000Z</time>
      </trkpt>
      <trkpt lat="42.305804" lon="-8.802076">
        <ele>130.6</ele>
        <time>1970-01-01T02:49:52.000Z</time>
      </trkpt>
      <trkpt lat="42.305797" lon="-8.802068">
        <ele>130.8</ele>
        <time>1970-01-01T02:49:53.000Z</time>
      </trkpt>
      <trkpt lat="42.305794" lon="-8.802063">
        <ele>131</ele>
        <time>1970-01-01T02:49:54.000Z</time>
      </trkpt>
      <trkpt lat="42.305791" lon="-8.802055">
        <ele>131.6</ele>
        <time>1970-01-01T02:49:55.000Z</time>
      </trkpt>
      <trkpt lat="42.30579" lon="-8.802046">
        <ele>131.8</ele>
        <time>1970-01-01T02:49:56.000Z</time>
      </trkpt>
      <trkpt lat="42.305793" lon="-8.802033">
        <ele>132.2</ele>
        <time>1970-01-01T02:49:57.000Z</time>
      </trkpt>
      <trkpt lat="42.305792" lon="-8.802023">
        <ele>132.6</ele>
        <time>1970-01-01T02:49:58.000Z</time>
      </trkpt>
      <trkpt lat="42.305788" lon="-8.802012">
        <ele>132.6</ele>
        <time>1970-01-01T02:49:59.000Z</time>
      </trkpt>
      <trkpt lat="42.305785" lon="-8.801999">
        <ele>132.8</ele>
        <time>1970-01-01T02:50:00.000Z</time>
      </trkpt>
      <trkpt lat="42.305787" lon="-8.801986">
        <ele>132.8</ele>
        <time>1970-01-01T02:50:01.000Z</time>
      </trkpt>
      <trkpt lat="42.305788" lon="-8.801982">
        <ele>132.8</ele>
        <time>1970-01-01T02:50:02.000Z</time>
      </trkpt>
      <trkpt lat="42.305787" lon="-8.801978">
        <ele>133.2</ele>
        <time>1970-01-01T02:50:03.000Z</time>
      </trkpt>
      <trkpt lat="42.305789" lon="-8.801969">
        <ele>133.4</ele>
        <time>1970-01-01T02:50:04.000Z</time>
      </trkpt>
      <trkpt lat="42.305793" lon="-8.801953">
        <ele>133.8</ele>
        <time>1970-01-01T02:50:05.000Z</time>
      </trkpt>
      <trkpt lat="42.305797" lon="-8.801936">
        <ele>134.2</ele>
        <time>1970-01-01T02:50:06.000Z</time>
      </trkpt>
      <trkpt lat="42.3058" lon="-8.80192">
        <ele>134.4</ele>
        <time>1970-01-01T02:50:07.000Z</time>
      </trkpt>
      <trkpt lat="42.305802" lon="-8.801907">
        <ele>134.6</ele>
        <time>1970-01-01T02:50:08.000Z</time>
      </trkpt>
      <trkpt lat="42.305802" lon="-8.801894">
        <ele>134.8</ele>
        <time>1970-01-01T02:50:09.000Z</time>
      </trkpt>
      <trkpt lat="42.305802" lon="-8.801882">
        <ele>135</ele>
        <time>1970-01-01T02:50:10.000Z</time>
      </trkpt>
      <trkpt lat="42.305804" lon="-8.801871">
        <ele>135.2</ele>
        <time>1970-01-01T02:50:11.000Z</time>
      </trkpt>
      <trkpt lat="42.305804" lon="-8.801858">
        <ele>135.6</ele>
        <time>1970-01-01T02:50:12.000Z</time>
      </trkpt>
      <trkpt lat="42.305805" lon="-8.801847">
        <ele>135.8</ele>
        <time>1970-01-01T02:50:13.000Z</time>
      </trkpt>
      <trkpt lat="42.305805" lon="-8.801835">
        <ele>136</ele>
        <time>1970-01-01T02:50:14.000Z</time>
      </trkpt>
      <trkpt lat="42.305804" lon="-8.801823">
        <ele>136.2</ele>
        <time>1970-01-01T02:50:15.000Z</time>
      </trkpt>
      <trkpt lat="42.305806" lon="-8.801807">
        <ele>136.4</ele>
        <time>1970-01-01T02:50:16.000Z</time>
      </trkpt>
      <trkpt lat="42.305804" lon="-8.801792">
        <ele>136.6</ele>
        <time>1970-01-01T02:50:17.000Z</time>
      </trkpt>
      <trkpt lat="42.305801" lon="-8.801776">
        <ele>137.6</ele>
        <time>1970-01-01T02:50:18.000Z</time>
      </trkpt>
      <trkpt lat="42.3058" lon="-8.801761">
        <ele>138</ele>
        <time>1970-01-01T02:50:19.000Z</time>
      </trkpt>
      <trkpt lat="42.305795" lon="-8.801747">
        <ele>138.2</ele>
        <time>1970-01-01T02:50:20.000Z</time>
      </trkpt>
      <trkpt lat="42.305789" lon="-8.801737">
        <ele>138.6</ele>
        <time>1970-01-01T02:50:21.000Z</time>
      </trkpt>
      <trkpt lat="42.305782" lon="-8.801726">
        <ele>138.6</ele>
        <time>1970-01-01T02:50:22.000Z</time>
      </trkpt>
      <trkpt lat="42.305775" lon="-8.801716">
        <ele>138.6</ele>
        <time>1970-01-01T02:50:23.000Z</time>
      </trkpt>
      <trkpt lat="42.30577" lon="-8.801705">
        <ele>138.8</ele>
        <time>1970-01-01T02:50:24.000Z</time>
      </trkpt>
      <trkpt lat="42.305767" lon="-8.801697">
        <ele>139</ele>
        <time>1970-01-01T02:50:25.000Z</time>
      </trkpt>
      <trkpt lat="42.305767" lon="-8.801685">
        <ele>139.2</ele>
        <time>1970-01-01T02:50:26.000Z</time>
      </trkpt>
      <trkpt lat="42.305766" lon="-8.801669">
        <ele>139.6</ele>
        <time>1970-01-01T02:50:27.000Z</time>
      </trkpt>
      <trkpt lat="42.305762" lon="-8.801649">
        <ele>139.6</ele>
        <time>1970-01-01T02:50:28.000Z</time>
      </trkpt>
      <trkpt lat="42.305756" lon="-8.801633">
        <ele>139.8</ele>
        <time>1970-01-01T02:50:29.000Z</time>
      </trkpt>
      <trkpt lat="42.305754" lon="-8.80162">
        <ele>140</ele>
        <time>1970-01-01T02:50:30.000Z</time>
      </trkpt>
      <trkpt lat="42.305753" lon="-8.801606">
        <ele>140.2</ele>
        <time>1970-01-01T02:50:31.000Z</time>
      </trkpt>
      <trkpt lat="42.30576" lon="-8.801593">
        <ele>140.4</ele>
        <time>1970-01-01T02:50:32.000Z</time>
      </trkpt>
      <trkpt lat="42.305769" lon="-8.801586">
        <ele>140.4</ele>
        <time>1970-01-01T02:50:33.000Z</time>
      </trkpt>
      <trkpt lat="42.305774" lon="-8.801575">
        <ele>140.6</ele>
        <time>1970-01-01T02:50:34.000Z</time>
      </trkpt>
      <trkpt lat="42.305779" lon="-8.801566">
        <ele>140.8</ele>
        <time>1970-01-01T02:50:35.000Z</time>
      </trkpt>
      <trkpt lat="42.305784" lon="-8.80156">
        <ele>141</ele>
        <time>1970-01-01T02:50:36.000Z</time>
      </trkpt>
      <trkpt lat="42.305791" lon="-8.801555">
        <ele>141.2</ele>
        <time>1970-01-01T02:50:37.000Z</time>
      </trkpt>
      <trkpt lat="42.305799" lon="-8.801546">
        <ele>141.4</ele>
        <time>1970-01-01T02:50:38.000Z</time>
      </trkpt>
      <trkpt lat="42.305806" lon="-8.801537">
        <ele>141.6</ele>
        <time>1970-01-01T02:50:39.000Z</time>
      </trkpt>
      <trkpt lat="42.305811" lon="-8.801528">
        <ele>141.6</ele>
        <time>1970-01-01T02:50:40.000Z</time>
      </trkpt>
      <trkpt lat="42.305817" lon="-8.801524">
        <ele>141.8</ele>
        <time>1970-01-01T02:50:41.000Z</time>
      </trkpt>
      <trkpt lat="42.305822" lon="-8.801517">
        <ele>142.2</ele>
        <time>1970-01-01T02:50:42.000Z</time>
      </trkpt>
      <trkpt lat="42.305827" lon="-8.801513">
        <ele>142.6</ele>
        <time>1970-01-01T02:50:43.000Z</time>
      </trkpt>
      <trkpt lat="42.305836" lon="-8.801504">
        <ele>142.6</ele>
        <time>1970-01-01T02:50:44.000Z</time>
      </trkpt>
      <trkpt lat="42.305844" lon="-8.801497">
        <ele>142.8</ele>
        <time>1970-01-01T02:50:45.000Z</time>
      </trkpt>
      <trkpt lat="42.305854" lon="-8.801487">
        <ele>143</ele>
        <time>1970-01-01T02:50:46.000Z</time>
      </trkpt>
      <trkpt lat="42.305865" lon="-8.801472">
        <ele>143.4</ele>
        <time>1970-01-01T02:50:47.000Z</time>
      </trkpt>
      <trkpt lat="42.305869" lon="-8.801459">
        <ele>143.6</ele>
        <time>1970-01-01T02:50:48.000Z</time>
      </trkpt>
      <trkpt lat="42.305877" lon="-8.801443">
        <ele>143.6</ele>
        <time>1970-01-01T02:50:49.000Z</time>
      </trkpt>
      <trkpt lat="42.305884" lon="-8.801436">
        <ele>143.8</ele>
        <time>1970-01-01T02:50:50.000Z</time>
      </trkpt>
      <trkpt lat="42.305891" lon="-8.801425">
        <ele>144.2</ele>
        <time>1970-01-01T02:50:51.000Z</time>
      </trkpt>
      <trkpt lat="42.305898" lon="-8.801414">
        <ele>144.4</ele>
        <time>1970-01-01T02:50:52.000Z</time>
      </trkpt>
      <trkpt lat="42.305905" lon="-8.801403">
        <ele>144.8</ele>
        <time>1970-01-01T02:50:53.000Z</time>
      </trkpt>
      <trkpt lat="42.305914" lon="-8.801388">
        <ele>144.8</ele>
        <time>1970-01-01T02:50:54.000Z</time>
      </trkpt>
      <trkpt lat="42.305919" lon="-8.801378">
        <ele>144.8</ele>
        <time>1970-01-01T02:50:55.000Z</time>
      </trkpt>
      <trkpt lat="42.305923" lon="-8.801366">
        <ele>144.6</ele>
        <time>1970-01-01T02:50:56.000Z</time>
      </trkpt>
      <trkpt lat="42.305925" lon="-8.80136">
        <ele>144.8</ele>
        <time>1970-01-01T02:50:57.000Z</time>
      </trkpt>
      <trkpt lat="42.30593" lon="-8.801347">
        <ele>145</ele>
        <time>1970-01-01T02:50:58.000Z</time>
      </trkpt>
      <trkpt lat="42.305935" lon="-8.801329">
        <ele>145</ele>
        <time>1970-01-01T02:50:59.000Z</time>
      </trkpt>
      <trkpt lat="42.305936" lon="-8.801307">
        <ele>145.4</ele>
        <time>1970-01-01T02:51:00.000Z</time>
      </trkpt>
      <trkpt lat="42.305938" lon="-8.80129">
        <ele>145.8</ele>
        <time>1970-01-01T02:51:01.000Z</time>
      </trkpt>
      <trkpt lat="42.305944" lon="-8.801277">
        <ele>146</ele>
        <time>1970-01-01T02:51:02.000Z</time>
      </trkpt>
      <trkpt lat="42.30595" lon="-8.801267">
        <ele>146.2</ele>
        <time>1970-01-01T02:51:03.000Z</time>
      </trkpt>
      <trkpt lat="42.305956" lon="-8.801253">
        <ele>146.4</ele>
        <time>1970-01-01T02:51:04.000Z</time>
      </trkpt>
      <trkpt lat="42.305962" lon="-8.80124">
        <ele>146.4</ele>
        <time>1970-01-01T02:51:05.000Z</time>
      </trkpt>
      <trkpt lat="42.305966" lon="-8.801222">
        <ele>147</ele>
        <time>1970-01-01T02:51:06.000Z</time>
      </trkpt>
      <trkpt lat="42.305969" lon="-8.801205">
        <ele>147.2</ele>
        <time>1970-01-01T02:51:07.000Z</time>
      </trkpt>
      <trkpt lat="42.30597" lon="-8.801191">
        <ele>147.4</ele>
        <time>1970-01-01T02:51:08.000Z</time>
      </trkpt>
      <trkpt lat="42.305972" lon="-8.801178">
        <ele>147.4</ele>
        <time>1970-01-01T02:51:09.000Z</time>
      </trkpt>
      <trkpt lat="42.305972" lon="-8.801165">
        <ele>147.6</ele>
        <time>1970-01-01T02:51:10.000Z</time>
      </trkpt>
      <trkpt lat="42.305972" lon="-8.801152">
        <ele>148</ele>
        <time>1970-01-01T02:51:11.000Z</time>
      </trkpt>
      <trkpt lat="42.305972" lon="-8.801136">
        <ele>148.6</ele>
        <time>1970-01-01T02:51:12.000Z</time>
      </trkpt>
      <trkpt lat="42.305976" lon="-8.801118">
        <ele>149</ele>
        <time>1970-01-01T02:51:13.000Z</time>
      </trkpt>
      <trkpt lat="42.305977" lon="-8.801105">
        <ele>149.2</ele>
        <time>1970-01-01T02:51:14.000Z</time>
      </trkpt>
      <trkpt lat="42.305978" lon="-8.801092">
        <ele>149.2</ele>
        <time>1970-01-01T02:51:15.000Z</time>
      </trkpt>
      <trkpt lat="42.305978" lon="-8.80108">
        <ele>149.4</ele>
        <time>1970-01-01T02:51:16.000Z</time>
      </trkpt>
      <trkpt lat="42.305978" lon="-8.801066">
        <ele>149.6</ele>
        <time>1970-01-01T02:51:17.000Z</time>
      </trkpt>
      <trkpt lat="42.305977" lon="-8.801053">
        <ele>149.8</ele>
        <time>1970-01-01T02:51:18.000Z</time>
      </trkpt>
      <trkpt lat="42.305977" lon="-8.80104">
        <ele>150</ele>
        <time>1970-01-01T02:51:19.000Z</time>
      </trkpt>
      <trkpt lat="42.305977" lon="-8.801026">
        <ele>150.2</ele>
        <time>1970-01-01T02:51:20.000Z</time>
      </trkpt>
      <trkpt lat="42.305976" lon="-8.801012">
        <ele>150.2</ele>
        <time>1970-01-01T02:51:21.000Z</time>
      </trkpt>
      <trkpt lat="42.305978" lon="-8.800997">
        <ele>150.4</ele>
        <time>1970-01-01T02:51:22.000Z</time>
      </trkpt>
      <trkpt lat="42.305982" lon="-8.800983">
        <ele>150.4</ele>
        <time>1970-01-01T02:51:23.000Z</time>
      </trkpt>
      <trkpt lat="42.305985" lon="-8.800971">
        <ele>150.6</ele>
        <time>1970-01-01T02:51:24.000Z</time>
      </trkpt>
      <trkpt lat="42.305988" lon="-8.800956">
        <ele>150.8</ele>
        <time>1970-01-01T02:51:25.000Z</time>
      </trkpt>
      <trkpt lat="42.305993" lon="-8.800939">
        <ele>150.8</ele>
        <time>1970-01-01T02:51:26.000Z</time>
      </trkpt>
      <trkpt lat="42.305996" lon="-8.800924">
        <ele>151</ele>
        <time>1970-01-01T02:51:27.000Z</time>
      </trkpt>
      <trkpt lat="42.305997" lon="-8.800909">
        <ele>151.4</ele>
        <time>1970-01-01T02:51:28.000Z</time>
      </trkpt>
      <trkpt lat="42.305999" lon="-8.800898">
        <ele>151.6</ele>
        <time>1970-01-01T02:51:29.000Z</time>
      </trkpt>
      <trkpt lat="42.306004" lon="-8.800882">
        <ele>151.8</ele>
        <time>1970-01-01T02:51:30.000Z</time>
      </trkpt>
      <trkpt lat="42.306007" lon="-8.800865">
        <ele>152</ele>
        <time>1970-01-01T02:51:31.000Z</time>
      </trkpt>
      <trkpt lat="42.306009" lon="-8.800848">
        <ele>152.2</ele>
        <time>1970-01-01T02:51:32.000Z</time>
      </trkpt>
      <trkpt lat="42.306011" lon="-8.800833">
        <ele>152.4</ele>
        <time>1970-01-01T02:51:33.000Z</time>
      </trkpt>
      <trkpt lat="42.306012" lon="-8.800814">
        <ele>152.6</ele>
        <time>1970-01-01T02:51:34.000Z</time>
      </trkpt>
      <trkpt lat="42.306013" lon="-8.800791">
        <ele>152.8</ele>
        <time>1970-01-01T02:51:35.000Z</time>
      </trkpt>
      <trkpt lat="42.306016" lon="-8.800762">
        <ele>152.8</ele>
        <time>1970-01-01T02:51:36.000Z</time>
      </trkpt>
      <trkpt lat="42.306018" lon="-8.800736">
        <ele>153</ele>
        <time>1970-01-01T02:51:37.000Z</time>
      </trkpt>
      <trkpt lat="42.30602" lon="-8.800716">
        <ele>153.2</ele>
        <time>1970-01-01T02:51:38.000Z</time>
      </trkpt>
      <trkpt lat="42.306022" lon="-8.800702">
        <ele>153.4</ele>
        <time>1970-01-01T02:51:39.000Z</time>
      </trkpt>
      <trkpt lat="42.306023" lon="-8.800686">
        <ele>153.4</ele>
        <time>1970-01-01T02:51:40.000Z</time>
      </trkpt>
      <trkpt lat="42.306024" lon="-8.800674">
        <ele>153.8</ele>
        <time>1970-01-01T02:51:41.000Z</time>
      </trkpt>
      <trkpt lat="42.306023" lon="-8.800661">
        <ele>154</ele>
        <time>1970-01-01T02:51:42.000Z</time>
      </trkpt>
      <trkpt lat="42.306022" lon="-8.800646">
        <ele>154.2</ele>
        <time>1970-01-01T02:51:43.000Z</time>
      </trkpt>
      <trkpt lat="42.306022" lon="-8.800632">
        <ele>154.2</ele>
        <time>1970-01-01T02:51:44.000Z</time>
      </trkpt>
      <trkpt lat="42.306024" lon="-8.80062">
        <ele>154.4</ele>
        <time>1970-01-01T02:51:45.000Z</time>
      </trkpt>
      <trkpt lat="42.306025" lon="-8.800609">
        <ele>154.4</ele>
        <time>1970-01-01T02:51:46.000Z</time>
      </trkpt>
      <trkpt lat="42.306028" lon="-8.800597">
        <ele>154.8</ele>
        <time>1970-01-01T02:51:47.000Z</time>
      </trkpt>
      <trkpt lat="42.306032" lon="-8.800583">
        <ele>154.8</ele>
        <time>1970-01-01T02:51:48.000Z</time>
      </trkpt>
      <trkpt lat="42.306037" lon="-8.800568">
        <ele>155</ele>
        <time>1970-01-01T02:51:49.000Z</time>
      </trkpt>
      <trkpt lat="42.306041" lon="-8.800553">
        <ele>155.2</ele>
        <time>1970-01-01T02:51:50.000Z</time>
      </trkpt>
      <trkpt lat="42.306046" lon="-8.80054">
        <ele>155.4</ele>
        <time>1970-01-01T02:51:51.000Z</time>
      </trkpt>
      <trkpt lat="42.306051" lon="-8.800527">
        <ele>155.6</ele>
        <time>1970-01-01T02:51:52.000Z</time>
      </trkpt>
      <trkpt lat="42.306061" lon="-8.800511">
        <ele>155.8</ele>
        <time>1970-01-01T02:51:53.000Z</time>
      </trkpt>
      <trkpt lat="42.306077" lon="-8.800495">
        <ele>156</ele>
        <time>1970-01-01T02:51:54.000Z</time>
      </trkpt>
      <trkpt lat="42.306092" lon="-8.800476">
        <ele>156</ele>
        <time>1970-01-01T02:51:55.000Z</time>
      </trkpt>
      <trkpt lat="42.3061" lon="-8.800464">
        <ele>156.2</ele>
        <time>1970-01-01T02:51:56.000Z</time>
      </trkpt>
      <trkpt lat="42.306105" lon="-8.800451">
        <ele>156.4</ele>
        <time>1970-01-01T02:51:57.000Z</time>
      </trkpt>
      <trkpt lat="42.306113" lon="-8.800435">
        <ele>156.4</ele>
        <time>1970-01-01T02:51:58.000Z</time>
      </trkpt>
      <trkpt lat="42.306122" lon="-8.800423">
        <ele>156.4</ele>
        <time>1970-01-01T02:51:59.000Z</time>
      </trkpt>
      <trkpt lat="42.30613" lon="-8.800412">
        <ele>156.4</ele>
        <time>1970-01-01T02:52:00.000Z</time>
      </trkpt>
      <trkpt lat="42.306136" lon="-8.8004">
        <ele>156.6</ele>
        <time>1970-01-01T02:52:01.000Z</time>
      </trkpt>
      <trkpt lat="42.30614" lon="-8.800388">
        <ele>156.6</ele>
        <time>1970-01-01T02:52:02.000Z</time>
      </trkpt>
      <trkpt lat="42.306141" lon="-8.800376">
        <ele>156.6</ele>
        <time>1970-01-01T02:52:03.000Z</time>
      </trkpt>
      <trkpt lat="42.306145" lon="-8.80036">
        <ele>156.6</ele>
        <time>1970-01-01T02:52:04.000Z</time>
      </trkpt>
      <trkpt lat="42.306149" lon="-8.800345">
        <ele>156.8</ele>
        <time>1970-01-01T02:52:05.000Z</time>
      </trkpt>
      <trkpt lat="42.306154" lon="-8.80033">
        <ele>156.8</ele>
        <time>1970-01-01T02:52:06.000Z</time>
      </trkpt>
      <trkpt lat="42.306158" lon="-8.80031">
        <ele>157</ele>
        <time>1970-01-01T02:52:07.000Z</time>
      </trkpt>
      <trkpt lat="42.306166" lon="-8.800288">
        <ele>157.2</ele>
        <time>1970-01-01T02:52:08.000Z</time>
      </trkpt>
      <trkpt lat="42.306171" lon="-8.800264">
        <ele>157.4</ele>
        <time>1970-01-01T02:52:09.000Z</time>
      </trkpt>
      <trkpt lat="42.306173" lon="-8.800243">
        <ele>157.6</ele>
        <time>1970-01-01T02:52:10.000Z</time>
      </trkpt>
      <trkpt lat="42.306175" lon="-8.800224">
        <ele>157.8</ele>
        <time>1970-01-01T02:52:11.000Z</time>
      </trkpt>
      <trkpt lat="42.306175" lon="-8.800205">
        <ele>157.8</ele>
        <time>1970-01-01T02:52:12.000Z</time>
      </trkpt>
      <trkpt lat="42.306179" lon="-8.800186">
        <ele>158.4</ele>
        <time>1970-01-01T02:52:13.000Z</time>
      </trkpt>
      <trkpt lat="42.30618" lon="-8.800163">
        <ele>158.6</ele>
        <time>1970-01-01T02:52:14.000Z</time>
      </trkpt>
      <trkpt lat="42.306184" lon="-8.800138">
        <ele>158.8</ele>
        <time>1970-01-01T02:52:15.000Z</time>
      </trkpt>
      <trkpt lat="42.306187" lon="-8.800114">
        <ele>159.2</ele>
        <time>1970-01-01T02:52:16.000Z</time>
      </trkpt>
      <trkpt lat="42.306189" lon="-8.800091">
        <ele>159.4</ele>
        <time>1970-01-01T02:52:17.000Z</time>
      </trkpt>
      <trkpt lat="42.306195" lon="-8.800073">
        <ele>159.4</ele>
        <time>1970-01-01T02:52:18.000Z</time>
      </trkpt>
      <trkpt lat="42.306197" lon="-8.80006">
        <ele>159.6</ele>
        <time>1970-01-01T02:52:19.000Z</time>
      </trkpt>
      <trkpt lat="42.306201" lon="-8.800046">
        <ele>159.6</ele>
        <time>1970-01-01T02:52:20.000Z</time>
      </trkpt>
      <trkpt lat="42.306206" lon="-8.800031">
        <ele>159.6</ele>
        <time>1970-01-01T02:52:21.000Z</time>
      </trkpt>
      <trkpt lat="42.30621" lon="-8.800019">
        <ele>159.8</ele>
        <time>1970-01-01T02:52:22.000Z</time>
      </trkpt>
      <trkpt lat="42.306215" lon="-8.800004">
        <ele>160</ele>
        <time>1970-01-01T02:52:23.000Z</time>
      </trkpt>
      <trkpt lat="42.306217" lon="-8.799988">
        <ele>160.2</ele>
        <time>1970-01-01T02:52:24.000Z</time>
      </trkpt>
      <trkpt lat="42.30622" lon="-8.79997">
        <ele>160.6</ele>
        <time>1970-01-01T02:52:25.000Z</time>
      </trkpt>
      <trkpt lat="42.306223" lon="-8.799949">
        <ele>160.8</ele>
        <time>1970-01-01T02:52:26.000Z</time>
      </trkpt>
      <trkpt lat="42.306229" lon="-8.799942">
        <ele>161</ele>
        <time>1970-01-01T02:52:27.000Z</time>
      </trkpt>
      <trkpt lat="42.306236" lon="-8.799934">
        <ele>161.2</ele>
        <time>1970-01-01T02:52:28.000Z</time>
      </trkpt>
      <trkpt lat="42.306242" lon="-8.799927">
        <ele>161.2</ele>
        <time>1970-01-01T02:52:29.000Z</time>
      </trkpt>
      <trkpt lat="42.306247" lon="-8.79992">
        <ele>161.4</ele>
        <time>1970-01-01T02:52:30.000Z</time>
      </trkpt>
      <trkpt lat="42.306254" lon="-8.799911">
        <ele>161.4</ele>
        <time>1970-01-01T02:52:31.000Z</time>
      </trkpt>
      <trkpt lat="42.30626" lon="-8.799897">
        <ele>161.4</ele>
        <time>1970-01-01T02:52:32.000Z</time>
      </trkpt>
      <trkpt lat="42.306264" lon="-8.799883">
        <ele>161.4</ele>
        <time>1970-01-01T02:52:33.000Z</time>
      </trkpt>
      <trkpt lat="42.306263" lon="-8.799867">
        <ele>161.6</ele>
        <time>1970-01-01T02:52:34.000Z</time>
      </trkpt>
      <trkpt lat="42.306263" lon="-8.799852">
        <ele>161.6</ele>
        <time>1970-01-01T02:52:35.000Z</time>
      </trkpt>
      <trkpt lat="42.30626" lon="-8.799834">
        <ele>161.8</ele>
        <time>1970-01-01T02:52:36.000Z</time>
      </trkpt>
      <trkpt lat="42.306256" lon="-8.799817">
        <ele>161.8</ele>
        <time>1970-01-01T02:52:37.000Z</time>
      </trkpt>
      <trkpt lat="42.306251" lon="-8.799801">
        <ele>161.8</ele>
        <time>1970-01-01T02:52:38.000Z</time>
      </trkpt>
      <trkpt lat="42.306247" lon="-8.799785">
        <ele>162.4</ele>
        <time>1970-01-01T02:52:39.000Z</time>
      </trkpt>
      <trkpt lat="42.306244" lon="-8.799768">
        <ele>162.8</ele>
        <time>1970-01-01T02:52:40.000Z</time>
      </trkpt>
      <trkpt lat="42.306243" lon="-8.799751">
        <ele>163.2</ele>
        <time>1970-01-01T02:52:41.000Z</time>
      </trkpt>
      <trkpt lat="42.30624" lon="-8.799736">
        <ele>163.4</ele>
        <time>1970-01-01T02:52:42.000Z</time>
      </trkpt>
      <trkpt lat="42.306238" lon="-8.799724">
        <ele>163.6</ele>
        <time>1970-01-01T02:52:43.000Z</time>
      </trkpt>
      <trkpt lat="42.306238" lon="-8.799713">
        <ele>163.8</ele>
        <time>1970-01-01T02:52:44.000Z</time>
      </trkpt>
      <trkpt lat="42.30624" lon="-8.7997">
        <ele>164.2</ele>
        <time>1970-01-01T02:52:45.000Z</time>
      </trkpt>
      <trkpt lat="42.30624" lon="-8.799692">
        <ele>164.8</ele>
        <time>1970-01-01T02:52:46.000Z</time>
      </trkpt>
      <trkpt lat="42.306241" lon="-8.799682">
        <ele>165.2</ele>
        <time>1970-01-01T02:52:47.000Z</time>
      </trkpt>
      <trkpt lat="42.306245" lon="-8.799676">
        <ele>165.4</ele>
        <time>1970-01-01T02:52:48.000Z</time>
      </trkpt>
      <trkpt lat="42.306248" lon="-8.799668">
        <ele>165.6</ele>
        <time>1970-01-01T02:52:49.000Z</time>
      </trkpt>
      <trkpt lat="42.30625" lon="-8.799658">
        <ele>165.6</ele>
        <time>1970-01-01T02:52:50.000Z</time>
      </trkpt>
      <trkpt lat="42.306257" lon="-8.799645">
        <ele>165.6</ele>
        <time>1970-01-01T02:52:51.000Z</time>
      </trkpt>
      <trkpt lat="42.306264" lon="-8.79963">
        <ele>165.8</ele>
        <time>1970-01-01T02:52:52.000Z</time>
      </trkpt>
      <trkpt lat="42.306265" lon="-8.799614">
        <ele>165.8</ele>
        <time>1970-01-01T02:52:53.000Z</time>
      </trkpt>
      <trkpt lat="42.30627" lon="-8.799598">
        <ele>166</ele>
        <time>1970-01-01T02:52:54.000Z</time>
      </trkpt>
      <trkpt lat="42.306273" lon="-8.799581">
        <ele>166.4</ele>
        <time>1970-01-01T02:52:55.000Z</time>
      </trkpt>
      <trkpt lat="42.306273" lon="-8.799565">
        <ele>167</ele>
        <time>1970-01-01T02:52:56.000Z</time>
      </trkpt>
      <trkpt lat="42.306273" lon="-8.799549">
        <ele>167.4</ele>
        <time>1970-01-01T02:52:57.000Z</time>
      </trkpt>
      <trkpt lat="42.306269" lon="-8.799534">
        <ele>167.6</ele>
        <time>1970-01-01T02:52:58.000Z</time>
      </trkpt>
      <trkpt lat="42.30627" lon="-8.799521">
        <ele>168</ele>
        <time>1970-01-01T02:52:59.000Z</time>
      </trkpt>
      <trkpt lat="42.306273" lon="-8.799509">
        <ele>168.2</ele>
        <time>1970-01-01T02:53:00.000Z</time>
      </trkpt>
      <trkpt lat="42.306276" lon="-8.799492">
        <ele>168.4</ele>
        <time>1970-01-01T02:53:01.000Z</time>
      </trkpt>
      <trkpt lat="42.306279" lon="-8.799477">
        <ele>168.4</ele>
        <time>1970-01-01T02:53:02.000Z</time>
      </trkpt>
      <trkpt lat="42.306286" lon="-8.799462">
        <ele>168.6</ele>
        <time>1970-01-01T02:53:03.000Z</time>
      </trkpt>
      <trkpt lat="42.306296" lon="-8.799446">
        <ele>168.6</ele>
        <time>1970-01-01T02:53:04.000Z</time>
      </trkpt>
      <trkpt lat="42.306308" lon="-8.79943">
        <ele>168.6</ele>
        <time>1970-01-01T02:53:05.000Z</time>
      </trkpt>
      <trkpt lat="42.306319" lon="-8.799414">
        <ele>168.6</ele>
        <time>1970-01-01T02:53:06.000Z</time>
      </trkpt>
      <trkpt lat="42.306324" lon="-8.799402">
        <ele>168.8</ele>
        <time>1970-01-01T02:53:07.000Z</time>
      </trkpt>
      <trkpt lat="42.306333" lon="-8.799385">
        <ele>169</ele>
        <time>1970-01-01T02:53:08.000Z</time>
      </trkpt>
      <trkpt lat="42.306339" lon="-8.79937">
        <ele>169.2</ele>
        <time>1970-01-01T02:53:09.000Z</time>
      </trkpt>
      <trkpt lat="42.306344" lon="-8.799358">
        <ele>169.6</ele>
        <time>1970-01-01T02:53:10.000Z</time>
      </trkpt>
      <trkpt lat="42.306347" lon="-8.799345">
        <ele>169.8</ele>
        <time>1970-01-01T02:53:11.000Z</time>
      </trkpt>
      <trkpt lat="42.306348" lon="-8.79933">
        <ele>170</ele>
        <time>1970-01-01T02:53:12.000Z</time>
      </trkpt>
      <trkpt lat="42.306351" lon="-8.799316">
        <ele>170.4</ele>
        <time>1970-01-01T02:53:13.000Z</time>
      </trkpt>
      <trkpt lat="42.306353" lon="-8.799299">
        <ele>170.6</ele>
        <time>1970-01-01T02:53:14.000Z</time>
      </trkpt>
      <trkpt lat="42.306355" lon="-8.799282">
        <ele>170.8</ele>
        <time>1970-01-01T02:53:15.000Z</time>
      </trkpt>
      <trkpt lat="42.30636" lon="-8.799265">
        <ele>170.8</ele>
        <time>1970-01-01T02:53:16.000Z</time>
      </trkpt>
      <trkpt lat="42.306365" lon="-8.799248">
        <ele>170.8</ele>
        <time>1970-01-01T02:53:17.000Z</time>
      </trkpt>
      <trkpt lat="42.306368" lon="-8.79923">
        <ele>170.8</ele>
        <time>1970-01-01T02:53:18.000Z</time>
      </trkpt>
      <trkpt lat="42.30637" lon="-8.799211">
        <ele>170.8</ele>
        <time>1970-01-01T02:53:19.000Z</time>
      </trkpt>
      <trkpt lat="42.306372" lon="-8.799191">
        <ele>170.8</ele>
        <time>1970-01-01T02:53:20.000Z</time>
      </trkpt>
      <trkpt lat="42.306372" lon="-8.799173">
        <ele>170.8</ele>
        <time>1970-01-01T02:53:21.000Z</time>
      </trkpt>
      <trkpt lat="42.306368" lon="-8.799159">
        <ele>170.8</ele>
        <time>1970-01-01T02:53:22.000Z</time>
      </trkpt>
      <trkpt lat="42.306367" lon="-8.799144">
        <ele>170.8</ele>
        <time>1970-01-01T02:53:23.000Z</time>
      </trkpt>
      <trkpt lat="42.306365" lon="-8.799128">
        <ele>170.8</ele>
        <time>1970-01-01T02:53:24.000Z</time>
      </trkpt>
      <trkpt lat="42.306361" lon="-8.79911">
        <ele>170.8</ele>
        <time>1970-01-01T02:53:25.000Z</time>
      </trkpt>
      <trkpt lat="42.306356" lon="-8.799094">
        <ele>170.8</ele>
        <time>1970-01-01T02:53:26.000Z</time>
      </trkpt>
      <trkpt lat="42.306352" lon="-8.799077">
        <ele>171</ele>
        <time>1970-01-01T02:53:27.000Z</time>
      </trkpt>
      <trkpt lat="42.306348" lon="-8.799061">
        <ele>171.2</ele>
        <time>1970-01-01T02:53:28.000Z</time>
      </trkpt>
      <trkpt lat="42.306344" lon="-8.799048">
        <ele>171.4</ele>
        <time>1970-01-01T02:53:29.000Z</time>
      </trkpt>
      <trkpt lat="42.30634" lon="-8.799039">
        <ele>171.4</ele>
        <time>1970-01-01T02:53:30.000Z</time>
      </trkpt>
      <trkpt lat="42.306337" lon="-8.799026">
        <ele>171.4</ele>
        <time>1970-01-01T02:53:31.000Z</time>
      </trkpt>
      <trkpt lat="42.306333" lon="-8.799008">
        <ele>171.4</ele>
        <time>1970-01-01T02:53:32.000Z</time>
      </trkpt>
      <trkpt lat="42.30633" lon="-8.798993">
        <ele>171.2</ele>
        <time>1970-01-01T02:53:33.000Z</time>
      </trkpt>
      <trkpt lat="42.306328" lon="-8.798981">
        <ele>171.2</ele>
        <time>1970-01-01T02:53:34.000Z</time>
      </trkpt>
      <trkpt lat="42.306327" lon="-8.798969">
        <ele>171.2</ele>
        <time>1970-01-01T02:53:35.000Z</time>
      </trkpt>
      <trkpt lat="42.306325" lon="-8.798959">
        <ele>171.2</ele>
        <time>1970-01-01T02:53:36.000Z</time>
      </trkpt>
      <trkpt lat="42.306319" lon="-8.798949">
        <ele>171.4</ele>
        <time>1970-01-01T02:53:37.000Z</time>
      </trkpt>
      <trkpt lat="42.306312" lon="-8.798934">
        <ele>171.6</ele>
        <time>1970-01-01T02:53:38.000Z</time>
      </trkpt>
      <trkpt lat="42.306303" lon="-8.798919">
        <ele>171.6</ele>
        <time>1970-01-01T02:53:39.000Z</time>
      </trkpt>
      <trkpt lat="42.306297" lon="-8.798904">
        <ele>171.8</ele>
        <time>1970-01-01T02:53:40.000Z</time>
      </trkpt>
      <trkpt lat="42.306289" lon="-8.798886">
        <ele>171.8</ele>
        <time>1970-01-01T02:53:41.000Z</time>
      </trkpt>
      <trkpt lat="42.306282" lon="-8.798869">
        <ele>171.8</ele>
        <time>1970-01-01T02:53:42.000Z</time>
      </trkpt>
      <trkpt lat="42.306275" lon="-8.798855">
        <ele>171.8</ele>
        <time>1970-01-01T02:53:43.000Z</time>
      </trkpt>
      <trkpt lat="42.30627" lon="-8.798845">
        <ele>172</ele>
        <time>1970-01-01T02:53:44.000Z</time>
      </trkpt>
      <trkpt lat="42.306266" lon="-8.798835">
        <ele>172</ele>
        <time>1970-01-01T02:53:45.000Z</time>
      </trkpt>
      <trkpt lat="42.306261" lon="-8.798825">
        <ele>172.4</ele>
        <time>1970-01-01T02:53:46.000Z</time>
      </trkpt>
      <trkpt lat="42.306255" lon="-8.798817">
        <ele>172.4</ele>
        <time>1970-01-01T02:53:47.000Z</time>
      </trkpt>
      <trkpt lat="42.306248" lon="-8.798809">
        <ele>172.8</ele>
        <time>1970-01-01T02:53:48.000Z</time>
      </trkpt>
      <trkpt lat="42.306243" lon="-8.798805">
        <ele>173</ele>
        <time>1970-01-01T02:53:49.000Z</time>
      </trkpt>
      <trkpt lat="42.306237" lon="-8.798801">
        <ele>173.4</ele>
        <time>1970-01-01T02:53:50.000Z</time>
      </trkpt>
      <trkpt lat="42.30623" lon="-8.7988">
        <ele>173.4</ele>
        <time>1970-01-01T02:53:51.000Z</time>
      </trkpt>
      <trkpt lat="42.306223" lon="-8.798792">
        <ele>173.6</ele>
        <time>1970-01-01T02:53:52.000Z</time>
      </trkpt>
      <trkpt lat="42.306214" lon="-8.798782">
        <ele>174</ele>
        <time>1970-01-01T02:53:53.000Z</time>
      </trkpt>
      <trkpt lat="42.306203" lon="-8.79877">
        <ele>174.2</ele>
        <time>1970-01-01T02:53:54.000Z</time>
      </trkpt>
      <trkpt lat="42.306192" lon="-8.798759">
        <ele>174.2</ele>
        <time>1970-01-01T02:53:55.000Z</time>
      </trkpt>
      <trkpt lat="42.306184" lon="-8.798752">
        <ele>174.2</ele>
        <time>1970-01-01T02:53:56.000Z</time>
      </trkpt>
      <trkpt lat="42.306175" lon="-8.798741">
        <ele>174.4</ele>
        <time>1970-01-01T02:53:57.000Z</time>
      </trkpt>
      <trkpt lat="42.306164" lon="-8.798732">
        <ele>174.4</ele>
        <time>1970-01-01T02:53:58.000Z</time>
      </trkpt>
      <trkpt lat="42.306157" lon="-8.798727">
        <ele>174.4</ele>
        <time>1970-01-01T02:53:59.000Z</time>
      </trkpt>
      <trkpt lat="42.30615" lon="-8.798724">
        <ele>174.4</ele>
        <time>1970-01-01T02:54:00.000Z</time>
      </trkpt>
      <trkpt lat="42.306142" lon="-8.798721">
        <ele>174.8</ele>
        <time>1970-01-01T02:54:01.000Z</time>
      </trkpt>
      <trkpt lat="42.306136" lon="-8.798718">
        <ele>175</ele>
        <time>1970-01-01T02:54:02.000Z</time>
      </trkpt>
      <trkpt lat="42.306133" lon="-8.798711">
        <ele>175.2</ele>
        <time>1970-01-01T02:54:03.000Z</time>
      </trkpt>
      <trkpt lat="42.306126" lon="-8.798704">
        <ele>175.4</ele>
        <time>1970-01-01T02:54:04.000Z</time>
      </trkpt>
      <trkpt lat="42.30612" lon="-8.798701">
        <ele>175.8</ele>
        <time>1970-01-01T02:54:05.000Z</time>
      </trkpt>
      <trkpt lat="42.306114" lon="-8.798698">
        <ele>176</ele>
        <time>1970-01-01T02:54:06.000Z</time>
      </trkpt>
      <trkpt lat="42.306108" lon="-8.798691">
        <ele>176.2</ele>
        <time>1970-01-01T02:54:07.000Z</time>
      </trkpt>
      <trkpt lat="42.306103" lon="-8.798681">
        <ele>176.2</ele>
        <time>1970-01-01T02:54:08.000Z</time>
      </trkpt>
      <trkpt lat="42.306097" lon="-8.798673">
        <ele>176.6</ele>
        <time>1970-01-01T02:54:09.000Z</time>
      </trkpt>
      <trkpt lat="42.30609" lon="-8.798667">
        <ele>176.6</ele>
        <time>1970-01-01T02:54:10.000Z</time>
      </trkpt>
      <trkpt lat="42.306084" lon="-8.798659">
        <ele>176.8</ele>
        <time>1970-01-01T02:54:11.000Z</time>
      </trkpt>
      <trkpt lat="42.306078" lon="-8.798649">
        <ele>177.2</ele>
        <time>1970-01-01T02:54:12.000Z</time>
      </trkpt>
      <trkpt lat="42.306072" lon="-8.79864">
        <ele>177.4</ele>
        <time>1970-01-01T02:54:13.000Z</time>
      </trkpt>
      <trkpt lat="42.306065" lon="-8.79863">
        <ele>177.8</ele>
        <time>1970-01-01T02:54:14.000Z</time>
      </trkpt>
      <trkpt lat="42.306057" lon="-8.798625">
        <ele>178.2</ele>
        <time>1970-01-01T02:54:15.000Z</time>
      </trkpt>
      <trkpt lat="42.30605" lon="-8.798622">
        <ele>178.4</ele>
        <time>1970-01-01T02:54:16.000Z</time>
      </trkpt>
      <trkpt lat="42.306042" lon="-8.798626">
        <ele>178.6</ele>
        <time>1970-01-01T02:54:17.000Z</time>
      </trkpt>
      <trkpt lat="42.306032" lon="-8.798634">
        <ele>178.8</ele>
        <time>1970-01-01T02:54:18.000Z</time>
      </trkpt>
      <trkpt lat="42.306019" lon="-8.798642">
        <ele>178.8</ele>
        <time>1970-01-01T02:54:19.000Z</time>
      </trkpt>
      <trkpt lat="42.306012" lon="-8.798646">
        <ele>178.8</ele>
        <time>1970-01-01T02:54:20.000Z</time>
      </trkpt>
      <trkpt lat="42.306005" lon="-8.798652">
        <ele>179</ele>
        <time>1970-01-01T02:54:21.000Z</time>
      </trkpt>
      <trkpt lat="42.306" lon="-8.798658">
        <ele>179</ele>
        <time>1970-01-01T02:54:22.000Z</time>
      </trkpt>
      <trkpt lat="42.305988" lon="-8.798665">
        <ele>179.4</ele>
        <time>1970-01-01T02:54:23.000Z</time>
      </trkpt>
      <trkpt lat="42.305977" lon="-8.798676">
        <ele>180</ele>
        <time>1970-01-01T02:54:24.000Z</time>
      </trkpt>
      <trkpt lat="42.305969" lon="-8.798684">
        <ele>180.4</ele>
        <time>1970-01-01T02:54:25.000Z</time>
      </trkpt>
      <trkpt lat="42.305962" lon="-8.798691">
        <ele>180.6</ele>
        <time>1970-01-01T02:54:26.000Z</time>
      </trkpt>
      <trkpt lat="42.305955" lon="-8.798691">
        <ele>180.8</ele>
        <time>1970-01-01T02:54:27.000Z</time>
      </trkpt>
      <trkpt lat="42.305945" lon="-8.798697">
        <ele>181</ele>
        <time>1970-01-01T02:54:28.000Z</time>
      </trkpt>
      <trkpt lat="42.305937" lon="-8.798703">
        <ele>181</ele>
        <time>1970-01-01T02:54:29.000Z</time>
      </trkpt>
      <trkpt lat="42.305927" lon="-8.798706">
        <ele>181.2</ele>
        <time>1970-01-01T02:54:30.000Z</time>
      </trkpt>
      <trkpt lat="42.305921" lon="-8.798704">
        <ele>181.4</ele>
        <time>1970-01-01T02:54:31.000Z</time>
      </trkpt>
      <trkpt lat="42.305916" lon="-8.798708">
        <ele>181.6</ele>
        <time>1970-01-01T02:54:32.000Z</time>
      </trkpt>
      <trkpt lat="42.305909" lon="-8.798709">
        <ele>181.8</ele>
        <time>1970-01-01T02:54:33.000Z</time>
      </trkpt>
      <trkpt lat="42.305903" lon="-8.798708">
        <ele>182.2</ele>
        <time>1970-01-01T02:54:34.000Z</time>
      </trkpt>
      <trkpt lat="42.305898" lon="-8.798705">
        <ele>182.4</ele>
        <time>1970-01-01T02:54:35.000Z</time>
      </trkpt>
      <trkpt lat="42.305893" lon="-8.798701">
        <ele>182.8</ele>
        <time>1970-01-01T02:54:36.000Z</time>
      </trkpt>
      <trkpt lat="42.305887" lon="-8.798695">
        <ele>183</ele>
        <time>1970-01-01T02:54:37.000Z</time>
      </trkpt>
      <trkpt lat="42.305881" lon="-8.79869">
        <ele>183.2</ele>
        <time>1970-01-01T02:54:38.000Z</time>
      </trkpt>
      <trkpt lat="42.305874" lon="-8.798688">
        <ele>183.4</ele>
        <time>1970-01-01T02:54:39.000Z</time>
      </trkpt>
      <trkpt lat="42.305868" lon="-8.798682">
        <ele>183.4</ele>
        <time>1970-01-01T02:54:40.000Z</time>
      </trkpt>
      <trkpt lat="42.305863" lon="-8.798673">
        <ele>184</ele>
        <time>1970-01-01T02:54:41.000Z</time>
      </trkpt>
      <trkpt lat="42.30586" lon="-8.798664">
        <ele>184.2</ele>
        <time>1970-01-01T02:54:42.000Z</time>
      </trkpt>
      <trkpt lat="42.305856" lon="-8.798653">
        <ele>184.6</ele>
        <time>1970-01-01T02:54:43.000Z</time>
      </trkpt>
      <trkpt lat="42.305854" lon="-8.798643">
        <ele>184.8</ele>
        <time>1970-01-01T02:54:44.000Z</time>
      </trkpt>
      <trkpt lat="42.30585" lon="-8.798633">
        <ele>184.8</ele>
        <time>1970-01-01T02:54:45.000Z</time>
      </trkpt>
      <trkpt lat="42.305845" lon="-8.798624">
        <ele>185</ele>
        <time>1970-01-01T02:54:46.000Z</time>
      </trkpt>
      <trkpt lat="42.305842" lon="-8.798618">
        <ele>185.2</ele>
        <time>1970-01-01T02:54:47.000Z</time>
      </trkpt>
      <trkpt lat="42.30584" lon="-8.798612">
        <ele>185.6</ele>
        <time>1970-01-01T02:54:48.000Z</time>
      </trkpt>
      <trkpt lat="42.305841" lon="-8.798604">
        <ele>186</ele>
        <time>1970-01-01T02:54:49.000Z</time>
      </trkpt>
      <trkpt lat="42.305841" lon="-8.798602">
        <ele>186.4</ele>
        <time>1970-01-01T02:54:50.000Z</time>
      </trkpt>
      <trkpt lat="42.305837" lon="-8.798604">
        <ele>186.8</ele>
        <time>1970-01-01T02:54:51.000Z</time>
      </trkpt>
      <trkpt lat="42.305838" lon="-8.798606">
        <ele>187</ele>
        <time>1970-01-01T02:54:52.000Z</time>
      </trkpt>
      <trkpt lat="42.305834" lon="-8.798606">
        <ele>187.2</ele>
        <time>1970-01-01T02:54:53.000Z</time>
      </trkpt>
      <trkpt lat="42.305825" lon="-8.798609">
        <ele>187.4</ele>
        <time>1970-01-01T02:54:54.000Z</time>
      </trkpt>
      <trkpt lat="42.305826" lon="-8.798605">
        <ele>187.4</ele>
        <time>1970-01-01T02:54:55.000Z</time>
      </trkpt>
      <trkpt lat="42.305833" lon="-8.798608">
        <ele>187.6</ele>
        <time>1970-01-01T02:54:56.000Z</time>
      </trkpt>
      <trkpt lat="42.30584" lon="-8.798616">
        <ele>187.6</ele>
        <time>1970-01-01T02:54:57.000Z</time>
      </trkpt>
      <trkpt lat="42.305842" lon="-8.798622">
        <ele>187.6</ele>
        <time>1970-01-01T02:54:58.000Z</time>
      </trkpt>
      <trkpt lat="42.305843" lon="-8.798627">
        <ele>187.6</ele>
        <time>1970-01-01T02:54:59.000Z</time>
      </trkpt>
      <trkpt lat="42.305839" lon="-8.79863">
        <ele>187.6</ele>
        <time>1970-01-01T02:55:00.000Z</time>
      </trkpt>
      <trkpt lat="42.305835" lon="-8.798635">
        <ele>187.6</ele>
        <time>1970-01-01T02:55:01.000Z</time>
      </trkpt>
      <trkpt lat="42.305837" lon="-8.798636">
        <ele>188</ele>
        <time>1970-01-01T02:55:02.000Z</time>
      </trkpt>
      <trkpt lat="42.305839" lon="-8.798638">
        <ele>188.2</ele>
        <time>1970-01-01T02:55:03.000Z</time>
      </trkpt>
      <trkpt lat="42.305842" lon="-8.79864">
        <ele>188.2</ele>
        <time>1970-01-01T02:55:04.000Z</time>
      </trkpt>
      <trkpt lat="42.305843" lon="-8.79864">
        <ele>188.4</ele>
        <time>1970-01-01T02:55:05.000Z</time>
      </trkpt>
      <trkpt lat="42.305844" lon="-8.798637">
        <ele>188.4</ele>
        <time>1970-01-01T02:55:06.000Z</time>
      </trkpt>
      <trkpt lat="42.305844" lon="-8.798637">
        <ele>188.4</ele>
        <time>1970-01-01T02:55:07.000Z</time>
      </trkpt>
      <trkpt lat="42.305841" lon="-8.798634">
        <ele>188.6</ele>
        <time>1970-01-01T02:55:08.000Z</time>
      </trkpt>
      <trkpt lat="42.30584" lon="-8.79863">
        <ele>188.6</ele>
        <time>1970-01-01T02:55:09.000Z</time>
      </trkpt>
      <trkpt lat="42.305837" lon="-8.798624">
        <ele>188.4</ele>
        <time>1970-01-01T02:55:10.000Z</time>
      </trkpt>
      <trkpt lat="42.305831" lon="-8.798613">
        <ele>188.4</ele>
        <time>1970-01-01T02:55:11.000Z</time>
      </trkpt>
      <trkpt lat="42.305827" lon="-8.798603">
        <ele>188.4</ele>
        <time>1970-01-01T02:55:12.000Z</time>
      </trkpt>
      <trkpt lat="42.305827" lon="-8.798584">
        <ele>188.4</ele>
        <time>1970-01-01T02:55:13.000Z</time>
      </trkpt>
      <trkpt lat="42.305829" lon="-8.798561">
        <ele>188.4</ele>
        <time>1970-01-01T02:55:14.000Z</time>
      </trkpt>
      <trkpt lat="42.305832" lon="-8.798537">
        <ele>188.4</ele>
        <time>1970-01-01T02:55:15.000Z</time>
      </trkpt>
      <trkpt lat="42.305835" lon="-8.798513">
        <ele>188.6</ele>
        <time>1970-01-01T02:55:16.000Z</time>
      </trkpt>
      <trkpt lat="42.305834" lon="-8.798488">
        <ele>188.6</ele>
        <time>1970-01-01T02:55:17.000Z</time>
      </trkpt>
      <trkpt lat="42.305835" lon="-8.798474">
        <ele>188.8</ele>
        <time>1970-01-01T02:55:18.000Z</time>
      </trkpt>
      <trkpt lat="42.305833" lon="-8.798463">
        <ele>189</ele>
        <time>1970-01-01T02:55:19.000Z</time>
      </trkpt>
      <trkpt lat="42.305829" lon="-8.798454">
        <ele>189.4</ele>
        <time>1970-01-01T02:55:20.000Z</time>
      </trkpt>
      <trkpt lat="42.305823" lon="-8.798444">
        <ele>189.4</ele>
        <time>1970-01-01T02:55:21.000Z</time>
      </trkpt>
      <trkpt lat="42.305816" lon="-8.79844">
        <ele>189.6</ele>
        <time>1970-01-01T02:55:22.000Z</time>
      </trkpt>
      <trkpt lat="42.305813" lon="-8.798439">
        <ele>189.8</ele>
        <time>1970-01-01T02:55:23.000Z</time>
      </trkpt>
      <trkpt lat="42.305809" lon="-8.798439">
        <ele>190</ele>
        <time>1970-01-01T02:55:24.000Z</time>
      </trkpt>
      <trkpt lat="42.305803" lon="-8.798442">
        <ele>190</ele>
        <time>1970-01-01T02:55:25.000Z</time>
      </trkpt>
      <trkpt lat="42.305797" lon="-8.798441">
        <ele>190.6</ele>
        <time>1970-01-01T02:55:26.000Z</time>
      </trkpt>
      <trkpt lat="42.30579" lon="-8.798437">
        <ele>190.8</ele>
        <time>1970-01-01T02:55:27.000Z</time>
      </trkpt>
      <trkpt lat="42.305785" lon="-8.79843">
        <ele>191</ele>
        <time>1970-01-01T02:55:28.000Z</time>
      </trkpt>
      <trkpt lat="42.305779" lon="-8.798423">
        <ele>191.2</ele>
        <time>1970-01-01T02:55:29.000Z</time>
      </trkpt>
      <trkpt lat="42.305774" lon="-8.798421">
        <ele>191.6</ele>
        <time>1970-01-01T02:55:30.000Z</time>
      </trkpt>
      <trkpt lat="42.305771" lon="-8.798417">
        <ele>191.8</ele>
        <time>1970-01-01T02:55:31.000Z</time>
      </trkpt>
      <trkpt lat="42.305767" lon="-8.798415">
        <ele>192</ele>
        <time>1970-01-01T02:55:32.000Z</time>
      </trkpt>
      <trkpt lat="42.305761" lon="-8.798412">
        <ele>192.2</ele>
        <time>1970-01-01T02:55:33.000Z</time>
      </trkpt>
      <trkpt lat="42.305753" lon="-8.798407">
        <ele>192.2</ele>
        <time>1970-01-01T02:55:34.000Z</time>
      </trkpt>
      <trkpt lat="42.305743" lon="-8.798404">
        <ele>192.4</ele>
        <time>1970-01-01T02:55:35.000Z</time>
      </trkpt>
      <trkpt lat="42.305737" lon="-8.798401">
        <ele>192.6</ele>
        <time>1970-01-01T02:55:36.000Z</time>
      </trkpt>
      <trkpt lat="42.305731" lon="-8.798399">
        <ele>193</ele>
        <time>1970-01-01T02:55:37.000Z</time>
      </trkpt>
      <trkpt lat="42.305723" lon="-8.798397">
        <ele>193.2</ele>
        <time>1970-01-01T02:55:38.000Z</time>
      </trkpt>
      <trkpt lat="42.305715" lon="-8.798392">
        <ele>193.4</ele>
        <time>1970-01-01T02:55:39.000Z</time>
      </trkpt>
      <trkpt lat="42.305706" lon="-8.798391">
        <ele>193.6</ele>
        <time>1970-01-01T02:55:40.000Z</time>
      </trkpt>
      <trkpt lat="42.3057" lon="-8.798391">
        <ele>193.8</ele>
        <time>1970-01-01T02:55:41.000Z</time>
      </trkpt>
      <trkpt lat="42.305698" lon="-8.798387">
        <ele>194</ele>
        <time>1970-01-01T02:55:42.000Z</time>
      </trkpt>
      <trkpt lat="42.305696" lon="-8.798385">
        <ele>194.4</ele>
        <time>1970-01-01T02:55:43.000Z</time>
      </trkpt>
      <trkpt lat="42.305693" lon="-8.798386">
        <ele>194.6</ele>
        <time>1970-01-01T02:55:44.000Z</time>
      </trkpt>
      <trkpt lat="42.305674" lon="-8.798393">
        <ele>195</ele>
        <time>1970-01-01T02:55:45.000Z</time>
      </trkpt>
      <trkpt lat="42.305677" lon="-8.798388">
        <ele>195.4</ele>
        <time>1970-01-01T02:55:46.000Z</time>
      </trkpt>
      <trkpt lat="42.305679" lon="-8.798381">
        <ele>195.6</ele>
        <time>1970-01-01T02:55:47.000Z</time>
      </trkpt>
      <trkpt lat="42.305677" lon="-8.798377">
        <ele>195.8</ele>
        <time>1970-01-01T02:55:48.000Z</time>
      </trkpt>
      <trkpt lat="42.305675" lon="-8.79837">
        <ele>196</ele>
        <time>1970-01-01T02:55:49.000Z</time>
      </trkpt>
      <trkpt lat="42.305674" lon="-8.798366">
        <ele>196.2</ele>
        <time>1970-01-01T02:55:50.000Z</time>
      </trkpt>
      <trkpt lat="42.305674" lon="-8.798363">
        <ele>196.2</ele>
        <time>1970-01-01T02:55:51.000Z</time>
      </trkpt>
      <trkpt lat="42.305674" lon="-8.798362">
        <ele>196.4</ele>
        <time>1970-01-01T02:55:52.000Z</time>
      </trkpt>
      <trkpt lat="42.305676" lon="-8.798362">
        <ele>196.8</ele>
        <time>1970-01-01T02:55:53.000Z</time>
      </trkpt>
      <trkpt lat="42.305678" lon="-8.798359">
        <ele>196.8</ele>
        <time>1970-01-01T02:55:54.000Z</time>
      </trkpt>
      <trkpt lat="42.305681" lon="-8.798351">
        <ele>197.2</ele>
        <time>1970-01-01T02:55:55.000Z</time>
      </trkpt>
      <trkpt lat="42.305685" lon="-8.798338">
        <ele>197.6</ele>
        <time>1970-01-01T02:55:56.000Z</time>
      </trkpt>
      <trkpt lat="42.305699" lon="-8.798317">
        <ele>197.8</ele>
        <time>1970-01-01T02:55:57.000Z</time>
      </trkpt>
      <trkpt lat="42.305697" lon="-8.798303">
        <ele>197.8</ele>
        <time>1970-01-01T02:55:58.000Z</time>
      </trkpt>
      <trkpt lat="42.305697" lon="-8.798284">
        <ele>198</ele>
        <time>1970-01-01T02:55:59.000Z</time>
      </trkpt>
      <trkpt lat="42.305692" lon="-8.798271">
        <ele>198.2</ele>
        <time>1970-01-01T02:56:00.000Z</time>
      </trkpt>
      <trkpt lat="42.305691" lon="-8.798256">
        <ele>198.4</ele>
        <time>1970-01-01T02:56:01.000Z</time>
      </trkpt>
      <trkpt lat="42.305688" lon="-8.798244">
        <ele>198.4</ele>
        <time>1970-01-01T02:56:02.000Z</time>
      </trkpt>
      <trkpt lat="42.305685" lon="-8.798233">
        <ele>198.4</ele>
        <time>1970-01-01T02:56:03.000Z</time>
      </trkpt>
      <trkpt lat="42.305682" lon="-8.798225">
        <ele>198.8</ele>
        <time>1970-01-01T02:56:04.000Z</time>
      </trkpt>
      <trkpt lat="42.30568" lon="-8.798215">
        <ele>199.2</ele>
        <time>1970-01-01T02:56:05.000Z</time>
      </trkpt>
      <trkpt lat="42.305677" lon="-8.798206">
        <ele>199.4</ele>
        <time>1970-01-01T02:56:06.000Z</time>
      </trkpt>
      <trkpt lat="42.305675" lon="-8.798195">
        <ele>199.6</ele>
        <time>1970-01-01T02:56:07.000Z</time>
      </trkpt>
      <trkpt lat="42.30567" lon="-8.798188">
        <ele>200</ele>
        <time>1970-01-01T02:56:08.000Z</time>
      </trkpt>
      <trkpt lat="42.305663" lon="-8.798179">
        <ele>200.2</ele>
        <time>1970-01-01T02:56:09.000Z</time>
      </trkpt>
      <trkpt lat="42.305656" lon="-8.79817">
        <ele>200.4</ele>
        <time>1970-01-01T02:56:10.000Z</time>
      </trkpt>
      <trkpt lat="42.305648" lon="-8.798161">
        <ele>200.4</ele>
        <time>1970-01-01T02:56:11.000Z</time>
      </trkpt>
      <trkpt lat="42.305642" lon="-8.79815">
        <ele>200.6</ele>
        <time>1970-01-01T02:56:12.000Z</time>
      </trkpt>
      <trkpt lat="42.305638" lon="-8.798141">
        <ele>200.6</ele>
        <time>1970-01-01T02:56:13.000Z</time>
      </trkpt>
      <trkpt lat="42.305636" lon="-8.798137">
        <ele>200.8</ele>
        <time>1970-01-01T02:56:14.000Z</time>
      </trkpt>
      <trkpt lat="42.305635" lon="-8.798129">
        <ele>201.2</ele>
        <time>1970-01-01T02:56:15.000Z</time>
      </trkpt>
      <trkpt lat="42.305634" lon="-8.798119">
        <ele>201.6</ele>
        <time>1970-01-01T02:56:16.000Z</time>
      </trkpt>
      <trkpt lat="42.305634" lon="-8.79811">
        <ele>201.8</ele>
        <time>1970-01-01T02:56:17.000Z</time>
      </trkpt>
      <trkpt lat="42.305631" lon="-8.798104">
        <ele>202</ele>
        <time>1970-01-01T02:56:18.000Z</time>
      </trkpt>
      <trkpt lat="42.305626" lon="-8.798096">
        <ele>202.2</ele>
        <time>1970-01-01T02:56:19.000Z</time>
      </trkpt>
      <trkpt lat="42.305618" lon="-8.798094">
        <ele>202.2</ele>
        <time>1970-01-01T02:56:20.000Z</time>
      </trkpt>
      <trkpt lat="42.305607" lon="-8.798089">
        <ele>202.4</ele>
        <time>1970-01-01T02:56:21.000Z</time>
      </trkpt>
      <trkpt lat="42.305602" lon="-8.798086">
        <ele>202.8</ele>
        <time>1970-01-01T02:56:22.000Z</time>
      </trkpt>
      <trkpt lat="42.305595" lon="-8.798085">
        <ele>203</ele>
        <time>1970-01-01T02:56:23.000Z</time>
      </trkpt>
      <trkpt lat="42.305586" lon="-8.798084">
        <ele>203.2</ele>
        <time>1970-01-01T02:56:24.000Z</time>
      </trkpt>
      <trkpt lat="42.305581" lon="-8.798093">
        <ele>203.4</ele>
        <time>1970-01-01T02:56:25.000Z</time>
      </trkpt>
      <trkpt lat="42.305576" lon="-8.798105">
        <ele>203.4</ele>
        <time>1970-01-01T02:56:26.000Z</time>
      </trkpt>
      <trkpt lat="42.305571" lon="-8.79812">
        <ele>203.6</ele>
        <time>1970-01-01T02:56:27.000Z</time>
      </trkpt>
      <trkpt lat="42.305568" lon="-8.798135">
        <ele>203.6</ele>
        <time>1970-01-01T02:56:28.000Z</time>
      </trkpt>
      <trkpt lat="42.305566" lon="-8.798141">
        <ele>203.6</ele>
        <time>1970-01-01T02:56:29.000Z</time>
      </trkpt>
      <trkpt lat="42.30556" lon="-8.798147">
        <ele>203.6</ele>
        <time>1970-01-01T02:56:30.000Z</time>
      </trkpt>
      <trkpt lat="42.305551" lon="-8.798151">
        <ele>203.6</ele>
        <time>1970-01-01T02:56:31.000Z</time>
      </trkpt>
      <trkpt lat="42.305536" lon="-8.798154">
        <ele>203.8</ele>
        <time>1970-01-01T02:56:32.000Z</time>
      </trkpt>
      <trkpt lat="42.305524" lon="-8.798161">
        <ele>203.8</ele>
        <time>1970-01-01T02:56:33.000Z</time>
      </trkpt>
      <trkpt lat="42.305512" lon="-8.798174">
        <ele>204</ele>
        <time>1970-01-01T02:56:34.000Z</time>
      </trkpt>
      <trkpt lat="42.305496" lon="-8.798199">
        <ele>204</ele>
        <time>1970-01-01T02:56:35.000Z</time>
      </trkpt>
      <trkpt lat="42.30549" lon="-8.798217">
        <ele>204.2</ele>
        <time>1970-01-01T02:56:36.000Z</time>
      </trkpt>
      <trkpt lat="42.305486" lon="-8.798242">
        <ele>204.4</ele>
        <time>1970-01-01T02:56:37.000Z</time>
      </trkpt>
      <trkpt lat="42.305485" lon="-8.798261">
        <ele>204.4</ele>
        <time>1970-01-01T02:56:38.000Z</time>
      </trkpt>
      <trkpt lat="42.305482" lon="-8.798271">
        <ele>204.4</ele>
        <time>1970-01-01T02:56:39.000Z</time>
      </trkpt>
      <trkpt lat="42.305477" lon="-8.798283">
        <ele>204</ele>
        <time>1970-01-01T02:56:40.000Z</time>
      </trkpt>
      <trkpt lat="42.305471" lon="-8.798297">
        <ele>204.2</ele>
        <time>1970-01-01T02:56:41.000Z</time>
      </trkpt>
      <trkpt lat="42.305464" lon="-8.798311">
        <ele>204.2</ele>
        <time>1970-01-01T02:56:42.000Z</time>
      </trkpt>
      <trkpt lat="42.30546" lon="-8.798329">
        <ele>204.2</ele>
        <time>1970-01-01T02:56:43.000Z</time>
      </trkpt>
      <trkpt lat="42.305457" lon="-8.798347">
        <ele>204.2</ele>
        <time>1970-01-01T02:56:44.000Z</time>
      </trkpt>
      <trkpt lat="42.305456" lon="-8.798358">
        <ele>204.2</ele>
        <time>1970-01-01T02:56:45.000Z</time>
      </trkpt>
      <trkpt lat="42.305453" lon="-8.798365">
        <ele>204.2</ele>
        <time>1970-01-01T02:56:46.000Z</time>
      </trkpt>
      <trkpt lat="42.305446" lon="-8.798371">
        <ele>204.4</ele>
        <time>1970-01-01T02:56:47.000Z</time>
      </trkpt>
      <trkpt lat="42.305436" lon="-8.798376">
        <ele>204.4</ele>
        <time>1970-01-01T02:56:48.000Z</time>
      </trkpt>
      <trkpt lat="42.305423" lon="-8.79838">
        <ele>204.6</ele>
        <time>1970-01-01T02:56:49.000Z</time>
      </trkpt>
      <trkpt lat="42.30541" lon="-8.798383">
        <ele>204.6</ele>
        <time>1970-01-01T02:56:50.000Z</time>
      </trkpt>
      <trkpt lat="42.305399" lon="-8.798389">
        <ele>204.6</ele>
        <time>1970-01-01T02:56:51.000Z</time>
      </trkpt>
      <trkpt lat="42.305393" lon="-8.7984">
        <ele>204.6</ele>
        <time>1970-01-01T02:56:52.000Z</time>
      </trkpt>
      <trkpt lat="42.305391" lon="-8.798416">
        <ele>204.6</ele>
        <time>1970-01-01T02:56:53.000Z</time>
      </trkpt>
      <trkpt lat="42.305397" lon="-8.798431">
        <ele>204.6</ele>
        <time>1970-01-01T02:56:54.000Z</time>
      </trkpt>
      <trkpt lat="42.305406" lon="-8.798449">
        <ele>204.6</ele>
        <time>1970-01-01T02:56:55.000Z</time>
      </trkpt>
      <trkpt lat="42.305414" lon="-8.798465">
        <ele>204.6</ele>
        <time>1970-01-01T02:56:56.000Z</time>
      </trkpt>
      <trkpt lat="42.305421" lon="-8.79848">
        <ele>204.6</ele>
        <time>1970-01-01T02:56:57.000Z</time>
      </trkpt>
      <trkpt lat="42.305423" lon="-8.798494">
        <ele>204.8</ele>
        <time>1970-01-01T02:56:58.000Z</time>
      </trkpt>
      <trkpt lat="42.305421" lon="-8.798509">
        <ele>204.8</ele>
        <time>1970-01-01T02:56:59.000Z</time>
      </trkpt>
      <trkpt lat="42.305415" lon="-8.798525">
        <ele>205</ele>
        <time>1970-01-01T02:57:00.000Z</time>
      </trkpt>
      <trkpt lat="42.305411" lon="-8.798541">
        <ele>205</ele>
        <time>1970-01-01T02:57:01.000Z</time>
      </trkpt>
      <trkpt lat="42.305407" lon="-8.798553">
        <ele>205.2</ele>
        <time>1970-01-01T02:57:02.000Z</time>
      </trkpt>
      <trkpt lat="42.305403" lon="-8.798564">
        <ele>205.2</ele>
        <time>1970-01-01T02:57:03.000Z</time>
      </trkpt>
      <trkpt lat="42.3054" lon="-8.798577">
        <ele>205.4</ele>
        <time>1970-01-01T02:57:04.000Z</time>
      </trkpt>
      <trkpt lat="42.305396" lon="-8.798587">
        <ele>205.4</ele>
        <time>1970-01-01T02:57:05.000Z</time>
      </trkpt>
      <trkpt lat="42.30539" lon="-8.798597">
        <ele>205.2</ele>
        <time>1970-01-01T02:57:06.000Z</time>
      </trkpt>
      <trkpt lat="42.305382" lon="-8.798608">
        <ele>205.2</ele>
        <time>1970-01-01T02:57:07.000Z</time>
      </trkpt>
      <trkpt lat="42.305373" lon="-8.798618">
        <ele>205.2</ele>
        <time>1970-01-01T02:57:08.000Z</time>
      </trkpt>
      <trkpt lat="42.305365" lon="-8.798625">
        <ele>205</ele>
        <time>1970-01-01T02:57:09.000Z</time>
      </trkpt>
      <trkpt lat="42.305359" lon="-8.798634">
        <ele>204.8</ele>
        <time>1970-01-01T02:57:10.000Z</time>
      </trkpt>
      <trkpt lat="42.305351" lon="-8.798645">
        <ele>204.4</ele>
        <time>1970-01-01T02:57:11.000Z</time>
      </trkpt>
      <trkpt lat="42.305342" lon="-8.798656">
        <ele>204</ele>
        <time>1970-01-01T02:57:12.000Z</time>
      </trkpt>
      <trkpt lat="42.305334" lon="-8.798664">
        <ele>203.8</ele>
        <time>1970-01-01T02:57:13.000Z</time>
      </trkpt>
      <trkpt lat="42.305326" lon="-8.798672">
        <ele>203.8</ele>
        <time>1970-01-01T02:57:14.000Z</time>
      </trkpt>
      <trkpt lat="42.305319" lon="-8.79868">
        <ele>203.6</ele>
        <time>1970-01-01T02:57:15.000Z</time>
      </trkpt>
      <trkpt lat="42.305312" lon="-8.798691">
        <ele>203.6</ele>
        <time>1970-01-01T02:57:16.000Z</time>
      </trkpt>
      <trkpt lat="42.305305" lon="-8.798698">
        <ele>203.6</ele>
        <time>1970-01-01T02:57:17.000Z</time>
      </trkpt>
      <trkpt lat="42.305298" lon="-8.798705">
        <ele>203.6</ele>
        <time>1970-01-01T02:57:18.000Z</time>
      </trkpt>
      <trkpt lat="42.305289" lon="-8.798716">
        <ele>203.6</ele>
        <time>1970-01-01T02:57:19.000Z</time>
      </trkpt>
      <trkpt lat="42.305282" lon="-8.798722">
        <ele>203.4</ele>
        <time>1970-01-01T02:57:20.000Z</time>
      </trkpt>
      <trkpt lat="42.305276" lon="-8.798731">
        <ele>203.4</ele>
        <time>1970-01-01T02:57:21.000Z</time>
      </trkpt>
      <trkpt lat="42.30527" lon="-8.798739">
        <ele>203.2</ele>
        <time>1970-01-01T02:57:22.000Z</time>
      </trkpt>
      <trkpt lat="42.305264" lon="-8.798748">
        <ele>203.2</ele>
        <time>1970-01-01T02:57:23.000Z</time>
      </trkpt>
      <trkpt lat="42.305254" lon="-8.798755">
        <ele>203</ele>
        <time>1970-01-01T02:57:24.000Z</time>
      </trkpt>
      <trkpt lat="42.305241" lon="-8.798765">
        <ele>202.8</ele>
        <time>1970-01-01T02:57:25.000Z</time>
      </trkpt>
      <trkpt lat="42.305227" lon="-8.79877">
        <ele>202.6</ele>
        <time>1970-01-01T02:57:26.000Z</time>
      </trkpt>
      <trkpt lat="42.305211" lon="-8.798769">
        <ele>202.6</ele>
        <time>1970-01-01T02:57:27.000Z</time>
      </trkpt>
      <trkpt lat="42.305202" lon="-8.798771">
        <ele>202.4</ele>
        <time>1970-01-01T02:57:28.000Z</time>
      </trkpt>
      <trkpt lat="42.305194" lon="-8.79877">
        <ele>202.4</ele>
        <time>1970-01-01T02:57:29.000Z</time>
      </trkpt>
      <trkpt lat="42.305186" lon="-8.798769">
        <ele>202.4</ele>
        <time>1970-01-01T02:57:30.000Z</time>
      </trkpt>
      <trkpt lat="42.305176" lon="-8.79877">
        <ele>202.8</ele>
        <time>1970-01-01T02:57:31.000Z</time>
      </trkpt>
      <trkpt lat="42.305172" lon="-8.798764">
        <ele>203</ele>
        <time>1970-01-01T02:57:32.000Z</time>
      </trkpt>
      <trkpt lat="42.305171" lon="-8.798755">
        <ele>203.4</ele>
        <time>1970-01-01T02:57:33.000Z</time>
      </trkpt>
      <trkpt lat="42.305171" lon="-8.798746">
        <ele>203.4</ele>
        <time>1970-01-01T02:57:34.000Z</time>
      </trkpt>
      <trkpt lat="42.305171" lon="-8.798739">
        <ele>203.6</ele>
        <time>1970-01-01T02:57:35.000Z</time>
      </trkpt>
      <trkpt lat="42.30517" lon="-8.798731">
        <ele>203.6</ele>
        <time>1970-01-01T02:57:36.000Z</time>
      </trkpt>
      <trkpt lat="42.305169" lon="-8.798725">
        <ele>203.6</ele>
        <time>1970-01-01T02:57:37.000Z</time>
      </trkpt>
      <trkpt lat="42.305165" lon="-8.798723">
        <ele>203.8</ele>
        <time>1970-01-01T02:57:38.000Z</time>
      </trkpt>
      <trkpt lat="42.305163" lon="-8.798719">
        <ele>204</ele>
        <time>1970-01-01T02:57:39.000Z</time>
      </trkpt>
      <trkpt lat="42.305162" lon="-8.79872">
        <ele>204</ele>
        <time>1970-01-01T02:57:40.000Z</time>
      </trkpt>
      <trkpt lat="42.305159" lon="-8.798722">
        <ele>204.2</ele>
        <time>1970-01-01T02:57:41.000Z</time>
      </trkpt>
      <trkpt lat="42.305155" lon="-8.798728">
        <ele>204.6</ele>
        <time>1970-01-01T02:57:42.000Z</time>
      </trkpt>
      <trkpt lat="42.305151" lon="-8.798734">
        <ele>205</ele>
        <time>1970-01-01T02:57:43.000Z</time>
      </trkpt>
      <trkpt lat="42.305146" lon="-8.798736">
        <ele>205</ele>
        <time>1970-01-01T02:57:44.000Z</time>
      </trkpt>
      <trkpt lat="42.30514" lon="-8.798738">
        <ele>205.2</ele>
        <time>1970-01-01T02:57:45.000Z</time>
      </trkpt>
      <trkpt lat="42.30513" lon="-8.79874">
        <ele>205.2</ele>
        <time>1970-01-01T02:57:46.000Z</time>
      </trkpt>
      <trkpt lat="42.305119" lon="-8.798741">
        <ele>205.2</ele>
        <time>1970-01-01T02:57:47.000Z</time>
      </trkpt>
      <trkpt lat="42.305111" lon="-8.798744">
        <ele>205.2</ele>
        <time>1970-01-01T02:57:48.000Z</time>
      </trkpt>
      <trkpt lat="42.305099" lon="-8.798751">
        <ele>205.2</ele>
        <time>1970-01-01T02:57:49.000Z</time>
      </trkpt>
      <trkpt lat="42.305086" lon="-8.798764">
        <ele>205.4</ele>
        <time>1970-01-01T02:57:50.000Z</time>
      </trkpt>
      <trkpt lat="42.305076" lon="-8.798778">
        <ele>205.4</ele>
        <time>1970-01-01T02:57:51.000Z</time>
      </trkpt>
      <trkpt lat="42.305068" lon="-8.798789">
        <ele>205.4</ele>
        <time>1970-01-01T02:57:52.000Z</time>
      </trkpt>
      <trkpt lat="42.305061" lon="-8.798799">
        <ele>205.6</ele>
        <time>1970-01-01T02:57:53.000Z</time>
      </trkpt>
      <trkpt lat="42.305054" lon="-8.798805">
        <ele>205.8</ele>
        <time>1970-01-01T02:57:54.000Z</time>
      </trkpt>
      <trkpt lat="42.305044" lon="-8.798817">
        <ele>205.8</ele>
        <time>1970-01-01T02:57:55.000Z</time>
      </trkpt>
      <trkpt lat="42.305035" lon="-8.798829">
        <ele>205.8</ele>
        <time>1970-01-01T02:57:56.000Z</time>
      </trkpt>
      <trkpt lat="42.305026" lon="-8.798839">
        <ele>205.6</ele>
        <time>1970-01-01T02:57:57.000Z</time>
      </trkpt>
      <trkpt lat="42.305018" lon="-8.798847">
        <ele>205.6</ele>
        <time>1970-01-01T02:57:58.000Z</time>
      </trkpt>
      <trkpt lat="42.305011" lon="-8.798856">
        <ele>205.6</ele>
        <time>1970-01-01T02:57:59.000Z</time>
      </trkpt>
      <trkpt lat="42.305006" lon="-8.798868">
        <ele>205.6</ele>
        <time>1970-01-01T02:58:00.000Z</time>
      </trkpt>
      <trkpt lat="42.305002" lon="-8.798877">
        <ele>205.6</ele>
        <time>1970-01-01T02:58:01.000Z</time>
      </trkpt>
      <trkpt lat="42.304999" lon="-8.798887">
        <ele>205.4</ele>
        <time>1970-01-01T02:58:02.000Z</time>
      </trkpt>
      <trkpt lat="42.304996" lon="-8.798894">
        <ele>205.4</ele>
        <time>1970-01-01T02:58:03.000Z</time>
      </trkpt>
      <trkpt lat="42.304993" lon="-8.798901">
        <ele>205.4</ele>
        <time>1970-01-01T02:58:04.000Z</time>
      </trkpt>
      <trkpt lat="42.30499" lon="-8.798906">
        <ele>205.6</ele>
        <time>1970-01-01T02:58:05.000Z</time>
      </trkpt>
      <trkpt lat="42.304986" lon="-8.798907">
        <ele>205.6</ele>
        <time>1970-01-01T02:58:06.000Z</time>
      </trkpt>
      <trkpt lat="42.304981" lon="-8.798908">
        <ele>205.8</ele>
        <time>1970-01-01T02:58:07.000Z</time>
      </trkpt>
      <trkpt lat="42.304973" lon="-8.798909">
        <ele>206</ele>
        <time>1970-01-01T02:58:08.000Z</time>
      </trkpt>
      <trkpt lat="42.304968" lon="-8.798913">
        <ele>206</ele>
        <time>1970-01-01T02:58:09.000Z</time>
      </trkpt>
      <trkpt lat="42.304959" lon="-8.798918">
        <ele>206.2</ele>
        <time>1970-01-01T02:58:10.000Z</time>
      </trkpt>
      <trkpt lat="42.304953" lon="-8.798924">
        <ele>206.4</ele>
        <time>1970-01-01T02:58:11.000Z</time>
      </trkpt>
      <trkpt lat="42.304948" lon="-8.798937">
        <ele>206.6</ele>
        <time>1970-01-01T02:58:12.000Z</time>
      </trkpt>
      <trkpt lat="42.304942" lon="-8.798944">
        <ele>206.2</ele>
        <time>1970-01-01T02:58:13.000Z</time>
      </trkpt>
      <trkpt lat="42.304933" lon="-8.798953">
        <ele>206.2</ele>
        <time>1970-01-01T02:58:14.000Z</time>
      </trkpt>
      <trkpt lat="42.304927" lon="-8.798962">
        <ele>206.4</ele>
        <time>1970-01-01T02:58:15.000Z</time>
      </trkpt>
      <trkpt lat="42.304918" lon="-8.798973">
        <ele>206.6</ele>
        <time>1970-01-01T02:58:16.000Z</time>
      </trkpt>
      <trkpt lat="42.304909" lon="-8.798982">
        <ele>206.6</ele>
        <time>1970-01-01T02:58:17.000Z</time>
      </trkpt>
      <trkpt lat="42.304903" lon="-8.798995">
        <ele>206.8</ele>
        <time>1970-01-01T02:58:18.000Z</time>
      </trkpt>
      <trkpt lat="42.304895" lon="-8.799007">
        <ele>206.8</ele>
        <time>1970-01-01T02:58:19.000Z</time>
      </trkpt>
      <trkpt lat="42.304893" lon="-8.799024">
        <ele>206.8</ele>
        <time>1970-01-01T02:58:20.000Z</time>
      </trkpt>
      <trkpt lat="42.304889" lon="-8.799038">
        <ele>206.8</ele>
        <time>1970-01-01T02:58:21.000Z</time>
      </trkpt>
      <trkpt lat="42.304887" lon="-8.799055">
        <ele>207</ele>
        <time>1970-01-01T02:58:22.000Z</time>
      </trkpt>
      <trkpt lat="42.304885" lon="-8.799068">
        <ele>206.8</ele>
        <time>1970-01-01T02:58:23.000Z</time>
      </trkpt>
      <trkpt lat="42.304882" lon="-8.799081">
        <ele>206.8</ele>
        <time>1970-01-01T02:58:24.000Z</time>
      </trkpt>
      <trkpt lat="42.304884" lon="-8.799094">
        <ele>206.8</ele>
        <time>1970-01-01T02:58:25.000Z</time>
      </trkpt>
      <trkpt lat="42.304887" lon="-8.799108">
        <ele>206.8</ele>
        <time>1970-01-01T02:58:26.000Z</time>
      </trkpt>
      <trkpt lat="42.30489" lon="-8.799121">
        <ele>206.8</ele>
        <time>1970-01-01T02:58:27.000Z</time>
      </trkpt>
      <trkpt lat="42.304893" lon="-8.799131">
        <ele>206.8</ele>
        <time>1970-01-01T02:58:28.000Z</time>
      </trkpt>
      <trkpt lat="42.304896" lon="-8.799141">
        <ele>206.6</ele>
        <time>1970-01-01T02:58:29.000Z</time>
      </trkpt>
      <trkpt lat="42.304896" lon="-8.799161">
        <ele>206.6</ele>
        <time>1970-01-01T02:58:30.000Z</time>
      </trkpt>
      <trkpt lat="42.304897" lon="-8.799175">
        <ele>206.4</ele>
        <time>1970-01-01T02:58:31.000Z</time>
      </trkpt>
      <trkpt lat="42.304903" lon="-8.799184">
        <ele>206.2</ele>
        <time>1970-01-01T02:58:32.000Z</time>
      </trkpt>
      <trkpt lat="42.304906" lon="-8.799195">
        <ele>206</ele>
        <time>1970-01-01T02:58:33.000Z</time>
      </trkpt>
      <trkpt lat="42.304909" lon="-8.799209">
        <ele>205.8</ele>
        <time>1970-01-01T02:58:34.000Z</time>
      </trkpt>
      <trkpt lat="42.304911" lon="-8.799222">
        <ele>205.6</ele>
        <time>1970-01-01T02:58:35.000Z</time>
      </trkpt>
      <trkpt lat="42.304915" lon="-8.799234">
        <ele>205.4</ele>
        <time>1970-01-01T02:58:36.000Z</time>
      </trkpt>
      <trkpt lat="42.30492" lon="-8.799242">
        <ele>205.4</ele>
        <time>1970-01-01T02:58:37.000Z</time>
      </trkpt>
      <trkpt lat="42.304921" lon="-8.799244">
        <ele>205.2</ele>
        <time>1970-01-01T02:58:38.000Z</time>
      </trkpt>
      <trkpt lat="42.304925" lon="-8.79925">
        <ele>205</ele>
        <time>1970-01-01T02:58:39.000Z</time>
      </trkpt>
      <trkpt lat="42.304925" lon="-8.79926">
        <ele>204.8</ele>
        <time>1970-01-01T02:58:40.000Z</time>
      </trkpt>
      <trkpt lat="42.304925" lon="-8.799274">
        <ele>204.4</ele>
        <time>1970-01-01T02:58:41.000Z</time>
      </trkpt>
      <trkpt lat="42.304929" lon="-8.799293">
        <ele>204.4</ele>
        <time>1970-01-01T02:58:42.000Z</time>
      </trkpt>
      <trkpt lat="42.304937" lon="-8.799301">
        <ele>204</ele>
        <time>1970-01-01T02:58:43.000Z</time>
      </trkpt>
      <trkpt lat="42.30494" lon="-8.799313">
        <ele>203.6</ele>
        <time>1970-01-01T02:58:44.000Z</time>
      </trkpt>
      <trkpt lat="42.304939" lon="-8.799318">
        <ele>203.6</ele>
        <time>1970-01-01T02:58:45.000Z</time>
      </trkpt>
      <trkpt lat="42.304933" lon="-8.799324">
        <ele>203.6</ele>
        <time>1970-01-01T02:58:46.000Z</time>
      </trkpt>
      <trkpt lat="42.304927" lon="-8.799329">
        <ele>203.4</ele>
        <time>1970-01-01T02:58:47.000Z</time>
      </trkpt>
      <trkpt lat="42.304921" lon="-8.799333">
        <ele>203.4</ele>
        <time>1970-01-01T02:58:48.000Z</time>
      </trkpt>
      <trkpt lat="42.304913" lon="-8.799337">
        <ele>203.4</ele>
        <time>1970-01-01T02:58:49.000Z</time>
      </trkpt>
      <trkpt lat="42.304907" lon="-8.799343">
        <ele>203.6</ele>
        <time>1970-01-01T02:58:50.000Z</time>
      </trkpt>
      <trkpt lat="42.3049" lon="-8.799353">
        <ele>203.6</ele>
        <time>1970-01-01T02:58:51.000Z</time>
      </trkpt>
      <trkpt lat="42.304894" lon="-8.799369">
        <ele>203.8</ele>
        <time>1970-01-01T02:58:52.000Z</time>
      </trkpt>
      <trkpt lat="42.30489" lon="-8.799378">
        <ele>203.8</ele>
        <time>1970-01-01T02:58:53.000Z</time>
      </trkpt>
      <trkpt lat="42.304886" lon="-8.799391">
        <ele>204</ele>
        <time>1970-01-01T02:58:54.000Z</time>
      </trkpt>
      <trkpt lat="42.304881" lon="-8.799405">
        <ele>204.2</ele>
        <time>1970-01-01T02:58:55.000Z</time>
      </trkpt>
      <trkpt lat="42.304871" lon="-8.79942">
        <ele>204.4</ele>
        <time>1970-01-01T02:58:56.000Z</time>
      </trkpt>
      <trkpt lat="42.304863" lon="-8.799434">
        <ele>204.4</ele>
        <time>1970-01-01T02:58:57.000Z</time>
      </trkpt>
      <trkpt lat="42.304856" lon="-8.799449">
        <ele>204.2</ele>
        <time>1970-01-01T02:58:58.000Z</time>
      </trkpt>
      <trkpt lat="42.304851" lon="-8.799463">
        <ele>204</ele>
        <time>1970-01-01T02:58:59.000Z</time>
      </trkpt>
      <trkpt lat="42.304844" lon="-8.799482">
        <ele>204.2</ele>
        <time>1970-01-01T02:59:00.000Z</time>
      </trkpt>
      <trkpt lat="42.30484" lon="-8.799502">
        <ele>204.2</ele>
        <time>1970-01-01T02:59:01.000Z</time>
      </trkpt>
      <trkpt lat="42.304835" lon="-8.799519">
        <ele>204.2</ele>
        <time>1970-01-01T02:59:02.000Z</time>
      </trkpt>
      <trkpt lat="42.304832" lon="-8.799539">
        <ele>204.2</ele>
        <time>1970-01-01T02:59:03.000Z</time>
      </trkpt>
      <trkpt lat="42.304832" lon="-8.799552">
        <ele>204.2</ele>
        <time>1970-01-01T02:59:04.000Z</time>
      </trkpt>
      <trkpt lat="42.304831" lon="-8.799562">
        <ele>204.4</ele>
        <time>1970-01-01T02:59:05.000Z</time>
      </trkpt>
      <trkpt lat="42.304829" lon="-8.799572">
        <ele>204.4</ele>
        <time>1970-01-01T02:59:06.000Z</time>
      </trkpt>
      <trkpt lat="42.30483" lon="-8.799592">
        <ele>204.4</ele>
        <time>1970-01-01T02:59:07.000Z</time>
      </trkpt>
      <trkpt lat="42.304828" lon="-8.799607">
        <ele>204.4</ele>
        <time>1970-01-01T02:59:08.000Z</time>
      </trkpt>
      <trkpt lat="42.304824" lon="-8.799618">
        <ele>204.2</ele>
        <time>1970-01-01T02:59:09.000Z</time>
      </trkpt>
      <trkpt lat="42.304818" lon="-8.79963">
        <ele>204.4</ele>
        <time>1970-01-01T02:59:10.000Z</time>
      </trkpt>
      <trkpt lat="42.304812" lon="-8.799641">
        <ele>204.4</ele>
        <time>1970-01-01T02:59:11.000Z</time>
      </trkpt>
      <trkpt lat="42.304805" lon="-8.799651">
        <ele>204.4</ele>
        <time>1970-01-01T02:59:12.000Z</time>
      </trkpt>
      <trkpt lat="42.304801" lon="-8.799665">
        <ele>204.2</ele>
        <time>1970-01-01T02:59:13.000Z</time>
      </trkpt>
      <trkpt lat="42.304798" lon="-8.799678">
        <ele>204.4</ele>
        <time>1970-01-01T02:59:14.000Z</time>
      </trkpt>
      <trkpt lat="42.304795" lon="-8.799693">
        <ele>204.4</ele>
        <time>1970-01-01T02:59:15.000Z</time>
      </trkpt>
      <trkpt lat="42.304793" lon="-8.799703">
        <ele>204.6</ele>
        <time>1970-01-01T02:59:16.000Z</time>
      </trkpt>
      <trkpt lat="42.304789" lon="-8.799715">
        <ele>205</ele>
        <time>1970-01-01T02:59:17.000Z</time>
      </trkpt>
      <trkpt lat="42.304783" lon="-8.79973">
        <ele>205</ele>
        <time>1970-01-01T02:59:18.000Z</time>
      </trkpt>
      <trkpt lat="42.304779" lon="-8.799746">
        <ele>205</ele>
        <time>1970-01-01T02:59:19.000Z</time>
      </trkpt>
      <trkpt lat="42.304777" lon="-8.799759">
        <ele>205</ele>
        <time>1970-01-01T02:59:20.000Z</time>
      </trkpt>
      <trkpt lat="42.304778" lon="-8.799768">
        <ele>205</ele>
        <time>1970-01-01T02:59:21.000Z</time>
      </trkpt>
      <trkpt lat="42.30478" lon="-8.799777">
        <ele>205</ele>
        <time>1970-01-01T02:59:22.000Z</time>
      </trkpt>
      <trkpt lat="42.304778" lon="-8.799787">
        <ele>204.8</ele>
        <time>1970-01-01T02:59:23.000Z</time>
      </trkpt>
      <trkpt lat="42.304777" lon="-8.799796">
        <ele>204.6</ele>
        <time>1970-01-01T02:59:24.000Z</time>
      </trkpt>
      <trkpt lat="42.304773" lon="-8.799806">
        <ele>204.4</ele>
        <time>1970-01-01T02:59:25.000Z</time>
      </trkpt>
      <trkpt lat="42.304769" lon="-8.799821">
        <ele>204.2</ele>
        <time>1970-01-01T02:59:26.000Z</time>
      </trkpt>
      <trkpt lat="42.304764" lon="-8.799839">
        <ele>204.2</ele>
        <time>1970-01-01T02:59:27.000Z</time>
      </trkpt>
      <trkpt lat="42.304761" lon="-8.79985">
        <ele>204</ele>
        <time>1970-01-01T02:59:28.000Z</time>
      </trkpt>
      <trkpt lat="42.304759" lon="-8.799861">
        <ele>204</ele>
        <time>1970-01-01T02:59:29.000Z</time>
      </trkpt>
      <trkpt lat="42.304757" lon="-8.79988">
        <ele>204</ele>
        <time>1970-01-01T02:59:30.000Z</time>
      </trkpt>
      <trkpt lat="42.304754" lon="-8.799899">
        <ele>203.8</ele>
        <time>1970-01-01T02:59:31.000Z</time>
      </trkpt>
      <trkpt lat="42.304752" lon="-8.799919">
        <ele>203.8</ele>
        <time>1970-01-01T02:59:32.000Z</time>
      </trkpt>
      <trkpt lat="42.304748" lon="-8.79994">
        <ele>203.8</ele>
        <time>1970-01-01T02:59:33.000Z</time>
      </trkpt>
      <trkpt lat="42.304748" lon="-8.799957">
        <ele>203.6</ele>
        <time>1970-01-01T02:59:34.000Z</time>
      </trkpt>
      <trkpt lat="42.304747" lon="-8.799977">
        <ele>203.4</ele>
        <time>1970-01-01T02:59:35.000Z</time>
      </trkpt>
      <trkpt lat="42.304743" lon="-8.799997">
        <ele>203.2</ele>
        <time>1970-01-01T02:59:36.000Z</time>
      </trkpt>
      <trkpt lat="42.304739" lon="-8.800015">
        <ele>203.2</ele>
        <time>1970-01-01T02:59:37.000Z</time>
      </trkpt>
      <trkpt lat="42.304735" lon="-8.800032">
        <ele>203.2</ele>
        <time>1970-01-01T02:59:38.000Z</time>
      </trkpt>
      <trkpt lat="42.30473" lon="-8.800046">
        <ele>203.2</ele>
        <time>1970-01-01T02:59:39.000Z</time>
      </trkpt>
      <trkpt lat="42.304722" lon="-8.800058">
        <ele>203</ele>
        <time>1970-01-01T02:59:40.000Z</time>
      </trkpt>
      <trkpt lat="42.304716" lon="-8.800068">
        <ele>203</ele>
        <time>1970-01-01T02:59:41.000Z</time>
      </trkpt>
      <trkpt lat="42.304709" lon="-8.800079">
        <ele>202.6</ele>
        <time>1970-01-01T02:59:42.000Z</time>
      </trkpt>
      <trkpt lat="42.304702" lon="-8.800085">
        <ele>202.2</ele>
        <time>1970-01-01T02:59:43.000Z</time>
      </trkpt>
      <trkpt lat="42.304695" lon="-8.800091">
        <ele>202.2</ele>
        <time>1970-01-01T02:59:44.000Z</time>
      </trkpt>
      <trkpt lat="42.304689" lon="-8.800098">
        <ele>202</ele>
        <time>1970-01-01T02:59:45.000Z</time>
      </trkpt>
      <trkpt lat="42.304682" lon="-8.800103">
        <ele>202</ele>
        <time>1970-01-01T02:59:46.000Z</time>
      </trkpt>
      <trkpt lat="42.304674" lon="-8.800107">
        <ele>202</ele>
        <time>1970-01-01T02:59:47.000Z</time>
      </trkpt>
      <trkpt lat="42.304666" lon="-8.800113">
        <ele>202</ele>
        <time>1970-01-01T02:59:48.000Z</time>
      </trkpt>
      <trkpt lat="42.30466" lon="-8.800117">
        <ele>202</ele>
        <time>1970-01-01T02:59:49.000Z</time>
      </trkpt>
      <trkpt lat="42.304652" lon="-8.800118">
        <ele>202</ele>
        <time>1970-01-01T02:59:50.000Z</time>
      </trkpt>
      <trkpt lat="42.304644" lon="-8.800119">
        <ele>202</ele>
        <time>1970-01-01T02:59:51.000Z</time>
      </trkpt>
      <trkpt lat="42.304635" lon="-8.800124">
        <ele>202</ele>
        <time>1970-01-01T02:59:52.000Z</time>
      </trkpt>
      <trkpt lat="42.304624" lon="-8.800137">
        <ele>202</ele>
        <time>1970-01-01T02:59:53.000Z</time>
      </trkpt>
      <trkpt lat="42.304614" lon="-8.800153">
        <ele>202</ele>
        <time>1970-01-01T02:59:54.000Z</time>
      </trkpt>
      <trkpt lat="42.304607" lon="-8.800167">
        <ele>202.2</ele>
        <time>1970-01-01T02:59:55.000Z</time>
      </trkpt>
      <trkpt lat="42.304603" lon="-8.800176">
        <ele>202.4</ele>
        <time>1970-01-01T02:59:56.000Z</time>
      </trkpt>
      <trkpt lat="42.304598" lon="-8.800186">
        <ele>202.2</ele>
        <time>1970-01-01T02:59:57.000Z</time>
      </trkpt>
      <trkpt lat="42.304594" lon="-8.800197">
        <ele>202</ele>
        <time>1970-01-01T02:59:58.000Z</time>
      </trkpt>
      <trkpt lat="42.304589" lon="-8.800206">
        <ele>201.8</ele>
        <time>1970-01-01T02:59:59.000Z</time>
      </trkpt>
      <trkpt lat="42.304586" lon="-8.800213">
        <ele>201.8</ele>
        <time>1970-01-01T03:00:00.000Z</time>
      </trkpt>
      <trkpt lat="42.304583" lon="-8.800222">
        <ele>201.6</ele>
        <time>1970-01-01T03:00:01.000Z</time>
      </trkpt>
      <trkpt lat="42.304578" lon="-8.800228">
        <ele>201.6</ele>
        <time>1970-01-01T03:00:02.000Z</time>
      </trkpt>
      <trkpt lat="42.304572" lon="-8.800233">
        <ele>201.4</ele>
        <time>1970-01-01T03:00:03.000Z</time>
      </trkpt>
      <trkpt lat="42.304566" lon="-8.800238">
        <ele>201.4</ele>
        <time>1970-01-01T03:00:04.000Z</time>
      </trkpt>
      <trkpt lat="42.304561" lon="-8.800242">
        <ele>201.4</ele>
        <time>1970-01-01T03:00:05.000Z</time>
      </trkpt>
      <trkpt lat="42.304555" lon="-8.800246">
        <ele>201.4</ele>
        <time>1970-01-01T03:00:06.000Z</time>
      </trkpt>
      <trkpt lat="42.304549" lon="-8.800248">
        <ele>201.4</ele>
        <time>1970-01-01T03:00:07.000Z</time>
      </trkpt>
      <trkpt lat="42.30454" lon="-8.800249">
        <ele>201.2</ele>
        <time>1970-01-01T03:00:08.000Z</time>
      </trkpt>
      <trkpt lat="42.304534" lon="-8.800251">
        <ele>201.2</ele>
        <time>1970-01-01T03:00:09.000Z</time>
      </trkpt>
      <trkpt lat="42.304528" lon="-8.800253">
        <ele>201.2</ele>
        <time>1970-01-01T03:00:10.000Z</time>
      </trkpt>
      <trkpt lat="42.304522" lon="-8.800255">
        <ele>201</ele>
        <time>1970-01-01T03:00:11.000Z</time>
      </trkpt>
      <trkpt lat="42.304516" lon="-8.800256">
        <ele>200.8</ele>
        <time>1970-01-01T03:00:12.000Z</time>
      </trkpt>
      <trkpt lat="42.304509" lon="-8.800257">
        <ele>200.8</ele>
        <time>1970-01-01T03:00:13.000Z</time>
      </trkpt>
      <trkpt lat="42.3045" lon="-8.800256">
        <ele>200.8</ele>
        <time>1970-01-01T03:00:14.000Z</time>
      </trkpt>
      <trkpt lat="42.304489" lon="-8.800254">
        <ele>200.8</ele>
        <time>1970-01-01T03:00:15.000Z</time>
      </trkpt>
      <trkpt lat="42.304476" lon="-8.80025">
        <ele>201</ele>
        <time>1970-01-01T03:00:16.000Z</time>
      </trkpt>
      <trkpt lat="42.304458" lon="-8.800246">
        <ele>201.2</ele>
        <time>1970-01-01T03:00:17.000Z</time>
      </trkpt>
      <trkpt lat="42.304447" lon="-8.800244">
        <ele>201.2</ele>
        <time>1970-01-01T03:00:18.000Z</time>
      </trkpt>
      <trkpt lat="42.304433" lon="-8.800238">
        <ele>201.2</ele>
        <time>1970-01-01T03:00:19.000Z</time>
      </trkpt>
      <trkpt lat="42.304422" lon="-8.800237">
        <ele>201.4</ele>
        <time>1970-01-01T03:00:20.000Z</time>
      </trkpt>
      <trkpt lat="42.304412" lon="-8.800235">
        <ele>201.4</ele>
        <time>1970-01-01T03:00:21.000Z</time>
      </trkpt>
      <trkpt lat="42.304403" lon="-8.800237">
        <ele>201.2</ele>
        <time>1970-01-01T03:00:22.000Z</time>
      </trkpt>
      <trkpt lat="42.304394" lon="-8.80024">
        <ele>201.2</ele>
        <time>1970-01-01T03:00:23.000Z</time>
      </trkpt>
      <trkpt lat="42.304388" lon="-8.800245">
        <ele>201</ele>
        <time>1970-01-01T03:00:24.000Z</time>
      </trkpt>
      <trkpt lat="42.304382" lon="-8.800249">
        <ele>201.2</ele>
        <time>1970-01-01T03:00:25.000Z</time>
      </trkpt>
      <trkpt lat="42.304374" lon="-8.800255">
        <ele>201</ele>
        <time>1970-01-01T03:00:26.000Z</time>
      </trkpt>
      <trkpt lat="42.304366" lon="-8.800259">
        <ele>201</ele>
        <time>1970-01-01T03:00:27.000Z</time>
      </trkpt>
      <trkpt lat="42.304358" lon="-8.800261">
        <ele>201</ele>
        <time>1970-01-01T03:00:28.000Z</time>
      </trkpt>
      <trkpt lat="42.304351" lon="-8.800263">
        <ele>200.8</ele>
        <time>1970-01-01T03:00:29.000Z</time>
      </trkpt>
      <trkpt lat="42.304343" lon="-8.800264">
        <ele>200.8</ele>
        <time>1970-01-01T03:00:30.000Z</time>
      </trkpt>
      <trkpt lat="42.304336" lon="-8.800266">
        <ele>200.8</ele>
        <time>1970-01-01T03:00:31.000Z</time>
      </trkpt>
      <trkpt lat="42.304327" lon="-8.800261">
        <ele>200.6</ele>
        <time>1970-01-01T03:00:32.000Z</time>
      </trkpt>
      <trkpt lat="42.304316" lon="-8.800255">
        <ele>200.6</ele>
        <time>1970-01-01T03:00:33.000Z</time>
      </trkpt>
      <trkpt lat="42.304303" lon="-8.800249">
        <ele>200.4</ele>
        <time>1970-01-01T03:00:34.000Z</time>
      </trkpt>
      <trkpt lat="42.304292" lon="-8.800242">
        <ele>200</ele>
        <time>1970-01-01T03:00:35.000Z</time>
      </trkpt>
      <trkpt lat="42.304284" lon="-8.800237">
        <ele>199.8</ele>
        <time>1970-01-01T03:00:36.000Z</time>
      </trkpt>
      <trkpt lat="42.304275" lon="-8.800229">
        <ele>199.8</ele>
        <time>1970-01-01T03:00:37.000Z</time>
      </trkpt>
      <trkpt lat="42.304264" lon="-8.800214">
        <ele>199.6</ele>
        <time>1970-01-01T03:00:38.000Z</time>
      </trkpt>
      <trkpt lat="42.304255" lon="-8.8002">
        <ele>199.6</ele>
        <time>1970-01-01T03:00:39.000Z</time>
      </trkpt>
      <trkpt lat="42.304244" lon="-8.800187">
        <ele>199.6</ele>
        <time>1970-01-01T03:00:40.000Z</time>
      </trkpt>
      <trkpt lat="42.304233" lon="-8.800177">
        <ele>199.6</ele>
        <time>1970-01-01T03:00:41.000Z</time>
      </trkpt>
      <trkpt lat="42.304222" lon="-8.80017">
        <ele>199.6</ele>
        <time>1970-01-01T03:00:42.000Z</time>
      </trkpt>
      <trkpt lat="42.304212" lon="-8.800164">
        <ele>199.6</ele>
        <time>1970-01-01T03:00:43.000Z</time>
      </trkpt>
      <trkpt lat="42.304199" lon="-8.800164">
        <ele>199.8</ele>
        <time>1970-01-01T03:00:44.000Z</time>
      </trkpt>
      <trkpt lat="42.304182" lon="-8.800166">
        <ele>199.8</ele>
        <time>1970-01-01T03:00:45.000Z</time>
      </trkpt>
      <trkpt lat="42.304166" lon="-8.800167">
        <ele>199.8</ele>
        <time>1970-01-01T03:00:46.000Z</time>
      </trkpt>
      <trkpt lat="42.304156" lon="-8.800164">
        <ele>199.6</ele>
        <time>1970-01-01T03:00:47.000Z</time>
      </trkpt>
      <trkpt lat="42.304146" lon="-8.80016">
        <ele>199.2</ele>
        <time>1970-01-01T03:00:48.000Z</time>
      </trkpt>
      <trkpt lat="42.304136" lon="-8.800156">
        <ele>199</ele>
        <time>1970-01-01T03:00:49.000Z</time>
      </trkpt>
      <trkpt lat="42.304129" lon="-8.800154">
        <ele>198.8</ele>
        <time>1970-01-01T03:00:50.000Z</time>
      </trkpt>
      <trkpt lat="42.304123" lon="-8.800151">
        <ele>198.8</ele>
        <time>1970-01-01T03:00:51.000Z</time>
      </trkpt>
      <trkpt lat="42.304117" lon="-8.800148">
        <ele>198.6</ele>
        <time>1970-01-01T03:00:52.000Z</time>
      </trkpt>
      <trkpt lat="42.304113" lon="-8.800142">
        <ele>198.6</ele>
        <time>1970-01-01T03:00:53.000Z</time>
      </trkpt>
      <trkpt lat="42.304112" lon="-8.800131">
        <ele>198.8</ele>
        <time>1970-01-01T03:00:54.000Z</time>
      </trkpt>
      <trkpt lat="42.304109" lon="-8.800124">
        <ele>198.8</ele>
        <time>1970-01-01T03:00:55.000Z</time>
      </trkpt>
      <trkpt lat="42.304107" lon="-8.800117">
        <ele>198.8</ele>
        <time>1970-01-01T03:00:56.000Z</time>
      </trkpt>
      <trkpt lat="42.304104" lon="-8.800111">
        <ele>198.8</ele>
        <time>1970-01-01T03:00:57.000Z</time>
      </trkpt>
      <trkpt lat="42.304095" lon="-8.800097">
        <ele>198.8</ele>
        <time>1970-01-01T03:00:58.000Z</time>
      </trkpt>
      <trkpt lat="42.30409" lon="-8.800084">
        <ele>199</ele>
        <time>1970-01-01T03:00:59.000Z</time>
      </trkpt>
      <trkpt lat="42.304083" lon="-8.800071">
        <ele>199</ele>
        <time>1970-01-01T03:01:00.000Z</time>
      </trkpt>
      <trkpt lat="42.304076" lon="-8.800063">
        <ele>199</ele>
        <time>1970-01-01T03:01:01.000Z</time>
      </trkpt>
      <trkpt lat="42.304068" lon="-8.800058">
        <ele>199.2</ele>
        <time>1970-01-01T03:01:02.000Z</time>
      </trkpt>
      <trkpt lat="42.304061" lon="-8.800054">
        <ele>199</ele>
        <time>1970-01-01T03:01:03.000Z</time>
      </trkpt>
      <trkpt lat="42.304055" lon="-8.800046">
        <ele>199</ele>
        <time>1970-01-01T03:01:04.000Z</time>
      </trkpt>
      <trkpt lat="42.30405" lon="-8.800034">
        <ele>199</ele>
        <time>1970-01-01T03:01:05.000Z</time>
      </trkpt>
      <trkpt lat="42.304045" lon="-8.800027">
        <ele>199</ele>
        <time>1970-01-01T03:01:06.000Z</time>
      </trkpt>
      <trkpt lat="42.304041" lon="-8.800019">
        <ele>198.8</ele>
        <time>1970-01-01T03:01:07.000Z</time>
      </trkpt>
      <trkpt lat="42.304037" lon="-8.800008">
        <ele>198.8</ele>
        <time>1970-01-01T03:01:08.000Z</time>
      </trkpt>
      <trkpt lat="42.304029" lon="-8.799994">
        <ele>198.6</ele>
        <time>1970-01-01T03:01:09.000Z</time>
      </trkpt>
      <trkpt lat="42.304023" lon="-8.799984">
        <ele>198.4</ele>
        <time>1970-01-01T03:01:10.000Z</time>
      </trkpt>
      <trkpt lat="42.304017" lon="-8.799972">
        <ele>198.2</ele>
        <time>1970-01-01T03:01:11.000Z</time>
      </trkpt>
      <trkpt lat="42.304012" lon="-8.799954">
        <ele>198.2</ele>
        <time>1970-01-01T03:01:12.000Z</time>
      </trkpt>
      <trkpt lat="42.304001" lon="-8.799941">
        <ele>198.2</ele>
        <time>1970-01-01T03:01:13.000Z</time>
      </trkpt>
      <trkpt lat="42.303994" lon="-8.799932">
        <ele>198.2</ele>
        <time>1970-01-01T03:01:14.000Z</time>
      </trkpt>
      <trkpt lat="42.303985" lon="-8.799928">
        <ele>198.2</ele>
        <time>1970-01-01T03:01:15.000Z</time>
      </trkpt>
      <trkpt lat="42.303975" lon="-8.799921">
        <ele>198.2</ele>
        <time>1970-01-01T03:01:16.000Z</time>
      </trkpt>
      <trkpt lat="42.303968" lon="-8.799916">
        <ele>198.2</ele>
        <time>1970-01-01T03:01:17.000Z</time>
      </trkpt>
      <trkpt lat="42.303964" lon="-8.799911">
        <ele>198.4</ele>
        <time>1970-01-01T03:01:18.000Z</time>
      </trkpt>
      <trkpt lat="42.30396" lon="-8.799906">
        <ele>198.4</ele>
        <time>1970-01-01T03:01:19.000Z</time>
      </trkpt>
      <trkpt lat="42.303958" lon="-8.799903">
        <ele>198.6</ele>
        <time>1970-01-01T03:01:20.000Z</time>
      </trkpt>
      <trkpt lat="42.303956" lon="-8.799897">
        <ele>198.8</ele>
        <time>1970-01-01T03:01:21.000Z</time>
      </trkpt>
      <trkpt lat="42.303952" lon="-8.79989">
        <ele>199</ele>
        <time>1970-01-01T03:01:22.000Z</time>
      </trkpt>
      <trkpt lat="42.303947" lon="-8.799882">
        <ele>199</ele>
        <time>1970-01-01T03:01:23.000Z</time>
      </trkpt>
      <trkpt lat="42.30394" lon="-8.799874">
        <ele>199.2</ele>
        <time>1970-01-01T03:01:24.000Z</time>
      </trkpt>
      <trkpt lat="42.303935" lon="-8.799866">
        <ele>199.4</ele>
        <time>1970-01-01T03:01:25.000Z</time>
      </trkpt>
      <trkpt lat="42.303936" lon="-8.799855">
        <ele>199.6</ele>
        <time>1970-01-01T03:01:26.000Z</time>
      </trkpt>
      <trkpt lat="42.303939" lon="-8.799847">
        <ele>199.6</ele>
        <time>1970-01-01T03:01:27.000Z</time>
      </trkpt>
      <trkpt lat="42.303942" lon="-8.79984">
        <ele>199.6</ele>
        <time>1970-01-01T03:01:28.000Z</time>
      </trkpt>
      <trkpt lat="42.303945" lon="-8.799833">
        <ele>199.6</ele>
        <time>1970-01-01T03:01:29.000Z</time>
      </trkpt>
      <trkpt lat="42.303951" lon="-8.799826">
        <ele>200.4</ele>
        <time>1970-01-01T03:01:30.000Z</time>
      </trkpt>
      <trkpt lat="42.303954" lon="-8.799817">
        <ele>200.8</ele>
        <time>1970-01-01T03:01:31.000Z</time>
      </trkpt>
      <trkpt lat="42.303959" lon="-8.799804">
        <ele>201</ele>
        <time>1970-01-01T03:01:32.000Z</time>
      </trkpt>
      <trkpt lat="42.303967" lon="-8.799793">
        <ele>201</ele>
        <time>1970-01-01T03:01:33.000Z</time>
      </trkpt>
      <trkpt lat="42.30397" lon="-8.799785">
        <ele>201.2</ele>
        <time>1970-01-01T03:01:34.000Z</time>
      </trkpt>
      <trkpt lat="42.303972" lon="-8.799776">
        <ele>201.4</ele>
        <time>1970-01-01T03:01:35.000Z</time>
      </trkpt>
      <trkpt lat="42.303974" lon="-8.799764">
        <ele>201.4</ele>
        <time>1970-01-01T03:01:36.000Z</time>
      </trkpt>
      <trkpt lat="42.303974" lon="-8.799748">
        <ele>201.4</ele>
        <time>1970-01-01T03:01:37.000Z</time>
      </trkpt>
      <trkpt lat="42.303978" lon="-8.799732">
        <ele>201.6</ele>
        <time>1970-01-01T03:01:38.000Z</time>
      </trkpt>
      <trkpt lat="42.303982" lon="-8.799714">
        <ele>201.6</ele>
        <time>1970-01-01T03:01:39.000Z</time>
      </trkpt>
      <trkpt lat="42.303985" lon="-8.799693">
        <ele>201.4</ele>
        <time>1970-01-01T03:01:40.000Z</time>
      </trkpt>
      <trkpt lat="42.303989" lon="-8.799674">
        <ele>201.4</ele>
        <time>1970-01-01T03:01:41.000Z</time>
      </trkpt>
      <trkpt lat="42.303989" lon="-8.799656">
        <ele>201.4</ele>
        <time>1970-01-01T03:01:42.000Z</time>
      </trkpt>
      <trkpt lat="42.30399" lon="-8.799642">
        <ele>201.4</ele>
        <time>1970-01-01T03:01:43.000Z</time>
      </trkpt>
      <trkpt lat="42.303988" lon="-8.799628">
        <ele>201.6</ele>
        <time>1970-01-01T03:01:44.000Z</time>
      </trkpt>
      <trkpt lat="42.303988" lon="-8.799614">
        <ele>201.6</ele>
        <time>1970-01-01T03:01:45.000Z</time>
      </trkpt>
      <trkpt lat="42.303987" lon="-8.7996">
        <ele>201.6</ele>
        <time>1970-01-01T03:01:46.000Z</time>
      </trkpt>
      <trkpt lat="42.303982" lon="-8.799588">
        <ele>201.6</ele>
        <time>1970-01-01T03:01:47.000Z</time>
      </trkpt>
      <trkpt lat="42.303977" lon="-8.799577">
        <ele>201.6</ele>
        <time>1970-01-01T03:01:48.000Z</time>
      </trkpt>
      <trkpt lat="42.303975" lon="-8.799567">
        <ele>201.6</ele>
        <time>1970-01-01T03:01:49.000Z</time>
      </trkpt>
      <trkpt lat="42.303974" lon="-8.799555">
        <ele>201.6</ele>
        <time>1970-01-01T03:01:50.000Z</time>
      </trkpt>
      <trkpt lat="42.303973" lon="-8.799544">
        <ele>201.6</ele>
        <time>1970-01-01T03:01:51.000Z</time>
      </trkpt>
      <trkpt lat="42.303974" lon="-8.799532">
        <ele>201.6</ele>
        <time>1970-01-01T03:01:52.000Z</time>
      </trkpt>
      <trkpt lat="42.303973" lon="-8.79952">
        <ele>201.6</ele>
        <time>1970-01-01T03:01:53.000Z</time>
      </trkpt>
      <trkpt lat="42.303974" lon="-8.799509">
        <ele>201.6</ele>
        <time>1970-01-01T03:01:54.000Z</time>
      </trkpt>
      <trkpt lat="42.303976" lon="-8.799495">
        <ele>201.4</ele>
        <time>1970-01-01T03:01:55.000Z</time>
      </trkpt>
      <trkpt lat="42.303977" lon="-8.79948">
        <ele>201.2</ele>
        <time>1970-01-01T03:01:56.000Z</time>
      </trkpt>
      <trkpt lat="42.303977" lon="-8.79947">
        <ele>201.2</ele>
        <time>1970-01-01T03:01:57.000Z</time>
      </trkpt>
      <trkpt lat="42.303977" lon="-8.799456">
        <ele>201</ele>
        <time>1970-01-01T03:01:58.000Z</time>
      </trkpt>
      <trkpt lat="42.303979" lon="-8.79945">
        <ele>201</ele>
        <time>1970-01-01T03:01:59.000Z</time>
      </trkpt>
      <trkpt lat="42.303981" lon="-8.799439">
        <ele>200.8</ele>
        <time>1970-01-01T03:02:00.000Z</time>
      </trkpt>
      <trkpt lat="42.303984" lon="-8.799429">
        <ele>200.8</ele>
        <time>1970-01-01T03:02:01.000Z</time>
      </trkpt>
      <trkpt lat="42.303985" lon="-8.799415">
        <ele>200.8</ele>
        <time>1970-01-01T03:02:02.000Z</time>
      </trkpt>
      <trkpt lat="42.303987" lon="-8.799403">
        <ele>200.8</ele>
        <time>1970-01-01T03:02:03.000Z</time>
      </trkpt>
      <trkpt lat="42.30399" lon="-8.799388">
        <ele>200.6</ele>
        <time>1970-01-01T03:02:04.000Z</time>
      </trkpt>
      <trkpt lat="42.303991" lon="-8.799368">
        <ele>200.6</ele>
        <time>1970-01-01T03:02:05.000Z</time>
      </trkpt>
      <trkpt lat="42.303994" lon="-8.799354">
        <ele>200.6</ele>
        <time>1970-01-01T03:02:06.000Z</time>
      </trkpt>
      <trkpt lat="42.303993" lon="-8.799337">
        <ele>200.6</ele>
        <time>1970-01-01T03:02:07.000Z</time>
      </trkpt>
      <trkpt lat="42.303998" lon="-8.79932">
        <ele>200.6</ele>
        <time>1970-01-01T03:02:08.000Z</time>
      </trkpt>
      <trkpt lat="42.304" lon="-8.799301">
        <ele>200.4</ele>
        <time>1970-01-01T03:02:09.000Z</time>
      </trkpt>
      <trkpt lat="42.304001" lon="-8.799285">
        <ele>200.4</ele>
        <time>1970-01-01T03:02:10.000Z</time>
      </trkpt>
      <trkpt lat="42.304001" lon="-8.799277">
        <ele>200.4</ele>
        <time>1970-01-01T03:02:11.000Z</time>
      </trkpt>
      <trkpt lat="42.303998" lon="-8.799273">
        <ele>200.2</ele>
        <time>1970-01-01T03:02:12.000Z</time>
      </trkpt>
      <trkpt lat="42.303997" lon="-8.799268">
        <ele>200.2</ele>
        <time>1970-01-01T03:02:13.000Z</time>
      </trkpt>
      <trkpt lat="42.303996" lon="-8.799261">
        <ele>200.2</ele>
        <time>1970-01-01T03:02:14.000Z</time>
      </trkpt>
      <trkpt lat="42.303996" lon="-8.799261">
        <ele>200.2</ele>
        <time>1970-01-01T03:02:15.000Z</time>
      </trkpt>
      <trkpt lat="42.303996" lon="-8.799261">
        <ele>200</ele>
        <time>1970-01-01T03:02:16.000Z</time>
      </trkpt>
      <trkpt lat="42.303974" lon="-8.799235">
        <ele>200</ele>
        <time>1970-01-01T03:02:45.000Z</time>
      </trkpt>
      <trkpt lat="42.30397" lon="-8.799226">
        <ele>200</ele>
        <time>1970-01-01T03:02:46.000Z</time>
      </trkpt>
      <trkpt lat="42.303966" lon="-8.799217">
        <ele>200</ele>
        <time>1970-01-01T03:02:47.000Z</time>
      </trkpt>
      <trkpt lat="42.30396" lon="-8.79921">
        <ele>200</ele>
        <time>1970-01-01T03:02:48.000Z</time>
      </trkpt>
      <trkpt lat="42.303952" lon="-8.799207">
        <ele>200</ele>
        <time>1970-01-01T03:02:49.000Z</time>
      </trkpt>
      <trkpt lat="42.303944" lon="-8.7992">
        <ele>200</ele>
        <time>1970-01-01T03:02:50.000Z</time>
      </trkpt>
      <trkpt lat="42.30394" lon="-8.799194">
        <ele>199.8</ele>
        <time>1970-01-01T03:02:51.000Z</time>
      </trkpt>
      <trkpt lat="42.303934" lon="-8.799187">
        <ele>200</ele>
        <time>1970-01-01T03:02:52.000Z</time>
      </trkpt>
      <trkpt lat="42.303932" lon="-8.799181">
        <ele>199.8</ele>
        <time>1970-01-01T03:02:53.000Z</time>
      </trkpt>
      <trkpt lat="42.303931" lon="-8.799175">
        <ele>199.8</ele>
        <time>1970-01-01T03:02:54.000Z</time>
      </trkpt>
      <trkpt lat="42.303929" lon="-8.799163">
        <ele>199.8</ele>
        <time>1970-01-01T03:02:55.000Z</time>
      </trkpt>
      <trkpt lat="42.303926" lon="-8.799151">
        <ele>199.4</ele>
        <time>1970-01-01T03:02:56.000Z</time>
      </trkpt>
      <trkpt lat="42.303925" lon="-8.799146">
        <ele>199.2</ele>
        <time>1970-01-01T03:02:57.000Z</time>
      </trkpt>
      <trkpt lat="42.303926" lon="-8.799139">
        <ele>199.2</ele>
        <time>1970-01-01T03:02:58.000Z</time>
      </trkpt>
      <trkpt lat="42.303927" lon="-8.799134">
        <ele>198.4</ele>
        <time>1970-01-01T03:02:59.000Z</time>
      </trkpt>
      <trkpt lat="42.303929" lon="-8.799128">
        <ele>198</ele>
        <time>1970-01-01T03:03:00.000Z</time>
      </trkpt>
      <trkpt lat="42.303934" lon="-8.799123">
        <ele>197.6</ele>
        <time>1970-01-01T03:03:01.000Z</time>
      </trkpt>
      <trkpt lat="42.303939" lon="-8.799121">
        <ele>197.6</ele>
        <time>1970-01-01T03:03:02.000Z</time>
      </trkpt>
      <trkpt lat="42.303943" lon="-8.799118">
        <ele>197.6</ele>
        <time>1970-01-01T03:03:03.000Z</time>
      </trkpt>
      <trkpt lat="42.303952" lon="-8.799111">
        <ele>197.6</ele>
        <time>1970-01-01T03:03:04.000Z</time>
      </trkpt>
      <trkpt lat="42.303959" lon="-8.799106">
        <ele>197.8</ele>
        <time>1970-01-01T03:03:05.000Z</time>
      </trkpt>
      <trkpt lat="42.303966" lon="-8.7991">
        <ele>197.8</ele>
        <time>1970-01-01T03:03:06.000Z</time>
      </trkpt>
      <trkpt lat="42.303969" lon="-8.799092">
        <ele>198</ele>
        <time>1970-01-01T03:03:07.000Z</time>
      </trkpt>
      <trkpt lat="42.303974" lon="-8.799083">
        <ele>198</ele>
        <time>1970-01-01T03:03:08.000Z</time>
      </trkpt>
      <trkpt lat="42.303983" lon="-8.799075">
        <ele>198.2</ele>
        <time>1970-01-01T03:03:09.000Z</time>
      </trkpt>
      <trkpt lat="42.30399" lon="-8.799066">
        <ele>198.8</ele>
        <time>1970-01-01T03:03:10.000Z</time>
      </trkpt>
      <trkpt lat="42.303998" lon="-8.799059">
        <ele>199.2</ele>
        <time>1970-01-01T03:03:11.000Z</time>
      </trkpt>
      <trkpt lat="42.304002" lon="-8.799052">
        <ele>199.4</ele>
        <time>1970-01-01T03:03:12.000Z</time>
      </trkpt>
      <trkpt lat="42.304007" lon="-8.799048">
        <ele>199.6</ele>
        <time>1970-01-01T03:03:13.000Z</time>
      </trkpt>
      <trkpt lat="42.30401" lon="-8.799042">
        <ele>200</ele>
        <time>1970-01-01T03:03:14.000Z</time>
      </trkpt>
      <trkpt lat="42.304018" lon="-8.799039">
        <ele>200.2</ele>
        <time>1970-01-01T03:03:15.000Z</time>
      </trkpt>
      <trkpt lat="42.304029" lon="-8.799031">
        <ele>200.4</ele>
        <time>1970-01-01T03:03:16.000Z</time>
      </trkpt>
      <trkpt lat="42.304039" lon="-8.799029">
        <ele>200.4</ele>
        <time>1970-01-01T03:03:17.000Z</time>
      </trkpt>
      <trkpt lat="42.304043" lon="-8.799029">
        <ele>200.6</ele>
        <time>1970-01-01T03:03:18.000Z</time>
      </trkpt>
      <trkpt lat="42.304045" lon="-8.799032">
        <ele>200.8</ele>
        <time>1970-01-01T03:03:19.000Z</time>
      </trkpt>
      <trkpt lat="42.304045" lon="-8.799033">
        <ele>201</ele>
        <time>1970-01-01T03:03:20.000Z</time>
      </trkpt>
      <trkpt lat="42.304045" lon="-8.799032">
        <ele>201.4</ele>
        <time>1970-01-01T03:03:21.000Z</time>
      </trkpt>
      <trkpt lat="42.304044" lon="-8.799029">
        <ele>201.8</ele>
        <time>1970-01-01T03:03:22.000Z</time>
      </trkpt>
      <trkpt lat="42.304043" lon="-8.799024">
        <ele>201.8</ele>
        <time>1970-01-01T03:03:23.000Z</time>
      </trkpt>
      <trkpt lat="42.304042" lon="-8.799016">
        <ele>202</ele>
        <time>1970-01-01T03:03:24.000Z</time>
      </trkpt>
      <trkpt lat="42.304042" lon="-8.799011">
        <ele>202</ele>
        <time>1970-01-01T03:03:25.000Z</time>
      </trkpt>
      <trkpt lat="42.304042" lon="-8.799001">
        <ele>202</ele>
        <time>1970-01-01T03:03:26.000Z</time>
      </trkpt>
      <trkpt lat="42.304044" lon="-8.798991">
        <ele>202.2</ele>
        <time>1970-01-01T03:03:27.000Z</time>
      </trkpt>
      <trkpt lat="42.304048" lon="-8.798982">
        <ele>202.4</ele>
        <time>1970-01-01T03:03:28.000Z</time>
      </trkpt>
      <trkpt lat="42.304053" lon="-8.798973">
        <ele>202.8</ele>
        <time>1970-01-01T03:03:29.000Z</time>
      </trkpt>
      <trkpt lat="42.304057" lon="-8.798967">
        <ele>203</ele>
        <time>1970-01-01T03:03:30.000Z</time>
      </trkpt>
      <trkpt lat="42.304062" lon="-8.79896">
        <ele>203.2</ele>
        <time>1970-01-01T03:03:31.000Z</time>
      </trkpt>
      <trkpt lat="42.304063" lon="-8.798953">
        <ele>203.2</ele>
        <time>1970-01-01T03:03:32.000Z</time>
      </trkpt>
      <trkpt lat="42.304067" lon="-8.798944">
        <ele>203.6</ele>
        <time>1970-01-01T03:03:33.000Z</time>
      </trkpt>
      <trkpt lat="42.304069" lon="-8.798934">
        <ele>203.8</ele>
        <time>1970-01-01T03:03:34.000Z</time>
      </trkpt>
      <trkpt lat="42.304071" lon="-8.798924">
        <ele>203.8</ele>
        <time>1970-01-01T03:03:35.000Z</time>
      </trkpt>
      <trkpt lat="42.304073" lon="-8.798919">
        <ele>204</ele>
        <time>1970-01-01T03:03:36.000Z</time>
      </trkpt>
      <trkpt lat="42.304077" lon="-8.79892">
        <ele>204.4</ele>
        <time>1970-01-01T03:03:37.000Z</time>
      </trkpt>
      <trkpt lat="42.304077" lon="-8.798924">
        <ele>204.8</ele>
        <time>1970-01-01T03:03:38.000Z</time>
      </trkpt>
      <trkpt lat="42.304082" lon="-8.798927">
        <ele>205</ele>
        <time>1970-01-01T03:03:39.000Z</time>
      </trkpt>
      <trkpt lat="42.304086" lon="-8.798931">
        <ele>205.2</ele>
        <time>1970-01-01T03:03:40.000Z</time>
      </trkpt>
      <trkpt lat="42.304091" lon="-8.798934">
        <ele>205.4</ele>
        <time>1970-01-01T03:03:41.000Z</time>
      </trkpt>
      <trkpt lat="42.304095" lon="-8.798934">
        <ele>205.6</ele>
        <time>1970-01-01T03:03:42.000Z</time>
      </trkpt>
      <trkpt lat="42.304099" lon="-8.798938">
        <ele>205.8</ele>
        <time>1970-01-01T03:03:43.000Z</time>
      </trkpt>
      <trkpt lat="42.304104" lon="-8.798933">
        <ele>206</ele>
        <time>1970-01-01T03:03:44.000Z</time>
      </trkpt>
      <trkpt lat="42.304109" lon="-8.798927">
        <ele>206</ele>
        <time>1970-01-01T03:03:45.000Z</time>
      </trkpt>
      <trkpt lat="42.304116" lon="-8.798927">
        <ele>206.2</ele>
        <time>1970-01-01T03:03:46.000Z</time>
      </trkpt>
      <trkpt lat="42.304123" lon="-8.798935">
        <ele>206.2</ele>
        <time>1970-01-01T03:03:47.000Z</time>
      </trkpt>
      <trkpt lat="42.304133" lon="-8.798947">
        <ele>206.2</ele>
        <time>1970-01-01T03:03:48.000Z</time>
      </trkpt>
      <trkpt lat="42.304139" lon="-8.798956">
        <ele>206.4</ele>
        <time>1970-01-01T03:03:49.000Z</time>
      </trkpt>
      <trkpt lat="42.304142" lon="-8.79897">
        <ele>206.4</ele>
        <time>1970-01-01T03:03:50.000Z</time>
      </trkpt>
      <trkpt lat="42.304143" lon="-8.798977">
        <ele>206.4</ele>
        <time>1970-01-01T03:03:51.000Z</time>
      </trkpt>
      <trkpt lat="42.304144" lon="-8.798981">
        <ele>207</ele>
        <time>1970-01-01T03:03:52.000Z</time>
      </trkpt>
      <trkpt lat="42.304145" lon="-8.798978">
        <ele>207.2</ele>
        <time>1970-01-01T03:03:53.000Z</time>
      </trkpt>
      <trkpt lat="42.304144" lon="-8.798973">
        <ele>207.4</ele>
        <time>1970-01-01T03:03:54.000Z</time>
      </trkpt>
      <trkpt lat="42.304143" lon="-8.798973">
        <ele>207.6</ele>
        <time>1970-01-01T03:03:55.000Z</time>
      </trkpt>
      <trkpt lat="42.304146" lon="-8.798982">
        <ele>207.8</ele>
        <time>1970-01-01T03:03:56.000Z</time>
      </trkpt>
      <trkpt lat="42.30415" lon="-8.798991">
        <ele>207.8</ele>
        <time>1970-01-01T03:03:57.000Z</time>
      </trkpt>
      <trkpt lat="42.30415" lon="-8.798995">
        <ele>207.8</ele>
        <time>1970-01-01T03:03:58.000Z</time>
      </trkpt>
      <trkpt lat="42.304152" lon="-8.798999">
        <ele>208</ele>
        <time>1970-01-01T03:03:59.000Z</time>
      </trkpt>
      <trkpt lat="42.304156" lon="-8.799003">
        <ele>208.6</ele>
        <time>1970-01-01T03:04:00.000Z</time>
      </trkpt>
      <trkpt lat="42.304161" lon="-8.799005">
        <ele>209</ele>
        <time>1970-01-01T03:04:01.000Z</time>
      </trkpt>
      <trkpt lat="42.304163" lon="-8.799004">
        <ele>209.2</ele>
        <time>1970-01-01T03:04:02.000Z</time>
      </trkpt>
      <trkpt lat="42.304164" lon="-8.799006">
        <ele>209.4</ele>
        <time>1970-01-01T03:04:03.000Z</time>
      </trkpt>
      <trkpt lat="42.304166" lon="-8.799006">
        <ele>209.4</ele>
        <time>1970-01-01T03:04:04.000Z</time>
      </trkpt>
      <trkpt lat="42.304167" lon="-8.799003">
        <ele>209.6</ele>
        <time>1970-01-01T03:04:05.000Z</time>
      </trkpt>
      <trkpt lat="42.304167" lon="-8.798999">
        <ele>209.6</ele>
        <time>1970-01-01T03:04:06.000Z</time>
      </trkpt>
      <trkpt lat="42.304168" lon="-8.798996">
        <ele>209.6</ele>
        <time>1970-01-01T03:04:07.000Z</time>
      </trkpt>
      <trkpt lat="42.304172" lon="-8.799">
        <ele>209.6</ele>
        <time>1970-01-01T03:04:08.000Z</time>
      </trkpt>
      <trkpt lat="42.304178" lon="-8.799">
        <ele>209.6</ele>
        <time>1970-01-01T03:04:09.000Z</time>
      </trkpt>
      <trkpt lat="42.304185" lon="-8.799002">
        <ele>209.8</ele>
        <time>1970-01-01T03:04:10.000Z</time>
      </trkpt>
      <trkpt lat="42.30419" lon="-8.799005">
        <ele>210.4</ele>
        <time>1970-01-01T03:04:11.000Z</time>
      </trkpt>
      <trkpt lat="42.304193" lon="-8.799007">
        <ele>210.6</ele>
        <time>1970-01-01T03:04:12.000Z</time>
      </trkpt>
      <trkpt lat="42.304197" lon="-8.799008">
        <ele>210.8</ele>
        <time>1970-01-01T03:04:13.000Z</time>
      </trkpt>
      <trkpt lat="42.304199" lon="-8.799012">
        <ele>211</ele>
        <time>1970-01-01T03:04:14.000Z</time>
      </trkpt>
      <trkpt lat="42.304197" lon="-8.799015">
        <ele>211.2</ele>
        <time>1970-01-01T03:04:15.000Z</time>
      </trkpt>
      <trkpt lat="42.3042" lon="-8.799018">
        <ele>211.6</ele>
        <time>1970-01-01T03:04:16.000Z</time>
      </trkpt>
      <trkpt lat="42.304209" lon="-8.799021">
        <ele>212</ele>
        <time>1970-01-01T03:04:17.000Z</time>
      </trkpt>
      <trkpt lat="42.304214" lon="-8.799021">
        <ele>212.2</ele>
        <time>1970-01-01T03:04:18.000Z</time>
      </trkpt>
      <trkpt lat="42.304219" lon="-8.79902">
        <ele>212.4</ele>
        <time>1970-01-01T03:04:19.000Z</time>
      </trkpt>
      <trkpt lat="42.304223" lon="-8.799019">
        <ele>212.8</ele>
        <time>1970-01-01T03:04:20.000Z</time>
      </trkpt>
      <trkpt lat="42.304229" lon="-8.79902">
        <ele>213.2</ele>
        <time>1970-01-01T03:04:21.000Z</time>
      </trkpt>
      <trkpt lat="42.304237" lon="-8.79902">
        <ele>213.6</ele>
        <time>1970-01-01T03:04:22.000Z</time>
      </trkpt>
      <trkpt lat="42.304243" lon="-8.799021">
        <ele>213.6</ele>
        <time>1970-01-01T03:04:23.000Z</time>
      </trkpt>
      <trkpt lat="42.30425" lon="-8.799022">
        <ele>213.8</ele>
        <time>1970-01-01T03:04:24.000Z</time>
      </trkpt>
      <trkpt lat="42.304256" lon="-8.799025">
        <ele>214</ele>
        <time>1970-01-01T03:04:25.000Z</time>
      </trkpt>
      <trkpt lat="42.304259" lon="-8.799029">
        <ele>214.2</ele>
        <time>1970-01-01T03:04:26.000Z</time>
      </trkpt>
      <trkpt lat="42.304262" lon="-8.799033">
        <ele>214.2</ele>
        <time>1970-01-01T03:04:27.000Z</time>
      </trkpt>
      <trkpt lat="42.304265" lon="-8.799036">
        <ele>214.4</ele>
        <time>1970-01-01T03:04:28.000Z</time>
      </trkpt>
      <trkpt lat="42.304268" lon="-8.799037">
        <ele>214.4</ele>
        <time>1970-01-01T03:04:29.000Z</time>
      </trkpt>
      <trkpt lat="42.304271" lon="-8.799037">
        <ele>214.8</ele>
        <time>1970-01-01T03:04:30.000Z</time>
      </trkpt>
      <trkpt lat="42.304272" lon="-8.799035">
        <ele>215</ele>
        <time>1970-01-01T03:04:31.000Z</time>
      </trkpt>
      <trkpt lat="42.304276" lon="-8.799033">
        <ele>215.2</ele>
        <time>1970-01-01T03:04:32.000Z</time>
      </trkpt>
      <trkpt lat="42.304281" lon="-8.799031">
        <ele>215.2</ele>
        <time>1970-01-01T03:04:33.000Z</time>
      </trkpt>
      <trkpt lat="42.304286" lon="-8.799026">
        <ele>215.4</ele>
        <time>1970-01-01T03:04:34.000Z</time>
      </trkpt>
      <trkpt lat="42.304291" lon="-8.799022">
        <ele>215.4</ele>
        <time>1970-01-01T03:04:35.000Z</time>
      </trkpt>
      <trkpt lat="42.304296" lon="-8.799013">
        <ele>215.4</ele>
        <time>1970-01-01T03:04:36.000Z</time>
      </trkpt>
      <trkpt lat="42.304301" lon="-8.799006">
        <ele>215.4</ele>
        <time>1970-01-01T03:04:37.000Z</time>
      </trkpt>
      <trkpt lat="42.304309" lon="-8.799002">
        <ele>215.4</ele>
        <time>1970-01-01T03:04:38.000Z</time>
      </trkpt>
      <trkpt lat="42.304317" lon="-8.799001">
        <ele>215.4</ele>
        <time>1970-01-01T03:04:39.000Z</time>
      </trkpt>
      <trkpt lat="42.304324" lon="-8.798999">
        <ele>215.6</ele>
        <time>1970-01-01T03:04:40.000Z</time>
      </trkpt>
      <trkpt lat="42.304331" lon="-8.798995">
        <ele>215.6</ele>
        <time>1970-01-01T03:04:41.000Z</time>
      </trkpt>
      <trkpt lat="42.304335" lon="-8.798991">
        <ele>215.8</ele>
        <time>1970-01-01T03:04:42.000Z</time>
      </trkpt>
      <trkpt lat="42.304338" lon="-8.798988">
        <ele>216</ele>
        <time>1970-01-01T03:04:43.000Z</time>
      </trkpt>
      <trkpt lat="42.304341" lon="-8.798983">
        <ele>216.2</ele>
        <time>1970-01-01T03:04:44.000Z</time>
      </trkpt>
      <trkpt lat="42.304339" lon="-8.798989">
        <ele>216.4</ele>
        <time>1970-01-01T03:04:45.000Z</time>
      </trkpt>
      <trkpt lat="42.304336" lon="-8.799001">
        <ele>216.8</ele>
        <time>1970-01-01T03:04:46.000Z</time>
      </trkpt>
      <trkpt lat="42.304326" lon="-8.799006">
        <ele>217</ele>
        <time>1970-01-01T03:04:47.000Z</time>
      </trkpt>
      <trkpt lat="42.304326" lon="-8.799001">
        <ele>217.4</ele>
        <time>1970-01-01T03:04:48.000Z</time>
      </trkpt>
      <trkpt lat="42.304328" lon="-8.798996">
        <ele>217.6</ele>
        <time>1970-01-01T03:04:49.000Z</time>
      </trkpt>
      <trkpt lat="42.304333" lon="-8.798993">
        <ele>217.8</ele>
        <time>1970-01-01T03:04:50.000Z</time>
      </trkpt>
      <trkpt lat="42.304334" lon="-8.798996">
        <ele>218.2</ele>
        <time>1970-01-01T03:04:51.000Z</time>
      </trkpt>
      <trkpt lat="42.304331" lon="-8.799002">
        <ele>218.4</ele>
        <time>1970-01-01T03:04:52.000Z</time>
      </trkpt>
      <trkpt lat="42.30433" lon="-8.79901">
        <ele>218.8</ele>
        <time>1970-01-01T03:04:53.000Z</time>
      </trkpt>
      <trkpt lat="42.304332" lon="-8.799009">
        <ele>219</ele>
        <time>1970-01-01T03:04:54.000Z</time>
      </trkpt>
      <trkpt lat="42.304334" lon="-8.79901">
        <ele>219</ele>
        <time>1970-01-01T03:04:55.000Z</time>
      </trkpt>
      <trkpt lat="42.304338" lon="-8.799017">
        <ele>219.2</ele>
        <time>1970-01-01T03:04:56.000Z</time>
      </trkpt>
      <trkpt lat="42.304342" lon="-8.799023">
        <ele>219.4</ele>
        <time>1970-01-01T03:04:57.000Z</time>
      </trkpt>
      <trkpt lat="42.304345" lon="-8.799033">
        <ele>219.4</ele>
        <time>1970-01-01T03:04:58.000Z</time>
      </trkpt>
      <trkpt lat="42.304347" lon="-8.799043">
        <ele>219.6</ele>
        <time>1970-01-01T03:04:59.000Z</time>
      </trkpt>
      <trkpt lat="42.304348" lon="-8.799048">
        <ele>219.8</ele>
        <time>1970-01-01T03:05:00.000Z</time>
      </trkpt>
      <trkpt lat="42.304349" lon="-8.799053">
        <ele>219.6</ele>
        <time>1970-01-01T03:05:01.000Z</time>
      </trkpt>
      <trkpt lat="42.304347" lon="-8.79906">
        <ele>219.8</ele>
        <time>1970-01-01T03:05:02.000Z</time>
      </trkpt>
      <trkpt lat="42.304343" lon="-8.79906">
        <ele>220</ele>
        <time>1970-01-01T03:05:03.000Z</time>
      </trkpt>
      <trkpt lat="42.304343" lon="-8.799056">
        <ele>220.2</ele>
        <time>1970-01-01T03:05:04.000Z</time>
      </trkpt>
      <trkpt lat="42.304343" lon="-8.799056">
        <ele>220.2</ele>
        <time>1970-01-01T03:05:05.000Z</time>
      </trkpt>
      <trkpt lat="42.304341" lon="-8.799053">
        <ele>220.4</ele>
        <time>1970-01-01T03:05:06.000Z</time>
      </trkpt>
      <trkpt lat="42.304338" lon="-8.799047">
        <ele>220.4</ele>
        <time>1970-01-01T03:05:07.000Z</time>
      </trkpt>
      <trkpt lat="42.304334" lon="-8.799038">
        <ele>220.4</ele>
        <time>1970-01-01T03:05:08.000Z</time>
      </trkpt>
      <trkpt lat="42.304333" lon="-8.799031">
        <ele>220.4</ele>
        <time>1970-01-01T03:05:09.000Z</time>
      </trkpt>
      <trkpt lat="42.304333" lon="-8.799032">
        <ele>220.4</ele>
        <time>1970-01-01T03:05:10.000Z</time>
      </trkpt>
      <trkpt lat="42.304333" lon="-8.799037">
        <ele>220.6</ele>
        <time>1970-01-01T03:05:11.000Z</time>
      </trkpt>
      <trkpt lat="42.304334" lon="-8.79904">
        <ele>220.6</ele>
        <time>1970-01-01T03:05:12.000Z</time>
      </trkpt>
      <trkpt lat="42.304336" lon="-8.799041">
        <ele>220.6</ele>
        <time>1970-01-01T03:05:13.000Z</time>
      </trkpt>
      <trkpt lat="42.304341" lon="-8.799039">
        <ele>220.6</ele>
        <time>1970-01-01T03:05:14.000Z</time>
      </trkpt>
      <trkpt lat="42.304342" lon="-8.799038">
        <ele>220.6</ele>
        <time>1970-01-01T03:05:15.000Z</time>
      </trkpt>
      <trkpt lat="42.304344" lon="-8.799038">
        <ele>220.6</ele>
        <time>1970-01-01T03:05:16.000Z</time>
      </trkpt>
      <trkpt lat="42.304348" lon="-8.799039">
        <ele>220.6</ele>
        <time>1970-01-01T03:05:17.000Z</time>
      </trkpt>
      <trkpt lat="42.304348" lon="-8.799043">
        <ele>220.6</ele>
        <time>1970-01-01T03:05:18.000Z</time>
      </trkpt>
      <trkpt lat="42.304348" lon="-8.799045">
        <ele>220.4</ele>
        <time>1970-01-01T03:05:19.000Z</time>
      </trkpt>
      <trkpt lat="42.304347" lon="-8.799046">
        <ele>220.4</ele>
        <time>1970-01-01T03:05:20.000Z</time>
      </trkpt>
      <trkpt lat="42.304345" lon="-8.799046">
        <ele>220.4</ele>
        <time>1970-01-01T03:05:21.000Z</time>
      </trkpt>
      <trkpt lat="42.304341" lon="-8.799047">
        <ele>220.2</ele>
        <time>1970-01-01T03:05:22.000Z</time>
      </trkpt>
      <trkpt lat="42.304335" lon="-8.799051">
        <ele>220.2</ele>
        <time>1970-01-01T03:05:23.000Z</time>
      </trkpt>
      <trkpt lat="42.304334" lon="-8.799054">
        <ele>220.2</ele>
        <time>1970-01-01T03:05:24.000Z</time>
      </trkpt>
      <trkpt lat="42.304337" lon="-8.799059">
        <ele>220</ele>
        <time>1970-01-01T03:05:25.000Z</time>
      </trkpt>
      <trkpt lat="42.30434" lon="-8.799065">
        <ele>220</ele>
        <time>1970-01-01T03:05:26.000Z</time>
      </trkpt>
      <trkpt lat="42.304347" lon="-8.799072">
        <ele>220</ele>
        <time>1970-01-01T03:05:27.000Z</time>
      </trkpt>
      <trkpt lat="42.304353" lon="-8.799078">
        <ele>220</ele>
        <time>1970-01-01T03:05:28.000Z</time>
      </trkpt>
      <trkpt lat="42.30436" lon="-8.799082">
        <ele>220</ele>
        <time>1970-01-01T03:05:29.000Z</time>
      </trkpt>
      <trkpt lat="42.304363" lon="-8.799085">
        <ele>220</ele>
        <time>1970-01-01T03:05:30.000Z</time>
      </trkpt>
      <trkpt lat="42.304364" lon="-8.799088">
        <ele>220</ele>
        <time>1970-01-01T03:05:31.000Z</time>
      </trkpt>
      <trkpt lat="42.304366" lon="-8.799086">
        <ele>220.2</ele>
        <time>1970-01-01T03:05:32.000Z</time>
      </trkpt>
      <trkpt lat="42.304366" lon="-8.799084">
        <ele>220.2</ele>
        <time>1970-01-01T03:05:33.000Z</time>
      </trkpt>
      <trkpt lat="42.304367" lon="-8.799085">
        <ele>220.2</ele>
        <time>1970-01-01T03:05:34.000Z</time>
      </trkpt>
      <trkpt lat="42.304368" lon="-8.799083">
        <ele>220.2</ele>
        <time>1970-01-01T03:05:35.000Z</time>
      </trkpt>
      <trkpt lat="42.30437" lon="-8.799082">
        <ele>220.2</ele>
        <time>1970-01-01T03:05:36.000Z</time>
      </trkpt>
      <trkpt lat="42.304369" lon="-8.79908">
        <ele>220</ele>
        <time>1970-01-01T03:05:37.000Z</time>
      </trkpt>
      <trkpt lat="42.30437" lon="-8.799079">
        <ele>220.2</ele>
        <time>1970-01-01T03:05:38.000Z</time>
      </trkpt>
      <trkpt lat="42.30437" lon="-8.79908">
        <ele>220.2</ele>
        <time>1970-01-01T03:05:39.000Z</time>
      </trkpt>
      <trkpt lat="42.304369" lon="-8.799079">
        <ele>220</ele>
        <time>1970-01-01T03:05:40.000Z</time>
      </trkpt>
      <trkpt lat="42.304368" lon="-8.799079">
        <ele>220</ele>
        <time>1970-01-01T03:05:41.000Z</time>
      </trkpt>
      <trkpt lat="42.304369" lon="-8.799079">
        <ele>220</ele>
        <time>1970-01-01T03:05:42.000Z</time>
      </trkpt>
      <trkpt lat="42.304371" lon="-8.799075">
        <ele>220</ele>
        <time>1970-01-01T03:05:43.000Z</time>
      </trkpt>
      <trkpt lat="42.304372" lon="-8.799075">
        <ele>220</ele>
        <time>1970-01-01T03:05:44.000Z</time>
      </trkpt>
      <trkpt lat="42.304373" lon="-8.799078">
        <ele>220.2</ele>
        <time>1970-01-01T03:05:45.000Z</time>
      </trkpt>
      <trkpt lat="42.304376" lon="-8.79908">
        <ele>220</ele>
        <time>1970-01-01T03:05:46.000Z</time>
      </trkpt>
      <trkpt lat="42.304377" lon="-8.79908">
        <ele>220</ele>
        <time>1970-01-01T03:05:47.000Z</time>
      </trkpt>
      <trkpt lat="42.304378" lon="-8.799082">
        <ele>220</ele>
        <time>1970-01-01T03:05:48.000Z</time>
      </trkpt>
      <trkpt lat="42.304376" lon="-8.799087">
        <ele>220</ele>
        <time>1970-01-01T03:05:49.000Z</time>
      </trkpt>
      <trkpt lat="42.304373" lon="-8.799088">
        <ele>219.8</ele>
        <time>1970-01-01T03:05:50.000Z</time>
      </trkpt>
      <trkpt lat="42.304372" lon="-8.799087">
        <ele>219.8</ele>
        <time>1970-01-01T03:05:51.000Z</time>
      </trkpt>
      <trkpt lat="42.304374" lon="-8.799087">
        <ele>219.8</ele>
        <time>1970-01-01T03:05:52.000Z</time>
      </trkpt>
      <trkpt lat="42.304379" lon="-8.799083">
        <ele>219.8</ele>
        <time>1970-01-01T03:05:53.000Z</time>
      </trkpt>
      <trkpt lat="42.30438" lon="-8.799085">
        <ele>220</ele>
        <time>1970-01-01T03:05:54.000Z</time>
      </trkpt>
      <trkpt lat="42.30438" lon="-8.799089">
        <ele>220</ele>
        <time>1970-01-01T03:05:55.000Z</time>
      </trkpt>
      <trkpt lat="42.304381" lon="-8.799086">
        <ele>220</ele>
        <time>1970-01-01T03:05:56.000Z</time>
      </trkpt>
      <trkpt lat="42.304381" lon="-8.79908">
        <ele>220</ele>
        <time>1970-01-01T03:05:57.000Z</time>
      </trkpt>
      <trkpt lat="42.304379" lon="-8.799077">
        <ele>220</ele>
        <time>1970-01-01T03:05:58.000Z</time>
      </trkpt>
      <trkpt lat="42.304377" lon="-8.799077">
        <ele>220.2</ele>
        <time>1970-01-01T03:05:59.000Z</time>
      </trkpt>
      <trkpt lat="42.304371" lon="-8.799074">
        <ele>220.2</ele>
        <time>1970-01-01T03:06:00.000Z</time>
      </trkpt>
      <trkpt lat="42.304365" lon="-8.799069">
        <ele>220.2</ele>
        <time>1970-01-01T03:06:01.000Z</time>
      </trkpt>
      <trkpt lat="42.30436" lon="-8.799065">
        <ele>220.4</ele>
        <time>1970-01-01T03:06:02.000Z</time>
      </trkpt>
      <trkpt lat="42.304359" lon="-8.799064">
        <ele>220.4</ele>
        <time>1970-01-01T03:06:03.000Z</time>
      </trkpt>
      <trkpt lat="42.304357" lon="-8.799064">
        <ele>220.2</ele>
        <time>1970-01-01T03:06:04.000Z</time>
      </trkpt>
      <trkpt lat="42.304355" lon="-8.799062">
        <ele>220.2</ele>
        <time>1970-01-01T03:06:05.000Z</time>
      </trkpt>
      <trkpt lat="42.304355" lon="-8.799063">
        <ele>220.2</ele>
        <time>1970-01-01T03:06:06.000Z</time>
      </trkpt>
      <trkpt lat="42.304355" lon="-8.799069">
        <ele>219.8</ele>
        <time>1970-01-01T03:06:07.000Z</time>
      </trkpt>
      <trkpt lat="42.304354" lon="-8.799074">
        <ele>220</ele>
        <time>1970-01-01T03:06:08.000Z</time>
      </trkpt>
      <trkpt lat="42.304353" lon="-8.799074">
        <ele>220</ele>
        <time>1970-01-01T03:06:09.000Z</time>
      </trkpt>
      <trkpt lat="42.304353" lon="-8.799074">
        <ele>219.8</ele>
        <time>1970-01-01T03:06:10.000Z</time>
      </trkpt>
      <trkpt lat="42.304354" lon="-8.799072">
        <ele>219.6</ele>
        <time>1970-01-01T03:06:11.000Z</time>
      </trkpt>
      <trkpt lat="42.304352" lon="-8.799074">
        <ele>219.6</ele>
        <time>1970-01-01T03:06:12.000Z</time>
      </trkpt>
      <trkpt lat="42.304349" lon="-8.799077">
        <ele>219.4</ele>
        <time>1970-01-01T03:06:13.000Z</time>
      </trkpt>
      <trkpt lat="42.304346" lon="-8.799079">
        <ele>219.4</ele>
        <time>1970-01-01T03:06:14.000Z</time>
      </trkpt>
      <trkpt lat="42.304348" lon="-8.799081">
        <ele>219.4</ele>
        <time>1970-01-01T03:06:15.000Z</time>
      </trkpt>
      <trkpt lat="42.30435" lon="-8.79908">
        <ele>219.4</ele>
        <time>1970-01-01T03:06:16.000Z</time>
      </trkpt>
      <trkpt lat="42.304353" lon="-8.79908">
        <ele>219.4</ele>
        <time>1970-01-01T03:06:17.000Z</time>
      </trkpt>
      <trkpt lat="42.304353" lon="-8.799081">
        <ele>219.6</ele>
        <time>1970-01-01T03:06:18.000Z</time>
      </trkpt>
      <trkpt lat="42.304352" lon="-8.799083">
        <ele>219.6</ele>
        <time>1970-01-01T03:06:19.000Z</time>
      </trkpt>
      <trkpt lat="42.304353" lon="-8.799087">
        <ele>219.6</ele>
        <time>1970-01-01T03:06:20.000Z</time>
      </trkpt>
      <trkpt lat="42.304361" lon="-8.799087">
        <ele>219.8</ele>
        <time>1970-01-01T03:06:21.000Z</time>
      </trkpt>
      <trkpt lat="42.304372" lon="-8.799083">
        <ele>220</ele>
        <time>1970-01-01T03:06:22.000Z</time>
      </trkpt>
      <trkpt lat="42.304375" lon="-8.799091">
        <ele>220</ele>
        <time>1970-01-01T03:06:23.000Z</time>
      </trkpt>
      <trkpt lat="42.304382" lon="-8.799099">
        <ele>220</ele>
        <time>1970-01-01T03:06:24.000Z</time>
      </trkpt>
      <trkpt lat="42.304391" lon="-8.799109">
        <ele>220.2</ele>
        <time>1970-01-01T03:06:25.000Z</time>
      </trkpt>
      <trkpt lat="42.304398" lon="-8.79911">
        <ele>220.2</ele>
        <time>1970-01-01T03:06:26.000Z</time>
      </trkpt>
      <trkpt lat="42.304402" lon="-8.799104">
        <ele>220.2</ele>
        <time>1970-01-01T03:06:27.000Z</time>
      </trkpt>
      <trkpt lat="42.304407" lon="-8.799096">
        <ele>220.2</ele>
        <time>1970-01-01T03:06:28.000Z</time>
      </trkpt>
      <trkpt lat="42.304411" lon="-8.79909">
        <ele>220.4</ele>
        <time>1970-01-01T03:06:29.000Z</time>
      </trkpt>
      <trkpt lat="42.304415" lon="-8.799084">
        <ele>220.4</ele>
        <time>1970-01-01T03:06:30.000Z</time>
      </trkpt>
      <trkpt lat="42.304417" lon="-8.799081">
        <ele>220.6</ele>
        <time>1970-01-01T03:06:31.000Z</time>
      </trkpt>
      <trkpt lat="42.304418" lon="-8.799076">
        <ele>220.8</ele>
        <time>1970-01-01T03:06:32.000Z</time>
      </trkpt>
      <trkpt lat="42.304419" lon="-8.799069">
        <ele>220.8</ele>
        <time>1970-01-01T03:06:33.000Z</time>
      </trkpt>
      <trkpt lat="42.30442" lon="-8.799063">
        <ele>221.2</ele>
        <time>1970-01-01T03:06:34.000Z</time>
      </trkpt>
      <trkpt lat="42.30442" lon="-8.799058">
        <ele>221.4</ele>
        <time>1970-01-01T03:06:35.000Z</time>
      </trkpt>
      <trkpt lat="42.304421" lon="-8.799055">
        <ele>221.6</ele>
        <time>1970-01-01T03:06:36.000Z</time>
      </trkpt>
      <trkpt lat="42.304423" lon="-8.799056">
        <ele>221.6</ele>
        <time>1970-01-01T03:06:37.000Z</time>
      </trkpt>
      <trkpt lat="42.304428" lon="-8.799055">
        <ele>221.6</ele>
        <time>1970-01-01T03:06:38.000Z</time>
      </trkpt>
      <trkpt lat="42.304437" lon="-8.799054">
        <ele>221.6</ele>
        <time>1970-01-01T03:06:39.000Z</time>
      </trkpt>
      <trkpt lat="42.304446" lon="-8.799054">
        <ele>221.6</ele>
        <time>1970-01-01T03:06:40.000Z</time>
      </trkpt>
      <trkpt lat="42.304456" lon="-8.799057">
        <ele>221.6</ele>
        <time>1970-01-01T03:06:41.000Z</time>
      </trkpt>
      <trkpt lat="42.30446" lon="-8.799061">
        <ele>221.6</ele>
        <time>1970-01-01T03:06:42.000Z</time>
      </trkpt>
      <trkpt lat="42.304463" lon="-8.799062">
        <ele>221.4</ele>
        <time>1970-01-01T03:06:43.000Z</time>
      </trkpt>
      <trkpt lat="42.304467" lon="-8.799061">
        <ele>221.4</ele>
        <time>1970-01-01T03:06:44.000Z</time>
      </trkpt>
      <trkpt lat="42.304469" lon="-8.799058">
        <ele>221.2</ele>
        <time>1970-01-01T03:06:45.000Z</time>
      </trkpt>
      <trkpt lat="42.304472" lon="-8.799058">
        <ele>221</ele>
        <time>1970-01-01T03:06:46.000Z</time>
      </trkpt>
      <trkpt lat="42.304477" lon="-8.799063">
        <ele>220.8</ele>
        <time>1970-01-01T03:06:47.000Z</time>
      </trkpt>
      <trkpt lat="42.304482" lon="-8.799068">
        <ele>220.6</ele>
        <time>1970-01-01T03:06:48.000Z</time>
      </trkpt>
      <trkpt lat="42.304486" lon="-8.799069">
        <ele>220.4</ele>
        <time>1970-01-01T03:06:49.000Z</time>
      </trkpt>
      <trkpt lat="42.304491" lon="-8.799067">
        <ele>220.4</ele>
        <time>1970-01-01T03:06:50.000Z</time>
      </trkpt>
      <trkpt lat="42.304495" lon="-8.799066">
        <ele>220.4</ele>
        <time>1970-01-01T03:06:51.000Z</time>
      </trkpt>
      <trkpt lat="42.304499" lon="-8.799063">
        <ele>220.2</ele>
        <time>1970-01-01T03:06:52.000Z</time>
      </trkpt>
      <trkpt lat="42.304504" lon="-8.799061">
        <ele>220</ele>
        <time>1970-01-01T03:06:53.000Z</time>
      </trkpt>
      <trkpt lat="42.304508" lon="-8.799057">
        <ele>219.8</ele>
        <time>1970-01-01T03:06:54.000Z</time>
      </trkpt>
      <trkpt lat="42.304512" lon="-8.799056">
        <ele>219.8</ele>
        <time>1970-01-01T03:06:55.000Z</time>
      </trkpt>
      <trkpt lat="42.304517" lon="-8.799054">
        <ele>219.8</ele>
        <time>1970-01-01T03:06:56.000Z</time>
      </trkpt>
      <trkpt lat="42.30452" lon="-8.799052">
        <ele>219.6</ele>
        <time>1970-01-01T03:06:57.000Z</time>
      </trkpt>
      <trkpt lat="42.304522" lon="-8.799046">
        <ele>219.8</ele>
        <time>1970-01-01T03:06:58.000Z</time>
      </trkpt>
      <trkpt lat="42.304524" lon="-8.799037">
        <ele>219.8</ele>
        <time>1970-01-01T03:06:59.000Z</time>
      </trkpt>
      <trkpt lat="42.304525" lon="-8.799026">
        <ele>220</ele>
        <time>1970-01-01T03:07:00.000Z</time>
      </trkpt>
      <trkpt lat="42.304524" lon="-8.799016">
        <ele>219.8</ele>
        <time>1970-01-01T03:07:01.000Z</time>
      </trkpt>
      <trkpt lat="42.304523" lon="-8.799007">
        <ele>219.6</ele>
        <time>1970-01-01T03:07:02.000Z</time>
      </trkpt>
      <trkpt lat="42.304523" lon="-8.799006">
        <ele>219.6</ele>
        <time>1970-01-01T03:07:03.000Z</time>
      </trkpt>
      <trkpt lat="42.304525" lon="-8.799002">
        <ele>219.4</ele>
        <time>1970-01-01T03:07:04.000Z</time>
      </trkpt>
      <trkpt lat="42.304528" lon="-8.799003">
        <ele>219.2</ele>
        <time>1970-01-01T03:07:05.000Z</time>
      </trkpt>
      <trkpt lat="42.304528" lon="-8.799007">
        <ele>219</ele>
        <time>1970-01-01T03:07:06.000Z</time>
      </trkpt>
      <trkpt lat="42.30453" lon="-8.79901">
        <ele>219</ele>
        <time>1970-01-01T03:07:07.000Z</time>
      </trkpt>
      <trkpt lat="42.304536" lon="-8.799015">
        <ele>219</ele>
        <time>1970-01-01T03:07:08.000Z</time>
      </trkpt>
      <trkpt lat="42.30454" lon="-8.799016">
        <ele>219</ele>
        <time>1970-01-01T03:07:09.000Z</time>
      </trkpt>
      <trkpt lat="42.304541" lon="-8.799013">
        <ele>219</ele>
        <time>1970-01-01T03:07:10.000Z</time>
      </trkpt>
      <trkpt lat="42.304543" lon="-8.799009">
        <ele>219</ele>
        <time>1970-01-01T03:07:11.000Z</time>
      </trkpt>
      <trkpt lat="42.304546" lon="-8.799009">
        <ele>219</ele>
        <time>1970-01-01T03:07:12.000Z</time>
      </trkpt>
      <trkpt lat="42.304551" lon="-8.799008">
        <ele>218.8</ele>
        <time>1970-01-01T03:07:13.000Z</time>
      </trkpt>
      <trkpt lat="42.304555" lon="-8.799006">
        <ele>218.6</ele>
        <time>1970-01-01T03:07:14.000Z</time>
      </trkpt>
      <trkpt lat="42.304556" lon="-8.799003">
        <ele>218.4</ele>
        <time>1970-01-01T03:07:15.000Z</time>
      </trkpt>
      <trkpt lat="42.304556" lon="-8.799">
        <ele>218</ele>
        <time>1970-01-01T03:07:16.000Z</time>
      </trkpt>
      <trkpt lat="42.304555" lon="-8.798993">
        <ele>218</ele>
        <time>1970-01-01T03:07:17.000Z</time>
      </trkpt>
      <trkpt lat="42.304554" lon="-8.798992">
        <ele>217.8</ele>
        <time>1970-01-01T03:07:18.000Z</time>
      </trkpt>
      <trkpt lat="42.304553" lon="-8.798993">
        <ele>217.6</ele>
        <time>1970-01-01T03:07:19.000Z</time>
      </trkpt>
      <trkpt lat="42.304553" lon="-8.798993">
        <ele>217.6</ele>
        <time>1970-01-01T03:07:20.000Z</time>
      </trkpt>
      <trkpt lat="42.304551" lon="-8.798991">
        <ele>217.6</ele>
        <time>1970-01-01T03:07:21.000Z</time>
      </trkpt>
      <trkpt lat="42.304551" lon="-8.798988">
        <ele>217.6</ele>
        <time>1970-01-01T03:07:22.000Z</time>
      </trkpt>
      <trkpt lat="42.304551" lon="-8.798985">
        <ele>217.4</ele>
        <time>1970-01-01T03:07:23.000Z</time>
      </trkpt>
      <trkpt lat="42.304553" lon="-8.798985">
        <ele>217.4</ele>
        <time>1970-01-01T03:07:24.000Z</time>
      </trkpt>
      <trkpt lat="42.304556" lon="-8.79899">
        <ele>217.2</ele>
        <time>1970-01-01T03:07:25.000Z</time>
      </trkpt>
      <trkpt lat="42.304565" lon="-8.798995">
        <ele>217.2</ele>
        <time>1970-01-01T03:07:26.000Z</time>
      </trkpt>
      <trkpt lat="42.304575" lon="-8.798999">
        <ele>216.8</ele>
        <time>1970-01-01T03:07:27.000Z</time>
      </trkpt>
      <trkpt lat="42.304584" lon="-8.798998">
        <ele>216.6</ele>
        <time>1970-01-01T03:07:28.000Z</time>
      </trkpt>
      <trkpt lat="42.304592" lon="-8.798992">
        <ele>216</ele>
        <time>1970-01-01T03:07:29.000Z</time>
      </trkpt>
      <trkpt lat="42.304598" lon="-8.798988">
        <ele>215.8</ele>
        <time>1970-01-01T03:07:30.000Z</time>
      </trkpt>
      <trkpt lat="42.304604" lon="-8.798983">
        <ele>215.6</ele>
        <time>1970-01-01T03:07:31.000Z</time>
      </trkpt>
      <trkpt lat="42.304608" lon="-8.798977">
        <ele>215.4</ele>
        <time>1970-01-01T03:07:32.000Z</time>
      </trkpt>
      <trkpt lat="42.304617" lon="-8.798975">
        <ele>215.2</ele>
        <time>1970-01-01T03:07:33.000Z</time>
      </trkpt>
      <trkpt lat="42.304623" lon="-8.798972">
        <ele>215</ele>
        <time>1970-01-01T03:07:34.000Z</time>
      </trkpt>
      <trkpt lat="42.304627" lon="-8.798969">
        <ele>214.8</ele>
        <time>1970-01-01T03:07:35.000Z</time>
      </trkpt>
      <trkpt lat="42.304633" lon="-8.798964">
        <ele>214.6</ele>
        <time>1970-01-01T03:07:36.000Z</time>
      </trkpt>
      <trkpt lat="42.304638" lon="-8.798963">
        <ele>214.6</ele>
        <time>1970-01-01T03:07:37.000Z</time>
      </trkpt>
      <trkpt lat="42.304641" lon="-8.798959">
        <ele>214.4</ele>
        <time>1970-01-01T03:07:38.000Z</time>
      </trkpt>
      <trkpt lat="42.30464" lon="-8.798953">
        <ele>214</ele>
        <time>1970-01-01T03:07:39.000Z</time>
      </trkpt>
      <trkpt lat="42.304637" lon="-8.798946">
        <ele>213.6</ele>
        <time>1970-01-01T03:07:40.000Z</time>
      </trkpt>
      <trkpt lat="42.304635" lon="-8.798941">
        <ele>213.4</ele>
        <time>1970-01-01T03:07:41.000Z</time>
      </trkpt>
      <trkpt lat="42.304635" lon="-8.798942">
        <ele>213.2</ele>
        <time>1970-01-01T03:07:42.000Z</time>
      </trkpt>
      <trkpt lat="42.304635" lon="-8.798943">
        <ele>213</ele>
        <time>1970-01-01T03:07:43.000Z</time>
      </trkpt>
      <trkpt lat="42.304642" lon="-8.798947">
        <ele>212.8</ele>
        <time>1970-01-01T03:07:44.000Z</time>
      </trkpt>
      <trkpt lat="42.304651" lon="-8.798948">
        <ele>212.8</ele>
        <time>1970-01-01T03:07:45.000Z</time>
      </trkpt>
      <trkpt lat="42.304657" lon="-8.798947">
        <ele>212.8</ele>
        <time>1970-01-01T03:07:46.000Z</time>
      </trkpt>
      <trkpt lat="42.304661" lon="-8.798942">
        <ele>212.8</ele>
        <time>1970-01-01T03:07:47.000Z</time>
      </trkpt>
      <trkpt lat="42.304667" lon="-8.798931">
        <ele>212.8</ele>
        <time>1970-01-01T03:07:48.000Z</time>
      </trkpt>
      <trkpt lat="42.304674" lon="-8.798912">
        <ele>212.6</ele>
        <time>1970-01-01T03:07:49.000Z</time>
      </trkpt>
      <trkpt lat="42.304677" lon="-8.798893">
        <ele>212.4</ele>
        <time>1970-01-01T03:07:50.000Z</time>
      </trkpt>
      <trkpt lat="42.304688" lon="-8.798873">
        <ele>212.2</ele>
        <time>1970-01-01T03:07:51.000Z</time>
      </trkpt>
      <trkpt lat="42.304697" lon="-8.798858">
        <ele>212</ele>
        <time>1970-01-01T03:07:52.000Z</time>
      </trkpt>
      <trkpt lat="42.3047" lon="-8.79885">
        <ele>212</ele>
        <time>1970-01-01T03:07:53.000Z</time>
      </trkpt>
      <trkpt lat="42.3047" lon="-8.79885">
        <ele>211.8</ele>
        <time>1970-01-01T03:07:54.000Z</time>
      </trkpt>
      <trkpt lat="42.304704" lon="-8.798855">
        <ele>211.8</ele>
        <time>1970-01-01T03:07:55.000Z</time>
      </trkpt>
      <trkpt lat="42.304714" lon="-8.798863">
        <ele>211.6</ele>
        <time>1970-01-01T03:07:56.000Z</time>
      </trkpt>
      <trkpt lat="42.304722" lon="-8.798871">
        <ele>211.4</ele>
        <time>1970-01-01T03:07:57.000Z</time>
      </trkpt>
      <trkpt lat="42.304726" lon="-8.798878">
        <ele>211.2</ele>
        <time>1970-01-01T03:07:58.000Z</time>
      </trkpt>
      <trkpt lat="42.304729" lon="-8.798886">
        <ele>211</ele>
        <time>1970-01-01T03:07:59.000Z</time>
      </trkpt>
      <trkpt lat="42.304735" lon="-8.798893">
        <ele>210.8</ele>
        <time>1970-01-01T03:08:00.000Z</time>
      </trkpt>
      <trkpt lat="42.304743" lon="-8.7989">
        <ele>210.6</ele>
        <time>1970-01-01T03:08:01.000Z</time>
      </trkpt>
      <trkpt lat="42.304752" lon="-8.798905">
        <ele>210.4</ele>
        <time>1970-01-01T03:08:02.000Z</time>
      </trkpt>
      <trkpt lat="42.30476" lon="-8.798909">
        <ele>210.2</ele>
        <time>1970-01-01T03:08:03.000Z</time>
      </trkpt>
      <trkpt lat="42.304767" lon="-8.798912">
        <ele>210</ele>
        <time>1970-01-01T03:08:04.000Z</time>
      </trkpt>
      <trkpt lat="42.304777" lon="-8.798914">
        <ele>210</ele>
        <time>1970-01-01T03:08:05.000Z</time>
      </trkpt>
      <trkpt lat="42.304784" lon="-8.798917">
        <ele>209.8</ele>
        <time>1970-01-01T03:08:06.000Z</time>
      </trkpt>
      <trkpt lat="42.304786" lon="-8.798921">
        <ele>209.8</ele>
        <time>1970-01-01T03:08:07.000Z</time>
      </trkpt>
      <trkpt lat="42.304786" lon="-8.798924">
        <ele>209.8</ele>
        <time>1970-01-01T03:08:08.000Z</time>
      </trkpt>
      <trkpt lat="42.304786" lon="-8.798929">
        <ele>209.6</ele>
        <time>1970-01-01T03:08:09.000Z</time>
      </trkpt>
      <trkpt lat="42.304785" lon="-8.798931">
        <ele>209.6</ele>
        <time>1970-01-01T03:08:10.000Z</time>
      </trkpt>
      <trkpt lat="42.304786" lon="-8.798925">
        <ele>209.4</ele>
        <time>1970-01-01T03:08:11.000Z</time>
      </trkpt>
      <trkpt lat="42.304787" lon="-8.798912">
        <ele>209</ele>
        <time>1970-01-01T03:08:12.000Z</time>
      </trkpt>
      <trkpt lat="42.304792" lon="-8.798897">
        <ele>208.8</ele>
        <time>1970-01-01T03:08:13.000Z</time>
      </trkpt>
      <trkpt lat="42.304795" lon="-8.798888">
        <ele>208.6</ele>
        <time>1970-01-01T03:08:14.000Z</time>
      </trkpt>
      <trkpt lat="42.304802" lon="-8.798879">
        <ele>208.4</ele>
        <time>1970-01-01T03:08:15.000Z</time>
      </trkpt>
      <trkpt lat="42.304809" lon="-8.798871">
        <ele>208.2</ele>
        <time>1970-01-01T03:08:16.000Z</time>
      </trkpt>
      <trkpt lat="42.304814" lon="-8.798863">
        <ele>208</ele>
        <time>1970-01-01T03:08:17.000Z</time>
      </trkpt>
      <trkpt lat="42.30482" lon="-8.79885">
        <ele>207.8</ele>
        <time>1970-01-01T03:08:18.000Z</time>
      </trkpt>
      <trkpt lat="42.304824" lon="-8.798833">
        <ele>207.8</ele>
        <time>1970-01-01T03:08:19.000Z</time>
      </trkpt>
      <trkpt lat="42.304828" lon="-8.798821">
        <ele>207.6</ele>
        <time>1970-01-01T03:08:20.000Z</time>
      </trkpt>
      <trkpt lat="42.304835" lon="-8.798814">
        <ele>207.6</ele>
        <time>1970-01-01T03:08:21.000Z</time>
      </trkpt>
      <trkpt lat="42.304843" lon="-8.798805">
        <ele>207.4</ele>
        <time>1970-01-01T03:08:22.000Z</time>
      </trkpt>
      <trkpt lat="42.304853" lon="-8.798795">
        <ele>207.4</ele>
        <time>1970-01-01T03:08:23.000Z</time>
      </trkpt>
      <trkpt lat="42.304863" lon="-8.798787">
        <ele>207.4</ele>
        <time>1970-01-01T03:08:24.000Z</time>
      </trkpt>
      <trkpt lat="42.304871" lon="-8.798774">
        <ele>207.4</ele>
        <time>1970-01-01T03:08:25.000Z</time>
      </trkpt>
      <trkpt lat="42.304874" lon="-8.798765">
        <ele>207.2</ele>
        <time>1970-01-01T03:08:26.000Z</time>
      </trkpt>
      <trkpt lat="42.304877" lon="-8.798754">
        <ele>207.2</ele>
        <time>1970-01-01T03:08:27.000Z</time>
      </trkpt>
      <trkpt lat="42.304882" lon="-8.798744">
        <ele>207.4</ele>
        <time>1970-01-01T03:08:28.000Z</time>
      </trkpt>
      <trkpt lat="42.304887" lon="-8.798731">
        <ele>207.4</ele>
        <time>1970-01-01T03:08:29.000Z</time>
      </trkpt>
      <trkpt lat="42.304892" lon="-8.798718">
        <ele>207.4</ele>
        <time>1970-01-01T03:08:30.000Z</time>
      </trkpt>
      <trkpt lat="42.304896" lon="-8.798705">
        <ele>207.4</ele>
        <time>1970-01-01T03:08:31.000Z</time>
      </trkpt>
      <trkpt lat="42.304899" lon="-8.79869">
        <ele>207.4</ele>
        <time>1970-01-01T03:08:32.000Z</time>
      </trkpt>
      <trkpt lat="42.304904" lon="-8.798673">
        <ele>207.4</ele>
        <time>1970-01-01T03:08:33.000Z</time>
      </trkpt>
      <trkpt lat="42.304907" lon="-8.798657">
        <ele>207.4</ele>
        <time>1970-01-01T03:08:34.000Z</time>
      </trkpt>
      <trkpt lat="42.30491" lon="-8.798638">
        <ele>207.4</ele>
        <time>1970-01-01T03:08:35.000Z</time>
      </trkpt>
      <trkpt lat="42.304914" lon="-8.798618">
        <ele>207.4</ele>
        <time>1970-01-01T03:08:36.000Z</time>
      </trkpt>
      <trkpt lat="42.304924" lon="-8.798595">
        <ele>207.4</ele>
        <time>1970-01-01T03:08:37.000Z</time>
      </trkpt>
      <trkpt lat="42.304937" lon="-8.798575">
        <ele>207.4</ele>
        <time>1970-01-01T03:08:38.000Z</time>
      </trkpt>
      <trkpt lat="42.304948" lon="-8.79856">
        <ele>207.2</ele>
        <time>1970-01-01T03:08:39.000Z</time>
      </trkpt>
      <trkpt lat="42.304957" lon="-8.79855">
        <ele>207.2</ele>
        <time>1970-01-01T03:08:40.000Z</time>
      </trkpt>
      <trkpt lat="42.304965" lon="-8.798543">
        <ele>207.2</ele>
        <time>1970-01-01T03:08:41.000Z</time>
      </trkpt>
      <trkpt lat="42.304973" lon="-8.798539">
        <ele>207.2</ele>
        <time>1970-01-01T03:08:42.000Z</time>
      </trkpt>
      <trkpt lat="42.304981" lon="-8.798532">
        <ele>207.2</ele>
        <time>1970-01-01T03:08:43.000Z</time>
      </trkpt>
      <trkpt lat="42.304994" lon="-8.798527">
        <ele>207.2</ele>
        <time>1970-01-01T03:08:44.000Z</time>
      </trkpt>
      <trkpt lat="42.305011" lon="-8.798525">
        <ele>207</ele>
        <time>1970-01-01T03:08:45.000Z</time>
      </trkpt>
      <trkpt lat="42.305025" lon="-8.798522">
        <ele>207</ele>
        <time>1970-01-01T03:08:46.000Z</time>
      </trkpt>
      <trkpt lat="42.305043" lon="-8.798518">
        <ele>207.2</ele>
        <time>1970-01-01T03:08:47.000Z</time>
      </trkpt>
      <trkpt lat="42.30505" lon="-8.798513">
        <ele>207.4</ele>
        <time>1970-01-01T03:08:48.000Z</time>
      </trkpt>
      <trkpt lat="42.305055" lon="-8.798509">
        <ele>207.4</ele>
        <time>1970-01-01T03:08:49.000Z</time>
      </trkpt>
      <trkpt lat="42.305059" lon="-8.798508">
        <ele>207.6</ele>
        <time>1970-01-01T03:08:50.000Z</time>
      </trkpt>
      <trkpt lat="42.305064" lon="-8.79851">
        <ele>207.8</ele>
        <time>1970-01-01T03:08:51.000Z</time>
      </trkpt>
      <trkpt lat="42.30507" lon="-8.79851">
        <ele>207.8</ele>
        <time>1970-01-01T03:08:52.000Z</time>
      </trkpt>
      <trkpt lat="42.305078" lon="-8.798507">
        <ele>208.2</ele>
        <time>1970-01-01T03:08:53.000Z</time>
      </trkpt>
      <trkpt lat="42.305085" lon="-8.798501">
        <ele>208.2</ele>
        <time>1970-01-01T03:08:54.000Z</time>
      </trkpt>
      <trkpt lat="42.305092" lon="-8.798493">
        <ele>208.6</ele>
        <time>1970-01-01T03:08:55.000Z</time>
      </trkpt>
      <trkpt lat="42.305095" lon="-8.798484">
        <ele>209</ele>
        <time>1970-01-01T03:08:56.000Z</time>
      </trkpt>
      <trkpt lat="42.305096" lon="-8.798468">
        <ele>209.4</ele>
        <time>1970-01-01T03:08:57.000Z</time>
      </trkpt>
      <trkpt lat="42.305099" lon="-8.798455">
        <ele>209.4</ele>
        <time>1970-01-01T03:08:58.000Z</time>
      </trkpt>
      <trkpt lat="42.3051" lon="-8.798445">
        <ele>209.6</ele>
        <time>1970-01-01T03:08:59.000Z</time>
      </trkpt>
      <trkpt lat="42.305102" lon="-8.798438">
        <ele>209.6</ele>
        <time>1970-01-01T03:09:00.000Z</time>
      </trkpt>
      <trkpt lat="42.305104" lon="-8.798431">
        <ele>209.6</ele>
        <time>1970-01-01T03:09:01.000Z</time>
      </trkpt>
      <trkpt lat="42.305107" lon="-8.798426">
        <ele>209.6</ele>
        <time>1970-01-01T03:09:02.000Z</time>
      </trkpt>
      <trkpt lat="42.30511" lon="-8.79842">
        <ele>209.6</ele>
        <time>1970-01-01T03:09:03.000Z</time>
      </trkpt>
      <trkpt lat="42.305112" lon="-8.798417">
        <ele>209.4</ele>
        <time>1970-01-01T03:09:04.000Z</time>
      </trkpt>
      <trkpt lat="42.305116" lon="-8.798413">
        <ele>209.4</ele>
        <time>1970-01-01T03:09:05.000Z</time>
      </trkpt>
      <trkpt lat="42.305118" lon="-8.798406">
        <ele>209.4</ele>
        <time>1970-01-01T03:09:06.000Z</time>
      </trkpt>
      <trkpt lat="42.305121" lon="-8.798394">
        <ele>209.4</ele>
        <time>1970-01-01T03:09:07.000Z</time>
      </trkpt>
      <trkpt lat="42.305126" lon="-8.798374">
        <ele>209</ele>
        <time>1970-01-01T03:09:08.000Z</time>
      </trkpt>
      <trkpt lat="42.305131" lon="-8.798353">
        <ele>208.8</ele>
        <time>1970-01-01T03:09:09.000Z</time>
      </trkpt>
      <trkpt lat="42.305138" lon="-8.798337">
        <ele>208.6</ele>
        <time>1970-01-01T03:09:10.000Z</time>
      </trkpt>
      <trkpt lat="42.305145" lon="-8.798325">
        <ele>208.4</ele>
        <time>1970-01-01T03:09:11.000Z</time>
      </trkpt>
      <trkpt lat="42.305148" lon="-8.79832">
        <ele>208.2</ele>
        <time>1970-01-01T03:09:12.000Z</time>
      </trkpt>
      <trkpt lat="42.305151" lon="-8.798318">
        <ele>208</ele>
        <time>1970-01-01T03:09:13.000Z</time>
      </trkpt>
      <trkpt lat="42.305153" lon="-8.798316">
        <ele>208</ele>
        <time>1970-01-01T03:09:14.000Z</time>
      </trkpt>
      <trkpt lat="42.305154" lon="-8.798315">
        <ele>208</ele>
        <time>1970-01-01T03:09:15.000Z</time>
      </trkpt>
      <trkpt lat="42.305158" lon="-8.798317">
        <ele>207.8</ele>
        <time>1970-01-01T03:09:16.000Z</time>
      </trkpt>
      <trkpt lat="42.305164" lon="-8.798318">
        <ele>207.6</ele>
        <time>1970-01-01T03:09:17.000Z</time>
      </trkpt>
      <trkpt lat="42.305168" lon="-8.798318">
        <ele>207.6</ele>
        <time>1970-01-01T03:09:18.000Z</time>
      </trkpt>
      <trkpt lat="42.305172" lon="-8.798312">
        <ele>207.4</ele>
        <time>1970-01-01T03:09:19.000Z</time>
      </trkpt>
      <trkpt lat="42.305174" lon="-8.798303">
        <ele>207.4</ele>
        <time>1970-01-01T03:09:20.000Z</time>
      </trkpt>
      <trkpt lat="42.305176" lon="-8.798301">
        <ele>207.4</ele>
        <time>1970-01-01T03:09:21.000Z</time>
      </trkpt>
      <trkpt lat="42.305175" lon="-8.798301">
        <ele>207.4</ele>
        <time>1970-01-01T03:09:22.000Z</time>
      </trkpt>
      <trkpt lat="42.305176" lon="-8.798297">
        <ele>207.4</ele>
        <time>1970-01-01T03:09:23.000Z</time>
      </trkpt>
      <trkpt lat="42.305176" lon="-8.798291">
        <ele>207.6</ele>
        <time>1970-01-01T03:09:24.000Z</time>
      </trkpt>
      <trkpt lat="42.305175" lon="-8.798281">
        <ele>207.8</ele>
        <time>1970-01-01T03:09:25.000Z</time>
      </trkpt>
      <trkpt lat="42.305172" lon="-8.798266">
        <ele>207.8</ele>
        <time>1970-01-01T03:09:26.000Z</time>
      </trkpt>
      <trkpt lat="42.30517" lon="-8.798252">
        <ele>207.8</ele>
        <time>1970-01-01T03:09:27.000Z</time>
      </trkpt>
      <trkpt lat="42.305165" lon="-8.798236">
        <ele>207.8</ele>
        <time>1970-01-01T03:09:28.000Z</time>
      </trkpt>
      <trkpt lat="42.30516" lon="-8.798216">
        <ele>207.4</ele>
        <time>1970-01-01T03:09:29.000Z</time>
      </trkpt>
      <trkpt lat="42.305155" lon="-8.798197">
        <ele>207.2</ele>
        <time>1970-01-01T03:09:30.000Z</time>
      </trkpt>
      <trkpt lat="42.305151" lon="-8.798179">
        <ele>207</ele>
        <time>1970-01-01T03:09:31.000Z</time>
      </trkpt>
      <trkpt lat="42.305153" lon="-8.798166">
        <ele>206.8</ele>
        <time>1970-01-01T03:09:32.000Z</time>
      </trkpt>
      <trkpt lat="42.305154" lon="-8.798157">
        <ele>206.6</ele>
        <time>1970-01-01T03:09:33.000Z</time>
      </trkpt>
      <trkpt lat="42.305154" lon="-8.798151">
        <ele>206.4</ele>
        <time>1970-01-01T03:09:34.000Z</time>
      </trkpt>
      <trkpt lat="42.305154" lon="-8.798148">
        <ele>206.2</ele>
        <time>1970-01-01T03:09:35.000Z</time>
      </trkpt>
      <trkpt lat="42.305155" lon="-8.798141">
        <ele>206.2</ele>
        <time>1970-01-01T03:09:36.000Z</time>
      </trkpt>
      <trkpt lat="42.305154" lon="-8.798127">
        <ele>206</ele>
        <time>1970-01-01T03:09:37.000Z</time>
      </trkpt>
      <trkpt lat="42.305151" lon="-8.798112">
        <ele>205.6</ele>
        <time>1970-01-01T03:09:38.000Z</time>
      </trkpt>
      <trkpt lat="42.305149" lon="-8.798103">
        <ele>205.4</ele>
        <time>1970-01-01T03:09:39.000Z</time>
      </trkpt>
      <trkpt lat="42.305145" lon="-8.798095">
        <ele>205</ele>
        <time>1970-01-01T03:09:40.000Z</time>
      </trkpt>
      <trkpt lat="42.305142" lon="-8.798093">
        <ele>204.8</ele>
        <time>1970-01-01T03:09:41.000Z</time>
      </trkpt>
      <trkpt lat="42.305138" lon="-8.79809">
        <ele>204.4</ele>
        <time>1970-01-01T03:09:42.000Z</time>
      </trkpt>
      <trkpt lat="42.305138" lon="-8.798084">
        <ele>204</ele>
        <time>1970-01-01T03:09:43.000Z</time>
      </trkpt>
      <trkpt lat="42.305139" lon="-8.798076">
        <ele>203.6</ele>
        <time>1970-01-01T03:09:44.000Z</time>
      </trkpt>
      <trkpt lat="42.305143" lon="-8.798068">
        <ele>203.4</ele>
        <time>1970-01-01T03:09:45.000Z</time>
      </trkpt>
      <trkpt lat="42.305146" lon="-8.79806">
        <ele>203</ele>
        <time>1970-01-01T03:09:46.000Z</time>
      </trkpt>
      <trkpt lat="42.30515" lon="-8.798048">
        <ele>202.8</ele>
        <time>1970-01-01T03:09:47.000Z</time>
      </trkpt>
      <trkpt lat="42.305155" lon="-8.798036">
        <ele>202.4</ele>
        <time>1970-01-01T03:09:48.000Z</time>
      </trkpt>
      <trkpt lat="42.305159" lon="-8.798021">
        <ele>201.8</ele>
        <time>1970-01-01T03:09:49.000Z</time>
      </trkpt>
      <trkpt lat="42.305161" lon="-8.798009">
        <ele>201.6</ele>
        <time>1970-01-01T03:09:50.000Z</time>
      </trkpt>
      <trkpt lat="42.305164" lon="-8.797995">
        <ele>201.4</ele>
        <time>1970-01-01T03:09:51.000Z</time>
      </trkpt>
      <trkpt lat="42.305169" lon="-8.797986">
        <ele>201.2</ele>
        <time>1970-01-01T03:09:52.000Z</time>
      </trkpt>
      <trkpt lat="42.305175" lon="-8.797974">
        <ele>201.4</ele>
        <time>1970-01-01T03:09:53.000Z</time>
      </trkpt>
      <trkpt lat="42.305179" lon="-8.797963">
        <ele>201.2</ele>
        <time>1970-01-01T03:09:54.000Z</time>
      </trkpt>
      <trkpt lat="42.305185" lon="-8.79795">
        <ele>201</ele>
        <time>1970-01-01T03:09:55.000Z</time>
      </trkpt>
      <trkpt lat="42.305191" lon="-8.797941">
        <ele>200.8</ele>
        <time>1970-01-01T03:09:56.000Z</time>
      </trkpt>
      <trkpt lat="42.305197" lon="-8.797933">
        <ele>200.4</ele>
        <time>1970-01-01T03:09:57.000Z</time>
      </trkpt>
      <trkpt lat="42.305203" lon="-8.79792">
        <ele>200</ele>
        <time>1970-01-01T03:09:58.000Z</time>
      </trkpt>
      <trkpt lat="42.305212" lon="-8.797904">
        <ele>199.6</ele>
        <time>1970-01-01T03:09:59.000Z</time>
      </trkpt>
      <trkpt lat="42.305219" lon="-8.797891">
        <ele>199.4</ele>
        <time>1970-01-01T03:10:00.000Z</time>
      </trkpt>
      <trkpt lat="42.305222" lon="-8.797878">
        <ele>199.4</ele>
        <time>1970-01-01T03:10:01.000Z</time>
      </trkpt>
      <trkpt lat="42.305226" lon="-8.797864">
        <ele>199.2</ele>
        <time>1970-01-01T03:10:02.000Z</time>
      </trkpt>
      <trkpt lat="42.305229" lon="-8.797848">
        <ele>199</ele>
        <time>1970-01-01T03:10:03.000Z</time>
      </trkpt>
      <trkpt lat="42.305228" lon="-8.797826">
        <ele>198.8</ele>
        <time>1970-01-01T03:10:04.000Z</time>
      </trkpt>
      <trkpt lat="42.305223" lon="-8.797806">
        <ele>198.6</ele>
        <time>1970-01-01T03:10:05.000Z</time>
      </trkpt>
      <trkpt lat="42.30522" lon="-8.797793">
        <ele>198.4</ele>
        <time>1970-01-01T03:10:06.000Z</time>
      </trkpt>
      <trkpt lat="42.305215" lon="-8.79778">
        <ele>197.8</ele>
        <time>1970-01-01T03:10:07.000Z</time>
      </trkpt>
      <trkpt lat="42.30521" lon="-8.797772">
        <ele>197.4</ele>
        <time>1970-01-01T03:10:08.000Z</time>
      </trkpt>
      <trkpt lat="42.305203" lon="-8.797766">
        <ele>197.2</ele>
        <time>1970-01-01T03:10:09.000Z</time>
      </trkpt>
      <trkpt lat="42.305192" lon="-8.797762">
        <ele>197</ele>
        <time>1970-01-01T03:10:10.000Z</time>
      </trkpt>
      <trkpt lat="42.305182" lon="-8.797757">
        <ele>196.8</ele>
        <time>1970-01-01T03:10:11.000Z</time>
      </trkpt>
      <trkpt lat="42.305172" lon="-8.79775">
        <ele>196.6</ele>
        <time>1970-01-01T03:10:12.000Z</time>
      </trkpt>
      <trkpt lat="42.30516" lon="-8.797744">
        <ele>196.6</ele>
        <time>1970-01-01T03:10:13.000Z</time>
      </trkpt>
      <trkpt lat="42.305149" lon="-8.797739">
        <ele>196.8</ele>
        <time>1970-01-01T03:10:14.000Z</time>
      </trkpt>
      <trkpt lat="42.305138" lon="-8.797733">
        <ele>196.8</ele>
        <time>1970-01-01T03:10:15.000Z</time>
      </trkpt>
      <trkpt lat="42.305127" lon="-8.79773">
        <ele>196.6</ele>
        <time>1970-01-01T03:10:16.000Z</time>
      </trkpt>
      <trkpt lat="42.305116" lon="-8.797727">
        <ele>196.6</ele>
        <time>1970-01-01T03:10:17.000Z</time>
      </trkpt>
      <trkpt lat="42.3051" lon="-8.797725">
        <ele>196.4</ele>
        <time>1970-01-01T03:10:18.000Z</time>
      </trkpt>
      <trkpt lat="42.305085" lon="-8.79772">
        <ele>196.4</ele>
        <time>1970-01-01T03:10:19.000Z</time>
      </trkpt>
      <trkpt lat="42.305073" lon="-8.797712">
        <ele>196.2</ele>
        <time>1970-01-01T03:10:20.000Z</time>
      </trkpt>
      <trkpt lat="42.305062" lon="-8.797706">
        <ele>196</ele>
        <time>1970-01-01T03:10:21.000Z</time>
      </trkpt>
      <trkpt lat="42.305051" lon="-8.797699">
        <ele>195.8</ele>
        <time>1970-01-01T03:10:22.000Z</time>
      </trkpt>
      <trkpt lat="42.30504" lon="-8.797693">
        <ele>195.6</ele>
        <time>1970-01-01T03:10:23.000Z</time>
      </trkpt>
      <trkpt lat="42.305028" lon="-8.797692">
        <ele>195.4</ele>
        <time>1970-01-01T03:10:24.000Z</time>
      </trkpt>
      <trkpt lat="42.305015" lon="-8.79769">
        <ele>195</ele>
        <time>1970-01-01T03:10:25.000Z</time>
      </trkpt>
      <trkpt lat="42.305001" lon="-8.79769">
        <ele>194.8</ele>
        <time>1970-01-01T03:10:26.000Z</time>
      </trkpt>
      <trkpt lat="42.304987" lon="-8.797689">
        <ele>194.8</ele>
        <time>1970-01-01T03:10:27.000Z</time>
      </trkpt>
      <trkpt lat="42.304975" lon="-8.797688">
        <ele>194.6</ele>
        <time>1970-01-01T03:10:28.000Z</time>
      </trkpt>
      <trkpt lat="42.30497" lon="-8.797689">
        <ele>194.6</ele>
        <time>1970-01-01T03:10:29.000Z</time>
      </trkpt>
      <trkpt lat="42.304968" lon="-8.797691">
        <ele>194.4</ele>
        <time>1970-01-01T03:10:30.000Z</time>
      </trkpt>
      <trkpt lat="42.304961" lon="-8.797699">
        <ele>194.2</ele>
        <time>1970-01-01T03:10:31.000Z</time>
      </trkpt>
      <trkpt lat="42.304952" lon="-8.797704">
        <ele>194.2</ele>
        <time>1970-01-01T03:10:32.000Z</time>
      </trkpt>
      <trkpt lat="42.304944" lon="-8.797706">
        <ele>194.2</ele>
        <time>1970-01-01T03:10:33.000Z</time>
      </trkpt>
      <trkpt lat="42.304936" lon="-8.797706">
        <ele>194.2</ele>
        <time>1970-01-01T03:10:34.000Z</time>
      </trkpt>
      <trkpt lat="42.30493" lon="-8.797709">
        <ele>194</ele>
        <time>1970-01-01T03:10:35.000Z</time>
      </trkpt>
      <trkpt lat="42.304922" lon="-8.797711">
        <ele>193.8</ele>
        <time>1970-01-01T03:10:36.000Z</time>
      </trkpt>
      <trkpt lat="42.304912" lon="-8.797712">
        <ele>193.8</ele>
        <time>1970-01-01T03:10:37.000Z</time>
      </trkpt>
      <trkpt lat="42.304899" lon="-8.797714">
        <ele>193.6</ele>
        <time>1970-01-01T03:10:38.000Z</time>
      </trkpt>
      <trkpt lat="42.304888" lon="-8.797714">
        <ele>193.4</ele>
        <time>1970-01-01T03:10:39.000Z</time>
      </trkpt>
      <trkpt lat="42.304878" lon="-8.797714">
        <ele>193.2</ele>
        <time>1970-01-01T03:10:40.000Z</time>
      </trkpt>
      <trkpt lat="42.304869" lon="-8.797712">
        <ele>193</ele>
        <time>1970-01-01T03:10:41.000Z</time>
      </trkpt>
      <trkpt lat="42.304858" lon="-8.797716">
        <ele>192.6</ele>
        <time>1970-01-01T03:10:42.000Z</time>
      </trkpt>
      <trkpt lat="42.304845" lon="-8.797726">
        <ele>192.4</ele>
        <time>1970-01-01T03:10:43.000Z</time>
      </trkpt>
      <trkpt lat="42.30484" lon="-8.797734">
        <ele>192.2</ele>
        <time>1970-01-01T03:10:44.000Z</time>
      </trkpt>
      <trkpt lat="42.304835" lon="-8.797739">
        <ele>192</ele>
        <time>1970-01-01T03:10:45.000Z</time>
      </trkpt>
      <trkpt lat="42.304829" lon="-8.797736">
        <ele>192</ele>
        <time>1970-01-01T03:10:46.000Z</time>
      </trkpt>
      <trkpt lat="42.304827" lon="-8.79773">
        <ele>192</ele>
        <time>1970-01-01T03:10:47.000Z</time>
      </trkpt>
      <trkpt lat="42.304824" lon="-8.797723">
        <ele>192</ele>
        <time>1970-01-01T03:10:48.000Z</time>
      </trkpt>
      <trkpt lat="42.304824" lon="-8.797718">
        <ele>191.8</ele>
        <time>1970-01-01T03:10:49.000Z</time>
      </trkpt>
      <trkpt lat="42.304826" lon="-8.797712">
        <ele>191.8</ele>
        <time>1970-01-01T03:10:50.000Z</time>
      </trkpt>
      <trkpt lat="42.304827" lon="-8.797709">
        <ele>191.8</ele>
        <time>1970-01-01T03:10:51.000Z</time>
      </trkpt>
      <trkpt lat="42.304827" lon="-8.797715">
        <ele>191.6</ele>
        <time>1970-01-01T03:10:52.000Z</time>
      </trkpt>
      <trkpt lat="42.304827" lon="-8.797718">
        <ele>191.6</ele>
        <time>1970-01-01T03:10:53.000Z</time>
      </trkpt>
      <trkpt lat="42.304827" lon="-8.79772">
        <ele>191.4</ele>
        <time>1970-01-01T03:10:54.000Z</time>
      </trkpt>
      <trkpt lat="42.304826" lon="-8.79772">
        <ele>191.2</ele>
        <time>1970-01-01T03:10:55.000Z</time>
      </trkpt>
      <trkpt lat="42.304826" lon="-8.797722">
        <ele>191.2</ele>
        <time>1970-01-01T03:10:56.000Z</time>
      </trkpt>
      <trkpt lat="42.304826" lon="-8.797724">
        <ele>191</ele>
        <time>1970-01-01T03:10:57.000Z</time>
      </trkpt>
      <trkpt lat="42.304826" lon="-8.797725">
        <ele>190.8</ele>
        <time>1970-01-01T03:10:58.000Z</time>
      </trkpt>
      <trkpt lat="42.304826" lon="-8.797728">
        <ele>190.4</ele>
        <time>1970-01-01T03:10:59.000Z</time>
      </trkpt>
      <trkpt lat="42.304825" lon="-8.797728">
        <ele>190.2</ele>
        <time>1970-01-01T03:11:00.000Z</time>
      </trkpt>
      <trkpt lat="42.304824" lon="-8.79773">
        <ele>190</ele>
        <time>1970-01-01T03:11:01.000Z</time>
      </trkpt>
      <trkpt lat="42.304823" lon="-8.797729">
        <ele>190</ele>
        <time>1970-01-01T03:11:02.000Z</time>
      </trkpt>
      <trkpt lat="42.30482" lon="-8.79773">
        <ele>190</ele>
        <time>1970-01-01T03:11:03.000Z</time>
      </trkpt>
      <trkpt lat="42.304819" lon="-8.79773">
        <ele>190</ele>
        <time>1970-01-01T03:11:04.000Z</time>
      </trkpt>
      <trkpt lat="42.304831" lon="-8.797723">
        <ele>190</ele>
        <time>1970-01-01T03:11:05.000Z</time>
      </trkpt>
      <trkpt lat="42.304829" lon="-8.797721">
        <ele>190</ele>
        <time>1970-01-01T03:11:06.000Z</time>
      </trkpt>
      <trkpt lat="42.304823" lon="-8.797719">
        <ele>190</ele>
        <time>1970-01-01T03:11:07.000Z</time>
      </trkpt>
      <trkpt lat="42.304817" lon="-8.797717">
        <ele>189.8</ele>
        <time>1970-01-01T03:11:08.000Z</time>
      </trkpt>
      <trkpt lat="42.304807" lon="-8.797715">
        <ele>189.8</ele>
        <time>1970-01-01T03:11:09.000Z</time>
      </trkpt>
      <trkpt lat="42.304797" lon="-8.797712">
        <ele>189.6</ele>
        <time>1970-01-01T03:11:10.000Z</time>
      </trkpt>
      <trkpt lat="42.304783" lon="-8.797707">
        <ele>189.4</ele>
        <time>1970-01-01T03:11:11.000Z</time>
      </trkpt>
      <trkpt lat="42.304772" lon="-8.797704">
        <ele>189.4</ele>
        <time>1970-01-01T03:11:12.000Z</time>
      </trkpt>
      <trkpt lat="42.304761" lon="-8.797705">
        <ele>189.2</ele>
        <time>1970-01-01T03:11:13.000Z</time>
      </trkpt>
      <trkpt lat="42.304749" lon="-8.797707">
        <ele>189.2</ele>
        <time>1970-01-01T03:11:14.000Z</time>
      </trkpt>
      <trkpt lat="42.304739" lon="-8.797714">
        <ele>189</ele>
        <time>1970-01-01T03:11:15.000Z</time>
      </trkpt>
      <trkpt lat="42.304728" lon="-8.797722">
        <ele>189</ele>
        <time>1970-01-01T03:11:16.000Z</time>
      </trkpt>
      <trkpt lat="42.304723" lon="-8.797729">
        <ele>188.8</ele>
        <time>1970-01-01T03:11:17.000Z</time>
      </trkpt>
      <trkpt lat="42.304718" lon="-8.797735">
        <ele>188.8</ele>
        <time>1970-01-01T03:11:18.000Z</time>
      </trkpt>
      <trkpt lat="42.304711" lon="-8.797741">
        <ele>188.6</ele>
        <time>1970-01-01T03:11:19.000Z</time>
      </trkpt>
      <trkpt lat="42.304701" lon="-8.797747">
        <ele>188.4</ele>
        <time>1970-01-01T03:11:20.000Z</time>
      </trkpt>
      <trkpt lat="42.304688" lon="-8.797747">
        <ele>188.2</ele>
        <time>1970-01-01T03:11:21.000Z</time>
      </trkpt>
      <trkpt lat="42.304671" lon="-8.797745">
        <ele>187.8</ele>
        <time>1970-01-01T03:11:22.000Z</time>
      </trkpt>
      <trkpt lat="42.304658" lon="-8.797741">
        <ele>187.6</ele>
        <time>1970-01-01T03:11:23.000Z</time>
      </trkpt>
      <trkpt lat="42.304645" lon="-8.797742">
        <ele>187.2</ele>
        <time>1970-01-01T03:11:24.000Z</time>
      </trkpt>
      <trkpt lat="42.304634" lon="-8.797744">
        <ele>187</ele>
        <time>1970-01-01T03:11:25.000Z</time>
      </trkpt>
      <trkpt lat="42.304624" lon="-8.79775">
        <ele>186.8</ele>
        <time>1970-01-01T03:11:26.000Z</time>
      </trkpt>
      <trkpt lat="42.304617" lon="-8.797754">
        <ele>186.6</ele>
        <time>1970-01-01T03:11:27.000Z</time>
      </trkpt>
      <trkpt lat="42.304609" lon="-8.797751">
        <ele>186.4</ele>
        <time>1970-01-01T03:11:28.000Z</time>
      </trkpt>
      <trkpt lat="42.304603" lon="-8.797745">
        <ele>186.4</ele>
        <time>1970-01-01T03:11:29.000Z</time>
      </trkpt>
      <trkpt lat="42.3046" lon="-8.797735">
        <ele>186.2</ele>
        <time>1970-01-01T03:11:30.000Z</time>
      </trkpt>
      <trkpt lat="42.304596" lon="-8.797728">
        <ele>186.2</ele>
        <time>1970-01-01T03:11:31.000Z</time>
      </trkpt>
      <trkpt lat="42.304592" lon="-8.797715">
        <ele>186.2</ele>
        <time>1970-01-01T03:11:32.000Z</time>
      </trkpt>
      <trkpt lat="42.304589" lon="-8.797705">
        <ele>185.6</ele>
        <time>1970-01-01T03:11:33.000Z</time>
      </trkpt>
      <trkpt lat="42.304585" lon="-8.797696">
        <ele>185.2</ele>
        <time>1970-01-01T03:11:34.000Z</time>
      </trkpt>
      <trkpt lat="42.304581" lon="-8.797687">
        <ele>185</ele>
        <time>1970-01-01T03:11:35.000Z</time>
      </trkpt>
      <trkpt lat="42.304582" lon="-8.797678">
        <ele>184.8</ele>
        <time>1970-01-01T03:11:36.000Z</time>
      </trkpt>
      <trkpt lat="42.304582" lon="-8.797673">
        <ele>184.2</ele>
        <time>1970-01-01T03:11:37.000Z</time>
      </trkpt>
      <trkpt lat="42.30458" lon="-8.797669">
        <ele>183.8</ele>
        <time>1970-01-01T03:11:38.000Z</time>
      </trkpt>
      <trkpt lat="42.304581" lon="-8.797663">
        <ele>183.8</ele>
        <time>1970-01-01T03:11:39.000Z</time>
      </trkpt>
      <trkpt lat="42.30458" lon="-8.797654">
        <ele>183.6</ele>
        <time>1970-01-01T03:11:40.000Z</time>
      </trkpt>
      <trkpt lat="42.304581" lon="-8.797638">
        <ele>183.4</ele>
        <time>1970-01-01T03:11:41.000Z</time>
      </trkpt>
      <trkpt lat="42.304583" lon="-8.797626">
        <ele>183.2</ele>
        <time>1970-01-01T03:11:42.000Z</time>
      </trkpt>
      <trkpt lat="42.304583" lon="-8.797619">
        <ele>183</ele>
        <time>1970-01-01T03:11:43.000Z</time>
      </trkpt>
      <trkpt lat="42.304585" lon="-8.797606">
        <ele>183</ele>
        <time>1970-01-01T03:11:44.000Z</time>
      </trkpt>
      <trkpt lat="42.304589" lon="-8.797592">
        <ele>182.8</ele>
        <time>1970-01-01T03:11:45.000Z</time>
      </trkpt>
      <trkpt lat="42.30459" lon="-8.797581">
        <ele>182.2</ele>
        <time>1970-01-01T03:11:46.000Z</time>
      </trkpt>
      <trkpt lat="42.304586" lon="-8.797572">
        <ele>181.8</ele>
        <time>1970-01-01T03:11:47.000Z</time>
      </trkpt>
      <trkpt lat="42.304582" lon="-8.797565">
        <ele>181.4</ele>
        <time>1970-01-01T03:11:48.000Z</time>
      </trkpt>
      <trkpt lat="42.304578" lon="-8.797558">
        <ele>181.4</ele>
        <time>1970-01-01T03:11:49.000Z</time>
      </trkpt>
      <trkpt lat="42.304575" lon="-8.797551">
        <ele>181.2</ele>
        <time>1970-01-01T03:11:50.000Z</time>
      </trkpt>
      <trkpt lat="42.30457" lon="-8.797545">
        <ele>181.2</ele>
        <time>1970-01-01T03:11:51.000Z</time>
      </trkpt>
      <trkpt lat="42.30456" lon="-8.797539">
        <ele>181.2</ele>
        <time>1970-01-01T03:11:52.000Z</time>
      </trkpt>
      <trkpt lat="42.304551" lon="-8.797532">
        <ele>181</ele>
        <time>1970-01-01T03:11:53.000Z</time>
      </trkpt>
      <trkpt lat="42.304545" lon="-8.797526">
        <ele>180.8</ele>
        <time>1970-01-01T03:11:54.000Z</time>
      </trkpt>
      <trkpt lat="42.30454" lon="-8.797519">
        <ele>180.6</ele>
        <time>1970-01-01T03:11:55.000Z</time>
      </trkpt>
      <trkpt lat="42.304536" lon="-8.797512">
        <ele>180.6</ele>
        <time>1970-01-01T03:11:56.000Z</time>
      </trkpt>
      <trkpt lat="42.304533" lon="-8.797502">
        <ele>180.4</ele>
        <time>1970-01-01T03:11:57.000Z</time>
      </trkpt>
      <trkpt lat="42.304527" lon="-8.797485">
        <ele>180</ele>
        <time>1970-01-01T03:11:58.000Z</time>
      </trkpt>
      <trkpt lat="42.304521" lon="-8.797467">
        <ele>179.8</ele>
        <time>1970-01-01T03:11:59.000Z</time>
      </trkpt>
      <trkpt lat="42.304517" lon="-8.797456">
        <ele>179.6</ele>
        <time>1970-01-01T03:12:00.000Z</time>
      </trkpt>
      <trkpt lat="42.304515" lon="-8.797447">
        <ele>179.6</ele>
        <time>1970-01-01T03:12:01.000Z</time>
      </trkpt>
      <trkpt lat="42.304504" lon="-8.79744">
        <ele>179</ele>
        <time>1970-01-01T03:12:02.000Z</time>
      </trkpt>
      <trkpt lat="42.304495" lon="-8.797434">
        <ele>178.8</ele>
        <time>1970-01-01T03:12:03.000Z</time>
      </trkpt>
      <trkpt lat="42.304488" lon="-8.79743">
        <ele>178.6</ele>
        <time>1970-01-01T03:12:04.000Z</time>
      </trkpt>
      <trkpt lat="42.304482" lon="-8.797426">
        <ele>178.4</ele>
        <time>1970-01-01T03:12:05.000Z</time>
      </trkpt>
      <trkpt lat="42.304474" lon="-8.797423">
        <ele>178.2</ele>
        <time>1970-01-01T03:12:06.000Z</time>
      </trkpt>
      <trkpt lat="42.304464" lon="-8.797416">
        <ele>178</ele>
        <time>1970-01-01T03:12:07.000Z</time>
      </trkpt>
      <trkpt lat="42.304455" lon="-8.79741">
        <ele>177.8</ele>
        <time>1970-01-01T03:12:08.000Z</time>
      </trkpt>
      <trkpt lat="42.304452" lon="-8.797409">
        <ele>177.8</ele>
        <time>1970-01-01T03:12:09.000Z</time>
      </trkpt>
      <trkpt lat="42.304447" lon="-8.79741">
        <ele>177.4</ele>
        <time>1970-01-01T03:12:10.000Z</time>
      </trkpt>
      <trkpt lat="42.304442" lon="-8.797403">
        <ele>177.2</ele>
        <time>1970-01-01T03:12:11.000Z</time>
      </trkpt>
      <trkpt lat="42.304439" lon="-8.797395">
        <ele>177</ele>
        <time>1970-01-01T03:12:12.000Z</time>
      </trkpt>
      <trkpt lat="42.304432" lon="-8.797388">
        <ele>176.8</ele>
        <time>1970-01-01T03:12:13.000Z</time>
      </trkpt>
      <trkpt lat="42.304423" lon="-8.797386">
        <ele>176.6</ele>
        <time>1970-01-01T03:12:14.000Z</time>
      </trkpt>
      <trkpt lat="42.304416" lon="-8.797389">
        <ele>176.6</ele>
        <time>1970-01-01T03:12:15.000Z</time>
      </trkpt>
      <trkpt lat="42.304411" lon="-8.797391">
        <ele>176.4</ele>
        <time>1970-01-01T03:12:16.000Z</time>
      </trkpt>
      <trkpt lat="42.304411" lon="-8.797392">
        <ele>176.2</ele>
        <time>1970-01-01T03:12:17.000Z</time>
      </trkpt>
      <trkpt lat="42.304412" lon="-8.797394">
        <ele>176.2</ele>
        <time>1970-01-01T03:12:18.000Z</time>
      </trkpt>
      <trkpt lat="42.304411" lon="-8.797397">
        <ele>176</ele>
        <time>1970-01-01T03:12:19.000Z</time>
      </trkpt>
      <trkpt lat="42.30441" lon="-8.797401">
        <ele>176</ele>
        <time>1970-01-01T03:12:20.000Z</time>
      </trkpt>
      <trkpt lat="42.304406" lon="-8.797407">
        <ele>176</ele>
        <time>1970-01-01T03:12:21.000Z</time>
      </trkpt>
      <trkpt lat="42.304395" lon="-8.797413">
        <ele>176.2</ele>
        <time>1970-01-01T03:12:22.000Z</time>
      </trkpt>
      <trkpt lat="42.304387" lon="-8.797429">
        <ele>176.2</ele>
        <time>1970-01-01T03:12:23.000Z</time>
      </trkpt>
      <trkpt lat="42.304381" lon="-8.797441">
        <ele>176</ele>
        <time>1970-01-01T03:12:24.000Z</time>
      </trkpt>
      <trkpt lat="42.304379" lon="-8.797457">
        <ele>176</ele>
        <time>1970-01-01T03:12:25.000Z</time>
      </trkpt>
      <trkpt lat="42.304381" lon="-8.797477">
        <ele>176</ele>
        <time>1970-01-01T03:12:26.000Z</time>
      </trkpt>
      <trkpt lat="42.304383" lon="-8.797493">
        <ele>176</ele>
        <time>1970-01-01T03:12:27.000Z</time>
      </trkpt>
      <trkpt lat="42.304384" lon="-8.797511">
        <ele>175.6</ele>
        <time>1970-01-01T03:12:28.000Z</time>
      </trkpt>
      <trkpt lat="42.304383" lon="-8.797525">
        <ele>175.6</ele>
        <time>1970-01-01T03:12:29.000Z</time>
      </trkpt>
      <trkpt lat="42.304379" lon="-8.797532">
        <ele>175.4</ele>
        <time>1970-01-01T03:12:30.000Z</time>
      </trkpt>
      <trkpt lat="42.304371" lon="-8.797537">
        <ele>175.4</ele>
        <time>1970-01-01T03:12:31.000Z</time>
      </trkpt>
      <trkpt lat="42.304365" lon="-8.797543">
        <ele>175.4</ele>
        <time>1970-01-01T03:12:32.000Z</time>
      </trkpt>
      <trkpt lat="42.304359" lon="-8.797546">
        <ele>175.4</ele>
        <time>1970-01-01T03:12:33.000Z</time>
      </trkpt>
      <trkpt lat="42.304354" lon="-8.797548">
        <ele>175.4</ele>
        <time>1970-01-01T03:12:34.000Z</time>
      </trkpt>
      <trkpt lat="42.304351" lon="-8.79755">
        <ele>175.2</ele>
        <time>1970-01-01T03:12:35.000Z</time>
      </trkpt>
      <trkpt lat="42.304347" lon="-8.797549">
        <ele>175.2</ele>
        <time>1970-01-01T03:12:36.000Z</time>
      </trkpt>
      <trkpt lat="42.304343" lon="-8.797549">
        <ele>175</ele>
        <time>1970-01-01T03:12:37.000Z</time>
      </trkpt>
      <trkpt lat="42.304336" lon="-8.797546">
        <ele>175</ele>
        <time>1970-01-01T03:12:38.000Z</time>
      </trkpt>
      <trkpt lat="42.304328" lon="-8.797543">
        <ele>175</ele>
        <time>1970-01-01T03:12:39.000Z</time>
      </trkpt>
      <trkpt lat="42.304317" lon="-8.797535">
        <ele>174.8</ele>
        <time>1970-01-01T03:12:40.000Z</time>
      </trkpt>
      <trkpt lat="42.304307" lon="-8.797534">
        <ele>174.6</ele>
        <time>1970-01-01T03:12:41.000Z</time>
      </trkpt>
      <trkpt lat="42.304298" lon="-8.797533">
        <ele>174</ele>
        <time>1970-01-01T03:12:42.000Z</time>
      </trkpt>
      <trkpt lat="42.30429" lon="-8.797533">
        <ele>173.8</ele>
        <time>1970-01-01T03:12:43.000Z</time>
      </trkpt>
      <trkpt lat="42.304284" lon="-8.797535">
        <ele>173.6</ele>
        <time>1970-01-01T03:12:44.000Z</time>
      </trkpt>
      <trkpt lat="42.304284" lon="-8.797535">
        <ele>173.4</ele>
        <time>1970-01-01T03:12:45.000Z</time>
      </trkpt>
      <trkpt lat="42.304279" lon="-8.797533">
        <ele>173.2</ele>
        <time>1970-01-01T03:12:46.000Z</time>
      </trkpt>
      <trkpt lat="42.304274" lon="-8.797533">
        <ele>172.8</ele>
        <time>1970-01-01T03:12:47.000Z</time>
      </trkpt>
      <trkpt lat="42.304268" lon="-8.797528">
        <ele>172.6</ele>
        <time>1970-01-01T03:12:48.000Z</time>
      </trkpt>
      <trkpt lat="42.304263" lon="-8.797525">
        <ele>172.4</ele>
        <time>1970-01-01T03:12:49.000Z</time>
      </trkpt>
      <trkpt lat="42.304261" lon="-8.797523">
        <ele>172.2</ele>
        <time>1970-01-01T03:12:50.000Z</time>
      </trkpt>
      <trkpt lat="42.304257" lon="-8.79752">
        <ele>171.8</ele>
        <time>1970-01-01T03:12:51.000Z</time>
      </trkpt>
      <trkpt lat="42.304254" lon="-8.797514">
        <ele>171.6</ele>
        <time>1970-01-01T03:12:52.000Z</time>
      </trkpt>
      <trkpt lat="42.30425" lon="-8.797509">
        <ele>171.6</ele>
        <time>1970-01-01T03:12:53.000Z</time>
      </trkpt>
      <trkpt lat="42.304246" lon="-8.797502">
        <ele>171.4</ele>
        <time>1970-01-01T03:12:54.000Z</time>
      </trkpt>
      <trkpt lat="42.304242" lon="-8.797498">
        <ele>171.2</ele>
        <time>1970-01-01T03:12:55.000Z</time>
      </trkpt>
      <trkpt lat="42.304237" lon="-8.797493">
        <ele>170.8</ele>
        <time>1970-01-01T03:12:56.000Z</time>
      </trkpt>
      <trkpt lat="42.304232" lon="-8.797483">
        <ele>170.4</ele>
        <time>1970-01-01T03:12:57.000Z</time>
      </trkpt>
      <trkpt lat="42.304226" lon="-8.797471">
        <ele>170.2</ele>
        <time>1970-01-01T03:12:58.000Z</time>
      </trkpt>
      <trkpt lat="42.304221" lon="-8.797459">
        <ele>170</ele>
        <time>1970-01-01T03:12:59.000Z</time>
      </trkpt>
      <trkpt lat="42.304215" lon="-8.797449">
        <ele>169.6</ele>
        <time>1970-01-01T03:13:00.000Z</time>
      </trkpt>
      <trkpt lat="42.304207" lon="-8.797439">
        <ele>169.2</ele>
        <time>1970-01-01T03:13:01.000Z</time>
      </trkpt>
      <trkpt lat="42.3042" lon="-8.797434">
        <ele>168.8</ele>
        <time>1970-01-01T03:13:02.000Z</time>
      </trkpt>
      <trkpt lat="42.304192" lon="-8.79743">
        <ele>168.6</ele>
        <time>1970-01-01T03:13:03.000Z</time>
      </trkpt>
      <trkpt lat="42.304185" lon="-8.797427">
        <ele>168.4</ele>
        <time>1970-01-01T03:13:04.000Z</time>
      </trkpt>
      <trkpt lat="42.304178" lon="-8.797422">
        <ele>168</ele>
        <time>1970-01-01T03:13:05.000Z</time>
      </trkpt>
      <trkpt lat="42.304171" lon="-8.797415">
        <ele>167.8</ele>
        <time>1970-01-01T03:13:06.000Z</time>
      </trkpt>
      <trkpt lat="42.304163" lon="-8.797404">
        <ele>167.4</ele>
        <time>1970-01-01T03:13:07.000Z</time>
      </trkpt>
      <trkpt lat="42.304155" lon="-8.79739">
        <ele>167</ele>
        <time>1970-01-01T03:13:08.000Z</time>
      </trkpt>
      <trkpt lat="42.304149" lon="-8.797377">
        <ele>166.4</ele>
        <time>1970-01-01T03:13:09.000Z</time>
      </trkpt>
      <trkpt lat="42.304142" lon="-8.797364">
        <ele>166.2</ele>
        <time>1970-01-01T03:13:10.000Z</time>
      </trkpt>
      <trkpt lat="42.304135" lon="-8.797352">
        <ele>166</ele>
        <time>1970-01-01T03:13:11.000Z</time>
      </trkpt>
      <trkpt lat="42.30413" lon="-8.797341">
        <ele>166</ele>
        <time>1970-01-01T03:13:12.000Z</time>
      </trkpt>
      <trkpt lat="42.304118" lon="-8.797334">
        <ele>166</ele>
        <time>1970-01-01T03:13:13.000Z</time>
      </trkpt>
      <trkpt lat="42.304109" lon="-8.79733">
        <ele>165.8</ele>
        <time>1970-01-01T03:13:14.000Z</time>
      </trkpt>
      <trkpt lat="42.304103" lon="-8.797323">
        <ele>165.4</ele>
        <time>1970-01-01T03:13:15.000Z</time>
      </trkpt>
      <trkpt lat="42.304098" lon="-8.797316">
        <ele>165.2</ele>
        <time>1970-01-01T03:13:16.000Z</time>
      </trkpt>
      <trkpt lat="42.304095" lon="-8.797309">
        <ele>165</ele>
        <time>1970-01-01T03:13:17.000Z</time>
      </trkpt>
      <trkpt lat="42.304097" lon="-8.797303">
        <ele>164.6</ele>
        <time>1970-01-01T03:13:18.000Z</time>
      </trkpt>
      <trkpt lat="42.304094" lon="-8.797293">
        <ele>164</ele>
        <time>1970-01-01T03:13:19.000Z</time>
      </trkpt>
      <trkpt lat="42.304094" lon="-8.797277">
        <ele>163.8</ele>
        <time>1970-01-01T03:13:20.000Z</time>
      </trkpt>
      <trkpt lat="42.30409" lon="-8.797257">
        <ele>163.4</ele>
        <time>1970-01-01T03:13:21.000Z</time>
      </trkpt>
      <trkpt lat="42.30409" lon="-8.797242">
        <ele>163.2</ele>
        <time>1970-01-01T03:13:22.000Z</time>
      </trkpt>
      <trkpt lat="42.304094" lon="-8.797234">
        <ele>163</ele>
        <time>1970-01-01T03:13:23.000Z</time>
      </trkpt>
      <trkpt lat="42.304093" lon="-8.797224">
        <ele>162.8</ele>
        <time>1970-01-01T03:13:24.000Z</time>
      </trkpt>
      <trkpt lat="42.304092" lon="-8.797213">
        <ele>162.4</ele>
        <time>1970-01-01T03:13:25.000Z</time>
      </trkpt>
      <trkpt lat="42.304094" lon="-8.7972">
        <ele>161.8</ele>
        <time>1970-01-01T03:13:26.000Z</time>
      </trkpt>
      <trkpt lat="42.304093" lon="-8.797189">
        <ele>161.4</ele>
        <time>1970-01-01T03:13:27.000Z</time>
      </trkpt>
      <trkpt lat="42.304092" lon="-8.797179">
        <ele>161</ele>
        <time>1970-01-01T03:13:28.000Z</time>
      </trkpt>
      <trkpt lat="42.30409" lon="-8.797171">
        <ele>160.6</ele>
        <time>1970-01-01T03:13:29.000Z</time>
      </trkpt>
      <trkpt lat="42.304086" lon="-8.797166">
        <ele>160.2</ele>
        <time>1970-01-01T03:13:30.000Z</time>
      </trkpt>
      <trkpt lat="42.304082" lon="-8.797164">
        <ele>160</ele>
        <time>1970-01-01T03:13:31.000Z</time>
      </trkpt>
      <trkpt lat="42.304079" lon="-8.797159">
        <ele>159.8</ele>
        <time>1970-01-01T03:13:32.000Z</time>
      </trkpt>
      <trkpt lat="42.304077" lon="-8.797154">
        <ele>159.8</ele>
        <time>1970-01-01T03:13:33.000Z</time>
      </trkpt>
      <trkpt lat="42.304075" lon="-8.797147">
        <ele>159.6</ele>
        <time>1970-01-01T03:13:34.000Z</time>
      </trkpt>
      <trkpt lat="42.304069" lon="-8.797136">
        <ele>159.4</ele>
        <time>1970-01-01T03:13:35.000Z</time>
      </trkpt>
      <trkpt lat="42.304062" lon="-8.797123">
        <ele>158.8</ele>
        <time>1970-01-01T03:13:36.000Z</time>
      </trkpt>
      <trkpt lat="42.304056" lon="-8.79711">
        <ele>158.4</ele>
        <time>1970-01-01T03:13:37.000Z</time>
      </trkpt>
      <trkpt lat="42.30405" lon="-8.797095">
        <ele>158</ele>
        <time>1970-01-01T03:13:38.000Z</time>
      </trkpt>
      <trkpt lat="42.304043" lon="-8.797081">
        <ele>157.8</ele>
        <time>1970-01-01T03:13:39.000Z</time>
      </trkpt>
      <trkpt lat="42.304036" lon="-8.797061">
        <ele>157.4</ele>
        <time>1970-01-01T03:13:40.000Z</time>
      </trkpt>
      <trkpt lat="42.304029" lon="-8.797043">
        <ele>157</ele>
        <time>1970-01-01T03:13:41.000Z</time>
      </trkpt>
      <trkpt lat="42.304019" lon="-8.797033">
        <ele>156.6</ele>
        <time>1970-01-01T03:13:42.000Z</time>
      </trkpt>
      <trkpt lat="42.304009" lon="-8.797025">
        <ele>156</ele>
        <time>1970-01-01T03:13:43.000Z</time>
      </trkpt>
      <trkpt lat="42.303999" lon="-8.79702">
        <ele>155.6</ele>
        <time>1970-01-01T03:13:44.000Z</time>
      </trkpt>
      <trkpt lat="42.303978" lon="-8.797015">
        <ele>155.4</ele>
        <time>1970-01-01T03:13:45.000Z</time>
      </trkpt>
      <trkpt lat="42.303964" lon="-8.797012">
        <ele>155.2</ele>
        <time>1970-01-01T03:13:46.000Z</time>
      </trkpt>
      <trkpt lat="42.303955" lon="-8.797007">
        <ele>155.2</ele>
        <time>1970-01-01T03:13:47.000Z</time>
      </trkpt>
      <trkpt lat="42.303951" lon="-8.797005">
        <ele>154.6</ele>
        <time>1970-01-01T03:13:48.000Z</time>
      </trkpt>
      <trkpt lat="42.30395" lon="-8.797004">
        <ele>154.4</ele>
        <time>1970-01-01T03:13:49.000Z</time>
      </trkpt>
      <trkpt lat="42.303951" lon="-8.797002">
        <ele>154.4</ele>
        <time>1970-01-01T03:13:50.000Z</time>
      </trkpt>
      <trkpt lat="42.303951" lon="-8.796997">
        <ele>154</ele>
        <time>1970-01-01T03:13:51.000Z</time>
      </trkpt>
      <trkpt lat="42.30395" lon="-8.796988">
        <ele>153.6</ele>
        <time>1970-01-01T03:13:52.000Z</time>
      </trkpt>
      <trkpt lat="42.303949" lon="-8.79698">
        <ele>153</ele>
        <time>1970-01-01T03:13:53.000Z</time>
      </trkpt>
      <trkpt lat="42.30395" lon="-8.796975">
        <ele>152.8</ele>
        <time>1970-01-01T03:13:54.000Z</time>
      </trkpt>
      <trkpt lat="42.303952" lon="-8.796971">
        <ele>152.6</ele>
        <time>1970-01-01T03:13:55.000Z</time>
      </trkpt>
      <trkpt lat="42.303952" lon="-8.796968">
        <ele>152.6</ele>
        <time>1970-01-01T03:13:56.000Z</time>
      </trkpt>
      <trkpt lat="42.303952" lon="-8.796959">
        <ele>152.4</ele>
        <time>1970-01-01T03:13:57.000Z</time>
      </trkpt>
      <trkpt lat="42.303952" lon="-8.796947">
        <ele>152.2</ele>
        <time>1970-01-01T03:13:58.000Z</time>
      </trkpt>
      <trkpt lat="42.30395" lon="-8.796938">
        <ele>152.2</ele>
        <time>1970-01-01T03:13:59.000Z</time>
      </trkpt>
      <trkpt lat="42.303947" lon="-8.796928">
        <ele>152.2</ele>
        <time>1970-01-01T03:14:00.000Z</time>
      </trkpt>
      <trkpt lat="42.303941" lon="-8.796915">
        <ele>152.2</ele>
        <time>1970-01-01T03:14:01.000Z</time>
      </trkpt>
      <trkpt lat="42.303937" lon="-8.796906">
        <ele>152.2</ele>
        <time>1970-01-01T03:14:02.000Z</time>
      </trkpt>
      <trkpt lat="42.303933" lon="-8.796899">
        <ele>152</ele>
        <time>1970-01-01T03:14:03.000Z</time>
      </trkpt>
      <trkpt lat="42.303929" lon="-8.796892">
        <ele>151.6</ele>
        <time>1970-01-01T03:14:04.000Z</time>
      </trkpt>
      <trkpt lat="42.303926" lon="-8.796891">
        <ele>151</ele>
        <time>1970-01-01T03:14:05.000Z</time>
      </trkpt>
      <trkpt lat="42.303919" lon="-8.796887">
        <ele>150.8</ele>
        <time>1970-01-01T03:14:06.000Z</time>
      </trkpt>
      <trkpt lat="42.303909" lon="-8.796883">
        <ele>150.6</ele>
        <time>1970-01-01T03:14:07.000Z</time>
      </trkpt>
      <trkpt lat="42.303897" lon="-8.796887">
        <ele>150.2</ele>
        <time>1970-01-01T03:14:08.000Z</time>
      </trkpt>
      <trkpt lat="42.303888" lon="-8.796894">
        <ele>150.2</ele>
        <time>1970-01-01T03:14:09.000Z</time>
      </trkpt>
      <trkpt lat="42.30388" lon="-8.796897">
        <ele>150</ele>
        <time>1970-01-01T03:14:10.000Z</time>
      </trkpt>
      <trkpt lat="42.303872" lon="-8.796896">
        <ele>149.6</ele>
        <time>1970-01-01T03:14:11.000Z</time>
      </trkpt>
      <trkpt lat="42.303866" lon="-8.796896">
        <ele>149</ele>
        <time>1970-01-01T03:14:12.000Z</time>
      </trkpt>
      <trkpt lat="42.303861" lon="-8.796894">
        <ele>148.8</ele>
        <time>1970-01-01T03:14:13.000Z</time>
      </trkpt>
      <trkpt lat="42.303855" lon="-8.796889">
        <ele>148.6</ele>
        <time>1970-01-01T03:14:14.000Z</time>
      </trkpt>
      <trkpt lat="42.30385" lon="-8.796884">
        <ele>148.2</ele>
        <time>1970-01-01T03:14:15.000Z</time>
      </trkpt>
      <trkpt lat="42.303845" lon="-8.796878">
        <ele>148</ele>
        <time>1970-01-01T03:14:16.000Z</time>
      </trkpt>
      <trkpt lat="42.303838" lon="-8.796869">
        <ele>147.6</ele>
        <time>1970-01-01T03:14:17.000Z</time>
      </trkpt>
      <trkpt lat="42.303833" lon="-8.796862">
        <ele>147.4</ele>
        <time>1970-01-01T03:14:18.000Z</time>
      </trkpt>
      <trkpt lat="42.303828" lon="-8.796855">
        <ele>147.2</ele>
        <time>1970-01-01T03:14:19.000Z</time>
      </trkpt>
      <trkpt lat="42.303824" lon="-8.796848">
        <ele>146.8</ele>
        <time>1970-01-01T03:14:20.000Z</time>
      </trkpt>
      <trkpt lat="42.303817" lon="-8.796838">
        <ele>146.4</ele>
        <time>1970-01-01T03:14:21.000Z</time>
      </trkpt>
      <trkpt lat="42.30381" lon="-8.796825">
        <ele>146.2</ele>
        <time>1970-01-01T03:14:22.000Z</time>
      </trkpt>
      <trkpt lat="42.303805" lon="-8.796819">
        <ele>146</ele>
        <time>1970-01-01T03:14:23.000Z</time>
      </trkpt>
      <trkpt lat="42.303797" lon="-8.796809">
        <ele>145.8</ele>
        <time>1970-01-01T03:14:24.000Z</time>
      </trkpt>
      <trkpt lat="42.303791" lon="-8.796794">
        <ele>145.8</ele>
        <time>1970-01-01T03:14:25.000Z</time>
      </trkpt>
      <trkpt lat="42.303782" lon="-8.796787">
        <ele>145.6</ele>
        <time>1970-01-01T03:14:26.000Z</time>
      </trkpt>
      <trkpt lat="42.303772" lon="-8.796778">
        <ele>145.4</ele>
        <time>1970-01-01T03:14:27.000Z</time>
      </trkpt>
      <trkpt lat="42.303763" lon="-8.796773">
        <ele>145.4</ele>
        <time>1970-01-01T03:14:28.000Z</time>
      </trkpt>
      <trkpt lat="42.303758" lon="-8.796771">
        <ele>145</ele>
        <time>1970-01-01T03:14:29.000Z</time>
      </trkpt>
      <trkpt lat="42.303751" lon="-8.796773">
        <ele>144.8</ele>
        <time>1970-01-01T03:14:30.000Z</time>
      </trkpt>
      <trkpt lat="42.303747" lon="-8.796776">
        <ele>144.8</ele>
        <time>1970-01-01T03:14:31.000Z</time>
      </trkpt>
      <trkpt lat="42.303745" lon="-8.796776">
        <ele>144.2</ele>
        <time>1970-01-01T03:14:32.000Z</time>
      </trkpt>
      <trkpt lat="42.303743" lon="-8.796773">
        <ele>143.4</ele>
        <time>1970-01-01T03:14:33.000Z</time>
      </trkpt>
      <trkpt lat="42.30374" lon="-8.796765">
        <ele>143.2</ele>
        <time>1970-01-01T03:14:34.000Z</time>
      </trkpt>
      <trkpt lat="42.303738" lon="-8.796753">
        <ele>143</ele>
        <time>1970-01-01T03:14:35.000Z</time>
      </trkpt>
      <trkpt lat="42.303737" lon="-8.796738">
        <ele>142.8</ele>
        <time>1970-01-01T03:14:36.000Z</time>
      </trkpt>
      <trkpt lat="42.303738" lon="-8.79672">
        <ele>142.6</ele>
        <time>1970-01-01T03:14:37.000Z</time>
      </trkpt>
      <trkpt lat="42.303736" lon="-8.796703">
        <ele>142.8</ele>
        <time>1970-01-01T03:14:38.000Z</time>
      </trkpt>
      <trkpt lat="42.303738" lon="-8.796695">
        <ele>142.8</ele>
        <time>1970-01-01T03:14:39.000Z</time>
      </trkpt>
      <trkpt lat="42.303737" lon="-8.796688">
        <ele>142.8</ele>
        <time>1970-01-01T03:14:40.000Z</time>
      </trkpt>
      <trkpt lat="42.303737" lon="-8.796681">
        <ele>142.6</ele>
        <time>1970-01-01T03:14:41.000Z</time>
      </trkpt>
      <trkpt lat="42.303743" lon="-8.796672">
        <ele>142.4</ele>
        <time>1970-01-01T03:14:42.000Z</time>
      </trkpt>
      <trkpt lat="42.303748" lon="-8.796663">
        <ele>142.6</ele>
        <time>1970-01-01T03:14:43.000Z</time>
      </trkpt>
      <trkpt lat="42.303749" lon="-8.796655">
        <ele>142.6</ele>
        <time>1970-01-01T03:14:44.000Z</time>
      </trkpt>
      <trkpt lat="42.303751" lon="-8.796645">
        <ele>142.4</ele>
        <time>1970-01-01T03:14:45.000Z</time>
      </trkpt>
      <trkpt lat="42.303751" lon="-8.796629">
        <ele>142.4</ele>
        <time>1970-01-01T03:14:46.000Z</time>
      </trkpt>
      <trkpt lat="42.303751" lon="-8.796613">
        <ele>142.4</ele>
        <time>1970-01-01T03:14:47.000Z</time>
      </trkpt>
      <trkpt lat="42.303748" lon="-8.796597">
        <ele>142.6</ele>
        <time>1970-01-01T03:14:48.000Z</time>
      </trkpt>
      <trkpt lat="42.303748" lon="-8.796587">
        <ele>142.4</ele>
        <time>1970-01-01T03:14:49.000Z</time>
      </trkpt>
      <trkpt lat="42.303747" lon="-8.796578">
        <ele>142.2</ele>
        <time>1970-01-01T03:14:50.000Z</time>
      </trkpt>
      <trkpt lat="42.303745" lon="-8.796571">
        <ele>142.4</ele>
        <time>1970-01-01T03:14:51.000Z</time>
      </trkpt>
      <trkpt lat="42.303739" lon="-8.796563">
        <ele>142.4</ele>
        <time>1970-01-01T03:14:52.000Z</time>
      </trkpt>
      <trkpt lat="42.303739" lon="-8.796557">
        <ele>142.4</ele>
        <time>1970-01-01T03:14:53.000Z</time>
      </trkpt>
      <trkpt lat="42.303735" lon="-8.79654">
        <ele>142.2</ele>
        <time>1970-01-01T03:14:54.000Z</time>
      </trkpt>
      <trkpt lat="42.303733" lon="-8.796528">
        <ele>142</ele>
        <time>1970-01-01T03:14:55.000Z</time>
      </trkpt>
      <trkpt lat="42.303728" lon="-8.796519">
        <ele>142</ele>
        <time>1970-01-01T03:14:56.000Z</time>
      </trkpt>
      <trkpt lat="42.303725" lon="-8.796516">
        <ele>142</ele>
        <time>1970-01-01T03:14:57.000Z</time>
      </trkpt>
      <trkpt lat="42.30372" lon="-8.796511">
        <ele>142</ele>
        <time>1970-01-01T03:14:58.000Z</time>
      </trkpt>
      <trkpt lat="42.303715" lon="-8.796508">
        <ele>141.8</ele>
        <time>1970-01-01T03:14:59.000Z</time>
      </trkpt>
      <trkpt lat="42.303713" lon="-8.796501">
        <ele>141.8</ele>
        <time>1970-01-01T03:15:00.000Z</time>
      </trkpt>
      <trkpt lat="42.303705" lon="-8.796494">
        <ele>141.6</ele>
        <time>1970-01-01T03:15:01.000Z</time>
      </trkpt>
      <trkpt lat="42.303697" lon="-8.796488">
        <ele>141.4</ele>
        <time>1970-01-01T03:15:02.000Z</time>
      </trkpt>
      <trkpt lat="42.30369" lon="-8.79649">
        <ele>141.2</ele>
        <time>1970-01-01T03:15:03.000Z</time>
      </trkpt>
      <trkpt lat="42.303684" lon="-8.796493">
        <ele>141</ele>
        <time>1970-01-01T03:15:04.000Z</time>
      </trkpt>
      <trkpt lat="42.303678" lon="-8.796502">
        <ele>141</ele>
        <time>1970-01-01T03:15:05.000Z</time>
      </trkpt>
      <trkpt lat="42.303672" lon="-8.796509">
        <ele>141</ele>
        <time>1970-01-01T03:15:06.000Z</time>
      </trkpt>
      <trkpt lat="42.303668" lon="-8.796519">
        <ele>141</ele>
        <time>1970-01-01T03:15:07.000Z</time>
      </trkpt>
      <trkpt lat="42.303665" lon="-8.796522">
        <ele>141</ele>
        <time>1970-01-01T03:15:08.000Z</time>
      </trkpt>
      <trkpt lat="42.303661" lon="-8.796522">
        <ele>140.8</ele>
        <time>1970-01-01T03:15:09.000Z</time>
      </trkpt>
      <trkpt lat="42.303657" lon="-8.796518">
        <ele>140.8</ele>
        <time>1970-01-01T03:15:10.000Z</time>
      </trkpt>
      <trkpt lat="42.303657" lon="-8.796516">
        <ele>140.8</ele>
        <time>1970-01-01T03:15:11.000Z</time>
      </trkpt>
      <trkpt lat="42.303658" lon="-8.796514">
        <ele>140.6</ele>
        <time>1970-01-01T03:15:12.000Z</time>
      </trkpt>
      <trkpt lat="42.30366" lon="-8.796513">
        <ele>140.2</ele>
        <time>1970-01-01T03:15:13.000Z</time>
      </trkpt>
      <trkpt lat="42.303661" lon="-8.796502">
        <ele>140</ele>
        <time>1970-01-01T03:15:14.000Z</time>
      </trkpt>
      <trkpt lat="42.30366" lon="-8.796493">
        <ele>139.8</ele>
        <time>1970-01-01T03:15:15.000Z</time>
      </trkpt>
      <trkpt lat="42.30366" lon="-8.796486">
        <ele>139.6</ele>
        <time>1970-01-01T03:15:16.000Z</time>
      </trkpt>
      <trkpt lat="42.303657" lon="-8.796482">
        <ele>139.2</ele>
        <time>1970-01-01T03:15:17.000Z</time>
      </trkpt>
      <trkpt lat="42.303655" lon="-8.796479">
        <ele>139</ele>
        <time>1970-01-01T03:15:18.000Z</time>
      </trkpt>
      <trkpt lat="42.303652" lon="-8.796477">
        <ele>138.6</ele>
        <time>1970-01-01T03:15:19.000Z</time>
      </trkpt>
      <trkpt lat="42.30365" lon="-8.79648">
        <ele>138.2</ele>
        <time>1970-01-01T03:15:20.000Z</time>
      </trkpt>
      <trkpt lat="42.303645" lon="-8.796486">
        <ele>138</ele>
        <time>1970-01-01T03:15:21.000Z</time>
      </trkpt>
      <trkpt lat="42.303639" lon="-8.796487">
        <ele>137.6</ele>
        <time>1970-01-01T03:15:22.000Z</time>
      </trkpt>
      <trkpt lat="42.303632" lon="-8.796485">
        <ele>137.4</ele>
        <time>1970-01-01T03:15:23.000Z</time>
      </trkpt>
      <trkpt lat="42.303629" lon="-8.796483">
        <ele>137.2</ele>
        <time>1970-01-01T03:15:24.000Z</time>
      </trkpt>
      <trkpt lat="42.303626" lon="-8.796484">
        <ele>137</ele>
        <time>1970-01-01T03:15:25.000Z</time>
      </trkpt>
      <trkpt lat="42.303622" lon="-8.796489">
        <ele>136.8</ele>
        <time>1970-01-01T03:15:26.000Z</time>
      </trkpt>
      <trkpt lat="42.303619" lon="-8.796497">
        <ele>136.6</ele>
        <time>1970-01-01T03:15:27.000Z</time>
      </trkpt>
      <trkpt lat="42.303614" lon="-8.796505">
        <ele>136.4</ele>
        <time>1970-01-01T03:15:28.000Z</time>
      </trkpt>
      <trkpt lat="42.303608" lon="-8.796511">
        <ele>136</ele>
        <time>1970-01-01T03:15:29.000Z</time>
      </trkpt>
      <trkpt lat="42.303601" lon="-8.796516">
        <ele>135.6</ele>
        <time>1970-01-01T03:15:30.000Z</time>
      </trkpt>
      <trkpt lat="42.303594" lon="-8.79652">
        <ele>135</ele>
        <time>1970-01-01T03:15:31.000Z</time>
      </trkpt>
      <trkpt lat="42.303585" lon="-8.796525">
        <ele>134.8</ele>
        <time>1970-01-01T03:15:32.000Z</time>
      </trkpt>
      <trkpt lat="42.303573" lon="-8.796529">
        <ele>134.4</ele>
        <time>1970-01-01T03:15:33.000Z</time>
      </trkpt>
      <trkpt lat="42.303567" lon="-8.79653">
        <ele>134.2</ele>
        <time>1970-01-01T03:15:34.000Z</time>
      </trkpt>
      <trkpt lat="42.30356" lon="-8.79653">
        <ele>134</ele>
        <time>1970-01-01T03:15:35.000Z</time>
      </trkpt>
      <trkpt lat="42.303551" lon="-8.796524">
        <ele>134</ele>
        <time>1970-01-01T03:15:36.000Z</time>
      </trkpt>
      <trkpt lat="42.303544" lon="-8.796518">
        <ele>133.8</ele>
        <time>1970-01-01T03:15:37.000Z</time>
      </trkpt>
      <trkpt lat="42.303538" lon="-8.796514">
        <ele>133.2</ele>
        <time>1970-01-01T03:15:38.000Z</time>
      </trkpt>
      <trkpt lat="42.303532" lon="-8.796516">
        <ele>132.8</ele>
        <time>1970-01-01T03:15:39.000Z</time>
      </trkpt>
      <trkpt lat="42.303527" lon="-8.79652">
        <ele>132.4</ele>
        <time>1970-01-01T03:15:40.000Z</time>
      </trkpt>
      <trkpt lat="42.303522" lon="-8.79652">
        <ele>132.4</ele>
        <time>1970-01-01T03:15:41.000Z</time>
      </trkpt>
      <trkpt lat="42.303517" lon="-8.796518">
        <ele>132.2</ele>
        <time>1970-01-01T03:15:42.000Z</time>
      </trkpt>
      <trkpt lat="42.303511" lon="-8.79652">
        <ele>132</ele>
        <time>1970-01-01T03:15:43.000Z</time>
      </trkpt>
      <trkpt lat="42.303505" lon="-8.796521">
        <ele>132</ele>
        <time>1970-01-01T03:15:44.000Z</time>
      </trkpt>
      <trkpt lat="42.3035" lon="-8.796521">
        <ele>131.4</ele>
        <time>1970-01-01T03:15:45.000Z</time>
      </trkpt>
      <trkpt lat="42.303495" lon="-8.796517">
        <ele>131.2</ele>
        <time>1970-01-01T03:15:46.000Z</time>
      </trkpt>
      <trkpt lat="42.303488" lon="-8.796512">
        <ele>131</ele>
        <time>1970-01-01T03:15:47.000Z</time>
      </trkpt>
      <trkpt lat="42.303483" lon="-8.796507">
        <ele>130.8</ele>
        <time>1970-01-01T03:15:48.000Z</time>
      </trkpt>
      <trkpt lat="42.303478" lon="-8.796505">
        <ele>130.4</ele>
        <time>1970-01-01T03:15:49.000Z</time>
      </trkpt>
      <trkpt lat="42.303472" lon="-8.796508">
        <ele>130</ele>
        <time>1970-01-01T03:15:50.000Z</time>
      </trkpt>
      <trkpt lat="42.303463" lon="-8.796513">
        <ele>129.4</ele>
        <time>1970-01-01T03:15:51.000Z</time>
      </trkpt>
      <trkpt lat="42.303454" lon="-8.796517">
        <ele>129</ele>
        <time>1970-01-01T03:15:52.000Z</time>
      </trkpt>
      <trkpt lat="42.303445" lon="-8.796519">
        <ele>128.6</ele>
        <time>1970-01-01T03:15:53.000Z</time>
      </trkpt>
      <trkpt lat="42.303438" lon="-8.796521">
        <ele>128.2</ele>
        <time>1970-01-01T03:15:54.000Z</time>
      </trkpt>
      <trkpt lat="42.303433" lon="-8.796526">
        <ele>128.2</ele>
        <time>1970-01-01T03:15:55.000Z</time>
      </trkpt>
      <trkpt lat="42.303428" lon="-8.796532">
        <ele>127.8</ele>
        <time>1970-01-01T03:15:56.000Z</time>
      </trkpt>
      <trkpt lat="42.303421" lon="-8.796538">
        <ele>127.8</ele>
        <time>1970-01-01T03:15:57.000Z</time>
      </trkpt>
      <trkpt lat="42.303415" lon="-8.796542">
        <ele>127.6</ele>
        <time>1970-01-01T03:15:58.000Z</time>
      </trkpt>
      <trkpt lat="42.30341" lon="-8.796543">
        <ele>127.6</ele>
        <time>1970-01-01T03:15:59.000Z</time>
      </trkpt>
      <trkpt lat="42.303406" lon="-8.796543">
        <ele>127.6</ele>
        <time>1970-01-01T03:16:00.000Z</time>
      </trkpt>
      <trkpt lat="42.303401" lon="-8.796543">
        <ele>127.6</ele>
        <time>1970-01-01T03:16:01.000Z</time>
      </trkpt>
      <trkpt lat="42.303402" lon="-8.796549">
        <ele>127.4</ele>
        <time>1970-01-01T03:16:02.000Z</time>
      </trkpt>
      <trkpt lat="42.303402" lon="-8.796549">
        <ele>127.2</ele>
        <time>1970-01-01T03:16:03.000Z</time>
      </trkpt>
      <trkpt lat="42.303401" lon="-8.796547">
        <ele>126.6</ele>
        <time>1970-01-01T03:16:04.000Z</time>
      </trkpt>
      <trkpt lat="42.303396" lon="-8.796542">
        <ele>126.4</ele>
        <time>1970-01-01T03:16:05.000Z</time>
      </trkpt>
      <trkpt lat="42.303389" lon="-8.796537">
        <ele>126.2</ele>
        <time>1970-01-01T03:16:06.000Z</time>
      </trkpt>
      <trkpt lat="42.303382" lon="-8.796534">
        <ele>126</ele>
        <time>1970-01-01T03:16:07.000Z</time>
      </trkpt>
      <trkpt lat="42.303378" lon="-8.796533">
        <ele>125.8</ele>
        <time>1970-01-01T03:16:08.000Z</time>
      </trkpt>
      <trkpt lat="42.303376" lon="-8.796533">
        <ele>125.8</ele>
        <time>1970-01-01T03:16:09.000Z</time>
      </trkpt>
      <trkpt lat="42.303374" lon="-8.796532">
        <ele>125.4</ele>
        <time>1970-01-01T03:16:10.000Z</time>
      </trkpt>
      <trkpt lat="42.303373" lon="-8.79653">
        <ele>125.2</ele>
        <time>1970-01-01T03:16:11.000Z</time>
      </trkpt>
      <trkpt lat="42.303372" lon="-8.796524">
        <ele>125.2</ele>
        <time>1970-01-01T03:16:12.000Z</time>
      </trkpt>
      <trkpt lat="42.303373" lon="-8.79652">
        <ele>124.8</ele>
        <time>1970-01-01T03:16:13.000Z</time>
      </trkpt>
      <trkpt lat="42.303372" lon="-8.796519">
        <ele>124.8</ele>
        <time>1970-01-01T03:16:14.000Z</time>
      </trkpt>
      <trkpt lat="42.303371" lon="-8.796512">
        <ele>124.8</ele>
        <time>1970-01-01T03:16:15.000Z</time>
      </trkpt>
      <trkpt lat="42.30337" lon="-8.796506">
        <ele>124.8</ele>
        <time>1970-01-01T03:16:16.000Z</time>
      </trkpt>
      <trkpt lat="42.303368" lon="-8.796503">
        <ele>124.6</ele>
        <time>1970-01-01T03:16:17.000Z</time>
      </trkpt>
      <trkpt lat="42.303365" lon="-8.796504">
        <ele>124.6</ele>
        <time>1970-01-01T03:16:18.000Z</time>
      </trkpt>
      <trkpt lat="42.303361" lon="-8.796506">
        <ele>124.4</ele>
        <time>1970-01-01T03:16:19.000Z</time>
      </trkpt>
      <trkpt lat="42.303358" lon="-8.796511">
        <ele>124.2</ele>
        <time>1970-01-01T03:16:20.000Z</time>
      </trkpt>
      <trkpt lat="42.303354" lon="-8.796518">
        <ele>124</ele>
        <time>1970-01-01T03:16:21.000Z</time>
      </trkpt>
      <trkpt lat="42.303351" lon="-8.796523">
        <ele>124</ele>
        <time>1970-01-01T03:16:22.000Z</time>
      </trkpt>
      <trkpt lat="42.303348" lon="-8.796531">
        <ele>124</ele>
        <time>1970-01-01T03:16:23.000Z</time>
      </trkpt>
      <trkpt lat="42.303343" lon="-8.79654">
        <ele>124</ele>
        <time>1970-01-01T03:16:24.000Z</time>
      </trkpt>
      <trkpt lat="42.30334" lon="-8.796547">
        <ele>123.8</ele>
        <time>1970-01-01T03:16:25.000Z</time>
      </trkpt>
      <trkpt lat="42.303337" lon="-8.796557">
        <ele>123.6</ele>
        <time>1970-01-01T03:16:26.000Z</time>
      </trkpt>
      <trkpt lat="42.303335" lon="-8.796564">
        <ele>123.6</ele>
        <time>1970-01-01T03:16:27.000Z</time>
      </trkpt>
      <trkpt lat="42.303335" lon="-8.796571">
        <ele>123.6</ele>
        <time>1970-01-01T03:16:28.000Z</time>
      </trkpt>
      <trkpt lat="42.303338" lon="-8.79658">
        <ele>123.6</ele>
        <time>1970-01-01T03:16:29.000Z</time>
      </trkpt>
      <trkpt lat="42.303339" lon="-8.79659">
        <ele>123.6</ele>
        <time>1970-01-01T03:16:30.000Z</time>
      </trkpt>
      <trkpt lat="42.303342" lon="-8.796601">
        <ele>123.6</ele>
        <time>1970-01-01T03:16:31.000Z</time>
      </trkpt>
      <trkpt lat="42.303343" lon="-8.796611">
        <ele>123.6</ele>
        <time>1970-01-01T03:16:32.000Z</time>
      </trkpt>
      <trkpt lat="42.303345" lon="-8.796616">
        <ele>123.4</ele>
        <time>1970-01-01T03:16:33.000Z</time>
      </trkpt>
      <trkpt lat="42.303345" lon="-8.796624">
        <ele>123.4</ele>
        <time>1970-01-01T03:16:34.000Z</time>
      </trkpt>
      <trkpt lat="42.303344" lon="-8.796632">
        <ele>123.4</ele>
        <time>1970-01-01T03:16:35.000Z</time>
      </trkpt>
      <trkpt lat="42.303343" lon="-8.796644">
        <ele>123.6</ele>
        <time>1970-01-01T03:16:36.000Z</time>
      </trkpt>
      <trkpt lat="42.303346" lon="-8.796656">
        <ele>123.8</ele>
        <time>1970-01-01T03:16:37.000Z</time>
      </trkpt>
      <trkpt lat="42.303346" lon="-8.796664">
        <ele>123.8</ele>
        <time>1970-01-01T03:16:38.000Z</time>
      </trkpt>
      <trkpt lat="42.303347" lon="-8.79667">
        <ele>124</ele>
        <time>1970-01-01T03:16:39.000Z</time>
      </trkpt>
      <trkpt lat="42.303349" lon="-8.796674">
        <ele>124</ele>
        <time>1970-01-01T03:16:40.000Z</time>
      </trkpt>
      <trkpt lat="42.303353" lon="-8.796685">
        <ele>124</ele>
        <time>1970-01-01T03:16:41.000Z</time>
      </trkpt>
      <trkpt lat="42.303358" lon="-8.796691">
        <ele>124</ele>
        <time>1970-01-01T03:16:42.000Z</time>
      </trkpt>
      <trkpt lat="42.30336" lon="-8.796698">
        <ele>123.8</ele>
        <time>1970-01-01T03:16:43.000Z</time>
      </trkpt>
      <trkpt lat="42.303362" lon="-8.796703">
        <ele>123.6</ele>
        <time>1970-01-01T03:16:44.000Z</time>
      </trkpt>
      <trkpt lat="42.303363" lon="-8.796707">
        <ele>123.6</ele>
        <time>1970-01-01T03:16:45.000Z</time>
      </trkpt>
      <trkpt lat="42.303363" lon="-8.796712">
        <ele>123.6</ele>
        <time>1970-01-01T03:16:46.000Z</time>
      </trkpt>
      <trkpt lat="42.303363" lon="-8.796717">
        <ele>123.4</ele>
        <time>1970-01-01T03:16:47.000Z</time>
      </trkpt>
      <trkpt lat="42.303365" lon="-8.796721">
        <ele>123.4</ele>
        <time>1970-01-01T03:16:48.000Z</time>
      </trkpt>
      <trkpt lat="42.303366" lon="-8.796726">
        <ele>123.4</ele>
        <time>1970-01-01T03:16:49.000Z</time>
      </trkpt>
      <trkpt lat="42.303369" lon="-8.79673">
        <ele>123.6</ele>
        <time>1970-01-01T03:16:50.000Z</time>
      </trkpt>
      <trkpt lat="42.303369" lon="-8.796736">
        <ele>123.6</ele>
        <time>1970-01-01T03:16:51.000Z</time>
      </trkpt>
      <trkpt lat="42.303366" lon="-8.796748">
        <ele>123.2</ele>
        <time>1970-01-01T03:16:52.000Z</time>
      </trkpt>
      <trkpt lat="42.303366" lon="-8.796752">
        <ele>123.4</ele>
        <time>1970-01-01T03:16:53.000Z</time>
      </trkpt>
      <trkpt lat="42.30337" lon="-8.796753">
        <ele>123.6</ele>
        <time>1970-01-01T03:16:54.000Z</time>
      </trkpt>
      <trkpt lat="42.303376" lon="-8.796754">
        <ele>123.6</ele>
        <time>1970-01-01T03:16:55.000Z</time>
      </trkpt>
      <trkpt lat="42.303381" lon="-8.796752">
        <ele>123.6</ele>
        <time>1970-01-01T03:16:56.000Z</time>
      </trkpt>
      <trkpt lat="42.303388" lon="-8.79675">
        <ele>123.4</ele>
        <time>1970-01-01T03:16:57.000Z</time>
      </trkpt>
      <trkpt lat="42.303396" lon="-8.796748">
        <ele>123.2</ele>
        <time>1970-01-01T03:16:58.000Z</time>
      </trkpt>
      <trkpt lat="42.303404" lon="-8.796746">
        <ele>123.4</ele>
        <time>1970-01-01T03:16:59.000Z</time>
      </trkpt>
      <trkpt lat="42.303405" lon="-8.796746">
        <ele>123.4</ele>
        <time>1970-01-01T03:17:00.000Z</time>
      </trkpt>
      <trkpt lat="42.303401" lon="-8.796747">
        <ele>123.6</ele>
        <time>1970-01-01T03:17:01.000Z</time>
      </trkpt>
      <trkpt lat="42.303394" lon="-8.796749">
        <ele>123.6</ele>
        <time>1970-01-01T03:17:02.000Z</time>
      </trkpt>
      <trkpt lat="42.303398" lon="-8.796752">
        <ele>123.4</ele>
        <time>1970-01-01T03:17:03.000Z</time>
      </trkpt>
      <trkpt lat="42.303404" lon="-8.796754">
        <ele>123.4</ele>
        <time>1970-01-01T03:17:04.000Z</time>
      </trkpt>
      <trkpt lat="42.303408" lon="-8.796757">
        <ele>123.4</ele>
        <time>1970-01-01T03:17:05.000Z</time>
      </trkpt>
      <trkpt lat="42.303414" lon="-8.796758">
        <ele>123.4</ele>
        <time>1970-01-01T03:17:06.000Z</time>
      </trkpt>
      <trkpt lat="42.303422" lon="-8.796759">
        <ele>123.4</ele>
        <time>1970-01-01T03:17:07.000Z</time>
      </trkpt>
      <trkpt lat="42.303433" lon="-8.796759">
        <ele>123.4</ele>
        <time>1970-01-01T03:17:08.000Z</time>
      </trkpt>
      <trkpt lat="42.303442" lon="-8.796761">
        <ele>123.2</ele>
        <time>1970-01-01T03:17:09.000Z</time>
      </trkpt>
      <trkpt lat="42.30345" lon="-8.796763">
        <ele>123.4</ele>
        <time>1970-01-01T03:17:10.000Z</time>
      </trkpt>
      <trkpt lat="42.303455" lon="-8.796764">
        <ele>123.4</ele>
        <time>1970-01-01T03:17:11.000Z</time>
      </trkpt>
      <trkpt lat="42.303456" lon="-8.796763">
        <ele>123.4</ele>
        <time>1970-01-01T03:17:12.000Z</time>
      </trkpt>
      <trkpt lat="42.303449" lon="-8.79676">
        <ele>123.4</ele>
        <time>1970-01-01T03:17:13.000Z</time>
      </trkpt>
      <trkpt lat="42.303439" lon="-8.796743">
        <ele>123.4</ele>
        <time>1970-01-01T03:17:14.000Z</time>
      </trkpt>
      <trkpt lat="42.303422" lon="-8.796719">
        <ele>123.2</ele>
        <time>1970-01-01T03:17:15.000Z</time>
      </trkpt>
      <trkpt lat="42.303348" lon="-8.796698">
        <ele>123.4</ele>
        <time>1970-01-01T03:17:16.000Z</time>
      </trkpt>
      <trkpt lat="42.303337" lon="-8.796693">
        <ele>123.4</ele>
        <time>1970-01-01T03:17:17.000Z</time>
      </trkpt>
      <trkpt lat="42.303329" lon="-8.796684">
        <ele>123.4</ele>
        <time>1970-01-01T03:17:18.000Z</time>
      </trkpt>
      <trkpt lat="42.303321" lon="-8.796681">
        <ele>123.4</ele>
        <time>1970-01-01T03:17:19.000Z</time>
      </trkpt>
      <trkpt lat="42.303315" lon="-8.796678">
        <ele>123.4</ele>
        <time>1970-01-01T03:17:20.000Z</time>
      </trkpt>
      <trkpt lat="42.303315" lon="-8.796678">
        <ele>123.8</ele>
        <time>1970-01-01T03:17:21.000Z</time>
      </trkpt>
      <trkpt lat="42.303315" lon="-8.796678">
        <ele>124</ele>
        <time>1970-01-01T03:17:22.000Z</time>
      </trkpt>
      <trkpt lat="42.303315" lon="-8.796678">
        <ele>124</ele>
        <time>1970-01-01T03:17:23.000Z</time>
      </trkpt>
      <trkpt lat="42.303315" lon="-8.796678">
        <ele>124</ele>
        <time>1970-01-01T03:17:24.000Z</time>
      </trkpt>
      <trkpt lat="42.303315" lon="-8.796678">
        <ele>123.8</ele>
        <time>1970-01-01T03:17:25.000Z</time>
      </trkpt>
      <trkpt lat="42.303315" lon="-8.796678">
        <ele>123.4</ele>
        <time>1970-01-01T03:17:26.000Z</time>
      </trkpt>
      <trkpt lat="42.303315" lon="-8.796678">
        <ele>123.4</ele>
        <time>1970-01-01T03:17:27.000Z</time>
      </trkpt>
      <trkpt lat="42.303315" lon="-8.796678">
        <ele>123</ele>
        <time>1970-01-01T03:17:28.000Z</time>
      </trkpt>
      <trkpt lat="42.303315" lon="-8.796678">
        <ele>122.8</ele>
        <time>1970-01-01T03:17:29.000Z</time>
      </trkpt>
      <trkpt lat="42.303315" lon="-8.796678">
        <ele>122.6</ele>
        <time>1970-01-01T03:17:30.000Z</time>
      </trkpt>
      <trkpt lat="42.303315" lon="-8.796678">
        <ele>122.8</ele>
        <time>1970-01-01T03:17:31.000Z</time>
      </trkpt>
      <trkpt lat="42.303315" lon="-8.796678">
        <ele>123</ele>
        <time>1970-01-01T03:17:32.000Z</time>
      </trkpt>
      <trkpt lat="42.303315" lon="-8.796678">
        <ele>123.2</ele>
        <time>1970-01-01T03:17:33.000Z</time>
      </trkpt>
      <trkpt lat="42.303315" lon="-8.796678">
        <ele>123.2</ele>
        <time>1970-01-01T03:17:34.000Z</time>
      </trkpt>
      <trkpt lat="42.303315" lon="-8.796678">
        <ele>123.2</ele>
        <time>1970-01-01T03:17:35.000Z</time>
      </trkpt>
      <trkpt lat="42.303315" lon="-8.796678">
        <ele>123.2</ele>
        <time>1970-01-01T03:17:36.000Z</time>
      </trkpt>
      <trkpt lat="42.303315" lon="-8.796678">
        <ele>123.2</ele>
        <time>1970-01-01T03:17:37.000Z</time>
      </trkpt>
      <trkpt lat="42.303315" lon="-8.796678">
        <ele>123.2</ele>
        <time>1970-01-01T03:17:38.000Z</time>
      </trkpt>
      <trkpt lat="42.303315" lon="-8.796678">
        <ele>123</ele>
        <time>1970-01-01T03:17:39.000Z</time>
      </trkpt>
      <trkpt lat="42.303315" lon="-8.796678">
        <ele>123.2</ele>
        <time>1970-01-01T03:17:40.000Z</time>
      </trkpt>
      <trkpt lat="42.303315" lon="-8.796678">
        <ele>123.4</ele>
        <time>1970-01-01T03:17:41.000Z</time>
      </trkpt>
      <trkpt lat="42.303315" lon="-8.796678">
        <ele>123.4</ele>
        <time>1970-01-01T03:17:42.000Z</time>
      </trkpt>
      <trkpt lat="42.303315" lon="-8.796678">
        <ele>123.6</ele>
        <time>1970-01-01T03:17:43.000Z</time>
      </trkpt>
      <trkpt lat="42.303315" lon="-8.796678">
        <ele>123.6</ele>
        <time>1970-01-01T03:17:44.000Z</time>
      </trkpt>
      <trkpt lat="42.303315" lon="-8.796678">
        <ele>123.8</ele>
        <time>1970-01-01T03:17:45.000Z</time>
      </trkpt>
      <trkpt lat="42.303315" lon="-8.796678">
        <ele>123.8</ele>
        <time>1970-01-01T03:17:46.000Z</time>
      </trkpt>
      <trkpt lat="42.303315" lon="-8.796678">
        <ele>123.8</ele>
        <time>1970-01-01T03:17:47.000Z</time>
      </trkpt>
      <trkpt lat="42.303315" lon="-8.796678">
        <ele>123.6</ele>
        <time>1970-01-01T03:17:48.000Z</time>
      </trkpt>
      <trkpt lat="42.303315" lon="-8.796678">
        <ele>123.4</ele>
        <time>1970-01-01T03:17:49.000Z</time>
      </trkpt>
      <trkpt lat="42.303315" lon="-8.796678">
        <ele>123.4</ele>
        <time>1970-01-01T03:17:50.000Z</time>
      </trkpt>
      <trkpt lat="42.303315" lon="-8.796678">
        <ele>123.4</ele>
        <time>1970-01-01T03:17:51.000Z</time>
      </trkpt>
      <trkpt lat="42.303315" lon="-8.796678">
        <ele>123.2</ele>
        <time>1970-01-01T03:17:52.000Z</time>
      </trkpt>
      <trkpt lat="42.303315" lon="-8.796678">
        <ele>123</ele>
        <time>1970-01-01T03:17:53.000Z</time>
      </trkpt>
      <trkpt lat="42.303315" lon="-8.796678">
        <ele>123</ele>
        <time>1970-01-01T03:17:54.000Z</time>
      </trkpt>
      <trkpt lat="42.303315" lon="-8.796678">
        <ele>122.6</ele>
        <time>1970-01-01T03:17:55.000Z</time>
      </trkpt>
      <trkpt lat="42.303315" lon="-8.796678">
        <ele>122.4</ele>
        <time>1970-01-01T03:17:56.000Z</time>
      </trkpt>
      <trkpt lat="42.303315" lon="-8.796678">
        <ele>122.2</ele>
        <time>1970-01-01T03:17:57.000Z</time>
      </trkpt>
      <trkpt lat="42.303315" lon="-8.796678">
        <ele>122</ele>
        <time>1970-01-01T03:17:58.000Z</time>
      </trkpt>
      <trkpt lat="42.303315" lon="-8.796678">
        <ele>121.8</ele>
        <time>1970-01-01T03:17:59.000Z</time>
      </trkpt>
      <trkpt lat="42.303315" lon="-8.796678">
        <ele>122</ele>
        <time>1970-01-01T03:18:00.000Z</time>
      </trkpt>
      <trkpt lat="42.303315" lon="-8.796678">
        <ele>121.8</ele>
        <time>1970-01-01T03:18:01.000Z</time>
      </trkpt>
      <trkpt lat="42.30293" lon="-8.796247">
        <ele>121.6</ele>
        <time>1970-01-01T03:18:02.000Z</time>
      </trkpt>
      <trkpt lat="42.302934" lon="-8.796237">
        <ele>121.8</ele>
        <time>1970-01-01T03:18:03.000Z</time>
      </trkpt>
      <trkpt lat="42.302938" lon="-8.796222">
        <ele>121.8</ele>
        <time>1970-01-01T03:18:04.000Z</time>
      </trkpt>
      <trkpt lat="42.302949" lon="-8.796205">
        <ele>121.8</ele>
        <time>1970-01-01T03:18:05.000Z</time>
      </trkpt>
      <trkpt lat="42.302955" lon="-8.796193">
        <ele>121.8</ele>
        <time>1970-01-01T03:18:06.000Z</time>
      </trkpt>
      <trkpt lat="42.302958" lon="-8.796186">
        <ele>121.2</ele>
        <time>1970-01-01T03:18:07.000Z</time>
      </trkpt>
      <trkpt lat="42.302957" lon="-8.796176">
        <ele>121</ele>
        <time>1970-01-01T03:18:08.000Z</time>
      </trkpt>
      <trkpt lat="42.302955" lon="-8.796172">
        <ele>120.8</ele>
        <time>1970-01-01T03:18:09.000Z</time>
      </trkpt>
      <trkpt lat="42.302954" lon="-8.796168">
        <ele>120.6</ele>
        <time>1970-01-01T03:18:10.000Z</time>
      </trkpt>
      <trkpt lat="42.302953" lon="-8.79616">
        <ele>120.4</ele>
        <time>1970-01-01T03:18:11.000Z</time>
      </trkpt>
      <trkpt lat="42.302952" lon="-8.796152">
        <ele>120.2</ele>
        <time>1970-01-01T03:18:12.000Z</time>
      </trkpt>
      <trkpt lat="42.302951" lon="-8.79615">
        <ele>120</ele>
        <time>1970-01-01T03:18:13.000Z</time>
      </trkpt>
      <trkpt lat="42.302949" lon="-8.796153">
        <ele>119.6</ele>
        <time>1970-01-01T03:18:14.000Z</time>
      </trkpt>
      <trkpt lat="42.302946" lon="-8.796154">
        <ele>119.4</ele>
        <time>1970-01-01T03:18:15.000Z</time>
      </trkpt>
      <trkpt lat="42.302943" lon="-8.796153">
        <ele>119.4</ele>
        <time>1970-01-01T03:18:16.000Z</time>
      </trkpt>
      <trkpt lat="42.302939" lon="-8.796147">
        <ele>119.2</ele>
        <time>1970-01-01T03:18:17.000Z</time>
      </trkpt>
      <trkpt lat="42.302932" lon="-8.796138">
        <ele>119.2</ele>
        <time>1970-01-01T03:18:18.000Z</time>
      </trkpt>
      <trkpt lat="42.302927" lon="-8.79613">
        <ele>118.8</ele>
        <time>1970-01-01T03:18:19.000Z</time>
      </trkpt>
      <trkpt lat="42.302923" lon="-8.796128">
        <ele>118.6</ele>
        <time>1970-01-01T03:18:20.000Z</time>
      </trkpt>
      <trkpt lat="42.302919" lon="-8.796126">
        <ele>118.4</ele>
        <time>1970-01-01T03:18:21.000Z</time>
      </trkpt>
      <trkpt lat="42.302916" lon="-8.796124">
        <ele>118.4</ele>
        <time>1970-01-01T03:18:22.000Z</time>
      </trkpt>
      <trkpt lat="42.302912" lon="-8.796119">
        <ele>118.2</ele>
        <time>1970-01-01T03:18:23.000Z</time>
      </trkpt>
      <trkpt lat="42.302908" lon="-8.796117">
        <ele>118.2</ele>
        <time>1970-01-01T03:18:24.000Z</time>
      </trkpt>
      <trkpt lat="42.302902" lon="-8.796114">
        <ele>118</ele>
        <time>1970-01-01T03:18:25.000Z</time>
      </trkpt>
      <trkpt lat="42.3029" lon="-8.796109">
        <ele>117.2</ele>
        <time>1970-01-01T03:18:26.000Z</time>
      </trkpt>
      <trkpt lat="42.302896" lon="-8.7961">
        <ele>116.6</ele>
        <time>1970-01-01T03:18:27.000Z</time>
      </trkpt>
      <trkpt lat="42.302894" lon="-8.796093">
        <ele>116.2</ele>
        <time>1970-01-01T03:18:28.000Z</time>
      </trkpt>
      <trkpt lat="42.302893" lon="-8.796084">
        <ele>115.8</ele>
        <time>1970-01-01T03:18:29.000Z</time>
      </trkpt>
      <trkpt lat="42.30289" lon="-8.796076">
        <ele>115.4</ele>
        <time>1970-01-01T03:18:30.000Z</time>
      </trkpt>
      <trkpt lat="42.302888" lon="-8.796075">
        <ele>114.8</ele>
        <time>1970-01-01T03:18:31.000Z</time>
      </trkpt>
      <trkpt lat="42.302884" lon="-8.796074">
        <ele>114.6</ele>
        <time>1970-01-01T03:18:32.000Z</time>
      </trkpt>
      <trkpt lat="42.302881" lon="-8.796074">
        <ele>114.4</ele>
        <time>1970-01-01T03:18:33.000Z</time>
      </trkpt>
      <trkpt lat="42.302879" lon="-8.796072">
        <ele>114.4</ele>
        <time>1970-01-01T03:18:34.000Z</time>
      </trkpt>
      <trkpt lat="42.302877" lon="-8.796067">
        <ele>114.2</ele>
        <time>1970-01-01T03:18:35.000Z</time>
      </trkpt>
      <trkpt lat="42.302875" lon="-8.796058">
        <ele>114.2</ele>
        <time>1970-01-01T03:18:36.000Z</time>
      </trkpt>
      <trkpt lat="42.302874" lon="-8.796052">
        <ele>113.8</ele>
        <time>1970-01-01T03:18:37.000Z</time>
      </trkpt>
      <trkpt lat="42.302874" lon="-8.796049">
        <ele>113.6</ele>
        <time>1970-01-01T03:18:38.000Z</time>
      </trkpt>
      <trkpt lat="42.302875" lon="-8.796048">
        <ele>113.2</ele>
        <time>1970-01-01T03:18:39.000Z</time>
      </trkpt>
      <trkpt lat="42.302875" lon="-8.796047">
        <ele>112.8</ele>
        <time>1970-01-01T03:18:40.000Z</time>
      </trkpt>
      <trkpt lat="42.302875" lon="-8.796046">
        <ele>112.6</ele>
        <time>1970-01-01T03:18:41.000Z</time>
      </trkpt>
      <trkpt lat="42.302876" lon="-8.796043">
        <ele>112.6</ele>
        <time>1970-01-01T03:18:42.000Z</time>
      </trkpt>
      <trkpt lat="42.302876" lon="-8.796039">
        <ele>112.4</ele>
        <time>1970-01-01T03:18:43.000Z</time>
      </trkpt>
      <trkpt lat="42.302876" lon="-8.796036">
        <ele>112</ele>
        <time>1970-01-01T03:18:44.000Z</time>
      </trkpt>
      <trkpt lat="42.302878" lon="-8.796028">
        <ele>111.8</ele>
        <time>1970-01-01T03:18:45.000Z</time>
      </trkpt>
      <trkpt lat="42.30288" lon="-8.796013">
        <ele>111.6</ele>
        <time>1970-01-01T03:18:46.000Z</time>
      </trkpt>
      <trkpt lat="42.302884" lon="-8.796008">
        <ele>111.4</ele>
        <time>1970-01-01T03:18:47.000Z</time>
      </trkpt>
      <trkpt lat="42.302888" lon="-8.796005">
        <ele>111</ele>
        <time>1970-01-01T03:18:48.000Z</time>
      </trkpt>
      <trkpt lat="42.30289" lon="-8.796002">
        <ele>110.8</ele>
        <time>1970-01-01T03:18:49.000Z</time>
      </trkpt>
      <trkpt lat="42.302893" lon="-8.795999">
        <ele>110.4</ele>
        <time>1970-01-01T03:18:50.000Z</time>
      </trkpt>
      <trkpt lat="42.302898" lon="-8.795996">
        <ele>110</ele>
        <time>1970-01-01T03:18:51.000Z</time>
      </trkpt>
      <trkpt lat="42.302903" lon="-8.796001">
        <ele>109.6</ele>
        <time>1970-01-01T03:18:52.000Z</time>
      </trkpt>
      <trkpt lat="42.302908" lon="-8.796004">
        <ele>109.4</ele>
        <time>1970-01-01T03:18:53.000Z</time>
      </trkpt>
      <trkpt lat="42.302909" lon="-8.796003">
        <ele>109.4</ele>
        <time>1970-01-01T03:18:54.000Z</time>
      </trkpt>
      <trkpt lat="42.302918" lon="-8.796004">
        <ele>109.4</ele>
        <time>1970-01-01T03:18:55.000Z</time>
      </trkpt>
      <trkpt lat="42.30292" lon="-8.795999">
        <ele>109.4</ele>
        <time>1970-01-01T03:18:56.000Z</time>
      </trkpt>
      <trkpt lat="42.302922" lon="-8.795989">
        <ele>109.4</ele>
        <time>1970-01-01T03:18:57.000Z</time>
      </trkpt>
      <trkpt lat="42.302927" lon="-8.795976">
        <ele>109.4</ele>
        <time>1970-01-01T03:18:58.000Z</time>
      </trkpt>
      <trkpt lat="42.302929" lon="-8.795963">
        <ele>109.4</ele>
        <time>1970-01-01T03:18:59.000Z</time>
      </trkpt>
      <trkpt lat="42.30293" lon="-8.795952">
        <ele>109.4</ele>
        <time>1970-01-01T03:19:00.000Z</time>
      </trkpt>
      <trkpt lat="42.302932" lon="-8.795941">
        <ele>109.4</ele>
        <time>1970-01-01T03:19:01.000Z</time>
      </trkpt>
      <trkpt lat="42.302934" lon="-8.795927">
        <ele>109.4</ele>
        <time>1970-01-01T03:19:02.000Z</time>
      </trkpt>
      <trkpt lat="42.302938" lon="-8.795919">
        <ele>109.4</ele>
        <time>1970-01-01T03:19:03.000Z</time>
      </trkpt>
      <trkpt lat="42.302943" lon="-8.795911">
        <ele>109.4</ele>
        <time>1970-01-01T03:19:04.000Z</time>
      </trkpt>
      <trkpt lat="42.302949" lon="-8.795905">
        <ele>109.4</ele>
        <time>1970-01-01T03:19:05.000Z</time>
      </trkpt>
      <trkpt lat="42.302956" lon="-8.795897">
        <ele>109.4</ele>
        <time>1970-01-01T03:19:06.000Z</time>
      </trkpt>
      <trkpt lat="42.302962" lon="-8.79589">
        <ele>109.4</ele>
        <time>1970-01-01T03:19:07.000Z</time>
      </trkpt>
      <trkpt lat="42.302968" lon="-8.795887">
        <ele>109.4</ele>
        <time>1970-01-01T03:19:08.000Z</time>
      </trkpt>
      <trkpt lat="42.302982" lon="-8.795882">
        <ele>109.4</ele>
        <time>1970-01-01T03:19:09.000Z</time>
      </trkpt>
      <trkpt lat="42.302993" lon="-8.795863">
        <ele>109.4</ele>
        <time>1970-01-01T03:19:10.000Z</time>
      </trkpt>
      <trkpt lat="42.303002" lon="-8.795845">
        <ele>109.8</ele>
        <time>1970-01-01T03:19:11.000Z</time>
      </trkpt>
      <trkpt lat="42.303011" lon="-8.795834">
        <ele>110</ele>
        <time>1970-01-01T03:19:12.000Z</time>
      </trkpt>
      <trkpt lat="42.303022" lon="-8.795826">
        <ele>110.4</ele>
        <time>1970-01-01T03:19:13.000Z</time>
      </trkpt>
      <trkpt lat="42.303034" lon="-8.795822">
        <ele>110.8</ele>
        <time>1970-01-01T03:19:14.000Z</time>
      </trkpt>
      <trkpt lat="42.303046" lon="-8.795811">
        <ele>111.2</ele>
        <time>1970-01-01T03:19:15.000Z</time>
      </trkpt>
      <trkpt lat="42.303062" lon="-8.795804">
        <ele>111.2</ele>
        <time>1970-01-01T03:19:16.000Z</time>
      </trkpt>
      <trkpt lat="42.303072" lon="-8.795791">
        <ele>111</ele>
        <time>1970-01-01T03:19:17.000Z</time>
      </trkpt>
      <trkpt lat="42.303083" lon="-8.795781">
        <ele>111.4</ele>
        <time>1970-01-01T03:19:18.000Z</time>
      </trkpt>
      <trkpt lat="42.303095" lon="-8.795772">
        <ele>111.6</ele>
        <time>1970-01-01T03:19:19.000Z</time>
      </trkpt>
      <trkpt lat="42.303105" lon="-8.795762">
        <ele>111.8</ele>
        <time>1970-01-01T03:19:20.000Z</time>
      </trkpt>
      <trkpt lat="42.303114" lon="-8.795752">
        <ele>112</ele>
        <time>1970-01-01T03:19:21.000Z</time>
      </trkpt>
      <trkpt lat="42.303122" lon="-8.795743">
        <ele>112.2</ele>
        <time>1970-01-01T03:19:22.000Z</time>
      </trkpt>
      <trkpt lat="42.303129" lon="-8.795736">
        <ele>112.2</ele>
        <time>1970-01-01T03:19:23.000Z</time>
      </trkpt>
      <trkpt lat="42.303137" lon="-8.795731">
        <ele>112.4</ele>
        <time>1970-01-01T03:19:24.000Z</time>
      </trkpt>
      <trkpt lat="42.303144" lon="-8.795723">
        <ele>112.6</ele>
        <time>1970-01-01T03:19:25.000Z</time>
      </trkpt>
      <trkpt lat="42.303151" lon="-8.795715">
        <ele>112.6</ele>
        <time>1970-01-01T03:19:26.000Z</time>
      </trkpt>
      <trkpt lat="42.30316" lon="-8.795703">
        <ele>112.8</ele>
        <time>1970-01-01T03:19:27.000Z</time>
      </trkpt>
      <trkpt lat="42.303164" lon="-8.795686">
        <ele>112.8</ele>
        <time>1970-01-01T03:19:28.000Z</time>
      </trkpt>
      <trkpt lat="42.303168" lon="-8.795666">
        <ele>113</ele>
        <time>1970-01-01T03:19:29.000Z</time>
      </trkpt>
      <trkpt lat="42.30318" lon="-8.795648">
        <ele>113</ele>
        <time>1970-01-01T03:19:30.000Z</time>
      </trkpt>
      <trkpt lat="42.303187" lon="-8.79563">
        <ele>113</ele>
        <time>1970-01-01T03:19:31.000Z</time>
      </trkpt>
      <trkpt lat="42.303194" lon="-8.795615">
        <ele>113</ele>
        <time>1970-01-01T03:19:32.000Z</time>
      </trkpt>
      <trkpt lat="42.303203" lon="-8.795598">
        <ele>113</ele>
        <time>1970-01-01T03:19:33.000Z</time>
      </trkpt>
      <trkpt lat="42.303208" lon="-8.795582">
        <ele>113.2</ele>
        <time>1970-01-01T03:19:34.000Z</time>
      </trkpt>
      <trkpt lat="42.303213" lon="-8.795564">
        <ele>113.2</ele>
        <time>1970-01-01T03:19:35.000Z</time>
      </trkpt>
      <trkpt lat="42.303219" lon="-8.795547">
        <ele>113.4</ele>
        <time>1970-01-01T03:19:36.000Z</time>
      </trkpt>
      <trkpt lat="42.303223" lon="-8.795529">
        <ele>113.6</ele>
        <time>1970-01-01T03:19:37.000Z</time>
      </trkpt>
      <trkpt lat="42.303228" lon="-8.795511">
        <ele>113.6</ele>
        <time>1970-01-01T03:19:38.000Z</time>
      </trkpt>
      <trkpt lat="42.303239" lon="-8.795496">
        <ele>113.6</ele>
        <time>1970-01-01T03:19:39.000Z</time>
      </trkpt>
      <trkpt lat="42.303245" lon="-8.795482">
        <ele>113.8</ele>
        <time>1970-01-01T03:19:40.000Z</time>
      </trkpt>
      <trkpt lat="42.303253" lon="-8.79547">
        <ele>114</ele>
        <time>1970-01-01T03:19:41.000Z</time>
      </trkpt>
      <trkpt lat="42.30326" lon="-8.795462">
        <ele>114.2</ele>
        <time>1970-01-01T03:19:42.000Z</time>
      </trkpt>
      <trkpt lat="42.303266" lon="-8.795454">
        <ele>114.2</ele>
        <time>1970-01-01T03:19:43.000Z</time>
      </trkpt>
      <trkpt lat="42.303269" lon="-8.795444">
        <ele>114.4</ele>
        <time>1970-01-01T03:19:44.000Z</time>
      </trkpt>
      <trkpt lat="42.303274" lon="-8.795433">
        <ele>114.6</ele>
        <time>1970-01-01T03:19:45.000Z</time>
      </trkpt>
      <trkpt lat="42.30328" lon="-8.795422">
        <ele>114.6</ele>
        <time>1970-01-01T03:19:46.000Z</time>
      </trkpt>
      <trkpt lat="42.303286" lon="-8.795413">
        <ele>114.6</ele>
        <time>1970-01-01T03:19:47.000Z</time>
      </trkpt>
      <trkpt lat="42.303293" lon="-8.795406">
        <ele>115</ele>
        <time>1970-01-01T03:19:48.000Z</time>
      </trkpt>
      <trkpt lat="42.303301" lon="-8.795396">
        <ele>115</ele>
        <time>1970-01-01T03:19:49.000Z</time>
      </trkpt>
      <trkpt lat="42.30331" lon="-8.795384">
        <ele>115.2</ele>
        <time>1970-01-01T03:19:50.000Z</time>
      </trkpt>
      <trkpt lat="42.303319" lon="-8.795374">
        <ele>115.6</ele>
        <time>1970-01-01T03:19:51.000Z</time>
      </trkpt>
      <trkpt lat="42.303327" lon="-8.795362">
        <ele>115.6</ele>
        <time>1970-01-01T03:19:52.000Z</time>
      </trkpt>
      <trkpt lat="42.303337" lon="-8.79535">
        <ele>116</ele>
        <time>1970-01-01T03:19:53.000Z</time>
      </trkpt>
      <trkpt lat="42.303348" lon="-8.795337">
        <ele>116.2</ele>
        <time>1970-01-01T03:19:54.000Z</time>
      </trkpt>
      <trkpt lat="42.303358" lon="-8.795322">
        <ele>116.2</ele>
        <time>1970-01-01T03:19:55.000Z</time>
      </trkpt>
      <trkpt lat="42.30337" lon="-8.795307">
        <ele>116.2</ele>
        <time>1970-01-01T03:19:56.000Z</time>
      </trkpt>
      <trkpt lat="42.303381" lon="-8.795289">
        <ele>116.4</ele>
        <time>1970-01-01T03:19:57.000Z</time>
      </trkpt>
      <trkpt lat="42.303394" lon="-8.795272">
        <ele>116.4</ele>
        <time>1970-01-01T03:19:58.000Z</time>
      </trkpt>
      <trkpt lat="42.303403" lon="-8.795251">
        <ele>116.6</ele>
        <time>1970-01-01T03:19:59.000Z</time>
      </trkpt>
      <trkpt lat="42.303414" lon="-8.795231">
        <ele>116.4</ele>
        <time>1970-01-01T03:20:00.000Z</time>
      </trkpt>
      <trkpt lat="42.303427" lon="-8.795214">
        <ele>116.4</ele>
        <time>1970-01-01T03:20:01.000Z</time>
      </trkpt>
      <trkpt lat="42.303438" lon="-8.795197">
        <ele>116.4</ele>
        <time>1970-01-01T03:20:02.000Z</time>
      </trkpt>
      <trkpt lat="42.303449" lon="-8.795181">
        <ele>116.6</ele>
        <time>1970-01-01T03:20:03.000Z</time>
      </trkpt>
      <trkpt lat="42.303461" lon="-8.795174">
        <ele>116.8</ele>
        <time>1970-01-01T03:20:04.000Z</time>
      </trkpt>
      <trkpt lat="42.303468" lon="-8.795163">
        <ele>117</ele>
        <time>1970-01-01T03:20:05.000Z</time>
      </trkpt>
      <trkpt lat="42.303473" lon="-8.79515">
        <ele>117.4</ele>
        <time>1970-01-01T03:20:06.000Z</time>
      </trkpt>
      <trkpt lat="42.303478" lon="-8.795136">
        <ele>117.6</ele>
        <time>1970-01-01T03:20:07.000Z</time>
      </trkpt>
      <trkpt lat="42.303482" lon="-8.795125">
        <ele>117.6</ele>
        <time>1970-01-01T03:20:08.000Z</time>
      </trkpt>
      <trkpt lat="42.303487" lon="-8.79512">
        <ele>117.6</ele>
        <time>1970-01-01T03:20:09.000Z</time>
      </trkpt>
      <trkpt lat="42.303491" lon="-8.795115">
        <ele>117.8</ele>
        <time>1970-01-01T03:20:10.000Z</time>
      </trkpt>
      <trkpt lat="42.303495" lon="-8.795111">
        <ele>117.8</ele>
        <time>1970-01-01T03:20:11.000Z</time>
      </trkpt>
      <trkpt lat="42.303499" lon="-8.795105">
        <ele>117.6</ele>
        <time>1970-01-01T03:20:12.000Z</time>
      </trkpt>
      <trkpt lat="42.303501" lon="-8.795097">
        <ele>117.4</ele>
        <time>1970-01-01T03:20:13.000Z</time>
      </trkpt>
      <trkpt lat="42.303504" lon="-8.795087">
        <ele>117.2</ele>
        <time>1970-01-01T03:20:14.000Z</time>
      </trkpt>
      <trkpt lat="42.303509" lon="-8.795076">
        <ele>117.6</ele>
        <time>1970-01-01T03:20:15.000Z</time>
      </trkpt>
      <trkpt lat="42.30351" lon="-8.795059">
        <ele>117.2</ele>
        <time>1970-01-01T03:20:16.000Z</time>
      </trkpt>
      <trkpt lat="42.303513" lon="-8.795043">
        <ele>117</ele>
        <time>1970-01-01T03:20:17.000Z</time>
      </trkpt>
      <trkpt lat="42.303513" lon="-8.795025">
        <ele>117</ele>
        <time>1970-01-01T03:20:18.000Z</time>
      </trkpt>
      <trkpt lat="42.303513" lon="-8.795007">
        <ele>117.2</ele>
        <time>1970-01-01T03:20:19.000Z</time>
      </trkpt>
      <trkpt lat="42.303516" lon="-8.794992">
        <ele>117.4</ele>
        <time>1970-01-01T03:20:20.000Z</time>
      </trkpt>
      <trkpt lat="42.303519" lon="-8.794975">
        <ele>117.6</ele>
        <time>1970-01-01T03:20:21.000Z</time>
      </trkpt>
      <trkpt lat="42.303524" lon="-8.794957">
        <ele>117.4</ele>
        <time>1970-01-01T03:20:22.000Z</time>
      </trkpt>
      <trkpt lat="42.303531" lon="-8.794941">
        <ele>117.6</ele>
        <time>1970-01-01T03:20:23.000Z</time>
      </trkpt>
      <trkpt lat="42.303538" lon="-8.794921">
        <ele>118</ele>
        <time>1970-01-01T03:20:24.000Z</time>
      </trkpt>
      <trkpt lat="42.303545" lon="-8.794905">
        <ele>118.6</ele>
        <time>1970-01-01T03:20:25.000Z</time>
      </trkpt>
      <trkpt lat="42.303551" lon="-8.794891">
        <ele>119</ele>
        <time>1970-01-01T03:20:26.000Z</time>
      </trkpt>
      <trkpt lat="42.303556" lon="-8.79488">
        <ele>119.2</ele>
        <time>1970-01-01T03:20:27.000Z</time>
      </trkpt>
      <trkpt lat="42.30356" lon="-8.794871">
        <ele>119.6</ele>
        <time>1970-01-01T03:20:28.000Z</time>
      </trkpt>
      <trkpt lat="42.303564" lon="-8.79486">
        <ele>119.8</ele>
        <time>1970-01-01T03:20:29.000Z</time>
      </trkpt>
      <trkpt lat="42.303567" lon="-8.794849">
        <ele>120</ele>
        <time>1970-01-01T03:20:30.000Z</time>
      </trkpt>
      <trkpt lat="42.303572" lon="-8.794837">
        <ele>119.8</ele>
        <time>1970-01-01T03:20:31.000Z</time>
      </trkpt>
      <trkpt lat="42.303576" lon="-8.794826">
        <ele>120.2</ele>
        <time>1970-01-01T03:20:32.000Z</time>
      </trkpt>
      <trkpt lat="42.303579" lon="-8.794814">
        <ele>120</ele>
        <time>1970-01-01T03:20:33.000Z</time>
      </trkpt>
      <trkpt lat="42.303583" lon="-8.794804">
        <ele>119.8</ele>
        <time>1970-01-01T03:20:34.000Z</time>
      </trkpt>
      <trkpt lat="42.303586" lon="-8.79479">
        <ele>119.8</ele>
        <time>1970-01-01T03:20:35.000Z</time>
      </trkpt>
      <trkpt lat="42.303591" lon="-8.794776">
        <ele>120</ele>
        <time>1970-01-01T03:20:36.000Z</time>
      </trkpt>
      <trkpt lat="42.303596" lon="-8.79476">
        <ele>120.6</ele>
        <time>1970-01-01T03:20:37.000Z</time>
      </trkpt>
      <trkpt lat="42.303599" lon="-8.794742">
        <ele>120.8</ele>
        <time>1970-01-01T03:20:38.000Z</time>
      </trkpt>
      <trkpt lat="42.303603" lon="-8.794727">
        <ele>121</ele>
        <time>1970-01-01T03:20:39.000Z</time>
      </trkpt>
      <trkpt lat="42.303609" lon="-8.794711">
        <ele>121.2</ele>
        <time>1970-01-01T03:20:40.000Z</time>
      </trkpt>
      <trkpt lat="42.303614" lon="-8.794695">
        <ele>121.4</ele>
        <time>1970-01-01T03:20:41.000Z</time>
      </trkpt>
      <trkpt lat="42.303619" lon="-8.794679">
        <ele>121.6</ele>
        <time>1970-01-01T03:20:42.000Z</time>
      </trkpt>
      <trkpt lat="42.303625" lon="-8.794664">
        <ele>121.6</ele>
        <time>1970-01-01T03:20:43.000Z</time>
      </trkpt>
      <trkpt lat="42.30363" lon="-8.794651">
        <ele>121.8</ele>
        <time>1970-01-01T03:20:44.000Z</time>
      </trkpt>
      <trkpt lat="42.303635" lon="-8.794637">
        <ele>121.8</ele>
        <time>1970-01-01T03:20:45.000Z</time>
      </trkpt>
      <trkpt lat="42.303638" lon="-8.794627">
        <ele>122</ele>
        <time>1970-01-01T03:20:46.000Z</time>
      </trkpt>
      <trkpt lat="42.303642" lon="-8.794618">
        <ele>122.4</ele>
        <time>1970-01-01T03:20:47.000Z</time>
      </trkpt>
      <trkpt lat="42.303647" lon="-8.794609">
        <ele>122.8</ele>
        <time>1970-01-01T03:20:48.000Z</time>
      </trkpt>
      <trkpt lat="42.303649" lon="-8.794598">
        <ele>123.2</ele>
        <time>1970-01-01T03:20:49.000Z</time>
      </trkpt>
      <trkpt lat="42.303653" lon="-8.794589">
        <ele>123.6</ele>
        <time>1970-01-01T03:20:50.000Z</time>
      </trkpt>
      <trkpt lat="42.303656" lon="-8.794578">
        <ele>123.8</ele>
        <time>1970-01-01T03:20:51.000Z</time>
      </trkpt>
      <trkpt lat="42.303659" lon="-8.794566">
        <ele>123.8</ele>
        <time>1970-01-01T03:20:52.000Z</time>
      </trkpt>
      <trkpt lat="42.303661" lon="-8.794555">
        <ele>123.8</ele>
        <time>1970-01-01T03:20:53.000Z</time>
      </trkpt>
      <trkpt lat="42.303664" lon="-8.79454">
        <ele>124</ele>
        <time>1970-01-01T03:20:54.000Z</time>
      </trkpt>
      <trkpt lat="42.30367" lon="-8.794523">
        <ele>124.2</ele>
        <time>1970-01-01T03:20:55.000Z</time>
      </trkpt>
      <trkpt lat="42.303676" lon="-8.794507">
        <ele>124.4</ele>
        <time>1970-01-01T03:20:56.000Z</time>
      </trkpt>
      <trkpt lat="42.303683" lon="-8.794493">
        <ele>124.6</ele>
        <time>1970-01-01T03:20:57.000Z</time>
      </trkpt>
      <trkpt lat="42.303688" lon="-8.79448">
        <ele>124.6</ele>
        <time>1970-01-01T03:20:58.000Z</time>
      </trkpt>
      <trkpt lat="42.303692" lon="-8.794466">
        <ele>124.8</ele>
        <time>1970-01-01T03:20:59.000Z</time>
      </trkpt>
      <trkpt lat="42.303697" lon="-8.794453">
        <ele>125</ele>
        <time>1970-01-01T03:21:00.000Z</time>
      </trkpt>
      <trkpt lat="42.303701" lon="-8.79444">
        <ele>125.2</ele>
        <time>1970-01-01T03:21:01.000Z</time>
      </trkpt>
      <trkpt lat="42.303705" lon="-8.794426">
        <ele>125.2</ele>
        <time>1970-01-01T03:21:02.000Z</time>
      </trkpt>
      <trkpt lat="42.303706" lon="-8.794411">
        <ele>125.4</ele>
        <time>1970-01-01T03:21:03.000Z</time>
      </trkpt>
      <trkpt lat="42.303702" lon="-8.794398">
        <ele>125.8</ele>
        <time>1970-01-01T03:21:04.000Z</time>
      </trkpt>
      <trkpt lat="42.303697" lon="-8.794385">
        <ele>126</ele>
        <time>1970-01-01T03:21:05.000Z</time>
      </trkpt>
      <trkpt lat="42.303695" lon="-8.794372">
        <ele>126.2</ele>
        <time>1970-01-01T03:21:06.000Z</time>
      </trkpt>
      <trkpt lat="42.303694" lon="-8.794363">
        <ele>126.4</ele>
        <time>1970-01-01T03:21:07.000Z</time>
      </trkpt>
      <trkpt lat="42.303694" lon="-8.794352">
        <ele>126.6</ele>
        <time>1970-01-01T03:21:08.000Z</time>
      </trkpt>
      <trkpt lat="42.303695" lon="-8.794342">
        <ele>126.8</ele>
        <time>1970-01-01T03:21:09.000Z</time>
      </trkpt>
      <trkpt lat="42.303696" lon="-8.794333">
        <ele>127</ele>
        <time>1970-01-01T03:21:10.000Z</time>
      </trkpt>
      <trkpt lat="42.303697" lon="-8.79432">
        <ele>127.2</ele>
        <time>1970-01-01T03:21:11.000Z</time>
      </trkpt>
      <trkpt lat="42.303698" lon="-8.794312">
        <ele>127.6</ele>
        <time>1970-01-01T03:21:12.000Z</time>
      </trkpt>
      <trkpt lat="42.303701" lon="-8.794303">
        <ele>128</ele>
        <time>1970-01-01T03:21:13.000Z</time>
      </trkpt>
      <trkpt lat="42.303705" lon="-8.794294">
        <ele>128</ele>
        <time>1970-01-01T03:21:14.000Z</time>
      </trkpt>
      <trkpt lat="42.30371" lon="-8.794284">
        <ele>128.2</ele>
        <time>1970-01-01T03:21:15.000Z</time>
      </trkpt>
      <trkpt lat="42.303716" lon="-8.794275">
        <ele>128.2</ele>
        <time>1970-01-01T03:21:16.000Z</time>
      </trkpt>
      <trkpt lat="42.303719" lon="-8.794269">
        <ele>128</ele>
        <time>1970-01-01T03:21:17.000Z</time>
      </trkpt>
      <trkpt lat="42.303723" lon="-8.794266">
        <ele>128</ele>
        <time>1970-01-01T03:21:18.000Z</time>
      </trkpt>
      <trkpt lat="42.303727" lon="-8.794265">
        <ele>127.8</ele>
        <time>1970-01-01T03:21:19.000Z</time>
      </trkpt>
      <trkpt lat="42.303732" lon="-8.794261">
        <ele>127.8</ele>
        <time>1970-01-01T03:21:20.000Z</time>
      </trkpt>
      <trkpt lat="42.303737" lon="-8.79426">
        <ele>127.8</ele>
        <time>1970-01-01T03:21:21.000Z</time>
      </trkpt>
      <trkpt lat="42.303744" lon="-8.794259">
        <ele>127.8</ele>
        <time>1970-01-01T03:21:22.000Z</time>
      </trkpt>
      <trkpt lat="42.303742" lon="-8.794203">
        <ele>157.3</ele>
        <time>1970-01-01T00:00:00.000Z</time>
      </trkpt>
      <trkpt lat="42.303742" lon="-8.794198">
        <ele>157.3</ele>
        <time>1970-01-01T00:00:01.000Z</time>
      </trkpt>
      <trkpt lat="42.303733" lon="-8.794178">
        <ele>158.2</ele>
        <time>1970-01-01T00:00:02.000Z</time>
      </trkpt>
      <trkpt lat="42.303725" lon="-8.794163">
        <ele>158.2</ele>
        <time>1970-01-01T00:00:03.000Z</time>
      </trkpt>
      <trkpt lat="42.303717" lon="-8.79415">
        <ele>158.2</ele>
        <time>1970-01-01T00:00:04.000Z</time>
      </trkpt>
      <trkpt lat="42.303705" lon="-8.794133">
        <ele>158.2</ele>
        <time>1970-01-01T00:00:05.000Z</time>
      </trkpt>
      <trkpt lat="42.303698" lon="-8.794118">
        <ele>158.2</ele>
        <time>1970-01-01T00:00:06.000Z</time>
      </trkpt>
      <trkpt lat="42.303688" lon="-8.794103">
        <ele>158.2</ele>
        <time>1970-01-01T00:00:07.000Z</time>
      </trkpt>
      <trkpt lat="42.303678" lon="-8.79409">
        <ele>158.2</ele>
        <time>1970-01-01T00:00:08.000Z</time>
      </trkpt>
      <trkpt lat="42.303668" lon="-8.794083">
        <ele>158.2</ele>
        <time>1970-01-01T00:00:09.000Z</time>
      </trkpt>
      <trkpt lat="42.303655" lon="-8.794072">
        <ele>158.2</ele>
        <time>1970-01-01T00:00:10.000Z</time>
      </trkpt>
      <trkpt lat="42.303647" lon="-8.794065">
        <ele>158.2</ele>
        <time>1970-01-01T00:00:11.000Z</time>
      </trkpt>
      <trkpt lat="42.303637" lon="-8.794058">
        <ele>159.3</ele>
        <time>1970-01-01T00:00:12.000Z</time>
      </trkpt>
      <trkpt lat="42.30363" lon="-8.794053">
        <ele>159.3</ele>
        <time>1970-01-01T00:00:13.000Z</time>
      </trkpt>
      <trkpt lat="42.30362" lon="-8.794045">
        <ele>159.3</ele>
        <time>1970-01-01T00:00:14.000Z</time>
      </trkpt>
      <trkpt lat="42.303613" lon="-8.794037">
        <ele>159.3</ele>
        <time>1970-01-01T00:00:15.000Z</time>
      </trkpt>
      <trkpt lat="42.303608" lon="-8.79403">
        <ele>158.2</ele>
        <time>1970-01-01T00:00:16.000Z</time>
      </trkpt>
      <trkpt lat="42.3036" lon="-8.79402">
        <ele>158.2</ele>
        <time>1970-01-01T00:00:17.000Z</time>
      </trkpt>
      <trkpt lat="42.303592" lon="-8.79401">
        <ele>158.2</ele>
        <time>1970-01-01T00:00:18.000Z</time>
      </trkpt>
      <trkpt lat="42.303583" lon="-8.794002">
        <ele>158.2</ele>
        <time>1970-01-01T00:00:19.000Z</time>
      </trkpt>
      <trkpt lat="42.303573" lon="-8.79399">
        <ele>158.2</ele>
        <time>1970-01-01T00:00:20.000Z</time>
      </trkpt>
      <trkpt lat="42.303565" lon="-8.793978">
        <ele>158.2</ele>
        <time>1970-01-01T00:00:21.000Z</time>
      </trkpt>
      <trkpt lat="42.303557" lon="-8.793968">
        <ele>158.2</ele>
        <time>1970-01-01T00:00:22.000Z</time>
      </trkpt>
      <trkpt lat="42.30355" lon="-8.793958">
        <ele>158.2</ele>
        <time>1970-01-01T00:00:23.000Z</time>
      </trkpt>
      <trkpt lat="42.303543" lon="-8.793948">
        <ele>158.2</ele>
        <time>1970-01-01T00:00:24.000Z</time>
      </trkpt>
      <trkpt lat="42.303538" lon="-8.79394">
        <ele>158.2</ele>
        <time>1970-01-01T00:00:25.000Z</time>
      </trkpt>
      <trkpt lat="42.303535" lon="-8.793928">
        <ele>158.2</ele>
        <time>1970-01-01T00:00:26.000Z</time>
      </trkpt>
      <trkpt lat="42.30353" lon="-8.793917">
        <ele>158.2</ele>
        <time>1970-01-01T00:00:27.000Z</time>
      </trkpt>
      <trkpt lat="42.303525" lon="-8.793905">
        <ele>158.2</ele>
        <time>1970-01-01T00:00:28.000Z</time>
      </trkpt>
      <trkpt lat="42.30352" lon="-8.793895">
        <ele>158.2</ele>
        <time>1970-01-01T00:00:29.000Z</time>
      </trkpt>
      <trkpt lat="42.30352" lon="-8.793887">
        <ele>158.2</ele>
        <time>1970-01-01T00:00:30.000Z</time>
      </trkpt>
      <trkpt lat="42.303515" lon="-8.793883">
        <ele>158.2</ele>
        <time>1970-01-01T00:00:31.000Z</time>
      </trkpt>
      <trkpt lat="42.30351" lon="-8.793877">
        <ele>158.2</ele>
        <time>1970-01-01T00:00:32.000Z</time>
      </trkpt>
      <trkpt lat="42.303502" lon="-8.79387">
        <ele>158.2</ele>
        <time>1970-01-01T00:00:33.000Z</time>
      </trkpt>
      <trkpt lat="42.303495" lon="-8.793862">
        <ele>158.2</ele>
        <time>1970-01-01T00:00:34.000Z</time>
      </trkpt>
      <trkpt lat="42.303487" lon="-8.793853">
        <ele>158.2</ele>
        <time>1970-01-01T00:00:35.000Z</time>
      </trkpt>
      <trkpt lat="42.303478" lon="-8.793843">
        <ele>158.2</ele>
        <time>1970-01-01T00:00:36.000Z</time>
      </trkpt>
      <trkpt lat="42.303472" lon="-8.793835">
        <ele>158.2</ele>
        <time>1970-01-01T00:00:37.000Z</time>
      </trkpt>
      <trkpt lat="42.303463" lon="-8.793827">
        <ele>158.2</ele>
        <time>1970-01-01T00:00:38.000Z</time>
      </trkpt>
      <trkpt lat="42.303458" lon="-8.793815">
        <ele>158.2</ele>
        <time>1970-01-01T00:00:39.000Z</time>
      </trkpt>
      <trkpt lat="42.30345" lon="-8.793803">
        <ele>157.3</ele>
        <time>1970-01-01T00:00:40.000Z</time>
      </trkpt>
      <trkpt lat="42.303443" lon="-8.793788">
        <ele>157.3</ele>
        <time>1970-01-01T00:00:41.000Z</time>
      </trkpt>
      <trkpt lat="42.303438" lon="-8.79377">
        <ele>157.3</ele>
        <time>1970-01-01T00:00:42.000Z</time>
      </trkpt>
      <trkpt lat="42.303432" lon="-8.793758">
        <ele>157.3</ele>
        <time>1970-01-01T00:00:43.000Z</time>
      </trkpt>
      <trkpt lat="42.303427" lon="-8.793748">
        <ele>158.2</ele>
        <time>1970-01-01T00:00:44.000Z</time>
      </trkpt>
      <trkpt lat="42.303418" lon="-8.793737">
        <ele>158.2</ele>
        <time>1970-01-01T00:00:45.000Z</time>
      </trkpt>
      <trkpt lat="42.30341" lon="-8.79373">
        <ele>158.2</ele>
        <time>1970-01-01T00:00:46.000Z</time>
      </trkpt>
      <trkpt lat="42.303402" lon="-8.79372">
        <ele>158.2</ele>
        <time>1970-01-01T00:00:47.000Z</time>
      </trkpt>
      <trkpt lat="42.303392" lon="-8.793712">
        <ele>158.2</ele>
        <time>1970-01-01T00:00:48.000Z</time>
      </trkpt>
      <trkpt lat="42.303382" lon="-8.793708">
        <ele>158.2</ele>
        <time>1970-01-01T00:00:49.000Z</time>
      </trkpt>
      <trkpt lat="42.303368" lon="-8.793705">
        <ele>158.2</ele>
        <time>1970-01-01T00:00:50.000Z</time>
      </trkpt>
      <trkpt lat="42.303357" lon="-8.793702">
        <ele>158.2</ele>
        <time>1970-01-01T00:00:51.000Z</time>
      </trkpt>
      <trkpt lat="42.303345" lon="-8.7937">
        <ele>158.2</ele>
        <time>1970-01-01T00:00:52.000Z</time>
      </trkpt>
      <trkpt lat="42.303338" lon="-8.793698">
        <ele>158.2</ele>
        <time>1970-01-01T00:00:53.000Z</time>
      </trkpt>
      <trkpt lat="42.303323" lon="-8.793697">
        <ele>158.2</ele>
        <time>1970-01-01T00:00:54.000Z</time>
      </trkpt>
      <trkpt lat="42.303312" lon="-8.79369">
        <ele>158.2</ele>
        <time>1970-01-01T00:00:55.000Z</time>
      </trkpt>
      <trkpt lat="42.303302" lon="-8.79369">
        <ele>158.2</ele>
        <time>1970-01-01T00:00:56.000Z</time>
      </trkpt>
      <trkpt lat="42.303295" lon="-8.793688">
        <ele>158.2</ele>
        <time>1970-01-01T00:00:57.000Z</time>
      </trkpt>
      <trkpt lat="42.303287" lon="-8.793685">
        <ele>158.2</ele>
        <time>1970-01-01T00:00:58.000Z</time>
      </trkpt>
      <trkpt lat="42.303273" lon="-8.793673">
        <ele>158.2</ele>
        <time>1970-01-01T00:00:59.000Z</time>
      </trkpt>
      <trkpt lat="42.303265" lon="-8.793662">
        <ele>158.2</ele>
        <time>1970-01-01T00:01:00.000Z</time>
      </trkpt>
      <trkpt lat="42.30325" lon="-8.793648">
        <ele>158.2</ele>
        <time>1970-01-01T00:01:01.000Z</time>
      </trkpt>
      <trkpt lat="42.303243" lon="-8.793633">
        <ele>158.2</ele>
        <time>1970-01-01T00:01:02.000Z</time>
      </trkpt>
      <trkpt lat="42.303235" lon="-8.793627">
        <ele>158.2</ele>
        <time>1970-01-01T00:01:03.000Z</time>
      </trkpt>
      <trkpt lat="42.303228" lon="-8.793618">
        <ele>159.3</ele>
        <time>1970-01-01T00:01:04.000Z</time>
      </trkpt>
      <trkpt lat="42.303222" lon="-8.793613">
        <ele>159.3</ele>
        <time>1970-01-01T00:01:05.000Z</time>
      </trkpt>
      <trkpt lat="42.303213" lon="-8.793608">
        <ele>159.3</ele>
        <time>1970-01-01T00:01:06.000Z</time>
      </trkpt>
      <trkpt lat="42.303203" lon="-8.7936">
        <ele>159.3</ele>
        <time>1970-01-01T00:01:07.000Z</time>
      </trkpt>
      <trkpt lat="42.303192" lon="-8.793592">
        <ele>159.3</ele>
        <time>1970-01-01T00:01:08.000Z</time>
      </trkpt>
      <trkpt lat="42.303177" lon="-8.793583">
        <ele>159.3</ele>
        <time>1970-01-01T00:01:09.000Z</time>
      </trkpt>
      <trkpt lat="42.303165" lon="-8.793573">
        <ele>160.3</ele>
        <time>1970-01-01T00:01:10.000Z</time>
      </trkpt>
      <trkpt lat="42.303157" lon="-8.793565">
        <ele>160.3</ele>
        <time>1970-01-01T00:01:11.000Z</time>
      </trkpt>
      <trkpt lat="42.303143" lon="-8.793557">
        <ele>160.3</ele>
        <time>1970-01-01T00:01:12.000Z</time>
      </trkpt>
      <trkpt lat="42.303135" lon="-8.79355">
        <ele>160.3</ele>
        <time>1970-01-01T00:01:13.000Z</time>
      </trkpt>
      <trkpt lat="42.303127" lon="-8.793538">
        <ele>160.3</ele>
        <time>1970-01-01T00:01:14.000Z</time>
      </trkpt>
      <trkpt lat="42.303117" lon="-8.79353">
        <ele>160.3</ele>
        <time>1970-01-01T00:01:15.000Z</time>
      </trkpt>
      <trkpt lat="42.303108" lon="-8.793525">
        <ele>159.3</ele>
        <time>1970-01-01T00:01:16.000Z</time>
      </trkpt>
      <trkpt lat="42.303097" lon="-8.793517">
        <ele>159.3</ele>
        <time>1970-01-01T00:01:17.000Z</time>
      </trkpt>
      <trkpt lat="42.303085" lon="-8.793513">
        <ele>159.3</ele>
        <time>1970-01-01T00:01:18.000Z</time>
      </trkpt>
      <trkpt lat="42.303075" lon="-8.793512">
        <ele>159.3</ele>
        <time>1970-01-01T00:01:19.000Z</time>
      </trkpt>
      <trkpt lat="42.303062" lon="-8.793505">
        <ele>159.3</ele>
        <time>1970-01-01T00:01:20.000Z</time>
      </trkpt>
      <trkpt lat="42.303053" lon="-8.793497">
        <ele>159.3</ele>
        <time>1970-01-01T00:01:21.000Z</time>
      </trkpt>
      <trkpt lat="42.303045" lon="-8.793487">
        <ele>159.3</ele>
        <time>1970-01-01T00:01:22.000Z</time>
      </trkpt>
      <trkpt lat="42.303038" lon="-8.793478">
        <ele>159.3</ele>
        <time>1970-01-01T00:01:23.000Z</time>
      </trkpt>
      <trkpt lat="42.303028" lon="-8.793465">
        <ele>159.3</ele>
        <time>1970-01-01T00:01:24.000Z</time>
      </trkpt>
      <trkpt lat="42.30302" lon="-8.793455">
        <ele>159.3</ele>
        <time>1970-01-01T00:01:25.000Z</time>
      </trkpt>
      <trkpt lat="42.303013" lon="-8.793435">
        <ele>159.3</ele>
        <time>1970-01-01T00:01:26.000Z</time>
      </trkpt>
      <trkpt lat="42.302997" lon="-8.793423">
        <ele>159.3</ele>
        <time>1970-01-01T00:01:27.000Z</time>
      </trkpt>
      <trkpt lat="42.302982" lon="-8.793413">
        <ele>159.3</ele>
        <time>1970-01-01T00:01:28.000Z</time>
      </trkpt>
      <trkpt lat="42.302972" lon="-8.793407">
        <ele>159.3</ele>
        <time>1970-01-01T00:01:29.000Z</time>
      </trkpt>
      <trkpt lat="42.302967" lon="-8.7934">
        <ele>159.3</ele>
        <time>1970-01-01T00:01:30.000Z</time>
      </trkpt>
      <trkpt lat="42.302962" lon="-8.793393">
        <ele>159.3</ele>
        <time>1970-01-01T00:01:31.000Z</time>
      </trkpt>
      <trkpt lat="42.302952" lon="-8.793387">
        <ele>158.2</ele>
        <time>1970-01-01T00:01:32.000Z</time>
      </trkpt>
      <trkpt lat="42.302942" lon="-8.79338">
        <ele>158.2</ele>
        <time>1970-01-01T00:01:33.000Z</time>
      </trkpt>
      <trkpt lat="42.302933" lon="-8.793375">
        <ele>158.2</ele>
        <time>1970-01-01T00:01:34.000Z</time>
      </trkpt>
      <trkpt lat="42.30292" lon="-8.793367">
        <ele>158.2</ele>
        <time>1970-01-01T00:01:35.000Z</time>
      </trkpt>
      <trkpt lat="42.302912" lon="-8.793358">
        <ele>158.2</ele>
        <time>1970-01-01T00:01:36.000Z</time>
      </trkpt>
      <trkpt lat="42.3029" lon="-8.793348">
        <ele>158.2</ele>
        <time>1970-01-01T00:01:37.000Z</time>
      </trkpt>
      <trkpt lat="42.302885" lon="-8.79334">
        <ele>158.2</ele>
        <time>1970-01-01T00:01:38.000Z</time>
      </trkpt>
      <trkpt lat="42.302873" lon="-8.793345">
        <ele>158.2</ele>
        <time>1970-01-01T00:01:39.000Z</time>
      </trkpt>
      <trkpt lat="42.302867" lon="-8.793347">
        <ele>158.2</ele>
        <time>1970-01-01T00:01:40.000Z</time>
      </trkpt>
      <trkpt lat="42.302858" lon="-8.793352">
        <ele>158.2</ele>
        <time>1970-01-01T00:01:41.000Z</time>
      </trkpt>
      <trkpt lat="42.302848" lon="-8.79335">
        <ele>158.2</ele>
        <time>1970-01-01T00:01:42.000Z</time>
      </trkpt>
      <trkpt lat="42.302833" lon="-8.793348">
        <ele>157.3</ele>
        <time>1970-01-01T00:01:43.000Z</time>
      </trkpt>
      <trkpt lat="42.302823" lon="-8.793347">
        <ele>157.3</ele>
        <time>1970-01-01T00:01:44.000Z</time>
      </trkpt>
      <trkpt lat="42.302815" lon="-8.793342">
        <ele>157.3</ele>
        <time>1970-01-01T00:01:45.000Z</time>
      </trkpt>
      <trkpt lat="42.302805" lon="-8.793335">
        <ele>157.3</ele>
        <time>1970-01-01T00:01:46.000Z</time>
      </trkpt>
      <trkpt lat="42.302793" lon="-8.793332">
        <ele>157.3</ele>
        <time>1970-01-01T00:01:47.000Z</time>
      </trkpt>
      <trkpt lat="42.30278" lon="-8.79333">
        <ele>157.3</ele>
        <time>1970-01-01T00:01:48.000Z</time>
      </trkpt>
      <trkpt lat="42.302767" lon="-8.793323">
        <ele>157.3</ele>
        <time>1970-01-01T00:01:49.000Z</time>
      </trkpt>
      <trkpt lat="42.302752" lon="-8.79332">
        <ele>157.3</ele>
        <time>1970-01-01T00:01:50.000Z</time>
      </trkpt>
      <trkpt lat="42.302738" lon="-8.793317">
        <ele>157.3</ele>
        <time>1970-01-01T00:01:51.000Z</time>
      </trkpt>
      <trkpt lat="42.302725" lon="-8.793308">
        <ele>157.3</ele>
        <time>1970-01-01T00:01:52.000Z</time>
      </trkpt>
      <trkpt lat="42.302712" lon="-8.793302">
        <ele>157.3</ele>
        <time>1970-01-01T00:01:53.000Z</time>
      </trkpt>
      <trkpt lat="42.302698" lon="-8.793297">
        <ele>157.3</ele>
        <time>1970-01-01T00:01:54.000Z</time>
      </trkpt>
      <trkpt lat="42.302688" lon="-8.793295">
        <ele>157.3</ele>
        <time>1970-01-01T00:01:55.000Z</time>
      </trkpt>
      <trkpt lat="42.302677" lon="-8.79329">
        <ele>157.3</ele>
        <time>1970-01-01T00:01:56.000Z</time>
      </trkpt>
      <trkpt lat="42.302665" lon="-8.793285">
        <ele>157.3</ele>
        <time>1970-01-01T00:01:57.000Z</time>
      </trkpt>
      <trkpt lat="42.302652" lon="-8.793277">
        <ele>157.3</ele>
        <time>1970-01-01T00:01:58.000Z</time>
      </trkpt>
      <trkpt lat="42.30264" lon="-8.79327">
        <ele>157.3</ele>
        <time>1970-01-01T00:01:59.000Z</time>
      </trkpt>
      <trkpt lat="42.302628" lon="-8.793262">
        <ele>157.3</ele>
        <time>1970-01-01T00:02:00.000Z</time>
      </trkpt>
      <trkpt lat="42.302618" lon="-8.793255">
        <ele>158.2</ele>
        <time>1970-01-01T00:02:01.000Z</time>
      </trkpt>
      <trkpt lat="42.302608" lon="-8.793247">
        <ele>158.2</ele>
        <time>1970-01-01T00:02:02.000Z</time>
      </trkpt>
      <trkpt lat="42.302602" lon="-8.793243">
        <ele>158.2</ele>
        <time>1970-01-01T00:02:03.000Z</time>
      </trkpt>
      <trkpt lat="42.302592" lon="-8.793233">
        <ele>158.2</ele>
        <time>1970-01-01T00:02:04.000Z</time>
      </trkpt>
      <trkpt lat="42.302583" lon="-8.793223">
        <ele>159.3</ele>
        <time>1970-01-01T00:02:05.000Z</time>
      </trkpt>
      <trkpt lat="42.302573" lon="-8.793215">
        <ele>159.3</ele>
        <time>1970-01-01T00:02:06.000Z</time>
      </trkpt>
      <trkpt lat="42.302565" lon="-8.793207">
        <ele>158.2</ele>
        <time>1970-01-01T00:02:07.000Z</time>
      </trkpt>
      <trkpt lat="42.302553" lon="-8.7932">
        <ele>158.2</ele>
        <time>1970-01-01T00:02:08.000Z</time>
      </trkpt>
      <trkpt lat="42.302543" lon="-8.793195">
        <ele>158.2</ele>
        <time>1970-01-01T00:02:09.000Z</time>
      </trkpt>
      <trkpt lat="42.302535" lon="-8.79319">
        <ele>158.2</ele>
        <time>1970-01-01T00:02:10.000Z</time>
      </trkpt>
      <trkpt lat="42.302525" lon="-8.793188">
        <ele>158.2</ele>
        <time>1970-01-01T00:02:11.000Z</time>
      </trkpt>
      <trkpt lat="42.302512" lon="-8.793185">
        <ele>158.2</ele>
        <time>1970-01-01T00:02:12.000Z</time>
      </trkpt>
      <trkpt lat="42.3025" lon="-8.79318">
        <ele>158.2</ele>
        <time>1970-01-01T00:02:13.000Z</time>
      </trkpt>
      <trkpt lat="42.302488" lon="-8.793177">
        <ele>158.2</ele>
        <time>1970-01-01T00:02:14.000Z</time>
      </trkpt>
      <trkpt lat="42.302478" lon="-8.793168">
        <ele>158.2</ele>
        <time>1970-01-01T00:02:15.000Z</time>
      </trkpt>
      <trkpt lat="42.302475" lon="-8.793163">
        <ele>158.2</ele>
        <time>1970-01-01T00:02:16.000Z</time>
      </trkpt>
      <trkpt lat="42.302465" lon="-8.793148">
        <ele>159.3</ele>
        <time>1970-01-01T00:02:17.000Z</time>
      </trkpt>
      <trkpt lat="42.302457" lon="-8.793138">
        <ele>159.3</ele>
        <time>1970-01-01T00:02:18.000Z</time>
      </trkpt>
      <trkpt lat="42.302448" lon="-8.793133">
        <ele>159.3</ele>
        <time>1970-01-01T00:02:19.000Z</time>
      </trkpt>
      <trkpt lat="42.302438" lon="-8.793133">
        <ele>159.3</ele>
        <time>1970-01-01T00:02:20.000Z</time>
      </trkpt>
      <trkpt lat="42.302432" lon="-8.793125">
        <ele>158.2</ele>
        <time>1970-01-01T00:02:21.000Z</time>
      </trkpt>
      <trkpt lat="42.302425" lon="-8.793117">
        <ele>158.2</ele>
        <time>1970-01-01T00:02:22.000Z</time>
      </trkpt>
      <trkpt lat="42.302423" lon="-8.793108">
        <ele>158.2</ele>
        <time>1970-01-01T00:02:23.000Z</time>
      </trkpt>
      <trkpt lat="42.302415" lon="-8.793098">
        <ele>158.2</ele>
        <time>1970-01-01T00:02:24.000Z</time>
      </trkpt>
      <trkpt lat="42.30241" lon="-8.793093">
        <ele>159.3</ele>
        <time>1970-01-01T00:02:25.000Z</time>
      </trkpt>
      <trkpt lat="42.302408" lon="-8.793072">
        <ele>159.3</ele>
        <time>1970-01-01T00:02:26.000Z</time>
      </trkpt>
      <trkpt lat="42.302403" lon="-8.793063">
        <ele>159.3</ele>
        <time>1970-01-01T00:02:27.000Z</time>
      </trkpt>
      <trkpt lat="42.302392" lon="-8.793053">
        <ele>159.3</ele>
        <time>1970-01-01T00:02:28.000Z</time>
      </trkpt>
      <trkpt lat="42.302382" lon="-8.793045">
        <ele>159.3</ele>
        <time>1970-01-01T00:02:29.000Z</time>
      </trkpt>
      <trkpt lat="42.302372" lon="-8.793038">
        <ele>159.3</ele>
        <time>1970-01-01T00:02:30.000Z</time>
      </trkpt>
      <trkpt lat="42.302365" lon="-8.79303">
        <ele>159.3</ele>
        <time>1970-01-01T00:02:31.000Z</time>
      </trkpt>
      <trkpt lat="42.302352" lon="-8.793012">
        <ele>159.3</ele>
        <time>1970-01-01T00:02:32.000Z</time>
      </trkpt>
      <trkpt lat="42.302345" lon="-8.792992">
        <ele>159.3</ele>
        <time>1970-01-01T00:02:33.000Z</time>
      </trkpt>
      <trkpt lat="42.302333" lon="-8.792977">
        <ele>159.3</ele>
        <time>1970-01-01T00:02:34.000Z</time>
      </trkpt>
      <trkpt lat="42.302318" lon="-8.79296">
        <ele>159.3</ele>
        <time>1970-01-01T00:02:35.000Z</time>
      </trkpt>
      <trkpt lat="42.302303" lon="-8.792947">
        <ele>159.3</ele>
        <time>1970-01-01T00:02:36.000Z</time>
      </trkpt>
      <trkpt lat="42.302292" lon="-8.792928">
        <ele>157.3</ele>
        <time>1970-01-01T00:02:37.000Z</time>
      </trkpt>
      <trkpt lat="42.302285" lon="-8.792903">
        <ele>157.3</ele>
        <time>1970-01-01T00:02:38.000Z</time>
      </trkpt>
      <trkpt lat="42.302282" lon="-8.792885">
        <ele>157.3</ele>
        <time>1970-01-01T00:02:39.000Z</time>
      </trkpt>
      <trkpt lat="42.302273" lon="-8.792872">
        <ele>157.3</ele>
        <time>1970-01-01T00:02:40.000Z</time>
      </trkpt>
      <trkpt lat="42.302262" lon="-8.792862">
        <ele>157.3</ele>
        <time>1970-01-01T00:02:41.000Z</time>
      </trkpt>
      <trkpt lat="42.302253" lon="-8.792857">
        <ele>157.3</ele>
        <time>1970-01-01T00:02:42.000Z</time>
      </trkpt>
      <trkpt lat="42.302242" lon="-8.792853">
        <ele>157.3</ele>
        <time>1970-01-01T00:02:43.000Z</time>
      </trkpt>
      <trkpt lat="42.302235" lon="-8.792855">
        <ele>157.3</ele>
        <time>1970-01-01T00:02:44.000Z</time>
      </trkpt>
      <trkpt lat="42.30223" lon="-8.792852">
        <ele>157.3</ele>
        <time>1970-01-01T00:02:45.000Z</time>
      </trkpt>
      <trkpt lat="42.302225" lon="-8.792852">
        <ele>157.3</ele>
        <time>1970-01-01T00:02:46.000Z</time>
      </trkpt>
      <trkpt lat="42.302213" lon="-8.792852">
        <ele>157.3</ele>
        <time>1970-01-01T00:02:47.000Z</time>
      </trkpt>
      <trkpt lat="42.302205" lon="-8.792852">
        <ele>157.3</ele>
        <time>1970-01-01T00:02:48.000Z</time>
      </trkpt>
      <trkpt lat="42.302198" lon="-8.792853">
        <ele>157.3</ele>
        <time>1970-01-01T00:02:49.000Z</time>
      </trkpt>
      <trkpt lat="42.302197" lon="-8.792853">
        <ele>157.3</ele>
        <time>1970-01-01T00:02:50.000Z</time>
      </trkpt>
      <trkpt lat="42.302172" lon="-8.792848">
        <ele>157.3</ele>
        <time>1970-01-01T00:02:51.000Z</time>
      </trkpt>
      <trkpt lat="42.302155" lon="-8.792852">
        <ele>157.3</ele>
        <time>1970-01-01T00:02:52.000Z</time>
      </trkpt>
      <trkpt lat="42.302128" lon="-8.792852">
        <ele>157.3</ele>
        <time>1970-01-01T00:02:53.000Z</time>
      </trkpt>
      <trkpt lat="42.3021" lon="-8.792855">
        <ele>157.3</ele>
        <time>1970-01-01T00:02:54.000Z</time>
      </trkpt>
      <trkpt lat="42.302072" lon="-8.792857">
        <ele>157.3</ele>
        <time>1970-01-01T00:02:55.000Z</time>
      </trkpt>
      <trkpt lat="42.302047" lon="-8.79286">
        <ele>157.3</ele>
        <time>1970-01-01T00:02:56.000Z</time>
      </trkpt>
      <trkpt lat="42.30203" lon="-8.792868">
        <ele>157.3</ele>
        <time>1970-01-01T00:02:57.000Z</time>
      </trkpt>
      <trkpt lat="42.302015" lon="-8.79288">
        <ele>157.3</ele>
        <time>1970-01-01T00:02:58.000Z</time>
      </trkpt>
      <trkpt lat="42.302" lon="-8.792893">
        <ele>158.2</ele>
        <time>1970-01-01T00:02:59.000Z</time>
      </trkpt>
      <trkpt lat="42.301988" lon="-8.7929">
        <ele>158.2</ele>
        <time>1970-01-01T00:03:00.000Z</time>
      </trkpt>
      <trkpt lat="42.301968" lon="-8.792905">
        <ele>158.2</ele>
        <time>1970-01-01T00:03:01.000Z</time>
      </trkpt>
      <trkpt lat="42.301948" lon="-8.792908">
        <ele>158.2</ele>
        <time>1970-01-01T00:03:02.000Z</time>
      </trkpt>
      <trkpt lat="42.301935" lon="-8.792912">
        <ele>158.2</ele>
        <time>1970-01-01T00:03:03.000Z</time>
      </trkpt>
      <trkpt lat="42.301922" lon="-8.79292">
        <ele>158.2</ele>
        <time>1970-01-01T00:03:04.000Z</time>
      </trkpt>
      <trkpt lat="42.30191" lon="-8.792925">
        <ele>158.2</ele>
        <time>1970-01-01T00:03:05.000Z</time>
      </trkpt>
      <trkpt lat="42.301895" lon="-8.792932">
        <ele>158.2</ele>
        <time>1970-01-01T00:03:06.000Z</time>
      </trkpt>
      <trkpt lat="42.301878" lon="-8.792932">
        <ele>158.2</ele>
        <time>1970-01-01T00:03:07.000Z</time>
      </trkpt>
      <trkpt lat="42.301865" lon="-8.792932">
        <ele>158.2</ele>
        <time>1970-01-01T00:03:08.000Z</time>
      </trkpt>
      <trkpt lat="42.301865" lon="-8.792932">
        <ele>158.2</ele>
        <time>1970-01-01T00:03:09.000Z</time>
      </trkpt>
      <trkpt lat="42.301858" lon="-8.792935">
        <ele>158.2</ele>
        <time>1970-01-01T00:03:10.000Z</time>
      </trkpt>
      <trkpt lat="42.301845" lon="-8.792938">
        <ele>158.2</ele>
        <time>1970-01-01T00:03:11.000Z</time>
      </trkpt>
      <trkpt lat="42.301837" lon="-8.792943">
        <ele>158.2</ele>
        <time>1970-01-01T00:03:12.000Z</time>
      </trkpt>
      <trkpt lat="42.301828" lon="-8.792952">
        <ele>158.2</ele>
        <time>1970-01-01T00:03:13.000Z</time>
      </trkpt>
      <trkpt lat="42.301818" lon="-8.792962">
        <ele>158.2</ele>
        <time>1970-01-01T00:03:14.000Z</time>
      </trkpt>
      <trkpt lat="42.301807" lon="-8.792973">
        <ele>158.2</ele>
        <time>1970-01-01T00:03:15.000Z</time>
      </trkpt>
      <trkpt lat="42.301797" lon="-8.792983">
        <ele>158.2</ele>
        <time>1970-01-01T00:03:16.000Z</time>
      </trkpt>
      <trkpt lat="42.301788" lon="-8.792997">
        <ele>158.2</ele>
        <time>1970-01-01T00:03:17.000Z</time>
      </trkpt>
      <trkpt lat="42.301785" lon="-8.79301">
        <ele>158.2</ele>
        <time>1970-01-01T00:03:18.000Z</time>
      </trkpt>
      <trkpt lat="42.301777" lon="-8.793022">
        <ele>158.2</ele>
        <time>1970-01-01T00:03:19.000Z</time>
      </trkpt>
      <trkpt lat="42.301768" lon="-8.793035">
        <ele>158.2</ele>
        <time>1970-01-01T00:03:20.000Z</time>
      </trkpt>
      <trkpt lat="42.30176" lon="-8.793047">
        <ele>158.2</ele>
        <time>1970-01-01T00:03:21.000Z</time>
      </trkpt>
      <trkpt lat="42.301752" lon="-8.793055">
        <ele>158.2</ele>
        <time>1970-01-01T00:03:22.000Z</time>
      </trkpt>
      <trkpt lat="42.301742" lon="-8.793065">
        <ele>158.2</ele>
        <time>1970-01-01T00:03:23.000Z</time>
      </trkpt>
      <trkpt lat="42.301728" lon="-8.793077">
        <ele>158.2</ele>
        <time>1970-01-01T00:03:24.000Z</time>
      </trkpt>
      <trkpt lat="42.301718" lon="-8.793092">
        <ele>158.2</ele>
        <time>1970-01-01T00:03:25.000Z</time>
      </trkpt>
      <trkpt lat="42.301712" lon="-8.793107">
        <ele>158.2</ele>
        <time>1970-01-01T00:03:26.000Z</time>
      </trkpt>
      <trkpt lat="42.30171" lon="-8.793122">
        <ele>158.2</ele>
        <time>1970-01-01T00:03:27.000Z</time>
      </trkpt>
      <trkpt lat="42.30171" lon="-8.793137">
        <ele>158.2</ele>
        <time>1970-01-01T00:03:28.000Z</time>
      </trkpt>
      <trkpt lat="42.301708" lon="-8.793143">
        <ele>155.3</ele>
        <time>1970-01-01T00:03:29.000Z</time>
      </trkpt>
      <trkpt lat="42.301708" lon="-8.793158">
        <ele>155.3</ele>
        <time>1970-01-01T00:03:30.000Z</time>
      </trkpt>
      <trkpt lat="42.301712" lon="-8.793165">
        <ele>155.3</ele>
        <time>1970-01-01T00:03:31.000Z</time>
      </trkpt>
      <trkpt lat="42.301703" lon="-8.79317">
        <ele>155.3</ele>
        <time>1970-01-01T00:03:32.000Z</time>
      </trkpt>
      <trkpt lat="42.301693" lon="-8.793178">
        <ele>155.3</ele>
        <time>1970-01-01T00:03:33.000Z</time>
      </trkpt>
      <trkpt lat="42.301682" lon="-8.793182">
        <ele>155.3</ele>
        <time>1970-01-01T00:03:34.000Z</time>
      </trkpt>
      <trkpt lat="42.301668" lon="-8.79319">
        <ele>154.2</ele>
        <time>1970-01-01T00:03:35.000Z</time>
      </trkpt>
      <trkpt lat="42.301655" lon="-8.793202">
        <ele>154.2</ele>
        <time>1970-01-01T00:03:36.000Z</time>
      </trkpt>
      <trkpt lat="42.301645" lon="-8.793217">
        <ele>154.2</ele>
        <time>1970-01-01T00:03:37.000Z</time>
      </trkpt>
      <trkpt lat="42.301638" lon="-8.793227">
        <ele>154.2</ele>
        <time>1970-01-01T00:03:38.000Z</time>
      </trkpt>
      <trkpt lat="42.301632" lon="-8.793237">
        <ele>154.2</ele>
        <time>1970-01-01T00:03:39.000Z</time>
      </trkpt>
      <trkpt lat="42.301627" lon="-8.793245">
        <ele>154.2</ele>
        <time>1970-01-01T00:03:40.000Z</time>
      </trkpt>
      <trkpt lat="42.301618" lon="-8.793252">
        <ele>154.2</ele>
        <time>1970-01-01T00:03:41.000Z</time>
      </trkpt>
      <trkpt lat="42.30161" lon="-8.793253">
        <ele>154.2</ele>
        <time>1970-01-01T00:03:42.000Z</time>
      </trkpt>
      <trkpt lat="42.3016" lon="-8.793257">
        <ele>151.3</ele>
        <time>1970-01-01T00:03:43.000Z</time>
      </trkpt>
      <trkpt lat="42.301592" lon="-8.793262">
        <ele>151.3</ele>
        <time>1970-01-01T00:03:44.000Z</time>
      </trkpt>
      <trkpt lat="42.301585" lon="-8.793268">
        <ele>150.3</ele>
        <time>1970-01-01T00:03:45.000Z</time>
      </trkpt>
      <trkpt lat="42.301573" lon="-8.793273">
        <ele>150.3</ele>
        <time>1970-01-01T00:03:46.000Z</time>
      </trkpt>
      <trkpt lat="42.301565" lon="-8.793285">
        <ele>150.3</ele>
        <time>1970-01-01T00:03:47.000Z</time>
      </trkpt>
      <trkpt lat="42.301557" lon="-8.793297">
        <ele>150.3</ele>
        <time>1970-01-01T00:03:48.000Z</time>
      </trkpt>
      <trkpt lat="42.30155" lon="-8.793308">
        <ele>150.3</ele>
        <time>1970-01-01T00:03:49.000Z</time>
      </trkpt>
      <trkpt lat="42.301545" lon="-8.79332">
        <ele>150.3</ele>
        <time>1970-01-01T00:03:50.000Z</time>
      </trkpt>
      <trkpt lat="42.301528" lon="-8.793332">
        <ele>150.3</ele>
        <time>1970-01-01T00:03:51.000Z</time>
      </trkpt>
      <trkpt lat="42.301515" lon="-8.79334">
        <ele>150.3</ele>
        <time>1970-01-01T00:03:52.000Z</time>
      </trkpt>
      <trkpt lat="42.301498" lon="-8.793358">
        <ele>150.3</ele>
        <time>1970-01-01T00:03:53.000Z</time>
      </trkpt>
      <trkpt lat="42.301483" lon="-8.793372">
        <ele>150.3</ele>
        <time>1970-01-01T00:03:54.000Z</time>
      </trkpt>
      <trkpt lat="42.301472" lon="-8.793385">
        <ele>150.3</ele>
        <time>1970-01-01T00:03:55.000Z</time>
      </trkpt>
      <trkpt lat="42.301457" lon="-8.793392">
        <ele>150.3</ele>
        <time>1970-01-01T00:03:56.000Z</time>
      </trkpt>
      <trkpt lat="42.301443" lon="-8.793405">
        <ele>149.2</ele>
        <time>1970-01-01T00:03:57.000Z</time>
      </trkpt>
      <trkpt lat="42.301435" lon="-8.793427">
        <ele>149.2</ele>
        <time>1970-01-01T00:03:58.000Z</time>
      </trkpt>
      <trkpt lat="42.301433" lon="-8.793433">
        <ele>149.2</ele>
        <time>1970-01-01T00:03:59.000Z</time>
      </trkpt>
      <trkpt lat="42.301423" lon="-8.793447">
        <ele>149.2</ele>
        <time>1970-01-01T00:04:00.000Z</time>
      </trkpt>
      <trkpt lat="42.301422" lon="-8.793443">
        <ele>147.2</ele>
        <time>1970-01-01T00:04:01.000Z</time>
      </trkpt>
      <trkpt lat="42.301415" lon="-8.79345">
        <ele>147.2</ele>
        <time>1970-01-01T00:04:02.000Z</time>
      </trkpt>
      <trkpt lat="42.301403" lon="-8.79346">
        <ele>147.2</ele>
        <time>1970-01-01T00:04:03.000Z</time>
      </trkpt>
      <trkpt lat="42.301392" lon="-8.793468">
        <ele>147.2</ele>
        <time>1970-01-01T00:04:04.000Z</time>
      </trkpt>
      <trkpt lat="42.301382" lon="-8.79348">
        <ele>147.2</ele>
        <time>1970-01-01T00:04:05.000Z</time>
      </trkpt>
      <trkpt lat="42.301375" lon="-8.793488">
        <ele>147.2</ele>
        <time>1970-01-01T00:04:06.000Z</time>
      </trkpt>
      <trkpt lat="42.301362" lon="-8.793497">
        <ele>147.2</ele>
        <time>1970-01-01T00:04:07.000Z</time>
      </trkpt>
      <trkpt lat="42.30135" lon="-8.793507">
        <ele>147.2</ele>
        <time>1970-01-01T00:04:08.000Z</time>
      </trkpt>
      <trkpt lat="42.301342" lon="-8.793517">
        <ele>147.2</ele>
        <time>1970-01-01T00:04:09.000Z</time>
      </trkpt>
      <trkpt lat="42.301338" lon="-8.79353">
        <ele>147.2</ele>
        <time>1970-01-01T00:04:10.000Z</time>
      </trkpt>
      <trkpt lat="42.301337" lon="-8.793537">
        <ele>146.3</ele>
        <time>1970-01-01T00:04:11.000Z</time>
      </trkpt>
      <trkpt lat="42.301332" lon="-8.793545">
        <ele>146.3</ele>
        <time>1970-01-01T00:04:12.000Z</time>
      </trkpt>
      <trkpt lat="42.301327" lon="-8.793548">
        <ele>146.3</ele>
        <time>1970-01-01T00:04:13.000Z</time>
      </trkpt>
      <trkpt lat="42.301317" lon="-8.793548">
        <ele>146.3</ele>
        <time>1970-01-01T00:04:14.000Z</time>
      </trkpt>
      <trkpt lat="42.301308" lon="-8.793543">
        <ele>145.2</ele>
        <time>1970-01-01T00:04:15.000Z</time>
      </trkpt>
      <trkpt lat="42.301298" lon="-8.793548">
        <ele>145.2</ele>
        <time>1970-01-01T00:04:16.000Z</time>
      </trkpt>
      <trkpt lat="42.301293" lon="-8.793555">
        <ele>145.2</ele>
        <time>1970-01-01T00:04:17.000Z</time>
      </trkpt>
      <trkpt lat="42.301282" lon="-8.793565">
        <ele>145.2</ele>
        <time>1970-01-01T00:04:18.000Z</time>
      </trkpt>
      <trkpt lat="42.301275" lon="-8.79358">
        <ele>145.2</ele>
        <time>1970-01-01T00:04:19.000Z</time>
      </trkpt>
      <trkpt lat="42.301273" lon="-8.793587">
        <ele>145.2</ele>
        <time>1970-01-01T00:04:20.000Z</time>
      </trkpt>
      <trkpt lat="42.30127" lon="-8.793583">
        <ele>143.3</ele>
        <time>1970-01-01T00:04:21.000Z</time>
      </trkpt>
      <trkpt lat="42.301267" lon="-8.793587">
        <ele>143.3</ele>
        <time>1970-01-01T00:04:22.000Z</time>
      </trkpt>
      <trkpt lat="42.301263" lon="-8.79359">
        <ele>143.3</ele>
        <time>1970-01-01T00:04:23.000Z</time>
      </trkpt>
      <trkpt lat="42.301255" lon="-8.793593">
        <ele>143.3</ele>
        <time>1970-01-01T00:04:24.000Z</time>
      </trkpt>
      <trkpt lat="42.301242" lon="-8.793598">
        <ele>143.3</ele>
        <time>1970-01-01T00:04:25.000Z</time>
      </trkpt>
      <trkpt lat="42.301233" lon="-8.793605">
        <ele>143.3</ele>
        <time>1970-01-01T00:04:26.000Z</time>
      </trkpt>
      <trkpt lat="42.301223" lon="-8.793603">
        <ele>142.2</ele>
        <time>1970-01-01T00:04:27.000Z</time>
      </trkpt>
      <trkpt lat="42.301215" lon="-8.79361">
        <ele>142.2</ele>
        <time>1970-01-01T00:04:28.000Z</time>
      </trkpt>
      <trkpt lat="42.301207" lon="-8.79362">
        <ele>142.2</ele>
        <time>1970-01-01T00:04:29.000Z</time>
      </trkpt>
      <trkpt lat="42.301198" lon="-8.793632">
        <ele>142.2</ele>
        <time>1970-01-01T00:04:30.000Z</time>
      </trkpt>
      <trkpt lat="42.301187" lon="-8.793643">
        <ele>142.2</ele>
        <time>1970-01-01T00:04:31.000Z</time>
      </trkpt>
      <trkpt lat="42.301183" lon="-8.793648">
        <ele>142.2</ele>
        <time>1970-01-01T00:04:32.000Z</time>
      </trkpt>
      <trkpt lat="42.301173" lon="-8.793655">
        <ele>141.3</ele>
        <time>1970-01-01T00:04:33.000Z</time>
      </trkpt>
      <trkpt lat="42.301167" lon="-8.793662">
        <ele>141.3</ele>
        <time>1970-01-01T00:04:34.000Z</time>
      </trkpt>
      <trkpt lat="42.301158" lon="-8.79367">
        <ele>140.2</ele>
        <time>1970-01-01T00:04:35.000Z</time>
      </trkpt>
      <trkpt lat="42.30115" lon="-8.79368">
        <ele>140.2</ele>
        <time>1970-01-01T00:04:36.000Z</time>
      </trkpt>
      <trkpt lat="42.301143" lon="-8.793685">
        <ele>140.2</ele>
        <time>1970-01-01T00:04:37.000Z</time>
      </trkpt>
      <trkpt lat="42.301135" lon="-8.79369">
        <ele>140.2</ele>
        <time>1970-01-01T00:04:38.000Z</time>
      </trkpt>
      <trkpt lat="42.30113" lon="-8.793692">
        <ele>139.3</ele>
        <time>1970-01-01T00:04:39.000Z</time>
      </trkpt>
      <trkpt lat="42.301123" lon="-8.793698">
        <ele>139.3</ele>
        <time>1970-01-01T00:04:40.000Z</time>
      </trkpt>
      <trkpt lat="42.301118" lon="-8.793705">
        <ele>139.3</ele>
        <time>1970-01-01T00:04:41.000Z</time>
      </trkpt>
      <trkpt lat="42.301108" lon="-8.793712">
        <ele>139.3</ele>
        <time>1970-01-01T00:04:42.000Z</time>
      </trkpt>
      <trkpt lat="42.3011" lon="-8.793717">
        <ele>139.3</ele>
        <time>1970-01-01T00:04:43.000Z</time>
      </trkpt>
      <trkpt lat="42.301092" lon="-8.793722">
        <ele>139.3</ele>
        <time>1970-01-01T00:04:44.000Z</time>
      </trkpt>
      <trkpt lat="42.301088" lon="-8.793727">
        <ele>139.3</ele>
        <time>1970-01-01T00:04:45.000Z</time>
      </trkpt>
      <trkpt lat="42.301082" lon="-8.793737">
        <ele>139.3</ele>
        <time>1970-01-01T00:04:46.000Z</time>
      </trkpt>
      <trkpt lat="42.301072" lon="-8.79375">
        <ele>138.2</ele>
        <time>1970-01-01T00:04:47.000Z</time>
      </trkpt>
      <trkpt lat="42.301058" lon="-8.793765">
        <ele>138.2</ele>
        <time>1970-01-01T00:04:48.000Z</time>
      </trkpt>
      <trkpt lat="42.30105" lon="-8.793777">
        <ele>138.2</ele>
        <time>1970-01-01T00:04:49.000Z</time>
      </trkpt>
      <trkpt lat="42.301042" lon="-8.79379">
        <ele>138.2</ele>
        <time>1970-01-01T00:04:50.000Z</time>
      </trkpt>
      <trkpt lat="42.301038" lon="-8.793795">
        <ele>138.2</ele>
        <time>1970-01-01T00:04:51.000Z</time>
      </trkpt>
      <trkpt lat="42.30103" lon="-8.793802">
        <ele>138.2</ele>
        <time>1970-01-01T00:04:52.000Z</time>
      </trkpt>
      <trkpt lat="42.301022" lon="-8.79381">
        <ele>137.3</ele>
        <time>1970-01-01T00:04:53.000Z</time>
      </trkpt>
      <trkpt lat="42.301012" lon="-8.793825">
        <ele>137.3</ele>
        <time>1970-01-01T00:04:54.000Z</time>
      </trkpt>
      <trkpt lat="42.301002" lon="-8.79384">
        <ele>137.3</ele>
        <time>1970-01-01T00:04:55.000Z</time>
      </trkpt>
      <trkpt lat="42.30099" lon="-8.793853">
        <ele>137.3</ele>
        <time>1970-01-01T00:04:56.000Z</time>
      </trkpt>
      <trkpt lat="42.300978" lon="-8.79386">
        <ele>136.2</ele>
        <time>1970-01-01T00:04:57.000Z</time>
      </trkpt>
      <trkpt lat="42.300968" lon="-8.793867">
        <ele>136.2</ele>
        <time>1970-01-01T00:04:58.000Z</time>
      </trkpt>
      <trkpt lat="42.300958" lon="-8.79387">
        <ele>136.2</ele>
        <time>1970-01-01T00:04:59.000Z</time>
      </trkpt>
      <trkpt lat="42.300947" lon="-8.793872">
        <ele>136.2</ele>
        <time>1970-01-01T00:05:00.000Z</time>
      </trkpt>
      <trkpt lat="42.300938" lon="-8.793873">
        <ele>136.2</ele>
        <time>1970-01-01T00:05:01.000Z</time>
      </trkpt>
      <trkpt lat="42.300927" lon="-8.793873">
        <ele>136.2</ele>
        <time>1970-01-01T00:05:02.000Z</time>
      </trkpt>
      <trkpt lat="42.300917" lon="-8.793872">
        <ele>135.3</ele>
        <time>1970-01-01T00:05:03.000Z</time>
      </trkpt>
      <trkpt lat="42.3009" lon="-8.793875">
        <ele>135.3</ele>
        <time>1970-01-01T00:05:04.000Z</time>
      </trkpt>
      <trkpt lat="42.300883" lon="-8.793885">
        <ele>135.3</ele>
        <time>1970-01-01T00:05:05.000Z</time>
      </trkpt>
      <trkpt lat="42.30087" lon="-8.793895">
        <ele>135.3</ele>
        <time>1970-01-01T00:05:06.000Z</time>
      </trkpt>
      <trkpt lat="42.300867" lon="-8.793897">
        <ele>135.3</ele>
        <time>1970-01-01T00:05:07.000Z</time>
      </trkpt>
      <trkpt lat="42.300855" lon="-8.793905">
        <ele>135.3</ele>
        <time>1970-01-01T00:05:08.000Z</time>
      </trkpt>
      <trkpt lat="42.300838" lon="-8.793908">
        <ele>134.3</ele>
        <time>1970-01-01T00:05:09.000Z</time>
      </trkpt>
      <trkpt lat="42.300827" lon="-8.79391">
        <ele>134.3</ele>
        <time>1970-01-01T00:05:10.000Z</time>
      </trkpt>
      <trkpt lat="42.300815" lon="-8.793908">
        <ele>134.3</ele>
        <time>1970-01-01T00:05:11.000Z</time>
      </trkpt>
      <trkpt lat="42.300817" lon="-8.793897">
        <ele>134.3</ele>
        <time>1970-01-01T00:05:12.000Z</time>
      </trkpt>
      <trkpt lat="42.300818" lon="-8.793892">
        <ele>134.3</ele>
        <time>1970-01-01T00:05:13.000Z</time>
      </trkpt>
      <trkpt lat="42.30081" lon="-8.793892">
        <ele>134.3</ele>
        <time>1970-01-01T00:05:14.000Z</time>
      </trkpt>
      <trkpt lat="42.300803" lon="-8.793892">
        <ele>134.3</ele>
        <time>1970-01-01T00:05:15.000Z</time>
      </trkpt>
      <trkpt lat="42.300793" lon="-8.793905">
        <ele>134.3</ele>
        <time>1970-01-01T00:05:16.000Z</time>
      </trkpt>
      <trkpt lat="42.30078" lon="-8.793925">
        <ele>134.3</ele>
        <time>1970-01-01T00:05:17.000Z</time>
      </trkpt>
      <trkpt lat="42.300762" lon="-8.793938">
        <ele>134.3</ele>
        <time>1970-01-01T00:05:18.000Z</time>
      </trkpt>
      <trkpt lat="42.300743" lon="-8.793948">
        <ele>134.3</ele>
        <time>1970-01-01T00:05:19.000Z</time>
      </trkpt>
      <trkpt lat="42.300733" lon="-8.793952">
        <ele>134.3</ele>
        <time>1970-01-01T00:05:20.000Z</time>
      </trkpt>
      <trkpt lat="42.300728" lon="-8.793948">
        <ele>134.3</ele>
        <time>1970-01-01T00:05:21.000Z</time>
      </trkpt>
      <trkpt lat="42.300727" lon="-8.793948">
        <ele>134.3</ele>
        <time>1970-01-01T00:05:22.000Z</time>
      </trkpt>
      <trkpt lat="42.300718" lon="-8.793953">
        <ele>134.3</ele>
        <time>1970-01-01T00:05:23.000Z</time>
      </trkpt>
      <trkpt lat="42.300705" lon="-8.793955">
        <ele>134.3</ele>
        <time>1970-01-01T00:05:24.000Z</time>
      </trkpt>
      <trkpt lat="42.300695" lon="-8.793965">
        <ele>135.3</ele>
        <time>1970-01-01T00:05:25.000Z</time>
      </trkpt>
      <trkpt lat="42.300677" lon="-8.793967">
        <ele>135.3</ele>
        <time>1970-01-01T00:05:26.000Z</time>
      </trkpt>
      <trkpt lat="42.300663" lon="-8.793975">
        <ele>135.3</ele>
        <time>1970-01-01T00:05:27.000Z</time>
      </trkpt>
      <trkpt lat="42.300658" lon="-8.793978">
        <ele>135.3</ele>
        <time>1970-01-01T00:05:28.000Z</time>
      </trkpt>
      <trkpt lat="42.300648" lon="-8.793985">
        <ele>135.3</ele>
        <time>1970-01-01T00:05:29.000Z</time>
      </trkpt>
      <trkpt lat="42.30064" lon="-8.793995">
        <ele>135.3</ele>
        <time>1970-01-01T00:05:30.000Z</time>
      </trkpt>
      <trkpt lat="42.300632" lon="-8.794002">
        <ele>135.3</ele>
        <time>1970-01-01T00:05:31.000Z</time>
      </trkpt>
      <trkpt lat="42.300617" lon="-8.794002">
        <ele>135.3</ele>
        <time>1970-01-01T00:05:32.000Z</time>
      </trkpt>
      <trkpt lat="42.300598" lon="-8.794">
        <ele>134.3</ele>
        <time>1970-01-01T00:05:33.000Z</time>
      </trkpt>
      <trkpt lat="42.300588" lon="-8.793998">
        <ele>134.3</ele>
        <time>1970-01-01T00:05:34.000Z</time>
      </trkpt>
      <trkpt lat="42.300577" lon="-8.794">
        <ele>134.3</ele>
        <time>1970-01-01T00:05:35.000Z</time>
      </trkpt>
      <trkpt lat="42.300565" lon="-8.793998">
        <ele>134.3</ele>
        <time>1970-01-01T00:05:36.000Z</time>
      </trkpt>
      <trkpt lat="42.300555" lon="-8.794003">
        <ele>134.3</ele>
        <time>1970-01-01T00:05:37.000Z</time>
      </trkpt>
      <trkpt lat="42.300547" lon="-8.794008">
        <ele>134.3</ele>
        <time>1970-01-01T00:05:38.000Z</time>
      </trkpt>
      <trkpt lat="42.300535" lon="-8.794015">
        <ele>134.3</ele>
        <time>1970-01-01T00:05:39.000Z</time>
      </trkpt>
      <trkpt lat="42.300522" lon="-8.794025">
        <ele>134.3</ele>
        <time>1970-01-01T00:05:40.000Z</time>
      </trkpt>
      <trkpt lat="42.300508" lon="-8.794033">
        <ele>134.3</ele>
        <time>1970-01-01T00:05:41.000Z</time>
      </trkpt>
      <trkpt lat="42.300495" lon="-8.794043">
        <ele>134.3</ele>
        <time>1970-01-01T00:05:42.000Z</time>
      </trkpt>
      <trkpt lat="42.300487" lon="-8.794053">
        <ele>134.3</ele>
        <time>1970-01-01T00:05:43.000Z</time>
      </trkpt>
      <trkpt lat="42.300478" lon="-8.794058">
        <ele>134.3</ele>
        <time>1970-01-01T00:05:44.000Z</time>
      </trkpt>
      <trkpt lat="42.300473" lon="-8.794067">
        <ele>133.2</ele>
        <time>1970-01-01T00:05:45.000Z</time>
      </trkpt>
      <trkpt lat="42.30047" lon="-8.794072">
        <ele>133.2</ele>
        <time>1970-01-01T00:05:46.000Z</time>
      </trkpt>
      <trkpt lat="42.300462" lon="-8.794073">
        <ele>133.2</ele>
        <time>1970-01-01T00:05:47.000Z</time>
      </trkpt>
      <trkpt lat="42.300452" lon="-8.79408">
        <ele>133.2</ele>
        <time>1970-01-01T00:05:48.000Z</time>
      </trkpt>
      <trkpt lat="42.300447" lon="-8.794085">
        <ele>132.3</ele>
        <time>1970-01-01T00:05:49.000Z</time>
      </trkpt>
      <trkpt lat="42.300442" lon="-8.794092">
        <ele>132.3</ele>
        <time>1970-01-01T00:05:50.000Z</time>
      </trkpt>
      <trkpt lat="42.300435" lon="-8.794097">
        <ele>132.3</ele>
        <time>1970-01-01T00:05:51.000Z</time>
      </trkpt>
      <trkpt lat="42.300427" lon="-8.7941">
        <ele>132.3</ele>
        <time>1970-01-01T00:05:52.000Z</time>
      </trkpt>
      <trkpt lat="42.300418" lon="-8.7941">
        <ele>131.2</ele>
        <time>1970-01-01T00:05:53.000Z</time>
      </trkpt>
      <trkpt lat="42.30041" lon="-8.7941">
        <ele>131.2</ele>
        <time>1970-01-01T00:05:54.000Z</time>
      </trkpt>
      <trkpt lat="42.3004" lon="-8.794098">
        <ele>131.2</ele>
        <time>1970-01-01T00:05:55.000Z</time>
      </trkpt>
      <trkpt lat="42.300388" lon="-8.794102">
        <ele>131.2</ele>
        <time>1970-01-01T00:05:56.000Z</time>
      </trkpt>
      <trkpt lat="42.300373" lon="-8.794107">
        <ele>131.2</ele>
        <time>1970-01-01T00:05:57.000Z</time>
      </trkpt>
      <trkpt lat="42.300357" lon="-8.794128">
        <ele>131.2</ele>
        <time>1970-01-01T00:05:58.000Z</time>
      </trkpt>
      <trkpt lat="42.300352" lon="-8.794157">
        <ele>131.2</ele>
        <time>1970-01-01T00:05:59.000Z</time>
      </trkpt>
      <trkpt lat="42.300342" lon="-8.794172">
        <ele>131.2</ele>
        <time>1970-01-01T00:06:00.000Z</time>
      </trkpt>
      <trkpt lat="42.300335" lon="-8.794185">
        <ele>131.2</ele>
        <time>1970-01-01T00:06:01.000Z</time>
      </trkpt>
      <trkpt lat="42.300325" lon="-8.794198">
        <ele>131.2</ele>
        <time>1970-01-01T00:06:02.000Z</time>
      </trkpt>
      <trkpt lat="42.300313" lon="-8.7942">
        <ele>131.2</ele>
        <time>1970-01-01T00:06:03.000Z</time>
      </trkpt>
      <trkpt lat="42.300303" lon="-8.794198">
        <ele>131.2</ele>
        <time>1970-01-01T00:06:04.000Z</time>
      </trkpt>
      <trkpt lat="42.300293" lon="-8.7942">
        <ele>131.2</ele>
        <time>1970-01-01T00:06:05.000Z</time>
      </trkpt>
      <trkpt lat="42.300283" lon="-8.794198">
        <ele>131.2</ele>
        <time>1970-01-01T00:06:06.000Z</time>
      </trkpt>
      <trkpt lat="42.300278" lon="-8.794195">
        <ele>131.2</ele>
        <time>1970-01-01T00:06:07.000Z</time>
      </trkpt>
      <trkpt lat="42.300272" lon="-8.794192">
        <ele>131.2</ele>
        <time>1970-01-01T00:06:08.000Z</time>
      </trkpt>
      <trkpt lat="42.300268" lon="-8.79419">
        <ele>131.2</ele>
        <time>1970-01-01T00:06:09.000Z</time>
      </trkpt>
      <trkpt lat="42.300258" lon="-8.794185">
        <ele>131.2</ele>
        <time>1970-01-01T00:06:10.000Z</time>
      </trkpt>
      <trkpt lat="42.300248" lon="-8.794177">
        <ele>131.2</ele>
        <time>1970-01-01T00:06:11.000Z</time>
      </trkpt>
      <trkpt lat="42.300242" lon="-8.794175">
        <ele>131.2</ele>
        <time>1970-01-01T00:06:12.000Z</time>
      </trkpt>
      <trkpt lat="42.300238" lon="-8.794177">
        <ele>131.2</ele>
        <time>1970-01-01T00:06:13.000Z</time>
      </trkpt>
      <trkpt lat="42.300235" lon="-8.794172">
        <ele>131.2</ele>
        <time>1970-01-01T00:06:14.000Z</time>
      </trkpt>
      <trkpt lat="42.300227" lon="-8.794173">
        <ele>131.2</ele>
        <time>1970-01-01T00:06:15.000Z</time>
      </trkpt>
      <trkpt lat="42.300223" lon="-8.794173">
        <ele>131.2</ele>
        <time>1970-01-01T00:06:16.000Z</time>
      </trkpt>
      <trkpt lat="42.300215" lon="-8.794178">
        <ele>131.2</ele>
        <time>1970-01-01T00:06:17.000Z</time>
      </trkpt>
      <trkpt lat="42.3002" lon="-8.794195">
        <ele>131.2</ele>
        <time>1970-01-01T00:06:18.000Z</time>
      </trkpt>
      <trkpt lat="42.300182" lon="-8.794217">
        <ele>131.2</ele>
        <time>1970-01-01T00:06:19.000Z</time>
      </trkpt>
      <trkpt lat="42.300158" lon="-8.79423">
        <ele>131.2</ele>
        <time>1970-01-01T00:06:20.000Z</time>
      </trkpt>
      <trkpt lat="42.300142" lon="-8.794247">
        <ele>131.2</ele>
        <time>1970-01-01T00:06:21.000Z</time>
      </trkpt>
      <trkpt lat="42.300128" lon="-8.79426">
        <ele>131.2</ele>
        <time>1970-01-01T00:06:22.000Z</time>
      </trkpt>
      <trkpt lat="42.300112" lon="-8.79427">
        <ele>131.2</ele>
        <time>1970-01-01T00:06:23.000Z</time>
      </trkpt>
      <trkpt lat="42.300103" lon="-8.794285">
        <ele>131.2</ele>
        <time>1970-01-01T00:06:24.000Z</time>
      </trkpt>
      <trkpt lat="42.300088" lon="-8.794298">
        <ele>131.2</ele>
        <time>1970-01-01T00:06:25.000Z</time>
      </trkpt>
      <trkpt lat="42.300078" lon="-8.794308">
        <ele>131.2</ele>
        <time>1970-01-01T00:06:26.000Z</time>
      </trkpt>
      <trkpt lat="42.300067" lon="-8.794317">
        <ele>130.3</ele>
        <time>1970-01-01T00:06:27.000Z</time>
      </trkpt>
      <trkpt lat="42.300053" lon="-8.794317">
        <ele>130.3</ele>
        <time>1970-01-01T00:06:28.000Z</time>
      </trkpt>
      <trkpt lat="42.300037" lon="-8.794318">
        <ele>130.3</ele>
        <time>1970-01-01T00:06:29.000Z</time>
      </trkpt>
      <trkpt lat="42.300023" lon="-8.79433">
        <ele>130.3</ele>
        <time>1970-01-01T00:06:30.000Z</time>
      </trkpt>
      <trkpt lat="42.300017" lon="-8.794335">
        <ele>130.3</ele>
        <time>1970-01-01T00:06:31.000Z</time>
      </trkpt>
      <trkpt lat="42.300015" lon="-8.79434">
        <ele>130.3</ele>
        <time>1970-01-01T00:06:32.000Z</time>
      </trkpt>
      <trkpt lat="42.300008" lon="-8.794348">
        <ele>129.2</ele>
        <time>1970-01-01T00:06:33.000Z</time>
      </trkpt>
      <trkpt lat="42.29999" lon="-8.794363">
        <ele>129.2</ele>
        <time>1970-01-01T00:06:34.000Z</time>
      </trkpt>
      <trkpt lat="42.299987" lon="-8.79437">
        <ele>129.2</ele>
        <time>1970-01-01T00:06:35.000Z</time>
      </trkpt>
      <trkpt lat="42.299973" lon="-8.794377">
        <ele>129.2</ele>
        <time>1970-01-01T00:06:36.000Z</time>
      </trkpt>
      <trkpt lat="42.299975" lon="-8.794372">
        <ele>128.3</ele>
        <time>1970-01-01T00:06:37.000Z</time>
      </trkpt>
      <trkpt lat="42.299973" lon="-8.794368">
        <ele>128.3</ele>
        <time>1970-01-01T00:06:38.000Z</time>
      </trkpt>
      <trkpt lat="42.299968" lon="-8.794362">
        <ele>128.3</ele>
        <time>1970-01-01T00:06:39.000Z</time>
      </trkpt>
      <trkpt lat="42.299953" lon="-8.794347">
        <ele>128.3</ele>
        <time>1970-01-01T00:06:40.000Z</time>
      </trkpt>
      <trkpt lat="42.299955" lon="-8.794338">
        <ele>128.3</ele>
        <time>1970-01-01T00:06:41.000Z</time>
      </trkpt>
      <trkpt lat="42.29995" lon="-8.79434">
        <ele>128.3</ele>
        <time>1970-01-01T00:06:42.000Z</time>
      </trkpt>
      <trkpt lat="42.29994" lon="-8.79434">
        <ele>128.3</ele>
        <time>1970-01-01T00:06:43.000Z</time>
      </trkpt>
      <trkpt lat="42.299932" lon="-8.794342">
        <ele>128.3</ele>
        <time>1970-01-01T00:06:44.000Z</time>
      </trkpt>
      <trkpt lat="42.299927" lon="-8.794358">
        <ele>129.2</ele>
        <time>1970-01-01T00:06:45.000Z</time>
      </trkpt>
      <trkpt lat="42.299912" lon="-8.794402">
        <ele>129.2</ele>
        <time>1970-01-01T00:06:46.000Z</time>
      </trkpt>
      <trkpt lat="42.2999" lon="-8.794437">
        <ele>129.2</ele>
        <time>1970-01-01T00:06:47.000Z</time>
      </trkpt>
      <trkpt lat="42.299885" lon="-8.794463">
        <ele>129.2</ele>
        <time>1970-01-01T00:06:48.000Z</time>
      </trkpt>
      <trkpt lat="42.299873" lon="-8.794478">
        <ele>129.2</ele>
        <time>1970-01-01T00:06:49.000Z</time>
      </trkpt>
      <trkpt lat="42.299865" lon="-8.794493">
        <ele>129.2</ele>
        <time>1970-01-01T00:06:50.000Z</time>
      </trkpt>
      <trkpt lat="42.299855" lon="-8.794508">
        <ele>129.2</ele>
        <time>1970-01-01T00:06:51.000Z</time>
      </trkpt>
      <trkpt lat="42.299847" lon="-8.794522">
        <ele>129.2</ele>
        <time>1970-01-01T00:06:52.000Z</time>
      </trkpt>
      <trkpt lat="42.299837" lon="-8.794535">
        <ele>129.2</ele>
        <time>1970-01-01T00:06:53.000Z</time>
      </trkpt>
      <trkpt lat="42.299828" lon="-8.79455">
        <ele>129.2</ele>
        <time>1970-01-01T00:06:54.000Z</time>
      </trkpt>
      <trkpt lat="42.29982" lon="-8.794563">
        <ele>128.3</ele>
        <time>1970-01-01T00:06:55.000Z</time>
      </trkpt>
      <trkpt lat="42.299803" lon="-8.794582">
        <ele>128.3</ele>
        <time>1970-01-01T00:06:56.000Z</time>
      </trkpt>
      <trkpt lat="42.29979" lon="-8.794595">
        <ele>128.3</ele>
        <time>1970-01-01T00:06:57.000Z</time>
      </trkpt>
      <trkpt lat="42.29978" lon="-8.794605">
        <ele>128.3</ele>
        <time>1970-01-01T00:06:58.000Z</time>
      </trkpt>
      <trkpt lat="42.29977" lon="-8.794615">
        <ele>128.3</ele>
        <time>1970-01-01T00:06:59.000Z</time>
      </trkpt>
      <trkpt lat="42.299757" lon="-8.794625">
        <ele>128.3</ele>
        <time>1970-01-01T00:07:00.000Z</time>
      </trkpt>
      <trkpt lat="42.299745" lon="-8.794635">
        <ele>128.3</ele>
        <time>1970-01-01T00:07:01.000Z</time>
      </trkpt>
      <trkpt lat="42.299738" lon="-8.794648">
        <ele>128.3</ele>
        <time>1970-01-01T00:07:02.000Z</time>
      </trkpt>
      <trkpt lat="42.299727" lon="-8.794663">
        <ele>128.3</ele>
        <time>1970-01-01T00:07:03.000Z</time>
      </trkpt>
      <trkpt lat="42.299722" lon="-8.79468">
        <ele>128.3</ele>
        <time>1970-01-01T00:07:04.000Z</time>
      </trkpt>
      <trkpt lat="42.29972" lon="-8.794695">
        <ele>128.3</ele>
        <time>1970-01-01T00:07:05.000Z</time>
      </trkpt>
      <trkpt lat="42.299715" lon="-8.794707">
        <ele>128.3</ele>
        <time>1970-01-01T00:07:06.000Z</time>
      </trkpt>
      <trkpt lat="42.299702" lon="-8.79472">
        <ele>128.3</ele>
        <time>1970-01-01T00:07:07.000Z</time>
      </trkpt>
      <trkpt lat="42.299692" lon="-8.794725">
        <ele>128.3</ele>
        <time>1970-01-01T00:07:08.000Z</time>
      </trkpt>
      <trkpt lat="42.299682" lon="-8.794725">
        <ele>127.3</ele>
        <time>1970-01-01T00:07:09.000Z</time>
      </trkpt>
      <trkpt lat="42.299667" lon="-8.79473">
        <ele>127.3</ele>
        <time>1970-01-01T00:07:10.000Z</time>
      </trkpt>
      <trkpt lat="42.299658" lon="-8.794735">
        <ele>127.3</ele>
        <time>1970-01-01T00:07:11.000Z</time>
      </trkpt>
      <trkpt lat="42.299657" lon="-8.794742">
        <ele>127.3</ele>
        <time>1970-01-01T00:07:12.000Z</time>
      </trkpt>
      <trkpt lat="42.299645" lon="-8.794752">
        <ele>127.3</ele>
        <time>1970-01-01T00:07:13.000Z</time>
      </trkpt>
      <trkpt lat="42.29964" lon="-8.794762">
        <ele>127.3</ele>
        <time>1970-01-01T00:07:14.000Z</time>
      </trkpt>
      <trkpt lat="42.299635" lon="-8.79477">
        <ele>127.3</ele>
        <time>1970-01-01T00:07:15.000Z</time>
      </trkpt>
      <trkpt lat="42.29963" lon="-8.794782">
        <ele>127.3</ele>
        <time>1970-01-01T00:07:16.000Z</time>
      </trkpt>
      <trkpt lat="42.299615" lon="-8.79479">
        <ele>127.3</ele>
        <time>1970-01-01T00:07:17.000Z</time>
      </trkpt>
      <trkpt lat="42.299605" lon="-8.794797">
        <ele>127.3</ele>
        <time>1970-01-01T00:07:18.000Z</time>
      </trkpt>
      <trkpt lat="42.299593" lon="-8.7948">
        <ele>127.3</ele>
        <time>1970-01-01T00:07:19.000Z</time>
      </trkpt>
      <trkpt lat="42.299582" lon="-8.794808">
        <ele>127.3</ele>
        <time>1970-01-01T00:07:20.000Z</time>
      </trkpt>
      <trkpt lat="42.29957" lon="-8.794817">
        <ele>127.3</ele>
        <time>1970-01-01T00:07:21.000Z</time>
      </trkpt>
      <trkpt lat="42.299562" lon="-8.794822">
        <ele>127.3</ele>
        <time>1970-01-01T00:07:22.000Z</time>
      </trkpt>
      <trkpt lat="42.299555" lon="-8.794815">
        <ele>127.3</ele>
        <time>1970-01-01T00:07:23.000Z</time>
      </trkpt>
      <trkpt lat="42.299545" lon="-8.794808">
        <ele>127.3</ele>
        <time>1970-01-01T00:07:24.000Z</time>
      </trkpt>
      <trkpt lat="42.299532" lon="-8.7948">
        <ele>127.3</ele>
        <time>1970-01-01T00:07:25.000Z</time>
      </trkpt>
      <trkpt lat="42.29952" lon="-8.794797">
        <ele>127.3</ele>
        <time>1970-01-01T00:07:26.000Z</time>
      </trkpt>
      <trkpt lat="42.299508" lon="-8.794795">
        <ele>127.3</ele>
        <time>1970-01-01T00:07:27.000Z</time>
      </trkpt>
      <trkpt lat="42.299497" lon="-8.794795">
        <ele>127.3</ele>
        <time>1970-01-01T00:07:28.000Z</time>
      </trkpt>
      <trkpt lat="42.299492" lon="-8.79479">
        <ele>127.3</ele>
        <time>1970-01-01T00:07:29.000Z</time>
      </trkpt>
      <trkpt lat="42.299483" lon="-8.794787">
        <ele>127.3</ele>
        <time>1970-01-01T00:07:30.000Z</time>
      </trkpt>
      <trkpt lat="42.299472" lon="-8.79478">
        <ele>127.3</ele>
        <time>1970-01-01T00:07:31.000Z</time>
      </trkpt>
      <trkpt lat="42.299465" lon="-8.794775">
        <ele>127.3</ele>
        <time>1970-01-01T00:07:32.000Z</time>
      </trkpt>
      <trkpt lat="42.299455" lon="-8.794775">
        <ele>127.3</ele>
        <time>1970-01-01T00:07:33.000Z</time>
      </trkpt>
      <trkpt lat="42.299445" lon="-8.794773">
        <ele>127.3</ele>
        <time>1970-01-01T00:07:34.000Z</time>
      </trkpt>
      <trkpt lat="42.299437" lon="-8.794768">
        <ele>127.3</ele>
        <time>1970-01-01T00:07:35.000Z</time>
      </trkpt>
      <trkpt lat="42.299428" lon="-8.794763">
        <ele>127.3</ele>
        <time>1970-01-01T00:07:36.000Z</time>
      </trkpt>
      <trkpt lat="42.299417" lon="-8.794762">
        <ele>127.3</ele>
        <time>1970-01-01T00:07:37.000Z</time>
      </trkpt>
      <trkpt lat="42.299403" lon="-8.794762">
        <ele>127.3</ele>
        <time>1970-01-01T00:07:38.000Z</time>
      </trkpt>
      <trkpt lat="42.299393" lon="-8.79476">
        <ele>127.3</ele>
        <time>1970-01-01T00:07:39.000Z</time>
      </trkpt>
      <trkpt lat="42.29938" lon="-8.794762">
        <ele>127.3</ele>
        <time>1970-01-01T00:07:40.000Z</time>
      </trkpt>
      <trkpt lat="42.299362" lon="-8.794767">
        <ele>127.3</ele>
        <time>1970-01-01T00:07:41.000Z</time>
      </trkpt>
      <trkpt lat="42.299348" lon="-8.794772">
        <ele>126.3</ele>
        <time>1970-01-01T00:07:42.000Z</time>
      </trkpt>
      <trkpt lat="42.299338" lon="-8.794775">
        <ele>126.3</ele>
        <time>1970-01-01T00:07:43.000Z</time>
      </trkpt>
      <trkpt lat="42.299325" lon="-8.794777">
        <ele>126.3</ele>
        <time>1970-01-01T00:07:44.000Z</time>
      </trkpt>
      <trkpt lat="42.29932" lon="-8.794777">
        <ele>126.3</ele>
        <time>1970-01-01T00:07:45.000Z</time>
      </trkpt>
      <trkpt lat="42.29931" lon="-8.794775">
        <ele>126.3</ele>
        <time>1970-01-01T00:07:46.000Z</time>
      </trkpt>
      <trkpt lat="42.2993" lon="-8.794772">
        <ele>126.3</ele>
        <time>1970-01-01T00:07:47.000Z</time>
      </trkpt>
      <trkpt lat="42.299298" lon="-8.794767">
        <ele>127.3</ele>
        <time>1970-01-01T00:07:48.000Z</time>
      </trkpt>
      <trkpt lat="42.299292" lon="-8.794763">
        <ele>127.3</ele>
        <time>1970-01-01T00:07:49.000Z</time>
      </trkpt>
      <trkpt lat="42.29928" lon="-8.794765">
        <ele>127.3</ele>
        <time>1970-01-01T00:07:50.000Z</time>
      </trkpt>
      <trkpt lat="42.299265" lon="-8.794777">
        <ele>127.3</ele>
        <time>1970-01-01T00:07:51.000Z</time>
      </trkpt>
      <trkpt lat="42.299248" lon="-8.794783">
        <ele>127.3</ele>
        <time>1970-01-01T00:07:52.000Z</time>
      </trkpt>
      <trkpt lat="42.299227" lon="-8.79479">
        <ele>127.3</ele>
        <time>1970-01-01T00:07:53.000Z</time>
      </trkpt>
      <trkpt lat="42.29922" lon="-8.794787">
        <ele>127.3</ele>
        <time>1970-01-01T00:07:54.000Z</time>
      </trkpt>
      <trkpt lat="42.299203" lon="-8.794787">
        <ele>127.3</ele>
        <time>1970-01-01T00:07:55.000Z</time>
      </trkpt>
      <trkpt lat="42.29919" lon="-8.794793">
        <ele>127.3</ele>
        <time>1970-01-01T00:07:56.000Z</time>
      </trkpt>
      <trkpt lat="42.299175" lon="-8.794798">
        <ele>127.3</ele>
        <time>1970-01-01T00:07:57.000Z</time>
      </trkpt>
      <trkpt lat="42.299167" lon="-8.794807">
        <ele>126.3</ele>
        <time>1970-01-01T00:07:58.000Z</time>
      </trkpt>
      <trkpt lat="42.299157" lon="-8.794808">
        <ele>126.3</ele>
        <time>1970-01-01T00:07:59.000Z</time>
      </trkpt>
      <trkpt lat="42.299147" lon="-8.794807">
        <ele>126.3</ele>
        <time>1970-01-01T00:08:00.000Z</time>
      </trkpt>
      <trkpt lat="42.299137" lon="-8.794798">
        <ele>126.3</ele>
        <time>1970-01-01T00:08:01.000Z</time>
      </trkpt>
      <trkpt lat="42.299133" lon="-8.794788">
        <ele>126.3</ele>
        <time>1970-01-01T00:08:02.000Z</time>
      </trkpt>
      <trkpt lat="42.299133" lon="-8.794775">
        <ele>126.3</ele>
        <time>1970-01-01T00:08:03.000Z</time>
      </trkpt>
      <trkpt lat="42.299128" lon="-8.794773">
        <ele>126.3</ele>
        <time>1970-01-01T00:08:04.000Z</time>
      </trkpt>
      <trkpt lat="42.299122" lon="-8.794765">
        <ele>126.3</ele>
        <time>1970-01-01T00:08:05.000Z</time>
      </trkpt>
      <trkpt lat="42.299118" lon="-8.794772">
        <ele>126.3</ele>
        <time>1970-01-01T00:08:06.000Z</time>
      </trkpt>
      <trkpt lat="42.299107" lon="-8.794773">
        <ele>126.3</ele>
        <time>1970-01-01T00:08:07.000Z</time>
      </trkpt>
      <trkpt lat="42.299093" lon="-8.794772">
        <ele>126.3</ele>
        <time>1970-01-01T00:08:08.000Z</time>
      </trkpt>
      <trkpt lat="42.299072" lon="-8.794777">
        <ele>126.3</ele>
        <time>1970-01-01T00:08:09.000Z</time>
      </trkpt>
      <trkpt lat="42.299058" lon="-8.794777">
        <ele>126.3</ele>
        <time>1970-01-01T00:08:10.000Z</time>
      </trkpt>
      <trkpt lat="42.29905" lon="-8.79478">
        <ele>126.3</ele>
        <time>1970-01-01T00:08:11.000Z</time>
      </trkpt>
      <trkpt lat="42.299037" lon="-8.794793">
        <ele>126.3</ele>
        <time>1970-01-01T00:08:12.000Z</time>
      </trkpt>
      <trkpt lat="42.299022" lon="-8.794802">
        <ele>126.3</ele>
        <time>1970-01-01T00:08:13.000Z</time>
      </trkpt>
      <trkpt lat="42.299007" lon="-8.794817">
        <ele>125.3</ele>
        <time>1970-01-01T00:08:14.000Z</time>
      </trkpt>
      <trkpt lat="42.298995" lon="-8.794838">
        <ele>125.3</ele>
        <time>1970-01-01T00:08:15.000Z</time>
      </trkpt>
      <trkpt lat="42.298987" lon="-8.794862">
        <ele>125.3</ele>
        <time>1970-01-01T00:08:16.000Z</time>
      </trkpt>
      <trkpt lat="42.29898" lon="-8.794878">
        <ele>125.3</ele>
        <time>1970-01-01T00:08:17.000Z</time>
      </trkpt>
      <trkpt lat="42.29898" lon="-8.794888">
        <ele>125.3</ele>
        <time>1970-01-01T00:08:18.000Z</time>
      </trkpt>
      <trkpt lat="42.298977" lon="-8.794908">
        <ele>125.3</ele>
        <time>1970-01-01T00:08:19.000Z</time>
      </trkpt>
      <trkpt lat="42.29897" lon="-8.794927">
        <ele>125.3</ele>
        <time>1970-01-01T00:08:20.000Z</time>
      </trkpt>
      <trkpt lat="42.29896" lon="-8.794933">
        <ele>125.3</ele>
        <time>1970-01-01T00:08:21.000Z</time>
      </trkpt>
      <trkpt lat="42.298948" lon="-8.794945">
        <ele>125.3</ele>
        <time>1970-01-01T00:08:22.000Z</time>
      </trkpt>
      <trkpt lat="42.29894" lon="-8.794957">
        <ele>125.3</ele>
        <time>1970-01-01T00:08:23.000Z</time>
      </trkpt>
      <trkpt lat="42.298937" lon="-8.794978">
        <ele>123.3</ele>
        <time>1970-01-01T00:08:24.000Z</time>
      </trkpt>
      <trkpt lat="42.298942" lon="-8.794997">
        <ele>123.3</ele>
        <time>1970-01-01T00:08:25.000Z</time>
      </trkpt>
      <trkpt lat="42.298933" lon="-8.795008">
        <ele>123.3</ele>
        <time>1970-01-01T00:08:26.000Z</time>
      </trkpt>
      <trkpt lat="42.298922" lon="-8.795015">
        <ele>123.3</ele>
        <time>1970-01-01T00:08:27.000Z</time>
      </trkpt>
      <trkpt lat="42.29891" lon="-8.795028">
        <ele>123.3</ele>
        <time>1970-01-01T00:08:28.000Z</time>
      </trkpt>
      <trkpt lat="42.298898" lon="-8.795047">
        <ele>123.3</ele>
        <time>1970-01-01T00:08:29.000Z</time>
      </trkpt>
      <trkpt lat="42.298893" lon="-8.795063">
        <ele>122.2</ele>
        <time>1970-01-01T00:08:30.000Z</time>
      </trkpt>
      <trkpt lat="42.298892" lon="-8.795078">
        <ele>122.2</ele>
        <time>1970-01-01T00:08:31.000Z</time>
      </trkpt>
      <trkpt lat="42.298885" lon="-8.79509">
        <ele>122.2</ele>
        <time>1970-01-01T00:08:32.000Z</time>
      </trkpt>
      <trkpt lat="42.298882" lon="-8.795103">
        <ele>122.2</ele>
        <time>1970-01-01T00:08:33.000Z</time>
      </trkpt>
      <trkpt lat="42.298878" lon="-8.795117">
        <ele>122.2</ele>
        <time>1970-01-01T00:08:34.000Z</time>
      </trkpt>
      <trkpt lat="42.298877" lon="-8.79513">
        <ele>122.2</ele>
        <time>1970-01-01T00:08:35.000Z</time>
      </trkpt>
      <trkpt lat="42.298877" lon="-8.795142">
        <ele>121.3</ele>
        <time>1970-01-01T00:08:36.000Z</time>
      </trkpt>
      <trkpt lat="42.298873" lon="-8.795155">
        <ele>121.3</ele>
        <time>1970-01-01T00:08:37.000Z</time>
      </trkpt>
      <trkpt lat="42.298873" lon="-8.795168">
        <ele>120.2</ele>
        <time>1970-01-01T00:08:38.000Z</time>
      </trkpt>
      <trkpt lat="42.298868" lon="-8.795185">
        <ele>120.2</ele>
        <time>1970-01-01T00:08:39.000Z</time>
      </trkpt>
      <trkpt lat="42.29886" lon="-8.795197">
        <ele>120.2</ele>
        <time>1970-01-01T00:08:40.000Z</time>
      </trkpt>
      <trkpt lat="42.298857" lon="-8.7952">
        <ele>120.2</ele>
        <time>1970-01-01T00:08:41.000Z</time>
      </trkpt>
      <trkpt lat="42.298847" lon="-8.795207">
        <ele>120.2</ele>
        <time>1970-01-01T00:08:42.000Z</time>
      </trkpt>
      <trkpt lat="42.298843" lon="-8.795208">
        <ele>120.2</ele>
        <time>1970-01-01T00:08:43.000Z</time>
      </trkpt>
      <trkpt lat="42.298835" lon="-8.795217">
        <ele>119.3</ele>
        <time>1970-01-01T00:08:44.000Z</time>
      </trkpt>
      <trkpt lat="42.298832" lon="-8.79522">
        <ele>119.3</ele>
        <time>1970-01-01T00:08:45.000Z</time>
      </trkpt>
      <trkpt lat="42.298828" lon="-8.795227">
        <ele>119.3</ele>
        <time>1970-01-01T00:08:46.000Z</time>
      </trkpt>
      <trkpt lat="42.298823" lon="-8.795233">
        <ele>119.3</ele>
        <time>1970-01-01T00:08:47.000Z</time>
      </trkpt>
      <trkpt lat="42.298822" lon="-8.795238">
        <ele>118.3</ele>
        <time>1970-01-01T00:08:48.000Z</time>
      </trkpt>
      <trkpt lat="42.29882" lon="-8.79524">
        <ele>118.3</ele>
        <time>1970-01-01T00:08:49.000Z</time>
      </trkpt>
      <trkpt lat="42.298808" lon="-8.795247">
        <ele>118.3</ele>
        <time>1970-01-01T00:08:50.000Z</time>
      </trkpt>
      <trkpt lat="42.2988" lon="-8.795253">
        <ele>118.3</ele>
        <time>1970-01-01T00:08:51.000Z</time>
      </trkpt>
      <trkpt lat="42.298797" lon="-8.795253">
        <ele>118.3</ele>
        <time>1970-01-01T00:08:52.000Z</time>
      </trkpt>
      <trkpt lat="42.298793" lon="-8.795255">
        <ele>118.3</ele>
        <time>1970-01-01T00:08:53.000Z</time>
      </trkpt>
      <trkpt lat="42.298792" lon="-8.795253">
        <ele>118.3</ele>
        <time>1970-01-01T00:08:54.000Z</time>
      </trkpt>
      <trkpt lat="42.298788" lon="-8.795255">
        <ele>118.3</ele>
        <time>1970-01-01T00:08:55.000Z</time>
      </trkpt>
      <trkpt lat="42.298787" lon="-8.795257">
        <ele>118.3</ele>
        <time>1970-01-01T00:08:56.000Z</time>
      </trkpt>
      <trkpt lat="42.298778" lon="-8.795257">
        <ele>118.3</ele>
        <time>1970-01-01T00:08:57.000Z</time>
      </trkpt>
      <trkpt lat="42.298777" lon="-8.79526">
        <ele>118.3</ele>
        <time>1970-01-01T00:08:58.000Z</time>
      </trkpt>
      <trkpt lat="42.298762" lon="-8.795267">
        <ele>118.3</ele>
        <time>1970-01-01T00:08:59.000Z</time>
      </trkpt>
      <trkpt lat="42.298745" lon="-8.795275">
        <ele>119.3</ele>
        <time>1970-01-01T00:09:00.000Z</time>
      </trkpt>
      <trkpt lat="42.29873" lon="-8.795285">
        <ele>119.3</ele>
        <time>1970-01-01T00:09:01.000Z</time>
      </trkpt>
      <trkpt lat="42.298727" lon="-8.795298">
        <ele>119.3</ele>
        <time>1970-01-01T00:09:02.000Z</time>
      </trkpt>
      <trkpt lat="42.29872" lon="-8.795312">
        <ele>119.3</ele>
        <time>1970-01-01T00:09:03.000Z</time>
      </trkpt>
      <trkpt lat="42.298703" lon="-8.795323">
        <ele>119.3</ele>
        <time>1970-01-01T00:09:04.000Z</time>
      </trkpt>
      <trkpt lat="42.298698" lon="-8.795337">
        <ele>119.3</ele>
        <time>1970-01-01T00:09:05.000Z</time>
      </trkpt>
      <trkpt lat="42.298685" lon="-8.795355">
        <ele>118.3</ele>
        <time>1970-01-01T00:09:06.000Z</time>
      </trkpt>
      <trkpt lat="42.298678" lon="-8.795368">
        <ele>118.3</ele>
        <time>1970-01-01T00:09:07.000Z</time>
      </trkpt>
      <trkpt lat="42.298667" lon="-8.795385">
        <ele>118.3</ele>
        <time>1970-01-01T00:09:08.000Z</time>
      </trkpt>
      <trkpt lat="42.298665" lon="-8.795398">
        <ele>118.3</ele>
        <time>1970-01-01T00:09:09.000Z</time>
      </trkpt>
      <trkpt lat="42.298668" lon="-8.795407">
        <ele>118.3</ele>
        <time>1970-01-01T00:09:10.000Z</time>
      </trkpt>
      <trkpt lat="42.29867" lon="-8.795418">
        <ele>118.3</ele>
        <time>1970-01-01T00:09:11.000Z</time>
      </trkpt>
      <trkpt lat="42.298668" lon="-8.795425">
        <ele>117.2</ele>
        <time>1970-01-01T00:09:12.000Z</time>
      </trkpt>
      <trkpt lat="42.298662" lon="-8.79544">
        <ele>117.2</ele>
        <time>1970-01-01T00:09:13.000Z</time>
      </trkpt>
      <trkpt lat="42.298655" lon="-8.795457">
        <ele>117.2</ele>
        <time>1970-01-01T00:09:14.000Z</time>
      </trkpt>
      <trkpt lat="42.29865" lon="-8.79547">
        <ele>117.2</ele>
        <time>1970-01-01T00:09:15.000Z</time>
      </trkpt>
      <trkpt lat="42.298645" lon="-8.795478">
        <ele>117.2</ele>
        <time>1970-01-01T00:09:16.000Z</time>
      </trkpt>
      <trkpt lat="42.29864" lon="-8.795488">
        <ele>117.2</ele>
        <time>1970-01-01T00:09:17.000Z</time>
      </trkpt>
      <trkpt lat="42.298627" lon="-8.7955">
        <ele>118.3</ele>
        <time>1970-01-01T00:09:18.000Z</time>
      </trkpt>
      <trkpt lat="42.298615" lon="-8.795508">
        <ele>118.3</ele>
        <time>1970-01-01T00:09:19.000Z</time>
      </trkpt>
      <trkpt lat="42.298602" lon="-8.795515">
        <ele>118.3</ele>
        <time>1970-01-01T00:09:20.000Z</time>
      </trkpt>
      <trkpt lat="42.298592" lon="-8.795522">
        <ele>118.3</ele>
        <time>1970-01-01T00:09:21.000Z</time>
      </trkpt>
      <trkpt lat="42.29858" lon="-8.795533">
        <ele>118.3</ele>
        <time>1970-01-01T00:09:22.000Z</time>
      </trkpt>
      <trkpt lat="42.298567" lon="-8.795537">
        <ele>118.3</ele>
        <time>1970-01-01T00:09:23.000Z</time>
      </trkpt>
      <trkpt lat="42.298562" lon="-8.795555">
        <ele>118.3</ele>
        <time>1970-01-01T00:09:24.000Z</time>
      </trkpt>
      <trkpt lat="42.298558" lon="-8.795567">
        <ele>118.3</ele>
        <time>1970-01-01T00:09:25.000Z</time>
      </trkpt>
      <trkpt lat="42.298552" lon="-8.79558">
        <ele>118.3</ele>
        <time>1970-01-01T00:09:26.000Z</time>
      </trkpt>
      <trkpt lat="42.298542" lon="-8.795602">
        <ele>118.3</ele>
        <time>1970-01-01T00:09:27.000Z</time>
      </trkpt>
      <trkpt lat="42.298538" lon="-8.795607">
        <ele>118.3</ele>
        <time>1970-01-01T00:09:28.000Z</time>
      </trkpt>
      <trkpt lat="42.298528" lon="-8.795623">
        <ele>118.3</ele>
        <time>1970-01-01T00:09:29.000Z</time>
      </trkpt>
      <trkpt lat="42.298527" lon="-8.795638">
        <ele>118.3</ele>
        <time>1970-01-01T00:09:30.000Z</time>
      </trkpt>
      <trkpt lat="42.298525" lon="-8.795655">
        <ele>118.3</ele>
        <time>1970-01-01T00:09:31.000Z</time>
      </trkpt>
      <trkpt lat="42.298528" lon="-8.79567">
        <ele>118.3</ele>
        <time>1970-01-01T00:09:32.000Z</time>
      </trkpt>
      <trkpt lat="42.298527" lon="-8.795685">
        <ele>118.3</ele>
        <time>1970-01-01T00:09:33.000Z</time>
      </trkpt>
      <trkpt lat="42.298522" lon="-8.795703">
        <ele>119.3</ele>
        <time>1970-01-01T00:09:34.000Z</time>
      </trkpt>
      <trkpt lat="42.29852" lon="-8.795725">
        <ele>119.3</ele>
        <time>1970-01-01T00:09:35.000Z</time>
      </trkpt>
      <trkpt lat="42.298515" lon="-8.795743">
        <ele>119.3</ele>
        <time>1970-01-01T00:09:36.000Z</time>
      </trkpt>
      <trkpt lat="42.298512" lon="-8.79577">
        <ele>119.3</ele>
        <time>1970-01-01T00:09:37.000Z</time>
      </trkpt>
      <trkpt lat="42.298508" lon="-8.795793">
        <ele>119.3</ele>
        <time>1970-01-01T00:09:38.000Z</time>
      </trkpt>
      <trkpt lat="42.29851" lon="-8.79581">
        <ele>119.3</ele>
        <time>1970-01-01T00:09:39.000Z</time>
      </trkpt>
      <trkpt lat="42.298513" lon="-8.795823">
        <ele>119.3</ele>
        <time>1970-01-01T00:09:40.000Z</time>
      </trkpt>
      <trkpt lat="42.298513" lon="-8.795843">
        <ele>119.3</ele>
        <time>1970-01-01T00:09:41.000Z</time>
      </trkpt>
      <trkpt lat="42.298515" lon="-8.795858">
        <ele>119.3</ele>
        <time>1970-01-01T00:09:42.000Z</time>
      </trkpt>
      <trkpt lat="42.298518" lon="-8.79588">
        <ele>119.3</ele>
        <time>1970-01-01T00:09:43.000Z</time>
      </trkpt>
      <trkpt lat="42.29852" lon="-8.795898">
        <ele>119.3</ele>
        <time>1970-01-01T00:09:44.000Z</time>
      </trkpt>
      <trkpt lat="42.298525" lon="-8.795913">
        <ele>119.3</ele>
        <time>1970-01-01T00:09:45.000Z</time>
      </trkpt>
      <trkpt lat="42.29853" lon="-8.795928">
        <ele>118.3</ele>
        <time>1970-01-01T00:09:46.000Z</time>
      </trkpt>
      <trkpt lat="42.298535" lon="-8.795947">
        <ele>118.3</ele>
        <time>1970-01-01T00:09:47.000Z</time>
      </trkpt>
      <trkpt lat="42.298542" lon="-8.795968">
        <ele>118.3</ele>
        <time>1970-01-01T00:09:48.000Z</time>
      </trkpt>
      <trkpt lat="42.298547" lon="-8.795988">
        <ele>118.3</ele>
        <time>1970-01-01T00:09:49.000Z</time>
      </trkpt>
      <trkpt lat="42.298548" lon="-8.796012">
        <ele>117.2</ele>
        <time>1970-01-01T00:09:50.000Z</time>
      </trkpt>
      <trkpt lat="42.29855" lon="-8.796033">
        <ele>117.2</ele>
        <time>1970-01-01T00:09:51.000Z</time>
      </trkpt>
      <trkpt lat="42.298555" lon="-8.796053">
        <ele>117.2</ele>
        <time>1970-01-01T00:09:52.000Z</time>
      </trkpt>
      <trkpt lat="42.298557" lon="-8.796072">
        <ele>117.2</ele>
        <time>1970-01-01T00:09:53.000Z</time>
      </trkpt>
      <trkpt lat="42.29856" lon="-8.796088">
        <ele>117.2</ele>
        <time>1970-01-01T00:09:54.000Z</time>
      </trkpt>
      <trkpt lat="42.298562" lon="-8.796107">
        <ele>117.2</ele>
        <time>1970-01-01T00:09:55.000Z</time>
      </trkpt>
      <trkpt lat="42.298572" lon="-8.796123">
        <ele>117.2</ele>
        <time>1970-01-01T00:09:56.000Z</time>
      </trkpt>
      <trkpt lat="42.298578" lon="-8.796143">
        <ele>117.2</ele>
        <time>1970-01-01T00:09:57.000Z</time>
      </trkpt>
      <trkpt lat="42.298585" lon="-8.796162">
        <ele>117.2</ele>
        <time>1970-01-01T00:09:58.000Z</time>
      </trkpt>
      <trkpt lat="42.298593" lon="-8.796177">
        <ele>117.2</ele>
        <time>1970-01-01T00:09:59.000Z</time>
      </trkpt>
      <trkpt lat="42.2986" lon="-8.796188">
        <ele>117.2</ele>
        <time>1970-01-01T00:10:00.000Z</time>
      </trkpt>
      <trkpt lat="42.298603" lon="-8.796202">
        <ele>117.2</ele>
        <time>1970-01-01T00:10:01.000Z</time>
      </trkpt>
      <trkpt lat="42.29861" lon="-8.79622">
        <ele>117.2</ele>
        <time>1970-01-01T00:10:02.000Z</time>
      </trkpt>
      <trkpt lat="42.298618" lon="-8.79624">
        <ele>117.2</ele>
        <time>1970-01-01T00:10:03.000Z</time>
      </trkpt>
      <trkpt lat="42.298628" lon="-8.79626">
        <ele>117.2</ele>
        <time>1970-01-01T00:10:04.000Z</time>
      </trkpt>
      <trkpt lat="42.298633" lon="-8.796275">
        <ele>117.2</ele>
        <time>1970-01-01T00:10:05.000Z</time>
      </trkpt>
      <trkpt lat="42.298638" lon="-8.796287">
        <ele>117.2</ele>
        <time>1970-01-01T00:10:06.000Z</time>
      </trkpt>
      <trkpt lat="42.298642" lon="-8.796298">
        <ele>117.2</ele>
        <time>1970-01-01T00:10:07.000Z</time>
      </trkpt>
      <trkpt lat="42.298647" lon="-8.796307">
        <ele>117.2</ele>
        <time>1970-01-01T00:10:08.000Z</time>
      </trkpt>
      <trkpt lat="42.29865" lon="-8.796318">
        <ele>117.2</ele>
        <time>1970-01-01T00:10:09.000Z</time>
      </trkpt>
      <trkpt lat="42.298657" lon="-8.796333">
        <ele>117.2</ele>
        <time>1970-01-01T00:10:10.000Z</time>
      </trkpt>
      <trkpt lat="42.29866" lon="-8.79635">
        <ele>117.2</ele>
        <time>1970-01-01T00:10:11.000Z</time>
      </trkpt>
      <trkpt lat="42.298667" lon="-8.796363">
        <ele>117.2</ele>
        <time>1970-01-01T00:10:12.000Z</time>
      </trkpt>
      <trkpt lat="42.298668" lon="-8.796372">
        <ele>117.2</ele>
        <time>1970-01-01T00:10:13.000Z</time>
      </trkpt>
      <trkpt lat="42.298672" lon="-8.796387">
        <ele>117.2</ele>
        <time>1970-01-01T00:10:14.000Z</time>
      </trkpt>
      <trkpt lat="42.298677" lon="-8.79641">
        <ele>117.2</ele>
        <time>1970-01-01T00:10:15.000Z</time>
      </trkpt>
      <trkpt lat="42.29868" lon="-8.796442">
        <ele>117.2</ele>
        <time>1970-01-01T00:10:16.000Z</time>
      </trkpt>
      <trkpt lat="42.298685" lon="-8.796447">
        <ele>117.2</ele>
        <time>1970-01-01T00:10:17.000Z</time>
      </trkpt>
      <trkpt lat="42.298692" lon="-8.796463">
        <ele>117.2</ele>
        <time>1970-01-01T00:10:18.000Z</time>
      </trkpt>
      <trkpt lat="42.298697" lon="-8.796478">
        <ele>117.2</ele>
        <time>1970-01-01T00:10:19.000Z</time>
      </trkpt>
      <trkpt lat="42.298695" lon="-8.796492">
        <ele>117.2</ele>
        <time>1970-01-01T00:10:20.000Z</time>
      </trkpt>
      <trkpt lat="42.298693" lon="-8.796507">
        <ele>117.2</ele>
        <time>1970-01-01T00:10:21.000Z</time>
      </trkpt>
      <trkpt lat="42.298692" lon="-8.796523">
        <ele>117.2</ele>
        <time>1970-01-01T00:10:22.000Z</time>
      </trkpt>
      <trkpt lat="42.298693" lon="-8.796538">
        <ele>117.2</ele>
        <time>1970-01-01T00:10:23.000Z</time>
      </trkpt>
      <trkpt lat="42.298697" lon="-8.796552">
        <ele>117.2</ele>
        <time>1970-01-01T00:10:24.000Z</time>
      </trkpt>
      <trkpt lat="42.2987" lon="-8.796565">
        <ele>117.2</ele>
        <time>1970-01-01T00:10:25.000Z</time>
      </trkpt>
      <trkpt lat="42.2987" lon="-8.79658">
        <ele>117.2</ele>
        <time>1970-01-01T00:10:26.000Z</time>
      </trkpt>
      <trkpt lat="42.2987" lon="-8.796595">
        <ele>117.2</ele>
        <time>1970-01-01T00:10:27.000Z</time>
      </trkpt>
      <trkpt lat="42.298703" lon="-8.796607">
        <ele>117.2</ele>
        <time>1970-01-01T00:10:28.000Z</time>
      </trkpt>
      <trkpt lat="42.298712" lon="-8.79662">
        <ele>117.2</ele>
        <time>1970-01-01T00:10:29.000Z</time>
      </trkpt>
      <trkpt lat="42.298717" lon="-8.796635">
        <ele>117.2</ele>
        <time>1970-01-01T00:10:30.000Z</time>
      </trkpt>
      <trkpt lat="42.298722" lon="-8.796647">
        <ele>117.2</ele>
        <time>1970-01-01T00:10:31.000Z</time>
      </trkpt>
      <trkpt lat="42.298723" lon="-8.79666">
        <ele>117.2</ele>
        <time>1970-01-01T00:10:32.000Z</time>
      </trkpt>
      <trkpt lat="42.298727" lon="-8.796675">
        <ele>117.2</ele>
        <time>1970-01-01T00:10:33.000Z</time>
      </trkpt>
      <trkpt lat="42.298728" lon="-8.796692">
        <ele>117.2</ele>
        <time>1970-01-01T00:10:34.000Z</time>
      </trkpt>
      <trkpt lat="42.29873" lon="-8.796707">
        <ele>117.2</ele>
        <time>1970-01-01T00:10:35.000Z</time>
      </trkpt>
      <trkpt lat="42.298733" lon="-8.79672">
        <ele>117.2</ele>
        <time>1970-01-01T00:10:36.000Z</time>
      </trkpt>
      <trkpt lat="42.298735" lon="-8.796733">
        <ele>117.2</ele>
        <time>1970-01-01T00:10:37.000Z</time>
      </trkpt>
      <trkpt lat="42.298733" lon="-8.79675">
        <ele>117.2</ele>
        <time>1970-01-01T00:10:38.000Z</time>
      </trkpt>
      <trkpt lat="42.298733" lon="-8.796765">
        <ele>117.2</ele>
        <time>1970-01-01T00:10:39.000Z</time>
      </trkpt>
      <trkpt lat="42.298733" lon="-8.796777">
        <ele>117.2</ele>
        <time>1970-01-01T00:10:40.000Z</time>
      </trkpt>
      <trkpt lat="42.298733" lon="-8.79679">
        <ele>117.2</ele>
        <time>1970-01-01T00:10:41.000Z</time>
      </trkpt>
      <trkpt lat="42.298733" lon="-8.796802">
        <ele>117.2</ele>
        <time>1970-01-01T00:10:42.000Z</time>
      </trkpt>
      <trkpt lat="42.298733" lon="-8.796817">
        <ele>117.2</ele>
        <time>1970-01-01T00:10:43.000Z</time>
      </trkpt>
      <trkpt lat="42.298737" lon="-8.796827">
        <ele>117.2</ele>
        <time>1970-01-01T00:10:44.000Z</time>
      </trkpt>
      <trkpt lat="42.29874" lon="-8.796838">
        <ele>117.2</ele>
        <time>1970-01-01T00:10:45.000Z</time>
      </trkpt>
      <trkpt lat="42.298742" lon="-8.796855">
        <ele>117.2</ele>
        <time>1970-01-01T00:10:46.000Z</time>
      </trkpt>
      <trkpt lat="42.298743" lon="-8.796873">
        <ele>117.2</ele>
        <time>1970-01-01T00:10:47.000Z</time>
      </trkpt>
      <trkpt lat="42.298745" lon="-8.796888">
        <ele>117.2</ele>
        <time>1970-01-01T00:10:48.000Z</time>
      </trkpt>
      <trkpt lat="42.298745" lon="-8.796903">
        <ele>117.2</ele>
        <time>1970-01-01T00:10:49.000Z</time>
      </trkpt>
      <trkpt lat="42.298745" lon="-8.796922">
        <ele>117.2</ele>
        <time>1970-01-01T00:10:50.000Z</time>
      </trkpt>
      <trkpt lat="42.298742" lon="-8.79694">
        <ele>117.2</ele>
        <time>1970-01-01T00:10:51.000Z</time>
      </trkpt>
      <trkpt lat="42.29874" lon="-8.796958">
        <ele>117.2</ele>
        <time>1970-01-01T00:10:52.000Z</time>
      </trkpt>
      <trkpt lat="42.29874" lon="-8.796973">
        <ele>117.2</ele>
        <time>1970-01-01T00:10:53.000Z</time>
      </trkpt>
      <trkpt lat="42.29874" lon="-8.796987">
        <ele>116.3</ele>
        <time>1970-01-01T00:10:54.000Z</time>
      </trkpt>
      <trkpt lat="42.298743" lon="-8.796997">
        <ele>116.3</ele>
        <time>1970-01-01T00:10:55.000Z</time>
      </trkpt>
      <trkpt lat="42.29874" lon="-8.797015">
        <ele>116.3</ele>
        <time>1970-01-01T00:10:56.000Z</time>
      </trkpt>
      <trkpt lat="42.29874" lon="-8.79703">
        <ele>116.3</ele>
        <time>1970-01-01T00:10:57.000Z</time>
      </trkpt>
      <trkpt lat="42.298733" lon="-8.797048">
        <ele>116.3</ele>
        <time>1970-01-01T00:10:58.000Z</time>
      </trkpt>
      <trkpt lat="42.298723" lon="-8.797072">
        <ele>116.3</ele>
        <time>1970-01-01T00:10:59.000Z</time>
      </trkpt>
      <trkpt lat="42.298713" lon="-8.797087">
        <ele>116.3</ele>
        <time>1970-01-01T00:11:00.000Z</time>
      </trkpt>
      <trkpt lat="42.298708" lon="-8.797105">
        <ele>116.3</ele>
        <time>1970-01-01T00:11:01.000Z</time>
      </trkpt>
      <trkpt lat="42.298715" lon="-8.797123">
        <ele>116.3</ele>
        <time>1970-01-01T00:11:02.000Z</time>
      </trkpt>
      <trkpt lat="42.298712" lon="-8.797135">
        <ele>116.3</ele>
        <time>1970-01-01T00:11:03.000Z</time>
      </trkpt>
      <trkpt lat="42.298708" lon="-8.797147">
        <ele>116.3</ele>
        <time>1970-01-01T00:11:04.000Z</time>
      </trkpt>
      <trkpt lat="42.2987" lon="-8.797155">
        <ele>116.3</ele>
        <time>1970-01-01T00:11:05.000Z</time>
      </trkpt>
      <trkpt lat="42.298695" lon="-8.797173">
        <ele>116.3</ele>
        <time>1970-01-01T00:11:06.000Z</time>
      </trkpt>
      <trkpt lat="42.298692" lon="-8.797188">
        <ele>116.3</ele>
        <time>1970-01-01T00:11:07.000Z</time>
      </trkpt>
      <trkpt lat="42.298688" lon="-8.797203">
        <ele>116.3</ele>
        <time>1970-01-01T00:11:08.000Z</time>
      </trkpt>
      <trkpt lat="42.298685" lon="-8.797215">
        <ele>116.3</ele>
        <time>1970-01-01T00:11:09.000Z</time>
      </trkpt>
      <trkpt lat="42.29868" lon="-8.797228">
        <ele>116.3</ele>
        <time>1970-01-01T00:11:10.000Z</time>
      </trkpt>
      <trkpt lat="42.298673" lon="-8.797242">
        <ele>116.3</ele>
        <time>1970-01-01T00:11:11.000Z</time>
      </trkpt>
      <trkpt lat="42.298667" lon="-8.79725">
        <ele>116.3</ele>
        <time>1970-01-01T00:11:12.000Z</time>
      </trkpt>
      <trkpt lat="42.298658" lon="-8.797255">
        <ele>116.3</ele>
        <time>1970-01-01T00:11:13.000Z</time>
      </trkpt>
      <trkpt lat="42.298653" lon="-8.797265">
        <ele>116.3</ele>
        <time>1970-01-01T00:11:14.000Z</time>
      </trkpt>
      <trkpt lat="42.298648" lon="-8.797277">
        <ele>116.3</ele>
        <time>1970-01-01T00:11:15.000Z</time>
      </trkpt>
      <trkpt lat="42.298645" lon="-8.797287">
        <ele>114.3</ele>
        <time>1970-01-01T00:11:16.000Z</time>
      </trkpt>
      <trkpt lat="42.298638" lon="-8.797295">
        <ele>114.3</ele>
        <time>1970-01-01T00:11:17.000Z</time>
      </trkpt>
      <trkpt lat="42.298628" lon="-8.79731">
        <ele>114.3</ele>
        <time>1970-01-01T00:11:18.000Z</time>
      </trkpt>
      <trkpt lat="42.298623" lon="-8.797325">
        <ele>114.3</ele>
        <time>1970-01-01T00:11:19.000Z</time>
      </trkpt>
      <trkpt lat="42.298617" lon="-8.797335">
        <ele>113.2</ele>
        <time>1970-01-01T00:11:20.000Z</time>
      </trkpt>
      <trkpt lat="42.298613" lon="-8.797347">
        <ele>113.2</ele>
        <time>1970-01-01T00:11:21.000Z</time>
      </trkpt>
      <trkpt lat="42.298612" lon="-8.797357">
        <ele>113.2</ele>
        <time>1970-01-01T00:11:22.000Z</time>
      </trkpt>
      <trkpt lat="42.298605" lon="-8.797368">
        <ele>113.2</ele>
        <time>1970-01-01T00:11:23.000Z</time>
      </trkpt>
      <trkpt lat="42.298597" lon="-8.797385">
        <ele>113.2</ele>
        <time>1970-01-01T00:11:24.000Z</time>
      </trkpt>
      <trkpt lat="42.298593" lon="-8.797398">
        <ele>113.2</ele>
        <time>1970-01-01T00:11:25.000Z</time>
      </trkpt>
      <trkpt lat="42.298593" lon="-8.79741">
        <ele>113.2</ele>
        <time>1970-01-01T00:11:26.000Z</time>
      </trkpt>
      <trkpt lat="42.298593" lon="-8.797428">
        <ele>113.2</ele>
        <time>1970-01-01T00:11:27.000Z</time>
      </trkpt>
      <trkpt lat="42.298593" lon="-8.797445">
        <ele>113.2</ele>
        <time>1970-01-01T00:11:28.000Z</time>
      </trkpt>
      <trkpt lat="42.298597" lon="-8.79746">
        <ele>113.2</ele>
        <time>1970-01-01T00:11:29.000Z</time>
      </trkpt>
      <trkpt lat="42.298598" lon="-8.797473">
        <ele>112.3</ele>
        <time>1970-01-01T00:11:30.000Z</time>
      </trkpt>
      <trkpt lat="42.298597" lon="-8.797488">
        <ele>112.3</ele>
        <time>1970-01-01T00:11:31.000Z</time>
      </trkpt>
      <trkpt lat="42.298595" lon="-8.797503">
        <ele>112.3</ele>
        <time>1970-01-01T00:11:32.000Z</time>
      </trkpt>
      <trkpt lat="42.298598" lon="-8.797518">
        <ele>112.3</ele>
        <time>1970-01-01T00:11:33.000Z</time>
      </trkpt>
      <trkpt lat="42.298595" lon="-8.797533">
        <ele>112.3</ele>
        <time>1970-01-01T00:11:34.000Z</time>
      </trkpt>
      <trkpt lat="42.298593" lon="-8.797547">
        <ele>112.3</ele>
        <time>1970-01-01T00:11:35.000Z</time>
      </trkpt>
      <trkpt lat="42.298592" lon="-8.797562">
        <ele>112.3</ele>
        <time>1970-01-01T00:11:36.000Z</time>
      </trkpt>
      <trkpt lat="42.298592" lon="-8.797578">
        <ele>112.3</ele>
        <time>1970-01-01T00:11:37.000Z</time>
      </trkpt>
      <trkpt lat="42.298593" lon="-8.797592">
        <ele>112.3</ele>
        <time>1970-01-01T00:11:38.000Z</time>
      </trkpt>
      <trkpt lat="42.298592" lon="-8.797605">
        <ele>112.3</ele>
        <time>1970-01-01T00:11:39.000Z</time>
      </trkpt>
      <trkpt lat="42.29859" lon="-8.79762">
        <ele>112.3</ele>
        <time>1970-01-01T00:11:40.000Z</time>
      </trkpt>
      <trkpt lat="42.298588" lon="-8.797628">
        <ele>112.3</ele>
        <time>1970-01-01T00:11:41.000Z</time>
      </trkpt>
      <trkpt lat="42.29859" lon="-8.797637">
        <ele>111.3</ele>
        <time>1970-01-01T00:11:42.000Z</time>
      </trkpt>
      <trkpt lat="42.298592" lon="-8.797652">
        <ele>111.3</ele>
        <time>1970-01-01T00:11:43.000Z</time>
      </trkpt>
      <trkpt lat="42.298595" lon="-8.797663">
        <ele>111.3</ele>
        <time>1970-01-01T00:11:44.000Z</time>
      </trkpt>
      <trkpt lat="42.298598" lon="-8.797675">
        <ele>111.3</ele>
        <time>1970-01-01T00:11:45.000Z</time>
      </trkpt>
      <trkpt lat="42.298595" lon="-8.797685">
        <ele>111.3</ele>
        <time>1970-01-01T00:11:46.000Z</time>
      </trkpt>
      <trkpt lat="42.298595" lon="-8.7977">
        <ele>111.3</ele>
        <time>1970-01-01T00:11:47.000Z</time>
      </trkpt>
      <trkpt lat="42.29859" lon="-8.797715">
        <ele>111.3</ele>
        <time>1970-01-01T00:11:48.000Z</time>
      </trkpt>
      <trkpt lat="42.298585" lon="-8.79773">
        <ele>111.3</ele>
        <time>1970-01-01T00:11:49.000Z</time>
      </trkpt>
      <trkpt lat="42.29858" lon="-8.797747">
        <ele>110.3</ele>
        <time>1970-01-01T00:11:50.000Z</time>
      </trkpt>
      <trkpt lat="42.29858" lon="-8.797765">
        <ele>110.3</ele>
        <time>1970-01-01T00:11:51.000Z</time>
      </trkpt>
      <trkpt lat="42.298573" lon="-8.797785">
        <ele>110.3</ele>
        <time>1970-01-01T00:11:52.000Z</time>
      </trkpt>
      <trkpt lat="42.29857" lon="-8.797803">
        <ele>110.3</ele>
        <time>1970-01-01T00:11:53.000Z</time>
      </trkpt>
      <trkpt lat="42.298573" lon="-8.797817">
        <ele>110.3</ele>
        <time>1970-01-01T00:11:54.000Z</time>
      </trkpt>
      <trkpt lat="42.298572" lon="-8.797828">
        <ele>110.3</ele>
        <time>1970-01-01T00:11:55.000Z</time>
      </trkpt>
      <trkpt lat="42.29857" lon="-8.797838">
        <ele>110.3</ele>
        <time>1970-01-01T00:11:56.000Z</time>
      </trkpt>
      <trkpt lat="42.29857" lon="-8.797852">
        <ele>110.3</ele>
        <time>1970-01-01T00:11:57.000Z</time>
      </trkpt>
      <trkpt lat="42.298565" lon="-8.797868">
        <ele>108.2</ele>
        <time>1970-01-01T00:11:58.000Z</time>
      </trkpt>
      <trkpt lat="42.298565" lon="-8.797883">
        <ele>108.2</ele>
        <time>1970-01-01T00:11:59.000Z</time>
      </trkpt>
      <trkpt lat="42.298562" lon="-8.797897">
        <ele>107.3</ele>
        <time>1970-01-01T00:12:00.000Z</time>
      </trkpt>
      <trkpt lat="42.298557" lon="-8.797912">
        <ele>107.3</ele>
        <time>1970-01-01T00:12:01.000Z</time>
      </trkpt>
      <trkpt lat="42.298557" lon="-8.797932">
        <ele>107.3</ele>
        <time>1970-01-01T00:12:02.000Z</time>
      </trkpt>
      <trkpt lat="42.298552" lon="-8.79795">
        <ele>107.3</ele>
        <time>1970-01-01T00:12:03.000Z</time>
      </trkpt>
      <trkpt lat="42.29854" lon="-8.79796">
        <ele>107.3</ele>
        <time>1970-01-01T00:12:04.000Z</time>
      </trkpt>
      <trkpt lat="42.298535" lon="-8.797972">
        <ele>107.3</ele>
        <time>1970-01-01T00:12:05.000Z</time>
      </trkpt>
      <trkpt lat="42.298523" lon="-8.797982">
        <ele>107.3</ele>
        <time>1970-01-01T00:12:06.000Z</time>
      </trkpt>
      <trkpt lat="42.298515" lon="-8.797997">
        <ele>107.3</ele>
        <time>1970-01-01T00:12:07.000Z</time>
      </trkpt>
      <trkpt lat="42.298508" lon="-8.798017">
        <ele>107.3</ele>
        <time>1970-01-01T00:12:08.000Z</time>
      </trkpt>
      <trkpt lat="42.298503" lon="-8.798032">
        <ele>107.3</ele>
        <time>1970-01-01T00:12:09.000Z</time>
      </trkpt>
      <trkpt lat="42.2985" lon="-8.798047">
        <ele>107.3</ele>
        <time>1970-01-01T00:12:10.000Z</time>
      </trkpt>
      <trkpt lat="42.298495" lon="-8.798062">
        <ele>107.3</ele>
        <time>1970-01-01T00:12:11.000Z</time>
      </trkpt>
      <trkpt lat="42.298492" lon="-8.798077">
        <ele>106.2</ele>
        <time>1970-01-01T00:12:12.000Z</time>
      </trkpt>
      <trkpt lat="42.298488" lon="-8.798092">
        <ele>106.2</ele>
        <time>1970-01-01T00:12:13.000Z</time>
      </trkpt>
      <trkpt lat="42.298482" lon="-8.798103">
        <ele>106.2</ele>
        <time>1970-01-01T00:12:14.000Z</time>
      </trkpt>
      <trkpt lat="42.298475" lon="-8.798118">
        <ele>106.2</ele>
        <time>1970-01-01T00:12:15.000Z</time>
      </trkpt>
      <trkpt lat="42.29847" lon="-8.798128">
        <ele>106.2</ele>
        <time>1970-01-01T00:12:16.000Z</time>
      </trkpt>
      <trkpt lat="42.298465" lon="-8.79814">
        <ele>106.2</ele>
        <time>1970-01-01T00:12:17.000Z</time>
      </trkpt>
      <trkpt lat="42.298458" lon="-8.798153">
        <ele>106.2</ele>
        <time>1970-01-01T00:12:18.000Z</time>
      </trkpt>
      <trkpt lat="42.298453" lon="-8.798165">
        <ele>106.2</ele>
        <time>1970-01-01T00:12:19.000Z</time>
      </trkpt>
      <trkpt lat="42.298447" lon="-8.798177">
        <ele>106.2</ele>
        <time>1970-01-01T00:12:20.000Z</time>
      </trkpt>
      <trkpt lat="42.29844" lon="-8.798185">
        <ele>106.2</ele>
        <time>1970-01-01T00:12:21.000Z</time>
      </trkpt>
      <trkpt lat="42.298435" lon="-8.798192">
        <ele>106.2</ele>
        <time>1970-01-01T00:12:22.000Z</time>
      </trkpt>
      <trkpt lat="42.298428" lon="-8.798197">
        <ele>106.2</ele>
        <time>1970-01-01T00:12:23.000Z</time>
      </trkpt>
      <trkpt lat="42.298423" lon="-8.798207">
        <ele>106.2</ele>
        <time>1970-01-01T00:12:24.000Z</time>
      </trkpt>
      <trkpt lat="42.29842" lon="-8.798218">
        <ele>106.2</ele>
        <time>1970-01-01T00:12:25.000Z</time>
      </trkpt>
      <trkpt lat="42.298412" lon="-8.798228">
        <ele>106.2</ele>
        <time>1970-01-01T00:12:26.000Z</time>
      </trkpt>
      <trkpt lat="42.298407" lon="-8.798237">
        <ele>106.2</ele>
        <time>1970-01-01T00:12:27.000Z</time>
      </trkpt>
      <trkpt lat="42.298398" lon="-8.798245">
        <ele>106.2</ele>
        <time>1970-01-01T00:12:28.000Z</time>
      </trkpt>
      <trkpt lat="42.29839" lon="-8.798253">
        <ele>106.2</ele>
        <time>1970-01-01T00:12:29.000Z</time>
      </trkpt>
      <trkpt lat="42.298383" lon="-8.798262">
        <ele>106.2</ele>
        <time>1970-01-01T00:12:30.000Z</time>
      </trkpt>
      <trkpt lat="42.298375" lon="-8.798272">
        <ele>106.2</ele>
        <time>1970-01-01T00:12:31.000Z</time>
      </trkpt>
      <trkpt lat="42.298363" lon="-8.79828">
        <ele>106.2</ele>
        <time>1970-01-01T00:12:32.000Z</time>
      </trkpt>
      <trkpt lat="42.298353" lon="-8.798288">
        <ele>106.2</ele>
        <time>1970-01-01T00:12:33.000Z</time>
      </trkpt>
      <trkpt lat="42.298343" lon="-8.798295">
        <ele>106.2</ele>
        <time>1970-01-01T00:12:34.000Z</time>
      </trkpt>
      <trkpt lat="42.298333" lon="-8.798302">
        <ele>106.2</ele>
        <time>1970-01-01T00:12:35.000Z</time>
      </trkpt>
      <trkpt lat="42.298325" lon="-8.79831">
        <ele>106.2</ele>
        <time>1970-01-01T00:12:36.000Z</time>
      </trkpt>
      <trkpt lat="42.298313" lon="-8.798315">
        <ele>106.2</ele>
        <time>1970-01-01T00:12:37.000Z</time>
      </trkpt>
      <trkpt lat="42.298303" lon="-8.798322">
        <ele>106.2</ele>
        <time>1970-01-01T00:12:38.000Z</time>
      </trkpt>
      <trkpt lat="42.298293" lon="-8.798328">
        <ele>106.2</ele>
        <time>1970-01-01T00:12:39.000Z</time>
      </trkpt>
      <trkpt lat="42.298282" lon="-8.798332">
        <ele>106.2</ele>
        <time>1970-01-01T00:12:40.000Z</time>
      </trkpt>
      <trkpt lat="42.298273" lon="-8.798337">
        <ele>106.2</ele>
        <time>1970-01-01T00:12:41.000Z</time>
      </trkpt>
      <trkpt lat="42.298265" lon="-8.798343">
        <ele>106.2</ele>
        <time>1970-01-01T00:12:42.000Z</time>
      </trkpt>
      <trkpt lat="42.298258" lon="-8.798345">
        <ele>106.2</ele>
        <time>1970-01-01T00:12:43.000Z</time>
      </trkpt>
      <trkpt lat="42.298247" lon="-8.798345">
        <ele>106.2</ele>
        <time>1970-01-01T00:12:44.000Z</time>
      </trkpt>
      <trkpt lat="42.298235" lon="-8.798342">
        <ele>106.2</ele>
        <time>1970-01-01T00:12:45.000Z</time>
      </trkpt>
      <trkpt lat="42.298228" lon="-8.798337">
        <ele>106.2</ele>
        <time>1970-01-01T00:12:46.000Z</time>
      </trkpt>
      <trkpt lat="42.29822" lon="-8.798335">
        <ele>106.2</ele>
        <time>1970-01-01T00:12:47.000Z</time>
      </trkpt>
      <trkpt lat="42.298215" lon="-8.798332">
        <ele>106.2</ele>
        <time>1970-01-01T00:12:48.000Z</time>
      </trkpt>
      <trkpt lat="42.298207" lon="-8.798328">
        <ele>106.2</ele>
        <time>1970-01-01T00:12:49.000Z</time>
      </trkpt>
      <trkpt lat="42.298195" lon="-8.798325">
        <ele>106.2</ele>
        <time>1970-01-01T00:12:50.000Z</time>
      </trkpt>
      <trkpt lat="42.298183" lon="-8.798323">
        <ele>106.2</ele>
        <time>1970-01-01T00:12:51.000Z</time>
      </trkpt>
      <trkpt lat="42.298173" lon="-8.798318">
        <ele>106.2</ele>
        <time>1970-01-01T00:12:52.000Z</time>
      </trkpt>
      <trkpt lat="42.298162" lon="-8.798315">
        <ele>106.2</ele>
        <time>1970-01-01T00:12:53.000Z</time>
      </trkpt>
      <trkpt lat="42.298152" lon="-8.79831">
        <ele>105.3</ele>
        <time>1970-01-01T00:12:54.000Z</time>
      </trkpt>
      <trkpt lat="42.298142" lon="-8.798305">
        <ele>105.3</ele>
        <time>1970-01-01T00:12:55.000Z</time>
      </trkpt>
      <trkpt lat="42.298133" lon="-8.798303">
        <ele>105.3</ele>
        <time>1970-01-01T00:12:56.000Z</time>
      </trkpt>
      <trkpt lat="42.298125" lon="-8.7983">
        <ele>105.3</ele>
        <time>1970-01-01T00:12:57.000Z</time>
      </trkpt>
      <trkpt lat="42.298117" lon="-8.798295">
        <ele>105.3</ele>
        <time>1970-01-01T00:12:58.000Z</time>
      </trkpt>
      <trkpt lat="42.298107" lon="-8.798287">
        <ele>105.3</ele>
        <time>1970-01-01T00:12:59.000Z</time>
      </trkpt>
      <trkpt lat="42.298098" lon="-8.798282">
        <ele>105.3</ele>
        <time>1970-01-01T00:13:00.000Z</time>
      </trkpt>
      <trkpt lat="42.298092" lon="-8.798283">
        <ele>105.3</ele>
        <time>1970-01-01T00:13:01.000Z</time>
      </trkpt>
      <trkpt lat="42.298085" lon="-8.798287">
        <ele>104.2</ele>
        <time>1970-01-01T00:13:02.000Z</time>
      </trkpt>
      <trkpt lat="42.298078" lon="-8.798285">
        <ele>104.2</ele>
        <time>1970-01-01T00:13:03.000Z</time>
      </trkpt>
      <trkpt lat="42.298072" lon="-8.79828">
        <ele>104.2</ele>
        <time>1970-01-01T00:13:04.000Z</time>
      </trkpt>
      <trkpt lat="42.298062" lon="-8.798278">
        <ele>104.2</ele>
        <time>1970-01-01T00:13:05.000Z</time>
      </trkpt>
      <trkpt lat="42.29806" lon="-8.798275">
        <ele>104.2</ele>
        <time>1970-01-01T00:13:06.000Z</time>
      </trkpt>
      <trkpt lat="42.29805" lon="-8.798275">
        <ele>104.2</ele>
        <time>1970-01-01T00:13:07.000Z</time>
      </trkpt>
      <trkpt lat="42.298042" lon="-8.798268">
        <ele>104.2</ele>
        <time>1970-01-01T00:13:08.000Z</time>
      </trkpt>
      <trkpt lat="42.298037" lon="-8.79826">
        <ele>104.2</ele>
        <time>1970-01-01T00:13:09.000Z</time>
      </trkpt>
      <trkpt lat="42.298028" lon="-8.798247">
        <ele>104.2</ele>
        <time>1970-01-01T00:13:10.000Z</time>
      </trkpt>
      <trkpt lat="42.29802" lon="-8.798235">
        <ele>104.2</ele>
        <time>1970-01-01T00:13:11.000Z</time>
      </trkpt>
      <trkpt lat="42.298013" lon="-8.798213">
        <ele>104.2</ele>
        <time>1970-01-01T00:13:12.000Z</time>
      </trkpt>
      <trkpt lat="42.298008" lon="-8.798193">
        <ele>104.2</ele>
        <time>1970-01-01T00:13:13.000Z</time>
      </trkpt>
      <trkpt lat="42.297998" lon="-8.798172">
        <ele>101.2</ele>
        <time>1970-01-01T00:13:14.000Z</time>
      </trkpt>
      <trkpt lat="42.297992" lon="-8.798162">
        <ele>101.2</ele>
        <time>1970-01-01T00:13:15.000Z</time>
      </trkpt>
      <trkpt lat="42.297992" lon="-8.798155">
        <ele>101.2</ele>
        <time>1970-01-01T00:13:16.000Z</time>
      </trkpt>
      <trkpt lat="42.29798" lon="-8.798152">
        <ele>101.2</ele>
        <time>1970-01-01T00:13:17.000Z</time>
      </trkpt>
      <trkpt lat="42.297967" lon="-8.79815">
        <ele>100.3</ele>
        <time>1970-01-01T00:13:18.000Z</time>
      </trkpt>
      <trkpt lat="42.297953" lon="-8.798143">
        <ele>100.3</ele>
        <time>1970-01-01T00:13:19.000Z</time>
      </trkpt>
      <trkpt lat="42.297945" lon="-8.798135">
        <ele>100.3</ele>
        <time>1970-01-01T00:13:20.000Z</time>
      </trkpt>
      <trkpt lat="42.297938" lon="-8.798127">
        <ele>100.3</ele>
        <time>1970-01-01T00:13:21.000Z</time>
      </trkpt>
      <trkpt lat="42.297922" lon="-8.798123">
        <ele>100.3</ele>
        <time>1970-01-01T00:13:22.000Z</time>
      </trkpt>
      <trkpt lat="42.297912" lon="-8.798122">
        <ele>100.3</ele>
        <time>1970-01-01T00:13:23.000Z</time>
      </trkpt>
      <trkpt lat="42.297913" lon="-8.798117">
        <ele>100.3</ele>
        <time>1970-01-01T00:13:24.000Z</time>
      </trkpt>
      <trkpt lat="42.297908" lon="-8.798107">
        <ele>100.3</ele>
        <time>1970-01-01T00:13:25.000Z</time>
      </trkpt>
      <trkpt lat="42.297905" lon="-8.798098">
        <ele>100.3</ele>
        <time>1970-01-01T00:13:26.000Z</time>
      </trkpt>
      <trkpt lat="42.297897" lon="-8.798093">
        <ele>100.3</ele>
        <time>1970-01-01T00:13:27.000Z</time>
      </trkpt>
      <trkpt lat="42.297887" lon="-8.798088">
        <ele>100.3</ele>
        <time>1970-01-01T00:13:28.000Z</time>
      </trkpt>
      <trkpt lat="42.297868" lon="-8.798085">
        <ele>100.3</ele>
        <time>1970-01-01T00:13:29.000Z</time>
      </trkpt>
      <trkpt lat="42.297862" lon="-8.79808">
        <ele>99.2</ele>
        <time>1970-01-01T00:13:30.000Z</time>
      </trkpt>
      <trkpt lat="42.297853" lon="-8.798078">
        <ele>99.2</ele>
        <time>1970-01-01T00:13:31.000Z</time>
      </trkpt>
      <trkpt lat="42.297845" lon="-8.798075">
        <ele>99.2</ele>
        <time>1970-01-01T00:13:32.000Z</time>
      </trkpt>
      <trkpt lat="42.297837" lon="-8.79807">
        <ele>99.2</ele>
        <time>1970-01-01T00:13:33.000Z</time>
      </trkpt>
      <trkpt lat="42.297828" lon="-8.798065">
        <ele>99.2</ele>
        <time>1970-01-01T00:13:34.000Z</time>
      </trkpt>
      <trkpt lat="42.29782" lon="-8.79806">
        <ele>99.2</ele>
        <time>1970-01-01T00:13:35.000Z</time>
      </trkpt>
      <trkpt lat="42.29781" lon="-8.798055">
        <ele>98.3</ele>
        <time>1970-01-01T00:13:36.000Z</time>
      </trkpt>
      <trkpt lat="42.297805" lon="-8.798048">
        <ele>98.3</ele>
        <time>1970-01-01T00:13:37.000Z</time>
      </trkpt>
      <trkpt lat="42.297795" lon="-8.798038">
        <ele>98.3</ele>
        <time>1970-01-01T00:13:38.000Z</time>
      </trkpt>
      <trkpt lat="42.297783" lon="-8.79803">
        <ele>98.3</ele>
        <time>1970-01-01T00:13:39.000Z</time>
      </trkpt>
      <trkpt lat="42.29777" lon="-8.798025">
        <ele>98.3</ele>
        <time>1970-01-01T00:13:40.000Z</time>
      </trkpt>
      <trkpt lat="42.297758" lon="-8.798017">
        <ele>98.3</ele>
        <time>1970-01-01T00:13:41.000Z</time>
      </trkpt>
      <trkpt lat="42.297748" lon="-8.79801">
        <ele>98.3</ele>
        <time>1970-01-01T00:13:42.000Z</time>
      </trkpt>
      <trkpt lat="42.297738" lon="-8.798002">
        <ele>98.3</ele>
        <time>1970-01-01T00:13:43.000Z</time>
      </trkpt>
      <trkpt lat="42.297732" lon="-8.797992">
        <ele>98.3</ele>
        <time>1970-01-01T00:13:44.000Z</time>
      </trkpt>
      <trkpt lat="42.297722" lon="-8.797985">
        <ele>98.3</ele>
        <time>1970-01-01T00:13:45.000Z</time>
      </trkpt>
      <trkpt lat="42.297715" lon="-8.797978">
        <ele>98.3</ele>
        <time>1970-01-01T00:13:46.000Z</time>
      </trkpt>
      <trkpt lat="42.297708" lon="-8.797972">
        <ele>98.3</ele>
        <time>1970-01-01T00:13:47.000Z</time>
      </trkpt>
      <trkpt lat="42.2977" lon="-8.797965">
        <ele>97.2</ele>
        <time>1970-01-01T00:13:48.000Z</time>
      </trkpt>
      <trkpt lat="42.29769" lon="-8.79796">
        <ele>97.2</ele>
        <time>1970-01-01T00:13:49.000Z</time>
      </trkpt>
      <trkpt lat="42.29768" lon="-8.797958">
        <ele>97.2</ele>
        <time>1970-01-01T00:13:50.000Z</time>
      </trkpt>
      <trkpt lat="42.297675" lon="-8.797958">
        <ele>97.2</ele>
        <time>1970-01-01T00:13:51.000Z</time>
      </trkpt>
      <trkpt lat="42.297672" lon="-8.797953">
        <ele>97.2</ele>
        <time>1970-01-01T00:13:52.000Z</time>
      </trkpt>
      <trkpt lat="42.297662" lon="-8.79795">
        <ele>97.2</ele>
        <time>1970-01-01T00:13:53.000Z</time>
      </trkpt>
      <trkpt lat="42.29764" lon="-8.79794">
        <ele>97.2</ele>
        <time>1970-01-01T00:13:54.000Z</time>
      </trkpt>
      <trkpt lat="42.297623" lon="-8.797933">
        <ele>97.2</ele>
        <time>1970-01-01T00:13:55.000Z</time>
      </trkpt>
      <trkpt lat="42.297607" lon="-8.797925">
        <ele>97.2</ele>
        <time>1970-01-01T00:13:56.000Z</time>
      </trkpt>
      <trkpt lat="42.297597" lon="-8.797913">
        <ele>97.2</ele>
        <time>1970-01-01T00:13:57.000Z</time>
      </trkpt>
      <trkpt lat="42.297588" lon="-8.7979">
        <ele>97.2</ele>
        <time>1970-01-01T00:13:58.000Z</time>
      </trkpt>
      <trkpt lat="42.297583" lon="-8.797887">
        <ele>97.2</ele>
        <time>1970-01-01T00:13:59.000Z</time>
      </trkpt>
      <trkpt lat="42.297578" lon="-8.797875">
        <ele>96.3</ele>
        <time>1970-01-01T00:14:00.000Z</time>
      </trkpt>
      <trkpt lat="42.297567" lon="-8.797862">
        <ele>96.3</ele>
        <time>1970-01-01T00:14:01.000Z</time>
      </trkpt>
      <trkpt lat="42.297553" lon="-8.79785">
        <ele>96.3</ele>
        <time>1970-01-01T00:14:02.000Z</time>
      </trkpt>
      <trkpt lat="42.297543" lon="-8.797847">
        <ele>96.3</ele>
        <time>1970-01-01T00:14:03.000Z</time>
      </trkpt>
      <trkpt lat="42.297527" lon="-8.79783">
        <ele>96.3</ele>
        <time>1970-01-01T00:14:04.000Z</time>
      </trkpt>
      <trkpt lat="42.297522" lon="-8.797822">
        <ele>96.3</ele>
        <time>1970-01-01T00:14:05.000Z</time>
      </trkpt>
      <trkpt lat="42.297505" lon="-8.797807">
        <ele>96.3</ele>
        <time>1970-01-01T00:14:06.000Z</time>
      </trkpt>
      <trkpt lat="42.297492" lon="-8.7978">
        <ele>96.3</ele>
        <time>1970-01-01T00:14:07.000Z</time>
      </trkpt>
      <trkpt lat="42.297475" lon="-8.797788">
        <ele>95.3</ele>
        <time>1970-01-01T00:14:08.000Z</time>
      </trkpt>
      <trkpt lat="42.297458" lon="-8.797782">
        <ele>95.3</ele>
        <time>1970-01-01T00:14:09.000Z</time>
      </trkpt>
      <trkpt lat="42.29745" lon="-8.79777">
        <ele>95.3</ele>
        <time>1970-01-01T00:14:10.000Z</time>
      </trkpt>
      <trkpt lat="42.29744" lon="-8.797758">
        <ele>95.3</ele>
        <time>1970-01-01T00:14:11.000Z</time>
      </trkpt>
      <trkpt lat="42.297428" lon="-8.797747">
        <ele>95.3</ele>
        <time>1970-01-01T00:14:12.000Z</time>
      </trkpt>
      <trkpt lat="42.297415" lon="-8.797738">
        <ele>95.3</ele>
        <time>1970-01-01T00:14:13.000Z</time>
      </trkpt>
      <trkpt lat="42.297402" lon="-8.797735">
        <ele>95.3</ele>
        <time>1970-01-01T00:14:14.000Z</time>
      </trkpt>
      <trkpt lat="42.297393" lon="-8.797725">
        <ele>95.3</ele>
        <time>1970-01-01T00:14:15.000Z</time>
      </trkpt>
      <trkpt lat="42.297388" lon="-8.797712">
        <ele>95.3</ele>
        <time>1970-01-01T00:14:16.000Z</time>
      </trkpt>
      <trkpt lat="42.297375" lon="-8.797693">
        <ele>95.3</ele>
        <time>1970-01-01T00:14:17.000Z</time>
      </trkpt>
      <trkpt lat="42.297358" lon="-8.797673">
        <ele>94.3</ele>
        <time>1970-01-01T00:14:18.000Z</time>
      </trkpt>
      <trkpt lat="42.297345" lon="-8.797653">
        <ele>94.3</ele>
        <time>1970-01-01T00:14:19.000Z</time>
      </trkpt>
      <trkpt lat="42.297335" lon="-8.797643">
        <ele>94.3</ele>
        <time>1970-01-01T00:14:20.000Z</time>
      </trkpt>
      <trkpt lat="42.297325" lon="-8.797638">
        <ele>94.3</ele>
        <time>1970-01-01T00:14:21.000Z</time>
      </trkpt>
      <trkpt lat="42.297313" lon="-8.797633">
        <ele>94.3</ele>
        <time>1970-01-01T00:14:22.000Z</time>
      </trkpt>
      <trkpt lat="42.297303" lon="-8.797627">
        <ele>94.3</ele>
        <time>1970-01-01T00:14:23.000Z</time>
      </trkpt>
      <trkpt lat="42.297292" lon="-8.797622">
        <ele>94.3</ele>
        <time>1970-01-01T00:14:24.000Z</time>
      </trkpt>
      <trkpt lat="42.297282" lon="-8.797613">
        <ele>94.3</ele>
        <time>1970-01-01T00:14:25.000Z</time>
      </trkpt>
      <trkpt lat="42.297267" lon="-8.79761">
        <ele>94.3</ele>
        <time>1970-01-01T00:14:26.000Z</time>
      </trkpt>
      <trkpt lat="42.297253" lon="-8.797603">
        <ele>94.3</ele>
        <time>1970-01-01T00:14:27.000Z</time>
      </trkpt>
      <trkpt lat="42.297237" lon="-8.797598">
        <ele>94.3</ele>
        <time>1970-01-01T00:14:28.000Z</time>
      </trkpt>
      <trkpt lat="42.297218" lon="-8.797593">
        <ele>94.3</ele>
        <time>1970-01-01T00:14:29.000Z</time>
      </trkpt>
      <trkpt lat="42.297203" lon="-8.797592">
        <ele>94.3</ele>
        <time>1970-01-01T00:14:30.000Z</time>
      </trkpt>
      <trkpt lat="42.297187" lon="-8.797583">
        <ele>94.3</ele>
        <time>1970-01-01T00:14:31.000Z</time>
      </trkpt>
      <trkpt lat="42.297178" lon="-8.797577">
        <ele>94.3</ele>
        <time>1970-01-01T00:14:32.000Z</time>
      </trkpt>
      <trkpt lat="42.297168" lon="-8.797575">
        <ele>94.3</ele>
        <time>1970-01-01T00:14:33.000Z</time>
      </trkpt>
      <trkpt lat="42.297158" lon="-8.79757">
        <ele>94.3</ele>
        <time>1970-01-01T00:14:34.000Z</time>
      </trkpt>
      <trkpt lat="42.297143" lon="-8.797557">
        <ele>94.3</ele>
        <time>1970-01-01T00:14:35.000Z</time>
      </trkpt>
      <trkpt lat="42.297132" lon="-8.797553">
        <ele>94.3</ele>
        <time>1970-01-01T00:14:36.000Z</time>
      </trkpt>
      <trkpt lat="42.297122" lon="-8.797547">
        <ele>94.3</ele>
        <time>1970-01-01T00:14:37.000Z</time>
      </trkpt>
      <trkpt lat="42.297113" lon="-8.79754">
        <ele>93.3</ele>
        <time>1970-01-01T00:14:38.000Z</time>
      </trkpt>
      <trkpt lat="42.297105" lon="-8.79753">
        <ele>93.3</ele>
        <time>1970-01-01T00:14:39.000Z</time>
      </trkpt>
      <trkpt lat="42.297095" lon="-8.79752">
        <ele>93.3</ele>
        <time>1970-01-01T00:14:40.000Z</time>
      </trkpt>
      <trkpt lat="42.297085" lon="-8.797508">
        <ele>93.3</ele>
        <time>1970-01-01T00:14:41.000Z</time>
      </trkpt>
      <trkpt lat="42.297075" lon="-8.797498">
        <ele>93.3</ele>
        <time>1970-01-01T00:14:42.000Z</time>
      </trkpt>
      <trkpt lat="42.297065" lon="-8.79749">
        <ele>93.3</ele>
        <time>1970-01-01T00:14:43.000Z</time>
      </trkpt>
      <trkpt lat="42.297058" lon="-8.797478">
        <ele>93.3</ele>
        <time>1970-01-01T00:14:44.000Z</time>
      </trkpt>
      <trkpt lat="42.297052" lon="-8.797467">
        <ele>93.3</ele>
        <time>1970-01-01T00:14:45.000Z</time>
      </trkpt>
      <trkpt lat="42.297042" lon="-8.797458">
        <ele>93.3</ele>
        <time>1970-01-01T00:14:46.000Z</time>
      </trkpt>
      <trkpt lat="42.29703" lon="-8.797448">
        <ele>93.3</ele>
        <time>1970-01-01T00:14:47.000Z</time>
      </trkpt>
      <trkpt lat="42.297022" lon="-8.79744">
        <ele>93.3</ele>
        <time>1970-01-01T00:14:48.000Z</time>
      </trkpt>
      <trkpt lat="42.297012" lon="-8.797428">
        <ele>93.3</ele>
        <time>1970-01-01T00:14:49.000Z</time>
      </trkpt>
      <trkpt lat="42.297002" lon="-8.797415">
        <ele>93.3</ele>
        <time>1970-01-01T00:14:50.000Z</time>
      </trkpt>
      <trkpt lat="42.296993" lon="-8.797402">
        <ele>93.3</ele>
        <time>1970-01-01T00:14:51.000Z</time>
      </trkpt>
      <trkpt lat="42.296982" lon="-8.797393">
        <ele>94.3</ele>
        <time>1970-01-01T00:14:52.000Z</time>
      </trkpt>
      <trkpt lat="42.29697" lon="-8.797385">
        <ele>94.3</ele>
        <time>1970-01-01T00:14:53.000Z</time>
      </trkpt>
      <trkpt lat="42.296957" lon="-8.797377">
        <ele>94.3</ele>
        <time>1970-01-01T00:14:54.000Z</time>
      </trkpt>
      <trkpt lat="42.296947" lon="-8.79737">
        <ele>94.3</ele>
        <time>1970-01-01T00:14:55.000Z</time>
      </trkpt>
      <trkpt lat="42.296935" lon="-8.797367">
        <ele>94.3</ele>
        <time>1970-01-01T00:14:56.000Z</time>
      </trkpt>
      <trkpt lat="42.296927" lon="-8.797362">
        <ele>94.3</ele>
        <time>1970-01-01T00:14:57.000Z</time>
      </trkpt>
      <trkpt lat="42.296913" lon="-8.797362">
        <ele>94.3</ele>
        <time>1970-01-01T00:14:58.000Z</time>
      </trkpt>
      <trkpt lat="42.296898" lon="-8.797358">
        <ele>94.3</ele>
        <time>1970-01-01T00:14:59.000Z</time>
      </trkpt>
      <trkpt lat="42.296882" lon="-8.797355">
        <ele>94.3</ele>
        <time>1970-01-01T00:15:00.000Z</time>
      </trkpt>
      <trkpt lat="42.29687" lon="-8.797353">
        <ele>94.3</ele>
        <time>1970-01-01T00:15:01.000Z</time>
      </trkpt>
      <trkpt lat="42.296852" lon="-8.797348">
        <ele>94.3</ele>
        <time>1970-01-01T00:15:02.000Z</time>
      </trkpt>
      <trkpt lat="42.296833" lon="-8.797352">
        <ele>94.3</ele>
        <time>1970-01-01T00:15:03.000Z</time>
      </trkpt>
      <trkpt lat="42.29682" lon="-8.797358">
        <ele>94.3</ele>
        <time>1970-01-01T00:15:04.000Z</time>
      </trkpt>
      <trkpt lat="42.296808" lon="-8.797362">
        <ele>94.3</ele>
        <time>1970-01-01T00:15:05.000Z</time>
      </trkpt>
      <trkpt lat="42.296797" lon="-8.79736">
        <ele>93.3</ele>
        <time>1970-01-01T00:15:06.000Z</time>
      </trkpt>
      <trkpt lat="42.296785" lon="-8.797362">
        <ele>93.3</ele>
        <time>1970-01-01T00:15:07.000Z</time>
      </trkpt>
      <trkpt lat="42.296775" lon="-8.79736">
        <ele>93.3</ele>
        <time>1970-01-01T00:15:08.000Z</time>
      </trkpt>
      <trkpt lat="42.296765" lon="-8.797357">
        <ele>93.3</ele>
        <time>1970-01-01T00:15:09.000Z</time>
      </trkpt>
      <trkpt lat="42.296748" lon="-8.79736">
        <ele>93.3</ele>
        <time>1970-01-01T00:15:10.000Z</time>
      </trkpt>
      <trkpt lat="42.296737" lon="-8.797355">
        <ele>93.3</ele>
        <time>1970-01-01T00:15:11.000Z</time>
      </trkpt>
      <trkpt lat="42.296725" lon="-8.797352">
        <ele>93.3</ele>
        <time>1970-01-01T00:15:12.000Z</time>
      </trkpt>
      <trkpt lat="42.296712" lon="-8.797348">
        <ele>93.3</ele>
        <time>1970-01-01T00:15:13.000Z</time>
      </trkpt>
      <trkpt lat="42.296698" lon="-8.797343">
        <ele>93.3</ele>
        <time>1970-01-01T00:15:14.000Z</time>
      </trkpt>
      <trkpt lat="42.296685" lon="-8.797338">
        <ele>93.3</ele>
        <time>1970-01-01T00:15:15.000Z</time>
      </trkpt>
      <trkpt lat="42.296672" lon="-8.797333">
        <ele>93.3</ele>
        <time>1970-01-01T00:15:16.000Z</time>
      </trkpt>
      <trkpt lat="42.29666" lon="-8.797328">
        <ele>93.3</ele>
        <time>1970-01-01T00:15:17.000Z</time>
      </trkpt>
      <trkpt lat="42.29665" lon="-8.797327">
        <ele>93.3</ele>
        <time>1970-01-01T00:15:18.000Z</time>
      </trkpt>
      <trkpt lat="42.296638" lon="-8.797327">
        <ele>93.3</ele>
        <time>1970-01-01T00:15:19.000Z</time>
      </trkpt>
      <trkpt lat="42.296627" lon="-8.797328">
        <ele>93.3</ele>
        <time>1970-01-01T00:15:20.000Z</time>
      </trkpt>
      <trkpt lat="42.296613" lon="-8.797333">
        <ele>93.3</ele>
        <time>1970-01-01T00:15:21.000Z</time>
      </trkpt>
      <trkpt lat="42.2966" lon="-8.797337">
        <ele>93.3</ele>
        <time>1970-01-01T00:15:22.000Z</time>
      </trkpt>
      <trkpt lat="42.296587" lon="-8.797338">
        <ele>93.3</ele>
        <time>1970-01-01T00:15:23.000Z</time>
      </trkpt>
      <trkpt lat="42.296572" lon="-8.797343">
        <ele>93.3</ele>
        <time>1970-01-01T00:15:24.000Z</time>
      </trkpt>
      <trkpt lat="42.296558" lon="-8.797348">
        <ele>93.3</ele>
        <time>1970-01-01T00:15:25.000Z</time>
      </trkpt>
      <trkpt lat="42.296547" lon="-8.797357">
        <ele>91.3</ele>
        <time>1970-01-01T00:15:26.000Z</time>
      </trkpt>
      <trkpt lat="42.296538" lon="-8.797363">
        <ele>91.3</ele>
        <time>1970-01-01T00:15:27.000Z</time>
      </trkpt>
      <trkpt lat="42.29653" lon="-8.797373">
        <ele>91.3</ele>
        <time>1970-01-01T00:15:28.000Z</time>
      </trkpt>
      <trkpt lat="42.29652" lon="-8.797383">
        <ele>91.3</ele>
        <time>1970-01-01T00:15:29.000Z</time>
      </trkpt>
      <trkpt lat="42.29651" lon="-8.797393">
        <ele>91.3</ele>
        <time>1970-01-01T00:15:30.000Z</time>
      </trkpt>
      <trkpt lat="42.2965" lon="-8.797402">
        <ele>91.3</ele>
        <time>1970-01-01T00:15:31.000Z</time>
      </trkpt>
      <trkpt lat="42.29649" lon="-8.797417">
        <ele>91.3</ele>
        <time>1970-01-01T00:15:32.000Z</time>
      </trkpt>
      <trkpt lat="42.29648" lon="-8.797432">
        <ele>91.3</ele>
        <time>1970-01-01T00:15:33.000Z</time>
      </trkpt>
      <trkpt lat="42.29647" lon="-8.797442">
        <ele>91.3</ele>
        <time>1970-01-01T00:15:34.000Z</time>
      </trkpt>
      <trkpt lat="42.296462" lon="-8.79745">
        <ele>91.3</ele>
        <time>1970-01-01T00:15:35.000Z</time>
      </trkpt>
      <trkpt lat="42.296452" lon="-8.79746">
        <ele>91.3</ele>
        <time>1970-01-01T00:15:36.000Z</time>
      </trkpt>
      <trkpt lat="42.296442" lon="-8.797468">
        <ele>91.3</ele>
        <time>1970-01-01T00:15:37.000Z</time>
      </trkpt>
      <trkpt lat="42.296435" lon="-8.797477">
        <ele>91.3</ele>
        <time>1970-01-01T00:15:38.000Z</time>
      </trkpt>
      <trkpt lat="42.296425" lon="-8.797485">
        <ele>91.3</ele>
        <time>1970-01-01T00:15:39.000Z</time>
      </trkpt>
      <trkpt lat="42.296417" lon="-8.797495">
        <ele>91.3</ele>
        <time>1970-01-01T00:15:40.000Z</time>
      </trkpt>
      <trkpt lat="42.296408" lon="-8.797508">
        <ele>91.3</ele>
        <time>1970-01-01T00:15:41.000Z</time>
      </trkpt>
      <trkpt lat="42.296395" lon="-8.797525">
        <ele>91.3</ele>
        <time>1970-01-01T00:15:42.000Z</time>
      </trkpt>
      <trkpt lat="42.296382" lon="-8.797542">
        <ele>91.3</ele>
        <time>1970-01-01T00:15:43.000Z</time>
      </trkpt>
      <trkpt lat="42.296373" lon="-8.797562">
        <ele>91.3</ele>
        <time>1970-01-01T00:15:44.000Z</time>
      </trkpt>
      <trkpt lat="42.296365" lon="-8.79758">
        <ele>91.3</ele>
        <time>1970-01-01T00:15:45.000Z</time>
      </trkpt>
      <trkpt lat="42.296357" lon="-8.797598">
        <ele>91.3</ele>
        <time>1970-01-01T00:15:46.000Z</time>
      </trkpt>
      <trkpt lat="42.29635" lon="-8.797613">
        <ele>91.3</ele>
        <time>1970-01-01T00:15:47.000Z</time>
      </trkpt>
      <trkpt lat="42.296342" lon="-8.797632">
        <ele>91.3</ele>
        <time>1970-01-01T00:15:48.000Z</time>
      </trkpt>
      <trkpt lat="42.29633" lon="-8.797648">
        <ele>91.3</ele>
        <time>1970-01-01T00:15:49.000Z</time>
      </trkpt>
      <trkpt lat="42.29632" lon="-8.797662">
        <ele>91.3</ele>
        <time>1970-01-01T00:15:50.000Z</time>
      </trkpt>
      <trkpt lat="42.29631" lon="-8.797678">
        <ele>91.3</ele>
        <time>1970-01-01T00:15:51.000Z</time>
      </trkpt>
      <trkpt lat="42.296303" lon="-8.797693">
        <ele>91.3</ele>
        <time>1970-01-01T00:15:52.000Z</time>
      </trkpt>
      <trkpt lat="42.296295" lon="-8.797707">
        <ele>91.3</ele>
        <time>1970-01-01T00:15:53.000Z</time>
      </trkpt>
      <trkpt lat="42.296287" lon="-8.79772">
        <ele>92.2</ele>
        <time>1970-01-01T00:15:54.000Z</time>
      </trkpt>
      <trkpt lat="42.296277" lon="-8.797735">
        <ele>92.2</ele>
        <time>1970-01-01T00:15:55.000Z</time>
      </trkpt>
      <trkpt lat="42.296272" lon="-8.79775">
        <ele>92.2</ele>
        <time>1970-01-01T00:15:56.000Z</time>
      </trkpt>
      <trkpt lat="42.296265" lon="-8.797762">
        <ele>92.2</ele>
        <time>1970-01-01T00:15:57.000Z</time>
      </trkpt>
      <trkpt lat="42.296257" lon="-8.797773">
        <ele>92.2</ele>
        <time>1970-01-01T00:15:58.000Z</time>
      </trkpt>
      <trkpt lat="42.29625" lon="-8.797783">
        <ele>92.2</ele>
        <time>1970-01-01T00:15:59.000Z</time>
      </trkpt>
      <trkpt lat="42.296242" lon="-8.797795">
        <ele>92.2</ele>
        <time>1970-01-01T00:16:00.000Z</time>
      </trkpt>
      <trkpt lat="42.296237" lon="-8.797808">
        <ele>92.2</ele>
        <time>1970-01-01T00:16:01.000Z</time>
      </trkpt>
      <trkpt lat="42.296228" lon="-8.79782">
        <ele>92.2</ele>
        <time>1970-01-01T00:16:02.000Z</time>
      </trkpt>
      <trkpt lat="42.296222" lon="-8.797832">
        <ele>92.2</ele>
        <time>1970-01-01T00:16:03.000Z</time>
      </trkpt>
      <trkpt lat="42.296215" lon="-8.797848">
        <ele>92.2</ele>
        <time>1970-01-01T00:16:04.000Z</time>
      </trkpt>
      <trkpt lat="42.296212" lon="-8.797863">
        <ele>92.2</ele>
        <time>1970-01-01T00:16:05.000Z</time>
      </trkpt>
      <trkpt lat="42.296212" lon="-8.797877">
        <ele>93.3</ele>
        <time>1970-01-01T00:16:06.000Z</time>
      </trkpt>
      <trkpt lat="42.296208" lon="-8.797887">
        <ele>93.3</ele>
        <time>1970-01-01T00:16:07.000Z</time>
      </trkpt>
      <trkpt lat="42.296205" lon="-8.7979">
        <ele>93.3</ele>
        <time>1970-01-01T00:16:08.000Z</time>
      </trkpt>
      <trkpt lat="42.296198" lon="-8.797913">
        <ele>93.3</ele>
        <time>1970-01-01T00:16:09.000Z</time>
      </trkpt>
      <trkpt lat="42.296192" lon="-8.797928">
        <ele>93.3</ele>
        <time>1970-01-01T00:16:10.000Z</time>
      </trkpt>
      <trkpt lat="42.296185" lon="-8.797937">
        <ele>93.3</ele>
        <time>1970-01-01T00:16:11.000Z</time>
      </trkpt>
      <trkpt lat="42.296182" lon="-8.79795">
        <ele>93.3</ele>
        <time>1970-01-01T00:16:12.000Z</time>
      </trkpt>
      <trkpt lat="42.296175" lon="-8.797965">
        <ele>93.3</ele>
        <time>1970-01-01T00:16:13.000Z</time>
      </trkpt>
      <trkpt lat="42.296172" lon="-8.797973">
        <ele>91.3</ele>
        <time>1970-01-01T00:16:14.000Z</time>
      </trkpt>
      <trkpt lat="42.296165" lon="-8.797982">
        <ele>91.3</ele>
        <time>1970-01-01T00:16:15.000Z</time>
      </trkpt>
      <trkpt lat="42.296157" lon="-8.797997">
        <ele>91.3</ele>
        <time>1970-01-01T00:16:16.000Z</time>
      </trkpt>
      <trkpt lat="42.296147" lon="-8.798007">
        <ele>91.3</ele>
        <time>1970-01-01T00:16:17.000Z</time>
      </trkpt>
      <trkpt lat="42.296142" lon="-8.798017">
        <ele>91.3</ele>
        <time>1970-01-01T00:16:18.000Z</time>
      </trkpt>
      <trkpt lat="42.29614" lon="-8.798022">
        <ele>91.3</ele>
        <time>1970-01-01T00:16:19.000Z</time>
      </trkpt>
      <trkpt lat="42.296138" lon="-8.798025">
        <ele>91.3</ele>
        <time>1970-01-01T00:16:20.000Z</time>
      </trkpt>
      <trkpt lat="42.296137" lon="-8.798027">
        <ele>91.3</ele>
        <time>1970-01-01T00:16:21.000Z</time>
      </trkpt>
      <trkpt lat="42.296137" lon="-8.798027">
        <ele>91.3</ele>
        <time>1970-01-01T00:16:22.000Z</time>
      </trkpt>
      <trkpt lat="42.296137" lon="-8.798027">
        <ele>91.3</ele>
        <time>1970-01-01T00:16:23.000Z</time>
      </trkpt>
      <trkpt lat="42.296138" lon="-8.798027">
        <ele>91.3</ele>
        <time>1970-01-01T00:16:24.000Z</time>
      </trkpt>
      <trkpt lat="42.296138" lon="-8.798025">
        <ele>91.3</ele>
        <time>1970-01-01T00:16:25.000Z</time>
      </trkpt>
      <trkpt lat="42.29614" lon="-8.798025">
        <ele>91.3</ele>
        <time>1970-01-01T00:16:26.000Z</time>
      </trkpt>
      <trkpt lat="42.29614" lon="-8.79803">
        <ele>91.3</ele>
        <time>1970-01-01T00:16:27.000Z</time>
      </trkpt>
      <trkpt lat="42.296138" lon="-8.798032">
        <ele>91.3</ele>
        <time>1970-01-01T00:16:28.000Z</time>
      </trkpt>
      <trkpt lat="42.296138" lon="-8.798033">
        <ele>91.3</ele>
        <time>1970-01-01T00:16:29.000Z</time>
      </trkpt>
      <trkpt lat="42.296137" lon="-8.798035">
        <ele>91.3</ele>
        <time>1970-01-01T00:16:30.000Z</time>
      </trkpt>
      <trkpt lat="42.296133" lon="-8.798038">
        <ele>91.3</ele>
        <time>1970-01-01T00:16:31.000Z</time>
      </trkpt>
      <trkpt lat="42.296128" lon="-8.79805">
        <ele>91.3</ele>
        <time>1970-01-01T00:16:32.000Z</time>
      </trkpt>
      <trkpt lat="42.296122" lon="-8.798063">
        <ele>91.3</ele>
        <time>1970-01-01T00:16:33.000Z</time>
      </trkpt>
      <trkpt lat="42.296115" lon="-8.798075">
        <ele>91.3</ele>
        <time>1970-01-01T00:16:34.000Z</time>
      </trkpt>
      <trkpt lat="42.29611" lon="-8.798088">
        <ele>91.3</ele>
        <time>1970-01-01T00:16:35.000Z</time>
      </trkpt>
      <trkpt lat="42.296103" lon="-8.7981">
        <ele>90.2</ele>
        <time>1970-01-01T00:16:36.000Z</time>
      </trkpt>
      <trkpt lat="42.296097" lon="-8.798117">
        <ele>90.2</ele>
        <time>1970-01-01T00:16:37.000Z</time>
      </trkpt>
      <trkpt lat="42.29609" lon="-8.798132">
        <ele>90.2</ele>
        <time>1970-01-01T00:16:38.000Z</time>
      </trkpt>
      <trkpt lat="42.296083" lon="-8.79815">
        <ele>90.2</ele>
        <time>1970-01-01T00:16:39.000Z</time>
      </trkpt>
      <trkpt lat="42.296077" lon="-8.798165">
        <ele>90.2</ele>
        <time>1970-01-01T00:16:40.000Z</time>
      </trkpt>
      <trkpt lat="42.296073" lon="-8.798185">
        <ele>90.2</ele>
        <time>1970-01-01T00:16:41.000Z</time>
      </trkpt>
      <trkpt lat="42.296068" lon="-8.79821">
        <ele>89.3</ele>
        <time>1970-01-01T00:16:42.000Z</time>
      </trkpt>
      <trkpt lat="42.296063" lon="-8.798223">
        <ele>89.3</ele>
        <time>1970-01-01T00:16:43.000Z</time>
      </trkpt>
      <trkpt lat="42.296057" lon="-8.798233">
        <ele>89.3</ele>
        <time>1970-01-01T00:16:44.000Z</time>
      </trkpt>
      <trkpt lat="42.296052" lon="-8.798248">
        <ele>89.3</ele>
        <time>1970-01-01T00:16:45.000Z</time>
      </trkpt>
      <trkpt lat="42.296045" lon="-8.798263">
        <ele>89.3</ele>
        <time>1970-01-01T00:16:46.000Z</time>
      </trkpt>
      <trkpt lat="42.296035" lon="-8.798275">
        <ele>89.3</ele>
        <time>1970-01-01T00:16:47.000Z</time>
      </trkpt>
      <trkpt lat="42.296032" lon="-8.798278">
        <ele>88.2</ele>
        <time>1970-01-01T00:16:48.000Z</time>
      </trkpt>
      <trkpt lat="42.296032" lon="-8.798282">
        <ele>88.2</ele>
        <time>1970-01-01T00:16:49.000Z</time>
      </trkpt>
      <trkpt lat="42.296037" lon="-8.79828">
        <ele>88.2</ele>
        <time>1970-01-01T00:16:50.000Z</time>
      </trkpt>
      <trkpt lat="42.296047" lon="-8.798273">
        <ele>88.2</ele>
        <time>1970-01-01T00:16:51.000Z</time>
      </trkpt>
      <trkpt lat="42.29605" lon="-8.798258">
        <ele>88.2</ele>
        <time>1970-01-01T00:16:52.000Z</time>
      </trkpt>
      <trkpt lat="42.296055" lon="-8.798247">
        <ele>88.2</ele>
        <time>1970-01-01T00:16:53.000Z</time>
      </trkpt>
      <trkpt lat="42.296058" lon="-8.798235">
        <ele>88.2</ele>
        <time>1970-01-01T00:16:54.000Z</time>
      </trkpt>
      <trkpt lat="42.296058" lon="-8.798222">
        <ele>88.2</ele>
        <time>1970-01-01T00:16:55.000Z</time>
      </trkpt>
      <trkpt lat="42.296062" lon="-8.798203">
        <ele>88.2</ele>
        <time>1970-01-01T00:16:56.000Z</time>
      </trkpt>
      <trkpt lat="42.296062" lon="-8.798183">
        <ele>88.2</ele>
        <time>1970-01-01T00:16:57.000Z</time>
      </trkpt>
      <trkpt lat="42.296067" lon="-8.798163">
        <ele>88.2</ele>
        <time>1970-01-01T00:16:58.000Z</time>
      </trkpt>
      <trkpt lat="42.296067" lon="-8.798148">
        <ele>88.2</ele>
        <time>1970-01-01T00:16:59.000Z</time>
      </trkpt>
      <trkpt lat="42.296067" lon="-8.798135">
        <ele>88.2</ele>
        <time>1970-01-01T00:17:00.000Z</time>
      </trkpt>
      <trkpt lat="42.296067" lon="-8.798123">
        <ele>88.2</ele>
        <time>1970-01-01T00:17:01.000Z</time>
      </trkpt>
      <trkpt lat="42.296067" lon="-8.798113">
        <ele>88.2</ele>
        <time>1970-01-01T00:17:02.000Z</time>
      </trkpt>
      <trkpt lat="42.29607" lon="-8.798097">
        <ele>88.2</ele>
        <time>1970-01-01T00:17:03.000Z</time>
      </trkpt>
      <trkpt lat="42.296072" lon="-8.798075">
        <ele>88.2</ele>
        <time>1970-01-01T00:17:04.000Z</time>
      </trkpt>
      <trkpt lat="42.296072" lon="-8.798058">
        <ele>88.2</ele>
        <time>1970-01-01T00:17:05.000Z</time>
      </trkpt>
      <trkpt lat="42.296067" lon="-8.798053">
        <ele>88.2</ele>
        <time>1970-01-01T00:17:06.000Z</time>
      </trkpt>
      <trkpt lat="42.296062" lon="-8.798048">
        <ele>88.2</ele>
        <time>1970-01-01T00:17:07.000Z</time>
      </trkpt>
      <trkpt lat="42.29606" lon="-8.798047">
        <ele>88.2</ele>
        <time>1970-01-01T00:17:08.000Z</time>
      </trkpt>
      <trkpt lat="42.296058" lon="-8.798047">
        <ele>88.2</ele>
        <time>1970-01-01T00:17:09.000Z</time>
      </trkpt>
      <trkpt lat="42.296058" lon="-8.798047">
        <ele>87.3</ele>
        <time>1970-01-01T00:17:10.000Z</time>
      </trkpt>
      <trkpt lat="42.296058" lon="-8.798045">
        <ele>87.3</ele>
        <time>1970-01-01T00:17:11.000Z</time>
      </trkpt>
      <trkpt lat="42.296058" lon="-8.798045">
        <ele>87.3</ele>
        <time>1970-01-01T00:17:12.000Z</time>
      </trkpt>
      <trkpt lat="42.29606" lon="-8.798043">
        <ele>87.3</ele>
        <time>1970-01-01T00:17:13.000Z</time>
      </trkpt>
      <trkpt lat="42.29606" lon="-8.798043">
        <ele>87.3</ele>
        <time>1970-01-01T00:17:14.000Z</time>
      </trkpt>
      <trkpt lat="42.296062" lon="-8.798043">
        <ele>87.3</ele>
        <time>1970-01-01T00:17:15.000Z</time>
      </trkpt>
      <trkpt lat="42.296062" lon="-8.798043">
        <ele>87.3</ele>
        <time>1970-01-01T00:17:16.000Z</time>
      </trkpt>
      <trkpt lat="42.29606" lon="-8.798043">
        <ele>87.3</ele>
        <time>1970-01-01T00:17:17.000Z</time>
      </trkpt>
      <trkpt lat="42.29606" lon="-8.798043">
        <ele>86.3</ele>
        <time>1970-01-01T00:17:18.000Z</time>
      </trkpt>
      <trkpt lat="42.296062" lon="-8.798042">
        <ele>86.3</ele>
        <time>1970-01-01T00:17:19.000Z</time>
      </trkpt>
      <trkpt lat="42.296063" lon="-8.79804">
        <ele>86.3</ele>
        <time>1970-01-01T00:17:20.000Z</time>
      </trkpt>
      <trkpt lat="42.296063" lon="-8.79804">
        <ele>86.3</ele>
        <time>1970-01-01T00:17:21.000Z</time>
      </trkpt>
      <trkpt lat="42.296063" lon="-8.79804">
        <ele>86.3</ele>
        <time>1970-01-01T00:17:22.000Z</time>
      </trkpt>
      <trkpt lat="42.296063" lon="-8.79804">
        <ele>86.3</ele>
        <time>1970-01-01T00:17:23.000Z</time>
      </trkpt>
      <trkpt lat="42.296063" lon="-8.79804">
        <ele>86.3</ele>
        <time>1970-01-01T00:17:24.000Z</time>
      </trkpt>
      <trkpt lat="42.296063" lon="-8.79804">
        <ele>86.3</ele>
        <time>1970-01-01T00:17:25.000Z</time>
      </trkpt>
      <trkpt lat="42.296063" lon="-8.79804">
        <ele>86.3</ele>
        <time>1970-01-01T00:17:26.000Z</time>
      </trkpt>
      <trkpt lat="42.296063" lon="-8.79804">
        <ele>86.3</ele>
        <time>1970-01-01T00:17:27.000Z</time>
      </trkpt>
      <trkpt lat="42.296062" lon="-8.79804">
        <ele>86.3</ele>
        <time>1970-01-01T00:17:28.000Z</time>
      </trkpt>
      <trkpt lat="42.296062" lon="-8.79804">
        <ele>86.3</ele>
        <time>1970-01-01T00:17:29.000Z</time>
      </trkpt>
      <trkpt lat="42.296062" lon="-8.79804">
        <ele>86.3</ele>
        <time>1970-01-01T00:17:30.000Z</time>
      </trkpt>
      <trkpt lat="42.296062" lon="-8.79804">
        <ele>86.3</ele>
        <time>1970-01-01T00:17:31.000Z</time>
      </trkpt>
      <trkpt lat="42.29606" lon="-8.79804">
        <ele>86.3</ele>
        <time>1970-01-01T00:17:32.000Z</time>
      </trkpt>
      <trkpt lat="42.296057" lon="-8.798035">
        <ele>86.3</ele>
        <time>1970-01-01T00:17:33.000Z</time>
      </trkpt>
      <trkpt lat="42.296045" lon="-8.79802">
        <ele>86.3</ele>
        <time>1970-01-01T00:17:34.000Z</time>
      </trkpt>
      <trkpt lat="42.296032" lon="-8.798005">
        <ele>86.3</ele>
        <time>1970-01-01T00:17:35.000Z</time>
      </trkpt>
      <trkpt lat="42.296018" lon="-8.797995">
        <ele>86.3</ele>
        <time>1970-01-01T00:17:36.000Z</time>
      </trkpt>
      <trkpt lat="42.296005" lon="-8.797988">
        <ele>86.3</ele>
        <time>1970-01-01T00:17:37.000Z</time>
      </trkpt>
      <trkpt lat="42.295995" lon="-8.797975">
        <ele>86.3</ele>
        <time>1970-01-01T00:17:38.000Z</time>
      </trkpt>
      <trkpt lat="42.295978" lon="-8.797965">
        <ele>86.3</ele>
        <time>1970-01-01T00:17:39.000Z</time>
      </trkpt>
      <trkpt lat="42.295963" lon="-8.797953">
        <ele>86.3</ele>
        <time>1970-01-01T00:17:40.000Z</time>
      </trkpt>
      <trkpt lat="42.295947" lon="-8.797942">
        <ele>86.3</ele>
        <time>1970-01-01T00:17:41.000Z</time>
      </trkpt>
      <trkpt lat="42.295927" lon="-8.797932">
        <ele>84.3</ele>
        <time>1970-01-01T00:17:42.000Z</time>
      </trkpt>
      <trkpt lat="42.295912" lon="-8.797923">
        <ele>84.3</ele>
        <time>1970-01-01T00:17:43.000Z</time>
      </trkpt>
      <trkpt lat="42.295902" lon="-8.797923">
        <ele>83.2</ele>
        <time>1970-01-01T00:17:44.000Z</time>
      </trkpt>
      <trkpt lat="42.29589" lon="-8.797927">
        <ele>83.2</ele>
        <time>1970-01-01T00:17:45.000Z</time>
      </trkpt>
      <trkpt lat="42.295883" lon="-8.797927">
        <ele>83.2</ele>
        <time>1970-01-01T00:17:46.000Z</time>
      </trkpt>
      <trkpt lat="42.295873" lon="-8.797927">
        <ele>83.2</ele>
        <time>1970-01-01T00:17:47.000Z</time>
      </trkpt>
      <trkpt lat="42.295865" lon="-8.797925">
        <ele>82.3</ele>
        <time>1970-01-01T00:17:48.000Z</time>
      </trkpt>
      <trkpt lat="42.295857" lon="-8.797927">
        <ele>82.3</ele>
        <time>1970-01-01T00:17:49.000Z</time>
      </trkpt>
      <trkpt lat="42.295853" lon="-8.797925">
        <ele>82.3</ele>
        <time>1970-01-01T00:17:50.000Z</time>
      </trkpt>
      <trkpt lat="42.295848" lon="-8.797927">
        <ele>82.3</ele>
        <time>1970-01-01T00:17:51.000Z</time>
      </trkpt>
      <trkpt lat="42.295835" lon="-8.797927">
        <ele>82.3</ele>
        <time>1970-01-01T00:17:52.000Z</time>
      </trkpt>
      <trkpt lat="42.295822" lon="-8.797923">
        <ele>82.3</ele>
        <time>1970-01-01T00:17:53.000Z</time>
      </trkpt>
      <trkpt lat="42.295807" lon="-8.797923">
        <ele>82.3</ele>
        <time>1970-01-01T00:17:54.000Z</time>
      </trkpt>
      <trkpt lat="42.295797" lon="-8.797932">
        <ele>82.3</ele>
        <time>1970-01-01T00:17:55.000Z</time>
      </trkpt>
      <trkpt lat="42.295787" lon="-8.797937">
        <ele>81.2</ele>
        <time>1970-01-01T00:17:56.000Z</time>
      </trkpt>
      <trkpt lat="42.295772" lon="-8.797943">
        <ele>81.2</ele>
        <time>1970-01-01T00:17:57.000Z</time>
      </trkpt>
      <trkpt lat="42.295757" lon="-8.797947">
        <ele>81.2</ele>
        <time>1970-01-01T00:17:58.000Z</time>
      </trkpt>
      <trkpt lat="42.295747" lon="-8.79795">
        <ele>81.2</ele>
        <time>1970-01-01T00:17:59.000Z</time>
      </trkpt>
      <trkpt lat="42.295738" lon="-8.797952">
        <ele>81.2</ele>
        <time>1970-01-01T00:18:00.000Z</time>
      </trkpt>
      <trkpt lat="42.29573" lon="-8.797957">
        <ele>81.2</ele>
        <time>1970-01-01T00:18:01.000Z</time>
      </trkpt>
      <trkpt lat="42.29572" lon="-8.797963">
        <ele>81.2</ele>
        <time>1970-01-01T00:18:02.000Z</time>
      </trkpt>
      <trkpt lat="42.29571" lon="-8.79797">
        <ele>81.2</ele>
        <time>1970-01-01T00:18:03.000Z</time>
      </trkpt>
      <trkpt lat="42.295702" lon="-8.797975">
        <ele>80.3</ele>
        <time>1970-01-01T00:18:04.000Z</time>
      </trkpt>
      <trkpt lat="42.295692" lon="-8.797982">
        <ele>80.3</ele>
        <time>1970-01-01T00:18:05.000Z</time>
      </trkpt>
      <trkpt lat="42.295678" lon="-8.79799">
        <ele>80.3</ele>
        <time>1970-01-01T00:18:06.000Z</time>
      </trkpt>
      <trkpt lat="42.295668" lon="-8.797997">
        <ele>80.3</ele>
        <time>1970-01-01T00:18:07.000Z</time>
      </trkpt>
      <trkpt lat="42.295657" lon="-8.798002">
        <ele>80.3</ele>
        <time>1970-01-01T00:18:08.000Z</time>
      </trkpt>
      <trkpt lat="42.295645" lon="-8.798003">
        <ele>80.3</ele>
        <time>1970-01-01T00:18:09.000Z</time>
      </trkpt>
      <trkpt lat="42.295635" lon="-8.798007">
        <ele>79.2</ele>
        <time>1970-01-01T00:18:10.000Z</time>
      </trkpt>
      <trkpt lat="42.295627" lon="-8.798008">
        <ele>79.2</ele>
        <time>1970-01-01T00:18:11.000Z</time>
      </trkpt>
      <trkpt lat="42.295615" lon="-8.798013">
        <ele>78.3</ele>
        <time>1970-01-01T00:18:12.000Z</time>
      </trkpt>
      <trkpt lat="42.295607" lon="-8.798013">
        <ele>78.3</ele>
        <time>1970-01-01T00:18:13.000Z</time>
      </trkpt>
      <trkpt lat="42.295598" lon="-8.798015">
        <ele>78.3</ele>
        <time>1970-01-01T00:18:14.000Z</time>
      </trkpt>
      <trkpt lat="42.295588" lon="-8.798017">
        <ele>78.3</ele>
        <time>1970-01-01T00:18:15.000Z</time>
      </trkpt>
      <trkpt lat="42.29558" lon="-8.798018">
        <ele>78.3</ele>
        <time>1970-01-01T00:18:16.000Z</time>
      </trkpt>
      <trkpt lat="42.29557" lon="-8.79802">
        <ele>78.3</ele>
        <time>1970-01-01T00:18:17.000Z</time>
      </trkpt>
      <trkpt lat="42.29556" lon="-8.798025">
        <ele>77.3</ele>
        <time>1970-01-01T00:18:18.000Z</time>
      </trkpt>
      <trkpt lat="42.29555" lon="-8.798025">
        <ele>77.3</ele>
        <time>1970-01-01T00:18:19.000Z</time>
      </trkpt>
      <trkpt lat="42.29554" lon="-8.798025">
        <ele>77.3</ele>
        <time>1970-01-01T00:18:20.000Z</time>
      </trkpt>
      <trkpt lat="42.29553" lon="-8.798028">
        <ele>77.3</ele>
        <time>1970-01-01T00:18:21.000Z</time>
      </trkpt>
      <trkpt lat="42.29552" lon="-8.798032">
        <ele>77.3</ele>
        <time>1970-01-01T00:18:22.000Z</time>
      </trkpt>
      <trkpt lat="42.29551" lon="-8.79803">
        <ele>77.3</ele>
        <time>1970-01-01T00:18:23.000Z</time>
      </trkpt>
      <trkpt lat="42.2955" lon="-8.798032">
        <ele>76.2</ele>
        <time>1970-01-01T00:18:24.000Z</time>
      </trkpt>
      <trkpt lat="42.295492" lon="-8.798033">
        <ele>76.2</ele>
        <time>1970-01-01T00:18:25.000Z</time>
      </trkpt>
      <trkpt lat="42.29548" lon="-8.798035">
        <ele>76.2</ele>
        <time>1970-01-01T00:18:26.000Z</time>
      </trkpt>
      <trkpt lat="42.295468" lon="-8.79804">
        <ele>76.2</ele>
        <time>1970-01-01T00:18:27.000Z</time>
      </trkpt>
      <trkpt lat="42.295458" lon="-8.798043">
        <ele>76.2</ele>
        <time>1970-01-01T00:18:28.000Z</time>
      </trkpt>
      <trkpt lat="42.295453" lon="-8.798047">
        <ele>76.2</ele>
        <time>1970-01-01T00:18:29.000Z</time>
      </trkpt>
      <trkpt lat="42.29545" lon="-8.79805">
        <ele>76.2</ele>
        <time>1970-01-01T00:18:30.000Z</time>
      </trkpt>
      <trkpt lat="42.295445" lon="-8.798055">
        <ele>76.2</ele>
        <time>1970-01-01T00:18:31.000Z</time>
      </trkpt>
      <trkpt lat="42.295437" lon="-8.798063">
        <ele>76.2</ele>
        <time>1970-01-01T00:18:32.000Z</time>
      </trkpt>
      <trkpt lat="42.295425" lon="-8.798068">
        <ele>76.2</ele>
        <time>1970-01-01T00:18:33.000Z</time>
      </trkpt>
      <trkpt lat="42.29541" lon="-8.798073">
        <ele>76.2</ele>
        <time>1970-01-01T00:18:34.000Z</time>
      </trkpt>
      <trkpt lat="42.295395" lon="-8.798073">
        <ele>75.3</ele>
        <time>1970-01-01T00:18:35.000Z</time>
      </trkpt>
      <trkpt lat="42.295378" lon="-8.798075">
        <ele>75.3</ele>
        <time>1970-01-01T00:18:36.000Z</time>
      </trkpt>
      <trkpt lat="42.295367" lon="-8.798077">
        <ele>75.3</ele>
        <time>1970-01-01T00:18:37.000Z</time>
      </trkpt>
      <trkpt lat="42.295355" lon="-8.798087">
        <ele>75.3</ele>
        <time>1970-01-01T00:18:38.000Z</time>
      </trkpt>
      <trkpt lat="42.295343" lon="-8.7981">
        <ele>75.3</ele>
        <time>1970-01-01T00:18:39.000Z</time>
      </trkpt>
      <trkpt lat="42.295328" lon="-8.798112">
        <ele>75.3</ele>
        <time>1970-01-01T00:18:40.000Z</time>
      </trkpt>
      <trkpt lat="42.295315" lon="-8.798117">
        <ele>74.2</ele>
        <time>1970-01-01T00:18:41.000Z</time>
      </trkpt>
      <trkpt lat="42.295303" lon="-8.798123">
        <ele>74.2</ele>
        <time>1970-01-01T00:18:42.000Z</time>
      </trkpt>
      <trkpt lat="42.295293" lon="-8.798135">
        <ele>74.2</ele>
        <time>1970-01-01T00:18:43.000Z</time>
      </trkpt>
      <trkpt lat="42.295282" lon="-8.798147">
        <ele>74.2</ele>
        <time>1970-01-01T00:18:44.000Z</time>
      </trkpt>
      <trkpt lat="42.29527" lon="-8.798157">
        <ele>74.2</ele>
        <time>1970-01-01T00:18:45.000Z</time>
      </trkpt>
      <trkpt lat="42.295258" lon="-8.798167">
        <ele>74.2</ele>
        <time>1970-01-01T00:18:46.000Z</time>
      </trkpt>
      <trkpt lat="42.295248" lon="-8.79817">
        <ele>73.3</ele>
        <time>1970-01-01T00:18:47.000Z</time>
      </trkpt>
      <trkpt lat="42.295243" lon="-8.798177">
        <ele>73.3</ele>
        <time>1970-01-01T00:18:48.000Z</time>
      </trkpt>
      <trkpt lat="42.295238" lon="-8.798178">
        <ele>73.3</ele>
        <time>1970-01-01T00:18:49.000Z</time>
      </trkpt>
      <trkpt lat="42.295235" lon="-8.798177">
        <ele>73.3</ele>
        <time>1970-01-01T00:18:50.000Z</time>
      </trkpt>
      <trkpt lat="42.295232" lon="-8.798173">
        <ele>72.2</ele>
        <time>1970-01-01T00:18:51.000Z</time>
      </trkpt>
      <trkpt lat="42.295227" lon="-8.798172">
        <ele>72.2</ele>
        <time>1970-01-01T00:18:52.000Z</time>
      </trkpt>
      <trkpt lat="42.295223" lon="-8.79817">
        <ele>72.2</ele>
        <time>1970-01-01T00:18:53.000Z</time>
      </trkpt>
      <trkpt lat="42.29522" lon="-8.79817">
        <ele>72.2</ele>
        <time>1970-01-01T00:18:54.000Z</time>
      </trkpt>
      <trkpt lat="42.295218" lon="-8.798167">
        <ele>72.2</ele>
        <time>1970-01-01T00:18:55.000Z</time>
      </trkpt>
      <trkpt lat="42.295215" lon="-8.798167">
        <ele>72.2</ele>
        <time>1970-01-01T00:18:56.000Z</time>
      </trkpt>
      <trkpt lat="42.295213" lon="-8.798155">
        <ele>72.2</ele>
        <time>1970-01-01T00:18:57.000Z</time>
      </trkpt>
      <trkpt lat="42.29521" lon="-8.79813">
        <ele>72.2</ele>
        <time>1970-01-01T00:18:58.000Z</time>
      </trkpt>
      <trkpt lat="42.295215" lon="-8.798108">
        <ele>71.3</ele>
        <time>1970-01-01T00:18:59.000Z</time>
      </trkpt>
      <trkpt lat="42.29522" lon="-8.798088">
        <ele>71.3</ele>
        <time>1970-01-01T00:19:00.000Z</time>
      </trkpt>
      <trkpt lat="42.295225" lon="-8.798062">
        <ele>71.3</ele>
        <time>1970-01-01T00:19:01.000Z</time>
      </trkpt>
      <trkpt lat="42.295223" lon="-8.798043">
        <ele>71.3</ele>
        <time>1970-01-01T00:19:02.000Z</time>
      </trkpt>
      <trkpt lat="42.29522" lon="-8.798028">
        <ele>71.3</ele>
        <time>1970-01-01T00:19:03.000Z</time>
      </trkpt>
      <trkpt lat="42.295218" lon="-8.798012">
        <ele>71.3</ele>
        <time>1970-01-01T00:19:04.000Z</time>
      </trkpt>
      <trkpt lat="42.295217" lon="-8.797993">
        <ele>71.3</ele>
        <time>1970-01-01T00:19:05.000Z</time>
      </trkpt>
      <trkpt lat="42.295217" lon="-8.79797">
        <ele>71.3</ele>
        <time>1970-01-01T00:19:06.000Z</time>
      </trkpt>
      <trkpt lat="42.295217" lon="-8.797953">
        <ele>70.3</ele>
        <time>1970-01-01T00:19:07.000Z</time>
      </trkpt>
      <trkpt lat="42.295215" lon="-8.797937">
        <ele>70.3</ele>
        <time>1970-01-01T00:19:08.000Z</time>
      </trkpt>
      <trkpt lat="42.29521" lon="-8.79792">
        <ele>70.3</ele>
        <time>1970-01-01T00:19:09.000Z</time>
      </trkpt>
      <trkpt lat="42.2952" lon="-8.797905">
        <ele>70.3</ele>
        <time>1970-01-01T00:19:10.000Z</time>
      </trkpt>
      <trkpt lat="42.295192" lon="-8.797892">
        <ele>70.3</ele>
        <time>1970-01-01T00:19:11.000Z</time>
      </trkpt>
      <trkpt lat="42.295183" lon="-8.797877">
        <ele>70.3</ele>
        <time>1970-01-01T00:19:12.000Z</time>
      </trkpt>
      <trkpt lat="42.295178" lon="-8.797862">
        <ele>70.3</ele>
        <time>1970-01-01T00:19:13.000Z</time>
      </trkpt>
      <trkpt lat="42.295172" lon="-8.797848">
        <ele>70.3</ele>
        <time>1970-01-01T00:19:14.000Z</time>
      </trkpt>
      <trkpt lat="42.295168" lon="-8.797837">
        <ele>70.3</ele>
        <time>1970-01-01T00:19:15.000Z</time>
      </trkpt>
      <trkpt lat="42.295165" lon="-8.797827">
        <ele>70.3</ele>
        <time>1970-01-01T00:19:16.000Z</time>
      </trkpt>
      <trkpt lat="42.29516" lon="-8.797818">
        <ele>70.3</ele>
        <time>1970-01-01T00:19:17.000Z</time>
      </trkpt>
      <trkpt lat="42.295153" lon="-8.797812">
        <ele>70.3</ele>
        <time>1970-01-01T00:19:18.000Z</time>
      </trkpt>
      <trkpt lat="42.295145" lon="-8.79781">
        <ele>70.3</ele>
        <time>1970-01-01T00:19:19.000Z</time>
      </trkpt>
      <trkpt lat="42.29514" lon="-8.797812">
        <ele>70.3</ele>
        <time>1970-01-01T00:19:20.000Z</time>
      </trkpt>
      <trkpt lat="42.295138" lon="-8.79781">
        <ele>70.3</ele>
        <time>1970-01-01T00:19:21.000Z</time>
      </trkpt>
      <trkpt lat="42.295137" lon="-8.79781">
        <ele>70.3</ele>
        <time>1970-01-01T00:19:22.000Z</time>
      </trkpt>
      <trkpt lat="42.295135" lon="-8.797808">
        <ele>71.3</ele>
        <time>1970-01-01T00:19:23.000Z</time>
      </trkpt>
      <trkpt lat="42.295135" lon="-8.797808">
        <ele>71.3</ele>
        <time>1970-01-01T00:19:24.000Z</time>
      </trkpt>
      <trkpt lat="42.295133" lon="-8.797807">
        <ele>71.3</ele>
        <time>1970-01-01T00:19:25.000Z</time>
      </trkpt>
      <trkpt lat="42.295133" lon="-8.797805">
        <ele>71.3</ele>
        <time>1970-01-01T00:19:26.000Z</time>
      </trkpt>
      <trkpt lat="42.295133" lon="-8.797803">
        <ele>71.3</ele>
        <time>1970-01-01T00:19:27.000Z</time>
      </trkpt>
      <trkpt lat="42.295133" lon="-8.797802">
        <ele>71.3</ele>
        <time>1970-01-01T00:19:28.000Z</time>
      </trkpt>
      <trkpt lat="42.295132" lon="-8.7978">
        <ele>71.3</ele>
        <time>1970-01-01T00:19:29.000Z</time>
      </trkpt>
      <trkpt lat="42.29513" lon="-8.797798">
        <ele>71.3</ele>
        <time>1970-01-01T00:19:30.000Z</time>
      </trkpt>
      <trkpt lat="42.295112" lon="-8.797798">
        <ele>71.3</ele>
        <time>1970-01-01T00:19:31.000Z</time>
      </trkpt>
      <trkpt lat="42.295087" lon="-8.797793">
        <ele>71.3</ele>
        <time>1970-01-01T00:19:32.000Z</time>
      </trkpt>
      <trkpt lat="42.29508" lon="-8.797803">
        <ele>71.3</ele>
        <time>1970-01-01T00:19:33.000Z</time>
      </trkpt>
      <trkpt lat="42.295077" lon="-8.797815">
        <ele>71.3</ele>
        <time>1970-01-01T00:19:34.000Z</time>
      </trkpt>
      <trkpt lat="42.295072" lon="-8.797832">
        <ele>70.3</ele>
        <time>1970-01-01T00:19:35.000Z</time>
      </trkpt>
      <trkpt lat="42.295067" lon="-8.797847">
        <ele>70.3</ele>
        <time>1970-01-01T00:19:36.000Z</time>
      </trkpt>
      <trkpt lat="42.295063" lon="-8.79786">
        <ele>70.3</ele>
        <time>1970-01-01T00:19:37.000Z</time>
      </trkpt>
      <trkpt lat="42.295053" lon="-8.797875">
        <ele>70.3</ele>
        <time>1970-01-01T00:19:38.000Z</time>
      </trkpt>
      <trkpt lat="42.295048" lon="-8.797888">
        <ele>70.3</ele>
        <time>1970-01-01T00:19:39.000Z</time>
      </trkpt>
      <trkpt lat="42.29504" lon="-8.797903">
        <ele>70.3</ele>
        <time>1970-01-01T00:19:40.000Z</time>
      </trkpt>
      <trkpt lat="42.295032" lon="-8.797917">
        <ele>70.3</ele>
        <time>1970-01-01T00:19:41.000Z</time>
      </trkpt>
      <trkpt lat="42.295018" lon="-8.79793">
        <ele>70.3</ele>
        <time>1970-01-01T00:19:42.000Z</time>
      </trkpt>
      <trkpt lat="42.295008" lon="-8.79794">
        <ele>70.3</ele>
        <time>1970-01-01T00:19:43.000Z</time>
      </trkpt>
      <trkpt lat="42.294997" lon="-8.797948">
        <ele>70.3</ele>
        <time>1970-01-01T00:19:44.000Z</time>
      </trkpt>
      <trkpt lat="42.294983" lon="-8.797955">
        <ele>70.3</ele>
        <time>1970-01-01T00:19:45.000Z</time>
      </trkpt>
      <trkpt lat="42.294968" lon="-8.797957">
        <ele>70.3</ele>
        <time>1970-01-01T00:19:46.000Z</time>
      </trkpt>
      <trkpt lat="42.294962" lon="-8.797962">
        <ele>70.3</ele>
        <time>1970-01-01T00:19:47.000Z</time>
      </trkpt>
      <trkpt lat="42.29495" lon="-8.797968">
        <ele>70.3</ele>
        <time>1970-01-01T00:19:48.000Z</time>
      </trkpt>
      <trkpt lat="42.294937" lon="-8.797975">
        <ele>70.3</ele>
        <time>1970-01-01T00:19:49.000Z</time>
      </trkpt>
      <trkpt lat="42.294925" lon="-8.797983">
        <ele>70.3</ele>
        <time>1970-01-01T00:19:50.000Z</time>
      </trkpt>
      <trkpt lat="42.294915" lon="-8.797992">
        <ele>70.3</ele>
        <time>1970-01-01T00:19:51.000Z</time>
      </trkpt>
      <trkpt lat="42.294907" lon="-8.798002">
        <ele>70.3</ele>
        <time>1970-01-01T00:19:52.000Z</time>
      </trkpt>
      <trkpt lat="42.294893" lon="-8.798007">
        <ele>70.3</ele>
        <time>1970-01-01T00:19:53.000Z</time>
      </trkpt>
      <trkpt lat="42.29488" lon="-8.798013">
        <ele>70.3</ele>
        <time>1970-01-01T00:19:54.000Z</time>
      </trkpt>
      <trkpt lat="42.294868" lon="-8.798022">
        <ele>70.3</ele>
        <time>1970-01-01T00:19:55.000Z</time>
      </trkpt>
      <trkpt lat="42.294858" lon="-8.798028">
        <ele>70.3</ele>
        <time>1970-01-01T00:19:56.000Z</time>
      </trkpt>
      <trkpt lat="42.294847" lon="-8.79804">
        <ele>70.3</ele>
        <time>1970-01-01T00:19:57.000Z</time>
      </trkpt>
      <trkpt lat="42.294833" lon="-8.798055">
        <ele>70.3</ele>
        <time>1970-01-01T00:19:58.000Z</time>
      </trkpt>
      <trkpt lat="42.294817" lon="-8.798072">
        <ele>69.2</ele>
        <time>1970-01-01T00:19:59.000Z</time>
      </trkpt>
      <trkpt lat="42.294802" lon="-8.798092">
        <ele>69.2</ele>
        <time>1970-01-01T00:20:00.000Z</time>
      </trkpt>
      <trkpt lat="42.294797" lon="-8.79811">
        <ele>69.2</ele>
        <time>1970-01-01T00:20:01.000Z</time>
      </trkpt>
      <trkpt lat="42.294792" lon="-8.798127">
        <ele>69.2</ele>
        <time>1970-01-01T00:20:02.000Z</time>
      </trkpt>
      <trkpt lat="42.294787" lon="-8.798143">
        <ele>69.2</ele>
        <time>1970-01-01T00:20:03.000Z</time>
      </trkpt>
      <trkpt lat="42.29478" lon="-8.798153">
        <ele>69.2</ele>
        <time>1970-01-01T00:20:04.000Z</time>
      </trkpt>
      <trkpt lat="42.294773" lon="-8.798162">
        <ele>69.2</ele>
        <time>1970-01-01T00:20:05.000Z</time>
      </trkpt>
      <trkpt lat="42.294763" lon="-8.798173">
        <ele>69.2</ele>
        <time>1970-01-01T00:20:06.000Z</time>
      </trkpt>
      <trkpt lat="42.294755" lon="-8.798182">
        <ele>69.2</ele>
        <time>1970-01-01T00:20:07.000Z</time>
      </trkpt>
      <trkpt lat="42.294733" lon="-8.79818">
        <ele>69.2</ele>
        <time>1970-01-01T00:20:08.000Z</time>
      </trkpt>
      <trkpt lat="42.294717" lon="-8.798183">
        <ele>70.3</ele>
        <time>1970-01-01T00:20:09.000Z</time>
      </trkpt>
      <trkpt lat="42.294702" lon="-8.798197">
        <ele>70.3</ele>
        <time>1970-01-01T00:20:10.000Z</time>
      </trkpt>
      <trkpt lat="42.294688" lon="-8.798212">
        <ele>70.3</ele>
        <time>1970-01-01T00:20:11.000Z</time>
      </trkpt>
      <trkpt lat="42.294683" lon="-8.798228">
        <ele>70.3</ele>
        <time>1970-01-01T00:20:12.000Z</time>
      </trkpt>
      <trkpt lat="42.294683" lon="-8.798247">
        <ele>69.2</ele>
        <time>1970-01-01T00:20:13.000Z</time>
      </trkpt>
      <trkpt lat="42.294687" lon="-8.79827">
        <ele>69.2</ele>
        <time>1970-01-01T00:20:14.000Z</time>
      </trkpt>
      <trkpt lat="42.29469" lon="-8.798287">
        <ele>69.2</ele>
        <time>1970-01-01T00:20:15.000Z</time>
      </trkpt>
      <trkpt lat="42.294692" lon="-8.798302">
        <ele>69.2</ele>
        <time>1970-01-01T00:20:16.000Z</time>
      </trkpt>
      <trkpt lat="42.294673" lon="-8.798308">
        <ele>69.2</ele>
        <time>1970-01-01T00:20:17.000Z</time>
      </trkpt>
      <trkpt lat="42.294663" lon="-8.798312">
        <ele>69.2</ele>
        <time>1970-01-01T00:20:18.000Z</time>
      </trkpt>
      <trkpt lat="42.294657" lon="-8.79832">
        <ele>69.2</ele>
        <time>1970-01-01T00:20:19.000Z</time>
      </trkpt>
      <trkpt lat="42.29465" lon="-8.798333">
        <ele>69.2</ele>
        <time>1970-01-01T00:20:20.000Z</time>
      </trkpt>
      <trkpt lat="42.294647" lon="-8.798348">
        <ele>69.2</ele>
        <time>1970-01-01T00:20:21.000Z</time>
      </trkpt>
      <trkpt lat="42.294643" lon="-8.798363">
        <ele>69.2</ele>
        <time>1970-01-01T00:20:22.000Z</time>
      </trkpt>
      <trkpt lat="42.294637" lon="-8.798373">
        <ele>69.2</ele>
        <time>1970-01-01T00:20:23.000Z</time>
      </trkpt>
      <trkpt lat="42.294628" lon="-8.798385">
        <ele>69.2</ele>
        <time>1970-01-01T00:20:24.000Z</time>
      </trkpt>
      <trkpt lat="42.294622" lon="-8.798398">
        <ele>69.2</ele>
        <time>1970-01-01T00:20:25.000Z</time>
      </trkpt>
      <trkpt lat="42.294615" lon="-8.79841">
        <ele>69.2</ele>
        <time>1970-01-01T00:20:26.000Z</time>
      </trkpt>
      <trkpt lat="42.294608" lon="-8.798422">
        <ele>69.2</ele>
        <time>1970-01-01T00:20:27.000Z</time>
      </trkpt>
      <trkpt lat="42.294603" lon="-8.79843">
        <ele>69.2</ele>
        <time>1970-01-01T00:20:28.000Z</time>
      </trkpt>
      <trkpt lat="42.294595" lon="-8.79844">
        <ele>69.2</ele>
        <time>1970-01-01T00:20:29.000Z</time>
      </trkpt>
      <trkpt lat="42.294585" lon="-8.798452">
        <ele>69.2</ele>
        <time>1970-01-01T00:20:30.000Z</time>
      </trkpt>
      <trkpt lat="42.294577" lon="-8.798465">
        <ele>69.2</ele>
        <time>1970-01-01T00:20:31.000Z</time>
      </trkpt>
      <trkpt lat="42.294568" lon="-8.798478">
        <ele>69.2</ele>
        <time>1970-01-01T00:20:32.000Z</time>
      </trkpt>
      <trkpt lat="42.294562" lon="-8.798495">
        <ele>69.2</ele>
        <time>1970-01-01T00:20:33.000Z</time>
      </trkpt>
      <trkpt lat="42.294558" lon="-8.798512">
        <ele>69.2</ele>
        <time>1970-01-01T00:20:34.000Z</time>
      </trkpt>
      <trkpt lat="42.294558" lon="-8.798527">
        <ele>68.3</ele>
        <time>1970-01-01T00:20:35.000Z</time>
      </trkpt>
      <trkpt lat="42.294557" lon="-8.79854">
        <ele>68.3</ele>
        <time>1970-01-01T00:20:36.000Z</time>
      </trkpt>
      <trkpt lat="42.29455" lon="-8.798558">
        <ele>68.3</ele>
        <time>1970-01-01T00:20:37.000Z</time>
      </trkpt>
      <trkpt lat="42.294543" lon="-8.798575">
        <ele>68.3</ele>
        <time>1970-01-01T00:20:38.000Z</time>
      </trkpt>
      <trkpt lat="42.294535" lon="-8.798588">
        <ele>68.3</ele>
        <time>1970-01-01T00:20:39.000Z</time>
      </trkpt>
      <trkpt lat="42.294527" lon="-8.7986">
        <ele>68.3</ele>
        <time>1970-01-01T00:20:40.000Z</time>
      </trkpt>
      <trkpt lat="42.29452" lon="-8.798615">
        <ele>68.3</ele>
        <time>1970-01-01T00:20:41.000Z</time>
      </trkpt>
      <trkpt lat="42.294515" lon="-8.79863">
        <ele>68.3</ele>
        <time>1970-01-01T00:20:42.000Z</time>
      </trkpt>
      <trkpt lat="42.294515" lon="-8.798652">
        <ele>68.3</ele>
        <time>1970-01-01T00:20:43.000Z</time>
      </trkpt>
      <trkpt lat="42.294517" lon="-8.79867">
        <ele>68.3</ele>
        <time>1970-01-01T00:20:44.000Z</time>
      </trkpt>
      <trkpt lat="42.294513" lon="-8.79869">
        <ele>68.3</ele>
        <time>1970-01-01T00:20:45.000Z</time>
      </trkpt>
      <trkpt lat="42.294517" lon="-8.798708">
        <ele>68.3</ele>
        <time>1970-01-01T00:20:46.000Z</time>
      </trkpt>
      <trkpt lat="42.294518" lon="-8.798737">
        <ele>68.3</ele>
        <time>1970-01-01T00:20:47.000Z</time>
      </trkpt>
      <trkpt lat="42.294528" lon="-8.798773">
        <ele>68.3</ele>
        <time>1970-01-01T00:20:48.000Z</time>
      </trkpt>
      <trkpt lat="42.294535" lon="-8.798812">
        <ele>68.3</ele>
        <time>1970-01-01T00:20:49.000Z</time>
      </trkpt>
      <trkpt lat="42.294538" lon="-8.798848">
        <ele>68.3</ele>
        <time>1970-01-01T00:20:50.000Z</time>
      </trkpt>
      <trkpt lat="42.294542" lon="-8.798883">
        <ele>68.3</ele>
        <time>1970-01-01T00:20:51.000Z</time>
      </trkpt>
      <trkpt lat="42.294542" lon="-8.798903">
        <ele>68.3</ele>
        <time>1970-01-01T00:20:52.000Z</time>
      </trkpt>
      <trkpt lat="42.29455" lon="-8.798925">
        <ele>68.3</ele>
        <time>1970-01-01T00:20:53.000Z</time>
      </trkpt>
      <trkpt lat="42.294555" lon="-8.79894">
        <ele>68.3</ele>
        <time>1970-01-01T00:20:54.000Z</time>
      </trkpt>
      <trkpt lat="42.29456" lon="-8.798962">
        <ele>68.3</ele>
        <time>1970-01-01T00:20:55.000Z</time>
      </trkpt>
      <trkpt lat="42.294563" lon="-8.798982">
        <ele>68.3</ele>
        <time>1970-01-01T00:20:56.000Z</time>
      </trkpt>
      <trkpt lat="42.294567" lon="-8.798998">
        <ele>68.3</ele>
        <time>1970-01-01T00:20:57.000Z</time>
      </trkpt>
      <trkpt lat="42.294567" lon="-8.799018">
        <ele>68.3</ele>
        <time>1970-01-01T00:20:58.000Z</time>
      </trkpt>
      <trkpt lat="42.294567" lon="-8.799027">
        <ele>68.3</ele>
        <time>1970-01-01T00:20:59.000Z</time>
      </trkpt>
      <trkpt lat="42.29457" lon="-8.799038">
        <ele>68.3</ele>
        <time>1970-01-01T00:21:00.000Z</time>
      </trkpt>
      <trkpt lat="42.294573" lon="-8.799048">
        <ele>69.2</ele>
        <time>1970-01-01T00:21:01.000Z</time>
      </trkpt>
      <trkpt lat="42.294575" lon="-8.799065">
        <ele>69.2</ele>
        <time>1970-01-01T00:21:02.000Z</time>
      </trkpt>
      <trkpt lat="42.294568" lon="-8.799078">
        <ele>69.2</ele>
        <time>1970-01-01T00:21:03.000Z</time>
      </trkpt>
      <trkpt lat="42.294557" lon="-8.79909">
        <ele>69.2</ele>
        <time>1970-01-01T00:21:04.000Z</time>
      </trkpt>
      <trkpt lat="42.294548" lon="-8.799088">
        <ele>69.2</ele>
        <time>1970-01-01T00:21:05.000Z</time>
      </trkpt>
      <trkpt lat="42.294555" lon="-8.799103">
        <ele>69.2</ele>
        <time>1970-01-01T00:21:06.000Z</time>
      </trkpt>
      <trkpt lat="42.294558" lon="-8.799108">
        <ele>69.2</ele>
        <time>1970-01-01T00:21:07.000Z</time>
      </trkpt>
      <trkpt lat="42.294557" lon="-8.79912">
        <ele>69.2</ele>
        <time>1970-01-01T00:21:08.000Z</time>
      </trkpt>
      <trkpt lat="42.294553" lon="-8.799127">
        <ele>70.3</ele>
        <time>1970-01-01T00:21:09.000Z</time>
      </trkpt>
      <trkpt lat="42.294548" lon="-8.799135">
        <ele>70.3</ele>
        <time>1970-01-01T00:21:10.000Z</time>
      </trkpt>
      <trkpt lat="42.294543" lon="-8.799145">
        <ele>70.3</ele>
        <time>1970-01-01T00:21:11.000Z</time>
      </trkpt>
      <trkpt lat="42.294535" lon="-8.799155">
        <ele>70.3</ele>
        <time>1970-01-01T00:21:12.000Z</time>
      </trkpt>
      <trkpt lat="42.294522" lon="-8.79917">
        <ele>69.2</ele>
        <time>1970-01-01T00:21:13.000Z</time>
      </trkpt>
      <trkpt lat="42.294515" lon="-8.799182">
        <ele>69.2</ele>
        <time>1970-01-01T00:21:14.000Z</time>
      </trkpt>
      <trkpt lat="42.294507" lon="-8.799197">
        <ele>69.2</ele>
        <time>1970-01-01T00:21:15.000Z</time>
      </trkpt>
      <trkpt lat="42.294498" lon="-8.799205">
        <ele>69.2</ele>
        <time>1970-01-01T00:21:16.000Z</time>
      </trkpt>
      <trkpt lat="42.294487" lon="-8.79922">
        <ele>69.2</ele>
        <time>1970-01-01T00:21:17.000Z</time>
      </trkpt>
      <trkpt lat="42.294478" lon="-8.799218">
        <ele>69.2</ele>
        <time>1970-01-01T00:21:18.000Z</time>
      </trkpt>
      <trkpt lat="42.294468" lon="-8.799237">
        <ele>69.2</ele>
        <time>1970-01-01T00:21:19.000Z</time>
      </trkpt>
      <trkpt lat="42.294463" lon="-8.79925">
        <ele>69.2</ele>
        <time>1970-01-01T00:21:20.000Z</time>
      </trkpt>
      <trkpt lat="42.29446" lon="-8.799263">
        <ele>69.2</ele>
        <time>1970-01-01T00:21:21.000Z</time>
      </trkpt>
      <trkpt lat="42.294453" lon="-8.799278">
        <ele>69.2</ele>
        <time>1970-01-01T00:21:22.000Z</time>
      </trkpt>
      <trkpt lat="42.294453" lon="-8.799287">
        <ele>69.2</ele>
        <time>1970-01-01T00:21:23.000Z</time>
      </trkpt>
      <trkpt lat="42.294452" lon="-8.799298">
        <ele>69.2</ele>
        <time>1970-01-01T00:21:24.000Z</time>
      </trkpt>
      <trkpt lat="42.294448" lon="-8.799298">
        <ele>69.2</ele>
        <time>1970-01-01T00:21:25.000Z</time>
      </trkpt>
      <trkpt lat="42.294443" lon="-8.7993">
        <ele>69.2</ele>
        <time>1970-01-01T00:21:26.000Z</time>
      </trkpt>
      <trkpt lat="42.294433" lon="-8.799305">
        <ele>68.3</ele>
        <time>1970-01-01T00:21:27.000Z</time>
      </trkpt>
      <trkpt lat="42.294427" lon="-8.799307">
        <ele>68.3</ele>
        <time>1970-01-01T00:21:28.000Z</time>
      </trkpt>
      <trkpt lat="42.29442" lon="-8.799308">
        <ele>68.3</ele>
        <time>1970-01-01T00:21:29.000Z</time>
      </trkpt>
      <trkpt lat="42.294412" lon="-8.799307">
        <ele>68.3</ele>
        <time>1970-01-01T00:21:30.000Z</time>
      </trkpt>
      <trkpt lat="42.294405" lon="-8.799315">
        <ele>68.3</ele>
        <time>1970-01-01T00:21:31.000Z</time>
      </trkpt>
      <trkpt lat="42.294392" lon="-8.79933">
        <ele>68.3</ele>
        <time>1970-01-01T00:21:32.000Z</time>
      </trkpt>
      <trkpt lat="42.294387" lon="-8.799347">
        <ele>68.3</ele>
        <time>1970-01-01T00:21:33.000Z</time>
      </trkpt>
      <trkpt lat="42.294378" lon="-8.799358">
        <ele>68.3</ele>
        <time>1970-01-01T00:21:34.000Z</time>
      </trkpt>
      <trkpt lat="42.294377" lon="-8.799372">
        <ele>68.3</ele>
        <time>1970-01-01T00:21:35.000Z</time>
      </trkpt>
      <trkpt lat="42.294373" lon="-8.79939">
        <ele>68.3</ele>
        <time>1970-01-01T00:21:36.000Z</time>
      </trkpt>
      <trkpt lat="42.294367" lon="-8.799397">
        <ele>68.3</ele>
        <time>1970-01-01T00:21:37.000Z</time>
      </trkpt>
      <trkpt lat="42.29436" lon="-8.799402">
        <ele>68.3</ele>
        <time>1970-01-01T00:21:38.000Z</time>
      </trkpt>
      <trkpt lat="42.294355" lon="-8.799413">
        <ele>68.3</ele>
        <time>1970-01-01T00:21:39.000Z</time>
      </trkpt>
      <trkpt lat="42.294345" lon="-8.799427">
        <ele>68.3</ele>
        <time>1970-01-01T00:21:40.000Z</time>
      </trkpt>
      <trkpt lat="42.294343" lon="-8.799447">
        <ele>68.3</ele>
        <time>1970-01-01T00:21:41.000Z</time>
      </trkpt>
      <trkpt lat="42.29434" lon="-8.799462">
        <ele>68.3</ele>
        <time>1970-01-01T00:21:42.000Z</time>
      </trkpt>
      <trkpt lat="42.294337" lon="-8.799475">
        <ele>67.2</ele>
        <time>1970-01-01T00:21:43.000Z</time>
      </trkpt>
      <trkpt lat="42.294327" lon="-8.799488">
        <ele>67.2</ele>
        <time>1970-01-01T00:21:44.000Z</time>
      </trkpt>
      <trkpt lat="42.294315" lon="-8.799505">
        <ele>67.2</ele>
        <time>1970-01-01T00:21:45.000Z</time>
      </trkpt>
      <trkpt lat="42.294305" lon="-8.799517">
        <ele>67.2</ele>
        <time>1970-01-01T00:21:46.000Z</time>
      </trkpt>
      <trkpt lat="42.294298" lon="-8.799532">
        <ele>67.2</ele>
        <time>1970-01-01T00:21:47.000Z</time>
      </trkpt>
      <trkpt lat="42.29429" lon="-8.799537">
        <ele>67.2</ele>
        <time>1970-01-01T00:21:48.000Z</time>
      </trkpt>
      <trkpt lat="42.294283" lon="-8.799548">
        <ele>67.2</ele>
        <time>1970-01-01T00:21:49.000Z</time>
      </trkpt>
      <trkpt lat="42.294277" lon="-8.799565">
        <ele>67.2</ele>
        <time>1970-01-01T00:21:50.000Z</time>
      </trkpt>
      <trkpt lat="42.294268" lon="-8.799582">
        <ele>67.2</ele>
        <time>1970-01-01T00:21:51.000Z</time>
      </trkpt>
      <trkpt lat="42.294258" lon="-8.799595">
        <ele>67.2</ele>
        <time>1970-01-01T00:21:52.000Z</time>
      </trkpt>
      <trkpt lat="42.294247" lon="-8.79961">
        <ele>67.2</ele>
        <time>1970-01-01T00:21:53.000Z</time>
      </trkpt>
      <trkpt lat="42.294237" lon="-8.799627">
        <ele>67.2</ele>
        <time>1970-01-01T00:21:54.000Z</time>
      </trkpt>
      <trkpt lat="42.294228" lon="-8.79964">
        <ele>67.2</ele>
        <time>1970-01-01T00:21:55.000Z</time>
      </trkpt>
      <trkpt lat="42.294225" lon="-8.799653">
        <ele>67.2</ele>
        <time>1970-01-01T00:21:56.000Z</time>
      </trkpt>
      <trkpt lat="42.29422" lon="-8.799668">
        <ele>67.2</ele>
        <time>1970-01-01T00:21:57.000Z</time>
      </trkpt>
      <trkpt lat="42.294215" lon="-8.79969">
        <ele>67.2</ele>
        <time>1970-01-01T00:21:58.000Z</time>
      </trkpt>
      <trkpt lat="42.294212" lon="-8.79971">
        <ele>67.2</ele>
        <time>1970-01-01T00:21:59.000Z</time>
      </trkpt>
      <trkpt lat="42.294205" lon="-8.799725">
        <ele>67.2</ele>
        <time>1970-01-01T00:22:00.000Z</time>
      </trkpt>
      <trkpt lat="42.2942" lon="-8.799737">
        <ele>67.2</ele>
        <time>1970-01-01T00:22:01.000Z</time>
      </trkpt>
      <trkpt lat="42.294192" lon="-8.799753">
        <ele>67.2</ele>
        <time>1970-01-01T00:22:02.000Z</time>
      </trkpt>
      <trkpt lat="42.294185" lon="-8.799765">
        <ele>67.2</ele>
        <time>1970-01-01T00:22:03.000Z</time>
      </trkpt>
      <trkpt lat="42.294175" lon="-8.799777">
        <ele>67.2</ele>
        <time>1970-01-01T00:22:04.000Z</time>
      </trkpt>
      <trkpt lat="42.294163" lon="-8.799788">
        <ele>67.2</ele>
        <time>1970-01-01T00:22:05.000Z</time>
      </trkpt>
      <trkpt lat="42.294153" lon="-8.799798">
        <ele>67.2</ele>
        <time>1970-01-01T00:22:06.000Z</time>
      </trkpt>
      <trkpt lat="42.294145" lon="-8.799813">
        <ele>68.3</ele>
        <time>1970-01-01T00:22:07.000Z</time>
      </trkpt>
      <trkpt lat="42.294138" lon="-8.799827">
        <ele>68.3</ele>
        <time>1970-01-01T00:22:08.000Z</time>
      </trkpt>
      <trkpt lat="42.294133" lon="-8.79984">
        <ele>67.2</ele>
        <time>1970-01-01T00:22:09.000Z</time>
      </trkpt>
      <trkpt lat="42.29413" lon="-8.799853">
        <ele>67.2</ele>
        <time>1970-01-01T00:22:10.000Z</time>
      </trkpt>
      <trkpt lat="42.294125" lon="-8.799868">
        <ele>67.2</ele>
        <time>1970-01-01T00:22:11.000Z</time>
      </trkpt>
      <trkpt lat="42.294118" lon="-8.799888">
        <ele>67.2</ele>
        <time>1970-01-01T00:22:12.000Z</time>
      </trkpt>
      <trkpt lat="42.294115" lon="-8.799905">
        <ele>67.2</ele>
        <time>1970-01-01T00:22:13.000Z</time>
      </trkpt>
      <trkpt lat="42.294112" lon="-8.799922">
        <ele>67.2</ele>
        <time>1970-01-01T00:22:14.000Z</time>
      </trkpt>
      <trkpt lat="42.294107" lon="-8.799935">
        <ele>68.3</ele>
        <time>1970-01-01T00:22:15.000Z</time>
      </trkpt>
      <trkpt lat="42.294105" lon="-8.799952">
        <ele>68.3</ele>
        <time>1970-01-01T00:22:16.000Z</time>
      </trkpt>
      <trkpt lat="42.2941" lon="-8.79997">
        <ele>69.2</ele>
        <time>1970-01-01T00:22:17.000Z</time>
      </trkpt>
      <trkpt lat="42.294097" lon="-8.799983">
        <ele>69.2</ele>
        <time>1970-01-01T00:22:18.000Z</time>
      </trkpt>
      <trkpt lat="42.294097" lon="-8.799998">
        <ele>69.2</ele>
        <time>1970-01-01T00:22:19.000Z</time>
      </trkpt>
      <trkpt lat="42.294098" lon="-8.800015">
        <ele>69.2</ele>
        <time>1970-01-01T00:22:20.000Z</time>
      </trkpt>
      <trkpt lat="42.2941" lon="-8.80003">
        <ele>68.3</ele>
        <time>1970-01-01T00:22:21.000Z</time>
      </trkpt>
      <trkpt lat="42.2941" lon="-8.800045">
        <ele>68.3</ele>
        <time>1970-01-01T00:22:22.000Z</time>
      </trkpt>
      <trkpt lat="42.294098" lon="-8.800062">
        <ele>68.3</ele>
        <time>1970-01-01T00:22:23.000Z</time>
      </trkpt>
      <trkpt lat="42.294098" lon="-8.800075">
        <ele>68.3</ele>
        <time>1970-01-01T00:22:24.000Z</time>
      </trkpt>
      <trkpt lat="42.294097" lon="-8.800087">
        <ele>68.3</ele>
        <time>1970-01-01T00:22:25.000Z</time>
      </trkpt>
      <trkpt lat="42.294093" lon="-8.8001">
        <ele>68.3</ele>
        <time>1970-01-01T00:22:26.000Z</time>
      </trkpt>
      <trkpt lat="42.29409" lon="-8.800113">
        <ele>69.2</ele>
        <time>1970-01-01T00:22:27.000Z</time>
      </trkpt>
      <trkpt lat="42.294087" lon="-8.800125">
        <ele>69.2</ele>
        <time>1970-01-01T00:22:28.000Z</time>
      </trkpt>
      <trkpt lat="42.29408" lon="-8.800135">
        <ele>69.2</ele>
        <time>1970-01-01T00:22:29.000Z</time>
      </trkpt>
      <trkpt lat="42.29407" lon="-8.80014">
        <ele>69.2</ele>
        <time>1970-01-01T00:22:30.000Z</time>
      </trkpt>
      <trkpt lat="42.294058" lon="-8.800143">
        <ele>69.2</ele>
        <time>1970-01-01T00:22:31.000Z</time>
      </trkpt>
      <trkpt lat="42.294047" lon="-8.800145">
        <ele>69.2</ele>
        <time>1970-01-01T00:22:32.000Z</time>
      </trkpt>
      <trkpt lat="42.294037" lon="-8.800148">
        <ele>69.2</ele>
        <time>1970-01-01T00:22:33.000Z</time>
      </trkpt>
      <trkpt lat="42.294027" lon="-8.800153">
        <ele>69.2</ele>
        <time>1970-01-01T00:22:34.000Z</time>
      </trkpt>
      <trkpt lat="42.294018" lon="-8.80016">
        <ele>69.2</ele>
        <time>1970-01-01T00:22:35.000Z</time>
      </trkpt>
      <trkpt lat="42.294008" lon="-8.800165">
        <ele>69.2</ele>
        <time>1970-01-01T00:22:36.000Z</time>
      </trkpt>
      <trkpt lat="42.293997" lon="-8.80017">
        <ele>69.2</ele>
        <time>1970-01-01T00:22:37.000Z</time>
      </trkpt>
      <trkpt lat="42.293985" lon="-8.800177">
        <ele>69.2</ele>
        <time>1970-01-01T00:22:38.000Z</time>
      </trkpt>
      <trkpt lat="42.293975" lon="-8.80018">
        <ele>69.2</ele>
        <time>1970-01-01T00:22:39.000Z</time>
      </trkpt>
      <trkpt lat="42.293958" lon="-8.800188">
        <ele>69.2</ele>
        <time>1970-01-01T00:22:40.000Z</time>
      </trkpt>
      <trkpt lat="42.293948" lon="-8.800198">
        <ele>68.3</ele>
        <time>1970-01-01T00:22:41.000Z</time>
      </trkpt>
      <trkpt lat="42.293937" lon="-8.800207">
        <ele>68.3</ele>
        <time>1970-01-01T00:22:42.000Z</time>
      </trkpt>
      <trkpt lat="42.293927" lon="-8.800213">
        <ele>68.3</ele>
        <time>1970-01-01T00:22:43.000Z</time>
      </trkpt>
      <trkpt lat="42.293917" lon="-8.800218">
        <ele>68.3</ele>
        <time>1970-01-01T00:22:44.000Z</time>
      </trkpt>
      <trkpt lat="42.293903" lon="-8.800223">
        <ele>68.3</ele>
        <time>1970-01-01T00:22:45.000Z</time>
      </trkpt>
      <trkpt lat="42.293892" lon="-8.80023">
        <ele>68.3</ele>
        <time>1970-01-01T00:22:46.000Z</time>
      </trkpt>
      <trkpt lat="42.293878" lon="-8.800238">
        <ele>68.3</ele>
        <time>1970-01-01T00:22:47.000Z</time>
      </trkpt>
      <trkpt lat="42.293868" lon="-8.800243">
        <ele>68.3</ele>
        <time>1970-01-01T00:22:48.000Z</time>
      </trkpt>
      <trkpt lat="42.29386" lon="-8.80025">
        <ele>67.2</ele>
        <time>1970-01-01T00:22:49.000Z</time>
      </trkpt>
      <trkpt lat="42.293855" lon="-8.800252">
        <ele>67.2</ele>
        <time>1970-01-01T00:22:50.000Z</time>
      </trkpt>
      <trkpt lat="42.293852" lon="-8.800255">
        <ele>67.2</ele>
        <time>1970-01-01T00:22:51.000Z</time>
      </trkpt>
      <trkpt lat="42.29385" lon="-8.800257">
        <ele>67.2</ele>
        <time>1970-01-01T00:22:52.000Z</time>
      </trkpt>
      <trkpt lat="42.29385" lon="-8.800257">
        <ele>67.2</ele>
        <time>1970-01-01T00:22:53.000Z</time>
      </trkpt>
      <trkpt lat="42.293848" lon="-8.800257">
        <ele>67.2</ele>
        <time>1970-01-01T00:22:54.000Z</time>
      </trkpt>
      <trkpt lat="42.293848" lon="-8.800255">
        <ele>67.2</ele>
        <time>1970-01-01T00:22:55.000Z</time>
      </trkpt>
      <trkpt lat="42.293847" lon="-8.800255">
        <ele>67.2</ele>
        <time>1970-01-01T00:22:56.000Z</time>
      </trkpt>
      <trkpt lat="42.29384" lon="-8.800258">
        <ele>67.2</ele>
        <time>1970-01-01T00:22:57.000Z</time>
      </trkpt>
      <trkpt lat="42.293833" lon="-8.800263">
        <ele>67.2</ele>
        <time>1970-01-01T00:22:58.000Z</time>
      </trkpt>
      <trkpt lat="42.293823" lon="-8.800268">
        <ele>67.2</ele>
        <time>1970-01-01T00:22:59.000Z</time>
      </trkpt>
      <trkpt lat="42.293812" lon="-8.800273">
        <ele>67.2</ele>
        <time>1970-01-01T00:23:00.000Z</time>
      </trkpt>
      <trkpt lat="42.293797" lon="-8.800278">
        <ele>67.2</ele>
        <time>1970-01-01T00:23:01.000Z</time>
      </trkpt>
      <trkpt lat="42.29378" lon="-8.80028">
        <ele>67.2</ele>
        <time>1970-01-01T00:23:02.000Z</time>
      </trkpt>
      <trkpt lat="42.293772" lon="-8.800282">
        <ele>67.2</ele>
        <time>1970-01-01T00:23:03.000Z</time>
      </trkpt>
      <trkpt lat="42.29376" lon="-8.800287">
        <ele>67.2</ele>
        <time>1970-01-01T00:23:04.000Z</time>
      </trkpt>
      <trkpt lat="42.293748" lon="-8.800292">
        <ele>67.2</ele>
        <time>1970-01-01T00:23:05.000Z</time>
      </trkpt>
      <trkpt lat="42.293733" lon="-8.800295">
        <ele>67.2</ele>
        <time>1970-01-01T00:23:06.000Z</time>
      </trkpt>
      <trkpt lat="42.293722" lon="-8.800298">
        <ele>67.2</ele>
        <time>1970-01-01T00:23:07.000Z</time>
      </trkpt>
      <trkpt lat="42.29371" lon="-8.800302">
        <ele>67.2</ele>
        <time>1970-01-01T00:23:08.000Z</time>
      </trkpt>
      <trkpt lat="42.293702" lon="-8.800303">
        <ele>67.2</ele>
        <time>1970-01-01T00:23:09.000Z</time>
      </trkpt>
      <trkpt lat="42.29369" lon="-8.800303">
        <ele>67.2</ele>
        <time>1970-01-01T00:23:10.000Z</time>
      </trkpt>
      <trkpt lat="42.293675" lon="-8.800305">
        <ele>67.2</ele>
        <time>1970-01-01T00:23:11.000Z</time>
      </trkpt>
      <trkpt lat="42.293662" lon="-8.800308">
        <ele>67.2</ele>
        <time>1970-01-01T00:23:12.000Z</time>
      </trkpt>
      <trkpt lat="42.293652" lon="-8.800312">
        <ele>66.3</ele>
        <time>1970-01-01T00:23:13.000Z</time>
      </trkpt>
      <trkpt lat="42.293638" lon="-8.800317">
        <ele>66.3</ele>
        <time>1970-01-01T00:23:14.000Z</time>
      </trkpt>
      <trkpt lat="42.293625" lon="-8.80032">
        <ele>66.3</ele>
        <time>1970-01-01T00:23:15.000Z</time>
      </trkpt>
      <trkpt lat="42.29362" lon="-8.800323">
        <ele>66.3</ele>
        <time>1970-01-01T00:23:16.000Z</time>
      </trkpt>
      <trkpt lat="42.293612" lon="-8.80033">
        <ele>66.3</ele>
        <time>1970-01-01T00:23:17.000Z</time>
      </trkpt>
      <trkpt lat="42.293605" lon="-8.80033">
        <ele>66.3</ele>
        <time>1970-01-01T00:23:18.000Z</time>
      </trkpt>
      <trkpt lat="42.293595" lon="-8.800332">
        <ele>66.3</ele>
        <time>1970-01-01T00:23:19.000Z</time>
      </trkpt>
      <trkpt lat="42.293587" lon="-8.800335">
        <ele>66.3</ele>
        <time>1970-01-01T00:23:20.000Z</time>
      </trkpt>
      <trkpt lat="42.29358" lon="-8.800337">
        <ele>66.3</ele>
        <time>1970-01-01T00:23:21.000Z</time>
      </trkpt>
      <trkpt lat="42.293568" lon="-8.800338">
        <ele>66.3</ele>
        <time>1970-01-01T00:23:22.000Z</time>
      </trkpt>
      <trkpt lat="42.293558" lon="-8.800338">
        <ele>66.3</ele>
        <time>1970-01-01T00:23:23.000Z</time>
      </trkpt>
      <trkpt lat="42.293548" lon="-8.800342">
        <ele>66.3</ele>
        <time>1970-01-01T00:23:24.000Z</time>
      </trkpt>
      <trkpt lat="42.293538" lon="-8.800345">
        <ele>66.3</ele>
        <time>1970-01-01T00:23:25.000Z</time>
      </trkpt>
      <trkpt lat="42.293527" lon="-8.800348">
        <ele>66.3</ele>
        <time>1970-01-01T00:23:26.000Z</time>
      </trkpt>
      <trkpt lat="42.293517" lon="-8.800352">
        <ele>66.3</ele>
        <time>1970-01-01T00:23:27.000Z</time>
      </trkpt>
      <trkpt lat="42.293505" lon="-8.800358">
        <ele>66.3</ele>
        <time>1970-01-01T00:23:28.000Z</time>
      </trkpt>
      <trkpt lat="42.293495" lon="-8.800363">
        <ele>66.3</ele>
        <time>1970-01-01T00:23:29.000Z</time>
      </trkpt>
      <trkpt lat="42.293483" lon="-8.800368">
        <ele>66.3</ele>
        <time>1970-01-01T00:23:30.000Z</time>
      </trkpt>
      <trkpt lat="42.293473" lon="-8.800373">
        <ele>66.3</ele>
        <time>1970-01-01T00:23:31.000Z</time>
      </trkpt>
      <trkpt lat="42.293463" lon="-8.800378">
        <ele>66.3</ele>
        <time>1970-01-01T00:23:32.000Z</time>
      </trkpt>
      <trkpt lat="42.29345" lon="-8.800382">
        <ele>66.3</ele>
        <time>1970-01-01T00:23:33.000Z</time>
      </trkpt>
      <trkpt lat="42.293437" lon="-8.800385">
        <ele>66.3</ele>
        <time>1970-01-01T00:23:34.000Z</time>
      </trkpt>
      <trkpt lat="42.293425" lon="-8.80039">
        <ele>66.3</ele>
        <time>1970-01-01T00:23:35.000Z</time>
      </trkpt>
      <trkpt lat="42.293415" lon="-8.800393">
        <ele>66.3</ele>
        <time>1970-01-01T00:23:36.000Z</time>
      </trkpt>
      <trkpt lat="42.293403" lon="-8.800398">
        <ele>66.3</ele>
        <time>1970-01-01T00:23:37.000Z</time>
      </trkpt>
      <trkpt lat="42.293393" lon="-8.800403">
        <ele>66.3</ele>
        <time>1970-01-01T00:23:38.000Z</time>
      </trkpt>
      <trkpt lat="42.293382" lon="-8.800408">
        <ele>66.3</ele>
        <time>1970-01-01T00:23:39.000Z</time>
      </trkpt>
      <trkpt lat="42.29337" lon="-8.800413">
        <ele>66.3</ele>
        <time>1970-01-01T00:23:40.000Z</time>
      </trkpt>
      <trkpt lat="42.29336" lon="-8.80042">
        <ele>66.3</ele>
        <time>1970-01-01T00:23:41.000Z</time>
      </trkpt>
      <trkpt lat="42.29335" lon="-8.800427">
        <ele>66.3</ele>
        <time>1970-01-01T00:23:42.000Z</time>
      </trkpt>
      <trkpt lat="42.293338" lon="-8.800433">
        <ele>66.3</ele>
        <time>1970-01-01T00:23:43.000Z</time>
      </trkpt>
      <trkpt lat="42.293328" lon="-8.800442">
        <ele>66.3</ele>
        <time>1970-01-01T00:23:44.000Z</time>
      </trkpt>
      <trkpt lat="42.293317" lon="-8.80045">
        <ele>66.3</ele>
        <time>1970-01-01T00:23:45.000Z</time>
      </trkpt>
      <trkpt lat="42.293307" lon="-8.800457">
        <ele>66.3</ele>
        <time>1970-01-01T00:23:46.000Z</time>
      </trkpt>
      <trkpt lat="42.293293" lon="-8.800462">
        <ele>66.3</ele>
        <time>1970-01-01T00:23:47.000Z</time>
      </trkpt>
      <trkpt lat="42.29328" lon="-8.800465">
        <ele>66.3</ele>
        <time>1970-01-01T00:23:48.000Z</time>
      </trkpt>
      <trkpt lat="42.293267" lon="-8.800472">
        <ele>66.3</ele>
        <time>1970-01-01T00:23:49.000Z</time>
      </trkpt>
      <trkpt lat="42.293255" lon="-8.800478">
        <ele>66.3</ele>
        <time>1970-01-01T00:23:50.000Z</time>
      </trkpt>
      <trkpt lat="42.293247" lon="-8.800483">
        <ele>66.3</ele>
        <time>1970-01-01T00:23:51.000Z</time>
      </trkpt>
      <trkpt lat="42.29324" lon="-8.800493">
        <ele>66.3</ele>
        <time>1970-01-01T00:23:52.000Z</time>
      </trkpt>
      <trkpt lat="42.293232" lon="-8.800503">
        <ele>66.3</ele>
        <time>1970-01-01T00:23:53.000Z</time>
      </trkpt>
      <trkpt lat="42.293223" lon="-8.800512">
        <ele>66.3</ele>
        <time>1970-01-01T00:23:54.000Z</time>
      </trkpt>
      <trkpt lat="42.293215" lon="-8.800523">
        <ele>66.3</ele>
        <time>1970-01-01T00:23:55.000Z</time>
      </trkpt>
      <trkpt lat="42.29321" lon="-8.800532">
        <ele>66.3</ele>
        <time>1970-01-01T00:23:56.000Z</time>
      </trkpt>
      <trkpt lat="42.2932" lon="-8.800543">
        <ele>67.2</ele>
        <time>1970-01-01T00:23:57.000Z</time>
      </trkpt>
      <trkpt lat="42.293187" lon="-8.800553">
        <ele>67.2</ele>
        <time>1970-01-01T00:23:58.000Z</time>
      </trkpt>
      <trkpt lat="42.293175" lon="-8.800558">
        <ele>67.2</ele>
        <time>1970-01-01T00:23:59.000Z</time>
      </trkpt>
      <trkpt lat="42.293163" lon="-8.800567">
        <ele>67.2</ele>
        <time>1970-01-01T00:24:00.000Z</time>
      </trkpt>
      <trkpt lat="42.293153" lon="-8.80057">
        <ele>66.3</ele>
        <time>1970-01-01T00:24:01.000Z</time>
      </trkpt>
      <trkpt lat="42.293143" lon="-8.800572">
        <ele>66.3</ele>
        <time>1970-01-01T00:24:02.000Z</time>
      </trkpt>
      <trkpt lat="42.293132" lon="-8.800572">
        <ele>66.3</ele>
        <time>1970-01-01T00:24:03.000Z</time>
      </trkpt>
      <trkpt lat="42.293123" lon="-8.800572">
        <ele>66.3</ele>
        <time>1970-01-01T00:24:04.000Z</time>
      </trkpt>
      <trkpt lat="42.293115" lon="-8.800575">
        <ele>66.3</ele>
        <time>1970-01-01T00:24:05.000Z</time>
      </trkpt>
      <trkpt lat="42.2931" lon="-8.800578">
        <ele>66.3</ele>
        <time>1970-01-01T00:24:06.000Z</time>
      </trkpt>
      <trkpt lat="42.29308" lon="-8.800577">
        <ele>65.2</ele>
        <time>1970-01-01T00:24:07.000Z</time>
      </trkpt>
      <trkpt lat="42.293068" lon="-8.80058">
        <ele>65.2</ele>
        <time>1970-01-01T00:24:08.000Z</time>
      </trkpt>
      <trkpt lat="42.293065" lon="-8.800577">
        <ele>65.2</ele>
        <time>1970-01-01T00:24:09.000Z</time>
      </trkpt>
      <trkpt lat="42.29306" lon="-8.80057">
        <ele>65.2</ele>
        <time>1970-01-01T00:24:10.000Z</time>
      </trkpt>
      <trkpt lat="42.293052" lon="-8.800565">
        <ele>65.2</ele>
        <time>1970-01-01T00:24:11.000Z</time>
      </trkpt>
      <trkpt lat="42.293045" lon="-8.800557">
        <ele>65.2</ele>
        <time>1970-01-01T00:24:12.000Z</time>
      </trkpt>
      <trkpt lat="42.29304" lon="-8.800545">
        <ele>65.2</ele>
        <time>1970-01-01T00:24:13.000Z</time>
      </trkpt>
      <trkpt lat="42.29304" lon="-8.800525">
        <ele>65.2</ele>
        <time>1970-01-01T00:24:14.000Z</time>
      </trkpt>
      <trkpt lat="42.293037" lon="-8.800505">
        <ele>64.3</ele>
        <time>1970-01-01T00:24:15.000Z</time>
      </trkpt>
      <trkpt lat="42.293042" lon="-8.800488">
        <ele>64.3</ele>
        <time>1970-01-01T00:24:16.000Z</time>
      </trkpt>
      <trkpt lat="42.293042" lon="-8.800482">
        <ele>64.3</ele>
        <time>1970-01-01T00:24:17.000Z</time>
      </trkpt>
      <trkpt lat="42.293037" lon="-8.800478">
        <ele>64.3</ele>
        <time>1970-01-01T00:24:18.000Z</time>
      </trkpt>
      <trkpt lat="42.293028" lon="-8.80047">
        <ele>64.3</ele>
        <time>1970-01-01T00:24:19.000Z</time>
      </trkpt>
      <trkpt lat="42.29303" lon="-8.800457">
        <ele>64.3</ele>
        <time>1970-01-01T00:24:20.000Z</time>
      </trkpt>
      <trkpt lat="42.29303" lon="-8.800443">
        <ele>64.3</ele>
        <time>1970-01-01T00:24:21.000Z</time>
      </trkpt>
      <trkpt lat="42.29303" lon="-8.800427">
        <ele>64.3</ele>
        <time>1970-01-01T00:24:22.000Z</time>
      </trkpt>
      <trkpt lat="42.29303" lon="-8.800413">
        <ele>64.3</ele>
        <time>1970-01-01T00:24:23.000Z</time>
      </trkpt>
      <trkpt lat="42.293028" lon="-8.800397">
        <ele>64.3</ele>
        <time>1970-01-01T00:24:24.000Z</time>
      </trkpt>
      <trkpt lat="42.293023" lon="-8.800378">
        <ele>64.3</ele>
        <time>1970-01-01T00:24:25.000Z</time>
      </trkpt>
      <trkpt lat="42.293017" lon="-8.800365">
        <ele>64.3</ele>
        <time>1970-01-01T00:24:26.000Z</time>
      </trkpt>
      <trkpt lat="42.293015" lon="-8.800352">
        <ele>64.3</ele>
        <time>1970-01-01T00:24:27.000Z</time>
      </trkpt>
      <trkpt lat="42.293012" lon="-8.800337">
        <ele>64.3</ele>
        <time>1970-01-01T00:24:28.000Z</time>
      </trkpt>
      <trkpt lat="42.293008" lon="-8.800323">
        <ele>64.3</ele>
        <time>1970-01-01T00:24:29.000Z</time>
      </trkpt>
      <trkpt lat="42.293008" lon="-8.80031">
        <ele>64.3</ele>
        <time>1970-01-01T00:24:30.000Z</time>
      </trkpt>
      <trkpt lat="42.293005" lon="-8.800295">
        <ele>64.3</ele>
        <time>1970-01-01T00:24:31.000Z</time>
      </trkpt>
      <trkpt lat="42.292998" lon="-8.800278">
        <ele>64.3</ele>
        <time>1970-01-01T00:24:32.000Z</time>
      </trkpt>
      <trkpt lat="42.293" lon="-8.800265">
        <ele>64.3</ele>
        <time>1970-01-01T00:24:33.000Z</time>
      </trkpt>
      <trkpt lat="42.293" lon="-8.800255">
        <ele>64.3</ele>
        <time>1970-01-01T00:24:34.000Z</time>
      </trkpt>
      <trkpt lat="42.293" lon="-8.800235">
        <ele>64.3</ele>
        <time>1970-01-01T00:24:35.000Z</time>
      </trkpt>
      <trkpt lat="42.293" lon="-8.800222">
        <ele>64.3</ele>
        <time>1970-01-01T00:24:36.000Z</time>
      </trkpt>
      <trkpt lat="42.292998" lon="-8.800207">
        <ele>63.2</ele>
        <time>1970-01-01T00:24:37.000Z</time>
      </trkpt>
      <trkpt lat="42.292997" lon="-8.800193">
        <ele>63.2</ele>
        <time>1970-01-01T00:24:38.000Z</time>
      </trkpt>
      <trkpt lat="42.292992" lon="-8.800178">
        <ele>63.2</ele>
        <time>1970-01-01T00:24:39.000Z</time>
      </trkpt>
      <trkpt lat="42.292987" lon="-8.800165">
        <ele>63.2</ele>
        <time>1970-01-01T00:24:40.000Z</time>
      </trkpt>
      <trkpt lat="42.292978" lon="-8.80015">
        <ele>63.2</ele>
        <time>1970-01-01T00:24:41.000Z</time>
      </trkpt>
      <trkpt lat="42.292968" lon="-8.80013">
        <ele>63.2</ele>
        <time>1970-01-01T00:24:42.000Z</time>
      </trkpt>
      <trkpt lat="42.292967" lon="-8.800117">
        <ele>63.2</ele>
        <time>1970-01-01T00:24:43.000Z</time>
      </trkpt>
      <trkpt lat="42.292965" lon="-8.800108">
        <ele>63.2</ele>
        <time>1970-01-01T00:24:44.000Z</time>
      </trkpt>
      <trkpt lat="42.292965" lon="-8.800097">
        <ele>63.2</ele>
        <time>1970-01-01T00:24:45.000Z</time>
      </trkpt>
      <trkpt lat="42.292957" lon="-8.800085">
        <ele>63.2</ele>
        <time>1970-01-01T00:24:46.000Z</time>
      </trkpt>
      <trkpt lat="42.292948" lon="-8.80007">
        <ele>63.2</ele>
        <time>1970-01-01T00:24:47.000Z</time>
      </trkpt>
      <trkpt lat="42.292945" lon="-8.800055">
        <ele>63.2</ele>
        <time>1970-01-01T00:24:48.000Z</time>
      </trkpt>
      <trkpt lat="42.292942" lon="-8.800038">
        <ele>63.2</ele>
        <time>1970-01-01T00:24:49.000Z</time>
      </trkpt>
      <trkpt lat="42.292937" lon="-8.800027">
        <ele>63.2</ele>
        <time>1970-01-01T00:24:50.000Z</time>
      </trkpt>
      <trkpt lat="42.292932" lon="-8.800013">
        <ele>63.2</ele>
        <time>1970-01-01T00:24:51.000Z</time>
      </trkpt>
      <trkpt lat="42.292927" lon="-8.799998">
        <ele>63.2</ele>
        <time>1970-01-01T00:24:52.000Z</time>
      </trkpt>
      <trkpt lat="42.292922" lon="-8.799985">
        <ele>63.2</ele>
        <time>1970-01-01T00:24:53.000Z</time>
      </trkpt>
      <trkpt lat="42.292915" lon="-8.79997">
        <ele>63.2</ele>
        <time>1970-01-01T00:24:54.000Z</time>
      </trkpt>
      <trkpt lat="42.292908" lon="-8.799957">
        <ele>62.3</ele>
        <time>1970-01-01T00:24:55.000Z</time>
      </trkpt>
      <trkpt lat="42.2929" lon="-8.799942">
        <ele>62.3</ele>
        <time>1970-01-01T00:24:56.000Z</time>
      </trkpt>
      <trkpt lat="42.292893" lon="-8.79993">
        <ele>62.3</ele>
        <time>1970-01-01T00:24:57.000Z</time>
      </trkpt>
      <trkpt lat="42.292888" lon="-8.799918">
        <ele>62.3</ele>
        <time>1970-01-01T00:24:58.000Z</time>
      </trkpt>
      <trkpt lat="42.292883" lon="-8.79991">
        <ele>62.3</ele>
        <time>1970-01-01T00:24:59.000Z</time>
      </trkpt>
      <trkpt lat="42.29288" lon="-8.799895">
        <ele>62.3</ele>
        <time>1970-01-01T00:25:00.000Z</time>
      </trkpt>
      <trkpt lat="42.292872" lon="-8.799883">
        <ele>62.3</ele>
        <time>1970-01-01T00:25:01.000Z</time>
      </trkpt>
      <trkpt lat="42.292865" lon="-8.799872">
        <ele>62.3</ele>
        <time>1970-01-01T00:25:02.000Z</time>
      </trkpt>
      <trkpt lat="42.292862" lon="-8.79986">
        <ele>62.3</ele>
        <time>1970-01-01T00:25:03.000Z</time>
      </trkpt>
      <trkpt lat="42.292858" lon="-8.799852">
        <ele>62.3</ele>
        <time>1970-01-01T00:25:04.000Z</time>
      </trkpt>
      <trkpt lat="42.292855" lon="-8.799842">
        <ele>62.3</ele>
        <time>1970-01-01T00:25:05.000Z</time>
      </trkpt>
      <trkpt lat="42.292857" lon="-8.799825">
        <ele>62.3</ele>
        <time>1970-01-01T00:25:06.000Z</time>
      </trkpt>
      <trkpt lat="42.292853" lon="-8.799813">
        <ele>62.3</ele>
        <time>1970-01-01T00:25:07.000Z</time>
      </trkpt>
      <trkpt lat="42.29285" lon="-8.799805">
        <ele>62.3</ele>
        <time>1970-01-01T00:25:08.000Z</time>
      </trkpt>
      <trkpt lat="42.29284" lon="-8.799798">
        <ele>62.3</ele>
        <time>1970-01-01T00:25:09.000Z</time>
      </trkpt>
      <trkpt lat="42.292825" lon="-8.799792">
        <ele>62.3</ele>
        <time>1970-01-01T00:25:10.000Z</time>
      </trkpt>
      <trkpt lat="42.292813" lon="-8.799785">
        <ele>62.3</ele>
        <time>1970-01-01T00:25:11.000Z</time>
      </trkpt>
      <trkpt lat="42.292802" lon="-8.799775">
        <ele>62.3</ele>
        <time>1970-01-01T00:25:12.000Z</time>
      </trkpt>
      <trkpt lat="42.292797" lon="-8.799762">
        <ele>62.3</ele>
        <time>1970-01-01T00:25:13.000Z</time>
      </trkpt>
      <trkpt lat="42.292795" lon="-8.799755">
        <ele>62.3</ele>
        <time>1970-01-01T00:25:14.000Z</time>
      </trkpt>
      <trkpt lat="42.292797" lon="-8.799748">
        <ele>62.3</ele>
        <time>1970-01-01T00:25:15.000Z</time>
      </trkpt>
      <trkpt lat="42.292802" lon="-8.799748">
        <ele>62.3</ele>
        <time>1970-01-01T00:25:16.000Z</time>
      </trkpt>
      <trkpt lat="42.292813" lon="-8.79975">
        <ele>62.3</ele>
        <time>1970-01-01T00:25:17.000Z</time>
      </trkpt>
      <trkpt lat="42.292823" lon="-8.799745">
        <ele>62.3</ele>
        <time>1970-01-01T00:25:18.000Z</time>
      </trkpt>
      <trkpt lat="42.292833" lon="-8.799735">
        <ele>62.3</ele>
        <time>1970-01-01T00:25:19.000Z</time>
      </trkpt>
      <trkpt lat="42.29284" lon="-8.799722">
        <ele>62.3</ele>
        <time>1970-01-01T00:25:20.000Z</time>
      </trkpt>
      <trkpt lat="42.292847" lon="-8.79971">
        <ele>62.3</ele>
        <time>1970-01-01T00:25:21.000Z</time>
      </trkpt>
      <trkpt lat="42.292855" lon="-8.799695">
        <ele>62.3</ele>
        <time>1970-01-01T00:25:22.000Z</time>
      </trkpt>
      <trkpt lat="42.292865" lon="-8.799683">
        <ele>62.3</ele>
        <time>1970-01-01T00:25:23.000Z</time>
      </trkpt>
      <trkpt lat="42.292872" lon="-8.799678">
        <ele>62.3</ele>
        <time>1970-01-01T00:25:24.000Z</time>
      </trkpt>
      <trkpt lat="42.292882" lon="-8.799673">
        <ele>62.3</ele>
        <time>1970-01-01T00:25:25.000Z</time>
      </trkpt>
      <trkpt lat="42.292888" lon="-8.799672">
        <ele>62.3</ele>
        <time>1970-01-01T00:25:26.000Z</time>
      </trkpt>
      <trkpt lat="42.292893" lon="-8.79967">
        <ele>63.2</ele>
        <time>1970-01-01T00:25:27.000Z</time>
      </trkpt>
      <trkpt lat="42.292898" lon="-8.799675">
        <ele>63.2</ele>
        <time>1970-01-01T00:25:28.000Z</time>
      </trkpt>
      <trkpt lat="42.292908" lon="-8.799675">
        <ele>63.2</ele>
        <time>1970-01-01T00:25:29.000Z</time>
      </trkpt>
      <trkpt lat="42.292917" lon="-8.799677">
        <ele>63.2</ele>
        <time>1970-01-01T00:25:30.000Z</time>
      </trkpt>
      <trkpt lat="42.292922" lon="-8.799677">
        <ele>63.2</ele>
        <time>1970-01-01T00:25:31.000Z</time>
      </trkpt>
      <trkpt lat="42.292923" lon="-8.799673">
        <ele>63.2</ele>
        <time>1970-01-01T00:25:32.000Z</time>
      </trkpt>
      <trkpt lat="42.292928" lon="-8.799675">
        <ele>62.3</ele>
        <time>1970-01-01T00:25:33.000Z</time>
      </trkpt>
      <trkpt lat="42.292933" lon="-8.799675">
        <ele>62.3</ele>
        <time>1970-01-01T00:25:34.000Z</time>
      </trkpt>
      <trkpt lat="42.292935" lon="-8.79968">
        <ele>62.3</ele>
        <time>1970-01-01T00:25:35.000Z</time>
      </trkpt>
      <trkpt lat="42.292942" lon="-8.799683">
        <ele>62.3</ele>
        <time>1970-01-01T00:25:36.000Z</time>
      </trkpt>
      <trkpt lat="42.292947" lon="-8.799688">
        <ele>62.3</ele>
        <time>1970-01-01T00:25:37.000Z</time>
      </trkpt>
      <trkpt lat="42.292955" lon="-8.799688">
        <ele>62.3</ele>
        <time>1970-01-01T00:25:38.000Z</time>
      </trkpt>
      <trkpt lat="42.292965" lon="-8.799698">
        <ele>62.3</ele>
        <time>1970-01-01T00:25:39.000Z</time>
      </trkpt>
      <trkpt lat="42.292972" lon="-8.799698">
        <ele>62.3</ele>
        <time>1970-01-01T00:25:40.000Z</time>
      </trkpt>
      <trkpt lat="42.292985" lon="-8.799697">
        <ele>62.3</ele>
        <time>1970-01-01T00:25:41.000Z</time>
      </trkpt>
      <trkpt lat="42.292998" lon="-8.799697">
        <ele>62.3</ele>
        <time>1970-01-01T00:25:42.000Z</time>
      </trkpt>
      <trkpt lat="42.293008" lon="-8.7997">
        <ele>62.3</ele>
        <time>1970-01-01T00:25:43.000Z</time>
      </trkpt>
      <trkpt lat="42.293018" lon="-8.799707">
        <ele>62.3</ele>
        <time>1970-01-01T00:25:44.000Z</time>
      </trkpt>
      <trkpt lat="42.293025" lon="-8.799712">
        <ele>62.3</ele>
        <time>1970-01-01T00:25:45.000Z</time>
      </trkpt>
      <trkpt lat="42.293032" lon="-8.799718">
        <ele>62.3</ele>
        <time>1970-01-01T00:25:46.000Z</time>
      </trkpt>
      <trkpt lat="42.293038" lon="-8.799715">
        <ele>62.3</ele>
        <time>1970-01-01T00:25:47.000Z</time>
      </trkpt>
      <trkpt lat="42.293057" lon="-8.7997">
        <ele>62.3</ele>
        <time>1970-01-01T00:25:48.000Z</time>
      </trkpt>
      <trkpt lat="42.293062" lon="-8.799693">
        <ele>62.3</ele>
        <time>1970-01-01T00:25:49.000Z</time>
      </trkpt>
      <trkpt lat="42.293072" lon="-8.799692">
        <ele>62.3</ele>
        <time>1970-01-01T00:25:50.000Z</time>
      </trkpt>
      <trkpt lat="42.293085" lon="-8.79969">
        <ele>62.3</ele>
        <time>1970-01-01T00:25:51.000Z</time>
      </trkpt>
      <trkpt lat="42.293097" lon="-8.79969">
        <ele>62.3</ele>
        <time>1970-01-01T00:25:52.000Z</time>
      </trkpt>
      <trkpt lat="42.293105" lon="-8.799707">
        <ele>63.2</ele>
        <time>1970-01-01T00:25:53.000Z</time>
      </trkpt>
      <trkpt lat="42.293107" lon="-8.799712">
        <ele>63.2</ele>
        <time>1970-01-01T00:25:54.000Z</time>
      </trkpt>
      <trkpt lat="42.293115" lon="-8.799712">
        <ele>63.2</ele>
        <time>1970-01-01T00:25:55.000Z</time>
      </trkpt>
      <trkpt lat="42.293122" lon="-8.799702">
        <ele>63.2</ele>
        <time>1970-01-01T00:25:56.000Z</time>
      </trkpt>
      <trkpt lat="42.293125" lon="-8.799692">
        <ele>63.2</ele>
        <time>1970-01-01T00:25:57.000Z</time>
      </trkpt>
      <trkpt lat="42.29313" lon="-8.799685">
        <ele>63.2</ele>
        <time>1970-01-01T00:25:58.000Z</time>
      </trkpt>
      <trkpt lat="42.293135" lon="-8.799667">
        <ele>63.2</ele>
        <time>1970-01-01T00:25:59.000Z</time>
      </trkpt>
      <trkpt lat="42.293142" lon="-8.799657">
        <ele>63.2</ele>
        <time>1970-01-01T00:26:00.000Z</time>
      </trkpt>
      <trkpt lat="42.293148" lon="-8.799625">
        <ele>64.3</ele>
        <time>1970-01-01T00:26:01.000Z</time>
      </trkpt>
      <trkpt lat="42.293148" lon="-8.79961">
        <ele>64.3</ele>
        <time>1970-01-01T00:26:02.000Z</time>
      </trkpt>
      <trkpt lat="42.293147" lon="-8.799593">
        <ele>64.3</ele>
        <time>1970-01-01T00:26:03.000Z</time>
      </trkpt>
      <trkpt lat="42.293148" lon="-8.799575">
        <ele>64.3</ele>
        <time>1970-01-01T00:26:04.000Z</time>
      </trkpt>
      <trkpt lat="42.293145" lon="-8.79956">
        <ele>64.3</ele>
        <time>1970-01-01T00:26:05.000Z</time>
      </trkpt>
      <trkpt lat="42.293138" lon="-8.799543">
        <ele>64.3</ele>
        <time>1970-01-01T00:26:06.000Z</time>
      </trkpt>
      <trkpt lat="42.293135" lon="-8.799528">
        <ele>64.3</ele>
        <time>1970-01-01T00:26:07.000Z</time>
      </trkpt>
      <trkpt lat="42.293137" lon="-8.799515">
        <ele>64.3</ele>
        <time>1970-01-01T00:26:08.000Z</time>
      </trkpt>
      <trkpt lat="42.29314" lon="-8.799498">
        <ele>64.3</ele>
        <time>1970-01-01T00:26:09.000Z</time>
      </trkpt>
      <trkpt lat="42.293138" lon="-8.79949">
        <ele>64.3</ele>
        <time>1970-01-01T00:26:10.000Z</time>
      </trkpt>
      <trkpt lat="42.293143" lon="-8.799467">
        <ele>64.3</ele>
        <time>1970-01-01T00:26:11.000Z</time>
      </trkpt>
      <trkpt lat="42.293137" lon="-8.799443">
        <ele>64.3</ele>
        <time>1970-01-01T00:26:12.000Z</time>
      </trkpt>
      <trkpt lat="42.293138" lon="-8.799423">
        <ele>64.3</ele>
        <time>1970-01-01T00:26:13.000Z</time>
      </trkpt>
      <trkpt lat="42.293135" lon="-8.799402">
        <ele>64.3</ele>
        <time>1970-01-01T00:26:14.000Z</time>
      </trkpt>
      <trkpt lat="42.293118" lon="-8.799388">
        <ele>64.3</ele>
        <time>1970-01-01T00:26:15.000Z</time>
      </trkpt>
      <trkpt lat="42.293103" lon="-8.799368">
        <ele>64.3</ele>
        <time>1970-01-01T00:26:16.000Z</time>
      </trkpt>
      <trkpt lat="42.293092" lon="-8.799362">
        <ele>64.3</ele>
        <time>1970-01-01T00:26:17.000Z</time>
      </trkpt>
      <trkpt lat="42.29308" lon="-8.799352">
        <ele>64.3</ele>
        <time>1970-01-01T00:26:18.000Z</time>
      </trkpt>
      <trkpt lat="42.293082" lon="-8.799333">
        <ele>64.3</ele>
        <time>1970-01-01T00:26:19.000Z</time>
      </trkpt>
      <trkpt lat="42.293078" lon="-8.799325">
        <ele>64.3</ele>
        <time>1970-01-01T00:26:20.000Z</time>
      </trkpt>
      <trkpt lat="42.293075" lon="-8.799317">
        <ele>64.3</ele>
        <time>1970-01-01T00:26:21.000Z</time>
      </trkpt>
      <trkpt lat="42.293068" lon="-8.799318">
        <ele>64.3</ele>
        <time>1970-01-01T00:26:22.000Z</time>
      </trkpt>
      <trkpt lat="42.293057" lon="-8.799313">
        <ele>64.3</ele>
        <time>1970-01-01T00:26:23.000Z</time>
      </trkpt>
      <trkpt lat="42.29305" lon="-8.799305">
        <ele>64.3</ele>
        <time>1970-01-01T00:26:24.000Z</time>
      </trkpt>
      <trkpt lat="42.293045" lon="-8.7993">
        <ele>65.2</ele>
        <time>1970-01-01T00:26:25.000Z</time>
      </trkpt>
      <trkpt lat="42.29304" lon="-8.799293">
        <ele>65.2</ele>
        <time>1970-01-01T00:26:26.000Z</time>
      </trkpt>
      <trkpt lat="42.293033" lon="-8.799287">
        <ele>65.2</ele>
        <time>1970-01-01T00:26:27.000Z</time>
      </trkpt>
      <trkpt lat="42.293023" lon="-8.799282">
        <ele>65.2</ele>
        <time>1970-01-01T00:26:28.000Z</time>
      </trkpt>
      <trkpt lat="42.293008" lon="-8.799278">
        <ele>65.2</ele>
        <time>1970-01-01T00:26:29.000Z</time>
      </trkpt>
      <trkpt lat="42.292993" lon="-8.79927">
        <ele>65.2</ele>
        <time>1970-01-01T00:26:30.000Z</time>
      </trkpt>
      <trkpt lat="42.292982" lon="-8.799262">
        <ele>66.3</ele>
        <time>1970-01-01T00:26:31.000Z</time>
      </trkpt>
      <trkpt lat="42.292977" lon="-8.799255">
        <ele>66.3</ele>
        <time>1970-01-01T00:26:32.000Z</time>
      </trkpt>
      <trkpt lat="42.292967" lon="-8.799255">
        <ele>66.3</ele>
        <time>1970-01-01T00:26:33.000Z</time>
      </trkpt>
      <trkpt lat="42.292962" lon="-8.799257">
        <ele>66.3</ele>
        <time>1970-01-01T00:26:34.000Z</time>
      </trkpt>
      <trkpt lat="42.292958" lon="-8.799257">
        <ele>67.2</ele>
        <time>1970-01-01T00:26:35.000Z</time>
      </trkpt>
      <trkpt lat="42.292957" lon="-8.799257">
        <ele>67.2</ele>
        <time>1970-01-01T00:26:36.000Z</time>
      </trkpt>
      <trkpt lat="42.292962" lon="-8.799253">
        <ele>67.2</ele>
        <time>1970-01-01T00:26:37.000Z</time>
      </trkpt>
      <trkpt lat="42.29297" lon="-8.799242">
        <ele>67.2</ele>
        <time>1970-01-01T00:26:38.000Z</time>
      </trkpt>
      <trkpt lat="42.292975" lon="-8.799245">
        <ele>68.3</ele>
        <time>1970-01-01T00:26:39.000Z</time>
      </trkpt>
      <trkpt lat="42.292972" lon="-8.799237">
        <ele>68.3</ele>
        <time>1970-01-01T00:26:40.000Z</time>
      </trkpt>
      <trkpt lat="42.292972" lon="-8.799232">
        <ele>68.3</ele>
        <time>1970-01-01T00:26:41.000Z</time>
      </trkpt>
      <trkpt lat="42.292967" lon="-8.799208">
        <ele>68.3</ele>
        <time>1970-01-01T00:26:42.000Z</time>
      </trkpt>
      <trkpt lat="42.292963" lon="-8.799187">
        <ele>68.3</ele>
        <time>1970-01-01T00:26:43.000Z</time>
      </trkpt>
      <trkpt lat="42.292957" lon="-8.799182">
        <ele>68.3</ele>
        <time>1970-01-01T00:26:44.000Z</time>
      </trkpt>
      <trkpt lat="42.292947" lon="-8.799183">
        <ele>68.3</ele>
        <time>1970-01-01T00:26:45.000Z</time>
      </trkpt>
      <trkpt lat="42.292943" lon="-8.799183">
        <ele>68.3</ele>
        <time>1970-01-01T00:26:46.000Z</time>
      </trkpt>
      <trkpt lat="42.29294" lon="-8.79918">
        <ele>68.3</ele>
        <time>1970-01-01T00:26:47.000Z</time>
      </trkpt>
      <trkpt lat="42.29294" lon="-8.799175">
        <ele>68.3</ele>
        <time>1970-01-01T00:26:48.000Z</time>
      </trkpt>
      <trkpt lat="42.292938" lon="-8.799172">
        <ele>68.3</ele>
        <time>1970-01-01T00:26:49.000Z</time>
      </trkpt>
      <trkpt lat="42.292937" lon="-8.799163">
        <ele>68.3</ele>
        <time>1970-01-01T00:26:50.000Z</time>
      </trkpt>
      <trkpt lat="42.292935" lon="-8.799155">
        <ele>68.3</ele>
        <time>1970-01-01T00:26:51.000Z</time>
      </trkpt>
      <trkpt lat="42.29294" lon="-8.799142">
        <ele>68.3</ele>
        <time>1970-01-01T00:26:52.000Z</time>
      </trkpt>
      <trkpt lat="42.292942" lon="-8.79912">
        <ele>68.3</ele>
        <time>1970-01-01T00:26:53.000Z</time>
      </trkpt>
      <trkpt lat="42.292938" lon="-8.79911">
        <ele>68.3</ele>
        <time>1970-01-01T00:26:54.000Z</time>
      </trkpt>
      <trkpt lat="42.29293" lon="-8.799103">
        <ele>70.3</ele>
        <time>1970-01-01T00:26:55.000Z</time>
      </trkpt>
      <trkpt lat="42.292922" lon="-8.799098">
        <ele>70.3</ele>
        <time>1970-01-01T00:26:56.000Z</time>
      </trkpt>
      <trkpt lat="42.292917" lon="-8.799092">
        <ele>70.3</ele>
        <time>1970-01-01T00:26:57.000Z</time>
      </trkpt>
      <trkpt lat="42.292915" lon="-8.799082">
        <ele>70.3</ele>
        <time>1970-01-01T00:26:58.000Z</time>
      </trkpt>
      <trkpt lat="42.292913" lon="-8.799072">
        <ele>70.3</ele>
        <time>1970-01-01T00:26:59.000Z</time>
      </trkpt>
      <trkpt lat="42.292908" lon="-8.799063">
        <ele>70.3</ele>
        <time>1970-01-01T00:27:00.000Z</time>
      </trkpt>
      <trkpt lat="42.292905" lon="-8.799058">
        <ele>70.3</ele>
        <time>1970-01-01T00:27:01.000Z</time>
      </trkpt>
      <trkpt lat="42.292905" lon="-8.799053">
        <ele>70.3</ele>
        <time>1970-01-01T00:27:02.000Z</time>
      </trkpt>
      <trkpt lat="42.292903" lon="-8.799053">
        <ele>70.3</ele>
        <time>1970-01-01T00:27:03.000Z</time>
      </trkpt>
      <trkpt lat="42.292905" lon="-8.799047">
        <ele>70.3</ele>
        <time>1970-01-01T00:27:04.000Z</time>
      </trkpt>
      <trkpt lat="42.292902" lon="-8.799045">
        <ele>70.3</ele>
        <time>1970-01-01T00:27:05.000Z</time>
      </trkpt>
      <trkpt lat="42.292902" lon="-8.799035">
        <ele>70.3</ele>
        <time>1970-01-01T00:27:06.000Z</time>
      </trkpt>
      <trkpt lat="42.292898" lon="-8.799027">
        <ele>70.3</ele>
        <time>1970-01-01T00:27:07.000Z</time>
      </trkpt>
      <trkpt lat="42.292898" lon="-8.799018">
        <ele>70.3</ele>
        <time>1970-01-01T00:27:08.000Z</time>
      </trkpt>
      <trkpt lat="42.292897" lon="-8.799012">
        <ele>70.3</ele>
        <time>1970-01-01T00:27:09.000Z</time>
      </trkpt>
      <trkpt lat="42.292895" lon="-8.799005">
        <ele>70.3</ele>
        <time>1970-01-01T00:27:10.000Z</time>
      </trkpt>
      <trkpt lat="42.292898" lon="-8.799002">
        <ele>70.3</ele>
        <time>1970-01-01T00:27:11.000Z</time>
      </trkpt>
      <trkpt lat="42.292898" lon="-8.798995">
        <ele>70.3</ele>
        <time>1970-01-01T00:27:12.000Z</time>
      </trkpt>
      <trkpt lat="42.292902" lon="-8.79899">
        <ele>72.2</ele>
        <time>1970-01-01T00:27:13.000Z</time>
      </trkpt>
      <trkpt lat="42.292908" lon="-8.798983">
        <ele>72.2</ele>
        <time>1970-01-01T00:27:14.000Z</time>
      </trkpt>
      <trkpt lat="42.292923" lon="-8.798977">
        <ele>72.2</ele>
        <time>1970-01-01T00:27:15.000Z</time>
      </trkpt>
      <trkpt lat="42.29293" lon="-8.798977">
        <ele>72.2</ele>
        <time>1970-01-01T00:27:16.000Z</time>
      </trkpt>
      <trkpt lat="42.292932" lon="-8.798975">
        <ele>72.2</ele>
        <time>1970-01-01T00:27:17.000Z</time>
      </trkpt>
      <trkpt lat="42.292932" lon="-8.798967">
        <ele>72.2</ele>
        <time>1970-01-01T00:27:18.000Z</time>
      </trkpt>
      <trkpt lat="42.292933" lon="-8.798962">
        <ele>73.3</ele>
        <time>1970-01-01T00:27:19.000Z</time>
      </trkpt>
      <trkpt lat="42.292933" lon="-8.798958">
        <ele>73.3</ele>
        <time>1970-01-01T00:27:20.000Z</time>
      </trkpt>
      <trkpt lat="42.292923" lon="-8.798968">
        <ele>73.3</ele>
        <time>1970-01-01T00:27:21.000Z</time>
      </trkpt>
      <trkpt lat="42.292923" lon="-8.798963">
        <ele>73.3</ele>
        <time>1970-01-01T00:27:22.000Z</time>
      </trkpt>
      <trkpt lat="42.292922" lon="-8.79896">
        <ele>74.2</ele>
        <time>1970-01-01T00:27:23.000Z</time>
      </trkpt>
      <trkpt lat="42.29292" lon="-8.798955">
        <ele>74.2</ele>
        <time>1970-01-01T00:27:24.000Z</time>
      </trkpt>
      <trkpt lat="42.292918" lon="-8.798953">
        <ele>74.2</ele>
        <time>1970-01-01T00:27:25.000Z</time>
      </trkpt>
      <trkpt lat="42.292917" lon="-8.79895">
        <ele>74.2</ele>
        <time>1970-01-01T00:27:26.000Z</time>
      </trkpt>
      <trkpt lat="42.292915" lon="-8.798948">
        <ele>74.2</ele>
        <time>1970-01-01T00:27:27.000Z</time>
      </trkpt>
      <trkpt lat="42.292913" lon="-8.798948">
        <ele>74.2</ele>
        <time>1970-01-01T00:27:28.000Z</time>
      </trkpt>
      <trkpt lat="42.29291" lon="-8.798948">
        <ele>74.2</ele>
        <time>1970-01-01T00:27:29.000Z</time>
      </trkpt>
      <trkpt lat="42.292908" lon="-8.798945">
        <ele>74.2</ele>
        <time>1970-01-01T00:27:30.000Z</time>
      </trkpt>
      <trkpt lat="42.292907" lon="-8.798945">
        <ele>74.2</ele>
        <time>1970-01-01T00:27:31.000Z</time>
      </trkpt>
      <trkpt lat="42.292903" lon="-8.798943">
        <ele>74.2</ele>
        <time>1970-01-01T00:27:32.000Z</time>
      </trkpt>
      <trkpt lat="42.292903" lon="-8.798938">
        <ele>75.3</ele>
        <time>1970-01-01T00:27:33.000Z</time>
      </trkpt>
      <trkpt lat="42.292905" lon="-8.798933">
        <ele>75.3</ele>
        <time>1970-01-01T00:27:34.000Z</time>
      </trkpt>
      <trkpt lat="42.292907" lon="-8.798925">
        <ele>75.3</ele>
        <time>1970-01-01T00:27:35.000Z</time>
      </trkpt>
      <trkpt lat="42.292903" lon="-8.798925">
        <ele>75.3</ele>
        <time>1970-01-01T00:27:36.000Z</time>
      </trkpt>
      <trkpt lat="42.2929" lon="-8.79892">
        <ele>76.2</ele>
        <time>1970-01-01T00:27:37.000Z</time>
      </trkpt>
      <trkpt lat="42.292897" lon="-8.798913">
        <ele>76.2</ele>
        <time>1970-01-01T00:27:38.000Z</time>
      </trkpt>
      <trkpt lat="42.292892" lon="-8.7989">
        <ele>76.2</ele>
        <time>1970-01-01T00:27:39.000Z</time>
      </trkpt>
      <trkpt lat="42.292887" lon="-8.79889">
        <ele>76.2</ele>
        <time>1970-01-01T00:27:40.000Z</time>
      </trkpt>
      <trkpt lat="42.292883" lon="-8.798878">
        <ele>76.2</ele>
        <time>1970-01-01T00:27:41.000Z</time>
      </trkpt>
      <trkpt lat="42.29288" lon="-8.79887">
        <ele>76.2</ele>
        <time>1970-01-01T00:27:42.000Z</time>
      </trkpt>
      <trkpt lat="42.292878" lon="-8.798858">
        <ele>76.2</ele>
        <time>1970-01-01T00:27:43.000Z</time>
      </trkpt>
      <trkpt lat="42.292877" lon="-8.798843">
        <ele>76.2</ele>
        <time>1970-01-01T00:27:44.000Z</time>
      </trkpt>
      <trkpt lat="42.292877" lon="-8.798837">
        <ele>76.2</ele>
        <time>1970-01-01T00:27:45.000Z</time>
      </trkpt>
      <trkpt lat="42.292877" lon="-8.798832">
        <ele>76.2</ele>
        <time>1970-01-01T00:27:46.000Z</time>
      </trkpt>
      <trkpt lat="42.292875" lon="-8.798828">
        <ele>76.2</ele>
        <time>1970-01-01T00:27:47.000Z</time>
      </trkpt>
      <trkpt lat="42.292872" lon="-8.798827">
        <ele>76.2</ele>
        <time>1970-01-01T00:27:48.000Z</time>
      </trkpt>
      <trkpt lat="42.29287" lon="-8.798827">
        <ele>76.2</ele>
        <time>1970-01-01T00:27:49.000Z</time>
      </trkpt>
      <trkpt lat="42.292868" lon="-8.798825">
        <ele>76.2</ele>
        <time>1970-01-01T00:27:50.000Z</time>
      </trkpt>
      <trkpt lat="42.292867" lon="-8.798823">
        <ele>76.2</ele>
        <time>1970-01-01T00:27:51.000Z</time>
      </trkpt>
      <trkpt lat="42.292867" lon="-8.798822">
        <ele>76.2</ele>
        <time>1970-01-01T00:27:52.000Z</time>
      </trkpt>
      <trkpt lat="42.292867" lon="-8.798822">
        <ele>76.2</ele>
        <time>1970-01-01T00:27:53.000Z</time>
      </trkpt>
      <trkpt lat="42.292867" lon="-8.798822">
        <ele>76.2</ele>
        <time>1970-01-01T00:27:54.000Z</time>
      </trkpt>
      <trkpt lat="42.292865" lon="-8.798822">
        <ele>76.2</ele>
        <time>1970-01-01T00:27:55.000Z</time>
      </trkpt>
      <trkpt lat="42.292863" lon="-8.798822">
        <ele>76.2</ele>
        <time>1970-01-01T00:27:56.000Z</time>
      </trkpt>
      <trkpt lat="42.292862" lon="-8.798813">
        <ele>76.2</ele>
        <time>1970-01-01T00:27:57.000Z</time>
      </trkpt>
      <trkpt lat="42.292853" lon="-8.798805">
        <ele>76.2</ele>
        <time>1970-01-01T00:27:58.000Z</time>
      </trkpt>
      <trkpt lat="42.292842" lon="-8.798795">
        <ele>76.2</ele>
        <time>1970-01-01T00:27:59.000Z</time>
      </trkpt>
      <trkpt lat="42.29283" lon="-8.798785">
        <ele>76.2</ele>
        <time>1970-01-01T00:28:00.000Z</time>
      </trkpt>
      <trkpt lat="42.292817" lon="-8.79878">
        <ele>76.2</ele>
        <time>1970-01-01T00:28:01.000Z</time>
      </trkpt>
      <trkpt lat="42.292805" lon="-8.798778">
        <ele>76.2</ele>
        <time>1970-01-01T00:28:02.000Z</time>
      </trkpt>
      <trkpt lat="42.29279" lon="-8.798777">
        <ele>76.2</ele>
        <time>1970-01-01T00:28:03.000Z</time>
      </trkpt>
      <trkpt lat="42.292777" lon="-8.79877">
        <ele>76.2</ele>
        <time>1970-01-01T00:28:04.000Z</time>
      </trkpt>
      <trkpt lat="42.292772" lon="-8.798762">
        <ele>76.2</ele>
        <time>1970-01-01T00:28:05.000Z</time>
      </trkpt>
      <trkpt lat="42.292763" lon="-8.798753">
        <ele>76.2</ele>
        <time>1970-01-01T00:28:06.000Z</time>
      </trkpt>
      <trkpt lat="42.292758" lon="-8.798743">
        <ele>76.2</ele>
        <time>1970-01-01T00:28:07.000Z</time>
      </trkpt>
      <trkpt lat="42.292758" lon="-8.798732">
        <ele>76.2</ele>
        <time>1970-01-01T00:28:08.000Z</time>
      </trkpt>
      <trkpt lat="42.292755" lon="-8.798725">
        <ele>76.2</ele>
        <time>1970-01-01T00:28:09.000Z</time>
      </trkpt>
      <trkpt lat="42.292752" lon="-8.798718">
        <ele>76.2</ele>
        <time>1970-01-01T00:28:10.000Z</time>
      </trkpt>
      <trkpt lat="42.29275" lon="-8.798715">
        <ele>76.2</ele>
        <time>1970-01-01T00:28:11.000Z</time>
      </trkpt>
      <trkpt lat="42.29275" lon="-8.79871">
        <ele>76.2</ele>
        <time>1970-01-01T00:28:12.000Z</time>
      </trkpt>
      <trkpt lat="42.29275" lon="-8.798707">
        <ele>77.3</ele>
        <time>1970-01-01T00:28:13.000Z</time>
      </trkpt>
      <trkpt lat="42.292748" lon="-8.798702">
        <ele>77.3</ele>
        <time>1970-01-01T00:28:14.000Z</time>
      </trkpt>
      <trkpt lat="42.292742" lon="-8.798693">
        <ele>77.3</ele>
        <time>1970-01-01T00:28:15.000Z</time>
      </trkpt>
      <trkpt lat="42.292733" lon="-8.798692">
        <ele>77.3</ele>
        <time>1970-01-01T00:28:16.000Z</time>
      </trkpt>
      <trkpt lat="42.292718" lon="-8.79869">
        <ele>77.3</ele>
        <time>1970-01-01T00:28:17.000Z</time>
      </trkpt>
      <trkpt lat="42.292713" lon="-8.798688">
        <ele>77.3</ele>
        <time>1970-01-01T00:28:18.000Z</time>
      </trkpt>
      <trkpt lat="42.292705" lon="-8.798685">
        <ele>77.3</ele>
        <time>1970-01-01T00:28:19.000Z</time>
      </trkpt>
      <trkpt lat="42.292697" lon="-8.798682">
        <ele>77.3</ele>
        <time>1970-01-01T00:28:20.000Z</time>
      </trkpt>
      <trkpt lat="42.292685" lon="-8.798677">
        <ele>77.3</ele>
        <time>1970-01-01T00:28:21.000Z</time>
      </trkpt>
      <trkpt lat="42.29268" lon="-8.798665">
        <ele>77.3</ele>
        <time>1970-01-01T00:28:22.000Z</time>
      </trkpt>
      <trkpt lat="42.292677" lon="-8.798655">
        <ele>77.3</ele>
        <time>1970-01-01T00:28:23.000Z</time>
      </trkpt>
      <trkpt lat="42.292672" lon="-8.798645">
        <ele>77.3</ele>
        <time>1970-01-01T00:28:24.000Z</time>
      </trkpt>
      <trkpt lat="42.292667" lon="-8.798643">
        <ele>77.3</ele>
        <time>1970-01-01T00:28:25.000Z</time>
      </trkpt>
      <trkpt lat="42.29266" lon="-8.798643">
        <ele>77.3</ele>
        <time>1970-01-01T00:28:26.000Z</time>
      </trkpt>
      <trkpt lat="42.292657" lon="-8.79864">
        <ele>77.3</ele>
        <time>1970-01-01T00:28:27.000Z</time>
      </trkpt>
      <trkpt lat="42.292645" lon="-8.798613">
        <ele>77.3</ele>
        <time>1970-01-01T00:28:28.000Z</time>
      </trkpt>
      <trkpt lat="42.292638" lon="-8.798588">
        <ele>77.3</ele>
        <time>1970-01-01T00:28:29.000Z</time>
      </trkpt>
      <trkpt lat="42.292633" lon="-8.79858">
        <ele>77.3</ele>
        <time>1970-01-01T00:28:30.000Z</time>
      </trkpt>
      <trkpt lat="42.292632" lon="-8.798577">
        <ele>77.3</ele>
        <time>1970-01-01T00:28:31.000Z</time>
      </trkpt>
      <trkpt lat="42.292633" lon="-8.798577">
        <ele>77.3</ele>
        <time>1970-01-01T00:28:32.000Z</time>
      </trkpt>
      <trkpt lat="42.292633" lon="-8.798573">
        <ele>77.3</ele>
        <time>1970-01-01T00:28:33.000Z</time>
      </trkpt>
      <trkpt lat="42.292642" lon="-8.798573">
        <ele>77.3</ele>
        <time>1970-01-01T00:28:34.000Z</time>
      </trkpt>
      <trkpt lat="42.292642" lon="-8.798567">
        <ele>77.3</ele>
        <time>1970-01-01T00:28:35.000Z</time>
      </trkpt>
      <trkpt lat="42.29265" lon="-8.798555">
        <ele>77.3</ele>
        <time>1970-01-01T00:28:36.000Z</time>
      </trkpt>
      <trkpt lat="42.29266" lon="-8.798547">
        <ele>77.3</ele>
        <time>1970-01-01T00:28:37.000Z</time>
      </trkpt>
      <trkpt lat="42.292675" lon="-8.798528">
        <ele>77.3</ele>
        <time>1970-01-01T00:28:38.000Z</time>
      </trkpt>
      <trkpt lat="42.292678" lon="-8.798523">
        <ele>77.3</ele>
        <time>1970-01-01T00:28:39.000Z</time>
      </trkpt>
      <trkpt lat="42.29268" lon="-8.798518">
        <ele>77.3</ele>
        <time>1970-01-01T00:28:40.000Z</time>
      </trkpt>
      <trkpt lat="42.292682" lon="-8.798515">
        <ele>77.3</ele>
        <time>1970-01-01T00:28:41.000Z</time>
      </trkpt>
      <trkpt lat="42.292683" lon="-8.798513">
        <ele>77.3</ele>
        <time>1970-01-01T00:28:42.000Z</time>
      </trkpt>
      <trkpt lat="42.292685" lon="-8.798512">
        <ele>77.3</ele>
        <time>1970-01-01T00:28:43.000Z</time>
      </trkpt>
      <trkpt lat="42.292687" lon="-8.798512">
        <ele>77.3</ele>
        <time>1970-01-01T00:28:44.000Z</time>
      </trkpt>
      <trkpt lat="42.292685" lon="-8.79851">
        <ele>77.3</ele>
        <time>1970-01-01T00:28:45.000Z</time>
      </trkpt>
      <trkpt lat="42.292685" lon="-8.79851">
        <ele>77.3</ele>
        <time>1970-01-01T00:28:46.000Z</time>
      </trkpt>
      <trkpt lat="42.292685" lon="-8.79851">
        <ele>77.3</ele>
        <time>1970-01-01T00:28:47.000Z</time>
      </trkpt>
      <trkpt lat="42.292685" lon="-8.79851">
        <ele>77.3</ele>
        <time>1970-01-01T00:28:48.000Z</time>
      </trkpt>
      <trkpt lat="42.292685" lon="-8.79851">
        <ele>77.3</ele>
        <time>1970-01-01T00:28:49.000Z</time>
      </trkpt>
      <trkpt lat="42.292685" lon="-8.79851">
        <ele>77.3</ele>
        <time>1970-01-01T00:28:50.000Z</time>
      </trkpt>
      <trkpt lat="42.292685" lon="-8.79851">
        <ele>77.3</ele>
        <time>1970-01-01T00:28:51.000Z</time>
      </trkpt>
      <trkpt lat="42.292685" lon="-8.79851">
        <ele>77.3</ele>
        <time>1970-01-01T00:28:52.000Z</time>
      </trkpt>
      <trkpt lat="42.292685" lon="-8.79851">
        <ele>77.3</ele>
        <time>1970-01-01T00:28:53.000Z</time>
      </trkpt>
      <trkpt lat="42.292685" lon="-8.79851">
        <ele>77.3</ele>
        <time>1970-01-01T00:28:54.000Z</time>
      </trkpt>
      <trkpt lat="42.292685" lon="-8.79851">
        <ele>77.3</ele>
        <time>1970-01-01T00:28:55.000Z</time>
      </trkpt>
      <trkpt lat="42.292685" lon="-8.79851">
        <ele>77.3</ele>
        <time>1970-01-01T00:28:56.000Z</time>
      </trkpt>
      <trkpt lat="42.292685" lon="-8.79851">
        <ele>77.3</ele>
        <time>1970-01-01T00:28:57.000Z</time>
      </trkpt>
      <trkpt lat="42.292685" lon="-8.79851">
        <ele>77.3</ele>
        <time>1970-01-01T00:28:58.000Z</time>
      </trkpt>
      <trkpt lat="42.292685" lon="-8.79851">
        <ele>77.3</ele>
        <time>1970-01-01T00:28:59.000Z</time>
      </trkpt>
      <trkpt lat="42.292685" lon="-8.79851">
        <ele>77.3</ele>
        <time>1970-01-01T00:29:00.000Z</time>
      </trkpt>
      <trkpt lat="42.292685" lon="-8.79851">
        <ele>77.3</ele>
        <time>1970-01-01T00:29:01.000Z</time>
      </trkpt>
      <trkpt lat="42.292685" lon="-8.79851">
        <ele>77.3</ele>
        <time>1970-01-01T00:29:02.000Z</time>
      </trkpt>
      <trkpt lat="42.292685" lon="-8.79851">
        <ele>75.3</ele>
        <time>1970-01-01T00:29:03.000Z</time>
      </trkpt>
      <trkpt lat="42.292685" lon="-8.79851">
        <ele>75.3</ele>
        <time>1970-01-01T00:29:04.000Z</time>
      </trkpt>
      <trkpt lat="42.29269" lon="-8.798508">
        <ele>75.3</ele>
        <time>1970-01-01T00:29:05.000Z</time>
      </trkpt>
      <trkpt lat="42.292698" lon="-8.798513">
        <ele>75.3</ele>
        <time>1970-01-01T00:29:06.000Z</time>
      </trkpt>
      <trkpt lat="42.292713" lon="-8.798513">
        <ele>75.3</ele>
        <time>1970-01-01T00:29:07.000Z</time>
      </trkpt>
      <trkpt lat="42.292725" lon="-8.798513">
        <ele>75.3</ele>
        <time>1970-01-01T00:29:08.000Z</time>
      </trkpt>
      <trkpt lat="42.292735" lon="-8.798513">
        <ele>75.3</ele>
        <time>1970-01-01T00:29:09.000Z</time>
      </trkpt>
      <trkpt lat="42.292742" lon="-8.798507">
        <ele>75.3</ele>
        <time>1970-01-01T00:29:10.000Z</time>
      </trkpt>
      <trkpt lat="42.292752" lon="-8.798502">
        <ele>74.2</ele>
        <time>1970-01-01T00:29:11.000Z</time>
      </trkpt>
      <trkpt lat="42.292758" lon="-8.798498">
        <ele>74.2</ele>
        <time>1970-01-01T00:29:12.000Z</time>
      </trkpt>
      <trkpt lat="42.292772" lon="-8.798488">
        <ele>74.2</ele>
        <time>1970-01-01T00:29:13.000Z</time>
      </trkpt>
      <trkpt lat="42.292783" lon="-8.798477">
        <ele>74.2</ele>
        <time>1970-01-01T00:29:14.000Z</time>
      </trkpt>
      <trkpt lat="42.292793" lon="-8.798467">
        <ele>74.2</ele>
        <time>1970-01-01T00:29:15.000Z</time>
      </trkpt>
      <trkpt lat="42.292802" lon="-8.798453">
        <ele>74.2</ele>
        <time>1970-01-01T00:29:16.000Z</time>
      </trkpt>
      <trkpt lat="42.292805" lon="-8.798445">
        <ele>74.2</ele>
        <time>1970-01-01T00:29:17.000Z</time>
      </trkpt>
      <trkpt lat="42.2928" lon="-8.798442">
        <ele>74.2</ele>
        <time>1970-01-01T00:29:18.000Z</time>
      </trkpt>
      <trkpt lat="42.292798" lon="-8.79844">
        <ele>74.2</ele>
        <time>1970-01-01T00:29:19.000Z</time>
      </trkpt>
      <trkpt lat="42.292798" lon="-8.798438">
        <ele>74.2</ele>
        <time>1970-01-01T00:29:20.000Z</time>
      </trkpt>
      <trkpt lat="42.292807" lon="-8.79843">
        <ele>74.2</ele>
        <time>1970-01-01T00:29:21.000Z</time>
      </trkpt>
      <trkpt lat="42.292818" lon="-8.798423">
        <ele>74.2</ele>
        <time>1970-01-01T00:29:22.000Z</time>
      </trkpt>
      <trkpt lat="42.292825" lon="-8.798417">
        <ele>74.2</ele>
        <time>1970-01-01T00:29:23.000Z</time>
      </trkpt>
      <trkpt lat="42.292822" lon="-8.798408">
        <ele>74.2</ele>
        <time>1970-01-01T00:29:24.000Z</time>
      </trkpt>
      <trkpt lat="42.292818" lon="-8.798402">
        <ele>74.2</ele>
        <time>1970-01-01T00:29:25.000Z</time>
      </trkpt>
      <trkpt lat="42.292817" lon="-8.798395">
        <ele>74.2</ele>
        <time>1970-01-01T00:29:26.000Z</time>
      </trkpt>
      <trkpt lat="42.29282" lon="-8.798383">
        <ele>75.3</ele>
        <time>1970-01-01T00:29:27.000Z</time>
      </trkpt>
      <trkpt lat="42.292822" lon="-8.798377">
        <ele>75.3</ele>
        <time>1970-01-01T00:29:28.000Z</time>
      </trkpt>
      <trkpt lat="42.292827" lon="-8.798367">
        <ele>75.3</ele>
        <time>1970-01-01T00:29:29.000Z</time>
      </trkpt>
      <trkpt lat="42.292828" lon="-8.798362">
        <ele>75.3</ele>
        <time>1970-01-01T00:29:30.000Z</time>
      </trkpt>
      <trkpt lat="42.29283" lon="-8.798355">
        <ele>75.3</ele>
        <time>1970-01-01T00:29:31.000Z</time>
      </trkpt>
      <trkpt lat="42.292832" lon="-8.79835">
        <ele>75.3</ele>
        <time>1970-01-01T00:29:32.000Z</time>
      </trkpt>
      <trkpt lat="42.292832" lon="-8.798345">
        <ele>75.3</ele>
        <time>1970-01-01T00:29:33.000Z</time>
      </trkpt>
      <trkpt lat="42.292835" lon="-8.798338">
        <ele>75.3</ele>
        <time>1970-01-01T00:29:34.000Z</time>
      </trkpt>
      <trkpt lat="42.292835" lon="-8.798332">
        <ele>75.3</ele>
        <time>1970-01-01T00:29:35.000Z</time>
      </trkpt>
      <trkpt lat="42.292835" lon="-8.798327">
        <ele>75.3</ele>
        <time>1970-01-01T00:29:36.000Z</time>
      </trkpt>
      <trkpt lat="42.29284" lon="-8.798327">
        <ele>76.2</ele>
        <time>1970-01-01T00:29:37.000Z</time>
      </trkpt>
      <trkpt lat="42.292842" lon="-8.798322">
        <ele>76.2</ele>
        <time>1970-01-01T00:29:38.000Z</time>
      </trkpt>
      <trkpt lat="42.292843" lon="-8.798313">
        <ele>76.2</ele>
        <time>1970-01-01T00:29:39.000Z</time>
      </trkpt>
      <trkpt lat="42.29285" lon="-8.798303">
        <ele>76.2</ele>
        <time>1970-01-01T00:29:40.000Z</time>
      </trkpt>
      <trkpt lat="42.292853" lon="-8.798298">
        <ele>76.2</ele>
        <time>1970-01-01T00:29:41.000Z</time>
      </trkpt>
      <trkpt lat="42.292857" lon="-8.798293">
        <ele>76.2</ele>
        <time>1970-01-01T00:29:42.000Z</time>
      </trkpt>
      <trkpt lat="42.292865" lon="-8.798283">
        <ele>77.3</ele>
        <time>1970-01-01T00:29:43.000Z</time>
      </trkpt>
      <trkpt lat="42.292873" lon="-8.798272">
        <ele>77.3</ele>
        <time>1970-01-01T00:29:44.000Z</time>
      </trkpt>
      <trkpt lat="42.292882" lon="-8.798263">
        <ele>77.3</ele>
        <time>1970-01-01T00:29:45.000Z</time>
      </trkpt>
      <trkpt lat="42.292887" lon="-8.798255">
        <ele>77.3</ele>
        <time>1970-01-01T00:29:46.000Z</time>
      </trkpt>
      <trkpt lat="42.29289" lon="-8.798247">
        <ele>77.3</ele>
        <time>1970-01-01T00:29:47.000Z</time>
      </trkpt>
      <trkpt lat="42.292898" lon="-8.798247">
        <ele>77.3</ele>
        <time>1970-01-01T00:29:48.000Z</time>
      </trkpt>
      <trkpt lat="42.292907" lon="-8.79824">
        <ele>77.3</ele>
        <time>1970-01-01T00:29:49.000Z</time>
      </trkpt>
      <trkpt lat="42.292912" lon="-8.798227">
        <ele>77.3</ele>
        <time>1970-01-01T00:29:50.000Z</time>
      </trkpt>
      <trkpt lat="42.292917" lon="-8.798222">
        <ele>77.3</ele>
        <time>1970-01-01T00:29:51.000Z</time>
      </trkpt>
      <trkpt lat="42.292918" lon="-8.798212">
        <ele>77.3</ele>
        <time>1970-01-01T00:29:52.000Z</time>
      </trkpt>
      <trkpt lat="42.292922" lon="-8.798203">
        <ele>78.3</ele>
        <time>1970-01-01T00:29:53.000Z</time>
      </trkpt>
      <trkpt lat="42.292928" lon="-8.7982">
        <ele>78.3</ele>
        <time>1970-01-01T00:29:54.000Z</time>
      </trkpt>
      <trkpt lat="42.292932" lon="-8.798197">
        <ele>78.3</ele>
        <time>1970-01-01T00:29:55.000Z</time>
      </trkpt>
      <trkpt lat="42.292937" lon="-8.798197">
        <ele>78.3</ele>
        <time>1970-01-01T00:29:56.000Z</time>
      </trkpt>
      <trkpt lat="42.292935" lon="-8.798203">
        <ele>78.3</ele>
        <time>1970-01-01T00:29:57.000Z</time>
      </trkpt>
      <trkpt lat="42.292938" lon="-8.798202">
        <ele>79.2</ele>
        <time>1970-01-01T00:29:58.000Z</time>
      </trkpt>
      <trkpt lat="42.29294" lon="-8.7982">
        <ele>79.2</ele>
        <time>1970-01-01T00:29:59.000Z</time>
      </trkpt>
      <trkpt lat="42.292942" lon="-8.798198">
        <ele>79.2</ele>
        <time>1970-01-01T00:30:00.000Z</time>
      </trkpt>
      <trkpt lat="42.29294" lon="-8.798198">
        <ele>79.2</ele>
        <time>1970-01-01T00:30:01.000Z</time>
      </trkpt>
      <trkpt lat="42.292942" lon="-8.798197">
        <ele>79.2</ele>
        <time>1970-01-01T00:30:02.000Z</time>
      </trkpt>
      <trkpt lat="42.292943" lon="-8.798197">
        <ele>79.2</ele>
        <time>1970-01-01T00:30:03.000Z</time>
      </trkpt>
      <trkpt lat="42.292942" lon="-8.798198">
        <ele>79.2</ele>
        <time>1970-01-01T00:30:04.000Z</time>
      </trkpt>
      <trkpt lat="42.292942" lon="-8.798198">
        <ele>79.2</ele>
        <time>1970-01-01T00:30:05.000Z</time>
      </trkpt>
      <trkpt lat="42.292942" lon="-8.798198">
        <ele>79.2</ele>
        <time>1970-01-01T00:30:06.000Z</time>
      </trkpt>
      <trkpt lat="42.292942" lon="-8.798198">
        <ele>79.2</ele>
        <time>1970-01-01T00:30:07.000Z</time>
      </trkpt>
      <trkpt lat="42.292942" lon="-8.798198">
        <ele>79.2</ele>
        <time>1970-01-01T00:30:08.000Z</time>
      </trkpt>
      <trkpt lat="42.292942" lon="-8.798198">
        <ele>79.2</ele>
        <time>1970-01-01T00:30:09.000Z</time>
      </trkpt>
      <trkpt lat="42.292942" lon="-8.798198">
        <ele>79.2</ele>
        <time>1970-01-01T00:30:10.000Z</time>
      </trkpt>
      <trkpt lat="42.292942" lon="-8.798198">
        <ele>79.2</ele>
        <time>1970-01-01T00:30:11.000Z</time>
      </trkpt>
      <trkpt lat="42.292942" lon="-8.798198">
        <ele>79.2</ele>
        <time>1970-01-01T00:30:12.000Z</time>
      </trkpt>
      <trkpt lat="42.292942" lon="-8.798198">
        <ele>79.2</ele>
        <time>1970-01-01T00:30:13.000Z</time>
      </trkpt>
      <trkpt lat="42.292942" lon="-8.798198">
        <ele>79.2</ele>
        <time>1970-01-01T00:30:14.000Z</time>
      </trkpt>
      <trkpt lat="42.29294" lon="-8.798198">
        <ele>79.2</ele>
        <time>1970-01-01T00:30:15.000Z</time>
      </trkpt>
      <trkpt lat="42.29294" lon="-8.798198">
        <ele>79.2</ele>
        <time>1970-01-01T00:30:16.000Z</time>
      </trkpt>
      <trkpt lat="42.29294" lon="-8.798198">
        <ele>79.2</ele>
        <time>1970-01-01T00:30:17.000Z</time>
      </trkpt>
      <trkpt lat="42.292938" lon="-8.798198">
        <ele>78.3</ele>
        <time>1970-01-01T00:30:18.000Z</time>
      </trkpt>
      <trkpt lat="42.292938" lon="-8.798198">
        <ele>78.3</ele>
        <time>1970-01-01T00:30:19.000Z</time>
      </trkpt>
      <trkpt lat="42.292938" lon="-8.798198">
        <ele>78.3</ele>
        <time>1970-01-01T00:30:20.000Z</time>
      </trkpt>
      <trkpt lat="42.292937" lon="-8.798198">
        <ele>78.3</ele>
        <time>1970-01-01T00:30:21.000Z</time>
      </trkpt>
      <trkpt lat="42.292937" lon="-8.798198">
        <ele>78.3</ele>
        <time>1970-01-01T00:30:22.000Z</time>
      </trkpt>
      <trkpt lat="42.292935" lon="-8.798198">
        <ele>78.3</ele>
        <time>1970-01-01T00:30:23.000Z</time>
      </trkpt>
      <trkpt lat="42.29293" lon="-8.798198">
        <ele>77.3</ele>
        <time>1970-01-01T00:30:24.000Z</time>
      </trkpt>
      <trkpt lat="42.29293" lon="-8.798197">
        <ele>77.3</ele>
        <time>1970-01-01T00:30:25.000Z</time>
      </trkpt>
      <trkpt lat="42.29293" lon="-8.798197">
        <ele>77.3</ele>
        <time>1970-01-01T00:30:26.000Z</time>
      </trkpt>
      <trkpt lat="42.29293" lon="-8.798197">
        <ele>77.3</ele>
        <time>1970-01-01T00:30:27.000Z</time>
      </trkpt>
      <trkpt lat="42.29293" lon="-8.798197">
        <ele>77.3</ele>
        <time>1970-01-01T00:30:28.000Z</time>
      </trkpt>
      <trkpt lat="42.292933" lon="-8.79819">
        <ele>77.3</ele>
        <time>1970-01-01T00:30:29.000Z</time>
      </trkpt>
      <trkpt lat="42.292937" lon="-8.798162">
        <ele>77.3</ele>
        <time>1970-01-01T00:30:30.000Z</time>
      </trkpt>
      <trkpt lat="42.292948" lon="-8.79814">
        <ele>77.3</ele>
        <time>1970-01-01T00:30:31.000Z</time>
      </trkpt>
      <trkpt lat="42.29296" lon="-8.798122">
        <ele>77.3</ele>
        <time>1970-01-01T00:30:32.000Z</time>
      </trkpt>
      <trkpt lat="42.292968" lon="-8.798103">
        <ele>77.3</ele>
        <time>1970-01-01T00:30:33.000Z</time>
      </trkpt>
      <trkpt lat="42.292975" lon="-8.79809">
        <ele>77.3</ele>
        <time>1970-01-01T00:30:34.000Z</time>
      </trkpt>
      <trkpt lat="42.292987" lon="-8.79807">
        <ele>77.3</ele>
        <time>1970-01-01T00:30:35.000Z</time>
      </trkpt>
      <trkpt lat="42.292997" lon="-8.798048">
        <ele>77.3</ele>
        <time>1970-01-01T00:30:36.000Z</time>
      </trkpt>
      <trkpt lat="42.293005" lon="-8.798032">
        <ele>77.3</ele>
        <time>1970-01-01T00:30:37.000Z</time>
      </trkpt>
      <trkpt lat="42.293008" lon="-8.798017">
        <ele>77.3</ele>
        <time>1970-01-01T00:30:38.000Z</time>
      </trkpt>
      <trkpt lat="42.29301" lon="-8.798008">
        <ele>77.3</ele>
        <time>1970-01-01T00:30:39.000Z</time>
      </trkpt>
      <trkpt lat="42.29301" lon="-8.797995">
        <ele>77.3</ele>
        <time>1970-01-01T00:30:40.000Z</time>
      </trkpt>
      <trkpt lat="42.293015" lon="-8.797982">
        <ele>77.3</ele>
        <time>1970-01-01T00:30:41.000Z</time>
      </trkpt>
      <trkpt lat="42.29302" lon="-8.797975">
        <ele>77.3</ele>
        <time>1970-01-01T00:30:42.000Z</time>
      </trkpt>
      <trkpt lat="42.29303" lon="-8.797967">
        <ele>77.3</ele>
        <time>1970-01-01T00:30:43.000Z</time>
      </trkpt>
      <trkpt lat="42.293035" lon="-8.797965">
        <ele>78.3</ele>
        <time>1970-01-01T00:30:44.000Z</time>
      </trkpt>
      <trkpt lat="42.293038" lon="-8.797958">
        <ele>78.3</ele>
        <time>1970-01-01T00:30:45.000Z</time>
      </trkpt>
      <trkpt lat="42.29304" lon="-8.797955">
        <ele>78.3</ele>
        <time>1970-01-01T00:30:46.000Z</time>
      </trkpt>
      <trkpt lat="42.293043" lon="-8.79795">
        <ele>78.3</ele>
        <time>1970-01-01T00:30:47.000Z</time>
      </trkpt>
      <trkpt lat="42.293043" lon="-8.797947">
        <ele>78.3</ele>
        <time>1970-01-01T00:30:48.000Z</time>
      </trkpt>
      <trkpt lat="42.293045" lon="-8.797945">
        <ele>78.3</ele>
        <time>1970-01-01T00:30:49.000Z</time>
      </trkpt>
      <trkpt lat="42.293047" lon="-8.797943">
        <ele>78.3</ele>
        <time>1970-01-01T00:30:50.000Z</time>
      </trkpt>
      <trkpt lat="42.293062" lon="-8.797925">
        <ele>78.3</ele>
        <time>1970-01-01T00:30:51.000Z</time>
      </trkpt>
      <trkpt lat="42.293063" lon="-8.797922">
        <ele>79.2</ele>
        <time>1970-01-01T00:30:52.000Z</time>
      </trkpt>
      <trkpt lat="42.293077" lon="-8.797903">
        <ele>79.2</ele>
        <time>1970-01-01T00:30:53.000Z</time>
      </trkpt>
      <trkpt lat="42.293078" lon="-8.797892">
        <ele>79.2</ele>
        <time>1970-01-01T00:30:54.000Z</time>
      </trkpt>
      <trkpt lat="42.293077" lon="-8.797887">
        <ele>79.2</ele>
        <time>1970-01-01T00:30:55.000Z</time>
      </trkpt>
      <trkpt lat="42.293078" lon="-8.79788">
        <ele>79.2</ele>
        <time>1970-01-01T00:30:56.000Z</time>
      </trkpt>
      <trkpt lat="42.293082" lon="-8.797872">
        <ele>79.2</ele>
        <time>1970-01-01T00:30:57.000Z</time>
      </trkpt>
      <trkpt lat="42.2931" lon="-8.797857">
        <ele>80.3</ele>
        <time>1970-01-01T00:30:58.000Z</time>
      </trkpt>
      <trkpt lat="42.293112" lon="-8.797848">
        <ele>80.3</ele>
        <time>1970-01-01T00:30:59.000Z</time>
      </trkpt>
      <trkpt lat="42.293112" lon="-8.797838">
        <ele>80.3</ele>
        <time>1970-01-01T00:31:00.000Z</time>
      </trkpt>
      <trkpt lat="42.293115" lon="-8.797832">
        <ele>80.3</ele>
        <time>1970-01-01T00:31:01.000Z</time>
      </trkpt>
      <trkpt lat="42.29312" lon="-8.797827">
        <ele>81.2</ele>
        <time>1970-01-01T00:31:02.000Z</time>
      </trkpt>
      <trkpt lat="42.293122" lon="-8.797818">
        <ele>81.2</ele>
        <time>1970-01-01T00:31:03.000Z</time>
      </trkpt>
      <trkpt lat="42.293123" lon="-8.797808">
        <ele>81.2</ele>
        <time>1970-01-01T00:31:04.000Z</time>
      </trkpt>
      <trkpt lat="42.293123" lon="-8.7978">
        <ele>81.2</ele>
        <time>1970-01-01T00:31:05.000Z</time>
      </trkpt>
      <trkpt lat="42.293127" lon="-8.797793">
        <ele>81.2</ele>
        <time>1970-01-01T00:31:06.000Z</time>
      </trkpt>
      <trkpt lat="42.293127" lon="-8.797788">
        <ele>81.2</ele>
        <time>1970-01-01T00:31:07.000Z</time>
      </trkpt>
      <trkpt lat="42.293142" lon="-8.797772">
        <ele>82.3</ele>
        <time>1970-01-01T00:31:08.000Z</time>
      </trkpt>
      <trkpt lat="42.293142" lon="-8.797765">
        <ele>82.3</ele>
        <time>1970-01-01T00:31:09.000Z</time>
      </trkpt>
      <trkpt lat="42.293142" lon="-8.797763">
        <ele>82.3</ele>
        <time>1970-01-01T00:31:10.000Z</time>
      </trkpt>
      <trkpt lat="42.293145" lon="-8.79776">
        <ele>82.3</ele>
        <time>1970-01-01T00:31:11.000Z</time>
      </trkpt>
      <trkpt lat="42.293148" lon="-8.79775">
        <ele>82.3</ele>
        <time>1970-01-01T00:31:12.000Z</time>
      </trkpt>
      <trkpt lat="42.293153" lon="-8.797743">
        <ele>82.3</ele>
        <time>1970-01-01T00:31:13.000Z</time>
      </trkpt>
      <trkpt lat="42.293153" lon="-8.797738">
        <ele>82.3</ele>
        <time>1970-01-01T00:31:14.000Z</time>
      </trkpt>
      <trkpt lat="42.293155" lon="-8.797733">
        <ele>82.3</ele>
        <time>1970-01-01T00:31:15.000Z</time>
      </trkpt>
      <trkpt lat="42.293153" lon="-8.79773">
        <ele>82.3</ele>
        <time>1970-01-01T00:31:16.000Z</time>
      </trkpt>
      <trkpt lat="42.293157" lon="-8.797715">
        <ele>82.3</ele>
        <time>1970-01-01T00:31:17.000Z</time>
      </trkpt>
      <trkpt lat="42.293155" lon="-8.797697">
        <ele>83.2</ele>
        <time>1970-01-01T00:31:18.000Z</time>
      </trkpt>
      <trkpt lat="42.293155" lon="-8.79769">
        <ele>83.2</ele>
        <time>1970-01-01T00:31:19.000Z</time>
      </trkpt>
      <trkpt lat="42.293155" lon="-8.797685">
        <ele>83.2</ele>
        <time>1970-01-01T00:31:20.000Z</time>
      </trkpt>
      <trkpt lat="42.293153" lon="-8.797683">
        <ele>83.2</ele>
        <time>1970-01-01T00:31:21.000Z</time>
      </trkpt>
      <trkpt lat="42.293145" lon="-8.79768">
        <ele>83.2</ele>
        <time>1970-01-01T00:31:22.000Z</time>
      </trkpt>
      <trkpt lat="42.29314" lon="-8.79768">
        <ele>83.2</ele>
        <time>1970-01-01T00:31:23.000Z</time>
      </trkpt>
      <trkpt lat="42.29314" lon="-8.797673">
        <ele>84.3</ele>
        <time>1970-01-01T00:31:24.000Z</time>
      </trkpt>
      <trkpt lat="42.29314" lon="-8.797658">
        <ele>84.3</ele>
        <time>1970-01-01T00:31:25.000Z</time>
      </trkpt>
      <trkpt lat="42.293138" lon="-8.797642">
        <ele>84.3</ele>
        <time>1970-01-01T00:31:26.000Z</time>
      </trkpt>
      <trkpt lat="42.293137" lon="-8.797623">
        <ele>84.3</ele>
        <time>1970-01-01T00:31:27.000Z</time>
      </trkpt>
      <trkpt lat="42.29314" lon="-8.797612">
        <ele>84.3</ele>
        <time>1970-01-01T00:31:28.000Z</time>
      </trkpt>
      <trkpt lat="42.293147" lon="-8.797598">
        <ele>84.3</ele>
        <time>1970-01-01T00:31:29.000Z</time>
      </trkpt>
      <trkpt lat="42.293158" lon="-8.797583">
        <ele>85.2</ele>
        <time>1970-01-01T00:31:30.000Z</time>
      </trkpt>
      <trkpt lat="42.293162" lon="-8.797573">
        <ele>85.2</ele>
        <time>1970-01-01T00:31:31.000Z</time>
      </trkpt>
      <trkpt lat="42.29317" lon="-8.797553">
        <ele>85.2</ele>
        <time>1970-01-01T00:31:32.000Z</time>
      </trkpt>
      <trkpt lat="42.293165" lon="-8.797533">
        <ele>85.2</ele>
        <time>1970-01-01T00:31:33.000Z</time>
      </trkpt>
      <trkpt lat="42.293163" lon="-8.79752">
        <ele>85.2</ele>
        <time>1970-01-01T00:31:34.000Z</time>
      </trkpt>
      <trkpt lat="42.293168" lon="-8.797505">
        <ele>85.2</ele>
        <time>1970-01-01T00:31:35.000Z</time>
      </trkpt>
      <trkpt lat="42.293177" lon="-8.797493">
        <ele>86.3</ele>
        <time>1970-01-01T00:31:36.000Z</time>
      </trkpt>
      <trkpt lat="42.293178" lon="-8.797485">
        <ele>86.3</ele>
        <time>1970-01-01T00:31:37.000Z</time>
      </trkpt>
      <trkpt lat="42.293187" lon="-8.797483">
        <ele>86.3</ele>
        <time>1970-01-01T00:31:38.000Z</time>
      </trkpt>
      <trkpt lat="42.293197" lon="-8.797477">
        <ele>86.3</ele>
        <time>1970-01-01T00:31:39.000Z</time>
      </trkpt>
      <trkpt lat="42.293202" lon="-8.797465">
        <ele>86.3</ele>
        <time>1970-01-01T00:31:40.000Z</time>
      </trkpt>
      <trkpt lat="42.293202" lon="-8.797455">
        <ele>86.3</ele>
        <time>1970-01-01T00:31:41.000Z</time>
      </trkpt>
      <trkpt lat="42.293193" lon="-8.797455">
        <ele>86.3</ele>
        <time>1970-01-01T00:31:42.000Z</time>
      </trkpt>
      <trkpt lat="42.293187" lon="-8.797457">
        <ele>86.3</ele>
        <time>1970-01-01T00:31:43.000Z</time>
      </trkpt>
      <trkpt lat="42.293187" lon="-8.797455">
        <ele>86.3</ele>
        <time>1970-01-01T00:31:44.000Z</time>
      </trkpt>
      <trkpt lat="42.293187" lon="-8.797453">
        <ele>86.3</ele>
        <time>1970-01-01T00:31:45.000Z</time>
      </trkpt>
      <trkpt lat="42.293187" lon="-8.797452">
        <ele>86.3</ele>
        <time>1970-01-01T00:31:46.000Z</time>
      </trkpt>
      <trkpt lat="42.293185" lon="-8.797452">
        <ele>86.3</ele>
        <time>1970-01-01T00:31:47.000Z</time>
      </trkpt>
      <trkpt lat="42.293185" lon="-8.797453">
        <ele>86.3</ele>
        <time>1970-01-01T00:31:48.000Z</time>
      </trkpt>
      <trkpt lat="42.293187" lon="-8.797453">
        <ele>86.3</ele>
        <time>1970-01-01T00:31:49.000Z</time>
      </trkpt>
      <trkpt lat="42.29319" lon="-8.79745">
        <ele>86.3</ele>
        <time>1970-01-01T00:31:50.000Z</time>
      </trkpt>
      <trkpt lat="42.293193" lon="-8.797452">
        <ele>86.3</ele>
        <time>1970-01-01T00:31:51.000Z</time>
      </trkpt>
      <trkpt lat="42.2932" lon="-8.797453">
        <ele>86.3</ele>
        <time>1970-01-01T00:31:52.000Z</time>
      </trkpt>
      <trkpt lat="42.293205" lon="-8.797453">
        <ele>86.3</ele>
        <time>1970-01-01T00:31:53.000Z</time>
      </trkpt>
      <trkpt lat="42.29321" lon="-8.797448">
        <ele>86.3</ele>
        <time>1970-01-01T00:31:54.000Z</time>
      </trkpt>
      <trkpt lat="42.293215" lon="-8.797442">
        <ele>86.3</ele>
        <time>1970-01-01T00:31:55.000Z</time>
      </trkpt>
      <trkpt lat="42.293217" lon="-8.797433">
        <ele>86.3</ele>
        <time>1970-01-01T00:31:56.000Z</time>
      </trkpt>
      <trkpt lat="42.293218" lon="-8.79743">
        <ele>86.3</ele>
        <time>1970-01-01T00:31:57.000Z</time>
      </trkpt>
      <trkpt lat="42.293218" lon="-8.797428">
        <ele>86.3</ele>
        <time>1970-01-01T00:31:58.000Z</time>
      </trkpt>
      <trkpt lat="42.293218" lon="-8.797428">
        <ele>86.3</ele>
        <time>1970-01-01T00:31:59.000Z</time>
      </trkpt>
      <trkpt lat="42.293218" lon="-8.797428">
        <ele>86.3</ele>
        <time>1970-01-01T00:32:00.000Z</time>
      </trkpt>
      <trkpt lat="42.293218" lon="-8.797428">
        <ele>86.3</ele>
        <time>1970-01-01T00:32:01.000Z</time>
      </trkpt>
      <trkpt lat="42.293218" lon="-8.797428">
        <ele>86.3</ele>
        <time>1970-01-01T00:32:02.000Z</time>
      </trkpt>
      <trkpt lat="42.293218" lon="-8.797428">
        <ele>86.3</ele>
        <time>1970-01-01T00:32:03.000Z</time>
      </trkpt>
      <trkpt lat="42.293218" lon="-8.797428">
        <ele>86.3</ele>
        <time>1970-01-01T00:32:04.000Z</time>
      </trkpt>
      <trkpt lat="42.293218" lon="-8.797428">
        <ele>86.3</ele>
        <time>1970-01-01T00:32:05.000Z</time>
      </trkpt>
      <trkpt lat="42.293218" lon="-8.797428">
        <ele>86.3</ele>
        <time>1970-01-01T00:32:06.000Z</time>
      </trkpt>
      <trkpt lat="42.293218" lon="-8.797428">
        <ele>86.3</ele>
        <time>1970-01-01T00:32:07.000Z</time>
      </trkpt>
      <trkpt lat="42.293218" lon="-8.797428">
        <ele>86.3</ele>
        <time>1970-01-01T00:32:08.000Z</time>
      </trkpt>
      <trkpt lat="42.293218" lon="-8.797428">
        <ele>86.3</ele>
        <time>1970-01-01T00:32:09.000Z</time>
      </trkpt>
      <trkpt lat="42.293218" lon="-8.797428">
        <ele>86.3</ele>
        <time>1970-01-01T00:32:10.000Z</time>
      </trkpt>
      <trkpt lat="42.293222" lon="-8.797422">
        <ele>86.3</ele>
        <time>1970-01-01T00:32:11.000Z</time>
      </trkpt>
      <trkpt lat="42.293232" lon="-8.797405">
        <ele>86.3</ele>
        <time>1970-01-01T00:32:12.000Z</time>
      </trkpt>
      <trkpt lat="42.29324" lon="-8.797388">
        <ele>86.3</ele>
        <time>1970-01-01T00:32:13.000Z</time>
      </trkpt>
      <trkpt lat="42.293248" lon="-8.797373">
        <ele>86.3</ele>
        <time>1970-01-01T00:32:14.000Z</time>
      </trkpt>
      <trkpt lat="42.293252" lon="-8.797357">
        <ele>86.3</ele>
        <time>1970-01-01T00:32:15.000Z</time>
      </trkpt>
      <trkpt lat="42.293253" lon="-8.797338">
        <ele>86.3</ele>
        <time>1970-01-01T00:32:16.000Z</time>
      </trkpt>
      <trkpt lat="42.293253" lon="-8.797315">
        <ele>86.3</ele>
        <time>1970-01-01T00:32:17.000Z</time>
      </trkpt>
      <trkpt lat="42.293257" lon="-8.797298">
        <ele>87.3</ele>
        <time>1970-01-01T00:32:18.000Z</time>
      </trkpt>
      <trkpt lat="42.293263" lon="-8.79728">
        <ele>87.3</ele>
        <time>1970-01-01T00:32:19.000Z</time>
      </trkpt>
      <trkpt lat="42.293268" lon="-8.797265">
        <ele>87.3</ele>
        <time>1970-01-01T00:32:20.000Z</time>
      </trkpt>
      <trkpt lat="42.293272" lon="-8.797255">
        <ele>87.3</ele>
        <time>1970-01-01T00:32:21.000Z</time>
      </trkpt>
      <trkpt lat="42.293272" lon="-8.797245">
        <ele>88.2</ele>
        <time>1970-01-01T00:32:22.000Z</time>
      </trkpt>
      <trkpt lat="42.29327" lon="-8.797242">
        <ele>88.2</ele>
        <time>1970-01-01T00:32:23.000Z</time>
      </trkpt>
      <trkpt lat="42.293268" lon="-8.797228">
        <ele>88.2</ele>
        <time>1970-01-01T00:32:24.000Z</time>
      </trkpt>
      <trkpt lat="42.293267" lon="-8.797222">
        <ele>88.2</ele>
        <time>1970-01-01T00:32:25.000Z</time>
      </trkpt>
      <trkpt lat="42.293267" lon="-8.797212">
        <ele>88.2</ele>
        <time>1970-01-01T00:32:26.000Z</time>
      </trkpt>
      <trkpt lat="42.293268" lon="-8.7972">
        <ele>88.2</ele>
        <time>1970-01-01T00:32:27.000Z</time>
      </trkpt>
      <trkpt lat="42.293277" lon="-8.79719">
        <ele>88.2</ele>
        <time>1970-01-01T00:32:28.000Z</time>
      </trkpt>
      <trkpt lat="42.293285" lon="-8.797178">
        <ele>88.2</ele>
        <time>1970-01-01T00:32:29.000Z</time>
      </trkpt>
      <trkpt lat="42.293288" lon="-8.797172">
        <ele>88.2</ele>
        <time>1970-01-01T00:32:30.000Z</time>
      </trkpt>
      <trkpt lat="42.293288" lon="-8.79717">
        <ele>88.2</ele>
        <time>1970-01-01T00:32:31.000Z</time>
      </trkpt>
      <trkpt lat="42.293293" lon="-8.797163">
        <ele>88.2</ele>
        <time>1970-01-01T00:32:32.000Z</time>
      </trkpt>
      <trkpt lat="42.293297" lon="-8.797153">
        <ele>88.2</ele>
        <time>1970-01-01T00:32:33.000Z</time>
      </trkpt>
      <trkpt lat="42.293308" lon="-8.797145">
        <ele>88.2</ele>
        <time>1970-01-01T00:32:34.000Z</time>
      </trkpt>
      <trkpt lat="42.293312" lon="-8.797138">
        <ele>88.2</ele>
        <time>1970-01-01T00:32:35.000Z</time>
      </trkpt>
      <trkpt lat="42.293315" lon="-8.797133">
        <ele>89.3</ele>
        <time>1970-01-01T00:32:36.000Z</time>
      </trkpt>
      <trkpt lat="42.293317" lon="-8.797128">
        <ele>89.3</ele>
        <time>1970-01-01T00:32:37.000Z</time>
      </trkpt>
      <trkpt lat="42.29332" lon="-8.797127">
        <ele>89.3</ele>
        <time>1970-01-01T00:32:38.000Z</time>
      </trkpt>
      <trkpt lat="42.293325" lon="-8.797123">
        <ele>89.3</ele>
        <time>1970-01-01T00:32:39.000Z</time>
      </trkpt>
      <trkpt lat="42.293332" lon="-8.797122">
        <ele>89.3</ele>
        <time>1970-01-01T00:32:40.000Z</time>
      </trkpt>
      <trkpt lat="42.293337" lon="-8.797118">
        <ele>89.3</ele>
        <time>1970-01-01T00:32:41.000Z</time>
      </trkpt>
      <trkpt lat="42.293352" lon="-8.797108">
        <ele>89.3</ele>
        <time>1970-01-01T00:32:42.000Z</time>
      </trkpt>
      <trkpt lat="42.293363" lon="-8.7971">
        <ele>89.3</ele>
        <time>1970-01-01T00:32:43.000Z</time>
      </trkpt>
      <trkpt lat="42.293372" lon="-8.79709">
        <ele>89.3</ele>
        <time>1970-01-01T00:32:44.000Z</time>
      </trkpt>
      <trkpt lat="42.293375" lon="-8.797087">
        <ele>89.3</ele>
        <time>1970-01-01T00:32:45.000Z</time>
      </trkpt>
      <trkpt lat="42.293378" lon="-8.797073">
        <ele>89.3</ele>
        <time>1970-01-01T00:32:46.000Z</time>
      </trkpt>
      <trkpt lat="42.293383" lon="-8.797063">
        <ele>89.3</ele>
        <time>1970-01-01T00:32:47.000Z</time>
      </trkpt>
      <trkpt lat="42.293385" lon="-8.797055">
        <ele>89.3</ele>
        <time>1970-01-01T00:32:48.000Z</time>
      </trkpt>
      <trkpt lat="42.293387" lon="-8.797047">
        <ele>89.3</ele>
        <time>1970-01-01T00:32:49.000Z</time>
      </trkpt>
      <trkpt lat="42.293388" lon="-8.79704">
        <ele>89.3</ele>
        <time>1970-01-01T00:32:50.000Z</time>
      </trkpt>
      <trkpt lat="42.293388" lon="-8.79703">
        <ele>89.3</ele>
        <time>1970-01-01T00:32:51.000Z</time>
      </trkpt>
      <trkpt lat="42.29339" lon="-8.797025">
        <ele>91.3</ele>
        <time>1970-01-01T00:32:52.000Z</time>
      </trkpt>
      <trkpt lat="42.293392" lon="-8.797022">
        <ele>91.3</ele>
        <time>1970-01-01T00:32:53.000Z</time>
      </trkpt>
      <trkpt lat="42.293393" lon="-8.79703">
        <ele>92.2</ele>
        <time>1970-01-01T00:32:54.000Z</time>
      </trkpt>
      <trkpt lat="42.293385" lon="-8.797018">
        <ele>92.2</ele>
        <time>1970-01-01T00:32:55.000Z</time>
      </trkpt>
      <trkpt lat="42.293387" lon="-8.79701">
        <ele>92.2</ele>
        <time>1970-01-01T00:32:56.000Z</time>
      </trkpt>
      <trkpt lat="42.293393" lon="-8.796998">
        <ele>92.2</ele>
        <time>1970-01-01T00:32:57.000Z</time>
      </trkpt>
      <trkpt lat="42.293398" lon="-8.796992">
        <ele>92.2</ele>
        <time>1970-01-01T00:32:58.000Z</time>
      </trkpt>
      <trkpt lat="42.2934" lon="-8.796988">
        <ele>92.2</ele>
        <time>1970-01-01T00:32:59.000Z</time>
      </trkpt>
      <trkpt lat="42.293405" lon="-8.796988">
        <ele>92.2</ele>
        <time>1970-01-01T00:33:00.000Z</time>
      </trkpt>
      <trkpt lat="42.29341" lon="-8.796985">
        <ele>92.2</ele>
        <time>1970-01-01T00:33:01.000Z</time>
      </trkpt>
      <trkpt lat="42.293418" lon="-8.796977">
        <ele>92.2</ele>
        <time>1970-01-01T00:33:02.000Z</time>
      </trkpt>
      <trkpt lat="42.293428" lon="-8.796963">
        <ele>92.2</ele>
        <time>1970-01-01T00:33:03.000Z</time>
      </trkpt>
      <trkpt lat="42.293433" lon="-8.796953">
        <ele>93.3</ele>
        <time>1970-01-01T00:33:04.000Z</time>
      </trkpt>
      <trkpt lat="42.29344" lon="-8.79694">
        <ele>93.3</ele>
        <time>1970-01-01T00:33:05.000Z</time>
      </trkpt>
      <trkpt lat="42.293455" lon="-8.796927">
        <ele>93.3</ele>
        <time>1970-01-01T00:33:06.000Z</time>
      </trkpt>
      <trkpt lat="42.293465" lon="-8.796898">
        <ele>93.3</ele>
        <time>1970-01-01T00:33:07.000Z</time>
      </trkpt>
      <trkpt lat="42.293473" lon="-8.796883">
        <ele>93.3</ele>
        <time>1970-01-01T00:33:08.000Z</time>
      </trkpt>
      <trkpt lat="42.293487" lon="-8.79687">
        <ele>93.3</ele>
        <time>1970-01-01T00:33:09.000Z</time>
      </trkpt>
      <trkpt lat="42.293497" lon="-8.796853">
        <ele>93.3</ele>
        <time>1970-01-01T00:33:10.000Z</time>
      </trkpt>
      <trkpt lat="42.2935" lon="-8.796835">
        <ele>93.3</ele>
        <time>1970-01-01T00:33:11.000Z</time>
      </trkpt>
      <trkpt lat="42.293507" lon="-8.79682">
        <ele>93.3</ele>
        <time>1970-01-01T00:33:12.000Z</time>
      </trkpt>
      <trkpt lat="42.293505" lon="-8.796803">
        <ele>93.3</ele>
        <time>1970-01-01T00:33:13.000Z</time>
      </trkpt>
      <trkpt lat="42.2935" lon="-8.796792">
        <ele>93.3</ele>
        <time>1970-01-01T00:33:14.000Z</time>
      </trkpt>
      <trkpt lat="42.2935" lon="-8.796787">
        <ele>93.3</ele>
        <time>1970-01-01T00:33:15.000Z</time>
      </trkpt>
      <trkpt lat="42.293495" lon="-8.796783">
        <ele>93.3</ele>
        <time>1970-01-01T00:33:16.000Z</time>
      </trkpt>
      <trkpt lat="42.293503" lon="-8.796777">
        <ele>93.3</ele>
        <time>1970-01-01T00:33:17.000Z</time>
      </trkpt>
      <trkpt lat="42.293503" lon="-8.796768">
        <ele>93.3</ele>
        <time>1970-01-01T00:33:18.000Z</time>
      </trkpt>
      <trkpt lat="42.293507" lon="-8.796762">
        <ele>93.3</ele>
        <time>1970-01-01T00:33:19.000Z</time>
      </trkpt>
      <trkpt lat="42.293503" lon="-8.796753">
        <ele>93.3</ele>
        <time>1970-01-01T00:33:20.000Z</time>
      </trkpt>
      <trkpt lat="42.293495" lon="-8.796732">
        <ele>93.3</ele>
        <time>1970-01-01T00:33:21.000Z</time>
      </trkpt>
      <trkpt lat="42.293483" lon="-8.796718">
        <ele>93.3</ele>
        <time>1970-01-01T00:33:22.000Z</time>
      </trkpt>
      <trkpt lat="42.293483" lon="-8.796702">
        <ele>93.3</ele>
        <time>1970-01-01T00:33:23.000Z</time>
      </trkpt>
      <trkpt lat="42.29349" lon="-8.79669">
        <ele>93.3</ele>
        <time>1970-01-01T00:33:24.000Z</time>
      </trkpt>
      <trkpt lat="42.293495" lon="-8.796668">
        <ele>93.3</ele>
        <time>1970-01-01T00:33:25.000Z</time>
      </trkpt>
      <trkpt lat="42.293492" lon="-8.796657">
        <ele>93.3</ele>
        <time>1970-01-01T00:33:26.000Z</time>
      </trkpt>
      <trkpt lat="42.293487" lon="-8.796652">
        <ele>93.3</ele>
        <time>1970-01-01T00:33:27.000Z</time>
      </trkpt>
      <trkpt lat="42.293485" lon="-8.796642">
        <ele>96.3</ele>
        <time>1970-01-01T00:33:28.000Z</time>
      </trkpt>
      <trkpt lat="42.293482" lon="-8.796633">
        <ele>96.3</ele>
        <time>1970-01-01T00:33:29.000Z</time>
      </trkpt>
      <trkpt lat="42.293477" lon="-8.796618">
        <ele>97.2</ele>
        <time>1970-01-01T00:33:30.000Z</time>
      </trkpt>
      <trkpt lat="42.293473" lon="-8.796612">
        <ele>97.2</ele>
        <time>1970-01-01T00:33:31.000Z</time>
      </trkpt>
      <trkpt lat="42.293472" lon="-8.796607">
        <ele>97.2</ele>
        <time>1970-01-01T00:33:32.000Z</time>
      </trkpt>
      <trkpt lat="42.29348" lon="-8.796597">
        <ele>97.2</ele>
        <time>1970-01-01T00:33:33.000Z</time>
      </trkpt>
      <trkpt lat="42.29348" lon="-8.796577">
        <ele>97.2</ele>
        <time>1970-01-01T00:33:34.000Z</time>
      </trkpt>
      <trkpt lat="42.29348" lon="-8.796567">
        <ele>97.2</ele>
        <time>1970-01-01T00:33:35.000Z</time>
      </trkpt>
      <trkpt lat="42.29348" lon="-8.796562">
        <ele>97.2</ele>
        <time>1970-01-01T00:33:36.000Z</time>
      </trkpt>
      <trkpt lat="42.293478" lon="-8.79656">
        <ele>97.2</ele>
        <time>1970-01-01T00:33:37.000Z</time>
      </trkpt>
      <trkpt lat="42.293473" lon="-8.796558">
        <ele>97.2</ele>
        <time>1970-01-01T00:33:38.000Z</time>
      </trkpt>
      <trkpt lat="42.293472" lon="-8.796555">
        <ele>97.2</ele>
        <time>1970-01-01T00:33:39.000Z</time>
      </trkpt>
      <trkpt lat="42.293477" lon="-8.79655">
        <ele>97.2</ele>
        <time>1970-01-01T00:33:40.000Z</time>
      </trkpt>
      <trkpt lat="42.293482" lon="-8.79654">
        <ele>97.2</ele>
        <time>1970-01-01T00:33:41.000Z</time>
      </trkpt>
      <trkpt lat="42.293485" lon="-8.796532">
        <ele>98.3</ele>
        <time>1970-01-01T00:33:42.000Z</time>
      </trkpt>
      <trkpt lat="42.293485" lon="-8.796527">
        <ele>98.3</ele>
        <time>1970-01-01T00:33:43.000Z</time>
      </trkpt>
      <trkpt lat="42.293487" lon="-8.796522">
        <ele>99.2</ele>
        <time>1970-01-01T00:33:44.000Z</time>
      </trkpt>
      <trkpt lat="42.293492" lon="-8.796508">
        <ele>99.2</ele>
        <time>1970-01-01T00:33:45.000Z</time>
      </trkpt>
      <trkpt lat="42.293492" lon="-8.796498">
        <ele>100.3</ele>
        <time>1970-01-01T00:33:46.000Z</time>
      </trkpt>
      <trkpt lat="42.293485" lon="-8.796487">
        <ele>100.3</ele>
        <time>1970-01-01T00:33:47.000Z</time>
      </trkpt>
      <trkpt lat="42.293483" lon="-8.796475">
        <ele>100.3</ele>
        <time>1970-01-01T00:33:48.000Z</time>
      </trkpt>
      <trkpt lat="42.293488" lon="-8.796468">
        <ele>100.3</ele>
        <time>1970-01-01T00:33:49.000Z</time>
      </trkpt>
      <trkpt lat="42.293495" lon="-8.796463">
        <ele>100.3</ele>
        <time>1970-01-01T00:33:50.000Z</time>
      </trkpt>
      <trkpt lat="42.2935" lon="-8.796455">
        <ele>100.3</ele>
        <time>1970-01-01T00:33:51.000Z</time>
      </trkpt>
      <trkpt lat="42.293502" lon="-8.796447">
        <ele>100.3</ele>
        <time>1970-01-01T00:33:52.000Z</time>
      </trkpt>
      <trkpt lat="42.293503" lon="-8.79644">
        <ele>100.3</ele>
        <time>1970-01-01T00:33:53.000Z</time>
      </trkpt>
      <trkpt lat="42.293505" lon="-8.796435">
        <ele>100.3</ele>
        <time>1970-01-01T00:33:54.000Z</time>
      </trkpt>
      <trkpt lat="42.293507" lon="-8.796432">
        <ele>100.3</ele>
        <time>1970-01-01T00:33:55.000Z</time>
      </trkpt>
      <trkpt lat="42.293507" lon="-8.796427">
        <ele>100.3</ele>
        <time>1970-01-01T00:33:56.000Z</time>
      </trkpt>
      <trkpt lat="42.293508" lon="-8.796418">
        <ele>100.3</ele>
        <time>1970-01-01T00:33:57.000Z</time>
      </trkpt>
      <trkpt lat="42.29351" lon="-8.796405">
        <ele>100.3</ele>
        <time>1970-01-01T00:33:58.000Z</time>
      </trkpt>
      <trkpt lat="42.293512" lon="-8.796398">
        <ele>100.3</ele>
        <time>1970-01-01T00:33:59.000Z</time>
      </trkpt>
      <trkpt lat="42.293512" lon="-8.79639">
        <ele>100.3</ele>
        <time>1970-01-01T00:34:00.000Z</time>
      </trkpt>
      <trkpt lat="42.293517" lon="-8.796383">
        <ele>100.3</ele>
        <time>1970-01-01T00:34:01.000Z</time>
      </trkpt>
      <trkpt lat="42.293515" lon="-8.796375">
        <ele>101.2</ele>
        <time>1970-01-01T00:34:02.000Z</time>
      </trkpt>
      <trkpt lat="42.29351" lon="-8.796368">
        <ele>101.2</ele>
        <time>1970-01-01T00:34:03.000Z</time>
      </trkpt>
      <trkpt lat="42.293507" lon="-8.796363">
        <ele>102.3</ele>
        <time>1970-01-01T00:34:04.000Z</time>
      </trkpt>
      <trkpt lat="42.293497" lon="-8.796357">
        <ele>102.3</ele>
        <time>1970-01-01T00:34:05.000Z</time>
      </trkpt>
      <trkpt lat="42.293488" lon="-8.796345">
        <ele>102.3</ele>
        <time>1970-01-01T00:34:06.000Z</time>
      </trkpt>
      <trkpt lat="42.293487" lon="-8.79634">
        <ele>102.3</ele>
        <time>1970-01-01T00:34:07.000Z</time>
      </trkpt>
      <trkpt lat="42.293485" lon="-8.79634">
        <ele>102.3</ele>
        <time>1970-01-01T00:34:08.000Z</time>
      </trkpt>
      <trkpt lat="42.293485" lon="-8.79634">
        <ele>102.3</ele>
        <time>1970-01-01T00:34:09.000Z</time>
      </trkpt>
      <trkpt lat="42.293495" lon="-8.796327">
        <ele>102.3</ele>
        <time>1970-01-01T00:34:10.000Z</time>
      </trkpt>
      <trkpt lat="42.293502" lon="-8.796318">
        <ele>102.3</ele>
        <time>1970-01-01T00:34:11.000Z</time>
      </trkpt>
      <trkpt lat="42.293505" lon="-8.7963">
        <ele>103.3</ele>
        <time>1970-01-01T00:34:12.000Z</time>
      </trkpt>
      <trkpt lat="42.293513" lon="-8.79628">
        <ele>103.3</ele>
        <time>1970-01-01T00:34:13.000Z</time>
      </trkpt>
      <trkpt lat="42.293523" lon="-8.796265">
        <ele>103.3</ele>
        <time>1970-01-01T00:34:14.000Z</time>
      </trkpt>
      <trkpt lat="42.293532" lon="-8.796248">
        <ele>103.3</ele>
        <time>1970-01-01T00:34:15.000Z</time>
      </trkpt>
      <trkpt lat="42.293535" lon="-8.796238">
        <ele>104.2</ele>
        <time>1970-01-01T00:34:16.000Z</time>
      </trkpt>
      <trkpt lat="42.29354" lon="-8.796232">
        <ele>104.2</ele>
        <time>1970-01-01T00:34:17.000Z</time>
      </trkpt>
      <trkpt lat="42.293545" lon="-8.796228">
        <ele>104.2</ele>
        <time>1970-01-01T00:34:18.000Z</time>
      </trkpt>
      <trkpt lat="42.293547" lon="-8.796228">
        <ele>104.2</ele>
        <time>1970-01-01T00:34:19.000Z</time>
      </trkpt>
      <trkpt lat="42.293547" lon="-8.796228">
        <ele>104.2</ele>
        <time>1970-01-01T00:34:20.000Z</time>
      </trkpt>
      <trkpt lat="42.293552" lon="-8.796222">
        <ele>104.2</ele>
        <time>1970-01-01T00:34:21.000Z</time>
      </trkpt>
      <trkpt lat="42.293552" lon="-8.796208">
        <ele>104.2</ele>
        <time>1970-01-01T00:34:22.000Z</time>
      </trkpt>
      <trkpt lat="42.293552" lon="-8.7962">
        <ele>104.2</ele>
        <time>1970-01-01T00:34:23.000Z</time>
      </trkpt>
      <trkpt lat="42.293563" lon="-8.79619">
        <ele>104.2</ele>
        <time>1970-01-01T00:34:24.000Z</time>
      </trkpt>
      <trkpt lat="42.293577" lon="-8.796173">
        <ele>104.2</ele>
        <time>1970-01-01T00:34:25.000Z</time>
      </trkpt>
      <trkpt lat="42.293592" lon="-8.796158">
        <ele>104.2</ele>
        <time>1970-01-01T00:34:26.000Z</time>
      </trkpt>
      <trkpt lat="42.29361" lon="-8.796147">
        <ele>104.2</ele>
        <time>1970-01-01T00:34:27.000Z</time>
      </trkpt>
      <trkpt lat="42.293617" lon="-8.796137">
        <ele>105.3</ele>
        <time>1970-01-01T00:34:28.000Z</time>
      </trkpt>
      <trkpt lat="42.293622" lon="-8.79613">
        <ele>105.3</ele>
        <time>1970-01-01T00:34:29.000Z</time>
      </trkpt>
      <trkpt lat="42.293633" lon="-8.796125">
        <ele>105.3</ele>
        <time>1970-01-01T00:34:30.000Z</time>
      </trkpt>
      <trkpt lat="42.293643" lon="-8.79612">
        <ele>105.3</ele>
        <time>1970-01-01T00:34:31.000Z</time>
      </trkpt>
      <trkpt lat="42.29365" lon="-8.796118">
        <ele>105.3</ele>
        <time>1970-01-01T00:34:32.000Z</time>
      </trkpt>
      <trkpt lat="42.293653" lon="-8.796117">
        <ele>105.3</ele>
        <time>1970-01-01T00:34:33.000Z</time>
      </trkpt>
      <trkpt lat="42.293658" lon="-8.796113">
        <ele>105.3</ele>
        <time>1970-01-01T00:34:34.000Z</time>
      </trkpt>
      <trkpt lat="42.293662" lon="-8.796113">
        <ele>105.3</ele>
        <time>1970-01-01T00:34:35.000Z</time>
      </trkpt>
      <trkpt lat="42.29367" lon="-8.796112">
        <ele>105.3</ele>
        <time>1970-01-01T00:34:36.000Z</time>
      </trkpt>
      <trkpt lat="42.293678" lon="-8.796112">
        <ele>105.3</ele>
        <time>1970-01-01T00:34:37.000Z</time>
      </trkpt>
      <trkpt lat="42.293683" lon="-8.796112">
        <ele>105.3</ele>
        <time>1970-01-01T00:34:38.000Z</time>
      </trkpt>
      <trkpt lat="42.29369" lon="-8.79611">
        <ele>105.3</ele>
        <time>1970-01-01T00:34:39.000Z</time>
      </trkpt>
      <trkpt lat="42.293692" lon="-8.796113">
        <ele>105.3</ele>
        <time>1970-01-01T00:34:40.000Z</time>
      </trkpt>
      <trkpt lat="42.293698" lon="-8.796113">
        <ele>105.3</ele>
        <time>1970-01-01T00:34:41.000Z</time>
      </trkpt>
      <trkpt lat="42.293707" lon="-8.796108">
        <ele>105.3</ele>
        <time>1970-01-01T00:34:42.000Z</time>
      </trkpt>
      <trkpt lat="42.293717" lon="-8.796102">
        <ele>105.3</ele>
        <time>1970-01-01T00:34:43.000Z</time>
      </trkpt>
      <trkpt lat="42.293722" lon="-8.796093">
        <ele>105.3</ele>
        <time>1970-01-01T00:34:44.000Z</time>
      </trkpt>
      <trkpt lat="42.293727" lon="-8.796083">
        <ele>106.2</ele>
        <time>1970-01-01T00:34:45.000Z</time>
      </trkpt>
      <trkpt lat="42.293737" lon="-8.796072">
        <ele>106.2</ele>
        <time>1970-01-01T00:34:46.000Z</time>
      </trkpt>
      <trkpt lat="42.293745" lon="-8.796057">
        <ele>107.3</ele>
        <time>1970-01-01T00:34:47.000Z</time>
      </trkpt>
      <trkpt lat="42.293752" lon="-8.796038">
        <ele>107.3</ele>
        <time>1970-01-01T00:34:48.000Z</time>
      </trkpt>
      <trkpt lat="42.293757" lon="-8.796028">
        <ele>107.3</ele>
        <time>1970-01-01T00:34:49.000Z</time>
      </trkpt>
      <trkpt lat="42.293758" lon="-8.796012">
        <ele>107.3</ele>
        <time>1970-01-01T00:34:50.000Z</time>
      </trkpt>
      <trkpt lat="42.293755" lon="-8.795997">
        <ele>107.3</ele>
        <time>1970-01-01T00:34:51.000Z</time>
      </trkpt>
      <trkpt lat="42.293755" lon="-8.795985">
        <ele>107.3</ele>
        <time>1970-01-01T00:34:52.000Z</time>
      </trkpt>
      <trkpt lat="42.293753" lon="-8.795975">
        <ele>107.3</ele>
        <time>1970-01-01T00:34:53.000Z</time>
      </trkpt>
      <trkpt lat="42.293757" lon="-8.795967">
        <ele>107.3</ele>
        <time>1970-01-01T00:34:54.000Z</time>
      </trkpt>
      <trkpt lat="42.293755" lon="-8.795955">
        <ele>107.3</ele>
        <time>1970-01-01T00:34:55.000Z</time>
      </trkpt>
      <trkpt lat="42.293752" lon="-8.795942">
        <ele>107.3</ele>
        <time>1970-01-01T00:34:56.000Z</time>
      </trkpt>
      <trkpt lat="42.293753" lon="-8.795933">
        <ele>108.2</ele>
        <time>1970-01-01T00:34:57.000Z</time>
      </trkpt>
      <trkpt lat="42.293753" lon="-8.795922">
        <ele>108.2</ele>
        <time>1970-01-01T00:34:58.000Z</time>
      </trkpt>
      <trkpt lat="42.293755" lon="-8.795913">
        <ele>108.2</ele>
        <time>1970-01-01T00:34:59.000Z</time>
      </trkpt>
      <trkpt lat="42.293753" lon="-8.795907">
        <ele>108.2</ele>
        <time>1970-01-01T00:35:00.000Z</time>
      </trkpt>
      <trkpt lat="42.293755" lon="-8.795903">
        <ele>108.2</ele>
        <time>1970-01-01T00:35:01.000Z</time>
      </trkpt>
      <trkpt lat="42.293758" lon="-8.795895">
        <ele>108.2</ele>
        <time>1970-01-01T00:35:02.000Z</time>
      </trkpt>
      <trkpt lat="42.29376" lon="-8.79589">
        <ele>109.3</ele>
        <time>1970-01-01T00:35:03.000Z</time>
      </trkpt>
      <trkpt lat="42.29376" lon="-8.795885">
        <ele>109.3</ele>
        <time>1970-01-01T00:35:04.000Z</time>
      </trkpt>
      <trkpt lat="42.293758" lon="-8.79588">
        <ele>109.3</ele>
        <time>1970-01-01T00:35:05.000Z</time>
      </trkpt>
      <trkpt lat="42.293755" lon="-8.795877">
        <ele>109.3</ele>
        <time>1970-01-01T00:35:06.000Z</time>
      </trkpt>
      <trkpt lat="42.293748" lon="-8.79587">
        <ele>110.3</ele>
        <time>1970-01-01T00:35:07.000Z</time>
      </trkpt>
      <trkpt lat="42.293745" lon="-8.795868">
        <ele>110.3</ele>
        <time>1970-01-01T00:35:08.000Z</time>
      </trkpt>
      <trkpt lat="42.293735" lon="-8.795858">
        <ele>110.3</ele>
        <time>1970-01-01T00:35:09.000Z</time>
      </trkpt>
      <trkpt lat="42.293725" lon="-8.795847">
        <ele>110.3</ele>
        <time>1970-01-01T00:35:10.000Z</time>
      </trkpt>
      <trkpt lat="42.29372" lon="-8.795837">
        <ele>110.3</ele>
        <time>1970-01-01T00:35:11.000Z</time>
      </trkpt>
      <trkpt lat="42.293712" lon="-8.795825">
        <ele>110.3</ele>
        <time>1970-01-01T00:35:12.000Z</time>
      </trkpt>
      <trkpt lat="42.293703" lon="-8.795803">
        <ele>110.3</ele>
        <time>1970-01-01T00:35:13.000Z</time>
      </trkpt>
      <trkpt lat="42.293695" lon="-8.795785">
        <ele>110.3</ele>
        <time>1970-01-01T00:35:14.000Z</time>
      </trkpt>
      <trkpt lat="42.29369" lon="-8.795765">
        <ele>111.3</ele>
        <time>1970-01-01T00:35:15.000Z</time>
      </trkpt>
      <trkpt lat="42.293682" lon="-8.795747">
        <ele>111.3</ele>
        <time>1970-01-01T00:35:16.000Z</time>
      </trkpt>
      <trkpt lat="42.293675" lon="-8.795732">
        <ele>112.3</ele>
        <time>1970-01-01T00:35:17.000Z</time>
      </trkpt>
      <trkpt lat="42.293667" lon="-8.79572">
        <ele>112.3</ele>
        <time>1970-01-01T00:35:18.000Z</time>
      </trkpt>
      <trkpt lat="42.29366" lon="-8.795705">
        <ele>112.3</ele>
        <time>1970-01-01T00:35:19.000Z</time>
      </trkpt>
      <trkpt lat="42.29365" lon="-8.795693">
        <ele>112.3</ele>
        <time>1970-01-01T00:35:20.000Z</time>
      </trkpt>
      <trkpt lat="42.29364" lon="-8.795682">
        <ele>112.3</ele>
        <time>1970-01-01T00:35:21.000Z</time>
      </trkpt>
      <trkpt lat="42.29363" lon="-8.79567">
        <ele>112.3</ele>
        <time>1970-01-01T00:35:22.000Z</time>
      </trkpt>
      <trkpt lat="42.293618" lon="-8.795665">
        <ele>112.3</ele>
        <time>1970-01-01T00:35:23.000Z</time>
      </trkpt>
      <trkpt lat="42.293613" lon="-8.795657">
        <ele>112.3</ele>
        <time>1970-01-01T00:35:24.000Z</time>
      </trkpt>
      <trkpt lat="42.293613" lon="-8.79565">
        <ele>112.3</ele>
        <time>1970-01-01T00:35:25.000Z</time>
      </trkpt>
      <trkpt lat="42.29361" lon="-8.795648">
        <ele>112.3</ele>
        <time>1970-01-01T00:35:26.000Z</time>
      </trkpt>
      <trkpt lat="42.293608" lon="-8.795645">
        <ele>113.2</ele>
        <time>1970-01-01T00:35:27.000Z</time>
      </trkpt>
      <trkpt lat="42.293605" lon="-8.79564">
        <ele>113.2</ele>
        <time>1970-01-01T00:35:28.000Z</time>
      </trkpt>
      <trkpt lat="42.293607" lon="-8.795637">
        <ele>113.2</ele>
        <time>1970-01-01T00:35:29.000Z</time>
      </trkpt>
      <trkpt lat="42.293607" lon="-8.795632">
        <ele>113.2</ele>
        <time>1970-01-01T00:35:30.000Z</time>
      </trkpt>
      <trkpt lat="42.293603" lon="-8.795628">
        <ele>113.2</ele>
        <time>1970-01-01T00:35:31.000Z</time>
      </trkpt>
      <trkpt lat="42.293605" lon="-8.795623">
        <ele>113.2</ele>
        <time>1970-01-01T00:35:32.000Z</time>
      </trkpt>
      <trkpt lat="42.293603" lon="-8.79562">
        <ele>113.2</ele>
        <time>1970-01-01T00:35:33.000Z</time>
      </trkpt>
      <trkpt lat="42.293605" lon="-8.79562">
        <ele>113.2</ele>
        <time>1970-01-01T00:35:34.000Z</time>
      </trkpt>
      <trkpt lat="42.293605" lon="-8.79562">
        <ele>113.2</ele>
        <time>1970-01-01T00:35:35.000Z</time>
      </trkpt>
      <trkpt lat="42.293605" lon="-8.79562">
        <ele>113.2</ele>
        <time>1970-01-01T00:35:36.000Z</time>
      </trkpt>
      <trkpt lat="42.293605" lon="-8.79562">
        <ele>113.2</ele>
        <time>1970-01-01T00:35:37.000Z</time>
      </trkpt>
      <trkpt lat="42.293605" lon="-8.79562">
        <ele>113.2</ele>
        <time>1970-01-01T00:35:38.000Z</time>
      </trkpt>
      <trkpt lat="42.293605" lon="-8.79562">
        <ele>113.2</ele>
        <time>1970-01-01T00:35:39.000Z</time>
      </trkpt>
      <trkpt lat="42.293605" lon="-8.79562">
        <ele>113.2</ele>
        <time>1970-01-01T00:35:40.000Z</time>
      </trkpt>
      <trkpt lat="42.293605" lon="-8.79562">
        <ele>113.2</ele>
        <time>1970-01-01T00:35:41.000Z</time>
      </trkpt>
      <trkpt lat="42.293605" lon="-8.79562">
        <ele>113.2</ele>
        <time>1970-01-01T00:35:42.000Z</time>
      </trkpt>
      <trkpt lat="42.293605" lon="-8.79562">
        <ele>113.2</ele>
        <time>1970-01-01T00:35:43.000Z</time>
      </trkpt>
      <trkpt lat="42.293605" lon="-8.79562">
        <ele>113.2</ele>
        <time>1970-01-01T00:35:44.000Z</time>
      </trkpt>
      <trkpt lat="42.293605" lon="-8.79562">
        <ele>113.2</ele>
        <time>1970-01-01T00:35:45.000Z</time>
      </trkpt>
      <trkpt lat="42.293605" lon="-8.79562">
        <ele>113.2</ele>
        <time>1970-01-01T00:35:46.000Z</time>
      </trkpt>
      <trkpt lat="42.293605" lon="-8.79562">
        <ele>113.2</ele>
        <time>1970-01-01T00:35:47.000Z</time>
      </trkpt>
      <trkpt lat="42.293605" lon="-8.79562">
        <ele>113.2</ele>
        <time>1970-01-01T00:35:48.000Z</time>
      </trkpt>
      <trkpt lat="42.293605" lon="-8.79562">
        <ele>113.2</ele>
        <time>1970-01-01T00:35:49.000Z</time>
      </trkpt>
      <trkpt lat="42.293605" lon="-8.795622">
        <ele>113.2</ele>
        <time>1970-01-01T00:35:50.000Z</time>
      </trkpt>
      <trkpt lat="42.293605" lon="-8.795623">
        <ele>113.2</ele>
        <time>1970-01-01T00:35:51.000Z</time>
      </trkpt>
      <trkpt lat="42.293605" lon="-8.795623">
        <ele>113.2</ele>
        <time>1970-01-01T00:35:52.000Z</time>
      </trkpt>
      <trkpt lat="42.293607" lon="-8.795625">
        <ele>113.2</ele>
        <time>1970-01-01T00:35:53.000Z</time>
      </trkpt>
      <trkpt lat="42.293607" lon="-8.795625">
        <ele>113.2</ele>
        <time>1970-01-01T00:35:54.000Z</time>
      </trkpt>
      <trkpt lat="42.293607" lon="-8.795625">
        <ele>113.2</ele>
        <time>1970-01-01T00:35:55.000Z</time>
      </trkpt>
      <trkpt lat="42.293607" lon="-8.795625">
        <ele>113.2</ele>
        <time>1970-01-01T00:35:56.000Z</time>
      </trkpt>
      <trkpt lat="42.293607" lon="-8.795625">
        <ele>113.2</ele>
        <time>1970-01-01T00:35:57.000Z</time>
      </trkpt>
      <trkpt lat="42.293607" lon="-8.795625">
        <ele>113.2</ele>
        <time>1970-01-01T00:35:58.000Z</time>
      </trkpt>
      <trkpt lat="42.293607" lon="-8.795625">
        <ele>113.2</ele>
        <time>1970-01-01T00:35:59.000Z</time>
      </trkpt>
      <trkpt lat="42.293605" lon="-8.795623">
        <ele>113.2</ele>
        <time>1970-01-01T00:36:00.000Z</time>
      </trkpt>
      <trkpt lat="42.293605" lon="-8.795623">
        <ele>113.2</ele>
        <time>1970-01-01T00:36:01.000Z</time>
      </trkpt>
      <trkpt lat="42.293605" lon="-8.795622">
        <ele>113.2</ele>
        <time>1970-01-01T00:36:02.000Z</time>
      </trkpt>
      <trkpt lat="42.293605" lon="-8.795622">
        <ele>113.2</ele>
        <time>1970-01-01T00:36:03.000Z</time>
      </trkpt>
      <trkpt lat="42.293605" lon="-8.795622">
        <ele>113.2</ele>
        <time>1970-01-01T00:36:04.000Z</time>
      </trkpt>
      <trkpt lat="42.2936" lon="-8.795615">
        <ele>113.2</ele>
        <time>1970-01-01T00:36:05.000Z</time>
      </trkpt>
      <trkpt lat="42.293585" lon="-8.7956">
        <ele>113.2</ele>
        <time>1970-01-01T00:36:06.000Z</time>
      </trkpt>
      <trkpt lat="42.293567" lon="-8.795588">
        <ele>113.2</ele>
        <time>1970-01-01T00:36:07.000Z</time>
      </trkpt>
      <trkpt lat="42.29355" lon="-8.795578">
        <ele>113.2</ele>
        <time>1970-01-01T00:36:08.000Z</time>
      </trkpt>
      <trkpt lat="42.293528" lon="-8.795572">
        <ele>113.2</ele>
        <time>1970-01-01T00:36:09.000Z</time>
      </trkpt>
      <trkpt lat="42.293507" lon="-8.795562">
        <ele>113.2</ele>
        <time>1970-01-01T00:36:10.000Z</time>
      </trkpt>
      <trkpt lat="42.293493" lon="-8.795552">
        <ele>113.2</ele>
        <time>1970-01-01T00:36:11.000Z</time>
      </trkpt>
      <trkpt lat="42.293485" lon="-8.795542">
        <ele>113.2</ele>
        <time>1970-01-01T00:36:12.000Z</time>
      </trkpt>
      <trkpt lat="42.293477" lon="-8.795533">
        <ele>113.2</ele>
        <time>1970-01-01T00:36:13.000Z</time>
      </trkpt>
      <trkpt lat="42.293465" lon="-8.795513">
        <ele>113.2</ele>
        <time>1970-01-01T00:36:14.000Z</time>
      </trkpt>
      <trkpt lat="42.293455" lon="-8.7955">
        <ele>113.2</ele>
        <time>1970-01-01T00:36:15.000Z</time>
      </trkpt>
      <trkpt lat="42.293453" lon="-8.795492">
        <ele>113.2</ele>
        <time>1970-01-01T00:36:16.000Z</time>
      </trkpt>
      <trkpt lat="42.293452" lon="-8.795488">
        <ele>113.2</ele>
        <time>1970-01-01T00:36:17.000Z</time>
      </trkpt>
      <trkpt lat="42.29345" lon="-8.795493">
        <ele>113.2</ele>
        <time>1970-01-01T00:36:18.000Z</time>
      </trkpt>
      <trkpt lat="42.293445" lon="-8.795495">
        <ele>113.2</ele>
        <time>1970-01-01T00:36:19.000Z</time>
      </trkpt>
      <trkpt lat="42.293442" lon="-8.795497">
        <ele>113.2</ele>
        <time>1970-01-01T00:36:20.000Z</time>
      </trkpt>
      <trkpt lat="42.293435" lon="-8.795493">
        <ele>113.2</ele>
        <time>1970-01-01T00:36:21.000Z</time>
      </trkpt>
      <trkpt lat="42.293432" lon="-8.795488">
        <ele>113.2</ele>
        <time>1970-01-01T00:36:22.000Z</time>
      </trkpt>
      <trkpt lat="42.29343" lon="-8.795487">
        <ele>113.2</ele>
        <time>1970-01-01T00:36:23.000Z</time>
      </trkpt>
      <trkpt lat="42.29343" lon="-8.795487">
        <ele>113.2</ele>
        <time>1970-01-01T00:36:24.000Z</time>
      </trkpt>
      <trkpt lat="42.293433" lon="-8.79548">
        <ele>114.3</ele>
        <time>1970-01-01T00:36:25.000Z</time>
      </trkpt>
      <trkpt lat="42.293435" lon="-8.795477">
        <ele>114.3</ele>
        <time>1970-01-01T00:36:26.000Z</time>
      </trkpt>
      <trkpt lat="42.293437" lon="-8.795472">
        <ele>114.3</ele>
        <time>1970-01-01T00:36:27.000Z</time>
      </trkpt>
      <trkpt lat="42.293445" lon="-8.795462">
        <ele>114.3</ele>
        <time>1970-01-01T00:36:28.000Z</time>
      </trkpt>
      <trkpt lat="42.293452" lon="-8.795453">
        <ele>114.3</ele>
        <time>1970-01-01T00:36:29.000Z</time>
      </trkpt>
      <trkpt lat="42.293452" lon="-8.795447">
        <ele>114.3</ele>
        <time>1970-01-01T00:36:30.000Z</time>
      </trkpt>
      <trkpt lat="42.293458" lon="-8.795433">
        <ele>115.2</ele>
        <time>1970-01-01T00:36:31.000Z</time>
      </trkpt>
      <trkpt lat="42.293453" lon="-8.795415">
        <ele>115.2</ele>
        <time>1970-01-01T00:36:32.000Z</time>
      </trkpt>
      <trkpt lat="42.293453" lon="-8.795408">
        <ele>115.2</ele>
        <time>1970-01-01T00:36:33.000Z</time>
      </trkpt>
      <trkpt lat="42.29345" lon="-8.795388">
        <ele>115.2</ele>
        <time>1970-01-01T00:36:34.000Z</time>
      </trkpt>
      <trkpt lat="42.293453" lon="-8.79537">
        <ele>115.2</ele>
        <time>1970-01-01T00:36:35.000Z</time>
      </trkpt>
      <trkpt lat="42.293452" lon="-8.79535">
        <ele>115.2</ele>
        <time>1970-01-01T00:36:36.000Z</time>
      </trkpt>
      <trkpt lat="42.293448" lon="-8.79533">
        <ele>116.3</ele>
        <time>1970-01-01T00:36:37.000Z</time>
      </trkpt>
      <trkpt lat="42.293438" lon="-8.79532">
        <ele>116.3</ele>
        <time>1970-01-01T00:36:38.000Z</time>
      </trkpt>
      <trkpt lat="42.293432" lon="-8.795312">
        <ele>116.3</ele>
        <time>1970-01-01T00:36:39.000Z</time>
      </trkpt>
      <trkpt lat="42.293422" lon="-8.795303">
        <ele>116.3</ele>
        <time>1970-01-01T00:36:40.000Z</time>
      </trkpt>
      <trkpt lat="42.293413" lon="-8.7953">
        <ele>117.2</ele>
        <time>1970-01-01T00:36:41.000Z</time>
      </trkpt>
      <trkpt lat="42.293413" lon="-8.795298">
        <ele>117.2</ele>
        <time>1970-01-01T00:36:42.000Z</time>
      </trkpt>
      <trkpt lat="42.293412" lon="-8.7953">
        <ele>117.2</ele>
        <time>1970-01-01T00:36:43.000Z</time>
      </trkpt>
      <trkpt lat="42.29341" lon="-8.795302">
        <ele>117.2</ele>
        <time>1970-01-01T00:36:44.000Z</time>
      </trkpt>
      <trkpt lat="42.293402" lon="-8.795303">
        <ele>117.2</ele>
        <time>1970-01-01T00:36:45.000Z</time>
      </trkpt>
      <trkpt lat="42.293393" lon="-8.79531">
        <ele>117.2</ele>
        <time>1970-01-01T00:36:46.000Z</time>
      </trkpt>
      <trkpt lat="42.293385" lon="-8.795318">
        <ele>117.2</ele>
        <time>1970-01-01T00:36:47.000Z</time>
      </trkpt>
      <trkpt lat="42.293373" lon="-8.795318">
        <ele>117.2</ele>
        <time>1970-01-01T00:36:48.000Z</time>
      </trkpt>
      <trkpt lat="42.293367" lon="-8.795315">
        <ele>117.2</ele>
        <time>1970-01-01T00:36:49.000Z</time>
      </trkpt>
      <trkpt lat="42.293362" lon="-8.795315">
        <ele>117.2</ele>
        <time>1970-01-01T00:36:50.000Z</time>
      </trkpt>
      <trkpt lat="42.29336" lon="-8.795313">
        <ele>118.3</ele>
        <time>1970-01-01T00:36:51.000Z</time>
      </trkpt>
      <trkpt lat="42.293358" lon="-8.79531">
        <ele>118.3</ele>
        <time>1970-01-01T00:36:52.000Z</time>
      </trkpt>
      <trkpt lat="42.293358" lon="-8.795308">
        <ele>118.3</ele>
        <time>1970-01-01T00:36:53.000Z</time>
      </trkpt>
      <trkpt lat="42.293353" lon="-8.795308">
        <ele>118.3</ele>
        <time>1970-01-01T00:36:54.000Z</time>
      </trkpt>
      <trkpt lat="42.29335" lon="-8.795305">
        <ele>118.3</ele>
        <time>1970-01-01T00:36:55.000Z</time>
      </trkpt>
      <trkpt lat="42.293343" lon="-8.795298">
        <ele>118.3</ele>
        <time>1970-01-01T00:36:56.000Z</time>
      </trkpt>
      <trkpt lat="42.29334" lon="-8.79529">
        <ele>118.3</ele>
        <time>1970-01-01T00:36:57.000Z</time>
      </trkpt>
      <trkpt lat="42.293338" lon="-8.79528">
        <ele>118.3</ele>
        <time>1970-01-01T00:36:58.000Z</time>
      </trkpt>
      <trkpt lat="42.293347" lon="-8.795272">
        <ele>118.3</ele>
        <time>1970-01-01T00:36:59.000Z</time>
      </trkpt>
      <trkpt lat="42.293348" lon="-8.79526">
        <ele>118.3</ele>
        <time>1970-01-01T00:37:00.000Z</time>
      </trkpt>
      <trkpt lat="42.293347" lon="-8.795243">
        <ele>118.3</ele>
        <time>1970-01-01T00:37:01.000Z</time>
      </trkpt>
      <trkpt lat="42.293343" lon="-8.795232">
        <ele>118.3</ele>
        <time>1970-01-01T00:37:02.000Z</time>
      </trkpt>
      <trkpt lat="42.293343" lon="-8.79522">
        <ele>118.3</ele>
        <time>1970-01-01T00:37:03.000Z</time>
      </trkpt>
      <trkpt lat="42.293343" lon="-8.795207">
        <ele>118.3</ele>
        <time>1970-01-01T00:37:04.000Z</time>
      </trkpt>
      <trkpt lat="42.293338" lon="-8.795193">
        <ele>119.3</ele>
        <time>1970-01-01T00:37:05.000Z</time>
      </trkpt>
      <trkpt lat="42.29333" lon="-8.795185">
        <ele>119.3</ele>
        <time>1970-01-01T00:37:06.000Z</time>
      </trkpt>
      <trkpt lat="42.29332" lon="-8.795177">
        <ele>119.3</ele>
        <time>1970-01-01T00:37:07.000Z</time>
      </trkpt>
      <trkpt lat="42.293308" lon="-8.79517">
        <ele>119.3</ele>
        <time>1970-01-01T00:37:08.000Z</time>
      </trkpt>
      <trkpt lat="42.293293" lon="-8.795167">
        <ele>119.3</ele>
        <time>1970-01-01T00:37:09.000Z</time>
      </trkpt>
      <trkpt lat="42.293278" lon="-8.795165">
        <ele>119.3</ele>
        <time>1970-01-01T00:37:10.000Z</time>
      </trkpt>
      <trkpt lat="42.293265" lon="-8.795157">
        <ele>119.3</ele>
        <time>1970-01-01T00:37:11.000Z</time>
      </trkpt>
      <trkpt lat="42.293257" lon="-8.795127">
        <ele>119.3</ele>
        <time>1970-01-01T00:37:12.000Z</time>
      </trkpt>
      <trkpt lat="42.293248" lon="-8.79511">
        <ele>120.2</ele>
        <time>1970-01-01T00:37:13.000Z</time>
      </trkpt>
      <trkpt lat="42.293237" lon="-8.795098">
        <ele>120.2</ele>
        <time>1970-01-01T00:37:14.000Z</time>
      </trkpt>
      <trkpt lat="42.293232" lon="-8.795097">
        <ele>120.2</ele>
        <time>1970-01-01T00:37:15.000Z</time>
      </trkpt>
      <trkpt lat="42.293232" lon="-8.795098">
        <ele>120.2</ele>
        <time>1970-01-01T00:37:16.000Z</time>
      </trkpt>
      <trkpt lat="42.293243" lon="-8.795085">
        <ele>120.2</ele>
        <time>1970-01-01T00:37:17.000Z</time>
      </trkpt>
      <trkpt lat="42.293252" lon="-8.795077">
        <ele>120.2</ele>
        <time>1970-01-01T00:37:18.000Z</time>
      </trkpt>
      <trkpt lat="42.293258" lon="-8.795077">
        <ele>120.2</ele>
        <time>1970-01-01T00:37:19.000Z</time>
      </trkpt>
      <trkpt lat="42.29326" lon="-8.795068">
        <ele>120.2</ele>
        <time>1970-01-01T00:37:20.000Z</time>
      </trkpt>
      <trkpt lat="42.293263" lon="-8.79507">
        <ele>122.2</ele>
        <time>1970-01-01T00:37:21.000Z</time>
      </trkpt>
      <trkpt lat="42.293268" lon="-8.795072">
        <ele>122.2</ele>
        <time>1970-01-01T00:37:22.000Z</time>
      </trkpt>
      <trkpt lat="42.29327" lon="-8.795072">
        <ele>122.2</ele>
        <time>1970-01-01T00:37:23.000Z</time>
      </trkpt>
      <trkpt lat="42.29327" lon="-8.795072">
        <ele>122.2</ele>
        <time>1970-01-01T00:37:24.000Z</time>
      </trkpt>
      <trkpt lat="42.293273" lon="-8.795068">
        <ele>122.2</ele>
        <time>1970-01-01T00:37:25.000Z</time>
      </trkpt>
      <trkpt lat="42.293275" lon="-8.795065">
        <ele>122.2</ele>
        <time>1970-01-01T00:37:26.000Z</time>
      </trkpt>
      <trkpt lat="42.293277" lon="-8.79506">
        <ele>123.3</ele>
        <time>1970-01-01T00:37:27.000Z</time>
      </trkpt>
      <trkpt lat="42.293282" lon="-8.795058">
        <ele>123.3</ele>
        <time>1970-01-01T00:37:28.000Z</time>
      </trkpt>
      <trkpt lat="42.293283" lon="-8.795053">
        <ele>123.3</ele>
        <time>1970-01-01T00:37:29.000Z</time>
      </trkpt>
      <trkpt lat="42.293285" lon="-8.795048">
        <ele>123.3</ele>
        <time>1970-01-01T00:37:30.000Z</time>
      </trkpt>
      <trkpt lat="42.293292" lon="-8.795045">
        <ele>123.3</ele>
        <time>1970-01-01T00:37:31.000Z</time>
      </trkpt>
      <trkpt lat="42.293293" lon="-8.795043">
        <ele>123.3</ele>
        <time>1970-01-01T00:37:32.000Z</time>
      </trkpt>
      <trkpt lat="42.293302" lon="-8.795037">
        <ele>123.3</ele>
        <time>1970-01-01T00:37:33.000Z</time>
      </trkpt>
      <trkpt lat="42.293308" lon="-8.795028">
        <ele>123.3</ele>
        <time>1970-01-01T00:37:34.000Z</time>
      </trkpt>
      <trkpt lat="42.293322" lon="-8.795012">
        <ele>123.3</ele>
        <time>1970-01-01T00:37:35.000Z</time>
      </trkpt>
      <trkpt lat="42.293332" lon="-8.794993">
        <ele>123.3</ele>
        <time>1970-01-01T00:37:36.000Z</time>
      </trkpt>
      <trkpt lat="42.293342" lon="-8.79497">
        <ele>123.3</ele>
        <time>1970-01-01T00:37:37.000Z</time>
      </trkpt>
      <trkpt lat="42.293352" lon="-8.794943">
        <ele>123.3</ele>
        <time>1970-01-01T00:37:38.000Z</time>
      </trkpt>
      <trkpt lat="42.29335" lon="-8.794918">
        <ele>123.3</ele>
        <time>1970-01-01T00:37:39.000Z</time>
      </trkpt>
      <trkpt lat="42.293345" lon="-8.794907">
        <ele>123.3</ele>
        <time>1970-01-01T00:37:40.000Z</time>
      </trkpt>
      <trkpt lat="42.293327" lon="-8.7949">
        <ele>123.3</ele>
        <time>1970-01-01T00:37:41.000Z</time>
      </trkpt>
      <trkpt lat="42.293313" lon="-8.794898">
        <ele>123.3</ele>
        <time>1970-01-01T00:37:42.000Z</time>
      </trkpt>
      <trkpt lat="42.2933" lon="-8.794895">
        <ele>124.2</ele>
        <time>1970-01-01T00:37:43.000Z</time>
      </trkpt>
      <trkpt lat="42.293285" lon="-8.794887">
        <ele>124.2</ele>
        <time>1970-01-01T00:37:44.000Z</time>
      </trkpt>
      <trkpt lat="42.293275" lon="-8.794877">
        <ele>124.2</ele>
        <time>1970-01-01T00:37:45.000Z</time>
      </trkpt>
      <trkpt lat="42.293265" lon="-8.794872">
        <ele>124.2</ele>
        <time>1970-01-01T00:37:46.000Z</time>
      </trkpt>
      <trkpt lat="42.293252" lon="-8.794868">
        <ele>125.3</ele>
        <time>1970-01-01T00:37:47.000Z</time>
      </trkpt>
      <trkpt lat="42.293238" lon="-8.794862">
        <ele>125.3</ele>
        <time>1970-01-01T00:37:48.000Z</time>
      </trkpt>
      <trkpt lat="42.293228" lon="-8.794853">
        <ele>125.3</ele>
        <time>1970-01-01T00:37:49.000Z</time>
      </trkpt>
      <trkpt lat="42.293218" lon="-8.794848">
        <ele>125.3</ele>
        <time>1970-01-01T00:37:50.000Z</time>
      </trkpt>
      <trkpt lat="42.293208" lon="-8.79484">
        <ele>125.3</ele>
        <time>1970-01-01T00:37:51.000Z</time>
      </trkpt>
      <trkpt lat="42.293205" lon="-8.794838">
        <ele>125.3</ele>
        <time>1970-01-01T00:37:52.000Z</time>
      </trkpt>
      <trkpt lat="42.293195" lon="-8.794843">
        <ele>126.3</ele>
        <time>1970-01-01T00:37:53.000Z</time>
      </trkpt>
      <trkpt lat="42.29319" lon="-8.794837">
        <ele>126.3</ele>
        <time>1970-01-01T00:37:54.000Z</time>
      </trkpt>
      <trkpt lat="42.293183" lon="-8.794832">
        <ele>126.3</ele>
        <time>1970-01-01T00:37:55.000Z</time>
      </trkpt>
      <trkpt lat="42.293177" lon="-8.794827">
        <ele>126.3</ele>
        <time>1970-01-01T00:37:56.000Z</time>
      </trkpt>
      <trkpt lat="42.293167" lon="-8.794827">
        <ele>126.3</ele>
        <time>1970-01-01T00:37:57.000Z</time>
      </trkpt>
      <trkpt lat="42.293153" lon="-8.794823">
        <ele>126.3</ele>
        <time>1970-01-01T00:37:58.000Z</time>
      </trkpt>
      <trkpt lat="42.293142" lon="-8.794818">
        <ele>127.3</ele>
        <time>1970-01-01T00:37:59.000Z</time>
      </trkpt>
      <trkpt lat="42.29313" lon="-8.794812">
        <ele>127.3</ele>
        <time>1970-01-01T00:38:00.000Z</time>
      </trkpt>
      <trkpt lat="42.293122" lon="-8.794803">
        <ele>127.3</ele>
        <time>1970-01-01T00:38:01.000Z</time>
      </trkpt>
      <trkpt lat="42.29311" lon="-8.794798">
        <ele>127.3</ele>
        <time>1970-01-01T00:38:02.000Z</time>
      </trkpt>
      <trkpt lat="42.293102" lon="-8.794793">
        <ele>127.3</ele>
        <time>1970-01-01T00:38:03.000Z</time>
      </trkpt>
      <trkpt lat="42.293093" lon="-8.79479">
        <ele>127.3</ele>
        <time>1970-01-01T00:38:04.000Z</time>
      </trkpt>
      <trkpt lat="42.293082" lon="-8.794788">
        <ele>127.3</ele>
        <time>1970-01-01T00:38:05.000Z</time>
      </trkpt>
      <trkpt lat="42.293078" lon="-8.794788">
        <ele>127.3</ele>
        <time>1970-01-01T00:38:06.000Z</time>
      </trkpt>
      <trkpt lat="42.293072" lon="-8.794788">
        <ele>127.3</ele>
        <time>1970-01-01T00:38:07.000Z</time>
      </trkpt>
      <trkpt lat="42.293062" lon="-8.794787">
        <ele>127.3</ele>
        <time>1970-01-01T00:38:08.000Z</time>
      </trkpt>
      <trkpt lat="42.293057" lon="-8.794778">
        <ele>128.3</ele>
        <time>1970-01-01T00:38:09.000Z</time>
      </trkpt>
      <trkpt lat="42.29305" lon="-8.794772">
        <ele>128.3</ele>
        <time>1970-01-01T00:38:10.000Z</time>
      </trkpt>
      <trkpt lat="42.293048" lon="-8.794765">
        <ele>128.3</ele>
        <time>1970-01-01T00:38:11.000Z</time>
      </trkpt>
      <trkpt lat="42.293043" lon="-8.794757">
        <ele>128.3</ele>
        <time>1970-01-01T00:38:12.000Z</time>
      </trkpt>
      <trkpt lat="42.293037" lon="-8.79475">
        <ele>129.2</ele>
        <time>1970-01-01T00:38:13.000Z</time>
      </trkpt>
      <trkpt lat="42.293023" lon="-8.79475">
        <ele>129.2</ele>
        <time>1970-01-01T00:38:14.000Z</time>
      </trkpt>
      <trkpt lat="42.293008" lon="-8.794747">
        <ele>129.2</ele>
        <time>1970-01-01T00:38:15.000Z</time>
      </trkpt>
      <trkpt lat="42.292995" lon="-8.79474">
        <ele>129.2</ele>
        <time>1970-01-01T00:38:16.000Z</time>
      </trkpt>
      <trkpt lat="42.292987" lon="-8.794735">
        <ele>129.2</ele>
        <time>1970-01-01T00:38:17.000Z</time>
      </trkpt>
      <trkpt lat="42.292977" lon="-8.794735">
        <ele>129.2</ele>
        <time>1970-01-01T00:38:18.000Z</time>
      </trkpt>
      <trkpt lat="42.29296" lon="-8.794743">
        <ele>129.2</ele>
        <time>1970-01-01T00:38:19.000Z</time>
      </trkpt>
      <trkpt lat="42.292952" lon="-8.794745">
        <ele>129.2</ele>
        <time>1970-01-01T00:38:20.000Z</time>
      </trkpt>
      <trkpt lat="42.292937" lon="-8.794742">
        <ele>130.3</ele>
        <time>1970-01-01T00:38:21.000Z</time>
      </trkpt>
      <trkpt lat="42.292933" lon="-8.794738">
        <ele>130.3</ele>
        <time>1970-01-01T00:38:22.000Z</time>
      </trkpt>
      <trkpt lat="42.292935" lon="-8.794728">
        <ele>130.3</ele>
        <time>1970-01-01T00:38:23.000Z</time>
      </trkpt>
      <trkpt lat="42.292927" lon="-8.794718">
        <ele>130.3</ele>
        <time>1970-01-01T00:38:24.000Z</time>
      </trkpt>
      <trkpt lat="42.292915" lon="-8.794712">
        <ele>130.3</ele>
        <time>1970-01-01T00:38:25.000Z</time>
      </trkpt>
      <trkpt lat="42.292902" lon="-8.794707">
        <ele>130.3</ele>
        <time>1970-01-01T00:38:26.000Z</time>
      </trkpt>
      <trkpt lat="42.292895" lon="-8.794698">
        <ele>130.3</ele>
        <time>1970-01-01T00:38:27.000Z</time>
      </trkpt>
      <trkpt lat="42.292892" lon="-8.794685">
        <ele>130.3</ele>
        <time>1970-01-01T00:38:28.000Z</time>
      </trkpt>
      <trkpt lat="42.292888" lon="-8.794672">
        <ele>130.3</ele>
        <time>1970-01-01T00:38:29.000Z</time>
      </trkpt>
      <trkpt lat="42.29289" lon="-8.794665">
        <ele>130.3</ele>
        <time>1970-01-01T00:38:30.000Z</time>
      </trkpt>
      <trkpt lat="42.292883" lon="-8.79466">
        <ele>130.3</ele>
        <time>1970-01-01T00:38:31.000Z</time>
      </trkpt>
      <trkpt lat="42.292872" lon="-8.794648">
        <ele>130.3</ele>
        <time>1970-01-01T00:38:32.000Z</time>
      </trkpt>
      <trkpt lat="42.29287" lon="-8.794643">
        <ele>130.3</ele>
        <time>1970-01-01T00:38:33.000Z</time>
      </trkpt>
      <trkpt lat="42.292867" lon="-8.794643">
        <ele>130.3</ele>
        <time>1970-01-01T00:38:34.000Z</time>
      </trkpt>
      <trkpt lat="42.29287" lon="-8.794638">
        <ele>130.3</ele>
        <time>1970-01-01T00:38:35.000Z</time>
      </trkpt>
      <trkpt lat="42.292865" lon="-8.794637">
        <ele>130.3</ele>
        <time>1970-01-01T00:38:36.000Z</time>
      </trkpt>
      <trkpt lat="42.292865" lon="-8.79463">
        <ele>130.3</ele>
        <time>1970-01-01T00:38:37.000Z</time>
      </trkpt>
      <trkpt lat="42.292865" lon="-8.794623">
        <ele>130.3</ele>
        <time>1970-01-01T00:38:38.000Z</time>
      </trkpt>
      <trkpt lat="42.292862" lon="-8.794612">
        <ele>130.3</ele>
        <time>1970-01-01T00:38:39.000Z</time>
      </trkpt>
      <trkpt lat="42.292862" lon="-8.794602">
        <ele>130.3</ele>
        <time>1970-01-01T00:38:40.000Z</time>
      </trkpt>
      <trkpt lat="42.292858" lon="-8.794592">
        <ele>130.3</ele>
        <time>1970-01-01T00:38:41.000Z</time>
      </trkpt>
      <trkpt lat="42.292858" lon="-8.794585">
        <ele>130.3</ele>
        <time>1970-01-01T00:38:42.000Z</time>
      </trkpt>
      <trkpt lat="42.292858" lon="-8.794568">
        <ele>131.2</ele>
        <time>1970-01-01T00:38:43.000Z</time>
      </trkpt>
      <trkpt lat="42.292863" lon="-8.79455">
        <ele>131.2</ele>
        <time>1970-01-01T00:38:44.000Z</time>
      </trkpt>
      <trkpt lat="42.292862" lon="-8.794547">
        <ele>131.2</ele>
        <time>1970-01-01T00:38:45.000Z</time>
      </trkpt>
      <trkpt lat="42.292843" lon="-8.794555">
        <ele>131.2</ele>
        <time>1970-01-01T00:38:46.000Z</time>
      </trkpt>
      <trkpt lat="42.292843" lon="-8.794552">
        <ele>131.2</ele>
        <time>1970-01-01T00:38:47.000Z</time>
      </trkpt>
      <trkpt lat="42.292828" lon="-8.794555">
        <ele>131.2</ele>
        <time>1970-01-01T00:38:48.000Z</time>
      </trkpt>
      <trkpt lat="42.29282" lon="-8.794552">
        <ele>132.3</ele>
        <time>1970-01-01T00:38:49.000Z</time>
      </trkpt>
      <trkpt lat="42.292808" lon="-8.794538">
        <ele>132.3</ele>
        <time>1970-01-01T00:38:50.000Z</time>
      </trkpt>
      <trkpt lat="42.292805" lon="-8.794518">
        <ele>132.3</ele>
        <time>1970-01-01T00:38:51.000Z</time>
      </trkpt>
      <trkpt lat="42.292805" lon="-8.794503">
        <ele>132.3</ele>
        <time>1970-01-01T00:38:52.000Z</time>
      </trkpt>
      <trkpt lat="42.292803" lon="-8.794493">
        <ele>133.2</ele>
        <time>1970-01-01T00:38:53.000Z</time>
      </trkpt>
      <trkpt lat="42.292795" lon="-8.794485">
        <ele>133.2</ele>
        <time>1970-01-01T00:38:54.000Z</time>
      </trkpt>
      <trkpt lat="42.292787" lon="-8.79447">
        <ele>133.2</ele>
        <time>1970-01-01T00:38:55.000Z</time>
      </trkpt>
      <trkpt lat="42.292777" lon="-8.794462">
        <ele>133.2</ele>
        <time>1970-01-01T00:38:56.000Z</time>
      </trkpt>
      <trkpt lat="42.292775" lon="-8.794447">
        <ele>133.2</ele>
        <time>1970-01-01T00:38:57.000Z</time>
      </trkpt>
      <trkpt lat="42.292772" lon="-8.79443">
        <ele>133.2</ele>
        <time>1970-01-01T00:38:58.000Z</time>
      </trkpt>
      <trkpt lat="42.292768" lon="-8.794425">
        <ele>133.2</ele>
        <time>1970-01-01T00:38:59.000Z</time>
      </trkpt>
      <trkpt lat="42.292765" lon="-8.794412">
        <ele>133.2</ele>
        <time>1970-01-01T00:39:00.000Z</time>
      </trkpt>
      <trkpt lat="42.292762" lon="-8.794398">
        <ele>134.3</ele>
        <time>1970-01-01T00:39:01.000Z</time>
      </trkpt>
      <trkpt lat="42.292757" lon="-8.794392">
        <ele>134.3</ele>
        <time>1970-01-01T00:39:02.000Z</time>
      </trkpt>
      <trkpt lat="42.292758" lon="-8.794382">
        <ele>134.3</ele>
        <time>1970-01-01T00:39:03.000Z</time>
      </trkpt>
      <trkpt lat="42.29276" lon="-8.794372">
        <ele>134.3</ele>
        <time>1970-01-01T00:39:04.000Z</time>
      </trkpt>
      <trkpt lat="42.292752" lon="-8.794362">
        <ele>134.3</ele>
        <time>1970-01-01T00:39:05.000Z</time>
      </trkpt>
      <trkpt lat="42.292743" lon="-8.794348">
        <ele>134.3</ele>
        <time>1970-01-01T00:39:06.000Z</time>
      </trkpt>
      <trkpt lat="42.292732" lon="-8.794345">
        <ele>135.3</ele>
        <time>1970-01-01T00:39:07.000Z</time>
      </trkpt>
      <trkpt lat="42.292725" lon="-8.79434">
        <ele>135.3</ele>
        <time>1970-01-01T00:39:08.000Z</time>
      </trkpt>
      <trkpt lat="42.29272" lon="-8.794337">
        <ele>135.3</ele>
        <time>1970-01-01T00:39:09.000Z</time>
      </trkpt>
      <trkpt lat="42.292715" lon="-8.79433">
        <ele>135.3</ele>
        <time>1970-01-01T00:39:10.000Z</time>
      </trkpt>
      <trkpt lat="42.292705" lon="-8.794318">
        <ele>135.3</ele>
        <time>1970-01-01T00:39:11.000Z</time>
      </trkpt>
      <trkpt lat="42.292702" lon="-8.794302">
        <ele>135.3</ele>
        <time>1970-01-01T00:39:12.000Z</time>
      </trkpt>
      <trkpt lat="42.292698" lon="-8.794293">
        <ele>135.3</ele>
        <time>1970-01-01T00:39:13.000Z</time>
      </trkpt>
      <trkpt lat="42.292692" lon="-8.79428">
        <ele>135.3</ele>
        <time>1970-01-01T00:39:14.000Z</time>
      </trkpt>
      <trkpt lat="42.292687" lon="-8.794275">
        <ele>135.3</ele>
        <time>1970-01-01T00:39:15.000Z</time>
      </trkpt>
      <trkpt lat="42.292683" lon="-8.794268">
        <ele>135.3</ele>
        <time>1970-01-01T00:39:16.000Z</time>
      </trkpt>
      <trkpt lat="42.292682" lon="-8.794263">
        <ele>136.2</ele>
        <time>1970-01-01T00:39:17.000Z</time>
      </trkpt>
      <trkpt lat="42.292678" lon="-8.79426">
        <ele>136.2</ele>
        <time>1970-01-01T00:39:18.000Z</time>
      </trkpt>
      <trkpt lat="42.292675" lon="-8.794257">
        <ele>136.2</ele>
        <time>1970-01-01T00:39:19.000Z</time>
      </trkpt>
      <trkpt lat="42.292672" lon="-8.794253">
        <ele>136.2</ele>
        <time>1970-01-01T00:39:20.000Z</time>
      </trkpt>
      <trkpt lat="42.29267" lon="-8.79425">
        <ele>136.2</ele>
        <time>1970-01-01T00:39:21.000Z</time>
      </trkpt>
      <trkpt lat="42.292663" lon="-8.794242">
        <ele>136.2</ele>
        <time>1970-01-01T00:39:22.000Z</time>
      </trkpt>
      <trkpt lat="42.29266" lon="-8.794237">
        <ele>136.2</ele>
        <time>1970-01-01T00:39:23.000Z</time>
      </trkpt>
      <trkpt lat="42.292657" lon="-8.794237">
        <ele>136.2</ele>
        <time>1970-01-01T00:39:24.000Z</time>
      </trkpt>
      <trkpt lat="42.292655" lon="-8.794235">
        <ele>136.2</ele>
        <time>1970-01-01T00:39:25.000Z</time>
      </trkpt>
      <trkpt lat="42.292652" lon="-8.794233">
        <ele>136.2</ele>
        <time>1970-01-01T00:39:26.000Z</time>
      </trkpt>
      <trkpt lat="42.292648" lon="-8.794235">
        <ele>137.3</ele>
        <time>1970-01-01T00:39:27.000Z</time>
      </trkpt>
      <trkpt lat="42.292647" lon="-8.794237">
        <ele>137.3</ele>
        <time>1970-01-01T00:39:28.000Z</time>
      </trkpt>
      <trkpt lat="42.292645" lon="-8.79424">
        <ele>137.3</ele>
        <time>1970-01-01T00:39:29.000Z</time>
      </trkpt>
      <trkpt lat="42.292643" lon="-8.794242">
        <ele>137.3</ele>
        <time>1970-01-01T00:39:30.000Z</time>
      </trkpt>
      <trkpt lat="42.29264" lon="-8.794243">
        <ele>137.3</ele>
        <time>1970-01-01T00:39:31.000Z</time>
      </trkpt>
      <trkpt lat="42.292637" lon="-8.794242">
        <ele>137.3</ele>
        <time>1970-01-01T00:39:32.000Z</time>
      </trkpt>
      <trkpt lat="42.292632" lon="-8.794242">
        <ele>137.3</ele>
        <time>1970-01-01T00:39:33.000Z</time>
      </trkpt>
      <trkpt lat="42.292623" lon="-8.794235">
        <ele>137.3</ele>
        <time>1970-01-01T00:39:34.000Z</time>
      </trkpt>
      <trkpt lat="42.29262" lon="-8.794232">
        <ele>137.3</ele>
        <time>1970-01-01T00:39:35.000Z</time>
      </trkpt>
      <trkpt lat="42.292617" lon="-8.794228">
        <ele>137.3</ele>
        <time>1970-01-01T00:39:36.000Z</time>
      </trkpt>
      <trkpt lat="42.292615" lon="-8.794225">
        <ele>137.3</ele>
        <time>1970-01-01T00:39:37.000Z</time>
      </trkpt>
      <trkpt lat="42.292608" lon="-8.794222">
        <ele>137.3</ele>
        <time>1970-01-01T00:39:38.000Z</time>
      </trkpt>
      <trkpt lat="42.292603" lon="-8.794217">
        <ele>137.3</ele>
        <time>1970-01-01T00:39:39.000Z</time>
      </trkpt>
      <trkpt lat="42.2926" lon="-8.79421">
        <ele>137.3</ele>
        <time>1970-01-01T00:39:40.000Z</time>
      </trkpt>
      <trkpt lat="42.292598" lon="-8.7942">
        <ele>137.3</ele>
        <time>1970-01-01T00:39:41.000Z</time>
      </trkpt>
      <trkpt lat="42.292595" lon="-8.794192">
        <ele>137.3</ele>
        <time>1970-01-01T00:39:42.000Z</time>
      </trkpt>
      <trkpt lat="42.292592" lon="-8.794183">
        <ele>138.2</ele>
        <time>1970-01-01T00:39:43.000Z</time>
      </trkpt>
      <trkpt lat="42.292587" lon="-8.794178">
        <ele>138.2</ele>
        <time>1970-01-01T00:39:44.000Z</time>
      </trkpt>
      <trkpt lat="42.292583" lon="-8.794172">
        <ele>138.2</ele>
        <time>1970-01-01T00:39:45.000Z</time>
      </trkpt>
      <trkpt lat="42.292585" lon="-8.794165">
        <ele>138.2</ele>
        <time>1970-01-01T00:39:46.000Z</time>
      </trkpt>
      <trkpt lat="42.292583" lon="-8.79416">
        <ele>138.2</ele>
        <time>1970-01-01T00:39:47.000Z</time>
      </trkpt>
      <trkpt lat="42.292587" lon="-8.794155">
        <ele>138.2</ele>
        <time>1970-01-01T00:39:48.000Z</time>
      </trkpt>
      <trkpt lat="42.292585" lon="-8.794148">
        <ele>138.2</ele>
        <time>1970-01-01T00:39:49.000Z</time>
      </trkpt>
      <trkpt lat="42.29258" lon="-8.79414">
        <ele>138.2</ele>
        <time>1970-01-01T00:39:50.000Z</time>
      </trkpt>
      <trkpt lat="42.292578" lon="-8.794128">
        <ele>139.3</ele>
        <time>1970-01-01T00:39:51.000Z</time>
      </trkpt>
      <trkpt lat="42.292577" lon="-8.794125">
        <ele>139.3</ele>
        <time>1970-01-01T00:39:52.000Z</time>
      </trkpt>
      <trkpt lat="42.292577" lon="-8.79412">
        <ele>139.3</ele>
        <time>1970-01-01T00:39:53.000Z</time>
      </trkpt>
      <trkpt lat="42.29258" lon="-8.794113">
        <ele>139.3</ele>
        <time>1970-01-01T00:39:54.000Z</time>
      </trkpt>
      <trkpt lat="42.292585" lon="-8.794107">
        <ele>140.2</ele>
        <time>1970-01-01T00:39:55.000Z</time>
      </trkpt>
      <trkpt lat="42.292588" lon="-8.794102">
        <ele>140.2</ele>
        <time>1970-01-01T00:39:56.000Z</time>
      </trkpt>
      <trkpt lat="42.292593" lon="-8.794095">
        <ele>140.2</ele>
        <time>1970-01-01T00:39:57.000Z</time>
      </trkpt>
      <trkpt lat="42.292598" lon="-8.794092">
        <ele>140.2</ele>
        <time>1970-01-01T00:39:58.000Z</time>
      </trkpt>
      <trkpt lat="42.292605" lon="-8.794082">
        <ele>141.3</ele>
        <time>1970-01-01T00:39:59.000Z</time>
      </trkpt>
      <trkpt lat="42.292605" lon="-8.794075">
        <ele>141.3</ele>
        <time>1970-01-01T00:40:00.000Z</time>
      </trkpt>
      <trkpt lat="42.29261" lon="-8.79407">
        <ele>141.3</ele>
        <time>1970-01-01T00:40:01.000Z</time>
      </trkpt>
      <trkpt lat="42.292617" lon="-8.794062">
        <ele>141.3</ele>
        <time>1970-01-01T00:40:02.000Z</time>
      </trkpt>
      <trkpt lat="42.29262" lon="-8.794057">
        <ele>141.3</ele>
        <time>1970-01-01T00:40:03.000Z</time>
      </trkpt>
      <trkpt lat="42.292625" lon="-8.794052">
        <ele>141.3</ele>
        <time>1970-01-01T00:40:04.000Z</time>
      </trkpt>
      <trkpt lat="42.29263" lon="-8.794047">
        <ele>141.3</ele>
        <time>1970-01-01T00:40:05.000Z</time>
      </trkpt>
      <trkpt lat="42.29263" lon="-8.794042">
        <ele>141.3</ele>
        <time>1970-01-01T00:40:06.000Z</time>
      </trkpt>
      <trkpt lat="42.292628" lon="-8.794035">
        <ele>142.2</ele>
        <time>1970-01-01T00:40:07.000Z</time>
      </trkpt>
      <trkpt lat="42.292633" lon="-8.794025">
        <ele>142.2</ele>
        <time>1970-01-01T00:40:08.000Z</time>
      </trkpt>
      <trkpt lat="42.292637" lon="-8.794017">
        <ele>142.2</ele>
        <time>1970-01-01T00:40:09.000Z</time>
      </trkpt>
      <trkpt lat="42.292638" lon="-8.794013">
        <ele>142.2</ele>
        <time>1970-01-01T00:40:10.000Z</time>
      </trkpt>
      <trkpt lat="42.292635" lon="-8.794">
        <ele>143.3</ele>
        <time>1970-01-01T00:40:11.000Z</time>
      </trkpt>
      <trkpt lat="42.292633" lon="-8.793998">
        <ele>143.3</ele>
        <time>1970-01-01T00:40:12.000Z</time>
      </trkpt>
      <trkpt lat="42.292623" lon="-8.793987">
        <ele>143.3</ele>
        <time>1970-01-01T00:40:13.000Z</time>
      </trkpt>
      <trkpt lat="42.292613" lon="-8.793983">
        <ele>143.3</ele>
        <time>1970-01-01T00:40:14.000Z</time>
      </trkpt>
      <trkpt lat="42.292602" lon="-8.793973">
        <ele>144.3</ele>
        <time>1970-01-01T00:40:15.000Z</time>
      </trkpt>
      <trkpt lat="42.292592" lon="-8.793963">
        <ele>144.3</ele>
        <time>1970-01-01T00:40:16.000Z</time>
      </trkpt>
      <trkpt lat="42.292575" lon="-8.793945">
        <ele>144.3</ele>
        <time>1970-01-01T00:40:17.000Z</time>
      </trkpt>
      <trkpt lat="42.292558" lon="-8.793937">
        <ele>144.3</ele>
        <time>1970-01-01T00:40:18.000Z</time>
      </trkpt>
      <trkpt lat="42.292533" lon="-8.79392">
        <ele>144.3</ele>
        <time>1970-01-01T00:40:19.000Z</time>
      </trkpt>
      <trkpt lat="42.292523" lon="-8.793913">
        <ele>144.3</ele>
        <time>1970-01-01T00:40:20.000Z</time>
      </trkpt>
      <trkpt lat="42.292512" lon="-8.793915">
        <ele>144.3</ele>
        <time>1970-01-01T00:40:21.000Z</time>
      </trkpt>
      <trkpt lat="42.292502" lon="-8.793917">
        <ele>145.2</ele>
        <time>1970-01-01T00:40:22.000Z</time>
      </trkpt>
      <trkpt lat="42.292497" lon="-8.793922">
        <ele>145.2</ele>
        <time>1970-01-01T00:40:23.000Z</time>
      </trkpt>
      <trkpt lat="42.292485" lon="-8.793922">
        <ele>145.2</ele>
        <time>1970-01-01T00:40:24.000Z</time>
      </trkpt>
      <trkpt lat="42.292472" lon="-8.793917">
        <ele>145.2</ele>
        <time>1970-01-01T00:40:25.000Z</time>
      </trkpt>
      <trkpt lat="42.29246" lon="-8.793917">
        <ele>146.3</ele>
        <time>1970-01-01T00:40:26.000Z</time>
      </trkpt>
      <trkpt lat="42.29245" lon="-8.793912">
        <ele>146.3</ele>
        <time>1970-01-01T00:40:27.000Z</time>
      </trkpt>
      <trkpt lat="42.292442" lon="-8.793905">
        <ele>147.2</ele>
        <time>1970-01-01T00:40:28.000Z</time>
      </trkpt>
      <trkpt lat="42.292437" lon="-8.793898">
        <ele>147.2</ele>
        <time>1970-01-01T00:40:29.000Z</time>
      </trkpt>
      <trkpt lat="42.292432" lon="-8.793898">
        <ele>147.2</ele>
        <time>1970-01-01T00:40:30.000Z</time>
      </trkpt>
      <trkpt lat="42.292432" lon="-8.793888">
        <ele>147.2</ele>
        <time>1970-01-01T00:40:31.000Z</time>
      </trkpt>
      <trkpt lat="42.29243" lon="-8.793887">
        <ele>147.2</ele>
        <time>1970-01-01T00:40:32.000Z</time>
      </trkpt>
      <trkpt lat="42.292425" lon="-8.793887">
        <ele>147.2</ele>
        <time>1970-01-01T00:40:33.000Z</time>
      </trkpt>
      <trkpt lat="42.292412" lon="-8.793892">
        <ele>148.3</ele>
        <time>1970-01-01T00:40:34.000Z</time>
      </trkpt>
      <trkpt lat="42.29241" lon="-8.793882">
        <ele>148.3</ele>
        <time>1970-01-01T00:40:35.000Z</time>
      </trkpt>
      <trkpt lat="42.292407" lon="-8.79388">
        <ele>148.3</ele>
        <time>1970-01-01T00:40:36.000Z</time>
      </trkpt>
      <trkpt lat="42.292403" lon="-8.79388">
        <ele>148.3</ele>
        <time>1970-01-01T00:40:37.000Z</time>
      </trkpt>
      <trkpt lat="42.2924" lon="-8.793863">
        <ele>148.3</ele>
        <time>1970-01-01T00:40:38.000Z</time>
      </trkpt>
      <trkpt lat="42.292385" lon="-8.793845">
        <ele>148.3</ele>
        <time>1970-01-01T00:40:39.000Z</time>
      </trkpt>
      <trkpt lat="42.292375" lon="-8.793838">
        <ele>149.2</ele>
        <time>1970-01-01T00:40:40.000Z</time>
      </trkpt>
      <trkpt lat="42.292365" lon="-8.79383">
        <ele>149.2</ele>
        <time>1970-01-01T00:40:41.000Z</time>
      </trkpt>
      <trkpt lat="42.29236" lon="-8.793825">
        <ele>149.2</ele>
        <time>1970-01-01T00:40:42.000Z</time>
      </trkpt>
      <trkpt lat="42.292357" lon="-8.793823">
        <ele>149.2</ele>
        <time>1970-01-01T00:40:43.000Z</time>
      </trkpt>
      <trkpt lat="42.292363" lon="-8.793822">
        <ele>150.3</ele>
        <time>1970-01-01T00:40:44.000Z</time>
      </trkpt>
      <trkpt lat="42.292363" lon="-8.793822">
        <ele>150.3</ele>
        <time>1970-01-01T00:40:45.000Z</time>
      </trkpt>
      <trkpt lat="42.292363" lon="-8.79382">
        <ele>150.3</ele>
        <time>1970-01-01T00:40:46.000Z</time>
      </trkpt>
      <trkpt lat="42.292363" lon="-8.793815">
        <ele>150.3</ele>
        <time>1970-01-01T00:40:47.000Z</time>
      </trkpt>
      <trkpt lat="42.292362" lon="-8.79381">
        <ele>151.3</ele>
        <time>1970-01-01T00:40:48.000Z</time>
      </trkpt>
      <trkpt lat="42.292363" lon="-8.793795">
        <ele>151.3</ele>
        <time>1970-01-01T00:40:49.000Z</time>
      </trkpt>
      <trkpt lat="42.29236" lon="-8.793782">
        <ele>151.3</ele>
        <time>1970-01-01T00:40:50.000Z</time>
      </trkpt>
      <trkpt lat="42.292358" lon="-8.793772">
        <ele>151.3</ele>
        <time>1970-01-01T00:40:51.000Z</time>
      </trkpt>
      <trkpt lat="42.29235" lon="-8.793762">
        <ele>152.2</ele>
        <time>1970-01-01T00:40:52.000Z</time>
      </trkpt>
      <trkpt lat="42.292335" lon="-8.793763">
        <ele>152.2</ele>
        <time>1970-01-01T00:40:53.000Z</time>
      </trkpt>
      <trkpt lat="42.292323" lon="-8.793765">
        <ele>152.2</ele>
        <time>1970-01-01T00:40:54.000Z</time>
      </trkpt>
      <trkpt lat="42.292312" lon="-8.793767">
        <ele>152.2</ele>
        <time>1970-01-01T00:40:55.000Z</time>
      </trkpt>
      <trkpt lat="42.292307" lon="-8.793768">
        <ele>153.3</ele>
        <time>1970-01-01T00:40:56.000Z</time>
      </trkpt>
      <trkpt lat="42.292305" lon="-8.793768">
        <ele>153.3</ele>
        <time>1970-01-01T00:40:57.000Z</time>
      </trkpt>
      <trkpt lat="42.292302" lon="-8.793768">
        <ele>153.3</ele>
        <time>1970-01-01T00:40:58.000Z</time>
      </trkpt>
      <trkpt lat="42.292302" lon="-8.79377">
        <ele>153.3</ele>
        <time>1970-01-01T00:40:59.000Z</time>
      </trkpt>
      <trkpt lat="42.292302" lon="-8.793767">
        <ele>153.3</ele>
        <time>1970-01-01T00:41:00.000Z</time>
      </trkpt>
      <trkpt lat="42.292315" lon="-8.793768">
        <ele>153.3</ele>
        <time>1970-01-01T00:41:01.000Z</time>
      </trkpt>
      <trkpt lat="42.292327" lon="-8.793777">
        <ele>153.3</ele>
        <time>1970-01-01T00:41:02.000Z</time>
      </trkpt>
      <trkpt lat="42.292328" lon="-8.793772">
        <ele>153.3</ele>
        <time>1970-01-01T00:41:03.000Z</time>
      </trkpt>
      <trkpt lat="42.292332" lon="-8.793785">
        <ele>153.3</ele>
        <time>1970-01-01T00:41:04.000Z</time>
      </trkpt>
      <trkpt lat="42.29233" lon="-8.79379">
        <ele>153.3</ele>
        <time>1970-01-01T00:41:05.000Z</time>
      </trkpt>
      <trkpt lat="42.29233" lon="-8.793795">
        <ele>154.2</ele>
        <time>1970-01-01T00:41:06.000Z</time>
      </trkpt>
      <trkpt lat="42.292335" lon="-8.793792">
        <ele>154.2</ele>
        <time>1970-01-01T00:41:07.000Z</time>
      </trkpt>
      <trkpt lat="42.29234" lon="-8.793788">
        <ele>154.2</ele>
        <time>1970-01-01T00:41:08.000Z</time>
      </trkpt>
      <trkpt lat="42.292338" lon="-8.793773">
        <ele>154.2</ele>
        <time>1970-01-01T00:41:09.000Z</time>
      </trkpt>
      <trkpt lat="42.292338" lon="-8.793767">
        <ele>154.2</ele>
        <time>1970-01-01T00:41:10.000Z</time>
      </trkpt>
      <trkpt lat="42.292333" lon="-8.793757">
        <ele>154.2</ele>
        <time>1970-01-01T00:41:11.000Z</time>
      </trkpt>
      <trkpt lat="42.29233" lon="-8.793753">
        <ele>155.3</ele>
        <time>1970-01-01T00:41:12.000Z</time>
      </trkpt>
      <trkpt lat="42.29233" lon="-8.793735">
        <ele>155.3</ele>
        <time>1970-01-01T00:41:13.000Z</time>
      </trkpt>
      <trkpt lat="42.292332" lon="-8.793718">
        <ele>155.3</ele>
        <time>1970-01-01T00:41:14.000Z</time>
      </trkpt>
      <trkpt lat="42.292333" lon="-8.79371">
        <ele>155.3</ele>
        <time>1970-01-01T00:41:15.000Z</time>
      </trkpt>
      <trkpt lat="42.292333" lon="-8.79371">
        <ele>156.2</ele>
        <time>1970-01-01T00:41:16.000Z</time>
      </trkpt>
      <trkpt lat="42.292338" lon="-8.793722">
        <ele>156.2</ele>
        <time>1970-01-01T00:41:17.000Z</time>
      </trkpt>
      <trkpt lat="42.292352" lon="-8.793723">
        <ele>156.2</ele>
        <time>1970-01-01T00:41:18.000Z</time>
      </trkpt>
      <trkpt lat="42.292358" lon="-8.793733">
        <ele>156.2</ele>
        <time>1970-01-01T00:41:19.000Z</time>
      </trkpt>
      <trkpt lat="42.292365" lon="-8.79374">
        <ele>156.2</ele>
        <time>1970-01-01T00:41:20.000Z</time>
      </trkpt>
      <trkpt lat="42.292372" lon="-8.793747">
        <ele>156.2</ele>
        <time>1970-01-01T00:41:21.000Z</time>
      </trkpt>
      <trkpt lat="42.29238" lon="-8.793747">
        <ele>156.2</ele>
        <time>1970-01-01T00:41:22.000Z</time>
      </trkpt>
      <trkpt lat="42.292385" lon="-8.793747">
        <ele>156.2</ele>
        <time>1970-01-01T00:41:23.000Z</time>
      </trkpt>
      <trkpt lat="42.292388" lon="-8.793745">
        <ele>156.2</ele>
        <time>1970-01-01T00:41:24.000Z</time>
      </trkpt>
      <trkpt lat="42.292392" lon="-8.793743">
        <ele>156.2</ele>
        <time>1970-01-01T00:41:25.000Z</time>
      </trkpt>
      <trkpt lat="42.292395" lon="-8.793742">
        <ele>156.2</ele>
        <time>1970-01-01T00:41:26.000Z</time>
      </trkpt>
      <trkpt lat="42.292398" lon="-8.79375">
        <ele>156.2</ele>
        <time>1970-01-01T00:41:27.000Z</time>
      </trkpt>
      <trkpt lat="42.292405" lon="-8.79374">
        <ele>156.2</ele>
        <time>1970-01-01T00:41:28.000Z</time>
      </trkpt>
      <trkpt lat="42.29242" lon="-8.793733">
        <ele>156.2</ele>
        <time>1970-01-01T00:41:29.000Z</time>
      </trkpt>
      <trkpt lat="42.292435" lon="-8.793723">
        <ele>155.3</ele>
        <time>1970-01-01T00:41:30.000Z</time>
      </trkpt>
      <trkpt lat="42.292447" lon="-8.793713">
        <ele>155.3</ele>
        <time>1970-01-01T00:41:31.000Z</time>
      </trkpt>
      <trkpt lat="42.292452" lon="-8.793702">
        <ele>155.3</ele>
        <time>1970-01-01T00:41:32.000Z</time>
      </trkpt>
      <trkpt lat="42.292472" lon="-8.79368">
        <ele>155.3</ele>
        <time>1970-01-01T00:41:33.000Z</time>
      </trkpt>
      <trkpt lat="42.292483" lon="-8.793673">
        <ele>155.3</ele>
        <time>1970-01-01T00:41:34.000Z</time>
      </trkpt>
      <trkpt lat="42.292487" lon="-8.793673">
        <ele>155.3</ele>
        <time>1970-01-01T00:41:35.000Z</time>
      </trkpt>
      <trkpt lat="42.292488" lon="-8.793667">
        <ele>156.2</ele>
        <time>1970-01-01T00:41:36.000Z</time>
      </trkpt>
      <trkpt lat="42.292497" lon="-8.793653">
        <ele>156.2</ele>
        <time>1970-01-01T00:41:37.000Z</time>
      </trkpt>
      <trkpt lat="42.292508" lon="-8.793637">
        <ele>156.2</ele>
        <time>1970-01-01T00:41:38.000Z</time>
      </trkpt>
      <trkpt lat="42.292517" lon="-8.793623">
        <ele>156.2</ele>
        <time>1970-01-01T00:41:39.000Z</time>
      </trkpt>
      <trkpt lat="42.292518" lon="-8.793608">
        <ele>156.2</ele>
        <time>1970-01-01T00:41:40.000Z</time>
      </trkpt>
      <trkpt lat="42.292523" lon="-8.793602">
        <ele>156.2</ele>
        <time>1970-01-01T00:41:41.000Z</time>
      </trkpt>
      <trkpt lat="42.29253" lon="-8.793592">
        <ele>156.2</ele>
        <time>1970-01-01T00:41:42.000Z</time>
      </trkpt>
      <trkpt lat="42.292538" lon="-8.793578">
        <ele>156.2</ele>
        <time>1970-01-01T00:41:43.000Z</time>
      </trkpt>
      <trkpt lat="42.292537" lon="-8.79356">
        <ele>156.2</ele>
        <time>1970-01-01T00:41:44.000Z</time>
      </trkpt>
      <trkpt lat="42.292532" lon="-8.79354">
        <ele>156.2</ele>
        <time>1970-01-01T00:41:45.000Z</time>
      </trkpt>
      <trkpt lat="42.292527" lon="-8.793528">
        <ele>158.2</ele>
        <time>1970-01-01T00:41:46.000Z</time>
      </trkpt>
      <trkpt lat="42.292538" lon="-8.793503">
        <ele>158.2</ele>
        <time>1970-01-01T00:41:47.000Z</time>
      </trkpt>
      <trkpt lat="42.292548" lon="-8.793483">
        <ele>158.2</ele>
        <time>1970-01-01T00:41:48.000Z</time>
      </trkpt>
      <trkpt lat="42.292547" lon="-8.793478">
        <ele>158.2</ele>
        <time>1970-01-01T00:41:49.000Z</time>
      </trkpt>
      <trkpt lat="42.292553" lon="-8.793468">
        <ele>159.3</ele>
        <time>1970-01-01T00:41:50.000Z</time>
      </trkpt>
      <trkpt lat="42.292553" lon="-8.793462">
        <ele>159.3</ele>
        <time>1970-01-01T00:41:51.000Z</time>
      </trkpt>
      <trkpt lat="42.29255" lon="-8.79344">
        <ele>160.3</ele>
        <time>1970-01-01T00:41:52.000Z</time>
      </trkpt>
      <trkpt lat="42.292545" lon="-8.793427">
        <ele>160.3</ele>
        <time>1970-01-01T00:41:53.000Z</time>
      </trkpt>
      <trkpt lat="42.292548" lon="-8.79342">
        <ele>160.3</ele>
        <time>1970-01-01T00:41:54.000Z</time>
      </trkpt>
      <trkpt lat="42.292558" lon="-8.793413">
        <ele>160.3</ele>
        <time>1970-01-01T00:41:55.000Z</time>
      </trkpt>
      <trkpt lat="42.292562" lon="-8.79341">
        <ele>160.3</ele>
        <time>1970-01-01T00:41:56.000Z</time>
      </trkpt>
      <trkpt lat="42.292565" lon="-8.793398">
        <ele>160.3</ele>
        <time>1970-01-01T00:41:57.000Z</time>
      </trkpt>
      <trkpt lat="42.292565" lon="-8.793395">
        <ele>160.3</ele>
        <time>1970-01-01T00:41:58.000Z</time>
      </trkpt>
      <trkpt lat="42.292575" lon="-8.793392">
        <ele>160.3</ele>
        <time>1970-01-01T00:41:59.000Z</time>
      </trkpt>
      <trkpt lat="42.292578" lon="-8.793393">
        <ele>161.2</ele>
        <time>1970-01-01T00:42:00.000Z</time>
      </trkpt>
      <trkpt lat="42.292583" lon="-8.793385">
        <ele>161.2</ele>
        <time>1970-01-01T00:42:01.000Z</time>
      </trkpt>
      <trkpt lat="42.292582" lon="-8.79338">
        <ele>162.3</ele>
        <time>1970-01-01T00:42:02.000Z</time>
      </trkpt>
      <trkpt lat="42.292578" lon="-8.793373">
        <ele>162.3</ele>
        <time>1970-01-01T00:42:03.000Z</time>
      </trkpt>
      <trkpt lat="42.292578" lon="-8.79337">
        <ele>162.3</ele>
        <time>1970-01-01T00:42:04.000Z</time>
      </trkpt>
      <trkpt lat="42.292583" lon="-8.793367">
        <ele>162.3</ele>
        <time>1970-01-01T00:42:05.000Z</time>
      </trkpt>
      <trkpt lat="42.292592" lon="-8.793362">
        <ele>162.3</ele>
        <time>1970-01-01T00:42:06.000Z</time>
      </trkpt>
      <trkpt lat="42.2926" lon="-8.793353">
        <ele>162.3</ele>
        <time>1970-01-01T00:42:07.000Z</time>
      </trkpt>
      <trkpt lat="42.29261" lon="-8.793348">
        <ele>163.2</ele>
        <time>1970-01-01T00:42:08.000Z</time>
      </trkpt>
      <trkpt lat="42.292613" lon="-8.793345">
        <ele>163.2</ele>
        <time>1970-01-01T00:42:09.000Z</time>
      </trkpt>
      <trkpt lat="42.292613" lon="-8.793337">
        <ele>163.2</ele>
        <time>1970-01-01T00:42:10.000Z</time>
      </trkpt>
      <trkpt lat="42.292615" lon="-8.79333">
        <ele>163.2</ele>
        <time>1970-01-01T00:42:11.000Z</time>
      </trkpt>
      <trkpt lat="42.292625" lon="-8.793322">
        <ele>163.2</ele>
        <time>1970-01-01T00:42:12.000Z</time>
      </trkpt>
      <trkpt lat="42.292625" lon="-8.793315">
        <ele>163.2</ele>
        <time>1970-01-01T00:42:13.000Z</time>
      </trkpt>
      <trkpt lat="42.292632" lon="-8.793308">
        <ele>163.2</ele>
        <time>1970-01-01T00:42:14.000Z</time>
      </trkpt>
      <trkpt lat="42.292643" lon="-8.793302">
        <ele>163.2</ele>
        <time>1970-01-01T00:42:15.000Z</time>
      </trkpt>
      <trkpt lat="42.292647" lon="-8.793295">
        <ele>164.3</ele>
        <time>1970-01-01T00:42:16.000Z</time>
      </trkpt>
      <trkpt lat="42.292655" lon="-8.793293">
        <ele>164.3</ele>
        <time>1970-01-01T00:42:17.000Z</time>
      </trkpt>
      <trkpt lat="42.292662" lon="-8.793293">
        <ele>164.3</ele>
        <time>1970-01-01T00:42:18.000Z</time>
      </trkpt>
      <trkpt lat="42.292663" lon="-8.793288">
        <ele>164.3</ele>
        <time>1970-01-01T00:42:19.000Z</time>
      </trkpt>
      <trkpt lat="42.292663" lon="-8.793287">
        <ele>164.3</ele>
        <time>1970-01-01T00:42:20.000Z</time>
      </trkpt>
      <trkpt lat="42.292665" lon="-8.793282">
        <ele>164.3</ele>
        <time>1970-01-01T00:42:21.000Z</time>
      </trkpt>
      <trkpt lat="42.292665" lon="-8.793273">
        <ele>164.3</ele>
        <time>1970-01-01T00:42:22.000Z</time>
      </trkpt>
      <trkpt lat="42.292663" lon="-8.793265">
        <ele>164.3</ele>
        <time>1970-01-01T00:42:23.000Z</time>
      </trkpt>
      <trkpt lat="42.292663" lon="-8.793263">
        <ele>164.3</ele>
        <time>1970-01-01T00:42:24.000Z</time>
      </trkpt>
      <trkpt lat="42.29265" lon="-8.793245">
        <ele>164.3</ele>
        <time>1970-01-01T00:42:25.000Z</time>
      </trkpt>
      <trkpt lat="42.292647" lon="-8.793243">
        <ele>165.2</ele>
        <time>1970-01-01T00:42:26.000Z</time>
      </trkpt>
      <trkpt lat="42.292643" lon="-8.793245">
        <ele>165.2</ele>
        <time>1970-01-01T00:42:27.000Z</time>
      </trkpt>
      <trkpt lat="42.292635" lon="-8.793247">
        <ele>165.2</ele>
        <time>1970-01-01T00:42:28.000Z</time>
      </trkpt>
      <trkpt lat="42.292627" lon="-8.793248">
        <ele>165.2</ele>
        <time>1970-01-01T00:42:29.000Z</time>
      </trkpt>
      <trkpt lat="42.292605" lon="-8.793247">
        <ele>165.2</ele>
        <time>1970-01-01T00:42:30.000Z</time>
      </trkpt>
      <trkpt lat="42.292588" lon="-8.793238">
        <ele>165.2</ele>
        <time>1970-01-01T00:42:31.000Z</time>
      </trkpt>
      <trkpt lat="42.292573" lon="-8.793238">
        <ele>166.3</ele>
        <time>1970-01-01T00:42:32.000Z</time>
      </trkpt>
      <trkpt lat="42.292562" lon="-8.793242">
        <ele>166.3</ele>
        <time>1970-01-01T00:42:33.000Z</time>
      </trkpt>
      <trkpt lat="42.292547" lon="-8.793248">
        <ele>166.3</ele>
        <time>1970-01-01T00:42:34.000Z</time>
      </trkpt>
      <trkpt lat="42.292532" lon="-8.793255">
        <ele>166.3</ele>
        <time>1970-01-01T00:42:35.000Z</time>
      </trkpt>
      <trkpt lat="42.292522" lon="-8.793258">
        <ele>166.3</ele>
        <time>1970-01-01T00:42:36.000Z</time>
      </trkpt>
      <trkpt lat="42.292512" lon="-8.793257">
        <ele>166.3</ele>
        <time>1970-01-01T00:42:37.000Z</time>
      </trkpt>
      <trkpt lat="42.292505" lon="-8.793253">
        <ele>166.3</ele>
        <time>1970-01-01T00:42:38.000Z</time>
      </trkpt>
      <trkpt lat="42.292502" lon="-8.793247">
        <ele>166.3</ele>
        <time>1970-01-01T00:42:39.000Z</time>
      </trkpt>
      <trkpt lat="42.292503" lon="-8.793243">
        <ele>166.3</ele>
        <time>1970-01-01T00:42:40.000Z</time>
      </trkpt>
      <trkpt lat="42.292508" lon="-8.793233">
        <ele>166.3</ele>
        <time>1970-01-01T00:42:41.000Z</time>
      </trkpt>
      <trkpt lat="42.292512" lon="-8.793222">
        <ele>167.3</ele>
        <time>1970-01-01T00:42:42.000Z</time>
      </trkpt>
      <trkpt lat="42.292518" lon="-8.793217">
        <ele>167.3</ele>
        <time>1970-01-01T00:42:43.000Z</time>
      </trkpt>
      <trkpt lat="42.292518" lon="-8.79322">
        <ele>167.3</ele>
        <time>1970-01-01T00:42:44.000Z</time>
      </trkpt>
      <trkpt lat="42.292522" lon="-8.793215">
        <ele>167.3</ele>
        <time>1970-01-01T00:42:45.000Z</time>
      </trkpt>
      <trkpt lat="42.292532" lon="-8.793208">
        <ele>167.3</ele>
        <time>1970-01-01T00:42:46.000Z</time>
      </trkpt>
      <trkpt lat="42.292543" lon="-8.793205">
        <ele>167.3</ele>
        <time>1970-01-01T00:42:47.000Z</time>
      </trkpt>
      <trkpt lat="42.292553" lon="-8.7932">
        <ele>167.3</ele>
        <time>1970-01-01T00:42:48.000Z</time>
      </trkpt>
      <trkpt lat="42.29256" lon="-8.793195">
        <ele>167.3</ele>
        <time>1970-01-01T00:42:49.000Z</time>
      </trkpt>
      <trkpt lat="42.292563" lon="-8.793193">
        <ele>167.3</ele>
        <time>1970-01-01T00:42:50.000Z</time>
      </trkpt>
      <trkpt lat="42.292567" lon="-8.793192">
        <ele>167.3</ele>
        <time>1970-01-01T00:42:51.000Z</time>
      </trkpt>
      <trkpt lat="42.292567" lon="-8.793188">
        <ele>168.3</ele>
        <time>1970-01-01T00:42:52.000Z</time>
      </trkpt>
      <trkpt lat="42.292565" lon="-8.793187">
        <ele>168.3</ele>
        <time>1970-01-01T00:42:53.000Z</time>
      </trkpt>
      <trkpt lat="42.292565" lon="-8.793187">
        <ele>169.3</ele>
        <time>1970-01-01T00:42:54.000Z</time>
      </trkpt>
      <trkpt lat="42.292563" lon="-8.793185">
        <ele>169.3</ele>
        <time>1970-01-01T00:42:55.000Z</time>
      </trkpt>
      <trkpt lat="42.292572" lon="-8.793178">
        <ele>169.3</ele>
        <time>1970-01-01T00:42:56.000Z</time>
      </trkpt>
      <trkpt lat="42.292577" lon="-8.793165">
        <ele>169.3</ele>
        <time>1970-01-01T00:42:57.000Z</time>
      </trkpt>
      <trkpt lat="42.292577" lon="-8.793153">
        <ele>169.3</ele>
        <time>1970-01-01T00:42:58.000Z</time>
      </trkpt>
      <trkpt lat="42.29258" lon="-8.793145">
        <ele>169.3</ele>
        <time>1970-01-01T00:42:59.000Z</time>
      </trkpt>
      <trkpt lat="42.292578" lon="-8.793137">
        <ele>169.3</ele>
        <time>1970-01-01T00:43:00.000Z</time>
      </trkpt>
      <trkpt lat="42.292578" lon="-8.79314">
        <ele>169.3</ele>
        <time>1970-01-01T00:43:01.000Z</time>
      </trkpt>
      <trkpt lat="42.292577" lon="-8.793138">
        <ele>169.3</ele>
        <time>1970-01-01T00:43:02.000Z</time>
      </trkpt>
      <trkpt lat="42.292575" lon="-8.793135">
        <ele>169.3</ele>
        <time>1970-01-01T00:43:03.000Z</time>
      </trkpt>
      <trkpt lat="42.292577" lon="-8.793127">
        <ele>169.3</ele>
        <time>1970-01-01T00:43:04.000Z</time>
      </trkpt>
      <trkpt lat="42.292578" lon="-8.793118">
        <ele>169.3</ele>
        <time>1970-01-01T00:43:05.000Z</time>
      </trkpt>
      <trkpt lat="42.292582" lon="-8.793108">
        <ele>172.2</ele>
        <time>1970-01-01T00:43:06.000Z</time>
      </trkpt>
      <trkpt lat="42.292585" lon="-8.793102">
        <ele>172.2</ele>
        <time>1970-01-01T00:43:07.000Z</time>
      </trkpt>
      <trkpt lat="42.292592" lon="-8.793095">
        <ele>172.2</ele>
        <time>1970-01-01T00:43:08.000Z</time>
      </trkpt>
      <trkpt lat="42.292593" lon="-8.793085">
        <ele>172.2</ele>
        <time>1970-01-01T00:43:09.000Z</time>
      </trkpt>
      <trkpt lat="42.292597" lon="-8.793078">
        <ele>172.2</ele>
        <time>1970-01-01T00:43:10.000Z</time>
      </trkpt>
      <trkpt lat="42.292598" lon="-8.793075">
        <ele>172.2</ele>
        <time>1970-01-01T00:43:11.000Z</time>
      </trkpt>
      <trkpt lat="42.2926" lon="-8.793073">
        <ele>173.3</ele>
        <time>1970-01-01T00:43:12.000Z</time>
      </trkpt>
      <trkpt lat="42.292605" lon="-8.793062">
        <ele>173.3</ele>
        <time>1970-01-01T00:43:13.000Z</time>
      </trkpt>
      <trkpt lat="42.292613" lon="-8.793057">
        <ele>173.3</ele>
        <time>1970-01-01T00:43:14.000Z</time>
      </trkpt>
      <trkpt lat="42.292622" lon="-8.793048">
        <ele>173.3</ele>
        <time>1970-01-01T00:43:15.000Z</time>
      </trkpt>
      <trkpt lat="42.292632" lon="-8.793042">
        <ele>173.3</ele>
        <time>1970-01-01T00:43:16.000Z</time>
      </trkpt>
      <trkpt lat="42.292642" lon="-8.793033">
        <ele>173.3</ele>
        <time>1970-01-01T00:43:17.000Z</time>
      </trkpt>
      <trkpt lat="42.292657" lon="-8.79302">
        <ele>173.3</ele>
        <time>1970-01-01T00:43:18.000Z</time>
      </trkpt>
      <trkpt lat="42.292668" lon="-8.793008">
        <ele>173.3</ele>
        <time>1970-01-01T00:43:19.000Z</time>
      </trkpt>
      <trkpt lat="42.292685" lon="-8.792997">
        <ele>173.3</ele>
        <time>1970-01-01T00:43:20.000Z</time>
      </trkpt>
      <trkpt lat="42.292702" lon="-8.792965">
        <ele>173.3</ele>
        <time>1970-01-01T00:43:21.000Z</time>
      </trkpt>
      <trkpt lat="42.292707" lon="-8.792952">
        <ele>173.3</ele>
        <time>1970-01-01T00:43:22.000Z</time>
      </trkpt>
      <trkpt lat="42.292715" lon="-8.792937">
        <ele>173.3</ele>
        <time>1970-01-01T00:43:23.000Z</time>
      </trkpt>
      <trkpt lat="42.292727" lon="-8.792918">
        <ele>173.3</ele>
        <time>1970-01-01T00:43:24.000Z</time>
      </trkpt>
      <trkpt lat="42.29273" lon="-8.792908">
        <ele>173.3</ele>
        <time>1970-01-01T00:43:25.000Z</time>
      </trkpt>
      <trkpt lat="42.292737" lon="-8.792897">
        <ele>173.3</ele>
        <time>1970-01-01T00:43:26.000Z</time>
      </trkpt>
      <trkpt lat="42.292745" lon="-8.792885">
        <ele>173.3</ele>
        <time>1970-01-01T00:43:27.000Z</time>
      </trkpt>
      <trkpt lat="42.292752" lon="-8.79288">
        <ele>173.3</ele>
        <time>1970-01-01T00:43:28.000Z</time>
      </trkpt>
      <trkpt lat="42.292752" lon="-8.792878">
        <ele>173.3</ele>
        <time>1970-01-01T00:43:29.000Z</time>
      </trkpt>
      <trkpt lat="42.292755" lon="-8.792873">
        <ele>173.3</ele>
        <time>1970-01-01T00:43:30.000Z</time>
      </trkpt>
      <trkpt lat="42.292757" lon="-8.792868">
        <ele>173.3</ele>
        <time>1970-01-01T00:43:31.000Z</time>
      </trkpt>
      <trkpt lat="42.292758" lon="-8.792858">
        <ele>173.3</ele>
        <time>1970-01-01T00:43:32.000Z</time>
      </trkpt>
      <trkpt lat="42.292762" lon="-8.792848">
        <ele>173.3</ele>
        <time>1970-01-01T00:43:33.000Z</time>
      </trkpt>
      <trkpt lat="42.292762" lon="-8.792843">
        <ele>175.3</ele>
        <time>1970-01-01T00:43:34.000Z</time>
      </trkpt>
      <trkpt lat="42.292755" lon="-8.792837">
        <ele>175.3</ele>
        <time>1970-01-01T00:43:35.000Z</time>
      </trkpt>
      <trkpt lat="42.292757" lon="-8.792817">
        <ele>175.3</ele>
        <time>1970-01-01T00:43:36.000Z</time>
      </trkpt>
      <trkpt lat="42.292753" lon="-8.792808">
        <ele>175.3</ele>
        <time>1970-01-01T00:43:37.000Z</time>
      </trkpt>
      <trkpt lat="42.292752" lon="-8.792803">
        <ele>175.3</ele>
        <time>1970-01-01T00:43:38.000Z</time>
      </trkpt>
      <trkpt lat="42.292752" lon="-8.792798">
        <ele>175.3</ele>
        <time>1970-01-01T00:43:39.000Z</time>
      </trkpt>
      <trkpt lat="42.292752" lon="-8.792797">
        <ele>175.3</ele>
        <time>1970-01-01T00:43:40.000Z</time>
      </trkpt>
      <trkpt lat="42.292752" lon="-8.792797">
        <ele>175.3</ele>
        <time>1970-01-01T00:43:41.000Z</time>
      </trkpt>
      <trkpt lat="42.292752" lon="-8.792793">
        <ele>175.3</ele>
        <time>1970-01-01T00:43:42.000Z</time>
      </trkpt>
      <trkpt lat="42.292752" lon="-8.792792">
        <ele>175.3</ele>
        <time>1970-01-01T00:43:43.000Z</time>
      </trkpt>
      <trkpt lat="42.292752" lon="-8.792792">
        <ele>175.3</ele>
        <time>1970-01-01T00:43:44.000Z</time>
      </trkpt>
      <trkpt lat="42.29275" lon="-8.792793">
        <ele>175.3</ele>
        <time>1970-01-01T00:43:45.000Z</time>
      </trkpt>
      <trkpt lat="42.29275" lon="-8.792793">
        <ele>176.3</ele>
        <time>1970-01-01T00:43:46.000Z</time>
      </trkpt>
      <trkpt lat="42.29275" lon="-8.792793">
        <ele>176.3</ele>
        <time>1970-01-01T00:43:47.000Z</time>
      </trkpt>
      <trkpt lat="42.29275" lon="-8.792793">
        <ele>176.3</ele>
        <time>1970-01-01T00:43:48.000Z</time>
      </trkpt>
      <trkpt lat="42.29275" lon="-8.792793">
        <ele>176.3</ele>
        <time>1970-01-01T00:43:49.000Z</time>
      </trkpt>
      <trkpt lat="42.29275" lon="-8.792793">
        <ele>176.3</ele>
        <time>1970-01-01T00:43:50.000Z</time>
      </trkpt>
      <trkpt lat="42.29275" lon="-8.792793">
        <ele>176.3</ele>
        <time>1970-01-01T00:43:51.000Z</time>
      </trkpt>
      <trkpt lat="42.29275" lon="-8.792793">
        <ele>176.3</ele>
        <time>1970-01-01T00:43:52.000Z</time>
      </trkpt>
      <trkpt lat="42.29275" lon="-8.792793">
        <ele>176.3</ele>
        <time>1970-01-01T00:43:53.000Z</time>
      </trkpt>
      <trkpt lat="42.29275" lon="-8.792793">
        <ele>176.3</ele>
        <time>1970-01-01T00:43:54.000Z</time>
      </trkpt>
      <trkpt lat="42.29275" lon="-8.792793">
        <ele>176.3</ele>
        <time>1970-01-01T00:43:55.000Z</time>
      </trkpt>
      <trkpt lat="42.29275" lon="-8.792793">
        <ele>176.3</ele>
        <time>1970-01-01T00:43:56.000Z</time>
      </trkpt>
      <trkpt lat="42.29275" lon="-8.792793">
        <ele>176.3</ele>
        <time>1970-01-01T00:43:57.000Z</time>
      </trkpt>
      <trkpt lat="42.29275" lon="-8.792793">
        <ele>176.3</ele>
        <time>1970-01-01T00:43:58.000Z</time>
      </trkpt>
      <trkpt lat="42.29275" lon="-8.792793">
        <ele>176.3</ele>
        <time>1970-01-01T00:43:59.000Z</time>
      </trkpt>
      <trkpt lat="42.29275" lon="-8.792793">
        <ele>176.3</ele>
        <time>1970-01-01T00:44:00.000Z</time>
      </trkpt>
      <trkpt lat="42.29275" lon="-8.792793">
        <ele>176.3</ele>
        <time>1970-01-01T00:44:01.000Z</time>
      </trkpt>
      <trkpt lat="42.29275" lon="-8.792793">
        <ele>175.3</ele>
        <time>1970-01-01T00:44:02.000Z</time>
      </trkpt>
      <trkpt lat="42.29275" lon="-8.792792">
        <ele>175.3</ele>
        <time>1970-01-01T00:44:03.000Z</time>
      </trkpt>
      <trkpt lat="42.29275" lon="-8.792792">
        <ele>175.3</ele>
        <time>1970-01-01T00:44:04.000Z</time>
      </trkpt>
      <trkpt lat="42.29275" lon="-8.792792">
        <ele>175.3</ele>
        <time>1970-01-01T00:44:05.000Z</time>
      </trkpt>
      <trkpt lat="42.29275" lon="-8.792792">
        <ele>175.3</ele>
        <time>1970-01-01T00:44:06.000Z</time>
      </trkpt>
      <trkpt lat="42.29275" lon="-8.792792">
        <ele>175.3</ele>
        <time>1970-01-01T00:44:07.000Z</time>
      </trkpt>
      <trkpt lat="42.29275" lon="-8.792792">
        <ele>175.3</ele>
        <time>1970-01-01T00:44:08.000Z</time>
      </trkpt>
      <trkpt lat="42.29275" lon="-8.792792">
        <ele>175.3</ele>
        <time>1970-01-01T00:44:09.000Z</time>
      </trkpt>
      <trkpt lat="42.29275" lon="-8.792792">
        <ele>175.3</ele>
        <time>1970-01-01T00:44:10.000Z</time>
      </trkpt>
      <trkpt lat="42.29275" lon="-8.792792">
        <ele>175.3</ele>
        <time>1970-01-01T00:44:11.000Z</time>
      </trkpt>
      <trkpt lat="42.29275" lon="-8.792792">
        <ele>174.2</ele>
        <time>1970-01-01T00:44:12.000Z</time>
      </trkpt>
      <trkpt lat="42.29275" lon="-8.792792">
        <ele>174.2</ele>
        <time>1970-01-01T00:44:13.000Z</time>
      </trkpt>
      <trkpt lat="42.29275" lon="-8.792793">
        <ele>174.2</ele>
        <time>1970-01-01T00:44:14.000Z</time>
      </trkpt>
      <trkpt lat="42.29275" lon="-8.792793">
        <ele>174.2</ele>
        <time>1970-01-01T00:44:15.000Z</time>
      </trkpt>
      <trkpt lat="42.292745" lon="-8.792793">
        <ele>174.2</ele>
        <time>1970-01-01T00:44:16.000Z</time>
      </trkpt>
      <trkpt lat="42.292738" lon="-8.792793">
        <ele>174.2</ele>
        <time>1970-01-01T00:44:17.000Z</time>
      </trkpt>
      <trkpt lat="42.292732" lon="-8.792793">
        <ele>174.2</ele>
        <time>1970-01-01T00:44:18.000Z</time>
      </trkpt>
      <trkpt lat="42.292727" lon="-8.792795">
        <ele>174.2</ele>
        <time>1970-01-01T00:44:19.000Z</time>
      </trkpt>
      <trkpt lat="42.292725" lon="-8.792798">
        <ele>174.2</ele>
        <time>1970-01-01T00:44:20.000Z</time>
      </trkpt>
      <trkpt lat="42.292722" lon="-8.7928">
        <ele>174.2</ele>
        <time>1970-01-01T00:44:21.000Z</time>
      </trkpt>
      <trkpt lat="42.29272" lon="-8.792802">
        <ele>174.2</ele>
        <time>1970-01-01T00:44:22.000Z</time>
      </trkpt>
      <trkpt lat="42.29272" lon="-8.792803">
        <ele>174.2</ele>
        <time>1970-01-01T00:44:23.000Z</time>
      </trkpt>
      <trkpt lat="42.292718" lon="-8.792805">
        <ele>174.2</ele>
        <time>1970-01-01T00:44:24.000Z</time>
      </trkpt>
      <trkpt lat="42.292718" lon="-8.792805">
        <ele>174.2</ele>
        <time>1970-01-01T00:44:25.000Z</time>
      </trkpt>
      <trkpt lat="42.292718" lon="-8.792805">
        <ele>174.2</ele>
        <time>1970-01-01T00:44:26.000Z</time>
      </trkpt>
      <trkpt lat="42.292717" lon="-8.792807">
        <ele>174.2</ele>
        <time>1970-01-01T00:44:27.000Z</time>
      </trkpt>
      <trkpt lat="42.292715" lon="-8.792808">
        <ele>173.3</ele>
        <time>1970-01-01T00:44:28.000Z</time>
      </trkpt>
      <trkpt lat="42.292712" lon="-8.792812">
        <ele>173.3</ele>
        <time>1970-01-01T00:44:29.000Z</time>
      </trkpt>
      <trkpt lat="42.29271" lon="-8.792813">
        <ele>174.2</ele>
        <time>1970-01-01T00:44:30.000Z</time>
      </trkpt>
      <trkpt lat="42.292708" lon="-8.792815">
        <ele>174.2</ele>
        <time>1970-01-01T00:44:31.000Z</time>
      </trkpt>
      <trkpt lat="42.292708" lon="-8.792815">
        <ele>174.2</ele>
        <time>1970-01-01T00:44:32.000Z</time>
      </trkpt>
      <trkpt lat="42.292708" lon="-8.792817">
        <ele>174.2</ele>
        <time>1970-01-01T00:44:33.000Z</time>
      </trkpt>
      <trkpt lat="42.292708" lon="-8.792817">
        <ele>173.3</ele>
        <time>1970-01-01T00:44:34.000Z</time>
      </trkpt>
      <trkpt lat="42.292707" lon="-8.792817">
        <ele>173.3</ele>
        <time>1970-01-01T00:44:35.000Z</time>
      </trkpt>
      <trkpt lat="42.292707" lon="-8.792817">
        <ele>173.3</ele>
        <time>1970-01-01T00:44:36.000Z</time>
      </trkpt>
      <trkpt lat="42.292707" lon="-8.792817">
        <ele>173.3</ele>
        <time>1970-01-01T00:44:37.000Z</time>
      </trkpt>
      <trkpt lat="42.292707" lon="-8.792817">
        <ele>172.2</ele>
        <time>1970-01-01T00:44:38.000Z</time>
      </trkpt>
      <trkpt lat="42.292707" lon="-8.792817">
        <ele>172.2</ele>
        <time>1970-01-01T00:44:39.000Z</time>
      </trkpt>
      <trkpt lat="42.292705" lon="-8.792817">
        <ele>172.2</ele>
        <time>1970-01-01T00:44:40.000Z</time>
      </trkpt>
      <trkpt lat="42.292705" lon="-8.792817">
        <ele>172.2</ele>
        <time>1970-01-01T00:44:41.000Z</time>
      </trkpt>
      <trkpt lat="42.292705" lon="-8.792817">
        <ele>172.2</ele>
        <time>1970-01-01T00:44:42.000Z</time>
      </trkpt>
      <trkpt lat="42.292705" lon="-8.792817">
        <ele>172.2</ele>
        <time>1970-01-01T00:44:43.000Z</time>
      </trkpt>
      <trkpt lat="42.292705" lon="-8.792817">
        <ele>171.3</ele>
        <time>1970-01-01T00:44:44.000Z</time>
      </trkpt>
      <trkpt lat="42.292705" lon="-8.792817">
        <ele>171.3</ele>
        <time>1970-01-01T00:44:45.000Z</time>
      </trkpt>
      <trkpt lat="42.292705" lon="-8.792817">
        <ele>170.2</ele>
        <time>1970-01-01T00:44:46.000Z</time>
      </trkpt>
      <trkpt lat="42.292705" lon="-8.792817">
        <ele>170.2</ele>
        <time>1970-01-01T00:44:47.000Z</time>
      </trkpt>
      <trkpt lat="42.292705" lon="-8.792817">
        <ele>170.2</ele>
        <time>1970-01-01T00:44:48.000Z</time>
      </trkpt>
      <trkpt lat="42.292705" lon="-8.792817">
        <ele>170.2</ele>
        <time>1970-01-01T00:44:49.000Z</time>
      </trkpt>
      <trkpt lat="42.292705" lon="-8.792817">
        <ele>170.2</ele>
        <time>1970-01-01T00:44:50.000Z</time>
      </trkpt>
      <trkpt lat="42.292705" lon="-8.792817">
        <ele>170.2</ele>
        <time>1970-01-01T00:44:51.000Z</time>
      </trkpt>
      <trkpt lat="42.292705" lon="-8.792817">
        <ele>170.2</ele>
        <time>1970-01-01T00:44:52.000Z</time>
      </trkpt>
      <trkpt lat="42.292705" lon="-8.792817">
        <ele>170.2</ele>
        <time>1970-01-01T00:44:53.000Z</time>
      </trkpt>
      <trkpt lat="42.292705" lon="-8.792817">
        <ele>169.3</ele>
        <time>1970-01-01T00:44:54.000Z</time>
      </trkpt>
      <trkpt lat="42.292705" lon="-8.792817">
        <ele>169.3</ele>
        <time>1970-01-01T00:44:55.000Z</time>
      </trkpt>
      <trkpt lat="42.292705" lon="-8.792817">
        <ele>168.3</ele>
        <time>1970-01-01T00:44:56.000Z</time>
      </trkpt>
      <trkpt lat="42.292705" lon="-8.792817">
        <ele>168.3</ele>
        <time>1970-01-01T00:44:57.000Z</time>
      </trkpt>
      <trkpt lat="42.292705" lon="-8.792817">
        <ele>168.3</ele>
        <time>1970-01-01T00:44:58.000Z</time>
      </trkpt>
      <trkpt lat="42.292698" lon="-8.792818">
        <ele>168.3</ele>
        <time>1970-01-01T00:44:59.000Z</time>
      </trkpt>
      <trkpt lat="42.292683" lon="-8.792827">
        <ele>167.3</ele>
        <time>1970-01-01T00:45:00.000Z</time>
      </trkpt>
      <trkpt lat="42.292668" lon="-8.792835">
        <ele>167.3</ele>
        <time>1970-01-01T00:45:01.000Z</time>
      </trkpt>
      <trkpt lat="42.292648" lon="-8.792847">
        <ele>167.3</ele>
        <time>1970-01-01T00:45:02.000Z</time>
      </trkpt>
      <trkpt lat="42.292628" lon="-8.792848">
        <ele>167.3</ele>
        <time>1970-01-01T00:45:03.000Z</time>
      </trkpt>
      <trkpt lat="42.292608" lon="-8.792845">
        <ele>167.3</ele>
        <time>1970-01-01T00:45:04.000Z</time>
      </trkpt>
      <trkpt lat="42.292598" lon="-8.792843">
        <ele>167.3</ele>
        <time>1970-01-01T00:45:05.000Z</time>
      </trkpt>
      <trkpt lat="42.29259" lon="-8.792843">
        <ele>167.3</ele>
        <time>1970-01-01T00:45:06.000Z</time>
      </trkpt>
      <trkpt lat="42.292583" lon="-8.792848">
        <ele>167.3</ele>
        <time>1970-01-01T00:45:07.000Z</time>
      </trkpt>
      <trkpt lat="42.292577" lon="-8.792852">
        <ele>167.3</ele>
        <time>1970-01-01T00:45:08.000Z</time>
      </trkpt>
      <trkpt lat="42.292577" lon="-8.792852">
        <ele>167.3</ele>
        <time>1970-01-01T00:45:09.000Z</time>
      </trkpt>
      <trkpt lat="42.292577" lon="-8.79285">
        <ele>166.3</ele>
        <time>1970-01-01T00:45:10.000Z</time>
      </trkpt>
      <trkpt lat="42.292577" lon="-8.792848">
        <ele>166.3</ele>
        <time>1970-01-01T00:45:11.000Z</time>
      </trkpt>
      <trkpt lat="42.292578" lon="-8.792853">
        <ele>166.3</ele>
        <time>1970-01-01T00:45:12.000Z</time>
      </trkpt>
      <trkpt lat="42.292578" lon="-8.79285">
        <ele>166.3</ele>
        <time>1970-01-01T00:45:13.000Z</time>
      </trkpt>
      <trkpt lat="42.292577" lon="-8.792838">
        <ele>166.3</ele>
        <time>1970-01-01T00:45:14.000Z</time>
      </trkpt>
      <trkpt lat="42.29257" lon="-8.792832">
        <ele>166.3</ele>
        <time>1970-01-01T00:45:15.000Z</time>
      </trkpt>
      <trkpt lat="42.292568" lon="-8.79283">
        <ele>166.3</ele>
        <time>1970-01-01T00:45:16.000Z</time>
      </trkpt>
      <trkpt lat="42.292568" lon="-8.792837">
        <ele>166.3</ele>
        <time>1970-01-01T00:45:17.000Z</time>
      </trkpt>
      <trkpt lat="42.292568" lon="-8.792832">
        <ele>165.2</ele>
        <time>1970-01-01T00:45:18.000Z</time>
      </trkpt>
      <trkpt lat="42.292567" lon="-8.792835">
        <ele>165.2</ele>
        <time>1970-01-01T00:45:19.000Z</time>
      </trkpt>
      <trkpt lat="42.292563" lon="-8.792847">
        <ele>165.2</ele>
        <time>1970-01-01T00:45:20.000Z</time>
      </trkpt>
      <trkpt lat="42.292557" lon="-8.792852">
        <ele>165.2</ele>
        <time>1970-01-01T00:45:21.000Z</time>
      </trkpt>
      <trkpt lat="42.29255" lon="-8.792857">
        <ele>165.2</ele>
        <time>1970-01-01T00:45:22.000Z</time>
      </trkpt>
      <trkpt lat="42.292545" lon="-8.792863">
        <ele>165.2</ele>
        <time>1970-01-01T00:45:23.000Z</time>
      </trkpt>
      <trkpt lat="42.292542" lon="-8.792865">
        <ele>165.2</ele>
        <time>1970-01-01T00:45:24.000Z</time>
      </trkpt>
      <trkpt lat="42.29254" lon="-8.792867">
        <ele>165.2</ele>
        <time>1970-01-01T00:45:25.000Z</time>
      </trkpt>
      <trkpt lat="42.29254" lon="-8.792863">
        <ele>165.2</ele>
        <time>1970-01-01T00:45:26.000Z</time>
      </trkpt>
      <trkpt lat="42.29254" lon="-8.79286">
        <ele>165.2</ele>
        <time>1970-01-01T00:45:27.000Z</time>
      </trkpt>
      <trkpt lat="42.29254" lon="-8.792858">
        <ele>165.2</ele>
        <time>1970-01-01T00:45:28.000Z</time>
      </trkpt>
      <trkpt lat="42.292543" lon="-8.792857">
        <ele>165.2</ele>
        <time>1970-01-01T00:45:29.000Z</time>
      </trkpt>
      <trkpt lat="42.292545" lon="-8.792857">
        <ele>165.2</ele>
        <time>1970-01-01T00:45:30.000Z</time>
      </trkpt>
      <trkpt lat="42.292547" lon="-8.792857">
        <ele>165.2</ele>
        <time>1970-01-01T00:45:31.000Z</time>
      </trkpt>
      <trkpt lat="42.292547" lon="-8.792857">
        <ele>165.2</ele>
        <time>1970-01-01T00:45:32.000Z</time>
      </trkpt>
      <trkpt lat="42.292547" lon="-8.792857">
        <ele>165.2</ele>
        <time>1970-01-01T00:45:33.000Z</time>
      </trkpt>
      <trkpt lat="42.292547" lon="-8.792857">
        <ele>165.2</ele>
        <time>1970-01-01T00:45:34.000Z</time>
      </trkpt>
      <trkpt lat="42.292547" lon="-8.792857">
        <ele>165.2</ele>
        <time>1970-01-01T00:45:35.000Z</time>
      </trkpt>
      <trkpt lat="42.292547" lon="-8.792857">
        <ele>165.2</ele>
        <time>1970-01-01T00:45:36.000Z</time>
      </trkpt>
      <trkpt lat="42.292547" lon="-8.792857">
        <ele>165.2</ele>
        <time>1970-01-01T00:45:37.000Z</time>
      </trkpt>
      <trkpt lat="42.292547" lon="-8.792857">
        <ele>165.2</ele>
        <time>1970-01-01T00:45:38.000Z</time>
      </trkpt>
      <trkpt lat="42.292547" lon="-8.792857">
        <ele>165.2</ele>
        <time>1970-01-01T00:45:39.000Z</time>
      </trkpt>
      <trkpt lat="42.292547" lon="-8.792857">
        <ele>165.2</ele>
        <time>1970-01-01T00:45:40.000Z</time>
      </trkpt>
      <trkpt lat="42.292547" lon="-8.792857">
        <ele>165.2</ele>
        <time>1970-01-01T00:45:41.000Z</time>
      </trkpt>
      <trkpt lat="42.292547" lon="-8.792857">
        <ele>165.2</ele>
        <time>1970-01-01T00:45:42.000Z</time>
      </trkpt>
      <trkpt lat="42.292547" lon="-8.792857">
        <ele>165.2</ele>
        <time>1970-01-01T00:45:43.000Z</time>
      </trkpt>
      <trkpt lat="42.292547" lon="-8.792857">
        <ele>165.2</ele>
        <time>1970-01-01T00:45:44.000Z</time>
      </trkpt>
      <trkpt lat="42.292547" lon="-8.792857">
        <ele>165.2</ele>
        <time>1970-01-01T00:45:45.000Z</time>
      </trkpt>
      <trkpt lat="42.292547" lon="-8.792857">
        <ele>165.2</ele>
        <time>1970-01-01T00:45:46.000Z</time>
      </trkpt>
      <trkpt lat="42.292547" lon="-8.792857">
        <ele>165.2</ele>
        <time>1970-01-01T00:45:47.000Z</time>
      </trkpt>
      <trkpt lat="42.292547" lon="-8.792857">
        <ele>165.2</ele>
        <time>1970-01-01T00:45:48.000Z</time>
      </trkpt>
      <trkpt lat="42.292547" lon="-8.792857">
        <ele>165.2</ele>
        <time>1970-01-01T00:45:49.000Z</time>
      </trkpt>
      <trkpt lat="42.292547" lon="-8.792857">
        <ele>164.3</ele>
        <time>1970-01-01T00:45:50.000Z</time>
      </trkpt>
      <trkpt lat="42.292547" lon="-8.792857">
        <ele>164.3</ele>
        <time>1970-01-01T00:45:51.000Z</time>
      </trkpt>
      <trkpt lat="42.292547" lon="-8.792857">
        <ele>164.3</ele>
        <time>1970-01-01T00:45:52.000Z</time>
      </trkpt>
      <trkpt lat="42.292547" lon="-8.792857">
        <ele>164.3</ele>
        <time>1970-01-01T00:45:53.000Z</time>
      </trkpt>
      <trkpt lat="42.292547" lon="-8.792857">
        <ele>164.3</ele>
        <time>1970-01-01T00:45:54.000Z</time>
      </trkpt>
      <trkpt lat="42.292547" lon="-8.792857">
        <ele>164.3</ele>
        <time>1970-01-01T00:45:55.000Z</time>
      </trkpt>
      <trkpt lat="42.292548" lon="-8.792857">
        <ele>164.3</ele>
        <time>1970-01-01T00:45:56.000Z</time>
      </trkpt>
      <trkpt lat="42.292548" lon="-8.792857">
        <ele>164.3</ele>
        <time>1970-01-01T00:45:57.000Z</time>
      </trkpt>
      <trkpt lat="42.292548" lon="-8.792857">
        <ele>164.3</ele>
        <time>1970-01-01T00:45:58.000Z</time>
      </trkpt>
      <trkpt lat="42.292548" lon="-8.792857">
        <ele>164.3</ele>
        <time>1970-01-01T00:45:59.000Z</time>
      </trkpt>
      <trkpt lat="42.292548" lon="-8.792857">
        <ele>164.3</ele>
        <time>1970-01-01T00:46:00.000Z</time>
      </trkpt>
      <trkpt lat="42.292548" lon="-8.792857">
        <ele>164.3</ele>
        <time>1970-01-01T00:46:01.000Z</time>
      </trkpt>
      <trkpt lat="42.292553" lon="-8.792858">
        <ele>163.2</ele>
        <time>1970-01-01T00:46:02.000Z</time>
      </trkpt>
      <trkpt lat="42.292557" lon="-8.792867">
        <ele>163.2</ele>
        <time>1970-01-01T00:46:03.000Z</time>
      </trkpt>
      <trkpt lat="42.292563" lon="-8.79287">
        <ele>163.2</ele>
        <time>1970-01-01T00:46:04.000Z</time>
      </trkpt>
      <trkpt lat="42.292567" lon="-8.792872">
        <ele>163.2</ele>
        <time>1970-01-01T00:46:05.000Z</time>
      </trkpt>
      <trkpt lat="42.29257" lon="-8.792873">
        <ele>162.3</ele>
        <time>1970-01-01T00:46:06.000Z</time>
      </trkpt>
      <trkpt lat="42.292573" lon="-8.792873">
        <ele>162.3</ele>
        <time>1970-01-01T00:46:07.000Z</time>
      </trkpt>
      <trkpt lat="42.292575" lon="-8.792873">
        <ele>162.3</ele>
        <time>1970-01-01T00:46:08.000Z</time>
      </trkpt>
      <trkpt lat="42.292575" lon="-8.792873">
        <ele>162.3</ele>
        <time>1970-01-01T00:46:09.000Z</time>
      </trkpt>
      <trkpt lat="42.292577" lon="-8.792875">
        <ele>161.2</ele>
        <time>1970-01-01T00:46:10.000Z</time>
      </trkpt>
      <trkpt lat="42.292577" lon="-8.792875">
        <ele>161.2</ele>
        <time>1970-01-01T00:46:11.000Z</time>
      </trkpt>
      <trkpt lat="42.292577" lon="-8.792875">
        <ele>161.2</ele>
        <time>1970-01-01T00:46:12.000Z</time>
      </trkpt>
      <trkpt lat="42.292577" lon="-8.792875">
        <ele>161.2</ele>
        <time>1970-01-01T00:46:13.000Z</time>
      </trkpt>
      <trkpt lat="42.292577" lon="-8.792875">
        <ele>161.2</ele>
        <time>1970-01-01T00:46:14.000Z</time>
      </trkpt>
      <trkpt lat="42.292577" lon="-8.792875">
        <ele>161.2</ele>
        <time>1970-01-01T00:46:15.000Z</time>
      </trkpt>
      <trkpt lat="42.292577" lon="-8.792875">
        <ele>160.3</ele>
        <time>1970-01-01T00:46:16.000Z</time>
      </trkpt>
      <trkpt lat="42.292577" lon="-8.792875">
        <ele>160.3</ele>
        <time>1970-01-01T00:46:17.000Z</time>
      </trkpt>
      <trkpt lat="42.292577" lon="-8.792875">
        <ele>160.3</ele>
        <time>1970-01-01T00:46:18.000Z</time>
      </trkpt>
      <trkpt lat="42.292577" lon="-8.792877">
        <ele>160.3</ele>
        <time>1970-01-01T00:46:19.000Z</time>
      </trkpt>
      <trkpt lat="42.292577" lon="-8.792877">
        <ele>159.3</ele>
        <time>1970-01-01T00:46:20.000Z</time>
      </trkpt>
      <trkpt lat="42.292578" lon="-8.792877">
        <ele>159.3</ele>
        <time>1970-01-01T00:46:21.000Z</time>
      </trkpt>
      <trkpt lat="42.29258" lon="-8.792877">
        <ele>158.2</ele>
        <time>1970-01-01T00:46:22.000Z</time>
      </trkpt>
      <trkpt lat="42.29258" lon="-8.792877">
        <ele>158.2</ele>
        <time>1970-01-01T00:46:23.000Z</time>
      </trkpt>
      <trkpt lat="42.292582" lon="-8.792877">
        <ele>158.2</ele>
        <time>1970-01-01T00:46:24.000Z</time>
      </trkpt>
      <trkpt lat="42.292582" lon="-8.792877">
        <ele>158.2</ele>
        <time>1970-01-01T00:46:25.000Z</time>
      </trkpt>
      <trkpt lat="42.292582" lon="-8.792877">
        <ele>158.2</ele>
        <time>1970-01-01T00:46:26.000Z</time>
      </trkpt>
      <trkpt lat="42.292583" lon="-8.792877">
        <ele>158.2</ele>
        <time>1970-01-01T00:46:27.000Z</time>
      </trkpt>
      <trkpt lat="42.292583" lon="-8.792877">
        <ele>158.2</ele>
        <time>1970-01-01T00:46:28.000Z</time>
      </trkpt>
      <trkpt lat="42.292583" lon="-8.792878">
        <ele>158.2</ele>
        <time>1970-01-01T00:46:29.000Z</time>
      </trkpt>
      <trkpt lat="42.292583" lon="-8.792878">
        <ele>157.3</ele>
        <time>1970-01-01T00:46:30.000Z</time>
      </trkpt>
      <trkpt lat="42.292583" lon="-8.79288">
        <ele>157.3</ele>
        <time>1970-01-01T00:46:31.000Z</time>
      </trkpt>
      <trkpt lat="42.292583" lon="-8.79288">
        <ele>157.3</ele>
        <time>1970-01-01T00:46:32.000Z</time>
      </trkpt>
      <trkpt lat="42.292583" lon="-8.792882">
        <ele>157.3</ele>
        <time>1970-01-01T00:46:33.000Z</time>
      </trkpt>
      <trkpt lat="42.292583" lon="-8.792882">
        <ele>157.3</ele>
        <time>1970-01-01T00:46:34.000Z</time>
      </trkpt>
      <trkpt lat="42.292583" lon="-8.792882">
        <ele>157.3</ele>
        <time>1970-01-01T00:46:35.000Z</time>
      </trkpt>
      <trkpt lat="42.292583" lon="-8.792882">
        <ele>157.3</ele>
        <time>1970-01-01T00:46:36.000Z</time>
      </trkpt>
      <trkpt lat="42.292583" lon="-8.792882">
        <ele>157.3</ele>
        <time>1970-01-01T00:46:37.000Z</time>
      </trkpt>
      <trkpt lat="42.292583" lon="-8.792882">
        <ele>157.3</ele>
        <time>1970-01-01T00:46:38.000Z</time>
      </trkpt>
      <trkpt lat="42.292583" lon="-8.792882">
        <ele>157.3</ele>
        <time>1970-01-01T00:46:39.000Z</time>
      </trkpt>
      <trkpt lat="42.292583" lon="-8.792882">
        <ele>156.2</ele>
        <time>1970-01-01T00:46:40.000Z</time>
      </trkpt>
      <trkpt lat="42.292583" lon="-8.792882">
        <ele>156.2</ele>
        <time>1970-01-01T00:46:41.000Z</time>
      </trkpt>
      <trkpt lat="42.292583" lon="-8.792882">
        <ele>156.2</ele>
        <time>1970-01-01T00:46:42.000Z</time>
      </trkpt>
      <trkpt lat="42.292583" lon="-8.792882">
        <ele>156.2</ele>
        <time>1970-01-01T00:46:43.000Z</time>
      </trkpt>
      <trkpt lat="42.292583" lon="-8.792882">
        <ele>156.2</ele>
        <time>1970-01-01T00:46:44.000Z</time>
      </trkpt>
      <trkpt lat="42.292583" lon="-8.792882">
        <ele>156.2</ele>
        <time>1970-01-01T00:46:45.000Z</time>
      </trkpt>
      <trkpt lat="42.292583" lon="-8.792883">
        <ele>156.2</ele>
        <time>1970-01-01T00:46:46.000Z</time>
      </trkpt>
      <trkpt lat="42.292583" lon="-8.792883">
        <ele>156.2</ele>
        <time>1970-01-01T00:46:47.000Z</time>
      </trkpt>
      <trkpt lat="42.292578" lon="-8.792885">
        <ele>156.2</ele>
        <time>1970-01-01T00:46:48.000Z</time>
      </trkpt>
      <trkpt lat="42.292563" lon="-8.792893">
        <ele>156.2</ele>
        <time>1970-01-01T00:46:49.000Z</time>
      </trkpt>
      <trkpt lat="42.292545" lon="-8.792905">
        <ele>156.2</ele>
        <time>1970-01-01T00:46:50.000Z</time>
      </trkpt>
      <trkpt lat="42.29253" lon="-8.792912">
        <ele>156.2</ele>
        <time>1970-01-01T00:46:51.000Z</time>
      </trkpt>
      <trkpt lat="42.292512" lon="-8.79292">
        <ele>156.2</ele>
        <time>1970-01-01T00:46:52.000Z</time>
      </trkpt>
      <trkpt lat="42.292495" lon="-8.792932">
        <ele>156.2</ele>
        <time>1970-01-01T00:46:53.000Z</time>
      </trkpt>
      <trkpt lat="42.29248" lon="-8.792947">
        <ele>156.2</ele>
        <time>1970-01-01T00:46:54.000Z</time>
      </trkpt>
      <trkpt lat="42.292467" lon="-8.79296">
        <ele>156.2</ele>
        <time>1970-01-01T00:46:55.000Z</time>
      </trkpt>
      <trkpt lat="42.292452" lon="-8.79297">
        <ele>156.2</ele>
        <time>1970-01-01T00:46:56.000Z</time>
      </trkpt>
      <trkpt lat="42.292437" lon="-8.79298">
        <ele>156.2</ele>
        <time>1970-01-01T00:46:57.000Z</time>
      </trkpt>
      <trkpt lat="42.292428" lon="-8.792987">
        <ele>156.2</ele>
        <time>1970-01-01T00:46:58.000Z</time>
      </trkpt>
      <trkpt lat="42.29242" lon="-8.792992">
        <ele>156.2</ele>
        <time>1970-01-01T00:46:59.000Z</time>
      </trkpt>
      <trkpt lat="42.292407" lon="-8.792995">
        <ele>156.2</ele>
        <time>1970-01-01T00:47:00.000Z</time>
      </trkpt>
      <trkpt lat="42.292398" lon="-8.792995">
        <ele>156.2</ele>
        <time>1970-01-01T00:47:01.000Z</time>
      </trkpt>
      <trkpt lat="42.292387" lon="-8.792998">
        <ele>156.2</ele>
        <time>1970-01-01T00:47:02.000Z</time>
      </trkpt>
      <trkpt lat="42.292372" lon="-8.793005">
        <ele>156.2</ele>
        <time>1970-01-01T00:47:03.000Z</time>
      </trkpt>
      <trkpt lat="42.29236" lon="-8.79301">
        <ele>155.3</ele>
        <time>1970-01-01T00:47:04.000Z</time>
      </trkpt>
      <trkpt lat="42.292348" lon="-8.793018">
        <ele>155.3</ele>
        <time>1970-01-01T00:47:05.000Z</time>
      </trkpt>
      <trkpt lat="42.292333" lon="-8.793028">
        <ele>155.3</ele>
        <time>1970-01-01T00:47:06.000Z</time>
      </trkpt>
      <trkpt lat="42.292322" lon="-8.793037">
        <ele>155.3</ele>
        <time>1970-01-01T00:47:07.000Z</time>
      </trkpt>
      <trkpt lat="42.292303" lon="-8.79304">
        <ele>155.3</ele>
        <time>1970-01-01T00:47:08.000Z</time>
      </trkpt>
      <trkpt lat="42.292295" lon="-8.793043">
        <ele>155.3</ele>
        <time>1970-01-01T00:47:09.000Z</time>
      </trkpt>
      <trkpt lat="42.292282" lon="-8.793052">
        <ele>155.3</ele>
        <time>1970-01-01T00:47:10.000Z</time>
      </trkpt>
      <trkpt lat="42.292265" lon="-8.793053">
        <ele>155.3</ele>
        <time>1970-01-01T00:47:11.000Z</time>
      </trkpt>
      <trkpt lat="42.292252" lon="-8.793058">
        <ele>155.3</ele>
        <time>1970-01-01T00:47:12.000Z</time>
      </trkpt>
      <trkpt lat="42.292245" lon="-8.793063">
        <ele>155.3</ele>
        <time>1970-01-01T00:47:13.000Z</time>
      </trkpt>
      <trkpt lat="42.292232" lon="-8.793068">
        <ele>155.3</ele>
        <time>1970-01-01T00:47:14.000Z</time>
      </trkpt>
      <trkpt lat="42.29222" lon="-8.793077">
        <ele>155.3</ele>
        <time>1970-01-01T00:47:15.000Z</time>
      </trkpt>
      <trkpt lat="42.292208" lon="-8.79309">
        <ele>155.3</ele>
        <time>1970-01-01T00:47:16.000Z</time>
      </trkpt>
      <trkpt lat="42.292197" lon="-8.793103">
        <ele>155.3</ele>
        <time>1970-01-01T00:47:17.000Z</time>
      </trkpt>
      <trkpt lat="42.292185" lon="-8.793112">
        <ele>155.3</ele>
        <time>1970-01-01T00:47:18.000Z</time>
      </trkpt>
      <trkpt lat="42.29217" lon="-8.79312">
        <ele>155.3</ele>
        <time>1970-01-01T00:47:19.000Z</time>
      </trkpt>
      <trkpt lat="42.29216" lon="-8.793127">
        <ele>155.3</ele>
        <time>1970-01-01T00:47:20.000Z</time>
      </trkpt>
      <trkpt lat="42.292145" lon="-8.793138">
        <ele>155.3</ele>
        <time>1970-01-01T00:47:21.000Z</time>
      </trkpt>
      <trkpt lat="42.292135" lon="-8.793147">
        <ele>155.3</ele>
        <time>1970-01-01T00:47:22.000Z</time>
      </trkpt>
      <trkpt lat="42.292123" lon="-8.793157">
        <ele>155.3</ele>
        <time>1970-01-01T00:47:23.000Z</time>
      </trkpt>
      <trkpt lat="42.292112" lon="-8.793165">
        <ele>155.3</ele>
        <time>1970-01-01T00:47:24.000Z</time>
      </trkpt>
      <trkpt lat="42.2921" lon="-8.793173">
        <ele>155.3</ele>
        <time>1970-01-01T00:47:25.000Z</time>
      </trkpt>
      <trkpt lat="42.292088" lon="-8.793182">
        <ele>155.3</ele>
        <time>1970-01-01T00:47:26.000Z</time>
      </trkpt>
      <trkpt lat="42.292078" lon="-8.793188">
        <ele>155.3</ele>
        <time>1970-01-01T00:47:27.000Z</time>
      </trkpt>
      <trkpt lat="42.292068" lon="-8.793195">
        <ele>155.3</ele>
        <time>1970-01-01T00:47:28.000Z</time>
      </trkpt>
      <trkpt lat="42.29206" lon="-8.7932">
        <ele>155.3</ele>
        <time>1970-01-01T00:47:29.000Z</time>
      </trkpt>
      <trkpt lat="42.292048" lon="-8.793207">
        <ele>155.3</ele>
        <time>1970-01-01T00:47:30.000Z</time>
      </trkpt>
      <trkpt lat="42.292037" lon="-8.793215">
        <ele>155.3</ele>
        <time>1970-01-01T00:47:31.000Z</time>
      </trkpt>
      <trkpt lat="42.292025" lon="-8.793223">
        <ele>155.3</ele>
        <time>1970-01-01T00:47:32.000Z</time>
      </trkpt>
      <trkpt lat="42.292013" lon="-8.79323">
        <ele>155.3</ele>
        <time>1970-01-01T00:47:33.000Z</time>
      </trkpt>
      <trkpt lat="42.292" lon="-8.793237">
        <ele>155.3</ele>
        <time>1970-01-01T00:47:34.000Z</time>
      </trkpt>
      <trkpt lat="42.291987" lon="-8.793245">
        <ele>155.3</ele>
        <time>1970-01-01T00:47:35.000Z</time>
      </trkpt>
      <trkpt lat="42.291972" lon="-8.793253">
        <ele>155.3</ele>
        <time>1970-01-01T00:47:36.000Z</time>
      </trkpt>
      <trkpt lat="42.291958" lon="-8.79326">
        <ele>155.3</ele>
        <time>1970-01-01T00:47:37.000Z</time>
      </trkpt>
      <trkpt lat="42.291945" lon="-8.793263">
        <ele>155.3</ele>
        <time>1970-01-01T00:47:38.000Z</time>
      </trkpt>
      <trkpt lat="42.291932" lon="-8.793265">
        <ele>155.3</ele>
        <time>1970-01-01T00:47:39.000Z</time>
      </trkpt>
      <trkpt lat="42.29192" lon="-8.793272">
        <ele>155.3</ele>
        <time>1970-01-01T00:47:40.000Z</time>
      </trkpt>
      <trkpt lat="42.291907" lon="-8.79328">
        <ele>155.3</ele>
        <time>1970-01-01T00:47:41.000Z</time>
      </trkpt>
      <trkpt lat="42.291895" lon="-8.793287">
        <ele>155.3</ele>
        <time>1970-01-01T00:47:42.000Z</time>
      </trkpt>
      <trkpt lat="42.291887" lon="-8.793293">
        <ele>155.3</ele>
        <time>1970-01-01T00:47:43.000Z</time>
      </trkpt>
      <trkpt lat="42.291872" lon="-8.793302">
        <ele>155.3</ele>
        <time>1970-01-01T00:47:44.000Z</time>
      </trkpt>
      <trkpt lat="42.291855" lon="-8.793312">
        <ele>155.3</ele>
        <time>1970-01-01T00:47:45.000Z</time>
      </trkpt>
      <trkpt lat="42.291843" lon="-8.793317">
        <ele>155.3</ele>
        <time>1970-01-01T00:47:46.000Z</time>
      </trkpt>
      <trkpt lat="42.291828" lon="-8.793323">
        <ele>155.3</ele>
        <time>1970-01-01T00:47:47.000Z</time>
      </trkpt>
      <trkpt lat="42.291813" lon="-8.79333">
        <ele>155.3</ele>
        <time>1970-01-01T00:47:48.000Z</time>
      </trkpt>
      <trkpt lat="42.291798" lon="-8.793335">
        <ele>155.3</ele>
        <time>1970-01-01T00:47:49.000Z</time>
      </trkpt>
      <trkpt lat="42.291783" lon="-8.793338">
        <ele>155.3</ele>
        <time>1970-01-01T00:47:50.000Z</time>
      </trkpt>
      <trkpt lat="42.291768" lon="-8.793342">
        <ele>155.3</ele>
        <time>1970-01-01T00:47:51.000Z</time>
      </trkpt>
      <trkpt lat="42.291758" lon="-8.793345">
        <ele>155.3</ele>
        <time>1970-01-01T00:47:52.000Z</time>
      </trkpt>
      <trkpt lat="42.291747" lon="-8.793348">
        <ele>155.3</ele>
        <time>1970-01-01T00:47:53.000Z</time>
      </trkpt>
      <trkpt lat="42.291735" lon="-8.793353">
        <ele>155.3</ele>
        <time>1970-01-01T00:47:54.000Z</time>
      </trkpt>
      <trkpt lat="42.291722" lon="-8.793357">
        <ele>155.3</ele>
        <time>1970-01-01T00:47:55.000Z</time>
      </trkpt>
      <trkpt lat="42.29171" lon="-8.793357">
        <ele>155.3</ele>
        <time>1970-01-01T00:47:56.000Z</time>
      </trkpt>
      <trkpt lat="42.291697" lon="-8.793358">
        <ele>155.3</ele>
        <time>1970-01-01T00:47:57.000Z</time>
      </trkpt>
      <trkpt lat="42.291683" lon="-8.793358">
        <ele>155.3</ele>
        <time>1970-01-01T00:47:58.000Z</time>
      </trkpt>
      <trkpt lat="42.29167" lon="-8.793357">
        <ele>155.3</ele>
        <time>1970-01-01T00:47:59.000Z</time>
      </trkpt>
      <trkpt lat="42.291655" lon="-8.793358">
        <ele>155.3</ele>
        <time>1970-01-01T00:48:00.000Z</time>
      </trkpt>
      <trkpt lat="42.291642" lon="-8.793358">
        <ele>155.3</ele>
        <time>1970-01-01T00:48:01.000Z</time>
      </trkpt>
      <trkpt lat="42.29163" lon="-8.793357">
        <ele>156.2</ele>
        <time>1970-01-01T00:48:02.000Z</time>
      </trkpt>
      <trkpt lat="42.291617" lon="-8.793352">
        <ele>156.2</ele>
        <time>1970-01-01T00:48:03.000Z</time>
      </trkpt>
      <trkpt lat="42.291603" lon="-8.79335">
        <ele>156.2</ele>
        <time>1970-01-01T00:48:04.000Z</time>
      </trkpt>
      <trkpt lat="42.291587" lon="-8.793352">
        <ele>156.2</ele>
        <time>1970-01-01T00:48:05.000Z</time>
      </trkpt>
      <trkpt lat="42.291572" lon="-8.793353">
        <ele>156.2</ele>
        <time>1970-01-01T00:48:06.000Z</time>
      </trkpt>
      <trkpt lat="42.291558" lon="-8.793352">
        <ele>156.2</ele>
        <time>1970-01-01T00:48:07.000Z</time>
      </trkpt>
      <trkpt lat="42.291548" lon="-8.79335">
        <ele>156.2</ele>
        <time>1970-01-01T00:48:08.000Z</time>
      </trkpt>
      <trkpt lat="42.29154" lon="-8.793342">
        <ele>156.2</ele>
        <time>1970-01-01T00:48:09.000Z</time>
      </trkpt>
      <trkpt lat="42.29153" lon="-8.79334">
        <ele>156.2</ele>
        <time>1970-01-01T00:48:10.000Z</time>
      </trkpt>
      <trkpt lat="42.291515" lon="-8.793343">
        <ele>156.2</ele>
        <time>1970-01-01T00:48:11.000Z</time>
      </trkpt>
      <trkpt lat="42.2915" lon="-8.793343">
        <ele>157.3</ele>
        <time>1970-01-01T00:48:12.000Z</time>
      </trkpt>
      <trkpt lat="42.29148" lon="-8.793347">
        <ele>157.3</ele>
        <time>1970-01-01T00:48:13.000Z</time>
      </trkpt>
      <trkpt lat="42.291467" lon="-8.79335">
        <ele>157.3</ele>
        <time>1970-01-01T00:48:14.000Z</time>
      </trkpt>
      <trkpt lat="42.291457" lon="-8.793352">
        <ele>157.3</ele>
        <time>1970-01-01T00:48:15.000Z</time>
      </trkpt>
      <trkpt lat="42.29145" lon="-8.793345">
        <ele>157.3</ele>
        <time>1970-01-01T00:48:16.000Z</time>
      </trkpt>
      <trkpt lat="42.29144" lon="-8.793343">
        <ele>157.3</ele>
        <time>1970-01-01T00:48:17.000Z</time>
      </trkpt>
      <trkpt lat="42.291428" lon="-8.793343">
        <ele>157.3</ele>
        <time>1970-01-01T00:48:18.000Z</time>
      </trkpt>
      <trkpt lat="42.291415" lon="-8.793342">
        <ele>157.3</ele>
        <time>1970-01-01T00:48:19.000Z</time>
      </trkpt>
      <trkpt lat="42.291398" lon="-8.793337">
        <ele>158.2</ele>
        <time>1970-01-01T00:48:20.000Z</time>
      </trkpt>
      <trkpt lat="42.291383" lon="-8.793335">
        <ele>158.2</ele>
        <time>1970-01-01T00:48:21.000Z</time>
      </trkpt>
      <trkpt lat="42.29137" lon="-8.793337">
        <ele>158.2</ele>
        <time>1970-01-01T00:48:22.000Z</time>
      </trkpt>
      <trkpt lat="42.291357" lon="-8.793333">
        <ele>158.2</ele>
        <time>1970-01-01T00:48:23.000Z</time>
      </trkpt>
      <trkpt lat="42.291338" lon="-8.793328">
        <ele>158.2</ele>
        <time>1970-01-01T00:48:24.000Z</time>
      </trkpt>
      <trkpt lat="42.291322" lon="-8.793327">
        <ele>158.2</ele>
        <time>1970-01-01T00:48:25.000Z</time>
      </trkpt>
      <trkpt lat="42.291307" lon="-8.793327">
        <ele>158.2</ele>
        <time>1970-01-01T00:48:26.000Z</time>
      </trkpt>
      <trkpt lat="42.291293" lon="-8.79333">
        <ele>158.2</ele>
        <time>1970-01-01T00:48:27.000Z</time>
      </trkpt>
      <trkpt lat="42.291282" lon="-8.793335">
        <ele>158.2</ele>
        <time>1970-01-01T00:48:28.000Z</time>
      </trkpt>
      <trkpt lat="42.291267" lon="-8.793335">
        <ele>158.2</ele>
        <time>1970-01-01T00:48:29.000Z</time>
      </trkpt>
      <trkpt lat="42.291255" lon="-8.793333">
        <ele>158.2</ele>
        <time>1970-01-01T00:48:30.000Z</time>
      </trkpt>
      <trkpt lat="42.29125" lon="-8.793333">
        <ele>158.2</ele>
        <time>1970-01-01T00:48:31.000Z</time>
      </trkpt>
      <trkpt lat="42.291247" lon="-8.793335">
        <ele>158.2</ele>
        <time>1970-01-01T00:48:32.000Z</time>
      </trkpt>
      <trkpt lat="42.291243" lon="-8.793335">
        <ele>158.2</ele>
        <time>1970-01-01T00:48:33.000Z</time>
      </trkpt>
      <trkpt lat="42.291243" lon="-8.793335">
        <ele>158.2</ele>
        <time>1970-01-01T00:48:34.000Z</time>
      </trkpt>
      <trkpt lat="42.291242" lon="-8.793333">
        <ele>158.2</ele>
        <time>1970-01-01T00:48:35.000Z</time>
      </trkpt>
      <trkpt lat="42.291238" lon="-8.793328">
        <ele>158.2</ele>
        <time>1970-01-01T00:48:36.000Z</time>
      </trkpt>
      <trkpt lat="42.291227" lon="-8.79333">
        <ele>158.2</ele>
        <time>1970-01-01T00:48:37.000Z</time>
      </trkpt>
      <trkpt lat="42.291217" lon="-8.793333">
        <ele>159.3</ele>
        <time>1970-01-01T00:48:38.000Z</time>
      </trkpt>
      <trkpt lat="42.291207" lon="-8.793332">
        <ele>159.3</ele>
        <time>1970-01-01T00:48:39.000Z</time>
      </trkpt>
      <trkpt lat="42.291197" lon="-8.793327">
        <ele>159.3</ele>
        <time>1970-01-01T00:48:40.000Z</time>
      </trkpt>
      <trkpt lat="42.291185" lon="-8.793328">
        <ele>159.3</ele>
        <time>1970-01-01T00:48:41.000Z</time>
      </trkpt>
      <trkpt lat="42.291177" lon="-8.79333">
        <ele>159.3</ele>
        <time>1970-01-01T00:48:42.000Z</time>
      </trkpt>
      <trkpt lat="42.291175" lon="-8.793328">
        <ele>159.3</ele>
        <time>1970-01-01T00:48:43.000Z</time>
      </trkpt>
      <trkpt lat="42.291173" lon="-8.793327">
        <ele>159.3</ele>
        <time>1970-01-01T00:48:44.000Z</time>
      </trkpt>
      <trkpt lat="42.29117" lon="-8.793327">
        <ele>159.3</ele>
        <time>1970-01-01T00:48:45.000Z</time>
      </trkpt>
      <trkpt lat="42.291167" lon="-8.793327">
        <ele>159.3</ele>
        <time>1970-01-01T00:48:46.000Z</time>
      </trkpt>
      <trkpt lat="42.29116" lon="-8.793323">
        <ele>159.3</ele>
        <time>1970-01-01T00:48:47.000Z</time>
      </trkpt>
      <trkpt lat="42.291152" lon="-8.793318">
        <ele>159.3</ele>
        <time>1970-01-01T00:48:48.000Z</time>
      </trkpt>
      <trkpt lat="42.291138" lon="-8.793318">
        <ele>159.3</ele>
        <time>1970-01-01T00:48:49.000Z</time>
      </trkpt>
      <trkpt lat="42.291127" lon="-8.793318">
        <ele>159.3</ele>
        <time>1970-01-01T00:48:50.000Z</time>
      </trkpt>
      <trkpt lat="42.291115" lon="-8.793322">
        <ele>159.3</ele>
        <time>1970-01-01T00:48:51.000Z</time>
      </trkpt>
      <trkpt lat="42.291098" lon="-8.793328">
        <ele>159.3</ele>
        <time>1970-01-01T00:48:52.000Z</time>
      </trkpt>
      <trkpt lat="42.291088" lon="-8.793335">
        <ele>159.3</ele>
        <time>1970-01-01T00:48:53.000Z</time>
      </trkpt>
      <trkpt lat="42.291078" lon="-8.793338">
        <ele>159.3</ele>
        <time>1970-01-01T00:48:54.000Z</time>
      </trkpt>
      <trkpt lat="42.291068" lon="-8.793343">
        <ele>159.3</ele>
        <time>1970-01-01T00:48:55.000Z</time>
      </trkpt>
      <trkpt lat="42.291058" lon="-8.793347">
        <ele>158.2</ele>
        <time>1970-01-01T00:48:56.000Z</time>
      </trkpt>
      <trkpt lat="42.29105" lon="-8.79335">
        <ele>158.2</ele>
        <time>1970-01-01T00:48:57.000Z</time>
      </trkpt>
      <trkpt lat="42.291037" lon="-8.79335">
        <ele>158.2</ele>
        <time>1970-01-01T00:48:58.000Z</time>
      </trkpt>
      <trkpt lat="42.291028" lon="-8.79335">
        <ele>158.2</ele>
        <time>1970-01-01T00:48:59.000Z</time>
      </trkpt>
      <trkpt lat="42.291017" lon="-8.793343">
        <ele>158.2</ele>
        <time>1970-01-01T00:49:00.000Z</time>
      </trkpt>
      <trkpt lat="42.291007" lon="-8.79334">
        <ele>158.2</ele>
        <time>1970-01-01T00:49:01.000Z</time>
      </trkpt>
      <trkpt lat="42.291" lon="-8.793343">
        <ele>158.2</ele>
        <time>1970-01-01T00:49:02.000Z</time>
      </trkpt>
      <trkpt lat="42.290988" lon="-8.79335">
        <ele>158.2</ele>
        <time>1970-01-01T00:49:03.000Z</time>
      </trkpt>
      <trkpt lat="42.290973" lon="-8.793352">
        <ele>157.3</ele>
        <time>1970-01-01T00:49:04.000Z</time>
      </trkpt>
      <trkpt lat="42.29096" lon="-8.793348">
        <ele>157.3</ele>
        <time>1970-01-01T00:49:05.000Z</time>
      </trkpt>
      <trkpt lat="42.290947" lon="-8.79335">
        <ele>157.3</ele>
        <time>1970-01-01T00:49:06.000Z</time>
      </trkpt>
      <trkpt lat="42.290937" lon="-8.793347">
        <ele>157.3</ele>
        <time>1970-01-01T00:49:07.000Z</time>
      </trkpt>
      <trkpt lat="42.29092" lon="-8.793347">
        <ele>157.3</ele>
        <time>1970-01-01T00:49:08.000Z</time>
      </trkpt>
      <trkpt lat="42.290912" lon="-8.793343">
        <ele>157.3</ele>
        <time>1970-01-01T00:49:09.000Z</time>
      </trkpt>
      <trkpt lat="42.2909" lon="-8.793345">
        <ele>157.3</ele>
        <time>1970-01-01T00:49:10.000Z</time>
      </trkpt>
      <trkpt lat="42.290885" lon="-8.79335">
        <ele>157.3</ele>
        <time>1970-01-01T00:49:11.000Z</time>
      </trkpt>
      <trkpt lat="42.290865" lon="-8.793355">
        <ele>157.3</ele>
        <time>1970-01-01T00:49:12.000Z</time>
      </trkpt>
      <trkpt lat="42.290847" lon="-8.793355">
        <ele>157.3</ele>
        <time>1970-01-01T00:49:13.000Z</time>
      </trkpt>
      <trkpt lat="42.290825" lon="-8.79336">
        <ele>157.3</ele>
        <time>1970-01-01T00:49:14.000Z</time>
      </trkpt>
      <trkpt lat="42.290815" lon="-8.793357">
        <ele>157.3</ele>
        <time>1970-01-01T00:49:15.000Z</time>
      </trkpt>
      <trkpt lat="42.290802" lon="-8.79335">
        <ele>156.2</ele>
        <time>1970-01-01T00:49:16.000Z</time>
      </trkpt>
      <trkpt lat="42.29079" lon="-8.793343">
        <ele>156.2</ele>
        <time>1970-01-01T00:49:17.000Z</time>
      </trkpt>
      <trkpt lat="42.290777" lon="-8.793342">
        <ele>156.2</ele>
        <time>1970-01-01T00:49:18.000Z</time>
      </trkpt>
      <trkpt lat="42.29075" lon="-8.79334">
        <ele>156.2</ele>
        <time>1970-01-01T00:49:19.000Z</time>
      </trkpt>
      <trkpt lat="42.290728" lon="-8.793338">
        <ele>157.3</ele>
        <time>1970-01-01T00:49:20.000Z</time>
      </trkpt>
      <trkpt lat="42.290713" lon="-8.793332">
        <ele>157.3</ele>
        <time>1970-01-01T00:49:21.000Z</time>
      </trkpt>
      <trkpt lat="42.290705" lon="-8.793328">
        <ele>157.3</ele>
        <time>1970-01-01T00:49:22.000Z</time>
      </trkpt>
      <trkpt lat="42.290692" lon="-8.793323">
        <ele>157.3</ele>
        <time>1970-01-01T00:49:23.000Z</time>
      </trkpt>
      <trkpt lat="42.290673" lon="-8.793325">
        <ele>157.3</ele>
        <time>1970-01-01T00:49:24.000Z</time>
      </trkpt>
      <trkpt lat="42.290658" lon="-8.793315">
        <ele>157.3</ele>
        <time>1970-01-01T00:49:25.000Z</time>
      </trkpt>
      <trkpt lat="42.290648" lon="-8.793305">
        <ele>155.3</ele>
        <time>1970-01-01T00:49:26.000Z</time>
      </trkpt>
      <trkpt lat="42.290628" lon="-8.793303">
        <ele>155.3</ele>
        <time>1970-01-01T00:49:27.000Z</time>
      </trkpt>
      <trkpt lat="42.290623" lon="-8.793303">
        <ele>154.2</ele>
        <time>1970-01-01T00:49:28.000Z</time>
      </trkpt>
      <trkpt lat="42.29061" lon="-8.793307">
        <ele>154.2</ele>
        <time>1970-01-01T00:49:29.000Z</time>
      </trkpt>
      <trkpt lat="42.2906" lon="-8.793312">
        <ele>154.2</ele>
        <time>1970-01-01T00:49:30.000Z</time>
      </trkpt>
      <trkpt lat="42.290593" lon="-8.793315">
        <ele>154.2</ele>
        <time>1970-01-01T00:49:31.000Z</time>
      </trkpt>
      <trkpt lat="42.290583" lon="-8.79332">
        <ele>153.3</ele>
        <time>1970-01-01T00:49:32.000Z</time>
      </trkpt>
      <trkpt lat="42.290575" lon="-8.79332">
        <ele>153.3</ele>
        <time>1970-01-01T00:49:33.000Z</time>
      </trkpt>
      <trkpt lat="42.290568" lon="-8.793318">
        <ele>153.3</ele>
        <time>1970-01-01T00:49:34.000Z</time>
      </trkpt>
      <trkpt lat="42.29056" lon="-8.79331">
        <ele>153.3</ele>
        <time>1970-01-01T00:49:35.000Z</time>
      </trkpt>
      <trkpt lat="42.290563" lon="-8.793313">
        <ele>153.3</ele>
        <time>1970-01-01T00:49:36.000Z</time>
      </trkpt>
      <trkpt lat="42.290558" lon="-8.793312">
        <ele>153.3</ele>
        <time>1970-01-01T00:49:37.000Z</time>
      </trkpt>
      <trkpt lat="42.29055" lon="-8.793298">
        <ele>152.2</ele>
        <time>1970-01-01T00:49:38.000Z</time>
      </trkpt>
      <trkpt lat="42.290538" lon="-8.793295">
        <ele>152.2</ele>
        <time>1970-01-01T00:49:39.000Z</time>
      </trkpt>
      <trkpt lat="42.29053" lon="-8.793302">
        <ele>152.2</ele>
        <time>1970-01-01T00:49:40.000Z</time>
      </trkpt>
      <trkpt lat="42.290518" lon="-8.793302">
        <ele>152.2</ele>
        <time>1970-01-01T00:49:41.000Z</time>
      </trkpt>
      <trkpt lat="42.290507" lon="-8.793302">
        <ele>152.2</ele>
        <time>1970-01-01T00:49:42.000Z</time>
      </trkpt>
      <trkpt lat="42.2905" lon="-8.7933">
        <ele>152.2</ele>
        <time>1970-01-01T00:49:43.000Z</time>
      </trkpt>
      <trkpt lat="42.290492" lon="-8.793303">
        <ele>152.2</ele>
        <time>1970-01-01T00:49:44.000Z</time>
      </trkpt>
      <trkpt lat="42.290483" lon="-8.793303">
        <ele>152.2</ele>
        <time>1970-01-01T00:49:45.000Z</time>
      </trkpt>
      <trkpt lat="42.290477" lon="-8.793305">
        <ele>151.3</ele>
        <time>1970-01-01T00:49:46.000Z</time>
      </trkpt>
      <trkpt lat="42.290467" lon="-8.793307">
        <ele>151.3</ele>
        <time>1970-01-01T00:49:47.000Z</time>
      </trkpt>
      <trkpt lat="42.29046" lon="-8.793308">
        <ele>151.3</ele>
        <time>1970-01-01T00:49:48.000Z</time>
      </trkpt>
      <trkpt lat="42.29045" lon="-8.793312">
        <ele>151.3</ele>
        <time>1970-01-01T00:49:49.000Z</time>
      </trkpt>
      <trkpt lat="42.29044" lon="-8.793318">
        <ele>150.3</ele>
        <time>1970-01-01T00:49:50.000Z</time>
      </trkpt>
      <trkpt lat="42.290433" lon="-8.793325">
        <ele>150.3</ele>
        <time>1970-01-01T00:49:51.000Z</time>
      </trkpt>
      <trkpt lat="42.29042" lon="-8.793328">
        <ele>150.3</ele>
        <time>1970-01-01T00:49:52.000Z</time>
      </trkpt>
      <trkpt lat="42.290405" lon="-8.79333">
        <ele>150.3</ele>
        <time>1970-01-01T00:49:53.000Z</time>
      </trkpt>
      <trkpt lat="42.290392" lon="-8.79333">
        <ele>150.3</ele>
        <time>1970-01-01T00:49:54.000Z</time>
      </trkpt>
      <trkpt lat="42.290382" lon="-8.793333">
        <ele>150.3</ele>
        <time>1970-01-01T00:49:55.000Z</time>
      </trkpt>
      <trkpt lat="42.290368" lon="-8.793338">
        <ele>150.3</ele>
        <time>1970-01-01T00:49:56.000Z</time>
      </trkpt>
      <trkpt lat="42.290355" lon="-8.793345">
        <ele>150.3</ele>
        <time>1970-01-01T00:49:57.000Z</time>
      </trkpt>
      <trkpt lat="42.29034" lon="-8.79335">
        <ele>150.3</ele>
        <time>1970-01-01T00:49:58.000Z</time>
      </trkpt>
      <trkpt lat="42.290325" lon="-8.793355">
        <ele>150.3</ele>
        <time>1970-01-01T00:49:59.000Z</time>
      </trkpt>
      <trkpt lat="42.290312" lon="-8.79336">
        <ele>149.2</ele>
        <time>1970-01-01T00:50:00.000Z</time>
      </trkpt>
      <trkpt lat="42.290302" lon="-8.79336">
        <ele>149.2</ele>
        <time>1970-01-01T00:50:01.000Z</time>
      </trkpt>
      <trkpt lat="42.290287" lon="-8.793363">
        <ele>149.2</ele>
        <time>1970-01-01T00:50:02.000Z</time>
      </trkpt>
      <trkpt lat="42.290262" lon="-8.793368">
        <ele>149.2</ele>
        <time>1970-01-01T00:50:03.000Z</time>
      </trkpt>
      <trkpt lat="42.290247" lon="-8.793372">
        <ele>149.2</ele>
        <time>1970-01-01T00:50:04.000Z</time>
      </trkpt>
      <trkpt lat="42.290238" lon="-8.79337">
        <ele>149.2</ele>
        <time>1970-01-01T00:50:05.000Z</time>
      </trkpt>
      <trkpt lat="42.290223" lon="-8.793372">
        <ele>149.2</ele>
        <time>1970-01-01T00:50:06.000Z</time>
      </trkpt>
      <trkpt lat="42.290207" lon="-8.793373">
        <ele>149.2</ele>
        <time>1970-01-01T00:50:07.000Z</time>
      </trkpt>
      <trkpt lat="42.290192" lon="-8.79338">
        <ele>149.2</ele>
        <time>1970-01-01T00:50:08.000Z</time>
      </trkpt>
      <trkpt lat="42.290173" lon="-8.793392">
        <ele>149.2</ele>
        <time>1970-01-01T00:50:09.000Z</time>
      </trkpt>
      <trkpt lat="42.290162" lon="-8.7934">
        <ele>149.2</ele>
        <time>1970-01-01T00:50:10.000Z</time>
      </trkpt>
      <trkpt lat="42.290143" lon="-8.793415">
        <ele>149.2</ele>
        <time>1970-01-01T00:50:11.000Z</time>
      </trkpt>
      <trkpt lat="42.290127" lon="-8.793422">
        <ele>147.2</ele>
        <time>1970-01-01T00:50:12.000Z</time>
      </trkpt>
      <trkpt lat="42.290113" lon="-8.793428">
        <ele>147.2</ele>
        <time>1970-01-01T00:50:13.000Z</time>
      </trkpt>
      <trkpt lat="42.290102" lon="-8.793432">
        <ele>147.2</ele>
        <time>1970-01-01T00:50:14.000Z</time>
      </trkpt>
      <trkpt lat="42.290088" lon="-8.793438">
        <ele>147.2</ele>
        <time>1970-01-01T00:50:15.000Z</time>
      </trkpt>
      <trkpt lat="42.290075" lon="-8.793445">
        <ele>147.2</ele>
        <time>1970-01-01T00:50:16.000Z</time>
      </trkpt>
      <trkpt lat="42.290065" lon="-8.793447">
        <ele>147.2</ele>
        <time>1970-01-01T00:50:17.000Z</time>
      </trkpt>
      <trkpt lat="42.290052" lon="-8.793447">
        <ele>147.2</ele>
        <time>1970-01-01T00:50:18.000Z</time>
      </trkpt>
      <trkpt lat="42.290038" lon="-8.793448">
        <ele>147.2</ele>
        <time>1970-01-01T00:50:19.000Z</time>
      </trkpt>
      <trkpt lat="42.290027" lon="-8.793455">
        <ele>147.2</ele>
        <time>1970-01-01T00:50:20.000Z</time>
      </trkpt>
      <trkpt lat="42.290013" lon="-8.793458">
        <ele>147.2</ele>
        <time>1970-01-01T00:50:21.000Z</time>
      </trkpt>
      <trkpt lat="42.290005" lon="-8.793458">
        <ele>147.2</ele>
        <time>1970-01-01T00:50:22.000Z</time>
      </trkpt>
      <trkpt lat="42.289993" lon="-8.793463">
        <ele>147.2</ele>
        <time>1970-01-01T00:50:23.000Z</time>
      </trkpt>
      <trkpt lat="42.28998" lon="-8.793467">
        <ele>147.2</ele>
        <time>1970-01-01T00:50:24.000Z</time>
      </trkpt>
      <trkpt lat="42.289968" lon="-8.79347">
        <ele>147.2</ele>
        <time>1970-01-01T00:50:25.000Z</time>
      </trkpt>
      <trkpt lat="42.28996" lon="-8.793477">
        <ele>147.2</ele>
        <time>1970-01-01T00:50:26.000Z</time>
      </trkpt>
      <trkpt lat="42.28995" lon="-8.793478">
        <ele>147.2</ele>
        <time>1970-01-01T00:50:27.000Z</time>
      </trkpt>
      <trkpt lat="42.28994" lon="-8.793482">
        <ele>147.2</ele>
        <time>1970-01-01T00:50:28.000Z</time>
      </trkpt>
      <trkpt lat="42.289928" lon="-8.793482">
        <ele>147.2</ele>
        <time>1970-01-01T00:50:29.000Z</time>
      </trkpt>
      <trkpt lat="42.289918" lon="-8.79348">
        <ele>147.2</ele>
        <time>1970-01-01T00:50:30.000Z</time>
      </trkpt>
      <trkpt lat="42.289908" lon="-8.79348">
        <ele>147.2</ele>
        <time>1970-01-01T00:50:31.000Z</time>
      </trkpt>
      <trkpt lat="42.289898" lon="-8.79348">
        <ele>147.2</ele>
        <time>1970-01-01T00:50:32.000Z</time>
      </trkpt>
      <trkpt lat="42.289885" lon="-8.79348">
        <ele>147.2</ele>
        <time>1970-01-01T00:50:33.000Z</time>
      </trkpt>
      <trkpt lat="42.289877" lon="-8.793472">
        <ele>147.2</ele>
        <time>1970-01-01T00:50:34.000Z</time>
      </trkpt>
      <trkpt lat="42.289865" lon="-8.793472">
        <ele>147.2</ele>
        <time>1970-01-01T00:50:35.000Z</time>
      </trkpt>
      <trkpt lat="42.289857" lon="-8.793472">
        <ele>147.2</ele>
        <time>1970-01-01T00:50:36.000Z</time>
      </trkpt>
      <trkpt lat="42.289843" lon="-8.79347">
        <ele>147.2</ele>
        <time>1970-01-01T00:50:37.000Z</time>
      </trkpt>
      <trkpt lat="42.289832" lon="-8.793468">
        <ele>148.3</ele>
        <time>1970-01-01T00:50:38.000Z</time>
      </trkpt>
      <trkpt lat="42.289817" lon="-8.793467">
        <ele>148.3</ele>
        <time>1970-01-01T00:50:39.000Z</time>
      </trkpt>
      <trkpt lat="42.289805" lon="-8.79346">
        <ele>148.3</ele>
        <time>1970-01-01T00:50:40.000Z</time>
      </trkpt>
      <trkpt lat="42.289792" lon="-8.793452">
        <ele>148.3</ele>
        <time>1970-01-01T00:50:41.000Z</time>
      </trkpt>
      <trkpt lat="42.289778" lon="-8.793448">
        <ele>148.3</ele>
        <time>1970-01-01T00:50:42.000Z</time>
      </trkpt>
      <trkpt lat="42.289765" lon="-8.793452">
        <ele>148.3</ele>
        <time>1970-01-01T00:50:43.000Z</time>
      </trkpt>
      <trkpt lat="42.289758" lon="-8.793452">
        <ele>148.3</ele>
        <time>1970-01-01T00:50:44.000Z</time>
      </trkpt>
      <trkpt lat="42.289747" lon="-8.793452">
        <ele>148.3</ele>
        <time>1970-01-01T00:50:45.000Z</time>
      </trkpt>
      <trkpt lat="42.289738" lon="-8.79345">
        <ele>148.3</ele>
        <time>1970-01-01T00:50:46.000Z</time>
      </trkpt>
      <trkpt lat="42.289727" lon="-8.79345">
        <ele>148.3</ele>
        <time>1970-01-01T00:50:47.000Z</time>
      </trkpt>
      <trkpt lat="42.289713" lon="-8.793445">
        <ele>148.3</ele>
        <time>1970-01-01T00:50:48.000Z</time>
      </trkpt>
      <trkpt lat="42.289702" lon="-8.79344">
        <ele>148.3</ele>
        <time>1970-01-01T00:50:49.000Z</time>
      </trkpt>
      <trkpt lat="42.289683" lon="-8.793437">
        <ele>148.3</ele>
        <time>1970-01-01T00:50:50.000Z</time>
      </trkpt>
      <trkpt lat="42.28967" lon="-8.793437">
        <ele>148.3</ele>
        <time>1970-01-01T00:50:51.000Z</time>
      </trkpt>
      <trkpt lat="42.289655" lon="-8.793435">
        <ele>148.3</ele>
        <time>1970-01-01T00:50:52.000Z</time>
      </trkpt>
      <trkpt lat="42.289642" lon="-8.793435">
        <ele>148.3</ele>
        <time>1970-01-01T00:50:53.000Z</time>
      </trkpt>
      <trkpt lat="42.289625" lon="-8.793433">
        <ele>150.3</ele>
        <time>1970-01-01T00:50:54.000Z</time>
      </trkpt>
      <trkpt lat="42.28961" lon="-8.793433">
        <ele>150.3</ele>
        <time>1970-01-01T00:50:55.000Z</time>
      </trkpt>
      <trkpt lat="42.28959" lon="-8.793433">
        <ele>150.3</ele>
        <time>1970-01-01T00:50:56.000Z</time>
      </trkpt>
      <trkpt lat="42.289578" lon="-8.79343">
        <ele>150.3</ele>
        <time>1970-01-01T00:50:57.000Z</time>
      </trkpt>
      <trkpt lat="42.289567" lon="-8.793425">
        <ele>150.3</ele>
        <time>1970-01-01T00:50:58.000Z</time>
      </trkpt>
      <trkpt lat="42.289553" lon="-8.79342">
        <ele>150.3</ele>
        <time>1970-01-01T00:50:59.000Z</time>
      </trkpt>
      <trkpt lat="42.28954" lon="-8.793413">
        <ele>150.3</ele>
        <time>1970-01-01T00:51:00.000Z</time>
      </trkpt>
      <trkpt lat="42.289523" lon="-8.793413">
        <ele>150.3</ele>
        <time>1970-01-01T00:51:01.000Z</time>
      </trkpt>
      <trkpt lat="42.289503" lon="-8.793415">
        <ele>149.2</ele>
        <time>1970-01-01T00:51:02.000Z</time>
      </trkpt>
      <trkpt lat="42.289487" lon="-8.793417">
        <ele>149.2</ele>
        <time>1970-01-01T00:51:03.000Z</time>
      </trkpt>
      <trkpt lat="42.289477" lon="-8.79342">
        <ele>149.2</ele>
        <time>1970-01-01T00:51:04.000Z</time>
      </trkpt>
      <trkpt lat="42.289467" lon="-8.79342">
        <ele>149.2</ele>
        <time>1970-01-01T00:51:05.000Z</time>
      </trkpt>
      <trkpt lat="42.289457" lon="-8.79342">
        <ele>149.2</ele>
        <time>1970-01-01T00:51:06.000Z</time>
      </trkpt>
      <trkpt lat="42.289443" lon="-8.793418">
        <ele>149.2</ele>
        <time>1970-01-01T00:51:07.000Z</time>
      </trkpt>
      <trkpt lat="42.289428" lon="-8.793423">
        <ele>149.2</ele>
        <time>1970-01-01T00:51:08.000Z</time>
      </trkpt>
      <trkpt lat="42.289412" lon="-8.793413">
        <ele>149.2</ele>
        <time>1970-01-01T00:51:09.000Z</time>
      </trkpt>
      <trkpt lat="42.289395" lon="-8.79342">
        <ele>149.2</ele>
        <time>1970-01-01T00:51:10.000Z</time>
      </trkpt>
      <trkpt lat="42.28938" lon="-8.793418">
        <ele>149.2</ele>
        <time>1970-01-01T00:51:11.000Z</time>
      </trkpt>
      <trkpt lat="42.289363" lon="-8.793427">
        <ele>149.2</ele>
        <time>1970-01-01T00:51:12.000Z</time>
      </trkpt>
      <trkpt lat="42.289342" lon="-8.793418">
        <ele>149.2</ele>
        <time>1970-01-01T00:51:13.000Z</time>
      </trkpt>
      <trkpt lat="42.289328" lon="-8.793418">
        <ele>149.2</ele>
        <time>1970-01-01T00:51:14.000Z</time>
      </trkpt>
      <trkpt lat="42.289315" lon="-8.793422">
        <ele>149.2</ele>
        <time>1970-01-01T00:51:15.000Z</time>
      </trkpt>
      <trkpt lat="42.289303" lon="-8.79342">
        <ele>149.2</ele>
        <time>1970-01-01T00:51:16.000Z</time>
      </trkpt>
      <trkpt lat="42.28929" lon="-8.793418">
        <ele>148.3</ele>
        <time>1970-01-01T00:51:17.000Z</time>
      </trkpt>
      <trkpt lat="42.289273" lon="-8.793418">
        <ele>148.3</ele>
        <time>1970-01-01T00:51:18.000Z</time>
      </trkpt>
      <trkpt lat="42.289258" lon="-8.793418">
        <ele>148.3</ele>
        <time>1970-01-01T00:51:19.000Z</time>
      </trkpt>
      <trkpt lat="42.289245" lon="-8.793425">
        <ele>148.3</ele>
        <time>1970-01-01T00:51:20.000Z</time>
      </trkpt>
      <trkpt lat="42.289237" lon="-8.793433">
        <ele>147.2</ele>
        <time>1970-01-01T00:51:21.000Z</time>
      </trkpt>
      <trkpt lat="42.289225" lon="-8.793438">
        <ele>147.2</ele>
        <time>1970-01-01T00:51:22.000Z</time>
      </trkpt>
      <trkpt lat="42.289212" lon="-8.79344">
        <ele>147.2</ele>
        <time>1970-01-01T00:51:23.000Z</time>
      </trkpt>
      <trkpt lat="42.289202" lon="-8.793442">
        <ele>147.2</ele>
        <time>1970-01-01T00:51:24.000Z</time>
      </trkpt>
      <trkpt lat="42.289197" lon="-8.793447">
        <ele>146.3</ele>
        <time>1970-01-01T00:51:25.000Z</time>
      </trkpt>
      <trkpt lat="42.289183" lon="-8.79345">
        <ele>146.3</ele>
        <time>1970-01-01T00:51:26.000Z</time>
      </trkpt>
      <trkpt lat="42.289172" lon="-8.793455">
        <ele>146.3</ele>
        <time>1970-01-01T00:51:27.000Z</time>
      </trkpt>
      <trkpt lat="42.289162" lon="-8.793458">
        <ele>146.3</ele>
        <time>1970-01-01T00:51:28.000Z</time>
      </trkpt>
      <trkpt lat="42.289148" lon="-8.793467">
        <ele>146.3</ele>
        <time>1970-01-01T00:51:29.000Z</time>
      </trkpt>
      <trkpt lat="42.28913" lon="-8.793475">
        <ele>146.3</ele>
        <time>1970-01-01T00:51:30.000Z</time>
      </trkpt>
      <trkpt lat="42.28912" lon="-8.793483">
        <ele>146.3</ele>
        <time>1970-01-01T00:51:31.000Z</time>
      </trkpt>
      <trkpt lat="42.289108" lon="-8.793492">
        <ele>146.3</ele>
        <time>1970-01-01T00:51:32.000Z</time>
      </trkpt>
      <trkpt lat="42.289093" lon="-8.793498">
        <ele>146.3</ele>
        <time>1970-01-01T00:51:33.000Z</time>
      </trkpt>
      <trkpt lat="42.289082" lon="-8.79351">
        <ele>146.3</ele>
        <time>1970-01-01T00:51:34.000Z</time>
      </trkpt>
      <trkpt lat="42.289065" lon="-8.79352">
        <ele>146.3</ele>
        <time>1970-01-01T00:51:35.000Z</time>
      </trkpt>
      <trkpt lat="42.289055" lon="-8.793527">
        <ele>146.3</ele>
        <time>1970-01-01T00:51:36.000Z</time>
      </trkpt>
      <trkpt lat="42.28904" lon="-8.793533">
        <ele>146.3</ele>
        <time>1970-01-01T00:51:37.000Z</time>
      </trkpt>
      <trkpt lat="42.289025" lon="-8.793537">
        <ele>146.3</ele>
        <time>1970-01-01T00:51:38.000Z</time>
      </trkpt>
      <trkpt lat="42.28901" lon="-8.79354">
        <ele>146.3</ele>
        <time>1970-01-01T00:51:39.000Z</time>
      </trkpt>
      <trkpt lat="42.28899" lon="-8.793542">
        <ele>146.3</ele>
        <time>1970-01-01T00:51:40.000Z</time>
      </trkpt>
      <trkpt lat="42.288977" lon="-8.793548">
        <ele>146.3</ele>
        <time>1970-01-01T00:51:41.000Z</time>
      </trkpt>
      <trkpt lat="42.288967" lon="-8.793553">
        <ele>146.3</ele>
        <time>1970-01-01T00:51:42.000Z</time>
      </trkpt>
      <trkpt lat="42.288955" lon="-8.793562">
        <ele>147.2</ele>
        <time>1970-01-01T00:51:43.000Z</time>
      </trkpt>
      <trkpt lat="42.288943" lon="-8.793568">
        <ele>147.2</ele>
        <time>1970-01-01T00:51:44.000Z</time>
      </trkpt>
      <trkpt lat="42.288933" lon="-8.793577">
        <ele>147.2</ele>
        <time>1970-01-01T00:51:45.000Z</time>
      </trkpt>
      <trkpt lat="42.288922" lon="-8.79358">
        <ele>147.2</ele>
        <time>1970-01-01T00:51:46.000Z</time>
      </trkpt>
      <trkpt lat="42.288912" lon="-8.793588">
        <ele>147.2</ele>
        <time>1970-01-01T00:51:47.000Z</time>
      </trkpt>
      <trkpt lat="42.288898" lon="-8.793595">
        <ele>147.2</ele>
        <time>1970-01-01T00:51:48.000Z</time>
      </trkpt>
      <trkpt lat="42.288888" lon="-8.793602">
        <ele>148.3</ele>
        <time>1970-01-01T00:51:49.000Z</time>
      </trkpt>
      <trkpt lat="42.288883" lon="-8.793607">
        <ele>148.3</ele>
        <time>1970-01-01T00:51:50.000Z</time>
      </trkpt>
      <trkpt lat="42.288873" lon="-8.793618">
        <ele>148.3</ele>
        <time>1970-01-01T00:51:51.000Z</time>
      </trkpt>
      <trkpt lat="42.288867" lon="-8.793622">
        <ele>148.3</ele>
        <time>1970-01-01T00:51:52.000Z</time>
      </trkpt>
      <trkpt lat="42.288855" lon="-8.793628">
        <ele>148.3</ele>
        <time>1970-01-01T00:51:53.000Z</time>
      </trkpt>
      <trkpt lat="42.288847" lon="-8.793633">
        <ele>148.3</ele>
        <time>1970-01-01T00:51:54.000Z</time>
      </trkpt>
      <trkpt lat="42.288838" lon="-8.79364">
        <ele>149.2</ele>
        <time>1970-01-01T00:51:55.000Z</time>
      </trkpt>
      <trkpt lat="42.288828" lon="-8.793648">
        <ele>149.2</ele>
        <time>1970-01-01T00:51:56.000Z</time>
      </trkpt>
      <trkpt lat="42.288818" lon="-8.793653">
        <ele>149.2</ele>
        <time>1970-01-01T00:51:57.000Z</time>
      </trkpt>
      <trkpt lat="42.288808" lon="-8.793665">
        <ele>149.2</ele>
        <time>1970-01-01T00:51:58.000Z</time>
      </trkpt>
      <trkpt lat="42.288793" lon="-8.793678">
        <ele>149.2</ele>
        <time>1970-01-01T00:51:59.000Z</time>
      </trkpt>
      <trkpt lat="42.288782" lon="-8.793688">
        <ele>149.2</ele>
        <time>1970-01-01T00:52:00.000Z</time>
      </trkpt>
      <trkpt lat="42.288772" lon="-8.7937">
        <ele>149.2</ele>
        <time>1970-01-01T00:52:01.000Z</time>
      </trkpt>
      <trkpt lat="42.288762" lon="-8.793713">
        <ele>149.2</ele>
        <time>1970-01-01T00:52:02.000Z</time>
      </trkpt>
      <trkpt lat="42.28875" lon="-8.793723">
        <ele>149.2</ele>
        <time>1970-01-01T00:52:03.000Z</time>
      </trkpt>
      <trkpt lat="42.28874" lon="-8.793733">
        <ele>149.2</ele>
        <time>1970-01-01T00:52:04.000Z</time>
      </trkpt>
      <trkpt lat="42.288728" lon="-8.793747">
        <ele>149.2</ele>
        <time>1970-01-01T00:52:05.000Z</time>
      </trkpt>
      <trkpt lat="42.28872" lon="-8.793755">
        <ele>149.2</ele>
        <time>1970-01-01T00:52:06.000Z</time>
      </trkpt>
      <trkpt lat="42.28871" lon="-8.793772">
        <ele>149.2</ele>
        <time>1970-01-01T00:52:07.000Z</time>
      </trkpt>
      <trkpt lat="42.2887" lon="-8.793787">
        <ele>149.2</ele>
        <time>1970-01-01T00:52:08.000Z</time>
      </trkpt>
      <trkpt lat="42.288688" lon="-8.793798">
        <ele>149.2</ele>
        <time>1970-01-01T00:52:09.000Z</time>
      </trkpt>
      <trkpt lat="42.288682" lon="-8.793808">
        <ele>149.2</ele>
        <time>1970-01-01T00:52:10.000Z</time>
      </trkpt>
      <trkpt lat="42.28867" lon="-8.793822">
        <ele>149.2</ele>
        <time>1970-01-01T00:52:11.000Z</time>
      </trkpt>
      <trkpt lat="42.28866" lon="-8.79383">
        <ele>149.2</ele>
        <time>1970-01-01T00:52:12.000Z</time>
      </trkpt>
      <trkpt lat="42.28865" lon="-8.79384">
        <ele>149.2</ele>
        <time>1970-01-01T00:52:13.000Z</time>
      </trkpt>
      <trkpt lat="42.288638" lon="-8.793853">
        <ele>149.2</ele>
        <time>1970-01-01T00:52:14.000Z</time>
      </trkpt>
      <trkpt lat="42.288632" lon="-8.793865">
        <ele>149.2</ele>
        <time>1970-01-01T00:52:15.000Z</time>
      </trkpt>
      <trkpt lat="42.288627" lon="-8.793875">
        <ele>149.2</ele>
        <time>1970-01-01T00:52:16.000Z</time>
      </trkpt>
      <trkpt lat="42.288617" lon="-8.79389">
        <ele>149.2</ele>
        <time>1970-01-01T00:52:17.000Z</time>
      </trkpt>
      <trkpt lat="42.288608" lon="-8.793905">
        <ele>149.2</ele>
        <time>1970-01-01T00:52:18.000Z</time>
      </trkpt>
      <trkpt lat="42.288598" lon="-8.793917">
        <ele>149.2</ele>
        <time>1970-01-01T00:52:19.000Z</time>
      </trkpt>
      <trkpt lat="42.288588" lon="-8.793927">
        <ele>149.2</ele>
        <time>1970-01-01T00:52:20.000Z</time>
      </trkpt>
      <trkpt lat="42.288577" lon="-8.79394">
        <ele>149.2</ele>
        <time>1970-01-01T00:52:21.000Z</time>
      </trkpt>
      <trkpt lat="42.288565" lon="-8.793955">
        <ele>149.2</ele>
        <time>1970-01-01T00:52:22.000Z</time>
      </trkpt>
      <trkpt lat="42.288553" lon="-8.793972">
        <ele>149.2</ele>
        <time>1970-01-01T00:52:23.000Z</time>
      </trkpt>
      <trkpt lat="42.288543" lon="-8.793982">
        <ele>149.2</ele>
        <time>1970-01-01T00:52:24.000Z</time>
      </trkpt>
      <trkpt lat="42.288533" lon="-8.79399">
        <ele>149.2</ele>
        <time>1970-01-01T00:52:25.000Z</time>
      </trkpt>
      <trkpt lat="42.288522" lon="-8.794">
        <ele>149.2</ele>
        <time>1970-01-01T00:52:26.000Z</time>
      </trkpt>
      <trkpt lat="42.288512" lon="-8.79401">
        <ele>149.2</ele>
        <time>1970-01-01T00:52:27.000Z</time>
      </trkpt>
      <trkpt lat="42.288503" lon="-8.794023">
        <ele>149.2</ele>
        <time>1970-01-01T00:52:28.000Z</time>
      </trkpt>
      <trkpt lat="42.288493" lon="-8.794035">
        <ele>149.2</ele>
        <time>1970-01-01T00:52:29.000Z</time>
      </trkpt>
      <trkpt lat="42.288485" lon="-8.794045">
        <ele>149.2</ele>
        <time>1970-01-01T00:52:30.000Z</time>
      </trkpt>
      <trkpt lat="42.288475" lon="-8.794058">
        <ele>149.2</ele>
        <time>1970-01-01T00:52:31.000Z</time>
      </trkpt>
      <trkpt lat="42.288465" lon="-8.79407">
        <ele>149.2</ele>
        <time>1970-01-01T00:52:32.000Z</time>
      </trkpt>
      <trkpt lat="42.288455" lon="-8.794082">
        <ele>149.2</ele>
        <time>1970-01-01T00:52:33.000Z</time>
      </trkpt>
      <trkpt lat="42.288447" lon="-8.79409">
        <ele>149.2</ele>
        <time>1970-01-01T00:52:34.000Z</time>
      </trkpt>
      <trkpt lat="42.288437" lon="-8.7941">
        <ele>149.2</ele>
        <time>1970-01-01T00:52:35.000Z</time>
      </trkpt>
      <trkpt lat="42.288425" lon="-8.794112">
        <ele>149.2</ele>
        <time>1970-01-01T00:52:36.000Z</time>
      </trkpt>
      <trkpt lat="42.288413" lon="-8.794125">
        <ele>148.3</ele>
        <time>1970-01-01T00:52:37.000Z</time>
      </trkpt>
      <trkpt lat="42.288402" lon="-8.794132">
        <ele>148.3</ele>
        <time>1970-01-01T00:52:38.000Z</time>
      </trkpt>
      <trkpt lat="42.28839" lon="-8.794143">
        <ele>148.3</ele>
        <time>1970-01-01T00:52:39.000Z</time>
      </trkpt>
      <trkpt lat="42.288382" lon="-8.794152">
        <ele>148.3</ele>
        <time>1970-01-01T00:52:40.000Z</time>
      </trkpt>
      <trkpt lat="42.288368" lon="-8.794158">
        <ele>148.3</ele>
        <time>1970-01-01T00:52:41.000Z</time>
      </trkpt>
      <trkpt lat="42.288357" lon="-8.794165">
        <ele>148.3</ele>
        <time>1970-01-01T00:52:42.000Z</time>
      </trkpt>
      <trkpt lat="42.28834" lon="-8.794177">
        <ele>148.3</ele>
        <time>1970-01-01T00:52:43.000Z</time>
      </trkpt>
      <trkpt lat="42.288328" lon="-8.794187">
        <ele>148.3</ele>
        <time>1970-01-01T00:52:44.000Z</time>
      </trkpt>
      <trkpt lat="42.288315" lon="-8.794195">
        <ele>148.3</ele>
        <time>1970-01-01T00:52:45.000Z</time>
      </trkpt>
      <trkpt lat="42.288307" lon="-8.794202">
        <ele>148.3</ele>
        <time>1970-01-01T00:52:46.000Z</time>
      </trkpt>
      <trkpt lat="42.288295" lon="-8.794212">
        <ele>148.3</ele>
        <time>1970-01-01T00:52:47.000Z</time>
      </trkpt>
      <trkpt lat="42.288282" lon="-8.794218">
        <ele>148.3</ele>
        <time>1970-01-01T00:52:48.000Z</time>
      </trkpt>
      <trkpt lat="42.28827" lon="-8.794225">
        <ele>148.3</ele>
        <time>1970-01-01T00:52:49.000Z</time>
      </trkpt>
      <trkpt lat="42.288262" lon="-8.79423">
        <ele>148.3</ele>
        <time>1970-01-01T00:52:50.000Z</time>
      </trkpt>
      <trkpt lat="42.28825" lon="-8.794237">
        <ele>148.3</ele>
        <time>1970-01-01T00:52:51.000Z</time>
      </trkpt>
      <trkpt lat="42.288235" lon="-8.794243">
        <ele>148.3</ele>
        <time>1970-01-01T00:52:52.000Z</time>
      </trkpt>
      <trkpt lat="42.288222" lon="-8.794252">
        <ele>148.3</ele>
        <time>1970-01-01T00:52:53.000Z</time>
      </trkpt>
      <trkpt lat="42.288212" lon="-8.794257">
        <ele>148.3</ele>
        <time>1970-01-01T00:52:54.000Z</time>
      </trkpt>
      <trkpt lat="42.288195" lon="-8.794265">
        <ele>148.3</ele>
        <time>1970-01-01T00:52:55.000Z</time>
      </trkpt>
      <trkpt lat="42.288185" lon="-8.794272">
        <ele>148.3</ele>
        <time>1970-01-01T00:52:56.000Z</time>
      </trkpt>
      <trkpt lat="42.288173" lon="-8.794278">
        <ele>148.3</ele>
        <time>1970-01-01T00:52:57.000Z</time>
      </trkpt>
      <trkpt lat="42.288163" lon="-8.794287">
        <ele>148.3</ele>
        <time>1970-01-01T00:52:58.000Z</time>
      </trkpt>
      <trkpt lat="42.288148" lon="-8.794295">
        <ele>148.3</ele>
        <time>1970-01-01T00:52:59.000Z</time>
      </trkpt>
      <trkpt lat="42.288135" lon="-8.794305">
        <ele>148.3</ele>
        <time>1970-01-01T00:53:00.000Z</time>
      </trkpt>
      <trkpt lat="42.288127" lon="-8.79431">
        <ele>148.3</ele>
        <time>1970-01-01T00:53:01.000Z</time>
      </trkpt>
      <trkpt lat="42.288115" lon="-8.794313">
        <ele>148.3</ele>
        <time>1970-01-01T00:53:02.000Z</time>
      </trkpt>
      <trkpt lat="42.288102" lon="-8.79432">
        <ele>148.3</ele>
        <time>1970-01-01T00:53:03.000Z</time>
      </trkpt>
      <trkpt lat="42.288088" lon="-8.794325">
        <ele>148.3</ele>
        <time>1970-01-01T00:53:04.000Z</time>
      </trkpt>
      <trkpt lat="42.288077" lon="-8.79433">
        <ele>147.2</ele>
        <time>1970-01-01T00:53:05.000Z</time>
      </trkpt>
      <trkpt lat="42.288062" lon="-8.79434">
        <ele>147.2</ele>
        <time>1970-01-01T00:53:06.000Z</time>
      </trkpt>
      <trkpt lat="42.288052" lon="-8.794345">
        <ele>147.2</ele>
        <time>1970-01-01T00:53:07.000Z</time>
      </trkpt>
      <trkpt lat="42.288038" lon="-8.794353">
        <ele>147.2</ele>
        <time>1970-01-01T00:53:08.000Z</time>
      </trkpt>
      <trkpt lat="42.288025" lon="-8.794362">
        <ele>147.2</ele>
        <time>1970-01-01T00:53:09.000Z</time>
      </trkpt>
      <trkpt lat="42.288012" lon="-8.794368">
        <ele>147.2</ele>
        <time>1970-01-01T00:53:10.000Z</time>
      </trkpt>
      <trkpt lat="42.287995" lon="-8.794375">
        <ele>147.2</ele>
        <time>1970-01-01T00:53:11.000Z</time>
      </trkpt>
      <trkpt lat="42.287985" lon="-8.79438">
        <ele>147.2</ele>
        <time>1970-01-01T00:53:12.000Z</time>
      </trkpt>
      <trkpt lat="42.28797" lon="-8.794393">
        <ele>147.2</ele>
        <time>1970-01-01T00:53:13.000Z</time>
      </trkpt>
      <trkpt lat="42.287962" lon="-8.794402">
        <ele>147.2</ele>
        <time>1970-01-01T00:53:14.000Z</time>
      </trkpt>
      <trkpt lat="42.287943" lon="-8.794412">
        <ele>147.2</ele>
        <time>1970-01-01T00:53:15.000Z</time>
      </trkpt>
      <trkpt lat="42.287928" lon="-8.794422">
        <ele>147.2</ele>
        <time>1970-01-01T00:53:16.000Z</time>
      </trkpt>
      <trkpt lat="42.287917" lon="-8.794427">
        <ele>147.2</ele>
        <time>1970-01-01T00:53:17.000Z</time>
      </trkpt>
      <trkpt lat="42.287905" lon="-8.79443">
        <ele>147.2</ele>
        <time>1970-01-01T00:53:18.000Z</time>
      </trkpt>
      <trkpt lat="42.287893" lon="-8.79444">
        <ele>147.2</ele>
        <time>1970-01-01T00:53:19.000Z</time>
      </trkpt>
      <trkpt lat="42.287882" lon="-8.794448">
        <ele>147.2</ele>
        <time>1970-01-01T00:53:20.000Z</time>
      </trkpt>
      <trkpt lat="42.28787" lon="-8.794457">
        <ele>147.2</ele>
        <time>1970-01-01T00:53:21.000Z</time>
      </trkpt>
      <trkpt lat="42.287858" lon="-8.794465">
        <ele>147.2</ele>
        <time>1970-01-01T00:53:22.000Z</time>
      </trkpt>
      <trkpt lat="42.287847" lon="-8.794475">
        <ele>147.2</ele>
        <time>1970-01-01T00:53:23.000Z</time>
      </trkpt>
      <trkpt lat="42.28783" lon="-8.794482">
        <ele>147.2</ele>
        <time>1970-01-01T00:53:24.000Z</time>
      </trkpt>
      <trkpt lat="42.287813" lon="-8.794487">
        <ele>147.2</ele>
        <time>1970-01-01T00:53:25.000Z</time>
      </trkpt>
      <trkpt lat="42.2878" lon="-8.794487">
        <ele>147.2</ele>
        <time>1970-01-01T00:53:26.000Z</time>
      </trkpt>
      <trkpt lat="42.287782" lon="-8.794488">
        <ele>147.2</ele>
        <time>1970-01-01T00:53:27.000Z</time>
      </trkpt>
      <trkpt lat="42.287772" lon="-8.794493">
        <ele>147.2</ele>
        <time>1970-01-01T00:53:28.000Z</time>
      </trkpt>
      <trkpt lat="42.287762" lon="-8.794502">
        <ele>147.2</ele>
        <time>1970-01-01T00:53:29.000Z</time>
      </trkpt>
      <trkpt lat="42.287752" lon="-8.79451">
        <ele>147.2</ele>
        <time>1970-01-01T00:53:30.000Z</time>
      </trkpt>
      <trkpt lat="42.287735" lon="-8.794522">
        <ele>147.2</ele>
        <time>1970-01-01T00:53:31.000Z</time>
      </trkpt>
      <trkpt lat="42.287722" lon="-8.794532">
        <ele>147.2</ele>
        <time>1970-01-01T00:53:32.000Z</time>
      </trkpt>
      <trkpt lat="42.28771" lon="-8.794542">
        <ele>147.2</ele>
        <time>1970-01-01T00:53:33.000Z</time>
      </trkpt>
      <trkpt lat="42.287698" lon="-8.79455">
        <ele>147.2</ele>
        <time>1970-01-01T00:53:34.000Z</time>
      </trkpt>
      <trkpt lat="42.287685" lon="-8.794558">
        <ele>146.3</ele>
        <time>1970-01-01T00:53:35.000Z</time>
      </trkpt>
      <trkpt lat="42.287672" lon="-8.794565">
        <ele>146.3</ele>
        <time>1970-01-01T00:53:36.000Z</time>
      </trkpt>
      <trkpt lat="42.287662" lon="-8.794565">
        <ele>146.3</ele>
        <time>1970-01-01T00:53:37.000Z</time>
      </trkpt>
      <trkpt lat="42.287648" lon="-8.794568">
        <ele>146.3</ele>
        <time>1970-01-01T00:53:38.000Z</time>
      </trkpt>
      <trkpt lat="42.287632" lon="-8.794578">
        <ele>146.3</ele>
        <time>1970-01-01T00:53:39.000Z</time>
      </trkpt>
      <trkpt lat="42.287623" lon="-8.794587">
        <ele>146.3</ele>
        <time>1970-01-01T00:53:40.000Z</time>
      </trkpt>
      <trkpt lat="42.287612" lon="-8.794595">
        <ele>146.3</ele>
        <time>1970-01-01T00:53:41.000Z</time>
      </trkpt>
      <trkpt lat="42.287603" lon="-8.79461">
        <ele>146.3</ele>
        <time>1970-01-01T00:53:42.000Z</time>
      </trkpt>
      <trkpt lat="42.287597" lon="-8.79462">
        <ele>147.2</ele>
        <time>1970-01-01T00:53:43.000Z</time>
      </trkpt>
      <trkpt lat="42.287583" lon="-8.79463">
        <ele>147.2</ele>
        <time>1970-01-01T00:53:44.000Z</time>
      </trkpt>
      <trkpt lat="42.287573" lon="-8.794642">
        <ele>147.2</ele>
        <time>1970-01-01T00:53:45.000Z</time>
      </trkpt>
      <trkpt lat="42.287558" lon="-8.794657">
        <ele>147.2</ele>
        <time>1970-01-01T00:53:46.000Z</time>
      </trkpt>
      <trkpt lat="42.287548" lon="-8.794663">
        <ele>147.2</ele>
        <time>1970-01-01T00:53:47.000Z</time>
      </trkpt>
      <trkpt lat="42.287535" lon="-8.794668">
        <ele>147.2</ele>
        <time>1970-01-01T00:53:48.000Z</time>
      </trkpt>
      <trkpt lat="42.287525" lon="-8.794678">
        <ele>147.2</ele>
        <time>1970-01-01T00:53:49.000Z</time>
      </trkpt>
      <trkpt lat="42.287512" lon="-8.794692">
        <ele>147.2</ele>
        <time>1970-01-01T00:53:50.000Z</time>
      </trkpt>
      <trkpt lat="42.2875" lon="-8.794702">
        <ele>146.3</ele>
        <time>1970-01-01T00:53:51.000Z</time>
      </trkpt>
      <trkpt lat="42.287488" lon="-8.79471">
        <ele>146.3</ele>
        <time>1970-01-01T00:53:52.000Z</time>
      </trkpt>
      <trkpt lat="42.287475" lon="-8.794723">
        <ele>146.3</ele>
        <time>1970-01-01T00:53:53.000Z</time>
      </trkpt>
      <trkpt lat="42.28746" lon="-8.794735">
        <ele>146.3</ele>
        <time>1970-01-01T00:53:54.000Z</time>
      </trkpt>
      <trkpt lat="42.287447" lon="-8.794745">
        <ele>146.3</ele>
        <time>1970-01-01T00:53:55.000Z</time>
      </trkpt>
      <trkpt lat="42.287435" lon="-8.794752">
        <ele>146.3</ele>
        <time>1970-01-01T00:53:56.000Z</time>
      </trkpt>
      <trkpt lat="42.287418" lon="-8.794762">
        <ele>145.2</ele>
        <time>1970-01-01T00:53:57.000Z</time>
      </trkpt>
      <trkpt lat="42.287408" lon="-8.79477">
        <ele>145.2</ele>
        <time>1970-01-01T00:53:58.000Z</time>
      </trkpt>
      <trkpt lat="42.287395" lon="-8.79478">
        <ele>145.2</ele>
        <time>1970-01-01T00:53:59.000Z</time>
      </trkpt>
      <trkpt lat="42.28738" lon="-8.79479">
        <ele>145.2</ele>
        <time>1970-01-01T00:54:00.000Z</time>
      </trkpt>
      <trkpt lat="42.287367" lon="-8.7948">
        <ele>145.2</ele>
        <time>1970-01-01T00:54:01.000Z</time>
      </trkpt>
      <trkpt lat="42.287352" lon="-8.794807">
        <ele>145.2</ele>
        <time>1970-01-01T00:54:02.000Z</time>
      </trkpt>
      <trkpt lat="42.287342" lon="-8.794817">
        <ele>145.2</ele>
        <time>1970-01-01T00:54:03.000Z</time>
      </trkpt>
      <trkpt lat="42.287328" lon="-8.794828">
        <ele>145.2</ele>
        <time>1970-01-01T00:54:04.000Z</time>
      </trkpt>
      <trkpt lat="42.287315" lon="-8.794842">
        <ele>144.3</ele>
        <time>1970-01-01T00:54:05.000Z</time>
      </trkpt>
      <trkpt lat="42.287303" lon="-8.794853">
        <ele>144.3</ele>
        <time>1970-01-01T00:54:06.000Z</time>
      </trkpt>
      <trkpt lat="42.287292" lon="-8.794867">
        <ele>144.3</ele>
        <time>1970-01-01T00:54:07.000Z</time>
      </trkpt>
      <trkpt lat="42.28728" lon="-8.794878">
        <ele>144.3</ele>
        <time>1970-01-01T00:54:08.000Z</time>
      </trkpt>
      <trkpt lat="42.28727" lon="-8.79489">
        <ele>144.3</ele>
        <time>1970-01-01T00:54:09.000Z</time>
      </trkpt>
      <trkpt lat="42.287258" lon="-8.794905">
        <ele>144.3</ele>
        <time>1970-01-01T00:54:10.000Z</time>
      </trkpt>
      <trkpt lat="42.287245" lon="-8.794917">
        <ele>144.3</ele>
        <time>1970-01-01T00:54:11.000Z</time>
      </trkpt>
      <trkpt lat="42.287232" lon="-8.794927">
        <ele>144.3</ele>
        <time>1970-01-01T00:54:12.000Z</time>
      </trkpt>
      <trkpt lat="42.28722" lon="-8.794942">
        <ele>143.3</ele>
        <time>1970-01-01T00:54:13.000Z</time>
      </trkpt>
      <trkpt lat="42.287212" lon="-8.794957">
        <ele>143.3</ele>
        <time>1970-01-01T00:54:14.000Z</time>
      </trkpt>
      <trkpt lat="42.287198" lon="-8.794972">
        <ele>143.3</ele>
        <time>1970-01-01T00:54:15.000Z</time>
      </trkpt>
      <trkpt lat="42.287182" lon="-8.794987">
        <ele>143.3</ele>
        <time>1970-01-01T00:54:16.000Z</time>
      </trkpt>
      <trkpt lat="42.287168" lon="-8.794998">
        <ele>143.3</ele>
        <time>1970-01-01T00:54:17.000Z</time>
      </trkpt>
      <trkpt lat="42.287157" lon="-8.795015">
        <ele>143.3</ele>
        <time>1970-01-01T00:54:18.000Z</time>
      </trkpt>
      <trkpt lat="42.28715" lon="-8.795022">
        <ele>143.3</ele>
        <time>1970-01-01T00:54:19.000Z</time>
      </trkpt>
      <trkpt lat="42.287142" lon="-8.795035">
        <ele>143.3</ele>
        <time>1970-01-01T00:54:20.000Z</time>
      </trkpt>
      <trkpt lat="42.28713" lon="-8.79505">
        <ele>142.2</ele>
        <time>1970-01-01T00:54:21.000Z</time>
      </trkpt>
      <trkpt lat="42.28712" lon="-8.795062">
        <ele>142.2</ele>
        <time>1970-01-01T00:54:22.000Z</time>
      </trkpt>
      <trkpt lat="42.287108" lon="-8.795082">
        <ele>142.2</ele>
        <time>1970-01-01T00:54:23.000Z</time>
      </trkpt>
      <trkpt lat="42.2871" lon="-8.795097">
        <ele>142.2</ele>
        <time>1970-01-01T00:54:24.000Z</time>
      </trkpt>
      <trkpt lat="42.287088" lon="-8.79511">
        <ele>141.3</ele>
        <time>1970-01-01T00:54:25.000Z</time>
      </trkpt>
      <trkpt lat="42.287077" lon="-8.795127">
        <ele>141.3</ele>
        <time>1970-01-01T00:54:26.000Z</time>
      </trkpt>
      <trkpt lat="42.287065" lon="-8.79514">
        <ele>141.3</ele>
        <time>1970-01-01T00:54:27.000Z</time>
      </trkpt>
      <trkpt lat="42.287055" lon="-8.795158">
        <ele>141.3</ele>
        <time>1970-01-01T00:54:28.000Z</time>
      </trkpt>
      <trkpt lat="42.287043" lon="-8.795172">
        <ele>140.2</ele>
        <time>1970-01-01T00:54:29.000Z</time>
      </trkpt>
      <trkpt lat="42.287037" lon="-8.795178">
        <ele>140.2</ele>
        <time>1970-01-01T00:54:30.000Z</time>
      </trkpt>
      <trkpt lat="42.287027" lon="-8.795193">
        <ele>140.2</ele>
        <time>1970-01-01T00:54:31.000Z</time>
      </trkpt>
      <trkpt lat="42.28702" lon="-8.795208">
        <ele>140.2</ele>
        <time>1970-01-01T00:54:32.000Z</time>
      </trkpt>
      <trkpt lat="42.28701" lon="-8.795222">
        <ele>140.2</ele>
        <time>1970-01-01T00:54:33.000Z</time>
      </trkpt>
      <trkpt lat="42.287" lon="-8.795237">
        <ele>140.2</ele>
        <time>1970-01-01T00:54:34.000Z</time>
      </trkpt>
      <trkpt lat="42.28699" lon="-8.795253">
        <ele>139.3</ele>
        <time>1970-01-01T00:54:35.000Z</time>
      </trkpt>
      <trkpt lat="42.28698" lon="-8.795268">
        <ele>139.3</ele>
        <time>1970-01-01T00:54:36.000Z</time>
      </trkpt>
      <trkpt lat="42.286972" lon="-8.795285">
        <ele>139.3</ele>
        <time>1970-01-01T00:54:37.000Z</time>
      </trkpt>
      <trkpt lat="42.286963" lon="-8.795298">
        <ele>139.3</ele>
        <time>1970-01-01T00:54:38.000Z</time>
      </trkpt>
      <trkpt lat="42.286955" lon="-8.795312">
        <ele>139.3</ele>
        <time>1970-01-01T00:54:39.000Z</time>
      </trkpt>
      <trkpt lat="42.286947" lon="-8.795325">
        <ele>139.3</ele>
        <time>1970-01-01T00:54:40.000Z</time>
      </trkpt>
      <trkpt lat="42.286935" lon="-8.79534">
        <ele>138.2</ele>
        <time>1970-01-01T00:54:41.000Z</time>
      </trkpt>
      <trkpt lat="42.286922" lon="-8.795348">
        <ele>138.2</ele>
        <time>1970-01-01T00:54:42.000Z</time>
      </trkpt>
      <trkpt lat="42.28691" lon="-8.795355">
        <ele>138.2</ele>
        <time>1970-01-01T00:54:43.000Z</time>
      </trkpt>
      <trkpt lat="42.286897" lon="-8.79536">
        <ele>138.2</ele>
        <time>1970-01-01T00:54:44.000Z</time>
      </trkpt>
      <trkpt lat="42.286883" lon="-8.795367">
        <ele>138.2</ele>
        <time>1970-01-01T00:54:45.000Z</time>
      </trkpt>
      <trkpt lat="42.286872" lon="-8.795372">
        <ele>138.2</ele>
        <time>1970-01-01T00:54:46.000Z</time>
      </trkpt>
      <trkpt lat="42.28686" lon="-8.795377">
        <ele>137.3</ele>
        <time>1970-01-01T00:54:47.000Z</time>
      </trkpt>
      <trkpt lat="42.286847" lon="-8.795388">
        <ele>137.3</ele>
        <time>1970-01-01T00:54:48.000Z</time>
      </trkpt>
      <trkpt lat="42.286832" lon="-8.795402">
        <ele>137.3</ele>
        <time>1970-01-01T00:54:49.000Z</time>
      </trkpt>
      <trkpt lat="42.28682" lon="-8.795408">
        <ele>137.3</ele>
        <time>1970-01-01T00:54:50.000Z</time>
      </trkpt>
      <trkpt lat="42.286807" lon="-8.795417">
        <ele>137.3</ele>
        <time>1970-01-01T00:54:51.000Z</time>
      </trkpt>
      <trkpt lat="42.286798" lon="-8.79541">
        <ele>137.3</ele>
        <time>1970-01-01T00:54:52.000Z</time>
      </trkpt>
      <trkpt lat="42.286787" lon="-8.795398">
        <ele>136.2</ele>
        <time>1970-01-01T00:54:53.000Z</time>
      </trkpt>
      <trkpt lat="42.286772" lon="-8.79539">
        <ele>136.2</ele>
        <time>1970-01-01T00:54:54.000Z</time>
      </trkpt>
      <trkpt lat="42.286755" lon="-8.795383">
        <ele>136.2</ele>
        <time>1970-01-01T00:54:55.000Z</time>
      </trkpt>
      <trkpt lat="42.28674" lon="-8.79538">
        <ele>136.2</ele>
        <time>1970-01-01T00:54:56.000Z</time>
      </trkpt>
      <trkpt lat="42.286722" lon="-8.795375">
        <ele>136.2</ele>
        <time>1970-01-01T00:54:57.000Z</time>
      </trkpt>
      <trkpt lat="42.286713" lon="-8.795373">
        <ele>136.2</ele>
        <time>1970-01-01T00:54:58.000Z</time>
      </trkpt>
      <trkpt lat="42.2867" lon="-8.795373">
        <ele>136.2</ele>
        <time>1970-01-01T00:54:59.000Z</time>
      </trkpt>
      <trkpt lat="42.286683" lon="-8.795373">
        <ele>136.2</ele>
        <time>1970-01-01T00:55:00.000Z</time>
      </trkpt>
      <trkpt lat="42.286668" lon="-8.795375">
        <ele>134.3</ele>
        <time>1970-01-01T00:55:01.000Z</time>
      </trkpt>
      <trkpt lat="42.286655" lon="-8.795378">
        <ele>134.3</ele>
        <time>1970-01-01T00:55:02.000Z</time>
      </trkpt>
      <trkpt lat="42.28664" lon="-8.79538">
        <ele>134.3</ele>
        <time>1970-01-01T00:55:03.000Z</time>
      </trkpt>
      <trkpt lat="42.286628" lon="-8.795378">
        <ele>134.3</ele>
        <time>1970-01-01T00:55:04.000Z</time>
      </trkpt>
      <trkpt lat="42.286618" lon="-8.795377">
        <ele>134.3</ele>
        <time>1970-01-01T00:55:05.000Z</time>
      </trkpt>
      <trkpt lat="42.286603" lon="-8.795377">
        <ele>134.3</ele>
        <time>1970-01-01T00:55:06.000Z</time>
      </trkpt>
      <trkpt lat="42.286592" lon="-8.795378">
        <ele>134.3</ele>
        <time>1970-01-01T00:55:07.000Z</time>
      </trkpt>
      <trkpt lat="42.28658" lon="-8.795377">
        <ele>134.3</ele>
        <time>1970-01-01T00:55:08.000Z</time>
      </trkpt>
      <trkpt lat="42.286563" lon="-8.79538">
        <ele>134.3</ele>
        <time>1970-01-01T00:55:09.000Z</time>
      </trkpt>
      <trkpt lat="42.286553" lon="-8.795387">
        <ele>134.3</ele>
        <time>1970-01-01T00:55:10.000Z</time>
      </trkpt>
      <trkpt lat="42.286538" lon="-8.795395">
        <ele>133.2</ele>
        <time>1970-01-01T00:55:11.000Z</time>
      </trkpt>
      <trkpt lat="42.286527" lon="-8.795403">
        <ele>133.2</ele>
        <time>1970-01-01T00:55:12.000Z</time>
      </trkpt>
      <trkpt lat="42.286513" lon="-8.795412">
        <ele>133.2</ele>
        <time>1970-01-01T00:55:13.000Z</time>
      </trkpt>
      <trkpt lat="42.286498" lon="-8.795418">
        <ele>133.2</ele>
        <time>1970-01-01T00:55:14.000Z</time>
      </trkpt>
      <trkpt lat="42.286482" lon="-8.795428">
        <ele>133.2</ele>
        <time>1970-01-01T00:55:15.000Z</time>
      </trkpt>
      <trkpt lat="42.286465" lon="-8.795435">
        <ele>133.2</ele>
        <time>1970-01-01T00:55:16.000Z</time>
      </trkpt>
      <trkpt lat="42.28645" lon="-8.795442">
        <ele>132.3</ele>
        <time>1970-01-01T00:55:17.000Z</time>
      </trkpt>
      <trkpt lat="42.286438" lon="-8.795452">
        <ele>132.3</ele>
        <time>1970-01-01T00:55:18.000Z</time>
      </trkpt>
      <trkpt lat="42.286427" lon="-8.795457">
        <ele>132.3</ele>
        <time>1970-01-01T00:55:19.000Z</time>
      </trkpt>
      <trkpt lat="42.286415" lon="-8.795467">
        <ele>132.3</ele>
        <time>1970-01-01T00:55:20.000Z</time>
      </trkpt>
      <trkpt lat="42.286403" lon="-8.795475">
        <ele>132.3</ele>
        <time>1970-01-01T00:55:21.000Z</time>
      </trkpt>
      <trkpt lat="42.286397" lon="-8.795483">
        <ele>132.3</ele>
        <time>1970-01-01T00:55:22.000Z</time>
      </trkpt>
      <trkpt lat="42.286392" lon="-8.795488">
        <ele>132.3</ele>
        <time>1970-01-01T00:55:23.000Z</time>
      </trkpt>
      <trkpt lat="42.286388" lon="-8.795492">
        <ele>132.3</ele>
        <time>1970-01-01T00:55:24.000Z</time>
      </trkpt>
      <trkpt lat="42.286387" lon="-8.795492">
        <ele>132.3</ele>
        <time>1970-01-01T00:55:25.000Z</time>
      </trkpt>
      <trkpt lat="42.286378" lon="-8.795498">
        <ele>132.3</ele>
        <time>1970-01-01T00:55:26.000Z</time>
      </trkpt>
      <trkpt lat="42.286365" lon="-8.795507">
        <ele>131.2</ele>
        <time>1970-01-01T00:55:27.000Z</time>
      </trkpt>
      <trkpt lat="42.286352" lon="-8.795512">
        <ele>131.2</ele>
        <time>1970-01-01T00:55:28.000Z</time>
      </trkpt>
      <trkpt lat="42.28634" lon="-8.795523">
        <ele>131.2</ele>
        <time>1970-01-01T00:55:29.000Z</time>
      </trkpt>
      <trkpt lat="42.28633" lon="-8.795538">
        <ele>131.2</ele>
        <time>1970-01-01T00:55:30.000Z</time>
      </trkpt>
      <trkpt lat="42.286322" lon="-8.795548">
        <ele>131.2</ele>
        <time>1970-01-01T00:55:31.000Z</time>
      </trkpt>
      <trkpt lat="42.286312" lon="-8.795563">
        <ele>131.2</ele>
        <time>1970-01-01T00:55:32.000Z</time>
      </trkpt>
      <trkpt lat="42.286303" lon="-8.795575">
        <ele>130.3</ele>
        <time>1970-01-01T00:55:33.000Z</time>
      </trkpt>
      <trkpt lat="42.286293" lon="-8.795583">
        <ele>130.3</ele>
        <time>1970-01-01T00:55:34.000Z</time>
      </trkpt>
      <trkpt lat="42.286282" lon="-8.79559">
        <ele>130.3</ele>
        <time>1970-01-01T00:55:35.000Z</time>
      </trkpt>
      <trkpt lat="42.286272" lon="-8.795592">
        <ele>130.3</ele>
        <time>1970-01-01T00:55:36.000Z</time>
      </trkpt>
      <trkpt lat="42.28626" lon="-8.795595">
        <ele>130.3</ele>
        <time>1970-01-01T00:55:37.000Z</time>
      </trkpt>
      <trkpt lat="42.286248" lon="-8.795595">
        <ele>130.3</ele>
        <time>1970-01-01T00:55:38.000Z</time>
      </trkpt>
      <trkpt lat="42.28624" lon="-8.795597">
        <ele>129.2</ele>
        <time>1970-01-01T00:55:39.000Z</time>
      </trkpt>
      <trkpt lat="42.286228" lon="-8.795607">
        <ele>129.2</ele>
        <time>1970-01-01T00:55:40.000Z</time>
      </trkpt>
      <trkpt lat="42.28622" lon="-8.795617">
        <ele>129.2</ele>
        <time>1970-01-01T00:55:41.000Z</time>
      </trkpt>
      <trkpt lat="42.286207" lon="-8.795623">
        <ele>129.2</ele>
        <time>1970-01-01T00:55:42.000Z</time>
      </trkpt>
      <trkpt lat="42.286193" lon="-8.795632">
        <ele>128.3</ele>
        <time>1970-01-01T00:55:43.000Z</time>
      </trkpt>
      <trkpt lat="42.28618" lon="-8.795638">
        <ele>128.3</ele>
        <time>1970-01-01T00:55:44.000Z</time>
      </trkpt>
      <trkpt lat="42.286165" lon="-8.795647">
        <ele>128.3</ele>
        <time>1970-01-01T00:55:45.000Z</time>
      </trkpt>
      <trkpt lat="42.286155" lon="-8.795655">
        <ele>128.3</ele>
        <time>1970-01-01T00:55:46.000Z</time>
      </trkpt>
      <trkpt lat="42.286142" lon="-8.795663">
        <ele>127.3</ele>
        <time>1970-01-01T00:55:47.000Z</time>
      </trkpt>
      <trkpt lat="42.28613" lon="-8.795672">
        <ele>127.3</ele>
        <time>1970-01-01T00:55:48.000Z</time>
      </trkpt>
      <trkpt lat="42.286122" lon="-8.795678">
        <ele>127.3</ele>
        <time>1970-01-01T00:55:49.000Z</time>
      </trkpt>
      <trkpt lat="42.28611" lon="-8.795685">
        <ele>127.3</ele>
        <time>1970-01-01T00:55:50.000Z</time>
      </trkpt>
      <trkpt lat="42.286098" lon="-8.795692">
        <ele>126.3</ele>
        <time>1970-01-01T00:55:51.000Z</time>
      </trkpt>
      <trkpt lat="42.286085" lon="-8.795697">
        <ele>126.3</ele>
        <time>1970-01-01T00:55:52.000Z</time>
      </trkpt>
      <trkpt lat="42.28607" lon="-8.7957">
        <ele>126.3</ele>
        <time>1970-01-01T00:55:53.000Z</time>
      </trkpt>
      <trkpt lat="42.286057" lon="-8.795707">
        <ele>126.3</ele>
        <time>1970-01-01T00:55:54.000Z</time>
      </trkpt>
      <trkpt lat="42.286047" lon="-8.795712">
        <ele>125.3</ele>
        <time>1970-01-01T00:55:55.000Z</time>
      </trkpt>
      <trkpt lat="42.286033" lon="-8.795718">
        <ele>125.3</ele>
        <time>1970-01-01T00:55:56.000Z</time>
      </trkpt>
      <trkpt lat="42.286023" lon="-8.795723">
        <ele>124.2</ele>
        <time>1970-01-01T00:55:57.000Z</time>
      </trkpt>
      <trkpt lat="42.286017" lon="-8.795727">
        <ele>124.2</ele>
        <time>1970-01-01T00:55:58.000Z</time>
      </trkpt>
      <trkpt lat="42.286015" lon="-8.795728">
        <ele>124.2</ele>
        <time>1970-01-01T00:55:59.000Z</time>
      </trkpt>
      <trkpt lat="42.286017" lon="-8.795727">
        <ele>124.2</ele>
        <time>1970-01-01T00:56:00.000Z</time>
      </trkpt>
      <trkpt lat="42.286017" lon="-8.795727">
        <ele>124.2</ele>
        <time>1970-01-01T00:56:01.000Z</time>
      </trkpt>
      <trkpt lat="42.286017" lon="-8.795723">
        <ele>124.2</ele>
        <time>1970-01-01T00:56:02.000Z</time>
      </trkpt>
      <trkpt lat="42.286015" lon="-8.79572">
        <ele>124.2</ele>
        <time>1970-01-01T00:56:03.000Z</time>
      </trkpt>
      <trkpt lat="42.286013" lon="-8.79572">
        <ele>124.2</ele>
        <time>1970-01-01T00:56:04.000Z</time>
      </trkpt>
      <trkpt lat="42.286012" lon="-8.79572">
        <ele>124.2</ele>
        <time>1970-01-01T00:56:05.000Z</time>
      </trkpt>
      <trkpt lat="42.286007" lon="-8.795727">
        <ele>124.2</ele>
        <time>1970-01-01T00:56:06.000Z</time>
      </trkpt>
      <trkpt lat="42.286" lon="-8.795735">
        <ele>124.2</ele>
        <time>1970-01-01T00:56:07.000Z</time>
      </trkpt>
      <trkpt lat="42.285988" lon="-8.79574">
        <ele>124.2</ele>
        <time>1970-01-01T00:56:08.000Z</time>
      </trkpt>
      <trkpt lat="42.28598" lon="-8.795747">
        <ele>123.3</ele>
        <time>1970-01-01T00:56:09.000Z</time>
      </trkpt>
      <trkpt lat="42.28597" lon="-8.795755">
        <ele>123.3</ele>
        <time>1970-01-01T00:56:10.000Z</time>
      </trkpt>
      <trkpt lat="42.285958" lon="-8.795763">
        <ele>123.3</ele>
        <time>1970-01-01T00:56:11.000Z</time>
      </trkpt>
      <trkpt lat="42.285948" lon="-8.79577">
        <ele>123.3</ele>
        <time>1970-01-01T00:56:12.000Z</time>
      </trkpt>
      <trkpt lat="42.285937" lon="-8.79577">
        <ele>122.2</ele>
        <time>1970-01-01T00:56:13.000Z</time>
      </trkpt>
      <trkpt lat="42.285923" lon="-8.795773">
        <ele>122.2</ele>
        <time>1970-01-01T00:56:14.000Z</time>
      </trkpt>
      <trkpt lat="42.28591" lon="-8.79578">
        <ele>122.2</ele>
        <time>1970-01-01T00:56:15.000Z</time>
      </trkpt>
      <trkpt lat="42.285895" lon="-8.795788">
        <ele>122.2</ele>
        <time>1970-01-01T00:56:16.000Z</time>
      </trkpt>
      <trkpt lat="42.28588" lon="-8.795793">
        <ele>122.2</ele>
        <time>1970-01-01T00:56:17.000Z</time>
      </trkpt>
      <trkpt lat="42.285865" lon="-8.795797">
        <ele>122.2</ele>
        <time>1970-01-01T00:56:18.000Z</time>
      </trkpt>
      <trkpt lat="42.285853" lon="-8.795802">
        <ele>122.2</ele>
        <time>1970-01-01T00:56:19.000Z</time>
      </trkpt>
      <trkpt lat="42.285843" lon="-8.795807">
        <ele>122.2</ele>
        <time>1970-01-01T00:56:20.000Z</time>
      </trkpt>
      <trkpt lat="42.285833" lon="-8.795812">
        <ele>119.3</ele>
        <time>1970-01-01T00:56:21.000Z</time>
      </trkpt>
      <trkpt lat="42.285818" lon="-8.795813">
        <ele>119.3</ele>
        <time>1970-01-01T00:56:22.000Z</time>
      </trkpt>
      <trkpt lat="42.285805" lon="-8.79582">
        <ele>119.3</ele>
        <time>1970-01-01T00:56:23.000Z</time>
      </trkpt>
      <trkpt lat="42.285793" lon="-8.795825">
        <ele>119.3</ele>
        <time>1970-01-01T00:56:24.000Z</time>
      </trkpt>
      <trkpt lat="42.28578" lon="-8.79583">
        <ele>119.3</ele>
        <time>1970-01-01T00:56:25.000Z</time>
      </trkpt>
      <trkpt lat="42.285767" lon="-8.795837">
        <ele>119.3</ele>
        <time>1970-01-01T00:56:26.000Z</time>
      </trkpt>
      <trkpt lat="42.285753" lon="-8.795843">
        <ele>119.3</ele>
        <time>1970-01-01T00:56:27.000Z</time>
      </trkpt>
      <trkpt lat="42.285738" lon="-8.795848">
        <ele>119.3</ele>
        <time>1970-01-01T00:56:28.000Z</time>
      </trkpt>
      <trkpt lat="42.285725" lon="-8.795857">
        <ele>119.3</ele>
        <time>1970-01-01T00:56:29.000Z</time>
      </trkpt>
      <trkpt lat="42.28571" lon="-8.795868">
        <ele>119.3</ele>
        <time>1970-01-01T00:56:30.000Z</time>
      </trkpt>
      <trkpt lat="42.285698" lon="-8.795875">
        <ele>119.3</ele>
        <time>1970-01-01T00:56:31.000Z</time>
      </trkpt>
      <trkpt lat="42.285685" lon="-8.79588">
        <ele>119.3</ele>
        <time>1970-01-01T00:56:32.000Z</time>
      </trkpt>
      <trkpt lat="42.285672" lon="-8.795885">
        <ele>119.3</ele>
        <time>1970-01-01T00:56:33.000Z</time>
      </trkpt>
      <trkpt lat="42.285658" lon="-8.795892">
        <ele>119.3</ele>
        <time>1970-01-01T00:56:34.000Z</time>
      </trkpt>
      <trkpt lat="42.285647" lon="-8.795895">
        <ele>119.3</ele>
        <time>1970-01-01T00:56:35.000Z</time>
      </trkpt>
      <trkpt lat="42.285635" lon="-8.795898">
        <ele>119.3</ele>
        <time>1970-01-01T00:56:36.000Z</time>
      </trkpt>
      <trkpt lat="42.285625" lon="-8.795905">
        <ele>116.3</ele>
        <time>1970-01-01T00:56:37.000Z</time>
      </trkpt>
      <trkpt lat="42.285612" lon="-8.795908">
        <ele>116.3</ele>
        <time>1970-01-01T00:56:38.000Z</time>
      </trkpt>
      <trkpt lat="42.285598" lon="-8.795915">
        <ele>116.3</ele>
        <time>1970-01-01T00:56:39.000Z</time>
      </trkpt>
      <trkpt lat="42.285587" lon="-8.795923">
        <ele>116.3</ele>
        <time>1970-01-01T00:56:40.000Z</time>
      </trkpt>
      <trkpt lat="42.285577" lon="-8.795928">
        <ele>116.3</ele>
        <time>1970-01-01T00:56:41.000Z</time>
      </trkpt>
      <trkpt lat="42.285572" lon="-8.795935">
        <ele>116.3</ele>
        <time>1970-01-01T00:56:42.000Z</time>
      </trkpt>
      <trkpt lat="42.285568" lon="-8.795935">
        <ele>116.3</ele>
        <time>1970-01-01T00:56:43.000Z</time>
      </trkpt>
      <trkpt lat="42.285563" lon="-8.795938">
        <ele>116.3</ele>
        <time>1970-01-01T00:56:44.000Z</time>
      </trkpt>
      <trkpt lat="42.285555" lon="-8.79594">
        <ele>116.3</ele>
        <time>1970-01-01T00:56:45.000Z</time>
      </trkpt>
      <trkpt lat="42.285547" lon="-8.795945">
        <ele>116.3</ele>
        <time>1970-01-01T00:56:46.000Z</time>
      </trkpt>
      <trkpt lat="42.28554" lon="-8.795948">
        <ele>115.2</ele>
        <time>1970-01-01T00:56:47.000Z</time>
      </trkpt>
      <trkpt lat="42.285535" lon="-8.795952">
        <ele>115.2</ele>
        <time>1970-01-01T00:56:48.000Z</time>
      </trkpt>
      <trkpt lat="42.285533" lon="-8.795953">
        <ele>115.2</ele>
        <time>1970-01-01T00:56:49.000Z</time>
      </trkpt>
      <trkpt lat="42.285533" lon="-8.795953">
        <ele>115.2</ele>
        <time>1970-01-01T00:56:50.000Z</time>
      </trkpt>
      <trkpt lat="42.285533" lon="-8.795953">
        <ele>114.3</ele>
        <time>1970-01-01T00:56:51.000Z</time>
      </trkpt>
      <trkpt lat="42.285533" lon="-8.795952">
        <ele>114.3</ele>
        <time>1970-01-01T00:56:52.000Z</time>
      </trkpt>
      <trkpt lat="42.285533" lon="-8.79595">
        <ele>114.3</ele>
        <time>1970-01-01T00:56:53.000Z</time>
      </trkpt>
      <trkpt lat="42.28553" lon="-8.79595">
        <ele>114.3</ele>
        <time>1970-01-01T00:56:54.000Z</time>
      </trkpt>
      <trkpt lat="42.285523" lon="-8.79595">
        <ele>114.3</ele>
        <time>1970-01-01T00:56:55.000Z</time>
      </trkpt>
      <trkpt lat="42.285513" lon="-8.795955">
        <ele>114.3</ele>
        <time>1970-01-01T00:56:56.000Z</time>
      </trkpt>
      <trkpt lat="42.285502" lon="-8.795958">
        <ele>113.2</ele>
        <time>1970-01-01T00:56:57.000Z</time>
      </trkpt>
      <trkpt lat="42.285495" lon="-8.795958">
        <ele>113.2</ele>
        <time>1970-01-01T00:56:58.000Z</time>
      </trkpt>
      <trkpt lat="42.28549" lon="-8.79596">
        <ele>113.2</ele>
        <time>1970-01-01T00:56:59.000Z</time>
      </trkpt>
      <trkpt lat="42.285487" lon="-8.795958">
        <ele>113.2</ele>
        <time>1970-01-01T00:57:00.000Z</time>
      </trkpt>
      <trkpt lat="42.285477" lon="-8.79596">
        <ele>111.3</ele>
        <time>1970-01-01T00:57:01.000Z</time>
      </trkpt>
      <trkpt lat="42.285465" lon="-8.795957">
        <ele>111.3</ele>
        <time>1970-01-01T00:57:02.000Z</time>
      </trkpt>
      <trkpt lat="42.285452" lon="-8.795957">
        <ele>111.3</ele>
        <time>1970-01-01T00:57:03.000Z</time>
      </trkpt>
      <trkpt lat="42.285438" lon="-8.79596">
        <ele>111.3</ele>
        <time>1970-01-01T00:57:04.000Z</time>
      </trkpt>
      <trkpt lat="42.285428" lon="-8.795962">
        <ele>111.3</ele>
        <time>1970-01-01T00:57:05.000Z</time>
      </trkpt>
      <trkpt lat="42.28541" lon="-8.79596">
        <ele>111.3</ele>
        <time>1970-01-01T00:57:06.000Z</time>
      </trkpt>
      <trkpt lat="42.285398" lon="-8.795953">
        <ele>109.3</ele>
        <time>1970-01-01T00:57:07.000Z</time>
      </trkpt>
      <trkpt lat="42.285383" lon="-8.795948">
        <ele>109.3</ele>
        <time>1970-01-01T00:57:08.000Z</time>
      </trkpt>
      <trkpt lat="42.285368" lon="-8.795942">
        <ele>109.3</ele>
        <time>1970-01-01T00:57:09.000Z</time>
      </trkpt>
      <trkpt lat="42.285355" lon="-8.795938">
        <ele>109.3</ele>
        <time>1970-01-01T00:57:10.000Z</time>
      </trkpt>
      <trkpt lat="42.285342" lon="-8.795943">
        <ele>109.3</ele>
        <time>1970-01-01T00:57:11.000Z</time>
      </trkpt>
      <trkpt lat="42.285328" lon="-8.795947">
        <ele>109.3</ele>
        <time>1970-01-01T00:57:12.000Z</time>
      </trkpt>
      <trkpt lat="42.285315" lon="-8.795945">
        <ele>109.3</ele>
        <time>1970-01-01T00:57:13.000Z</time>
      </trkpt>
      <trkpt lat="42.285303" lon="-8.795942">
        <ele>109.3</ele>
        <time>1970-01-01T00:57:14.000Z</time>
      </trkpt>
      <trkpt lat="42.285295" lon="-8.795937">
        <ele>109.3</ele>
        <time>1970-01-01T00:57:15.000Z</time>
      </trkpt>
      <trkpt lat="42.285292" lon="-8.795932">
        <ele>109.3</ele>
        <time>1970-01-01T00:57:16.000Z</time>
      </trkpt>
      <trkpt lat="42.285288" lon="-8.795928">
        <ele>109.3</ele>
        <time>1970-01-01T00:57:17.000Z</time>
      </trkpt>
      <trkpt lat="42.285287" lon="-8.795928">
        <ele>109.3</ele>
        <time>1970-01-01T00:57:18.000Z</time>
      </trkpt>
      <trkpt lat="42.285285" lon="-8.795928">
        <ele>109.3</ele>
        <time>1970-01-01T00:57:19.000Z</time>
      </trkpt>
      <trkpt lat="42.285285" lon="-8.795927">
        <ele>109.3</ele>
        <time>1970-01-01T00:57:20.000Z</time>
      </trkpt>
      <trkpt lat="42.285285" lon="-8.795927">
        <ele>108.2</ele>
        <time>1970-01-01T00:57:21.000Z</time>
      </trkpt>
      <trkpt lat="42.285285" lon="-8.795927">
        <ele>108.2</ele>
        <time>1970-01-01T00:57:22.000Z</time>
      </trkpt>
      <trkpt lat="42.285285" lon="-8.795927">
        <ele>108.2</ele>
        <time>1970-01-01T00:57:23.000Z</time>
      </trkpt>
      <trkpt lat="42.285285" lon="-8.795927">
        <ele>108.2</ele>
        <time>1970-01-01T00:57:24.000Z</time>
      </trkpt>
      <trkpt lat="42.285285" lon="-8.795927">
        <ele>107.3</ele>
        <time>1970-01-01T00:57:25.000Z</time>
      </trkpt>
      <trkpt lat="42.285285" lon="-8.795927">
        <ele>107.3</ele>
        <time>1970-01-01T00:57:26.000Z</time>
      </trkpt>
      <trkpt lat="42.285285" lon="-8.795927">
        <ele>106.2</ele>
        <time>1970-01-01T00:57:27.000Z</time>
      </trkpt>
      <trkpt lat="42.285285" lon="-8.795927">
        <ele>106.2</ele>
        <time>1970-01-01T00:57:28.000Z</time>
      </trkpt>
      <trkpt lat="42.285285" lon="-8.795927">
        <ele>106.2</ele>
        <time>1970-01-01T00:57:29.000Z</time>
      </trkpt>
      <trkpt lat="42.285285" lon="-8.795927">
        <ele>106.2</ele>
        <time>1970-01-01T00:57:30.000Z</time>
      </trkpt>
      <trkpt lat="42.285285" lon="-8.795927">
        <ele>105.3</ele>
        <time>1970-01-01T00:57:31.000Z</time>
      </trkpt>
      <trkpt lat="42.285285" lon="-8.795927">
        <ele>105.3</ele>
        <time>1970-01-01T00:57:32.000Z</time>
      </trkpt>
      <trkpt lat="42.285285" lon="-8.795927">
        <ele>104.2</ele>
        <time>1970-01-01T00:57:33.000Z</time>
      </trkpt>
      <trkpt lat="42.285285" lon="-8.795927">
        <ele>104.2</ele>
        <time>1970-01-01T00:57:34.000Z</time>
      </trkpt>
      <trkpt lat="42.285285" lon="-8.795927">
        <ele>104.2</ele>
        <time>1970-01-01T00:57:35.000Z</time>
      </trkpt>
      <trkpt lat="42.285285" lon="-8.795927">
        <ele>104.2</ele>
        <time>1970-01-01T00:57:36.000Z</time>
      </trkpt>
      <trkpt lat="42.285285" lon="-8.795927">
        <ele>103.3</ele>
        <time>1970-01-01T00:57:37.000Z</time>
      </trkpt>
      <trkpt lat="42.285285" lon="-8.795927">
        <ele>103.3</ele>
        <time>1970-01-01T00:57:38.000Z</time>
      </trkpt>
      <trkpt lat="42.285285" lon="-8.795927">
        <ele>102.3</ele>
        <time>1970-01-01T00:57:39.000Z</time>
      </trkpt>
      <trkpt lat="42.285285" lon="-8.795927">
        <ele>102.3</ele>
        <time>1970-01-01T00:57:40.000Z</time>
      </trkpt>
      <trkpt lat="42.285285" lon="-8.795927">
        <ele>102.3</ele>
        <time>1970-01-01T00:57:41.000Z</time>
      </trkpt>
      <trkpt lat="42.285285" lon="-8.795927">
        <ele>102.3</ele>
        <time>1970-01-01T00:57:42.000Z</time>
      </trkpt>
      <trkpt lat="42.285285" lon="-8.795927">
        <ele>102.3</ele>
        <time>1970-01-01T00:57:43.000Z</time>
      </trkpt>
      <trkpt lat="42.285285" lon="-8.795927">
        <ele>102.3</ele>
        <time>1970-01-01T00:57:44.000Z</time>
      </trkpt>
      <trkpt lat="42.285285" lon="-8.795927">
        <ele>102.3</ele>
        <time>1970-01-01T00:57:45.000Z</time>
      </trkpt>
      <trkpt lat="42.285285" lon="-8.795927">
        <ele>102.3</ele>
        <time>1970-01-01T00:57:46.000Z</time>
      </trkpt>
      <trkpt lat="42.285285" lon="-8.795927">
        <ele>98.3</ele>
        <time>1970-01-01T00:57:47.000Z</time>
      </trkpt>
      <trkpt lat="42.285285" lon="-8.795927">
        <ele>98.3</ele>
        <time>1970-01-01T00:57:48.000Z</time>
      </trkpt>
      <trkpt lat="42.285285" lon="-8.795927">
        <ele>98.3</ele>
        <time>1970-01-01T00:57:49.000Z</time>
      </trkpt>
      <trkpt lat="42.285285" lon="-8.795927">
        <ele>98.3</ele>
        <time>1970-01-01T00:57:50.000Z</time>
      </trkpt>
      <trkpt lat="42.285285" lon="-8.795927">
        <ele>97.2</ele>
        <time>1970-01-01T00:57:51.000Z</time>
      </trkpt>
      <trkpt lat="42.285285" lon="-8.795927">
        <ele>97.2</ele>
        <time>1970-01-01T00:57:52.000Z</time>
      </trkpt>
      <trkpt lat="42.285285" lon="-8.795927">
        <ele>97.2</ele>
        <time>1970-01-01T00:57:53.000Z</time>
      </trkpt>
      <trkpt lat="42.285285" lon="-8.795927">
        <ele>97.2</ele>
        <time>1970-01-01T00:57:54.000Z</time>
      </trkpt>
      <trkpt lat="42.285285" lon="-8.795927">
        <ele>97.2</ele>
        <time>1970-01-01T00:57:55.000Z</time>
      </trkpt>
      <trkpt lat="42.285287" lon="-8.795923">
        <ele>97.2</ele>
        <time>1970-01-01T00:57:56.000Z</time>
      </trkpt>
      <trkpt lat="42.28529" lon="-8.7959">
        <ele>97.2</ele>
        <time>1970-01-01T00:57:57.000Z</time>
      </trkpt>
      <trkpt lat="42.285295" lon="-8.795885">
        <ele>97.2</ele>
        <time>1970-01-01T00:57:58.000Z</time>
      </trkpt>
      <trkpt lat="42.285293" lon="-8.795873">
        <ele>97.2</ele>
        <time>1970-01-01T00:57:59.000Z</time>
      </trkpt>
      <trkpt lat="42.285292" lon="-8.795858">
        <ele>97.2</ele>
        <time>1970-01-01T00:58:00.000Z</time>
      </trkpt>
      <trkpt lat="42.285287" lon="-8.79584">
        <ele>97.2</ele>
        <time>1970-01-01T00:58:01.000Z</time>
      </trkpt>
      <trkpt lat="42.285285" lon="-8.795835">
        <ele>97.2</ele>
        <time>1970-01-01T00:58:02.000Z</time>
      </trkpt>
      <trkpt lat="42.285282" lon="-8.79583">
        <ele>97.2</ele>
        <time>1970-01-01T00:58:03.000Z</time>
      </trkpt>
      <trkpt lat="42.285282" lon="-8.795825">
        <ele>97.2</ele>
        <time>1970-01-01T00:58:04.000Z</time>
      </trkpt>
      <trkpt lat="42.285287" lon="-8.795808">
        <ele>97.2</ele>
        <time>1970-01-01T00:58:05.000Z</time>
      </trkpt>
      <trkpt lat="42.285293" lon="-8.795797">
        <ele>97.2</ele>
        <time>1970-01-01T00:58:06.000Z</time>
      </trkpt>
      <trkpt lat="42.285297" lon="-8.79579">
        <ele>97.2</ele>
        <time>1970-01-01T00:58:07.000Z</time>
      </trkpt>
      <trkpt lat="42.285293" lon="-8.795788">
        <ele>97.2</ele>
        <time>1970-01-01T00:58:08.000Z</time>
      </trkpt>
      <trkpt lat="42.285295" lon="-8.795785">
        <ele>98.3</ele>
        <time>1970-01-01T00:58:09.000Z</time>
      </trkpt>
      <trkpt lat="42.2853" lon="-8.795775">
        <ele>98.3</ele>
        <time>1970-01-01T00:58:10.000Z</time>
      </trkpt>
      <trkpt lat="42.285313" lon="-8.79576">
        <ele>98.3</ele>
        <time>1970-01-01T00:58:11.000Z</time>
      </trkpt>
      <trkpt lat="42.285325" lon="-8.795745">
        <ele>98.3</ele>
        <time>1970-01-01T00:58:12.000Z</time>
      </trkpt>
      <trkpt lat="42.285338" lon="-8.79573">
        <ele>98.3</ele>
        <time>1970-01-01T00:58:13.000Z</time>
      </trkpt>
      <trkpt lat="42.285345" lon="-8.795718">
        <ele>98.3</ele>
        <time>1970-01-01T00:58:14.000Z</time>
      </trkpt>
      <trkpt lat="42.285353" lon="-8.795708">
        <ele>101.2</ele>
        <time>1970-01-01T00:58:15.000Z</time>
      </trkpt>
      <trkpt lat="42.285355" lon="-8.795698">
        <ele>101.2</ele>
        <time>1970-01-01T00:58:16.000Z</time>
      </trkpt>
      <trkpt lat="42.285355" lon="-8.795683">
        <ele>101.2</ele>
        <time>1970-01-01T00:58:17.000Z</time>
      </trkpt>
      <trkpt lat="42.285355" lon="-8.79567">
        <ele>101.2</ele>
        <time>1970-01-01T00:58:18.000Z</time>
      </trkpt>
      <trkpt lat="42.285357" lon="-8.795658">
        <ele>102.3</ele>
        <time>1970-01-01T00:58:19.000Z</time>
      </trkpt>
      <trkpt lat="42.285357" lon="-8.795645">
        <ele>102.3</ele>
        <time>1970-01-01T00:58:20.000Z</time>
      </trkpt>
      <trkpt lat="42.285355" lon="-8.795633">
        <ele>103.3</ele>
        <time>1970-01-01T00:58:21.000Z</time>
      </trkpt>
      <trkpt lat="42.285353" lon="-8.795622">
        <ele>103.3</ele>
        <time>1970-01-01T00:58:22.000Z</time>
      </trkpt>
      <trkpt lat="42.285348" lon="-8.795608">
        <ele>103.3</ele>
        <time>1970-01-01T00:58:23.000Z</time>
      </trkpt>
      <trkpt lat="42.285345" lon="-8.7956">
        <ele>103.3</ele>
        <time>1970-01-01T00:58:24.000Z</time>
      </trkpt>
      <trkpt lat="42.28534" lon="-8.79559">
        <ele>103.3</ele>
        <time>1970-01-01T00:58:25.000Z</time>
      </trkpt>
      <trkpt lat="42.285335" lon="-8.795587">
        <ele>103.3</ele>
        <time>1970-01-01T00:58:26.000Z</time>
      </trkpt>
      <trkpt lat="42.285327" lon="-8.795583">
        <ele>103.3</ele>
        <time>1970-01-01T00:58:27.000Z</time>
      </trkpt>
      <trkpt lat="42.285318" lon="-8.795582">
        <ele>103.3</ele>
        <time>1970-01-01T00:58:28.000Z</time>
      </trkpt>
      <trkpt lat="42.285313" lon="-8.795575">
        <ele>104.2</ele>
        <time>1970-01-01T00:58:29.000Z</time>
      </trkpt>
      <trkpt lat="42.28531" lon="-8.79557">
        <ele>104.2</ele>
        <time>1970-01-01T00:58:30.000Z</time>
      </trkpt>
      <trkpt lat="42.28531" lon="-8.795567">
        <ele>104.2</ele>
        <time>1970-01-01T00:58:31.000Z</time>
      </trkpt>
      <trkpt lat="42.285312" lon="-8.79556">
        <ele>104.2</ele>
        <time>1970-01-01T00:58:32.000Z</time>
      </trkpt>
      <trkpt lat="42.285313" lon="-8.795552">
        <ele>105.3</ele>
        <time>1970-01-01T00:58:33.000Z</time>
      </trkpt>
      <trkpt lat="42.285315" lon="-8.795547">
        <ele>105.3</ele>
        <time>1970-01-01T00:58:34.000Z</time>
      </trkpt>
      <trkpt lat="42.285318" lon="-8.79554">
        <ele>105.3</ele>
        <time>1970-01-01T00:58:35.000Z</time>
      </trkpt>
      <trkpt lat="42.28532" lon="-8.795533">
        <ele>105.3</ele>
        <time>1970-01-01T00:58:36.000Z</time>
      </trkpt>
      <trkpt lat="42.285325" lon="-8.795528">
        <ele>107.3</ele>
        <time>1970-01-01T00:58:37.000Z</time>
      </trkpt>
      <trkpt lat="42.285335" lon="-8.795525">
        <ele>107.3</ele>
        <time>1970-01-01T00:58:38.000Z</time>
      </trkpt>
      <trkpt lat="42.28534" lon="-8.795522">
        <ele>107.3</ele>
        <time>1970-01-01T00:58:39.000Z</time>
      </trkpt>
      <trkpt lat="42.285347" lon="-8.795518">
        <ele>107.3</ele>
        <time>1970-01-01T00:58:40.000Z</time>
      </trkpt>
      <trkpt lat="42.285347" lon="-8.795518">
        <ele>107.3</ele>
        <time>1970-01-01T00:58:41.000Z</time>
      </trkpt>
      <trkpt lat="42.285353" lon="-8.795517">
        <ele>107.3</ele>
        <time>1970-01-01T00:58:42.000Z</time>
      </trkpt>
      <trkpt lat="42.28536" lon="-8.795513">
        <ele>108.2</ele>
        <time>1970-01-01T00:58:43.000Z</time>
      </trkpt>
      <trkpt lat="42.285368" lon="-8.795508">
        <ele>108.2</ele>
        <time>1970-01-01T00:58:44.000Z</time>
      </trkpt>
      <trkpt lat="42.28537" lon="-8.795503">
        <ele>109.3</ele>
        <time>1970-01-01T00:58:45.000Z</time>
      </trkpt>
      <trkpt lat="42.28537" lon="-8.795498">
        <ele>109.3</ele>
        <time>1970-01-01T00:58:46.000Z</time>
      </trkpt>
      <trkpt lat="42.285378" lon="-8.795493">
        <ele>109.3</ele>
        <time>1970-01-01T00:58:47.000Z</time>
      </trkpt>
      <trkpt lat="42.285377" lon="-8.79549">
        <ele>109.3</ele>
        <time>1970-01-01T00:58:48.000Z</time>
      </trkpt>
      <trkpt lat="42.28538" lon="-8.795482">
        <ele>109.3</ele>
        <time>1970-01-01T00:58:49.000Z</time>
      </trkpt>
      <trkpt lat="42.28538" lon="-8.795477">
        <ele>109.3</ele>
        <time>1970-01-01T00:58:50.000Z</time>
      </trkpt>
      <trkpt lat="42.28538" lon="-8.79547">
        <ele>109.3</ele>
        <time>1970-01-01T00:58:51.000Z</time>
      </trkpt>
      <trkpt lat="42.285388" lon="-8.795468">
        <ele>109.3</ele>
        <time>1970-01-01T00:58:52.000Z</time>
      </trkpt>
      <trkpt lat="42.285397" lon="-8.795467">
        <ele>111.3</ele>
        <time>1970-01-01T00:58:53.000Z</time>
      </trkpt>
      <trkpt lat="42.285403" lon="-8.79547">
        <ele>111.3</ele>
        <time>1970-01-01T00:58:54.000Z</time>
      </trkpt>
      <trkpt lat="42.285408" lon="-8.795472">
        <ele>113.2</ele>
        <time>1970-01-01T00:58:55.000Z</time>
      </trkpt>
      <trkpt lat="42.285413" lon="-8.795472">
        <ele>113.2</ele>
        <time>1970-01-01T00:58:56.000Z</time>
      </trkpt>
      <trkpt lat="42.28542" lon="-8.795472">
        <ele>114.3</ele>
        <time>1970-01-01T00:58:57.000Z</time>
      </trkpt>
      <trkpt lat="42.285425" lon="-8.795467">
        <ele>114.3</ele>
        <time>1970-01-01T00:58:58.000Z</time>
      </trkpt>
      <trkpt lat="42.285428" lon="-8.795465">
        <ele>114.3</ele>
        <time>1970-01-01T00:58:59.000Z</time>
      </trkpt>
      <trkpt lat="42.285432" lon="-8.795463">
        <ele>114.3</ele>
        <time>1970-01-01T00:59:00.000Z</time>
      </trkpt>
      <trkpt lat="42.285433" lon="-8.795465">
        <ele>115.2</ele>
        <time>1970-01-01T00:59:01.000Z</time>
      </trkpt>
      <trkpt lat="42.285435" lon="-8.795467">
        <ele>115.2</ele>
        <time>1970-01-01T00:59:02.000Z</time>
      </trkpt>
      <trkpt lat="42.285438" lon="-8.79547">
        <ele>115.2</ele>
        <time>1970-01-01T00:59:03.000Z</time>
      </trkpt>
      <trkpt lat="42.285443" lon="-8.79547">
        <ele>115.2</ele>
        <time>1970-01-01T00:59:04.000Z</time>
      </trkpt>
      <trkpt lat="42.285445" lon="-8.795473">
        <ele>116.3</ele>
        <time>1970-01-01T00:59:05.000Z</time>
      </trkpt>
      <trkpt lat="42.285445" lon="-8.795472">
        <ele>116.3</ele>
        <time>1970-01-01T00:59:06.000Z</time>
      </trkpt>
      <trkpt lat="42.28545" lon="-8.795472">
        <ele>116.3</ele>
        <time>1970-01-01T00:59:07.000Z</time>
      </trkpt>
      <trkpt lat="42.285457" lon="-8.79547">
        <ele>116.3</ele>
        <time>1970-01-01T00:59:08.000Z</time>
      </trkpt>
      <trkpt lat="42.285465" lon="-8.795463">
        <ele>117.2</ele>
        <time>1970-01-01T00:59:09.000Z</time>
      </trkpt>
      <trkpt lat="42.285468" lon="-8.795458">
        <ele>117.2</ele>
        <time>1970-01-01T00:59:10.000Z</time>
      </trkpt>
      <trkpt lat="42.28547" lon="-8.795455">
        <ele>117.2</ele>
        <time>1970-01-01T00:59:11.000Z</time>
      </trkpt>
      <trkpt lat="42.28547" lon="-8.795452">
        <ele>117.2</ele>
        <time>1970-01-01T00:59:12.000Z</time>
      </trkpt>
      <trkpt lat="42.28547" lon="-8.795447">
        <ele>118.3</ele>
        <time>1970-01-01T00:59:13.000Z</time>
      </trkpt>
      <trkpt lat="42.285467" lon="-8.795438">
        <ele>118.3</ele>
        <time>1970-01-01T00:59:14.000Z</time>
      </trkpt>
      <trkpt lat="42.285462" lon="-8.795428">
        <ele>119.3</ele>
        <time>1970-01-01T00:59:15.000Z</time>
      </trkpt>
      <trkpt lat="42.285457" lon="-8.795423">
        <ele>119.3</ele>
        <time>1970-01-01T00:59:16.000Z</time>
      </trkpt>
      <trkpt lat="42.285453" lon="-8.795412">
        <ele>119.3</ele>
        <time>1970-01-01T00:59:17.000Z</time>
      </trkpt>
      <trkpt lat="42.28545" lon="-8.795393">
        <ele>119.3</ele>
        <time>1970-01-01T00:59:18.000Z</time>
      </trkpt>
      <trkpt lat="42.28545" lon="-8.795388">
        <ele>120.2</ele>
        <time>1970-01-01T00:59:19.000Z</time>
      </trkpt>
      <trkpt lat="42.28545" lon="-8.795377">
        <ele>120.2</ele>
        <time>1970-01-01T00:59:20.000Z</time>
      </trkpt>
      <trkpt lat="42.285453" lon="-8.795367">
        <ele>120.2</ele>
        <time>1970-01-01T00:59:21.000Z</time>
      </trkpt>
      <trkpt lat="42.285458" lon="-8.795358">
        <ele>120.2</ele>
        <time>1970-01-01T00:59:22.000Z</time>
      </trkpt>
      <trkpt lat="42.285463" lon="-8.795353">
        <ele>121.3</ele>
        <time>1970-01-01T00:59:23.000Z</time>
      </trkpt>
      <trkpt lat="42.28547" lon="-8.795348">
        <ele>121.3</ele>
        <time>1970-01-01T00:59:24.000Z</time>
      </trkpt>
      <trkpt lat="42.285472" lon="-8.795342">
        <ele>122.2</ele>
        <time>1970-01-01T00:59:25.000Z</time>
      </trkpt>
      <trkpt lat="42.285478" lon="-8.795332">
        <ele>122.2</ele>
        <time>1970-01-01T00:59:26.000Z</time>
      </trkpt>
      <trkpt lat="42.285483" lon="-8.795325">
        <ele>123.3</ele>
        <time>1970-01-01T00:59:27.000Z</time>
      </trkpt>
      <trkpt lat="42.285482" lon="-8.79532">
        <ele>123.3</ele>
        <time>1970-01-01T00:59:28.000Z</time>
      </trkpt>
      <trkpt lat="42.285482" lon="-8.795315">
        <ele>123.3</ele>
        <time>1970-01-01T00:59:29.000Z</time>
      </trkpt>
      <trkpt lat="42.28548" lon="-8.795302">
        <ele>123.3</ele>
        <time>1970-01-01T00:59:30.000Z</time>
      </trkpt>
      <trkpt lat="42.285473" lon="-8.795293">
        <ele>124.2</ele>
        <time>1970-01-01T00:59:31.000Z</time>
      </trkpt>
      <trkpt lat="42.28547" lon="-8.795288">
        <ele>124.2</ele>
        <time>1970-01-01T00:59:32.000Z</time>
      </trkpt>
      <trkpt lat="42.28547" lon="-8.795283">
        <ele>124.2</ele>
        <time>1970-01-01T00:59:33.000Z</time>
      </trkpt>
      <trkpt lat="42.285468" lon="-8.795283">
        <ele>124.2</ele>
        <time>1970-01-01T00:59:34.000Z</time>
      </trkpt>
      <trkpt lat="42.285467" lon="-8.79528">
        <ele>125.3</ele>
        <time>1970-01-01T00:59:35.000Z</time>
      </trkpt>
      <trkpt lat="42.285473" lon="-8.795277">
        <ele>125.3</ele>
        <time>1970-01-01T00:59:36.000Z</time>
      </trkpt>
      <trkpt lat="42.285485" lon="-8.795263">
        <ele>125.3</ele>
        <time>1970-01-01T00:59:37.000Z</time>
      </trkpt>
      <trkpt lat="42.285493" lon="-8.795252">
        <ele>125.3</ele>
        <time>1970-01-01T00:59:38.000Z</time>
      </trkpt>
      <trkpt lat="42.285502" lon="-8.795243">
        <ele>126.3</ele>
        <time>1970-01-01T00:59:39.000Z</time>
      </trkpt>
      <trkpt lat="42.285508" lon="-8.79524">
        <ele>126.3</ele>
        <time>1970-01-01T00:59:40.000Z</time>
      </trkpt>
      <trkpt lat="42.285517" lon="-8.795225">
        <ele>127.3</ele>
        <time>1970-01-01T00:59:41.000Z</time>
      </trkpt>
      <trkpt lat="42.285525" lon="-8.795212">
        <ele>127.3</ele>
        <time>1970-01-01T00:59:42.000Z</time>
      </trkpt>
      <trkpt lat="42.285533" lon="-8.795197">
        <ele>128.3</ele>
        <time>1970-01-01T00:59:43.000Z</time>
      </trkpt>
      <trkpt lat="42.285538" lon="-8.795182">
        <ele>128.3</ele>
        <time>1970-01-01T00:59:44.000Z</time>
      </trkpt>
      <trkpt lat="42.28554" lon="-8.79517">
        <ele>129.2</ele>
        <time>1970-01-01T00:59:45.000Z</time>
      </trkpt>
      <trkpt lat="42.285545" lon="-8.795165">
        <ele>129.2</ele>
        <time>1970-01-01T00:59:46.000Z</time>
      </trkpt>
      <trkpt lat="42.285538" lon="-8.795158">
        <ele>129.2</ele>
        <time>1970-01-01T00:59:47.000Z</time>
      </trkpt>
      <trkpt lat="42.285538" lon="-8.795148">
        <ele>129.2</ele>
        <time>1970-01-01T00:59:48.000Z</time>
      </trkpt>
      <trkpt lat="42.285538" lon="-8.795135">
        <ele>129.2</ele>
        <time>1970-01-01T00:59:49.000Z</time>
      </trkpt>
      <trkpt lat="42.285538" lon="-8.795133">
        <ele>129.2</ele>
        <time>1970-01-01T00:59:50.000Z</time>
      </trkpt>
      <trkpt lat="42.285538" lon="-8.79513">
        <ele>129.2</ele>
        <time>1970-01-01T00:59:51.000Z</time>
      </trkpt>
      <trkpt lat="42.28554" lon="-8.795127">
        <ele>129.2</ele>
        <time>1970-01-01T00:59:52.000Z</time>
      </trkpt>
      <trkpt lat="42.28554" lon="-8.795127">
        <ele>132.3</ele>
        <time>1970-01-01T00:59:53.000Z</time>
      </trkpt>
      <trkpt lat="42.285538" lon="-8.795125">
        <ele>132.3</ele>
        <time>1970-01-01T00:59:54.000Z</time>
      </trkpt>
      <trkpt lat="42.285538" lon="-8.79512">
        <ele>132.3</ele>
        <time>1970-01-01T00:59:55.000Z</time>
      </trkpt>
      <trkpt lat="42.285538" lon="-8.795112">
        <ele>132.3</ele>
        <time>1970-01-01T00:59:56.000Z</time>
      </trkpt>
      <trkpt lat="42.285542" lon="-8.795107">
        <ele>133.2</ele>
        <time>1970-01-01T00:59:57.000Z</time>
      </trkpt>
      <trkpt lat="42.285547" lon="-8.7951">
        <ele>133.2</ele>
        <time>1970-01-01T00:59:58.000Z</time>
      </trkpt>
      <trkpt lat="42.285548" lon="-8.795095">
        <ele>133.2</ele>
        <time>1970-01-01T00:59:59.000Z</time>
      </trkpt>
      <trkpt lat="42.285552" lon="-8.795093">
        <ele>133.2</ele>
        <time>1970-01-01T01:00:00.000Z</time>
      </trkpt>
      <trkpt lat="42.285552" lon="-8.795093">
        <ele>133.2</ele>
        <time>1970-01-01T01:00:01.000Z</time>
      </trkpt>
      <trkpt lat="42.285553" lon="-8.795095">
        <ele>133.2</ele>
        <time>1970-01-01T01:00:02.000Z</time>
      </trkpt>
      <trkpt lat="42.285553" lon="-8.795097">
        <ele>133.2</ele>
        <time>1970-01-01T01:00:03.000Z</time>
      </trkpt>
      <trkpt lat="42.285555" lon="-8.795098">
        <ele>133.2</ele>
        <time>1970-01-01T01:00:04.000Z</time>
      </trkpt>
      <trkpt lat="42.285555" lon="-8.795098">
        <ele>135.3</ele>
        <time>1970-01-01T01:00:05.000Z</time>
      </trkpt>
      <trkpt lat="42.285555" lon="-8.7951">
        <ele>135.3</ele>
        <time>1970-01-01T01:00:06.000Z</time>
      </trkpt>
      <trkpt lat="42.285557" lon="-8.795097">
        <ele>135.3</ele>
        <time>1970-01-01T01:00:07.000Z</time>
      </trkpt>
      <trkpt lat="42.285555" lon="-8.7951">
        <ele>135.3</ele>
        <time>1970-01-01T01:00:08.000Z</time>
      </trkpt>
      <trkpt lat="42.285553" lon="-8.7951">
        <ele>135.3</ele>
        <time>1970-01-01T01:00:09.000Z</time>
      </trkpt>
      <trkpt lat="42.285558" lon="-8.795093">
        <ele>135.3</ele>
        <time>1970-01-01T01:00:10.000Z</time>
      </trkpt>
      <trkpt lat="42.285563" lon="-8.795092">
        <ele>135.3</ele>
        <time>1970-01-01T01:00:11.000Z</time>
      </trkpt>
      <trkpt lat="42.28557" lon="-8.79509">
        <ele>135.3</ele>
        <time>1970-01-01T01:00:12.000Z</time>
      </trkpt>
      <trkpt lat="42.285577" lon="-8.795088">
        <ele>135.3</ele>
        <time>1970-01-01T01:00:13.000Z</time>
      </trkpt>
      <trkpt lat="42.285582" lon="-8.795085">
        <ele>135.3</ele>
        <time>1970-01-01T01:00:14.000Z</time>
      </trkpt>
      <trkpt lat="42.285588" lon="-8.795078">
        <ele>135.3</ele>
        <time>1970-01-01T01:00:15.000Z</time>
      </trkpt>
      <trkpt lat="42.285592" lon="-8.795077">
        <ele>135.3</ele>
        <time>1970-01-01T01:00:16.000Z</time>
      </trkpt>
      <trkpt lat="42.285597" lon="-8.795077">
        <ele>135.3</ele>
        <time>1970-01-01T01:00:17.000Z</time>
      </trkpt>
      <trkpt lat="42.285602" lon="-8.795077">
        <ele>135.3</ele>
        <time>1970-01-01T01:00:18.000Z</time>
      </trkpt>
      <trkpt lat="42.285607" lon="-8.795073">
        <ele>135.3</ele>
        <time>1970-01-01T01:00:19.000Z</time>
      </trkpt>
      <trkpt lat="42.285613" lon="-8.795065">
        <ele>135.3</ele>
        <time>1970-01-01T01:00:20.000Z</time>
      </trkpt>
      <trkpt lat="42.285623" lon="-8.795052">
        <ele>136.2</ele>
        <time>1970-01-01T01:00:21.000Z</time>
      </trkpt>
      <trkpt lat="42.285628" lon="-8.795042">
        <ele>136.2</ele>
        <time>1970-01-01T01:00:22.000Z</time>
      </trkpt>
      <trkpt lat="42.285632" lon="-8.795033">
        <ele>136.2</ele>
        <time>1970-01-01T01:00:23.000Z</time>
      </trkpt>
      <trkpt lat="42.285635" lon="-8.795027">
        <ele>136.2</ele>
        <time>1970-01-01T01:00:24.000Z</time>
      </trkpt>
      <trkpt lat="42.285635" lon="-8.795013">
        <ele>136.2</ele>
        <time>1970-01-01T01:00:25.000Z</time>
      </trkpt>
      <trkpt lat="42.285633" lon="-8.794995">
        <ele>136.2</ele>
        <time>1970-01-01T01:00:26.000Z</time>
      </trkpt>
      <trkpt lat="42.285633" lon="-8.794987">
        <ele>136.2</ele>
        <time>1970-01-01T01:00:27.000Z</time>
      </trkpt>
      <trkpt lat="42.285633" lon="-8.794982">
        <ele>136.2</ele>
        <time>1970-01-01T01:00:28.000Z</time>
      </trkpt>
      <trkpt lat="42.285632" lon="-8.794977">
        <ele>136.2</ele>
        <time>1970-01-01T01:00:29.000Z</time>
      </trkpt>
      <trkpt lat="42.285632" lon="-8.794973">
        <ele>136.2</ele>
        <time>1970-01-01T01:00:30.000Z</time>
      </trkpt>
      <trkpt lat="42.285628" lon="-8.794967">
        <ele>136.2</ele>
        <time>1970-01-01T01:00:31.000Z</time>
      </trkpt>
      <trkpt lat="42.285627" lon="-8.794962">
        <ele>136.2</ele>
        <time>1970-01-01T01:00:32.000Z</time>
      </trkpt>
      <trkpt lat="42.285622" lon="-8.794955">
        <ele>136.2</ele>
        <time>1970-01-01T01:00:33.000Z</time>
      </trkpt>
      <trkpt lat="42.285615" lon="-8.79495">
        <ele>136.2</ele>
        <time>1970-01-01T01:00:34.000Z</time>
      </trkpt>
      <trkpt lat="42.285613" lon="-8.794947">
        <ele>137.3</ele>
        <time>1970-01-01T01:00:35.000Z</time>
      </trkpt>
      <trkpt lat="42.285615" lon="-8.794945">
        <ele>137.3</ele>
        <time>1970-01-01T01:00:36.000Z</time>
      </trkpt>
      <trkpt lat="42.285617" lon="-8.794945">
        <ele>137.3</ele>
        <time>1970-01-01T01:00:37.000Z</time>
      </trkpt>
      <trkpt lat="42.285615" lon="-8.794943">
        <ele>137.3</ele>
        <time>1970-01-01T01:00:38.000Z</time>
      </trkpt>
      <trkpt lat="42.285613" lon="-8.79494">
        <ele>137.3</ele>
        <time>1970-01-01T01:00:39.000Z</time>
      </trkpt>
      <trkpt lat="42.285612" lon="-8.794935">
        <ele>137.3</ele>
        <time>1970-01-01T01:00:40.000Z</time>
      </trkpt>
      <trkpt lat="42.285605" lon="-8.794928">
        <ele>137.3</ele>
        <time>1970-01-01T01:00:41.000Z</time>
      </trkpt>
      <trkpt lat="42.285602" lon="-8.794923">
        <ele>137.3</ele>
        <time>1970-01-01T01:00:42.000Z</time>
      </trkpt>
      <trkpt lat="42.285598" lon="-8.794923">
        <ele>137.3</ele>
        <time>1970-01-01T01:00:43.000Z</time>
      </trkpt>
      <trkpt lat="42.285597" lon="-8.794922">
        <ele>137.3</ele>
        <time>1970-01-01T01:00:44.000Z</time>
      </trkpt>
      <trkpt lat="42.285597" lon="-8.794922">
        <ele>137.3</ele>
        <time>1970-01-01T01:00:45.000Z</time>
      </trkpt>
      <trkpt lat="42.285597" lon="-8.794922">
        <ele>137.3</ele>
        <time>1970-01-01T01:00:46.000Z</time>
      </trkpt>
      <trkpt lat="42.285595" lon="-8.79492">
        <ele>137.3</ele>
        <time>1970-01-01T01:00:47.000Z</time>
      </trkpt>
      <trkpt lat="42.285595" lon="-8.794918">
        <ele>137.3</ele>
        <time>1970-01-01T01:00:48.000Z</time>
      </trkpt>
      <trkpt lat="42.285593" lon="-8.794917">
        <ele>137.3</ele>
        <time>1970-01-01T01:00:49.000Z</time>
      </trkpt>
      <trkpt lat="42.285592" lon="-8.794913">
        <ele>137.3</ele>
        <time>1970-01-01T01:00:50.000Z</time>
      </trkpt>
      <trkpt lat="42.285588" lon="-8.794908">
        <ele>137.3</ele>
        <time>1970-01-01T01:00:51.000Z</time>
      </trkpt>
      <trkpt lat="42.285585" lon="-8.794898">
        <ele>137.3</ele>
        <time>1970-01-01T01:00:52.000Z</time>
      </trkpt>
      <trkpt lat="42.285578" lon="-8.794892">
        <ele>138.2</ele>
        <time>1970-01-01T01:00:53.000Z</time>
      </trkpt>
      <trkpt lat="42.285573" lon="-8.794888">
        <ele>138.2</ele>
        <time>1970-01-01T01:00:54.000Z</time>
      </trkpt>
      <trkpt lat="42.28557" lon="-8.794887">
        <ele>138.2</ele>
        <time>1970-01-01T01:00:55.000Z</time>
      </trkpt>
      <trkpt lat="42.285565" lon="-8.794882">
        <ele>138.2</ele>
        <time>1970-01-01T01:00:56.000Z</time>
      </trkpt>
      <trkpt lat="42.285562" lon="-8.794875">
        <ele>138.2</ele>
        <time>1970-01-01T01:00:57.000Z</time>
      </trkpt>
      <trkpt lat="42.285557" lon="-8.794867">
        <ele>138.2</ele>
        <time>1970-01-01T01:00:58.000Z</time>
      </trkpt>
      <trkpt lat="42.28555" lon="-8.794858">
        <ele>138.2</ele>
        <time>1970-01-01T01:00:59.000Z</time>
      </trkpt>
      <trkpt lat="42.285545" lon="-8.794848">
        <ele>138.2</ele>
        <time>1970-01-01T01:01:00.000Z</time>
      </trkpt>
      <trkpt lat="42.285538" lon="-8.794842">
        <ele>139.3</ele>
        <time>1970-01-01T01:01:01.000Z</time>
      </trkpt>
      <trkpt lat="42.285532" lon="-8.794832">
        <ele>139.3</ele>
        <time>1970-01-01T01:01:02.000Z</time>
      </trkpt>
      <trkpt lat="42.285527" lon="-8.794822">
        <ele>140.2</ele>
        <time>1970-01-01T01:01:03.000Z</time>
      </trkpt>
      <trkpt lat="42.28552" lon="-8.794813">
        <ele>140.2</ele>
        <time>1970-01-01T01:01:04.000Z</time>
      </trkpt>
      <trkpt lat="42.28551" lon="-8.794808">
        <ele>140.2</ele>
        <time>1970-01-01T01:01:05.000Z</time>
      </trkpt>
      <trkpt lat="42.285503" lon="-8.794808">
        <ele>140.2</ele>
        <time>1970-01-01T01:01:06.000Z</time>
      </trkpt>
      <trkpt lat="42.2855" lon="-8.794807">
        <ele>140.2</ele>
        <time>1970-01-01T01:01:07.000Z</time>
      </trkpt>
      <trkpt lat="42.285498" lon="-8.794807">
        <ele>140.2</ele>
        <time>1970-01-01T01:01:08.000Z</time>
      </trkpt>
      <trkpt lat="42.285497" lon="-8.794807">
        <ele>140.2</ele>
        <time>1970-01-01T01:01:09.000Z</time>
      </trkpt>
      <trkpt lat="42.285497" lon="-8.794807">
        <ele>140.2</ele>
        <time>1970-01-01T01:01:10.000Z</time>
      </trkpt>
      <trkpt lat="42.285497" lon="-8.794807">
        <ele>140.2</ele>
        <time>1970-01-01T01:01:11.000Z</time>
      </trkpt>
      <trkpt lat="42.285497" lon="-8.794807">
        <ele>140.2</ele>
        <time>1970-01-01T01:01:12.000Z</time>
      </trkpt>
      <trkpt lat="42.285497" lon="-8.794805">
        <ele>141.3</ele>
        <time>1970-01-01T01:01:13.000Z</time>
      </trkpt>
      <trkpt lat="42.285495" lon="-8.794802">
        <ele>141.3</ele>
        <time>1970-01-01T01:01:14.000Z</time>
      </trkpt>
      <trkpt lat="42.285488" lon="-8.7948">
        <ele>141.3</ele>
        <time>1970-01-01T01:01:15.000Z</time>
      </trkpt>
      <trkpt lat="42.285482" lon="-8.794798">
        <ele>141.3</ele>
        <time>1970-01-01T01:01:16.000Z</time>
      </trkpt>
      <trkpt lat="42.285475" lon="-8.794793">
        <ele>141.3</ele>
        <time>1970-01-01T01:01:17.000Z</time>
      </trkpt>
      <trkpt lat="42.285467" lon="-8.79479">
        <ele>141.3</ele>
        <time>1970-01-01T01:01:18.000Z</time>
      </trkpt>
      <trkpt lat="42.285453" lon="-8.79479">
        <ele>141.3</ele>
        <time>1970-01-01T01:01:19.000Z</time>
      </trkpt>
      <trkpt lat="42.285442" lon="-8.794792">
        <ele>141.3</ele>
        <time>1970-01-01T01:01:20.000Z</time>
      </trkpt>
      <trkpt lat="42.285433" lon="-8.79479">
        <ele>141.3</ele>
        <time>1970-01-01T01:01:21.000Z</time>
      </trkpt>
      <trkpt lat="42.285425" lon="-8.794788">
        <ele>141.3</ele>
        <time>1970-01-01T01:01:22.000Z</time>
      </trkpt>
      <trkpt lat="42.285415" lon="-8.794788">
        <ele>141.3</ele>
        <time>1970-01-01T01:01:23.000Z</time>
      </trkpt>
      <trkpt lat="42.285407" lon="-8.794793">
        <ele>141.3</ele>
        <time>1970-01-01T01:01:24.000Z</time>
      </trkpt>
      <trkpt lat="42.285397" lon="-8.794797">
        <ele>141.3</ele>
        <time>1970-01-01T01:01:25.000Z</time>
      </trkpt>
      <trkpt lat="42.285388" lon="-8.794795">
        <ele>141.3</ele>
        <time>1970-01-01T01:01:26.000Z</time>
      </trkpt>
      <trkpt lat="42.285383" lon="-8.794797">
        <ele>141.3</ele>
        <time>1970-01-01T01:01:27.000Z</time>
      </trkpt>
      <trkpt lat="42.28538" lon="-8.794793">
        <ele>141.3</ele>
        <time>1970-01-01T01:01:28.000Z</time>
      </trkpt>
      <trkpt lat="42.285373" lon="-8.794788">
        <ele>141.3</ele>
        <time>1970-01-01T01:01:29.000Z</time>
      </trkpt>
      <trkpt lat="42.28537" lon="-8.79478">
        <ele>141.3</ele>
        <time>1970-01-01T01:01:30.000Z</time>
      </trkpt>
      <trkpt lat="42.285368" lon="-8.794775">
        <ele>141.3</ele>
        <time>1970-01-01T01:01:31.000Z</time>
      </trkpt>
      <trkpt lat="42.285367" lon="-8.794767">
        <ele>141.3</ele>
        <time>1970-01-01T01:01:32.000Z</time>
      </trkpt>
      <trkpt lat="42.285365" lon="-8.794762">
        <ele>141.3</ele>
        <time>1970-01-01T01:01:33.000Z</time>
      </trkpt>
      <trkpt lat="42.285367" lon="-8.794753">
        <ele>141.3</ele>
        <time>1970-01-01T01:01:34.000Z</time>
      </trkpt>
      <trkpt lat="42.285368" lon="-8.794747">
        <ele>141.3</ele>
        <time>1970-01-01T01:01:35.000Z</time>
      </trkpt>
      <trkpt lat="42.285365" lon="-8.79474">
        <ele>141.3</ele>
        <time>1970-01-01T01:01:36.000Z</time>
      </trkpt>
      <trkpt lat="42.285362" lon="-8.794735">
        <ele>143.3</ele>
        <time>1970-01-01T01:01:37.000Z</time>
      </trkpt>
      <trkpt lat="42.285358" lon="-8.794728">
        <ele>143.3</ele>
        <time>1970-01-01T01:01:38.000Z</time>
      </trkpt>
      <trkpt lat="42.285358" lon="-8.794718">
        <ele>143.3</ele>
        <time>1970-01-01T01:01:39.000Z</time>
      </trkpt>
      <trkpt lat="42.28536" lon="-8.79471">
        <ele>143.3</ele>
        <time>1970-01-01T01:01:40.000Z</time>
      </trkpt>
      <trkpt lat="42.285355" lon="-8.794705">
        <ele>144.3</ele>
        <time>1970-01-01T01:01:41.000Z</time>
      </trkpt>
      <trkpt lat="42.285353" lon="-8.794702">
        <ele>144.3</ele>
        <time>1970-01-01T01:01:42.000Z</time>
      </trkpt>
      <trkpt lat="42.285347" lon="-8.7947">
        <ele>144.3</ele>
        <time>1970-01-01T01:01:43.000Z</time>
      </trkpt>
      <trkpt lat="42.285345" lon="-8.794702">
        <ele>144.3</ele>
        <time>1970-01-01T01:01:44.000Z</time>
      </trkpt>
      <trkpt lat="42.285343" lon="-8.794693">
        <ele>144.3</ele>
        <time>1970-01-01T01:01:45.000Z</time>
      </trkpt>
      <trkpt lat="42.28534" lon="-8.794688">
        <ele>144.3</ele>
        <time>1970-01-01T01:01:46.000Z</time>
      </trkpt>
      <trkpt lat="42.285342" lon="-8.794668">
        <ele>145.2</ele>
        <time>1970-01-01T01:01:47.000Z</time>
      </trkpt>
      <trkpt lat="42.285333" lon="-8.794655">
        <ele>145.2</ele>
        <time>1970-01-01T01:01:48.000Z</time>
      </trkpt>
      <trkpt lat="42.285325" lon="-8.794643">
        <ele>145.2</ele>
        <time>1970-01-01T01:01:49.000Z</time>
      </trkpt>
      <trkpt lat="42.28532" lon="-8.794637">
        <ele>145.2</ele>
        <time>1970-01-01T01:01:50.000Z</time>
      </trkpt>
      <trkpt lat="42.285313" lon="-8.79463">
        <ele>146.3</ele>
        <time>1970-01-01T01:01:51.000Z</time>
      </trkpt>
      <trkpt lat="42.285303" lon="-8.794625">
        <ele>146.3</ele>
        <time>1970-01-01T01:01:52.000Z</time>
      </trkpt>
      <trkpt lat="42.285303" lon="-8.794612">
        <ele>147.2</ele>
        <time>1970-01-01T01:01:53.000Z</time>
      </trkpt>
      <trkpt lat="42.285303" lon="-8.794607">
        <ele>147.2</ele>
        <time>1970-01-01T01:01:54.000Z</time>
      </trkpt>
      <trkpt lat="42.285303" lon="-8.794598">
        <ele>148.3</ele>
        <time>1970-01-01T01:01:55.000Z</time>
      </trkpt>
      <trkpt lat="42.285302" lon="-8.794585">
        <ele>148.3</ele>
        <time>1970-01-01T01:01:56.000Z</time>
      </trkpt>
      <trkpt lat="42.285295" lon="-8.794578">
        <ele>149.2</ele>
        <time>1970-01-01T01:01:57.000Z</time>
      </trkpt>
      <trkpt lat="42.28529" lon="-8.794575">
        <ele>149.2</ele>
        <time>1970-01-01T01:01:58.000Z</time>
      </trkpt>
      <trkpt lat="42.285282" lon="-8.794572">
        <ele>150.3</ele>
        <time>1970-01-01T01:01:59.000Z</time>
      </trkpt>
      <trkpt lat="42.28527" lon="-8.794575">
        <ele>150.3</ele>
        <time>1970-01-01T01:02:00.000Z</time>
      </trkpt>
      <trkpt lat="42.285262" lon="-8.794583">
        <ele>150.3</ele>
        <time>1970-01-01T01:02:01.000Z</time>
      </trkpt>
      <trkpt lat="42.28525" lon="-8.794587">
        <ele>150.3</ele>
        <time>1970-01-01T01:02:02.000Z</time>
      </trkpt>
      <trkpt lat="42.285247" lon="-8.794588">
        <ele>150.3</ele>
        <time>1970-01-01T01:02:03.000Z</time>
      </trkpt>
      <trkpt lat="42.285243" lon="-8.79459">
        <ele>150.3</ele>
        <time>1970-01-01T01:02:04.000Z</time>
      </trkpt>
      <trkpt lat="42.285243" lon="-8.794593">
        <ele>150.3</ele>
        <time>1970-01-01T01:02:05.000Z</time>
      </trkpt>
      <trkpt lat="42.285242" lon="-8.794593">
        <ele>150.3</ele>
        <time>1970-01-01T01:02:06.000Z</time>
      </trkpt>
      <trkpt lat="42.28524" lon="-8.794592">
        <ele>151.3</ele>
        <time>1970-01-01T01:02:07.000Z</time>
      </trkpt>
      <trkpt lat="42.28524" lon="-8.794592">
        <ele>151.3</ele>
        <time>1970-01-01T01:02:08.000Z</time>
      </trkpt>
      <trkpt lat="42.285238" lon="-8.794592">
        <ele>152.2</ele>
        <time>1970-01-01T01:02:09.000Z</time>
      </trkpt>
      <trkpt lat="42.285233" lon="-8.79459">
        <ele>152.2</ele>
        <time>1970-01-01T01:02:10.000Z</time>
      </trkpt>
      <trkpt lat="42.28523" lon="-8.794592">
        <ele>152.2</ele>
        <time>1970-01-01T01:02:11.000Z</time>
      </trkpt>
      <trkpt lat="42.285227" lon="-8.794592">
        <ele>152.2</ele>
        <time>1970-01-01T01:02:12.000Z</time>
      </trkpt>
      <trkpt lat="42.285223" lon="-8.79459">
        <ele>152.2</ele>
        <time>1970-01-01T01:02:13.000Z</time>
      </trkpt>
      <trkpt lat="42.285222" lon="-8.794588">
        <ele>152.2</ele>
        <time>1970-01-01T01:02:14.000Z</time>
      </trkpt>
      <trkpt lat="42.285222" lon="-8.794588">
        <ele>152.2</ele>
        <time>1970-01-01T01:02:15.000Z</time>
      </trkpt>
      <trkpt lat="42.285222" lon="-8.794588">
        <ele>152.2</ele>
        <time>1970-01-01T01:02:16.000Z</time>
      </trkpt>
      <trkpt lat="42.285222" lon="-8.794588">
        <ele>152.2</ele>
        <time>1970-01-01T01:02:17.000Z</time>
      </trkpt>
      <trkpt lat="42.285222" lon="-8.794588">
        <ele>153.3</ele>
        <time>1970-01-01T01:02:18.000Z</time>
      </trkpt>
      <trkpt lat="42.285222" lon="-8.794588">
        <ele>153.3</ele>
        <time>1970-01-01T01:02:19.000Z</time>
      </trkpt>
      <trkpt lat="42.285222" lon="-8.794588">
        <ele>153.3</ele>
        <time>1970-01-01T01:02:20.000Z</time>
      </trkpt>
      <trkpt lat="42.285222" lon="-8.794588">
        <ele>153.3</ele>
        <time>1970-01-01T01:02:21.000Z</time>
      </trkpt>
      <trkpt lat="42.285222" lon="-8.794588">
        <ele>154.2</ele>
        <time>1970-01-01T01:02:22.000Z</time>
      </trkpt>
      <trkpt lat="42.285222" lon="-8.794588">
        <ele>154.2</ele>
        <time>1970-01-01T01:02:23.000Z</time>
      </trkpt>
      <trkpt lat="42.285222" lon="-8.794588">
        <ele>154.2</ele>
        <time>1970-01-01T01:02:24.000Z</time>
      </trkpt>
      <trkpt lat="42.285222" lon="-8.794588">
        <ele>154.2</ele>
        <time>1970-01-01T01:02:25.000Z</time>
      </trkpt>
      <trkpt lat="42.285222" lon="-8.794588">
        <ele>154.2</ele>
        <time>1970-01-01T01:02:26.000Z</time>
      </trkpt>
      <trkpt lat="42.285217" lon="-8.794582">
        <ele>154.2</ele>
        <time>1970-01-01T01:02:27.000Z</time>
      </trkpt>
      <trkpt lat="42.285212" lon="-8.794567">
        <ele>154.2</ele>
        <time>1970-01-01T01:02:28.000Z</time>
      </trkpt>
      <trkpt lat="42.285207" lon="-8.794548">
        <ele>154.2</ele>
        <time>1970-01-01T01:02:29.000Z</time>
      </trkpt>
      <trkpt lat="42.285205" lon="-8.794525">
        <ele>155.3</ele>
        <time>1970-01-01T01:02:30.000Z</time>
      </trkpt>
      <trkpt lat="42.2852" lon="-8.794515">
        <ele>155.3</ele>
        <time>1970-01-01T01:02:31.000Z</time>
      </trkpt>
      <trkpt lat="42.285198" lon="-8.794503">
        <ele>155.3</ele>
        <time>1970-01-01T01:02:32.000Z</time>
      </trkpt>
      <trkpt lat="42.285195" lon="-8.79449">
        <ele>155.3</ele>
        <time>1970-01-01T01:02:33.000Z</time>
      </trkpt>
      <trkpt lat="42.28519" lon="-8.794473">
        <ele>156.2</ele>
        <time>1970-01-01T01:02:34.000Z</time>
      </trkpt>
      <trkpt lat="42.285187" lon="-8.794458">
        <ele>156.2</ele>
        <time>1970-01-01T01:02:35.000Z</time>
      </trkpt>
      <trkpt lat="42.285182" lon="-8.794445">
        <ele>156.2</ele>
        <time>1970-01-01T01:02:36.000Z</time>
      </trkpt>
      <trkpt lat="42.28518" lon="-8.79444">
        <ele>156.2</ele>
        <time>1970-01-01T01:02:37.000Z</time>
      </trkpt>
      <trkpt lat="42.285178" lon="-8.794438">
        <ele>157.3</ele>
        <time>1970-01-01T01:02:38.000Z</time>
      </trkpt>
      <trkpt lat="42.285177" lon="-8.794435">
        <ele>157.3</ele>
        <time>1970-01-01T01:02:39.000Z</time>
      </trkpt>
      <trkpt lat="42.285175" lon="-8.794428">
        <ele>157.3</ele>
        <time>1970-01-01T01:02:40.000Z</time>
      </trkpt>
      <trkpt lat="42.285175" lon="-8.794423">
        <ele>157.3</ele>
        <time>1970-01-01T01:02:41.000Z</time>
      </trkpt>
      <trkpt lat="42.285177" lon="-8.794422">
        <ele>157.3</ele>
        <time>1970-01-01T01:02:42.000Z</time>
      </trkpt>
      <trkpt lat="42.285178" lon="-8.794422">
        <ele>157.3</ele>
        <time>1970-01-01T01:02:43.000Z</time>
      </trkpt>
      <trkpt lat="42.285178" lon="-8.79442">
        <ele>157.3</ele>
        <time>1970-01-01T01:02:44.000Z</time>
      </trkpt>
      <trkpt lat="42.285178" lon="-8.79442">
        <ele>157.3</ele>
        <time>1970-01-01T01:02:45.000Z</time>
      </trkpt>
      <trkpt lat="42.285178" lon="-8.794422">
        <ele>158.2</ele>
        <time>1970-01-01T01:02:46.000Z</time>
      </trkpt>
      <trkpt lat="42.285177" lon="-8.79442">
        <ele>158.2</ele>
        <time>1970-01-01T01:02:47.000Z</time>
      </trkpt>
      <trkpt lat="42.285178" lon="-8.794412">
        <ele>158.2</ele>
        <time>1970-01-01T01:02:48.000Z</time>
      </trkpt>
      <trkpt lat="42.285182" lon="-8.794397">
        <ele>158.2</ele>
        <time>1970-01-01T01:02:49.000Z</time>
      </trkpt>
      <trkpt lat="42.285182" lon="-8.794392">
        <ele>158.2</ele>
        <time>1970-01-01T01:02:50.000Z</time>
      </trkpt>
      <trkpt lat="42.28518" lon="-8.794388">
        <ele>158.2</ele>
        <time>1970-01-01T01:02:51.000Z</time>
      </trkpt>
      <trkpt lat="42.28518" lon="-8.794388">
        <ele>158.2</ele>
        <time>1970-01-01T01:02:52.000Z</time>
      </trkpt>
      <trkpt lat="42.28518" lon="-8.794382">
        <ele>158.2</ele>
        <time>1970-01-01T01:02:53.000Z</time>
      </trkpt>
      <trkpt lat="42.285178" lon="-8.794375">
        <ele>159.3</ele>
        <time>1970-01-01T01:02:54.000Z</time>
      </trkpt>
      <trkpt lat="42.285173" lon="-8.79437">
        <ele>159.3</ele>
        <time>1970-01-01T01:02:55.000Z</time>
      </trkpt>
      <trkpt lat="42.285168" lon="-8.794365">
        <ele>159.3</ele>
        <time>1970-01-01T01:02:56.000Z</time>
      </trkpt>
      <trkpt lat="42.285162" lon="-8.794362">
        <ele>159.3</ele>
        <time>1970-01-01T01:02:57.000Z</time>
      </trkpt>
      <trkpt lat="42.28516" lon="-8.794358">
        <ele>159.3</ele>
        <time>1970-01-01T01:02:58.000Z</time>
      </trkpt>
      <trkpt lat="42.285157" lon="-8.794355">
        <ele>159.3</ele>
        <time>1970-01-01T01:02:59.000Z</time>
      </trkpt>
      <trkpt lat="42.285152" lon="-8.79435">
        <ele>159.3</ele>
        <time>1970-01-01T01:03:00.000Z</time>
      </trkpt>
      <trkpt lat="42.285148" lon="-8.79435">
        <ele>159.3</ele>
        <time>1970-01-01T01:03:01.000Z</time>
      </trkpt>
      <trkpt lat="42.285145" lon="-8.794352">
        <ele>159.3</ele>
        <time>1970-01-01T01:03:02.000Z</time>
      </trkpt>
      <trkpt lat="42.28514" lon="-8.794347">
        <ele>159.3</ele>
        <time>1970-01-01T01:03:03.000Z</time>
      </trkpt>
      <trkpt lat="42.285137" lon="-8.794347">
        <ele>159.3</ele>
        <time>1970-01-01T01:03:04.000Z</time>
      </trkpt>
      <trkpt lat="42.285137" lon="-8.794348">
        <ele>159.3</ele>
        <time>1970-01-01T01:03:05.000Z</time>
      </trkpt>
      <trkpt lat="42.285137" lon="-8.794348">
        <ele>159.3</ele>
        <time>1970-01-01T01:03:06.000Z</time>
      </trkpt>
      <trkpt lat="42.285137" lon="-8.794348">
        <ele>159.3</ele>
        <time>1970-01-01T01:03:07.000Z</time>
      </trkpt>
      <trkpt lat="42.285137" lon="-8.794347">
        <ele>159.3</ele>
        <time>1970-01-01T01:03:08.000Z</time>
      </trkpt>
      <trkpt lat="42.285138" lon="-8.794347">
        <ele>159.3</ele>
        <time>1970-01-01T01:03:09.000Z</time>
      </trkpt>
      <trkpt lat="42.285138" lon="-8.794347">
        <ele>159.3</ele>
        <time>1970-01-01T01:03:10.000Z</time>
      </trkpt>
      <trkpt lat="42.285138" lon="-8.794347">
        <ele>159.3</ele>
        <time>1970-01-01T01:03:11.000Z</time>
      </trkpt>
      <trkpt lat="42.285138" lon="-8.794347">
        <ele>159.3</ele>
        <time>1970-01-01T01:03:12.000Z</time>
      </trkpt>
      <trkpt lat="42.285138" lon="-8.794347">
        <ele>159.3</ele>
        <time>1970-01-01T01:03:13.000Z</time>
      </trkpt>
      <trkpt lat="42.285138" lon="-8.794347">
        <ele>159.3</ele>
        <time>1970-01-01T01:03:14.000Z</time>
      </trkpt>
      <trkpt lat="42.285138" lon="-8.794347">
        <ele>159.3</ele>
        <time>1970-01-01T01:03:15.000Z</time>
      </trkpt>
      <trkpt lat="42.285138" lon="-8.794347">
        <ele>159.3</ele>
        <time>1970-01-01T01:03:16.000Z</time>
      </trkpt>
      <trkpt lat="42.285138" lon="-8.794347">
        <ele>159.3</ele>
        <time>1970-01-01T01:03:17.000Z</time>
      </trkpt>
      <trkpt lat="42.285138" lon="-8.794347">
        <ele>159.3</ele>
        <time>1970-01-01T01:03:18.000Z</time>
      </trkpt>
      <trkpt lat="42.285135" lon="-8.794347">
        <ele>159.3</ele>
        <time>1970-01-01T01:03:19.000Z</time>
      </trkpt>
      <trkpt lat="42.285128" lon="-8.794348">
        <ele>159.3</ele>
        <time>1970-01-01T01:03:20.000Z</time>
      </trkpt>
      <trkpt lat="42.285118" lon="-8.794353">
        <ele>159.3</ele>
        <time>1970-01-01T01:03:21.000Z</time>
      </trkpt>
      <trkpt lat="42.285103" lon="-8.79436">
        <ele>159.3</ele>
        <time>1970-01-01T01:03:22.000Z</time>
      </trkpt>
      <trkpt lat="42.285088" lon="-8.79437">
        <ele>159.3</ele>
        <time>1970-01-01T01:03:23.000Z</time>
      </trkpt>
      <trkpt lat="42.285072" lon="-8.794372">
        <ele>158.2</ele>
        <time>1970-01-01T01:03:24.000Z</time>
      </trkpt>
      <trkpt lat="42.285057" lon="-8.794373">
        <ele>158.2</ele>
        <time>1970-01-01T01:03:25.000Z</time>
      </trkpt>
      <trkpt lat="42.285045" lon="-8.794373">
        <ele>158.2</ele>
        <time>1970-01-01T01:03:26.000Z</time>
      </trkpt>
      <trkpt lat="42.285027" lon="-8.79437">
        <ele>158.2</ele>
        <time>1970-01-01T01:03:27.000Z</time>
      </trkpt>
      <trkpt lat="42.28501" lon="-8.794365">
        <ele>158.2</ele>
        <time>1970-01-01T01:03:28.000Z</time>
      </trkpt>
      <trkpt lat="42.285" lon="-8.794358">
        <ele>158.2</ele>
        <time>1970-01-01T01:03:29.000Z</time>
      </trkpt>
      <trkpt lat="42.284988" lon="-8.794358">
        <ele>159.3</ele>
        <time>1970-01-01T01:03:30.000Z</time>
      </trkpt>
      <trkpt lat="42.284983" lon="-8.794352">
        <ele>159.3</ele>
        <time>1970-01-01T01:03:31.000Z</time>
      </trkpt>
      <trkpt lat="42.284978" lon="-8.794348">
        <ele>159.3</ele>
        <time>1970-01-01T01:03:32.000Z</time>
      </trkpt>
      <trkpt lat="42.284975" lon="-8.794347">
        <ele>159.3</ele>
        <time>1970-01-01T01:03:33.000Z</time>
      </trkpt>
      <trkpt lat="42.284973" lon="-8.794345">
        <ele>159.3</ele>
        <time>1970-01-01T01:03:34.000Z</time>
      </trkpt>
      <trkpt lat="42.284972" lon="-8.794343">
        <ele>159.3</ele>
        <time>1970-01-01T01:03:35.000Z</time>
      </trkpt>
      <trkpt lat="42.284972" lon="-8.79434">
        <ele>159.3</ele>
        <time>1970-01-01T01:03:36.000Z</time>
      </trkpt>
      <trkpt lat="42.284972" lon="-8.794335">
        <ele>159.3</ele>
        <time>1970-01-01T01:03:37.000Z</time>
      </trkpt>
      <trkpt lat="42.284972" lon="-8.794325">
        <ele>160.3</ele>
        <time>1970-01-01T01:03:38.000Z</time>
      </trkpt>
      <trkpt lat="42.284972" lon="-8.794318">
        <ele>160.3</ele>
        <time>1970-01-01T01:03:39.000Z</time>
      </trkpt>
      <trkpt lat="42.28497" lon="-8.794312">
        <ele>160.3</ele>
        <time>1970-01-01T01:03:40.000Z</time>
      </trkpt>
      <trkpt lat="42.284968" lon="-8.794305">
        <ele>160.3</ele>
        <time>1970-01-01T01:03:41.000Z</time>
      </trkpt>
      <trkpt lat="42.284965" lon="-8.794293">
        <ele>160.3</ele>
        <time>1970-01-01T01:03:42.000Z</time>
      </trkpt>
      <trkpt lat="42.284962" lon="-8.794285">
        <ele>160.3</ele>
        <time>1970-01-01T01:03:43.000Z</time>
      </trkpt>
      <trkpt lat="42.28496" lon="-8.794277">
        <ele>160.3</ele>
        <time>1970-01-01T01:03:44.000Z</time>
      </trkpt>
      <trkpt lat="42.284957" lon="-8.794272">
        <ele>160.3</ele>
        <time>1970-01-01T01:03:45.000Z</time>
      </trkpt>
      <trkpt lat="42.284953" lon="-8.794268">
        <ele>161.2</ele>
        <time>1970-01-01T01:03:46.000Z</time>
      </trkpt>
      <trkpt lat="42.284948" lon="-8.794263">
        <ele>161.2</ele>
        <time>1970-01-01T01:03:47.000Z</time>
      </trkpt>
      <trkpt lat="42.284945" lon="-8.79426">
        <ele>161.2</ele>
        <time>1970-01-01T01:03:48.000Z</time>
      </trkpt>
      <trkpt lat="42.284943" lon="-8.79426">
        <ele>161.2</ele>
        <time>1970-01-01T01:03:49.000Z</time>
      </trkpt>
      <trkpt lat="42.284943" lon="-8.794257">
        <ele>161.2</ele>
        <time>1970-01-01T01:03:50.000Z</time>
      </trkpt>
      <trkpt lat="42.284942" lon="-8.794253">
        <ele>161.2</ele>
        <time>1970-01-01T01:03:51.000Z</time>
      </trkpt>
      <trkpt lat="42.28494" lon="-8.79425">
        <ele>161.2</ele>
        <time>1970-01-01T01:03:52.000Z</time>
      </trkpt>
      <trkpt lat="42.284938" lon="-8.794247">
        <ele>161.2</ele>
        <time>1970-01-01T01:03:53.000Z</time>
      </trkpt>
      <trkpt lat="42.284937" lon="-8.794243">
        <ele>162.3</ele>
        <time>1970-01-01T01:03:54.000Z</time>
      </trkpt>
      <trkpt lat="42.284935" lon="-8.79424">
        <ele>162.3</ele>
        <time>1970-01-01T01:03:55.000Z</time>
      </trkpt>
      <trkpt lat="42.284933" lon="-8.794233">
        <ele>162.3</ele>
        <time>1970-01-01T01:03:56.000Z</time>
      </trkpt>
      <trkpt lat="42.284932" lon="-8.794228">
        <ele>162.3</ele>
        <time>1970-01-01T01:03:57.000Z</time>
      </trkpt>
      <trkpt lat="42.28493" lon="-8.79422">
        <ele>163.2</ele>
        <time>1970-01-01T01:03:58.000Z</time>
      </trkpt>
      <trkpt lat="42.28493" lon="-8.79421">
        <ele>163.2</ele>
        <time>1970-01-01T01:03:59.000Z</time>
      </trkpt>
      <trkpt lat="42.284928" lon="-8.794205">
        <ele>163.2</ele>
        <time>1970-01-01T01:04:00.000Z</time>
      </trkpt>
      <trkpt lat="42.284928" lon="-8.794197">
        <ele>163.2</ele>
        <time>1970-01-01T01:04:01.000Z</time>
      </trkpt>
      <trkpt lat="42.28493" lon="-8.794187">
        <ele>163.2</ele>
        <time>1970-01-01T01:04:02.000Z</time>
      </trkpt>
      <trkpt lat="42.284933" lon="-8.79418">
        <ele>163.2</ele>
        <time>1970-01-01T01:04:03.000Z</time>
      </trkpt>
      <trkpt lat="42.284937" lon="-8.794173">
        <ele>163.2</ele>
        <time>1970-01-01T01:04:04.000Z</time>
      </trkpt>
      <trkpt lat="42.28494" lon="-8.794167">
        <ele>163.2</ele>
        <time>1970-01-01T01:04:05.000Z</time>
      </trkpt>
      <trkpt lat="42.284942" lon="-8.794162">
        <ele>163.2</ele>
        <time>1970-01-01T01:04:06.000Z</time>
      </trkpt>
      <trkpt lat="42.284942" lon="-8.794158">
        <ele>163.2</ele>
        <time>1970-01-01T01:04:07.000Z</time>
      </trkpt>
      <trkpt lat="42.284943" lon="-8.794157">
        <ele>164.3</ele>
        <time>1970-01-01T01:04:08.000Z</time>
      </trkpt>
      <trkpt lat="42.28494" lon="-8.794155">
        <ele>164.3</ele>
        <time>1970-01-01T01:04:09.000Z</time>
      </trkpt>
      <trkpt lat="42.284935" lon="-8.794152">
        <ele>164.3</ele>
        <time>1970-01-01T01:04:10.000Z</time>
      </trkpt>
      <trkpt lat="42.284932" lon="-8.794152">
        <ele>164.3</ele>
        <time>1970-01-01T01:04:11.000Z</time>
      </trkpt>
      <trkpt lat="42.284928" lon="-8.79415">
        <ele>164.3</ele>
        <time>1970-01-01T01:04:12.000Z</time>
      </trkpt>
      <trkpt lat="42.284927" lon="-8.794148">
        <ele>164.3</ele>
        <time>1970-01-01T01:04:13.000Z</time>
      </trkpt>
      <trkpt lat="42.284925" lon="-8.794143">
        <ele>164.3</ele>
        <time>1970-01-01T01:04:14.000Z</time>
      </trkpt>
      <trkpt lat="42.284923" lon="-8.79414">
        <ele>164.3</ele>
        <time>1970-01-01T01:04:15.000Z</time>
      </trkpt>
      <trkpt lat="42.284923" lon="-8.794133">
        <ele>164.3</ele>
        <time>1970-01-01T01:04:16.000Z</time>
      </trkpt>
      <trkpt lat="42.28492" lon="-8.794127">
        <ele>164.3</ele>
        <time>1970-01-01T01:04:17.000Z</time>
      </trkpt>
      <trkpt lat="42.284918" lon="-8.794122">
        <ele>164.3</ele>
        <time>1970-01-01T01:04:18.000Z</time>
      </trkpt>
      <trkpt lat="42.284915" lon="-8.794113">
        <ele>164.3</ele>
        <time>1970-01-01T01:04:19.000Z</time>
      </trkpt>
      <trkpt lat="42.284912" lon="-8.79411">
        <ele>165.2</ele>
        <time>1970-01-01T01:04:20.000Z</time>
      </trkpt>
      <trkpt lat="42.284908" lon="-8.794108">
        <ele>165.2</ele>
        <time>1970-01-01T01:04:21.000Z</time>
      </trkpt>
      <trkpt lat="42.284905" lon="-8.794105">
        <ele>165.2</ele>
        <time>1970-01-01T01:04:22.000Z</time>
      </trkpt>
      <trkpt lat="42.284902" lon="-8.794103">
        <ele>165.2</ele>
        <time>1970-01-01T01:04:23.000Z</time>
      </trkpt>
      <trkpt lat="42.284902" lon="-8.794102">
        <ele>165.2</ele>
        <time>1970-01-01T01:04:24.000Z</time>
      </trkpt>
      <trkpt lat="42.284903" lon="-8.794098">
        <ele>165.2</ele>
        <time>1970-01-01T01:04:25.000Z</time>
      </trkpt>
      <trkpt lat="42.284903" lon="-8.794097">
        <ele>166.3</ele>
        <time>1970-01-01T01:04:26.000Z</time>
      </trkpt>
      <trkpt lat="42.284905" lon="-8.79409">
        <ele>166.3</ele>
        <time>1970-01-01T01:04:27.000Z</time>
      </trkpt>
      <trkpt lat="42.284903" lon="-8.794085">
        <ele>166.3</ele>
        <time>1970-01-01T01:04:28.000Z</time>
      </trkpt>
      <trkpt lat="42.2849" lon="-8.794082">
        <ele>166.3</ele>
        <time>1970-01-01T01:04:29.000Z</time>
      </trkpt>
      <trkpt lat="42.284898" lon="-8.794078">
        <ele>166.3</ele>
        <time>1970-01-01T01:04:30.000Z</time>
      </trkpt>
      <trkpt lat="42.284895" lon="-8.794077">
        <ele>166.3</ele>
        <time>1970-01-01T01:04:31.000Z</time>
      </trkpt>
      <trkpt lat="42.284895" lon="-8.794077">
        <ele>166.3</ele>
        <time>1970-01-01T01:04:32.000Z</time>
      </trkpt>
      <trkpt lat="42.284895" lon="-8.794077">
        <ele>166.3</ele>
        <time>1970-01-01T01:04:33.000Z</time>
      </trkpt>
      <trkpt lat="42.284895" lon="-8.794077">
        <ele>166.3</ele>
        <time>1970-01-01T01:04:34.000Z</time>
      </trkpt>
      <trkpt lat="42.284895" lon="-8.794077">
        <ele>166.3</ele>
        <time>1970-01-01T01:04:35.000Z</time>
      </trkpt>
      <trkpt lat="42.284895" lon="-8.794077">
        <ele>166.3</ele>
        <time>1970-01-01T01:04:36.000Z</time>
      </trkpt>
      <trkpt lat="42.284895" lon="-8.794077">
        <ele>166.3</ele>
        <time>1970-01-01T01:04:37.000Z</time>
      </trkpt>
      <trkpt lat="42.284895" lon="-8.794077">
        <ele>166.3</ele>
        <time>1970-01-01T01:04:38.000Z</time>
      </trkpt>
      <trkpt lat="42.284895" lon="-8.794077">
        <ele>166.3</ele>
        <time>1970-01-01T01:04:39.000Z</time>
      </trkpt>
      <trkpt lat="42.284895" lon="-8.794077">
        <ele>167.3</ele>
        <time>1970-01-01T01:04:40.000Z</time>
      </trkpt>
      <trkpt lat="42.284895" lon="-8.794077">
        <ele>167.3</ele>
        <time>1970-01-01T01:04:41.000Z</time>
      </trkpt>
      <trkpt lat="42.284895" lon="-8.794077">
        <ele>167.3</ele>
        <time>1970-01-01T01:04:42.000Z</time>
      </trkpt>
      <trkpt lat="42.284895" lon="-8.794077">
        <ele>167.3</ele>
        <time>1970-01-01T01:04:43.000Z</time>
      </trkpt>
      <trkpt lat="42.284895" lon="-8.794077">
        <ele>166.3</ele>
        <time>1970-01-01T01:04:44.000Z</time>
      </trkpt>
      <trkpt lat="42.284895" lon="-8.794077">
        <ele>166.3</ele>
        <time>1970-01-01T01:04:45.000Z</time>
      </trkpt>
      <trkpt lat="42.284895" lon="-8.794077">
        <ele>166.3</ele>
        <time>1970-01-01T01:04:46.000Z</time>
      </trkpt>
      <trkpt lat="42.28489" lon="-8.794073">
        <ele>166.3</ele>
        <time>1970-01-01T01:04:47.000Z</time>
      </trkpt>
      <trkpt lat="42.284885" lon="-8.794072">
        <ele>166.3</ele>
        <time>1970-01-01T01:04:48.000Z</time>
      </trkpt>
      <trkpt lat="42.284878" lon="-8.79407">
        <ele>166.3</ele>
        <time>1970-01-01T01:04:49.000Z</time>
      </trkpt>
      <trkpt lat="42.284868" lon="-8.794068">
        <ele>166.3</ele>
        <time>1970-01-01T01:04:50.000Z</time>
      </trkpt>
      <trkpt lat="42.284858" lon="-8.794067">
        <ele>166.3</ele>
        <time>1970-01-01T01:04:51.000Z</time>
      </trkpt>
      <trkpt lat="42.284847" lon="-8.794063">
        <ele>166.3</ele>
        <time>1970-01-01T01:04:52.000Z</time>
      </trkpt>
      <trkpt lat="42.284838" lon="-8.794053">
        <ele>166.3</ele>
        <time>1970-01-01T01:04:53.000Z</time>
      </trkpt>
      <trkpt lat="42.284825" lon="-8.794045">
        <ele>167.3</ele>
        <time>1970-01-01T01:04:54.000Z</time>
      </trkpt>
      <trkpt lat="42.284817" lon="-8.794033">
        <ele>167.3</ele>
        <time>1970-01-01T01:04:55.000Z</time>
      </trkpt>
      <trkpt lat="42.284808" lon="-8.794025">
        <ele>167.3</ele>
        <time>1970-01-01T01:04:56.000Z</time>
      </trkpt>
      <trkpt lat="42.284805" lon="-8.794022">
        <ele>167.3</ele>
        <time>1970-01-01T01:04:57.000Z</time>
      </trkpt>
      <trkpt lat="42.284802" lon="-8.794018">
        <ele>167.3</ele>
        <time>1970-01-01T01:04:58.000Z</time>
      </trkpt>
      <trkpt lat="42.2848" lon="-8.794017">
        <ele>167.3</ele>
        <time>1970-01-01T01:04:59.000Z</time>
      </trkpt>
      <trkpt lat="42.284798" lon="-8.794015">
        <ele>167.3</ele>
        <time>1970-01-01T01:05:00.000Z</time>
      </trkpt>
      <trkpt lat="42.284798" lon="-8.794015">
        <ele>167.3</ele>
        <time>1970-01-01T01:05:01.000Z</time>
      </trkpt>
      <trkpt lat="42.284798" lon="-8.794015">
        <ele>167.3</ele>
        <time>1970-01-01T01:05:02.000Z</time>
      </trkpt>
      <trkpt lat="42.284798" lon="-8.794015">
        <ele>167.3</ele>
        <time>1970-01-01T01:05:03.000Z</time>
      </trkpt>
      <trkpt lat="42.284798" lon="-8.794015">
        <ele>167.3</ele>
        <time>1970-01-01T01:05:04.000Z</time>
      </trkpt>
      <trkpt lat="42.284798" lon="-8.794015">
        <ele>167.3</ele>
        <time>1970-01-01T01:05:05.000Z</time>
      </trkpt>
      <trkpt lat="42.284798" lon="-8.794015">
        <ele>167.3</ele>
        <time>1970-01-01T01:05:06.000Z</time>
      </trkpt>
      <trkpt lat="42.284797" lon="-8.794015">
        <ele>167.3</ele>
        <time>1970-01-01T01:05:07.000Z</time>
      </trkpt>
      <trkpt lat="42.284797" lon="-8.794015">
        <ele>167.3</ele>
        <time>1970-01-01T01:05:08.000Z</time>
      </trkpt>
      <trkpt lat="42.284797" lon="-8.794015">
        <ele>167.3</ele>
        <time>1970-01-01T01:05:09.000Z</time>
      </trkpt>
      <trkpt lat="42.284797" lon="-8.794015">
        <ele>167.3</ele>
        <time>1970-01-01T01:05:10.000Z</time>
      </trkpt>
      <trkpt lat="42.284797" lon="-8.794015">
        <ele>167.3</ele>
        <time>1970-01-01T01:05:11.000Z</time>
      </trkpt>
      <trkpt lat="42.284797" lon="-8.794015">
        <ele>167.3</ele>
        <time>1970-01-01T01:05:12.000Z</time>
      </trkpt>
      <trkpt lat="42.284797" lon="-8.794015">
        <ele>167.3</ele>
        <time>1970-01-01T01:05:13.000Z</time>
      </trkpt>
      <trkpt lat="42.284797" lon="-8.794015">
        <ele>168.3</ele>
        <time>1970-01-01T01:05:14.000Z</time>
      </trkpt>
      <trkpt lat="42.284797" lon="-8.794015">
        <ele>168.3</ele>
        <time>1970-01-01T01:05:15.000Z</time>
      </trkpt>
      <trkpt lat="42.284797" lon="-8.794015">
        <ele>168.3</ele>
        <time>1970-01-01T01:05:16.000Z</time>
      </trkpt>
      <trkpt lat="42.284797" lon="-8.794015">
        <ele>168.3</ele>
        <time>1970-01-01T01:05:17.000Z</time>
      </trkpt>
      <trkpt lat="42.284797" lon="-8.794015">
        <ele>168.3</ele>
        <time>1970-01-01T01:05:18.000Z</time>
      </trkpt>
      <trkpt lat="42.284797" lon="-8.794015">
        <ele>168.3</ele>
        <time>1970-01-01T01:05:19.000Z</time>
      </trkpt>
      <trkpt lat="42.284797" lon="-8.794015">
        <ele>168.3</ele>
        <time>1970-01-01T01:05:20.000Z</time>
      </trkpt>
      <trkpt lat="42.284797" lon="-8.794015">
        <ele>168.3</ele>
        <time>1970-01-01T01:05:21.000Z</time>
      </trkpt>
      <trkpt lat="42.284797" lon="-8.794015">
        <ele>168.3</ele>
        <time>1970-01-01T01:05:22.000Z</time>
      </trkpt>
      <trkpt lat="42.284797" lon="-8.794015">
        <ele>168.3</ele>
        <time>1970-01-01T01:05:23.000Z</time>
      </trkpt>
      <trkpt lat="42.284797" lon="-8.794013">
        <ele>168.3</ele>
        <time>1970-01-01T01:05:24.000Z</time>
      </trkpt>
      <trkpt lat="42.284793" lon="-8.79401">
        <ele>168.3</ele>
        <time>1970-01-01T01:05:25.000Z</time>
      </trkpt>
      <trkpt lat="42.28479" lon="-8.794005">
        <ele>168.3</ele>
        <time>1970-01-01T01:05:26.000Z</time>
      </trkpt>
      <trkpt lat="42.284788" lon="-8.794005">
        <ele>168.3</ele>
        <time>1970-01-01T01:05:27.000Z</time>
      </trkpt>
      <trkpt lat="42.284787" lon="-8.794003">
        <ele>168.3</ele>
        <time>1970-01-01T01:05:28.000Z</time>
      </trkpt>
      <trkpt lat="42.284782" lon="-8.793998">
        <ele>168.3</ele>
        <time>1970-01-01T01:05:29.000Z</time>
      </trkpt>
      <trkpt lat="42.284773" lon="-8.79399">
        <ele>169.3</ele>
        <time>1970-01-01T01:05:30.000Z</time>
      </trkpt>
      <trkpt lat="42.284763" lon="-8.793982">
        <ele>169.3</ele>
        <time>1970-01-01T01:05:31.000Z</time>
      </trkpt>
      <trkpt lat="42.284753" lon="-8.793973">
        <ele>170.2</ele>
        <time>1970-01-01T01:05:32.000Z</time>
      </trkpt>
      <trkpt lat="42.284743" lon="-8.793965">
        <ele>170.2</ele>
        <time>1970-01-01T01:05:33.000Z</time>
      </trkpt>
      <trkpt lat="42.284735" lon="-8.793957">
        <ele>170.2</ele>
        <time>1970-01-01T01:05:34.000Z</time>
      </trkpt>
      <trkpt lat="42.284723" lon="-8.793952">
        <ele>170.2</ele>
        <time>1970-01-01T01:05:35.000Z</time>
      </trkpt>
      <trkpt lat="42.284712" lon="-8.793947">
        <ele>171.3</ele>
        <time>1970-01-01T01:05:36.000Z</time>
      </trkpt>
      <trkpt lat="42.2847" lon="-8.793947">
        <ele>171.3</ele>
        <time>1970-01-01T01:05:37.000Z</time>
      </trkpt>
      <trkpt lat="42.284687" lon="-8.793947">
        <ele>171.3</ele>
        <time>1970-01-01T01:05:38.000Z</time>
      </trkpt>
      <trkpt lat="42.284682" lon="-8.793948">
        <ele>171.3</ele>
        <time>1970-01-01T01:05:39.000Z</time>
      </trkpt>
      <trkpt lat="42.28468" lon="-8.79395">
        <ele>171.3</ele>
        <time>1970-01-01T01:05:40.000Z</time>
      </trkpt>
      <trkpt lat="42.284678" lon="-8.793952">
        <ele>171.3</ele>
        <time>1970-01-01T01:05:41.000Z</time>
      </trkpt>
      <trkpt lat="42.284678" lon="-8.793952">
        <ele>172.2</ele>
        <time>1970-01-01T01:05:42.000Z</time>
      </trkpt>
      <trkpt lat="42.284677" lon="-8.793952">
        <ele>172.2</ele>
        <time>1970-01-01T01:05:43.000Z</time>
      </trkpt>
      <trkpt lat="42.284677" lon="-8.793952">
        <ele>172.2</ele>
        <time>1970-01-01T01:05:44.000Z</time>
      </trkpt>
      <trkpt lat="42.284677" lon="-8.793952">
        <ele>172.2</ele>
        <time>1970-01-01T01:05:45.000Z</time>
      </trkpt>
      <trkpt lat="42.284677" lon="-8.79395">
        <ele>172.2</ele>
        <time>1970-01-01T01:05:46.000Z</time>
      </trkpt>
      <trkpt lat="42.284677" lon="-8.79395">
        <ele>172.2</ele>
        <time>1970-01-01T01:05:47.000Z</time>
      </trkpt>
      <trkpt lat="42.284677" lon="-8.79395">
        <ele>171.3</ele>
        <time>1970-01-01T01:05:48.000Z</time>
      </trkpt>
      <trkpt lat="42.284677" lon="-8.79395">
        <ele>171.3</ele>
        <time>1970-01-01T01:05:49.000Z</time>
      </trkpt>
      <trkpt lat="42.284677" lon="-8.79395">
        <ele>171.3</ele>
        <time>1970-01-01T01:05:50.000Z</time>
      </trkpt>
      <trkpt lat="42.284677" lon="-8.79395">
        <ele>171.3</ele>
        <time>1970-01-01T01:05:51.000Z</time>
      </trkpt>
      <trkpt lat="42.284677" lon="-8.79395">
        <ele>171.3</ele>
        <time>1970-01-01T01:05:52.000Z</time>
      </trkpt>
      <trkpt lat="42.284677" lon="-8.79395">
        <ele>172.2</ele>
        <time>1970-01-01T01:05:53.000Z</time>
      </trkpt>
      <trkpt lat="42.284677" lon="-8.79395">
        <ele>172.2</ele>
        <time>1970-01-01T01:05:54.000Z</time>
      </trkpt>
      <trkpt lat="42.284677" lon="-8.79395">
        <ele>172.2</ele>
        <time>1970-01-01T01:05:55.000Z</time>
      </trkpt>
      <trkpt lat="42.284677" lon="-8.79395">
        <ele>172.2</ele>
        <time>1970-01-01T01:05:56.000Z</time>
      </trkpt>
      <trkpt lat="42.284677" lon="-8.79395">
        <ele>172.2</ele>
        <time>1970-01-01T01:05:57.000Z</time>
      </trkpt>
      <trkpt lat="42.284677" lon="-8.79395">
        <ele>172.2</ele>
        <time>1970-01-01T01:05:58.000Z</time>
      </trkpt>
      <trkpt lat="42.284677" lon="-8.793952">
        <ele>172.2</ele>
        <time>1970-01-01T01:05:59.000Z</time>
      </trkpt>
      <trkpt lat="42.284677" lon="-8.793952">
        <ele>172.2</ele>
        <time>1970-01-01T01:06:00.000Z</time>
      </trkpt>
      <trkpt lat="42.284677" lon="-8.793952">
        <ele>172.2</ele>
        <time>1970-01-01T01:06:01.000Z</time>
      </trkpt>
      <trkpt lat="42.284677" lon="-8.793952">
        <ele>172.2</ele>
        <time>1970-01-01T01:06:02.000Z</time>
      </trkpt>
      <trkpt lat="42.284677" lon="-8.793952">
        <ele>172.2</ele>
        <time>1970-01-01T01:06:03.000Z</time>
      </trkpt>
      <trkpt lat="42.284675" lon="-8.793952">
        <ele>172.2</ele>
        <time>1970-01-01T01:06:04.000Z</time>
      </trkpt>
      <trkpt lat="42.284672" lon="-8.793952">
        <ele>172.2</ele>
        <time>1970-01-01T01:06:05.000Z</time>
      </trkpt>
      <trkpt lat="42.284668" lon="-8.793953">
        <ele>172.2</ele>
        <time>1970-01-01T01:06:06.000Z</time>
      </trkpt>
      <trkpt lat="42.284665" lon="-8.793957">
        <ele>172.2</ele>
        <time>1970-01-01T01:06:07.000Z</time>
      </trkpt>
      <trkpt lat="42.28466" lon="-8.793958">
        <ele>172.2</ele>
        <time>1970-01-01T01:06:08.000Z</time>
      </trkpt>
      <trkpt lat="42.284655" lon="-8.793958">
        <ele>172.2</ele>
        <time>1970-01-01T01:06:09.000Z</time>
      </trkpt>
      <trkpt lat="42.284652" lon="-8.79396">
        <ele>172.2</ele>
        <time>1970-01-01T01:06:10.000Z</time>
      </trkpt>
      <trkpt lat="42.284647" lon="-8.79396">
        <ele>172.2</ele>
        <time>1970-01-01T01:06:11.000Z</time>
      </trkpt>
      <trkpt lat="42.284643" lon="-8.793962">
        <ele>172.2</ele>
        <time>1970-01-01T01:06:12.000Z</time>
      </trkpt>
      <trkpt lat="42.284642" lon="-8.793962">
        <ele>172.2</ele>
        <time>1970-01-01T01:06:13.000Z</time>
      </trkpt>
      <trkpt lat="42.28464" lon="-8.793963">
        <ele>172.2</ele>
        <time>1970-01-01T01:06:14.000Z</time>
      </trkpt>
      <trkpt lat="42.284638" lon="-8.793963">
        <ele>172.2</ele>
        <time>1970-01-01T01:06:15.000Z</time>
      </trkpt>
      <trkpt lat="42.284638" lon="-8.793963">
        <ele>172.2</ele>
        <time>1970-01-01T01:06:16.000Z</time>
      </trkpt>
      <trkpt lat="42.284638" lon="-8.793963">
        <ele>172.2</ele>
        <time>1970-01-01T01:06:17.000Z</time>
      </trkpt>
      <trkpt lat="42.284638" lon="-8.793963">
        <ele>172.2</ele>
        <time>1970-01-01T01:06:18.000Z</time>
      </trkpt>
      <trkpt lat="42.284638" lon="-8.793963">
        <ele>172.2</ele>
        <time>1970-01-01T01:06:19.000Z</time>
      </trkpt>
      <trkpt lat="42.284637" lon="-8.793963">
        <ele>172.2</ele>
        <time>1970-01-01T01:06:20.000Z</time>
      </trkpt>
      <trkpt lat="42.284637" lon="-8.793963">
        <ele>172.2</ele>
        <time>1970-01-01T01:06:21.000Z</time>
      </trkpt>
      <trkpt lat="42.284637" lon="-8.793965">
        <ele>172.2</ele>
        <time>1970-01-01T01:06:22.000Z</time>
      </trkpt>
      <trkpt lat="42.284637" lon="-8.793965">
        <ele>172.2</ele>
        <time>1970-01-01T01:06:23.000Z</time>
      </trkpt>
      <trkpt lat="42.284637" lon="-8.793965">
        <ele>172.2</ele>
        <time>1970-01-01T01:06:24.000Z</time>
      </trkpt>
      <trkpt lat="42.284637" lon="-8.793965">
        <ele>172.2</ele>
        <time>1970-01-01T01:06:25.000Z</time>
      </trkpt>
      <trkpt lat="42.284637" lon="-8.793965">
        <ele>172.2</ele>
        <time>1970-01-01T01:06:26.000Z</time>
      </trkpt>
      <trkpt lat="42.284637" lon="-8.793965">
        <ele>172.2</ele>
        <time>1970-01-01T01:06:27.000Z</time>
      </trkpt>
      <trkpt lat="42.284637" lon="-8.793965">
        <ele>172.2</ele>
        <time>1970-01-01T01:06:28.000Z</time>
      </trkpt>
      <trkpt lat="42.284637" lon="-8.793965">
        <ele>172.2</ele>
        <time>1970-01-01T01:06:29.000Z</time>
      </trkpt>
      <trkpt lat="42.284637" lon="-8.793965">
        <ele>172.2</ele>
        <time>1970-01-01T01:06:30.000Z</time>
      </trkpt>
      <trkpt lat="42.284637" lon="-8.793965">
        <ele>172.2</ele>
        <time>1970-01-01T01:06:31.000Z</time>
      </trkpt>
      <trkpt lat="42.284637" lon="-8.793965">
        <ele>172.2</ele>
        <time>1970-01-01T01:06:32.000Z</time>
      </trkpt>
      <trkpt lat="42.284637" lon="-8.793965">
        <ele>172.2</ele>
        <time>1970-01-01T01:06:33.000Z</time>
      </trkpt>
      <trkpt lat="42.284637" lon="-8.793965">
        <ele>172.2</ele>
        <time>1970-01-01T01:06:34.000Z</time>
      </trkpt>
      <trkpt lat="42.284637" lon="-8.793965">
        <ele>172.2</ele>
        <time>1970-01-01T01:06:35.000Z</time>
      </trkpt>
      <trkpt lat="42.284637" lon="-8.793965">
        <ele>172.2</ele>
        <time>1970-01-01T01:06:36.000Z</time>
      </trkpt>
      <trkpt lat="42.284637" lon="-8.793965">
        <ele>172.2</ele>
        <time>1970-01-01T01:06:37.000Z</time>
      </trkpt>
      <trkpt lat="42.284637" lon="-8.793965">
        <ele>172.2</ele>
        <time>1970-01-01T01:06:38.000Z</time>
      </trkpt>
      <trkpt lat="42.284637" lon="-8.793965">
        <ele>172.2</ele>
        <time>1970-01-01T01:06:39.000Z</time>
      </trkpt>
      <trkpt lat="42.284638" lon="-8.793963">
        <ele>172.2</ele>
        <time>1970-01-01T01:06:40.000Z</time>
      </trkpt>
      <trkpt lat="42.284638" lon="-8.793963">
        <ele>172.2</ele>
        <time>1970-01-01T01:06:41.000Z</time>
      </trkpt>
      <trkpt lat="42.284638" lon="-8.793962">
        <ele>172.2</ele>
        <time>1970-01-01T01:06:42.000Z</time>
      </trkpt>
      <trkpt lat="42.284638" lon="-8.793962">
        <ele>172.2</ele>
        <time>1970-01-01T01:06:43.000Z</time>
      </trkpt>
      <trkpt lat="42.284638" lon="-8.793962">
        <ele>172.2</ele>
        <time>1970-01-01T01:06:44.000Z</time>
      </trkpt>
      <trkpt lat="42.284638" lon="-8.793962">
        <ele>172.2</ele>
        <time>1970-01-01T01:06:45.000Z</time>
      </trkpt>
      <trkpt lat="42.284638" lon="-8.793962">
        <ele>172.2</ele>
        <time>1970-01-01T01:06:46.000Z</time>
      </trkpt>
      <trkpt lat="42.284638" lon="-8.793962">
        <ele>172.2</ele>
        <time>1970-01-01T01:06:47.000Z</time>
      </trkpt>
      <trkpt lat="42.284638" lon="-8.793962">
        <ele>172.2</ele>
        <time>1970-01-01T01:06:48.000Z</time>
      </trkpt>
      <trkpt lat="42.284638" lon="-8.793962">
        <ele>172.2</ele>
        <time>1970-01-01T01:06:49.000Z</time>
      </trkpt>
      <trkpt lat="42.284638" lon="-8.793962">
        <ele>172.2</ele>
        <time>1970-01-01T01:06:50.000Z</time>
      </trkpt>
      <trkpt lat="42.284638" lon="-8.793962">
        <ele>171.3</ele>
        <time>1970-01-01T01:06:51.000Z</time>
      </trkpt>
      <trkpt lat="42.284638" lon="-8.793962">
        <ele>171.3</ele>
        <time>1970-01-01T01:06:52.000Z</time>
      </trkpt>
      <trkpt lat="42.284638" lon="-8.793962">
        <ele>171.3</ele>
        <time>1970-01-01T01:06:53.000Z</time>
      </trkpt>
      <trkpt lat="42.284638" lon="-8.793962">
        <ele>171.3</ele>
        <time>1970-01-01T01:06:54.000Z</time>
      </trkpt>
      <trkpt lat="42.284638" lon="-8.793962">
        <ele>171.3</ele>
        <time>1970-01-01T01:06:55.000Z</time>
      </trkpt>
      <trkpt lat="42.284638" lon="-8.793962">
        <ele>171.3</ele>
        <time>1970-01-01T01:06:56.000Z</time>
      </trkpt>
      <trkpt lat="42.284638" lon="-8.793962">
        <ele>171.3</ele>
        <time>1970-01-01T01:06:57.000Z</time>
      </trkpt>
      <trkpt lat="42.284638" lon="-8.793962">
        <ele>171.3</ele>
        <time>1970-01-01T01:06:58.000Z</time>
      </trkpt>
      <trkpt lat="42.284638" lon="-8.793962">
        <ele>171.3</ele>
        <time>1970-01-01T01:06:59.000Z</time>
      </trkpt>
      <trkpt lat="42.284638" lon="-8.793962">
        <ele>171.3</ele>
        <time>1970-01-01T01:07:00.000Z</time>
      </trkpt>
      <trkpt lat="42.284638" lon="-8.793962">
        <ele>171.3</ele>
        <time>1970-01-01T01:07:01.000Z</time>
      </trkpt>
      <trkpt lat="42.284638" lon="-8.793962">
        <ele>171.3</ele>
        <time>1970-01-01T01:07:02.000Z</time>
      </trkpt>
      <trkpt lat="42.284638" lon="-8.793962">
        <ele>171.3</ele>
        <time>1970-01-01T01:07:03.000Z</time>
      </trkpt>
      <trkpt lat="42.284638" lon="-8.793962">
        <ele>171.3</ele>
        <time>1970-01-01T01:07:04.000Z</time>
      </trkpt>
      <trkpt lat="42.284638" lon="-8.793962">
        <ele>171.3</ele>
        <time>1970-01-01T01:07:05.000Z</time>
      </trkpt>
      <trkpt lat="42.284638" lon="-8.793962">
        <ele>171.3</ele>
        <time>1970-01-01T01:07:06.000Z</time>
      </trkpt>
      <trkpt lat="42.284638" lon="-8.793962">
        <ele>171.3</ele>
        <time>1970-01-01T01:07:07.000Z</time>
      </trkpt>
      <trkpt lat="42.284638" lon="-8.793962">
        <ele>171.3</ele>
        <time>1970-01-01T01:07:08.000Z</time>
      </trkpt>
      <trkpt lat="42.284638" lon="-8.793962">
        <ele>171.3</ele>
        <time>1970-01-01T01:07:09.000Z</time>
      </trkpt>
      <trkpt lat="42.284638" lon="-8.793962">
        <ele>171.3</ele>
        <time>1970-01-01T01:07:10.000Z</time>
      </trkpt>
      <trkpt lat="42.284638" lon="-8.793962">
        <ele>170.2</ele>
        <time>1970-01-01T01:07:11.000Z</time>
      </trkpt>
      <trkpt lat="42.284638" lon="-8.793962">
        <ele>170.2</ele>
        <time>1970-01-01T01:07:12.000Z</time>
      </trkpt>
      <trkpt lat="42.284638" lon="-8.793962">
        <ele>170.2</ele>
        <time>1970-01-01T01:07:13.000Z</time>
      </trkpt>
      <trkpt lat="42.284638" lon="-8.793962">
        <ele>170.2</ele>
        <time>1970-01-01T01:07:14.000Z</time>
      </trkpt>
      <trkpt lat="42.284638" lon="-8.793962">
        <ele>170.2</ele>
        <time>1970-01-01T01:07:15.000Z</time>
      </trkpt>
      <trkpt lat="42.284638" lon="-8.793962">
        <ele>170.2</ele>
        <time>1970-01-01T01:07:16.000Z</time>
      </trkpt>
      <trkpt lat="42.284638" lon="-8.793962">
        <ele>169.3</ele>
        <time>1970-01-01T01:07:17.000Z</time>
      </trkpt>
      <trkpt lat="42.284638" lon="-8.793962">
        <ele>169.3</ele>
        <time>1970-01-01T01:07:18.000Z</time>
      </trkpt>
      <trkpt lat="42.28464" lon="-8.793962">
        <ele>169.3</ele>
        <time>1970-01-01T01:07:19.000Z</time>
      </trkpt>
      <trkpt lat="42.28464" lon="-8.793962">
        <ele>169.3</ele>
        <time>1970-01-01T01:07:20.000Z</time>
      </trkpt>
      <trkpt lat="42.284642" lon="-8.793963">
        <ele>169.3</ele>
        <time>1970-01-01T01:07:21.000Z</time>
      </trkpt>
      <trkpt lat="42.284642" lon="-8.793963">
        <ele>169.3</ele>
        <time>1970-01-01T01:07:22.000Z</time>
      </trkpt>
      <trkpt lat="42.284643" lon="-8.793965">
        <ele>169.3</ele>
        <time>1970-01-01T01:07:23.000Z</time>
      </trkpt>
      <trkpt lat="42.284643" lon="-8.793965">
        <ele>169.3</ele>
        <time>1970-01-01T01:07:24.000Z</time>
      </trkpt>
      <trkpt lat="42.284643" lon="-8.793965">
        <ele>169.3</ele>
        <time>1970-01-01T01:07:25.000Z</time>
      </trkpt>
      <trkpt lat="42.284643" lon="-8.793967">
        <ele>169.3</ele>
        <time>1970-01-01T01:07:26.000Z</time>
      </trkpt>
      <trkpt lat="42.284643" lon="-8.793967">
        <ele>169.3</ele>
        <time>1970-01-01T01:07:27.000Z</time>
      </trkpt>
      <trkpt lat="42.284643" lon="-8.793967">
        <ele>169.3</ele>
        <time>1970-01-01T01:07:28.000Z</time>
      </trkpt>
      <trkpt lat="42.284643" lon="-8.793967">
        <ele>168.3</ele>
        <time>1970-01-01T01:07:29.000Z</time>
      </trkpt>
      <trkpt lat="42.284643" lon="-8.793967">
        <ele>168.3</ele>
        <time>1970-01-01T01:07:30.000Z</time>
      </trkpt>
      <trkpt lat="42.284643" lon="-8.793967">
        <ele>168.3</ele>
        <time>1970-01-01T01:07:31.000Z</time>
      </trkpt>
      <trkpt lat="42.284643" lon="-8.793967">
        <ele>168.3</ele>
        <time>1970-01-01T01:07:32.000Z</time>
      </trkpt>
      <trkpt lat="42.284643" lon="-8.793967">
        <ele>167.3</ele>
        <time>1970-01-01T01:07:33.000Z</time>
      </trkpt>
      <trkpt lat="42.284643" lon="-8.793967">
        <ele>167.3</ele>
        <time>1970-01-01T01:07:34.000Z</time>
      </trkpt>
      <trkpt lat="42.284643" lon="-8.793967">
        <ele>167.3</ele>
        <time>1970-01-01T01:07:35.000Z</time>
      </trkpt>
      <trkpt lat="42.284643" lon="-8.793967">
        <ele>167.3</ele>
        <time>1970-01-01T01:07:36.000Z</time>
      </trkpt>
      <trkpt lat="42.284643" lon="-8.793967">
        <ele>167.3</ele>
        <time>1970-01-01T01:07:37.000Z</time>
      </trkpt>
      <trkpt lat="42.284643" lon="-8.793968">
        <ele>167.3</ele>
        <time>1970-01-01T01:07:38.000Z</time>
      </trkpt>
      <trkpt lat="42.284643" lon="-8.793968">
        <ele>167.3</ele>
        <time>1970-01-01T01:07:39.000Z</time>
      </trkpt>
      <trkpt lat="42.284643" lon="-8.793968">
        <ele>167.3</ele>
        <time>1970-01-01T01:07:40.000Z</time>
      </trkpt>
      <trkpt lat="42.284643" lon="-8.793968">
        <ele>167.3</ele>
        <time>1970-01-01T01:07:41.000Z</time>
      </trkpt>
      <trkpt lat="42.284643" lon="-8.793968">
        <ele>167.3</ele>
        <time>1970-01-01T01:07:42.000Z</time>
      </trkpt>
      <trkpt lat="42.284643" lon="-8.793968">
        <ele>167.3</ele>
        <time>1970-01-01T01:07:43.000Z</time>
      </trkpt>
      <trkpt lat="42.284643" lon="-8.793968">
        <ele>167.3</ele>
        <time>1970-01-01T01:07:44.000Z</time>
      </trkpt>
      <trkpt lat="42.284643" lon="-8.793968">
        <ele>167.3</ele>
        <time>1970-01-01T01:07:45.000Z</time>
      </trkpt>
      <trkpt lat="42.284643" lon="-8.793968">
        <ele>167.3</ele>
        <time>1970-01-01T01:07:46.000Z</time>
      </trkpt>
      <trkpt lat="42.284643" lon="-8.793968">
        <ele>166.3</ele>
        <time>1970-01-01T01:07:47.000Z</time>
      </trkpt>
      <trkpt lat="42.284643" lon="-8.793968">
        <ele>166.3</ele>
        <time>1970-01-01T01:07:48.000Z</time>
      </trkpt>
      <trkpt lat="42.284643" lon="-8.793968">
        <ele>166.3</ele>
        <time>1970-01-01T01:07:49.000Z</time>
      </trkpt>
      <trkpt lat="42.284643" lon="-8.793968">
        <ele>166.3</ele>
        <time>1970-01-01T01:07:50.000Z</time>
      </trkpt>
      <trkpt lat="42.284643" lon="-8.79397">
        <ele>165.2</ele>
        <time>1970-01-01T01:07:51.000Z</time>
      </trkpt>
      <trkpt lat="42.284643" lon="-8.79397">
        <ele>165.2</ele>
        <time>1970-01-01T01:07:52.000Z</time>
      </trkpt>
      <trkpt lat="42.284645" lon="-8.79397">
        <ele>165.2</ele>
        <time>1970-01-01T01:07:53.000Z</time>
      </trkpt>
      <trkpt lat="42.284645" lon="-8.79397">
        <ele>165.2</ele>
        <time>1970-01-01T01:07:54.000Z</time>
      </trkpt>
      <trkpt lat="42.284645" lon="-8.79397">
        <ele>165.2</ele>
        <time>1970-01-01T01:07:55.000Z</time>
      </trkpt>
      <trkpt lat="42.284645" lon="-8.79397">
        <ele>165.2</ele>
        <time>1970-01-01T01:07:56.000Z</time>
      </trkpt>
      <trkpt lat="42.284645" lon="-8.793972">
        <ele>164.3</ele>
        <time>1970-01-01T01:07:57.000Z</time>
      </trkpt>
      <trkpt lat="42.284645" lon="-8.793973">
        <ele>164.3</ele>
        <time>1970-01-01T01:07:58.000Z</time>
      </trkpt>
      <trkpt lat="42.284645" lon="-8.793973">
        <ele>164.3</ele>
        <time>1970-01-01T01:07:59.000Z</time>
      </trkpt>
      <trkpt lat="42.284645" lon="-8.793975">
        <ele>164.3</ele>
        <time>1970-01-01T01:08:00.000Z</time>
      </trkpt>
      <trkpt lat="42.284645" lon="-8.793977">
        <ele>163.2</ele>
        <time>1970-01-01T01:08:01.000Z</time>
      </trkpt>
      <trkpt lat="42.284645" lon="-8.793978">
        <ele>163.2</ele>
        <time>1970-01-01T01:08:02.000Z</time>
      </trkpt>
      <trkpt lat="42.284645" lon="-8.793978">
        <ele>163.2</ele>
        <time>1970-01-01T01:08:03.000Z</time>
      </trkpt>
      <trkpt lat="42.284645" lon="-8.79398">
        <ele>163.2</ele>
        <time>1970-01-01T01:08:04.000Z</time>
      </trkpt>
      <trkpt lat="42.284645" lon="-8.793982">
        <ele>162.3</ele>
        <time>1970-01-01T01:08:05.000Z</time>
      </trkpt>
      <trkpt lat="42.284645" lon="-8.793983">
        <ele>162.3</ele>
        <time>1970-01-01T01:08:06.000Z</time>
      </trkpt>
      <trkpt lat="42.284645" lon="-8.793985">
        <ele>162.3</ele>
        <time>1970-01-01T01:08:07.000Z</time>
      </trkpt>
      <trkpt lat="42.284645" lon="-8.793985">
        <ele>162.3</ele>
        <time>1970-01-01T01:08:08.000Z</time>
      </trkpt>
      <trkpt lat="42.284645" lon="-8.793987">
        <ele>161.2</ele>
        <time>1970-01-01T01:08:09.000Z</time>
      </trkpt>
      <trkpt lat="42.284645" lon="-8.793988">
        <ele>161.2</ele>
        <time>1970-01-01T01:08:10.000Z</time>
      </trkpt>
      <trkpt lat="42.284647" lon="-8.793988">
        <ele>161.2</ele>
        <time>1970-01-01T01:08:11.000Z</time>
      </trkpt>
      <trkpt lat="42.284647" lon="-8.793988">
        <ele>161.2</ele>
        <time>1970-01-01T01:08:12.000Z</time>
      </trkpt>
      <trkpt lat="42.284647" lon="-8.79399">
        <ele>160.3</ele>
        <time>1970-01-01T01:08:13.000Z</time>
      </trkpt>
      <trkpt lat="42.284647" lon="-8.79399">
        <ele>160.3</ele>
        <time>1970-01-01T01:08:14.000Z</time>
      </trkpt>
      <trkpt lat="42.284647" lon="-8.793992">
        <ele>160.3</ele>
        <time>1970-01-01T01:08:15.000Z</time>
      </trkpt>
      <trkpt lat="42.284647" lon="-8.793992">
        <ele>160.3</ele>
        <time>1970-01-01T01:08:16.000Z</time>
      </trkpt>
      <trkpt lat="42.284647" lon="-8.793993">
        <ele>159.3</ele>
        <time>1970-01-01T01:08:17.000Z</time>
      </trkpt>
      <trkpt lat="42.284647" lon="-8.793993">
        <ele>159.3</ele>
        <time>1970-01-01T01:08:18.000Z</time>
      </trkpt>
      <trkpt lat="42.284647" lon="-8.793995">
        <ele>159.3</ele>
        <time>1970-01-01T01:08:19.000Z</time>
      </trkpt>
      <trkpt lat="42.284647" lon="-8.793997">
        <ele>159.3</ele>
        <time>1970-01-01T01:08:20.000Z</time>
      </trkpt>
      <trkpt lat="42.284647" lon="-8.793997">
        <ele>158.2</ele>
        <time>1970-01-01T01:08:21.000Z</time>
      </trkpt>
      <trkpt lat="42.284647" lon="-8.793998">
        <ele>158.2</ele>
        <time>1970-01-01T01:08:22.000Z</time>
      </trkpt>
      <trkpt lat="42.284647" lon="-8.793998">
        <ele>158.2</ele>
        <time>1970-01-01T01:08:23.000Z</time>
      </trkpt>
      <trkpt lat="42.284647" lon="-8.794">
        <ele>158.2</ele>
        <time>1970-01-01T01:08:24.000Z</time>
      </trkpt>
      <trkpt lat="42.284647" lon="-8.794">
        <ele>158.2</ele>
        <time>1970-01-01T01:08:25.000Z</time>
      </trkpt>
      <trkpt lat="42.284647" lon="-8.794">
        <ele>158.2</ele>
        <time>1970-01-01T01:08:26.000Z</time>
      </trkpt>
      <trkpt lat="42.284647" lon="-8.794">
        <ele>158.2</ele>
        <time>1970-01-01T01:08:27.000Z</time>
      </trkpt>
      <trkpt lat="42.284647" lon="-8.794">
        <ele>158.2</ele>
        <time>1970-01-01T01:08:28.000Z</time>
      </trkpt>
      <trkpt lat="42.284647" lon="-8.794">
        <ele>158.2</ele>
        <time>1970-01-01T01:08:29.000Z</time>
      </trkpt>
      <trkpt lat="42.284645" lon="-8.794002">
        <ele>158.2</ele>
        <time>1970-01-01T01:08:30.000Z</time>
      </trkpt>
      <trkpt lat="42.284645" lon="-8.794002">
        <ele>158.2</ele>
        <time>1970-01-01T01:08:31.000Z</time>
      </trkpt>
      <trkpt lat="42.284645" lon="-8.794002">
        <ele>158.2</ele>
        <time>1970-01-01T01:08:32.000Z</time>
      </trkpt>
      <trkpt lat="42.284645" lon="-8.794002">
        <ele>158.2</ele>
        <time>1970-01-01T01:08:33.000Z</time>
      </trkpt>
      <trkpt lat="42.284645" lon="-8.794002">
        <ele>158.2</ele>
        <time>1970-01-01T01:08:34.000Z</time>
      </trkpt>
      <trkpt lat="42.284645" lon="-8.794002">
        <ele>158.2</ele>
        <time>1970-01-01T01:08:35.000Z</time>
      </trkpt>
      <trkpt lat="42.284645" lon="-8.794002">
        <ele>158.2</ele>
        <time>1970-01-01T01:08:36.000Z</time>
      </trkpt>
      <trkpt lat="42.284645" lon="-8.794002">
        <ele>158.2</ele>
        <time>1970-01-01T01:08:37.000Z</time>
      </trkpt>
      <trkpt lat="42.284643" lon="-8.794002">
        <ele>158.2</ele>
        <time>1970-01-01T01:08:38.000Z</time>
      </trkpt>
      <trkpt lat="42.284638" lon="-8.793997">
        <ele>158.2</ele>
        <time>1970-01-01T01:08:39.000Z</time>
      </trkpt>
      <trkpt lat="42.28463" lon="-8.793993">
        <ele>158.2</ele>
        <time>1970-01-01T01:08:40.000Z</time>
      </trkpt>
      <trkpt lat="42.284618" lon="-8.793985">
        <ele>158.2</ele>
        <time>1970-01-01T01:08:41.000Z</time>
      </trkpt>
      <trkpt lat="42.284607" lon="-8.793978">
        <ele>158.2</ele>
        <time>1970-01-01T01:08:42.000Z</time>
      </trkpt>
      <trkpt lat="42.284598" lon="-8.793975">
        <ele>159.3</ele>
        <time>1970-01-01T01:08:43.000Z</time>
      </trkpt>
      <trkpt lat="42.28459" lon="-8.79397">
        <ele>159.3</ele>
        <time>1970-01-01T01:08:44.000Z</time>
      </trkpt>
      <trkpt lat="42.284583" lon="-8.793962">
        <ele>159.3</ele>
        <time>1970-01-01T01:08:45.000Z</time>
      </trkpt>
      <trkpt lat="42.284573" lon="-8.793957">
        <ele>159.3</ele>
        <time>1970-01-01T01:08:46.000Z</time>
      </trkpt>
      <trkpt lat="42.284567" lon="-8.793952">
        <ele>159.3</ele>
        <time>1970-01-01T01:08:47.000Z</time>
      </trkpt>
      <trkpt lat="42.28456" lon="-8.793948">
        <ele>159.3</ele>
        <time>1970-01-01T01:08:48.000Z</time>
      </trkpt>
      <trkpt lat="42.284558" lon="-8.793947">
        <ele>159.3</ele>
        <time>1970-01-01T01:08:49.000Z</time>
      </trkpt>
      <trkpt lat="42.284557" lon="-8.793947">
        <ele>159.3</ele>
        <time>1970-01-01T01:08:50.000Z</time>
      </trkpt>
      <trkpt lat="42.284557" lon="-8.793947">
        <ele>159.3</ele>
        <time>1970-01-01T01:08:51.000Z</time>
      </trkpt>
      <trkpt lat="42.284558" lon="-8.793945">
        <ele>159.3</ele>
        <time>1970-01-01T01:08:52.000Z</time>
      </trkpt>
      <trkpt lat="42.284558" lon="-8.793945">
        <ele>158.2</ele>
        <time>1970-01-01T01:08:53.000Z</time>
      </trkpt>
      <trkpt lat="42.284558" lon="-8.793945">
        <ele>158.2</ele>
        <time>1970-01-01T01:08:54.000Z</time>
      </trkpt>
      <trkpt lat="42.284558" lon="-8.793945">
        <ele>158.2</ele>
        <time>1970-01-01T01:08:55.000Z</time>
      </trkpt>
      <trkpt lat="42.284558" lon="-8.793945">
        <ele>158.2</ele>
        <time>1970-01-01T01:08:56.000Z</time>
      </trkpt>
      <trkpt lat="42.284558" lon="-8.793945">
        <ele>158.2</ele>
        <time>1970-01-01T01:08:57.000Z</time>
      </trkpt>
      <trkpt lat="42.284558" lon="-8.793945">
        <ele>158.2</ele>
        <time>1970-01-01T01:08:58.000Z</time>
      </trkpt>
      <trkpt lat="42.284558" lon="-8.793945">
        <ele>158.2</ele>
        <time>1970-01-01T01:08:59.000Z</time>
      </trkpt>
      <trkpt lat="42.284558" lon="-8.793945">
        <ele>158.2</ele>
        <time>1970-01-01T01:09:00.000Z</time>
      </trkpt>
      <trkpt lat="42.284558" lon="-8.793945">
        <ele>157.3</ele>
        <time>1970-01-01T01:09:01.000Z</time>
      </trkpt>
      <trkpt lat="42.284558" lon="-8.793945">
        <ele>157.3</ele>
        <time>1970-01-01T01:09:02.000Z</time>
      </trkpt>
      <trkpt lat="42.284558" lon="-8.793945">
        <ele>157.3</ele>
        <time>1970-01-01T01:09:03.000Z</time>
      </trkpt>
      <trkpt lat="42.284558" lon="-8.793945">
        <ele>157.3</ele>
        <time>1970-01-01T01:09:04.000Z</time>
      </trkpt>
      <trkpt lat="42.284558" lon="-8.793945">
        <ele>157.3</ele>
        <time>1970-01-01T01:09:05.000Z</time>
      </trkpt>
      <trkpt lat="42.284557" lon="-8.793945">
        <ele>157.3</ele>
        <time>1970-01-01T01:09:06.000Z</time>
      </trkpt>
      <trkpt lat="42.284557" lon="-8.793945">
        <ele>157.3</ele>
        <time>1970-01-01T01:09:07.000Z</time>
      </trkpt>
      <trkpt lat="42.284555" lon="-8.793945">
        <ele>157.3</ele>
        <time>1970-01-01T01:09:08.000Z</time>
      </trkpt>
      <trkpt lat="42.284553" lon="-8.793945">
        <ele>156.2</ele>
        <time>1970-01-01T01:09:09.000Z</time>
      </trkpt>
      <trkpt lat="42.284553" lon="-8.793945">
        <ele>156.2</ele>
        <time>1970-01-01T01:09:10.000Z</time>
      </trkpt>
      <trkpt lat="42.284553" lon="-8.793945">
        <ele>156.2</ele>
        <time>1970-01-01T01:09:11.000Z</time>
      </trkpt>
      <trkpt lat="42.28455" lon="-8.793945">
        <ele>156.2</ele>
        <time>1970-01-01T01:09:12.000Z</time>
      </trkpt>
      <trkpt lat="42.284548" lon="-8.793945">
        <ele>156.2</ele>
        <time>1970-01-01T01:09:13.000Z</time>
      </trkpt>
      <trkpt lat="42.284547" lon="-8.793945">
        <ele>156.2</ele>
        <time>1970-01-01T01:09:14.000Z</time>
      </trkpt>
      <trkpt lat="42.284545" lon="-8.793945">
        <ele>156.2</ele>
        <time>1970-01-01T01:09:15.000Z</time>
      </trkpt>
      <trkpt lat="42.284545" lon="-8.793942">
        <ele>156.2</ele>
        <time>1970-01-01T01:09:16.000Z</time>
      </trkpt>
      <trkpt lat="42.284543" lon="-8.79394">
        <ele>154.2</ele>
        <time>1970-01-01T01:09:17.000Z</time>
      </trkpt>
      <trkpt lat="42.284543" lon="-8.793938">
        <ele>154.2</ele>
        <time>1970-01-01T01:09:18.000Z</time>
      </trkpt>
      <trkpt lat="42.284542" lon="-8.793938">
        <ele>154.2</ele>
        <time>1970-01-01T01:09:19.000Z</time>
      </trkpt>
      <trkpt lat="42.284542" lon="-8.793938">
        <ele>154.2</ele>
        <time>1970-01-01T01:09:20.000Z</time>
      </trkpt>
      <trkpt lat="42.28454" lon="-8.793938">
        <ele>154.2</ele>
        <time>1970-01-01T01:09:21.000Z</time>
      </trkpt>
      <trkpt lat="42.28454" lon="-8.793937">
        <ele>154.2</ele>
        <time>1970-01-01T01:09:22.000Z</time>
      </trkpt>
      <trkpt lat="42.28454" lon="-8.793937">
        <ele>154.2</ele>
        <time>1970-01-01T01:09:23.000Z</time>
      </trkpt>
      <trkpt lat="42.28454" lon="-8.793937">
        <ele>154.2</ele>
        <time>1970-01-01T01:09:24.000Z</time>
      </trkpt>
      <trkpt lat="42.28454" lon="-8.793935">
        <ele>154.2</ele>
        <time>1970-01-01T01:09:25.000Z</time>
      </trkpt>
      <trkpt lat="42.284537" lon="-8.793935">
        <ele>154.2</ele>
        <time>1970-01-01T01:09:26.000Z</time>
      </trkpt>
      <trkpt lat="42.284533" lon="-8.793933">
        <ele>154.2</ele>
        <time>1970-01-01T01:09:27.000Z</time>
      </trkpt>
      <trkpt lat="42.284527" lon="-8.793933">
        <ele>154.2</ele>
        <time>1970-01-01T01:09:28.000Z</time>
      </trkpt>
      <trkpt lat="42.28452" lon="-8.793933">
        <ele>154.2</ele>
        <time>1970-01-01T01:09:29.000Z</time>
      </trkpt>
      <trkpt lat="42.284517" lon="-8.793933">
        <ele>154.2</ele>
        <time>1970-01-01T01:09:30.000Z</time>
      </trkpt>
      <trkpt lat="42.284513" lon="-8.793933">
        <ele>154.2</ele>
        <time>1970-01-01T01:09:31.000Z</time>
      </trkpt>
      <trkpt lat="42.28451" lon="-8.793933">
        <ele>154.2</ele>
        <time>1970-01-01T01:09:32.000Z</time>
      </trkpt>
      <trkpt lat="42.284507" lon="-8.793933">
        <ele>153.3</ele>
        <time>1970-01-01T01:09:33.000Z</time>
      </trkpt>
      <trkpt lat="42.284505" lon="-8.793933">
        <ele>153.3</ele>
        <time>1970-01-01T01:09:34.000Z</time>
      </trkpt>
      <trkpt lat="42.284503" lon="-8.793933">
        <ele>153.3</ele>
        <time>1970-01-01T01:09:35.000Z</time>
      </trkpt>
      <trkpt lat="42.2845" lon="-8.793933">
        <ele>153.3</ele>
        <time>1970-01-01T01:09:36.000Z</time>
      </trkpt>
      <trkpt lat="42.284497" lon="-8.793933">
        <ele>153.3</ele>
        <time>1970-01-01T01:09:37.000Z</time>
      </trkpt>
      <trkpt lat="42.284495" lon="-8.793933">
        <ele>153.3</ele>
        <time>1970-01-01T01:09:38.000Z</time>
      </trkpt>
      <trkpt lat="42.284495" lon="-8.793933">
        <ele>153.3</ele>
        <time>1970-01-01T01:09:39.000Z</time>
      </trkpt>
      <trkpt lat="42.284495" lon="-8.793933">
        <ele>153.3</ele>
        <time>1970-01-01T01:09:40.000Z</time>
      </trkpt>
      <trkpt lat="42.284495" lon="-8.793933">
        <ele>150.3</ele>
        <time>1970-01-01T01:09:41.000Z</time>
      </trkpt>
      <trkpt lat="42.284495" lon="-8.793933">
        <ele>150.3</ele>
        <time>1970-01-01T01:09:42.000Z</time>
      </trkpt>
      <trkpt lat="42.284493" lon="-8.793933">
        <ele>150.3</ele>
        <time>1970-01-01T01:09:43.000Z</time>
      </trkpt>
      <trkpt lat="42.284493" lon="-8.793933">
        <ele>150.3</ele>
        <time>1970-01-01T01:09:44.000Z</time>
      </trkpt>
      <trkpt lat="42.284493" lon="-8.793933">
        <ele>150.3</ele>
        <time>1970-01-01T01:09:45.000Z</time>
      </trkpt>
      <trkpt lat="42.284493" lon="-8.793935">
        <ele>150.3</ele>
        <time>1970-01-01T01:09:46.000Z</time>
      </trkpt>
      <trkpt lat="42.284493" lon="-8.793935">
        <ele>150.3</ele>
        <time>1970-01-01T01:09:47.000Z</time>
      </trkpt>
      <trkpt lat="42.284493" lon="-8.793935">
        <ele>150.3</ele>
        <time>1970-01-01T01:09:48.000Z</time>
      </trkpt>
      <trkpt lat="42.284493" lon="-8.793937">
        <ele>150.3</ele>
        <time>1970-01-01T01:09:49.000Z</time>
      </trkpt>
      <trkpt lat="42.284493" lon="-8.793937">
        <ele>150.3</ele>
        <time>1970-01-01T01:09:50.000Z</time>
      </trkpt>
      <trkpt lat="42.284493" lon="-8.793937">
        <ele>150.3</ele>
        <time>1970-01-01T01:09:51.000Z</time>
      </trkpt>
      <trkpt lat="42.284493" lon="-8.793937">
        <ele>150.3</ele>
        <time>1970-01-01T01:09:52.000Z</time>
      </trkpt>
      <trkpt lat="42.284488" lon="-8.793938">
        <ele>151.3</ele>
        <time>1970-01-01T01:09:53.000Z</time>
      </trkpt>
      <trkpt lat="42.28448" lon="-8.793938">
        <ele>151.3</ele>
        <time>1970-01-01T01:09:54.000Z</time>
      </trkpt>
      <trkpt lat="42.284475" lon="-8.793937">
        <ele>152.2</ele>
        <time>1970-01-01T01:09:55.000Z</time>
      </trkpt>
      <trkpt lat="42.284477" lon="-8.793937">
        <ele>152.2</ele>
        <time>1970-01-01T01:09:56.000Z</time>
      </trkpt>
      <trkpt lat="42.284473" lon="-8.793938">
        <ele>152.2</ele>
        <time>1970-01-01T01:09:57.000Z</time>
      </trkpt>
      <trkpt lat="42.28447" lon="-8.793938">
        <ele>152.2</ele>
        <time>1970-01-01T01:09:58.000Z</time>
      </trkpt>
      <trkpt lat="42.284467" lon="-8.79394">
        <ele>152.2</ele>
        <time>1970-01-01T01:09:59.000Z</time>
      </trkpt>
      <trkpt lat="42.284463" lon="-8.79394">
        <ele>152.2</ele>
        <time>1970-01-01T01:10:00.000Z</time>
      </trkpt>
      <trkpt lat="42.28446" lon="-8.793942">
        <ele>152.2</ele>
        <time>1970-01-01T01:10:01.000Z</time>
      </trkpt>
      <trkpt lat="42.28446" lon="-8.793942">
        <ele>152.2</ele>
        <time>1970-01-01T01:10:02.000Z</time>
      </trkpt>
      <trkpt lat="42.28446" lon="-8.793942">
        <ele>153.3</ele>
        <time>1970-01-01T01:10:03.000Z</time>
      </trkpt>
      <trkpt lat="42.28446" lon="-8.793942">
        <ele>153.3</ele>
        <time>1970-01-01T01:10:04.000Z</time>
      </trkpt>
      <trkpt lat="42.28446" lon="-8.793942">
        <ele>153.3</ele>
        <time>1970-01-01T01:10:05.000Z</time>
      </trkpt>
      <trkpt lat="42.28446" lon="-8.793942">
        <ele>153.3</ele>
        <time>1970-01-01T01:10:06.000Z</time>
      </trkpt>
      <trkpt lat="42.28446" lon="-8.793942">
        <ele>153.3</ele>
        <time>1970-01-01T01:10:07.000Z</time>
      </trkpt>
      <trkpt lat="42.284457" lon="-8.793942">
        <ele>153.3</ele>
        <time>1970-01-01T01:10:08.000Z</time>
      </trkpt>
      <trkpt lat="42.284455" lon="-8.793942">
        <ele>154.2</ele>
        <time>1970-01-01T01:10:09.000Z</time>
      </trkpt>
      <trkpt lat="42.284455" lon="-8.793942">
        <ele>154.2</ele>
        <time>1970-01-01T01:10:10.000Z</time>
      </trkpt>
      <trkpt lat="42.284455" lon="-8.793942">
        <ele>154.2</ele>
        <time>1970-01-01T01:10:11.000Z</time>
      </trkpt>
      <trkpt lat="42.284455" lon="-8.793942">
        <ele>154.2</ele>
        <time>1970-01-01T01:10:12.000Z</time>
      </trkpt>
      <trkpt lat="42.284455" lon="-8.793942">
        <ele>154.2</ele>
        <time>1970-01-01T01:10:13.000Z</time>
      </trkpt>
      <trkpt lat="42.284455" lon="-8.79394">
        <ele>154.2</ele>
        <time>1970-01-01T01:10:14.000Z</time>
      </trkpt>
      <trkpt lat="42.284453" lon="-8.79394">
        <ele>154.2</ele>
        <time>1970-01-01T01:10:15.000Z</time>
      </trkpt>
      <trkpt lat="42.284453" lon="-8.79394">
        <ele>154.2</ele>
        <time>1970-01-01T01:10:16.000Z</time>
      </trkpt>
      <trkpt lat="42.284453" lon="-8.793938">
        <ele>154.2</ele>
        <time>1970-01-01T01:10:17.000Z</time>
      </trkpt>
      <trkpt lat="42.284453" lon="-8.793938">
        <ele>154.2</ele>
        <time>1970-01-01T01:10:18.000Z</time>
      </trkpt>
      <trkpt lat="42.284453" lon="-8.793938">
        <ele>154.2</ele>
        <time>1970-01-01T01:10:19.000Z</time>
      </trkpt>
      <trkpt lat="42.284453" lon="-8.793937">
        <ele>154.2</ele>
        <time>1970-01-01T01:10:20.000Z</time>
      </trkpt>
      <trkpt lat="42.284453" lon="-8.793937">
        <ele>154.2</ele>
        <time>1970-01-01T01:10:21.000Z</time>
      </trkpt>
      <trkpt lat="42.284453" lon="-8.793937">
        <ele>154.2</ele>
        <time>1970-01-01T01:10:22.000Z</time>
      </trkpt>
      <trkpt lat="42.284452" lon="-8.793937">
        <ele>154.2</ele>
        <time>1970-01-01T01:10:23.000Z</time>
      </trkpt>
      <trkpt lat="42.284452" lon="-8.793935">
        <ele>154.2</ele>
        <time>1970-01-01T01:10:24.000Z</time>
      </trkpt>
      <trkpt lat="42.284452" lon="-8.793933">
        <ele>154.2</ele>
        <time>1970-01-01T01:10:25.000Z</time>
      </trkpt>
      <trkpt lat="42.284452" lon="-8.793932">
        <ele>154.2</ele>
        <time>1970-01-01T01:10:26.000Z</time>
      </trkpt>
      <trkpt lat="42.284452" lon="-8.79393">
        <ele>154.2</ele>
        <time>1970-01-01T01:10:27.000Z</time>
      </trkpt>
      <trkpt lat="42.28445" lon="-8.79393">
        <ele>154.2</ele>
        <time>1970-01-01T01:10:28.000Z</time>
      </trkpt>
      <trkpt lat="42.28445" lon="-8.793928">
        <ele>154.2</ele>
        <time>1970-01-01T01:10:29.000Z</time>
      </trkpt>
      <trkpt lat="42.28445" lon="-8.793927">
        <ele>154.2</ele>
        <time>1970-01-01T01:10:30.000Z</time>
      </trkpt>
      <trkpt lat="42.28445" lon="-8.793927">
        <ele>154.2</ele>
        <time>1970-01-01T01:10:31.000Z</time>
      </trkpt>
      <trkpt lat="42.28445" lon="-8.793927">
        <ele>154.2</ele>
        <time>1970-01-01T01:10:32.000Z</time>
      </trkpt>
      <trkpt lat="42.28445" lon="-8.793927">
        <ele>154.2</ele>
        <time>1970-01-01T01:10:33.000Z</time>
      </trkpt>
      <trkpt lat="42.284448" lon="-8.793927">
        <ele>154.2</ele>
        <time>1970-01-01T01:10:34.000Z</time>
      </trkpt>
      <trkpt lat="42.284448" lon="-8.793927">
        <ele>154.2</ele>
        <time>1970-01-01T01:10:35.000Z</time>
      </trkpt>
      <trkpt lat="42.284448" lon="-8.793927">
        <ele>154.2</ele>
        <time>1970-01-01T01:10:36.000Z</time>
      </trkpt>
      <trkpt lat="42.284448" lon="-8.793927">
        <ele>154.2</ele>
        <time>1970-01-01T01:10:37.000Z</time>
      </trkpt>
      <trkpt lat="42.284448" lon="-8.793927">
        <ele>154.2</ele>
        <time>1970-01-01T01:10:38.000Z</time>
      </trkpt>
      <trkpt lat="42.284448" lon="-8.793927">
        <ele>154.2</ele>
        <time>1970-01-01T01:10:39.000Z</time>
      </trkpt>
      <trkpt lat="42.284448" lon="-8.793927">
        <ele>154.2</ele>
        <time>1970-01-01T01:10:40.000Z</time>
      </trkpt>
      <trkpt lat="42.284448" lon="-8.793927">
        <ele>154.2</ele>
        <time>1970-01-01T01:10:41.000Z</time>
      </trkpt>
      <trkpt lat="42.284447" lon="-8.793927">
        <ele>154.2</ele>
        <time>1970-01-01T01:10:42.000Z</time>
      </trkpt>
      <trkpt lat="42.284447" lon="-8.793927">
        <ele>154.2</ele>
        <time>1970-01-01T01:10:43.000Z</time>
      </trkpt>
      <trkpt lat="42.284447" lon="-8.793927">
        <ele>154.2</ele>
        <time>1970-01-01T01:10:44.000Z</time>
      </trkpt>
      <trkpt lat="42.284447" lon="-8.793928">
        <ele>154.2</ele>
        <time>1970-01-01T01:10:45.000Z</time>
      </trkpt>
      <trkpt lat="42.284447" lon="-8.79393">
        <ele>154.2</ele>
        <time>1970-01-01T01:10:46.000Z</time>
      </trkpt>
      <trkpt lat="42.284447" lon="-8.793933">
        <ele>154.2</ele>
        <time>1970-01-01T01:10:47.000Z</time>
      </trkpt>
      <trkpt lat="42.284447" lon="-8.793935">
        <ele>154.2</ele>
        <time>1970-01-01T01:10:48.000Z</time>
      </trkpt>
      <trkpt lat="42.284447" lon="-8.793937">
        <ele>154.2</ele>
        <time>1970-01-01T01:10:49.000Z</time>
      </trkpt>
      <trkpt lat="42.284445" lon="-8.793937">
        <ele>154.2</ele>
        <time>1970-01-01T01:10:50.000Z</time>
      </trkpt>
      <trkpt lat="42.284445" lon="-8.793937">
        <ele>154.2</ele>
        <time>1970-01-01T01:10:51.000Z</time>
      </trkpt>
      <trkpt lat="42.284445" lon="-8.793937">
        <ele>154.2</ele>
        <time>1970-01-01T01:10:52.000Z</time>
      </trkpt>
      <trkpt lat="42.284445" lon="-8.793938">
        <ele>154.2</ele>
        <time>1970-01-01T01:10:53.000Z</time>
      </trkpt>
      <trkpt lat="42.284445" lon="-8.793938">
        <ele>154.2</ele>
        <time>1970-01-01T01:10:54.000Z</time>
      </trkpt>
      <trkpt lat="42.284445" lon="-8.793938">
        <ele>154.2</ele>
        <time>1970-01-01T01:10:55.000Z</time>
      </trkpt>
      <trkpt lat="42.284445" lon="-8.79394">
        <ele>154.2</ele>
        <time>1970-01-01T01:10:56.000Z</time>
      </trkpt>
      <trkpt lat="42.284445" lon="-8.79394">
        <ele>153.3</ele>
        <time>1970-01-01T01:10:57.000Z</time>
      </trkpt>
      <trkpt lat="42.284445" lon="-8.79394">
        <ele>153.3</ele>
        <time>1970-01-01T01:10:58.000Z</time>
      </trkpt>
      <trkpt lat="42.284443" lon="-8.793942">
        <ele>153.3</ele>
        <time>1970-01-01T01:10:59.000Z</time>
      </trkpt>
      <trkpt lat="42.284442" lon="-8.793942">
        <ele>153.3</ele>
        <time>1970-01-01T01:11:00.000Z</time>
      </trkpt>
      <trkpt lat="42.28444" lon="-8.793942">
        <ele>153.3</ele>
        <time>1970-01-01T01:11:01.000Z</time>
      </trkpt>
      <trkpt lat="42.284437" lon="-8.793942">
        <ele>153.3</ele>
        <time>1970-01-01T01:11:02.000Z</time>
      </trkpt>
      <trkpt lat="42.284433" lon="-8.793942">
        <ele>153.3</ele>
        <time>1970-01-01T01:11:03.000Z</time>
      </trkpt>
      <trkpt lat="42.28443" lon="-8.793942">
        <ele>153.3</ele>
        <time>1970-01-01T01:11:04.000Z</time>
      </trkpt>
      <trkpt lat="42.284427" lon="-8.793942">
        <ele>153.3</ele>
        <time>1970-01-01T01:11:05.000Z</time>
      </trkpt>
      <trkpt lat="42.284425" lon="-8.793942">
        <ele>153.3</ele>
        <time>1970-01-01T01:11:06.000Z</time>
      </trkpt>
      <trkpt lat="42.284425" lon="-8.793942">
        <ele>153.3</ele>
        <time>1970-01-01T01:11:07.000Z</time>
      </trkpt>
      <trkpt lat="42.284423" lon="-8.793942">
        <ele>153.3</ele>
        <time>1970-01-01T01:11:08.000Z</time>
      </trkpt>
      <trkpt lat="42.284423" lon="-8.793942">
        <ele>153.3</ele>
        <time>1970-01-01T01:11:09.000Z</time>
      </trkpt>
      <trkpt lat="42.284423" lon="-8.793942">
        <ele>153.3</ele>
        <time>1970-01-01T01:11:10.000Z</time>
      </trkpt>
      <trkpt lat="42.284423" lon="-8.793942">
        <ele>154.2</ele>
        <time>1970-01-01T01:11:11.000Z</time>
      </trkpt>
      <trkpt lat="42.284423" lon="-8.79394">
        <ele>154.2</ele>
        <time>1970-01-01T01:11:12.000Z</time>
      </trkpt>
      <trkpt lat="42.284423" lon="-8.79394">
        <ele>154.2</ele>
        <time>1970-01-01T01:11:13.000Z</time>
      </trkpt>
      <trkpt lat="42.284423" lon="-8.793938">
        <ele>154.2</ele>
        <time>1970-01-01T01:11:14.000Z</time>
      </trkpt>
      <trkpt lat="42.284423" lon="-8.793938">
        <ele>154.2</ele>
        <time>1970-01-01T01:11:15.000Z</time>
      </trkpt>
      <trkpt lat="42.284423" lon="-8.793938">
        <ele>154.2</ele>
        <time>1970-01-01T01:11:16.000Z</time>
      </trkpt>
      <trkpt lat="42.284422" lon="-8.793938">
        <ele>154.2</ele>
        <time>1970-01-01T01:11:17.000Z</time>
      </trkpt>
      <trkpt lat="42.284422" lon="-8.793937">
        <ele>154.2</ele>
        <time>1970-01-01T01:11:18.000Z</time>
      </trkpt>
      <trkpt lat="42.28442" lon="-8.793937">
        <ele>153.3</ele>
        <time>1970-01-01T01:11:19.000Z</time>
      </trkpt>
      <trkpt lat="42.284415" lon="-8.793935">
        <ele>153.3</ele>
        <time>1970-01-01T01:11:20.000Z</time>
      </trkpt>
      <trkpt lat="42.284412" lon="-8.793933">
        <ele>153.3</ele>
        <time>1970-01-01T01:11:21.000Z</time>
      </trkpt>
      <trkpt lat="42.284408" lon="-8.793933">
        <ele>153.3</ele>
        <time>1970-01-01T01:11:22.000Z</time>
      </trkpt>
      <trkpt lat="42.284405" lon="-8.79393">
        <ele>153.3</ele>
        <time>1970-01-01T01:11:23.000Z</time>
      </trkpt>
      <trkpt lat="42.284403" lon="-8.793928">
        <ele>153.3</ele>
        <time>1970-01-01T01:11:24.000Z</time>
      </trkpt>
      <trkpt lat="42.284402" lon="-8.793925">
        <ele>153.3</ele>
        <time>1970-01-01T01:11:25.000Z</time>
      </trkpt>
      <trkpt lat="42.284398" lon="-8.793922">
        <ele>153.3</ele>
        <time>1970-01-01T01:11:26.000Z</time>
      </trkpt>
      <trkpt lat="42.284397" lon="-8.79392">
        <ele>153.3</ele>
        <time>1970-01-01T01:11:27.000Z</time>
      </trkpt>
      <trkpt lat="42.284395" lon="-8.79392">
        <ele>153.3</ele>
        <time>1970-01-01T01:11:28.000Z</time>
      </trkpt>
      <trkpt lat="42.284393" lon="-8.793918">
        <ele>153.3</ele>
        <time>1970-01-01T01:11:29.000Z</time>
      </trkpt>
      <trkpt lat="42.284393" lon="-8.793918">
        <ele>153.3</ele>
        <time>1970-01-01T01:11:30.000Z</time>
      </trkpt>
      <trkpt lat="42.284393" lon="-8.793917">
        <ele>153.3</ele>
        <time>1970-01-01T01:11:31.000Z</time>
      </trkpt>
      <trkpt lat="42.284393" lon="-8.793917">
        <ele>153.3</ele>
        <time>1970-01-01T01:11:32.000Z</time>
      </trkpt>
      <trkpt lat="42.284393" lon="-8.793917">
        <ele>153.3</ele>
        <time>1970-01-01T01:11:33.000Z</time>
      </trkpt>
      <trkpt lat="42.284393" lon="-8.793917">
        <ele>153.3</ele>
        <time>1970-01-01T01:11:34.000Z</time>
      </trkpt>
      <trkpt lat="42.284392" lon="-8.793917">
        <ele>153.3</ele>
        <time>1970-01-01T01:11:35.000Z</time>
      </trkpt>
      <trkpt lat="42.284392" lon="-8.793917">
        <ele>153.3</ele>
        <time>1970-01-01T01:11:36.000Z</time>
      </trkpt>
      <trkpt lat="42.284392" lon="-8.793917">
        <ele>154.2</ele>
        <time>1970-01-01T01:11:37.000Z</time>
      </trkpt>
      <trkpt lat="42.284392" lon="-8.793917">
        <ele>154.2</ele>
        <time>1970-01-01T01:11:38.000Z</time>
      </trkpt>
      <trkpt lat="42.284392" lon="-8.793917">
        <ele>154.2</ele>
        <time>1970-01-01T01:11:39.000Z</time>
      </trkpt>
      <trkpt lat="42.284392" lon="-8.793915">
        <ele>154.2</ele>
        <time>1970-01-01T01:11:40.000Z</time>
      </trkpt>
      <trkpt lat="42.284388" lon="-8.79391">
        <ele>154.2</ele>
        <time>1970-01-01T01:11:41.000Z</time>
      </trkpt>
      <trkpt lat="42.284385" lon="-8.793907">
        <ele>154.2</ele>
        <time>1970-01-01T01:11:42.000Z</time>
      </trkpt>
      <trkpt lat="42.284383" lon="-8.793902">
        <ele>155.3</ele>
        <time>1970-01-01T01:11:43.000Z</time>
      </trkpt>
      <trkpt lat="42.28438" lon="-8.793898">
        <ele>155.3</ele>
        <time>1970-01-01T01:11:44.000Z</time>
      </trkpt>
      <trkpt lat="42.284378" lon="-8.793897">
        <ele>155.3</ele>
        <time>1970-01-01T01:11:45.000Z</time>
      </trkpt>
      <trkpt lat="42.284377" lon="-8.793897">
        <ele>155.3</ele>
        <time>1970-01-01T01:11:46.000Z</time>
      </trkpt>
      <trkpt lat="42.284375" lon="-8.793897">
        <ele>155.3</ele>
        <time>1970-01-01T01:11:47.000Z</time>
      </trkpt>
      <trkpt lat="42.284375" lon="-8.793895">
        <ele>155.3</ele>
        <time>1970-01-01T01:11:48.000Z</time>
      </trkpt>
      <trkpt lat="42.284373" lon="-8.793895">
        <ele>155.3</ele>
        <time>1970-01-01T01:11:49.000Z</time>
      </trkpt>
      <trkpt lat="42.284372" lon="-8.793893">
        <ele>155.3</ele>
        <time>1970-01-01T01:11:50.000Z</time>
      </trkpt>
      <trkpt lat="42.284368" lon="-8.79389">
        <ele>156.2</ele>
        <time>1970-01-01T01:11:51.000Z</time>
      </trkpt>
      <trkpt lat="42.284367" lon="-8.793888">
        <ele>156.2</ele>
        <time>1970-01-01T01:11:52.000Z</time>
      </trkpt>
      <trkpt lat="42.284365" lon="-8.793887">
        <ele>156.2</ele>
        <time>1970-01-01T01:11:53.000Z</time>
      </trkpt>
      <trkpt lat="42.284362" lon="-8.793883">
        <ele>156.2</ele>
        <time>1970-01-01T01:11:54.000Z</time>
      </trkpt>
      <trkpt lat="42.28436" lon="-8.79388">
        <ele>156.2</ele>
        <time>1970-01-01T01:11:55.000Z</time>
      </trkpt>
      <trkpt lat="42.284358" lon="-8.793877">
        <ele>156.2</ele>
        <time>1970-01-01T01:11:56.000Z</time>
      </trkpt>
      <trkpt lat="42.284357" lon="-8.793873">
        <ele>157.3</ele>
        <time>1970-01-01T01:11:57.000Z</time>
      </trkpt>
      <trkpt lat="42.284357" lon="-8.79387">
        <ele>157.3</ele>
        <time>1970-01-01T01:11:58.000Z</time>
      </trkpt>
      <trkpt lat="42.284357" lon="-8.793867">
        <ele>157.3</ele>
        <time>1970-01-01T01:11:59.000Z</time>
      </trkpt>
      <trkpt lat="42.284355" lon="-8.793863">
        <ele>157.3</ele>
        <time>1970-01-01T01:12:00.000Z</time>
      </trkpt>
      <trkpt lat="42.284355" lon="-8.793862">
        <ele>157.3</ele>
        <time>1970-01-01T01:12:01.000Z</time>
      </trkpt>
      <trkpt lat="42.284355" lon="-8.79386">
        <ele>157.3</ele>
        <time>1970-01-01T01:12:02.000Z</time>
      </trkpt>
      <trkpt lat="42.284355" lon="-8.793857">
        <ele>157.3</ele>
        <time>1970-01-01T01:12:03.000Z</time>
      </trkpt>
      <trkpt lat="42.284355" lon="-8.793853">
        <ele>157.3</ele>
        <time>1970-01-01T01:12:04.000Z</time>
      </trkpt>
      <trkpt lat="42.284353" lon="-8.79385">
        <ele>157.3</ele>
        <time>1970-01-01T01:12:05.000Z</time>
      </trkpt>
      <trkpt lat="42.284353" lon="-8.793847">
        <ele>157.3</ele>
        <time>1970-01-01T01:12:06.000Z</time>
      </trkpt>
      <trkpt lat="42.284353" lon="-8.793845">
        <ele>157.3</ele>
        <time>1970-01-01T01:12:07.000Z</time>
      </trkpt>
      <trkpt lat="42.284353" lon="-8.793842">
        <ele>157.3</ele>
        <time>1970-01-01T01:12:08.000Z</time>
      </trkpt>
      <trkpt lat="42.284353" lon="-8.79384">
        <ele>157.3</ele>
        <time>1970-01-01T01:12:09.000Z</time>
      </trkpt>
      <trkpt lat="42.284352" lon="-8.793838">
        <ele>157.3</ele>
        <time>1970-01-01T01:12:10.000Z</time>
      </trkpt>
      <trkpt lat="42.284352" lon="-8.793835">
        <ele>157.3</ele>
        <time>1970-01-01T01:12:11.000Z</time>
      </trkpt>
      <trkpt lat="42.284352" lon="-8.793833">
        <ele>157.3</ele>
        <time>1970-01-01T01:12:12.000Z</time>
      </trkpt>
      <trkpt lat="42.28435" lon="-8.79383">
        <ele>157.3</ele>
        <time>1970-01-01T01:12:13.000Z</time>
      </trkpt>
      <trkpt lat="42.28435" lon="-8.793828">
        <ele>158.2</ele>
        <time>1970-01-01T01:12:14.000Z</time>
      </trkpt>
      <trkpt lat="42.284348" lon="-8.793827">
        <ele>158.2</ele>
        <time>1970-01-01T01:12:15.000Z</time>
      </trkpt>
      <trkpt lat="42.284348" lon="-8.793827">
        <ele>158.2</ele>
        <time>1970-01-01T01:12:16.000Z</time>
      </trkpt>
      <trkpt lat="42.284348" lon="-8.793825">
        <ele>158.2</ele>
        <time>1970-01-01T01:12:17.000Z</time>
      </trkpt>
      <trkpt lat="42.284347" lon="-8.793823">
        <ele>158.2</ele>
        <time>1970-01-01T01:12:18.000Z</time>
      </trkpt>
      <trkpt lat="42.284347" lon="-8.793822">
        <ele>158.2</ele>
        <time>1970-01-01T01:12:19.000Z</time>
      </trkpt>
      <trkpt lat="42.284347" lon="-8.793822">
        <ele>158.2</ele>
        <time>1970-01-01T01:12:20.000Z</time>
      </trkpt>
      <trkpt lat="42.284347" lon="-8.793822">
        <ele>158.2</ele>
        <time>1970-01-01T01:12:21.000Z</time>
      </trkpt>
      <trkpt lat="42.284347" lon="-8.79382">
        <ele>158.2</ele>
        <time>1970-01-01T01:12:22.000Z</time>
      </trkpt>
      <trkpt lat="42.284347" lon="-8.79382">
        <ele>158.2</ele>
        <time>1970-01-01T01:12:23.000Z</time>
      </trkpt>
      <trkpt lat="42.284347" lon="-8.79382">
        <ele>157.3</ele>
        <time>1970-01-01T01:12:24.000Z</time>
      </trkpt>
      <trkpt lat="42.284345" lon="-8.79382">
        <ele>157.3</ele>
        <time>1970-01-01T01:12:25.000Z</time>
      </trkpt>
      <trkpt lat="42.284345" lon="-8.793818">
        <ele>157.3</ele>
        <time>1970-01-01T01:12:26.000Z</time>
      </trkpt>
      <trkpt lat="42.284345" lon="-8.793818">
        <ele>157.3</ele>
        <time>1970-01-01T01:12:27.000Z</time>
      </trkpt>
      <trkpt lat="42.284345" lon="-8.793818">
        <ele>157.3</ele>
        <time>1970-01-01T01:12:28.000Z</time>
      </trkpt>
      <trkpt lat="42.284345" lon="-8.793818">
        <ele>157.3</ele>
        <time>1970-01-01T01:12:29.000Z</time>
      </trkpt>
      <trkpt lat="42.284345" lon="-8.793818">
        <ele>157.3</ele>
        <time>1970-01-01T01:12:30.000Z</time>
      </trkpt>
      <trkpt lat="42.284345" lon="-8.793818">
        <ele>157.3</ele>
        <time>1970-01-01T01:12:31.000Z</time>
      </trkpt>
      <trkpt lat="42.284345" lon="-8.793818">
        <ele>157.3</ele>
        <time>1970-01-01T01:12:32.000Z</time>
      </trkpt>
      <trkpt lat="42.284345" lon="-8.793817">
        <ele>157.3</ele>
        <time>1970-01-01T01:12:33.000Z</time>
      </trkpt>
      <trkpt lat="42.284343" lon="-8.793817">
        <ele>157.3</ele>
        <time>1970-01-01T01:12:34.000Z</time>
      </trkpt>
      <trkpt lat="42.284343" lon="-8.793817">
        <ele>157.3</ele>
        <time>1970-01-01T01:12:35.000Z</time>
      </trkpt>
      <trkpt lat="42.284343" lon="-8.793815">
        <ele>157.3</ele>
        <time>1970-01-01T01:12:36.000Z</time>
      </trkpt>
      <trkpt lat="42.284343" lon="-8.793813">
        <ele>157.3</ele>
        <time>1970-01-01T01:12:37.000Z</time>
      </trkpt>
      <trkpt lat="42.284342" lon="-8.793812">
        <ele>156.2</ele>
        <time>1970-01-01T01:12:38.000Z</time>
      </trkpt>
      <trkpt lat="42.284342" lon="-8.79381">
        <ele>156.2</ele>
        <time>1970-01-01T01:12:39.000Z</time>
      </trkpt>
      <trkpt lat="42.28434" lon="-8.793808">
        <ele>156.2</ele>
        <time>1970-01-01T01:12:40.000Z</time>
      </trkpt>
      <trkpt lat="42.28434" lon="-8.793807">
        <ele>156.2</ele>
        <time>1970-01-01T01:12:41.000Z</time>
      </trkpt>
      <trkpt lat="42.28434" lon="-8.793807">
        <ele>156.2</ele>
        <time>1970-01-01T01:12:42.000Z</time>
      </trkpt>
      <trkpt lat="42.28434" lon="-8.793805">
        <ele>156.2</ele>
        <time>1970-01-01T01:12:43.000Z</time>
      </trkpt>
      <trkpt lat="42.28434" lon="-8.793805">
        <ele>155.3</ele>
        <time>1970-01-01T01:12:44.000Z</time>
      </trkpt>
      <trkpt lat="42.28434" lon="-8.793805">
        <ele>155.3</ele>
        <time>1970-01-01T01:12:45.000Z</time>
      </trkpt>
      <trkpt lat="42.28434" lon="-8.793805">
        <ele>155.3</ele>
        <time>1970-01-01T01:12:46.000Z</time>
      </trkpt>
      <trkpt lat="42.28434" lon="-8.793803">
        <ele>155.3</ele>
        <time>1970-01-01T01:12:47.000Z</time>
      </trkpt>
      <trkpt lat="42.284338" lon="-8.793803">
        <ele>155.3</ele>
        <time>1970-01-01T01:12:48.000Z</time>
      </trkpt>
      <trkpt lat="42.284338" lon="-8.793803">
        <ele>155.3</ele>
        <time>1970-01-01T01:12:49.000Z</time>
      </trkpt>
      <trkpt lat="42.284338" lon="-8.793803">
        <ele>155.3</ele>
        <time>1970-01-01T01:12:50.000Z</time>
      </trkpt>
      <trkpt lat="42.284338" lon="-8.793803">
        <ele>155.3</ele>
        <time>1970-01-01T01:12:51.000Z</time>
      </trkpt>
      <trkpt lat="42.284338" lon="-8.793802">
        <ele>155.3</ele>
        <time>1970-01-01T01:12:52.000Z</time>
      </trkpt>
      <trkpt lat="42.284338" lon="-8.793802">
        <ele>155.3</ele>
        <time>1970-01-01T01:12:53.000Z</time>
      </trkpt>
      <trkpt lat="42.284338" lon="-8.793802">
        <ele>155.3</ele>
        <time>1970-01-01T01:12:54.000Z</time>
      </trkpt>
      <trkpt lat="42.284337" lon="-8.7938">
        <ele>155.3</ele>
        <time>1970-01-01T01:12:55.000Z</time>
      </trkpt>
      <trkpt lat="42.284337" lon="-8.7938">
        <ele>155.3</ele>
        <time>1970-01-01T01:12:56.000Z</time>
      </trkpt>
      <trkpt lat="42.284337" lon="-8.793798">
        <ele>155.3</ele>
        <time>1970-01-01T01:12:57.000Z</time>
      </trkpt>
      <trkpt lat="42.284335" lon="-8.793798">
        <ele>155.3</ele>
        <time>1970-01-01T01:12:58.000Z</time>
      </trkpt>
      <trkpt lat="42.284335" lon="-8.793797">
        <ele>155.3</ele>
        <time>1970-01-01T01:12:59.000Z</time>
      </trkpt>
      <trkpt lat="42.284335" lon="-8.793797">
        <ele>156.2</ele>
        <time>1970-01-01T01:13:00.000Z</time>
      </trkpt>
      <trkpt lat="42.284335" lon="-8.793795">
        <ele>156.2</ele>
        <time>1970-01-01T01:13:01.000Z</time>
      </trkpt>
      <trkpt lat="42.284333" lon="-8.793795">
        <ele>157.3</ele>
        <time>1970-01-01T01:13:02.000Z</time>
      </trkpt>
      <trkpt lat="42.284333" lon="-8.793795">
        <ele>157.3</ele>
        <time>1970-01-01T01:13:03.000Z</time>
      </trkpt>
      <trkpt lat="42.284333" lon="-8.793793">
        <ele>157.3</ele>
        <time>1970-01-01T01:13:04.000Z</time>
      </trkpt>
      <trkpt lat="42.284333" lon="-8.793793">
        <ele>157.3</ele>
        <time>1970-01-01T01:13:05.000Z</time>
      </trkpt>
      <trkpt lat="42.284333" lon="-8.793793">
        <ele>157.3</ele>
        <time>1970-01-01T01:13:06.000Z</time>
      </trkpt>
      <trkpt lat="42.284332" lon="-8.793793">
        <ele>157.3</ele>
        <time>1970-01-01T01:13:07.000Z</time>
      </trkpt>
      <trkpt lat="42.284332" lon="-8.793793">
        <ele>157.3</ele>
        <time>1970-01-01T01:13:08.000Z</time>
      </trkpt>
      <trkpt lat="42.284332" lon="-8.793792">
        <ele>157.3</ele>
        <time>1970-01-01T01:13:09.000Z</time>
      </trkpt>
      <trkpt lat="42.284332" lon="-8.793792">
        <ele>157.3</ele>
        <time>1970-01-01T01:13:10.000Z</time>
      </trkpt>
      <trkpt lat="42.284332" lon="-8.793792">
        <ele>157.3</ele>
        <time>1970-01-01T01:13:11.000Z</time>
      </trkpt>
      <trkpt lat="42.284332" lon="-8.793792">
        <ele>158.2</ele>
        <time>1970-01-01T01:13:12.000Z</time>
      </trkpt>
      <trkpt lat="42.284332" lon="-8.793792">
        <ele>158.2</ele>
        <time>1970-01-01T01:13:13.000Z</time>
      </trkpt>
      <trkpt lat="42.284332" lon="-8.79379">
        <ele>158.2</ele>
        <time>1970-01-01T01:13:14.000Z</time>
      </trkpt>
      <trkpt lat="42.284332" lon="-8.79379">
        <ele>158.2</ele>
        <time>1970-01-01T01:13:15.000Z</time>
      </trkpt>
      <trkpt lat="42.284332" lon="-8.79379">
        <ele>158.2</ele>
        <time>1970-01-01T01:13:16.000Z</time>
      </trkpt>
      <trkpt lat="42.28433" lon="-8.79379">
        <ele>158.2</ele>
        <time>1970-01-01T01:13:17.000Z</time>
      </trkpt>
      <trkpt lat="42.28433" lon="-8.79379">
        <ele>158.2</ele>
        <time>1970-01-01T01:13:18.000Z</time>
      </trkpt>
      <trkpt lat="42.28433" lon="-8.79379">
        <ele>158.2</ele>
        <time>1970-01-01T01:13:19.000Z</time>
      </trkpt>
      <trkpt lat="42.28433" lon="-8.79379">
        <ele>158.2</ele>
        <time>1970-01-01T01:13:20.000Z</time>
      </trkpt>
      <trkpt lat="42.28433" lon="-8.79379">
        <ele>158.2</ele>
        <time>1970-01-01T01:13:21.000Z</time>
      </trkpt>
      <trkpt lat="42.28433" lon="-8.79379">
        <ele>159.3</ele>
        <time>1970-01-01T01:13:22.000Z</time>
      </trkpt>
      <trkpt lat="42.28433" lon="-8.79379">
        <ele>159.3</ele>
        <time>1970-01-01T01:13:23.000Z</time>
      </trkpt>
      <trkpt lat="42.28433" lon="-8.79379">
        <ele>159.3</ele>
        <time>1970-01-01T01:13:24.000Z</time>
      </trkpt>
      <trkpt lat="42.28433" lon="-8.79379">
        <ele>159.3</ele>
        <time>1970-01-01T01:13:25.000Z</time>
      </trkpt>
      <trkpt lat="42.28433" lon="-8.79379">
        <ele>160.3</ele>
        <time>1970-01-01T01:13:26.000Z</time>
      </trkpt>
      <trkpt lat="42.28433" lon="-8.79379">
        <ele>160.3</ele>
        <time>1970-01-01T01:13:27.000Z</time>
      </trkpt>
      <trkpt lat="42.28433" lon="-8.79379">
        <ele>160.3</ele>
        <time>1970-01-01T01:13:28.000Z</time>
      </trkpt>
      <trkpt lat="42.28433" lon="-8.79379">
        <ele>160.3</ele>
        <time>1970-01-01T01:13:29.000Z</time>
      </trkpt>
      <trkpt lat="42.28433" lon="-8.79379">
        <ele>160.3</ele>
        <time>1970-01-01T01:13:30.000Z</time>
      </trkpt>
      <trkpt lat="42.284332" lon="-8.79379">
        <ele>160.3</ele>
        <time>1970-01-01T01:13:31.000Z</time>
      </trkpt>
      <trkpt lat="42.28433" lon="-8.79379">
        <ele>160.3</ele>
        <time>1970-01-01T01:13:32.000Z</time>
      </trkpt>
      <trkpt lat="42.28433" lon="-8.79379">
        <ele>160.3</ele>
        <time>1970-01-01T01:13:33.000Z</time>
      </trkpt>
      <trkpt lat="42.28433" lon="-8.79379">
        <ele>161.2</ele>
        <time>1970-01-01T01:13:34.000Z</time>
      </trkpt>
      <trkpt lat="42.28433" lon="-8.79379">
        <ele>161.2</ele>
        <time>1970-01-01T01:13:35.000Z</time>
      </trkpt>
      <trkpt lat="42.28433" lon="-8.79379">
        <ele>161.2</ele>
        <time>1970-01-01T01:13:36.000Z</time>
      </trkpt>
      <trkpt lat="42.28433" lon="-8.79379">
        <ele>161.2</ele>
        <time>1970-01-01T01:13:37.000Z</time>
      </trkpt>
      <trkpt lat="42.284332" lon="-8.79379">
        <ele>162.3</ele>
        <time>1970-01-01T01:13:38.000Z</time>
      </trkpt>
      <trkpt lat="42.284332" lon="-8.793788">
        <ele>162.3</ele>
        <time>1970-01-01T01:13:39.000Z</time>
      </trkpt>
      <trkpt lat="42.284332" lon="-8.793788">
        <ele>162.3</ele>
        <time>1970-01-01T01:13:40.000Z</time>
      </trkpt>
      <trkpt lat="42.284332" lon="-8.793788">
        <ele>162.3</ele>
        <time>1970-01-01T01:13:41.000Z</time>
      </trkpt>
      <trkpt lat="42.28433" lon="-8.793788">
        <ele>161.2</ele>
        <time>1970-01-01T01:13:42.000Z</time>
      </trkpt>
      <trkpt lat="42.284332" lon="-8.793788">
        <ele>161.2</ele>
        <time>1970-01-01T01:13:43.000Z</time>
      </trkpt>
      <trkpt lat="42.284332" lon="-8.793788">
        <ele>161.2</ele>
        <time>1970-01-01T01:13:44.000Z</time>
      </trkpt>
      <trkpt lat="42.284332" lon="-8.793788">
        <ele>161.2</ele>
        <time>1970-01-01T01:13:45.000Z</time>
      </trkpt>
      <trkpt lat="42.284332" lon="-8.793788">
        <ele>162.3</ele>
        <time>1970-01-01T01:13:46.000Z</time>
      </trkpt>
      <trkpt lat="42.284332" lon="-8.793788">
        <ele>162.3</ele>
        <time>1970-01-01T01:13:47.000Z</time>
      </trkpt>
      <trkpt lat="42.284332" lon="-8.793788">
        <ele>162.3</ele>
        <time>1970-01-01T01:13:48.000Z</time>
      </trkpt>
      <trkpt lat="42.284332" lon="-8.793788">
        <ele>162.3</ele>
        <time>1970-01-01T01:13:49.000Z</time>
      </trkpt>
      <trkpt lat="42.284332" lon="-8.793788">
        <ele>163.2</ele>
        <time>1970-01-01T01:13:50.000Z</time>
      </trkpt>
      <trkpt lat="42.284332" lon="-8.793788">
        <ele>163.2</ele>
        <time>1970-01-01T01:13:51.000Z</time>
      </trkpt>
      <trkpt lat="42.284332" lon="-8.793788">
        <ele>163.2</ele>
        <time>1970-01-01T01:13:52.000Z</time>
      </trkpt>
      <trkpt lat="42.284332" lon="-8.793788">
        <ele>163.2</ele>
        <time>1970-01-01T01:13:53.000Z</time>
      </trkpt>
      <trkpt lat="42.284332" lon="-8.793788">
        <ele>164.3</ele>
        <time>1970-01-01T01:13:54.000Z</time>
      </trkpt>
      <trkpt lat="42.284332" lon="-8.793788">
        <ele>164.3</ele>
        <time>1970-01-01T01:13:55.000Z</time>
      </trkpt>
      <trkpt lat="42.284332" lon="-8.793788">
        <ele>164.3</ele>
        <time>1970-01-01T01:13:56.000Z</time>
      </trkpt>
      <trkpt lat="42.284332" lon="-8.793788">
        <ele>164.3</ele>
        <time>1970-01-01T01:13:57.000Z</time>
      </trkpt>
      <trkpt lat="42.284332" lon="-8.793788">
        <ele>164.3</ele>
        <time>1970-01-01T01:13:58.000Z</time>
      </trkpt>
      <trkpt lat="42.284332" lon="-8.793788">
        <ele>164.3</ele>
        <time>1970-01-01T01:13:59.000Z</time>
      </trkpt>
      <trkpt lat="42.284332" lon="-8.793788">
        <ele>165.2</ele>
        <time>1970-01-01T01:14:00.000Z</time>
      </trkpt>
      <trkpt lat="42.284332" lon="-8.793788">
        <ele>165.2</ele>
        <time>1970-01-01T01:14:01.000Z</time>
      </trkpt>
      <trkpt lat="42.284332" lon="-8.793788">
        <ele>166.3</ele>
        <time>1970-01-01T01:14:02.000Z</time>
      </trkpt>
      <trkpt lat="42.284332" lon="-8.793788">
        <ele>166.3</ele>
        <time>1970-01-01T01:14:03.000Z</time>
      </trkpt>
      <trkpt lat="42.284332" lon="-8.793788">
        <ele>167.3</ele>
        <time>1970-01-01T01:14:04.000Z</time>
      </trkpt>
      <trkpt lat="42.284332" lon="-8.793787">
        <ele>167.3</ele>
        <time>1970-01-01T01:14:05.000Z</time>
      </trkpt>
      <trkpt lat="42.284332" lon="-8.793787">
        <ele>167.3</ele>
        <time>1970-01-01T01:14:06.000Z</time>
      </trkpt>
      <trkpt lat="42.284332" lon="-8.793787">
        <ele>167.3</ele>
        <time>1970-01-01T01:14:07.000Z</time>
      </trkpt>
      <trkpt lat="42.284332" lon="-8.793787">
        <ele>168.3</ele>
        <time>1970-01-01T01:14:08.000Z</time>
      </trkpt>
      <trkpt lat="42.284332" lon="-8.79378">
        <ele>168.3</ele>
        <time>1970-01-01T01:14:09.000Z</time>
      </trkpt>
      <trkpt lat="42.284335" lon="-8.79377">
        <ele>168.3</ele>
        <time>1970-01-01T01:14:10.000Z</time>
      </trkpt>
      <trkpt lat="42.284337" lon="-8.79376">
        <ele>168.3</ele>
        <time>1970-01-01T01:14:11.000Z</time>
      </trkpt>
      <trkpt lat="42.28434" lon="-8.79375">
        <ele>168.3</ele>
        <time>1970-01-01T01:14:12.000Z</time>
      </trkpt>
      <trkpt lat="42.28434" lon="-8.79374">
        <ele>168.3</ele>
        <time>1970-01-01T01:14:13.000Z</time>
      </trkpt>
      <trkpt lat="42.28434" lon="-8.793728">
        <ele>169.3</ele>
        <time>1970-01-01T01:14:14.000Z</time>
      </trkpt>
      <trkpt lat="42.284342" lon="-8.793715">
        <ele>169.3</ele>
        <time>1970-01-01T01:14:15.000Z</time>
      </trkpt>
      <trkpt lat="42.284343" lon="-8.7937">
        <ele>169.3</ele>
        <time>1970-01-01T01:14:16.000Z</time>
      </trkpt>
      <trkpt lat="42.284343" lon="-8.793685">
        <ele>169.3</ele>
        <time>1970-01-01T01:14:17.000Z</time>
      </trkpt>
      <trkpt lat="42.284343" lon="-8.79367">
        <ele>169.3</ele>
        <time>1970-01-01T01:14:18.000Z</time>
      </trkpt>
      <trkpt lat="42.284342" lon="-8.793663">
        <ele>169.3</ele>
        <time>1970-01-01T01:14:19.000Z</time>
      </trkpt>
      <trkpt lat="42.284342" lon="-8.793655">
        <ele>170.2</ele>
        <time>1970-01-01T01:14:20.000Z</time>
      </trkpt>
      <trkpt lat="42.284343" lon="-8.793648">
        <ele>170.2</ele>
        <time>1970-01-01T01:14:21.000Z</time>
      </trkpt>
      <trkpt lat="42.284345" lon="-8.793643">
        <ele>171.3</ele>
        <time>1970-01-01T01:14:22.000Z</time>
      </trkpt>
      <trkpt lat="42.284345" lon="-8.793635">
        <ele>171.3</ele>
        <time>1970-01-01T01:14:23.000Z</time>
      </trkpt>
      <trkpt lat="42.284342" lon="-8.79363">
        <ele>171.3</ele>
        <time>1970-01-01T01:14:24.000Z</time>
      </trkpt>
      <trkpt lat="42.284338" lon="-8.793625">
        <ele>171.3</ele>
        <time>1970-01-01T01:14:25.000Z</time>
      </trkpt>
      <trkpt lat="42.284335" lon="-8.793622">
        <ele>172.2</ele>
        <time>1970-01-01T01:14:26.000Z</time>
      </trkpt>
      <trkpt lat="42.28433" lon="-8.793618">
        <ele>172.2</ele>
        <time>1970-01-01T01:14:27.000Z</time>
      </trkpt>
      <trkpt lat="42.284328" lon="-8.79361">
        <ele>172.2</ele>
        <time>1970-01-01T01:14:28.000Z</time>
      </trkpt>
      <trkpt lat="42.284325" lon="-8.793605">
        <ele>172.2</ele>
        <time>1970-01-01T01:14:29.000Z</time>
      </trkpt>
      <trkpt lat="42.284323" lon="-8.793598">
        <ele>172.2</ele>
        <time>1970-01-01T01:14:30.000Z</time>
      </trkpt>
      <trkpt lat="42.284323" lon="-8.793593">
        <ele>172.2</ele>
        <time>1970-01-01T01:14:31.000Z</time>
      </trkpt>
      <trkpt lat="42.284327" lon="-8.793585">
        <ele>172.2</ele>
        <time>1970-01-01T01:14:32.000Z</time>
      </trkpt>
      <trkpt lat="42.284327" lon="-8.793575">
        <ele>172.2</ele>
        <time>1970-01-01T01:14:33.000Z</time>
      </trkpt>
      <trkpt lat="42.284325" lon="-8.793565">
        <ele>172.2</ele>
        <time>1970-01-01T01:14:34.000Z</time>
      </trkpt>
      <trkpt lat="42.284322" lon="-8.793558">
        <ele>172.2</ele>
        <time>1970-01-01T01:14:35.000Z</time>
      </trkpt>
      <trkpt lat="42.28432" lon="-8.793552">
        <ele>172.2</ele>
        <time>1970-01-01T01:14:36.000Z</time>
      </trkpt>
      <trkpt lat="42.284315" lon="-8.793543">
        <ele>172.2</ele>
        <time>1970-01-01T01:14:37.000Z</time>
      </trkpt>
      <trkpt lat="42.284312" lon="-8.793538">
        <ele>172.2</ele>
        <time>1970-01-01T01:14:38.000Z</time>
      </trkpt>
      <trkpt lat="42.28431" lon="-8.793532">
        <ele>172.2</ele>
        <time>1970-01-01T01:14:39.000Z</time>
      </trkpt>
      <trkpt lat="42.28431" lon="-8.793525">
        <ele>172.2</ele>
        <time>1970-01-01T01:14:40.000Z</time>
      </trkpt>
      <trkpt lat="42.284308" lon="-8.793517">
        <ele>172.2</ele>
        <time>1970-01-01T01:14:41.000Z</time>
      </trkpt>
      <trkpt lat="42.284303" lon="-8.793512">
        <ele>172.2</ele>
        <time>1970-01-01T01:14:42.000Z</time>
      </trkpt>
      <trkpt lat="42.2843" lon="-8.793507">
        <ele>172.2</ele>
        <time>1970-01-01T01:14:43.000Z</time>
      </trkpt>
      <trkpt lat="42.284297" lon="-8.793502">
        <ele>172.2</ele>
        <time>1970-01-01T01:14:44.000Z</time>
      </trkpt>
      <trkpt lat="42.284292" lon="-8.793498">
        <ele>172.2</ele>
        <time>1970-01-01T01:14:45.000Z</time>
      </trkpt>
      <trkpt lat="42.284288" lon="-8.793497">
        <ele>172.2</ele>
        <time>1970-01-01T01:14:46.000Z</time>
      </trkpt>
      <trkpt lat="42.284282" lon="-8.793492">
        <ele>172.2</ele>
        <time>1970-01-01T01:14:47.000Z</time>
      </trkpt>
      <trkpt lat="42.284278" lon="-8.793488">
        <ele>173.3</ele>
        <time>1970-01-01T01:14:48.000Z</time>
      </trkpt>
      <trkpt lat="42.284275" lon="-8.793487">
        <ele>173.3</ele>
        <time>1970-01-01T01:14:49.000Z</time>
      </trkpt>
      <trkpt lat="42.284268" lon="-8.793483">
        <ele>173.3</ele>
        <time>1970-01-01T01:14:50.000Z</time>
      </trkpt>
      <trkpt lat="42.284263" lon="-8.793483">
        <ele>173.3</ele>
        <time>1970-01-01T01:14:51.000Z</time>
      </trkpt>
      <trkpt lat="42.28426" lon="-8.793483">
        <ele>173.3</ele>
        <time>1970-01-01T01:14:52.000Z</time>
      </trkpt>
      <trkpt lat="42.284257" lon="-8.793485">
        <ele>173.3</ele>
        <time>1970-01-01T01:14:53.000Z</time>
      </trkpt>
      <trkpt lat="42.284253" lon="-8.793483">
        <ele>173.3</ele>
        <time>1970-01-01T01:14:54.000Z</time>
      </trkpt>
      <trkpt lat="42.284252" lon="-8.793478">
        <ele>173.3</ele>
        <time>1970-01-01T01:14:55.000Z</time>
      </trkpt>
      <trkpt lat="42.284255" lon="-8.793472">
        <ele>174.2</ele>
        <time>1970-01-01T01:14:56.000Z</time>
      </trkpt>
      <trkpt lat="42.28426" lon="-8.793463">
        <ele>174.2</ele>
        <time>1970-01-01T01:14:57.000Z</time>
      </trkpt>
      <trkpt lat="42.284265" lon="-8.793455">
        <ele>174.2</ele>
        <time>1970-01-01T01:14:58.000Z</time>
      </trkpt>
      <trkpt lat="42.284268" lon="-8.79345">
        <ele>174.2</ele>
        <time>1970-01-01T01:14:59.000Z</time>
      </trkpt>
      <trkpt lat="42.284272" lon="-8.79344">
        <ele>174.2</ele>
        <time>1970-01-01T01:15:00.000Z</time>
      </trkpt>
      <trkpt lat="42.284272" lon="-8.793433">
        <ele>174.2</ele>
        <time>1970-01-01T01:15:01.000Z</time>
      </trkpt>
      <trkpt lat="42.284273" lon="-8.793428">
        <ele>175.3</ele>
        <time>1970-01-01T01:15:02.000Z</time>
      </trkpt>
      <trkpt lat="42.284273" lon="-8.793427">
        <ele>175.3</ele>
        <time>1970-01-01T01:15:03.000Z</time>
      </trkpt>
      <trkpt lat="42.284273" lon="-8.793427">
        <ele>175.3</ele>
        <time>1970-01-01T01:15:04.000Z</time>
      </trkpt>
      <trkpt lat="42.284273" lon="-8.793427">
        <ele>175.3</ele>
        <time>1970-01-01T01:15:05.000Z</time>
      </trkpt>
      <trkpt lat="42.284273" lon="-8.793427">
        <ele>176.3</ele>
        <time>1970-01-01T01:15:06.000Z</time>
      </trkpt>
      <trkpt lat="42.284273" lon="-8.793427">
        <ele>176.3</ele>
        <time>1970-01-01T01:15:07.000Z</time>
      </trkpt>
      <trkpt lat="42.284273" lon="-8.793427">
        <ele>176.3</ele>
        <time>1970-01-01T01:15:08.000Z</time>
      </trkpt>
      <trkpt lat="42.284273" lon="-8.793427">
        <ele>176.3</ele>
        <time>1970-01-01T01:15:09.000Z</time>
      </trkpt>
      <trkpt lat="42.284273" lon="-8.793427">
        <ele>176.3</ele>
        <time>1970-01-01T01:15:10.000Z</time>
      </trkpt>
      <trkpt lat="42.284273" lon="-8.793427">
        <ele>176.3</ele>
        <time>1970-01-01T01:15:11.000Z</time>
      </trkpt>
      <trkpt lat="42.284273" lon="-8.793427">
        <ele>177.2</ele>
        <time>1970-01-01T01:15:12.000Z</time>
      </trkpt>
      <trkpt lat="42.284273" lon="-8.793427">
        <ele>177.2</ele>
        <time>1970-01-01T01:15:13.000Z</time>
      </trkpt>
      <trkpt lat="42.284273" lon="-8.793427">
        <ele>177.2</ele>
        <time>1970-01-01T01:15:14.000Z</time>
      </trkpt>
      <trkpt lat="42.284272" lon="-8.793427">
        <ele>177.2</ele>
        <time>1970-01-01T01:15:15.000Z</time>
      </trkpt>
      <trkpt lat="42.284272" lon="-8.793427">
        <ele>177.2</ele>
        <time>1970-01-01T01:15:16.000Z</time>
      </trkpt>
      <trkpt lat="42.284272" lon="-8.793427">
        <ele>177.2</ele>
        <time>1970-01-01T01:15:17.000Z</time>
      </trkpt>
      <trkpt lat="42.284272" lon="-8.793427">
        <ele>178.3</ele>
        <time>1970-01-01T01:15:18.000Z</time>
      </trkpt>
      <trkpt lat="42.28427" lon="-8.793427">
        <ele>178.3</ele>
        <time>1970-01-01T01:15:19.000Z</time>
      </trkpt>
      <trkpt lat="42.28427" lon="-8.793427">
        <ele>179.2</ele>
        <time>1970-01-01T01:15:20.000Z</time>
      </trkpt>
      <trkpt lat="42.284268" lon="-8.793425">
        <ele>179.2</ele>
        <time>1970-01-01T01:15:21.000Z</time>
      </trkpt>
      <trkpt lat="42.284268" lon="-8.793425">
        <ele>179.2</ele>
        <time>1970-01-01T01:15:22.000Z</time>
      </trkpt>
      <trkpt lat="42.284268" lon="-8.793423">
        <ele>179.2</ele>
        <time>1970-01-01T01:15:23.000Z</time>
      </trkpt>
      <trkpt lat="42.284268" lon="-8.793423">
        <ele>179.2</ele>
        <time>1970-01-01T01:15:24.000Z</time>
      </trkpt>
      <trkpt lat="42.284268" lon="-8.793418">
        <ele>179.2</ele>
        <time>1970-01-01T01:15:25.000Z</time>
      </trkpt>
      <trkpt lat="42.284268" lon="-8.793413">
        <ele>179.2</ele>
        <time>1970-01-01T01:15:26.000Z</time>
      </trkpt>
      <trkpt lat="42.284268" lon="-8.793405">
        <ele>179.2</ele>
        <time>1970-01-01T01:15:27.000Z</time>
      </trkpt>
      <trkpt lat="42.284268" lon="-8.7934">
        <ele>179.2</ele>
        <time>1970-01-01T01:15:28.000Z</time>
      </trkpt>
      <trkpt lat="42.284268" lon="-8.793395">
        <ele>179.2</ele>
        <time>1970-01-01T01:15:29.000Z</time>
      </trkpt>
      <trkpt lat="42.284267" lon="-8.793392">
        <ele>179.2</ele>
        <time>1970-01-01T01:15:30.000Z</time>
      </trkpt>
      <trkpt lat="42.284265" lon="-8.79339">
        <ele>179.2</ele>
        <time>1970-01-01T01:15:31.000Z</time>
      </trkpt>
      <trkpt lat="42.284262" lon="-8.79339">
        <ele>179.2</ele>
        <time>1970-01-01T01:15:32.000Z</time>
      </trkpt>
      <trkpt lat="42.284258" lon="-8.79339">
        <ele>179.2</ele>
        <time>1970-01-01T01:15:33.000Z</time>
      </trkpt>
      <trkpt lat="42.284253" lon="-8.79339">
        <ele>179.2</ele>
        <time>1970-01-01T01:15:34.000Z</time>
      </trkpt>
      <trkpt lat="42.28425" lon="-8.79339">
        <ele>179.2</ele>
        <time>1970-01-01T01:15:35.000Z</time>
      </trkpt>
      <trkpt lat="42.284248" lon="-8.79339">
        <ele>179.2</ele>
        <time>1970-01-01T01:15:36.000Z</time>
      </trkpt>
      <trkpt lat="42.284247" lon="-8.79339">
        <ele>179.2</ele>
        <time>1970-01-01T01:15:37.000Z</time>
      </trkpt>
      <trkpt lat="42.284243" lon="-8.79339">
        <ele>179.2</ele>
        <time>1970-01-01T01:15:38.000Z</time>
      </trkpt>
      <trkpt lat="42.28424" lon="-8.79339">
        <ele>179.2</ele>
        <time>1970-01-01T01:15:39.000Z</time>
      </trkpt>
      <trkpt lat="42.284238" lon="-8.79339">
        <ele>179.2</ele>
        <time>1970-01-01T01:15:40.000Z</time>
      </trkpt>
      <trkpt lat="42.284237" lon="-8.79339">
        <ele>179.2</ele>
        <time>1970-01-01T01:15:41.000Z</time>
      </trkpt>
      <trkpt lat="42.284237" lon="-8.79339">
        <ele>179.2</ele>
        <time>1970-01-01T01:15:42.000Z</time>
      </trkpt>
      <trkpt lat="42.284237" lon="-8.79339">
        <ele>179.2</ele>
        <time>1970-01-01T01:15:43.000Z</time>
      </trkpt>
      <trkpt lat="42.284237" lon="-8.79339">
        <ele>181.2</ele>
        <time>1970-01-01T01:15:44.000Z</time>
      </trkpt>
      <trkpt lat="42.284235" lon="-8.79339">
        <ele>181.2</ele>
        <time>1970-01-01T01:15:45.000Z</time>
      </trkpt>
      <trkpt lat="42.284235" lon="-8.793393">
        <ele>181.2</ele>
        <time>1970-01-01T01:15:46.000Z</time>
      </trkpt>
      <trkpt lat="42.284235" lon="-8.793397">
        <ele>181.2</ele>
        <time>1970-01-01T01:15:47.000Z</time>
      </trkpt>
      <trkpt lat="42.284235" lon="-8.793398">
        <ele>181.2</ele>
        <time>1970-01-01T01:15:48.000Z</time>
      </trkpt>
      <trkpt lat="42.284233" lon="-8.7934">
        <ele>181.2</ele>
        <time>1970-01-01T01:15:49.000Z</time>
      </trkpt>
      <trkpt lat="42.284233" lon="-8.793403">
        <ele>181.2</ele>
        <time>1970-01-01T01:15:50.000Z</time>
      </trkpt>
      <trkpt lat="42.28423" lon="-8.793407">
        <ele>181.2</ele>
        <time>1970-01-01T01:15:51.000Z</time>
      </trkpt>
      <trkpt lat="42.284227" lon="-8.79341">
        <ele>181.2</ele>
        <time>1970-01-01T01:15:52.000Z</time>
      </trkpt>
      <trkpt lat="42.284225" lon="-8.793412">
        <ele>181.2</ele>
        <time>1970-01-01T01:15:53.000Z</time>
      </trkpt>
      <trkpt lat="42.284223" lon="-8.793413">
        <ele>181.2</ele>
        <time>1970-01-01T01:15:54.000Z</time>
      </trkpt>
      <trkpt lat="42.284222" lon="-8.793413">
        <ele>181.2</ele>
        <time>1970-01-01T01:15:55.000Z</time>
      </trkpt>
      <trkpt lat="42.28422" lon="-8.793413">
        <ele>181.2</ele>
        <time>1970-01-01T01:15:56.000Z</time>
      </trkpt>
      <trkpt lat="42.28422" lon="-8.793415">
        <ele>181.2</ele>
        <time>1970-01-01T01:15:57.000Z</time>
      </trkpt>
      <trkpt lat="42.284218" lon="-8.793415">
        <ele>181.2</ele>
        <time>1970-01-01T01:15:58.000Z</time>
      </trkpt>
      <trkpt lat="42.284217" lon="-8.793415">
        <ele>181.2</ele>
        <time>1970-01-01T01:15:59.000Z</time>
      </trkpt>
      <trkpt lat="42.284215" lon="-8.793415">
        <ele>181.2</ele>
        <time>1970-01-01T01:16:00.000Z</time>
      </trkpt>
      <trkpt lat="42.284213" lon="-8.793415">
        <ele>181.2</ele>
        <time>1970-01-01T01:16:01.000Z</time>
      </trkpt>
      <trkpt lat="42.284213" lon="-8.793415">
        <ele>181.2</ele>
        <time>1970-01-01T01:16:02.000Z</time>
      </trkpt>
      <trkpt lat="42.284213" lon="-8.793415">
        <ele>181.2</ele>
        <time>1970-01-01T01:16:03.000Z</time>
      </trkpt>
      <trkpt lat="42.284213" lon="-8.793415">
        <ele>180.3</ele>
        <time>1970-01-01T01:16:04.000Z</time>
      </trkpt>
      <trkpt lat="42.284213" lon="-8.793415">
        <ele>180.3</ele>
        <time>1970-01-01T01:16:05.000Z</time>
      </trkpt>
      <trkpt lat="42.284212" lon="-8.793415">
        <ele>180.3</ele>
        <time>1970-01-01T01:16:06.000Z</time>
      </trkpt>
      <trkpt lat="42.284212" lon="-8.793415">
        <ele>180.3</ele>
        <time>1970-01-01T01:16:07.000Z</time>
      </trkpt>
      <trkpt lat="42.284212" lon="-8.793415">
        <ele>180.3</ele>
        <time>1970-01-01T01:16:08.000Z</time>
      </trkpt>
      <trkpt lat="42.284212" lon="-8.793415">
        <ele>180.3</ele>
        <time>1970-01-01T01:16:09.000Z</time>
      </trkpt>
      <trkpt lat="42.284212" lon="-8.793415">
        <ele>180.3</ele>
        <time>1970-01-01T01:16:10.000Z</time>
      </trkpt>
      <trkpt lat="42.284212" lon="-8.793415">
        <ele>180.3</ele>
        <time>1970-01-01T01:16:11.000Z</time>
      </trkpt>
      <trkpt lat="42.284212" lon="-8.793415">
        <ele>180.3</ele>
        <time>1970-01-01T01:16:12.000Z</time>
      </trkpt>
      <trkpt lat="42.284212" lon="-8.793415">
        <ele>180.3</ele>
        <time>1970-01-01T01:16:13.000Z</time>
      </trkpt>
      <trkpt lat="42.284212" lon="-8.793415">
        <ele>180.3</ele>
        <time>1970-01-01T01:16:14.000Z</time>
      </trkpt>
      <trkpt lat="42.284212" lon="-8.793415">
        <ele>180.3</ele>
        <time>1970-01-01T01:16:15.000Z</time>
      </trkpt>
      <trkpt lat="42.284212" lon="-8.793413">
        <ele>180.3</ele>
        <time>1970-01-01T01:16:16.000Z</time>
      </trkpt>
      <trkpt lat="42.28421" lon="-8.793412">
        <ele>180.3</ele>
        <time>1970-01-01T01:16:17.000Z</time>
      </trkpt>
      <trkpt lat="42.28421" lon="-8.79341">
        <ele>183.3</ele>
        <time>1970-01-01T01:16:18.000Z</time>
      </trkpt>
      <trkpt lat="42.284208" lon="-8.793408">
        <ele>183.3</ele>
        <time>1970-01-01T01:16:19.000Z</time>
      </trkpt>
      <trkpt lat="42.284208" lon="-8.793407">
        <ele>183.3</ele>
        <time>1970-01-01T01:16:20.000Z</time>
      </trkpt>
      <trkpt lat="42.284207" lon="-8.793405">
        <ele>183.3</ele>
        <time>1970-01-01T01:16:21.000Z</time>
      </trkpt>
      <trkpt lat="42.284203" lon="-8.793402">
        <ele>183.3</ele>
        <time>1970-01-01T01:16:22.000Z</time>
      </trkpt>
      <trkpt lat="42.284202" lon="-8.793398">
        <ele>183.3</ele>
        <time>1970-01-01T01:16:23.000Z</time>
      </trkpt>
      <trkpt lat="42.284195" lon="-8.793395">
        <ele>183.3</ele>
        <time>1970-01-01T01:16:24.000Z</time>
      </trkpt>
      <trkpt lat="42.284182" lon="-8.793395">
        <ele>183.3</ele>
        <time>1970-01-01T01:16:25.000Z</time>
      </trkpt>
      <trkpt lat="42.284168" lon="-8.79339">
        <ele>183.3</ele>
        <time>1970-01-01T01:16:26.000Z</time>
      </trkpt>
      <trkpt lat="42.284155" lon="-8.793382">
        <ele>183.3</ele>
        <time>1970-01-01T01:16:27.000Z</time>
      </trkpt>
      <trkpt lat="42.284143" lon="-8.793372">
        <ele>184.3</ele>
        <time>1970-01-01T01:16:28.000Z</time>
      </trkpt>
      <trkpt lat="42.284133" lon="-8.793363">
        <ele>184.3</ele>
        <time>1970-01-01T01:16:29.000Z</time>
      </trkpt>
      <trkpt lat="42.284125" lon="-8.793355">
        <ele>184.3</ele>
        <time>1970-01-01T01:16:30.000Z</time>
      </trkpt>
      <trkpt lat="42.284115" lon="-8.793345">
        <ele>184.3</ele>
        <time>1970-01-01T01:16:31.000Z</time>
      </trkpt>
      <trkpt lat="42.284108" lon="-8.793337">
        <ele>184.3</ele>
        <time>1970-01-01T01:16:32.000Z</time>
      </trkpt>
      <trkpt lat="42.2841" lon="-8.79333">
        <ele>184.3</ele>
        <time>1970-01-01T01:16:33.000Z</time>
      </trkpt>
      <trkpt lat="42.2841" lon="-8.793327">
        <ele>186.2</ele>
        <time>1970-01-01T01:16:34.000Z</time>
      </trkpt>
      <trkpt lat="42.284098" lon="-8.79332">
        <ele>186.2</ele>
        <time>1970-01-01T01:16:35.000Z</time>
      </trkpt>
      <trkpt lat="42.284095" lon="-8.793313">
        <ele>186.2</ele>
        <time>1970-01-01T01:16:36.000Z</time>
      </trkpt>
      <trkpt lat="42.284093" lon="-8.793303">
        <ele>186.2</ele>
        <time>1970-01-01T01:16:37.000Z</time>
      </trkpt>
      <trkpt lat="42.284093" lon="-8.7933">
        <ele>187.3</ele>
        <time>1970-01-01T01:16:38.000Z</time>
      </trkpt>
      <trkpt lat="42.284093" lon="-8.793295">
        <ele>187.3</ele>
        <time>1970-01-01T01:16:39.000Z</time>
      </trkpt>
      <trkpt lat="42.284095" lon="-8.793287">
        <ele>188.2</ele>
        <time>1970-01-01T01:16:40.000Z</time>
      </trkpt>
      <trkpt lat="42.284095" lon="-8.79328">
        <ele>188.2</ele>
        <time>1970-01-01T01:16:41.000Z</time>
      </trkpt>
      <trkpt lat="42.284095" lon="-8.793272">
        <ele>189.3</ele>
        <time>1970-01-01T01:16:42.000Z</time>
      </trkpt>
      <trkpt lat="42.284095" lon="-8.793268">
        <ele>189.3</ele>
        <time>1970-01-01T01:16:43.000Z</time>
      </trkpt>
      <trkpt lat="42.284095" lon="-8.793263">
        <ele>189.3</ele>
        <time>1970-01-01T01:16:44.000Z</time>
      </trkpt>
      <trkpt lat="42.284093" lon="-8.793253">
        <ele>189.3</ele>
        <time>1970-01-01T01:16:45.000Z</time>
      </trkpt>
      <trkpt lat="42.284092" lon="-8.793247">
        <ele>189.3</ele>
        <time>1970-01-01T01:16:46.000Z</time>
      </trkpt>
      <trkpt lat="42.284092" lon="-8.793237">
        <ele>189.3</ele>
        <time>1970-01-01T01:16:47.000Z</time>
      </trkpt>
      <trkpt lat="42.284092" lon="-8.793227">
        <ele>190.2</ele>
        <time>1970-01-01T01:16:48.000Z</time>
      </trkpt>
      <trkpt lat="42.284092" lon="-8.79322">
        <ele>190.2</ele>
        <time>1970-01-01T01:16:49.000Z</time>
      </trkpt>
      <trkpt lat="42.284092" lon="-8.793213">
        <ele>191.3</ele>
        <time>1970-01-01T01:16:50.000Z</time>
      </trkpt>
      <trkpt lat="42.284093" lon="-8.79321">
        <ele>191.3</ele>
        <time>1970-01-01T01:16:51.000Z</time>
      </trkpt>
      <trkpt lat="42.284097" lon="-8.793203">
        <ele>191.3</ele>
        <time>1970-01-01T01:16:52.000Z</time>
      </trkpt>
      <trkpt lat="42.284102" lon="-8.793197">
        <ele>191.3</ele>
        <time>1970-01-01T01:16:53.000Z</time>
      </trkpt>
      <trkpt lat="42.284103" lon="-8.793192">
        <ele>192.3</ele>
        <time>1970-01-01T01:16:54.000Z</time>
      </trkpt>
      <trkpt lat="42.284105" lon="-8.79319">
        <ele>192.3</ele>
        <time>1970-01-01T01:16:55.000Z</time>
      </trkpt>
      <trkpt lat="42.284105" lon="-8.793185">
        <ele>193.2</ele>
        <time>1970-01-01T01:16:56.000Z</time>
      </trkpt>
      <trkpt lat="42.284105" lon="-8.79318">
        <ele>193.2</ele>
        <time>1970-01-01T01:16:57.000Z</time>
      </trkpt>
      <trkpt lat="42.284103" lon="-8.793175">
        <ele>193.2</ele>
        <time>1970-01-01T01:16:58.000Z</time>
      </trkpt>
      <trkpt lat="42.2841" lon="-8.793168">
        <ele>193.2</ele>
        <time>1970-01-01T01:16:59.000Z</time>
      </trkpt>
      <trkpt lat="42.284095" lon="-8.793163">
        <ele>193.2</ele>
        <time>1970-01-01T01:17:00.000Z</time>
      </trkpt>
      <trkpt lat="42.284092" lon="-8.793157">
        <ele>193.2</ele>
        <time>1970-01-01T01:17:01.000Z</time>
      </trkpt>
      <trkpt lat="42.28409" lon="-8.793148">
        <ele>193.2</ele>
        <time>1970-01-01T01:17:02.000Z</time>
      </trkpt>
      <trkpt lat="42.284088" lon="-8.79314">
        <ele>193.2</ele>
        <time>1970-01-01T01:17:03.000Z</time>
      </trkpt>
      <trkpt lat="42.284087" lon="-8.793137">
        <ele>193.2</ele>
        <time>1970-01-01T01:17:04.000Z</time>
      </trkpt>
      <trkpt lat="42.284083" lon="-8.79313">
        <ele>193.2</ele>
        <time>1970-01-01T01:17:05.000Z</time>
      </trkpt>
      <trkpt lat="42.28408" lon="-8.793125">
        <ele>193.2</ele>
        <time>1970-01-01T01:17:06.000Z</time>
      </trkpt>
      <trkpt lat="42.284075" lon="-8.79312">
        <ele>193.2</ele>
        <time>1970-01-01T01:17:07.000Z</time>
      </trkpt>
      <trkpt lat="42.284072" lon="-8.793117">
        <ele>193.2</ele>
        <time>1970-01-01T01:17:08.000Z</time>
      </trkpt>
      <trkpt lat="42.28407" lon="-8.793115">
        <ele>193.2</ele>
        <time>1970-01-01T01:17:09.000Z</time>
      </trkpt>
      <trkpt lat="42.284068" lon="-8.793112">
        <ele>193.2</ele>
        <time>1970-01-01T01:17:10.000Z</time>
      </trkpt>
      <trkpt lat="42.284067" lon="-8.793108">
        <ele>193.2</ele>
        <time>1970-01-01T01:17:11.000Z</time>
      </trkpt>
      <trkpt lat="42.284062" lon="-8.793103">
        <ele>193.2</ele>
        <time>1970-01-01T01:17:12.000Z</time>
      </trkpt>
      <trkpt lat="42.28406" lon="-8.793097">
        <ele>193.2</ele>
        <time>1970-01-01T01:17:13.000Z</time>
      </trkpt>
      <trkpt lat="42.284057" lon="-8.793093">
        <ele>193.2</ele>
        <time>1970-01-01T01:17:14.000Z</time>
      </trkpt>
      <trkpt lat="42.284052" lon="-8.79309">
        <ele>193.2</ele>
        <time>1970-01-01T01:17:15.000Z</time>
      </trkpt>
      <trkpt lat="42.284048" lon="-8.79309">
        <ele>193.2</ele>
        <time>1970-01-01T01:17:16.000Z</time>
      </trkpt>
      <trkpt lat="42.284048" lon="-8.793088">
        <ele>193.2</ele>
        <time>1970-01-01T01:17:17.000Z</time>
      </trkpt>
      <trkpt lat="42.284047" lon="-8.793087">
        <ele>193.2</ele>
        <time>1970-01-01T01:17:18.000Z</time>
      </trkpt>
      <trkpt lat="42.284043" lon="-8.793087">
        <ele>193.2</ele>
        <time>1970-01-01T01:17:19.000Z</time>
      </trkpt>
      <trkpt lat="42.284038" lon="-8.793087">
        <ele>193.2</ele>
        <time>1970-01-01T01:17:20.000Z</time>
      </trkpt>
      <trkpt lat="42.284033" lon="-8.793085">
        <ele>193.2</ele>
        <time>1970-01-01T01:17:21.000Z</time>
      </trkpt>
      <trkpt lat="42.28403" lon="-8.793085">
        <ele>193.2</ele>
        <time>1970-01-01T01:17:22.000Z</time>
      </trkpt>
      <trkpt lat="42.284027" lon="-8.793087">
        <ele>193.2</ele>
        <time>1970-01-01T01:17:23.000Z</time>
      </trkpt>
      <trkpt lat="42.284027" lon="-8.793087">
        <ele>193.2</ele>
        <time>1970-01-01T01:17:24.000Z</time>
      </trkpt>
      <trkpt lat="42.284027" lon="-8.793088">
        <ele>193.2</ele>
        <time>1970-01-01T01:17:25.000Z</time>
      </trkpt>
      <trkpt lat="42.284027" lon="-8.793088">
        <ele>191.3</ele>
        <time>1970-01-01T01:17:26.000Z</time>
      </trkpt>
      <trkpt lat="42.284028" lon="-8.79309">
        <ele>191.3</ele>
        <time>1970-01-01T01:17:27.000Z</time>
      </trkpt>
      <trkpt lat="42.284027" lon="-8.793088">
        <ele>191.3</ele>
        <time>1970-01-01T01:17:28.000Z</time>
      </trkpt>
      <trkpt lat="42.284027" lon="-8.793088">
        <ele>191.3</ele>
        <time>1970-01-01T01:17:29.000Z</time>
      </trkpt>
      <trkpt lat="42.284027" lon="-8.793088">
        <ele>191.3</ele>
        <time>1970-01-01T01:17:30.000Z</time>
      </trkpt>
      <trkpt lat="42.284027" lon="-8.793088">
        <ele>191.3</ele>
        <time>1970-01-01T01:17:31.000Z</time>
      </trkpt>
      <trkpt lat="42.284027" lon="-8.793088">
        <ele>191.3</ele>
        <time>1970-01-01T01:17:32.000Z</time>
      </trkpt>
      <trkpt lat="42.284027" lon="-8.793088">
        <ele>191.3</ele>
        <time>1970-01-01T01:17:33.000Z</time>
      </trkpt>
      <trkpt lat="42.284027" lon="-8.793088">
        <ele>191.3</ele>
        <time>1970-01-01T01:17:34.000Z</time>
      </trkpt>
      <trkpt lat="42.284027" lon="-8.793088">
        <ele>191.3</ele>
        <time>1970-01-01T01:17:35.000Z</time>
      </trkpt>
      <trkpt lat="42.284027" lon="-8.793088">
        <ele>191.3</ele>
        <time>1970-01-01T01:17:36.000Z</time>
      </trkpt>
      <trkpt lat="42.284027" lon="-8.793088">
        <ele>191.3</ele>
        <time>1970-01-01T01:17:37.000Z</time>
      </trkpt>
      <trkpt lat="42.284027" lon="-8.793088">
        <ele>191.3</ele>
        <time>1970-01-01T01:17:38.000Z</time>
      </trkpt>
      <trkpt lat="42.284027" lon="-8.793087">
        <ele>191.3</ele>
        <time>1970-01-01T01:17:39.000Z</time>
      </trkpt>
      <trkpt lat="42.284027" lon="-8.793087">
        <ele>190.2</ele>
        <time>1970-01-01T01:17:40.000Z</time>
      </trkpt>
      <trkpt lat="42.284027" lon="-8.793087">
        <ele>190.2</ele>
        <time>1970-01-01T01:17:41.000Z</time>
      </trkpt>
      <trkpt lat="42.284027" lon="-8.793085">
        <ele>190.2</ele>
        <time>1970-01-01T01:17:42.000Z</time>
      </trkpt>
      <trkpt lat="42.284027" lon="-8.793085">
        <ele>190.2</ele>
        <time>1970-01-01T01:17:43.000Z</time>
      </trkpt>
      <trkpt lat="42.284025" lon="-8.793083">
        <ele>190.2</ele>
        <time>1970-01-01T01:17:44.000Z</time>
      </trkpt>
      <trkpt lat="42.284018" lon="-8.793082">
        <ele>190.2</ele>
        <time>1970-01-01T01:17:45.000Z</time>
      </trkpt>
      <trkpt lat="42.284013" lon="-8.793078">
        <ele>190.2</ele>
        <time>1970-01-01T01:17:46.000Z</time>
      </trkpt>
      <trkpt lat="42.284008" lon="-8.793075">
        <ele>190.2</ele>
        <time>1970-01-01T01:17:47.000Z</time>
      </trkpt>
      <trkpt lat="42.284003" lon="-8.793072">
        <ele>190.2</ele>
        <time>1970-01-01T01:17:48.000Z</time>
      </trkpt>
      <trkpt lat="42.283998" lon="-8.79307">
        <ele>190.2</ele>
        <time>1970-01-01T01:17:49.000Z</time>
      </trkpt>
      <trkpt lat="42.283995" lon="-8.793068">
        <ele>190.2</ele>
        <time>1970-01-01T01:17:50.000Z</time>
      </trkpt>
      <trkpt lat="42.283992" lon="-8.793067">
        <ele>190.2</ele>
        <time>1970-01-01T01:17:51.000Z</time>
      </trkpt>
      <trkpt lat="42.283992" lon="-8.793067">
        <ele>190.2</ele>
        <time>1970-01-01T01:17:52.000Z</time>
      </trkpt>
      <trkpt lat="42.28399" lon="-8.793065">
        <ele>190.2</ele>
        <time>1970-01-01T01:17:53.000Z</time>
      </trkpt>
      <trkpt lat="42.28399" lon="-8.793065">
        <ele>190.2</ele>
        <time>1970-01-01T01:17:54.000Z</time>
      </trkpt>
      <trkpt lat="42.28399" lon="-8.793065">
        <ele>190.2</ele>
        <time>1970-01-01T01:17:55.000Z</time>
      </trkpt>
      <trkpt lat="42.28399" lon="-8.793065">
        <ele>190.2</ele>
        <time>1970-01-01T01:17:56.000Z</time>
      </trkpt>
      <trkpt lat="42.28399" lon="-8.793065">
        <ele>190.2</ele>
        <time>1970-01-01T01:17:57.000Z</time>
      </trkpt>
      <trkpt lat="42.28399" lon="-8.793065">
        <ele>190.2</ele>
        <time>1970-01-01T01:17:58.000Z</time>
      </trkpt>
      <trkpt lat="42.28399" lon="-8.793065">
        <ele>190.2</ele>
        <time>1970-01-01T01:17:59.000Z</time>
      </trkpt>
      <trkpt lat="42.28399" lon="-8.793065">
        <ele>190.2</ele>
        <time>1970-01-01T01:18:00.000Z</time>
      </trkpt>
      <trkpt lat="42.28399" lon="-8.793065">
        <ele>190.2</ele>
        <time>1970-01-01T01:18:01.000Z</time>
      </trkpt>
      <trkpt lat="42.28399" lon="-8.793065">
        <ele>189.3</ele>
        <time>1970-01-01T01:18:02.000Z</time>
      </trkpt>
      <trkpt lat="42.283988" lon="-8.793063">
        <ele>189.3</ele>
        <time>1970-01-01T01:18:03.000Z</time>
      </trkpt>
      <trkpt lat="42.283987" lon="-8.793063">
        <ele>189.3</ele>
        <time>1970-01-01T01:18:04.000Z</time>
      </trkpt>
      <trkpt lat="42.283987" lon="-8.793063">
        <ele>189.3</ele>
        <time>1970-01-01T01:18:05.000Z</time>
      </trkpt>
      <trkpt lat="42.283985" lon="-8.793063">
        <ele>189.3</ele>
        <time>1970-01-01T01:18:06.000Z</time>
      </trkpt>
      <trkpt lat="42.283983" lon="-8.793063">
        <ele>189.3</ele>
        <time>1970-01-01T01:18:07.000Z</time>
      </trkpt>
      <trkpt lat="42.283983" lon="-8.793063">
        <ele>189.3</ele>
        <time>1970-01-01T01:18:08.000Z</time>
      </trkpt>
      <trkpt lat="42.283982" lon="-8.793063">
        <ele>189.3</ele>
        <time>1970-01-01T01:18:09.000Z</time>
      </trkpt>
      <trkpt lat="42.283982" lon="-8.793063">
        <ele>189.3</ele>
        <time>1970-01-01T01:18:10.000Z</time>
      </trkpt>
      <trkpt lat="42.28398" lon="-8.793063">
        <ele>189.3</ele>
        <time>1970-01-01T01:18:11.000Z</time>
      </trkpt>
      <trkpt lat="42.28398" lon="-8.793063">
        <ele>189.3</ele>
        <time>1970-01-01T01:18:12.000Z</time>
      </trkpt>
      <trkpt lat="42.28398" lon="-8.793063">
        <ele>189.3</ele>
        <time>1970-01-01T01:18:13.000Z</time>
      </trkpt>
      <trkpt lat="42.28398" lon="-8.793063">
        <ele>188.2</ele>
        <time>1970-01-01T01:18:14.000Z</time>
      </trkpt>
      <trkpt lat="42.28398" lon="-8.793063">
        <ele>188.2</ele>
        <time>1970-01-01T01:18:15.000Z</time>
      </trkpt>
      <trkpt lat="42.28398" lon="-8.793063">
        <ele>188.2</ele>
        <time>1970-01-01T01:18:16.000Z</time>
      </trkpt>
      <trkpt lat="42.28398" lon="-8.793063">
        <ele>188.2</ele>
        <time>1970-01-01T01:18:17.000Z</time>
      </trkpt>
      <trkpt lat="42.28398" lon="-8.793063">
        <ele>188.2</ele>
        <time>1970-01-01T01:18:18.000Z</time>
      </trkpt>
      <trkpt lat="42.28398" lon="-8.793063">
        <ele>188.2</ele>
        <time>1970-01-01T01:18:19.000Z</time>
      </trkpt>
      <trkpt lat="42.28398" lon="-8.793063">
        <ele>188.2</ele>
        <time>1970-01-01T01:18:20.000Z</time>
      </trkpt>
      <trkpt lat="42.28398" lon="-8.793063">
        <ele>188.2</ele>
        <time>1970-01-01T01:18:21.000Z</time>
      </trkpt>
      <trkpt lat="42.28398" lon="-8.793063">
        <ele>187.3</ele>
        <time>1970-01-01T01:18:22.000Z</time>
      </trkpt>
      <trkpt lat="42.283978" lon="-8.793063">
        <ele>187.3</ele>
        <time>1970-01-01T01:18:23.000Z</time>
      </trkpt>
      <trkpt lat="42.283978" lon="-8.793063">
        <ele>187.3</ele>
        <time>1970-01-01T01:18:24.000Z</time>
      </trkpt>
      <trkpt lat="42.283978" lon="-8.793063">
        <ele>187.3</ele>
        <time>1970-01-01T01:18:25.000Z</time>
      </trkpt>
      <trkpt lat="42.283978" lon="-8.793063">
        <ele>187.3</ele>
        <time>1970-01-01T01:18:26.000Z</time>
      </trkpt>
      <trkpt lat="42.283978" lon="-8.793063">
        <ele>187.3</ele>
        <time>1970-01-01T01:18:27.000Z</time>
      </trkpt>
      <trkpt lat="42.283978" lon="-8.793063">
        <ele>186.2</ele>
        <time>1970-01-01T01:18:28.000Z</time>
      </trkpt>
      <trkpt lat="42.283978" lon="-8.793063">
        <ele>186.2</ele>
        <time>1970-01-01T01:18:29.000Z</time>
      </trkpt>
      <trkpt lat="42.283978" lon="-8.793063">
        <ele>186.2</ele>
        <time>1970-01-01T01:18:30.000Z</time>
      </trkpt>
      <trkpt lat="42.283978" lon="-8.793063">
        <ele>186.2</ele>
        <time>1970-01-01T01:18:31.000Z</time>
      </trkpt>
      <trkpt lat="42.283978" lon="-8.793065">
        <ele>186.2</ele>
        <time>1970-01-01T01:18:32.000Z</time>
      </trkpt>
      <trkpt lat="42.283978" lon="-8.793065">
        <ele>186.2</ele>
        <time>1970-01-01T01:18:33.000Z</time>
      </trkpt>
      <trkpt lat="42.283978" lon="-8.793065">
        <ele>186.2</ele>
        <time>1970-01-01T01:18:34.000Z</time>
      </trkpt>
      <trkpt lat="42.283978" lon="-8.793065">
        <ele>186.2</ele>
        <time>1970-01-01T01:18:35.000Z</time>
      </trkpt>
      <trkpt lat="42.283978" lon="-8.793067">
        <ele>186.2</ele>
        <time>1970-01-01T01:18:36.000Z</time>
      </trkpt>
      <trkpt lat="42.283978" lon="-8.793068">
        <ele>186.2</ele>
        <time>1970-01-01T01:18:37.000Z</time>
      </trkpt>
      <trkpt lat="42.283978" lon="-8.79307">
        <ele>186.2</ele>
        <time>1970-01-01T01:18:38.000Z</time>
      </trkpt>
      <trkpt lat="42.283977" lon="-8.79307">
        <ele>186.2</ele>
        <time>1970-01-01T01:18:39.000Z</time>
      </trkpt>
      <trkpt lat="42.283977" lon="-8.793073">
        <ele>186.2</ele>
        <time>1970-01-01T01:18:40.000Z</time>
      </trkpt>
      <trkpt lat="42.283977" lon="-8.793075">
        <ele>186.2</ele>
        <time>1970-01-01T01:18:41.000Z</time>
      </trkpt>
      <trkpt lat="42.283977" lon="-8.793075">
        <ele>186.2</ele>
        <time>1970-01-01T01:18:42.000Z</time>
      </trkpt>
      <trkpt lat="42.283977" lon="-8.793075">
        <ele>186.2</ele>
        <time>1970-01-01T01:18:43.000Z</time>
      </trkpt>
      <trkpt lat="42.283977" lon="-8.793075">
        <ele>186.2</ele>
        <time>1970-01-01T01:18:44.000Z</time>
      </trkpt>
      <trkpt lat="42.283977" lon="-8.793075">
        <ele>186.2</ele>
        <time>1970-01-01T01:18:45.000Z</time>
      </trkpt>
      <trkpt lat="42.283977" lon="-8.793075">
        <ele>186.2</ele>
        <time>1970-01-01T01:18:46.000Z</time>
      </trkpt>
      <trkpt lat="42.283978" lon="-8.793075">
        <ele>186.2</ele>
        <time>1970-01-01T01:18:47.000Z</time>
      </trkpt>
      <trkpt lat="42.283978" lon="-8.793075">
        <ele>186.2</ele>
        <time>1970-01-01T01:18:48.000Z</time>
      </trkpt>
      <trkpt lat="42.283978" lon="-8.793075">
        <ele>186.2</ele>
        <time>1970-01-01T01:18:49.000Z</time>
      </trkpt>
      <trkpt lat="42.283978" lon="-8.793075">
        <ele>186.2</ele>
        <time>1970-01-01T01:18:50.000Z</time>
      </trkpt>
      <trkpt lat="42.283978" lon="-8.793075">
        <ele>186.2</ele>
        <time>1970-01-01T01:18:51.000Z</time>
      </trkpt>
      <trkpt lat="42.283978" lon="-8.793075">
        <ele>186.2</ele>
        <time>1970-01-01T01:18:52.000Z</time>
      </trkpt>
      <trkpt lat="42.283978" lon="-8.793075">
        <ele>186.2</ele>
        <time>1970-01-01T01:18:53.000Z</time>
      </trkpt>
      <trkpt lat="42.283978" lon="-8.793075">
        <ele>186.2</ele>
        <time>1970-01-01T01:18:54.000Z</time>
      </trkpt>
      <trkpt lat="42.283978" lon="-8.793075">
        <ele>186.2</ele>
        <time>1970-01-01T01:18:55.000Z</time>
      </trkpt>
      <trkpt lat="42.283978" lon="-8.793075">
        <ele>186.2</ele>
        <time>1970-01-01T01:18:56.000Z</time>
      </trkpt>
      <trkpt lat="42.283978" lon="-8.793075">
        <ele>186.2</ele>
        <time>1970-01-01T01:18:57.000Z</time>
      </trkpt>
      <trkpt lat="42.283978" lon="-8.793075">
        <ele>186.2</ele>
        <time>1970-01-01T01:18:58.000Z</time>
      </trkpt>
      <trkpt lat="42.283978" lon="-8.793075">
        <ele>186.2</ele>
        <time>1970-01-01T01:18:59.000Z</time>
      </trkpt>
      <trkpt lat="42.283978" lon="-8.793075">
        <ele>186.2</ele>
        <time>1970-01-01T01:19:00.000Z</time>
      </trkpt>
      <trkpt lat="42.283978" lon="-8.793075">
        <ele>186.2</ele>
        <time>1970-01-01T01:19:01.000Z</time>
      </trkpt>
      <trkpt lat="42.28398" lon="-8.793075">
        <ele>186.2</ele>
        <time>1970-01-01T01:19:02.000Z</time>
      </trkpt>
      <trkpt lat="42.283982" lon="-8.793075">
        <ele>186.2</ele>
        <time>1970-01-01T01:19:03.000Z</time>
      </trkpt>
      <trkpt lat="42.283982" lon="-8.793075">
        <ele>186.2</ele>
        <time>1970-01-01T01:19:04.000Z</time>
      </trkpt>
      <trkpt lat="42.283983" lon="-8.793075">
        <ele>186.2</ele>
        <time>1970-01-01T01:19:05.000Z</time>
      </trkpt>
      <trkpt lat="42.283983" lon="-8.793075">
        <ele>186.2</ele>
        <time>1970-01-01T01:19:06.000Z</time>
      </trkpt>
      <trkpt lat="42.283983" lon="-8.793075">
        <ele>186.2</ele>
        <time>1970-01-01T01:19:07.000Z</time>
      </trkpt>
      <trkpt lat="42.283983" lon="-8.793075">
        <ele>186.2</ele>
        <time>1970-01-01T01:19:08.000Z</time>
      </trkpt>
      <trkpt lat="42.283985" lon="-8.793073">
        <ele>186.2</ele>
        <time>1970-01-01T01:19:09.000Z</time>
      </trkpt>
      <trkpt lat="42.283985" lon="-8.793073">
        <ele>183.3</ele>
        <time>1970-01-01T01:19:10.000Z</time>
      </trkpt>
      <trkpt lat="42.283987" lon="-8.793073">
        <ele>183.3</ele>
        <time>1970-01-01T01:19:11.000Z</time>
      </trkpt>
      <trkpt lat="42.283987" lon="-8.793073">
        <ele>183.3</ele>
        <time>1970-01-01T01:19:12.000Z</time>
      </trkpt>
      <trkpt lat="42.283988" lon="-8.793073">
        <ele>183.3</ele>
        <time>1970-01-01T01:19:13.000Z</time>
      </trkpt>
      <trkpt lat="42.283988" lon="-8.793073">
        <ele>182.3</ele>
        <time>1970-01-01T01:19:14.000Z</time>
      </trkpt>
      <trkpt lat="42.28399" lon="-8.793073">
        <ele>182.3</ele>
        <time>1970-01-01T01:19:15.000Z</time>
      </trkpt>
      <trkpt lat="42.283992" lon="-8.793073">
        <ele>182.3</ele>
        <time>1970-01-01T01:19:16.000Z</time>
      </trkpt>
      <trkpt lat="42.283992" lon="-8.793073">
        <ele>182.3</ele>
        <time>1970-01-01T01:19:17.000Z</time>
      </trkpt>
      <trkpt lat="42.283992" lon="-8.793073">
        <ele>181.2</ele>
        <time>1970-01-01T01:19:18.000Z</time>
      </trkpt>
      <trkpt lat="42.283992" lon="-8.793073">
        <ele>181.2</ele>
        <time>1970-01-01T01:19:19.000Z</time>
      </trkpt>
      <trkpt lat="42.283992" lon="-8.793073">
        <ele>180.3</ele>
        <time>1970-01-01T01:19:20.000Z</time>
      </trkpt>
      <trkpt lat="42.283992" lon="-8.793073">
        <ele>180.3</ele>
        <time>1970-01-01T01:19:21.000Z</time>
      </trkpt>
      <trkpt lat="42.283992" lon="-8.793073">
        <ele>180.3</ele>
        <time>1970-01-01T01:19:22.000Z</time>
      </trkpt>
      <trkpt lat="42.283992" lon="-8.793073">
        <ele>180.3</ele>
        <time>1970-01-01T01:19:23.000Z</time>
      </trkpt>
      <trkpt lat="42.283992" lon="-8.793073">
        <ele>180.3</ele>
        <time>1970-01-01T01:19:24.000Z</time>
      </trkpt>
      <trkpt lat="42.283992" lon="-8.793073">
        <ele>180.3</ele>
        <time>1970-01-01T01:19:25.000Z</time>
      </trkpt>
      <trkpt lat="42.283992" lon="-8.793073">
        <ele>180.3</ele>
        <time>1970-01-01T01:19:26.000Z</time>
      </trkpt>
      <trkpt lat="42.283992" lon="-8.793073">
        <ele>180.3</ele>
        <time>1970-01-01T01:19:27.000Z</time>
      </trkpt>
      <trkpt lat="42.283992" lon="-8.793073">
        <ele>181.2</ele>
        <time>1970-01-01T01:19:28.000Z</time>
      </trkpt>
      <trkpt lat="42.283992" lon="-8.793073">
        <ele>181.2</ele>
        <time>1970-01-01T01:19:29.000Z</time>
      </trkpt>
      <trkpt lat="42.283992" lon="-8.793073">
        <ele>181.2</ele>
        <time>1970-01-01T01:19:30.000Z</time>
      </trkpt>
      <trkpt lat="42.283992" lon="-8.793072">
        <ele>181.2</ele>
        <time>1970-01-01T01:19:31.000Z</time>
      </trkpt>
      <trkpt lat="42.283992" lon="-8.793072">
        <ele>181.2</ele>
        <time>1970-01-01T01:19:32.000Z</time>
      </trkpt>
      <trkpt lat="42.28399" lon="-8.793072">
        <ele>181.2</ele>
        <time>1970-01-01T01:19:33.000Z</time>
      </trkpt>
      <trkpt lat="42.283988" lon="-8.793072">
        <ele>181.2</ele>
        <time>1970-01-01T01:19:34.000Z</time>
      </trkpt>
      <trkpt lat="42.283988" lon="-8.79307">
        <ele>181.2</ele>
        <time>1970-01-01T01:19:35.000Z</time>
      </trkpt>
      <trkpt lat="42.283987" lon="-8.79307">
        <ele>182.3</ele>
        <time>1970-01-01T01:19:36.000Z</time>
      </trkpt>
      <trkpt lat="42.283987" lon="-8.793068">
        <ele>182.3</ele>
        <time>1970-01-01T01:19:37.000Z</time>
      </trkpt>
      <trkpt lat="42.283987" lon="-8.793068">
        <ele>182.3</ele>
        <time>1970-01-01T01:19:38.000Z</time>
      </trkpt>
      <trkpt lat="42.283987" lon="-8.793067">
        <ele>182.3</ele>
        <time>1970-01-01T01:19:39.000Z</time>
      </trkpt>
      <trkpt lat="42.283987" lon="-8.793067">
        <ele>183.3</ele>
        <time>1970-01-01T01:19:40.000Z</time>
      </trkpt>
      <trkpt lat="42.283987" lon="-8.793067">
        <ele>183.3</ele>
        <time>1970-01-01T01:19:41.000Z</time>
      </trkpt>
      <trkpt lat="42.283987" lon="-8.793065">
        <ele>183.3</ele>
        <time>1970-01-01T01:19:42.000Z</time>
      </trkpt>
      <trkpt lat="42.283987" lon="-8.793065">
        <ele>183.3</ele>
        <time>1970-01-01T01:19:43.000Z</time>
      </trkpt>
      <trkpt lat="42.283987" lon="-8.793063">
        <ele>184.3</ele>
        <time>1970-01-01T01:19:44.000Z</time>
      </trkpt>
      <trkpt lat="42.283987" lon="-8.79306">
        <ele>184.3</ele>
        <time>1970-01-01T01:19:45.000Z</time>
      </trkpt>
      <trkpt lat="42.283987" lon="-8.793057">
        <ele>184.3</ele>
        <time>1970-01-01T01:19:46.000Z</time>
      </trkpt>
      <trkpt lat="42.283987" lon="-8.793053">
        <ele>184.3</ele>
        <time>1970-01-01T01:19:47.000Z</time>
      </trkpt>
      <trkpt lat="42.283987" lon="-8.79305">
        <ele>185.3</ele>
        <time>1970-01-01T01:19:48.000Z</time>
      </trkpt>
      <trkpt lat="42.283987" lon="-8.793047">
        <ele>185.3</ele>
        <time>1970-01-01T01:19:49.000Z</time>
      </trkpt>
      <trkpt lat="42.283987" lon="-8.793042">
        <ele>186.2</ele>
        <time>1970-01-01T01:19:50.000Z</time>
      </trkpt>
      <trkpt lat="42.283987" lon="-8.793037">
        <ele>186.2</ele>
        <time>1970-01-01T01:19:51.000Z</time>
      </trkpt>
      <trkpt lat="42.283987" lon="-8.793033">
        <ele>186.2</ele>
        <time>1970-01-01T01:19:52.000Z</time>
      </trkpt>
      <trkpt lat="42.283987" lon="-8.79303">
        <ele>186.2</ele>
        <time>1970-01-01T01:19:53.000Z</time>
      </trkpt>
      <trkpt lat="42.283987" lon="-8.793027">
        <ele>187.3</ele>
        <time>1970-01-01T01:19:54.000Z</time>
      </trkpt>
      <trkpt lat="42.283988" lon="-8.793025">
        <ele>187.3</ele>
        <time>1970-01-01T01:19:55.000Z</time>
      </trkpt>
      <trkpt lat="42.283992" lon="-8.793018">
        <ele>187.3</ele>
        <time>1970-01-01T01:19:56.000Z</time>
      </trkpt>
      <trkpt lat="42.283998" lon="-8.79301">
        <ele>187.3</ele>
        <time>1970-01-01T01:19:57.000Z</time>
      </trkpt>
      <trkpt lat="42.284003" lon="-8.793">
        <ele>188.2</ele>
        <time>1970-01-01T01:19:58.000Z</time>
      </trkpt>
      <trkpt lat="42.284008" lon="-8.79299">
        <ele>188.2</ele>
        <time>1970-01-01T01:19:59.000Z</time>
      </trkpt>
      <trkpt lat="42.284013" lon="-8.792982">
        <ele>188.2</ele>
        <time>1970-01-01T01:20:00.000Z</time>
      </trkpt>
      <trkpt lat="42.284022" lon="-8.792968">
        <ele>188.2</ele>
        <time>1970-01-01T01:20:01.000Z</time>
      </trkpt>
      <trkpt lat="42.284028" lon="-8.792955">
        <ele>188.2</ele>
        <time>1970-01-01T01:20:02.000Z</time>
      </trkpt>
      <trkpt lat="42.284033" lon="-8.792945">
        <ele>188.2</ele>
        <time>1970-01-01T01:20:03.000Z</time>
      </trkpt>
      <trkpt lat="42.284038" lon="-8.792935">
        <ele>188.2</ele>
        <time>1970-01-01T01:20:04.000Z</time>
      </trkpt>
      <trkpt lat="42.28404" lon="-8.792922">
        <ele>188.2</ele>
        <time>1970-01-01T01:20:05.000Z</time>
      </trkpt>
      <trkpt lat="42.284038" lon="-8.792913">
        <ele>192.3</ele>
        <time>1970-01-01T01:20:06.000Z</time>
      </trkpt>
      <trkpt lat="42.28404" lon="-8.792903">
        <ele>192.3</ele>
        <time>1970-01-01T01:20:07.000Z</time>
      </trkpt>
      <trkpt lat="42.28404" lon="-8.792897">
        <ele>193.2</ele>
        <time>1970-01-01T01:20:08.000Z</time>
      </trkpt>
      <trkpt lat="42.284038" lon="-8.792888">
        <ele>193.2</ele>
        <time>1970-01-01T01:20:09.000Z</time>
      </trkpt>
      <trkpt lat="42.284037" lon="-8.792883">
        <ele>193.2</ele>
        <time>1970-01-01T01:20:10.000Z</time>
      </trkpt>
      <trkpt lat="42.284035" lon="-8.792875">
        <ele>193.2</ele>
        <time>1970-01-01T01:20:11.000Z</time>
      </trkpt>
      <trkpt lat="42.284035" lon="-8.792867">
        <ele>193.2</ele>
        <time>1970-01-01T01:20:12.000Z</time>
      </trkpt>
      <trkpt lat="42.284033" lon="-8.79286">
        <ele>193.2</ele>
        <time>1970-01-01T01:20:13.000Z</time>
      </trkpt>
      <trkpt lat="42.284033" lon="-8.792857">
        <ele>194.3</ele>
        <time>1970-01-01T01:20:14.000Z</time>
      </trkpt>
      <trkpt lat="42.284035" lon="-8.792852">
        <ele>194.3</ele>
        <time>1970-01-01T01:20:15.000Z</time>
      </trkpt>
      <trkpt lat="42.284035" lon="-8.792845">
        <ele>194.3</ele>
        <time>1970-01-01T01:20:16.000Z</time>
      </trkpt>
      <trkpt lat="42.284032" lon="-8.792837">
        <ele>194.3</ele>
        <time>1970-01-01T01:20:17.000Z</time>
      </trkpt>
      <trkpt lat="42.284027" lon="-8.792832">
        <ele>194.3</ele>
        <time>1970-01-01T01:20:18.000Z</time>
      </trkpt>
      <trkpt lat="42.284025" lon="-8.792828">
        <ele>194.3</ele>
        <time>1970-01-01T01:20:19.000Z</time>
      </trkpt>
      <trkpt lat="42.284023" lon="-8.792825">
        <ele>195.2</ele>
        <time>1970-01-01T01:20:20.000Z</time>
      </trkpt>
      <trkpt lat="42.284025" lon="-8.792825">
        <ele>195.2</ele>
        <time>1970-01-01T01:20:21.000Z</time>
      </trkpt>
      <trkpt lat="42.284025" lon="-8.792825">
        <ele>195.2</ele>
        <time>1970-01-01T01:20:22.000Z</time>
      </trkpt>
      <trkpt lat="42.284023" lon="-8.792825">
        <ele>195.2</ele>
        <time>1970-01-01T01:20:23.000Z</time>
      </trkpt>
      <trkpt lat="42.28402" lon="-8.792825">
        <ele>196.3</ele>
        <time>1970-01-01T01:20:24.000Z</time>
      </trkpt>
      <trkpt lat="42.284017" lon="-8.792823">
        <ele>196.3</ele>
        <time>1970-01-01T01:20:25.000Z</time>
      </trkpt>
      <trkpt lat="42.284013" lon="-8.792822">
        <ele>196.3</ele>
        <time>1970-01-01T01:20:26.000Z</time>
      </trkpt>
      <trkpt lat="42.28401" lon="-8.79282">
        <ele>196.3</ele>
        <time>1970-01-01T01:20:27.000Z</time>
      </trkpt>
      <trkpt lat="42.284012" lon="-8.792818">
        <ele>196.3</ele>
        <time>1970-01-01T01:20:28.000Z</time>
      </trkpt>
      <trkpt lat="42.28401" lon="-8.792817">
        <ele>196.3</ele>
        <time>1970-01-01T01:20:29.000Z</time>
      </trkpt>
      <trkpt lat="42.284013" lon="-8.792812">
        <ele>197.2</ele>
        <time>1970-01-01T01:20:30.000Z</time>
      </trkpt>
      <trkpt lat="42.284012" lon="-8.792805">
        <ele>197.2</ele>
        <time>1970-01-01T01:20:31.000Z</time>
      </trkpt>
      <trkpt lat="42.284012" lon="-8.792797">
        <ele>197.2</ele>
        <time>1970-01-01T01:20:32.000Z</time>
      </trkpt>
      <trkpt lat="42.284013" lon="-8.792785">
        <ele>197.2</ele>
        <time>1970-01-01T01:20:33.000Z</time>
      </trkpt>
      <trkpt lat="42.284008" lon="-8.792772">
        <ele>197.2</ele>
        <time>1970-01-01T01:20:34.000Z</time>
      </trkpt>
      <trkpt lat="42.284002" lon="-8.792762">
        <ele>197.2</ele>
        <time>1970-01-01T01:20:35.000Z</time>
      </trkpt>
      <trkpt lat="42.283995" lon="-8.792753">
        <ele>198.3</ele>
        <time>1970-01-01T01:20:36.000Z</time>
      </trkpt>
      <trkpt lat="42.283988" lon="-8.792745">
        <ele>198.3</ele>
        <time>1970-01-01T01:20:37.000Z</time>
      </trkpt>
      <trkpt lat="42.283983" lon="-8.792737">
        <ele>199.3</ele>
        <time>1970-01-01T01:20:38.000Z</time>
      </trkpt>
      <trkpt lat="42.283982" lon="-8.79273">
        <ele>199.3</ele>
        <time>1970-01-01T01:20:39.000Z</time>
      </trkpt>
      <trkpt lat="42.283973" lon="-8.792723">
        <ele>199.3</ele>
        <time>1970-01-01T01:20:40.000Z</time>
      </trkpt>
      <trkpt lat="42.28397" lon="-8.792718">
        <ele>199.3</ele>
        <time>1970-01-01T01:20:41.000Z</time>
      </trkpt>
      <trkpt lat="42.283965" lon="-8.792713">
        <ele>199.3</ele>
        <time>1970-01-01T01:20:42.000Z</time>
      </trkpt>
      <trkpt lat="42.283962" lon="-8.792708">
        <ele>199.3</ele>
        <time>1970-01-01T01:20:43.000Z</time>
      </trkpt>
      <trkpt lat="42.283962" lon="-8.792702">
        <ele>199.3</ele>
        <time>1970-01-01T01:20:44.000Z</time>
      </trkpt>
      <trkpt lat="42.283962" lon="-8.792695">
        <ele>199.3</ele>
        <time>1970-01-01T01:20:45.000Z</time>
      </trkpt>
      <trkpt lat="42.283963" lon="-8.792687">
        <ele>199.3</ele>
        <time>1970-01-01T01:20:46.000Z</time>
      </trkpt>
      <trkpt lat="42.283965" lon="-8.792678">
        <ele>199.3</ele>
        <time>1970-01-01T01:20:47.000Z</time>
      </trkpt>
      <trkpt lat="42.283963" lon="-8.79267">
        <ele>199.3</ele>
        <time>1970-01-01T01:20:48.000Z</time>
      </trkpt>
      <trkpt lat="42.283963" lon="-8.792658">
        <ele>199.3</ele>
        <time>1970-01-01T01:20:49.000Z</time>
      </trkpt>
      <trkpt lat="42.28396" lon="-8.792653">
        <ele>199.3</ele>
        <time>1970-01-01T01:20:50.000Z</time>
      </trkpt>
      <trkpt lat="42.283958" lon="-8.792648">
        <ele>199.3</ele>
        <time>1970-01-01T01:20:51.000Z</time>
      </trkpt>
      <trkpt lat="42.283957" lon="-8.792647">
        <ele>200.3</ele>
        <time>1970-01-01T01:20:52.000Z</time>
      </trkpt>
      <trkpt lat="42.283955" lon="-8.792643">
        <ele>200.3</ele>
        <time>1970-01-01T01:20:53.000Z</time>
      </trkpt>
      <trkpt lat="42.283953" lon="-8.792642">
        <ele>200.3</ele>
        <time>1970-01-01T01:20:54.000Z</time>
      </trkpt>
      <trkpt lat="42.283953" lon="-8.792643">
        <ele>200.3</ele>
        <time>1970-01-01T01:20:55.000Z</time>
      </trkpt>
      <trkpt lat="42.283953" lon="-8.792645">
        <ele>200.3</ele>
        <time>1970-01-01T01:20:56.000Z</time>
      </trkpt>
      <trkpt lat="42.283953" lon="-8.792647">
        <ele>200.3</ele>
        <time>1970-01-01T01:20:57.000Z</time>
      </trkpt>
      <trkpt lat="42.283952" lon="-8.792647">
        <ele>200.3</ele>
        <time>1970-01-01T01:20:58.000Z</time>
      </trkpt>
      <trkpt lat="42.28395" lon="-8.792648">
        <ele>200.3</ele>
        <time>1970-01-01T01:20:59.000Z</time>
      </trkpt>
      <trkpt lat="42.28395" lon="-8.79265">
        <ele>200.3</ele>
        <time>1970-01-01T01:21:00.000Z</time>
      </trkpt>
      <trkpt lat="42.28395" lon="-8.79265">
        <ele>200.3</ele>
        <time>1970-01-01T01:21:01.000Z</time>
      </trkpt>
      <trkpt lat="42.28395" lon="-8.792652">
        <ele>200.3</ele>
        <time>1970-01-01T01:21:02.000Z</time>
      </trkpt>
      <trkpt lat="42.28395" lon="-8.792652">
        <ele>200.3</ele>
        <time>1970-01-01T01:21:03.000Z</time>
      </trkpt>
      <trkpt lat="42.28395" lon="-8.792652">
        <ele>200.3</ele>
        <time>1970-01-01T01:21:04.000Z</time>
      </trkpt>
      <trkpt lat="42.28395" lon="-8.792652">
        <ele>200.3</ele>
        <time>1970-01-01T01:21:05.000Z</time>
      </trkpt>
      <trkpt lat="42.28395" lon="-8.792652">
        <ele>200.3</ele>
        <time>1970-01-01T01:21:06.000Z</time>
      </trkpt>
      <trkpt lat="42.28395" lon="-8.792652">
        <ele>200.3</ele>
        <time>1970-01-01T01:21:07.000Z</time>
      </trkpt>
      <trkpt lat="42.28395" lon="-8.792652">
        <ele>200.3</ele>
        <time>1970-01-01T01:21:08.000Z</time>
      </trkpt>
      <trkpt lat="42.28395" lon="-8.792652">
        <ele>200.3</ele>
        <time>1970-01-01T01:21:09.000Z</time>
      </trkpt>
      <trkpt lat="42.283933" lon="-8.792652">
        <ele>184.3</ele>
        <time>1970-01-01T01:21:10.000Z</time>
      </trkpt>
      <trkpt lat="42.283933" lon="-8.792652">
        <ele>184.3</ele>
        <time>1970-01-01T01:21:11.000Z</time>
      </trkpt>
      <trkpt lat="42.283933" lon="-8.792652">
        <ele>185.3</ele>
        <time>1970-01-01T01:21:12.000Z</time>
      </trkpt>
      <trkpt lat="42.283935" lon="-8.792652">
        <ele>185.3</ele>
        <time>1970-01-01T01:21:13.000Z</time>
      </trkpt>
      <trkpt lat="42.283935" lon="-8.792652">
        <ele>185.3</ele>
        <time>1970-01-01T01:24:32.000Z</time>
      </trkpt>
      <trkpt lat="42.283935" lon="-8.792652">
        <ele>185.3</ele>
        <time>1970-01-01T01:24:33.000Z</time>
      </trkpt>
      <trkpt lat="42.283935" lon="-8.792652">
        <ele>186.2</ele>
        <time>1970-01-01T01:24:34.000Z</time>
      </trkpt>
      <trkpt lat="42.283935" lon="-8.792652">
        <ele>186.2</ele>
        <time>1970-01-01T01:24:35.000Z</time>
      </trkpt>
      <trkpt lat="42.283935" lon="-8.792652">
        <ele>186.2</ele>
        <time>1970-01-01T01:24:36.000Z</time>
      </trkpt>
      <trkpt lat="42.283935" lon="-8.792652">
        <ele>186.2</ele>
        <time>1970-01-01T01:24:37.000Z</time>
      </trkpt>
      <trkpt lat="42.283935" lon="-8.792652">
        <ele>186.2</ele>
        <time>1970-01-01T01:24:38.000Z</time>
      </trkpt>
      <trkpt lat="42.283935" lon="-8.79265">
        <ele>186.2</ele>
        <time>1970-01-01T01:24:39.000Z</time>
      </trkpt>
      <trkpt lat="42.283935" lon="-8.79265">
        <ele>186.2</ele>
        <time>1970-01-01T01:24:40.000Z</time>
      </trkpt>
      <trkpt lat="42.283935" lon="-8.79265">
        <ele>186.2</ele>
        <time>1970-01-01T01:24:41.000Z</time>
      </trkpt>
      <trkpt lat="42.283935" lon="-8.79265">
        <ele>186.2</ele>
        <time>1970-01-01T01:24:42.000Z</time>
      </trkpt>
      <trkpt lat="42.283935" lon="-8.79265">
        <ele>186.2</ele>
        <time>1970-01-01T01:24:43.000Z</time>
      </trkpt>
      <trkpt lat="42.283935" lon="-8.79265">
        <ele>187.3</ele>
        <time>1970-01-01T01:24:44.000Z</time>
      </trkpt>
      <trkpt lat="42.283935" lon="-8.79265">
        <ele>187.3</ele>
        <time>1970-01-01T01:24:45.000Z</time>
      </trkpt>
      <trkpt lat="42.283935" lon="-8.79265">
        <ele>187.3</ele>
        <time>1970-01-01T01:24:46.000Z</time>
      </trkpt>
      <trkpt lat="42.283937" lon="-8.79265">
        <ele>187.3</ele>
        <time>1970-01-01T01:24:47.000Z</time>
      </trkpt>
      <trkpt lat="42.283937" lon="-8.79265">
        <ele>187.3</ele>
        <time>1970-01-01T01:24:48.000Z</time>
      </trkpt>
      <trkpt lat="42.283937" lon="-8.79265">
        <ele>187.3</ele>
        <time>1970-01-01T01:24:49.000Z</time>
      </trkpt>
      <trkpt lat="42.283937" lon="-8.79265">
        <ele>188.2</ele>
        <time>1970-01-01T01:24:50.000Z</time>
      </trkpt>
      <trkpt lat="42.283937" lon="-8.79265">
        <ele>188.2</ele>
        <time>1970-01-01T01:24:51.000Z</time>
      </trkpt>
      <trkpt lat="42.283937" lon="-8.79265">
        <ele>188.2</ele>
        <time>1970-01-01T01:24:52.000Z</time>
      </trkpt>
      <trkpt lat="42.283937" lon="-8.79265">
        <ele>188.2</ele>
        <time>1970-01-01T01:24:53.000Z</time>
      </trkpt>
      <trkpt lat="42.283937" lon="-8.792648">
        <ele>189.3</ele>
        <time>1970-01-01T01:24:54.000Z</time>
      </trkpt>
      <trkpt lat="42.283938" lon="-8.792638">
        <ele>189.3</ele>
        <time>1970-01-01T01:24:55.000Z</time>
      </trkpt>
      <trkpt lat="42.28394" lon="-8.792623">
        <ele>189.3</ele>
        <time>1970-01-01T01:24:56.000Z</time>
      </trkpt>
      <trkpt lat="42.283943" lon="-8.79261">
        <ele>189.3</ele>
        <time>1970-01-01T01:24:57.000Z</time>
      </trkpt>
      <trkpt lat="42.283945" lon="-8.792598">
        <ele>189.3</ele>
        <time>1970-01-01T01:24:58.000Z</time>
      </trkpt>
      <trkpt lat="42.283945" lon="-8.792588">
        <ele>189.3</ele>
        <time>1970-01-01T01:24:59.000Z</time>
      </trkpt>
      <trkpt lat="42.283947" lon="-8.792578">
        <ele>189.3</ele>
        <time>1970-01-01T01:25:00.000Z</time>
      </trkpt>
      <trkpt lat="42.283947" lon="-8.792568">
        <ele>189.3</ele>
        <time>1970-01-01T01:25:01.000Z</time>
      </trkpt>
      <trkpt lat="42.283948" lon="-8.792558">
        <ele>189.3</ele>
        <time>1970-01-01T01:25:02.000Z</time>
      </trkpt>
      <trkpt lat="42.28395" lon="-8.792547">
        <ele>189.3</ele>
        <time>1970-01-01T01:25:03.000Z</time>
      </trkpt>
      <trkpt lat="42.283952" lon="-8.792538">
        <ele>189.3</ele>
        <time>1970-01-01T01:25:04.000Z</time>
      </trkpt>
      <trkpt lat="42.283952" lon="-8.792538">
        <ele>189.3</ele>
        <time>1970-01-01T01:25:05.000Z</time>
      </trkpt>
      <trkpt lat="42.283952" lon="-8.792538">
        <ele>189.3</ele>
        <time>1970-01-01T01:25:06.000Z</time>
      </trkpt>
      <trkpt lat="42.283952" lon="-8.792538">
        <ele>189.3</ele>
        <time>1970-01-01T01:25:07.000Z</time>
      </trkpt>
      <trkpt lat="42.283952" lon="-8.792538">
        <ele>189.3</ele>
        <time>1970-01-01T01:25:08.000Z</time>
      </trkpt>
      <trkpt lat="42.283952" lon="-8.792538">
        <ele>189.3</ele>
        <time>1970-01-01T01:25:09.000Z</time>
      </trkpt>
      <trkpt lat="42.283952" lon="-8.792538">
        <ele>189.3</ele>
        <time>1970-01-01T01:25:10.000Z</time>
      </trkpt>
      <trkpt lat="42.283952" lon="-8.792538">
        <ele>189.3</ele>
        <time>1970-01-01T01:25:11.000Z</time>
      </trkpt>
      <trkpt lat="42.283952" lon="-8.792538">
        <ele>189.3</ele>
        <time>1970-01-01T01:25:12.000Z</time>
      </trkpt>
      <trkpt lat="42.283952" lon="-8.792538">
        <ele>189.3</ele>
        <time>1970-01-01T01:25:13.000Z</time>
      </trkpt>
      <trkpt lat="42.283952" lon="-8.792538">
        <ele>189.3</ele>
        <time>1970-01-01T01:25:14.000Z</time>
      </trkpt>
      <trkpt lat="42.283952" lon="-8.792538">
        <ele>189.3</ele>
        <time>1970-01-01T01:25:15.000Z</time>
      </trkpt>
      <trkpt lat="42.283952" lon="-8.792538">
        <ele>189.3</ele>
        <time>1970-01-01T01:25:16.000Z</time>
      </trkpt>
      <trkpt lat="42.283952" lon="-8.792538">
        <ele>189.3</ele>
        <time>1970-01-01T01:25:17.000Z</time>
      </trkpt>
      <trkpt lat="42.283952" lon="-8.792538">
        <ele>189.3</ele>
        <time>1970-01-01T01:25:18.000Z</time>
      </trkpt>
      <trkpt lat="42.283952" lon="-8.792538">
        <ele>189.3</ele>
        <time>1970-01-01T01:25:19.000Z</time>
      </trkpt>
      <trkpt lat="42.283952" lon="-8.792538">
        <ele>189.3</ele>
        <time>1970-01-01T01:25:20.000Z</time>
      </trkpt>
      <trkpt lat="42.283952" lon="-8.792538">
        <ele>189.3</ele>
        <time>1970-01-01T01:25:21.000Z</time>
      </trkpt>
      <trkpt lat="42.283952" lon="-8.792538">
        <ele>189.3</ele>
        <time>1970-01-01T01:25:22.000Z</time>
      </trkpt>
      <trkpt lat="42.283952" lon="-8.792538">
        <ele>189.3</ele>
        <time>1970-01-01T01:25:23.000Z</time>
      </trkpt>
      <trkpt lat="42.283952" lon="-8.792537">
        <ele>189.3</ele>
        <time>1970-01-01T01:25:24.000Z</time>
      </trkpt>
      <trkpt lat="42.283952" lon="-8.792537">
        <ele>189.3</ele>
        <time>1970-01-01T01:25:25.000Z</time>
      </trkpt>
      <trkpt lat="42.283953" lon="-8.792537">
        <ele>189.3</ele>
        <time>1970-01-01T01:25:26.000Z</time>
      </trkpt>
      <trkpt lat="42.283953" lon="-8.792537">
        <ele>189.3</ele>
        <time>1970-01-01T01:25:27.000Z</time>
      </trkpt>
      <trkpt lat="42.283953" lon="-8.792537">
        <ele>189.3</ele>
        <time>1970-01-01T01:25:28.000Z</time>
      </trkpt>
      <trkpt lat="42.283953" lon="-8.792535">
        <ele>189.3</ele>
        <time>1970-01-01T01:25:29.000Z</time>
      </trkpt>
      <trkpt lat="42.283957" lon="-8.79253">
        <ele>189.3</ele>
        <time>1970-01-01T01:25:30.000Z</time>
      </trkpt>
      <trkpt lat="42.28396" lon="-8.792527">
        <ele>189.3</ele>
        <time>1970-01-01T01:25:31.000Z</time>
      </trkpt>
      <trkpt lat="42.283962" lon="-8.792525">
        <ele>189.3</ele>
        <time>1970-01-01T01:25:32.000Z</time>
      </trkpt>
      <trkpt lat="42.283965" lon="-8.792523">
        <ele>189.3</ele>
        <time>1970-01-01T01:25:33.000Z</time>
      </trkpt>
      <trkpt lat="42.283967" lon="-8.792523">
        <ele>189.3</ele>
        <time>1970-01-01T01:25:34.000Z</time>
      </trkpt>
      <trkpt lat="42.283967" lon="-8.792523">
        <ele>189.3</ele>
        <time>1970-01-01T01:25:35.000Z</time>
      </trkpt>
      <trkpt lat="42.283968" lon="-8.792523">
        <ele>189.3</ele>
        <time>1970-01-01T01:25:36.000Z</time>
      </trkpt>
      <trkpt lat="42.283972" lon="-8.792523">
        <ele>189.3</ele>
        <time>1970-01-01T01:25:37.000Z</time>
      </trkpt>
      <trkpt lat="42.283973" lon="-8.792523">
        <ele>189.3</ele>
        <time>1970-01-01T01:25:38.000Z</time>
      </trkpt>
      <trkpt lat="42.283973" lon="-8.792523">
        <ele>189.3</ele>
        <time>1970-01-01T01:25:39.000Z</time>
      </trkpt>
      <trkpt lat="42.283973" lon="-8.792523">
        <ele>189.3</ele>
        <time>1970-01-01T01:25:40.000Z</time>
      </trkpt>
      <trkpt lat="42.283975" lon="-8.792523">
        <ele>189.3</ele>
        <time>1970-01-01T01:25:41.000Z</time>
      </trkpt>
      <trkpt lat="42.283975" lon="-8.792523">
        <ele>189.3</ele>
        <time>1970-01-01T01:25:42.000Z</time>
      </trkpt>
      <trkpt lat="42.283975" lon="-8.792523">
        <ele>189.3</ele>
        <time>1970-01-01T01:25:43.000Z</time>
      </trkpt>
      <trkpt lat="42.283975" lon="-8.792523">
        <ele>189.3</ele>
        <time>1970-01-01T01:25:44.000Z</time>
      </trkpt>
      <trkpt lat="42.283975" lon="-8.792522">
        <ele>189.3</ele>
        <time>1970-01-01T01:25:45.000Z</time>
      </trkpt>
      <trkpt lat="42.283975" lon="-8.792522">
        <ele>189.3</ele>
        <time>1970-01-01T01:25:46.000Z</time>
      </trkpt>
      <trkpt lat="42.283975" lon="-8.792522">
        <ele>189.3</ele>
        <time>1970-01-01T01:25:47.000Z</time>
      </trkpt>
      <trkpt lat="42.283975" lon="-8.792522">
        <ele>188.2</ele>
        <time>1970-01-01T01:25:48.000Z</time>
      </trkpt>
      <trkpt lat="42.283975" lon="-8.792522">
        <ele>188.2</ele>
        <time>1970-01-01T01:25:49.000Z</time>
      </trkpt>
      <trkpt lat="42.283975" lon="-8.792522">
        <ele>188.2</ele>
        <time>1970-01-01T01:25:50.000Z</time>
      </trkpt>
      <trkpt lat="42.283975" lon="-8.792522">
        <ele>188.2</ele>
        <time>1970-01-01T01:25:51.000Z</time>
      </trkpt>
      <trkpt lat="42.283978" lon="-8.792517">
        <ele>188.2</ele>
        <time>1970-01-01T01:25:52.000Z</time>
      </trkpt>
      <trkpt lat="42.283992" lon="-8.792498">
        <ele>188.2</ele>
        <time>1970-01-01T01:25:53.000Z</time>
      </trkpt>
      <trkpt lat="42.284003" lon="-8.792483">
        <ele>188.2</ele>
        <time>1970-01-01T01:25:54.000Z</time>
      </trkpt>
      <trkpt lat="42.284017" lon="-8.79247">
        <ele>188.2</ele>
        <time>1970-01-01T01:25:55.000Z</time>
      </trkpt>
      <trkpt lat="42.284032" lon="-8.792452">
        <ele>188.2</ele>
        <time>1970-01-01T01:25:56.000Z</time>
      </trkpt>
      <trkpt lat="42.284043" lon="-8.792433">
        <ele>188.2</ele>
        <time>1970-01-01T01:25:57.000Z</time>
      </trkpt>
      <trkpt lat="42.284057" lon="-8.792417">
        <ele>188.2</ele>
        <time>1970-01-01T01:25:58.000Z</time>
      </trkpt>
      <trkpt lat="42.28407" lon="-8.792402">
        <ele>188.2</ele>
        <time>1970-01-01T01:25:59.000Z</time>
      </trkpt>
      <trkpt lat="42.284083" lon="-8.792387">
        <ele>188.2</ele>
        <time>1970-01-01T01:26:00.000Z</time>
      </trkpt>
      <trkpt lat="42.284098" lon="-8.792372">
        <ele>188.2</ele>
        <time>1970-01-01T01:26:01.000Z</time>
      </trkpt>
      <trkpt lat="42.284108" lon="-8.792362">
        <ele>188.2</ele>
        <time>1970-01-01T01:26:02.000Z</time>
      </trkpt>
      <trkpt lat="42.284115" lon="-8.792353">
        <ele>188.2</ele>
        <time>1970-01-01T01:26:03.000Z</time>
      </trkpt>
      <trkpt lat="42.284123" lon="-8.792343">
        <ele>188.2</ele>
        <time>1970-01-01T01:26:04.000Z</time>
      </trkpt>
      <trkpt lat="42.284133" lon="-8.79233">
        <ele>188.2</ele>
        <time>1970-01-01T01:26:05.000Z</time>
      </trkpt>
      <trkpt lat="42.284142" lon="-8.792313">
        <ele>188.2</ele>
        <time>1970-01-01T01:26:06.000Z</time>
      </trkpt>
      <trkpt lat="42.28415" lon="-8.792297">
        <ele>188.2</ele>
        <time>1970-01-01T01:26:07.000Z</time>
      </trkpt>
      <trkpt lat="42.284158" lon="-8.792282">
        <ele>188.2</ele>
        <time>1970-01-01T01:26:08.000Z</time>
      </trkpt>
      <trkpt lat="42.284165" lon="-8.792265">
        <ele>188.2</ele>
        <time>1970-01-01T01:26:09.000Z</time>
      </trkpt>
      <trkpt lat="42.284172" lon="-8.792248">
        <ele>188.2</ele>
        <time>1970-01-01T01:26:10.000Z</time>
      </trkpt>
      <trkpt lat="42.284178" lon="-8.79223">
        <ele>188.2</ele>
        <time>1970-01-01T01:26:11.000Z</time>
      </trkpt>
      <trkpt lat="42.284185" lon="-8.792215">
        <ele>186.2</ele>
        <time>1970-01-01T01:26:12.000Z</time>
      </trkpt>
      <trkpt lat="42.284195" lon="-8.792197">
        <ele>186.2</ele>
        <time>1970-01-01T01:26:13.000Z</time>
      </trkpt>
      <trkpt lat="42.284202" lon="-8.792185">
        <ele>186.2</ele>
        <time>1970-01-01T01:26:14.000Z</time>
      </trkpt>
      <trkpt lat="42.284212" lon="-8.792167">
        <ele>186.2</ele>
        <time>1970-01-01T01:26:15.000Z</time>
      </trkpt>
      <trkpt lat="42.284217" lon="-8.79215">
        <ele>186.2</ele>
        <time>1970-01-01T01:26:16.000Z</time>
      </trkpt>
      <trkpt lat="42.284223" lon="-8.792138">
        <ele>186.2</ele>
        <time>1970-01-01T01:26:17.000Z</time>
      </trkpt>
      <trkpt lat="42.284232" lon="-8.792125">
        <ele>186.2</ele>
        <time>1970-01-01T01:26:18.000Z</time>
      </trkpt>
      <trkpt lat="42.284247" lon="-8.792108">
        <ele>186.2</ele>
        <time>1970-01-01T01:26:19.000Z</time>
      </trkpt>
      <trkpt lat="42.284257" lon="-8.792097">
        <ele>186.2</ele>
        <time>1970-01-01T01:26:20.000Z</time>
      </trkpt>
      <trkpt lat="42.284268" lon="-8.792085">
        <ele>186.2</ele>
        <time>1970-01-01T01:26:21.000Z</time>
      </trkpt>
      <trkpt lat="42.284275" lon="-8.792072">
        <ele>186.2</ele>
        <time>1970-01-01T01:26:22.000Z</time>
      </trkpt>
      <trkpt lat="42.284282" lon="-8.79206">
        <ele>186.2</ele>
        <time>1970-01-01T01:26:23.000Z</time>
      </trkpt>
      <trkpt lat="42.284288" lon="-8.792047">
        <ele>186.2</ele>
        <time>1970-01-01T01:26:24.000Z</time>
      </trkpt>
      <trkpt lat="42.2843" lon="-8.792027">
        <ele>186.2</ele>
        <time>1970-01-01T01:26:25.000Z</time>
      </trkpt>
      <trkpt lat="42.28431" lon="-8.792013">
        <ele>186.2</ele>
        <time>1970-01-01T01:26:26.000Z</time>
      </trkpt>
      <trkpt lat="42.28432" lon="-8.792">
        <ele>186.2</ele>
        <time>1970-01-01T01:26:27.000Z</time>
      </trkpt>
      <trkpt lat="42.284327" lon="-8.791988">
        <ele>187.3</ele>
        <time>1970-01-01T01:26:28.000Z</time>
      </trkpt>
      <trkpt lat="42.284337" lon="-8.791972">
        <ele>187.3</ele>
        <time>1970-01-01T01:26:29.000Z</time>
      </trkpt>
      <trkpt lat="42.284345" lon="-8.79196">
        <ele>187.3</ele>
        <time>1970-01-01T01:26:30.000Z</time>
      </trkpt>
      <trkpt lat="42.284353" lon="-8.791948">
        <ele>187.3</ele>
        <time>1970-01-01T01:26:31.000Z</time>
      </trkpt>
      <trkpt lat="42.28436" lon="-8.791933">
        <ele>188.2</ele>
        <time>1970-01-01T01:26:32.000Z</time>
      </trkpt>
      <trkpt lat="42.284368" lon="-8.791917">
        <ele>188.2</ele>
        <time>1970-01-01T01:26:33.000Z</time>
      </trkpt>
      <trkpt lat="42.284375" lon="-8.791903">
        <ele>188.2</ele>
        <time>1970-01-01T01:26:34.000Z</time>
      </trkpt>
      <trkpt lat="42.284382" lon="-8.791885">
        <ele>188.2</ele>
        <time>1970-01-01T01:26:35.000Z</time>
      </trkpt>
      <trkpt lat="42.28439" lon="-8.791872">
        <ele>189.3</ele>
        <time>1970-01-01T01:26:36.000Z</time>
      </trkpt>
      <trkpt lat="42.284397" lon="-8.791858">
        <ele>189.3</ele>
        <time>1970-01-01T01:26:37.000Z</time>
      </trkpt>
      <trkpt lat="42.284405" lon="-8.791843">
        <ele>189.3</ele>
        <time>1970-01-01T01:26:38.000Z</time>
      </trkpt>
      <trkpt lat="42.284415" lon="-8.791832">
        <ele>189.3</ele>
        <time>1970-01-01T01:26:39.000Z</time>
      </trkpt>
      <trkpt lat="42.284423" lon="-8.791817">
        <ele>190.2</ele>
        <time>1970-01-01T01:26:40.000Z</time>
      </trkpt>
      <trkpt lat="42.284428" lon="-8.791803">
        <ele>190.2</ele>
        <time>1970-01-01T01:26:41.000Z</time>
      </trkpt>
      <trkpt lat="42.284433" lon="-8.791792">
        <ele>190.2</ele>
        <time>1970-01-01T01:26:42.000Z</time>
      </trkpt>
      <trkpt lat="42.284438" lon="-8.79178">
        <ele>190.2</ele>
        <time>1970-01-01T01:26:43.000Z</time>
      </trkpt>
      <trkpt lat="42.284447" lon="-8.791767">
        <ele>191.3</ele>
        <time>1970-01-01T01:26:44.000Z</time>
      </trkpt>
      <trkpt lat="42.284452" lon="-8.791753">
        <ele>191.3</ele>
        <time>1970-01-01T01:26:45.000Z</time>
      </trkpt>
      <trkpt lat="42.284455" lon="-8.791745">
        <ele>191.3</ele>
        <time>1970-01-01T01:26:46.000Z</time>
      </trkpt>
      <trkpt lat="42.28446" lon="-8.791735">
        <ele>191.3</ele>
        <time>1970-01-01T01:26:47.000Z</time>
      </trkpt>
      <trkpt lat="42.284467" lon="-8.791727">
        <ele>192.3</ele>
        <time>1970-01-01T01:26:48.000Z</time>
      </trkpt>
      <trkpt lat="42.284475" lon="-8.791715">
        <ele>192.3</ele>
        <time>1970-01-01T01:26:49.000Z</time>
      </trkpt>
      <trkpt lat="42.284482" lon="-8.791707">
        <ele>192.3</ele>
        <time>1970-01-01T01:26:50.000Z</time>
      </trkpt>
      <trkpt lat="42.284487" lon="-8.791703">
        <ele>192.3</ele>
        <time>1970-01-01T01:26:51.000Z</time>
      </trkpt>
      <trkpt lat="42.28449" lon="-8.791697">
        <ele>193.2</ele>
        <time>1970-01-01T01:26:52.000Z</time>
      </trkpt>
      <trkpt lat="42.284498" lon="-8.79169">
        <ele>193.2</ele>
        <time>1970-01-01T01:26:53.000Z</time>
      </trkpt>
      <trkpt lat="42.284507" lon="-8.791685">
        <ele>193.2</ele>
        <time>1970-01-01T01:26:54.000Z</time>
      </trkpt>
      <trkpt lat="42.284513" lon="-8.79168">
        <ele>193.2</ele>
        <time>1970-01-01T01:26:55.000Z</time>
      </trkpt>
      <trkpt lat="42.28452" lon="-8.791673">
        <ele>193.2</ele>
        <time>1970-01-01T01:26:56.000Z</time>
      </trkpt>
      <trkpt lat="42.284527" lon="-8.791665">
        <ele>193.2</ele>
        <time>1970-01-01T01:26:57.000Z</time>
      </trkpt>
      <trkpt lat="42.284538" lon="-8.791658">
        <ele>193.2</ele>
        <time>1970-01-01T01:26:58.000Z</time>
      </trkpt>
      <trkpt lat="42.284548" lon="-8.79165">
        <ele>193.2</ele>
        <time>1970-01-01T01:26:59.000Z</time>
      </trkpt>
      <trkpt lat="42.284555" lon="-8.791645">
        <ele>194.3</ele>
        <time>1970-01-01T01:27:00.000Z</time>
      </trkpt>
      <trkpt lat="42.284563" lon="-8.791638">
        <ele>194.3</ele>
        <time>1970-01-01T01:27:01.000Z</time>
      </trkpt>
      <trkpt lat="42.284573" lon="-8.79163">
        <ele>194.3</ele>
        <time>1970-01-01T01:27:02.000Z</time>
      </trkpt>
      <trkpt lat="42.284582" lon="-8.791622">
        <ele>194.3</ele>
        <time>1970-01-01T01:27:03.000Z</time>
      </trkpt>
      <trkpt lat="42.284587" lon="-8.791615">
        <ele>195.2</ele>
        <time>1970-01-01T01:27:04.000Z</time>
      </trkpt>
      <trkpt lat="42.284593" lon="-8.791608">
        <ele>195.2</ele>
        <time>1970-01-01T01:27:05.000Z</time>
      </trkpt>
      <trkpt lat="42.284602" lon="-8.791602">
        <ele>195.2</ele>
        <time>1970-01-01T01:27:06.000Z</time>
      </trkpt>
      <trkpt lat="42.284608" lon="-8.79159">
        <ele>195.2</ele>
        <time>1970-01-01T01:27:07.000Z</time>
      </trkpt>
      <trkpt lat="42.284618" lon="-8.79158">
        <ele>196.3</ele>
        <time>1970-01-01T01:27:08.000Z</time>
      </trkpt>
      <trkpt lat="42.284625" lon="-8.791573">
        <ele>196.3</ele>
        <time>1970-01-01T01:27:09.000Z</time>
      </trkpt>
      <trkpt lat="42.284635" lon="-8.791562">
        <ele>196.3</ele>
        <time>1970-01-01T01:27:10.000Z</time>
      </trkpt>
      <trkpt lat="42.284642" lon="-8.791553">
        <ele>196.3</ele>
        <time>1970-01-01T01:27:11.000Z</time>
      </trkpt>
      <trkpt lat="42.284645" lon="-8.791545">
        <ele>196.3</ele>
        <time>1970-01-01T01:27:12.000Z</time>
      </trkpt>
      <trkpt lat="42.28465" lon="-8.791535">
        <ele>196.3</ele>
        <time>1970-01-01T01:27:13.000Z</time>
      </trkpt>
      <trkpt lat="42.284655" lon="-8.791525">
        <ele>196.3</ele>
        <time>1970-01-01T01:27:14.000Z</time>
      </trkpt>
      <trkpt lat="42.284662" lon="-8.791515">
        <ele>196.3</ele>
        <time>1970-01-01T01:27:15.000Z</time>
      </trkpt>
      <trkpt lat="42.284668" lon="-8.791502">
        <ele>196.3</ele>
        <time>1970-01-01T01:27:16.000Z</time>
      </trkpt>
      <trkpt lat="42.284673" lon="-8.791492">
        <ele>196.3</ele>
        <time>1970-01-01T01:27:17.000Z</time>
      </trkpt>
      <trkpt lat="42.284677" lon="-8.791478">
        <ele>198.3</ele>
        <time>1970-01-01T01:27:18.000Z</time>
      </trkpt>
      <trkpt lat="42.28468" lon="-8.791467">
        <ele>198.3</ele>
        <time>1970-01-01T01:27:19.000Z</time>
      </trkpt>
      <trkpt lat="42.284685" lon="-8.791458">
        <ele>199.3</ele>
        <time>1970-01-01T01:27:20.000Z</time>
      </trkpt>
      <trkpt lat="42.28469" lon="-8.791445">
        <ele>199.3</ele>
        <time>1970-01-01T01:27:21.000Z</time>
      </trkpt>
      <trkpt lat="42.284695" lon="-8.791432">
        <ele>199.3</ele>
        <time>1970-01-01T01:27:22.000Z</time>
      </trkpt>
      <trkpt lat="42.284698" lon="-8.791423">
        <ele>199.3</ele>
        <time>1970-01-01T01:27:23.000Z</time>
      </trkpt>
      <trkpt lat="42.284703" lon="-8.79141">
        <ele>200.3</ele>
        <time>1970-01-01T01:27:24.000Z</time>
      </trkpt>
      <trkpt lat="42.284705" lon="-8.791395">
        <ele>200.3</ele>
        <time>1970-01-01T01:27:25.000Z</time>
      </trkpt>
      <trkpt lat="42.284707" lon="-8.791382">
        <ele>201.3</ele>
        <time>1970-01-01T01:27:26.000Z</time>
      </trkpt>
      <trkpt lat="42.284708" lon="-8.791368">
        <ele>201.3</ele>
        <time>1970-01-01T01:27:27.000Z</time>
      </trkpt>
      <trkpt lat="42.28471" lon="-8.791357">
        <ele>202.2</ele>
        <time>1970-01-01T01:27:28.000Z</time>
      </trkpt>
      <trkpt lat="42.284712" lon="-8.791343">
        <ele>202.2</ele>
        <time>1970-01-01T01:27:29.000Z</time>
      </trkpt>
      <trkpt lat="42.28471" lon="-8.791328">
        <ele>202.2</ele>
        <time>1970-01-01T01:27:30.000Z</time>
      </trkpt>
      <trkpt lat="42.284705" lon="-8.791318">
        <ele>202.2</ele>
        <time>1970-01-01T01:27:31.000Z</time>
      </trkpt>
      <trkpt lat="42.2847" lon="-8.791307">
        <ele>202.2</ele>
        <time>1970-01-01T01:27:32.000Z</time>
      </trkpt>
      <trkpt lat="42.284695" lon="-8.791298">
        <ele>202.2</ele>
        <time>1970-01-01T01:27:33.000Z</time>
      </trkpt>
      <trkpt lat="42.284687" lon="-8.79129">
        <ele>202.2</ele>
        <time>1970-01-01T01:27:34.000Z</time>
      </trkpt>
      <trkpt lat="42.284677" lon="-8.79128">
        <ele>202.2</ele>
        <time>1970-01-01T01:27:35.000Z</time>
      </trkpt>
      <trkpt lat="42.284667" lon="-8.791273">
        <ele>202.2</ele>
        <time>1970-01-01T01:27:36.000Z</time>
      </trkpt>
      <trkpt lat="42.284658" lon="-8.79127">
        <ele>202.2</ele>
        <time>1970-01-01T01:27:37.000Z</time>
      </trkpt>
      <trkpt lat="42.284653" lon="-8.791267">
        <ele>203.3</ele>
        <time>1970-01-01T01:27:38.000Z</time>
      </trkpt>
      <trkpt lat="42.284648" lon="-8.791262">
        <ele>203.3</ele>
        <time>1970-01-01T01:27:39.000Z</time>
      </trkpt>
      <trkpt lat="42.284647" lon="-8.791258">
        <ele>203.3</ele>
        <time>1970-01-01T01:27:40.000Z</time>
      </trkpt>
      <trkpt lat="42.284647" lon="-8.791257">
        <ele>203.3</ele>
        <time>1970-01-01T01:27:41.000Z</time>
      </trkpt>
      <trkpt lat="42.284645" lon="-8.791257">
        <ele>204.2</ele>
        <time>1970-01-01T01:27:42.000Z</time>
      </trkpt>
      <trkpt lat="42.284645" lon="-8.791257">
        <ele>204.2</ele>
        <time>1970-01-01T01:27:43.000Z</time>
      </trkpt>
      <trkpt lat="42.284643" lon="-8.791257">
        <ele>204.2</ele>
        <time>1970-01-01T01:27:44.000Z</time>
      </trkpt>
      <trkpt lat="42.284643" lon="-8.791257">
        <ele>204.2</ele>
        <time>1970-01-01T01:27:45.000Z</time>
      </trkpt>
      <trkpt lat="42.284643" lon="-8.791257">
        <ele>204.2</ele>
        <time>1970-01-01T01:27:46.000Z</time>
      </trkpt>
      <trkpt lat="42.284643" lon="-8.791257">
        <ele>204.2</ele>
        <time>1970-01-01T01:27:47.000Z</time>
      </trkpt>
      <trkpt lat="42.284643" lon="-8.791255">
        <ele>204.2</ele>
        <time>1970-01-01T01:27:48.000Z</time>
      </trkpt>
      <trkpt lat="42.284642" lon="-8.791255">
        <ele>204.2</ele>
        <time>1970-01-01T01:27:49.000Z</time>
      </trkpt>
      <trkpt lat="42.284642" lon="-8.791255">
        <ele>204.2</ele>
        <time>1970-01-01T01:27:50.000Z</time>
      </trkpt>
      <trkpt lat="42.284642" lon="-8.791255">
        <ele>204.2</ele>
        <time>1970-01-01T01:27:51.000Z</time>
      </trkpt>
      <trkpt lat="42.284642" lon="-8.791255">
        <ele>204.2</ele>
        <time>1970-01-01T01:27:52.000Z</time>
      </trkpt>
      <trkpt lat="42.284642" lon="-8.791255">
        <ele>204.2</ele>
        <time>1970-01-01T01:27:53.000Z</time>
      </trkpt>
      <trkpt lat="42.284642" lon="-8.791255">
        <ele>205.3</ele>
        <time>1970-01-01T01:27:54.000Z</time>
      </trkpt>
      <trkpt lat="42.284642" lon="-8.791255">
        <ele>205.3</ele>
        <time>1970-01-01T01:27:55.000Z</time>
      </trkpt>
      <trkpt lat="42.284642" lon="-8.791255">
        <ele>205.3</ele>
        <time>1970-01-01T01:27:56.000Z</time>
      </trkpt>
      <trkpt lat="42.284642" lon="-8.791255">
        <ele>205.3</ele>
        <time>1970-01-01T01:27:57.000Z</time>
      </trkpt>
      <trkpt lat="42.284642" lon="-8.791255">
        <ele>205.3</ele>
        <time>1970-01-01T01:27:58.000Z</time>
      </trkpt>
      <trkpt lat="42.284642" lon="-8.791255">
        <ele>205.3</ele>
        <time>1970-01-01T01:27:59.000Z</time>
      </trkpt>
      <trkpt lat="42.284642" lon="-8.791255">
        <ele>205.3</ele>
        <time>1970-01-01T01:28:00.000Z</time>
      </trkpt>
      <trkpt lat="42.284642" lon="-8.791255">
        <ele>205.3</ele>
        <time>1970-01-01T01:28:01.000Z</time>
      </trkpt>
      <trkpt lat="42.284642" lon="-8.791255">
        <ele>205.3</ele>
        <time>1970-01-01T01:28:02.000Z</time>
      </trkpt>
      <trkpt lat="42.284642" lon="-8.791255">
        <ele>205.3</ele>
        <time>1970-01-01T01:28:03.000Z</time>
      </trkpt>
      <trkpt lat="42.284642" lon="-8.791255">
        <ele>205.3</ele>
        <time>1970-01-01T01:28:04.000Z</time>
      </trkpt>
      <trkpt lat="42.284642" lon="-8.791255">
        <ele>205.3</ele>
        <time>1970-01-01T01:28:05.000Z</time>
      </trkpt>
      <trkpt lat="42.284642" lon="-8.791255">
        <ele>205.3</ele>
        <time>1970-01-01T01:28:06.000Z</time>
      </trkpt>
      <trkpt lat="42.284642" lon="-8.791255">
        <ele>205.3</ele>
        <time>1970-01-01T01:28:07.000Z</time>
      </trkpt>
      <trkpt lat="42.284642" lon="-8.791253">
        <ele>205.3</ele>
        <time>1970-01-01T01:28:08.000Z</time>
      </trkpt>
      <trkpt lat="42.28464" lon="-8.791253">
        <ele>205.3</ele>
        <time>1970-01-01T01:28:09.000Z</time>
      </trkpt>
      <trkpt lat="42.284637" lon="-8.791252">
        <ele>205.3</ele>
        <time>1970-01-01T01:28:10.000Z</time>
      </trkpt>
      <trkpt lat="42.284635" lon="-8.79125">
        <ele>205.3</ele>
        <time>1970-01-01T01:28:11.000Z</time>
      </trkpt>
      <trkpt lat="42.284632" lon="-8.791247">
        <ele>205.3</ele>
        <time>1970-01-01T01:28:12.000Z</time>
      </trkpt>
      <trkpt lat="42.284627" lon="-8.791243">
        <ele>205.3</ele>
        <time>1970-01-01T01:28:13.000Z</time>
      </trkpt>
      <trkpt lat="42.284625" lon="-8.791242">
        <ele>206.2</ele>
        <time>1970-01-01T01:28:14.000Z</time>
      </trkpt>
      <trkpt lat="42.284622" lon="-8.791242">
        <ele>206.2</ele>
        <time>1970-01-01T01:28:15.000Z</time>
      </trkpt>
      <trkpt lat="42.28462" lon="-8.79124">
        <ele>206.2</ele>
        <time>1970-01-01T01:28:16.000Z</time>
      </trkpt>
      <trkpt lat="42.28462" lon="-8.79124">
        <ele>206.2</ele>
        <time>1970-01-01T01:28:17.000Z</time>
      </trkpt>
      <trkpt lat="42.28462" lon="-8.79124">
        <ele>206.2</ele>
        <time>1970-01-01T01:28:18.000Z</time>
      </trkpt>
      <trkpt lat="42.28462" lon="-8.791238">
        <ele>206.2</ele>
        <time>1970-01-01T01:28:19.000Z</time>
      </trkpt>
      <trkpt lat="42.28462" lon="-8.791238">
        <ele>206.2</ele>
        <time>1970-01-01T01:28:20.000Z</time>
      </trkpt>
      <trkpt lat="42.284618" lon="-8.791237">
        <ele>206.2</ele>
        <time>1970-01-01T01:28:21.000Z</time>
      </trkpt>
      <trkpt lat="42.284617" lon="-8.791237">
        <ele>206.2</ele>
        <time>1970-01-01T01:28:22.000Z</time>
      </trkpt>
      <trkpt lat="42.284617" lon="-8.791237">
        <ele>206.2</ele>
        <time>1970-01-01T01:28:23.000Z</time>
      </trkpt>
      <trkpt lat="42.284615" lon="-8.791235">
        <ele>207.3</ele>
        <time>1970-01-01T01:28:24.000Z</time>
      </trkpt>
      <trkpt lat="42.284613" lon="-8.791235">
        <ele>207.3</ele>
        <time>1970-01-01T01:28:25.000Z</time>
      </trkpt>
      <trkpt lat="42.284613" lon="-8.791235">
        <ele>208.3</ele>
        <time>1970-01-01T01:28:26.000Z</time>
      </trkpt>
      <trkpt lat="42.284612" lon="-8.791235">
        <ele>208.3</ele>
        <time>1970-01-01T01:28:27.000Z</time>
      </trkpt>
      <trkpt lat="42.28461" lon="-8.791235">
        <ele>208.3</ele>
        <time>1970-01-01T01:28:28.000Z</time>
      </trkpt>
      <trkpt lat="42.28461" lon="-8.791235">
        <ele>208.3</ele>
        <time>1970-01-01T01:28:29.000Z</time>
      </trkpt>
      <trkpt lat="42.28461" lon="-8.791235">
        <ele>208.3</ele>
        <time>1970-01-01T01:28:30.000Z</time>
      </trkpt>
      <trkpt lat="42.28461" lon="-8.791233">
        <ele>208.3</ele>
        <time>1970-01-01T01:28:31.000Z</time>
      </trkpt>
      <trkpt lat="42.28461" lon="-8.791232">
        <ele>209.2</ele>
        <time>1970-01-01T01:28:32.000Z</time>
      </trkpt>
      <trkpt lat="42.28461" lon="-8.79123">
        <ele>209.2</ele>
        <time>1970-01-01T01:28:33.000Z</time>
      </trkpt>
      <trkpt lat="42.28461" lon="-8.79123">
        <ele>209.2</ele>
        <time>1970-01-01T01:28:34.000Z</time>
      </trkpt>
      <trkpt lat="42.28461" lon="-8.791228">
        <ele>209.2</ele>
        <time>1970-01-01T01:28:35.000Z</time>
      </trkpt>
      <trkpt lat="42.28461" lon="-8.791227">
        <ele>209.2</ele>
        <time>1970-01-01T01:28:36.000Z</time>
      </trkpt>
      <trkpt lat="42.28461" lon="-8.791225">
        <ele>209.2</ele>
        <time>1970-01-01T01:28:37.000Z</time>
      </trkpt>
      <trkpt lat="42.284608" lon="-8.791225">
        <ele>209.2</ele>
        <time>1970-01-01T01:28:38.000Z</time>
      </trkpt>
      <trkpt lat="42.284608" lon="-8.791225">
        <ele>209.2</ele>
        <time>1970-01-01T01:28:39.000Z</time>
      </trkpt>
      <trkpt lat="42.284608" lon="-8.791223">
        <ele>209.2</ele>
        <time>1970-01-01T01:28:40.000Z</time>
      </trkpt>
      <trkpt lat="42.284608" lon="-8.791222">
        <ele>209.2</ele>
        <time>1970-01-01T01:28:41.000Z</time>
      </trkpt>
      <trkpt lat="42.284608" lon="-8.79122">
        <ele>209.2</ele>
        <time>1970-01-01T01:28:42.000Z</time>
      </trkpt>
      <trkpt lat="42.284608" lon="-8.791218">
        <ele>209.2</ele>
        <time>1970-01-01T01:28:43.000Z</time>
      </trkpt>
      <trkpt lat="42.284608" lon="-8.791218">
        <ele>209.2</ele>
        <time>1970-01-01T01:28:44.000Z</time>
      </trkpt>
      <trkpt lat="42.284608" lon="-8.791218">
        <ele>209.2</ele>
        <time>1970-01-01T01:28:45.000Z</time>
      </trkpt>
      <trkpt lat="42.284608" lon="-8.791218">
        <ele>209.2</ele>
        <time>1970-01-01T01:28:46.000Z</time>
      </trkpt>
      <trkpt lat="42.284608" lon="-8.791218">
        <ele>209.2</ele>
        <time>1970-01-01T01:28:47.000Z</time>
      </trkpt>
      <trkpt lat="42.284605" lon="-8.791215">
        <ele>210.3</ele>
        <time>1970-01-01T01:28:48.000Z</time>
      </trkpt>
      <trkpt lat="42.28459" lon="-8.791205">
        <ele>210.3</ele>
        <time>1970-01-01T01:28:49.000Z</time>
      </trkpt>
      <trkpt lat="42.284575" lon="-8.791198">
        <ele>210.3</ele>
        <time>1970-01-01T01:28:50.000Z</time>
      </trkpt>
      <trkpt lat="42.284562" lon="-8.791188">
        <ele>210.3</ele>
        <time>1970-01-01T01:28:51.000Z</time>
      </trkpt>
      <trkpt lat="42.284548" lon="-8.791182">
        <ele>210.3</ele>
        <time>1970-01-01T01:28:52.000Z</time>
      </trkpt>
      <trkpt lat="42.284533" lon="-8.791185">
        <ele>210.3</ele>
        <time>1970-01-01T01:28:53.000Z</time>
      </trkpt>
      <trkpt lat="42.284525" lon="-8.79119">
        <ele>210.3</ele>
        <time>1970-01-01T01:28:54.000Z</time>
      </trkpt>
      <trkpt lat="42.284518" lon="-8.791183">
        <ele>210.3</ele>
        <time>1970-01-01T01:28:55.000Z</time>
      </trkpt>
      <trkpt lat="42.284505" lon="-8.791173">
        <ele>210.3</ele>
        <time>1970-01-01T01:28:56.000Z</time>
      </trkpt>
      <trkpt lat="42.284495" lon="-8.79117">
        <ele>210.3</ele>
        <time>1970-01-01T01:28:57.000Z</time>
      </trkpt>
      <trkpt lat="42.284485" lon="-8.791172">
        <ele>210.3</ele>
        <time>1970-01-01T01:28:58.000Z</time>
      </trkpt>
      <trkpt lat="42.284478" lon="-8.791167">
        <ele>210.3</ele>
        <time>1970-01-01T01:28:59.000Z</time>
      </trkpt>
      <trkpt lat="42.284473" lon="-8.791168">
        <ele>210.3</ele>
        <time>1970-01-01T01:29:00.000Z</time>
      </trkpt>
      <trkpt lat="42.284468" lon="-8.791172">
        <ele>210.3</ele>
        <time>1970-01-01T01:29:01.000Z</time>
      </trkpt>
      <trkpt lat="42.284462" lon="-8.791173">
        <ele>210.3</ele>
        <time>1970-01-01T01:29:02.000Z</time>
      </trkpt>
      <trkpt lat="42.284457" lon="-8.79118">
        <ele>210.3</ele>
        <time>1970-01-01T01:29:03.000Z</time>
      </trkpt>
      <trkpt lat="42.284448" lon="-8.791183">
        <ele>210.3</ele>
        <time>1970-01-01T01:29:04.000Z</time>
      </trkpt>
      <trkpt lat="42.28444" lon="-8.791188">
        <ele>210.3</ele>
        <time>1970-01-01T01:29:05.000Z</time>
      </trkpt>
      <trkpt lat="42.28443" lon="-8.791195">
        <ele>210.3</ele>
        <time>1970-01-01T01:29:06.000Z</time>
      </trkpt>
      <trkpt lat="42.284418" lon="-8.7912">
        <ele>210.3</ele>
        <time>1970-01-01T01:29:07.000Z</time>
      </trkpt>
      <trkpt lat="42.284403" lon="-8.791208">
        <ele>209.2</ele>
        <time>1970-01-01T01:29:08.000Z</time>
      </trkpt>
      <trkpt lat="42.284388" lon="-8.791215">
        <ele>209.2</ele>
        <time>1970-01-01T01:29:09.000Z</time>
      </trkpt>
      <trkpt lat="42.284375" lon="-8.79122">
        <ele>209.2</ele>
        <time>1970-01-01T01:29:10.000Z</time>
      </trkpt>
      <trkpt lat="42.284362" lon="-8.791223">
        <ele>209.2</ele>
        <time>1970-01-01T01:29:11.000Z</time>
      </trkpt>
      <trkpt lat="42.28435" lon="-8.79123">
        <ele>209.2</ele>
        <time>1970-01-01T01:29:12.000Z</time>
      </trkpt>
      <trkpt lat="42.284342" lon="-8.791238">
        <ele>209.2</ele>
        <time>1970-01-01T01:29:13.000Z</time>
      </trkpt>
      <trkpt lat="42.284332" lon="-8.791245">
        <ele>209.2</ele>
        <time>1970-01-01T01:29:14.000Z</time>
      </trkpt>
      <trkpt lat="42.284323" lon="-8.791248">
        <ele>209.2</ele>
        <time>1970-01-01T01:29:15.000Z</time>
      </trkpt>
      <trkpt lat="42.284313" lon="-8.791253">
        <ele>209.2</ele>
        <time>1970-01-01T01:29:16.000Z</time>
      </trkpt>
      <trkpt lat="42.284308" lon="-8.791257">
        <ele>209.2</ele>
        <time>1970-01-01T01:29:17.000Z</time>
      </trkpt>
      <trkpt lat="42.2843" lon="-8.791262">
        <ele>209.2</ele>
        <time>1970-01-01T01:29:18.000Z</time>
      </trkpt>
      <trkpt lat="42.284292" lon="-8.79127">
        <ele>209.2</ele>
        <time>1970-01-01T01:29:19.000Z</time>
      </trkpt>
      <trkpt lat="42.284282" lon="-8.791278">
        <ele>209.2</ele>
        <time>1970-01-01T01:29:20.000Z</time>
      </trkpt>
      <trkpt lat="42.28427" lon="-8.791292">
        <ele>209.2</ele>
        <time>1970-01-01T01:29:21.000Z</time>
      </trkpt>
      <trkpt lat="42.284258" lon="-8.791303">
        <ele>209.2</ele>
        <time>1970-01-01T01:29:22.000Z</time>
      </trkpt>
      <trkpt lat="42.284247" lon="-8.791317">
        <ele>209.2</ele>
        <time>1970-01-01T01:29:23.000Z</time>
      </trkpt>
      <trkpt lat="42.284238" lon="-8.791322">
        <ele>209.2</ele>
        <time>1970-01-01T01:29:24.000Z</time>
      </trkpt>
      <trkpt lat="42.284228" lon="-8.79133">
        <ele>209.2</ele>
        <time>1970-01-01T01:29:25.000Z</time>
      </trkpt>
      <trkpt lat="42.284217" lon="-8.791335">
        <ele>209.2</ele>
        <time>1970-01-01T01:29:26.000Z</time>
      </trkpt>
      <trkpt lat="42.284212" lon="-8.791342">
        <ele>209.2</ele>
        <time>1970-01-01T01:29:27.000Z</time>
      </trkpt>
      <trkpt lat="42.284203" lon="-8.791348">
        <ele>209.2</ele>
        <time>1970-01-01T01:29:28.000Z</time>
      </trkpt>
      <trkpt lat="42.284197" lon="-8.791355">
        <ele>209.2</ele>
        <time>1970-01-01T01:29:29.000Z</time>
      </trkpt>
      <trkpt lat="42.284185" lon="-8.791368">
        <ele>209.2</ele>
        <time>1970-01-01T01:29:30.000Z</time>
      </trkpt>
      <trkpt lat="42.284172" lon="-8.791378">
        <ele>209.2</ele>
        <time>1970-01-01T01:29:31.000Z</time>
      </trkpt>
      <trkpt lat="42.284165" lon="-8.79139">
        <ele>208.3</ele>
        <time>1970-01-01T01:29:32.000Z</time>
      </trkpt>
      <trkpt lat="42.284157" lon="-8.791395">
        <ele>208.3</ele>
        <time>1970-01-01T01:29:33.000Z</time>
      </trkpt>
      <trkpt lat="42.28415" lon="-8.7914">
        <ele>208.3</ele>
        <time>1970-01-01T01:29:34.000Z</time>
      </trkpt>
      <trkpt lat="42.284142" lon="-8.791407">
        <ele>208.3</ele>
        <time>1970-01-01T01:29:35.000Z</time>
      </trkpt>
      <trkpt lat="42.284135" lon="-8.791412">
        <ele>208.3</ele>
        <time>1970-01-01T01:29:36.000Z</time>
      </trkpt>
      <trkpt lat="42.284127" lon="-8.791417">
        <ele>208.3</ele>
        <time>1970-01-01T01:29:37.000Z</time>
      </trkpt>
      <trkpt lat="42.284115" lon="-8.791427">
        <ele>208.3</ele>
        <time>1970-01-01T01:29:38.000Z</time>
      </trkpt>
      <trkpt lat="42.284103" lon="-8.791433">
        <ele>208.3</ele>
        <time>1970-01-01T01:29:39.000Z</time>
      </trkpt>
      <trkpt lat="42.284093" lon="-8.79144">
        <ele>208.3</ele>
        <time>1970-01-01T01:29:40.000Z</time>
      </trkpt>
      <trkpt lat="42.284085" lon="-8.791443">
        <ele>208.3</ele>
        <time>1970-01-01T01:29:41.000Z</time>
      </trkpt>
      <trkpt lat="42.284077" lon="-8.791448">
        <ele>207.3</ele>
        <time>1970-01-01T01:29:42.000Z</time>
      </trkpt>
      <trkpt lat="42.284068" lon="-8.791452">
        <ele>207.3</ele>
        <time>1970-01-01T01:29:43.000Z</time>
      </trkpt>
      <trkpt lat="42.28406" lon="-8.791455">
        <ele>207.3</ele>
        <time>1970-01-01T01:29:44.000Z</time>
      </trkpt>
      <trkpt lat="42.284052" lon="-8.791458">
        <ele>207.3</ele>
        <time>1970-01-01T01:29:45.000Z</time>
      </trkpt>
      <trkpt lat="42.284043" lon="-8.791463">
        <ele>207.3</ele>
        <time>1970-01-01T01:29:46.000Z</time>
      </trkpt>
      <trkpt lat="42.284033" lon="-8.791472">
        <ele>207.3</ele>
        <time>1970-01-01T01:29:47.000Z</time>
      </trkpt>
      <trkpt lat="42.284025" lon="-8.791477">
        <ele>206.2</ele>
        <time>1970-01-01T01:29:48.000Z</time>
      </trkpt>
      <trkpt lat="42.284013" lon="-8.791487">
        <ele>206.2</ele>
        <time>1970-01-01T01:29:49.000Z</time>
      </trkpt>
      <trkpt lat="42.284008" lon="-8.79149">
        <ele>205.3</ele>
        <time>1970-01-01T01:29:50.000Z</time>
      </trkpt>
      <trkpt lat="42.284005" lon="-8.791495">
        <ele>205.3</ele>
        <time>1970-01-01T01:29:51.000Z</time>
      </trkpt>
      <trkpt lat="42.284003" lon="-8.791497">
        <ele>205.3</ele>
        <time>1970-01-01T01:29:52.000Z</time>
      </trkpt>
      <trkpt lat="42.284002" lon="-8.7915">
        <ele>205.3</ele>
        <time>1970-01-01T01:29:53.000Z</time>
      </trkpt>
      <trkpt lat="42.283997" lon="-8.7915">
        <ele>205.3</ele>
        <time>1970-01-01T01:29:54.000Z</time>
      </trkpt>
      <trkpt lat="42.28399" lon="-8.791505">
        <ele>205.3</ele>
        <time>1970-01-01T01:29:55.000Z</time>
      </trkpt>
      <trkpt lat="42.283982" lon="-8.791513">
        <ele>205.3</ele>
        <time>1970-01-01T01:29:56.000Z</time>
      </trkpt>
      <trkpt lat="42.283968" lon="-8.791522">
        <ele>205.3</ele>
        <time>1970-01-01T01:29:57.000Z</time>
      </trkpt>
      <trkpt lat="42.283957" lon="-8.791525">
        <ele>205.3</ele>
        <time>1970-01-01T01:29:58.000Z</time>
      </trkpt>
      <trkpt lat="42.283943" lon="-8.791532">
        <ele>205.3</ele>
        <time>1970-01-01T01:29:59.000Z</time>
      </trkpt>
      <trkpt lat="42.283928" lon="-8.791533">
        <ele>205.3</ele>
        <time>1970-01-01T01:30:00.000Z</time>
      </trkpt>
      <trkpt lat="42.283918" lon="-8.791538">
        <ele>205.3</ele>
        <time>1970-01-01T01:30:01.000Z</time>
      </trkpt>
      <trkpt lat="42.28391" lon="-8.791543">
        <ele>204.2</ele>
        <time>1970-01-01T01:30:02.000Z</time>
      </trkpt>
      <trkpt lat="42.283898" lon="-8.79155">
        <ele>204.2</ele>
        <time>1970-01-01T01:30:03.000Z</time>
      </trkpt>
      <trkpt lat="42.283888" lon="-8.79156">
        <ele>204.2</ele>
        <time>1970-01-01T01:30:04.000Z</time>
      </trkpt>
      <trkpt lat="42.283877" lon="-8.791567">
        <ele>204.2</ele>
        <time>1970-01-01T01:30:05.000Z</time>
      </trkpt>
      <trkpt lat="42.283867" lon="-8.791577">
        <ele>204.2</ele>
        <time>1970-01-01T01:30:06.000Z</time>
      </trkpt>
      <trkpt lat="42.283858" lon="-8.791585">
        <ele>204.2</ele>
        <time>1970-01-01T01:30:07.000Z</time>
      </trkpt>
      <trkpt lat="42.28385" lon="-8.791593">
        <ele>203.3</ele>
        <time>1970-01-01T01:30:08.000Z</time>
      </trkpt>
      <trkpt lat="42.283842" lon="-8.7916">
        <ele>203.3</ele>
        <time>1970-01-01T01:30:09.000Z</time>
      </trkpt>
      <trkpt lat="42.283833" lon="-8.791607">
        <ele>203.3</ele>
        <time>1970-01-01T01:30:10.000Z</time>
      </trkpt>
      <trkpt lat="42.283825" lon="-8.791613">
        <ele>203.3</ele>
        <time>1970-01-01T01:30:11.000Z</time>
      </trkpt>
      <trkpt lat="42.283818" lon="-8.79162">
        <ele>203.3</ele>
        <time>1970-01-01T01:30:12.000Z</time>
      </trkpt>
      <trkpt lat="42.28381" lon="-8.791622">
        <ele>203.3</ele>
        <time>1970-01-01T01:30:13.000Z</time>
      </trkpt>
      <trkpt lat="42.283805" lon="-8.791625">
        <ele>203.3</ele>
        <time>1970-01-01T01:30:14.000Z</time>
      </trkpt>
      <trkpt lat="42.283797" lon="-8.791627">
        <ele>203.3</ele>
        <time>1970-01-01T01:30:15.000Z</time>
      </trkpt>
      <trkpt lat="42.283788" lon="-8.791635">
        <ele>203.3</ele>
        <time>1970-01-01T01:30:16.000Z</time>
      </trkpt>
      <trkpt lat="42.28378" lon="-8.791642">
        <ele>203.3</ele>
        <time>1970-01-01T01:30:17.000Z</time>
      </trkpt>
      <trkpt lat="42.283773" lon="-8.791643">
        <ele>203.3</ele>
        <time>1970-01-01T01:30:18.000Z</time>
      </trkpt>
      <trkpt lat="42.283768" lon="-8.791645">
        <ele>203.3</ele>
        <time>1970-01-01T01:30:19.000Z</time>
      </trkpt>
      <trkpt lat="42.283763" lon="-8.79165">
        <ele>203.3</ele>
        <time>1970-01-01T01:30:20.000Z</time>
      </trkpt>
      <trkpt lat="42.283753" lon="-8.791653">
        <ele>203.3</ele>
        <time>1970-01-01T01:30:21.000Z</time>
      </trkpt>
      <trkpt lat="42.28375" lon="-8.791655">
        <ele>201.3</ele>
        <time>1970-01-01T01:30:22.000Z</time>
      </trkpt>
      <trkpt lat="42.283747" lon="-8.791658">
        <ele>201.3</ele>
        <time>1970-01-01T01:30:23.000Z</time>
      </trkpt>
      <trkpt lat="42.28374" lon="-8.79166">
        <ele>201.3</ele>
        <time>1970-01-01T01:30:24.000Z</time>
      </trkpt>
      <trkpt lat="42.283733" lon="-8.79166">
        <ele>201.3</ele>
        <time>1970-01-01T01:30:25.000Z</time>
      </trkpt>
      <trkpt lat="42.283723" lon="-8.791663">
        <ele>201.3</ele>
        <time>1970-01-01T01:30:26.000Z</time>
      </trkpt>
      <trkpt lat="42.283713" lon="-8.79167">
        <ele>201.3</ele>
        <time>1970-01-01T01:30:27.000Z</time>
      </trkpt>
      <trkpt lat="42.283705" lon="-8.791675">
        <ele>201.3</ele>
        <time>1970-01-01T01:30:28.000Z</time>
      </trkpt>
      <trkpt lat="42.283697" lon="-8.791677">
        <ele>201.3</ele>
        <time>1970-01-01T01:30:29.000Z</time>
      </trkpt>
      <trkpt lat="42.283693" lon="-8.79168">
        <ele>200.3</ele>
        <time>1970-01-01T01:30:30.000Z</time>
      </trkpt>
      <trkpt lat="42.28369" lon="-8.791682">
        <ele>200.3</ele>
        <time>1970-01-01T01:30:31.000Z</time>
      </trkpt>
      <trkpt lat="42.283687" lon="-8.791683">
        <ele>200.3</ele>
        <time>1970-01-01T01:30:32.000Z</time>
      </trkpt>
      <trkpt lat="42.283682" lon="-8.791685">
        <ele>200.3</ele>
        <time>1970-01-01T01:30:33.000Z</time>
      </trkpt>
      <trkpt lat="42.283675" lon="-8.791688">
        <ele>199.3</ele>
        <time>1970-01-01T01:30:34.000Z</time>
      </trkpt>
      <trkpt lat="42.283668" lon="-8.791692">
        <ele>199.3</ele>
        <time>1970-01-01T01:30:35.000Z</time>
      </trkpt>
      <trkpt lat="42.283662" lon="-8.791695">
        <ele>199.3</ele>
        <time>1970-01-01T01:30:36.000Z</time>
      </trkpt>
      <trkpt lat="42.283655" lon="-8.791698">
        <ele>199.3</ele>
        <time>1970-01-01T01:30:37.000Z</time>
      </trkpt>
      <trkpt lat="42.283648" lon="-8.791705">
        <ele>199.3</ele>
        <time>1970-01-01T01:30:38.000Z</time>
      </trkpt>
      <trkpt lat="42.283642" lon="-8.791712">
        <ele>199.3</ele>
        <time>1970-01-01T01:30:39.000Z</time>
      </trkpt>
      <trkpt lat="42.283633" lon="-8.791717">
        <ele>199.3</ele>
        <time>1970-01-01T01:30:40.000Z</time>
      </trkpt>
      <trkpt lat="42.283627" lon="-8.791717">
        <ele>199.3</ele>
        <time>1970-01-01T01:30:41.000Z</time>
      </trkpt>
      <trkpt lat="42.283618" lon="-8.79172">
        <ele>199.3</ele>
        <time>1970-01-01T01:30:42.000Z</time>
      </trkpt>
      <trkpt lat="42.28361" lon="-8.791725">
        <ele>199.3</ele>
        <time>1970-01-01T01:30:43.000Z</time>
      </trkpt>
      <trkpt lat="42.283598" lon="-8.791735">
        <ele>197.2</ele>
        <time>1970-01-01T01:30:44.000Z</time>
      </trkpt>
      <trkpt lat="42.283593" lon="-8.791742">
        <ele>197.2</ele>
        <time>1970-01-01T01:30:45.000Z</time>
      </trkpt>
      <trkpt lat="42.283592" lon="-8.791745">
        <ele>197.2</ele>
        <time>1970-01-01T01:30:46.000Z</time>
      </trkpt>
      <trkpt lat="42.283585" lon="-8.791753">
        <ele>197.2</ele>
        <time>1970-01-01T01:30:47.000Z</time>
      </trkpt>
      <trkpt lat="42.283577" lon="-8.791758">
        <ele>197.2</ele>
        <time>1970-01-01T01:30:48.000Z</time>
      </trkpt>
      <trkpt lat="42.283572" lon="-8.791768">
        <ele>197.2</ele>
        <time>1970-01-01T01:30:49.000Z</time>
      </trkpt>
      <trkpt lat="42.283567" lon="-8.791775">
        <ele>197.2</ele>
        <time>1970-01-01T01:30:50.000Z</time>
      </trkpt>
      <trkpt lat="42.283562" lon="-8.791783">
        <ele>197.2</ele>
        <time>1970-01-01T01:30:51.000Z</time>
      </trkpt>
      <trkpt lat="42.283557" lon="-8.791795">
        <ele>196.3</ele>
        <time>1970-01-01T01:30:52.000Z</time>
      </trkpt>
      <trkpt lat="42.283552" lon="-8.791807">
        <ele>196.3</ele>
        <time>1970-01-01T01:30:53.000Z</time>
      </trkpt>
      <trkpt lat="42.283543" lon="-8.791818">
        <ele>196.3</ele>
        <time>1970-01-01T01:30:54.000Z</time>
      </trkpt>
      <trkpt lat="42.283532" lon="-8.791838">
        <ele>196.3</ele>
        <time>1970-01-01T01:30:55.000Z</time>
      </trkpt>
      <trkpt lat="42.283527" lon="-8.791858">
        <ele>196.3</ele>
        <time>1970-01-01T01:30:56.000Z</time>
      </trkpt>
      <trkpt lat="42.283523" lon="-8.791878">
        <ele>196.3</ele>
        <time>1970-01-01T01:30:57.000Z</time>
      </trkpt>
      <trkpt lat="42.28352" lon="-8.791897">
        <ele>196.3</ele>
        <time>1970-01-01T01:30:58.000Z</time>
      </trkpt>
      <trkpt lat="42.28352" lon="-8.791912">
        <ele>196.3</ele>
        <time>1970-01-01T01:30:59.000Z</time>
      </trkpt>
      <trkpt lat="42.283522" lon="-8.791927">
        <ele>196.3</ele>
        <time>1970-01-01T01:31:00.000Z</time>
      </trkpt>
      <trkpt lat="42.283522" lon="-8.791943">
        <ele>196.3</ele>
        <time>1970-01-01T01:31:01.000Z</time>
      </trkpt>
      <trkpt lat="42.28352" lon="-8.79196">
        <ele>196.3</ele>
        <time>1970-01-01T01:31:02.000Z</time>
      </trkpt>
      <trkpt lat="42.283518" lon="-8.791975">
        <ele>196.3</ele>
        <time>1970-01-01T01:31:03.000Z</time>
      </trkpt>
      <trkpt lat="42.283517" lon="-8.791992">
        <ele>195.2</ele>
        <time>1970-01-01T01:31:04.000Z</time>
      </trkpt>
      <trkpt lat="42.283515" lon="-8.792003">
        <ele>195.2</ele>
        <time>1970-01-01T01:31:05.000Z</time>
      </trkpt>
      <trkpt lat="42.283515" lon="-8.792013">
        <ele>195.2</ele>
        <time>1970-01-01T01:31:06.000Z</time>
      </trkpt>
      <trkpt lat="42.283513" lon="-8.792023">
        <ele>195.2</ele>
        <time>1970-01-01T01:31:07.000Z</time>
      </trkpt>
      <trkpt lat="42.28351" lon="-8.792033">
        <ele>195.2</ele>
        <time>1970-01-01T01:31:08.000Z</time>
      </trkpt>
      <trkpt lat="42.283507" lon="-8.79204">
        <ele>195.2</ele>
        <time>1970-01-01T01:31:09.000Z</time>
      </trkpt>
      <trkpt lat="42.283505" lon="-8.792042">
        <ele>194.3</ele>
        <time>1970-01-01T01:31:10.000Z</time>
      </trkpt>
      <trkpt lat="42.283503" lon="-8.792045">
        <ele>194.3</ele>
        <time>1970-01-01T01:31:11.000Z</time>
      </trkpt>
      <trkpt lat="42.283502" lon="-8.792047">
        <ele>194.3</ele>
        <time>1970-01-01T01:31:12.000Z</time>
      </trkpt>
      <trkpt lat="42.283497" lon="-8.792047">
        <ele>194.3</ele>
        <time>1970-01-01T01:31:13.000Z</time>
      </trkpt>
      <trkpt lat="42.283493" lon="-8.792047">
        <ele>194.3</ele>
        <time>1970-01-01T01:31:14.000Z</time>
      </trkpt>
      <trkpt lat="42.283488" lon="-8.792043">
        <ele>194.3</ele>
        <time>1970-01-01T01:31:15.000Z</time>
      </trkpt>
      <trkpt lat="42.283482" lon="-8.792042">
        <ele>194.3</ele>
        <time>1970-01-01T01:31:16.000Z</time>
      </trkpt>
      <trkpt lat="42.283473" lon="-8.792037">
        <ele>194.3</ele>
        <time>1970-01-01T01:31:17.000Z</time>
      </trkpt>
      <trkpt lat="42.283467" lon="-8.792027">
        <ele>193.2</ele>
        <time>1970-01-01T01:31:18.000Z</time>
      </trkpt>
      <trkpt lat="42.283458" lon="-8.79202">
        <ele>193.2</ele>
        <time>1970-01-01T01:31:19.000Z</time>
      </trkpt>
      <trkpt lat="42.283452" lon="-8.792018">
        <ele>193.2</ele>
        <time>1970-01-01T01:31:20.000Z</time>
      </trkpt>
      <trkpt lat="42.283447" lon="-8.792022">
        <ele>193.2</ele>
        <time>1970-01-01T01:31:21.000Z</time>
      </trkpt>
      <trkpt lat="42.283442" lon="-8.792032">
        <ele>192.3</ele>
        <time>1970-01-01T01:31:22.000Z</time>
      </trkpt>
      <trkpt lat="42.283442" lon="-8.792047">
        <ele>192.3</ele>
        <time>1970-01-01T01:31:23.000Z</time>
      </trkpt>
      <trkpt lat="42.28344" lon="-8.792058">
        <ele>192.3</ele>
        <time>1970-01-01T01:31:24.000Z</time>
      </trkpt>
      <trkpt lat="42.28344" lon="-8.792068">
        <ele>192.3</ele>
        <time>1970-01-01T01:31:25.000Z</time>
      </trkpt>
      <trkpt lat="42.283438" lon="-8.792083">
        <ele>191.3</ele>
        <time>1970-01-01T01:31:26.000Z</time>
      </trkpt>
      <trkpt lat="42.283433" lon="-8.7921">
        <ele>191.3</ele>
        <time>1970-01-01T01:31:27.000Z</time>
      </trkpt>
      <trkpt lat="42.283427" lon="-8.79211">
        <ele>191.3</ele>
        <time>1970-01-01T01:31:28.000Z</time>
      </trkpt>
      <trkpt lat="42.283423" lon="-8.792115">
        <ele>191.3</ele>
        <time>1970-01-01T01:31:29.000Z</time>
      </trkpt>
      <trkpt lat="42.283423" lon="-8.79211">
        <ele>191.3</ele>
        <time>1970-01-01T01:31:30.000Z</time>
      </trkpt>
      <trkpt lat="42.28342" lon="-8.792113">
        <ele>191.3</ele>
        <time>1970-01-01T01:31:31.000Z</time>
      </trkpt>
      <trkpt lat="42.283415" lon="-8.792113">
        <ele>191.3</ele>
        <time>1970-01-01T01:31:32.000Z</time>
      </trkpt>
      <trkpt lat="42.283412" lon="-8.792108">
        <ele>191.3</ele>
        <time>1970-01-01T01:31:33.000Z</time>
      </trkpt>
      <trkpt lat="42.283407" lon="-8.792112">
        <ele>191.3</ele>
        <time>1970-01-01T01:31:34.000Z</time>
      </trkpt>
      <trkpt lat="42.2834" lon="-8.792112">
        <ele>191.3</ele>
        <time>1970-01-01T01:31:35.000Z</time>
      </trkpt>
      <trkpt lat="42.283395" lon="-8.792115">
        <ele>191.3</ele>
        <time>1970-01-01T01:31:36.000Z</time>
      </trkpt>
      <trkpt lat="42.28339" lon="-8.792117">
        <ele>191.3</ele>
        <time>1970-01-01T01:31:37.000Z</time>
      </trkpt>
      <trkpt lat="42.283377" lon="-8.792122">
        <ele>191.3</ele>
        <time>1970-01-01T01:31:38.000Z</time>
      </trkpt>
      <trkpt lat="42.283372" lon="-8.792122">
        <ele>191.3</ele>
        <time>1970-01-01T01:31:39.000Z</time>
      </trkpt>
      <trkpt lat="42.283368" lon="-8.792123">
        <ele>191.3</ele>
        <time>1970-01-01T01:31:40.000Z</time>
      </trkpt>
      <trkpt lat="42.283365" lon="-8.792127">
        <ele>191.3</ele>
        <time>1970-01-01T01:31:41.000Z</time>
      </trkpt>
      <trkpt lat="42.283363" lon="-8.792132">
        <ele>191.3</ele>
        <time>1970-01-01T01:31:42.000Z</time>
      </trkpt>
      <trkpt lat="42.283358" lon="-8.792133">
        <ele>191.3</ele>
        <time>1970-01-01T01:31:43.000Z</time>
      </trkpt>
      <trkpt lat="42.283352" lon="-8.792138">
        <ele>191.3</ele>
        <time>1970-01-01T01:31:44.000Z</time>
      </trkpt>
      <trkpt lat="42.283345" lon="-8.792147">
        <ele>191.3</ele>
        <time>1970-01-01T01:31:45.000Z</time>
      </trkpt>
      <trkpt lat="42.283342" lon="-8.792155">
        <ele>188.2</ele>
        <time>1970-01-01T01:31:46.000Z</time>
      </trkpt>
      <trkpt lat="42.283338" lon="-8.792165">
        <ele>188.2</ele>
        <time>1970-01-01T01:31:47.000Z</time>
      </trkpt>
      <trkpt lat="42.283337" lon="-8.792175">
        <ele>188.2</ele>
        <time>1970-01-01T01:31:48.000Z</time>
      </trkpt>
      <trkpt lat="42.283337" lon="-8.792182">
        <ele>188.2</ele>
        <time>1970-01-01T01:31:49.000Z</time>
      </trkpt>
      <trkpt lat="42.283333" lon="-8.79219">
        <ele>188.2</ele>
        <time>1970-01-01T01:31:50.000Z</time>
      </trkpt>
      <trkpt lat="42.283332" lon="-8.792197">
        <ele>188.2</ele>
        <time>1970-01-01T01:31:51.000Z</time>
      </trkpt>
      <trkpt lat="42.283323" lon="-8.792207">
        <ele>187.3</ele>
        <time>1970-01-01T01:31:52.000Z</time>
      </trkpt>
      <trkpt lat="42.283318" lon="-8.792218">
        <ele>187.3</ele>
        <time>1970-01-01T01:31:53.000Z</time>
      </trkpt>
      <trkpt lat="42.283313" lon="-8.792233">
        <ele>187.3</ele>
        <time>1970-01-01T01:31:54.000Z</time>
      </trkpt>
      <trkpt lat="42.283312" lon="-8.792247">
        <ele>187.3</ele>
        <time>1970-01-01T01:31:55.000Z</time>
      </trkpt>
      <trkpt lat="42.283312" lon="-8.792257">
        <ele>187.3</ele>
        <time>1970-01-01T01:31:56.000Z</time>
      </trkpt>
      <trkpt lat="42.283313" lon="-8.792265">
        <ele>187.3</ele>
        <time>1970-01-01T01:31:57.000Z</time>
      </trkpt>
      <trkpt lat="42.283313" lon="-8.792273">
        <ele>186.2</ele>
        <time>1970-01-01T01:31:58.000Z</time>
      </trkpt>
      <trkpt lat="42.283312" lon="-8.792277">
        <ele>186.2</ele>
        <time>1970-01-01T01:31:59.000Z</time>
      </trkpt>
      <trkpt lat="42.283308" lon="-8.79228">
        <ele>186.2</ele>
        <time>1970-01-01T01:32:00.000Z</time>
      </trkpt>
      <trkpt lat="42.28331" lon="-8.792283">
        <ele>186.2</ele>
        <time>1970-01-01T01:32:01.000Z</time>
      </trkpt>
      <trkpt lat="42.283312" lon="-8.792285">
        <ele>185.3</ele>
        <time>1970-01-01T01:32:02.000Z</time>
      </trkpt>
      <trkpt lat="42.28331" lon="-8.79229">
        <ele>185.3</ele>
        <time>1970-01-01T01:32:03.000Z</time>
      </trkpt>
      <trkpt lat="42.28331" lon="-8.792293">
        <ele>185.3</ele>
        <time>1970-01-01T01:32:04.000Z</time>
      </trkpt>
      <trkpt lat="42.283307" lon="-8.792303">
        <ele>185.3</ele>
        <time>1970-01-01T01:32:05.000Z</time>
      </trkpt>
      <trkpt lat="42.283303" lon="-8.792312">
        <ele>184.3</ele>
        <time>1970-01-01T01:32:06.000Z</time>
      </trkpt>
      <trkpt lat="42.283297" lon="-8.792323">
        <ele>184.3</ele>
        <time>1970-01-01T01:32:07.000Z</time>
      </trkpt>
      <trkpt lat="42.28329" lon="-8.792335">
        <ele>184.3</ele>
        <time>1970-01-01T01:32:08.000Z</time>
      </trkpt>
      <trkpt lat="42.283282" lon="-8.792343">
        <ele>184.3</ele>
        <time>1970-01-01T01:32:09.000Z</time>
      </trkpt>
      <trkpt lat="42.283272" lon="-8.792348">
        <ele>183.3</ele>
        <time>1970-01-01T01:32:10.000Z</time>
      </trkpt>
      <trkpt lat="42.283263" lon="-8.792348">
        <ele>183.3</ele>
        <time>1970-01-01T01:32:11.000Z</time>
      </trkpt>
      <trkpt lat="42.283255" lon="-8.792348">
        <ele>183.3</ele>
        <time>1970-01-01T01:32:12.000Z</time>
      </trkpt>
      <trkpt lat="42.283247" lon="-8.79235">
        <ele>183.3</ele>
        <time>1970-01-01T01:32:13.000Z</time>
      </trkpt>
      <trkpt lat="42.283238" lon="-8.792353">
        <ele>183.3</ele>
        <time>1970-01-01T01:32:14.000Z</time>
      </trkpt>
      <trkpt lat="42.283233" lon="-8.792357">
        <ele>183.3</ele>
        <time>1970-01-01T01:32:15.000Z</time>
      </trkpt>
      <trkpt lat="42.28323" lon="-8.792358">
        <ele>183.3</ele>
        <time>1970-01-01T01:32:16.000Z</time>
      </trkpt>
      <trkpt lat="42.283228" lon="-8.79236">
        <ele>183.3</ele>
        <time>1970-01-01T01:32:17.000Z</time>
      </trkpt>
      <trkpt lat="42.283225" lon="-8.792362">
        <ele>183.3</ele>
        <time>1970-01-01T01:32:18.000Z</time>
      </trkpt>
      <trkpt lat="42.283223" lon="-8.792363">
        <ele>183.3</ele>
        <time>1970-01-01T01:32:19.000Z</time>
      </trkpt>
      <trkpt lat="42.283222" lon="-8.792365">
        <ele>182.3</ele>
        <time>1970-01-01T01:32:20.000Z</time>
      </trkpt>
      <trkpt lat="42.28322" lon="-8.792368">
        <ele>182.3</ele>
        <time>1970-01-01T01:32:21.000Z</time>
      </trkpt>
      <trkpt lat="42.283218" lon="-8.792372">
        <ele>182.3</ele>
        <time>1970-01-01T01:32:22.000Z</time>
      </trkpt>
      <trkpt lat="42.283217" lon="-8.792373">
        <ele>182.3</ele>
        <time>1970-01-01T01:32:23.000Z</time>
      </trkpt>
      <trkpt lat="42.283213" lon="-8.792377">
        <ele>181.2</ele>
        <time>1970-01-01T01:32:24.000Z</time>
      </trkpt>
      <trkpt lat="42.283208" lon="-8.79238">
        <ele>181.2</ele>
        <time>1970-01-01T01:32:25.000Z</time>
      </trkpt>
      <trkpt lat="42.283207" lon="-8.792382">
        <ele>181.2</ele>
        <time>1970-01-01T01:32:26.000Z</time>
      </trkpt>
      <trkpt lat="42.283202" lon="-8.792388">
        <ele>181.2</ele>
        <time>1970-01-01T01:32:27.000Z</time>
      </trkpt>
      <trkpt lat="42.283197" lon="-8.792392">
        <ele>181.2</ele>
        <time>1970-01-01T01:32:28.000Z</time>
      </trkpt>
      <trkpt lat="42.283193" lon="-8.792393">
        <ele>181.2</ele>
        <time>1970-01-01T01:32:29.000Z</time>
      </trkpt>
      <trkpt lat="42.283187" lon="-8.792395">
        <ele>181.2</ele>
        <time>1970-01-01T01:32:30.000Z</time>
      </trkpt>
      <trkpt lat="42.283182" lon="-8.792393">
        <ele>181.2</ele>
        <time>1970-01-01T01:32:31.000Z</time>
      </trkpt>
      <trkpt lat="42.283175" lon="-8.792392">
        <ele>180.3</ele>
        <time>1970-01-01T01:32:32.000Z</time>
      </trkpt>
      <trkpt lat="42.283168" lon="-8.79239">
        <ele>180.3</ele>
        <time>1970-01-01T01:32:33.000Z</time>
      </trkpt>
      <trkpt lat="42.28316" lon="-8.79239">
        <ele>179.2</ele>
        <time>1970-01-01T01:32:34.000Z</time>
      </trkpt>
      <trkpt lat="42.28315" lon="-8.792392">
        <ele>179.2</ele>
        <time>1970-01-01T01:32:35.000Z</time>
      </trkpt>
      <trkpt lat="42.283143" lon="-8.792392">
        <ele>179.2</ele>
        <time>1970-01-01T01:32:36.000Z</time>
      </trkpt>
      <trkpt lat="42.283135" lon="-8.792395">
        <ele>178.3</ele>
        <time>1970-01-01T01:32:37.000Z</time>
      </trkpt>
      <trkpt lat="42.283132" lon="-8.792397">
        <ele>178.3</ele>
        <time>1970-01-01T01:32:38.000Z</time>
      </trkpt>
      <trkpt lat="42.283128" lon="-8.792402">
        <ele>178.3</ele>
        <time>1970-01-01T01:32:39.000Z</time>
      </trkpt>
      <trkpt lat="42.283127" lon="-8.792408">
        <ele>178.3</ele>
        <time>1970-01-01T01:32:40.000Z</time>
      </trkpt>
      <trkpt lat="42.283123" lon="-8.792418">
        <ele>178.3</ele>
        <time>1970-01-01T01:32:41.000Z</time>
      </trkpt>
      <trkpt lat="42.28312" lon="-8.792425">
        <ele>178.3</ele>
        <time>1970-01-01T01:32:42.000Z</time>
      </trkpt>
      <trkpt lat="42.283112" lon="-8.792432">
        <ele>176.3</ele>
        <time>1970-01-01T01:32:43.000Z</time>
      </trkpt>
      <trkpt lat="42.283107" lon="-8.792435">
        <ele>176.3</ele>
        <time>1970-01-01T01:32:44.000Z</time>
      </trkpt>
      <trkpt lat="42.283102" lon="-8.792437">
        <ele>176.3</ele>
        <time>1970-01-01T01:32:45.000Z</time>
      </trkpt>
      <trkpt lat="42.283093" lon="-8.792435">
        <ele>176.3</ele>
        <time>1970-01-01T01:32:46.000Z</time>
      </trkpt>
      <trkpt lat="42.283085" lon="-8.792438">
        <ele>175.3</ele>
        <time>1970-01-01T01:32:47.000Z</time>
      </trkpt>
      <trkpt lat="42.283078" lon="-8.792445">
        <ele>175.3</ele>
        <time>1970-01-01T01:32:48.000Z</time>
      </trkpt>
      <trkpt lat="42.283075" lon="-8.792448">
        <ele>175.3</ele>
        <time>1970-01-01T01:32:49.000Z</time>
      </trkpt>
      <trkpt lat="42.283072" lon="-8.792452">
        <ele>175.3</ele>
        <time>1970-01-01T01:32:50.000Z</time>
      </trkpt>
      <trkpt lat="42.283067" lon="-8.79245">
        <ele>174.2</ele>
        <time>1970-01-01T01:32:51.000Z</time>
      </trkpt>
      <trkpt lat="42.28306" lon="-8.792448">
        <ele>174.2</ele>
        <time>1970-01-01T01:32:52.000Z</time>
      </trkpt>
      <trkpt lat="42.28305" lon="-8.792453">
        <ele>174.2</ele>
        <time>1970-01-01T01:32:53.000Z</time>
      </trkpt>
      <trkpt lat="42.283038" lon="-8.79246">
        <ele>174.2</ele>
        <time>1970-01-01T01:32:54.000Z</time>
      </trkpt>
      <trkpt lat="42.283035" lon="-8.79246">
        <ele>174.2</ele>
        <time>1970-01-01T01:32:55.000Z</time>
      </trkpt>
      <trkpt lat="42.283032" lon="-8.792462">
        <ele>174.2</ele>
        <time>1970-01-01T01:32:56.000Z</time>
      </trkpt>
      <trkpt lat="42.283028" lon="-8.792462">
        <ele>174.2</ele>
        <time>1970-01-01T01:32:57.000Z</time>
      </trkpt>
      <trkpt lat="42.283027" lon="-8.792462">
        <ele>174.2</ele>
        <time>1970-01-01T01:32:58.000Z</time>
      </trkpt>
      <trkpt lat="42.283015" lon="-8.792465">
        <ele>174.2</ele>
        <time>1970-01-01T01:32:59.000Z</time>
      </trkpt>
      <trkpt lat="42.283005" lon="-8.792463">
        <ele>174.2</ele>
        <time>1970-01-01T01:33:00.000Z</time>
      </trkpt>
      <trkpt lat="42.282997" lon="-8.792463">
        <ele>171.3</ele>
        <time>1970-01-01T01:33:01.000Z</time>
      </trkpt>
      <trkpt lat="42.282985" lon="-8.792472">
        <ele>171.3</ele>
        <time>1970-01-01T01:33:02.000Z</time>
      </trkpt>
      <trkpt lat="42.282972" lon="-8.79248">
        <ele>171.3</ele>
        <time>1970-01-01T01:33:03.000Z</time>
      </trkpt>
      <trkpt lat="42.282962" lon="-8.792485">
        <ele>171.3</ele>
        <time>1970-01-01T01:33:04.000Z</time>
      </trkpt>
      <trkpt lat="42.282948" lon="-8.792498">
        <ele>171.3</ele>
        <time>1970-01-01T01:33:05.000Z</time>
      </trkpt>
      <trkpt lat="42.282937" lon="-8.792507">
        <ele>171.3</ele>
        <time>1970-01-01T01:33:06.000Z</time>
      </trkpt>
      <trkpt lat="42.282928" lon="-8.792508">
        <ele>171.3</ele>
        <time>1970-01-01T01:33:07.000Z</time>
      </trkpt>
      <trkpt lat="42.282925" lon="-8.792515">
        <ele>171.3</ele>
        <time>1970-01-01T01:33:08.000Z</time>
      </trkpt>
      <trkpt lat="42.282922" lon="-8.792518">
        <ele>171.3</ele>
        <time>1970-01-01T01:33:09.000Z</time>
      </trkpt>
      <trkpt lat="42.282917" lon="-8.792522">
        <ele>171.3</ele>
        <time>1970-01-01T01:33:10.000Z</time>
      </trkpt>
      <trkpt lat="42.28291" lon="-8.792515">
        <ele>171.3</ele>
        <time>1970-01-01T01:33:11.000Z</time>
      </trkpt>
      <trkpt lat="42.282907" lon="-8.79251">
        <ele>171.3</ele>
        <time>1970-01-01T01:33:12.000Z</time>
      </trkpt>
      <trkpt lat="42.282898" lon="-8.792507">
        <ele>170.2</ele>
        <time>1970-01-01T01:33:13.000Z</time>
      </trkpt>
      <trkpt lat="42.282888" lon="-8.792507">
        <ele>170.2</ele>
        <time>1970-01-01T01:33:14.000Z</time>
      </trkpt>
      <trkpt lat="42.282878" lon="-8.792513">
        <ele>170.2</ele>
        <time>1970-01-01T01:33:15.000Z</time>
      </trkpt>
      <trkpt lat="42.282868" lon="-8.792517">
        <ele>170.2</ele>
        <time>1970-01-01T01:33:16.000Z</time>
      </trkpt>
      <trkpt lat="42.282862" lon="-8.792528">
        <ele>169.3</ele>
        <time>1970-01-01T01:33:17.000Z</time>
      </trkpt>
      <trkpt lat="42.282855" lon="-8.792538">
        <ele>169.3</ele>
        <time>1970-01-01T01:33:18.000Z</time>
      </trkpt>
      <trkpt lat="42.282852" lon="-8.79254">
        <ele>168.3</ele>
        <time>1970-01-01T01:33:19.000Z</time>
      </trkpt>
      <trkpt lat="42.282843" lon="-8.792533">
        <ele>168.3</ele>
        <time>1970-01-01T01:33:20.000Z</time>
      </trkpt>
      <trkpt lat="42.282837" lon="-8.792523">
        <ele>168.3</ele>
        <time>1970-01-01T01:33:21.000Z</time>
      </trkpt>
      <trkpt lat="42.28283" lon="-8.792523">
        <ele>168.3</ele>
        <time>1970-01-01T01:33:22.000Z</time>
      </trkpt>
      <trkpt lat="42.282825" lon="-8.792525">
        <ele>167.3</ele>
        <time>1970-01-01T01:33:23.000Z</time>
      </trkpt>
      <trkpt lat="42.28282" lon="-8.792528">
        <ele>167.3</ele>
        <time>1970-01-01T01:33:24.000Z</time>
      </trkpt>
      <trkpt lat="42.282812" lon="-8.792538">
        <ele>167.3</ele>
        <time>1970-01-01T01:33:25.000Z</time>
      </trkpt>
      <trkpt lat="42.282808" lon="-8.792538">
        <ele>167.3</ele>
        <time>1970-01-01T01:33:26.000Z</time>
      </trkpt>
      <trkpt lat="42.282812" lon="-8.792542">
        <ele>166.3</ele>
        <time>1970-01-01T01:33:27.000Z</time>
      </trkpt>
      <trkpt lat="42.28281" lon="-8.792545">
        <ele>166.3</ele>
        <time>1970-01-01T01:33:28.000Z</time>
      </trkpt>
      <trkpt lat="42.28281" lon="-8.792547">
        <ele>166.3</ele>
        <time>1970-01-01T01:33:29.000Z</time>
      </trkpt>
      <trkpt lat="42.282808" lon="-8.792548">
        <ele>166.3</ele>
        <time>1970-01-01T01:33:30.000Z</time>
      </trkpt>
      <trkpt lat="42.282807" lon="-8.792553">
        <ele>165.2</ele>
        <time>1970-01-01T01:33:31.000Z</time>
      </trkpt>
      <trkpt lat="42.282802" lon="-8.792557">
        <ele>165.2</ele>
        <time>1970-01-01T01:33:32.000Z</time>
      </trkpt>
      <trkpt lat="42.282798" lon="-8.792557">
        <ele>165.2</ele>
        <time>1970-01-01T01:33:33.000Z</time>
      </trkpt>
      <trkpt lat="42.282793" lon="-8.79256">
        <ele>165.2</ele>
        <time>1970-01-01T01:33:34.000Z</time>
      </trkpt>
      <trkpt lat="42.282787" lon="-8.792563">
        <ele>165.2</ele>
        <time>1970-01-01T01:33:35.000Z</time>
      </trkpt>
      <trkpt lat="42.28278" lon="-8.792565">
        <ele>165.2</ele>
        <time>1970-01-01T01:33:36.000Z</time>
      </trkpt>
      <trkpt lat="42.282773" lon="-8.792573">
        <ele>165.2</ele>
        <time>1970-01-01T01:33:37.000Z</time>
      </trkpt>
      <trkpt lat="42.282767" lon="-8.79258">
        <ele>165.2</ele>
        <time>1970-01-01T01:33:38.000Z</time>
      </trkpt>
      <trkpt lat="42.282763" lon="-8.792592">
        <ele>164.3</ele>
        <time>1970-01-01T01:33:39.000Z</time>
      </trkpt>
      <trkpt lat="42.28276" lon="-8.792605">
        <ele>164.3</ele>
        <time>1970-01-01T01:33:40.000Z</time>
      </trkpt>
      <trkpt lat="42.282757" lon="-8.792612">
        <ele>164.3</ele>
        <time>1970-01-01T01:33:41.000Z</time>
      </trkpt>
      <trkpt lat="42.282752" lon="-8.792617">
        <ele>164.3</ele>
        <time>1970-01-01T01:33:42.000Z</time>
      </trkpt>
      <trkpt lat="42.282748" lon="-8.79262">
        <ele>163.2</ele>
        <time>1970-01-01T01:33:43.000Z</time>
      </trkpt>
      <trkpt lat="42.282742" lon="-8.792623">
        <ele>163.2</ele>
        <time>1970-01-01T01:33:44.000Z</time>
      </trkpt>
      <trkpt lat="42.282733" lon="-8.792622">
        <ele>163.2</ele>
        <time>1970-01-01T01:33:45.000Z</time>
      </trkpt>
      <trkpt lat="42.282718" lon="-8.792623">
        <ele>163.2</ele>
        <time>1970-01-01T01:33:46.000Z</time>
      </trkpt>
      <trkpt lat="42.282708" lon="-8.792623">
        <ele>162.3</ele>
        <time>1970-01-01T01:33:47.000Z</time>
      </trkpt>
      <trkpt lat="42.282698" lon="-8.792615">
        <ele>162.3</ele>
        <time>1970-01-01T01:33:48.000Z</time>
      </trkpt>
      <trkpt lat="42.282687" lon="-8.792605">
        <ele>162.3</ele>
        <time>1970-01-01T01:33:49.000Z</time>
      </trkpt>
      <trkpt lat="42.282678" lon="-8.792603">
        <ele>162.3</ele>
        <time>1970-01-01T01:33:50.000Z</time>
      </trkpt>
      <trkpt lat="42.282668" lon="-8.792603">
        <ele>161.2</ele>
        <time>1970-01-01T01:33:51.000Z</time>
      </trkpt>
      <trkpt lat="42.282662" lon="-8.792602">
        <ele>161.2</ele>
        <time>1970-01-01T01:33:52.000Z</time>
      </trkpt>
      <trkpt lat="42.28265" lon="-8.792598">
        <ele>161.2</ele>
        <time>1970-01-01T01:33:53.000Z</time>
      </trkpt>
      <trkpt lat="42.282637" lon="-8.792593">
        <ele>161.2</ele>
        <time>1970-01-01T01:33:54.000Z</time>
      </trkpt>
      <trkpt lat="42.282627" lon="-8.792588">
        <ele>161.2</ele>
        <time>1970-01-01T01:33:55.000Z</time>
      </trkpt>
      <trkpt lat="42.282618" lon="-8.792587">
        <ele>161.2</ele>
        <time>1970-01-01T01:33:56.000Z</time>
      </trkpt>
      <trkpt lat="42.28261" lon="-8.792583">
        <ele>160.3</ele>
        <time>1970-01-01T01:33:57.000Z</time>
      </trkpt>
      <trkpt lat="42.282602" lon="-8.79258">
        <ele>160.3</ele>
        <time>1970-01-01T01:33:58.000Z</time>
      </trkpt>
      <trkpt lat="42.282592" lon="-8.792572">
        <ele>160.3</ele>
        <time>1970-01-01T01:33:59.000Z</time>
      </trkpt>
      <trkpt lat="42.282583" lon="-8.79256">
        <ele>160.3</ele>
        <time>1970-01-01T01:34:00.000Z</time>
      </trkpt>
      <trkpt lat="42.282577" lon="-8.792552">
        <ele>160.3</ele>
        <time>1970-01-01T01:34:01.000Z</time>
      </trkpt>
      <trkpt lat="42.282567" lon="-8.792543">
        <ele>160.3</ele>
        <time>1970-01-01T01:34:02.000Z</time>
      </trkpt>
      <trkpt lat="42.282555" lon="-8.79254">
        <ele>159.3</ele>
        <time>1970-01-01T01:34:03.000Z</time>
      </trkpt>
      <trkpt lat="42.282542" lon="-8.792537">
        <ele>159.3</ele>
        <time>1970-01-01T01:34:04.000Z</time>
      </trkpt>
      <trkpt lat="42.282528" lon="-8.792532">
        <ele>159.3</ele>
        <time>1970-01-01T01:34:05.000Z</time>
      </trkpt>
      <trkpt lat="42.282515" lon="-8.792528">
        <ele>159.3</ele>
        <time>1970-01-01T01:34:06.000Z</time>
      </trkpt>
      <trkpt lat="42.282505" lon="-8.792525">
        <ele>158.2</ele>
        <time>1970-01-01T01:34:07.000Z</time>
      </trkpt>
      <trkpt lat="42.282495" lon="-8.792525">
        <ele>158.2</ele>
        <time>1970-01-01T01:34:08.000Z</time>
      </trkpt>
      <trkpt lat="42.282483" lon="-8.792522">
        <ele>158.2</ele>
        <time>1970-01-01T01:34:09.000Z</time>
      </trkpt>
      <trkpt lat="42.282473" lon="-8.792515">
        <ele>158.2</ele>
        <time>1970-01-01T01:34:10.000Z</time>
      </trkpt>
      <trkpt lat="42.282463" lon="-8.79251">
        <ele>158.2</ele>
        <time>1970-01-01T01:34:11.000Z</time>
      </trkpt>
      <trkpt lat="42.282452" lon="-8.792507">
        <ele>158.2</ele>
        <time>1970-01-01T01:34:12.000Z</time>
      </trkpt>
      <trkpt lat="42.28244" lon="-8.7925">
        <ele>158.2</ele>
        <time>1970-01-01T01:34:13.000Z</time>
      </trkpt>
      <trkpt lat="42.282427" lon="-8.792492">
        <ele>158.2</ele>
        <time>1970-01-01T01:34:14.000Z</time>
      </trkpt>
      <trkpt lat="42.282415" lon="-8.792488">
        <ele>158.2</ele>
        <time>1970-01-01T01:34:15.000Z</time>
      </trkpt>
      <trkpt lat="42.282405" lon="-8.792488">
        <ele>158.2</ele>
        <time>1970-01-01T01:34:16.000Z</time>
      </trkpt>
      <trkpt lat="42.282397" lon="-8.792485">
        <ele>158.2</ele>
        <time>1970-01-01T01:34:17.000Z</time>
      </trkpt>
      <trkpt lat="42.282387" lon="-8.792485">
        <ele>158.2</ele>
        <time>1970-01-01T01:34:18.000Z</time>
      </trkpt>
      <trkpt lat="42.282375" lon="-8.792487">
        <ele>156.2</ele>
        <time>1970-01-01T01:34:19.000Z</time>
      </trkpt>
      <trkpt lat="42.282362" lon="-8.792488">
        <ele>156.2</ele>
        <time>1970-01-01T01:34:20.000Z</time>
      </trkpt>
      <trkpt lat="42.28235" lon="-8.79249">
        <ele>156.2</ele>
        <time>1970-01-01T01:34:21.000Z</time>
      </trkpt>
      <trkpt lat="42.28234" lon="-8.7925">
        <ele>156.2</ele>
        <time>1970-01-01T01:34:22.000Z</time>
      </trkpt>
      <trkpt lat="42.282333" lon="-8.792508">
        <ele>155.3</ele>
        <time>1970-01-01T01:34:23.000Z</time>
      </trkpt>
      <trkpt lat="42.282325" lon="-8.792513">
        <ele>155.3</ele>
        <time>1970-01-01T01:34:24.000Z</time>
      </trkpt>
      <trkpt lat="42.282315" lon="-8.792522">
        <ele>155.3</ele>
        <time>1970-01-01T01:34:25.000Z</time>
      </trkpt>
      <trkpt lat="42.282303" lon="-8.792528">
        <ele>155.3</ele>
        <time>1970-01-01T01:34:26.000Z</time>
      </trkpt>
      <trkpt lat="42.282297" lon="-8.792535">
        <ele>155.3</ele>
        <time>1970-01-01T01:34:27.000Z</time>
      </trkpt>
      <trkpt lat="42.28229" lon="-8.792542">
        <ele>155.3</ele>
        <time>1970-01-01T01:34:28.000Z</time>
      </trkpt>
      <trkpt lat="42.282283" lon="-8.79255">
        <ele>155.3</ele>
        <time>1970-01-01T01:34:29.000Z</time>
      </trkpt>
      <trkpt lat="42.282275" lon="-8.792557">
        <ele>155.3</ele>
        <time>1970-01-01T01:34:30.000Z</time>
      </trkpt>
      <trkpt lat="42.282268" lon="-8.792565">
        <ele>154.2</ele>
        <time>1970-01-01T01:34:31.000Z</time>
      </trkpt>
      <trkpt lat="42.28226" lon="-8.792578">
        <ele>154.2</ele>
        <time>1970-01-01T01:34:32.000Z</time>
      </trkpt>
      <trkpt lat="42.282255" lon="-8.792587">
        <ele>153.3</ele>
        <time>1970-01-01T01:34:33.000Z</time>
      </trkpt>
      <trkpt lat="42.282247" lon="-8.792598">
        <ele>153.3</ele>
        <time>1970-01-01T01:34:34.000Z</time>
      </trkpt>
      <trkpt lat="42.282242" lon="-8.79261">
        <ele>153.3</ele>
        <time>1970-01-01T01:34:35.000Z</time>
      </trkpt>
      <trkpt lat="42.282233" lon="-8.792628">
        <ele>153.3</ele>
        <time>1970-01-01T01:34:36.000Z</time>
      </trkpt>
      <trkpt lat="42.282227" lon="-8.792637">
        <ele>152.2</ele>
        <time>1970-01-01T01:34:37.000Z</time>
      </trkpt>
      <trkpt lat="42.282217" lon="-8.792648">
        <ele>152.2</ele>
        <time>1970-01-01T01:34:38.000Z</time>
      </trkpt>
      <trkpt lat="42.282207" lon="-8.792657">
        <ele>152.2</ele>
        <time>1970-01-01T01:34:39.000Z</time>
      </trkpt>
      <trkpt lat="42.282198" lon="-8.792663">
        <ele>152.2</ele>
        <time>1970-01-01T01:34:40.000Z</time>
      </trkpt>
      <trkpt lat="42.282177" lon="-8.792675">
        <ele>151.3</ele>
        <time>1970-01-01T01:34:41.000Z</time>
      </trkpt>
      <trkpt lat="42.28216" lon="-8.792692">
        <ele>151.3</ele>
        <time>1970-01-01T01:34:42.000Z</time>
      </trkpt>
      <trkpt lat="42.282142" lon="-8.792715">
        <ele>151.3</ele>
        <time>1970-01-01T01:34:43.000Z</time>
      </trkpt>
      <trkpt lat="42.28213" lon="-8.79273">
        <ele>151.3</ele>
        <time>1970-01-01T01:34:44.000Z</time>
      </trkpt>
      <trkpt lat="42.282118" lon="-8.792752">
        <ele>151.3</ele>
        <time>1970-01-01T01:34:45.000Z</time>
      </trkpt>
      <trkpt lat="42.282108" lon="-8.792757">
        <ele>151.3</ele>
        <time>1970-01-01T01:34:46.000Z</time>
      </trkpt>
      <trkpt lat="42.282097" lon="-8.792767">
        <ele>151.3</ele>
        <time>1970-01-01T01:34:47.000Z</time>
      </trkpt>
      <trkpt lat="42.282088" lon="-8.792777">
        <ele>151.3</ele>
        <time>1970-01-01T01:34:48.000Z</time>
      </trkpt>
      <trkpt lat="42.282077" lon="-8.792788">
        <ele>150.3</ele>
        <time>1970-01-01T01:34:49.000Z</time>
      </trkpt>
      <trkpt lat="42.28207" lon="-8.792803">
        <ele>150.3</ele>
        <time>1970-01-01T01:34:50.000Z</time>
      </trkpt>
      <trkpt lat="42.282058" lon="-8.792817">
        <ele>150.3</ele>
        <time>1970-01-01T01:34:51.000Z</time>
      </trkpt>
      <trkpt lat="42.282053" lon="-8.792828">
        <ele>150.3</ele>
        <time>1970-01-01T01:34:52.000Z</time>
      </trkpt>
      <trkpt lat="42.282048" lon="-8.792842">
        <ele>150.3</ele>
        <time>1970-01-01T01:34:53.000Z</time>
      </trkpt>
      <trkpt lat="42.282043" lon="-8.792855">
        <ele>150.3</ele>
        <time>1970-01-01T01:34:54.000Z</time>
      </trkpt>
      <trkpt lat="42.28203" lon="-8.792863">
        <ele>150.3</ele>
        <time>1970-01-01T01:34:55.000Z</time>
      </trkpt>
      <trkpt lat="42.28202" lon="-8.792868">
        <ele>150.3</ele>
        <time>1970-01-01T01:34:56.000Z</time>
      </trkpt>
      <trkpt lat="42.282008" lon="-8.792882">
        <ele>150.3</ele>
        <time>1970-01-01T01:34:57.000Z</time>
      </trkpt>
      <trkpt lat="42.281997" lon="-8.792893">
        <ele>150.3</ele>
        <time>1970-01-01T01:34:58.000Z</time>
      </trkpt>
      <trkpt lat="42.281985" lon="-8.792905">
        <ele>150.3</ele>
        <time>1970-01-01T01:34:59.000Z</time>
      </trkpt>
      <trkpt lat="42.281972" lon="-8.792918">
        <ele>150.3</ele>
        <time>1970-01-01T01:35:00.000Z</time>
      </trkpt>
      <trkpt lat="42.281965" lon="-8.792928">
        <ele>149.2</ele>
        <time>1970-01-01T01:35:01.000Z</time>
      </trkpt>
      <trkpt lat="42.28196" lon="-8.792938">
        <ele>149.2</ele>
        <time>1970-01-01T01:35:02.000Z</time>
      </trkpt>
      <trkpt lat="42.281952" lon="-8.792953">
        <ele>149.2</ele>
        <time>1970-01-01T01:35:03.000Z</time>
      </trkpt>
      <trkpt lat="42.28194" lon="-8.792968">
        <ele>149.2</ele>
        <time>1970-01-01T01:35:04.000Z</time>
      </trkpt>
      <trkpt lat="42.281932" lon="-8.792983">
        <ele>149.2</ele>
        <time>1970-01-01T01:35:05.000Z</time>
      </trkpt>
      <trkpt lat="42.281923" lon="-8.792993">
        <ele>149.2</ele>
        <time>1970-01-01T01:35:06.000Z</time>
      </trkpt>
      <trkpt lat="42.281917" lon="-8.793">
        <ele>149.2</ele>
        <time>1970-01-01T01:35:07.000Z</time>
      </trkpt>
      <trkpt lat="42.281907" lon="-8.793012">
        <ele>149.2</ele>
        <time>1970-01-01T01:35:08.000Z</time>
      </trkpt>
      <trkpt lat="42.281903" lon="-8.793015">
        <ele>149.2</ele>
        <time>1970-01-01T01:35:09.000Z</time>
      </trkpt>
      <trkpt lat="42.281893" lon="-8.793013">
        <ele>149.2</ele>
        <time>1970-01-01T01:35:10.000Z</time>
      </trkpt>
      <trkpt lat="42.281888" lon="-8.793005">
        <ele>148.3</ele>
        <time>1970-01-01T01:35:11.000Z</time>
      </trkpt>
      <trkpt lat="42.281885" lon="-8.792995">
        <ele>148.3</ele>
        <time>1970-01-01T01:35:12.000Z</time>
      </trkpt>
      <trkpt lat="42.281883" lon="-8.792988">
        <ele>148.3</ele>
        <time>1970-01-01T01:35:13.000Z</time>
      </trkpt>
      <trkpt lat="42.281877" lon="-8.792977">
        <ele>148.3</ele>
        <time>1970-01-01T01:35:14.000Z</time>
      </trkpt>
      <trkpt lat="42.28187" lon="-8.792968">
        <ele>148.3</ele>
        <time>1970-01-01T01:35:15.000Z</time>
      </trkpt>
      <trkpt lat="42.281867" lon="-8.792962">
        <ele>148.3</ele>
        <time>1970-01-01T01:35:16.000Z</time>
      </trkpt>
      <trkpt lat="42.28186" lon="-8.792955">
        <ele>148.3</ele>
        <time>1970-01-01T01:35:17.000Z</time>
      </trkpt>
      <trkpt lat="42.28186" lon="-8.792953">
        <ele>148.3</ele>
        <time>1970-01-01T01:35:18.000Z</time>
      </trkpt>
      <trkpt lat="42.281855" lon="-8.792947">
        <ele>148.3</ele>
        <time>1970-01-01T01:35:19.000Z</time>
      </trkpt>
      <trkpt lat="42.281853" lon="-8.792947">
        <ele>148.3</ele>
        <time>1970-01-01T01:35:20.000Z</time>
      </trkpt>
      <trkpt lat="42.281852" lon="-8.792947">
        <ele>148.3</ele>
        <time>1970-01-01T01:35:21.000Z</time>
      </trkpt>
      <trkpt lat="42.281852" lon="-8.792947">
        <ele>148.3</ele>
        <time>1970-01-01T01:35:22.000Z</time>
      </trkpt>
      <trkpt lat="42.28185" lon="-8.792947">
        <ele>148.3</ele>
        <time>1970-01-01T01:35:23.000Z</time>
      </trkpt>
      <trkpt lat="42.281848" lon="-8.792947">
        <ele>148.3</ele>
        <time>1970-01-01T01:35:24.000Z</time>
      </trkpt>
      <trkpt lat="42.281848" lon="-8.792945">
        <ele>147.2</ele>
        <time>1970-01-01T01:35:25.000Z</time>
      </trkpt>
      <trkpt lat="42.281847" lon="-8.792945">
        <ele>147.2</ele>
        <time>1970-01-01T01:35:26.000Z</time>
      </trkpt>
      <trkpt lat="42.281847" lon="-8.792945">
        <ele>147.2</ele>
        <time>1970-01-01T01:35:27.000Z</time>
      </trkpt>
      <trkpt lat="42.281847" lon="-8.792945">
        <ele>147.2</ele>
        <time>1970-01-01T01:35:28.000Z</time>
      </trkpt>
      <trkpt lat="42.281847" lon="-8.792945">
        <ele>147.2</ele>
        <time>1970-01-01T01:35:29.000Z</time>
      </trkpt>
      <trkpt lat="42.281847" lon="-8.792945">
        <ele>147.2</ele>
        <time>1970-01-01T01:35:30.000Z</time>
      </trkpt>
      <trkpt lat="42.281847" lon="-8.792945">
        <ele>146.3</ele>
        <time>1970-01-01T01:35:31.000Z</time>
      </trkpt>
      <trkpt lat="42.281847" lon="-8.792945">
        <ele>146.3</ele>
        <time>1970-01-01T01:35:32.000Z</time>
      </trkpt>
      <trkpt lat="42.281847" lon="-8.792945">
        <ele>145.2</ele>
        <time>1970-01-01T01:35:33.000Z</time>
      </trkpt>
      <trkpt lat="42.281843" lon="-8.792943">
        <ele>145.2</ele>
        <time>1970-01-01T01:35:34.000Z</time>
      </trkpt>
      <trkpt lat="42.281833" lon="-8.792938">
        <ele>145.2</ele>
        <time>1970-01-01T01:35:35.000Z</time>
      </trkpt>
      <trkpt lat="42.28182" lon="-8.792932">
        <ele>145.2</ele>
        <time>1970-01-01T01:35:36.000Z</time>
      </trkpt>
      <trkpt lat="42.281813" lon="-8.792922">
        <ele>144.3</ele>
        <time>1970-01-01T01:35:37.000Z</time>
      </trkpt>
      <trkpt lat="42.281802" lon="-8.792912">
        <ele>144.3</ele>
        <time>1970-01-01T01:35:38.000Z</time>
      </trkpt>
      <trkpt lat="42.281788" lon="-8.792903">
        <ele>144.3</ele>
        <time>1970-01-01T01:35:39.000Z</time>
      </trkpt>
      <trkpt lat="42.281778" lon="-8.792898">
        <ele>144.3</ele>
        <time>1970-01-01T01:35:40.000Z</time>
      </trkpt>
      <trkpt lat="42.281767" lon="-8.792895">
        <ele>144.3</ele>
        <time>1970-01-01T01:35:41.000Z</time>
      </trkpt>
      <trkpt lat="42.281752" lon="-8.792883">
        <ele>144.3</ele>
        <time>1970-01-01T01:35:42.000Z</time>
      </trkpt>
      <trkpt lat="42.281737" lon="-8.792875">
        <ele>144.3</ele>
        <time>1970-01-01T01:35:43.000Z</time>
      </trkpt>
      <trkpt lat="42.281727" lon="-8.79287">
        <ele>144.3</ele>
        <time>1970-01-01T01:35:44.000Z</time>
      </trkpt>
      <trkpt lat="42.281715" lon="-8.792865">
        <ele>142.2</ele>
        <time>1970-01-01T01:35:45.000Z</time>
      </trkpt>
      <trkpt lat="42.281703" lon="-8.792862">
        <ele>142.2</ele>
        <time>1970-01-01T01:35:46.000Z</time>
      </trkpt>
      <trkpt lat="42.281692" lon="-8.792862">
        <ele>141.3</ele>
        <time>1970-01-01T01:35:47.000Z</time>
      </trkpt>
      <trkpt lat="42.281677" lon="-8.79286">
        <ele>141.3</ele>
        <time>1970-01-01T01:35:48.000Z</time>
      </trkpt>
      <trkpt lat="42.281668" lon="-8.792858">
        <ele>141.3</ele>
        <time>1970-01-01T01:35:49.000Z</time>
      </trkpt>
      <trkpt lat="42.281657" lon="-8.792853">
        <ele>141.3</ele>
        <time>1970-01-01T01:35:50.000Z</time>
      </trkpt>
      <trkpt lat="42.281643" lon="-8.792848">
        <ele>140.2</ele>
        <time>1970-01-01T01:35:51.000Z</time>
      </trkpt>
      <trkpt lat="42.281632" lon="-8.792837">
        <ele>140.2</ele>
        <time>1970-01-01T01:35:52.000Z</time>
      </trkpt>
      <trkpt lat="42.281622" lon="-8.792828">
        <ele>139.3</ele>
        <time>1970-01-01T01:35:53.000Z</time>
      </trkpt>
      <trkpt lat="42.281608" lon="-8.79282">
        <ele>139.3</ele>
        <time>1970-01-01T01:35:54.000Z</time>
      </trkpt>
      <trkpt lat="42.281598" lon="-8.792808">
        <ele>139.3</ele>
        <time>1970-01-01T01:35:55.000Z</time>
      </trkpt>
      <trkpt lat="42.28159" lon="-8.792805">
        <ele>139.3</ele>
        <time>1970-01-01T01:35:56.000Z</time>
      </trkpt>
      <trkpt lat="42.281578" lon="-8.792805">
        <ele>138.2</ele>
        <time>1970-01-01T01:35:57.000Z</time>
      </trkpt>
      <trkpt lat="42.281567" lon="-8.792808">
        <ele>138.2</ele>
        <time>1970-01-01T01:35:58.000Z</time>
      </trkpt>
      <trkpt lat="42.281555" lon="-8.792812">
        <ele>138.2</ele>
        <time>1970-01-01T01:35:59.000Z</time>
      </trkpt>
      <trkpt lat="42.281542" lon="-8.792805">
        <ele>138.2</ele>
        <time>1970-01-01T01:36:00.000Z</time>
      </trkpt>
      <trkpt lat="42.281527" lon="-8.792803">
        <ele>138.2</ele>
        <time>1970-01-01T01:36:01.000Z</time>
      </trkpt>
      <trkpt lat="42.281513" lon="-8.792807">
        <ele>138.2</ele>
        <time>1970-01-01T01:36:02.000Z</time>
      </trkpt>
      <trkpt lat="42.281503" lon="-8.79281">
        <ele>137.3</ele>
        <time>1970-01-01T01:36:03.000Z</time>
      </trkpt>
      <trkpt lat="42.281492" lon="-8.792817">
        <ele>137.3</ele>
        <time>1970-01-01T01:36:04.000Z</time>
      </trkpt>
      <trkpt lat="42.28148" lon="-8.792822">
        <ele>137.3</ele>
        <time>1970-01-01T01:36:05.000Z</time>
      </trkpt>
      <trkpt lat="42.281472" lon="-8.792828">
        <ele>137.3</ele>
        <time>1970-01-01T01:36:06.000Z</time>
      </trkpt>
      <trkpt lat="42.281458" lon="-8.792835">
        <ele>137.3</ele>
        <time>1970-01-01T01:36:07.000Z</time>
      </trkpt>
      <trkpt lat="42.281442" lon="-8.79284">
        <ele>137.3</ele>
        <time>1970-01-01T01:36:08.000Z</time>
      </trkpt>
      <trkpt lat="42.281423" lon="-8.792852">
        <ele>136.2</ele>
        <time>1970-01-01T01:36:09.000Z</time>
      </trkpt>
      <trkpt lat="42.281405" lon="-8.792858">
        <ele>136.2</ele>
        <time>1970-01-01T01:36:10.000Z</time>
      </trkpt>
      <trkpt lat="42.28139" lon="-8.792862">
        <ele>136.2</ele>
        <time>1970-01-01T01:36:11.000Z</time>
      </trkpt>
      <trkpt lat="42.281377" lon="-8.792862">
        <ele>136.2</ele>
        <time>1970-01-01T01:36:12.000Z</time>
      </trkpt>
      <trkpt lat="42.281365" lon="-8.792868">
        <ele>136.2</ele>
        <time>1970-01-01T01:36:13.000Z</time>
      </trkpt>
      <trkpt lat="42.281353" lon="-8.79288">
        <ele>136.2</ele>
        <time>1970-01-01T01:36:14.000Z</time>
      </trkpt>
      <trkpt lat="42.281343" lon="-8.792885">
        <ele>136.2</ele>
        <time>1970-01-01T01:36:15.000Z</time>
      </trkpt>
      <trkpt lat="42.281328" lon="-8.792892">
        <ele>136.2</ele>
        <time>1970-01-01T01:36:16.000Z</time>
      </trkpt>
      <trkpt lat="42.281317" lon="-8.792895">
        <ele>136.2</ele>
        <time>1970-01-01T01:36:17.000Z</time>
      </trkpt>
      <trkpt lat="42.281305" lon="-8.792902">
        <ele>136.2</ele>
        <time>1970-01-01T01:36:18.000Z</time>
      </trkpt>
      <trkpt lat="42.281293" lon="-8.792907">
        <ele>135.3</ele>
        <time>1970-01-01T01:36:19.000Z</time>
      </trkpt>
      <trkpt lat="42.281282" lon="-8.792912">
        <ele>135.3</ele>
        <time>1970-01-01T01:36:20.000Z</time>
      </trkpt>
      <trkpt lat="42.28127" lon="-8.792917">
        <ele>135.3</ele>
        <time>1970-01-01T01:36:21.000Z</time>
      </trkpt>
      <trkpt lat="42.281258" lon="-8.792923">
        <ele>135.3</ele>
        <time>1970-01-01T01:36:22.000Z</time>
      </trkpt>
      <trkpt lat="42.281247" lon="-8.79293">
        <ele>135.3</ele>
        <time>1970-01-01T01:36:23.000Z</time>
      </trkpt>
      <trkpt lat="42.281235" lon="-8.792935">
        <ele>135.3</ele>
        <time>1970-01-01T01:36:24.000Z</time>
      </trkpt>
      <trkpt lat="42.281223" lon="-8.792938">
        <ele>135.3</ele>
        <time>1970-01-01T01:36:25.000Z</time>
      </trkpt>
      <trkpt lat="42.281213" lon="-8.792947">
        <ele>135.3</ele>
        <time>1970-01-01T01:36:26.000Z</time>
      </trkpt>
      <trkpt lat="42.281203" lon="-8.792955">
        <ele>134.3</ele>
        <time>1970-01-01T01:36:27.000Z</time>
      </trkpt>
      <trkpt lat="42.281195" lon="-8.792962">
        <ele>134.3</ele>
        <time>1970-01-01T01:36:28.000Z</time>
      </trkpt>
      <trkpt lat="42.281183" lon="-8.79297">
        <ele>134.3</ele>
        <time>1970-01-01T01:36:29.000Z</time>
      </trkpt>
      <trkpt lat="42.281173" lon="-8.792975">
        <ele>134.3</ele>
        <time>1970-01-01T01:36:30.000Z</time>
      </trkpt>
      <trkpt lat="42.281167" lon="-8.79298">
        <ele>134.3</ele>
        <time>1970-01-01T01:36:31.000Z</time>
      </trkpt>
      <trkpt lat="42.281155" lon="-8.792985">
        <ele>134.3</ele>
        <time>1970-01-01T01:36:32.000Z</time>
      </trkpt>
      <trkpt lat="42.281145" lon="-8.792987">
        <ele>134.3</ele>
        <time>1970-01-01T01:36:33.000Z</time>
      </trkpt>
      <trkpt lat="42.281138" lon="-8.792992">
        <ele>134.3</ele>
        <time>1970-01-01T01:36:34.000Z</time>
      </trkpt>
      <trkpt lat="42.281127" lon="-8.792998">
        <ele>134.3</ele>
        <time>1970-01-01T01:36:35.000Z</time>
      </trkpt>
      <trkpt lat="42.281115" lon="-8.793005">
        <ele>134.3</ele>
        <time>1970-01-01T01:36:36.000Z</time>
      </trkpt>
      <trkpt lat="42.281105" lon="-8.79301">
        <ele>134.3</ele>
        <time>1970-01-01T01:36:37.000Z</time>
      </trkpt>
      <trkpt lat="42.281092" lon="-8.793017">
        <ele>134.3</ele>
        <time>1970-01-01T01:36:38.000Z</time>
      </trkpt>
      <trkpt lat="42.28108" lon="-8.793018">
        <ele>133.2</ele>
        <time>1970-01-01T01:36:39.000Z</time>
      </trkpt>
      <trkpt lat="42.281068" lon="-8.793022">
        <ele>133.2</ele>
        <time>1970-01-01T01:36:40.000Z</time>
      </trkpt>
      <trkpt lat="42.281058" lon="-8.79303">
        <ele>133.2</ele>
        <time>1970-01-01T01:36:41.000Z</time>
      </trkpt>
      <trkpt lat="42.281052" lon="-8.793042">
        <ele>133.2</ele>
        <time>1970-01-01T01:36:42.000Z</time>
      </trkpt>
      <trkpt lat="42.281047" lon="-8.793048">
        <ele>133.2</ele>
        <time>1970-01-01T01:36:43.000Z</time>
      </trkpt>
      <trkpt lat="42.281042" lon="-8.793048">
        <ele>133.2</ele>
        <time>1970-01-01T01:36:44.000Z</time>
      </trkpt>
      <trkpt lat="42.281032" lon="-8.793037">
        <ele>132.3</ele>
        <time>1970-01-01T01:36:45.000Z</time>
      </trkpt>
      <trkpt lat="42.281022" lon="-8.793038">
        <ele>132.3</ele>
        <time>1970-01-01T01:36:46.000Z</time>
      </trkpt>
      <trkpt lat="42.281015" lon="-8.79305">
        <ele>132.3</ele>
        <time>1970-01-01T01:36:47.000Z</time>
      </trkpt>
      <trkpt lat="42.281007" lon="-8.793062">
        <ele>132.3</ele>
        <time>1970-01-01T01:36:48.000Z</time>
      </trkpt>
      <trkpt lat="42.280993" lon="-8.793068">
        <ele>132.3</ele>
        <time>1970-01-01T01:36:49.000Z</time>
      </trkpt>
      <trkpt lat="42.280982" lon="-8.793073">
        <ele>132.3</ele>
        <time>1970-01-01T01:36:50.000Z</time>
      </trkpt>
      <trkpt lat="42.28097" lon="-8.793077">
        <ele>133.2</ele>
        <time>1970-01-01T01:36:51.000Z</time>
      </trkpt>
      <trkpt lat="42.280962" lon="-8.793082">
        <ele>133.2</ele>
        <time>1970-01-01T01:36:52.000Z</time>
      </trkpt>
      <trkpt lat="42.28095" lon="-8.79308">
        <ele>134.3</ele>
        <time>1970-01-01T01:36:53.000Z</time>
      </trkpt>
      <trkpt lat="42.280937" lon="-8.79308">
        <ele>134.3</ele>
        <time>1970-01-01T01:36:54.000Z</time>
      </trkpt>
      <trkpt lat="42.280925" lon="-8.79309">
        <ele>135.3</ele>
        <time>1970-01-01T01:36:55.000Z</time>
      </trkpt>
      <trkpt lat="42.280913" lon="-8.793103">
        <ele>135.3</ele>
        <time>1970-01-01T01:36:56.000Z</time>
      </trkpt>
      <trkpt lat="42.280898" lon="-8.793113">
        <ele>135.3</ele>
        <time>1970-01-01T01:36:57.000Z</time>
      </trkpt>
      <trkpt lat="42.280885" lon="-8.793127">
        <ele>135.3</ele>
        <time>1970-01-01T01:36:58.000Z</time>
      </trkpt>
      <trkpt lat="42.280872" lon="-8.793133">
        <ele>136.2</ele>
        <time>1970-01-01T01:36:59.000Z</time>
      </trkpt>
      <trkpt lat="42.280858" lon="-8.793142">
        <ele>136.2</ele>
        <time>1970-01-01T01:37:00.000Z</time>
      </trkpt>
      <trkpt lat="42.280843" lon="-8.793148">
        <ele>136.2</ele>
        <time>1970-01-01T01:37:01.000Z</time>
      </trkpt>
      <trkpt lat="42.280823" lon="-8.793152">
        <ele>136.2</ele>
        <time>1970-01-01T01:37:02.000Z</time>
      </trkpt>
      <trkpt lat="42.280812" lon="-8.793155">
        <ele>136.2</ele>
        <time>1970-01-01T01:37:03.000Z</time>
      </trkpt>
      <trkpt lat="42.280797" lon="-8.79316">
        <ele>136.2</ele>
        <time>1970-01-01T01:37:04.000Z</time>
      </trkpt>
      <trkpt lat="42.280783" lon="-8.793168">
        <ele>136.2</ele>
        <time>1970-01-01T01:37:05.000Z</time>
      </trkpt>
      <trkpt lat="42.280773" lon="-8.79318">
        <ele>136.2</ele>
        <time>1970-01-01T01:37:06.000Z</time>
      </trkpt>
      <trkpt lat="42.28076" lon="-8.793183">
        <ele>136.2</ele>
        <time>1970-01-01T01:37:07.000Z</time>
      </trkpt>
      <trkpt lat="42.280743" lon="-8.793183">
        <ele>136.2</ele>
        <time>1970-01-01T01:37:08.000Z</time>
      </trkpt>
      <trkpt lat="42.280723" lon="-8.79318">
        <ele>136.2</ele>
        <time>1970-01-01T01:37:09.000Z</time>
      </trkpt>
      <trkpt lat="42.280708" lon="-8.793188">
        <ele>136.2</ele>
        <time>1970-01-01T01:37:10.000Z</time>
      </trkpt>
      <trkpt lat="42.280688" lon="-8.793188">
        <ele>136.2</ele>
        <time>1970-01-01T01:37:11.000Z</time>
      </trkpt>
      <trkpt lat="42.28067" lon="-8.79319">
        <ele>136.2</ele>
        <time>1970-01-01T01:37:12.000Z</time>
      </trkpt>
      <trkpt lat="42.28066" lon="-8.79319">
        <ele>136.2</ele>
        <time>1970-01-01T01:37:13.000Z</time>
      </trkpt>
      <trkpt lat="42.280655" lon="-8.793208">
        <ele>136.2</ele>
        <time>1970-01-01T01:37:14.000Z</time>
      </trkpt>
      <trkpt lat="42.280652" lon="-8.793213">
        <ele>134.3</ele>
        <time>1970-01-01T01:37:15.000Z</time>
      </trkpt>
      <trkpt lat="42.280643" lon="-8.79321">
        <ele>134.3</ele>
        <time>1970-01-01T01:37:16.000Z</time>
      </trkpt>
      <trkpt lat="42.280633" lon="-8.793207">
        <ele>134.3</ele>
        <time>1970-01-01T01:37:17.000Z</time>
      </trkpt>
      <trkpt lat="42.280625" lon="-8.7932">
        <ele>134.3</ele>
        <time>1970-01-01T01:37:18.000Z</time>
      </trkpt>
      <trkpt lat="42.280613" lon="-8.793185">
        <ele>134.3</ele>
        <time>1970-01-01T01:37:19.000Z</time>
      </trkpt>
      <trkpt lat="42.280605" lon="-8.793172">
        <ele>134.3</ele>
        <time>1970-01-01T01:37:20.000Z</time>
      </trkpt>
      <trkpt lat="42.2806" lon="-8.793157">
        <ele>134.3</ele>
        <time>1970-01-01T01:37:21.000Z</time>
      </trkpt>
      <trkpt lat="42.280592" lon="-8.793147">
        <ele>134.3</ele>
        <time>1970-01-01T01:37:22.000Z</time>
      </trkpt>
      <trkpt lat="42.28059" lon="-8.793133">
        <ele>134.3</ele>
        <time>1970-01-01T01:37:23.000Z</time>
      </trkpt>
      <trkpt lat="42.280588" lon="-8.793118">
        <ele>134.3</ele>
        <time>1970-01-01T01:37:24.000Z</time>
      </trkpt>
      <trkpt lat="42.28059" lon="-8.793107">
        <ele>133.2</ele>
        <time>1970-01-01T01:37:25.000Z</time>
      </trkpt>
      <trkpt lat="42.280595" lon="-8.793097">
        <ele>133.2</ele>
        <time>1970-01-01T01:37:26.000Z</time>
      </trkpt>
      <trkpt lat="42.280602" lon="-8.793085">
        <ele>133.2</ele>
        <time>1970-01-01T01:37:27.000Z</time>
      </trkpt>
      <trkpt lat="42.28061" lon="-8.793078">
        <ele>133.2</ele>
        <time>1970-01-01T01:37:28.000Z</time>
      </trkpt>
      <trkpt lat="42.280617" lon="-8.793075">
        <ele>132.3</ele>
        <time>1970-01-01T01:37:29.000Z</time>
      </trkpt>
      <trkpt lat="42.280628" lon="-8.793075">
        <ele>132.3</ele>
        <time>1970-01-01T01:37:30.000Z</time>
      </trkpt>
      <trkpt lat="42.280643" lon="-8.793068">
        <ele>131.2</ele>
        <time>1970-01-01T01:37:31.000Z</time>
      </trkpt>
      <trkpt lat="42.280655" lon="-8.793058">
        <ele>131.2</ele>
        <time>1970-01-01T01:37:32.000Z</time>
      </trkpt>
      <trkpt lat="42.280667" lon="-8.793045">
        <ele>130.3</ele>
        <time>1970-01-01T01:37:33.000Z</time>
      </trkpt>
      <trkpt lat="42.280675" lon="-8.793038">
        <ele>130.3</ele>
        <time>1970-01-01T01:37:34.000Z</time>
      </trkpt>
      <trkpt lat="42.280692" lon="-8.793032">
        <ele>130.3</ele>
        <time>1970-01-01T01:37:35.000Z</time>
      </trkpt>
      <trkpt lat="42.2807" lon="-8.793032">
        <ele>130.3</ele>
        <time>1970-01-01T01:37:36.000Z</time>
      </trkpt>
      <trkpt lat="42.28071" lon="-8.793027">
        <ele>130.3</ele>
        <time>1970-01-01T01:37:37.000Z</time>
      </trkpt>
      <trkpt lat="42.280718" lon="-8.79302">
        <ele>130.3</ele>
        <time>1970-01-01T01:37:38.000Z</time>
      </trkpt>
      <trkpt lat="42.280725" lon="-8.793015">
        <ele>129.2</ele>
        <time>1970-01-01T01:37:39.000Z</time>
      </trkpt>
      <trkpt lat="42.280732" lon="-8.793013">
        <ele>129.2</ele>
        <time>1970-01-01T01:37:40.000Z</time>
      </trkpt>
      <trkpt lat="42.280738" lon="-8.793012">
        <ele>129.2</ele>
        <time>1970-01-01T01:37:41.000Z</time>
      </trkpt>
      <trkpt lat="42.280747" lon="-8.793013">
        <ele>129.2</ele>
        <time>1970-01-01T01:37:42.000Z</time>
      </trkpt>
      <trkpt lat="42.280762" lon="-8.793023">
        <ele>129.2</ele>
        <time>1970-01-01T01:37:43.000Z</time>
      </trkpt>
      <trkpt lat="42.280772" lon="-8.793028">
        <ele>129.2</ele>
        <time>1970-01-01T01:37:44.000Z</time>
      </trkpt>
      <trkpt lat="42.28078" lon="-8.79301">
        <ele>128.3</ele>
        <time>1970-01-01T01:37:45.000Z</time>
      </trkpt>
      <trkpt lat="42.280792" lon="-8.792992">
        <ele>128.3</ele>
        <time>1970-01-01T01:37:46.000Z</time>
      </trkpt>
      <trkpt lat="42.280803" lon="-8.79298">
        <ele>128.3</ele>
        <time>1970-01-01T01:37:47.000Z</time>
      </trkpt>
      <trkpt lat="42.280812" lon="-8.792965">
        <ele>128.3</ele>
        <time>1970-01-01T01:37:48.000Z</time>
      </trkpt>
      <trkpt lat="42.280817" lon="-8.79295">
        <ele>127.3</ele>
        <time>1970-01-01T01:37:49.000Z</time>
      </trkpt>
      <trkpt lat="42.280823" lon="-8.792932">
        <ele>127.3</ele>
        <time>1970-01-01T01:37:50.000Z</time>
      </trkpt>
      <trkpt lat="42.280828" lon="-8.792915">
        <ele>127.3</ele>
        <time>1970-01-01T01:37:51.000Z</time>
      </trkpt>
      <trkpt lat="42.280833" lon="-8.792902">
        <ele>127.3</ele>
        <time>1970-01-01T01:37:52.000Z</time>
      </trkpt>
      <trkpt lat="42.280842" lon="-8.792885">
        <ele>126.3</ele>
        <time>1970-01-01T01:37:53.000Z</time>
      </trkpt>
      <trkpt lat="42.280845" lon="-8.792877">
        <ele>126.3</ele>
        <time>1970-01-01T01:37:54.000Z</time>
      </trkpt>
      <trkpt lat="42.28085" lon="-8.792872">
        <ele>126.3</ele>
        <time>1970-01-01T01:37:55.000Z</time>
      </trkpt>
      <trkpt lat="42.280852" lon="-8.792868">
        <ele>126.3</ele>
        <time>1970-01-01T01:37:56.000Z</time>
      </trkpt>
      <trkpt lat="42.280853" lon="-8.792867">
        <ele>126.3</ele>
        <time>1970-01-01T01:37:57.000Z</time>
      </trkpt>
      <trkpt lat="42.280855" lon="-8.792865">
        <ele>126.3</ele>
        <time>1970-01-01T01:37:58.000Z</time>
      </trkpt>
      <trkpt lat="42.28086" lon="-8.79286">
        <ele>126.3</ele>
        <time>1970-01-01T01:37:59.000Z</time>
      </trkpt>
      <trkpt lat="42.280865" lon="-8.792852">
        <ele>126.3</ele>
        <time>1970-01-01T01:38:00.000Z</time>
      </trkpt>
      <trkpt lat="42.28087" lon="-8.792838">
        <ele>125.3</ele>
        <time>1970-01-01T01:38:01.000Z</time>
      </trkpt>
      <trkpt lat="42.280877" lon="-8.792828">
        <ele>125.3</ele>
        <time>1970-01-01T01:38:02.000Z</time>
      </trkpt>
      <trkpt lat="42.28088" lon="-8.792815">
        <ele>124.2</ele>
        <time>1970-01-01T01:38:03.000Z</time>
      </trkpt>
      <trkpt lat="42.280885" lon="-8.792795">
        <ele>124.2</ele>
        <time>1970-01-01T01:38:04.000Z</time>
      </trkpt>
      <trkpt lat="42.280887" lon="-8.792782">
        <ele>124.2</ele>
        <time>1970-01-01T01:38:05.000Z</time>
      </trkpt>
      <trkpt lat="42.280887" lon="-8.79276">
        <ele>124.2</ele>
        <time>1970-01-01T01:38:06.000Z</time>
      </trkpt>
      <trkpt lat="42.280893" lon="-8.792737">
        <ele>124.2</ele>
        <time>1970-01-01T01:38:07.000Z</time>
      </trkpt>
      <trkpt lat="42.2809" lon="-8.792715">
        <ele>124.2</ele>
        <time>1970-01-01T01:38:08.000Z</time>
      </trkpt>
      <trkpt lat="42.280903" lon="-8.792703">
        <ele>123.3</ele>
        <time>1970-01-01T01:38:09.000Z</time>
      </trkpt>
      <trkpt lat="42.280913" lon="-8.79269">
        <ele>123.3</ele>
        <time>1970-01-01T01:38:10.000Z</time>
      </trkpt>
      <trkpt lat="42.280922" lon="-8.792673">
        <ele>123.3</ele>
        <time>1970-01-01T01:38:11.000Z</time>
      </trkpt>
      <trkpt lat="42.280927" lon="-8.792667">
        <ele>123.3</ele>
        <time>1970-01-01T01:38:12.000Z</time>
      </trkpt>
      <trkpt lat="42.280933" lon="-8.792655">
        <ele>123.3</ele>
        <time>1970-01-01T01:38:13.000Z</time>
      </trkpt>
      <trkpt lat="42.280945" lon="-8.792645">
        <ele>123.3</ele>
        <time>1970-01-01T01:38:14.000Z</time>
      </trkpt>
      <trkpt lat="42.28095" lon="-8.792635">
        <ele>122.2</ele>
        <time>1970-01-01T01:38:15.000Z</time>
      </trkpt>
      <trkpt lat="42.28096" lon="-8.792627">
        <ele>122.2</ele>
        <time>1970-01-01T01:38:16.000Z</time>
      </trkpt>
      <trkpt lat="42.280973" lon="-8.792615">
        <ele>122.2</ele>
        <time>1970-01-01T01:38:17.000Z</time>
      </trkpt>
      <trkpt lat="42.280983" lon="-8.792598">
        <ele>122.2</ele>
        <time>1970-01-01T01:38:18.000Z</time>
      </trkpt>
      <trkpt lat="42.28099" lon="-8.792577">
        <ele>122.2</ele>
        <time>1970-01-01T01:38:19.000Z</time>
      </trkpt>
      <trkpt lat="42.280987" lon="-8.792562">
        <ele>122.2</ele>
        <time>1970-01-01T01:38:20.000Z</time>
      </trkpt>
      <trkpt lat="42.280982" lon="-8.792555">
        <ele>122.2</ele>
        <time>1970-01-01T01:38:21.000Z</time>
      </trkpt>
      <trkpt lat="42.280987" lon="-8.792543">
        <ele>122.2</ele>
        <time>1970-01-01T01:38:22.000Z</time>
      </trkpt>
      <trkpt lat="42.280993" lon="-8.792535">
        <ele>122.2</ele>
        <time>1970-01-01T01:38:23.000Z</time>
      </trkpt>
      <trkpt lat="42.280992" lon="-8.792517">
        <ele>122.2</ele>
        <time>1970-01-01T01:38:24.000Z</time>
      </trkpt>
      <trkpt lat="42.280993" lon="-8.792495">
        <ele>122.2</ele>
        <time>1970-01-01T01:38:25.000Z</time>
      </trkpt>
      <trkpt lat="42.281008" lon="-8.79248">
        <ele>122.2</ele>
        <time>1970-01-01T01:38:26.000Z</time>
      </trkpt>
      <trkpt lat="42.281018" lon="-8.79246">
        <ele>121.3</ele>
        <time>1970-01-01T01:38:27.000Z</time>
      </trkpt>
      <trkpt lat="42.281028" lon="-8.792442">
        <ele>121.3</ele>
        <time>1970-01-01T01:38:28.000Z</time>
      </trkpt>
      <trkpt lat="42.281035" lon="-8.792427">
        <ele>121.3</ele>
        <time>1970-01-01T01:38:29.000Z</time>
      </trkpt>
      <trkpt lat="42.281043" lon="-8.792418">
        <ele>121.3</ele>
        <time>1970-01-01T01:38:30.000Z</time>
      </trkpt>
      <trkpt lat="42.281048" lon="-8.7924">
        <ele>120.2</ele>
        <time>1970-01-01T01:38:31.000Z</time>
      </trkpt>
      <trkpt lat="42.281053" lon="-8.792388">
        <ele>120.2</ele>
        <time>1970-01-01T01:38:32.000Z</time>
      </trkpt>
      <trkpt lat="42.281057" lon="-8.79238">
        <ele>120.2</ele>
        <time>1970-01-01T01:38:33.000Z</time>
      </trkpt>
      <trkpt lat="42.281062" lon="-8.792375">
        <ele>120.2</ele>
        <time>1970-01-01T01:38:34.000Z</time>
      </trkpt>
      <trkpt lat="42.281067" lon="-8.792362">
        <ele>120.2</ele>
        <time>1970-01-01T01:38:35.000Z</time>
      </trkpt>
      <trkpt lat="42.28107" lon="-8.792353">
        <ele>120.2</ele>
        <time>1970-01-01T01:38:36.000Z</time>
      </trkpt>
      <trkpt lat="42.281078" lon="-8.792338">
        <ele>120.2</ele>
        <time>1970-01-01T01:38:37.000Z</time>
      </trkpt>
      <trkpt lat="42.281082" lon="-8.792328">
        <ele>120.2</ele>
        <time>1970-01-01T01:38:38.000Z</time>
      </trkpt>
      <trkpt lat="42.281085" lon="-8.792318">
        <ele>120.2</ele>
        <time>1970-01-01T01:38:39.000Z</time>
      </trkpt>
      <trkpt lat="42.281088" lon="-8.792305">
        <ele>120.2</ele>
        <time>1970-01-01T01:38:40.000Z</time>
      </trkpt>
      <trkpt lat="42.281093" lon="-8.792297">
        <ele>119.3</ele>
        <time>1970-01-01T01:38:41.000Z</time>
      </trkpt>
      <trkpt lat="42.281098" lon="-8.792283">
        <ele>119.3</ele>
        <time>1970-01-01T01:38:42.000Z</time>
      </trkpt>
      <trkpt lat="42.2811" lon="-8.792273">
        <ele>119.3</ele>
        <time>1970-01-01T01:38:43.000Z</time>
      </trkpt>
      <trkpt lat="42.2811" lon="-8.792262">
        <ele>119.3</ele>
        <time>1970-01-01T01:38:44.000Z</time>
      </trkpt>
      <trkpt lat="42.281105" lon="-8.792242">
        <ele>119.3</ele>
        <time>1970-01-01T01:38:45.000Z</time>
      </trkpt>
      <trkpt lat="42.281112" lon="-8.792218">
        <ele>119.3</ele>
        <time>1970-01-01T01:38:46.000Z</time>
      </trkpt>
      <trkpt lat="42.281112" lon="-8.792213">
        <ele>118.3</ele>
        <time>1970-01-01T01:38:47.000Z</time>
      </trkpt>
      <trkpt lat="42.281113" lon="-8.792207">
        <ele>118.3</ele>
        <time>1970-01-01T01:38:48.000Z</time>
      </trkpt>
      <trkpt lat="42.281113" lon="-8.792205">
        <ele>117.2</ele>
        <time>1970-01-01T01:38:49.000Z</time>
      </trkpt>
      <trkpt lat="42.281113" lon="-8.792203">
        <ele>117.2</ele>
        <time>1970-01-01T01:38:50.000Z</time>
      </trkpt>
      <trkpt lat="42.281113" lon="-8.792202">
        <ele>117.2</ele>
        <time>1970-01-01T01:38:51.000Z</time>
      </trkpt>
      <trkpt lat="42.281113" lon="-8.7922">
        <ele>117.2</ele>
        <time>1970-01-01T01:38:52.000Z</time>
      </trkpt>
      <trkpt lat="42.281112" lon="-8.792198">
        <ele>117.2</ele>
        <time>1970-01-01T01:38:53.000Z</time>
      </trkpt>
      <trkpt lat="42.28111" lon="-8.792198">
        <ele>117.2</ele>
        <time>1970-01-01T01:38:54.000Z</time>
      </trkpt>
      <trkpt lat="42.28111" lon="-8.792198">
        <ele>117.2</ele>
        <time>1970-01-01T01:38:55.000Z</time>
      </trkpt>
      <trkpt lat="42.281108" lon="-8.792198">
        <ele>117.2</ele>
        <time>1970-01-01T01:38:56.000Z</time>
      </trkpt>
      <trkpt lat="42.281117" lon="-8.792192">
        <ele>117.2</ele>
        <time>1970-01-01T01:38:57.000Z</time>
      </trkpt>
      <trkpt lat="42.28112" lon="-8.792178">
        <ele>117.2</ele>
        <time>1970-01-01T01:38:58.000Z</time>
      </trkpt>
      <trkpt lat="42.281122" lon="-8.792158">
        <ele>117.2</ele>
        <time>1970-01-01T01:38:59.000Z</time>
      </trkpt>
      <trkpt lat="42.281125" lon="-8.79215">
        <ele>117.2</ele>
        <time>1970-01-01T01:39:00.000Z</time>
      </trkpt>
      <trkpt lat="42.281123" lon="-8.792137">
        <ele>117.2</ele>
        <time>1970-01-01T01:39:01.000Z</time>
      </trkpt>
      <trkpt lat="42.28112" lon="-8.792117">
        <ele>117.2</ele>
        <time>1970-01-01T01:39:02.000Z</time>
      </trkpt>
      <trkpt lat="42.281118" lon="-8.792103">
        <ele>117.2</ele>
        <time>1970-01-01T01:39:03.000Z</time>
      </trkpt>
      <trkpt lat="42.28112" lon="-8.792088">
        <ele>117.2</ele>
        <time>1970-01-01T01:39:04.000Z</time>
      </trkpt>
      <trkpt lat="42.281125" lon="-8.792078">
        <ele>117.2</ele>
        <time>1970-01-01T01:39:05.000Z</time>
      </trkpt>
      <trkpt lat="42.28112" lon="-8.79206">
        <ele>117.2</ele>
        <time>1970-01-01T01:39:06.000Z</time>
      </trkpt>
      <trkpt lat="42.281117" lon="-8.792035">
        <ele>117.2</ele>
        <time>1970-01-01T01:39:07.000Z</time>
      </trkpt>
      <trkpt lat="42.281117" lon="-8.792007">
        <ele>114.3</ele>
        <time>1970-01-01T01:39:08.000Z</time>
      </trkpt>
      <trkpt lat="42.281118" lon="-8.79198">
        <ele>114.3</ele>
        <time>1970-01-01T01:39:09.000Z</time>
      </trkpt>
      <trkpt lat="42.28112" lon="-8.791957">
        <ele>114.3</ele>
        <time>1970-01-01T01:39:10.000Z</time>
      </trkpt>
      <trkpt lat="42.28112" lon="-8.791932">
        <ele>114.3</ele>
        <time>1970-01-01T01:39:11.000Z</time>
      </trkpt>
      <trkpt lat="42.28112" lon="-8.791912">
        <ele>114.3</ele>
        <time>1970-01-01T01:39:12.000Z</time>
      </trkpt>
      <trkpt lat="42.28112" lon="-8.791898">
        <ele>114.3</ele>
        <time>1970-01-01T01:39:13.000Z</time>
      </trkpt>
      <trkpt lat="42.281122" lon="-8.79188">
        <ele>114.3</ele>
        <time>1970-01-01T01:39:14.000Z</time>
      </trkpt>
      <trkpt lat="42.28112" lon="-8.791862">
        <ele>114.3</ele>
        <time>1970-01-01T01:39:15.000Z</time>
      </trkpt>
      <trkpt lat="42.281118" lon="-8.79185">
        <ele>114.3</ele>
        <time>1970-01-01T01:39:16.000Z</time>
      </trkpt>
      <trkpt lat="42.281115" lon="-8.791835">
        <ele>114.3</ele>
        <time>1970-01-01T01:39:17.000Z</time>
      </trkpt>
      <trkpt lat="42.281112" lon="-8.79182">
        <ele>114.3</ele>
        <time>1970-01-01T01:39:18.000Z</time>
      </trkpt>
      <trkpt lat="42.281108" lon="-8.791807">
        <ele>114.3</ele>
        <time>1970-01-01T01:39:19.000Z</time>
      </trkpt>
      <trkpt lat="42.281107" lon="-8.791798">
        <ele>114.3</ele>
        <time>1970-01-01T01:39:20.000Z</time>
      </trkpt>
      <trkpt lat="42.281102" lon="-8.791783">
        <ele>114.3</ele>
        <time>1970-01-01T01:39:21.000Z</time>
      </trkpt>
      <trkpt lat="42.281102" lon="-8.791768">
        <ele>114.3</ele>
        <time>1970-01-01T01:39:22.000Z</time>
      </trkpt>
      <trkpt lat="42.2811" lon="-8.791747">
        <ele>114.3</ele>
        <time>1970-01-01T01:39:23.000Z</time>
      </trkpt>
      <trkpt lat="42.281102" lon="-8.791732">
        <ele>113.2</ele>
        <time>1970-01-01T01:39:24.000Z</time>
      </trkpt>
      <trkpt lat="42.2811" lon="-8.791715">
        <ele>113.2</ele>
        <time>1970-01-01T01:39:25.000Z</time>
      </trkpt>
      <trkpt lat="42.281098" lon="-8.7917">
        <ele>113.2</ele>
        <time>1970-01-01T01:39:26.000Z</time>
      </trkpt>
      <trkpt lat="42.28109" lon="-8.791685">
        <ele>113.2</ele>
        <time>1970-01-01T01:39:27.000Z</time>
      </trkpt>
      <trkpt lat="42.281082" lon="-8.791675">
        <ele>113.2</ele>
        <time>1970-01-01T01:39:28.000Z</time>
      </trkpt>
      <trkpt lat="42.28108" lon="-8.791663">
        <ele>113.2</ele>
        <time>1970-01-01T01:39:29.000Z</time>
      </trkpt>
      <trkpt lat="42.281078" lon="-8.791638">
        <ele>112.3</ele>
        <time>1970-01-01T01:39:30.000Z</time>
      </trkpt>
      <trkpt lat="42.281073" lon="-8.791605">
        <ele>112.3</ele>
        <time>1970-01-01T01:39:31.000Z</time>
      </trkpt>
      <trkpt lat="42.28107" lon="-8.7916">
        <ele>112.3</ele>
        <time>1970-01-01T01:39:32.000Z</time>
      </trkpt>
      <trkpt lat="42.281072" lon="-8.791595">
        <ele>112.3</ele>
        <time>1970-01-01T01:39:33.000Z</time>
      </trkpt>
      <trkpt lat="42.28107" lon="-8.791582">
        <ele>111.3</ele>
        <time>1970-01-01T01:39:34.000Z</time>
      </trkpt>
      <trkpt lat="42.281067" lon="-8.791573">
        <ele>111.3</ele>
        <time>1970-01-01T01:39:35.000Z</time>
      </trkpt>
      <trkpt lat="42.28106" lon="-8.791562">
        <ele>111.3</ele>
        <time>1970-01-01T01:39:36.000Z</time>
      </trkpt>
      <trkpt lat="42.281052" lon="-8.791548">
        <ele>111.3</ele>
        <time>1970-01-01T01:39:37.000Z</time>
      </trkpt>
      <trkpt lat="42.281042" lon="-8.791537">
        <ele>111.3</ele>
        <time>1970-01-01T01:39:38.000Z</time>
      </trkpt>
      <trkpt lat="42.281038" lon="-8.791518">
        <ele>111.3</ele>
        <time>1970-01-01T01:39:39.000Z</time>
      </trkpt>
      <trkpt lat="42.281038" lon="-8.79151">
        <ele>110.3</ele>
        <time>1970-01-01T01:39:40.000Z</time>
      </trkpt>
      <trkpt lat="42.281037" lon="-8.791502">
        <ele>110.3</ele>
        <time>1970-01-01T01:39:41.000Z</time>
      </trkpt>
      <trkpt lat="42.281033" lon="-8.791493">
        <ele>110.3</ele>
        <time>1970-01-01T01:39:42.000Z</time>
      </trkpt>
      <trkpt lat="42.281032" lon="-8.79148">
        <ele>110.3</ele>
        <time>1970-01-01T01:39:43.000Z</time>
      </trkpt>
      <trkpt lat="42.281028" lon="-8.791462">
        <ele>109.3</ele>
        <time>1970-01-01T01:39:44.000Z</time>
      </trkpt>
      <trkpt lat="42.281025" lon="-8.791447">
        <ele>109.3</ele>
        <time>1970-01-01T01:39:45.000Z</time>
      </trkpt>
      <trkpt lat="42.281012" lon="-8.791435">
        <ele>108.2</ele>
        <time>1970-01-01T01:39:46.000Z</time>
      </trkpt>
      <trkpt lat="42.281003" lon="-8.791427">
        <ele>108.2</ele>
        <time>1970-01-01T01:39:47.000Z</time>
      </trkpt>
      <trkpt lat="42.280997" lon="-8.791415">
        <ele>108.2</ele>
        <time>1970-01-01T01:39:48.000Z</time>
      </trkpt>
      <trkpt lat="42.280992" lon="-8.791403">
        <ele>108.2</ele>
        <time>1970-01-01T01:39:49.000Z</time>
      </trkpt>
      <trkpt lat="42.280987" lon="-8.791393">
        <ele>108.2</ele>
        <time>1970-01-01T01:39:50.000Z</time>
      </trkpt>
      <trkpt lat="42.280983" lon="-8.791385">
        <ele>108.2</ele>
        <time>1970-01-01T01:39:51.000Z</time>
      </trkpt>
      <trkpt lat="42.280982" lon="-8.791373">
        <ele>107.3</ele>
        <time>1970-01-01T01:39:52.000Z</time>
      </trkpt>
      <trkpt lat="42.280978" lon="-8.791362">
        <ele>107.3</ele>
        <time>1970-01-01T01:39:53.000Z</time>
      </trkpt>
      <trkpt lat="42.280972" lon="-8.791355">
        <ele>106.2</ele>
        <time>1970-01-01T01:39:54.000Z</time>
      </trkpt>
      <trkpt lat="42.280965" lon="-8.791348">
        <ele>106.2</ele>
        <time>1970-01-01T01:39:55.000Z</time>
      </trkpt>
      <trkpt lat="42.280957" lon="-8.79134">
        <ele>106.2</ele>
        <time>1970-01-01T01:39:56.000Z</time>
      </trkpt>
      <trkpt lat="42.280948" lon="-8.791335">
        <ele>106.2</ele>
        <time>1970-01-01T01:39:57.000Z</time>
      </trkpt>
      <trkpt lat="42.280943" lon="-8.791332">
        <ele>106.2</ele>
        <time>1970-01-01T01:39:58.000Z</time>
      </trkpt>
      <trkpt lat="42.280937" lon="-8.791325">
        <ele>106.2</ele>
        <time>1970-01-01T01:39:59.000Z</time>
      </trkpt>
      <trkpt lat="42.280928" lon="-8.791317">
        <ele>105.3</ele>
        <time>1970-01-01T01:40:00.000Z</time>
      </trkpt>
      <trkpt lat="42.280922" lon="-8.791315">
        <ele>105.3</ele>
        <time>1970-01-01T01:40:01.000Z</time>
      </trkpt>
      <trkpt lat="42.28091" lon="-8.791315">
        <ele>105.3</ele>
        <time>1970-01-01T01:40:02.000Z</time>
      </trkpt>
      <trkpt lat="42.280903" lon="-8.791317">
        <ele>105.3</ele>
        <time>1970-01-01T01:40:03.000Z</time>
      </trkpt>
      <trkpt lat="42.280895" lon="-8.791323">
        <ele>105.3</ele>
        <time>1970-01-01T01:40:04.000Z</time>
      </trkpt>
      <trkpt lat="42.280887" lon="-8.791327">
        <ele>105.3</ele>
        <time>1970-01-01T01:40:05.000Z</time>
      </trkpt>
      <trkpt lat="42.28087" lon="-8.791335">
        <ele>105.3</ele>
        <time>1970-01-01T01:40:06.000Z</time>
      </trkpt>
      <trkpt lat="42.280868" lon="-8.79134">
        <ele>105.3</ele>
        <time>1970-01-01T01:40:07.000Z</time>
      </trkpt>
      <trkpt lat="42.280862" lon="-8.791345">
        <ele>105.3</ele>
        <time>1970-01-01T01:40:08.000Z</time>
      </trkpt>
      <trkpt lat="42.280855" lon="-8.791347">
        <ele>105.3</ele>
        <time>1970-01-01T01:40:09.000Z</time>
      </trkpt>
      <trkpt lat="42.280848" lon="-8.79135">
        <ele>105.3</ele>
        <time>1970-01-01T01:40:10.000Z</time>
      </trkpt>
      <trkpt lat="42.28084" lon="-8.791353">
        <ele>105.3</ele>
        <time>1970-01-01T01:40:11.000Z</time>
      </trkpt>
      <trkpt lat="42.280827" lon="-8.791353">
        <ele>105.3</ele>
        <time>1970-01-01T01:40:12.000Z</time>
      </trkpt>
      <trkpt lat="42.280818" lon="-8.791353">
        <ele>105.3</ele>
        <time>1970-01-01T01:40:13.000Z</time>
      </trkpt>
      <trkpt lat="42.280808" lon="-8.791357">
        <ele>105.3</ele>
        <time>1970-01-01T01:40:14.000Z</time>
      </trkpt>
      <trkpt lat="42.280798" lon="-8.791355">
        <ele>105.3</ele>
        <time>1970-01-01T01:40:15.000Z</time>
      </trkpt>
      <trkpt lat="42.280783" lon="-8.791355">
        <ele>105.3</ele>
        <time>1970-01-01T01:40:16.000Z</time>
      </trkpt>
      <trkpt lat="42.28077" lon="-8.791355">
        <ele>105.3</ele>
        <time>1970-01-01T01:40:17.000Z</time>
      </trkpt>
      <trkpt lat="42.28076" lon="-8.79136">
        <ele>102.3</ele>
        <time>1970-01-01T01:40:18.000Z</time>
      </trkpt>
      <trkpt lat="42.28075" lon="-8.791367">
        <ele>102.3</ele>
        <time>1970-01-01T01:40:19.000Z</time>
      </trkpt>
      <trkpt lat="42.280738" lon="-8.79138">
        <ele>102.3</ele>
        <time>1970-01-01T01:40:20.000Z</time>
      </trkpt>
      <trkpt lat="42.280725" lon="-8.791388">
        <ele>102.3</ele>
        <time>1970-01-01T01:40:21.000Z</time>
      </trkpt>
      <trkpt lat="42.2807" lon="-8.791385">
        <ele>102.3</ele>
        <time>1970-01-01T01:40:22.000Z</time>
      </trkpt>
      <trkpt lat="42.280683" lon="-8.79138">
        <ele>102.3</ele>
        <time>1970-01-01T01:40:23.000Z</time>
      </trkpt>
      <trkpt lat="42.28067" lon="-8.791378">
        <ele>102.3</ele>
        <time>1970-01-01T01:40:24.000Z</time>
      </trkpt>
      <trkpt lat="42.280652" lon="-8.791382">
        <ele>102.3</ele>
        <time>1970-01-01T01:40:25.000Z</time>
      </trkpt>
      <trkpt lat="42.280637" lon="-8.791392">
        <ele>101.2</ele>
        <time>1970-01-01T01:40:26.000Z</time>
      </trkpt>
      <trkpt lat="42.280622" lon="-8.791402">
        <ele>101.2</ele>
        <time>1970-01-01T01:40:27.000Z</time>
      </trkpt>
      <trkpt lat="42.28061" lon="-8.79141">
        <ele>100.3</ele>
        <time>1970-01-01T01:40:28.000Z</time>
      </trkpt>
      <trkpt lat="42.2806" lon="-8.791413">
        <ele>100.3</ele>
        <time>1970-01-01T01:40:29.000Z</time>
      </trkpt>
      <trkpt lat="42.280592" lon="-8.791418">
        <ele>100.3</ele>
        <time>1970-01-01T01:40:30.000Z</time>
      </trkpt>
      <trkpt lat="42.280582" lon="-8.791422">
        <ele>100.3</ele>
        <time>1970-01-01T01:40:31.000Z</time>
      </trkpt>
      <trkpt lat="42.28057" lon="-8.791423">
        <ele>100.3</ele>
        <time>1970-01-01T01:40:32.000Z</time>
      </trkpt>
      <trkpt lat="42.280555" lon="-8.791423">
        <ele>100.3</ele>
        <time>1970-01-01T01:40:33.000Z</time>
      </trkpt>
      <trkpt lat="42.28054" lon="-8.79143">
        <ele>100.3</ele>
        <time>1970-01-01T01:40:34.000Z</time>
      </trkpt>
      <trkpt lat="42.28053" lon="-8.791433">
        <ele>100.3</ele>
        <time>1970-01-01T01:40:35.000Z</time>
      </trkpt>
      <trkpt lat="42.280518" lon="-8.791442">
        <ele>98.3</ele>
        <time>1970-01-01T01:40:36.000Z</time>
      </trkpt>
      <trkpt lat="42.280508" lon="-8.791447">
        <ele>98.3</ele>
        <time>1970-01-01T01:40:37.000Z</time>
      </trkpt>
      <trkpt lat="42.280498" lon="-8.791458">
        <ele>98.3</ele>
        <time>1970-01-01T01:40:38.000Z</time>
      </trkpt>
      <trkpt lat="42.280487" lon="-8.79147">
        <ele>98.3</ele>
        <time>1970-01-01T01:40:39.000Z</time>
      </trkpt>
      <trkpt lat="42.280478" lon="-8.791473">
        <ele>98.3</ele>
        <time>1970-01-01T01:40:40.000Z</time>
      </trkpt>
      <trkpt lat="42.28047" lon="-8.791482">
        <ele>98.3</ele>
        <time>1970-01-01T01:40:41.000Z</time>
      </trkpt>
      <trkpt lat="42.280462" lon="-8.791487">
        <ele>98.3</ele>
        <time>1970-01-01T01:40:42.000Z</time>
      </trkpt>
      <trkpt lat="42.280448" lon="-8.79149">
        <ele>98.3</ele>
        <time>1970-01-01T01:40:43.000Z</time>
      </trkpt>
      <trkpt lat="42.28044" lon="-8.791492">
        <ele>98.3</ele>
        <time>1970-01-01T01:40:44.000Z</time>
      </trkpt>
      <trkpt lat="42.280432" lon="-8.791493">
        <ele>98.3</ele>
        <time>1970-01-01T01:40:45.000Z</time>
      </trkpt>
      <trkpt lat="42.280422" lon="-8.7915">
        <ele>96.3</ele>
        <time>1970-01-01T01:40:46.000Z</time>
      </trkpt>
      <trkpt lat="42.28041" lon="-8.791508">
        <ele>96.3</ele>
        <time>1970-01-01T01:40:47.000Z</time>
      </trkpt>
      <trkpt lat="42.2804" lon="-8.791517">
        <ele>96.3</ele>
        <time>1970-01-01T01:40:48.000Z</time>
      </trkpt>
      <trkpt lat="42.280392" lon="-8.791522">
        <ele>96.3</ele>
        <time>1970-01-01T01:40:49.000Z</time>
      </trkpt>
      <trkpt lat="42.280383" lon="-8.791523">
        <ele>95.3</ele>
        <time>1970-01-01T01:40:50.000Z</time>
      </trkpt>
      <trkpt lat="42.280372" lon="-8.791528">
        <ele>95.3</ele>
        <time>1970-01-01T01:40:51.000Z</time>
      </trkpt>
      <trkpt lat="42.280358" lon="-8.791538">
        <ele>95.3</ele>
        <time>1970-01-01T01:40:52.000Z</time>
      </trkpt>
      <trkpt lat="42.280345" lon="-8.79155">
        <ele>95.3</ele>
        <time>1970-01-01T01:40:53.000Z</time>
      </trkpt>
      <trkpt lat="42.280337" lon="-8.791558">
        <ele>95.3</ele>
        <time>1970-01-01T01:40:54.000Z</time>
      </trkpt>
      <trkpt lat="42.280325" lon="-8.791563">
        <ele>95.3</ele>
        <time>1970-01-01T01:40:55.000Z</time>
      </trkpt>
      <trkpt lat="42.280313" lon="-8.791572">
        <ele>95.3</ele>
        <time>1970-01-01T01:40:56.000Z</time>
      </trkpt>
      <trkpt lat="42.2803" lon="-8.791585">
        <ele>95.3</ele>
        <time>1970-01-01T01:40:57.000Z</time>
      </trkpt>
      <trkpt lat="42.280283" lon="-8.7916">
        <ele>94.3</ele>
        <time>1970-01-01T01:40:58.000Z</time>
      </trkpt>
      <trkpt lat="42.280267" lon="-8.791608">
        <ele>94.3</ele>
        <time>1970-01-01T01:40:59.000Z</time>
      </trkpt>
      <trkpt lat="42.280257" lon="-8.79162">
        <ele>94.3</ele>
        <time>1970-01-01T01:41:00.000Z</time>
      </trkpt>
      <trkpt lat="42.280248" lon="-8.791627">
        <ele>94.3</ele>
        <time>1970-01-01T01:41:01.000Z</time>
      </trkpt>
      <trkpt lat="42.280237" lon="-8.791635">
        <ele>94.3</ele>
        <time>1970-01-01T01:41:02.000Z</time>
      </trkpt>
      <trkpt lat="42.28022" lon="-8.791648">
        <ele>94.3</ele>
        <time>1970-01-01T01:41:03.000Z</time>
      </trkpt>
      <trkpt lat="42.280207" lon="-8.79166">
        <ele>93.3</ele>
        <time>1970-01-01T01:41:04.000Z</time>
      </trkpt>
      <trkpt lat="42.280195" lon="-8.79167">
        <ele>93.3</ele>
        <time>1970-01-01T01:41:05.000Z</time>
      </trkpt>
      <trkpt lat="42.280185" lon="-8.791677">
        <ele>93.3</ele>
        <time>1970-01-01T01:41:06.000Z</time>
      </trkpt>
      <trkpt lat="42.280177" lon="-8.791683">
        <ele>93.3</ele>
        <time>1970-01-01T01:41:07.000Z</time>
      </trkpt>
      <trkpt lat="42.280167" lon="-8.791687">
        <ele>93.3</ele>
        <time>1970-01-01T01:41:08.000Z</time>
      </trkpt>
      <trkpt lat="42.280158" lon="-8.791687">
        <ele>93.3</ele>
        <time>1970-01-01T01:41:09.000Z</time>
      </trkpt>
      <trkpt lat="42.28015" lon="-8.79169">
        <ele>92.2</ele>
        <time>1970-01-01T01:41:10.000Z</time>
      </trkpt>
      <trkpt lat="42.280147" lon="-8.79169">
        <ele>92.2</ele>
        <time>1970-01-01T01:41:11.000Z</time>
      </trkpt>
      <trkpt lat="42.28014" lon="-8.791688">
        <ele>92.2</ele>
        <time>1970-01-01T01:41:12.000Z</time>
      </trkpt>
      <trkpt lat="42.280127" lon="-8.791682">
        <ele>92.2</ele>
        <time>1970-01-01T01:41:13.000Z</time>
      </trkpt>
      <trkpt lat="42.280118" lon="-8.79168">
        <ele>91.3</ele>
        <time>1970-01-01T01:41:14.000Z</time>
      </trkpt>
      <trkpt lat="42.28011" lon="-8.791678">
        <ele>91.3</ele>
        <time>1970-01-01T01:41:15.000Z</time>
      </trkpt>
      <trkpt lat="42.2801" lon="-8.791675">
        <ele>91.3</ele>
        <time>1970-01-01T01:41:16.000Z</time>
      </trkpt>
      <trkpt lat="42.280087" lon="-8.791673">
        <ele>91.3</ele>
        <time>1970-01-01T01:41:17.000Z</time>
      </trkpt>
      <trkpt lat="42.280077" lon="-8.791673">
        <ele>90.2</ele>
        <time>1970-01-01T01:41:18.000Z</time>
      </trkpt>
      <trkpt lat="42.28007" lon="-8.791677">
        <ele>90.2</ele>
        <time>1970-01-01T01:41:19.000Z</time>
      </trkpt>
      <trkpt lat="42.28007" lon="-8.791677">
        <ele>90.2</ele>
        <time>1970-01-01T01:41:20.000Z</time>
      </trkpt>
      <trkpt lat="42.280072" lon="-8.791675">
        <ele>90.2</ele>
        <time>1970-01-01T01:41:21.000Z</time>
      </trkpt>
      <trkpt lat="42.280072" lon="-8.791677">
        <ele>89.3</ele>
        <time>1970-01-01T01:41:22.000Z</time>
      </trkpt>
      <trkpt lat="42.280072" lon="-8.791677">
        <ele>89.3</ele>
        <time>1970-01-01T01:41:23.000Z</time>
      </trkpt>
      <trkpt lat="42.280072" lon="-8.791678">
        <ele>89.3</ele>
        <time>1970-01-01T01:41:24.000Z</time>
      </trkpt>
      <trkpt lat="42.280073" lon="-8.79168">
        <ele>89.3</ele>
        <time>1970-01-01T01:41:25.000Z</time>
      </trkpt>
      <trkpt lat="42.280075" lon="-8.79168">
        <ele>89.3</ele>
        <time>1970-01-01T01:41:26.000Z</time>
      </trkpt>
      <trkpt lat="42.280075" lon="-8.79168">
        <ele>89.3</ele>
        <time>1970-01-01T01:41:27.000Z</time>
      </trkpt>
      <trkpt lat="42.280072" lon="-8.791677">
        <ele>89.3</ele>
        <time>1970-01-01T01:41:28.000Z</time>
      </trkpt>
      <trkpt lat="42.28007" lon="-8.791672">
        <ele>89.3</ele>
        <time>1970-01-01T01:41:29.000Z</time>
      </trkpt>
      <trkpt lat="42.280067" lon="-8.791668">
        <ele>89.3</ele>
        <time>1970-01-01T01:41:30.000Z</time>
      </trkpt>
      <trkpt lat="42.280065" lon="-8.791665">
        <ele>89.3</ele>
        <time>1970-01-01T01:41:31.000Z</time>
      </trkpt>
      <trkpt lat="42.280063" lon="-8.791665">
        <ele>89.3</ele>
        <time>1970-01-01T01:41:32.000Z</time>
      </trkpt>
      <trkpt lat="42.280063" lon="-8.791663">
        <ele>89.3</ele>
        <time>1970-01-01T01:41:33.000Z</time>
      </trkpt>
      <trkpt lat="42.280063" lon="-8.791667">
        <ele>89.3</ele>
        <time>1970-01-01T01:41:34.000Z</time>
      </trkpt>
      <trkpt lat="42.280063" lon="-8.791667">
        <ele>89.3</ele>
        <time>1970-01-01T01:41:35.000Z</time>
      </trkpt>
      <trkpt lat="42.280062" lon="-8.791665">
        <ele>86.3</ele>
        <time>1970-01-01T01:41:36.000Z</time>
      </trkpt>
      <trkpt lat="42.28006" lon="-8.791665">
        <ele>86.3</ele>
        <time>1970-01-01T01:41:37.000Z</time>
      </trkpt>
      <trkpt lat="42.280058" lon="-8.791665">
        <ele>86.3</ele>
        <time>1970-01-01T01:41:38.000Z</time>
      </trkpt>
      <trkpt lat="42.280057" lon="-8.791663">
        <ele>86.3</ele>
        <time>1970-01-01T01:41:39.000Z</time>
      </trkpt>
      <trkpt lat="42.280057" lon="-8.791663">
        <ele>86.3</ele>
        <time>1970-01-01T01:41:40.000Z</time>
      </trkpt>
      <trkpt lat="42.280057" lon="-8.791663">
        <ele>86.3</ele>
        <time>1970-01-01T01:41:41.000Z</time>
      </trkpt>
      <trkpt lat="42.280057" lon="-8.791663">
        <ele>86.3</ele>
        <time>1970-01-01T01:41:42.000Z</time>
      </trkpt>
      <trkpt lat="42.280057" lon="-8.791663">
        <ele>86.3</ele>
        <time>1970-01-01T01:41:43.000Z</time>
      </trkpt>
      <trkpt lat="42.280057" lon="-8.791663">
        <ele>86.3</ele>
        <time>1970-01-01T01:41:44.000Z</time>
      </trkpt>
      <trkpt lat="42.280057" lon="-8.791663">
        <ele>86.3</ele>
        <time>1970-01-01T01:41:45.000Z</time>
      </trkpt>
      <trkpt lat="42.280057" lon="-8.791663">
        <ele>86.3</ele>
        <time>1970-01-01T01:41:46.000Z</time>
      </trkpt>
      <trkpt lat="42.280053" lon="-8.791658">
        <ele>86.3</ele>
        <time>1970-01-01T01:41:47.000Z</time>
      </trkpt>
      <trkpt lat="42.28004" lon="-8.791643">
        <ele>85.2</ele>
        <time>1970-01-01T01:41:48.000Z</time>
      </trkpt>
      <trkpt lat="42.280028" lon="-8.791628">
        <ele>85.2</ele>
        <time>1970-01-01T01:41:49.000Z</time>
      </trkpt>
      <trkpt lat="42.280017" lon="-8.791615">
        <ele>85.2</ele>
        <time>1970-01-01T01:41:50.000Z</time>
      </trkpt>
      <trkpt lat="42.280003" lon="-8.7916">
        <ele>85.2</ele>
        <time>1970-01-01T01:41:51.000Z</time>
      </trkpt>
      <trkpt lat="42.279992" lon="-8.791585">
        <ele>85.2</ele>
        <time>1970-01-01T01:41:52.000Z</time>
      </trkpt>
      <trkpt lat="42.279978" lon="-8.79157">
        <ele>85.2</ele>
        <time>1970-01-01T01:41:53.000Z</time>
      </trkpt>
      <trkpt lat="42.279965" lon="-8.791553">
        <ele>85.2</ele>
        <time>1970-01-01T01:41:54.000Z</time>
      </trkpt>
      <trkpt lat="42.279952" lon="-8.791538">
        <ele>85.2</ele>
        <time>1970-01-01T01:41:55.000Z</time>
      </trkpt>
      <trkpt lat="42.279942" lon="-8.791525">
        <ele>85.2</ele>
        <time>1970-01-01T01:41:56.000Z</time>
      </trkpt>
      <trkpt lat="42.27993" lon="-8.791508">
        <ele>85.2</ele>
        <time>1970-01-01T01:41:57.000Z</time>
      </trkpt>
      <trkpt lat="42.279922" lon="-8.791492">
        <ele>85.2</ele>
        <time>1970-01-01T01:41:58.000Z</time>
      </trkpt>
      <trkpt lat="42.27991" lon="-8.791475">
        <ele>85.2</ele>
        <time>1970-01-01T01:41:59.000Z</time>
      </trkpt>
      <trkpt lat="42.279902" lon="-8.791462">
        <ele>82.3</ele>
        <time>1970-01-01T01:42:00.000Z</time>
      </trkpt>
      <trkpt lat="42.279895" lon="-8.791452">
        <ele>82.3</ele>
        <time>1970-01-01T01:42:01.000Z</time>
      </trkpt>
      <trkpt lat="42.27989" lon="-8.791447">
        <ele>82.3</ele>
        <time>1970-01-01T01:42:02.000Z</time>
      </trkpt>
      <trkpt lat="42.279888" lon="-8.791442">
        <ele>82.3</ele>
        <time>1970-01-01T01:42:03.000Z</time>
      </trkpt>
      <trkpt lat="42.279885" lon="-8.791435">
        <ele>81.2</ele>
        <time>1970-01-01T01:42:04.000Z</time>
      </trkpt>
      <trkpt lat="42.27988" lon="-8.791425">
        <ele>81.2</ele>
        <time>1970-01-01T01:42:05.000Z</time>
      </trkpt>
      <trkpt lat="42.279878" lon="-8.791415">
        <ele>81.2</ele>
        <time>1970-01-01T01:42:06.000Z</time>
      </trkpt>
      <trkpt lat="42.279873" lon="-8.791405">
        <ele>81.2</ele>
        <time>1970-01-01T01:42:07.000Z</time>
      </trkpt>
      <trkpt lat="42.279868" lon="-8.791392">
        <ele>81.2</ele>
        <time>1970-01-01T01:42:08.000Z</time>
      </trkpt>
      <trkpt lat="42.279865" lon="-8.791378">
        <ele>81.2</ele>
        <time>1970-01-01T01:42:09.000Z</time>
      </trkpt>
      <trkpt lat="42.279863" lon="-8.791363">
        <ele>81.2</ele>
        <time>1970-01-01T01:42:10.000Z</time>
      </trkpt>
      <trkpt lat="42.279862" lon="-8.791352">
        <ele>81.2</ele>
        <time>1970-01-01T01:42:11.000Z</time>
      </trkpt>
      <trkpt lat="42.279862" lon="-8.79134">
        <ele>81.2</ele>
        <time>1970-01-01T01:42:12.000Z</time>
      </trkpt>
      <trkpt lat="42.279862" lon="-8.791327">
        <ele>81.2</ele>
        <time>1970-01-01T01:42:13.000Z</time>
      </trkpt>
      <trkpt lat="42.279857" lon="-8.791313">
        <ele>79.2</ele>
        <time>1970-01-01T01:42:14.000Z</time>
      </trkpt>
      <trkpt lat="42.279855" lon="-8.791302">
        <ele>79.2</ele>
        <time>1970-01-01T01:42:15.000Z</time>
      </trkpt>
      <trkpt lat="42.279852" lon="-8.791288">
        <ele>79.2</ele>
        <time>1970-01-01T01:42:16.000Z</time>
      </trkpt>
      <trkpt lat="42.279847" lon="-8.791278">
        <ele>79.2</ele>
        <time>1970-01-01T01:42:17.000Z</time>
      </trkpt>
      <trkpt lat="42.27984" lon="-8.791265">
        <ele>78.3</ele>
        <time>1970-01-01T01:42:18.000Z</time>
      </trkpt>
      <trkpt lat="42.279832" lon="-8.791252">
        <ele>78.3</ele>
        <time>1970-01-01T01:42:19.000Z</time>
      </trkpt>
      <trkpt lat="42.279818" lon="-8.791243">
        <ele>78.3</ele>
        <time>1970-01-01T01:42:20.000Z</time>
      </trkpt>
      <trkpt lat="42.279808" lon="-8.791235">
        <ele>78.3</ele>
        <time>1970-01-01T01:42:21.000Z</time>
      </trkpt>
      <trkpt lat="42.279802" lon="-8.791233">
        <ele>78.3</ele>
        <time>1970-01-01T01:42:22.000Z</time>
      </trkpt>
      <trkpt lat="42.279787" lon="-8.791235">
        <ele>78.3</ele>
        <time>1970-01-01T01:42:23.000Z</time>
      </trkpt>
      <trkpt lat="42.27977" lon="-8.791228">
        <ele>77.3</ele>
        <time>1970-01-01T01:42:24.000Z</time>
      </trkpt>
      <trkpt lat="42.27975" lon="-8.791228">
        <ele>77.3</ele>
        <time>1970-01-01T01:42:25.000Z</time>
      </trkpt>
      <trkpt lat="42.279737" lon="-8.79122">
        <ele>76.2</ele>
        <time>1970-01-01T01:42:26.000Z</time>
      </trkpt>
      <trkpt lat="42.27973" lon="-8.791217">
        <ele>76.2</ele>
        <time>1970-01-01T01:42:27.000Z</time>
      </trkpt>
      <trkpt lat="42.279727" lon="-8.791213">
        <ele>76.2</ele>
        <time>1970-01-01T01:42:28.000Z</time>
      </trkpt>
      <trkpt lat="42.279665" lon="-8.791165">
        <ele>69.2</ele>
        <time>1970-01-01T01:42:29.000Z</time>
      </trkpt>
      <trkpt lat="42.279653" lon="-8.791152">
        <ele>69.2</ele>
        <time>1970-01-01T01:42:30.000Z</time>
      </trkpt>
      <trkpt lat="42.279643" lon="-8.791135">
        <ele>69.2</ele>
        <time>1970-01-01T01:42:31.000Z</time>
      </trkpt>
      <trkpt lat="42.279633" lon="-8.791122">
        <ele>69.2</ele>
        <time>1970-01-01T01:42:32.000Z</time>
      </trkpt>
      <trkpt lat="42.279625" lon="-8.79111">
        <ele>69.2</ele>
        <time>1970-01-01T01:42:33.000Z</time>
      </trkpt>
      <trkpt lat="42.279617" lon="-8.791097">
        <ele>69.2</ele>
        <time>1970-01-01T01:43:06.000Z</time>
      </trkpt>
      <trkpt lat="42.279612" lon="-8.791087">
        <ele>69.2</ele>
        <time>1970-01-01T01:43:07.000Z</time>
      </trkpt>
      <trkpt lat="42.279613" lon="-8.791073">
        <ele>69.2</ele>
        <time>1970-01-01T01:43:08.000Z</time>
      </trkpt>
      <trkpt lat="42.27962" lon="-8.79106">
        <ele>69.2</ele>
        <time>1970-01-01T01:43:09.000Z</time>
      </trkpt>
      <trkpt lat="42.279623" lon="-8.79105">
        <ele>68.3</ele>
        <time>1970-01-01T01:43:10.000Z</time>
      </trkpt>
      <trkpt lat="42.279627" lon="-8.791035">
        <ele>68.3</ele>
        <time>1970-01-01T01:43:11.000Z</time>
      </trkpt>
      <trkpt lat="42.279635" lon="-8.791027">
        <ele>68.3</ele>
        <time>1970-01-01T01:43:12.000Z</time>
      </trkpt>
      <trkpt lat="42.27964" lon="-8.791017">
        <ele>68.3</ele>
        <time>1970-01-01T01:43:13.000Z</time>
      </trkpt>
      <trkpt lat="42.279645" lon="-8.791003">
        <ele>69.2</ele>
        <time>1970-01-01T01:43:14.000Z</time>
      </trkpt>
      <trkpt lat="42.279655" lon="-8.790995">
        <ele>69.2</ele>
        <time>1970-01-01T01:43:15.000Z</time>
      </trkpt>
      <trkpt lat="42.279665" lon="-8.79099">
        <ele>69.2</ele>
        <time>1970-01-01T01:43:16.000Z</time>
      </trkpt>
      <trkpt lat="42.279675" lon="-8.790983">
        <ele>69.2</ele>
        <time>1970-01-01T01:43:17.000Z</time>
      </trkpt>
      <trkpt lat="42.279685" lon="-8.790975">
        <ele>69.2</ele>
        <time>1970-01-01T01:43:18.000Z</time>
      </trkpt>
      <trkpt lat="42.279697" lon="-8.790958">
        <ele>69.2</ele>
        <time>1970-01-01T01:43:19.000Z</time>
      </trkpt>
      <trkpt lat="42.27971" lon="-8.790945">
        <ele>69.2</ele>
        <time>1970-01-01T01:43:20.000Z</time>
      </trkpt>
      <trkpt lat="42.279722" lon="-8.790932">
        <ele>69.2</ele>
        <time>1970-01-01T01:43:21.000Z</time>
      </trkpt>
      <trkpt lat="42.27973" lon="-8.790923">
        <ele>68.3</ele>
        <time>1970-01-01T01:43:22.000Z</time>
      </trkpt>
      <trkpt lat="42.279737" lon="-8.790912">
        <ele>68.3</ele>
        <time>1970-01-01T01:43:23.000Z</time>
      </trkpt>
      <trkpt lat="42.279743" lon="-8.7909">
        <ele>68.3</ele>
        <time>1970-01-01T01:43:24.000Z</time>
      </trkpt>
      <trkpt lat="42.279755" lon="-8.79089">
        <ele>68.3</ele>
        <time>1970-01-01T01:43:25.000Z</time>
      </trkpt>
      <trkpt lat="42.279765" lon="-8.790885">
        <ele>68.3</ele>
        <time>1970-01-01T01:43:26.000Z</time>
      </trkpt>
      <trkpt lat="42.279773" lon="-8.790877">
        <ele>68.3</ele>
        <time>1970-01-01T01:43:27.000Z</time>
      </trkpt>
      <trkpt lat="42.279785" lon="-8.790868">
        <ele>68.3</ele>
        <time>1970-01-01T01:43:28.000Z</time>
      </trkpt>
      <trkpt lat="42.279797" lon="-8.790855">
        <ele>68.3</ele>
        <time>1970-01-01T01:43:29.000Z</time>
      </trkpt>
      <trkpt lat="42.279807" lon="-8.790845">
        <ele>68.3</ele>
        <time>1970-01-01T01:43:30.000Z</time>
      </trkpt>
      <trkpt lat="42.27981" lon="-8.790838">
        <ele>68.3</ele>
        <time>1970-01-01T01:43:31.000Z</time>
      </trkpt>
      <trkpt lat="42.279818" lon="-8.790827">
        <ele>67.2</ele>
        <time>1970-01-01T01:43:32.000Z</time>
      </trkpt>
      <trkpt lat="42.27983" lon="-8.790817">
        <ele>67.2</ele>
        <time>1970-01-01T01:43:33.000Z</time>
      </trkpt>
      <trkpt lat="42.27984" lon="-8.790807">
        <ele>67.2</ele>
        <time>1970-01-01T01:43:34.000Z</time>
      </trkpt>
      <trkpt lat="42.27985" lon="-8.790795">
        <ele>67.2</ele>
        <time>1970-01-01T01:43:35.000Z</time>
      </trkpt>
      <trkpt lat="42.27986" lon="-8.790785">
        <ele>67.2</ele>
        <time>1970-01-01T01:43:36.000Z</time>
      </trkpt>
      <trkpt lat="42.279868" lon="-8.790773">
        <ele>67.2</ele>
        <time>1970-01-01T01:43:37.000Z</time>
      </trkpt>
      <trkpt lat="42.279877" lon="-8.79076">
        <ele>67.2</ele>
        <time>1970-01-01T01:43:38.000Z</time>
      </trkpt>
      <trkpt lat="42.279888" lon="-8.790745">
        <ele>67.2</ele>
        <time>1970-01-01T01:43:39.000Z</time>
      </trkpt>
      <trkpt lat="42.279897" lon="-8.790732">
        <ele>67.2</ele>
        <time>1970-01-01T01:43:40.000Z</time>
      </trkpt>
      <trkpt lat="42.279907" lon="-8.790718">
        <ele>67.2</ele>
        <time>1970-01-01T01:43:41.000Z</time>
      </trkpt>
      <trkpt lat="42.279913" lon="-8.790707">
        <ele>67.2</ele>
        <time>1970-01-01T01:43:42.000Z</time>
      </trkpt>
      <trkpt lat="42.279923" lon="-8.790695">
        <ele>67.2</ele>
        <time>1970-01-01T01:43:43.000Z</time>
      </trkpt>
      <trkpt lat="42.279938" lon="-8.790683">
        <ele>67.2</ele>
        <time>1970-01-01T01:43:44.000Z</time>
      </trkpt>
      <trkpt lat="42.279948" lon="-8.790672">
        <ele>67.2</ele>
        <time>1970-01-01T01:43:45.000Z</time>
      </trkpt>
      <trkpt lat="42.279957" lon="-8.790665">
        <ele>67.2</ele>
        <time>1970-01-01T01:43:46.000Z</time>
      </trkpt>
      <trkpt lat="42.279968" lon="-8.790655">
        <ele>67.2</ele>
        <time>1970-01-01T01:43:47.000Z</time>
      </trkpt>
      <trkpt lat="42.27998" lon="-8.790642">
        <ele>67.2</ele>
        <time>1970-01-01T01:43:48.000Z</time>
      </trkpt>
      <trkpt lat="42.27999" lon="-8.79063">
        <ele>67.2</ele>
        <time>1970-01-01T01:43:49.000Z</time>
      </trkpt>
      <trkpt lat="42.28" lon="-8.790622">
        <ele>65.2</ele>
        <time>1970-01-01T01:43:50.000Z</time>
      </trkpt>
      <trkpt lat="42.28001" lon="-8.790612">
        <ele>65.2</ele>
        <time>1970-01-01T01:43:51.000Z</time>
      </trkpt>
      <trkpt lat="42.280015" lon="-8.790603">
        <ele>65.2</ele>
        <time>1970-01-01T01:43:52.000Z</time>
      </trkpt>
      <trkpt lat="42.280023" lon="-8.79059">
        <ele>65.2</ele>
        <time>1970-01-01T01:43:53.000Z</time>
      </trkpt>
      <trkpt lat="42.28003" lon="-8.790578">
        <ele>65.2</ele>
        <time>1970-01-01T01:43:54.000Z</time>
      </trkpt>
      <trkpt lat="42.280042" lon="-8.790563">
        <ele>65.2</ele>
        <time>1970-01-01T01:43:55.000Z</time>
      </trkpt>
      <trkpt lat="42.280045" lon="-8.790557">
        <ele>65.2</ele>
        <time>1970-01-01T01:43:56.000Z</time>
      </trkpt>
      <trkpt lat="42.280048" lon="-8.790552">
        <ele>65.2</ele>
        <time>1970-01-01T01:43:57.000Z</time>
      </trkpt>
      <trkpt lat="42.280048" lon="-8.79055">
        <ele>65.2</ele>
        <time>1970-01-01T01:43:58.000Z</time>
      </trkpt>
      <trkpt lat="42.28005" lon="-8.790548">
        <ele>65.2</ele>
        <time>1970-01-01T01:43:59.000Z</time>
      </trkpt>
      <trkpt lat="42.28005" lon="-8.79055">
        <ele>65.2</ele>
        <time>1970-01-01T01:44:00.000Z</time>
      </trkpt>
      <trkpt lat="42.28005" lon="-8.79055">
        <ele>65.2</ele>
        <time>1970-01-01T01:44:01.000Z</time>
      </trkpt>
      <trkpt lat="42.28005" lon="-8.79055">
        <ele>65.2</ele>
        <time>1970-01-01T01:44:02.000Z</time>
      </trkpt>
      <trkpt lat="42.280048" lon="-8.790548">
        <ele>65.2</ele>
        <time>1970-01-01T01:44:03.000Z</time>
      </trkpt>
      <trkpt lat="42.280048" lon="-8.790547">
        <ele>65.2</ele>
        <time>1970-01-01T01:44:04.000Z</time>
      </trkpt>
      <trkpt lat="42.28005" lon="-8.790548">
        <ele>65.2</ele>
        <time>1970-01-01T01:44:05.000Z</time>
      </trkpt>
      <trkpt lat="42.280053" lon="-8.790545">
        <ele>65.2</ele>
        <time>1970-01-01T01:44:06.000Z</time>
      </trkpt>
      <trkpt lat="42.280067" lon="-8.790542">
        <ele>65.2</ele>
        <time>1970-01-01T01:44:07.000Z</time>
      </trkpt>
      <trkpt lat="42.280078" lon="-8.790535">
        <ele>65.2</ele>
        <time>1970-01-01T01:44:08.000Z</time>
      </trkpt>
      <trkpt lat="42.280088" lon="-8.790527">
        <ele>65.2</ele>
        <time>1970-01-01T01:44:09.000Z</time>
      </trkpt>
      <trkpt lat="42.280095" lon="-8.790518">
        <ele>65.2</ele>
        <time>1970-01-01T01:44:10.000Z</time>
      </trkpt>
      <trkpt lat="42.280108" lon="-8.790503">
        <ele>65.2</ele>
        <time>1970-01-01T01:44:11.000Z</time>
      </trkpt>
      <trkpt lat="42.280118" lon="-8.790492">
        <ele>65.2</ele>
        <time>1970-01-01T01:44:12.000Z</time>
      </trkpt>
      <trkpt lat="42.280127" lon="-8.79048">
        <ele>65.2</ele>
        <time>1970-01-01T01:44:13.000Z</time>
      </trkpt>
      <trkpt lat="42.280137" lon="-8.790468">
        <ele>65.2</ele>
        <time>1970-01-01T01:44:14.000Z</time>
      </trkpt>
      <trkpt lat="42.280147" lon="-8.790458">
        <ele>65.2</ele>
        <time>1970-01-01T01:44:15.000Z</time>
      </trkpt>
      <trkpt lat="42.280157" lon="-8.790448">
        <ele>65.2</ele>
        <time>1970-01-01T01:44:16.000Z</time>
      </trkpt>
      <trkpt lat="42.280167" lon="-8.790438">
        <ele>65.2</ele>
        <time>1970-01-01T01:44:17.000Z</time>
      </trkpt>
      <trkpt lat="42.280175" lon="-8.790428">
        <ele>65.2</ele>
        <time>1970-01-01T01:44:18.000Z</time>
      </trkpt>
      <trkpt lat="42.280182" lon="-8.790415">
        <ele>65.2</ele>
        <time>1970-01-01T01:44:19.000Z</time>
      </trkpt>
      <trkpt lat="42.28019" lon="-8.790403">
        <ele>65.2</ele>
        <time>1970-01-01T01:44:20.000Z</time>
      </trkpt>
      <trkpt lat="42.280195" lon="-8.790392">
        <ele>65.2</ele>
        <time>1970-01-01T01:44:21.000Z</time>
      </trkpt>
      <trkpt lat="42.2802" lon="-8.790378">
        <ele>65.2</ele>
        <time>1970-01-01T01:44:22.000Z</time>
      </trkpt>
      <trkpt lat="42.280208" lon="-8.790365">
        <ele>65.2</ele>
        <time>1970-01-01T01:44:23.000Z</time>
      </trkpt>
      <trkpt lat="42.28022" lon="-8.790347">
        <ele>65.2</ele>
        <time>1970-01-01T01:44:24.000Z</time>
      </trkpt>
      <trkpt lat="42.280233" lon="-8.790333">
        <ele>65.2</ele>
        <time>1970-01-01T01:44:25.000Z</time>
      </trkpt>
      <trkpt lat="42.28025" lon="-8.790318">
        <ele>66.3</ele>
        <time>1970-01-01T01:44:26.000Z</time>
      </trkpt>
      <trkpt lat="42.28026" lon="-8.79031">
        <ele>66.3</ele>
        <time>1970-01-01T01:44:27.000Z</time>
      </trkpt>
      <trkpt lat="42.280275" lon="-8.790298">
        <ele>66.3</ele>
        <time>1970-01-01T01:44:28.000Z</time>
      </trkpt>
      <trkpt lat="42.280287" lon="-8.790287">
        <ele>66.3</ele>
        <time>1970-01-01T01:44:29.000Z</time>
      </trkpt>
      <trkpt lat="42.2803" lon="-8.790275">
        <ele>66.3</ele>
        <time>1970-01-01T01:44:30.000Z</time>
      </trkpt>
      <trkpt lat="42.280312" lon="-8.79027">
        <ele>66.3</ele>
        <time>1970-01-01T01:44:31.000Z</time>
      </trkpt>
      <trkpt lat="42.280317" lon="-8.790258">
        <ele>66.3</ele>
        <time>1970-01-01T01:44:32.000Z</time>
      </trkpt>
      <trkpt lat="42.28033" lon="-8.790242">
        <ele>66.3</ele>
        <time>1970-01-01T01:44:33.000Z</time>
      </trkpt>
      <trkpt lat="42.280342" lon="-8.790225">
        <ele>66.3</ele>
        <time>1970-01-01T01:44:34.000Z</time>
      </trkpt>
      <trkpt lat="42.280353" lon="-8.790212">
        <ele>66.3</ele>
        <time>1970-01-01T01:44:35.000Z</time>
      </trkpt>
      <trkpt lat="42.280368" lon="-8.790197">
        <ele>66.3</ele>
        <time>1970-01-01T01:44:36.000Z</time>
      </trkpt>
      <trkpt lat="42.280385" lon="-8.79018">
        <ele>66.3</ele>
        <time>1970-01-01T01:44:37.000Z</time>
      </trkpt>
      <trkpt lat="42.28039" lon="-8.790173">
        <ele>66.3</ele>
        <time>1970-01-01T01:44:38.000Z</time>
      </trkpt>
      <trkpt lat="42.280402" lon="-8.790162">
        <ele>66.3</ele>
        <time>1970-01-01T01:44:39.000Z</time>
      </trkpt>
      <trkpt lat="42.280415" lon="-8.790157">
        <ele>66.3</ele>
        <time>1970-01-01T01:44:40.000Z</time>
      </trkpt>
      <trkpt lat="42.280425" lon="-8.79015">
        <ele>66.3</ele>
        <time>1970-01-01T01:44:41.000Z</time>
      </trkpt>
      <trkpt lat="42.280435" lon="-8.790138">
        <ele>66.3</ele>
        <time>1970-01-01T01:44:42.000Z</time>
      </trkpt>
      <trkpt lat="42.280443" lon="-8.79013">
        <ele>66.3</ele>
        <time>1970-01-01T01:44:43.000Z</time>
      </trkpt>
      <trkpt lat="42.280455" lon="-8.790118">
        <ele>66.3</ele>
        <time>1970-01-01T01:44:44.000Z</time>
      </trkpt>
      <trkpt lat="42.28047" lon="-8.790103">
        <ele>66.3</ele>
        <time>1970-01-01T01:44:45.000Z</time>
      </trkpt>
      <trkpt lat="42.280488" lon="-8.79009">
        <ele>67.2</ele>
        <time>1970-01-01T01:44:46.000Z</time>
      </trkpt>
      <trkpt lat="42.280507" lon="-8.79008">
        <ele>67.2</ele>
        <time>1970-01-01T01:44:47.000Z</time>
      </trkpt>
      <trkpt lat="42.280523" lon="-8.790068">
        <ele>67.2</ele>
        <time>1970-01-01T01:44:48.000Z</time>
      </trkpt>
      <trkpt lat="42.280537" lon="-8.790052">
        <ele>67.2</ele>
        <time>1970-01-01T01:44:49.000Z</time>
      </trkpt>
      <trkpt lat="42.28054" lon="-8.790033">
        <ele>67.2</ele>
        <time>1970-01-01T01:44:50.000Z</time>
      </trkpt>
      <trkpt lat="42.28054" lon="-8.79002">
        <ele>67.2</ele>
        <time>1970-01-01T01:44:51.000Z</time>
      </trkpt>
      <trkpt lat="42.280548" lon="-8.790003">
        <ele>67.2</ele>
        <time>1970-01-01T01:44:52.000Z</time>
      </trkpt>
      <trkpt lat="42.280558" lon="-8.78999">
        <ele>67.2</ele>
        <time>1970-01-01T01:44:53.000Z</time>
      </trkpt>
      <trkpt lat="42.280565" lon="-8.789973">
        <ele>67.2</ele>
        <time>1970-01-01T01:44:54.000Z</time>
      </trkpt>
      <trkpt lat="42.280568" lon="-8.789958">
        <ele>67.2</ele>
        <time>1970-01-01T01:44:55.000Z</time>
      </trkpt>
      <trkpt lat="42.280573" lon="-8.789947">
        <ele>67.2</ele>
        <time>1970-01-01T01:44:56.000Z</time>
      </trkpt>
      <trkpt lat="42.280573" lon="-8.789933">
        <ele>67.2</ele>
        <time>1970-01-01T01:44:57.000Z</time>
      </trkpt>
      <trkpt lat="42.280575" lon="-8.789922">
        <ele>67.2</ele>
        <time>1970-01-01T01:44:58.000Z</time>
      </trkpt>
      <trkpt lat="42.280585" lon="-8.789908">
        <ele>67.2</ele>
        <time>1970-01-01T01:44:59.000Z</time>
      </trkpt>
      <trkpt lat="42.280593" lon="-8.789893">
        <ele>67.2</ele>
        <time>1970-01-01T01:45:00.000Z</time>
      </trkpt>
      <trkpt lat="42.280597" lon="-8.789885">
        <ele>67.2</ele>
        <time>1970-01-01T01:45:01.000Z</time>
      </trkpt>
      <trkpt lat="42.280605" lon="-8.789885">
        <ele>67.2</ele>
        <time>1970-01-01T01:45:02.000Z</time>
      </trkpt>
      <trkpt lat="42.280615" lon="-8.789873">
        <ele>67.2</ele>
        <time>1970-01-01T01:45:03.000Z</time>
      </trkpt>
      <trkpt lat="42.280625" lon="-8.78986">
        <ele>67.2</ele>
        <time>1970-01-01T01:45:04.000Z</time>
      </trkpt>
      <trkpt lat="42.280638" lon="-8.78985">
        <ele>67.2</ele>
        <time>1970-01-01T01:45:05.000Z</time>
      </trkpt>
      <trkpt lat="42.28065" lon="-8.789833">
        <ele>68.3</ele>
        <time>1970-01-01T01:45:06.000Z</time>
      </trkpt>
      <trkpt lat="42.28066" lon="-8.789817">
        <ele>68.3</ele>
        <time>1970-01-01T01:45:07.000Z</time>
      </trkpt>
      <trkpt lat="42.280663" lon="-8.789807">
        <ele>68.3</ele>
        <time>1970-01-01T01:45:08.000Z</time>
      </trkpt>
      <trkpt lat="42.280677" lon="-8.789792">
        <ele>68.3</ele>
        <time>1970-01-01T01:45:09.000Z</time>
      </trkpt>
      <trkpt lat="42.28069" lon="-8.789778">
        <ele>68.3</ele>
        <time>1970-01-01T01:45:10.000Z</time>
      </trkpt>
      <trkpt lat="42.280702" lon="-8.78976">
        <ele>68.3</ele>
        <time>1970-01-01T01:45:11.000Z</time>
      </trkpt>
      <trkpt lat="42.280718" lon="-8.78975">
        <ele>68.3</ele>
        <time>1970-01-01T01:45:12.000Z</time>
      </trkpt>
      <trkpt lat="42.280728" lon="-8.78974">
        <ele>68.3</ele>
        <time>1970-01-01T01:45:13.000Z</time>
      </trkpt>
      <trkpt lat="42.280737" lon="-8.78973">
        <ele>68.3</ele>
        <time>1970-01-01T01:45:14.000Z</time>
      </trkpt>
      <trkpt lat="42.280747" lon="-8.789717">
        <ele>68.3</ele>
        <time>1970-01-01T01:45:15.000Z</time>
      </trkpt>
      <trkpt lat="42.280758" lon="-8.789703">
        <ele>68.3</ele>
        <time>1970-01-01T01:45:16.000Z</time>
      </trkpt>
      <trkpt lat="42.28077" lon="-8.789688">
        <ele>68.3</ele>
        <time>1970-01-01T01:45:17.000Z</time>
      </trkpt>
      <trkpt lat="42.280782" lon="-8.789675">
        <ele>68.3</ele>
        <time>1970-01-01T01:45:18.000Z</time>
      </trkpt>
      <trkpt lat="42.280792" lon="-8.789665">
        <ele>68.3</ele>
        <time>1970-01-01T01:45:19.000Z</time>
      </trkpt>
      <trkpt lat="42.280802" lon="-8.789655">
        <ele>68.3</ele>
        <time>1970-01-01T01:45:20.000Z</time>
      </trkpt>
      <trkpt lat="42.28081" lon="-8.789648">
        <ele>68.3</ele>
        <time>1970-01-01T01:45:21.000Z</time>
      </trkpt>
      <trkpt lat="42.280817" lon="-8.789635">
        <ele>68.3</ele>
        <time>1970-01-01T01:45:22.000Z</time>
      </trkpt>
      <trkpt lat="42.280827" lon="-8.789625">
        <ele>68.3</ele>
        <time>1970-01-01T01:45:23.000Z</time>
      </trkpt>
      <trkpt lat="42.28084" lon="-8.789613">
        <ele>68.3</ele>
        <time>1970-01-01T01:45:24.000Z</time>
      </trkpt>
      <trkpt lat="42.28085" lon="-8.789602">
        <ele>68.3</ele>
        <time>1970-01-01T01:45:25.000Z</time>
      </trkpt>
      <trkpt lat="42.280863" lon="-8.78959">
        <ele>68.3</ele>
        <time>1970-01-01T01:45:26.000Z</time>
      </trkpt>
      <trkpt lat="42.280875" lon="-8.789578">
        <ele>68.3</ele>
        <time>1970-01-01T01:45:27.000Z</time>
      </trkpt>
      <trkpt lat="42.280883" lon="-8.789572">
        <ele>68.3</ele>
        <time>1970-01-01T01:45:28.000Z</time>
      </trkpt>
      <trkpt lat="42.280898" lon="-8.789558">
        <ele>68.3</ele>
        <time>1970-01-01T01:45:29.000Z</time>
      </trkpt>
      <trkpt lat="42.280907" lon="-8.789553">
        <ele>68.3</ele>
        <time>1970-01-01T01:45:30.000Z</time>
      </trkpt>
      <trkpt lat="42.280923" lon="-8.789542">
        <ele>68.3</ele>
        <time>1970-01-01T01:45:31.000Z</time>
      </trkpt>
      <trkpt lat="42.280935" lon="-8.789535">
        <ele>68.3</ele>
        <time>1970-01-01T01:45:32.000Z</time>
      </trkpt>
      <trkpt lat="42.280955" lon="-8.78953">
        <ele>68.3</ele>
        <time>1970-01-01T01:45:33.000Z</time>
      </trkpt>
      <trkpt lat="42.280977" lon="-8.789528">
        <ele>68.3</ele>
        <time>1970-01-01T01:45:34.000Z</time>
      </trkpt>
      <trkpt lat="42.280998" lon="-8.789523">
        <ele>68.3</ele>
        <time>1970-01-01T01:45:35.000Z</time>
      </trkpt>
      <trkpt lat="42.281015" lon="-8.789517">
        <ele>69.2</ele>
        <time>1970-01-01T01:45:36.000Z</time>
      </trkpt>
      <trkpt lat="42.28103" lon="-8.789505">
        <ele>69.2</ele>
        <time>1970-01-01T01:45:37.000Z</time>
      </trkpt>
      <trkpt lat="42.281042" lon="-8.789497">
        <ele>69.2</ele>
        <time>1970-01-01T01:45:38.000Z</time>
      </trkpt>
      <trkpt lat="42.281055" lon="-8.789487">
        <ele>69.2</ele>
        <time>1970-01-01T01:45:39.000Z</time>
      </trkpt>
      <trkpt lat="42.281063" lon="-8.789478">
        <ele>69.2</ele>
        <time>1970-01-01T01:45:40.000Z</time>
      </trkpt>
      <trkpt lat="42.281073" lon="-8.789468">
        <ele>69.2</ele>
        <time>1970-01-01T01:45:41.000Z</time>
      </trkpt>
      <trkpt lat="42.281083" lon="-8.78946">
        <ele>69.2</ele>
        <time>1970-01-01T01:45:42.000Z</time>
      </trkpt>
      <trkpt lat="42.281093" lon="-8.789448">
        <ele>69.2</ele>
        <time>1970-01-01T01:45:43.000Z</time>
      </trkpt>
      <trkpt lat="42.281107" lon="-8.789438">
        <ele>70.3</ele>
        <time>1970-01-01T01:45:44.000Z</time>
      </trkpt>
      <trkpt lat="42.281122" lon="-8.789425">
        <ele>70.3</ele>
        <time>1970-01-01T01:45:45.000Z</time>
      </trkpt>
      <trkpt lat="42.281133" lon="-8.789417">
        <ele>70.3</ele>
        <time>1970-01-01T01:45:46.000Z</time>
      </trkpt>
      <trkpt lat="42.281147" lon="-8.789408">
        <ele>70.3</ele>
        <time>1970-01-01T01:45:47.000Z</time>
      </trkpt>
      <trkpt lat="42.28116" lon="-8.789398">
        <ele>70.3</ele>
        <time>1970-01-01T01:45:48.000Z</time>
      </trkpt>
      <trkpt lat="42.281172" lon="-8.789388">
        <ele>70.3</ele>
        <time>1970-01-01T01:45:49.000Z</time>
      </trkpt>
      <trkpt lat="42.281185" lon="-8.789377">
        <ele>70.3</ele>
        <time>1970-01-01T01:45:50.000Z</time>
      </trkpt>
      <trkpt lat="42.281195" lon="-8.789368">
        <ele>70.3</ele>
        <time>1970-01-01T01:45:51.000Z</time>
      </trkpt>
      <trkpt lat="42.281208" lon="-8.789355">
        <ele>70.3</ele>
        <time>1970-01-01T01:45:52.000Z</time>
      </trkpt>
      <trkpt lat="42.281223" lon="-8.789343">
        <ele>70.3</ele>
        <time>1970-01-01T01:45:53.000Z</time>
      </trkpt>
      <trkpt lat="42.281238" lon="-8.789335">
        <ele>70.3</ele>
        <time>1970-01-01T01:45:54.000Z</time>
      </trkpt>
      <trkpt lat="42.281248" lon="-8.789323">
        <ele>70.3</ele>
        <time>1970-01-01T01:45:55.000Z</time>
      </trkpt>
      <trkpt lat="42.281257" lon="-8.789313">
        <ele>70.3</ele>
        <time>1970-01-01T01:45:56.000Z</time>
      </trkpt>
      <trkpt lat="42.281268" lon="-8.789298">
        <ele>70.3</ele>
        <time>1970-01-01T01:45:57.000Z</time>
      </trkpt>
      <trkpt lat="42.281282" lon="-8.789283">
        <ele>71.3</ele>
        <time>1970-01-01T01:45:58.000Z</time>
      </trkpt>
      <trkpt lat="42.281292" lon="-8.78927">
        <ele>71.3</ele>
        <time>1970-01-01T01:45:59.000Z</time>
      </trkpt>
      <trkpt lat="42.281295" lon="-8.789253">
        <ele>71.3</ele>
        <time>1970-01-01T01:46:00.000Z</time>
      </trkpt>
      <trkpt lat="42.281302" lon="-8.789238">
        <ele>71.3</ele>
        <time>1970-01-01T01:46:01.000Z</time>
      </trkpt>
      <trkpt lat="42.281308" lon="-8.789232">
        <ele>71.3</ele>
        <time>1970-01-01T01:46:02.000Z</time>
      </trkpt>
      <trkpt lat="42.281315" lon="-8.789223">
        <ele>71.3</ele>
        <time>1970-01-01T01:46:03.000Z</time>
      </trkpt>
      <trkpt lat="42.28133" lon="-8.78921">
        <ele>71.3</ele>
        <time>1970-01-01T01:46:04.000Z</time>
      </trkpt>
      <trkpt lat="42.281343" lon="-8.789198">
        <ele>71.3</ele>
        <time>1970-01-01T01:46:05.000Z</time>
      </trkpt>
      <trkpt lat="42.281357" lon="-8.789185">
        <ele>71.3</ele>
        <time>1970-01-01T01:46:06.000Z</time>
      </trkpt>
      <trkpt lat="42.281362" lon="-8.789177">
        <ele>71.3</ele>
        <time>1970-01-01T01:46:07.000Z</time>
      </trkpt>
      <trkpt lat="42.281373" lon="-8.789168">
        <ele>71.3</ele>
        <time>1970-01-01T01:46:08.000Z</time>
      </trkpt>
      <trkpt lat="42.281385" lon="-8.789158">
        <ele>71.3</ele>
        <time>1970-01-01T01:46:09.000Z</time>
      </trkpt>
      <trkpt lat="42.281395" lon="-8.789143">
        <ele>72.2</ele>
        <time>1970-01-01T01:46:10.000Z</time>
      </trkpt>
      <trkpt lat="42.281408" lon="-8.789132">
        <ele>72.2</ele>
        <time>1970-01-01T01:46:11.000Z</time>
      </trkpt>
      <trkpt lat="42.281427" lon="-8.789113">
        <ele>72.2</ele>
        <time>1970-01-01T01:46:12.000Z</time>
      </trkpt>
      <trkpt lat="42.281437" lon="-8.789107">
        <ele>72.2</ele>
        <time>1970-01-01T01:46:13.000Z</time>
      </trkpt>
      <trkpt lat="42.28145" lon="-8.789098">
        <ele>72.2</ele>
        <time>1970-01-01T01:46:14.000Z</time>
      </trkpt>
      <trkpt lat="42.281462" lon="-8.789092">
        <ele>72.2</ele>
        <time>1970-01-01T01:46:15.000Z</time>
      </trkpt>
      <trkpt lat="42.281468" lon="-8.789085">
        <ele>72.2</ele>
        <time>1970-01-01T01:46:16.000Z</time>
      </trkpt>
      <trkpt lat="42.28148" lon="-8.789077">
        <ele>72.2</ele>
        <time>1970-01-01T01:46:17.000Z</time>
      </trkpt>
      <trkpt lat="42.28149" lon="-8.78907">
        <ele>72.2</ele>
        <time>1970-01-01T01:46:18.000Z</time>
      </trkpt>
      <trkpt lat="42.2815" lon="-8.789062">
        <ele>72.2</ele>
        <time>1970-01-01T01:46:19.000Z</time>
      </trkpt>
      <trkpt lat="42.281513" lon="-8.789048">
        <ele>73.3</ele>
        <time>1970-01-01T01:46:20.000Z</time>
      </trkpt>
      <trkpt lat="42.281523" lon="-8.78904">
        <ele>73.3</ele>
        <time>1970-01-01T01:46:21.000Z</time>
      </trkpt>
      <trkpt lat="42.281537" lon="-8.78903">
        <ele>73.3</ele>
        <time>1970-01-01T01:46:22.000Z</time>
      </trkpt>
      <trkpt lat="42.28155" lon="-8.789022">
        <ele>73.3</ele>
        <time>1970-01-01T01:46:23.000Z</time>
      </trkpt>
      <trkpt lat="42.28156" lon="-8.789012">
        <ele>73.3</ele>
        <time>1970-01-01T01:46:24.000Z</time>
      </trkpt>
      <trkpt lat="42.281575" lon="-8.789002">
        <ele>73.3</ele>
        <time>1970-01-01T01:46:25.000Z</time>
      </trkpt>
      <trkpt lat="42.28159" lon="-8.788995">
        <ele>73.3</ele>
        <time>1970-01-01T01:46:26.000Z</time>
      </trkpt>
      <trkpt lat="42.281605" lon="-8.788987">
        <ele>73.3</ele>
        <time>1970-01-01T01:46:27.000Z</time>
      </trkpt>
      <trkpt lat="42.281617" lon="-8.788983">
        <ele>74.2</ele>
        <time>1970-01-01T01:46:28.000Z</time>
      </trkpt>
      <trkpt lat="42.28163" lon="-8.788977">
        <ele>74.2</ele>
        <time>1970-01-01T01:46:29.000Z</time>
      </trkpt>
      <trkpt lat="42.281642" lon="-8.788972">
        <ele>74.2</ele>
        <time>1970-01-01T01:46:30.000Z</time>
      </trkpt>
      <trkpt lat="42.28165" lon="-8.788968">
        <ele>74.2</ele>
        <time>1970-01-01T01:46:31.000Z</time>
      </trkpt>
      <trkpt lat="42.281653" lon="-8.788967">
        <ele>74.2</ele>
        <time>1970-01-01T01:46:32.000Z</time>
      </trkpt>
      <trkpt lat="42.281655" lon="-8.788965">
        <ele>74.2</ele>
        <time>1970-01-01T01:46:33.000Z</time>
      </trkpt>
      <trkpt lat="42.281657" lon="-8.788965">
        <ele>74.2</ele>
        <time>1970-01-01T01:46:34.000Z</time>
      </trkpt>
      <trkpt lat="42.281658" lon="-8.788957">
        <ele>74.2</ele>
        <time>1970-01-01T01:46:35.000Z</time>
      </trkpt>
      <trkpt lat="42.281665" lon="-8.788947">
        <ele>74.2</ele>
        <time>1970-01-01T01:46:36.000Z</time>
      </trkpt>
      <trkpt lat="42.28167" lon="-8.788935">
        <ele>74.2</ele>
        <time>1970-01-01T01:46:37.000Z</time>
      </trkpt>
      <trkpt lat="42.281678" lon="-8.788925">
        <ele>75.3</ele>
        <time>1970-01-01T01:46:38.000Z</time>
      </trkpt>
      <trkpt lat="42.281687" lon="-8.788915">
        <ele>75.3</ele>
        <time>1970-01-01T01:46:39.000Z</time>
      </trkpt>
      <trkpt lat="42.281697" lon="-8.788907">
        <ele>75.3</ele>
        <time>1970-01-01T01:46:40.000Z</time>
      </trkpt>
      <trkpt lat="42.28171" lon="-8.788895">
        <ele>75.3</ele>
        <time>1970-01-01T01:46:41.000Z</time>
      </trkpt>
      <trkpt lat="42.28172" lon="-8.788883">
        <ele>75.3</ele>
        <time>1970-01-01T01:46:42.000Z</time>
      </trkpt>
      <trkpt lat="42.281727" lon="-8.788872">
        <ele>75.3</ele>
        <time>1970-01-01T01:46:43.000Z</time>
      </trkpt>
      <trkpt lat="42.281733" lon="-8.788857">
        <ele>75.3</ele>
        <time>1970-01-01T01:46:44.000Z</time>
      </trkpt>
      <trkpt lat="42.281742" lon="-8.788843">
        <ele>75.3</ele>
        <time>1970-01-01T01:46:45.000Z</time>
      </trkpt>
      <trkpt lat="42.281752" lon="-8.78883">
        <ele>75.3</ele>
        <time>1970-01-01T01:46:46.000Z</time>
      </trkpt>
      <trkpt lat="42.28176" lon="-8.788817">
        <ele>75.3</ele>
        <time>1970-01-01T01:46:47.000Z</time>
      </trkpt>
      <trkpt lat="42.281773" lon="-8.788797">
        <ele>76.2</ele>
        <time>1970-01-01T01:46:48.000Z</time>
      </trkpt>
      <trkpt lat="42.281788" lon="-8.78879">
        <ele>76.2</ele>
        <time>1970-01-01T01:46:49.000Z</time>
      </trkpt>
      <trkpt lat="42.281795" lon="-8.788783">
        <ele>76.2</ele>
        <time>1970-01-01T01:46:50.000Z</time>
      </trkpt>
      <trkpt lat="42.281805" lon="-8.788775">
        <ele>76.2</ele>
        <time>1970-01-01T01:46:51.000Z</time>
      </trkpt>
      <trkpt lat="42.281817" lon="-8.788768">
        <ele>76.2</ele>
        <time>1970-01-01T01:46:52.000Z</time>
      </trkpt>
      <trkpt lat="42.281823" lon="-8.788762">
        <ele>76.2</ele>
        <time>1970-01-01T01:46:53.000Z</time>
      </trkpt>
      <trkpt lat="42.281833" lon="-8.788755">
        <ele>77.3</ele>
        <time>1970-01-01T01:46:54.000Z</time>
      </trkpt>
      <trkpt lat="42.281842" lon="-8.788747">
        <ele>77.3</ele>
        <time>1970-01-01T01:46:55.000Z</time>
      </trkpt>
      <trkpt lat="42.281852" lon="-8.788738">
        <ele>77.3</ele>
        <time>1970-01-01T01:46:56.000Z</time>
      </trkpt>
      <trkpt lat="42.281862" lon="-8.788733">
        <ele>77.3</ele>
        <time>1970-01-01T01:46:57.000Z</time>
      </trkpt>
      <trkpt lat="42.281872" lon="-8.78873">
        <ele>78.3</ele>
        <time>1970-01-01T01:46:58.000Z</time>
      </trkpt>
      <trkpt lat="42.281883" lon="-8.788725">
        <ele>78.3</ele>
        <time>1970-01-01T01:46:59.000Z</time>
      </trkpt>
      <trkpt lat="42.281893" lon="-8.788722">
        <ele>78.3</ele>
        <time>1970-01-01T01:47:00.000Z</time>
      </trkpt>
      <trkpt lat="42.281907" lon="-8.788712">
        <ele>78.3</ele>
        <time>1970-01-01T01:47:01.000Z</time>
      </trkpt>
      <trkpt lat="42.281917" lon="-8.788703">
        <ele>78.3</ele>
        <time>1970-01-01T01:47:02.000Z</time>
      </trkpt>
      <trkpt lat="42.28193" lon="-8.7887">
        <ele>78.3</ele>
        <time>1970-01-01T01:47:03.000Z</time>
      </trkpt>
      <trkpt lat="42.281943" lon="-8.78869">
        <ele>78.3</ele>
        <time>1970-01-01T01:47:04.000Z</time>
      </trkpt>
      <trkpt lat="42.281948" lon="-8.788685">
        <ele>78.3</ele>
        <time>1970-01-01T01:47:05.000Z</time>
      </trkpt>
      <trkpt lat="42.28196" lon="-8.788672">
        <ele>78.3</ele>
        <time>1970-01-01T01:47:06.000Z</time>
      </trkpt>
      <trkpt lat="42.281972" lon="-8.788658">
        <ele>78.3</ele>
        <time>1970-01-01T01:47:07.000Z</time>
      </trkpt>
      <trkpt lat="42.281988" lon="-8.788653">
        <ele>78.3</ele>
        <time>1970-01-01T01:47:08.000Z</time>
      </trkpt>
      <trkpt lat="42.282" lon="-8.788642">
        <ele>78.3</ele>
        <time>1970-01-01T01:47:09.000Z</time>
      </trkpt>
      <trkpt lat="42.282007" lon="-8.788628">
        <ele>78.3</ele>
        <time>1970-01-01T01:47:10.000Z</time>
      </trkpt>
      <trkpt lat="42.282015" lon="-8.788612">
        <ele>78.3</ele>
        <time>1970-01-01T01:47:11.000Z</time>
      </trkpt>
      <trkpt lat="42.282022" lon="-8.788603">
        <ele>78.3</ele>
        <time>1970-01-01T01:47:12.000Z</time>
      </trkpt>
      <trkpt lat="42.282037" lon="-8.78859">
        <ele>78.3</ele>
        <time>1970-01-01T01:47:13.000Z</time>
      </trkpt>
      <trkpt lat="42.282053" lon="-8.788575">
        <ele>78.3</ele>
        <time>1970-01-01T01:47:14.000Z</time>
      </trkpt>
      <trkpt lat="42.282067" lon="-8.788557">
        <ele>78.3</ele>
        <time>1970-01-01T01:47:15.000Z</time>
      </trkpt>
      <trkpt lat="42.282073" lon="-8.788542">
        <ele>80.3</ele>
        <time>1970-01-01T01:47:16.000Z</time>
      </trkpt>
      <trkpt lat="42.282078" lon="-8.788525">
        <ele>80.3</ele>
        <time>1970-01-01T01:47:17.000Z</time>
      </trkpt>
      <trkpt lat="42.282088" lon="-8.78851">
        <ele>80.3</ele>
        <time>1970-01-01T01:47:18.000Z</time>
      </trkpt>
      <trkpt lat="42.282098" lon="-8.788498">
        <ele>80.3</ele>
        <time>1970-01-01T01:47:19.000Z</time>
      </trkpt>
      <trkpt lat="42.282107" lon="-8.788487">
        <ele>81.2</ele>
        <time>1970-01-01T01:47:20.000Z</time>
      </trkpt>
      <trkpt lat="42.282117" lon="-8.788477">
        <ele>81.2</ele>
        <time>1970-01-01T01:47:21.000Z</time>
      </trkpt>
      <trkpt lat="42.28213" lon="-8.788465">
        <ele>81.2</ele>
        <time>1970-01-01T01:47:22.000Z</time>
      </trkpt>
      <trkpt lat="42.282143" lon="-8.788453">
        <ele>81.2</ele>
        <time>1970-01-01T01:47:23.000Z</time>
      </trkpt>
      <trkpt lat="42.282153" lon="-8.788442">
        <ele>81.2</ele>
        <time>1970-01-01T01:47:24.000Z</time>
      </trkpt>
      <trkpt lat="42.28216" lon="-8.78843">
        <ele>81.2</ele>
        <time>1970-01-01T01:47:25.000Z</time>
      </trkpt>
      <trkpt lat="42.282167" lon="-8.788423">
        <ele>81.2</ele>
        <time>1970-01-01T01:47:26.000Z</time>
      </trkpt>
      <trkpt lat="42.282178" lon="-8.788422">
        <ele>81.2</ele>
        <time>1970-01-01T01:47:27.000Z</time>
      </trkpt>
      <trkpt lat="42.282195" lon="-8.788418">
        <ele>81.2</ele>
        <time>1970-01-01T01:47:28.000Z</time>
      </trkpt>
      <trkpt lat="42.282207" lon="-8.78842">
        <ele>81.2</ele>
        <time>1970-01-01T01:47:29.000Z</time>
      </trkpt>
      <trkpt lat="42.28222" lon="-8.788418">
        <ele>81.2</ele>
        <time>1970-01-01T01:47:30.000Z</time>
      </trkpt>
      <trkpt lat="42.282235" lon="-8.788412">
        <ele>81.2</ele>
        <time>1970-01-01T01:47:31.000Z</time>
      </trkpt>
      <trkpt lat="42.28225" lon="-8.788408">
        <ele>82.3</ele>
        <time>1970-01-01T01:47:32.000Z</time>
      </trkpt>
      <trkpt lat="42.282268" lon="-8.788405">
        <ele>82.3</ele>
        <time>1970-01-01T01:47:33.000Z</time>
      </trkpt>
      <trkpt lat="42.282278" lon="-8.78839">
        <ele>82.3</ele>
        <time>1970-01-01T01:47:34.000Z</time>
      </trkpt>
      <trkpt lat="42.28229" lon="-8.78838">
        <ele>82.3</ele>
        <time>1970-01-01T01:47:35.000Z</time>
      </trkpt>
      <trkpt lat="42.2823" lon="-8.788372">
        <ele>82.3</ele>
        <time>1970-01-01T01:47:36.000Z</time>
      </trkpt>
      <trkpt lat="42.28231" lon="-8.78836">
        <ele>82.3</ele>
        <time>1970-01-01T01:47:37.000Z</time>
      </trkpt>
      <trkpt lat="42.282318" lon="-8.788353">
        <ele>83.2</ele>
        <time>1970-01-01T01:47:38.000Z</time>
      </trkpt>
      <trkpt lat="42.282333" lon="-8.788347">
        <ele>83.2</ele>
        <time>1970-01-01T01:47:39.000Z</time>
      </trkpt>
      <trkpt lat="42.282345" lon="-8.788342">
        <ele>83.2</ele>
        <time>1970-01-01T01:47:40.000Z</time>
      </trkpt>
      <trkpt lat="42.282353" lon="-8.788333">
        <ele>83.2</ele>
        <time>1970-01-01T01:47:41.000Z</time>
      </trkpt>
      <trkpt lat="42.282367" lon="-8.788328">
        <ele>83.2</ele>
        <time>1970-01-01T01:47:42.000Z</time>
      </trkpt>
      <trkpt lat="42.28238" lon="-8.788325">
        <ele>83.2</ele>
        <time>1970-01-01T01:47:43.000Z</time>
      </trkpt>
      <trkpt lat="42.282393" lon="-8.788315">
        <ele>83.2</ele>
        <time>1970-01-01T01:47:44.000Z</time>
      </trkpt>
      <trkpt lat="42.282405" lon="-8.788307">
        <ele>83.2</ele>
        <time>1970-01-01T01:47:45.000Z</time>
      </trkpt>
      <trkpt lat="42.282422" lon="-8.788307">
        <ele>84.3</ele>
        <time>1970-01-01T01:47:46.000Z</time>
      </trkpt>
      <trkpt lat="42.282438" lon="-8.788302">
        <ele>84.3</ele>
        <time>1970-01-01T01:47:47.000Z</time>
      </trkpt>
      <trkpt lat="42.282457" lon="-8.788287">
        <ele>85.2</ele>
        <time>1970-01-01T01:47:48.000Z</time>
      </trkpt>
      <trkpt lat="42.282473" lon="-8.788287">
        <ele>85.2</ele>
        <time>1970-01-01T01:47:49.000Z</time>
      </trkpt>
      <trkpt lat="42.282492" lon="-8.78828">
        <ele>85.2</ele>
        <time>1970-01-01T01:47:50.000Z</time>
      </trkpt>
      <trkpt lat="42.28251" lon="-8.788275">
        <ele>85.2</ele>
        <time>1970-01-01T01:47:51.000Z</time>
      </trkpt>
      <trkpt lat="42.282525" lon="-8.788268">
        <ele>86.3</ele>
        <time>1970-01-01T01:47:52.000Z</time>
      </trkpt>
      <trkpt lat="42.282537" lon="-8.788258">
        <ele>86.3</ele>
        <time>1970-01-01T01:47:53.000Z</time>
      </trkpt>
      <trkpt lat="42.282547" lon="-8.788248">
        <ele>86.3</ele>
        <time>1970-01-01T01:47:54.000Z</time>
      </trkpt>
      <trkpt lat="42.282558" lon="-8.788238">
        <ele>86.3</ele>
        <time>1970-01-01T01:47:55.000Z</time>
      </trkpt>
      <trkpt lat="42.282567" lon="-8.788227">
        <ele>86.3</ele>
        <time>1970-01-01T01:47:56.000Z</time>
      </trkpt>
      <trkpt lat="42.282588" lon="-8.788215">
        <ele>86.3</ele>
        <time>1970-01-01T01:47:57.000Z</time>
      </trkpt>
      <trkpt lat="42.282597" lon="-8.7882">
        <ele>86.3</ele>
        <time>1970-01-01T01:47:58.000Z</time>
      </trkpt>
      <trkpt lat="42.282607" lon="-8.788187">
        <ele>86.3</ele>
        <time>1970-01-01T01:47:59.000Z</time>
      </trkpt>
      <trkpt lat="42.282615" lon="-8.78817">
        <ele>86.3</ele>
        <time>1970-01-01T01:48:00.000Z</time>
      </trkpt>
      <trkpt lat="42.282627" lon="-8.78815">
        <ele>86.3</ele>
        <time>1970-01-01T01:48:01.000Z</time>
      </trkpt>
      <trkpt lat="42.282638" lon="-8.788137">
        <ele>86.3</ele>
        <time>1970-01-01T01:48:02.000Z</time>
      </trkpt>
      <trkpt lat="42.282648" lon="-8.788127">
        <ele>86.3</ele>
        <time>1970-01-01T01:48:03.000Z</time>
      </trkpt>
      <trkpt lat="42.282655" lon="-8.788103">
        <ele>88.2</ele>
        <time>1970-01-01T01:48:04.000Z</time>
      </trkpt>
      <trkpt lat="42.282668" lon="-8.788087">
        <ele>88.2</ele>
        <time>1970-01-01T01:48:05.000Z</time>
      </trkpt>
      <trkpt lat="42.282677" lon="-8.788067">
        <ele>89.3</ele>
        <time>1970-01-01T01:48:06.000Z</time>
      </trkpt>
      <trkpt lat="42.282685" lon="-8.788058">
        <ele>89.3</ele>
        <time>1970-01-01T01:48:07.000Z</time>
      </trkpt>
      <trkpt lat="42.282698" lon="-8.788045">
        <ele>89.3</ele>
        <time>1970-01-01T01:48:08.000Z</time>
      </trkpt>
      <trkpt lat="42.28271" lon="-8.78803">
        <ele>89.3</ele>
        <time>1970-01-01T01:48:09.000Z</time>
      </trkpt>
      <trkpt lat="42.282717" lon="-8.788017">
        <ele>90.2</ele>
        <time>1970-01-01T01:48:10.000Z</time>
      </trkpt>
      <trkpt lat="42.282725" lon="-8.788002">
        <ele>90.2</ele>
        <time>1970-01-01T01:48:11.000Z</time>
      </trkpt>
      <trkpt lat="42.282728" lon="-8.787993">
        <ele>90.2</ele>
        <time>1970-01-01T01:48:12.000Z</time>
      </trkpt>
      <trkpt lat="42.282732" lon="-8.787983">
        <ele>90.2</ele>
        <time>1970-01-01T01:48:13.000Z</time>
      </trkpt>
      <trkpt lat="42.282733" lon="-8.78797">
        <ele>90.2</ele>
        <time>1970-01-01T01:48:14.000Z</time>
      </trkpt>
      <trkpt lat="42.28274" lon="-8.787958">
        <ele>90.2</ele>
        <time>1970-01-01T01:48:15.000Z</time>
      </trkpt>
      <trkpt lat="42.282752" lon="-8.787945">
        <ele>90.2</ele>
        <time>1970-01-01T01:48:16.000Z</time>
      </trkpt>
      <trkpt lat="42.282762" lon="-8.787935">
        <ele>90.2</ele>
        <time>1970-01-01T01:48:17.000Z</time>
      </trkpt>
      <trkpt lat="42.282777" lon="-8.787922">
        <ele>90.2</ele>
        <time>1970-01-01T01:48:18.000Z</time>
      </trkpt>
      <trkpt lat="42.28279" lon="-8.787907">
        <ele>90.2</ele>
        <time>1970-01-01T01:48:19.000Z</time>
      </trkpt>
      <trkpt lat="42.282805" lon="-8.787897">
        <ele>90.2</ele>
        <time>1970-01-01T01:48:20.000Z</time>
      </trkpt>
      <trkpt lat="42.282815" lon="-8.787895">
        <ele>90.2</ele>
        <time>1970-01-01T01:48:21.000Z</time>
      </trkpt>
      <trkpt lat="42.282832" lon="-8.787883">
        <ele>91.3</ele>
        <time>1970-01-01T01:48:22.000Z</time>
      </trkpt>
      <trkpt lat="42.282843" lon="-8.787872">
        <ele>91.3</ele>
        <time>1970-01-01T01:48:23.000Z</time>
      </trkpt>
      <trkpt lat="42.282855" lon="-8.787863">
        <ele>91.3</ele>
        <time>1970-01-01T01:48:24.000Z</time>
      </trkpt>
      <trkpt lat="42.282872" lon="-8.787857">
        <ele>91.3</ele>
        <time>1970-01-01T01:48:25.000Z</time>
      </trkpt>
      <trkpt lat="42.28289" lon="-8.78785">
        <ele>92.2</ele>
        <time>1970-01-01T01:48:26.000Z</time>
      </trkpt>
      <trkpt lat="42.282905" lon="-8.787847">
        <ele>92.2</ele>
        <time>1970-01-01T01:48:27.000Z</time>
      </trkpt>
      <trkpt lat="42.282923" lon="-8.787845">
        <ele>92.2</ele>
        <time>1970-01-01T01:48:28.000Z</time>
      </trkpt>
      <trkpt lat="42.282938" lon="-8.78784">
        <ele>92.2</ele>
        <time>1970-01-01T01:48:29.000Z</time>
      </trkpt>
      <trkpt lat="42.282948" lon="-8.787828">
        <ele>92.2</ele>
        <time>1970-01-01T01:48:30.000Z</time>
      </trkpt>
      <trkpt lat="42.282965" lon="-8.787823">
        <ele>92.2</ele>
        <time>1970-01-01T01:48:31.000Z</time>
      </trkpt>
      <trkpt lat="42.282985" lon="-8.78782">
        <ele>93.3</ele>
        <time>1970-01-01T01:48:32.000Z</time>
      </trkpt>
      <trkpt lat="42.282997" lon="-8.787818">
        <ele>93.3</ele>
        <time>1970-01-01T01:48:33.000Z</time>
      </trkpt>
      <trkpt lat="42.283008" lon="-8.787813">
        <ele>93.3</ele>
        <time>1970-01-01T01:48:34.000Z</time>
      </trkpt>
      <trkpt lat="42.283018" lon="-8.787812">
        <ele>93.3</ele>
        <time>1970-01-01T01:48:35.000Z</time>
      </trkpt>
      <trkpt lat="42.283032" lon="-8.787807">
        <ele>93.3</ele>
        <time>1970-01-01T01:48:36.000Z</time>
      </trkpt>
      <trkpt lat="42.283045" lon="-8.787808">
        <ele>93.3</ele>
        <time>1970-01-01T01:48:37.000Z</time>
      </trkpt>
      <trkpt lat="42.283057" lon="-8.787805">
        <ele>94.3</ele>
        <time>1970-01-01T01:48:38.000Z</time>
      </trkpt>
      <trkpt lat="42.28307" lon="-8.787803">
        <ele>94.3</ele>
        <time>1970-01-01T01:48:39.000Z</time>
      </trkpt>
      <trkpt lat="42.283085" lon="-8.787805">
        <ele>94.3</ele>
        <time>1970-01-01T01:48:40.000Z</time>
      </trkpt>
      <trkpt lat="42.2831" lon="-8.787805">
        <ele>94.3</ele>
        <time>1970-01-01T01:48:41.000Z</time>
      </trkpt>
      <trkpt lat="42.28311" lon="-8.78781">
        <ele>94.3</ele>
        <time>1970-01-01T01:48:42.000Z</time>
      </trkpt>
      <trkpt lat="42.28312" lon="-8.787818">
        <ele>94.3</ele>
        <time>1970-01-01T01:48:43.000Z</time>
      </trkpt>
      <trkpt lat="42.283132" lon="-8.787828">
        <ele>94.3</ele>
        <time>1970-01-01T01:48:44.000Z</time>
      </trkpt>
      <trkpt lat="42.283148" lon="-8.787828">
        <ele>94.3</ele>
        <time>1970-01-01T01:48:45.000Z</time>
      </trkpt>
      <trkpt lat="42.283162" lon="-8.787828">
        <ele>94.3</ele>
        <time>1970-01-01T01:48:46.000Z</time>
      </trkpt>
      <trkpt lat="42.283178" lon="-8.787838">
        <ele>94.3</ele>
        <time>1970-01-01T01:48:47.000Z</time>
      </trkpt>
      <trkpt lat="42.2832" lon="-8.78785">
        <ele>95.3</ele>
        <time>1970-01-01T01:48:48.000Z</time>
      </trkpt>
      <trkpt lat="42.283218" lon="-8.787862">
        <ele>95.3</ele>
        <time>1970-01-01T01:48:49.000Z</time>
      </trkpt>
      <trkpt lat="42.28323" lon="-8.787867">
        <ele>95.3</ele>
        <time>1970-01-01T01:48:50.000Z</time>
      </trkpt>
      <trkpt lat="42.283247" lon="-8.787867">
        <ele>95.3</ele>
        <time>1970-01-01T01:48:51.000Z</time>
      </trkpt>
      <trkpt lat="42.283267" lon="-8.787867">
        <ele>95.3</ele>
        <time>1970-01-01T01:48:52.000Z</time>
      </trkpt>
      <trkpt lat="42.283278" lon="-8.787867">
        <ele>95.3</ele>
        <time>1970-01-01T01:48:53.000Z</time>
      </trkpt>
      <trkpt lat="42.283293" lon="-8.787862">
        <ele>96.3</ele>
        <time>1970-01-01T01:48:54.000Z</time>
      </trkpt>
      <trkpt lat="42.283302" lon="-8.787855">
        <ele>96.3</ele>
        <time>1970-01-01T01:48:55.000Z</time>
      </trkpt>
      <trkpt lat="42.283312" lon="-8.787848">
        <ele>97.2</ele>
        <time>1970-01-01T01:48:56.000Z</time>
      </trkpt>
      <trkpt lat="42.283323" lon="-8.787843">
        <ele>97.2</ele>
        <time>1970-01-01T01:48:57.000Z</time>
      </trkpt>
      <trkpt lat="42.283335" lon="-8.78784">
        <ele>97.2</ele>
        <time>1970-01-01T01:48:58.000Z</time>
      </trkpt>
      <trkpt lat="42.283343" lon="-8.787832">
        <ele>97.2</ele>
        <time>1970-01-01T01:48:59.000Z</time>
      </trkpt>
      <trkpt lat="42.283353" lon="-8.78782">
        <ele>97.2</ele>
        <time>1970-01-01T01:49:00.000Z</time>
      </trkpt>
      <trkpt lat="42.283365" lon="-8.787807">
        <ele>97.2</ele>
        <time>1970-01-01T01:49:01.000Z</time>
      </trkpt>
      <trkpt lat="42.283377" lon="-8.787797">
        <ele>97.2</ele>
        <time>1970-01-01T01:49:02.000Z</time>
      </trkpt>
      <trkpt lat="42.28339" lon="-8.787793">
        <ele>97.2</ele>
        <time>1970-01-01T01:49:03.000Z</time>
      </trkpt>
      <trkpt lat="42.283398" lon="-8.787783">
        <ele>98.3</ele>
        <time>1970-01-01T01:49:04.000Z</time>
      </trkpt>
      <trkpt lat="42.283413" lon="-8.787777">
        <ele>98.3</ele>
        <time>1970-01-01T01:49:05.000Z</time>
      </trkpt>
      <trkpt lat="42.283422" lon="-8.78778">
        <ele>98.3</ele>
        <time>1970-01-01T01:49:06.000Z</time>
      </trkpt>
      <trkpt lat="42.283433" lon="-8.787775">
        <ele>98.3</ele>
        <time>1970-01-01T01:49:07.000Z</time>
      </trkpt>
      <trkpt lat="42.283443" lon="-8.78777">
        <ele>98.3</ele>
        <time>1970-01-01T01:49:08.000Z</time>
      </trkpt>
      <trkpt lat="42.283453" lon="-8.787765">
        <ele>98.3</ele>
        <time>1970-01-01T01:49:09.000Z</time>
      </trkpt>
      <trkpt lat="42.283463" lon="-8.787758">
        <ele>99.2</ele>
        <time>1970-01-01T01:49:10.000Z</time>
      </trkpt>
      <trkpt lat="42.283475" lon="-8.787752">
        <ele>99.2</ele>
        <time>1970-01-01T01:49:11.000Z</time>
      </trkpt>
      <trkpt lat="42.283485" lon="-8.787745">
        <ele>99.2</ele>
        <time>1970-01-01T01:49:12.000Z</time>
      </trkpt>
      <trkpt lat="42.2835" lon="-8.787747">
        <ele>99.2</ele>
        <time>1970-01-01T01:49:13.000Z</time>
      </trkpt>
      <trkpt lat="42.283517" lon="-8.787743">
        <ele>99.2</ele>
        <time>1970-01-01T01:49:14.000Z</time>
      </trkpt>
      <trkpt lat="42.283527" lon="-8.787735">
        <ele>99.2</ele>
        <time>1970-01-01T01:49:15.000Z</time>
      </trkpt>
      <trkpt lat="42.283538" lon="-8.787727">
        <ele>100.3</ele>
        <time>1970-01-01T01:49:16.000Z</time>
      </trkpt>
      <trkpt lat="42.283553" lon="-8.787718">
        <ele>100.3</ele>
        <time>1970-01-01T01:49:17.000Z</time>
      </trkpt>
      <trkpt lat="42.28357" lon="-8.787712">
        <ele>100.3</ele>
        <time>1970-01-01T01:49:18.000Z</time>
      </trkpt>
      <trkpt lat="42.283582" lon="-8.787708">
        <ele>100.3</ele>
        <time>1970-01-01T01:49:19.000Z</time>
      </trkpt>
      <trkpt lat="42.283595" lon="-8.787707">
        <ele>100.3</ele>
        <time>1970-01-01T01:49:20.000Z</time>
      </trkpt>
      <trkpt lat="42.28361" lon="-8.787703">
        <ele>100.3</ele>
        <time>1970-01-01T01:49:21.000Z</time>
      </trkpt>
      <trkpt lat="42.283623" lon="-8.787702">
        <ele>101.2</ele>
        <time>1970-01-01T01:49:22.000Z</time>
      </trkpt>
      <trkpt lat="42.283645" lon="-8.787702">
        <ele>101.2</ele>
        <time>1970-01-01T01:49:23.000Z</time>
      </trkpt>
      <trkpt lat="42.283655" lon="-8.7877">
        <ele>101.2</ele>
        <time>1970-01-01T01:49:24.000Z</time>
      </trkpt>
      <trkpt lat="42.283667" lon="-8.787697">
        <ele>101.2</ele>
        <time>1970-01-01T01:49:25.000Z</time>
      </trkpt>
      <trkpt lat="42.283683" lon="-8.787693">
        <ele>101.2</ele>
        <time>1970-01-01T01:49:26.000Z</time>
      </trkpt>
      <trkpt lat="42.2837" lon="-8.787688">
        <ele>101.2</ele>
        <time>1970-01-01T01:49:27.000Z</time>
      </trkpt>
      <trkpt lat="42.283715" lon="-8.787683">
        <ele>101.2</ele>
        <time>1970-01-01T01:49:28.000Z</time>
      </trkpt>
      <trkpt lat="42.283728" lon="-8.78768">
        <ele>101.2</ele>
        <time>1970-01-01T01:49:29.000Z</time>
      </trkpt>
      <trkpt lat="42.283742" lon="-8.787677">
        <ele>101.2</ele>
        <time>1970-01-01T01:49:30.000Z</time>
      </trkpt>
      <trkpt lat="42.283753" lon="-8.787672">
        <ele>101.2</ele>
        <time>1970-01-01T01:49:31.000Z</time>
      </trkpt>
      <trkpt lat="42.283765" lon="-8.787668">
        <ele>101.2</ele>
        <time>1970-01-01T01:49:32.000Z</time>
      </trkpt>
      <trkpt lat="42.283778" lon="-8.787663">
        <ele>101.2</ele>
        <time>1970-01-01T01:49:33.000Z</time>
      </trkpt>
      <trkpt lat="42.283797" lon="-8.78766">
        <ele>101.2</ele>
        <time>1970-01-01T01:49:34.000Z</time>
      </trkpt>
      <trkpt lat="42.283817" lon="-8.787657">
        <ele>101.2</ele>
        <time>1970-01-01T01:49:35.000Z</time>
      </trkpt>
      <trkpt lat="42.283832" lon="-8.787652">
        <ele>102.3</ele>
        <time>1970-01-01T01:49:36.000Z</time>
      </trkpt>
      <trkpt lat="42.283847" lon="-8.787648">
        <ele>102.3</ele>
        <time>1970-01-01T01:49:37.000Z</time>
      </trkpt>
      <trkpt lat="42.283862" lon="-8.787647">
        <ele>102.3</ele>
        <time>1970-01-01T01:49:38.000Z</time>
      </trkpt>
      <trkpt lat="42.283882" lon="-8.787653">
        <ele>102.3</ele>
        <time>1970-01-01T01:49:39.000Z</time>
      </trkpt>
      <trkpt lat="42.283893" lon="-8.787653">
        <ele>102.3</ele>
        <time>1970-01-01T01:49:40.000Z</time>
      </trkpt>
      <trkpt lat="42.28391" lon="-8.787648">
        <ele>102.3</ele>
        <time>1970-01-01T01:49:41.000Z</time>
      </trkpt>
      <trkpt lat="42.283925" lon="-8.787647">
        <ele>102.3</ele>
        <time>1970-01-01T01:49:42.000Z</time>
      </trkpt>
      <trkpt lat="42.283942" lon="-8.78765">
        <ele>102.3</ele>
        <time>1970-01-01T01:49:43.000Z</time>
      </trkpt>
      <trkpt lat="42.283963" lon="-8.787652">
        <ele>102.3</ele>
        <time>1970-01-01T01:49:44.000Z</time>
      </trkpt>
      <trkpt lat="42.283982" lon="-8.787645">
        <ele>102.3</ele>
        <time>1970-01-01T01:49:45.000Z</time>
      </trkpt>
      <trkpt lat="42.283988" lon="-8.787633">
        <ele>103.3</ele>
        <time>1970-01-01T01:49:46.000Z</time>
      </trkpt>
      <trkpt lat="42.283998" lon="-8.787622">
        <ele>103.3</ele>
        <time>1970-01-01T01:49:47.000Z</time>
      </trkpt>
      <trkpt lat="42.284005" lon="-8.787618">
        <ele>103.3</ele>
        <time>1970-01-01T01:49:48.000Z</time>
      </trkpt>
      <trkpt lat="42.284017" lon="-8.78761">
        <ele>103.3</ele>
        <time>1970-01-01T01:49:49.000Z</time>
      </trkpt>
      <trkpt lat="42.28404" lon="-8.787603">
        <ele>103.3</ele>
        <time>1970-01-01T01:49:50.000Z</time>
      </trkpt>
      <trkpt lat="42.284062" lon="-8.787598">
        <ele>103.3</ele>
        <time>1970-01-01T01:49:51.000Z</time>
      </trkpt>
      <trkpt lat="42.284073" lon="-8.78759">
        <ele>103.3</ele>
        <time>1970-01-01T01:49:52.000Z</time>
      </trkpt>
      <trkpt lat="42.284087" lon="-8.787585">
        <ele>103.3</ele>
        <time>1970-01-01T01:49:53.000Z</time>
      </trkpt>
      <trkpt lat="42.284098" lon="-8.78758">
        <ele>103.3</ele>
        <time>1970-01-01T01:49:54.000Z</time>
      </trkpt>
      <trkpt lat="42.284115" lon="-8.787573">
        <ele>103.3</ele>
        <time>1970-01-01T01:49:55.000Z</time>
      </trkpt>
      <trkpt lat="42.284132" lon="-8.787572">
        <ele>103.3</ele>
        <time>1970-01-01T01:49:56.000Z</time>
      </trkpt>
      <trkpt lat="42.284145" lon="-8.787568">
        <ele>103.3</ele>
        <time>1970-01-01T01:49:57.000Z</time>
      </trkpt>
      <trkpt lat="42.284162" lon="-8.787563">
        <ele>103.3</ele>
        <time>1970-01-01T01:49:58.000Z</time>
      </trkpt>
      <trkpt lat="42.284175" lon="-8.787558">
        <ele>103.3</ele>
        <time>1970-01-01T01:49:59.000Z</time>
      </trkpt>
      <trkpt lat="42.284188" lon="-8.787555">
        <ele>104.2</ele>
        <time>1970-01-01T01:50:00.000Z</time>
      </trkpt>
      <trkpt lat="42.284197" lon="-8.78755">
        <ele>104.2</ele>
        <time>1970-01-01T01:50:01.000Z</time>
      </trkpt>
      <trkpt lat="42.284212" lon="-8.787543">
        <ele>104.2</ele>
        <time>1970-01-01T01:50:02.000Z</time>
      </trkpt>
      <trkpt lat="42.284225" lon="-8.787537">
        <ele>104.2</ele>
        <time>1970-01-01T01:50:03.000Z</time>
      </trkpt>
      <trkpt lat="42.28424" lon="-8.787532">
        <ele>104.2</ele>
        <time>1970-01-01T01:50:04.000Z</time>
      </trkpt>
      <trkpt lat="42.284255" lon="-8.78753">
        <ele>104.2</ele>
        <time>1970-01-01T01:50:05.000Z</time>
      </trkpt>
      <trkpt lat="42.284268" lon="-8.787527">
        <ele>104.2</ele>
        <time>1970-01-01T01:50:06.000Z</time>
      </trkpt>
      <trkpt lat="42.284283" lon="-8.787535">
        <ele>104.2</ele>
        <time>1970-01-01T01:50:07.000Z</time>
      </trkpt>
      <trkpt lat="42.2843" lon="-8.787533">
        <ele>104.2</ele>
        <time>1970-01-01T01:50:08.000Z</time>
      </trkpt>
      <trkpt lat="42.28431" lon="-8.787525">
        <ele>104.2</ele>
        <time>1970-01-01T01:50:09.000Z</time>
      </trkpt>
      <trkpt lat="42.28433" lon="-8.787518">
        <ele>105.3</ele>
        <time>1970-01-01T01:50:10.000Z</time>
      </trkpt>
      <trkpt lat="42.284343" lon="-8.787513">
        <ele>105.3</ele>
        <time>1970-01-01T01:50:11.000Z</time>
      </trkpt>
      <trkpt lat="42.284362" lon="-8.787515">
        <ele>105.3</ele>
        <time>1970-01-01T01:50:12.000Z</time>
      </trkpt>
      <trkpt lat="42.284378" lon="-8.787522">
        <ele>105.3</ele>
        <time>1970-01-01T01:50:13.000Z</time>
      </trkpt>
      <trkpt lat="42.284395" lon="-8.787517">
        <ele>105.3</ele>
        <time>1970-01-01T01:50:14.000Z</time>
      </trkpt>
      <trkpt lat="42.28441" lon="-8.787512">
        <ele>105.3</ele>
        <time>1970-01-01T01:50:15.000Z</time>
      </trkpt>
      <trkpt lat="42.284428" lon="-8.787507">
        <ele>105.3</ele>
        <time>1970-01-01T01:50:16.000Z</time>
      </trkpt>
      <trkpt lat="42.284443" lon="-8.78751">
        <ele>105.3</ele>
        <time>1970-01-01T01:50:17.000Z</time>
      </trkpt>
      <trkpt lat="42.284457" lon="-8.787508">
        <ele>105.3</ele>
        <time>1970-01-01T01:50:18.000Z</time>
      </trkpt>
      <trkpt lat="42.284472" lon="-8.787507">
        <ele>105.3</ele>
        <time>1970-01-01T01:50:19.000Z</time>
      </trkpt>
      <trkpt lat="42.284485" lon="-8.787503">
        <ele>105.3</ele>
        <time>1970-01-01T01:50:20.000Z</time>
      </trkpt>
      <trkpt lat="42.2845" lon="-8.787502">
        <ele>105.3</ele>
        <time>1970-01-01T01:50:21.000Z</time>
      </trkpt>
      <trkpt lat="42.284517" lon="-8.7875">
        <ele>105.3</ele>
        <time>1970-01-01T01:50:22.000Z</time>
      </trkpt>
      <trkpt lat="42.284532" lon="-8.787497">
        <ele>105.3</ele>
        <time>1970-01-01T01:50:23.000Z</time>
      </trkpt>
      <trkpt lat="42.284545" lon="-8.787493">
        <ele>106.2</ele>
        <time>1970-01-01T01:50:24.000Z</time>
      </trkpt>
      <trkpt lat="42.284562" lon="-8.787493">
        <ele>106.2</ele>
        <time>1970-01-01T01:50:25.000Z</time>
      </trkpt>
      <trkpt lat="42.284577" lon="-8.787492">
        <ele>106.2</ele>
        <time>1970-01-01T01:50:26.000Z</time>
      </trkpt>
      <trkpt lat="42.284588" lon="-8.78749">
        <ele>106.2</ele>
        <time>1970-01-01T01:50:27.000Z</time>
      </trkpt>
      <trkpt lat="42.284597" lon="-8.787498">
        <ele>106.2</ele>
        <time>1970-01-01T01:50:28.000Z</time>
      </trkpt>
      <trkpt lat="42.284602" lon="-8.787497">
        <ele>106.2</ele>
        <time>1970-01-01T01:50:29.000Z</time>
      </trkpt>
      <trkpt lat="42.284608" lon="-8.787497">
        <ele>107.3</ele>
        <time>1970-01-01T01:50:30.000Z</time>
      </trkpt>
      <trkpt lat="42.284612" lon="-8.787498">
        <ele>107.3</ele>
        <time>1970-01-01T01:50:31.000Z</time>
      </trkpt>
      <trkpt lat="42.284613" lon="-8.787498">
        <ele>107.3</ele>
        <time>1970-01-01T01:50:32.000Z</time>
      </trkpt>
      <trkpt lat="42.284615" lon="-8.787498">
        <ele>107.3</ele>
        <time>1970-01-01T01:50:33.000Z</time>
      </trkpt>
      <trkpt lat="42.284615" lon="-8.787498">
        <ele>106.2</ele>
        <time>1970-01-01T01:50:34.000Z</time>
      </trkpt>
      <trkpt lat="42.284615" lon="-8.787498">
        <ele>106.2</ele>
        <time>1970-01-01T01:50:35.000Z</time>
      </trkpt>
      <trkpt lat="42.284607" lon="-8.787487">
        <ele>106.2</ele>
        <time>1970-01-01T01:50:36.000Z</time>
      </trkpt>
      <trkpt lat="42.284612" lon="-8.787485">
        <ele>106.2</ele>
        <time>1970-01-01T01:50:37.000Z</time>
      </trkpt>
      <trkpt lat="42.28469" lon="-8.787453">
        <ele>103.3</ele>
        <time>1970-01-01T01:50:38.000Z</time>
      </trkpt>
      <trkpt lat="42.28469" lon="-8.787453">
        <ele>103.3</ele>
        <time>1970-01-01T01:50:39.000Z</time>
      </trkpt>
      <trkpt lat="42.28469" lon="-8.787453">
        <ele>103.3</ele>
        <time>1970-01-01T01:50:40.000Z</time>
      </trkpt>
      <trkpt lat="42.284683" lon="-8.787455">
        <ele>103.3</ele>
        <time>1970-01-01T01:50:41.000Z</time>
      </trkpt>
      <trkpt lat="42.284667" lon="-8.787465">
        <ele>103.3</ele>
        <time>1970-01-01T01:50:42.000Z</time>
      </trkpt>
      <trkpt lat="42.284648" lon="-8.78747">
        <ele>102.3</ele>
        <time>1970-01-01T01:50:43.000Z</time>
      </trkpt>
      <trkpt lat="42.28463" lon="-8.787482">
        <ele>102.3</ele>
        <time>1970-01-01T01:51:06.000Z</time>
      </trkpt>
      <trkpt lat="42.284612" lon="-8.787498">
        <ele>102.3</ele>
        <time>1970-01-01T01:51:07.000Z</time>
      </trkpt>
      <trkpt lat="42.284597" lon="-8.787498">
        <ele>102.3</ele>
        <time>1970-01-01T01:51:08.000Z</time>
      </trkpt>
      <trkpt lat="42.28459" lon="-8.787503">
        <ele>101.2</ele>
        <time>1970-01-01T01:51:09.000Z</time>
      </trkpt>
      <trkpt lat="42.284585" lon="-8.787508">
        <ele>101.2</ele>
        <time>1970-01-01T01:51:10.000Z</time>
      </trkpt>
      <trkpt lat="42.284578" lon="-8.787515">
        <ele>101.2</ele>
        <time>1970-01-01T01:51:11.000Z</time>
      </trkpt>
      <trkpt lat="42.284573" lon="-8.787523">
        <ele>101.2</ele>
        <time>1970-01-01T01:51:12.000Z</time>
      </trkpt>
      <trkpt lat="42.284573" lon="-8.787528">
        <ele>101.2</ele>
        <time>1970-01-01T01:51:13.000Z</time>
      </trkpt>
      <trkpt lat="42.284577" lon="-8.787537">
        <ele>101.2</ele>
        <time>1970-01-01T01:51:14.000Z</time>
      </trkpt>
      <trkpt lat="42.28458" lon="-8.787545">
        <ele>101.2</ele>
        <time>1970-01-01T01:51:15.000Z</time>
      </trkpt>
      <trkpt lat="42.284582" lon="-8.787558">
        <ele>101.2</ele>
        <time>1970-01-01T01:51:16.000Z</time>
      </trkpt>
      <trkpt lat="42.284583" lon="-8.787563">
        <ele>101.2</ele>
        <time>1970-01-01T01:51:17.000Z</time>
      </trkpt>
      <trkpt lat="42.284585" lon="-8.787565">
        <ele>101.2</ele>
        <time>1970-01-01T01:51:18.000Z</time>
      </trkpt>
      <trkpt lat="42.284588" lon="-8.787567">
        <ele>101.2</ele>
        <time>1970-01-01T01:51:19.000Z</time>
      </trkpt>
      <trkpt lat="42.284593" lon="-8.78757">
        <ele>101.2</ele>
        <time>1970-01-01T01:51:20.000Z</time>
      </trkpt>
      <trkpt lat="42.284592" lon="-8.787565">
        <ele>101.2</ele>
        <time>1970-01-01T01:51:21.000Z</time>
      </trkpt>
      <trkpt lat="42.28459" lon="-8.787562">
        <ele>101.2</ele>
        <time>1970-01-01T01:51:22.000Z</time>
      </trkpt>
      <trkpt lat="42.28459" lon="-8.787563">
        <ele>102.3</ele>
        <time>1970-01-01T01:51:23.000Z</time>
      </trkpt>
      <trkpt lat="42.284588" lon="-8.787563">
        <ele>102.3</ele>
        <time>1970-01-01T01:51:24.000Z</time>
      </trkpt>
      <trkpt lat="42.284588" lon="-8.787565">
        <ele>102.3</ele>
        <time>1970-01-01T01:51:25.000Z</time>
      </trkpt>
      <trkpt lat="42.284588" lon="-8.787568">
        <ele>102.3</ele>
        <time>1970-01-01T01:51:26.000Z</time>
      </trkpt>
      <trkpt lat="42.28459" lon="-8.787568">
        <ele>102.3</ele>
        <time>1970-01-01T01:51:27.000Z</time>
      </trkpt>
      <trkpt lat="42.284592" lon="-8.787575">
        <ele>102.3</ele>
        <time>1970-01-01T01:51:28.000Z</time>
      </trkpt>
      <trkpt lat="42.284592" lon="-8.78758">
        <ele>102.3</ele>
        <time>1970-01-01T01:51:29.000Z</time>
      </trkpt>
      <trkpt lat="42.284593" lon="-8.78758">
        <ele>102.3</ele>
        <time>1970-01-01T01:51:30.000Z</time>
      </trkpt>
      <trkpt lat="42.284595" lon="-8.78758">
        <ele>101.2</ele>
        <time>1970-01-01T01:51:31.000Z</time>
      </trkpt>
      <trkpt lat="42.284593" lon="-8.787573">
        <ele>101.2</ele>
        <time>1970-01-01T01:51:32.000Z</time>
      </trkpt>
      <trkpt lat="42.284593" lon="-8.787568">
        <ele>101.2</ele>
        <time>1970-01-01T01:51:33.000Z</time>
      </trkpt>
      <trkpt lat="42.28459" lon="-8.787562">
        <ele>101.2</ele>
        <time>1970-01-01T01:51:34.000Z</time>
      </trkpt>
      <trkpt lat="42.284588" lon="-8.787558">
        <ele>101.2</ele>
        <time>1970-01-01T01:51:35.000Z</time>
      </trkpt>
      <trkpt lat="42.284588" lon="-8.787552">
        <ele>101.2</ele>
        <time>1970-01-01T01:51:36.000Z</time>
      </trkpt>
      <trkpt lat="42.284588" lon="-8.787557">
        <ele>101.2</ele>
        <time>1970-01-01T01:51:37.000Z</time>
      </trkpt>
      <trkpt lat="42.284588" lon="-8.787562">
        <ele>101.2</ele>
        <time>1970-01-01T01:51:38.000Z</time>
      </trkpt>
      <trkpt lat="42.284588" lon="-8.787565">
        <ele>101.2</ele>
        <time>1970-01-01T01:51:39.000Z</time>
      </trkpt>
      <trkpt lat="42.284587" lon="-8.78757">
        <ele>101.2</ele>
        <time>1970-01-01T01:51:40.000Z</time>
      </trkpt>
      <trkpt lat="42.284587" lon="-8.787573">
        <ele>101.2</ele>
        <time>1970-01-01T01:51:41.000Z</time>
      </trkpt>
      <trkpt lat="42.284587" lon="-8.787575">
        <ele>101.2</ele>
        <time>1970-01-01T01:51:42.000Z</time>
      </trkpt>
      <trkpt lat="42.284588" lon="-8.787577">
        <ele>101.2</ele>
        <time>1970-01-01T01:51:43.000Z</time>
      </trkpt>
      <trkpt lat="42.28459" lon="-8.787573">
        <ele>101.2</ele>
        <time>1970-01-01T01:51:44.000Z</time>
      </trkpt>
      <trkpt lat="42.28459" lon="-8.787575">
        <ele>101.2</ele>
        <time>1970-01-01T01:51:45.000Z</time>
      </trkpt>
      <trkpt lat="42.284592" lon="-8.787577">
        <ele>101.2</ele>
        <time>1970-01-01T01:51:46.000Z</time>
      </trkpt>
      <trkpt lat="42.284592" lon="-8.787578">
        <ele>101.2</ele>
        <time>1970-01-01T01:51:47.000Z</time>
      </trkpt>
      <trkpt lat="42.284592" lon="-8.78758">
        <ele>101.2</ele>
        <time>1970-01-01T01:51:48.000Z</time>
      </trkpt>
      <trkpt lat="42.284597" lon="-8.787593">
        <ele>98.3</ele>
        <time>1970-01-01T01:51:49.000Z</time>
      </trkpt>
      <trkpt lat="42.2846" lon="-8.787592">
        <ele>98.3</ele>
        <time>1970-01-01T01:51:50.000Z</time>
      </trkpt>
      <trkpt lat="42.284597" lon="-8.78758">
        <ele>97.2</ele>
        <time>1970-01-01T01:51:51.000Z</time>
      </trkpt>
      <trkpt lat="42.284597" lon="-8.787583">
        <ele>97.2</ele>
        <time>1970-01-01T01:51:52.000Z</time>
      </trkpt>
      <trkpt lat="42.284597" lon="-8.787588">
        <ele>96.3</ele>
        <time>1970-01-01T01:51:53.000Z</time>
      </trkpt>
      <trkpt lat="42.284597" lon="-8.787602">
        <ele>96.3</ele>
        <time>1970-01-01T01:51:54.000Z</time>
      </trkpt>
      <trkpt lat="42.284597" lon="-8.787612">
        <ele>96.3</ele>
        <time>1970-01-01T01:51:55.000Z</time>
      </trkpt>
      <trkpt lat="42.284597" lon="-8.78762">
        <ele>96.3</ele>
        <time>1970-01-01T01:51:56.000Z</time>
      </trkpt>
      <trkpt lat="42.284598" lon="-8.787628">
        <ele>96.3</ele>
        <time>1970-01-01T01:51:57.000Z</time>
      </trkpt>
      <trkpt lat="42.284598" lon="-8.787632">
        <ele>96.3</ele>
        <time>1970-01-01T01:51:58.000Z</time>
      </trkpt>
      <trkpt lat="42.284597" lon="-8.787643">
        <ele>96.3</ele>
        <time>1970-01-01T01:51:59.000Z</time>
      </trkpt>
      <trkpt lat="42.284597" lon="-8.787648">
        <ele>96.3</ele>
        <time>1970-01-01T01:52:00.000Z</time>
      </trkpt>
      <trkpt lat="42.2846" lon="-8.787655">
        <ele>96.3</ele>
        <time>1970-01-01T01:52:01.000Z</time>
      </trkpt>
      <trkpt lat="42.284597" lon="-8.787662">
        <ele>96.3</ele>
        <time>1970-01-01T01:52:02.000Z</time>
      </trkpt>
      <trkpt lat="42.2846" lon="-8.787665">
        <ele>96.3</ele>
        <time>1970-01-01T01:52:03.000Z</time>
      </trkpt>
      <trkpt lat="42.284602" lon="-8.787668">
        <ele>96.3</ele>
        <time>1970-01-01T01:52:04.000Z</time>
      </trkpt>
      <trkpt lat="42.2846" lon="-8.787678">
        <ele>96.3</ele>
        <time>1970-01-01T01:52:05.000Z</time>
      </trkpt>
      <trkpt lat="42.284598" lon="-8.787685">
        <ele>96.3</ele>
        <time>1970-01-01T01:52:06.000Z</time>
      </trkpt>
      <trkpt lat="42.284595" lon="-8.787695">
        <ele>97.2</ele>
        <time>1970-01-01T01:52:07.000Z</time>
      </trkpt>
      <trkpt lat="42.284593" lon="-8.787702">
        <ele>97.2</ele>
        <time>1970-01-01T01:52:08.000Z</time>
      </trkpt>
      <trkpt lat="42.284588" lon="-8.787712">
        <ele>97.2</ele>
        <time>1970-01-01T01:52:09.000Z</time>
      </trkpt>
      <trkpt lat="42.284587" lon="-8.787717">
        <ele>97.2</ele>
        <time>1970-01-01T01:52:10.000Z</time>
      </trkpt>
      <trkpt lat="42.284583" lon="-8.787727">
        <ele>98.3</ele>
        <time>1970-01-01T01:52:11.000Z</time>
      </trkpt>
      <trkpt lat="42.284583" lon="-8.787737">
        <ele>98.3</ele>
        <time>1970-01-01T01:52:12.000Z</time>
      </trkpt>
      <trkpt lat="42.284583" lon="-8.787745">
        <ele>98.3</ele>
        <time>1970-01-01T01:52:13.000Z</time>
      </trkpt>
      <trkpt lat="42.284578" lon="-8.787753">
        <ele>98.3</ele>
        <time>1970-01-01T01:52:14.000Z</time>
      </trkpt>
      <trkpt lat="42.284575" lon="-8.787757">
        <ele>98.3</ele>
        <time>1970-01-01T01:52:15.000Z</time>
      </trkpt>
      <trkpt lat="42.284575" lon="-8.78776">
        <ele>98.3</ele>
        <time>1970-01-01T01:52:16.000Z</time>
      </trkpt>
      <trkpt lat="42.284575" lon="-8.787762">
        <ele>98.3</ele>
        <time>1970-01-01T01:52:17.000Z</time>
      </trkpt>
      <trkpt lat="42.284575" lon="-8.787758">
        <ele>98.3</ele>
        <time>1970-01-01T01:52:18.000Z</time>
      </trkpt>
      <trkpt lat="42.284575" lon="-8.787765">
        <ele>98.3</ele>
        <time>1970-01-01T01:52:19.000Z</time>
      </trkpt>
      <trkpt lat="42.284575" lon="-8.787777">
        <ele>98.3</ele>
        <time>1970-01-01T01:52:20.000Z</time>
      </trkpt>
      <trkpt lat="42.284577" lon="-8.78779">
        <ele>98.3</ele>
        <time>1970-01-01T01:52:21.000Z</time>
      </trkpt>
      <trkpt lat="42.284575" lon="-8.787795">
        <ele>98.3</ele>
        <time>1970-01-01T01:52:22.000Z</time>
      </trkpt>
      <trkpt lat="42.284573" lon="-8.787805">
        <ele>98.3</ele>
        <time>1970-01-01T01:52:23.000Z</time>
      </trkpt>
      <trkpt lat="42.284573" lon="-8.787812">
        <ele>98.3</ele>
        <time>1970-01-01T01:52:24.000Z</time>
      </trkpt>
      <trkpt lat="42.28457" lon="-8.787818">
        <ele>101.2</ele>
        <time>1970-01-01T01:52:25.000Z</time>
      </trkpt>
      <trkpt lat="42.284568" lon="-8.787827">
        <ele>101.2</ele>
        <time>1970-01-01T01:52:26.000Z</time>
      </trkpt>
      <trkpt lat="42.28456" lon="-8.787832">
        <ele>101.2</ele>
        <time>1970-01-01T01:52:27.000Z</time>
      </trkpt>
      <trkpt lat="42.284555" lon="-8.787847">
        <ele>101.2</ele>
        <time>1970-01-01T01:52:28.000Z</time>
      </trkpt>
      <trkpt lat="42.284552" lon="-8.787855">
        <ele>102.3</ele>
        <time>1970-01-01T01:52:29.000Z</time>
      </trkpt>
      <trkpt lat="42.28455" lon="-8.78786">
        <ele>102.3</ele>
        <time>1970-01-01T01:52:30.000Z</time>
      </trkpt>
      <trkpt lat="42.284543" lon="-8.787862">
        <ele>102.3</ele>
        <time>1970-01-01T01:52:31.000Z</time>
      </trkpt>
      <trkpt lat="42.284538" lon="-8.78787">
        <ele>102.3</ele>
        <time>1970-01-01T01:52:32.000Z</time>
      </trkpt>
      <trkpt lat="42.28454" lon="-8.787878">
        <ele>102.3</ele>
        <time>1970-01-01T01:52:33.000Z</time>
      </trkpt>
      <trkpt lat="42.284543" lon="-8.787878">
        <ele>102.3</ele>
        <time>1970-01-01T01:52:34.000Z</time>
      </trkpt>
      <trkpt lat="42.284552" lon="-8.787868">
        <ele>103.3</ele>
        <time>1970-01-01T01:52:35.000Z</time>
      </trkpt>
      <trkpt lat="42.284553" lon="-8.787872">
        <ele>103.3</ele>
        <time>1970-01-01T01:52:36.000Z</time>
      </trkpt>
      <trkpt lat="42.284553" lon="-8.787875">
        <ele>103.3</ele>
        <time>1970-01-01T01:52:37.000Z</time>
      </trkpt>
      <trkpt lat="42.284548" lon="-8.787887">
        <ele>103.3</ele>
        <time>1970-01-01T01:52:38.000Z</time>
      </trkpt>
      <trkpt lat="42.284545" lon="-8.787898">
        <ele>105.3</ele>
        <time>1970-01-01T01:52:39.000Z</time>
      </trkpt>
      <trkpt lat="42.284538" lon="-8.787908">
        <ele>105.3</ele>
        <time>1970-01-01T01:52:40.000Z</time>
      </trkpt>
      <trkpt lat="42.284535" lon="-8.78792">
        <ele>105.3</ele>
        <time>1970-01-01T01:52:41.000Z</time>
      </trkpt>
      <trkpt lat="42.28453" lon="-8.787923">
        <ele>105.3</ele>
        <time>1970-01-01T01:52:42.000Z</time>
      </trkpt>
      <trkpt lat="42.284525" lon="-8.787927">
        <ele>105.3</ele>
        <time>1970-01-01T01:52:43.000Z</time>
      </trkpt>
      <trkpt lat="42.28452" lon="-8.78793">
        <ele>105.3</ele>
        <time>1970-01-01T01:52:44.000Z</time>
      </trkpt>
      <trkpt lat="42.284525" lon="-8.78793">
        <ele>106.2</ele>
        <time>1970-01-01T01:52:45.000Z</time>
      </trkpt>
      <trkpt lat="42.284528" lon="-8.787935">
        <ele>106.2</ele>
        <time>1970-01-01T01:52:46.000Z</time>
      </trkpt>
      <trkpt lat="42.284528" lon="-8.787938">
        <ele>106.2</ele>
        <time>1970-01-01T01:52:47.000Z</time>
      </trkpt>
      <trkpt lat="42.284513" lon="-8.788007">
        <ele>98.3</ele>
        <time>1970-01-01T01:52:48.000Z</time>
      </trkpt>
      <trkpt lat="42.284513" lon="-8.788008">
        <ele>98.3</ele>
        <time>1970-01-01T01:52:49.000Z</time>
      </trkpt>
      <trkpt lat="42.284515" lon="-8.788008">
        <ele>98.3</ele>
        <time>1970-01-01T01:52:50.000Z</time>
      </trkpt>
      <trkpt lat="42.284517" lon="-8.788012">
        <ele>98.3</ele>
        <time>1970-01-01T01:52:51.000Z</time>
      </trkpt>
      <trkpt lat="42.284517" lon="-8.788012">
        <ele>98.3</ele>
        <time>1970-01-01T01:52:52.000Z</time>
      </trkpt>
      <trkpt lat="42.284517" lon="-8.788012">
        <ele>98.3</ele>
        <time>1970-01-01T01:52:53.000Z</time>
      </trkpt>
      <trkpt lat="42.284518" lon="-8.788018">
        <ele>98.3</ele>
        <time>1970-01-01T01:52:54.000Z</time>
      </trkpt>
      <trkpt lat="42.284525" lon="-8.788028">
        <ele>99.2</ele>
        <time>1970-01-01T01:54:14.000Z</time>
      </trkpt>
      <trkpt lat="42.284528" lon="-8.788035">
        <ele>99.2</ele>
        <time>1970-01-01T01:54:15.000Z</time>
      </trkpt>
      <trkpt lat="42.284532" lon="-8.788043">
        <ele>99.2</ele>
        <time>1970-01-01T01:54:16.000Z</time>
      </trkpt>
      <trkpt lat="42.284535" lon="-8.788048">
        <ele>99.2</ele>
        <time>1970-01-01T01:54:17.000Z</time>
      </trkpt>
      <trkpt lat="42.284537" lon="-8.788057">
        <ele>100.3</ele>
        <time>1970-01-01T01:54:18.000Z</time>
      </trkpt>
      <trkpt lat="42.284543" lon="-8.788063">
        <ele>100.3</ele>
        <time>1970-01-01T01:54:19.000Z</time>
      </trkpt>
      <trkpt lat="42.284548" lon="-8.788072">
        <ele>100.3</ele>
        <time>1970-01-01T01:54:20.000Z</time>
      </trkpt>
      <trkpt lat="42.284552" lon="-8.788087">
        <ele>100.3</ele>
        <time>1970-01-01T01:54:21.000Z</time>
      </trkpt>
      <trkpt lat="42.284555" lon="-8.788097">
        <ele>101.2</ele>
        <time>1970-01-01T01:54:22.000Z</time>
      </trkpt>
      <trkpt lat="42.284555" lon="-8.788105">
        <ele>101.2</ele>
        <time>1970-01-01T01:54:23.000Z</time>
      </trkpt>
      <trkpt lat="42.284555" lon="-8.788118">
        <ele>101.2</ele>
        <time>1970-01-01T01:54:24.000Z</time>
      </trkpt>
      <trkpt lat="42.284555" lon="-8.78813">
        <ele>101.2</ele>
        <time>1970-01-01T01:54:25.000Z</time>
      </trkpt>
      <trkpt lat="42.28455" lon="-8.788135">
        <ele>102.3</ele>
        <time>1970-01-01T01:54:26.000Z</time>
      </trkpt>
      <trkpt lat="42.284548" lon="-8.788142">
        <ele>102.3</ele>
        <time>1970-01-01T01:54:27.000Z</time>
      </trkpt>
      <trkpt lat="42.284548" lon="-8.788145">
        <ele>103.3</ele>
        <time>1970-01-01T01:54:28.000Z</time>
      </trkpt>
      <trkpt lat="42.284543" lon="-8.788148">
        <ele>103.3</ele>
        <time>1970-01-01T01:54:29.000Z</time>
      </trkpt>
      <trkpt lat="42.28454" lon="-8.788147">
        <ele>103.3</ele>
        <time>1970-01-01T01:54:30.000Z</time>
      </trkpt>
      <trkpt lat="42.284537" lon="-8.788147">
        <ele>103.3</ele>
        <time>1970-01-01T01:54:31.000Z</time>
      </trkpt>
      <trkpt lat="42.284533" lon="-8.788157">
        <ele>103.3</ele>
        <time>1970-01-01T01:54:32.000Z</time>
      </trkpt>
      <trkpt lat="42.284532" lon="-8.78816">
        <ele>103.3</ele>
        <time>1970-01-01T01:54:33.000Z</time>
      </trkpt>
      <trkpt lat="42.284532" lon="-8.788162">
        <ele>104.2</ele>
        <time>1970-01-01T01:54:34.000Z</time>
      </trkpt>
      <trkpt lat="42.284525" lon="-8.78816">
        <ele>104.2</ele>
        <time>1970-01-01T01:54:35.000Z</time>
      </trkpt>
      <trkpt lat="42.284518" lon="-8.788165">
        <ele>105.3</ele>
        <time>1970-01-01T01:54:36.000Z</time>
      </trkpt>
      <trkpt lat="42.284518" lon="-8.78817">
        <ele>105.3</ele>
        <time>1970-01-01T01:54:37.000Z</time>
      </trkpt>
      <trkpt lat="42.284518" lon="-8.788173">
        <ele>105.3</ele>
        <time>1970-01-01T01:54:38.000Z</time>
      </trkpt>
      <trkpt lat="42.284522" lon="-8.788177">
        <ele>105.3</ele>
        <time>1970-01-01T01:54:39.000Z</time>
      </trkpt>
      <trkpt lat="42.284527" lon="-8.788178">
        <ele>105.3</ele>
        <time>1970-01-01T01:54:40.000Z</time>
      </trkpt>
      <trkpt lat="42.284525" lon="-8.788183">
        <ele>105.3</ele>
        <time>1970-01-01T01:54:41.000Z</time>
      </trkpt>
      <trkpt lat="42.284525" lon="-8.788188">
        <ele>105.3</ele>
        <time>1970-01-01T01:54:42.000Z</time>
      </trkpt>
      <trkpt lat="42.284522" lon="-8.788183">
        <ele>105.3</ele>
        <time>1970-01-01T01:54:43.000Z</time>
      </trkpt>
      <trkpt lat="42.28452" lon="-8.78818">
        <ele>108.2</ele>
        <time>1970-01-01T01:54:44.000Z</time>
      </trkpt>
      <trkpt lat="42.284522" lon="-8.78817">
        <ele>108.2</ele>
        <time>1970-01-01T01:54:45.000Z</time>
      </trkpt>
      <trkpt lat="42.28452" lon="-8.78817">
        <ele>109.3</ele>
        <time>1970-01-01T01:54:46.000Z</time>
      </trkpt>
      <trkpt lat="42.284515" lon="-8.788163">
        <ele>109.3</ele>
        <time>1970-01-01T01:54:47.000Z</time>
      </trkpt>
      <trkpt lat="42.284512" lon="-8.788167">
        <ele>110.3</ele>
        <time>1970-01-01T01:54:48.000Z</time>
      </trkpt>
      <trkpt lat="42.284507" lon="-8.788178">
        <ele>110.3</ele>
        <time>1970-01-01T01:54:49.000Z</time>
      </trkpt>
      <trkpt lat="42.284507" lon="-8.788175">
        <ele>110.3</ele>
        <time>1970-01-01T01:54:50.000Z</time>
      </trkpt>
      <trkpt lat="42.284503" lon="-8.788175">
        <ele>110.3</ele>
        <time>1970-01-01T01:54:51.000Z</time>
      </trkpt>
      <trkpt lat="42.284503" lon="-8.788175">
        <ele>110.3</ele>
        <time>1970-01-01T01:54:52.000Z</time>
      </trkpt>
      <trkpt lat="42.284503" lon="-8.788177">
        <ele>110.3</ele>
        <time>1970-01-01T01:54:53.000Z</time>
      </trkpt>
      <trkpt lat="42.284502" lon="-8.788178">
        <ele>110.3</ele>
        <time>1970-01-01T01:54:54.000Z</time>
      </trkpt>
      <trkpt lat="42.284502" lon="-8.788187">
        <ele>110.3</ele>
        <time>1970-01-01T01:54:55.000Z</time>
      </trkpt>
      <trkpt lat="42.284502" lon="-8.788192">
        <ele>111.3</ele>
        <time>1970-01-01T01:54:56.000Z</time>
      </trkpt>
      <trkpt lat="42.284503" lon="-8.788195">
        <ele>111.3</ele>
        <time>1970-01-01T01:54:57.000Z</time>
      </trkpt>
      <trkpt lat="42.284513" lon="-8.788217">
        <ele>112.3</ele>
        <time>1970-01-01T01:54:58.000Z</time>
      </trkpt>
      <trkpt lat="42.284517" lon="-8.788222">
        <ele>112.3</ele>
        <time>1970-01-01T01:54:59.000Z</time>
      </trkpt>
      <trkpt lat="42.284513" lon="-8.788223">
        <ele>112.3</ele>
        <time>1970-01-01T01:55:00.000Z</time>
      </trkpt>
      <trkpt lat="42.284513" lon="-8.788225">
        <ele>112.3</ele>
        <time>1970-01-01T01:55:01.000Z</time>
      </trkpt>
      <trkpt lat="42.284513" lon="-8.788225">
        <ele>113.2</ele>
        <time>1970-01-01T01:55:02.000Z</time>
      </trkpt>
      <trkpt lat="42.284517" lon="-8.788232">
        <ele>113.2</ele>
        <time>1970-01-01T01:55:03.000Z</time>
      </trkpt>
      <trkpt lat="42.28452" lon="-8.78824">
        <ele>113.2</ele>
        <time>1970-01-01T01:55:04.000Z</time>
      </trkpt>
      <trkpt lat="42.284518" lon="-8.788242">
        <ele>113.2</ele>
        <time>1970-01-01T01:55:05.000Z</time>
      </trkpt>
      <trkpt lat="42.28452" lon="-8.788252">
        <ele>114.3</ele>
        <time>1970-01-01T01:55:06.000Z</time>
      </trkpt>
      <trkpt lat="42.28452" lon="-8.788255">
        <ele>114.3</ele>
        <time>1970-01-01T01:55:07.000Z</time>
      </trkpt>
      <trkpt lat="42.28452" lon="-8.788255">
        <ele>115.2</ele>
        <time>1970-01-01T01:55:08.000Z</time>
      </trkpt>
      <trkpt lat="42.28452" lon="-8.788255">
        <ele>115.2</ele>
        <time>1970-01-01T01:55:09.000Z</time>
      </trkpt>
      <trkpt lat="42.28452" lon="-8.788255">
        <ele>115.2</ele>
        <time>1970-01-01T01:55:10.000Z</time>
      </trkpt>
      <trkpt lat="42.28452" lon="-8.788255">
        <ele>115.2</ele>
        <time>1970-01-01T01:55:11.000Z</time>
      </trkpt>
      <trkpt lat="42.28452" lon="-8.788255">
        <ele>115.2</ele>
        <time>1970-01-01T01:55:12.000Z</time>
      </trkpt>
      <trkpt lat="42.28452" lon="-8.788255">
        <ele>115.2</ele>
        <time>1970-01-01T01:55:13.000Z</time>
      </trkpt>
      <trkpt lat="42.28452" lon="-8.788255">
        <ele>115.2</ele>
        <time>1970-01-01T01:55:14.000Z</time>
      </trkpt>
      <trkpt lat="42.28452" lon="-8.788255">
        <ele>115.2</ele>
        <time>1970-01-01T01:55:15.000Z</time>
      </trkpt>
      <trkpt lat="42.28452" lon="-8.788255">
        <ele>117.2</ele>
        <time>1970-01-01T01:55:16.000Z</time>
      </trkpt>
      <trkpt lat="42.284522" lon="-8.788263">
        <ele>117.2</ele>
        <time>1970-01-01T01:55:17.000Z</time>
      </trkpt>
      <trkpt lat="42.284527" lon="-8.788277">
        <ele>118.3</ele>
        <time>1970-01-01T01:55:18.000Z</time>
      </trkpt>
      <trkpt lat="42.284533" lon="-8.7883">
        <ele>118.3</ele>
        <time>1970-01-01T01:55:19.000Z</time>
      </trkpt>
      <trkpt lat="42.284538" lon="-8.788333">
        <ele>119.3</ele>
        <time>1970-01-01T01:55:20.000Z</time>
      </trkpt>
      <trkpt lat="42.284543" lon="-8.78836">
        <ele>119.3</ele>
        <time>1970-01-01T01:55:21.000Z</time>
      </trkpt>
      <trkpt lat="42.284553" lon="-8.788385">
        <ele>119.3</ele>
        <time>1970-01-01T01:55:22.000Z</time>
      </trkpt>
      <trkpt lat="42.284557" lon="-8.788415">
        <ele>119.3</ele>
        <time>1970-01-01T01:55:23.000Z</time>
      </trkpt>
      <trkpt lat="42.28456" lon="-8.78844">
        <ele>119.3</ele>
        <time>1970-01-01T01:55:24.000Z</time>
      </trkpt>
      <trkpt lat="42.284568" lon="-8.78846">
        <ele>119.3</ele>
        <time>1970-01-01T01:55:25.000Z</time>
      </trkpt>
      <trkpt lat="42.28457" lon="-8.788478">
        <ele>121.3</ele>
        <time>1970-01-01T01:55:26.000Z</time>
      </trkpt>
      <trkpt lat="42.284568" lon="-8.78849">
        <ele>121.3</ele>
        <time>1970-01-01T01:55:27.000Z</time>
      </trkpt>
      <trkpt lat="42.284568" lon="-8.788495">
        <ele>121.3</ele>
        <time>1970-01-01T01:55:28.000Z</time>
      </trkpt>
      <trkpt lat="42.28457" lon="-8.788493">
        <ele>121.3</ele>
        <time>1970-01-01T01:55:29.000Z</time>
      </trkpt>
      <trkpt lat="42.284568" lon="-8.788492">
        <ele>122.2</ele>
        <time>1970-01-01T01:55:30.000Z</time>
      </trkpt>
      <trkpt lat="42.284568" lon="-8.788495">
        <ele>122.2</ele>
        <time>1970-01-01T01:55:31.000Z</time>
      </trkpt>
      <trkpt lat="42.28457" lon="-8.788497">
        <ele>123.3</ele>
        <time>1970-01-01T01:55:32.000Z</time>
      </trkpt>
      <trkpt lat="42.28457" lon="-8.78849">
        <ele>123.3</ele>
        <time>1970-01-01T01:55:33.000Z</time>
      </trkpt>
      <trkpt lat="42.28457" lon="-8.788495">
        <ele>123.3</ele>
        <time>1970-01-01T01:55:34.000Z</time>
      </trkpt>
      <trkpt lat="42.284572" lon="-8.788498">
        <ele>123.3</ele>
        <time>1970-01-01T01:55:35.000Z</time>
      </trkpt>
      <trkpt lat="42.284582" lon="-8.788507">
        <ele>125.3</ele>
        <time>1970-01-01T01:55:36.000Z</time>
      </trkpt>
      <trkpt lat="42.284583" lon="-8.788513">
        <ele>125.3</ele>
        <time>1970-01-01T01:55:37.000Z</time>
      </trkpt>
      <trkpt lat="42.284582" lon="-8.78852">
        <ele>126.3</ele>
        <time>1970-01-01T01:55:38.000Z</time>
      </trkpt>
      <trkpt lat="42.28458" lon="-8.788523">
        <ele>126.3</ele>
        <time>1970-01-01T01:55:39.000Z</time>
      </trkpt>
      <trkpt lat="42.284578" lon="-8.788518">
        <ele>127.3</ele>
        <time>1970-01-01T01:55:40.000Z</time>
      </trkpt>
      <trkpt lat="42.28458" lon="-8.788525">
        <ele>127.3</ele>
        <time>1970-01-01T01:55:41.000Z</time>
      </trkpt>
      <trkpt lat="42.284582" lon="-8.788532">
        <ele>127.3</ele>
        <time>1970-01-01T01:55:42.000Z</time>
      </trkpt>
      <trkpt lat="42.284587" lon="-8.788517">
        <ele>127.3</ele>
        <time>1970-01-01T01:55:43.000Z</time>
      </trkpt>
      <trkpt lat="42.28459" lon="-8.788527">
        <ele>127.3</ele>
        <time>1970-01-01T01:55:44.000Z</time>
      </trkpt>
      <trkpt lat="42.284585" lon="-8.788538">
        <ele>127.3</ele>
        <time>1970-01-01T01:55:45.000Z</time>
      </trkpt>
      <trkpt lat="42.284582" lon="-8.788543">
        <ele>127.3</ele>
        <time>1970-01-01T01:55:46.000Z</time>
      </trkpt>
      <trkpt lat="42.284583" lon="-8.78855">
        <ele>127.3</ele>
        <time>1970-01-01T01:55:47.000Z</time>
      </trkpt>
      <trkpt lat="42.284583" lon="-8.788555">
        <ele>131.2</ele>
        <time>1970-01-01T01:55:48.000Z</time>
      </trkpt>
      <trkpt lat="42.284583" lon="-8.788543">
        <ele>131.2</ele>
        <time>1970-01-01T01:55:49.000Z</time>
      </trkpt>
      <trkpt lat="42.28458" lon="-8.788548">
        <ele>131.2</ele>
        <time>1970-01-01T01:55:50.000Z</time>
      </trkpt>
      <trkpt lat="42.284585" lon="-8.788538">
        <ele>131.2</ele>
        <time>1970-01-01T01:55:51.000Z</time>
      </trkpt>
      <trkpt lat="42.284592" lon="-8.788527">
        <ele>132.3</ele>
        <time>1970-01-01T01:55:52.000Z</time>
      </trkpt>
      <trkpt lat="42.284597" lon="-8.788527">
        <ele>132.3</ele>
        <time>1970-01-01T01:55:53.000Z</time>
      </trkpt>
      <trkpt lat="42.284598" lon="-8.788527">
        <ele>134.3</ele>
        <time>1970-01-01T01:55:54.000Z</time>
      </trkpt>
      <trkpt lat="42.2846" lon="-8.788527">
        <ele>134.3</ele>
        <time>1970-01-01T01:55:55.000Z</time>
      </trkpt>
      <trkpt lat="42.284602" lon="-8.78853">
        <ele>135.3</ele>
        <time>1970-01-01T01:55:56.000Z</time>
      </trkpt>
      <trkpt lat="42.284602" lon="-8.788535">
        <ele>135.3</ele>
        <time>1970-01-01T01:55:57.000Z</time>
      </trkpt>
      <trkpt lat="42.284612" lon="-8.788543">
        <ele>135.3</ele>
        <time>1970-01-01T01:55:58.000Z</time>
      </trkpt>
      <trkpt lat="42.284615" lon="-8.788562">
        <ele>135.3</ele>
        <time>1970-01-01T01:55:59.000Z</time>
      </trkpt>
      <trkpt lat="42.284622" lon="-8.788567">
        <ele>136.2</ele>
        <time>1970-01-01T01:56:00.000Z</time>
      </trkpt>
      <trkpt lat="42.284623" lon="-8.78858">
        <ele>136.2</ele>
        <time>1970-01-01T01:56:01.000Z</time>
      </trkpt>
      <trkpt lat="42.284625" lon="-8.788583">
        <ele>136.2</ele>
        <time>1970-01-01T01:56:02.000Z</time>
      </trkpt>
      <trkpt lat="42.284625" lon="-8.788583">
        <ele>136.2</ele>
        <time>1970-01-01T01:56:03.000Z</time>
      </trkpt>
      <trkpt lat="42.284627" lon="-8.788593">
        <ele>138.2</ele>
        <time>1970-01-01T01:56:04.000Z</time>
      </trkpt>
      <trkpt lat="42.284632" lon="-8.788602">
        <ele>138.2</ele>
        <time>1970-01-01T01:56:05.000Z</time>
      </trkpt>
      <trkpt lat="42.284642" lon="-8.788615">
        <ele>138.2</ele>
        <time>1970-01-01T01:56:06.000Z</time>
      </trkpt>
      <trkpt lat="42.284647" lon="-8.788623">
        <ele>138.2</ele>
        <time>1970-01-01T01:56:07.000Z</time>
      </trkpt>
      <trkpt lat="42.284652" lon="-8.78863">
        <ele>139.3</ele>
        <time>1970-01-01T01:56:08.000Z</time>
      </trkpt>
      <trkpt lat="42.284655" lon="-8.788637">
        <ele>139.3</ele>
        <time>1970-01-01T01:56:09.000Z</time>
      </trkpt>
      <trkpt lat="42.284657" lon="-8.788647">
        <ele>140.2</ele>
        <time>1970-01-01T01:56:10.000Z</time>
      </trkpt>
      <trkpt lat="42.284658" lon="-8.788653">
        <ele>140.2</ele>
        <time>1970-01-01T01:56:11.000Z</time>
      </trkpt>
      <trkpt lat="42.284662" lon="-8.788658">
        <ele>141.3</ele>
        <time>1970-01-01T01:56:12.000Z</time>
      </trkpt>
      <trkpt lat="42.284662" lon="-8.78866">
        <ele>141.3</ele>
        <time>1970-01-01T01:56:13.000Z</time>
      </trkpt>
      <trkpt lat="42.284658" lon="-8.788665">
        <ele>141.3</ele>
        <time>1970-01-01T01:56:14.000Z</time>
      </trkpt>
      <trkpt lat="42.284657" lon="-8.788665">
        <ele>141.3</ele>
        <time>1970-01-01T01:56:15.000Z</time>
      </trkpt>
      <trkpt lat="42.284655" lon="-8.788667">
        <ele>142.2</ele>
        <time>1970-01-01T01:56:16.000Z</time>
      </trkpt>
      <trkpt lat="42.284652" lon="-8.788673">
        <ele>142.2</ele>
        <time>1970-01-01T01:56:17.000Z</time>
      </trkpt>
      <trkpt lat="42.284647" lon="-8.788682">
        <ele>143.3</ele>
        <time>1970-01-01T01:56:18.000Z</time>
      </trkpt>
      <trkpt lat="42.284642" lon="-8.78869">
        <ele>143.3</ele>
        <time>1970-01-01T01:56:19.000Z</time>
      </trkpt>
      <trkpt lat="42.284635" lon="-8.788693">
        <ele>143.3</ele>
        <time>1970-01-01T01:56:20.000Z</time>
      </trkpt>
      <trkpt lat="42.284632" lon="-8.788695">
        <ele>143.3</ele>
        <time>1970-01-01T01:56:21.000Z</time>
      </trkpt>
      <trkpt lat="42.284627" lon="-8.788697">
        <ele>144.3</ele>
        <time>1970-01-01T01:56:22.000Z</time>
      </trkpt>
      <trkpt lat="42.284625" lon="-8.788697">
        <ele>144.3</ele>
        <time>1970-01-01T01:56:23.000Z</time>
      </trkpt>
      <trkpt lat="42.284623" lon="-8.788702">
        <ele>144.3</ele>
        <time>1970-01-01T01:56:24.000Z</time>
      </trkpt>
      <trkpt lat="42.284625" lon="-8.788712">
        <ele>144.3</ele>
        <time>1970-01-01T01:56:25.000Z</time>
      </trkpt>
      <trkpt lat="42.284628" lon="-8.788718">
        <ele>145.2</ele>
        <time>1970-01-01T01:56:26.000Z</time>
      </trkpt>
      <trkpt lat="42.28463" lon="-8.788722">
        <ele>145.2</ele>
        <time>1970-01-01T01:56:27.000Z</time>
      </trkpt>
      <trkpt lat="42.284628" lon="-8.788727">
        <ele>146.3</ele>
        <time>1970-01-01T01:56:28.000Z</time>
      </trkpt>
      <trkpt lat="42.284628" lon="-8.78873">
        <ele>146.3</ele>
        <time>1970-01-01T01:56:29.000Z</time>
      </trkpt>
      <trkpt lat="42.284623" lon="-8.78874">
        <ele>146.3</ele>
        <time>1970-01-01T01:56:30.000Z</time>
      </trkpt>
      <trkpt lat="42.28462" lon="-8.78875">
        <ele>146.3</ele>
        <time>1970-01-01T01:56:31.000Z</time>
      </trkpt>
      <trkpt lat="42.284622" lon="-8.788755">
        <ele>146.3</ele>
        <time>1970-01-01T01:56:32.000Z</time>
      </trkpt>
      <trkpt lat="42.284622" lon="-8.788757">
        <ele>146.3</ele>
        <time>1970-01-01T01:56:33.000Z</time>
      </trkpt>
      <trkpt lat="42.284627" lon="-8.788762">
        <ele>146.3</ele>
        <time>1970-01-01T01:56:34.000Z</time>
      </trkpt>
      <trkpt lat="42.284628" lon="-8.788765">
        <ele>146.3</ele>
        <time>1970-01-01T01:56:35.000Z</time>
      </trkpt>
      <trkpt lat="42.28463" lon="-8.788782">
        <ele>150.3</ele>
        <time>1970-01-01T01:56:36.000Z</time>
      </trkpt>
      <trkpt lat="42.284632" lon="-8.788788">
        <ele>150.3</ele>
        <time>1970-01-01T01:56:37.000Z</time>
      </trkpt>
      <trkpt lat="42.284635" lon="-8.788795">
        <ele>150.3</ele>
        <time>1970-01-01T01:56:38.000Z</time>
      </trkpt>
      <trkpt lat="42.284635" lon="-8.788798">
        <ele>150.3</ele>
        <time>1970-01-01T01:56:39.000Z</time>
      </trkpt>
      <trkpt lat="42.284638" lon="-8.788802">
        <ele>151.3</ele>
        <time>1970-01-01T01:56:40.000Z</time>
      </trkpt>
      <trkpt lat="42.284643" lon="-8.788803">
        <ele>151.3</ele>
        <time>1970-01-01T01:56:41.000Z</time>
      </trkpt>
      <trkpt lat="42.284648" lon="-8.78881">
        <ele>151.3</ele>
        <time>1970-01-01T01:56:42.000Z</time>
      </trkpt>
      <trkpt lat="42.284652" lon="-8.788813">
        <ele>151.3</ele>
        <time>1970-01-01T01:56:43.000Z</time>
      </trkpt>
      <trkpt lat="42.284652" lon="-8.788817">
        <ele>151.3</ele>
        <time>1970-01-01T01:56:44.000Z</time>
      </trkpt>
      <trkpt lat="42.284653" lon="-8.78882">
        <ele>151.3</ele>
        <time>1970-01-01T01:56:45.000Z</time>
      </trkpt>
      <trkpt lat="42.28466" lon="-8.78883">
        <ele>152.2</ele>
        <time>1970-01-01T01:56:46.000Z</time>
      </trkpt>
      <trkpt lat="42.284662" lon="-8.788843">
        <ele>152.2</ele>
        <time>1970-01-01T01:56:47.000Z</time>
      </trkpt>
      <trkpt lat="42.284663" lon="-8.788852">
        <ele>153.3</ele>
        <time>1970-01-01T01:56:48.000Z</time>
      </trkpt>
      <trkpt lat="42.284663" lon="-8.788858">
        <ele>153.3</ele>
        <time>1970-01-01T01:56:49.000Z</time>
      </trkpt>
      <trkpt lat="42.284667" lon="-8.788855">
        <ele>154.2</ele>
        <time>1970-01-01T01:56:50.000Z</time>
      </trkpt>
      <trkpt lat="42.284667" lon="-8.788852">
        <ele>154.2</ele>
        <time>1970-01-01T01:56:51.000Z</time>
      </trkpt>
      <trkpt lat="42.284668" lon="-8.788853">
        <ele>154.2</ele>
        <time>1970-01-01T01:56:52.000Z</time>
      </trkpt>
      <trkpt lat="42.28467" lon="-8.788855">
        <ele>154.2</ele>
        <time>1970-01-01T01:56:53.000Z</time>
      </trkpt>
      <trkpt lat="42.28467" lon="-8.788857">
        <ele>154.2</ele>
        <time>1970-01-01T01:56:54.000Z</time>
      </trkpt>
      <trkpt lat="42.28467" lon="-8.78886">
        <ele>154.2</ele>
        <time>1970-01-01T01:56:55.000Z</time>
      </trkpt>
      <trkpt lat="42.28467" lon="-8.788865">
        <ele>155.3</ele>
        <time>1970-01-01T01:56:56.000Z</time>
      </trkpt>
      <trkpt lat="42.284668" lon="-8.788867">
        <ele>155.3</ele>
        <time>1970-01-01T01:56:57.000Z</time>
      </trkpt>
      <trkpt lat="42.284665" lon="-8.788868">
        <ele>155.3</ele>
        <time>1970-01-01T01:56:58.000Z</time>
      </trkpt>
      <trkpt lat="42.284663" lon="-8.788868">
        <ele>155.3</ele>
        <time>1970-01-01T01:56:59.000Z</time>
      </trkpt>
      <trkpt lat="42.284663" lon="-8.788868">
        <ele>155.3</ele>
        <time>1970-01-01T01:57:00.000Z</time>
      </trkpt>
      <trkpt lat="42.284665" lon="-8.788872">
        <ele>155.3</ele>
        <time>1970-01-01T01:57:01.000Z</time>
      </trkpt>
      <trkpt lat="42.284667" lon="-8.78889">
        <ele>156.2</ele>
        <time>1970-01-01T01:57:02.000Z</time>
      </trkpt>
      <trkpt lat="42.284663" lon="-8.788888">
        <ele>156.2</ele>
        <time>1970-01-01T01:57:03.000Z</time>
      </trkpt>
      <trkpt lat="42.284662" lon="-8.788893">
        <ele>157.3</ele>
        <time>1970-01-01T01:57:04.000Z</time>
      </trkpt>
      <trkpt lat="42.284662" lon="-8.788898">
        <ele>157.3</ele>
        <time>1970-01-01T01:57:05.000Z</time>
      </trkpt>
      <trkpt lat="42.284658" lon="-8.788902">
        <ele>157.3</ele>
        <time>1970-01-01T01:57:06.000Z</time>
      </trkpt>
      <trkpt lat="42.284657" lon="-8.788907">
        <ele>157.3</ele>
        <time>1970-01-01T01:57:07.000Z</time>
      </trkpt>
      <trkpt lat="42.284655" lon="-8.788912">
        <ele>157.3</ele>
        <time>1970-01-01T01:57:08.000Z</time>
      </trkpt>
      <trkpt lat="42.28465" lon="-8.788918">
        <ele>157.3</ele>
        <time>1970-01-01T01:57:09.000Z</time>
      </trkpt>
      <trkpt lat="42.284648" lon="-8.788923">
        <ele>158.2</ele>
        <time>1970-01-01T01:57:10.000Z</time>
      </trkpt>
      <trkpt lat="42.284647" lon="-8.788928">
        <ele>158.2</ele>
        <time>1970-01-01T01:57:11.000Z</time>
      </trkpt>
      <trkpt lat="42.284642" lon="-8.788927">
        <ele>158.2</ele>
        <time>1970-01-01T01:57:12.000Z</time>
      </trkpt>
      <trkpt lat="42.284635" lon="-8.788932">
        <ele>158.2</ele>
        <time>1970-01-01T01:57:13.000Z</time>
      </trkpt>
      <trkpt lat="42.284627" lon="-8.788938">
        <ele>158.2</ele>
        <time>1970-01-01T01:57:14.000Z</time>
      </trkpt>
      <trkpt lat="42.284618" lon="-8.788952">
        <ele>158.2</ele>
        <time>1970-01-01T01:57:15.000Z</time>
      </trkpt>
      <trkpt lat="42.284613" lon="-8.788963">
        <ele>157.3</ele>
        <time>1970-01-01T01:57:16.000Z</time>
      </trkpt>
      <trkpt lat="42.284607" lon="-8.788967">
        <ele>157.3</ele>
        <time>1970-01-01T01:57:17.000Z</time>
      </trkpt>
      <trkpt lat="42.284597" lon="-8.788972">
        <ele>157.3</ele>
        <time>1970-01-01T01:57:18.000Z</time>
      </trkpt>
      <trkpt lat="42.284587" lon="-8.788972">
        <ele>157.3</ele>
        <time>1970-01-01T01:57:19.000Z</time>
      </trkpt>
      <trkpt lat="42.284577" lon="-8.788973">
        <ele>156.2</ele>
        <time>1970-01-01T01:57:20.000Z</time>
      </trkpt>
      <trkpt lat="42.284563" lon="-8.788975">
        <ele>156.2</ele>
        <time>1970-01-01T01:57:21.000Z</time>
      </trkpt>
      <trkpt lat="42.284552" lon="-8.788973">
        <ele>155.3</ele>
        <time>1970-01-01T01:57:22.000Z</time>
      </trkpt>
      <trkpt lat="42.284542" lon="-8.788972">
        <ele>155.3</ele>
        <time>1970-01-01T01:57:23.000Z</time>
      </trkpt>
      <trkpt lat="42.284533" lon="-8.78897">
        <ele>155.3</ele>
        <time>1970-01-01T01:57:24.000Z</time>
      </trkpt>
      <trkpt lat="42.284525" lon="-8.788968">
        <ele>155.3</ele>
        <time>1970-01-01T01:57:25.000Z</time>
      </trkpt>
      <trkpt lat="42.284513" lon="-8.788968">
        <ele>155.3</ele>
        <time>1970-01-01T01:57:26.000Z</time>
      </trkpt>
      <trkpt lat="42.284502" lon="-8.788975">
        <ele>155.3</ele>
        <time>1970-01-01T01:57:27.000Z</time>
      </trkpt>
      <trkpt lat="42.284493" lon="-8.788977">
        <ele>155.3</ele>
        <time>1970-01-01T01:57:28.000Z</time>
      </trkpt>
      <trkpt lat="42.284483" lon="-8.788977">
        <ele>155.3</ele>
        <time>1970-01-01T01:57:29.000Z</time>
      </trkpt>
      <trkpt lat="42.284475" lon="-8.788977">
        <ele>155.3</ele>
        <time>1970-01-01T01:57:30.000Z</time>
      </trkpt>
      <trkpt lat="42.284465" lon="-8.788978">
        <ele>155.3</ele>
        <time>1970-01-01T01:57:31.000Z</time>
      </trkpt>
      <trkpt lat="42.284457" lon="-8.788983">
        <ele>154.2</ele>
        <time>1970-01-01T01:57:32.000Z</time>
      </trkpt>
      <trkpt lat="42.284455" lon="-8.788987">
        <ele>154.2</ele>
        <time>1970-01-01T01:57:33.000Z</time>
      </trkpt>
      <trkpt lat="42.284452" lon="-8.78899">
        <ele>154.2</ele>
        <time>1970-01-01T01:57:34.000Z</time>
      </trkpt>
      <trkpt lat="42.284453" lon="-8.788995">
        <ele>154.2</ele>
        <time>1970-01-01T01:57:35.000Z</time>
      </trkpt>
      <trkpt lat="42.284453" lon="-8.788998">
        <ele>154.2</ele>
        <time>1970-01-01T01:57:36.000Z</time>
      </trkpt>
      <trkpt lat="42.284455" lon="-8.789002">
        <ele>154.2</ele>
        <time>1970-01-01T01:57:37.000Z</time>
      </trkpt>
      <trkpt lat="42.284457" lon="-8.789002">
        <ele>154.2</ele>
        <time>1970-01-01T01:57:38.000Z</time>
      </trkpt>
      <trkpt lat="42.284455" lon="-8.789002">
        <ele>154.2</ele>
        <time>1970-01-01T01:57:39.000Z</time>
      </trkpt>
      <trkpt lat="42.284455" lon="-8.789003">
        <ele>154.2</ele>
        <time>1970-01-01T01:57:40.000Z</time>
      </trkpt>
      <trkpt lat="42.284455" lon="-8.789003">
        <ele>154.2</ele>
        <time>1970-01-01T01:57:41.000Z</time>
      </trkpt>
      <trkpt lat="42.284453" lon="-8.789003">
        <ele>153.3</ele>
        <time>1970-01-01T01:57:42.000Z</time>
      </trkpt>
      <trkpt lat="42.284452" lon="-8.788997">
        <ele>153.3</ele>
        <time>1970-01-01T01:57:43.000Z</time>
      </trkpt>
      <trkpt lat="42.284447" lon="-8.788985">
        <ele>153.3</ele>
        <time>1970-01-01T01:57:44.000Z</time>
      </trkpt>
      <trkpt lat="42.28444" lon="-8.788977">
        <ele>153.3</ele>
        <time>1970-01-01T01:57:45.000Z</time>
      </trkpt>
      <trkpt lat="42.284433" lon="-8.788972">
        <ele>152.2</ele>
        <time>1970-01-01T01:57:46.000Z</time>
      </trkpt>
      <trkpt lat="42.284423" lon="-8.788977">
        <ele>152.2</ele>
        <time>1970-01-01T01:57:47.000Z</time>
      </trkpt>
      <trkpt lat="42.284415" lon="-8.788983">
        <ele>151.3</ele>
        <time>1970-01-01T01:57:48.000Z</time>
      </trkpt>
      <trkpt lat="42.284403" lon="-8.788978">
        <ele>151.3</ele>
        <time>1970-01-01T01:57:49.000Z</time>
      </trkpt>
      <trkpt lat="42.284398" lon="-8.788977">
        <ele>151.3</ele>
        <time>1970-01-01T01:57:50.000Z</time>
      </trkpt>
      <trkpt lat="42.284395" lon="-8.788977">
        <ele>151.3</ele>
        <time>1970-01-01T01:57:51.000Z</time>
      </trkpt>
      <trkpt lat="42.284393" lon="-8.788978">
        <ele>150.3</ele>
        <time>1970-01-01T01:57:52.000Z</time>
      </trkpt>
      <trkpt lat="42.284393" lon="-8.788978">
        <ele>150.3</ele>
        <time>1970-01-01T01:57:53.000Z</time>
      </trkpt>
      <trkpt lat="42.284393" lon="-8.788978">
        <ele>150.3</ele>
        <time>1970-01-01T01:57:54.000Z</time>
      </trkpt>
      <trkpt lat="42.284393" lon="-8.788978">
        <ele>150.3</ele>
        <time>1970-01-01T01:57:55.000Z</time>
      </trkpt>
      <trkpt lat="42.284393" lon="-8.788982">
        <ele>149.2</ele>
        <time>1970-01-01T01:57:56.000Z</time>
      </trkpt>
      <trkpt lat="42.284393" lon="-8.788987">
        <ele>149.2</ele>
        <time>1970-01-01T01:57:57.000Z</time>
      </trkpt>
      <trkpt lat="42.284393" lon="-8.788992">
        <ele>149.2</ele>
        <time>1970-01-01T01:57:58.000Z</time>
      </trkpt>
      <trkpt lat="42.284393" lon="-8.788993">
        <ele>149.2</ele>
        <time>1970-01-01T01:57:59.000Z</time>
      </trkpt>
      <trkpt lat="42.284393" lon="-8.788997">
        <ele>149.2</ele>
        <time>1970-01-01T01:58:00.000Z</time>
      </trkpt>
      <trkpt lat="42.284392" lon="-8.788998">
        <ele>149.2</ele>
        <time>1970-01-01T01:58:01.000Z</time>
      </trkpt>
      <trkpt lat="42.28439" lon="-8.789008">
        <ele>148.3</ele>
        <time>1970-01-01T01:58:02.000Z</time>
      </trkpt>
      <trkpt lat="42.284387" lon="-8.789012">
        <ele>148.3</ele>
        <time>1970-01-01T01:58:03.000Z</time>
      </trkpt>
      <trkpt lat="42.284383" lon="-8.789015">
        <ele>148.3</ele>
        <time>1970-01-01T01:58:04.000Z</time>
      </trkpt>
      <trkpt lat="42.284382" lon="-8.789025">
        <ele>148.3</ele>
        <time>1970-01-01T01:58:05.000Z</time>
      </trkpt>
      <trkpt lat="42.28438" lon="-8.789032">
        <ele>148.3</ele>
        <time>1970-01-01T01:58:06.000Z</time>
      </trkpt>
      <trkpt lat="42.28438" lon="-8.789035">
        <ele>148.3</ele>
        <time>1970-01-01T01:58:07.000Z</time>
      </trkpt>
      <trkpt lat="42.284375" lon="-8.789038">
        <ele>147.2</ele>
        <time>1970-01-01T01:58:08.000Z</time>
      </trkpt>
      <trkpt lat="42.284373" lon="-8.789042">
        <ele>147.2</ele>
        <time>1970-01-01T01:58:09.000Z</time>
      </trkpt>
      <trkpt lat="42.28437" lon="-8.789045">
        <ele>147.2</ele>
        <time>1970-01-01T01:58:10.000Z</time>
      </trkpt>
      <trkpt lat="42.284365" lon="-8.78905">
        <ele>147.2</ele>
        <time>1970-01-01T01:58:11.000Z</time>
      </trkpt>
      <trkpt lat="42.284363" lon="-8.789053">
        <ele>147.2</ele>
        <time>1970-01-01T01:58:12.000Z</time>
      </trkpt>
      <trkpt lat="42.284363" lon="-8.789058">
        <ele>147.2</ele>
        <time>1970-01-01T01:58:13.000Z</time>
      </trkpt>
      <trkpt lat="42.284357" lon="-8.789067">
        <ele>147.2</ele>
        <time>1970-01-01T01:58:14.000Z</time>
      </trkpt>
      <trkpt lat="42.284357" lon="-8.789078">
        <ele>147.2</ele>
        <time>1970-01-01T01:58:15.000Z</time>
      </trkpt>
      <trkpt lat="42.28435" lon="-8.789083">
        <ele>147.2</ele>
        <time>1970-01-01T01:58:16.000Z</time>
      </trkpt>
      <trkpt lat="42.284352" lon="-8.789087">
        <ele>147.2</ele>
        <time>1970-01-01T01:58:17.000Z</time>
      </trkpt>
      <trkpt lat="42.284353" lon="-8.789087">
        <ele>148.3</ele>
        <time>1970-01-01T01:58:18.000Z</time>
      </trkpt>
      <trkpt lat="42.284357" lon="-8.789095">
        <ele>148.3</ele>
        <time>1970-01-01T01:58:19.000Z</time>
      </trkpt>
      <trkpt lat="42.284358" lon="-8.789095">
        <ele>148.3</ele>
        <time>1970-01-01T01:58:20.000Z</time>
      </trkpt>
      <trkpt lat="42.284357" lon="-8.789095">
        <ele>148.3</ele>
        <time>1970-01-01T01:58:21.000Z</time>
      </trkpt>
      <trkpt lat="42.284358" lon="-8.789102">
        <ele>148.3</ele>
        <time>1970-01-01T01:58:22.000Z</time>
      </trkpt>
      <trkpt lat="42.284358" lon="-8.789107">
        <ele>148.3</ele>
        <time>1970-01-01T01:58:23.000Z</time>
      </trkpt>
      <trkpt lat="42.28436" lon="-8.789113">
        <ele>149.2</ele>
        <time>1970-01-01T01:58:24.000Z</time>
      </trkpt>
      <trkpt lat="42.284358" lon="-8.789115">
        <ele>149.2</ele>
        <time>1970-01-01T01:58:25.000Z</time>
      </trkpt>
      <trkpt lat="42.284358" lon="-8.78912">
        <ele>149.2</ele>
        <time>1970-01-01T01:58:26.000Z</time>
      </trkpt>
      <trkpt lat="42.284353" lon="-8.789127">
        <ele>149.2</ele>
        <time>1970-01-01T01:58:27.000Z</time>
      </trkpt>
      <trkpt lat="42.284353" lon="-8.789132">
        <ele>149.2</ele>
        <time>1970-01-01T01:58:28.000Z</time>
      </trkpt>
      <trkpt lat="42.284352" lon="-8.78914">
        <ele>149.2</ele>
        <time>1970-01-01T01:58:29.000Z</time>
      </trkpt>
      <trkpt lat="42.284353" lon="-8.789147">
        <ele>150.3</ele>
        <time>1970-01-01T01:58:30.000Z</time>
      </trkpt>
      <trkpt lat="42.284353" lon="-8.78915">
        <ele>150.3</ele>
        <time>1970-01-01T01:58:31.000Z</time>
      </trkpt>
      <trkpt lat="42.284352" lon="-8.789155">
        <ele>150.3</ele>
        <time>1970-01-01T01:58:32.000Z</time>
      </trkpt>
      <trkpt lat="42.284352" lon="-8.789162">
        <ele>150.3</ele>
        <time>1970-01-01T01:58:33.000Z</time>
      </trkpt>
      <trkpt lat="42.284352" lon="-8.789168">
        <ele>150.3</ele>
        <time>1970-01-01T01:58:34.000Z</time>
      </trkpt>
      <trkpt lat="42.284345" lon="-8.789172">
        <ele>150.3</ele>
        <time>1970-01-01T01:58:35.000Z</time>
      </trkpt>
      <trkpt lat="42.284343" lon="-8.789177">
        <ele>151.3</ele>
        <time>1970-01-01T01:58:36.000Z</time>
      </trkpt>
      <trkpt lat="42.284342" lon="-8.78918">
        <ele>151.3</ele>
        <time>1970-01-01T01:58:37.000Z</time>
      </trkpt>
      <trkpt lat="42.284338" lon="-8.789192">
        <ele>151.3</ele>
        <time>1970-01-01T01:58:38.000Z</time>
      </trkpt>
      <trkpt lat="42.284338" lon="-8.789198">
        <ele>151.3</ele>
        <time>1970-01-01T01:58:39.000Z</time>
      </trkpt>
      <trkpt lat="42.28434" lon="-8.789202">
        <ele>152.2</ele>
        <time>1970-01-01T01:58:40.000Z</time>
      </trkpt>
      <trkpt lat="42.28434" lon="-8.789205">
        <ele>152.2</ele>
        <time>1970-01-01T01:58:41.000Z</time>
      </trkpt>
      <trkpt lat="42.284337" lon="-8.789202">
        <ele>152.2</ele>
        <time>1970-01-01T01:58:42.000Z</time>
      </trkpt>
      <trkpt lat="42.284333" lon="-8.789205">
        <ele>152.2</ele>
        <time>1970-01-01T01:58:43.000Z</time>
      </trkpt>
      <trkpt lat="42.284333" lon="-8.789212">
        <ele>152.2</ele>
        <time>1970-01-01T01:58:44.000Z</time>
      </trkpt>
      <trkpt lat="42.284332" lon="-8.789215">
        <ele>152.2</ele>
        <time>1970-01-01T01:58:45.000Z</time>
      </trkpt>
      <trkpt lat="42.284332" lon="-8.789223">
        <ele>153.3</ele>
        <time>1970-01-01T01:58:46.000Z</time>
      </trkpt>
      <trkpt lat="42.284332" lon="-8.789227">
        <ele>153.3</ele>
        <time>1970-01-01T01:58:47.000Z</time>
      </trkpt>
      <trkpt lat="42.284332" lon="-8.789227">
        <ele>153.3</ele>
        <time>1970-01-01T01:58:48.000Z</time>
      </trkpt>
      <trkpt lat="42.284332" lon="-8.789227">
        <ele>153.3</ele>
        <time>1970-01-01T01:58:49.000Z</time>
      </trkpt>
      <trkpt lat="42.28433" lon="-8.789227">
        <ele>153.3</ele>
        <time>1970-01-01T01:58:50.000Z</time>
      </trkpt>
      <trkpt lat="42.284328" lon="-8.789228">
        <ele>153.3</ele>
        <time>1970-01-01T01:58:51.000Z</time>
      </trkpt>
      <trkpt lat="42.284325" lon="-8.789232">
        <ele>154.2</ele>
        <time>1970-01-01T01:58:52.000Z</time>
      </trkpt>
      <trkpt lat="42.284318" lon="-8.78923">
        <ele>154.2</ele>
        <time>1970-01-01T01:58:53.000Z</time>
      </trkpt>
      <trkpt lat="42.28432" lon="-8.78924">
        <ele>154.2</ele>
        <time>1970-01-01T01:58:54.000Z</time>
      </trkpt>
      <trkpt lat="42.284322" lon="-8.78926">
        <ele>154.2</ele>
        <time>1970-01-01T01:58:55.000Z</time>
      </trkpt>
      <trkpt lat="42.284327" lon="-8.789282">
        <ele>154.2</ele>
        <time>1970-01-01T01:58:56.000Z</time>
      </trkpt>
      <trkpt lat="42.284328" lon="-8.789288">
        <ele>154.2</ele>
        <time>1970-01-01T01:58:57.000Z</time>
      </trkpt>
      <trkpt lat="42.284332" lon="-8.789292">
        <ele>154.2</ele>
        <time>1970-01-01T01:58:58.000Z</time>
      </trkpt>
      <trkpt lat="42.284335" lon="-8.789297">
        <ele>154.2</ele>
        <time>1970-01-01T01:58:59.000Z</time>
      </trkpt>
      <trkpt lat="42.284335" lon="-8.789297">
        <ele>154.2</ele>
        <time>1970-01-01T01:59:00.000Z</time>
      </trkpt>
      <trkpt lat="42.284337" lon="-8.789305">
        <ele>154.2</ele>
        <time>1970-01-01T01:59:01.000Z</time>
      </trkpt>
      <trkpt lat="42.284338" lon="-8.789308">
        <ele>154.2</ele>
        <time>1970-01-01T01:59:02.000Z</time>
      </trkpt>
      <trkpt lat="42.28434" lon="-8.78931">
        <ele>154.2</ele>
        <time>1970-01-01T01:59:03.000Z</time>
      </trkpt>
      <trkpt lat="42.284342" lon="-8.789312">
        <ele>154.2</ele>
        <time>1970-01-01T01:59:04.000Z</time>
      </trkpt>
      <trkpt lat="42.28434" lon="-8.78931">
        <ele>154.2</ele>
        <time>1970-01-01T01:59:05.000Z</time>
      </trkpt>
      <trkpt lat="42.284343" lon="-8.78931">
        <ele>155.3</ele>
        <time>1970-01-01T01:59:06.000Z</time>
      </trkpt>
      <trkpt lat="42.284345" lon="-8.789308">
        <ele>155.3</ele>
        <time>1970-01-01T01:59:07.000Z</time>
      </trkpt>
      <trkpt lat="42.28435" lon="-8.789315">
        <ele>156.2</ele>
        <time>1970-01-01T01:59:08.000Z</time>
      </trkpt>
      <trkpt lat="42.284353" lon="-8.789317">
        <ele>156.2</ele>
        <time>1970-01-01T01:59:09.000Z</time>
      </trkpt>
      <trkpt lat="42.284353" lon="-8.78932">
        <ele>156.2</ele>
        <time>1970-01-01T01:59:10.000Z</time>
      </trkpt>
      <trkpt lat="42.284355" lon="-8.789323">
        <ele>156.2</ele>
        <time>1970-01-01T01:59:11.000Z</time>
      </trkpt>
      <trkpt lat="42.284353" lon="-8.789328">
        <ele>155.3</ele>
        <time>1970-01-01T01:59:12.000Z</time>
      </trkpt>
      <trkpt lat="42.28435" lon="-8.78933">
        <ele>155.3</ele>
        <time>1970-01-01T01:59:13.000Z</time>
      </trkpt>
      <trkpt lat="42.284347" lon="-8.789335">
        <ele>155.3</ele>
        <time>1970-01-01T01:59:14.000Z</time>
      </trkpt>
      <trkpt lat="42.284342" lon="-8.789338">
        <ele>155.3</ele>
        <time>1970-01-01T01:59:15.000Z</time>
      </trkpt>
      <trkpt lat="42.284337" lon="-8.789345">
        <ele>155.3</ele>
        <time>1970-01-01T01:59:16.000Z</time>
      </trkpt>
      <trkpt lat="42.284333" lon="-8.789348">
        <ele>155.3</ele>
        <time>1970-01-01T01:59:17.000Z</time>
      </trkpt>
      <trkpt lat="42.284332" lon="-8.789353">
        <ele>155.3</ele>
        <time>1970-01-01T01:59:18.000Z</time>
      </trkpt>
      <trkpt lat="42.284332" lon="-8.789363">
        <ele>155.3</ele>
        <time>1970-01-01T01:59:19.000Z</time>
      </trkpt>
      <trkpt lat="42.284332" lon="-8.78937">
        <ele>155.3</ele>
        <time>1970-01-01T01:59:20.000Z</time>
      </trkpt>
      <trkpt lat="42.284333" lon="-8.789377">
        <ele>155.3</ele>
        <time>1970-01-01T01:59:21.000Z</time>
      </trkpt>
      <trkpt lat="42.284338" lon="-8.789385">
        <ele>155.3</ele>
        <time>1970-01-01T01:59:22.000Z</time>
      </trkpt>
      <trkpt lat="42.284343" lon="-8.789387">
        <ele>155.3</ele>
        <time>1970-01-01T01:59:23.000Z</time>
      </trkpt>
      <trkpt lat="42.284345" lon="-8.789388">
        <ele>155.3</ele>
        <time>1970-01-01T01:59:24.000Z</time>
      </trkpt>
      <trkpt lat="42.284352" lon="-8.789393">
        <ele>155.3</ele>
        <time>1970-01-01T01:59:25.000Z</time>
      </trkpt>
      <trkpt lat="42.284355" lon="-8.789395">
        <ele>155.3</ele>
        <time>1970-01-01T01:59:26.000Z</time>
      </trkpt>
      <trkpt lat="42.28436" lon="-8.789395">
        <ele>155.3</ele>
        <time>1970-01-01T01:59:27.000Z</time>
      </trkpt>
      <trkpt lat="42.284363" lon="-8.789397">
        <ele>155.3</ele>
        <time>1970-01-01T01:59:28.000Z</time>
      </trkpt>
      <trkpt lat="42.28436" lon="-8.789395">
        <ele>155.3</ele>
        <time>1970-01-01T01:59:29.000Z</time>
      </trkpt>
      <trkpt lat="42.28436" lon="-8.7894">
        <ele>155.3</ele>
        <time>1970-01-01T01:59:30.000Z</time>
      </trkpt>
      <trkpt lat="42.284362" lon="-8.789403">
        <ele>155.3</ele>
        <time>1970-01-01T01:59:31.000Z</time>
      </trkpt>
      <trkpt lat="42.284363" lon="-8.789407">
        <ele>155.3</ele>
        <time>1970-01-01T01:59:32.000Z</time>
      </trkpt>
      <trkpt lat="42.284365" lon="-8.789405">
        <ele>155.3</ele>
        <time>1970-01-01T01:59:33.000Z</time>
      </trkpt>
      <trkpt lat="42.284365" lon="-8.789407">
        <ele>155.3</ele>
        <time>1970-01-01T01:59:34.000Z</time>
      </trkpt>
      <trkpt lat="42.284365" lon="-8.789408">
        <ele>155.3</ele>
        <time>1970-01-01T01:59:35.000Z</time>
      </trkpt>
      <trkpt lat="42.284362" lon="-8.789412">
        <ele>155.3</ele>
        <time>1970-01-01T01:59:36.000Z</time>
      </trkpt>
      <trkpt lat="42.284363" lon="-8.78942">
        <ele>155.3</ele>
        <time>1970-01-01T01:59:37.000Z</time>
      </trkpt>
      <trkpt lat="42.284365" lon="-8.789425">
        <ele>156.2</ele>
        <time>1970-01-01T01:59:38.000Z</time>
      </trkpt>
      <trkpt lat="42.284367" lon="-8.789428">
        <ele>156.2</ele>
        <time>1970-01-01T01:59:39.000Z</time>
      </trkpt>
      <trkpt lat="42.284368" lon="-8.789432">
        <ele>156.2</ele>
        <time>1970-01-01T01:59:40.000Z</time>
      </trkpt>
      <trkpt lat="42.28437" lon="-8.789437">
        <ele>156.2</ele>
        <time>1970-01-01T01:59:41.000Z</time>
      </trkpt>
      <trkpt lat="42.284372" lon="-8.789443">
        <ele>156.2</ele>
        <time>1970-01-01T01:59:42.000Z</time>
      </trkpt>
      <trkpt lat="42.284368" lon="-8.789448">
        <ele>156.2</ele>
        <time>1970-01-01T01:59:43.000Z</time>
      </trkpt>
      <trkpt lat="42.284363" lon="-8.789457">
        <ele>156.2</ele>
        <time>1970-01-01T01:59:44.000Z</time>
      </trkpt>
      <trkpt lat="42.284363" lon="-8.78946">
        <ele>156.2</ele>
        <time>1970-01-01T01:59:45.000Z</time>
      </trkpt>
      <trkpt lat="42.284365" lon="-8.789465">
        <ele>156.2</ele>
        <time>1970-01-01T01:59:46.000Z</time>
      </trkpt>
      <trkpt lat="42.284367" lon="-8.789475">
        <ele>156.2</ele>
        <time>1970-01-01T01:59:47.000Z</time>
      </trkpt>
      <trkpt lat="42.284373" lon="-8.78948">
        <ele>157.3</ele>
        <time>1970-01-01T01:59:48.000Z</time>
      </trkpt>
      <trkpt lat="42.284378" lon="-8.789485">
        <ele>157.3</ele>
        <time>1970-01-01T01:59:49.000Z</time>
      </trkpt>
      <trkpt lat="42.284382" lon="-8.789488">
        <ele>157.3</ele>
        <time>1970-01-01T01:59:50.000Z</time>
      </trkpt>
      <trkpt lat="42.284388" lon="-8.7895">
        <ele>157.3</ele>
        <time>1970-01-01T01:59:51.000Z</time>
      </trkpt>
      <trkpt lat="42.284392" lon="-8.789505">
        <ele>158.2</ele>
        <time>1970-01-01T01:59:52.000Z</time>
      </trkpt>
      <trkpt lat="42.284395" lon="-8.789508">
        <ele>158.2</ele>
        <time>1970-01-01T01:59:53.000Z</time>
      </trkpt>
      <trkpt lat="42.284397" lon="-8.789513">
        <ele>158.2</ele>
        <time>1970-01-01T01:59:54.000Z</time>
      </trkpt>
      <trkpt lat="42.284398" lon="-8.789518">
        <ele>158.2</ele>
        <time>1970-01-01T01:59:55.000Z</time>
      </trkpt>
      <trkpt lat="42.284402" lon="-8.789528">
        <ele>159.3</ele>
        <time>1970-01-01T01:59:56.000Z</time>
      </trkpt>
      <trkpt lat="42.284403" lon="-8.789535">
        <ele>159.3</ele>
        <time>1970-01-01T01:59:57.000Z</time>
      </trkpt>
      <trkpt lat="42.284407" lon="-8.789545">
        <ele>159.3</ele>
        <time>1970-01-01T01:59:58.000Z</time>
      </trkpt>
      <trkpt lat="42.28441" lon="-8.789555">
        <ele>159.3</ele>
        <time>1970-01-01T01:59:59.000Z</time>
      </trkpt>
      <trkpt lat="42.284415" lon="-8.789565">
        <ele>159.3</ele>
        <time>1970-01-01T02:00:00.000Z</time>
      </trkpt>
      <trkpt lat="42.28442" lon="-8.789565">
        <ele>159.3</ele>
        <time>1970-01-01T02:00:01.000Z</time>
      </trkpt>
      <trkpt lat="42.284422" lon="-8.789563">
        <ele>159.3</ele>
        <time>1970-01-01T02:00:02.000Z</time>
      </trkpt>
      <trkpt lat="42.284427" lon="-8.789572">
        <ele>159.3</ele>
        <time>1970-01-01T02:00:03.000Z</time>
      </trkpt>
      <trkpt lat="42.284433" lon="-8.789577">
        <ele>160.3</ele>
        <time>1970-01-01T02:00:04.000Z</time>
      </trkpt>
      <trkpt lat="42.284438" lon="-8.789582">
        <ele>160.3</ele>
        <time>1970-01-01T02:00:05.000Z</time>
      </trkpt>
      <trkpt lat="42.284442" lon="-8.789585">
        <ele>160.3</ele>
        <time>1970-01-01T02:00:06.000Z</time>
      </trkpt>
      <trkpt lat="42.284445" lon="-8.789583">
        <ele>160.3</ele>
        <time>1970-01-01T02:00:07.000Z</time>
      </trkpt>
      <trkpt lat="42.284448" lon="-8.78958">
        <ele>160.3</ele>
        <time>1970-01-01T02:00:08.000Z</time>
      </trkpt>
      <trkpt lat="42.284448" lon="-8.78958">
        <ele>160.3</ele>
        <time>1970-01-01T02:00:09.000Z</time>
      </trkpt>
      <trkpt lat="42.28445" lon="-8.78958">
        <ele>159.3</ele>
        <time>1970-01-01T02:00:10.000Z</time>
      </trkpt>
      <trkpt lat="42.284452" lon="-8.789577">
        <ele>159.3</ele>
        <time>1970-01-01T02:00:11.000Z</time>
      </trkpt>
      <trkpt lat="42.284453" lon="-8.789573">
        <ele>159.3</ele>
        <time>1970-01-01T02:00:12.000Z</time>
      </trkpt>
      <trkpt lat="42.284453" lon="-8.78957">
        <ele>159.3</ele>
        <time>1970-01-01T02:00:13.000Z</time>
      </trkpt>
      <trkpt lat="42.284453" lon="-8.789568">
        <ele>159.3</ele>
        <time>1970-01-01T02:00:14.000Z</time>
      </trkpt>
      <trkpt lat="42.284453" lon="-8.789575">
        <ele>159.3</ele>
        <time>1970-01-01T02:00:15.000Z</time>
      </trkpt>
      <trkpt lat="42.284455" lon="-8.789583">
        <ele>159.3</ele>
        <time>1970-01-01T02:00:16.000Z</time>
      </trkpt>
      <trkpt lat="42.284458" lon="-8.78959">
        <ele>159.3</ele>
        <time>1970-01-01T02:00:17.000Z</time>
      </trkpt>
      <trkpt lat="42.28446" lon="-8.789593">
        <ele>159.3</ele>
        <time>1970-01-01T02:00:18.000Z</time>
      </trkpt>
      <trkpt lat="42.284463" lon="-8.789593">
        <ele>159.3</ele>
        <time>1970-01-01T02:00:19.000Z</time>
      </trkpt>
      <trkpt lat="42.284467" lon="-8.789598">
        <ele>159.3</ele>
        <time>1970-01-01T02:00:20.000Z</time>
      </trkpt>
      <trkpt lat="42.284468" lon="-8.789602">
        <ele>159.3</ele>
        <time>1970-01-01T02:00:21.000Z</time>
      </trkpt>
      <trkpt lat="42.284468" lon="-8.789605">
        <ele>159.3</ele>
        <time>1970-01-01T02:00:22.000Z</time>
      </trkpt>
      <trkpt lat="42.28447" lon="-8.789608">
        <ele>159.3</ele>
        <time>1970-01-01T02:00:23.000Z</time>
      </trkpt>
      <trkpt lat="42.28447" lon="-8.78961">
        <ele>159.3</ele>
        <time>1970-01-01T02:00:24.000Z</time>
      </trkpt>
      <trkpt lat="42.284468" lon="-8.78961">
        <ele>159.3</ele>
        <time>1970-01-01T02:00:25.000Z</time>
      </trkpt>
      <trkpt lat="42.284465" lon="-8.789607">
        <ele>160.3</ele>
        <time>1970-01-01T02:00:26.000Z</time>
      </trkpt>
      <trkpt lat="42.284462" lon="-8.789607">
        <ele>160.3</ele>
        <time>1970-01-01T02:00:27.000Z</time>
      </trkpt>
      <trkpt lat="42.28446" lon="-8.789607">
        <ele>160.3</ele>
        <time>1970-01-01T02:00:28.000Z</time>
      </trkpt>
      <trkpt lat="42.28446" lon="-8.789612">
        <ele>160.3</ele>
        <time>1970-01-01T02:00:29.000Z</time>
      </trkpt>
      <trkpt lat="42.28446" lon="-8.789615">
        <ele>160.3</ele>
        <time>1970-01-01T02:00:30.000Z</time>
      </trkpt>
      <trkpt lat="42.284462" lon="-8.789628">
        <ele>160.3</ele>
        <time>1970-01-01T02:00:31.000Z</time>
      </trkpt>
      <trkpt lat="42.284462" lon="-8.789642">
        <ele>160.3</ele>
        <time>1970-01-01T02:00:32.000Z</time>
      </trkpt>
      <trkpt lat="42.284463" lon="-8.78965">
        <ele>160.3</ele>
        <time>1970-01-01T02:00:33.000Z</time>
      </trkpt>
      <trkpt lat="42.284463" lon="-8.789653">
        <ele>161.2</ele>
        <time>1970-01-01T02:00:34.000Z</time>
      </trkpt>
      <trkpt lat="42.284465" lon="-8.789662">
        <ele>161.2</ele>
        <time>1970-01-01T02:00:35.000Z</time>
      </trkpt>
      <trkpt lat="42.284468" lon="-8.78967">
        <ele>161.2</ele>
        <time>1970-01-01T02:00:36.000Z</time>
      </trkpt>
      <trkpt lat="42.28447" lon="-8.789675">
        <ele>161.2</ele>
        <time>1970-01-01T02:00:37.000Z</time>
      </trkpt>
      <trkpt lat="42.284473" lon="-8.789675">
        <ele>161.2</ele>
        <time>1970-01-01T02:00:38.000Z</time>
      </trkpt>
      <trkpt lat="42.284477" lon="-8.789678">
        <ele>161.2</ele>
        <time>1970-01-01T02:00:39.000Z</time>
      </trkpt>
      <trkpt lat="42.284478" lon="-8.789682">
        <ele>161.2</ele>
        <time>1970-01-01T02:00:40.000Z</time>
      </trkpt>
      <trkpt lat="42.28448" lon="-8.789685">
        <ele>161.2</ele>
        <time>1970-01-01T02:00:41.000Z</time>
      </trkpt>
      <trkpt lat="42.284482" lon="-8.789683">
        <ele>161.2</ele>
        <time>1970-01-01T02:00:42.000Z</time>
      </trkpt>
      <trkpt lat="42.284482" lon="-8.789687">
        <ele>161.2</ele>
        <time>1970-01-01T02:00:43.000Z</time>
      </trkpt>
      <trkpt lat="42.284485" lon="-8.789688">
        <ele>161.2</ele>
        <time>1970-01-01T02:00:44.000Z</time>
      </trkpt>
      <trkpt lat="42.284487" lon="-8.789688">
        <ele>161.2</ele>
        <time>1970-01-01T02:00:45.000Z</time>
      </trkpt>
      <trkpt lat="42.284488" lon="-8.789692">
        <ele>161.2</ele>
        <time>1970-01-01T02:00:46.000Z</time>
      </trkpt>
      <trkpt lat="42.28449" lon="-8.78969">
        <ele>161.2</ele>
        <time>1970-01-01T02:00:47.000Z</time>
      </trkpt>
      <trkpt lat="42.284487" lon="-8.789692">
        <ele>161.2</ele>
        <time>1970-01-01T02:00:48.000Z</time>
      </trkpt>
      <trkpt lat="42.284487" lon="-8.78969">
        <ele>161.2</ele>
        <time>1970-01-01T02:00:49.000Z</time>
      </trkpt>
      <trkpt lat="42.284487" lon="-8.789692">
        <ele>161.2</ele>
        <time>1970-01-01T02:00:50.000Z</time>
      </trkpt>
      <trkpt lat="42.284487" lon="-8.789692">
        <ele>161.2</ele>
        <time>1970-01-01T02:00:51.000Z</time>
      </trkpt>
      <trkpt lat="42.284487" lon="-8.789692">
        <ele>161.2</ele>
        <time>1970-01-01T02:00:52.000Z</time>
      </trkpt>
      <trkpt lat="42.284487" lon="-8.789692">
        <ele>161.2</ele>
        <time>1970-01-01T02:00:53.000Z</time>
      </trkpt>
      <trkpt lat="42.284487" lon="-8.789692">
        <ele>161.2</ele>
        <time>1970-01-01T02:00:54.000Z</time>
      </trkpt>
      <trkpt lat="42.284487" lon="-8.789692">
        <ele>161.2</ele>
        <time>1970-01-01T02:00:55.000Z</time>
      </trkpt>
      <trkpt lat="42.284487" lon="-8.789692">
        <ele>161.2</ele>
        <time>1970-01-01T02:00:56.000Z</time>
      </trkpt>
      <trkpt lat="42.284487" lon="-8.789692">
        <ele>161.2</ele>
        <time>1970-01-01T02:00:57.000Z</time>
      </trkpt>
      <trkpt lat="42.284487" lon="-8.789692">
        <ele>161.2</ele>
        <time>1970-01-01T02:00:58.000Z</time>
      </trkpt>
      <trkpt lat="42.284487" lon="-8.789692">
        <ele>161.2</ele>
        <time>1970-01-01T02:00:59.000Z</time>
      </trkpt>
      <trkpt lat="42.284487" lon="-8.789692">
        <ele>161.2</ele>
        <time>1970-01-01T02:01:00.000Z</time>
      </trkpt>
      <trkpt lat="42.284487" lon="-8.789692">
        <ele>161.2</ele>
        <time>1970-01-01T02:01:01.000Z</time>
      </trkpt>
      <trkpt lat="42.284487" lon="-8.789692">
        <ele>161.2</ele>
        <time>1970-01-01T02:01:02.000Z</time>
      </trkpt>
      <trkpt lat="42.284487" lon="-8.789692">
        <ele>161.2</ele>
        <time>1970-01-01T02:01:03.000Z</time>
      </trkpt>
      <trkpt lat="42.284488" lon="-8.789692">
        <ele>161.2</ele>
        <time>1970-01-01T02:01:04.000Z</time>
      </trkpt>
      <trkpt lat="42.284488" lon="-8.789692">
        <ele>161.2</ele>
        <time>1970-01-01T02:01:05.000Z</time>
      </trkpt>
      <trkpt lat="42.28449" lon="-8.789693">
        <ele>161.2</ele>
        <time>1970-01-01T02:01:06.000Z</time>
      </trkpt>
      <trkpt lat="42.28449" lon="-8.789698">
        <ele>161.2</ele>
        <time>1970-01-01T02:01:07.000Z</time>
      </trkpt>
      <trkpt lat="42.284492" lon="-8.789702">
        <ele>160.3</ele>
        <time>1970-01-01T02:01:08.000Z</time>
      </trkpt>
      <trkpt lat="42.284493" lon="-8.789707">
        <ele>160.3</ele>
        <time>1970-01-01T02:01:09.000Z</time>
      </trkpt>
      <trkpt lat="42.284493" lon="-8.789708">
        <ele>160.3</ele>
        <time>1970-01-01T02:01:10.000Z</time>
      </trkpt>
      <trkpt lat="42.284495" lon="-8.789713">
        <ele>160.3</ele>
        <time>1970-01-01T02:01:11.000Z</time>
      </trkpt>
      <trkpt lat="42.284495" lon="-8.789718">
        <ele>160.3</ele>
        <time>1970-01-01T02:01:12.000Z</time>
      </trkpt>
      <trkpt lat="42.284497" lon="-8.789723">
        <ele>160.3</ele>
        <time>1970-01-01T02:01:13.000Z</time>
      </trkpt>
      <trkpt lat="42.284498" lon="-8.78973">
        <ele>160.3</ele>
        <time>1970-01-01T02:01:14.000Z</time>
      </trkpt>
      <trkpt lat="42.284498" lon="-8.789733">
        <ele>160.3</ele>
        <time>1970-01-01T02:01:15.000Z</time>
      </trkpt>
      <trkpt lat="42.284498" lon="-8.789742">
        <ele>160.3</ele>
        <time>1970-01-01T02:01:16.000Z</time>
      </trkpt>
      <trkpt lat="42.284502" lon="-8.789743">
        <ele>160.3</ele>
        <time>1970-01-01T02:01:17.000Z</time>
      </trkpt>
      <trkpt lat="42.284503" lon="-8.789743">
        <ele>160.3</ele>
        <time>1970-01-01T02:01:18.000Z</time>
      </trkpt>
      <trkpt lat="42.284505" lon="-8.789743">
        <ele>160.3</ele>
        <time>1970-01-01T02:01:19.000Z</time>
      </trkpt>
      <trkpt lat="42.284505" lon="-8.789745">
        <ele>158.2</ele>
        <time>1970-01-01T02:01:20.000Z</time>
      </trkpt>
      <trkpt lat="42.284507" lon="-8.789745">
        <ele>158.2</ele>
        <time>1970-01-01T02:01:21.000Z</time>
      </trkpt>
      <trkpt lat="42.284507" lon="-8.789748">
        <ele>157.3</ele>
        <time>1970-01-01T02:01:22.000Z</time>
      </trkpt>
      <trkpt lat="42.284507" lon="-8.789752">
        <ele>157.3</ele>
        <time>1970-01-01T02:01:23.000Z</time>
      </trkpt>
      <trkpt lat="42.284507" lon="-8.789757">
        <ele>157.3</ele>
        <time>1970-01-01T02:01:24.000Z</time>
      </trkpt>
      <trkpt lat="42.284507" lon="-8.789758">
        <ele>157.3</ele>
        <time>1970-01-01T02:01:25.000Z</time>
      </trkpt>
      <trkpt lat="42.284507" lon="-8.78976">
        <ele>157.3</ele>
        <time>1970-01-01T02:01:26.000Z</time>
      </trkpt>
      <trkpt lat="42.284507" lon="-8.78976">
        <ele>157.3</ele>
        <time>1970-01-01T02:01:27.000Z</time>
      </trkpt>
      <trkpt lat="42.284507" lon="-8.789762">
        <ele>157.3</ele>
        <time>1970-01-01T02:01:28.000Z</time>
      </trkpt>
      <trkpt lat="42.284508" lon="-8.789762">
        <ele>157.3</ele>
        <time>1970-01-01T02:01:29.000Z</time>
      </trkpt>
      <trkpt lat="42.284508" lon="-8.789762">
        <ele>157.3</ele>
        <time>1970-01-01T02:01:30.000Z</time>
      </trkpt>
      <trkpt lat="42.284508" lon="-8.789763">
        <ele>157.3</ele>
        <time>1970-01-01T02:01:31.000Z</time>
      </trkpt>
      <trkpt lat="42.284508" lon="-8.789765">
        <ele>157.3</ele>
        <time>1970-01-01T02:01:32.000Z</time>
      </trkpt>
      <trkpt lat="42.28451" lon="-8.789765">
        <ele>157.3</ele>
        <time>1970-01-01T02:01:33.000Z</time>
      </trkpt>
      <trkpt lat="42.28451" lon="-8.789765">
        <ele>157.3</ele>
        <time>1970-01-01T02:01:34.000Z</time>
      </trkpt>
      <trkpt lat="42.28451" lon="-8.789765">
        <ele>157.3</ele>
        <time>1970-01-01T02:01:35.000Z</time>
      </trkpt>
      <trkpt lat="42.28451" lon="-8.789767">
        <ele>157.3</ele>
        <time>1970-01-01T02:01:36.000Z</time>
      </trkpt>
      <trkpt lat="42.28451" lon="-8.789767">
        <ele>157.3</ele>
        <time>1970-01-01T02:01:37.000Z</time>
      </trkpt>
      <trkpt lat="42.28451" lon="-8.789767">
        <ele>157.3</ele>
        <time>1970-01-01T02:01:38.000Z</time>
      </trkpt>
      <trkpt lat="42.28451" lon="-8.789768">
        <ele>157.3</ele>
        <time>1970-01-01T02:01:39.000Z</time>
      </trkpt>
      <trkpt lat="42.28451" lon="-8.789768">
        <ele>157.3</ele>
        <time>1970-01-01T02:01:40.000Z</time>
      </trkpt>
      <trkpt lat="42.28451" lon="-8.789768">
        <ele>157.3</ele>
        <time>1970-01-01T02:01:41.000Z</time>
      </trkpt>
      <trkpt lat="42.28451" lon="-8.789768">
        <ele>157.3</ele>
        <time>1970-01-01T02:01:42.000Z</time>
      </trkpt>
      <trkpt lat="42.28451" lon="-8.78977">
        <ele>157.3</ele>
        <time>1970-01-01T02:01:43.000Z</time>
      </trkpt>
      <trkpt lat="42.28451" lon="-8.78977">
        <ele>157.3</ele>
        <time>1970-01-01T02:01:44.000Z</time>
      </trkpt>
      <trkpt lat="42.28451" lon="-8.78977">
        <ele>157.3</ele>
        <time>1970-01-01T02:01:45.000Z</time>
      </trkpt>
      <trkpt lat="42.28451" lon="-8.789772">
        <ele>157.3</ele>
        <time>1970-01-01T02:01:46.000Z</time>
      </trkpt>
      <trkpt lat="42.28451" lon="-8.789772">
        <ele>157.3</ele>
        <time>1970-01-01T02:01:47.000Z</time>
      </trkpt>
      <trkpt lat="42.28451" lon="-8.789773">
        <ele>157.3</ele>
        <time>1970-01-01T02:01:48.000Z</time>
      </trkpt>
      <trkpt lat="42.284515" lon="-8.789773">
        <ele>157.3</ele>
        <time>1970-01-01T02:01:49.000Z</time>
      </trkpt>
      <trkpt lat="42.284515" lon="-8.789773">
        <ele>157.3</ele>
        <time>1970-01-01T02:01:50.000Z</time>
      </trkpt>
      <trkpt lat="42.284517" lon="-8.789773">
        <ele>157.3</ele>
        <time>1970-01-01T02:01:51.000Z</time>
      </trkpt>
      <trkpt lat="42.284517" lon="-8.789773">
        <ele>157.3</ele>
        <time>1970-01-01T02:01:52.000Z</time>
      </trkpt>
      <trkpt lat="42.284518" lon="-8.789777">
        <ele>157.3</ele>
        <time>1970-01-01T02:01:53.000Z</time>
      </trkpt>
      <trkpt lat="42.284518" lon="-8.789778">
        <ele>157.3</ele>
        <time>1970-01-01T02:01:54.000Z</time>
      </trkpt>
      <trkpt lat="42.284518" lon="-8.789782">
        <ele>157.3</ele>
        <time>1970-01-01T02:01:55.000Z</time>
      </trkpt>
      <trkpt lat="42.284518" lon="-8.789785">
        <ele>157.3</ele>
        <time>1970-01-01T02:01:56.000Z</time>
      </trkpt>
      <trkpt lat="42.28452" lon="-8.78979">
        <ele>157.3</ele>
        <time>1970-01-01T02:01:57.000Z</time>
      </trkpt>
      <trkpt lat="42.284525" lon="-8.789792">
        <ele>157.3</ele>
        <time>1970-01-01T02:01:58.000Z</time>
      </trkpt>
      <trkpt lat="42.28453" lon="-8.789795">
        <ele>157.3</ele>
        <time>1970-01-01T02:01:59.000Z</time>
      </trkpt>
      <trkpt lat="42.284532" lon="-8.789797">
        <ele>157.3</ele>
        <time>1970-01-01T02:02:00.000Z</time>
      </trkpt>
      <trkpt lat="42.284535" lon="-8.789798">
        <ele>157.3</ele>
        <time>1970-01-01T02:02:01.000Z</time>
      </trkpt>
      <trkpt lat="42.284535" lon="-8.789798">
        <ele>156.2</ele>
        <time>1970-01-01T02:02:02.000Z</time>
      </trkpt>
      <trkpt lat="42.284537" lon="-8.789798">
        <ele>156.2</ele>
        <time>1970-01-01T02:02:03.000Z</time>
      </trkpt>
      <trkpt lat="42.284537" lon="-8.789798">
        <ele>156.2</ele>
        <time>1970-01-01T02:02:04.000Z</time>
      </trkpt>
      <trkpt lat="42.284538" lon="-8.7898">
        <ele>156.2</ele>
        <time>1970-01-01T02:02:05.000Z</time>
      </trkpt>
      <trkpt lat="42.284538" lon="-8.7898">
        <ele>156.2</ele>
        <time>1970-01-01T02:02:06.000Z</time>
      </trkpt>
      <trkpt lat="42.284538" lon="-8.7898">
        <ele>156.2</ele>
        <time>1970-01-01T02:02:07.000Z</time>
      </trkpt>
      <trkpt lat="42.284538" lon="-8.789802">
        <ele>156.2</ele>
        <time>1970-01-01T02:02:08.000Z</time>
      </trkpt>
      <trkpt lat="42.284538" lon="-8.789803">
        <ele>156.2</ele>
        <time>1970-01-01T02:02:09.000Z</time>
      </trkpt>
      <trkpt lat="42.284538" lon="-8.789807">
        <ele>156.2</ele>
        <time>1970-01-01T02:02:10.000Z</time>
      </trkpt>
      <trkpt lat="42.284538" lon="-8.789808">
        <ele>156.2</ele>
        <time>1970-01-01T02:02:11.000Z</time>
      </trkpt>
      <trkpt lat="42.284538" lon="-8.78981">
        <ele>156.2</ele>
        <time>1970-01-01T02:02:12.000Z</time>
      </trkpt>
      <trkpt lat="42.284538" lon="-8.78981">
        <ele>156.2</ele>
        <time>1970-01-01T02:02:13.000Z</time>
      </trkpt>
      <trkpt lat="42.284538" lon="-8.78981">
        <ele>156.2</ele>
        <time>1970-01-01T02:02:14.000Z</time>
      </trkpt>
      <trkpt lat="42.284538" lon="-8.78981">
        <ele>156.2</ele>
        <time>1970-01-01T02:02:15.000Z</time>
      </trkpt>
      <trkpt lat="42.284538" lon="-8.78981">
        <ele>156.2</ele>
        <time>1970-01-01T02:02:16.000Z</time>
      </trkpt>
      <trkpt lat="42.28454" lon="-8.78981">
        <ele>156.2</ele>
        <time>1970-01-01T02:02:17.000Z</time>
      </trkpt>
      <trkpt lat="42.28454" lon="-8.789812">
        <ele>156.2</ele>
        <time>1970-01-01T02:02:18.000Z</time>
      </trkpt>
      <trkpt lat="42.28454" lon="-8.789812">
        <ele>156.2</ele>
        <time>1970-01-01T02:02:19.000Z</time>
      </trkpt>
      <trkpt lat="42.28454" lon="-8.789812">
        <ele>156.2</ele>
        <time>1970-01-01T02:02:20.000Z</time>
      </trkpt>
      <trkpt lat="42.28454" lon="-8.789812">
        <ele>156.2</ele>
        <time>1970-01-01T02:02:21.000Z</time>
      </trkpt>
      <trkpt lat="42.28454" lon="-8.789812">
        <ele>156.2</ele>
        <time>1970-01-01T02:02:22.000Z</time>
      </trkpt>
      <trkpt lat="42.28454" lon="-8.789812">
        <ele>156.2</ele>
        <time>1970-01-01T02:02:23.000Z</time>
      </trkpt>
      <trkpt lat="42.28454" lon="-8.789812">
        <ele>156.2</ele>
        <time>1970-01-01T02:02:24.000Z</time>
      </trkpt>
      <trkpt lat="42.28454" lon="-8.789812">
        <ele>156.2</ele>
        <time>1970-01-01T02:02:25.000Z</time>
      </trkpt>
      <trkpt lat="42.28454" lon="-8.789812">
        <ele>156.2</ele>
        <time>1970-01-01T02:02:26.000Z</time>
      </trkpt>
      <trkpt lat="42.28454" lon="-8.789812">
        <ele>156.2</ele>
        <time>1970-01-01T02:02:27.000Z</time>
      </trkpt>
      <trkpt lat="42.28454" lon="-8.789812">
        <ele>157.3</ele>
        <time>1970-01-01T02:02:28.000Z</time>
      </trkpt>
      <trkpt lat="42.28454" lon="-8.789813">
        <ele>157.3</ele>
        <time>1970-01-01T02:02:29.000Z</time>
      </trkpt>
      <trkpt lat="42.28454" lon="-8.789813">
        <ele>157.3</ele>
        <time>1970-01-01T02:02:30.000Z</time>
      </trkpt>
      <trkpt lat="42.284542" lon="-8.789813">
        <ele>157.3</ele>
        <time>1970-01-01T02:02:31.000Z</time>
      </trkpt>
      <trkpt lat="42.284548" lon="-8.789815">
        <ele>157.3</ele>
        <time>1970-01-01T02:02:32.000Z</time>
      </trkpt>
      <trkpt lat="42.28456" lon="-8.78982">
        <ele>157.3</ele>
        <time>1970-01-01T02:02:33.000Z</time>
      </trkpt>
      <trkpt lat="42.284568" lon="-8.789823">
        <ele>157.3</ele>
        <time>1970-01-01T02:02:34.000Z</time>
      </trkpt>
      <trkpt lat="42.284577" lon="-8.789825">
        <ele>157.3</ele>
        <time>1970-01-01T02:02:35.000Z</time>
      </trkpt>
      <trkpt lat="42.284585" lon="-8.789825">
        <ele>157.3</ele>
        <time>1970-01-01T02:02:36.000Z</time>
      </trkpt>
      <trkpt lat="42.284595" lon="-8.789825">
        <ele>157.3</ele>
        <time>1970-01-01T02:02:37.000Z</time>
      </trkpt>
      <trkpt lat="42.284603" lon="-8.789825">
        <ele>157.3</ele>
        <time>1970-01-01T02:02:38.000Z</time>
      </trkpt>
      <trkpt lat="42.28461" lon="-8.789827">
        <ele>157.3</ele>
        <time>1970-01-01T02:02:39.000Z</time>
      </trkpt>
      <trkpt lat="42.284615" lon="-8.78983">
        <ele>156.2</ele>
        <time>1970-01-01T02:02:40.000Z</time>
      </trkpt>
      <trkpt lat="42.28462" lon="-8.789832">
        <ele>156.2</ele>
        <time>1970-01-01T02:02:41.000Z</time>
      </trkpt>
      <trkpt lat="42.28462" lon="-8.789832">
        <ele>156.2</ele>
        <time>1970-01-01T02:02:42.000Z</time>
      </trkpt>
      <trkpt lat="42.28462" lon="-8.789833">
        <ele>156.2</ele>
        <time>1970-01-01T02:02:43.000Z</time>
      </trkpt>
      <trkpt lat="42.28462" lon="-8.789833">
        <ele>155.3</ele>
        <time>1970-01-01T02:02:44.000Z</time>
      </trkpt>
      <trkpt lat="42.28462" lon="-8.789833">
        <ele>155.3</ele>
        <time>1970-01-01T02:02:45.000Z</time>
      </trkpt>
      <trkpt lat="42.28462" lon="-8.789833">
        <ele>155.3</ele>
        <time>1970-01-01T02:02:46.000Z</time>
      </trkpt>
      <trkpt lat="42.28462" lon="-8.789833">
        <ele>155.3</ele>
        <time>1970-01-01T02:02:47.000Z</time>
      </trkpt>
      <trkpt lat="42.28462" lon="-8.789833">
        <ele>155.3</ele>
        <time>1970-01-01T02:02:48.000Z</time>
      </trkpt>
      <trkpt lat="42.28462" lon="-8.789833">
        <ele>155.3</ele>
        <time>1970-01-01T02:02:49.000Z</time>
      </trkpt>
      <trkpt lat="42.28462" lon="-8.789833">
        <ele>155.3</ele>
        <time>1970-01-01T02:02:50.000Z</time>
      </trkpt>
      <trkpt lat="42.28462" lon="-8.789833">
        <ele>155.3</ele>
        <time>1970-01-01T02:02:51.000Z</time>
      </trkpt>
      <trkpt lat="42.28462" lon="-8.789833">
        <ele>155.3</ele>
        <time>1970-01-01T02:02:52.000Z</time>
      </trkpt>
      <trkpt lat="42.28462" lon="-8.789833">
        <ele>155.3</ele>
        <time>1970-01-01T02:02:53.000Z</time>
      </trkpt>
      <trkpt lat="42.28462" lon="-8.789833">
        <ele>155.3</ele>
        <time>1970-01-01T02:02:54.000Z</time>
      </trkpt>
      <trkpt lat="42.28462" lon="-8.789833">
        <ele>155.3</ele>
        <time>1970-01-01T02:02:55.000Z</time>
      </trkpt>
      <trkpt lat="42.28462" lon="-8.789833">
        <ele>154.2</ele>
        <time>1970-01-01T02:02:56.000Z</time>
      </trkpt>
      <trkpt lat="42.28462" lon="-8.789833">
        <ele>154.2</ele>
        <time>1970-01-01T02:02:57.000Z</time>
      </trkpt>
      <trkpt lat="42.284622" lon="-8.789833">
        <ele>154.2</ele>
        <time>1970-01-01T02:02:58.000Z</time>
      </trkpt>
      <trkpt lat="42.284622" lon="-8.789833">
        <ele>154.2</ele>
        <time>1970-01-01T02:02:59.000Z</time>
      </trkpt>
      <trkpt lat="42.284622" lon="-8.789833">
        <ele>154.2</ele>
        <time>1970-01-01T02:03:00.000Z</time>
      </trkpt>
      <trkpt lat="42.284622" lon="-8.789833">
        <ele>154.2</ele>
        <time>1970-01-01T02:03:01.000Z</time>
      </trkpt>
      <trkpt lat="42.284623" lon="-8.789833">
        <ele>154.2</ele>
        <time>1970-01-01T02:03:02.000Z</time>
      </trkpt>
      <trkpt lat="42.284623" lon="-8.789833">
        <ele>154.2</ele>
        <time>1970-01-01T02:03:03.000Z</time>
      </trkpt>
      <trkpt lat="42.284632" lon="-8.789833">
        <ele>154.2</ele>
        <time>1970-01-01T02:03:04.000Z</time>
      </trkpt>
      <trkpt lat="42.284643" lon="-8.789837">
        <ele>154.2</ele>
        <time>1970-01-01T02:03:05.000Z</time>
      </trkpt>
      <trkpt lat="42.284653" lon="-8.789837">
        <ele>154.2</ele>
        <time>1970-01-01T02:03:06.000Z</time>
      </trkpt>
      <trkpt lat="42.284663" lon="-8.789835">
        <ele>154.2</ele>
        <time>1970-01-01T02:03:07.000Z</time>
      </trkpt>
      <trkpt lat="42.284673" lon="-8.789833">
        <ele>154.2</ele>
        <time>1970-01-01T02:03:08.000Z</time>
      </trkpt>
      <trkpt lat="42.284693" lon="-8.789825">
        <ele>154.2</ele>
        <time>1970-01-01T02:03:09.000Z</time>
      </trkpt>
      <trkpt lat="42.284713" lon="-8.789818">
        <ele>155.3</ele>
        <time>1970-01-01T02:03:10.000Z</time>
      </trkpt>
      <trkpt lat="42.284735" lon="-8.789808">
        <ele>155.3</ele>
        <time>1970-01-01T02:03:11.000Z</time>
      </trkpt>
      <trkpt lat="42.284747" lon="-8.789807">
        <ele>155.3</ele>
        <time>1970-01-01T02:03:12.000Z</time>
      </trkpt>
      <trkpt lat="42.284757" lon="-8.789805">
        <ele>155.3</ele>
        <time>1970-01-01T02:03:13.000Z</time>
      </trkpt>
      <trkpt lat="42.284763" lon="-8.7898">
        <ele>156.2</ele>
        <time>1970-01-01T02:03:14.000Z</time>
      </trkpt>
      <trkpt lat="42.284765" lon="-8.789797">
        <ele>156.2</ele>
        <time>1970-01-01T02:03:15.000Z</time>
      </trkpt>
      <trkpt lat="42.28477" lon="-8.789797">
        <ele>156.2</ele>
        <time>1970-01-01T02:03:16.000Z</time>
      </trkpt>
      <trkpt lat="42.284778" lon="-8.78979">
        <ele>156.2</ele>
        <time>1970-01-01T02:03:17.000Z</time>
      </trkpt>
      <trkpt lat="42.284785" lon="-8.789793">
        <ele>157.3</ele>
        <time>1970-01-01T02:03:18.000Z</time>
      </trkpt>
      <trkpt lat="42.284787" lon="-8.789795">
        <ele>157.3</ele>
        <time>1970-01-01T02:03:19.000Z</time>
      </trkpt>
      <trkpt lat="42.28479" lon="-8.789785">
        <ele>157.3</ele>
        <time>1970-01-01T02:03:20.000Z</time>
      </trkpt>
      <trkpt lat="42.28479" lon="-8.789778">
        <ele>157.3</ele>
        <time>1970-01-01T02:03:21.000Z</time>
      </trkpt>
      <trkpt lat="42.284792" lon="-8.789775">
        <ele>158.2</ele>
        <time>1970-01-01T02:03:22.000Z</time>
      </trkpt>
      <trkpt lat="42.284793" lon="-8.789775">
        <ele>158.2</ele>
        <time>1970-01-01T02:03:23.000Z</time>
      </trkpt>
      <trkpt lat="42.284793" lon="-8.789777">
        <ele>158.2</ele>
        <time>1970-01-01T02:03:24.000Z</time>
      </trkpt>
      <trkpt lat="42.284793" lon="-8.789777">
        <ele>158.2</ele>
        <time>1970-01-01T02:03:25.000Z</time>
      </trkpt>
      <trkpt lat="42.284793" lon="-8.789777">
        <ele>158.2</ele>
        <time>1970-01-01T02:03:26.000Z</time>
      </trkpt>
      <trkpt lat="42.284793" lon="-8.789778">
        <ele>158.2</ele>
        <time>1970-01-01T02:03:27.000Z</time>
      </trkpt>
      <trkpt lat="42.284793" lon="-8.78978">
        <ele>158.2</ele>
        <time>1970-01-01T02:03:28.000Z</time>
      </trkpt>
      <trkpt lat="42.284793" lon="-8.78978">
        <ele>158.2</ele>
        <time>1970-01-01T02:03:29.000Z</time>
      </trkpt>
      <trkpt lat="42.284793" lon="-8.78978">
        <ele>158.2</ele>
        <time>1970-01-01T02:03:30.000Z</time>
      </trkpt>
      <trkpt lat="42.284793" lon="-8.78978">
        <ele>158.2</ele>
        <time>1970-01-01T02:03:31.000Z</time>
      </trkpt>
      <trkpt lat="42.284793" lon="-8.78978">
        <ele>158.2</ele>
        <time>1970-01-01T02:03:32.000Z</time>
      </trkpt>
      <trkpt lat="42.284793" lon="-8.78978">
        <ele>158.2</ele>
        <time>1970-01-01T02:03:33.000Z</time>
      </trkpt>
      <trkpt lat="42.284793" lon="-8.78978">
        <ele>158.2</ele>
        <time>1970-01-01T02:03:34.000Z</time>
      </trkpt>
      <trkpt lat="42.284793" lon="-8.78978">
        <ele>158.2</ele>
        <time>1970-01-01T02:03:35.000Z</time>
      </trkpt>
      <trkpt lat="42.284793" lon="-8.78978">
        <ele>158.2</ele>
        <time>1970-01-01T02:03:36.000Z</time>
      </trkpt>
      <trkpt lat="42.284793" lon="-8.78978">
        <ele>158.2</ele>
        <time>1970-01-01T02:03:37.000Z</time>
      </trkpt>
      <trkpt lat="42.284793" lon="-8.78978">
        <ele>158.2</ele>
        <time>1970-01-01T02:03:38.000Z</time>
      </trkpt>
      <trkpt lat="42.284793" lon="-8.78978">
        <ele>158.2</ele>
        <time>1970-01-01T02:03:39.000Z</time>
      </trkpt>
      <trkpt lat="42.284793" lon="-8.78978">
        <ele>158.2</ele>
        <time>1970-01-01T02:03:40.000Z</time>
      </trkpt>
      <trkpt lat="42.284793" lon="-8.78978">
        <ele>158.2</ele>
        <time>1970-01-01T02:03:41.000Z</time>
      </trkpt>
      <trkpt lat="42.284793" lon="-8.78978">
        <ele>158.2</ele>
        <time>1970-01-01T02:03:42.000Z</time>
      </trkpt>
      <trkpt lat="42.284802" lon="-8.78978">
        <ele>158.2</ele>
        <time>1970-01-01T02:03:43.000Z</time>
      </trkpt>
      <trkpt lat="42.284812" lon="-8.78978">
        <ele>158.2</ele>
        <time>1970-01-01T02:03:44.000Z</time>
      </trkpt>
      <trkpt lat="42.284822" lon="-8.78978">
        <ele>158.2</ele>
        <time>1970-01-01T02:03:45.000Z</time>
      </trkpt>
      <trkpt lat="42.28483" lon="-8.78978">
        <ele>158.2</ele>
        <time>1970-01-01T02:03:46.000Z</time>
      </trkpt>
      <trkpt lat="42.28484" lon="-8.789782">
        <ele>158.2</ele>
        <time>1970-01-01T02:03:47.000Z</time>
      </trkpt>
      <trkpt lat="42.284852" lon="-8.789783">
        <ele>158.2</ele>
        <time>1970-01-01T02:03:48.000Z</time>
      </trkpt>
      <trkpt lat="42.284867" lon="-8.789783">
        <ele>157.3</ele>
        <time>1970-01-01T02:03:49.000Z</time>
      </trkpt>
      <trkpt lat="42.284882" lon="-8.789783">
        <ele>157.3</ele>
        <time>1970-01-01T02:03:50.000Z</time>
      </trkpt>
      <trkpt lat="42.284898" lon="-8.789782">
        <ele>157.3</ele>
        <time>1970-01-01T02:03:51.000Z</time>
      </trkpt>
      <trkpt lat="42.284917" lon="-8.789787">
        <ele>157.3</ele>
        <time>1970-01-01T02:03:52.000Z</time>
      </trkpt>
      <trkpt lat="42.284927" lon="-8.789792">
        <ele>156.2</ele>
        <time>1970-01-01T02:03:53.000Z</time>
      </trkpt>
      <trkpt lat="42.284938" lon="-8.789788">
        <ele>156.2</ele>
        <time>1970-01-01T02:03:54.000Z</time>
      </trkpt>
      <trkpt lat="42.284948" lon="-8.789777">
        <ele>156.2</ele>
        <time>1970-01-01T02:03:55.000Z</time>
      </trkpt>
      <trkpt lat="42.284962" lon="-8.78977">
        <ele>156.2</ele>
        <time>1970-01-01T02:03:56.000Z</time>
      </trkpt>
      <trkpt lat="42.284977" lon="-8.789765">
        <ele>156.2</ele>
        <time>1970-01-01T02:03:57.000Z</time>
      </trkpt>
      <trkpt lat="42.284997" lon="-8.789767">
        <ele>156.2</ele>
        <time>1970-01-01T02:03:58.000Z</time>
      </trkpt>
      <trkpt lat="42.285008" lon="-8.789772">
        <ele>156.2</ele>
        <time>1970-01-01T02:03:59.000Z</time>
      </trkpt>
      <trkpt lat="42.285018" lon="-8.78977">
        <ele>156.2</ele>
        <time>1970-01-01T02:04:00.000Z</time>
      </trkpt>
      <trkpt lat="42.28503" lon="-8.789767">
        <ele>157.3</ele>
        <time>1970-01-01T02:04:01.000Z</time>
      </trkpt>
      <trkpt lat="42.285037" lon="-8.789768">
        <ele>157.3</ele>
        <time>1970-01-01T02:04:02.000Z</time>
      </trkpt>
      <trkpt lat="42.28504" lon="-8.789772">
        <ele>158.2</ele>
        <time>1970-01-01T02:04:03.000Z</time>
      </trkpt>
      <trkpt lat="42.285047" lon="-8.789782">
        <ele>158.2</ele>
        <time>1970-01-01T02:04:04.000Z</time>
      </trkpt>
      <trkpt lat="42.285053" lon="-8.789782">
        <ele>158.2</ele>
        <time>1970-01-01T02:04:05.000Z</time>
      </trkpt>
      <trkpt lat="42.285055" lon="-8.789782">
        <ele>158.2</ele>
        <time>1970-01-01T02:04:06.000Z</time>
      </trkpt>
      <trkpt lat="42.285057" lon="-8.789782">
        <ele>159.3</ele>
        <time>1970-01-01T02:04:07.000Z</time>
      </trkpt>
      <trkpt lat="42.285058" lon="-8.789782">
        <ele>159.3</ele>
        <time>1970-01-01T02:04:08.000Z</time>
      </trkpt>
      <trkpt lat="42.28506" lon="-8.789782">
        <ele>159.3</ele>
        <time>1970-01-01T02:04:09.000Z</time>
      </trkpt>
      <trkpt lat="42.28506" lon="-8.789783">
        <ele>159.3</ele>
        <time>1970-01-01T02:04:10.000Z</time>
      </trkpt>
      <trkpt lat="42.28506" lon="-8.789783">
        <ele>160.3</ele>
        <time>1970-01-01T02:04:11.000Z</time>
      </trkpt>
      <trkpt lat="42.28506" lon="-8.789783">
        <ele>160.3</ele>
        <time>1970-01-01T02:04:12.000Z</time>
      </trkpt>
      <trkpt lat="42.28506" lon="-8.789783">
        <ele>160.3</ele>
        <time>1970-01-01T02:04:13.000Z</time>
      </trkpt>
      <trkpt lat="42.28506" lon="-8.789783">
        <ele>160.3</ele>
        <time>1970-01-01T02:04:14.000Z</time>
      </trkpt>
      <trkpt lat="42.28506" lon="-8.789782">
        <ele>161.2</ele>
        <time>1970-01-01T02:04:15.000Z</time>
      </trkpt>
      <trkpt lat="42.285058" lon="-8.78978">
        <ele>161.2</ele>
        <time>1970-01-01T02:04:16.000Z</time>
      </trkpt>
      <trkpt lat="42.285058" lon="-8.78978">
        <ele>161.2</ele>
        <time>1970-01-01T02:04:17.000Z</time>
      </trkpt>
      <trkpt lat="42.285058" lon="-8.78978">
        <ele>161.2</ele>
        <time>1970-01-01T02:04:18.000Z</time>
      </trkpt>
      <trkpt lat="42.285058" lon="-8.78978">
        <ele>161.2</ele>
        <time>1970-01-01T02:04:19.000Z</time>
      </trkpt>
      <trkpt lat="42.285058" lon="-8.78978">
        <ele>161.2</ele>
        <time>1970-01-01T02:04:20.000Z</time>
      </trkpt>
      <trkpt lat="42.285058" lon="-8.78978">
        <ele>161.2</ele>
        <time>1970-01-01T02:04:21.000Z</time>
      </trkpt>
      <trkpt lat="42.285058" lon="-8.78978">
        <ele>161.2</ele>
        <time>1970-01-01T02:04:22.000Z</time>
      </trkpt>
      <trkpt lat="42.285058" lon="-8.78978">
        <ele>161.2</ele>
        <time>1970-01-01T02:04:23.000Z</time>
      </trkpt>
      <trkpt lat="42.285058" lon="-8.78978">
        <ele>161.2</ele>
        <time>1970-01-01T02:04:24.000Z</time>
      </trkpt>
      <trkpt lat="42.285058" lon="-8.78978">
        <ele>161.2</ele>
        <time>1970-01-01T02:04:25.000Z</time>
      </trkpt>
      <trkpt lat="42.285058" lon="-8.78978">
        <ele>161.2</ele>
        <time>1970-01-01T02:04:26.000Z</time>
      </trkpt>
      <trkpt lat="42.285058" lon="-8.78978">
        <ele>161.2</ele>
        <time>1970-01-01T02:04:27.000Z</time>
      </trkpt>
      <trkpt lat="42.285058" lon="-8.78978">
        <ele>161.2</ele>
        <time>1970-01-01T02:04:28.000Z</time>
      </trkpt>
      <trkpt lat="42.285058" lon="-8.78978">
        <ele>161.2</ele>
        <time>1970-01-01T02:04:29.000Z</time>
      </trkpt>
      <trkpt lat="42.285058" lon="-8.78978">
        <ele>161.2</ele>
        <time>1970-01-01T02:04:30.000Z</time>
      </trkpt>
      <trkpt lat="42.285058" lon="-8.78978">
        <ele>160.3</ele>
        <time>1970-01-01T02:04:31.000Z</time>
      </trkpt>
      <trkpt lat="42.285058" lon="-8.78978">
        <ele>160.3</ele>
        <time>1970-01-01T02:04:32.000Z</time>
      </trkpt>
      <trkpt lat="42.285058" lon="-8.78978">
        <ele>160.3</ele>
        <time>1970-01-01T02:04:33.000Z</time>
      </trkpt>
      <trkpt lat="42.285058" lon="-8.78978">
        <ele>160.3</ele>
        <time>1970-01-01T02:04:34.000Z</time>
      </trkpt>
      <trkpt lat="42.285053" lon="-8.78978">
        <ele>160.3</ele>
        <time>1970-01-01T02:04:35.000Z</time>
      </trkpt>
      <trkpt lat="42.285052" lon="-8.789782">
        <ele>160.3</ele>
        <time>1970-01-01T02:04:36.000Z</time>
      </trkpt>
      <trkpt lat="42.28505" lon="-8.789782">
        <ele>160.3</ele>
        <time>1970-01-01T02:04:37.000Z</time>
      </trkpt>
      <trkpt lat="42.285048" lon="-8.789782">
        <ele>160.3</ele>
        <time>1970-01-01T02:04:38.000Z</time>
      </trkpt>
      <trkpt lat="42.285048" lon="-8.789782">
        <ele>160.3</ele>
        <time>1970-01-01T02:04:39.000Z</time>
      </trkpt>
      <trkpt lat="42.285047" lon="-8.789782">
        <ele>160.3</ele>
        <time>1970-01-01T02:04:40.000Z</time>
      </trkpt>
      <trkpt lat="42.285047" lon="-8.789782">
        <ele>160.3</ele>
        <time>1970-01-01T02:04:41.000Z</time>
      </trkpt>
      <trkpt lat="42.285043" lon="-8.789782">
        <ele>160.3</ele>
        <time>1970-01-01T02:04:42.000Z</time>
      </trkpt>
      <trkpt lat="42.285043" lon="-8.78978">
        <ele>157.3</ele>
        <time>1970-01-01T02:04:43.000Z</time>
      </trkpt>
      <trkpt lat="42.285043" lon="-8.78978">
        <ele>157.3</ele>
        <time>1970-01-01T02:04:44.000Z</time>
      </trkpt>
      <trkpt lat="42.285043" lon="-8.78978">
        <ele>157.3</ele>
        <time>1970-01-01T02:04:45.000Z</time>
      </trkpt>
      <trkpt lat="42.285042" lon="-8.78978">
        <ele>157.3</ele>
        <time>1970-01-01T02:04:46.000Z</time>
      </trkpt>
      <trkpt lat="42.285042" lon="-8.78978">
        <ele>156.2</ele>
        <time>1970-01-01T02:04:47.000Z</time>
      </trkpt>
      <trkpt lat="42.28504" lon="-8.78978">
        <ele>156.2</ele>
        <time>1970-01-01T02:04:48.000Z</time>
      </trkpt>
      <trkpt lat="42.28504" lon="-8.78978">
        <ele>155.3</ele>
        <time>1970-01-01T02:04:49.000Z</time>
      </trkpt>
      <trkpt lat="42.28504" lon="-8.78978">
        <ele>155.3</ele>
        <time>1970-01-01T02:04:50.000Z</time>
      </trkpt>
      <trkpt lat="42.28504" lon="-8.78978">
        <ele>155.3</ele>
        <time>1970-01-01T02:04:51.000Z</time>
      </trkpt>
      <trkpt lat="42.28504" lon="-8.78978">
        <ele>155.3</ele>
        <time>1970-01-01T02:04:52.000Z</time>
      </trkpt>
      <trkpt lat="42.28504" lon="-8.78978">
        <ele>154.2</ele>
        <time>1970-01-01T02:04:53.000Z</time>
      </trkpt>
      <trkpt lat="42.28504" lon="-8.78978">
        <ele>154.2</ele>
        <time>1970-01-01T02:04:54.000Z</time>
      </trkpt>
      <trkpt lat="42.285038" lon="-8.78978">
        <ele>154.2</ele>
        <time>1970-01-01T02:04:55.000Z</time>
      </trkpt>
      <trkpt lat="42.285038" lon="-8.78978">
        <ele>154.2</ele>
        <time>1970-01-01T02:04:56.000Z</time>
      </trkpt>
      <trkpt lat="42.285038" lon="-8.789782">
        <ele>153.3</ele>
        <time>1970-01-01T02:04:57.000Z</time>
      </trkpt>
      <trkpt lat="42.285038" lon="-8.789782">
        <ele>153.3</ele>
        <time>1970-01-01T02:04:58.000Z</time>
      </trkpt>
      <trkpt lat="42.285037" lon="-8.789782">
        <ele>152.2</ele>
        <time>1970-01-01T02:04:59.000Z</time>
      </trkpt>
      <trkpt lat="42.285037" lon="-8.789782">
        <ele>152.2</ele>
        <time>1970-01-01T02:05:00.000Z</time>
      </trkpt>
      <trkpt lat="42.285037" lon="-8.789783">
        <ele>152.2</ele>
        <time>1970-01-01T02:05:01.000Z</time>
      </trkpt>
      <trkpt lat="42.285035" lon="-8.789783">
        <ele>152.2</ele>
        <time>1970-01-01T02:05:02.000Z</time>
      </trkpt>
      <trkpt lat="42.285032" lon="-8.789783">
        <ele>151.3</ele>
        <time>1970-01-01T02:05:03.000Z</time>
      </trkpt>
      <trkpt lat="42.285032" lon="-8.789783">
        <ele>151.3</ele>
        <time>1970-01-01T02:05:04.000Z</time>
      </trkpt>
      <trkpt lat="42.285032" lon="-8.789782">
        <ele>151.3</ele>
        <time>1970-01-01T02:05:05.000Z</time>
      </trkpt>
      <trkpt lat="42.285032" lon="-8.789782">
        <ele>151.3</ele>
        <time>1970-01-01T02:05:06.000Z</time>
      </trkpt>
      <trkpt lat="42.285032" lon="-8.789782">
        <ele>151.3</ele>
        <time>1970-01-01T02:05:07.000Z</time>
      </trkpt>
      <trkpt lat="42.285032" lon="-8.789782">
        <ele>151.3</ele>
        <time>1970-01-01T02:05:08.000Z</time>
      </trkpt>
      <trkpt lat="42.285032" lon="-8.789782">
        <ele>151.3</ele>
        <time>1970-01-01T02:05:09.000Z</time>
      </trkpt>
      <trkpt lat="42.285032" lon="-8.78978">
        <ele>151.3</ele>
        <time>1970-01-01T02:05:10.000Z</time>
      </trkpt>
      <trkpt lat="42.285032" lon="-8.78978">
        <ele>151.3</ele>
        <time>1970-01-01T02:05:11.000Z</time>
      </trkpt>
      <trkpt lat="42.285032" lon="-8.78978">
        <ele>151.3</ele>
        <time>1970-01-01T02:05:12.000Z</time>
      </trkpt>
      <trkpt lat="42.285032" lon="-8.78978">
        <ele>151.3</ele>
        <time>1970-01-01T02:05:13.000Z</time>
      </trkpt>
      <trkpt lat="42.285032" lon="-8.78978">
        <ele>151.3</ele>
        <time>1970-01-01T02:05:14.000Z</time>
      </trkpt>
      <trkpt lat="42.285032" lon="-8.78978">
        <ele>151.3</ele>
        <time>1970-01-01T02:05:15.000Z</time>
      </trkpt>
      <trkpt lat="42.285032" lon="-8.789782">
        <ele>151.3</ele>
        <time>1970-01-01T02:05:16.000Z</time>
      </trkpt>
      <trkpt lat="42.285032" lon="-8.789782">
        <ele>151.3</ele>
        <time>1970-01-01T02:05:17.000Z</time>
      </trkpt>
      <trkpt lat="42.285035" lon="-8.789783">
        <ele>151.3</ele>
        <time>1970-01-01T02:05:18.000Z</time>
      </trkpt>
      <trkpt lat="42.28504" lon="-8.789783">
        <ele>151.3</ele>
        <time>1970-01-01T02:05:19.000Z</time>
      </trkpt>
      <trkpt lat="42.285047" lon="-8.789783">
        <ele>151.3</ele>
        <time>1970-01-01T02:05:20.000Z</time>
      </trkpt>
      <trkpt lat="42.28505" lon="-8.789783">
        <ele>151.3</ele>
        <time>1970-01-01T02:05:21.000Z</time>
      </trkpt>
      <trkpt lat="42.285052" lon="-8.789783">
        <ele>151.3</ele>
        <time>1970-01-01T02:05:22.000Z</time>
      </trkpt>
      <trkpt lat="42.285053" lon="-8.789783">
        <ele>152.2</ele>
        <time>1970-01-01T02:05:23.000Z</time>
      </trkpt>
      <trkpt lat="42.285053" lon="-8.789783">
        <ele>152.2</ele>
        <time>1970-01-01T02:05:24.000Z</time>
      </trkpt>
      <trkpt lat="42.285055" lon="-8.789783">
        <ele>152.2</ele>
        <time>1970-01-01T02:05:25.000Z</time>
      </trkpt>
      <trkpt lat="42.285055" lon="-8.789783">
        <ele>152.2</ele>
        <time>1970-01-01T02:05:26.000Z</time>
      </trkpt>
      <trkpt lat="42.285057" lon="-8.789783">
        <ele>152.2</ele>
        <time>1970-01-01T02:05:27.000Z</time>
      </trkpt>
      <trkpt lat="42.285057" lon="-8.789783">
        <ele>152.2</ele>
        <time>1970-01-01T02:05:28.000Z</time>
      </trkpt>
      <trkpt lat="42.285058" lon="-8.789783">
        <ele>152.2</ele>
        <time>1970-01-01T02:05:29.000Z</time>
      </trkpt>
      <trkpt lat="42.285058" lon="-8.789785">
        <ele>152.2</ele>
        <time>1970-01-01T02:05:30.000Z</time>
      </trkpt>
      <trkpt lat="42.28506" lon="-8.789787">
        <ele>154.2</ele>
        <time>1970-01-01T02:05:31.000Z</time>
      </trkpt>
      <trkpt lat="42.28506" lon="-8.789787">
        <ele>154.2</ele>
        <time>1970-01-01T02:05:32.000Z</time>
      </trkpt>
      <trkpt lat="42.285063" lon="-8.789793">
        <ele>154.2</ele>
        <time>1970-01-01T02:05:33.000Z</time>
      </trkpt>
      <trkpt lat="42.285065" lon="-8.789802">
        <ele>154.2</ele>
        <time>1970-01-01T02:05:34.000Z</time>
      </trkpt>
      <trkpt lat="42.285068" lon="-8.78981">
        <ele>154.2</ele>
        <time>1970-01-01T02:05:35.000Z</time>
      </trkpt>
      <trkpt lat="42.285072" lon="-8.78982">
        <ele>154.2</ele>
        <time>1970-01-01T02:05:36.000Z</time>
      </trkpt>
      <trkpt lat="42.285077" lon="-8.789828">
        <ele>154.2</ele>
        <time>1970-01-01T02:05:37.000Z</time>
      </trkpt>
      <trkpt lat="42.285088" lon="-8.789838">
        <ele>154.2</ele>
        <time>1970-01-01T02:05:38.000Z</time>
      </trkpt>
      <trkpt lat="42.285103" lon="-8.789842">
        <ele>154.2</ele>
        <time>1970-01-01T02:05:39.000Z</time>
      </trkpt>
      <trkpt lat="42.285115" lon="-8.789852">
        <ele>154.2</ele>
        <time>1970-01-01T02:05:40.000Z</time>
      </trkpt>
      <trkpt lat="42.285128" lon="-8.789858">
        <ele>154.2</ele>
        <time>1970-01-01T02:05:41.000Z</time>
      </trkpt>
      <trkpt lat="42.285135" lon="-8.789863">
        <ele>154.2</ele>
        <time>1970-01-01T02:05:42.000Z</time>
      </trkpt>
      <trkpt lat="42.28514" lon="-8.789862">
        <ele>154.2</ele>
        <time>1970-01-01T02:05:43.000Z</time>
      </trkpt>
      <trkpt lat="42.285143" lon="-8.789862">
        <ele>154.2</ele>
        <time>1970-01-01T02:05:44.000Z</time>
      </trkpt>
      <trkpt lat="42.285148" lon="-8.789863">
        <ele>154.2</ele>
        <time>1970-01-01T02:05:45.000Z</time>
      </trkpt>
      <trkpt lat="42.285158" lon="-8.789862">
        <ele>154.2</ele>
        <time>1970-01-01T02:05:46.000Z</time>
      </trkpt>
      <trkpt lat="42.285167" lon="-8.789862">
        <ele>154.2</ele>
        <time>1970-01-01T02:05:47.000Z</time>
      </trkpt>
      <trkpt lat="42.285173" lon="-8.789868">
        <ele>154.2</ele>
        <time>1970-01-01T02:05:48.000Z</time>
      </trkpt>
      <trkpt lat="42.28518" lon="-8.789875">
        <ele>154.2</ele>
        <time>1970-01-01T02:05:49.000Z</time>
      </trkpt>
      <trkpt lat="42.285188" lon="-8.789878">
        <ele>154.2</ele>
        <time>1970-01-01T02:05:50.000Z</time>
      </trkpt>
      <trkpt lat="42.285192" lon="-8.789882">
        <ele>154.2</ele>
        <time>1970-01-01T02:05:51.000Z</time>
      </trkpt>
      <trkpt lat="42.285198" lon="-8.789888">
        <ele>154.2</ele>
        <time>1970-01-01T02:05:52.000Z</time>
      </trkpt>
      <trkpt lat="42.285205" lon="-8.789893">
        <ele>155.3</ele>
        <time>1970-01-01T02:05:53.000Z</time>
      </trkpt>
      <trkpt lat="42.28521" lon="-8.789902">
        <ele>155.3</ele>
        <time>1970-01-01T02:05:54.000Z</time>
      </trkpt>
      <trkpt lat="42.285215" lon="-8.78991">
        <ele>155.3</ele>
        <time>1970-01-01T02:05:55.000Z</time>
      </trkpt>
      <trkpt lat="42.285217" lon="-8.789917">
        <ele>155.3</ele>
        <time>1970-01-01T02:05:56.000Z</time>
      </trkpt>
      <trkpt lat="42.285218" lon="-8.789922">
        <ele>155.3</ele>
        <time>1970-01-01T02:05:57.000Z</time>
      </trkpt>
      <trkpt lat="42.285223" lon="-8.789927">
        <ele>155.3</ele>
        <time>1970-01-01T02:05:58.000Z</time>
      </trkpt>
      <trkpt lat="42.285227" lon="-8.789935">
        <ele>155.3</ele>
        <time>1970-01-01T02:05:59.000Z</time>
      </trkpt>
      <trkpt lat="42.285232" lon="-8.789938">
        <ele>155.3</ele>
        <time>1970-01-01T02:06:00.000Z</time>
      </trkpt>
      <trkpt lat="42.285235" lon="-8.789942">
        <ele>156.2</ele>
        <time>1970-01-01T02:06:01.000Z</time>
      </trkpt>
      <trkpt lat="42.285238" lon="-8.789942">
        <ele>156.2</ele>
        <time>1970-01-01T02:06:02.000Z</time>
      </trkpt>
      <trkpt lat="42.285243" lon="-8.789942">
        <ele>156.2</ele>
        <time>1970-01-01T02:06:03.000Z</time>
      </trkpt>
      <trkpt lat="42.285247" lon="-8.789942">
        <ele>156.2</ele>
        <time>1970-01-01T02:06:04.000Z</time>
      </trkpt>
      <trkpt lat="42.28525" lon="-8.789942">
        <ele>156.2</ele>
        <time>1970-01-01T02:06:05.000Z</time>
      </trkpt>
      <trkpt lat="42.285252" lon="-8.789942">
        <ele>156.2</ele>
        <time>1970-01-01T02:06:06.000Z</time>
      </trkpt>
      <trkpt lat="42.285253" lon="-8.789943">
        <ele>156.2</ele>
        <time>1970-01-01T02:06:07.000Z</time>
      </trkpt>
      <trkpt lat="42.285253" lon="-8.789943">
        <ele>156.2</ele>
        <time>1970-01-01T02:06:08.000Z</time>
      </trkpt>
      <trkpt lat="42.285255" lon="-8.789947">
        <ele>156.2</ele>
        <time>1970-01-01T02:06:09.000Z</time>
      </trkpt>
      <trkpt lat="42.285255" lon="-8.78995">
        <ele>156.2</ele>
        <time>1970-01-01T02:06:10.000Z</time>
      </trkpt>
      <trkpt lat="42.285257" lon="-8.789953">
        <ele>156.2</ele>
        <time>1970-01-01T02:06:11.000Z</time>
      </trkpt>
      <trkpt lat="42.285255" lon="-8.789955">
        <ele>156.2</ele>
        <time>1970-01-01T02:06:12.000Z</time>
      </trkpt>
      <trkpt lat="42.285253" lon="-8.789958">
        <ele>156.2</ele>
        <time>1970-01-01T02:06:13.000Z</time>
      </trkpt>
      <trkpt lat="42.285253" lon="-8.78996">
        <ele>156.2</ele>
        <time>1970-01-01T02:06:14.000Z</time>
      </trkpt>
      <trkpt lat="42.285253" lon="-8.78996">
        <ele>156.2</ele>
        <time>1970-01-01T02:06:15.000Z</time>
      </trkpt>
      <trkpt lat="42.285253" lon="-8.78996">
        <ele>156.2</ele>
        <time>1970-01-01T02:06:16.000Z</time>
      </trkpt>
      <trkpt lat="42.285253" lon="-8.78996">
        <ele>158.2</ele>
        <time>1970-01-01T02:06:17.000Z</time>
      </trkpt>
      <trkpt lat="42.285253" lon="-8.78996">
        <ele>158.2</ele>
        <time>1970-01-01T02:06:18.000Z</time>
      </trkpt>
      <trkpt lat="42.285253" lon="-8.78996">
        <ele>159.3</ele>
        <time>1970-01-01T02:06:19.000Z</time>
      </trkpt>
      <trkpt lat="42.285253" lon="-8.78996">
        <ele>159.3</ele>
        <time>1970-01-01T02:06:20.000Z</time>
      </trkpt>
      <trkpt lat="42.285253" lon="-8.78996">
        <ele>159.3</ele>
        <time>1970-01-01T02:06:21.000Z</time>
      </trkpt>
      <trkpt lat="42.285253" lon="-8.78996">
        <ele>159.3</ele>
        <time>1970-01-01T02:06:22.000Z</time>
      </trkpt>
      <trkpt lat="42.285253" lon="-8.78996">
        <ele>160.3</ele>
        <time>1970-01-01T02:06:23.000Z</time>
      </trkpt>
      <trkpt lat="42.285253" lon="-8.78996">
        <ele>160.3</ele>
        <time>1970-01-01T02:06:24.000Z</time>
      </trkpt>
      <trkpt lat="42.285253" lon="-8.78996">
        <ele>160.3</ele>
        <time>1970-01-01T02:06:25.000Z</time>
      </trkpt>
      <trkpt lat="42.285253" lon="-8.78996">
        <ele>160.3</ele>
        <time>1970-01-01T02:06:26.000Z</time>
      </trkpt>
      <trkpt lat="42.285253" lon="-8.78996">
        <ele>161.2</ele>
        <time>1970-01-01T02:06:27.000Z</time>
      </trkpt>
      <trkpt lat="42.285253" lon="-8.78996">
        <ele>161.2</ele>
        <time>1970-01-01T02:06:28.000Z</time>
      </trkpt>
      <trkpt lat="42.285253" lon="-8.78996">
        <ele>162.3</ele>
        <time>1970-01-01T02:06:29.000Z</time>
      </trkpt>
      <trkpt lat="42.285255" lon="-8.789962">
        <ele>162.3</ele>
        <time>1970-01-01T02:06:30.000Z</time>
      </trkpt>
      <trkpt lat="42.285255" lon="-8.789962">
        <ele>162.3</ele>
        <time>1970-01-01T02:06:31.000Z</time>
      </trkpt>
      <trkpt lat="42.285255" lon="-8.789965">
        <ele>162.3</ele>
        <time>1970-01-01T02:06:32.000Z</time>
      </trkpt>
      <trkpt lat="42.285255" lon="-8.789972">
        <ele>162.3</ele>
        <time>1970-01-01T02:06:33.000Z</time>
      </trkpt>
      <trkpt lat="42.285255" lon="-8.789975">
        <ele>162.3</ele>
        <time>1970-01-01T02:06:34.000Z</time>
      </trkpt>
      <trkpt lat="42.285255" lon="-8.789982">
        <ele>163.2</ele>
        <time>1970-01-01T02:06:35.000Z</time>
      </trkpt>
      <trkpt lat="42.285257" lon="-8.789987">
        <ele>163.2</ele>
        <time>1970-01-01T02:06:36.000Z</time>
      </trkpt>
      <trkpt lat="42.285257" lon="-8.78999">
        <ele>163.2</ele>
        <time>1970-01-01T02:06:37.000Z</time>
      </trkpt>
      <trkpt lat="42.285257" lon="-8.789993">
        <ele>163.2</ele>
        <time>1970-01-01T02:06:38.000Z</time>
      </trkpt>
      <trkpt lat="42.285257" lon="-8.789997">
        <ele>164.3</ele>
        <time>1970-01-01T02:06:39.000Z</time>
      </trkpt>
      <trkpt lat="42.285257" lon="-8.790002">
        <ele>164.3</ele>
        <time>1970-01-01T02:06:40.000Z</time>
      </trkpt>
      <trkpt lat="42.285258" lon="-8.790005">
        <ele>164.3</ele>
        <time>1970-01-01T02:06:41.000Z</time>
      </trkpt>
      <trkpt lat="42.285258" lon="-8.790008">
        <ele>164.3</ele>
        <time>1970-01-01T02:06:42.000Z</time>
      </trkpt>
      <trkpt lat="42.285258" lon="-8.790015">
        <ele>165.2</ele>
        <time>1970-01-01T02:06:43.000Z</time>
      </trkpt>
      <trkpt lat="42.285258" lon="-8.790017">
        <ele>165.2</ele>
        <time>1970-01-01T02:06:44.000Z</time>
      </trkpt>
      <trkpt lat="42.285258" lon="-8.79002">
        <ele>165.2</ele>
        <time>1970-01-01T02:06:45.000Z</time>
      </trkpt>
      <trkpt lat="42.285255" lon="-8.790023">
        <ele>165.2</ele>
        <time>1970-01-01T02:06:46.000Z</time>
      </trkpt>
      <trkpt lat="42.28524" lon="-8.790025">
        <ele>165.2</ele>
        <time>1970-01-01T02:06:47.000Z</time>
      </trkpt>
      <trkpt lat="42.285228" lon="-8.79003">
        <ele>165.2</ele>
        <time>1970-01-01T02:06:48.000Z</time>
      </trkpt>
      <trkpt lat="42.285218" lon="-8.790038">
        <ele>165.2</ele>
        <time>1970-01-01T02:06:49.000Z</time>
      </trkpt>
      <trkpt lat="42.285213" lon="-8.790045">
        <ele>165.2</ele>
        <time>1970-01-01T02:06:50.000Z</time>
      </trkpt>
      <trkpt lat="42.285207" lon="-8.790055">
        <ele>165.2</ele>
        <time>1970-01-01T02:06:51.000Z</time>
      </trkpt>
      <trkpt lat="42.2852" lon="-8.790062">
        <ele>165.2</ele>
        <time>1970-01-01T02:06:52.000Z</time>
      </trkpt>
      <trkpt lat="42.285192" lon="-8.790063">
        <ele>166.3</ele>
        <time>1970-01-01T02:06:53.000Z</time>
      </trkpt>
      <trkpt lat="42.285187" lon="-8.790072">
        <ele>166.3</ele>
        <time>1970-01-01T02:06:54.000Z</time>
      </trkpt>
      <trkpt lat="42.285182" lon="-8.790082">
        <ele>166.3</ele>
        <time>1970-01-01T02:06:55.000Z</time>
      </trkpt>
      <trkpt lat="42.285182" lon="-8.790087">
        <ele>166.3</ele>
        <time>1970-01-01T02:06:56.000Z</time>
      </trkpt>
      <trkpt lat="42.285178" lon="-8.790092">
        <ele>166.3</ele>
        <time>1970-01-01T02:06:57.000Z</time>
      </trkpt>
      <trkpt lat="42.285173" lon="-8.790097">
        <ele>166.3</ele>
        <time>1970-01-01T02:06:58.000Z</time>
      </trkpt>
      <trkpt lat="42.285167" lon="-8.790103">
        <ele>166.3</ele>
        <time>1970-01-01T02:06:59.000Z</time>
      </trkpt>
      <trkpt lat="42.28516" lon="-8.790108">
        <ele>166.3</ele>
        <time>1970-01-01T02:07:00.000Z</time>
      </trkpt>
      <trkpt lat="42.285153" lon="-8.790117">
        <ele>166.3</ele>
        <time>1970-01-01T02:07:01.000Z</time>
      </trkpt>
      <trkpt lat="42.28515" lon="-8.790125">
        <ele>166.3</ele>
        <time>1970-01-01T02:07:02.000Z</time>
      </trkpt>
      <trkpt lat="42.28515" lon="-8.79013">
        <ele>168.3</ele>
        <time>1970-01-01T02:07:03.000Z</time>
      </trkpt>
      <trkpt lat="42.285148" lon="-8.790138">
        <ele>168.3</ele>
        <time>1970-01-01T02:07:04.000Z</time>
      </trkpt>
      <trkpt lat="42.285148" lon="-8.790142">
        <ele>170.2</ele>
        <time>1970-01-01T02:07:05.000Z</time>
      </trkpt>
      <trkpt lat="42.28515" lon="-8.790145">
        <ele>170.2</ele>
        <time>1970-01-01T02:07:06.000Z</time>
      </trkpt>
      <trkpt lat="42.28515" lon="-8.790147">
        <ele>170.2</ele>
        <time>1970-01-01T02:07:07.000Z</time>
      </trkpt>
      <trkpt lat="42.285152" lon="-8.79015">
        <ele>170.2</ele>
        <time>1970-01-01T02:07:08.000Z</time>
      </trkpt>
      <trkpt lat="42.28515" lon="-8.790152">
        <ele>170.2</ele>
        <time>1970-01-01T02:07:09.000Z</time>
      </trkpt>
      <trkpt lat="42.28515" lon="-8.790157">
        <ele>170.2</ele>
        <time>1970-01-01T02:07:10.000Z</time>
      </trkpt>
      <trkpt lat="42.285148" lon="-8.790163">
        <ele>170.2</ele>
        <time>1970-01-01T02:07:11.000Z</time>
      </trkpt>
      <trkpt lat="42.285147" lon="-8.79017">
        <ele>170.2</ele>
        <time>1970-01-01T02:07:12.000Z</time>
      </trkpt>
      <trkpt lat="42.285147" lon="-8.790177">
        <ele>170.2</ele>
        <time>1970-01-01T02:07:13.000Z</time>
      </trkpt>
      <trkpt lat="42.285145" lon="-8.79018">
        <ele>170.2</ele>
        <time>1970-01-01T02:07:14.000Z</time>
      </trkpt>
      <trkpt lat="42.285145" lon="-8.79018">
        <ele>170.2</ele>
        <time>1970-01-01T02:07:15.000Z</time>
      </trkpt>
      <trkpt lat="42.285145" lon="-8.790182">
        <ele>170.2</ele>
        <time>1970-01-01T02:07:16.000Z</time>
      </trkpt>
      <trkpt lat="42.285145" lon="-8.790183">
        <ele>170.2</ele>
        <time>1970-01-01T02:07:17.000Z</time>
      </trkpt>
      <trkpt lat="42.285145" lon="-8.790183">
        <ele>170.2</ele>
        <time>1970-01-01T02:07:18.000Z</time>
      </trkpt>
      <trkpt lat="42.285145" lon="-8.790183">
        <ele>170.2</ele>
        <time>1970-01-01T02:07:19.000Z</time>
      </trkpt>
      <trkpt lat="42.285145" lon="-8.790183">
        <ele>170.2</ele>
        <time>1970-01-01T02:07:20.000Z</time>
      </trkpt>
      <trkpt lat="42.285145" lon="-8.790183">
        <ele>170.2</ele>
        <time>1970-01-01T02:07:21.000Z</time>
      </trkpt>
      <trkpt lat="42.285145" lon="-8.790183">
        <ele>170.2</ele>
        <time>1970-01-01T02:07:22.000Z</time>
      </trkpt>
      <trkpt lat="42.285145" lon="-8.790183">
        <ele>170.2</ele>
        <time>1970-01-01T02:07:23.000Z</time>
      </trkpt>
      <trkpt lat="42.285145" lon="-8.790183">
        <ele>170.2</ele>
        <time>1970-01-01T02:07:24.000Z</time>
      </trkpt>
      <trkpt lat="42.285145" lon="-8.790183">
        <ele>173.3</ele>
        <time>1970-01-01T02:07:25.000Z</time>
      </trkpt>
      <trkpt lat="42.285145" lon="-8.790183">
        <ele>173.3</ele>
        <time>1970-01-01T02:07:26.000Z</time>
      </trkpt>
      <trkpt lat="42.285145" lon="-8.790183">
        <ele>173.3</ele>
        <time>1970-01-01T02:07:27.000Z</time>
      </trkpt>
      <trkpt lat="42.285145" lon="-8.790183">
        <ele>173.3</ele>
        <time>1970-01-01T02:07:28.000Z</time>
      </trkpt>
      <trkpt lat="42.285145" lon="-8.790183">
        <ele>173.3</ele>
        <time>1970-01-01T02:07:29.000Z</time>
      </trkpt>
      <trkpt lat="42.285145" lon="-8.790183">
        <ele>173.3</ele>
        <time>1970-01-01T02:07:30.000Z</time>
      </trkpt>
      <trkpt lat="42.285145" lon="-8.790183">
        <ele>173.3</ele>
        <time>1970-01-01T02:07:31.000Z</time>
      </trkpt>
      <trkpt lat="42.285145" lon="-8.790183">
        <ele>173.3</ele>
        <time>1970-01-01T02:07:32.000Z</time>
      </trkpt>
      <trkpt lat="42.285145" lon="-8.790185">
        <ele>174.2</ele>
        <time>1970-01-01T02:07:33.000Z</time>
      </trkpt>
      <trkpt lat="42.285147" lon="-8.790185">
        <ele>174.2</ele>
        <time>1970-01-01T02:07:34.000Z</time>
      </trkpt>
      <trkpt lat="42.285147" lon="-8.790188">
        <ele>174.2</ele>
        <time>1970-01-01T02:07:35.000Z</time>
      </trkpt>
      <trkpt lat="42.285147" lon="-8.790193">
        <ele>174.2</ele>
        <time>1970-01-01T02:07:36.000Z</time>
      </trkpt>
      <trkpt lat="42.285147" lon="-8.790197">
        <ele>174.2</ele>
        <time>1970-01-01T02:07:37.000Z</time>
      </trkpt>
      <trkpt lat="42.285148" lon="-8.790197">
        <ele>174.2</ele>
        <time>1970-01-01T02:07:38.000Z</time>
      </trkpt>
      <trkpt lat="42.285148" lon="-8.790197">
        <ele>175.3</ele>
        <time>1970-01-01T02:07:39.000Z</time>
      </trkpt>
      <trkpt lat="42.285148" lon="-8.790198">
        <ele>175.3</ele>
        <time>1970-01-01T02:07:40.000Z</time>
      </trkpt>
      <trkpt lat="42.285152" lon="-8.790203">
        <ele>175.3</ele>
        <time>1970-01-01T02:07:41.000Z</time>
      </trkpt>
      <trkpt lat="42.285157" lon="-8.790208">
        <ele>175.3</ele>
        <time>1970-01-01T02:07:42.000Z</time>
      </trkpt>
      <trkpt lat="42.285162" lon="-8.790217">
        <ele>175.3</ele>
        <time>1970-01-01T02:07:43.000Z</time>
      </trkpt>
      <trkpt lat="42.285168" lon="-8.790228">
        <ele>175.3</ele>
        <time>1970-01-01T02:07:44.000Z</time>
      </trkpt>
      <trkpt lat="42.285173" lon="-8.79024">
        <ele>175.3</ele>
        <time>1970-01-01T02:07:45.000Z</time>
      </trkpt>
      <trkpt lat="42.285177" lon="-8.790252">
        <ele>175.3</ele>
        <time>1970-01-01T02:07:46.000Z</time>
      </trkpt>
      <trkpt lat="42.285178" lon="-8.790263">
        <ele>176.3</ele>
        <time>1970-01-01T02:07:47.000Z</time>
      </trkpt>
      <trkpt lat="42.285182" lon="-8.790272">
        <ele>176.3</ele>
        <time>1970-01-01T02:07:48.000Z</time>
      </trkpt>
      <trkpt lat="42.285182" lon="-8.790278">
        <ele>176.3</ele>
        <time>1970-01-01T02:07:49.000Z</time>
      </trkpt>
      <trkpt lat="42.285182" lon="-8.790292">
        <ele>176.3</ele>
        <time>1970-01-01T02:07:50.000Z</time>
      </trkpt>
      <trkpt lat="42.285182" lon="-8.790295">
        <ele>176.3</ele>
        <time>1970-01-01T02:07:51.000Z</time>
      </trkpt>
      <trkpt lat="42.285182" lon="-8.790297">
        <ele>176.3</ele>
        <time>1970-01-01T02:07:52.000Z</time>
      </trkpt>
      <trkpt lat="42.285182" lon="-8.790298">
        <ele>177.2</ele>
        <time>1970-01-01T02:07:53.000Z</time>
      </trkpt>
      <trkpt lat="42.285182" lon="-8.790298">
        <ele>177.2</ele>
        <time>1970-01-01T02:07:54.000Z</time>
      </trkpt>
      <trkpt lat="42.285182" lon="-8.790298">
        <ele>177.2</ele>
        <time>1970-01-01T02:07:55.000Z</time>
      </trkpt>
      <trkpt lat="42.285182" lon="-8.790298">
        <ele>177.2</ele>
        <time>1970-01-01T02:07:56.000Z</time>
      </trkpt>
      <trkpt lat="42.285182" lon="-8.790298">
        <ele>177.2</ele>
        <time>1970-01-01T02:07:57.000Z</time>
      </trkpt>
      <trkpt lat="42.285182" lon="-8.790298">
        <ele>177.2</ele>
        <time>1970-01-01T02:07:58.000Z</time>
      </trkpt>
      <trkpt lat="42.285182" lon="-8.790298">
        <ele>178.3</ele>
        <time>1970-01-01T02:07:59.000Z</time>
      </trkpt>
      <trkpt lat="42.285182" lon="-8.790298">
        <ele>178.3</ele>
        <time>1970-01-01T02:08:00.000Z</time>
      </trkpt>
      <trkpt lat="42.285182" lon="-8.790298">
        <ele>178.3</ele>
        <time>1970-01-01T02:08:01.000Z</time>
      </trkpt>
      <trkpt lat="42.285182" lon="-8.790298">
        <ele>178.3</ele>
        <time>1970-01-01T02:08:02.000Z</time>
      </trkpt>
      <trkpt lat="42.285182" lon="-8.790298">
        <ele>178.3</ele>
        <time>1970-01-01T02:08:03.000Z</time>
      </trkpt>
      <trkpt lat="42.285183" lon="-8.790298">
        <ele>178.3</ele>
        <time>1970-01-01T02:08:04.000Z</time>
      </trkpt>
      <trkpt lat="42.285183" lon="-8.790298">
        <ele>179.2</ele>
        <time>1970-01-01T02:08:05.000Z</time>
      </trkpt>
      <trkpt lat="42.285183" lon="-8.790298">
        <ele>179.2</ele>
        <time>1970-01-01T02:08:06.000Z</time>
      </trkpt>
      <trkpt lat="42.285185" lon="-8.790298">
        <ele>179.2</ele>
        <time>1970-01-01T02:08:07.000Z</time>
      </trkpt>
      <trkpt lat="42.285185" lon="-8.790298">
        <ele>179.2</ele>
        <time>1970-01-01T02:08:08.000Z</time>
      </trkpt>
      <trkpt lat="42.28519" lon="-8.790303">
        <ele>179.2</ele>
        <time>1970-01-01T02:08:09.000Z</time>
      </trkpt>
      <trkpt lat="42.285197" lon="-8.79032">
        <ele>179.2</ele>
        <time>1970-01-01T02:08:10.000Z</time>
      </trkpt>
      <trkpt lat="42.2852" lon="-8.790337">
        <ele>179.2</ele>
        <time>1970-01-01T02:08:11.000Z</time>
      </trkpt>
      <trkpt lat="42.285205" lon="-8.790347">
        <ele>179.2</ele>
        <time>1970-01-01T02:08:12.000Z</time>
      </trkpt>
      <trkpt lat="42.28521" lon="-8.790355">
        <ele>180.3</ele>
        <time>1970-01-01T02:08:13.000Z</time>
      </trkpt>
      <trkpt lat="42.285217" lon="-8.790365">
        <ele>180.3</ele>
        <time>1970-01-01T02:08:14.000Z</time>
      </trkpt>
      <trkpt lat="42.285222" lon="-8.790377">
        <ele>180.3</ele>
        <time>1970-01-01T02:08:15.000Z</time>
      </trkpt>
      <trkpt lat="42.28523" lon="-8.79039">
        <ele>180.3</ele>
        <time>1970-01-01T02:08:16.000Z</time>
      </trkpt>
      <trkpt lat="42.285237" lon="-8.790402">
        <ele>181.2</ele>
        <time>1970-01-01T02:08:17.000Z</time>
      </trkpt>
      <trkpt lat="42.285248" lon="-8.790408">
        <ele>181.2</ele>
        <time>1970-01-01T02:08:18.000Z</time>
      </trkpt>
      <trkpt lat="42.285255" lon="-8.790412">
        <ele>181.2</ele>
        <time>1970-01-01T02:08:19.000Z</time>
      </trkpt>
      <trkpt lat="42.285258" lon="-8.790422">
        <ele>181.2</ele>
        <time>1970-01-01T02:08:20.000Z</time>
      </trkpt>
      <trkpt lat="42.28526" lon="-8.79043">
        <ele>181.2</ele>
        <time>1970-01-01T02:08:21.000Z</time>
      </trkpt>
      <trkpt lat="42.285262" lon="-8.790435">
        <ele>181.2</ele>
        <time>1970-01-01T02:08:22.000Z</time>
      </trkpt>
      <trkpt lat="42.285262" lon="-8.790437">
        <ele>181.2</ele>
        <time>1970-01-01T02:08:23.000Z</time>
      </trkpt>
      <trkpt lat="42.285263" lon="-8.79044">
        <ele>181.2</ele>
        <time>1970-01-01T02:08:24.000Z</time>
      </trkpt>
      <trkpt lat="42.285263" lon="-8.790448">
        <ele>183.3</ele>
        <time>1970-01-01T02:08:25.000Z</time>
      </trkpt>
      <trkpt lat="42.285265" lon="-8.790458">
        <ele>183.3</ele>
        <time>1970-01-01T02:08:26.000Z</time>
      </trkpt>
      <trkpt lat="42.285265" lon="-8.790465">
        <ele>184.3</ele>
        <time>1970-01-01T02:08:27.000Z</time>
      </trkpt>
      <trkpt lat="42.285263" lon="-8.790472">
        <ele>184.3</ele>
        <time>1970-01-01T02:08:28.000Z</time>
      </trkpt>
      <trkpt lat="42.28526" lon="-8.790473">
        <ele>184.3</ele>
        <time>1970-01-01T02:08:29.000Z</time>
      </trkpt>
      <trkpt lat="42.285258" lon="-8.790478">
        <ele>184.3</ele>
        <time>1970-01-01T02:08:30.000Z</time>
      </trkpt>
      <trkpt lat="42.285257" lon="-8.790482">
        <ele>184.3</ele>
        <time>1970-01-01T02:08:31.000Z</time>
      </trkpt>
      <trkpt lat="42.285253" lon="-8.790487">
        <ele>184.3</ele>
        <time>1970-01-01T02:08:32.000Z</time>
      </trkpt>
      <trkpt lat="42.285252" lon="-8.790497">
        <ele>185.3</ele>
        <time>1970-01-01T02:08:33.000Z</time>
      </trkpt>
      <trkpt lat="42.285255" lon="-8.790508">
        <ele>185.3</ele>
        <time>1970-01-01T02:08:34.000Z</time>
      </trkpt>
      <trkpt lat="42.285257" lon="-8.790513">
        <ele>185.3</ele>
        <time>1970-01-01T02:08:35.000Z</time>
      </trkpt>
      <trkpt lat="42.285257" lon="-8.790517">
        <ele>185.3</ele>
        <time>1970-01-01T02:08:36.000Z</time>
      </trkpt>
      <trkpt lat="42.285257" lon="-8.790522">
        <ele>186.2</ele>
        <time>1970-01-01T02:08:37.000Z</time>
      </trkpt>
      <trkpt lat="42.285257" lon="-8.790525">
        <ele>186.2</ele>
        <time>1970-01-01T02:08:38.000Z</time>
      </trkpt>
      <trkpt lat="42.285258" lon="-8.790527">
        <ele>186.2</ele>
        <time>1970-01-01T02:08:39.000Z</time>
      </trkpt>
      <trkpt lat="42.28526" lon="-8.790527">
        <ele>186.2</ele>
        <time>1970-01-01T02:08:40.000Z</time>
      </trkpt>
      <trkpt lat="42.285262" lon="-8.790525">
        <ele>187.3</ele>
        <time>1970-01-01T02:08:41.000Z</time>
      </trkpt>
      <trkpt lat="42.285263" lon="-8.790525">
        <ele>187.3</ele>
        <time>1970-01-01T02:08:42.000Z</time>
      </trkpt>
      <trkpt lat="42.285265" lon="-8.790527">
        <ele>187.3</ele>
        <time>1970-01-01T02:08:43.000Z</time>
      </trkpt>
      <trkpt lat="42.285263" lon="-8.790527">
        <ele>187.3</ele>
        <time>1970-01-01T02:08:44.000Z</time>
      </trkpt>
      <trkpt lat="42.285263" lon="-8.790527">
        <ele>187.3</ele>
        <time>1970-01-01T02:08:45.000Z</time>
      </trkpt>
      <trkpt lat="42.285263" lon="-8.790527">
        <ele>187.3</ele>
        <time>1970-01-01T02:08:46.000Z</time>
      </trkpt>
      <trkpt lat="42.285263" lon="-8.790527">
        <ele>187.3</ele>
        <time>1970-01-01T02:08:47.000Z</time>
      </trkpt>
      <trkpt lat="42.285263" lon="-8.790527">
        <ele>187.3</ele>
        <time>1970-01-01T02:08:48.000Z</time>
      </trkpt>
      <trkpt lat="42.285263" lon="-8.790527">
        <ele>188.2</ele>
        <time>1970-01-01T02:08:49.000Z</time>
      </trkpt>
      <trkpt lat="42.285263" lon="-8.790527">
        <ele>188.2</ele>
        <time>1970-01-01T02:08:50.000Z</time>
      </trkpt>
      <trkpt lat="42.285263" lon="-8.790527">
        <ele>188.2</ele>
        <time>1970-01-01T02:08:51.000Z</time>
      </trkpt>
      <trkpt lat="42.285263" lon="-8.790527">
        <ele>188.2</ele>
        <time>1970-01-01T02:08:52.000Z</time>
      </trkpt>
      <trkpt lat="42.285263" lon="-8.790527">
        <ele>189.3</ele>
        <time>1970-01-01T02:08:53.000Z</time>
      </trkpt>
      <trkpt lat="42.285263" lon="-8.790527">
        <ele>189.3</ele>
        <time>1970-01-01T02:08:54.000Z</time>
      </trkpt>
      <trkpt lat="42.285263" lon="-8.790527">
        <ele>189.3</ele>
        <time>1970-01-01T02:08:55.000Z</time>
      </trkpt>
      <trkpt lat="42.285263" lon="-8.790527">
        <ele>189.3</ele>
        <time>1970-01-01T02:08:56.000Z</time>
      </trkpt>
      <trkpt lat="42.285263" lon="-8.790527">
        <ele>189.3</ele>
        <time>1970-01-01T02:08:57.000Z</time>
      </trkpt>
      <trkpt lat="42.285263" lon="-8.790527">
        <ele>189.3</ele>
        <time>1970-01-01T02:08:58.000Z</time>
      </trkpt>
      <trkpt lat="42.285263" lon="-8.790527">
        <ele>189.3</ele>
        <time>1970-01-01T02:08:59.000Z</time>
      </trkpt>
      <trkpt lat="42.285263" lon="-8.790528">
        <ele>189.3</ele>
        <time>1970-01-01T02:09:00.000Z</time>
      </trkpt>
      <trkpt lat="42.285263" lon="-8.79053">
        <ele>189.3</ele>
        <time>1970-01-01T02:09:01.000Z</time>
      </trkpt>
      <trkpt lat="42.285263" lon="-8.790533">
        <ele>189.3</ele>
        <time>1970-01-01T02:09:02.000Z</time>
      </trkpt>
      <trkpt lat="42.285263" lon="-8.79054">
        <ele>189.3</ele>
        <time>1970-01-01T02:09:03.000Z</time>
      </trkpt>
      <trkpt lat="42.285265" lon="-8.790548">
        <ele>189.3</ele>
        <time>1970-01-01T02:09:04.000Z</time>
      </trkpt>
      <trkpt lat="42.285265" lon="-8.790553">
        <ele>189.3</ele>
        <time>1970-01-01T02:09:05.000Z</time>
      </trkpt>
      <trkpt lat="42.285265" lon="-8.790562">
        <ele>189.3</ele>
        <time>1970-01-01T02:09:06.000Z</time>
      </trkpt>
      <trkpt lat="42.285265" lon="-8.790567">
        <ele>191.3</ele>
        <time>1970-01-01T02:09:07.000Z</time>
      </trkpt>
      <trkpt lat="42.285265" lon="-8.790568">
        <ele>191.3</ele>
        <time>1970-01-01T02:09:08.000Z</time>
      </trkpt>
      <trkpt lat="42.285265" lon="-8.79057">
        <ele>191.3</ele>
        <time>1970-01-01T02:09:09.000Z</time>
      </trkpt>
      <trkpt lat="42.285265" lon="-8.79057">
        <ele>191.3</ele>
        <time>1970-01-01T02:09:10.000Z</time>
      </trkpt>
      <trkpt lat="42.285265" lon="-8.79057">
        <ele>192.3</ele>
        <time>1970-01-01T02:09:11.000Z</time>
      </trkpt>
      <trkpt lat="42.285265" lon="-8.79057">
        <ele>192.3</ele>
        <time>1970-01-01T02:09:12.000Z</time>
      </trkpt>
      <trkpt lat="42.285265" lon="-8.79057">
        <ele>192.3</ele>
        <time>1970-01-01T02:09:13.000Z</time>
      </trkpt>
      <trkpt lat="42.285267" lon="-8.79057">
        <ele>192.3</ele>
        <time>1970-01-01T02:09:14.000Z</time>
      </trkpt>
      <trkpt lat="42.285267" lon="-8.79057">
        <ele>192.3</ele>
        <time>1970-01-01T02:09:15.000Z</time>
      </trkpt>
      <trkpt lat="42.285267" lon="-8.79057">
        <ele>192.3</ele>
        <time>1970-01-01T02:09:16.000Z</time>
      </trkpt>
      <trkpt lat="42.285267" lon="-8.790572">
        <ele>192.3</ele>
        <time>1970-01-01T02:09:17.000Z</time>
      </trkpt>
      <trkpt lat="42.285267" lon="-8.790575">
        <ele>192.3</ele>
        <time>1970-01-01T02:09:18.000Z</time>
      </trkpt>
      <trkpt lat="42.285267" lon="-8.790577">
        <ele>193.2</ele>
        <time>1970-01-01T02:09:19.000Z</time>
      </trkpt>
      <trkpt lat="42.285267" lon="-8.79058">
        <ele>193.2</ele>
        <time>1970-01-01T02:09:20.000Z</time>
      </trkpt>
      <trkpt lat="42.285267" lon="-8.79058">
        <ele>193.2</ele>
        <time>1970-01-01T02:09:21.000Z</time>
      </trkpt>
      <trkpt lat="42.285267" lon="-8.790582">
        <ele>193.2</ele>
        <time>1970-01-01T02:09:22.000Z</time>
      </trkpt>
      <trkpt lat="42.285267" lon="-8.790585">
        <ele>193.2</ele>
        <time>1970-01-01T02:09:23.000Z</time>
      </trkpt>
      <trkpt lat="42.285268" lon="-8.790592">
        <ele>193.2</ele>
        <time>1970-01-01T02:09:24.000Z</time>
      </trkpt>
      <trkpt lat="42.28527" lon="-8.790595">
        <ele>193.2</ele>
        <time>1970-01-01T02:09:25.000Z</time>
      </trkpt>
      <trkpt lat="42.285272" lon="-8.790598">
        <ele>193.2</ele>
        <time>1970-01-01T02:09:26.000Z</time>
      </trkpt>
      <trkpt lat="42.285273" lon="-8.790602">
        <ele>193.2</ele>
        <time>1970-01-01T02:09:27.000Z</time>
      </trkpt>
      <trkpt lat="42.285273" lon="-8.790602">
        <ele>193.2</ele>
        <time>1970-01-01T02:09:28.000Z</time>
      </trkpt>
      <trkpt lat="42.285273" lon="-8.790607">
        <ele>194.3</ele>
        <time>1970-01-01T02:09:29.000Z</time>
      </trkpt>
      <trkpt lat="42.285275" lon="-8.790608">
        <ele>194.3</ele>
        <time>1970-01-01T02:09:30.000Z</time>
      </trkpt>
      <trkpt lat="42.285275" lon="-8.790612">
        <ele>195.2</ele>
        <time>1970-01-01T02:09:31.000Z</time>
      </trkpt>
      <trkpt lat="42.285275" lon="-8.790612">
        <ele>195.2</ele>
        <time>1970-01-01T02:09:32.000Z</time>
      </trkpt>
      <trkpt lat="42.285278" lon="-8.790618">
        <ele>196.3</ele>
        <time>1970-01-01T02:09:33.000Z</time>
      </trkpt>
      <trkpt lat="42.285283" lon="-8.79062">
        <ele>196.3</ele>
        <time>1970-01-01T02:09:34.000Z</time>
      </trkpt>
      <trkpt lat="42.285288" lon="-8.790622">
        <ele>196.3</ele>
        <time>1970-01-01T02:09:35.000Z</time>
      </trkpt>
      <trkpt lat="42.28529" lon="-8.790628">
        <ele>196.3</ele>
        <time>1970-01-01T02:09:36.000Z</time>
      </trkpt>
      <trkpt lat="42.285292" lon="-8.790642">
        <ele>197.2</ele>
        <time>1970-01-01T02:09:37.000Z</time>
      </trkpt>
      <trkpt lat="42.285292" lon="-8.790653">
        <ele>197.2</ele>
        <time>1970-01-01T02:09:38.000Z</time>
      </trkpt>
      <trkpt lat="42.285293" lon="-8.790663">
        <ele>197.2</ele>
        <time>1970-01-01T02:09:39.000Z</time>
      </trkpt>
      <trkpt lat="42.285293" lon="-8.790673">
        <ele>197.2</ele>
        <time>1970-01-01T02:09:40.000Z</time>
      </trkpt>
      <trkpt lat="42.285292" lon="-8.790688">
        <ele>197.2</ele>
        <time>1970-01-01T02:09:41.000Z</time>
      </trkpt>
      <trkpt lat="42.285293" lon="-8.790702">
        <ele>197.2</ele>
        <time>1970-01-01T02:09:42.000Z</time>
      </trkpt>
      <trkpt lat="42.285293" lon="-8.790715">
        <ele>197.2</ele>
        <time>1970-01-01T02:09:43.000Z</time>
      </trkpt>
      <trkpt lat="42.285293" lon="-8.790728">
        <ele>197.2</ele>
        <time>1970-01-01T02:09:44.000Z</time>
      </trkpt>
      <trkpt lat="42.285295" lon="-8.790743">
        <ele>197.2</ele>
        <time>1970-01-01T02:09:45.000Z</time>
      </trkpt>
      <trkpt lat="42.285295" lon="-8.790748">
        <ele>197.2</ele>
        <time>1970-01-01T02:09:46.000Z</time>
      </trkpt>
      <trkpt lat="42.285295" lon="-8.790753">
        <ele>197.2</ele>
        <time>1970-01-01T02:09:47.000Z</time>
      </trkpt>
      <trkpt lat="42.285298" lon="-8.790757">
        <ele>197.2</ele>
        <time>1970-01-01T02:09:48.000Z</time>
      </trkpt>
      <trkpt lat="42.2853" lon="-8.790762">
        <ele>197.2</ele>
        <time>1970-01-01T02:09:49.000Z</time>
      </trkpt>
      <trkpt lat="42.2853" lon="-8.790767">
        <ele>197.2</ele>
        <time>1970-01-01T02:09:50.000Z</time>
      </trkpt>
      <trkpt lat="42.2853" lon="-8.790768">
        <ele>197.2</ele>
        <time>1970-01-01T02:09:51.000Z</time>
      </trkpt>
      <trkpt lat="42.285302" lon="-8.79077">
        <ele>197.2</ele>
        <time>1970-01-01T02:09:52.000Z</time>
      </trkpt>
      <trkpt lat="42.285302" lon="-8.790772">
        <ele>197.2</ele>
        <time>1970-01-01T02:09:53.000Z</time>
      </trkpt>
      <trkpt lat="42.285337" lon="-8.790807">
        <ele>209.2</ele>
        <time>1970-01-01T02:09:54.000Z</time>
      </trkpt>
      <trkpt lat="42.285342" lon="-8.790815">
        <ele>208.3</ele>
        <time>1970-01-01T02:09:55.000Z</time>
      </trkpt>
      <trkpt lat="42.285348" lon="-8.790822">
        <ele>208.3</ele>
        <time>1970-01-01T02:09:56.000Z</time>
      </trkpt>
      <trkpt lat="42.285353" lon="-8.790828">
        <ele>208.3</ele>
        <time>1970-01-01T02:09:57.000Z</time>
      </trkpt>
      <trkpt lat="42.285357" lon="-8.79083">
        <ele>208.3</ele>
        <time>1970-01-01T02:09:58.000Z</time>
      </trkpt>
      <trkpt lat="42.285357" lon="-8.790832">
        <ele>208.3</ele>
        <time>1970-01-01T02:09:59.000Z</time>
      </trkpt>
      <trkpt lat="42.285357" lon="-8.79083">
        <ele>208.3</ele>
        <time>1970-01-01T02:10:00.000Z</time>
      </trkpt>
      <trkpt lat="42.285357" lon="-8.79083">
        <ele>208.3</ele>
        <time>1970-01-01T02:10:01.000Z</time>
      </trkpt>
      <trkpt lat="42.285355" lon="-8.790832">
        <ele>208.3</ele>
        <time>1970-01-01T02:12:13.000Z</time>
      </trkpt>
      <trkpt lat="42.285355" lon="-8.790832">
        <ele>204.2</ele>
        <time>1970-01-01T02:12:14.000Z</time>
      </trkpt>
      <trkpt lat="42.285355" lon="-8.790832">
        <ele>204.2</ele>
        <time>1970-01-01T02:12:15.000Z</time>
      </trkpt>
      <trkpt lat="42.285358" lon="-8.790833">
        <ele>203.3</ele>
        <time>1970-01-01T02:12:16.000Z</time>
      </trkpt>
      <trkpt lat="42.285362" lon="-8.790837">
        <ele>203.3</ele>
        <time>1970-01-01T02:12:17.000Z</time>
      </trkpt>
      <trkpt lat="42.285365" lon="-8.79084">
        <ele>203.3</ele>
        <time>1970-01-01T02:12:18.000Z</time>
      </trkpt>
      <trkpt lat="42.285368" lon="-8.790842">
        <ele>203.3</ele>
        <time>1970-01-01T02:12:19.000Z</time>
      </trkpt>
      <trkpt lat="42.28537" lon="-8.790843">
        <ele>203.3</ele>
        <time>1970-01-01T02:12:20.000Z</time>
      </trkpt>
      <trkpt lat="42.285372" lon="-8.790848">
        <ele>203.3</ele>
        <time>1970-01-01T02:12:21.000Z</time>
      </trkpt>
      <trkpt lat="42.285377" lon="-8.79085">
        <ele>203.3</ele>
        <time>1970-01-01T02:12:22.000Z</time>
      </trkpt>
      <trkpt lat="42.285378" lon="-8.790853">
        <ele>203.3</ele>
        <time>1970-01-01T02:12:23.000Z</time>
      </trkpt>
      <trkpt lat="42.285382" lon="-8.790855">
        <ele>203.3</ele>
        <time>1970-01-01T02:12:24.000Z</time>
      </trkpt>
      <trkpt lat="42.285387" lon="-8.79086">
        <ele>203.3</ele>
        <time>1970-01-01T02:12:25.000Z</time>
      </trkpt>
      <trkpt lat="42.285387" lon="-8.790863">
        <ele>203.3</ele>
        <time>1970-01-01T02:12:26.000Z</time>
      </trkpt>
      <trkpt lat="42.285388" lon="-8.790865">
        <ele>203.3</ele>
        <time>1970-01-01T02:12:27.000Z</time>
      </trkpt>
      <trkpt lat="42.28539" lon="-8.790867">
        <ele>202.2</ele>
        <time>1970-01-01T02:12:28.000Z</time>
      </trkpt>
      <trkpt lat="42.28539" lon="-8.790867">
        <ele>202.2</ele>
        <time>1970-01-01T02:12:29.000Z</time>
      </trkpt>
      <trkpt lat="42.28539" lon="-8.790867">
        <ele>202.2</ele>
        <time>1970-01-01T02:12:30.000Z</time>
      </trkpt>
      <trkpt lat="42.28539" lon="-8.790867">
        <ele>202.2</ele>
        <time>1970-01-01T02:12:31.000Z</time>
      </trkpt>
      <trkpt lat="42.28539" lon="-8.790867">
        <ele>202.2</ele>
        <time>1970-01-01T02:12:32.000Z</time>
      </trkpt>
      <trkpt lat="42.28539" lon="-8.790867">
        <ele>202.2</ele>
        <time>1970-01-01T02:12:33.000Z</time>
      </trkpt>
      <trkpt lat="42.28539" lon="-8.790867">
        <ele>202.2</ele>
        <time>1970-01-01T02:12:34.000Z</time>
      </trkpt>
      <trkpt lat="42.28539" lon="-8.790867">
        <ele>202.2</ele>
        <time>1970-01-01T02:12:35.000Z</time>
      </trkpt>
      <trkpt lat="42.28539" lon="-8.790867">
        <ele>202.2</ele>
        <time>1970-01-01T02:12:36.000Z</time>
      </trkpt>
      <trkpt lat="42.28539" lon="-8.790867">
        <ele>202.2</ele>
        <time>1970-01-01T02:12:37.000Z</time>
      </trkpt>
      <trkpt lat="42.28539" lon="-8.790867">
        <ele>202.2</ele>
        <time>1970-01-01T02:12:38.000Z</time>
      </trkpt>
      <trkpt lat="42.28539" lon="-8.790867">
        <ele>202.2</ele>
        <time>1970-01-01T02:12:39.000Z</time>
      </trkpt>
      <trkpt lat="42.28539" lon="-8.790867">
        <ele>202.2</ele>
        <time>1970-01-01T02:12:40.000Z</time>
      </trkpt>
      <trkpt lat="42.28539" lon="-8.790867">
        <ele>202.2</ele>
        <time>1970-01-01T02:12:41.000Z</time>
      </trkpt>
      <trkpt lat="42.28539" lon="-8.790867">
        <ele>202.2</ele>
        <time>1970-01-01T02:12:42.000Z</time>
      </trkpt>
      <trkpt lat="42.28539" lon="-8.790865">
        <ele>202.2</ele>
        <time>1970-01-01T02:12:43.000Z</time>
      </trkpt>
      <trkpt lat="42.285392" lon="-8.790865">
        <ele>199.3</ele>
        <time>1970-01-01T02:12:44.000Z</time>
      </trkpt>
      <trkpt lat="42.285393" lon="-8.790863">
        <ele>199.3</ele>
        <time>1970-01-01T02:12:45.000Z</time>
      </trkpt>
      <trkpt lat="42.285393" lon="-8.790862">
        <ele>198.3</ele>
        <time>1970-01-01T02:12:46.000Z</time>
      </trkpt>
      <trkpt lat="42.285402" lon="-8.79086">
        <ele>198.3</ele>
        <time>1970-01-01T02:12:47.000Z</time>
      </trkpt>
      <trkpt lat="42.285418" lon="-8.790852">
        <ele>197.2</ele>
        <time>1970-01-01T02:12:48.000Z</time>
      </trkpt>
      <trkpt lat="42.285435" lon="-8.790843">
        <ele>197.2</ele>
        <time>1970-01-01T02:12:49.000Z</time>
      </trkpt>
      <trkpt lat="42.285452" lon="-8.790838">
        <ele>196.3</ele>
        <time>1970-01-01T02:12:50.000Z</time>
      </trkpt>
      <trkpt lat="42.285467" lon="-8.790833">
        <ele>196.3</ele>
        <time>1970-01-01T02:12:51.000Z</time>
      </trkpt>
      <trkpt lat="42.285485" lon="-8.790828">
        <ele>196.3</ele>
        <time>1970-01-01T02:12:52.000Z</time>
      </trkpt>
      <trkpt lat="42.2855" lon="-8.790827">
        <ele>196.3</ele>
        <time>1970-01-01T02:12:53.000Z</time>
      </trkpt>
      <trkpt lat="42.285513" lon="-8.790822">
        <ele>195.2</ele>
        <time>1970-01-01T02:12:54.000Z</time>
      </trkpt>
      <trkpt lat="42.285525" lon="-8.790815">
        <ele>195.2</ele>
        <time>1970-01-01T02:12:55.000Z</time>
      </trkpt>
      <trkpt lat="42.285537" lon="-8.79081">
        <ele>194.3</ele>
        <time>1970-01-01T02:12:56.000Z</time>
      </trkpt>
      <trkpt lat="42.285543" lon="-8.790805">
        <ele>194.3</ele>
        <time>1970-01-01T02:12:57.000Z</time>
      </trkpt>
      <trkpt lat="42.28555" lon="-8.790803">
        <ele>193.2</ele>
        <time>1970-01-01T02:12:58.000Z</time>
      </trkpt>
      <trkpt lat="42.28556" lon="-8.790798">
        <ele>193.2</ele>
        <time>1970-01-01T02:12:59.000Z</time>
      </trkpt>
      <trkpt lat="42.285568" lon="-8.790797">
        <ele>192.3</ele>
        <time>1970-01-01T02:13:00.000Z</time>
      </trkpt>
      <trkpt lat="42.285572" lon="-8.790792">
        <ele>192.3</ele>
        <time>1970-01-01T02:13:01.000Z</time>
      </trkpt>
      <trkpt lat="42.285575" lon="-8.79079">
        <ele>191.3</ele>
        <time>1970-01-01T02:13:02.000Z</time>
      </trkpt>
      <trkpt lat="42.285577" lon="-8.79079">
        <ele>191.3</ele>
        <time>1970-01-01T02:13:03.000Z</time>
      </trkpt>
      <trkpt lat="42.285578" lon="-8.790792">
        <ele>191.3</ele>
        <time>1970-01-01T02:13:04.000Z</time>
      </trkpt>
      <trkpt lat="42.28558" lon="-8.790792">
        <ele>191.3</ele>
        <time>1970-01-01T02:13:05.000Z</time>
      </trkpt>
      <trkpt lat="42.28558" lon="-8.79079">
        <ele>190.2</ele>
        <time>1970-01-01T02:13:06.000Z</time>
      </trkpt>
      <trkpt lat="42.28558" lon="-8.79079">
        <ele>190.2</ele>
        <time>1970-01-01T02:13:07.000Z</time>
      </trkpt>
      <trkpt lat="42.285582" lon="-8.79079">
        <ele>190.2</ele>
        <time>1970-01-01T02:13:08.000Z</time>
      </trkpt>
      <trkpt lat="42.285582" lon="-8.790792">
        <ele>190.2</ele>
        <time>1970-01-01T02:13:09.000Z</time>
      </trkpt>
      <trkpt lat="42.285582" lon="-8.790793">
        <ele>190.2</ele>
        <time>1970-01-01T02:13:10.000Z</time>
      </trkpt>
      <trkpt lat="42.285582" lon="-8.790793">
        <ele>190.2</ele>
        <time>1970-01-01T02:13:11.000Z</time>
      </trkpt>
      <trkpt lat="42.285582" lon="-8.790795">
        <ele>190.2</ele>
        <time>1970-01-01T02:13:12.000Z</time>
      </trkpt>
      <trkpt lat="42.285583" lon="-8.790795">
        <ele>190.2</ele>
        <time>1970-01-01T02:13:13.000Z</time>
      </trkpt>
      <trkpt lat="42.285583" lon="-8.790797">
        <ele>189.3</ele>
        <time>1970-01-01T02:13:14.000Z</time>
      </trkpt>
      <trkpt lat="42.285583" lon="-8.790795">
        <ele>189.3</ele>
        <time>1970-01-01T02:13:15.000Z</time>
      </trkpt>
      <trkpt lat="42.285583" lon="-8.790795">
        <ele>189.3</ele>
        <time>1970-01-01T02:13:16.000Z</time>
      </trkpt>
      <trkpt lat="42.285583" lon="-8.790795">
        <ele>189.3</ele>
        <time>1970-01-01T02:13:17.000Z</time>
      </trkpt>
      <trkpt lat="42.285583" lon="-8.790795">
        <ele>189.3</ele>
        <time>1970-01-01T02:13:18.000Z</time>
      </trkpt>
      <trkpt lat="42.285583" lon="-8.790795">
        <ele>189.3</ele>
        <time>1970-01-01T02:13:19.000Z</time>
      </trkpt>
      <trkpt lat="42.285583" lon="-8.790795">
        <ele>188.2</ele>
        <time>1970-01-01T02:13:20.000Z</time>
      </trkpt>
      <trkpt lat="42.285583" lon="-8.790795">
        <ele>188.2</ele>
        <time>1970-01-01T02:13:21.000Z</time>
      </trkpt>
      <trkpt lat="42.285583" lon="-8.790795">
        <ele>188.2</ele>
        <time>1970-01-01T02:13:22.000Z</time>
      </trkpt>
      <trkpt lat="42.285588" lon="-8.790793">
        <ele>188.2</ele>
        <time>1970-01-01T02:13:23.000Z</time>
      </trkpt>
      <trkpt lat="42.285603" lon="-8.790787">
        <ele>187.3</ele>
        <time>1970-01-01T02:13:24.000Z</time>
      </trkpt>
      <trkpt lat="42.285617" lon="-8.790785">
        <ele>187.3</ele>
        <time>1970-01-01T02:13:25.000Z</time>
      </trkpt>
      <trkpt lat="42.28563" lon="-8.79078">
        <ele>186.2</ele>
        <time>1970-01-01T02:13:26.000Z</time>
      </trkpt>
      <trkpt lat="42.285645" lon="-8.790773">
        <ele>186.2</ele>
        <time>1970-01-01T02:13:27.000Z</time>
      </trkpt>
      <trkpt lat="42.285657" lon="-8.790767">
        <ele>186.2</ele>
        <time>1970-01-01T02:13:28.000Z</time>
      </trkpt>
      <trkpt lat="42.285668" lon="-8.79076">
        <ele>186.2</ele>
        <time>1970-01-01T02:13:29.000Z</time>
      </trkpt>
      <trkpt lat="42.28568" lon="-8.790752">
        <ele>185.3</ele>
        <time>1970-01-01T02:13:30.000Z</time>
      </trkpt>
      <trkpt lat="42.285698" lon="-8.790743">
        <ele>185.3</ele>
        <time>1970-01-01T02:13:31.000Z</time>
      </trkpt>
      <trkpt lat="42.285707" lon="-8.790737">
        <ele>185.3</ele>
        <time>1970-01-01T02:13:32.000Z</time>
      </trkpt>
      <trkpt lat="42.285713" lon="-8.790732">
        <ele>185.3</ele>
        <time>1970-01-01T02:13:33.000Z</time>
      </trkpt>
      <trkpt lat="42.285718" lon="-8.79073">
        <ele>184.3</ele>
        <time>1970-01-01T02:13:34.000Z</time>
      </trkpt>
      <trkpt lat="42.28572" lon="-8.79073">
        <ele>184.3</ele>
        <time>1970-01-01T02:13:35.000Z</time>
      </trkpt>
      <trkpt lat="42.285727" lon="-8.790733">
        <ele>184.3</ele>
        <time>1970-01-01T02:13:36.000Z</time>
      </trkpt>
      <trkpt lat="42.285732" lon="-8.790735">
        <ele>183.3</ele>
        <time>1970-01-01T02:13:37.000Z</time>
      </trkpt>
      <trkpt lat="42.285735" lon="-8.790735">
        <ele>183.3</ele>
        <time>1970-01-01T02:13:38.000Z</time>
      </trkpt>
      <trkpt lat="42.285737" lon="-8.790733">
        <ele>182.3</ele>
        <time>1970-01-01T02:13:39.000Z</time>
      </trkpt>
      <trkpt lat="42.285737" lon="-8.790732">
        <ele>182.3</ele>
        <time>1970-01-01T02:13:40.000Z</time>
      </trkpt>
      <trkpt lat="42.285738" lon="-8.79073">
        <ele>182.3</ele>
        <time>1970-01-01T02:13:41.000Z</time>
      </trkpt>
      <trkpt lat="42.285738" lon="-8.79073">
        <ele>182.3</ele>
        <time>1970-01-01T02:13:42.000Z</time>
      </trkpt>
      <trkpt lat="42.28574" lon="-8.790733">
        <ele>182.3</ele>
        <time>1970-01-01T02:13:43.000Z</time>
      </trkpt>
      <trkpt lat="42.285745" lon="-8.790737">
        <ele>182.3</ele>
        <time>1970-01-01T02:13:44.000Z</time>
      </trkpt>
      <trkpt lat="42.285757" lon="-8.790737">
        <ele>182.3</ele>
        <time>1970-01-01T02:13:45.000Z</time>
      </trkpt>
      <trkpt lat="42.28577" lon="-8.790745">
        <ele>182.3</ele>
        <time>1970-01-01T02:13:46.000Z</time>
      </trkpt>
      <trkpt lat="42.28578" lon="-8.790745">
        <ele>181.2</ele>
        <time>1970-01-01T02:13:47.000Z</time>
      </trkpt>
      <trkpt lat="42.28579" lon="-8.790743">
        <ele>181.2</ele>
        <time>1970-01-01T02:13:48.000Z</time>
      </trkpt>
      <trkpt lat="42.2858" lon="-8.790742">
        <ele>180.3</ele>
        <time>1970-01-01T02:13:49.000Z</time>
      </trkpt>
      <trkpt lat="42.285812" lon="-8.790738">
        <ele>180.3</ele>
        <time>1970-01-01T02:13:50.000Z</time>
      </trkpt>
      <trkpt lat="42.285822" lon="-8.790738">
        <ele>180.3</ele>
        <time>1970-01-01T02:13:51.000Z</time>
      </trkpt>
      <trkpt lat="42.285832" lon="-8.790737">
        <ele>180.3</ele>
        <time>1970-01-01T02:13:52.000Z</time>
      </trkpt>
      <trkpt lat="42.285843" lon="-8.790733">
        <ele>180.3</ele>
        <time>1970-01-01T02:13:53.000Z</time>
      </trkpt>
      <trkpt lat="42.285852" lon="-8.790728">
        <ele>180.3</ele>
        <time>1970-01-01T02:13:54.000Z</time>
      </trkpt>
      <trkpt lat="42.285862" lon="-8.790725">
        <ele>179.2</ele>
        <time>1970-01-01T02:13:55.000Z</time>
      </trkpt>
      <trkpt lat="42.285872" lon="-8.790725">
        <ele>179.2</ele>
        <time>1970-01-01T02:13:56.000Z</time>
      </trkpt>
      <trkpt lat="42.285883" lon="-8.790725">
        <ele>179.2</ele>
        <time>1970-01-01T02:13:57.000Z</time>
      </trkpt>
      <trkpt lat="42.285893" lon="-8.790723">
        <ele>179.2</ele>
        <time>1970-01-01T02:13:58.000Z</time>
      </trkpt>
      <trkpt lat="42.2859" lon="-8.79072">
        <ele>178.3</ele>
        <time>1970-01-01T02:13:59.000Z</time>
      </trkpt>
      <trkpt lat="42.28591" lon="-8.790715">
        <ele>178.3</ele>
        <time>1970-01-01T02:14:00.000Z</time>
      </trkpt>
      <trkpt lat="42.285918" lon="-8.79071">
        <ele>178.3</ele>
        <time>1970-01-01T02:14:01.000Z</time>
      </trkpt>
      <trkpt lat="42.285927" lon="-8.790705">
        <ele>178.3</ele>
        <time>1970-01-01T02:14:02.000Z</time>
      </trkpt>
      <trkpt lat="42.285933" lon="-8.7907">
        <ele>177.2</ele>
        <time>1970-01-01T02:14:03.000Z</time>
      </trkpt>
      <trkpt lat="42.285943" lon="-8.790695">
        <ele>177.2</ele>
        <time>1970-01-01T02:14:04.000Z</time>
      </trkpt>
      <trkpt lat="42.285952" lon="-8.79069">
        <ele>177.2</ele>
        <time>1970-01-01T02:14:05.000Z</time>
      </trkpt>
      <trkpt lat="42.285962" lon="-8.790687">
        <ele>177.2</ele>
        <time>1970-01-01T02:14:06.000Z</time>
      </trkpt>
      <trkpt lat="42.28597" lon="-8.790683">
        <ele>177.2</ele>
        <time>1970-01-01T02:14:07.000Z</time>
      </trkpt>
      <trkpt lat="42.285975" lon="-8.790682">
        <ele>177.2</ele>
        <time>1970-01-01T02:14:08.000Z</time>
      </trkpt>
      <trkpt lat="42.285977" lon="-8.79068">
        <ele>177.2</ele>
        <time>1970-01-01T02:14:09.000Z</time>
      </trkpt>
      <trkpt lat="42.28598" lon="-8.790678">
        <ele>177.2</ele>
        <time>1970-01-01T02:14:10.000Z</time>
      </trkpt>
      <trkpt lat="42.28598" lon="-8.790678">
        <ele>177.2</ele>
        <time>1970-01-01T02:14:11.000Z</time>
      </trkpt>
      <trkpt lat="42.28598" lon="-8.790678">
        <ele>177.2</ele>
        <time>1970-01-01T02:14:12.000Z</time>
      </trkpt>
      <trkpt lat="42.28598" lon="-8.790678">
        <ele>177.2</ele>
        <time>1970-01-01T02:14:13.000Z</time>
      </trkpt>
      <trkpt lat="42.28598" lon="-8.790678">
        <ele>177.2</ele>
        <time>1970-01-01T02:14:14.000Z</time>
      </trkpt>
      <trkpt lat="42.28598" lon="-8.790678">
        <ele>177.2</ele>
        <time>1970-01-01T02:14:15.000Z</time>
      </trkpt>
      <trkpt lat="42.285978" lon="-8.790677">
        <ele>177.2</ele>
        <time>1970-01-01T02:14:16.000Z</time>
      </trkpt>
      <trkpt lat="42.285982" lon="-8.790678">
        <ele>177.2</ele>
        <time>1970-01-01T02:14:17.000Z</time>
      </trkpt>
      <trkpt lat="42.285983" lon="-8.790677">
        <ele>177.2</ele>
        <time>1970-01-01T02:14:18.000Z</time>
      </trkpt>
      <trkpt lat="42.28599" lon="-8.790673">
        <ele>177.2</ele>
        <time>1970-01-01T02:14:19.000Z</time>
      </trkpt>
      <trkpt lat="42.285995" lon="-8.790668">
        <ele>177.2</ele>
        <time>1970-01-01T02:14:20.000Z</time>
      </trkpt>
      <trkpt lat="42.285998" lon="-8.790665">
        <ele>177.2</ele>
        <time>1970-01-01T02:14:21.000Z</time>
      </trkpt>
      <trkpt lat="42.286002" lon="-8.790662">
        <ele>177.2</ele>
        <time>1970-01-01T02:14:22.000Z</time>
      </trkpt>
      <trkpt lat="42.286005" lon="-8.79066">
        <ele>177.2</ele>
        <time>1970-01-01T02:14:23.000Z</time>
      </trkpt>
      <trkpt lat="42.286008" lon="-8.790662">
        <ele>177.2</ele>
        <time>1970-01-01T02:14:24.000Z</time>
      </trkpt>
      <trkpt lat="42.286015" lon="-8.790662">
        <ele>176.3</ele>
        <time>1970-01-01T02:14:25.000Z</time>
      </trkpt>
      <trkpt lat="42.286022" lon="-8.79066">
        <ele>176.3</ele>
        <time>1970-01-01T02:14:26.000Z</time>
      </trkpt>
      <trkpt lat="42.286028" lon="-8.790657">
        <ele>176.3</ele>
        <time>1970-01-01T02:14:27.000Z</time>
      </trkpt>
      <trkpt lat="42.286037" lon="-8.790653">
        <ele>176.3</ele>
        <time>1970-01-01T02:14:28.000Z</time>
      </trkpt>
      <trkpt lat="42.286045" lon="-8.790652">
        <ele>175.3</ele>
        <time>1970-01-01T02:14:29.000Z</time>
      </trkpt>
      <trkpt lat="42.286055" lon="-8.790652">
        <ele>175.3</ele>
        <time>1970-01-01T02:14:30.000Z</time>
      </trkpt>
      <trkpt lat="42.286063" lon="-8.790648">
        <ele>175.3</ele>
        <time>1970-01-01T02:14:31.000Z</time>
      </trkpt>
      <trkpt lat="42.286072" lon="-8.790642">
        <ele>175.3</ele>
        <time>1970-01-01T02:14:32.000Z</time>
      </trkpt>
      <trkpt lat="42.286078" lon="-8.79064">
        <ele>175.3</ele>
        <time>1970-01-01T02:14:33.000Z</time>
      </trkpt>
      <trkpt lat="42.286087" lon="-8.790637">
        <ele>175.3</ele>
        <time>1970-01-01T02:14:34.000Z</time>
      </trkpt>
      <trkpt lat="42.286095" lon="-8.790633">
        <ele>175.3</ele>
        <time>1970-01-01T02:14:35.000Z</time>
      </trkpt>
      <trkpt lat="42.286102" lon="-8.790632">
        <ele>175.3</ele>
        <time>1970-01-01T02:14:36.000Z</time>
      </trkpt>
      <trkpt lat="42.28611" lon="-8.790628">
        <ele>175.3</ele>
        <time>1970-01-01T02:14:37.000Z</time>
      </trkpt>
      <trkpt lat="42.28612" lon="-8.790627">
        <ele>175.3</ele>
        <time>1970-01-01T02:14:38.000Z</time>
      </trkpt>
      <trkpt lat="42.28613" lon="-8.790625">
        <ele>175.3</ele>
        <time>1970-01-01T02:14:39.000Z</time>
      </trkpt>
      <trkpt lat="42.286142" lon="-8.790625">
        <ele>175.3</ele>
        <time>1970-01-01T02:14:40.000Z</time>
      </trkpt>
      <trkpt lat="42.286152" lon="-8.790625">
        <ele>175.3</ele>
        <time>1970-01-01T02:14:41.000Z</time>
      </trkpt>
      <trkpt lat="42.286162" lon="-8.790623">
        <ele>175.3</ele>
        <time>1970-01-01T02:14:42.000Z</time>
      </trkpt>
      <trkpt lat="42.286175" lon="-8.79062">
        <ele>175.3</ele>
        <time>1970-01-01T02:14:43.000Z</time>
      </trkpt>
      <trkpt lat="42.286185" lon="-8.790615">
        <ele>175.3</ele>
        <time>1970-01-01T02:14:44.000Z</time>
      </trkpt>
      <trkpt lat="42.286198" lon="-8.79061">
        <ele>175.3</ele>
        <time>1970-01-01T02:14:45.000Z</time>
      </trkpt>
      <trkpt lat="42.28621" lon="-8.790607">
        <ele>175.3</ele>
        <time>1970-01-01T02:14:46.000Z</time>
      </trkpt>
      <trkpt lat="42.28622" lon="-8.790607">
        <ele>175.3</ele>
        <time>1970-01-01T02:14:47.000Z</time>
      </trkpt>
      <trkpt lat="42.286232" lon="-8.790608">
        <ele>175.3</ele>
        <time>1970-01-01T02:14:48.000Z</time>
      </trkpt>
      <trkpt lat="42.286243" lon="-8.790608">
        <ele>175.3</ele>
        <time>1970-01-01T02:14:49.000Z</time>
      </trkpt>
      <trkpt lat="42.286253" lon="-8.790607">
        <ele>175.3</ele>
        <time>1970-01-01T02:14:50.000Z</time>
      </trkpt>
      <trkpt lat="42.286263" lon="-8.790602">
        <ele>175.3</ele>
        <time>1970-01-01T02:14:51.000Z</time>
      </trkpt>
      <trkpt lat="42.286275" lon="-8.790597">
        <ele>175.3</ele>
        <time>1970-01-01T02:14:52.000Z</time>
      </trkpt>
      <trkpt lat="42.286288" lon="-8.790593">
        <ele>175.3</ele>
        <time>1970-01-01T02:14:53.000Z</time>
      </trkpt>
      <trkpt lat="42.2863" lon="-8.790592">
        <ele>175.3</ele>
        <time>1970-01-01T02:14:54.000Z</time>
      </trkpt>
      <trkpt lat="42.286312" lon="-8.79059">
        <ele>175.3</ele>
        <time>1970-01-01T02:14:55.000Z</time>
      </trkpt>
      <trkpt lat="42.286322" lon="-8.790592">
        <ele>175.3</ele>
        <time>1970-01-01T02:14:56.000Z</time>
      </trkpt>
      <trkpt lat="42.286333" lon="-8.790585">
        <ele>175.3</ele>
        <time>1970-01-01T02:14:57.000Z</time>
      </trkpt>
      <trkpt lat="42.286345" lon="-8.790578">
        <ele>175.3</ele>
        <time>1970-01-01T02:14:58.000Z</time>
      </trkpt>
      <trkpt lat="42.286357" lon="-8.790573">
        <ele>175.3</ele>
        <time>1970-01-01T02:14:59.000Z</time>
      </trkpt>
      <trkpt lat="42.286372" lon="-8.790567">
        <ele>175.3</ele>
        <time>1970-01-01T02:15:00.000Z</time>
      </trkpt>
      <trkpt lat="42.286382" lon="-8.790562">
        <ele>175.3</ele>
        <time>1970-01-01T02:15:01.000Z</time>
      </trkpt>
      <trkpt lat="42.286395" lon="-8.790553">
        <ele>175.3</ele>
        <time>1970-01-01T02:15:02.000Z</time>
      </trkpt>
      <trkpt lat="42.286407" lon="-8.790547">
        <ele>176.3</ele>
        <time>1970-01-01T02:15:03.000Z</time>
      </trkpt>
      <trkpt lat="42.286417" lon="-8.79054">
        <ele>176.3</ele>
        <time>1970-01-01T02:15:04.000Z</time>
      </trkpt>
      <trkpt lat="42.286425" lon="-8.790535">
        <ele>176.3</ele>
        <time>1970-01-01T02:15:05.000Z</time>
      </trkpt>
      <trkpt lat="42.286437" lon="-8.790528">
        <ele>176.3</ele>
        <time>1970-01-01T02:15:06.000Z</time>
      </trkpt>
      <trkpt lat="42.286445" lon="-8.790523">
        <ele>177.2</ele>
        <time>1970-01-01T02:15:07.000Z</time>
      </trkpt>
      <trkpt lat="42.286457" lon="-8.790508">
        <ele>177.2</ele>
        <time>1970-01-01T02:15:08.000Z</time>
      </trkpt>
      <trkpt lat="42.28647" lon="-8.790498">
        <ele>177.2</ele>
        <time>1970-01-01T02:15:09.000Z</time>
      </trkpt>
      <trkpt lat="42.286482" lon="-8.790487">
        <ele>177.2</ele>
        <time>1970-01-01T02:15:10.000Z</time>
      </trkpt>
      <trkpt lat="42.286495" lon="-8.790478">
        <ele>177.2</ele>
        <time>1970-01-01T02:15:11.000Z</time>
      </trkpt>
      <trkpt lat="42.286505" lon="-8.790463">
        <ele>177.2</ele>
        <time>1970-01-01T02:15:12.000Z</time>
      </trkpt>
      <trkpt lat="42.286513" lon="-8.790455">
        <ele>177.2</ele>
        <time>1970-01-01T02:15:13.000Z</time>
      </trkpt>
      <trkpt lat="42.286525" lon="-8.79044">
        <ele>177.2</ele>
        <time>1970-01-01T02:15:14.000Z</time>
      </trkpt>
      <trkpt lat="42.286537" lon="-8.790423">
        <ele>177.2</ele>
        <time>1970-01-01T02:15:15.000Z</time>
      </trkpt>
      <trkpt lat="42.286545" lon="-8.79041">
        <ele>177.2</ele>
        <time>1970-01-01T02:15:16.000Z</time>
      </trkpt>
      <trkpt lat="42.286553" lon="-8.790398">
        <ele>177.2</ele>
        <time>1970-01-01T02:15:17.000Z</time>
      </trkpt>
      <trkpt lat="42.286563" lon="-8.790387">
        <ele>177.2</ele>
        <time>1970-01-01T02:15:18.000Z</time>
      </trkpt>
      <trkpt lat="42.28657" lon="-8.79038">
        <ele>177.2</ele>
        <time>1970-01-01T02:15:19.000Z</time>
      </trkpt>
      <trkpt lat="42.28658" lon="-8.79037">
        <ele>177.2</ele>
        <time>1970-01-01T02:15:20.000Z</time>
      </trkpt>
      <trkpt lat="42.28659" lon="-8.790358">
        <ele>177.2</ele>
        <time>1970-01-01T02:15:21.000Z</time>
      </trkpt>
      <trkpt lat="42.2866" lon="-8.79035">
        <ele>177.2</ele>
        <time>1970-01-01T02:15:22.000Z</time>
      </trkpt>
      <trkpt lat="42.28661" lon="-8.79034">
        <ele>177.2</ele>
        <time>1970-01-01T02:15:23.000Z</time>
      </trkpt>
      <trkpt lat="42.286617" lon="-8.790333">
        <ele>177.2</ele>
        <time>1970-01-01T02:15:24.000Z</time>
      </trkpt>
      <trkpt lat="42.286627" lon="-8.790322">
        <ele>178.3</ele>
        <time>1970-01-01T02:15:25.000Z</time>
      </trkpt>
      <trkpt lat="42.286638" lon="-8.79031">
        <ele>178.3</ele>
        <time>1970-01-01T02:15:26.000Z</time>
      </trkpt>
      <trkpt lat="42.28665" lon="-8.790297">
        <ele>178.3</ele>
        <time>1970-01-01T02:15:27.000Z</time>
      </trkpt>
      <trkpt lat="42.286662" lon="-8.790287">
        <ele>178.3</ele>
        <time>1970-01-01T02:15:28.000Z</time>
      </trkpt>
      <trkpt lat="42.286672" lon="-8.790277">
        <ele>178.3</ele>
        <time>1970-01-01T02:15:29.000Z</time>
      </trkpt>
      <trkpt lat="42.286683" lon="-8.790263">
        <ele>178.3</ele>
        <time>1970-01-01T02:15:30.000Z</time>
      </trkpt>
      <trkpt lat="42.286695" lon="-8.790252">
        <ele>178.3</ele>
        <time>1970-01-01T02:15:31.000Z</time>
      </trkpt>
      <trkpt lat="42.28671" lon="-8.790238">
        <ele>178.3</ele>
        <time>1970-01-01T02:15:32.000Z</time>
      </trkpt>
      <trkpt lat="42.286718" lon="-8.790228">
        <ele>178.3</ele>
        <time>1970-01-01T02:15:33.000Z</time>
      </trkpt>
      <trkpt lat="42.28673" lon="-8.790217">
        <ele>178.3</ele>
        <time>1970-01-01T02:15:34.000Z</time>
      </trkpt>
      <trkpt lat="42.286738" lon="-8.790207">
        <ele>179.2</ele>
        <time>1970-01-01T02:15:35.000Z</time>
      </trkpt>
      <trkpt lat="42.286747" lon="-8.790198">
        <ele>179.2</ele>
        <time>1970-01-01T02:15:36.000Z</time>
      </trkpt>
      <trkpt lat="42.286747" lon="-8.790192">
        <ele>179.2</ele>
        <time>1970-01-01T02:15:37.000Z</time>
      </trkpt>
      <trkpt lat="42.286748" lon="-8.790185">
        <ele>179.2</ele>
        <time>1970-01-01T02:15:38.000Z</time>
      </trkpt>
      <trkpt lat="42.28675" lon="-8.790178">
        <ele>179.2</ele>
        <time>1970-01-01T02:15:39.000Z</time>
      </trkpt>
      <trkpt lat="42.286753" lon="-8.790175">
        <ele>179.2</ele>
        <time>1970-01-01T02:15:40.000Z</time>
      </trkpt>
      <trkpt lat="42.286758" lon="-8.79017">
        <ele>179.2</ele>
        <time>1970-01-01T02:15:41.000Z</time>
      </trkpt>
      <trkpt lat="42.286767" lon="-8.790162">
        <ele>179.2</ele>
        <time>1970-01-01T02:15:42.000Z</time>
      </trkpt>
      <trkpt lat="42.286775" lon="-8.790148">
        <ele>180.3</ele>
        <time>1970-01-01T02:15:43.000Z</time>
      </trkpt>
      <trkpt lat="42.286787" lon="-8.790143">
        <ele>180.3</ele>
        <time>1970-01-01T02:15:44.000Z</time>
      </trkpt>
      <trkpt lat="42.286795" lon="-8.790137">
        <ele>181.2</ele>
        <time>1970-01-01T02:15:45.000Z</time>
      </trkpt>
      <trkpt lat="42.286802" lon="-8.790128">
        <ele>181.2</ele>
        <time>1970-01-01T02:15:46.000Z</time>
      </trkpt>
      <trkpt lat="42.286812" lon="-8.790118">
        <ele>181.2</ele>
        <time>1970-01-01T02:15:47.000Z</time>
      </trkpt>
      <trkpt lat="42.28682" lon="-8.790107">
        <ele>181.2</ele>
        <time>1970-01-01T02:15:48.000Z</time>
      </trkpt>
      <trkpt lat="42.286833" lon="-8.790092">
        <ele>181.2</ele>
        <time>1970-01-01T02:15:49.000Z</time>
      </trkpt>
      <trkpt lat="42.286847" lon="-8.790077">
        <ele>181.2</ele>
        <time>1970-01-01T02:15:50.000Z</time>
      </trkpt>
      <trkpt lat="42.28686" lon="-8.790065">
        <ele>181.2</ele>
        <time>1970-01-01T02:15:51.000Z</time>
      </trkpt>
      <trkpt lat="42.286867" lon="-8.790055">
        <ele>181.2</ele>
        <time>1970-01-01T02:15:52.000Z</time>
      </trkpt>
      <trkpt lat="42.286873" lon="-8.790038">
        <ele>181.2</ele>
        <time>1970-01-01T02:15:53.000Z</time>
      </trkpt>
      <trkpt lat="42.286883" lon="-8.790017">
        <ele>181.2</ele>
        <time>1970-01-01T02:15:54.000Z</time>
      </trkpt>
      <trkpt lat="42.28689" lon="-8.790002">
        <ele>181.2</ele>
        <time>1970-01-01T02:15:55.000Z</time>
      </trkpt>
      <trkpt lat="42.286897" lon="-8.789983">
        <ele>181.2</ele>
        <time>1970-01-01T02:15:56.000Z</time>
      </trkpt>
      <trkpt lat="42.286902" lon="-8.789967">
        <ele>181.2</ele>
        <time>1970-01-01T02:15:57.000Z</time>
      </trkpt>
      <trkpt lat="42.286908" lon="-8.789948">
        <ele>181.2</ele>
        <time>1970-01-01T02:15:58.000Z</time>
      </trkpt>
      <trkpt lat="42.286915" lon="-8.789935">
        <ele>182.3</ele>
        <time>1970-01-01T02:15:59.000Z</time>
      </trkpt>
      <trkpt lat="42.286922" lon="-8.789923">
        <ele>182.3</ele>
        <time>1970-01-01T02:16:00.000Z</time>
      </trkpt>
      <trkpt lat="42.28693" lon="-8.789915">
        <ele>182.3</ele>
        <time>1970-01-01T02:16:01.000Z</time>
      </trkpt>
      <trkpt lat="42.286932" lon="-8.789907">
        <ele>182.3</ele>
        <time>1970-01-01T02:16:02.000Z</time>
      </trkpt>
      <trkpt lat="42.286937" lon="-8.789888">
        <ele>183.3</ele>
        <time>1970-01-01T02:16:03.000Z</time>
      </trkpt>
      <trkpt lat="42.286943" lon="-8.789873">
        <ele>183.3</ele>
        <time>1970-01-01T02:16:04.000Z</time>
      </trkpt>
      <trkpt lat="42.286952" lon="-8.789857">
        <ele>183.3</ele>
        <time>1970-01-01T02:16:05.000Z</time>
      </trkpt>
      <trkpt lat="42.286962" lon="-8.789842">
        <ele>183.3</ele>
        <time>1970-01-01T02:16:06.000Z</time>
      </trkpt>
      <trkpt lat="42.286963" lon="-8.78983">
        <ele>183.3</ele>
        <time>1970-01-01T02:16:07.000Z</time>
      </trkpt>
      <trkpt lat="42.286975" lon="-8.78981">
        <ele>183.3</ele>
        <time>1970-01-01T02:16:08.000Z</time>
      </trkpt>
      <trkpt lat="42.286983" lon="-8.789797">
        <ele>183.3</ele>
        <time>1970-01-01T02:16:09.000Z</time>
      </trkpt>
      <trkpt lat="42.286988" lon="-8.789785">
        <ele>183.3</ele>
        <time>1970-01-01T02:16:10.000Z</time>
      </trkpt>
      <trkpt lat="42.286995" lon="-8.789777">
        <ele>184.3</ele>
        <time>1970-01-01T02:16:11.000Z</time>
      </trkpt>
      <trkpt lat="42.287" lon="-8.789772">
        <ele>184.3</ele>
        <time>1970-01-01T02:16:12.000Z</time>
      </trkpt>
      <trkpt lat="42.287017" lon="-8.789765">
        <ele>184.3</ele>
        <time>1970-01-01T02:16:13.000Z</time>
      </trkpt>
      <trkpt lat="42.287028" lon="-8.78976">
        <ele>184.3</ele>
        <time>1970-01-01T02:16:14.000Z</time>
      </trkpt>
      <trkpt lat="42.287038" lon="-8.789757">
        <ele>184.3</ele>
        <time>1970-01-01T02:16:15.000Z</time>
      </trkpt>
      <trkpt lat="42.287048" lon="-8.789748">
        <ele>184.3</ele>
        <time>1970-01-01T02:16:16.000Z</time>
      </trkpt>
      <trkpt lat="42.287062" lon="-8.789742">
        <ele>184.3</ele>
        <time>1970-01-01T02:16:17.000Z</time>
      </trkpt>
      <trkpt lat="42.287073" lon="-8.789737">
        <ele>184.3</ele>
        <time>1970-01-01T02:16:18.000Z</time>
      </trkpt>
      <trkpt lat="42.287087" lon="-8.789732">
        <ele>184.3</ele>
        <time>1970-01-01T02:16:19.000Z</time>
      </trkpt>
      <trkpt lat="42.287097" lon="-8.78973">
        <ele>184.3</ele>
        <time>1970-01-01T02:16:20.000Z</time>
      </trkpt>
      <trkpt lat="42.287113" lon="-8.789725">
        <ele>184.3</ele>
        <time>1970-01-01T02:16:21.000Z</time>
      </trkpt>
      <trkpt lat="42.287122" lon="-8.789722">
        <ele>184.3</ele>
        <time>1970-01-01T02:16:22.000Z</time>
      </trkpt>
      <trkpt lat="42.287122" lon="-8.789723">
        <ele>184.3</ele>
        <time>1970-01-01T02:16:23.000Z</time>
      </trkpt>
      <trkpt lat="42.287135" lon="-8.789715">
        <ele>184.3</ele>
        <time>1970-01-01T02:16:24.000Z</time>
      </trkpt>
      <trkpt lat="42.28715" lon="-8.78971">
        <ele>184.3</ele>
        <time>1970-01-01T02:16:25.000Z</time>
      </trkpt>
      <trkpt lat="42.287163" lon="-8.789705">
        <ele>184.3</ele>
        <time>1970-01-01T02:16:26.000Z</time>
      </trkpt>
      <trkpt lat="42.287173" lon="-8.789695">
        <ele>184.3</ele>
        <time>1970-01-01T02:16:27.000Z</time>
      </trkpt>
      <trkpt lat="42.287183" lon="-8.789688">
        <ele>184.3</ele>
        <time>1970-01-01T02:16:28.000Z</time>
      </trkpt>
      <trkpt lat="42.287197" lon="-8.78968">
        <ele>184.3</ele>
        <time>1970-01-01T02:16:29.000Z</time>
      </trkpt>
      <trkpt lat="42.287213" lon="-8.789668">
        <ele>184.3</ele>
        <time>1970-01-01T02:16:30.000Z</time>
      </trkpt>
      <trkpt lat="42.287227" lon="-8.78966">
        <ele>184.3</ele>
        <time>1970-01-01T02:16:31.000Z</time>
      </trkpt>
      <trkpt lat="42.287242" lon="-8.789652">
        <ele>184.3</ele>
        <time>1970-01-01T02:16:32.000Z</time>
      </trkpt>
      <trkpt lat="42.287253" lon="-8.789645">
        <ele>184.3</ele>
        <time>1970-01-01T02:16:33.000Z</time>
      </trkpt>
      <trkpt lat="42.287263" lon="-8.789638">
        <ele>184.3</ele>
        <time>1970-01-01T02:16:34.000Z</time>
      </trkpt>
      <trkpt lat="42.287275" lon="-8.789632">
        <ele>185.3</ele>
        <time>1970-01-01T02:16:35.000Z</time>
      </trkpt>
      <trkpt lat="42.287288" lon="-8.789625">
        <ele>185.3</ele>
        <time>1970-01-01T02:16:36.000Z</time>
      </trkpt>
      <trkpt lat="42.2873" lon="-8.789618">
        <ele>185.3</ele>
        <time>1970-01-01T02:16:37.000Z</time>
      </trkpt>
      <trkpt lat="42.287313" lon="-8.789612">
        <ele>185.3</ele>
        <time>1970-01-01T02:16:38.000Z</time>
      </trkpt>
      <trkpt lat="42.287328" lon="-8.789607">
        <ele>186.2</ele>
        <time>1970-01-01T02:16:39.000Z</time>
      </trkpt>
      <trkpt lat="42.28734" lon="-8.7896">
        <ele>186.2</ele>
        <time>1970-01-01T02:16:40.000Z</time>
      </trkpt>
      <trkpt lat="42.287352" lon="-8.789593">
        <ele>186.2</ele>
        <time>1970-01-01T02:16:41.000Z</time>
      </trkpt>
      <trkpt lat="42.287362" lon="-8.789583">
        <ele>186.2</ele>
        <time>1970-01-01T02:16:42.000Z</time>
      </trkpt>
      <trkpt lat="42.287372" lon="-8.789575">
        <ele>186.2</ele>
        <time>1970-01-01T02:16:43.000Z</time>
      </trkpt>
      <trkpt lat="42.287382" lon="-8.789567">
        <ele>186.2</ele>
        <time>1970-01-01T02:16:44.000Z</time>
      </trkpt>
      <trkpt lat="42.287395" lon="-8.789558">
        <ele>186.2</ele>
        <time>1970-01-01T02:16:45.000Z</time>
      </trkpt>
      <trkpt lat="42.287408" lon="-8.789552">
        <ele>186.2</ele>
        <time>1970-01-01T02:16:46.000Z</time>
      </trkpt>
      <trkpt lat="42.287417" lon="-8.789548">
        <ele>186.2</ele>
        <time>1970-01-01T02:16:47.000Z</time>
      </trkpt>
      <trkpt lat="42.28743" lon="-8.789537">
        <ele>186.2</ele>
        <time>1970-01-01T02:16:48.000Z</time>
      </trkpt>
      <trkpt lat="42.287438" lon="-8.789532">
        <ele>186.2</ele>
        <time>1970-01-01T02:16:49.000Z</time>
      </trkpt>
      <trkpt lat="42.287452" lon="-8.789525">
        <ele>186.2</ele>
        <time>1970-01-01T02:16:50.000Z</time>
      </trkpt>
      <trkpt lat="42.287462" lon="-8.789518">
        <ele>186.2</ele>
        <time>1970-01-01T02:16:51.000Z</time>
      </trkpt>
      <trkpt lat="42.287473" lon="-8.78951">
        <ele>186.2</ele>
        <time>1970-01-01T02:16:52.000Z</time>
      </trkpt>
      <trkpt lat="42.28749" lon="-8.789502">
        <ele>186.2</ele>
        <time>1970-01-01T02:16:53.000Z</time>
      </trkpt>
      <trkpt lat="42.287507" lon="-8.789497">
        <ele>186.2</ele>
        <time>1970-01-01T02:16:54.000Z</time>
      </trkpt>
      <trkpt lat="42.287513" lon="-8.789495">
        <ele>186.2</ele>
        <time>1970-01-01T02:16:55.000Z</time>
      </trkpt>
      <trkpt lat="42.287518" lon="-8.789487">
        <ele>186.2</ele>
        <time>1970-01-01T02:16:56.000Z</time>
      </trkpt>
      <trkpt lat="42.287528" lon="-8.789477">
        <ele>186.2</ele>
        <time>1970-01-01T02:16:57.000Z</time>
      </trkpt>
      <trkpt lat="42.28755" lon="-8.789463">
        <ele>186.2</ele>
        <time>1970-01-01T02:16:58.000Z</time>
      </trkpt>
      <trkpt lat="42.28757" lon="-8.78945">
        <ele>186.2</ele>
        <time>1970-01-01T02:16:59.000Z</time>
      </trkpt>
      <trkpt lat="42.287587" lon="-8.789437">
        <ele>186.2</ele>
        <time>1970-01-01T02:17:00.000Z</time>
      </trkpt>
      <trkpt lat="42.287598" lon="-8.789433">
        <ele>186.2</ele>
        <time>1970-01-01T02:17:01.000Z</time>
      </trkpt>
      <trkpt lat="42.287607" lon="-8.789432">
        <ele>186.2</ele>
        <time>1970-01-01T02:17:02.000Z</time>
      </trkpt>
      <trkpt lat="42.287608" lon="-8.789432">
        <ele>186.2</ele>
        <time>1970-01-01T02:17:03.000Z</time>
      </trkpt>
      <trkpt lat="42.28761" lon="-8.789432">
        <ele>186.2</ele>
        <time>1970-01-01T02:17:04.000Z</time>
      </trkpt>
      <trkpt lat="42.287612" lon="-8.789432">
        <ele>186.2</ele>
        <time>1970-01-01T02:17:05.000Z</time>
      </trkpt>
      <trkpt lat="42.287612" lon="-8.789432">
        <ele>186.2</ele>
        <time>1970-01-01T02:17:06.000Z</time>
      </trkpt>
      <trkpt lat="42.287612" lon="-8.789432">
        <ele>186.2</ele>
        <time>1970-01-01T02:17:07.000Z</time>
      </trkpt>
      <trkpt lat="42.287612" lon="-8.789432">
        <ele>186.2</ele>
        <time>1970-01-01T02:17:08.000Z</time>
      </trkpt>
      <trkpt lat="42.287613" lon="-8.789432">
        <ele>187.3</ele>
        <time>1970-01-01T02:17:09.000Z</time>
      </trkpt>
      <trkpt lat="42.287615" lon="-8.789435">
        <ele>187.3</ele>
        <time>1970-01-01T02:17:10.000Z</time>
      </trkpt>
      <trkpt lat="42.287617" lon="-8.789435">
        <ele>187.3</ele>
        <time>1970-01-01T02:17:11.000Z</time>
      </trkpt>
      <trkpt lat="42.287628" lon="-8.789427">
        <ele>187.3</ele>
        <time>1970-01-01T02:17:12.000Z</time>
      </trkpt>
      <trkpt lat="42.287638" lon="-8.789422">
        <ele>187.3</ele>
        <time>1970-01-01T02:17:13.000Z</time>
      </trkpt>
      <trkpt lat="42.287648" lon="-8.789417">
        <ele>187.3</ele>
        <time>1970-01-01T02:17:14.000Z</time>
      </trkpt>
      <trkpt lat="42.287658" lon="-8.789413">
        <ele>187.3</ele>
        <time>1970-01-01T02:17:15.000Z</time>
      </trkpt>
      <trkpt lat="42.287662" lon="-8.78941">
        <ele>187.3</ele>
        <time>1970-01-01T02:17:16.000Z</time>
      </trkpt>
      <trkpt lat="42.287662" lon="-8.789407">
        <ele>187.3</ele>
        <time>1970-01-01T02:17:17.000Z</time>
      </trkpt>
      <trkpt lat="42.287663" lon="-8.789405">
        <ele>187.3</ele>
        <time>1970-01-01T02:17:18.000Z</time>
      </trkpt>
      <trkpt lat="42.287665" lon="-8.789405">
        <ele>187.3</ele>
        <time>1970-01-01T02:17:19.000Z</time>
      </trkpt>
      <trkpt lat="42.287665" lon="-8.789403">
        <ele>187.3</ele>
        <time>1970-01-01T02:17:20.000Z</time>
      </trkpt>
      <trkpt lat="42.287667" lon="-8.789403">
        <ele>188.2</ele>
        <time>1970-01-01T02:17:21.000Z</time>
      </trkpt>
      <trkpt lat="42.287667" lon="-8.789403">
        <ele>188.2</ele>
        <time>1970-01-01T02:17:22.000Z</time>
      </trkpt>
      <trkpt lat="42.287667" lon="-8.789403">
        <ele>188.2</ele>
        <time>1970-01-01T02:17:23.000Z</time>
      </trkpt>
      <trkpt lat="42.287667" lon="-8.789403">
        <ele>188.2</ele>
        <time>1970-01-01T02:17:24.000Z</time>
      </trkpt>
      <trkpt lat="42.287667" lon="-8.789403">
        <ele>188.2</ele>
        <time>1970-01-01T02:17:25.000Z</time>
      </trkpt>
      <trkpt lat="42.287665" lon="-8.789403">
        <ele>188.2</ele>
        <time>1970-01-01T02:17:26.000Z</time>
      </trkpt>
      <trkpt lat="42.287665" lon="-8.789405">
        <ele>188.2</ele>
        <time>1970-01-01T02:17:27.000Z</time>
      </trkpt>
      <trkpt lat="42.287665" lon="-8.789405">
        <ele>188.2</ele>
        <time>1970-01-01T02:17:28.000Z</time>
      </trkpt>
      <trkpt lat="42.287665" lon="-8.789405">
        <ele>188.2</ele>
        <time>1970-01-01T02:17:29.000Z</time>
      </trkpt>
      <trkpt lat="42.287665" lon="-8.789405">
        <ele>188.2</ele>
        <time>1970-01-01T02:17:30.000Z</time>
      </trkpt>
      <trkpt lat="42.287665" lon="-8.789405">
        <ele>188.2</ele>
        <time>1970-01-01T02:17:31.000Z</time>
      </trkpt>
      <trkpt lat="42.287665" lon="-8.789405">
        <ele>188.2</ele>
        <time>1970-01-01T02:17:32.000Z</time>
      </trkpt>
      <trkpt lat="42.287665" lon="-8.789405">
        <ele>188.2</ele>
        <time>1970-01-01T02:17:33.000Z</time>
      </trkpt>
      <trkpt lat="42.287665" lon="-8.789405">
        <ele>188.2</ele>
        <time>1970-01-01T02:17:34.000Z</time>
      </trkpt>
      <trkpt lat="42.287665" lon="-8.789405">
        <ele>188.2</ele>
        <time>1970-01-01T02:17:35.000Z</time>
      </trkpt>
      <trkpt lat="42.287665" lon="-8.789405">
        <ele>188.2</ele>
        <time>1970-01-01T02:17:36.000Z</time>
      </trkpt>
      <trkpt lat="42.287665" lon="-8.789405">
        <ele>188.2</ele>
        <time>1970-01-01T02:17:37.000Z</time>
      </trkpt>
      <trkpt lat="42.287665" lon="-8.789405">
        <ele>188.2</ele>
        <time>1970-01-01T02:17:38.000Z</time>
      </trkpt>
      <trkpt lat="42.287665" lon="-8.789405">
        <ele>187.3</ele>
        <time>1970-01-01T02:17:39.000Z</time>
      </trkpt>
      <trkpt lat="42.287668" lon="-8.789403">
        <ele>187.3</ele>
        <time>1970-01-01T02:17:40.000Z</time>
      </trkpt>
      <trkpt lat="42.287678" lon="-8.789407">
        <ele>187.3</ele>
        <time>1970-01-01T02:17:41.000Z</time>
      </trkpt>
      <trkpt lat="42.287688" lon="-8.78941">
        <ele>187.3</ele>
        <time>1970-01-01T02:17:42.000Z</time>
      </trkpt>
      <trkpt lat="42.287693" lon="-8.789412">
        <ele>187.3</ele>
        <time>1970-01-01T02:17:43.000Z</time>
      </trkpt>
      <trkpt lat="42.287698" lon="-8.789412">
        <ele>187.3</ele>
        <time>1970-01-01T02:17:44.000Z</time>
      </trkpt>
      <trkpt lat="42.287698" lon="-8.789412">
        <ele>186.2</ele>
        <time>1970-01-01T02:17:45.000Z</time>
      </trkpt>
      <trkpt lat="42.287698" lon="-8.789412">
        <ele>186.2</ele>
        <time>1970-01-01T02:17:46.000Z</time>
      </trkpt>
      <trkpt lat="42.287698" lon="-8.789412">
        <ele>186.2</ele>
        <time>1970-01-01T02:17:47.000Z</time>
      </trkpt>
      <trkpt lat="42.287698" lon="-8.789412">
        <ele>186.2</ele>
        <time>1970-01-01T02:17:48.000Z</time>
      </trkpt>
      <trkpt lat="42.287698" lon="-8.789412">
        <ele>186.2</ele>
        <time>1970-01-01T02:17:49.000Z</time>
      </trkpt>
      <trkpt lat="42.287698" lon="-8.789412">
        <ele>186.2</ele>
        <time>1970-01-01T02:17:50.000Z</time>
      </trkpt>
      <trkpt lat="42.287698" lon="-8.789412">
        <ele>186.2</ele>
        <time>1970-01-01T02:17:51.000Z</time>
      </trkpt>
      <trkpt lat="42.287705" lon="-8.78941">
        <ele>186.2</ele>
        <time>1970-01-01T02:17:52.000Z</time>
      </trkpt>
      <trkpt lat="42.287722" lon="-8.7894">
        <ele>186.2</ele>
        <time>1970-01-01T02:17:53.000Z</time>
      </trkpt>
      <trkpt lat="42.28774" lon="-8.789392">
        <ele>186.2</ele>
        <time>1970-01-01T02:17:54.000Z</time>
      </trkpt>
      <trkpt lat="42.287755" lon="-8.789387">
        <ele>186.2</ele>
        <time>1970-01-01T02:17:55.000Z</time>
      </trkpt>
      <trkpt lat="42.287772" lon="-8.789382">
        <ele>186.2</ele>
        <time>1970-01-01T02:17:56.000Z</time>
      </trkpt>
      <trkpt lat="42.287788" lon="-8.789375">
        <ele>186.2</ele>
        <time>1970-01-01T02:17:57.000Z</time>
      </trkpt>
      <trkpt lat="42.287808" lon="-8.789367">
        <ele>186.2</ele>
        <time>1970-01-01T02:17:58.000Z</time>
      </trkpt>
      <trkpt lat="42.287823" lon="-8.789362">
        <ele>186.2</ele>
        <time>1970-01-01T02:17:59.000Z</time>
      </trkpt>
      <trkpt lat="42.287835" lon="-8.789357">
        <ele>186.2</ele>
        <time>1970-01-01T02:18:00.000Z</time>
      </trkpt>
      <trkpt lat="42.287853" lon="-8.78935">
        <ele>186.2</ele>
        <time>1970-01-01T02:18:01.000Z</time>
      </trkpt>
      <trkpt lat="42.287863" lon="-8.789342">
        <ele>186.2</ele>
        <time>1970-01-01T02:18:02.000Z</time>
      </trkpt>
      <trkpt lat="42.287875" lon="-8.789335">
        <ele>186.2</ele>
        <time>1970-01-01T02:18:03.000Z</time>
      </trkpt>
      <trkpt lat="42.287887" lon="-8.78933">
        <ele>185.3</ele>
        <time>1970-01-01T02:18:04.000Z</time>
      </trkpt>
      <trkpt lat="42.287898" lon="-8.789323">
        <ele>185.3</ele>
        <time>1970-01-01T02:18:05.000Z</time>
      </trkpt>
      <trkpt lat="42.287908" lon="-8.789322">
        <ele>185.3</ele>
        <time>1970-01-01T02:18:06.000Z</time>
      </trkpt>
      <trkpt lat="42.287915" lon="-8.789318">
        <ele>185.3</ele>
        <time>1970-01-01T02:18:07.000Z</time>
      </trkpt>
      <trkpt lat="42.28793" lon="-8.789313">
        <ele>185.3</ele>
        <time>1970-01-01T02:18:08.000Z</time>
      </trkpt>
      <trkpt lat="42.287942" lon="-8.78931">
        <ele>185.3</ele>
        <time>1970-01-01T02:18:09.000Z</time>
      </trkpt>
      <trkpt lat="42.287947" lon="-8.789308">
        <ele>184.3</ele>
        <time>1970-01-01T02:18:10.000Z</time>
      </trkpt>
      <trkpt lat="42.28795" lon="-8.789305">
        <ele>184.3</ele>
        <time>1970-01-01T02:18:11.000Z</time>
      </trkpt>
      <trkpt lat="42.287952" lon="-8.789303">
        <ele>184.3</ele>
        <time>1970-01-01T02:18:12.000Z</time>
      </trkpt>
      <trkpt lat="42.287953" lon="-8.789302">
        <ele>184.3</ele>
        <time>1970-01-01T02:18:13.000Z</time>
      </trkpt>
      <trkpt lat="42.287953" lon="-8.789298">
        <ele>184.3</ele>
        <time>1970-01-01T02:18:14.000Z</time>
      </trkpt>
      <trkpt lat="42.287955" lon="-8.789295">
        <ele>184.3</ele>
        <time>1970-01-01T02:18:15.000Z</time>
      </trkpt>
      <trkpt lat="42.287955" lon="-8.789293">
        <ele>184.3</ele>
        <time>1970-01-01T02:18:16.000Z</time>
      </trkpt>
      <trkpt lat="42.287955" lon="-8.78929">
        <ele>184.3</ele>
        <time>1970-01-01T02:18:17.000Z</time>
      </trkpt>
      <trkpt lat="42.287955" lon="-8.789288">
        <ele>184.3</ele>
        <time>1970-01-01T02:18:18.000Z</time>
      </trkpt>
      <trkpt lat="42.287955" lon="-8.789288">
        <ele>184.3</ele>
        <time>1970-01-01T02:18:19.000Z</time>
      </trkpt>
      <trkpt lat="42.287955" lon="-8.78929">
        <ele>184.3</ele>
        <time>1970-01-01T02:18:20.000Z</time>
      </trkpt>
      <trkpt lat="42.287953" lon="-8.78929">
        <ele>184.3</ele>
        <time>1970-01-01T02:18:21.000Z</time>
      </trkpt>
      <trkpt lat="42.28795" lon="-8.78929">
        <ele>184.3</ele>
        <time>1970-01-01T02:18:22.000Z</time>
      </trkpt>
      <trkpt lat="42.287955" lon="-8.789293">
        <ele>184.3</ele>
        <time>1970-01-01T02:18:23.000Z</time>
      </trkpt>
      <trkpt lat="42.287965" lon="-8.789295">
        <ele>184.3</ele>
        <time>1970-01-01T02:18:24.000Z</time>
      </trkpt>
      <trkpt lat="42.287978" lon="-8.789295">
        <ele>184.3</ele>
        <time>1970-01-01T02:18:25.000Z</time>
      </trkpt>
      <trkpt lat="42.287987" lon="-8.789293">
        <ele>184.3</ele>
        <time>1970-01-01T02:18:26.000Z</time>
      </trkpt>
      <trkpt lat="42.287998" lon="-8.789292">
        <ele>184.3</ele>
        <time>1970-01-01T02:18:27.000Z</time>
      </trkpt>
      <trkpt lat="42.28801" lon="-8.789288">
        <ele>184.3</ele>
        <time>1970-01-01T02:18:28.000Z</time>
      </trkpt>
      <trkpt lat="42.288022" lon="-8.789287">
        <ele>184.3</ele>
        <time>1970-01-01T02:18:29.000Z</time>
      </trkpt>
      <trkpt lat="42.288035" lon="-8.789287">
        <ele>184.3</ele>
        <time>1970-01-01T02:18:30.000Z</time>
      </trkpt>
      <trkpt lat="42.288043" lon="-8.789288">
        <ele>184.3</ele>
        <time>1970-01-01T02:18:31.000Z</time>
      </trkpt>
      <trkpt lat="42.288057" lon="-8.789287">
        <ele>184.3</ele>
        <time>1970-01-01T02:18:32.000Z</time>
      </trkpt>
      <trkpt lat="42.28807" lon="-8.789285">
        <ele>184.3</ele>
        <time>1970-01-01T02:18:33.000Z</time>
      </trkpt>
      <trkpt lat="42.288083" lon="-8.789283">
        <ele>184.3</ele>
        <time>1970-01-01T02:18:34.000Z</time>
      </trkpt>
      <trkpt lat="42.288093" lon="-8.78928">
        <ele>184.3</ele>
        <time>1970-01-01T02:18:35.000Z</time>
      </trkpt>
      <trkpt lat="42.288108" lon="-8.789275">
        <ele>184.3</ele>
        <time>1970-01-01T02:18:36.000Z</time>
      </trkpt>
      <trkpt lat="42.288122" lon="-8.789272">
        <ele>184.3</ele>
        <time>1970-01-01T02:18:37.000Z</time>
      </trkpt>
      <trkpt lat="42.288135" lon="-8.78927">
        <ele>184.3</ele>
        <time>1970-01-01T02:18:38.000Z</time>
      </trkpt>
      <trkpt lat="42.288143" lon="-8.78927">
        <ele>184.3</ele>
        <time>1970-01-01T02:18:39.000Z</time>
      </trkpt>
      <trkpt lat="42.288155" lon="-8.789273">
        <ele>184.3</ele>
        <time>1970-01-01T02:18:40.000Z</time>
      </trkpt>
      <trkpt lat="42.288163" lon="-8.789278">
        <ele>184.3</ele>
        <time>1970-01-01T02:18:41.000Z</time>
      </trkpt>
      <trkpt lat="42.288172" lon="-8.789278">
        <ele>183.3</ele>
        <time>1970-01-01T02:18:42.000Z</time>
      </trkpt>
      <trkpt lat="42.288185" lon="-8.789278">
        <ele>183.3</ele>
        <time>1970-01-01T02:18:43.000Z</time>
      </trkpt>
      <trkpt lat="42.288195" lon="-8.78928">
        <ele>182.3</ele>
        <time>1970-01-01T02:18:44.000Z</time>
      </trkpt>
      <trkpt lat="42.288205" lon="-8.789287">
        <ele>182.3</ele>
        <time>1970-01-01T02:18:45.000Z</time>
      </trkpt>
      <trkpt lat="42.288212" lon="-8.789287">
        <ele>182.3</ele>
        <time>1970-01-01T02:18:46.000Z</time>
      </trkpt>
      <trkpt lat="42.288213" lon="-8.789287">
        <ele>182.3</ele>
        <time>1970-01-01T02:18:47.000Z</time>
      </trkpt>
      <trkpt lat="42.288218" lon="-8.789287">
        <ele>182.3</ele>
        <time>1970-01-01T02:18:48.000Z</time>
      </trkpt>
      <trkpt lat="42.28822" lon="-8.78929">
        <ele>182.3</ele>
        <time>1970-01-01T02:18:49.000Z</time>
      </trkpt>
      <trkpt lat="42.288223" lon="-8.789295">
        <ele>182.3</ele>
        <time>1970-01-01T02:18:50.000Z</time>
      </trkpt>
      <trkpt lat="42.288228" lon="-8.789298">
        <ele>182.3</ele>
        <time>1970-01-01T02:18:51.000Z</time>
      </trkpt>
      <trkpt lat="42.28824" lon="-8.789303">
        <ele>182.3</ele>
        <time>1970-01-01T02:18:52.000Z</time>
      </trkpt>
      <trkpt lat="42.288248" lon="-8.789313">
        <ele>182.3</ele>
        <time>1970-01-01T02:18:53.000Z</time>
      </trkpt>
      <trkpt lat="42.288257" lon="-8.789317">
        <ele>181.2</ele>
        <time>1970-01-01T02:18:54.000Z</time>
      </trkpt>
      <trkpt lat="42.288267" lon="-8.789328">
        <ele>181.2</ele>
        <time>1970-01-01T02:18:55.000Z</time>
      </trkpt>
      <trkpt lat="42.288277" lon="-8.789335">
        <ele>181.2</ele>
        <time>1970-01-01T02:18:56.000Z</time>
      </trkpt>
      <trkpt lat="42.288283" lon="-8.789342">
        <ele>181.2</ele>
        <time>1970-01-01T02:18:57.000Z</time>
      </trkpt>
      <trkpt lat="42.288293" lon="-8.78935">
        <ele>180.3</ele>
        <time>1970-01-01T02:18:58.000Z</time>
      </trkpt>
      <trkpt lat="42.288298" lon="-8.789355">
        <ele>180.3</ele>
        <time>1970-01-01T02:18:59.000Z</time>
      </trkpt>
      <trkpt lat="42.28831" lon="-8.789362">
        <ele>180.3</ele>
        <time>1970-01-01T02:19:00.000Z</time>
      </trkpt>
      <trkpt lat="42.288317" lon="-8.789367">
        <ele>180.3</ele>
        <time>1970-01-01T02:19:01.000Z</time>
      </trkpt>
      <trkpt lat="42.288328" lon="-8.789373">
        <ele>180.3</ele>
        <time>1970-01-01T02:19:02.000Z</time>
      </trkpt>
      <trkpt lat="42.28834" lon="-8.789383">
        <ele>180.3</ele>
        <time>1970-01-01T02:19:03.000Z</time>
      </trkpt>
      <trkpt lat="42.288347" lon="-8.789388">
        <ele>180.3</ele>
        <time>1970-01-01T02:19:04.000Z</time>
      </trkpt>
      <trkpt lat="42.288352" lon="-8.789395">
        <ele>180.3</ele>
        <time>1970-01-01T02:19:05.000Z</time>
      </trkpt>
      <trkpt lat="42.288355" lon="-8.789397">
        <ele>179.2</ele>
        <time>1970-01-01T02:19:06.000Z</time>
      </trkpt>
      <trkpt lat="42.288355" lon="-8.789398">
        <ele>179.2</ele>
        <time>1970-01-01T02:19:07.000Z</time>
      </trkpt>
      <trkpt lat="42.288355" lon="-8.7894">
        <ele>179.2</ele>
        <time>1970-01-01T02:19:08.000Z</time>
      </trkpt>
      <trkpt lat="42.288357" lon="-8.7894">
        <ele>179.2</ele>
        <time>1970-01-01T02:19:09.000Z</time>
      </trkpt>
      <trkpt lat="42.288357" lon="-8.789402">
        <ele>179.2</ele>
        <time>1970-01-01T02:19:10.000Z</time>
      </trkpt>
      <trkpt lat="42.288355" lon="-8.789403">
        <ele>179.2</ele>
        <time>1970-01-01T02:19:11.000Z</time>
      </trkpt>
      <trkpt lat="42.288357" lon="-8.789403">
        <ele>179.2</ele>
        <time>1970-01-01T02:19:12.000Z</time>
      </trkpt>
      <trkpt lat="42.288357" lon="-8.789405">
        <ele>179.2</ele>
        <time>1970-01-01T02:19:13.000Z</time>
      </trkpt>
      <trkpt lat="42.288358" lon="-8.789408">
        <ele>179.2</ele>
        <time>1970-01-01T02:19:14.000Z</time>
      </trkpt>
      <trkpt lat="42.288357" lon="-8.789413">
        <ele>179.2</ele>
        <time>1970-01-01T02:19:15.000Z</time>
      </trkpt>
      <trkpt lat="42.288358" lon="-8.789418">
        <ele>179.2</ele>
        <time>1970-01-01T02:19:16.000Z</time>
      </trkpt>
      <trkpt lat="42.288362" lon="-8.789422">
        <ele>179.2</ele>
        <time>1970-01-01T02:19:17.000Z</time>
      </trkpt>
      <trkpt lat="42.288365" lon="-8.789427">
        <ele>179.2</ele>
        <time>1970-01-01T02:19:18.000Z</time>
      </trkpt>
      <trkpt lat="42.28837" lon="-8.789432">
        <ele>179.2</ele>
        <time>1970-01-01T02:19:19.000Z</time>
      </trkpt>
      <trkpt lat="42.288377" lon="-8.789438">
        <ele>179.2</ele>
        <time>1970-01-01T02:19:20.000Z</time>
      </trkpt>
      <trkpt lat="42.288383" lon="-8.789448">
        <ele>179.2</ele>
        <time>1970-01-01T02:19:21.000Z</time>
      </trkpt>
      <trkpt lat="42.288393" lon="-8.789455">
        <ele>179.2</ele>
        <time>1970-01-01T02:19:22.000Z</time>
      </trkpt>
      <trkpt lat="42.288403" lon="-8.789462">
        <ele>179.2</ele>
        <time>1970-01-01T02:19:23.000Z</time>
      </trkpt>
      <trkpt lat="42.288417" lon="-8.789467">
        <ele>179.2</ele>
        <time>1970-01-01T02:19:24.000Z</time>
      </trkpt>
      <trkpt lat="42.288425" lon="-8.78947">
        <ele>179.2</ele>
        <time>1970-01-01T02:19:25.000Z</time>
      </trkpt>
      <trkpt lat="42.288437" lon="-8.789475">
        <ele>179.2</ele>
        <time>1970-01-01T02:19:26.000Z</time>
      </trkpt>
      <trkpt lat="42.288448" lon="-8.789478">
        <ele>179.2</ele>
        <time>1970-01-01T02:19:27.000Z</time>
      </trkpt>
      <trkpt lat="42.288462" lon="-8.78948">
        <ele>179.2</ele>
        <time>1970-01-01T02:19:28.000Z</time>
      </trkpt>
      <trkpt lat="42.288473" lon="-8.789485">
        <ele>179.2</ele>
        <time>1970-01-01T02:19:29.000Z</time>
      </trkpt>
      <trkpt lat="42.288482" lon="-8.789488">
        <ele>177.2</ele>
        <time>1970-01-01T02:19:30.000Z</time>
      </trkpt>
      <trkpt lat="42.28849" lon="-8.789488">
        <ele>177.2</ele>
        <time>1970-01-01T02:19:31.000Z</time>
      </trkpt>
      <trkpt lat="42.2885" lon="-8.78949">
        <ele>177.2</ele>
        <time>1970-01-01T02:19:32.000Z</time>
      </trkpt>
      <trkpt lat="42.288508" lon="-8.78949">
        <ele>177.2</ele>
        <time>1970-01-01T02:19:33.000Z</time>
      </trkpt>
      <trkpt lat="42.288517" lon="-8.78949">
        <ele>177.2</ele>
        <time>1970-01-01T02:19:34.000Z</time>
      </trkpt>
      <trkpt lat="42.288525" lon="-8.789495">
        <ele>177.2</ele>
        <time>1970-01-01T02:19:35.000Z</time>
      </trkpt>
      <trkpt lat="42.288533" lon="-8.789497">
        <ele>176.3</ele>
        <time>1970-01-01T02:19:36.000Z</time>
      </trkpt>
      <trkpt lat="42.288547" lon="-8.789492">
        <ele>176.3</ele>
        <time>1970-01-01T02:19:37.000Z</time>
      </trkpt>
      <trkpt lat="42.288563" lon="-8.789487">
        <ele>176.3</ele>
        <time>1970-01-01T02:19:38.000Z</time>
      </trkpt>
      <trkpt lat="42.288575" lon="-8.789487">
        <ele>176.3</ele>
        <time>1970-01-01T02:19:39.000Z</time>
      </trkpt>
      <trkpt lat="42.288587" lon="-8.789487">
        <ele>175.3</ele>
        <time>1970-01-01T02:19:40.000Z</time>
      </trkpt>
      <trkpt lat="42.288602" lon="-8.789487">
        <ele>175.3</ele>
        <time>1970-01-01T02:19:41.000Z</time>
      </trkpt>
      <trkpt lat="42.288615" lon="-8.789482">
        <ele>175.3</ele>
        <time>1970-01-01T02:19:42.000Z</time>
      </trkpt>
      <trkpt lat="42.288627" lon="-8.789482">
        <ele>175.3</ele>
        <time>1970-01-01T02:19:43.000Z</time>
      </trkpt>
      <trkpt lat="42.288635" lon="-8.789483">
        <ele>175.3</ele>
        <time>1970-01-01T02:19:44.000Z</time>
      </trkpt>
      <trkpt lat="42.28864" lon="-8.789482">
        <ele>175.3</ele>
        <time>1970-01-01T02:19:45.000Z</time>
      </trkpt>
      <trkpt lat="42.288638" lon="-8.789487">
        <ele>175.3</ele>
        <time>1970-01-01T02:19:46.000Z</time>
      </trkpt>
      <trkpt lat="42.288633" lon="-8.789508">
        <ele>175.3</ele>
        <time>1970-01-01T02:19:47.000Z</time>
      </trkpt>
      <trkpt lat="42.288627" lon="-8.789513">
        <ele>175.3</ele>
        <time>1970-01-01T02:19:48.000Z</time>
      </trkpt>
      <trkpt lat="42.288638" lon="-8.78951">
        <ele>175.3</ele>
        <time>1970-01-01T02:19:49.000Z</time>
      </trkpt>
      <trkpt lat="42.288638" lon="-8.78951">
        <ele>175.3</ele>
        <time>1970-01-01T02:19:50.000Z</time>
      </trkpt>
      <trkpt lat="42.288638" lon="-8.78951">
        <ele>175.3</ele>
        <time>1970-01-01T02:19:51.000Z</time>
      </trkpt>
      <trkpt lat="42.288638" lon="-8.789512">
        <ele>175.3</ele>
        <time>1970-01-01T02:19:52.000Z</time>
      </trkpt>
      <trkpt lat="42.288638" lon="-8.789512">
        <ele>175.3</ele>
        <time>1970-01-01T02:19:53.000Z</time>
      </trkpt>
      <trkpt lat="42.288643" lon="-8.789507">
        <ele>175.3</ele>
        <time>1970-01-01T02:19:54.000Z</time>
      </trkpt>
      <trkpt lat="42.28865" lon="-8.789507">
        <ele>175.3</ele>
        <time>1970-01-01T02:19:55.000Z</time>
      </trkpt>
      <trkpt lat="42.28866" lon="-8.789508">
        <ele>175.3</ele>
        <time>1970-01-01T02:19:56.000Z</time>
      </trkpt>
      <trkpt lat="42.288673" lon="-8.789507">
        <ele>175.3</ele>
        <time>1970-01-01T02:19:57.000Z</time>
      </trkpt>
      <trkpt lat="42.288688" lon="-8.789505">
        <ele>175.3</ele>
        <time>1970-01-01T02:19:58.000Z</time>
      </trkpt>
      <trkpt lat="42.288698" lon="-8.789502">
        <ele>175.3</ele>
        <time>1970-01-01T02:19:59.000Z</time>
      </trkpt>
      <trkpt lat="42.288708" lon="-8.789497">
        <ele>175.3</ele>
        <time>1970-01-01T02:20:00.000Z</time>
      </trkpt>
      <trkpt lat="42.288722" lon="-8.789492">
        <ele>175.3</ele>
        <time>1970-01-01T02:20:01.000Z</time>
      </trkpt>
      <trkpt lat="42.288735" lon="-8.789485">
        <ele>175.3</ele>
        <time>1970-01-01T02:20:02.000Z</time>
      </trkpt>
      <trkpt lat="42.288748" lon="-8.789482">
        <ele>175.3</ele>
        <time>1970-01-01T02:20:03.000Z</time>
      </trkpt>
      <trkpt lat="42.288758" lon="-8.78948">
        <ele>175.3</ele>
        <time>1970-01-01T02:20:04.000Z</time>
      </trkpt>
      <trkpt lat="42.288772" lon="-8.789477">
        <ele>175.3</ele>
        <time>1970-01-01T02:20:05.000Z</time>
      </trkpt>
      <trkpt lat="42.288782" lon="-8.789483">
        <ele>175.3</ele>
        <time>1970-01-01T02:20:06.000Z</time>
      </trkpt>
      <trkpt lat="42.288787" lon="-8.789483">
        <ele>175.3</ele>
        <time>1970-01-01T02:20:07.000Z</time>
      </trkpt>
      <trkpt lat="42.288785" lon="-8.789482">
        <ele>174.2</ele>
        <time>1970-01-01T02:20:08.000Z</time>
      </trkpt>
      <trkpt lat="42.288787" lon="-8.78948">
        <ele>174.2</ele>
        <time>1970-01-01T02:20:09.000Z</time>
      </trkpt>
      <trkpt lat="42.288787" lon="-8.789482">
        <ele>174.2</ele>
        <time>1970-01-01T02:20:10.000Z</time>
      </trkpt>
      <trkpt lat="42.288788" lon="-8.789482">
        <ele>174.2</ele>
        <time>1970-01-01T02:20:11.000Z</time>
      </trkpt>
      <trkpt lat="42.288787" lon="-8.789483">
        <ele>174.2</ele>
        <time>1970-01-01T02:20:12.000Z</time>
      </trkpt>
      <trkpt lat="42.288787" lon="-8.789483">
        <ele>174.2</ele>
        <time>1970-01-01T02:20:13.000Z</time>
      </trkpt>
      <trkpt lat="42.288787" lon="-8.789483">
        <ele>174.2</ele>
        <time>1970-01-01T02:20:14.000Z</time>
      </trkpt>
      <trkpt lat="42.288787" lon="-8.789483">
        <ele>174.2</ele>
        <time>1970-01-01T02:20:15.000Z</time>
      </trkpt>
      <trkpt lat="42.288785" lon="-8.789483">
        <ele>174.2</ele>
        <time>1970-01-01T02:20:16.000Z</time>
      </trkpt>
      <trkpt lat="42.288785" lon="-8.789485">
        <ele>174.2</ele>
        <time>1970-01-01T02:20:17.000Z</time>
      </trkpt>
      <trkpt lat="42.288787" lon="-8.789487">
        <ele>175.3</ele>
        <time>1970-01-01T02:20:18.000Z</time>
      </trkpt>
      <trkpt lat="42.288793" lon="-8.789488">
        <ele>175.3</ele>
        <time>1970-01-01T02:20:19.000Z</time>
      </trkpt>
      <trkpt lat="42.288802" lon="-8.78949">
        <ele>175.3</ele>
        <time>1970-01-01T02:20:20.000Z</time>
      </trkpt>
      <trkpt lat="42.288812" lon="-8.789488">
        <ele>175.3</ele>
        <time>1970-01-01T02:20:21.000Z</time>
      </trkpt>
      <trkpt lat="42.288823" lon="-8.789487">
        <ele>175.3</ele>
        <time>1970-01-01T02:20:22.000Z</time>
      </trkpt>
      <trkpt lat="42.288833" lon="-8.789485">
        <ele>175.3</ele>
        <time>1970-01-01T02:20:23.000Z</time>
      </trkpt>
      <trkpt lat="42.288845" lon="-8.789483">
        <ele>175.3</ele>
        <time>1970-01-01T02:20:24.000Z</time>
      </trkpt>
      <trkpt lat="42.28886" lon="-8.789485">
        <ele>175.3</ele>
        <time>1970-01-01T02:20:25.000Z</time>
      </trkpt>
      <trkpt lat="42.28887" lon="-8.789483">
        <ele>175.3</ele>
        <time>1970-01-01T02:20:26.000Z</time>
      </trkpt>
      <trkpt lat="42.288882" lon="-8.789482">
        <ele>175.3</ele>
        <time>1970-01-01T02:20:27.000Z</time>
      </trkpt>
      <trkpt lat="42.288893" lon="-8.78948">
        <ele>175.3</ele>
        <time>1970-01-01T02:20:28.000Z</time>
      </trkpt>
      <trkpt lat="42.288908" lon="-8.789482">
        <ele>175.3</ele>
        <time>1970-01-01T02:20:29.000Z</time>
      </trkpt>
      <trkpt lat="42.28892" lon="-8.789478">
        <ele>175.3</ele>
        <time>1970-01-01T02:20:30.000Z</time>
      </trkpt>
      <trkpt lat="42.288932" lon="-8.789477">
        <ele>175.3</ele>
        <time>1970-01-01T02:20:31.000Z</time>
      </trkpt>
      <trkpt lat="42.288947" lon="-8.789472">
        <ele>174.2</ele>
        <time>1970-01-01T02:20:32.000Z</time>
      </trkpt>
      <trkpt lat="42.28896" lon="-8.789467">
        <ele>174.2</ele>
        <time>1970-01-01T02:20:33.000Z</time>
      </trkpt>
      <trkpt lat="42.28897" lon="-8.789467">
        <ele>174.2</ele>
        <time>1970-01-01T02:20:34.000Z</time>
      </trkpt>
      <trkpt lat="42.288985" lon="-8.789468">
        <ele>174.2</ele>
        <time>1970-01-01T02:20:35.000Z</time>
      </trkpt>
      <trkpt lat="42.288997" lon="-8.789465">
        <ele>174.2</ele>
        <time>1970-01-01T02:20:36.000Z</time>
      </trkpt>
      <trkpt lat="42.289007" lon="-8.789463">
        <ele>174.2</ele>
        <time>1970-01-01T02:20:37.000Z</time>
      </trkpt>
      <trkpt lat="42.289017" lon="-8.78946">
        <ele>174.2</ele>
        <time>1970-01-01T02:20:38.000Z</time>
      </trkpt>
      <trkpt lat="42.289027" lon="-8.789457">
        <ele>174.2</ele>
        <time>1970-01-01T02:20:39.000Z</time>
      </trkpt>
      <trkpt lat="42.289035" lon="-8.789457">
        <ele>174.2</ele>
        <time>1970-01-01T02:20:40.000Z</time>
      </trkpt>
      <trkpt lat="42.289045" lon="-8.789455">
        <ele>174.2</ele>
        <time>1970-01-01T02:20:41.000Z</time>
      </trkpt>
      <trkpt lat="42.289057" lon="-8.789452">
        <ele>174.2</ele>
        <time>1970-01-01T02:20:42.000Z</time>
      </trkpt>
      <trkpt lat="42.289072" lon="-8.789453">
        <ele>174.2</ele>
        <time>1970-01-01T02:20:43.000Z</time>
      </trkpt>
      <trkpt lat="42.289085" lon="-8.789453">
        <ele>174.2</ele>
        <time>1970-01-01T02:20:44.000Z</time>
      </trkpt>
      <trkpt lat="42.289097" lon="-8.789455">
        <ele>174.2</ele>
        <time>1970-01-01T02:20:45.000Z</time>
      </trkpt>
      <trkpt lat="42.289108" lon="-8.789455">
        <ele>174.2</ele>
        <time>1970-01-01T02:20:46.000Z</time>
      </trkpt>
      <trkpt lat="42.289122" lon="-8.789455">
        <ele>174.2</ele>
        <time>1970-01-01T02:20:47.000Z</time>
      </trkpt>
      <trkpt lat="42.289133" lon="-8.789452">
        <ele>174.2</ele>
        <time>1970-01-01T02:20:48.000Z</time>
      </trkpt>
      <trkpt lat="42.289143" lon="-8.789452">
        <ele>174.2</ele>
        <time>1970-01-01T02:20:49.000Z</time>
      </trkpt>
      <trkpt lat="42.289153" lon="-8.789453">
        <ele>174.2</ele>
        <time>1970-01-01T02:20:50.000Z</time>
      </trkpt>
      <trkpt lat="42.289167" lon="-8.789455">
        <ele>174.2</ele>
        <time>1970-01-01T02:20:51.000Z</time>
      </trkpt>
      <trkpt lat="42.289187" lon="-8.789457">
        <ele>173.3</ele>
        <time>1970-01-01T02:20:52.000Z</time>
      </trkpt>
      <trkpt lat="42.2892" lon="-8.789457">
        <ele>173.3</ele>
        <time>1970-01-01T02:20:53.000Z</time>
      </trkpt>
      <trkpt lat="42.28922" lon="-8.789453">
        <ele>173.3</ele>
        <time>1970-01-01T02:20:54.000Z</time>
      </trkpt>
      <trkpt lat="42.289232" lon="-8.78945">
        <ele>173.3</ele>
        <time>1970-01-01T02:20:55.000Z</time>
      </trkpt>
      <trkpt lat="42.289247" lon="-8.789455">
        <ele>173.3</ele>
        <time>1970-01-01T02:20:56.000Z</time>
      </trkpt>
      <trkpt lat="42.289255" lon="-8.789458">
        <ele>173.3</ele>
        <time>1970-01-01T02:20:57.000Z</time>
      </trkpt>
      <trkpt lat="42.289267" lon="-8.789462">
        <ele>173.3</ele>
        <time>1970-01-01T02:20:58.000Z</time>
      </trkpt>
      <trkpt lat="42.289282" lon="-8.789463">
        <ele>173.3</ele>
        <time>1970-01-01T02:20:59.000Z</time>
      </trkpt>
      <trkpt lat="42.289293" lon="-8.789467">
        <ele>173.3</ele>
        <time>1970-01-01T02:21:00.000Z</time>
      </trkpt>
      <trkpt lat="42.289303" lon="-8.789473">
        <ele>173.3</ele>
        <time>1970-01-01T02:21:01.000Z</time>
      </trkpt>
      <trkpt lat="42.289312" lon="-8.789478">
        <ele>173.3</ele>
        <time>1970-01-01T02:21:02.000Z</time>
      </trkpt>
      <trkpt lat="42.289323" lon="-8.789482">
        <ele>173.3</ele>
        <time>1970-01-01T02:21:03.000Z</time>
      </trkpt>
      <trkpt lat="42.289332" lon="-8.789487">
        <ele>173.3</ele>
        <time>1970-01-01T02:21:04.000Z</time>
      </trkpt>
      <trkpt lat="42.28934" lon="-8.789488">
        <ele>173.3</ele>
        <time>1970-01-01T02:21:05.000Z</time>
      </trkpt>
      <trkpt lat="42.28935" lon="-8.78949">
        <ele>171.3</ele>
        <time>1970-01-01T02:21:06.000Z</time>
      </trkpt>
      <trkpt lat="42.289358" lon="-8.78949">
        <ele>171.3</ele>
        <time>1970-01-01T02:21:07.000Z</time>
      </trkpt>
      <trkpt lat="42.289372" lon="-8.789488">
        <ele>171.3</ele>
        <time>1970-01-01T02:21:08.000Z</time>
      </trkpt>
      <trkpt lat="42.289387" lon="-8.78949">
        <ele>171.3</ele>
        <time>1970-01-01T02:21:09.000Z</time>
      </trkpt>
      <trkpt lat="42.289402" lon="-8.78949">
        <ele>171.3</ele>
        <time>1970-01-01T02:21:10.000Z</time>
      </trkpt>
      <trkpt lat="42.289417" lon="-8.789488">
        <ele>171.3</ele>
        <time>1970-01-01T02:21:11.000Z</time>
      </trkpt>
      <trkpt lat="42.289428" lon="-8.789488">
        <ele>171.3</ele>
        <time>1970-01-01T02:21:12.000Z</time>
      </trkpt>
      <trkpt lat="42.289442" lon="-8.78949">
        <ele>171.3</ele>
        <time>1970-01-01T02:21:13.000Z</time>
      </trkpt>
      <trkpt lat="42.289455" lon="-8.78949">
        <ele>168.3</ele>
        <time>1970-01-01T02:21:14.000Z</time>
      </trkpt>
      <trkpt lat="42.28947" lon="-8.789492">
        <ele>168.3</ele>
        <time>1970-01-01T02:21:15.000Z</time>
      </trkpt>
      <trkpt lat="42.28948" lon="-8.789493">
        <ele>168.3</ele>
        <time>1970-01-01T02:21:16.000Z</time>
      </trkpt>
      <trkpt lat="42.28949" lon="-8.789497">
        <ele>168.3</ele>
        <time>1970-01-01T02:21:17.000Z</time>
      </trkpt>
      <trkpt lat="42.2895" lon="-8.789497">
        <ele>168.3</ele>
        <time>1970-01-01T02:21:18.000Z</time>
      </trkpt>
      <trkpt lat="42.28951" lon="-8.789492">
        <ele>168.3</ele>
        <time>1970-01-01T02:21:19.000Z</time>
      </trkpt>
      <trkpt lat="42.289523" lon="-8.789487">
        <ele>167.3</ele>
        <time>1970-01-01T02:21:20.000Z</time>
      </trkpt>
      <trkpt lat="42.289535" lon="-8.789482">
        <ele>167.3</ele>
        <time>1970-01-01T02:21:21.000Z</time>
      </trkpt>
      <trkpt lat="42.289548" lon="-8.789478">
        <ele>167.3</ele>
        <time>1970-01-01T02:21:22.000Z</time>
      </trkpt>
      <trkpt lat="42.289558" lon="-8.789482">
        <ele>167.3</ele>
        <time>1970-01-01T02:21:23.000Z</time>
      </trkpt>
      <trkpt lat="42.28957" lon="-8.789477">
        <ele>166.3</ele>
        <time>1970-01-01T02:21:24.000Z</time>
      </trkpt>
      <trkpt lat="42.289582" lon="-8.789478">
        <ele>166.3</ele>
        <time>1970-01-01T02:21:25.000Z</time>
      </trkpt>
      <trkpt lat="42.289592" lon="-8.789482">
        <ele>166.3</ele>
        <time>1970-01-01T02:21:26.000Z</time>
      </trkpt>
      <trkpt lat="42.289602" lon="-8.789488">
        <ele>166.3</ele>
        <time>1970-01-01T02:21:27.000Z</time>
      </trkpt>
      <trkpt lat="42.289612" lon="-8.789493">
        <ele>166.3</ele>
        <time>1970-01-01T02:21:28.000Z</time>
      </trkpt>
      <trkpt lat="42.289622" lon="-8.789502">
        <ele>166.3</ele>
        <time>1970-01-01T02:21:29.000Z</time>
      </trkpt>
      <trkpt lat="42.289633" lon="-8.789507">
        <ele>166.3</ele>
        <time>1970-01-01T02:21:30.000Z</time>
      </trkpt>
      <trkpt lat="42.289643" lon="-8.789512">
        <ele>166.3</ele>
        <time>1970-01-01T02:21:31.000Z</time>
      </trkpt>
      <trkpt lat="42.289652" lon="-8.789517">
        <ele>165.2</ele>
        <time>1970-01-01T02:21:32.000Z</time>
      </trkpt>
      <trkpt lat="42.289663" lon="-8.789523">
        <ele>165.2</ele>
        <time>1970-01-01T02:21:33.000Z</time>
      </trkpt>
      <trkpt lat="42.289677" lon="-8.789528">
        <ele>164.3</ele>
        <time>1970-01-01T02:21:34.000Z</time>
      </trkpt>
      <trkpt lat="42.289688" lon="-8.789533">
        <ele>164.3</ele>
        <time>1970-01-01T02:21:35.000Z</time>
      </trkpt>
      <trkpt lat="42.2897" lon="-8.789538">
        <ele>164.3</ele>
        <time>1970-01-01T02:21:36.000Z</time>
      </trkpt>
      <trkpt lat="42.289713" lon="-8.789545">
        <ele>164.3</ele>
        <time>1970-01-01T02:21:37.000Z</time>
      </trkpt>
      <trkpt lat="42.289727" lon="-8.78955">
        <ele>164.3</ele>
        <time>1970-01-01T02:21:38.000Z</time>
      </trkpt>
      <trkpt lat="42.289737" lon="-8.789555">
        <ele>164.3</ele>
        <time>1970-01-01T02:21:39.000Z</time>
      </trkpt>
      <trkpt lat="42.289752" lon="-8.789562">
        <ele>164.3</ele>
        <time>1970-01-01T02:21:40.000Z</time>
      </trkpt>
      <trkpt lat="42.289763" lon="-8.789572">
        <ele>164.3</ele>
        <time>1970-01-01T02:21:41.000Z</time>
      </trkpt>
      <trkpt lat="42.289775" lon="-8.789583">
        <ele>163.2</ele>
        <time>1970-01-01T02:21:42.000Z</time>
      </trkpt>
      <trkpt lat="42.289785" lon="-8.78959">
        <ele>163.2</ele>
        <time>1970-01-01T02:21:43.000Z</time>
      </trkpt>
      <trkpt lat="42.289797" lon="-8.7896">
        <ele>163.2</ele>
        <time>1970-01-01T02:21:44.000Z</time>
      </trkpt>
      <trkpt lat="42.28981" lon="-8.789608">
        <ele>163.2</ele>
        <time>1970-01-01T02:21:45.000Z</time>
      </trkpt>
      <trkpt lat="42.289822" lon="-8.789617">
        <ele>163.2</ele>
        <time>1970-01-01T02:21:46.000Z</time>
      </trkpt>
      <trkpt lat="42.28983" lon="-8.789623">
        <ele>163.2</ele>
        <time>1970-01-01T02:21:47.000Z</time>
      </trkpt>
      <trkpt lat="42.289842" lon="-8.78963">
        <ele>163.2</ele>
        <time>1970-01-01T02:21:48.000Z</time>
      </trkpt>
      <trkpt lat="42.289852" lon="-8.78964">
        <ele>163.2</ele>
        <time>1970-01-01T02:21:49.000Z</time>
      </trkpt>
      <trkpt lat="42.28986" lon="-8.789648">
        <ele>163.2</ele>
        <time>1970-01-01T02:21:50.000Z</time>
      </trkpt>
      <trkpt lat="42.28987" lon="-8.789665">
        <ele>163.2</ele>
        <time>1970-01-01T02:21:51.000Z</time>
      </trkpt>
      <trkpt lat="42.289877" lon="-8.789675">
        <ele>163.2</ele>
        <time>1970-01-01T02:21:52.000Z</time>
      </trkpt>
      <trkpt lat="42.289883" lon="-8.78969">
        <ele>163.2</ele>
        <time>1970-01-01T02:21:53.000Z</time>
      </trkpt>
      <trkpt lat="42.289892" lon="-8.789702">
        <ele>163.2</ele>
        <time>1970-01-01T02:21:54.000Z</time>
      </trkpt>
      <trkpt lat="42.2899" lon="-8.789715">
        <ele>163.2</ele>
        <time>1970-01-01T02:21:55.000Z</time>
      </trkpt>
      <trkpt lat="42.28991" lon="-8.789723">
        <ele>164.3</ele>
        <time>1970-01-01T02:21:56.000Z</time>
      </trkpt>
      <trkpt lat="42.28992" lon="-8.789733">
        <ele>164.3</ele>
        <time>1970-01-01T02:21:57.000Z</time>
      </trkpt>
      <trkpt lat="42.28993" lon="-8.789737">
        <ele>164.3</ele>
        <time>1970-01-01T02:21:58.000Z</time>
      </trkpt>
      <trkpt lat="42.28994" lon="-8.789738">
        <ele>164.3</ele>
        <time>1970-01-01T02:21:59.000Z</time>
      </trkpt>
      <trkpt lat="42.28995" lon="-8.789745">
        <ele>165.2</ele>
        <time>1970-01-01T02:22:00.000Z</time>
      </trkpt>
      <trkpt lat="42.289958" lon="-8.789752">
        <ele>165.2</ele>
        <time>1970-01-01T02:22:01.000Z</time>
      </trkpt>
      <trkpt lat="42.289967" lon="-8.789757">
        <ele>165.2</ele>
        <time>1970-01-01T02:22:02.000Z</time>
      </trkpt>
      <trkpt lat="42.28998" lon="-8.78976">
        <ele>165.2</ele>
        <time>1970-01-01T02:22:03.000Z</time>
      </trkpt>
      <trkpt lat="42.289987" lon="-8.789768">
        <ele>165.2</ele>
        <time>1970-01-01T02:22:04.000Z</time>
      </trkpt>
      <trkpt lat="42.289998" lon="-8.789778">
        <ele>165.2</ele>
        <time>1970-01-01T02:22:05.000Z</time>
      </trkpt>
      <trkpt lat="42.290008" lon="-8.789787">
        <ele>165.2</ele>
        <time>1970-01-01T02:22:06.000Z</time>
      </trkpt>
      <trkpt lat="42.290017" lon="-8.789793">
        <ele>165.2</ele>
        <time>1970-01-01T02:22:07.000Z</time>
      </trkpt>
      <trkpt lat="42.290032" lon="-8.789803">
        <ele>166.3</ele>
        <time>1970-01-01T02:22:08.000Z</time>
      </trkpt>
      <trkpt lat="42.29004" lon="-8.789813">
        <ele>166.3</ele>
        <time>1970-01-01T02:22:09.000Z</time>
      </trkpt>
      <trkpt lat="42.290048" lon="-8.789822">
        <ele>166.3</ele>
        <time>1970-01-01T02:22:10.000Z</time>
      </trkpt>
      <trkpt lat="42.290058" lon="-8.78983">
        <ele>166.3</ele>
        <time>1970-01-01T02:22:11.000Z</time>
      </trkpt>
      <trkpt lat="42.290068" lon="-8.789837">
        <ele>166.3</ele>
        <time>1970-01-01T02:22:12.000Z</time>
      </trkpt>
      <trkpt lat="42.290082" lon="-8.789845">
        <ele>166.3</ele>
        <time>1970-01-01T02:22:13.000Z</time>
      </trkpt>
      <trkpt lat="42.290095" lon="-8.789853">
        <ele>166.3</ele>
        <time>1970-01-01T02:22:14.000Z</time>
      </trkpt>
      <trkpt lat="42.290108" lon="-8.789863">
        <ele>166.3</ele>
        <time>1970-01-01T02:22:15.000Z</time>
      </trkpt>
      <trkpt lat="42.29012" lon="-8.78987">
        <ele>166.3</ele>
        <time>1970-01-01T02:22:16.000Z</time>
      </trkpt>
      <trkpt lat="42.290132" lon="-8.789875">
        <ele>166.3</ele>
        <time>1970-01-01T02:22:17.000Z</time>
      </trkpt>
      <trkpt lat="42.290145" lon="-8.789878">
        <ele>166.3</ele>
        <time>1970-01-01T02:22:18.000Z</time>
      </trkpt>
      <trkpt lat="42.290162" lon="-8.789887">
        <ele>166.3</ele>
        <time>1970-01-01T02:22:19.000Z</time>
      </trkpt>
      <trkpt lat="42.290175" lon="-8.789892">
        <ele>166.3</ele>
        <time>1970-01-01T02:22:20.000Z</time>
      </trkpt>
      <trkpt lat="42.290187" lon="-8.789897">
        <ele>166.3</ele>
        <time>1970-01-01T02:22:21.000Z</time>
      </trkpt>
      <trkpt lat="42.290202" lon="-8.789902">
        <ele>166.3</ele>
        <time>1970-01-01T02:22:22.000Z</time>
      </trkpt>
      <trkpt lat="42.290213" lon="-8.789903">
        <ele>166.3</ele>
        <time>1970-01-01T02:22:23.000Z</time>
      </trkpt>
      <trkpt lat="42.290225" lon="-8.789905">
        <ele>166.3</ele>
        <time>1970-01-01T02:22:24.000Z</time>
      </trkpt>
      <trkpt lat="42.290238" lon="-8.789907">
        <ele>166.3</ele>
        <time>1970-01-01T02:22:25.000Z</time>
      </trkpt>
      <trkpt lat="42.290248" lon="-8.789907">
        <ele>166.3</ele>
        <time>1970-01-01T02:22:26.000Z</time>
      </trkpt>
      <trkpt lat="42.290262" lon="-8.789903">
        <ele>166.3</ele>
        <time>1970-01-01T02:22:27.000Z</time>
      </trkpt>
      <trkpt lat="42.290272" lon="-8.789907">
        <ele>166.3</ele>
        <time>1970-01-01T02:22:28.000Z</time>
      </trkpt>
      <trkpt lat="42.290287" lon="-8.78991">
        <ele>166.3</ele>
        <time>1970-01-01T02:22:29.000Z</time>
      </trkpt>
      <trkpt lat="42.290302" lon="-8.789912">
        <ele>166.3</ele>
        <time>1970-01-01T02:22:30.000Z</time>
      </trkpt>
      <trkpt lat="42.290317" lon="-8.789912">
        <ele>166.3</ele>
        <time>1970-01-01T02:22:31.000Z</time>
      </trkpt>
      <trkpt lat="42.290328" lon="-8.78991">
        <ele>166.3</ele>
        <time>1970-01-01T02:22:32.000Z</time>
      </trkpt>
      <trkpt lat="42.290342" lon="-8.789908">
        <ele>166.3</ele>
        <time>1970-01-01T02:22:33.000Z</time>
      </trkpt>
      <trkpt lat="42.290353" lon="-8.78991">
        <ele>166.3</ele>
        <time>1970-01-01T02:22:34.000Z</time>
      </trkpt>
      <trkpt lat="42.290368" lon="-8.78991">
        <ele>166.3</ele>
        <time>1970-01-01T02:22:35.000Z</time>
      </trkpt>
      <trkpt lat="42.290385" lon="-8.789907">
        <ele>166.3</ele>
        <time>1970-01-01T02:22:36.000Z</time>
      </trkpt>
      <trkpt lat="42.290397" lon="-8.789903">
        <ele>166.3</ele>
        <time>1970-01-01T02:22:37.000Z</time>
      </trkpt>
      <trkpt lat="42.290415" lon="-8.7899">
        <ele>166.3</ele>
        <time>1970-01-01T02:22:38.000Z</time>
      </trkpt>
      <trkpt lat="42.290432" lon="-8.789895">
        <ele>166.3</ele>
        <time>1970-01-01T02:22:39.000Z</time>
      </trkpt>
      <trkpt lat="42.290447" lon="-8.789893">
        <ele>166.3</ele>
        <time>1970-01-01T02:22:40.000Z</time>
      </trkpt>
      <trkpt lat="42.290457" lon="-8.78989">
        <ele>166.3</ele>
        <time>1970-01-01T02:22:41.000Z</time>
      </trkpt>
      <trkpt lat="42.290467" lon="-8.789887">
        <ele>166.3</ele>
        <time>1970-01-01T02:22:42.000Z</time>
      </trkpt>
      <trkpt lat="42.290482" lon="-8.789882">
        <ele>166.3</ele>
        <time>1970-01-01T02:22:43.000Z</time>
      </trkpt>
      <trkpt lat="42.290495" lon="-8.789873">
        <ele>166.3</ele>
        <time>1970-01-01T02:22:44.000Z</time>
      </trkpt>
      <trkpt lat="42.290505" lon="-8.78987">
        <ele>166.3</ele>
        <time>1970-01-01T02:22:45.000Z</time>
      </trkpt>
      <trkpt lat="42.290518" lon="-8.789865">
        <ele>166.3</ele>
        <time>1970-01-01T02:22:46.000Z</time>
      </trkpt>
      <trkpt lat="42.290533" lon="-8.78986">
        <ele>166.3</ele>
        <time>1970-01-01T02:22:47.000Z</time>
      </trkpt>
      <trkpt lat="42.29055" lon="-8.789853">
        <ele>166.3</ele>
        <time>1970-01-01T02:22:48.000Z</time>
      </trkpt>
      <trkpt lat="42.290562" lon="-8.789853">
        <ele>166.3</ele>
        <time>1970-01-01T02:22:49.000Z</time>
      </trkpt>
      <trkpt lat="42.290572" lon="-8.789853">
        <ele>168.3</ele>
        <time>1970-01-01T02:22:50.000Z</time>
      </trkpt>
      <trkpt lat="42.290583" lon="-8.78985">
        <ele>168.3</ele>
        <time>1970-01-01T02:22:51.000Z</time>
      </trkpt>
      <trkpt lat="42.290597" lon="-8.789843">
        <ele>168.3</ele>
        <time>1970-01-01T02:22:52.000Z</time>
      </trkpt>
      <trkpt lat="42.290605" lon="-8.789835">
        <ele>168.3</ele>
        <time>1970-01-01T02:22:53.000Z</time>
      </trkpt>
      <trkpt lat="42.290613" lon="-8.789827">
        <ele>168.3</ele>
        <time>1970-01-01T02:22:54.000Z</time>
      </trkpt>
      <trkpt lat="42.290623" lon="-8.789815">
        <ele>168.3</ele>
        <time>1970-01-01T02:22:55.000Z</time>
      </trkpt>
      <trkpt lat="42.290635" lon="-8.789803">
        <ele>168.3</ele>
        <time>1970-01-01T02:22:56.000Z</time>
      </trkpt>
      <trkpt lat="42.290647" lon="-8.789792">
        <ele>168.3</ele>
        <time>1970-01-01T02:22:57.000Z</time>
      </trkpt>
      <trkpt lat="42.290662" lon="-8.789778">
        <ele>168.3</ele>
        <time>1970-01-01T02:22:58.000Z</time>
      </trkpt>
      <trkpt lat="42.290678" lon="-8.789767">
        <ele>168.3</ele>
        <time>1970-01-01T02:22:59.000Z</time>
      </trkpt>
      <trkpt lat="42.290693" lon="-8.789753">
        <ele>170.2</ele>
        <time>1970-01-01T02:23:00.000Z</time>
      </trkpt>
      <trkpt lat="42.290713" lon="-8.789738">
        <ele>170.2</ele>
        <time>1970-01-01T02:23:01.000Z</time>
      </trkpt>
      <trkpt lat="42.290738" lon="-8.789718">
        <ele>170.2</ele>
        <time>1970-01-01T02:23:02.000Z</time>
      </trkpt>
      <trkpt lat="42.290763" lon="-8.789697">
        <ele>170.2</ele>
        <time>1970-01-01T02:23:03.000Z</time>
      </trkpt>
      <trkpt lat="42.290782" lon="-8.789683">
        <ele>170.2</ele>
        <time>1970-01-01T02:23:04.000Z</time>
      </trkpt>
      <trkpt lat="42.290802" lon="-8.789672">
        <ele>170.2</ele>
        <time>1970-01-01T02:23:05.000Z</time>
      </trkpt>
      <trkpt lat="42.290815" lon="-8.789663">
        <ele>170.2</ele>
        <time>1970-01-01T02:23:06.000Z</time>
      </trkpt>
      <trkpt lat="42.290822" lon="-8.78965">
        <ele>170.2</ele>
        <time>1970-01-01T02:23:07.000Z</time>
      </trkpt>
      <trkpt lat="42.290828" lon="-8.789632">
        <ele>170.2</ele>
        <time>1970-01-01T02:23:08.000Z</time>
      </trkpt>
      <trkpt lat="42.290833" lon="-8.789622">
        <ele>170.2</ele>
        <time>1970-01-01T02:23:09.000Z</time>
      </trkpt>
      <trkpt lat="42.290845" lon="-8.789618">
        <ele>170.2</ele>
        <time>1970-01-01T02:23:10.000Z</time>
      </trkpt>
      <trkpt lat="42.290862" lon="-8.78961">
        <ele>170.2</ele>
        <time>1970-01-01T02:23:11.000Z</time>
      </trkpt>
      <trkpt lat="42.290873" lon="-8.7896">
        <ele>170.2</ele>
        <time>1970-01-01T02:23:12.000Z</time>
      </trkpt>
      <trkpt lat="42.290887" lon="-8.789588">
        <ele>170.2</ele>
        <time>1970-01-01T02:23:13.000Z</time>
      </trkpt>
      <trkpt lat="42.2909" lon="-8.789578">
        <ele>170.2</ele>
        <time>1970-01-01T02:23:14.000Z</time>
      </trkpt>
      <trkpt lat="42.29091" lon="-8.789567">
        <ele>170.2</ele>
        <time>1970-01-01T02:23:15.000Z</time>
      </trkpt>
      <trkpt lat="42.29092" lon="-8.78956">
        <ele>170.2</ele>
        <time>1970-01-01T02:23:16.000Z</time>
      </trkpt>
      <trkpt lat="42.29093" lon="-8.789555">
        <ele>170.2</ele>
        <time>1970-01-01T02:23:17.000Z</time>
      </trkpt>
      <trkpt lat="42.29094" lon="-8.789548">
        <ele>170.2</ele>
        <time>1970-01-01T02:23:18.000Z</time>
      </trkpt>
      <trkpt lat="42.290953" lon="-8.789538">
        <ele>170.2</ele>
        <time>1970-01-01T02:23:19.000Z</time>
      </trkpt>
      <trkpt lat="42.290963" lon="-8.789532">
        <ele>170.2</ele>
        <time>1970-01-01T02:23:20.000Z</time>
      </trkpt>
      <trkpt lat="42.290973" lon="-8.789517">
        <ele>170.2</ele>
        <time>1970-01-01T02:23:21.000Z</time>
      </trkpt>
      <trkpt lat="42.290987" lon="-8.789507">
        <ele>170.2</ele>
        <time>1970-01-01T02:23:22.000Z</time>
      </trkpt>
      <trkpt lat="42.290998" lon="-8.789498">
        <ele>170.2</ele>
        <time>1970-01-01T02:23:23.000Z</time>
      </trkpt>
      <trkpt lat="42.29101" lon="-8.789478">
        <ele>170.2</ele>
        <time>1970-01-01T02:23:24.000Z</time>
      </trkpt>
      <trkpt lat="42.29102" lon="-8.78946">
        <ele>170.2</ele>
        <time>1970-01-01T02:23:25.000Z</time>
      </trkpt>
      <trkpt lat="42.291032" lon="-8.789447">
        <ele>170.2</ele>
        <time>1970-01-01T02:23:26.000Z</time>
      </trkpt>
      <trkpt lat="42.291043" lon="-8.789433">
        <ele>170.2</ele>
        <time>1970-01-01T02:23:27.000Z</time>
      </trkpt>
      <trkpt lat="42.291053" lon="-8.789423">
        <ele>170.2</ele>
        <time>1970-01-01T02:23:28.000Z</time>
      </trkpt>
      <trkpt lat="42.291067" lon="-8.789412">
        <ele>170.2</ele>
        <time>1970-01-01T02:23:29.000Z</time>
      </trkpt>
      <trkpt lat="42.291082" lon="-8.789405">
        <ele>169.3</ele>
        <time>1970-01-01T02:23:30.000Z</time>
      </trkpt>
      <trkpt lat="42.291098" lon="-8.789392">
        <ele>169.3</ele>
        <time>1970-01-01T02:23:31.000Z</time>
      </trkpt>
      <trkpt lat="42.291113" lon="-8.789383">
        <ele>169.3</ele>
        <time>1970-01-01T02:23:32.000Z</time>
      </trkpt>
      <trkpt lat="42.291127" lon="-8.789375">
        <ele>169.3</ele>
        <time>1970-01-01T02:23:33.000Z</time>
      </trkpt>
      <trkpt lat="42.291138" lon="-8.789363">
        <ele>169.3</ele>
        <time>1970-01-01T02:23:34.000Z</time>
      </trkpt>
      <trkpt lat="42.291147" lon="-8.789353">
        <ele>169.3</ele>
        <time>1970-01-01T02:23:35.000Z</time>
      </trkpt>
      <trkpt lat="42.291155" lon="-8.789343">
        <ele>168.3</ele>
        <time>1970-01-01T02:23:36.000Z</time>
      </trkpt>
      <trkpt lat="42.291163" lon="-8.789338">
        <ele>168.3</ele>
        <time>1970-01-01T02:23:37.000Z</time>
      </trkpt>
      <trkpt lat="42.291173" lon="-8.78933">
        <ele>167.3</ele>
        <time>1970-01-01T02:23:38.000Z</time>
      </trkpt>
      <trkpt lat="42.29118" lon="-8.789325">
        <ele>167.3</ele>
        <time>1970-01-01T02:23:39.000Z</time>
      </trkpt>
      <trkpt lat="42.291192" lon="-8.789313">
        <ele>167.3</ele>
        <time>1970-01-01T02:23:40.000Z</time>
      </trkpt>
      <trkpt lat="42.291203" lon="-8.789308">
        <ele>167.3</ele>
        <time>1970-01-01T02:23:41.000Z</time>
      </trkpt>
      <trkpt lat="42.291213" lon="-8.789298">
        <ele>167.3</ele>
        <time>1970-01-01T02:23:42.000Z</time>
      </trkpt>
      <trkpt lat="42.291227" lon="-8.789287">
        <ele>167.3</ele>
        <time>1970-01-01T02:23:43.000Z</time>
      </trkpt>
      <trkpt lat="42.291237" lon="-8.789275">
        <ele>167.3</ele>
        <time>1970-01-01T02:23:44.000Z</time>
      </trkpt>
      <trkpt lat="42.291248" lon="-8.789268">
        <ele>167.3</ele>
        <time>1970-01-01T02:23:45.000Z</time>
      </trkpt>
      <trkpt lat="42.29126" lon="-8.789262">
        <ele>167.3</ele>
        <time>1970-01-01T02:23:46.000Z</time>
      </trkpt>
      <trkpt lat="42.29127" lon="-8.789257">
        <ele>167.3</ele>
        <time>1970-01-01T02:23:47.000Z</time>
      </trkpt>
      <trkpt lat="42.291273" lon="-8.789258">
        <ele>167.3</ele>
        <time>1970-01-01T02:23:48.000Z</time>
      </trkpt>
      <trkpt lat="42.291278" lon="-8.789253">
        <ele>167.3</ele>
        <time>1970-01-01T02:23:49.000Z</time>
      </trkpt>
      <trkpt lat="42.29128" lon="-8.789253">
        <ele>167.3</ele>
        <time>1970-01-01T02:23:50.000Z</time>
      </trkpt>
      <trkpt lat="42.291282" lon="-8.789253">
        <ele>167.3</ele>
        <time>1970-01-01T02:23:51.000Z</time>
      </trkpt>
      <trkpt lat="42.291283" lon="-8.789255">
        <ele>167.3</ele>
        <time>1970-01-01T02:23:52.000Z</time>
      </trkpt>
      <trkpt lat="42.291283" lon="-8.789257">
        <ele>167.3</ele>
        <time>1970-01-01T02:23:53.000Z</time>
      </trkpt>
      <trkpt lat="42.291285" lon="-8.789257">
        <ele>167.3</ele>
        <time>1970-01-01T02:23:54.000Z</time>
      </trkpt>
      <trkpt lat="42.291285" lon="-8.789257">
        <ele>167.3</ele>
        <time>1970-01-01T02:23:55.000Z</time>
      </trkpt>
      <trkpt lat="42.29128" lon="-8.78926">
        <ele>168.3</ele>
        <time>1970-01-01T02:23:56.000Z</time>
      </trkpt>
      <trkpt lat="42.291278" lon="-8.78926">
        <ele>168.3</ele>
        <time>1970-01-01T02:23:57.000Z</time>
      </trkpt>
      <trkpt lat="42.291278" lon="-8.78926">
        <ele>168.3</ele>
        <time>1970-01-01T02:23:58.000Z</time>
      </trkpt>
      <trkpt lat="42.291278" lon="-8.78926">
        <ele>168.3</ele>
        <time>1970-01-01T02:23:59.000Z</time>
      </trkpt>
      <trkpt lat="42.291278" lon="-8.78926">
        <ele>168.3</ele>
        <time>1970-01-01T02:24:00.000Z</time>
      </trkpt>
      <trkpt lat="42.291278" lon="-8.78926">
        <ele>168.3</ele>
        <time>1970-01-01T02:24:01.000Z</time>
      </trkpt>
      <trkpt lat="42.291278" lon="-8.78926">
        <ele>168.3</ele>
        <time>1970-01-01T02:24:02.000Z</time>
      </trkpt>
      <trkpt lat="42.291278" lon="-8.78926">
        <ele>168.3</ele>
        <time>1970-01-01T02:24:03.000Z</time>
      </trkpt>
      <trkpt lat="42.291278" lon="-8.78926">
        <ele>168.3</ele>
        <time>1970-01-01T02:24:04.000Z</time>
      </trkpt>
      <trkpt lat="42.291278" lon="-8.78926">
        <ele>168.3</ele>
        <time>1970-01-01T02:24:05.000Z</time>
      </trkpt>
      <trkpt lat="42.291278" lon="-8.78926">
        <ele>168.3</ele>
        <time>1970-01-01T02:24:06.000Z</time>
      </trkpt>
      <trkpt lat="42.291278" lon="-8.78926">
        <ele>168.3</ele>
        <time>1970-01-01T02:24:07.000Z</time>
      </trkpt>
      <trkpt lat="42.291278" lon="-8.78926">
        <ele>168.3</ele>
        <time>1970-01-01T02:24:08.000Z</time>
      </trkpt>
      <trkpt lat="42.291278" lon="-8.78926">
        <ele>168.3</ele>
        <time>1970-01-01T02:24:09.000Z</time>
      </trkpt>
      <trkpt lat="42.291278" lon="-8.78926">
        <ele>168.3</ele>
        <time>1970-01-01T02:24:10.000Z</time>
      </trkpt>
      <trkpt lat="42.291278" lon="-8.78926">
        <ele>168.3</ele>
        <time>1970-01-01T02:24:11.000Z</time>
      </trkpt>
      <trkpt lat="42.291278" lon="-8.78926">
        <ele>168.3</ele>
        <time>1970-01-01T02:24:12.000Z</time>
      </trkpt>
      <trkpt lat="42.291278" lon="-8.78926">
        <ele>168.3</ele>
        <time>1970-01-01T02:24:13.000Z</time>
      </trkpt>
      <trkpt lat="42.291278" lon="-8.78926">
        <ele>168.3</ele>
        <time>1970-01-01T02:24:14.000Z</time>
      </trkpt>
      <trkpt lat="42.291277" lon="-8.789262">
        <ele>168.3</ele>
        <time>1970-01-01T02:24:15.000Z</time>
      </trkpt>
      <trkpt lat="42.291277" lon="-8.789263">
        <ele>168.3</ele>
        <time>1970-01-01T02:24:16.000Z</time>
      </trkpt>
      <trkpt lat="42.291277" lon="-8.789263">
        <ele>168.3</ele>
        <time>1970-01-01T02:24:17.000Z</time>
      </trkpt>
      <trkpt lat="42.291275" lon="-8.789263">
        <ele>167.3</ele>
        <time>1970-01-01T02:24:18.000Z</time>
      </trkpt>
      <trkpt lat="42.291275" lon="-8.789263">
        <ele>167.3</ele>
        <time>1970-01-01T02:24:19.000Z</time>
      </trkpt>
      <trkpt lat="42.291273" lon="-8.789265">
        <ele>167.3</ele>
        <time>1970-01-01T02:24:20.000Z</time>
      </trkpt>
      <trkpt lat="42.291273" lon="-8.789265">
        <ele>167.3</ele>
        <time>1970-01-01T02:24:21.000Z</time>
      </trkpt>
      <trkpt lat="42.291273" lon="-8.789265">
        <ele>167.3</ele>
        <time>1970-01-01T02:24:22.000Z</time>
      </trkpt>
      <trkpt lat="42.291273" lon="-8.789265">
        <ele>167.3</ele>
        <time>1970-01-01T02:24:23.000Z</time>
      </trkpt>
      <trkpt lat="42.291272" lon="-8.789265">
        <ele>167.3</ele>
        <time>1970-01-01T02:24:24.000Z</time>
      </trkpt>
      <trkpt lat="42.291272" lon="-8.789265">
        <ele>167.3</ele>
        <time>1970-01-01T02:24:25.000Z</time>
      </trkpt>
      <trkpt lat="42.291272" lon="-8.789267">
        <ele>167.3</ele>
        <time>1970-01-01T02:24:26.000Z</time>
      </trkpt>
      <trkpt lat="42.291272" lon="-8.789267">
        <ele>167.3</ele>
        <time>1970-01-01T02:24:27.000Z</time>
      </trkpt>
      <trkpt lat="42.291272" lon="-8.789267">
        <ele>167.3</ele>
        <time>1970-01-01T02:24:28.000Z</time>
      </trkpt>
      <trkpt lat="42.291272" lon="-8.789267">
        <ele>167.3</ele>
        <time>1970-01-01T02:24:29.000Z</time>
      </trkpt>
      <trkpt lat="42.291272" lon="-8.789268">
        <ele>167.3</ele>
        <time>1970-01-01T02:24:30.000Z</time>
      </trkpt>
      <trkpt lat="42.29127" lon="-8.78927">
        <ele>167.3</ele>
        <time>1970-01-01T02:24:31.000Z</time>
      </trkpt>
      <trkpt lat="42.29127" lon="-8.78927">
        <ele>167.3</ele>
        <time>1970-01-01T02:24:32.000Z</time>
      </trkpt>
      <trkpt lat="42.29127" lon="-8.789272">
        <ele>167.3</ele>
        <time>1970-01-01T02:24:33.000Z</time>
      </trkpt>
      <trkpt lat="42.291267" lon="-8.789273">
        <ele>167.3</ele>
        <time>1970-01-01T02:24:34.000Z</time>
      </trkpt>
      <trkpt lat="42.291263" lon="-8.789273">
        <ele>167.3</ele>
        <time>1970-01-01T02:24:35.000Z</time>
      </trkpt>
      <trkpt lat="42.291263" lon="-8.789277">
        <ele>167.3</ele>
        <time>1970-01-01T02:24:36.000Z</time>
      </trkpt>
      <trkpt lat="42.291263" lon="-8.789278">
        <ele>167.3</ele>
        <time>1970-01-01T02:24:37.000Z</time>
      </trkpt>
      <trkpt lat="42.291263" lon="-8.789278">
        <ele>167.3</ele>
        <time>1970-01-01T02:24:38.000Z</time>
      </trkpt>
      <trkpt lat="42.291263" lon="-8.789278">
        <ele>167.3</ele>
        <time>1970-01-01T02:24:39.000Z</time>
      </trkpt>
      <trkpt lat="42.291262" lon="-8.789278">
        <ele>166.3</ele>
        <time>1970-01-01T02:24:40.000Z</time>
      </trkpt>
      <trkpt lat="42.291262" lon="-8.789278">
        <ele>166.3</ele>
        <time>1970-01-01T02:24:41.000Z</time>
      </trkpt>
      <trkpt lat="42.29126" lon="-8.789278">
        <ele>166.3</ele>
        <time>1970-01-01T02:24:42.000Z</time>
      </trkpt>
      <trkpt lat="42.29126" lon="-8.789278">
        <ele>166.3</ele>
        <time>1970-01-01T02:24:43.000Z</time>
      </trkpt>
      <trkpt lat="42.29126" lon="-8.789278">
        <ele>166.3</ele>
        <time>1970-01-01T02:24:44.000Z</time>
      </trkpt>
      <trkpt lat="42.291258" lon="-8.789278">
        <ele>166.3</ele>
        <time>1970-01-01T02:24:45.000Z</time>
      </trkpt>
      <trkpt lat="42.291258" lon="-8.789278">
        <ele>166.3</ele>
        <time>1970-01-01T02:24:46.000Z</time>
      </trkpt>
      <trkpt lat="42.291258" lon="-8.789278">
        <ele>166.3</ele>
        <time>1970-01-01T02:24:47.000Z</time>
      </trkpt>
      <trkpt lat="42.291258" lon="-8.789278">
        <ele>165.2</ele>
        <time>1970-01-01T02:24:48.000Z</time>
      </trkpt>
      <trkpt lat="42.291257" lon="-8.789278">
        <ele>165.2</ele>
        <time>1970-01-01T02:24:49.000Z</time>
      </trkpt>
      <trkpt lat="42.291257" lon="-8.789278">
        <ele>165.2</ele>
        <time>1970-01-01T02:24:50.000Z</time>
      </trkpt>
      <trkpt lat="42.291257" lon="-8.789278">
        <ele>165.2</ele>
        <time>1970-01-01T02:24:51.000Z</time>
      </trkpt>
      <trkpt lat="42.291255" lon="-8.789278">
        <ele>165.2</ele>
        <time>1970-01-01T02:24:52.000Z</time>
      </trkpt>
      <trkpt lat="42.291255" lon="-8.789278">
        <ele>165.2</ele>
        <time>1970-01-01T02:24:53.000Z</time>
      </trkpt>
      <trkpt lat="42.291255" lon="-8.789278">
        <ele>165.2</ele>
        <time>1970-01-01T02:24:54.000Z</time>
      </trkpt>
      <trkpt lat="42.291255" lon="-8.789278">
        <ele>165.2</ele>
        <time>1970-01-01T02:24:55.000Z</time>
      </trkpt>
      <trkpt lat="42.291255" lon="-8.789278">
        <ele>165.2</ele>
        <time>1970-01-01T02:24:56.000Z</time>
      </trkpt>
      <trkpt lat="42.291255" lon="-8.789278">
        <ele>165.2</ele>
        <time>1970-01-01T02:24:57.000Z</time>
      </trkpt>
      <trkpt lat="42.291255" lon="-8.789278">
        <ele>165.2</ele>
        <time>1970-01-01T02:24:58.000Z</time>
      </trkpt>
      <trkpt lat="42.291255" lon="-8.789278">
        <ele>165.2</ele>
        <time>1970-01-01T02:24:59.000Z</time>
      </trkpt>
      <trkpt lat="42.291255" lon="-8.789278">
        <ele>165.2</ele>
        <time>1970-01-01T02:25:00.000Z</time>
      </trkpt>
      <trkpt lat="42.291255" lon="-8.789278">
        <ele>165.2</ele>
        <time>1970-01-01T02:25:01.000Z</time>
      </trkpt>
      <trkpt lat="42.291255" lon="-8.789278">
        <ele>165.2</ele>
        <time>1970-01-01T02:25:02.000Z</time>
      </trkpt>
      <trkpt lat="42.291255" lon="-8.789278">
        <ele>165.2</ele>
        <time>1970-01-01T02:25:03.000Z</time>
      </trkpt>
      <trkpt lat="42.291255" lon="-8.789278">
        <ele>165.2</ele>
        <time>1970-01-01T02:25:04.000Z</time>
      </trkpt>
      <trkpt lat="42.291255" lon="-8.789278">
        <ele>165.2</ele>
        <time>1970-01-01T02:25:05.000Z</time>
      </trkpt>
      <trkpt lat="42.291255" lon="-8.789277">
        <ele>165.2</ele>
        <time>1970-01-01T02:25:06.000Z</time>
      </trkpt>
      <trkpt lat="42.291255" lon="-8.789277">
        <ele>165.2</ele>
        <time>1970-01-01T02:25:07.000Z</time>
      </trkpt>
      <trkpt lat="42.291255" lon="-8.789277">
        <ele>165.2</ele>
        <time>1970-01-01T02:25:08.000Z</time>
      </trkpt>
      <trkpt lat="42.291255" lon="-8.789277">
        <ele>164.3</ele>
        <time>1970-01-01T02:25:09.000Z</time>
      </trkpt>
      <trkpt lat="42.291255" lon="-8.789277">
        <ele>164.3</ele>
        <time>1970-01-01T02:25:10.000Z</time>
      </trkpt>
      <trkpt lat="42.291255" lon="-8.789277">
        <ele>164.3</ele>
        <time>1970-01-01T02:25:11.000Z</time>
      </trkpt>
      <trkpt lat="42.291255" lon="-8.789277">
        <ele>164.3</ele>
        <time>1970-01-01T02:25:12.000Z</time>
      </trkpt>
      <trkpt lat="42.291255" lon="-8.789277">
        <ele>164.3</ele>
        <time>1970-01-01T02:25:13.000Z</time>
      </trkpt>
      <trkpt lat="42.291255" lon="-8.789275">
        <ele>164.3</ele>
        <time>1970-01-01T02:25:14.000Z</time>
      </trkpt>
      <trkpt lat="42.291255" lon="-8.789275">
        <ele>164.3</ele>
        <time>1970-01-01T02:25:15.000Z</time>
      </trkpt>
      <trkpt lat="42.291255" lon="-8.789275">
        <ele>164.3</ele>
        <time>1970-01-01T02:25:16.000Z</time>
      </trkpt>
      <trkpt lat="42.291255" lon="-8.789275">
        <ele>164.3</ele>
        <time>1970-01-01T02:25:17.000Z</time>
      </trkpt>
      <trkpt lat="42.291255" lon="-8.789275">
        <ele>164.3</ele>
        <time>1970-01-01T02:25:18.000Z</time>
      </trkpt>
      <trkpt lat="42.291257" lon="-8.789275">
        <ele>164.3</ele>
        <time>1970-01-01T02:25:19.000Z</time>
      </trkpt>
      <trkpt lat="42.29126" lon="-8.789275">
        <ele>164.3</ele>
        <time>1970-01-01T02:25:20.000Z</time>
      </trkpt>
      <trkpt lat="42.29127" lon="-8.789272">
        <ele>164.3</ele>
        <time>1970-01-01T02:25:21.000Z</time>
      </trkpt>
      <trkpt lat="42.29128" lon="-8.78927">
        <ele>164.3</ele>
        <time>1970-01-01T02:25:22.000Z</time>
      </trkpt>
      <trkpt lat="42.291295" lon="-8.78927">
        <ele>164.3</ele>
        <time>1970-01-01T02:25:23.000Z</time>
      </trkpt>
      <trkpt lat="42.291312" lon="-8.789265">
        <ele>164.3</ele>
        <time>1970-01-01T02:25:24.000Z</time>
      </trkpt>
      <trkpt lat="42.291325" lon="-8.789257">
        <ele>164.3</ele>
        <time>1970-01-01T02:25:25.000Z</time>
      </trkpt>
      <trkpt lat="42.291343" lon="-8.789245">
        <ele>164.3</ele>
        <time>1970-01-01T02:25:26.000Z</time>
      </trkpt>
      <trkpt lat="42.291358" lon="-8.789233">
        <ele>164.3</ele>
        <time>1970-01-01T02:25:27.000Z</time>
      </trkpt>
      <trkpt lat="42.291377" lon="-8.789228">
        <ele>164.3</ele>
        <time>1970-01-01T02:25:28.000Z</time>
      </trkpt>
      <trkpt lat="42.291392" lon="-8.789222">
        <ele>164.3</ele>
        <time>1970-01-01T02:25:29.000Z</time>
      </trkpt>
      <trkpt lat="42.2914" lon="-8.789213">
        <ele>164.3</ele>
        <time>1970-01-01T02:25:30.000Z</time>
      </trkpt>
      <trkpt lat="42.291407" lon="-8.789202">
        <ele>164.3</ele>
        <time>1970-01-01T02:25:31.000Z</time>
      </trkpt>
      <trkpt lat="42.291418" lon="-8.789188">
        <ele>164.3</ele>
        <time>1970-01-01T02:25:32.000Z</time>
      </trkpt>
      <trkpt lat="42.291428" lon="-8.78918">
        <ele>161.2</ele>
        <time>1970-01-01T02:25:33.000Z</time>
      </trkpt>
      <trkpt lat="42.291438" lon="-8.78917">
        <ele>161.2</ele>
        <time>1970-01-01T02:25:34.000Z</time>
      </trkpt>
      <trkpt lat="42.29145" lon="-8.789155">
        <ele>161.2</ele>
        <time>1970-01-01T02:25:35.000Z</time>
      </trkpt>
      <trkpt lat="42.291463" lon="-8.789142">
        <ele>161.2</ele>
        <time>1970-01-01T02:25:36.000Z</time>
      </trkpt>
      <trkpt lat="42.291477" lon="-8.789132">
        <ele>160.3</ele>
        <time>1970-01-01T02:25:37.000Z</time>
      </trkpt>
      <trkpt lat="42.291487" lon="-8.789125">
        <ele>160.3</ele>
        <time>1970-01-01T02:25:38.000Z</time>
      </trkpt>
      <trkpt lat="42.291493" lon="-8.789122">
        <ele>160.3</ele>
        <time>1970-01-01T02:25:39.000Z</time>
      </trkpt>
      <trkpt lat="42.2915" lon="-8.789115">
        <ele>160.3</ele>
        <time>1970-01-01T02:25:40.000Z</time>
      </trkpt>
      <trkpt lat="42.29151" lon="-8.789108">
        <ele>159.3</ele>
        <time>1970-01-01T02:25:41.000Z</time>
      </trkpt>
      <trkpt lat="42.29152" lon="-8.789103">
        <ele>159.3</ele>
        <time>1970-01-01T02:25:42.000Z</time>
      </trkpt>
      <trkpt lat="42.291532" lon="-8.789098">
        <ele>159.3</ele>
        <time>1970-01-01T02:25:43.000Z</time>
      </trkpt>
      <trkpt lat="42.291547" lon="-8.789093">
        <ele>159.3</ele>
        <time>1970-01-01T02:25:44.000Z</time>
      </trkpt>
      <trkpt lat="42.291563" lon="-8.78908">
        <ele>159.3</ele>
        <time>1970-01-01T02:25:45.000Z</time>
      </trkpt>
      <trkpt lat="42.29158" lon="-8.789065">
        <ele>159.3</ele>
        <time>1970-01-01T02:25:46.000Z</time>
      </trkpt>
      <trkpt lat="42.291593" lon="-8.789063">
        <ele>159.3</ele>
        <time>1970-01-01T02:25:47.000Z</time>
      </trkpt>
      <trkpt lat="42.291607" lon="-8.789063">
        <ele>159.3</ele>
        <time>1970-01-01T02:25:48.000Z</time>
      </trkpt>
      <trkpt lat="42.29162" lon="-8.78906">
        <ele>156.2</ele>
        <time>1970-01-01T02:25:49.000Z</time>
      </trkpt>
      <trkpt lat="42.291637" lon="-8.789055">
        <ele>156.2</ele>
        <time>1970-01-01T02:25:50.000Z</time>
      </trkpt>
      <trkpt lat="42.291647" lon="-8.789057">
        <ele>155.3</ele>
        <time>1970-01-01T02:25:51.000Z</time>
      </trkpt>
      <trkpt lat="42.29165" lon="-8.789057">
        <ele>155.3</ele>
        <time>1970-01-01T02:25:52.000Z</time>
      </trkpt>
      <trkpt lat="42.29165" lon="-8.789063">
        <ele>155.3</ele>
        <time>1970-01-01T02:25:53.000Z</time>
      </trkpt>
      <trkpt lat="42.291653" lon="-8.789068">
        <ele>155.3</ele>
        <time>1970-01-01T02:25:54.000Z</time>
      </trkpt>
      <trkpt lat="42.291663" lon="-8.789072">
        <ele>155.3</ele>
        <time>1970-01-01T02:25:55.000Z</time>
      </trkpt>
      <trkpt lat="42.29168" lon="-8.78907">
        <ele>155.3</ele>
        <time>1970-01-01T02:25:56.000Z</time>
      </trkpt>
      <trkpt lat="42.291695" lon="-8.789067">
        <ele>155.3</ele>
        <time>1970-01-01T02:25:57.000Z</time>
      </trkpt>
      <trkpt lat="42.29171" lon="-8.789063">
        <ele>155.3</ele>
        <time>1970-01-01T02:25:58.000Z</time>
      </trkpt>
      <trkpt lat="42.291718" lon="-8.789065">
        <ele>154.2</ele>
        <time>1970-01-01T02:25:59.000Z</time>
      </trkpt>
      <trkpt lat="42.291727" lon="-8.789068">
        <ele>154.2</ele>
        <time>1970-01-01T02:26:00.000Z</time>
      </trkpt>
      <trkpt lat="42.291737" lon="-8.78907">
        <ele>154.2</ele>
        <time>1970-01-01T02:26:01.000Z</time>
      </trkpt>
      <trkpt lat="42.29175" lon="-8.789068">
        <ele>154.2</ele>
        <time>1970-01-01T02:26:02.000Z</time>
      </trkpt>
      <trkpt lat="42.291763" lon="-8.789063">
        <ele>154.2</ele>
        <time>1970-01-01T02:26:03.000Z</time>
      </trkpt>
      <trkpt lat="42.291775" lon="-8.78906">
        <ele>154.2</ele>
        <time>1970-01-01T02:26:04.000Z</time>
      </trkpt>
      <trkpt lat="42.291788" lon="-8.789055">
        <ele>153.3</ele>
        <time>1970-01-01T02:26:05.000Z</time>
      </trkpt>
      <trkpt lat="42.2918" lon="-8.789048">
        <ele>153.3</ele>
        <time>1970-01-01T02:26:06.000Z</time>
      </trkpt>
      <trkpt lat="42.291812" lon="-8.789045">
        <ele>153.3</ele>
        <time>1970-01-01T02:26:07.000Z</time>
      </trkpt>
      <trkpt lat="42.291823" lon="-8.789042">
        <ele>153.3</ele>
        <time>1970-01-01T02:26:08.000Z</time>
      </trkpt>
      <trkpt lat="42.291835" lon="-8.789035">
        <ele>153.3</ele>
        <time>1970-01-01T02:26:09.000Z</time>
      </trkpt>
      <trkpt lat="42.291848" lon="-8.789027">
        <ele>153.3</ele>
        <time>1970-01-01T02:26:10.000Z</time>
      </trkpt>
      <trkpt lat="42.291862" lon="-8.78902">
        <ele>152.2</ele>
        <time>1970-01-01T02:26:11.000Z</time>
      </trkpt>
      <trkpt lat="42.291872" lon="-8.789017">
        <ele>152.2</ele>
        <time>1970-01-01T02:26:12.000Z</time>
      </trkpt>
      <trkpt lat="42.291888" lon="-8.789008">
        <ele>151.3</ele>
        <time>1970-01-01T02:26:13.000Z</time>
      </trkpt>
      <trkpt lat="42.291898" lon="-8.789002">
        <ele>151.3</ele>
        <time>1970-01-01T02:26:14.000Z</time>
      </trkpt>
      <trkpt lat="42.291908" lon="-8.788993">
        <ele>151.3</ele>
        <time>1970-01-01T02:26:15.000Z</time>
      </trkpt>
      <trkpt lat="42.29192" lon="-8.788983">
        <ele>151.3</ele>
        <time>1970-01-01T02:26:16.000Z</time>
      </trkpt>
      <trkpt lat="42.291937" lon="-8.788967">
        <ele>151.3</ele>
        <time>1970-01-01T02:26:17.000Z</time>
      </trkpt>
      <trkpt lat="42.291952" lon="-8.788957">
        <ele>151.3</ele>
        <time>1970-01-01T02:26:18.000Z</time>
      </trkpt>
      <trkpt lat="42.29196" lon="-8.788952">
        <ele>151.3</ele>
        <time>1970-01-01T02:26:19.000Z</time>
      </trkpt>
      <trkpt lat="42.291955" lon="-8.788948">
        <ele>151.3</ele>
        <time>1970-01-01T02:26:20.000Z</time>
      </trkpt>
      <trkpt lat="42.291955" lon="-8.78894">
        <ele>151.3</ele>
        <time>1970-01-01T02:26:21.000Z</time>
      </trkpt>
      <trkpt lat="42.291957" lon="-8.788938">
        <ele>151.3</ele>
        <time>1970-01-01T02:26:22.000Z</time>
      </trkpt>
      <trkpt lat="42.291958" lon="-8.788937">
        <ele>151.3</ele>
        <time>1970-01-01T02:26:23.000Z</time>
      </trkpt>
      <trkpt lat="42.291963" lon="-8.788937">
        <ele>151.3</ele>
        <time>1970-01-01T02:26:24.000Z</time>
      </trkpt>
      <trkpt lat="42.291972" lon="-8.788933">
        <ele>150.3</ele>
        <time>1970-01-01T02:26:25.000Z</time>
      </trkpt>
      <trkpt lat="42.29198" lon="-8.788927">
        <ele>150.3</ele>
        <time>1970-01-01T02:26:26.000Z</time>
      </trkpt>
      <trkpt lat="42.291988" lon="-8.788922">
        <ele>150.3</ele>
        <time>1970-01-01T02:26:27.000Z</time>
      </trkpt>
      <trkpt lat="42.291998" lon="-8.78892">
        <ele>150.3</ele>
        <time>1970-01-01T02:26:28.000Z</time>
      </trkpt>
      <trkpt lat="42.292007" lon="-8.788923">
        <ele>150.3</ele>
        <time>1970-01-01T02:26:29.000Z</time>
      </trkpt>
      <trkpt lat="42.292015" lon="-8.788922">
        <ele>150.3</ele>
        <time>1970-01-01T02:26:30.000Z</time>
      </trkpt>
      <trkpt lat="42.292018" lon="-8.78892">
        <ele>150.3</ele>
        <time>1970-01-01T02:26:31.000Z</time>
      </trkpt>
      <trkpt lat="42.29202" lon="-8.788918">
        <ele>150.3</ele>
        <time>1970-01-01T02:26:32.000Z</time>
      </trkpt>
      <trkpt lat="42.292007" lon="-8.788928">
        <ele>150.3</ele>
        <time>1970-01-01T02:26:33.000Z</time>
      </trkpt>
      <trkpt lat="42.292002" lon="-8.788925">
        <ele>150.3</ele>
        <time>1970-01-01T02:26:34.000Z</time>
      </trkpt>
      <trkpt lat="42.292008" lon="-8.788927">
        <ele>150.3</ele>
        <time>1970-01-01T02:26:35.000Z</time>
      </trkpt>
      <trkpt lat="42.292018" lon="-8.78893">
        <ele>150.3</ele>
        <time>1970-01-01T02:26:36.000Z</time>
      </trkpt>
      <trkpt lat="42.292033" lon="-8.788927">
        <ele>150.3</ele>
        <time>1970-01-01T02:26:37.000Z</time>
      </trkpt>
      <trkpt lat="42.29205" lon="-8.788922">
        <ele>150.3</ele>
        <time>1970-01-01T02:26:38.000Z</time>
      </trkpt>
      <trkpt lat="42.29206" lon="-8.788912">
        <ele>150.3</ele>
        <time>1970-01-01T02:26:39.000Z</time>
      </trkpt>
      <trkpt lat="42.292068" lon="-8.788912">
        <ele>150.3</ele>
        <time>1970-01-01T02:26:40.000Z</time>
      </trkpt>
      <trkpt lat="42.292077" lon="-8.788912">
        <ele>150.3</ele>
        <time>1970-01-01T02:26:41.000Z</time>
      </trkpt>
      <trkpt lat="42.29208" lon="-8.788912">
        <ele>150.3</ele>
        <time>1970-01-01T02:26:42.000Z</time>
      </trkpt>
      <trkpt lat="42.292083" lon="-8.78891">
        <ele>150.3</ele>
        <time>1970-01-01T02:26:43.000Z</time>
      </trkpt>
      <trkpt lat="42.292085" lon="-8.78891">
        <ele>150.3</ele>
        <time>1970-01-01T02:26:44.000Z</time>
      </trkpt>
      <trkpt lat="42.292088" lon="-8.788918">
        <ele>150.3</ele>
        <time>1970-01-01T02:26:45.000Z</time>
      </trkpt>
      <trkpt lat="42.292102" lon="-8.788922">
        <ele>150.3</ele>
        <time>1970-01-01T02:26:46.000Z</time>
      </trkpt>
      <trkpt lat="42.29212" lon="-8.788917">
        <ele>150.3</ele>
        <time>1970-01-01T02:26:47.000Z</time>
      </trkpt>
      <trkpt lat="42.292138" lon="-8.788913">
        <ele>150.3</ele>
        <time>1970-01-01T02:26:48.000Z</time>
      </trkpt>
      <trkpt lat="42.29216" lon="-8.788908">
        <ele>150.3</ele>
        <time>1970-01-01T02:26:49.000Z</time>
      </trkpt>
      <trkpt lat="42.29218" lon="-8.788897">
        <ele>150.3</ele>
        <time>1970-01-01T02:26:50.000Z</time>
      </trkpt>
      <trkpt lat="42.29218" lon="-8.788897">
        <ele>150.3</ele>
        <time>1970-01-01T02:26:51.000Z</time>
      </trkpt>
      <trkpt lat="42.292212" lon="-8.788887">
        <ele>150.3</ele>
        <time>1970-01-01T02:26:52.000Z</time>
      </trkpt>
      <trkpt lat="42.292227" lon="-8.788883">
        <ele>150.3</ele>
        <time>1970-01-01T02:26:53.000Z</time>
      </trkpt>
      <trkpt lat="42.29224" lon="-8.788883">
        <ele>150.3</ele>
        <time>1970-01-01T02:26:54.000Z</time>
      </trkpt>
      <trkpt lat="42.29225" lon="-8.788888">
        <ele>150.3</ele>
        <time>1970-01-01T02:26:55.000Z</time>
      </trkpt>
      <trkpt lat="42.292258" lon="-8.788895">
        <ele>150.3</ele>
        <time>1970-01-01T02:26:56.000Z</time>
      </trkpt>
      <trkpt lat="42.292267" lon="-8.788897">
        <ele>150.3</ele>
        <time>1970-01-01T02:26:57.000Z</time>
      </trkpt>
      <trkpt lat="42.292277" lon="-8.788893">
        <ele>150.3</ele>
        <time>1970-01-01T02:26:58.000Z</time>
      </trkpt>
      <trkpt lat="42.292288" lon="-8.788893">
        <ele>150.3</ele>
        <time>1970-01-01T02:26:59.000Z</time>
      </trkpt>
      <trkpt lat="42.292303" lon="-8.788892">
        <ele>150.3</ele>
        <time>1970-01-01T02:27:00.000Z</time>
      </trkpt>
      <trkpt lat="42.292318" lon="-8.788888">
        <ele>150.3</ele>
        <time>1970-01-01T02:27:01.000Z</time>
      </trkpt>
      <trkpt lat="42.292333" lon="-8.788887">
        <ele>150.3</ele>
        <time>1970-01-01T02:27:02.000Z</time>
      </trkpt>
      <trkpt lat="42.29235" lon="-8.788883">
        <ele>150.3</ele>
        <time>1970-01-01T02:27:03.000Z</time>
      </trkpt>
      <trkpt lat="42.292365" lon="-8.788883">
        <ele>150.3</ele>
        <time>1970-01-01T02:27:04.000Z</time>
      </trkpt>
      <trkpt lat="42.292377" lon="-8.788882">
        <ele>150.3</ele>
        <time>1970-01-01T02:27:05.000Z</time>
      </trkpt>
      <trkpt lat="42.292392" lon="-8.788875">
        <ele>150.3</ele>
        <time>1970-01-01T02:27:06.000Z</time>
      </trkpt>
      <trkpt lat="42.29241" lon="-8.788875">
        <ele>149.2</ele>
        <time>1970-01-01T02:27:07.000Z</time>
      </trkpt>
      <trkpt lat="42.292427" lon="-8.788873">
        <ele>149.2</ele>
        <time>1970-01-01T02:27:08.000Z</time>
      </trkpt>
      <trkpt lat="42.292445" lon="-8.788875">
        <ele>149.2</ele>
        <time>1970-01-01T02:27:09.000Z</time>
      </trkpt>
      <trkpt lat="42.29246" lon="-8.78888">
        <ele>149.2</ele>
        <time>1970-01-01T02:27:10.000Z</time>
      </trkpt>
      <trkpt lat="42.292472" lon="-8.788883">
        <ele>148.3</ele>
        <time>1970-01-01T02:27:11.000Z</time>
      </trkpt>
      <trkpt lat="42.292488" lon="-8.788883">
        <ele>148.3</ele>
        <time>1970-01-01T02:27:12.000Z</time>
      </trkpt>
      <trkpt lat="42.292505" lon="-8.788882">
        <ele>148.3</ele>
        <time>1970-01-01T02:27:13.000Z</time>
      </trkpt>
      <trkpt lat="42.292517" lon="-8.78888">
        <ele>148.3</ele>
        <time>1970-01-01T02:27:14.000Z</time>
      </trkpt>
      <trkpt lat="42.292517" lon="-8.78888">
        <ele>148.3</ele>
        <time>1970-01-01T02:27:15.000Z</time>
      </trkpt>
      <trkpt lat="42.292542" lon="-8.788877">
        <ele>148.3</ele>
        <time>1970-01-01T02:27:16.000Z</time>
      </trkpt>
      <trkpt lat="42.292552" lon="-8.788873">
        <ele>148.3</ele>
        <time>1970-01-01T02:27:17.000Z</time>
      </trkpt>
      <trkpt lat="42.292565" lon="-8.788872">
        <ele>148.3</ele>
        <time>1970-01-01T02:27:18.000Z</time>
      </trkpt>
      <trkpt lat="42.29258" lon="-8.788868">
        <ele>149.2</ele>
        <time>1970-01-01T02:27:19.000Z</time>
      </trkpt>
      <trkpt lat="42.292592" lon="-8.788868">
        <ele>149.2</ele>
        <time>1970-01-01T02:27:20.000Z</time>
      </trkpt>
      <trkpt lat="42.292605" lon="-8.788873">
        <ele>149.2</ele>
        <time>1970-01-01T02:27:21.000Z</time>
      </trkpt>
      <trkpt lat="42.292617" lon="-8.788878">
        <ele>149.2</ele>
        <time>1970-01-01T02:27:22.000Z</time>
      </trkpt>
      <trkpt lat="42.292628" lon="-8.78888">
        <ele>149.2</ele>
        <time>1970-01-01T02:27:23.000Z</time>
      </trkpt>
      <trkpt lat="42.29264" lon="-8.78888">
        <ele>149.2</ele>
        <time>1970-01-01T02:27:24.000Z</time>
      </trkpt>
      <trkpt lat="42.292655" lon="-8.788883">
        <ele>149.2</ele>
        <time>1970-01-01T02:27:25.000Z</time>
      </trkpt>
      <trkpt lat="42.292672" lon="-8.78888">
        <ele>149.2</ele>
        <time>1970-01-01T02:27:26.000Z</time>
      </trkpt>
      <trkpt lat="42.292683" lon="-8.788883">
        <ele>149.2</ele>
        <time>1970-01-01T02:27:27.000Z</time>
      </trkpt>
      <trkpt lat="42.292697" lon="-8.788892">
        <ele>149.2</ele>
        <time>1970-01-01T02:27:28.000Z</time>
      </trkpt>
      <trkpt lat="42.29271" lon="-8.788898">
        <ele>149.2</ele>
        <time>1970-01-01T02:27:29.000Z</time>
      </trkpt>
      <trkpt lat="42.292723" lon="-8.7889">
        <ele>149.2</ele>
        <time>1970-01-01T02:27:30.000Z</time>
      </trkpt>
      <trkpt lat="42.292733" lon="-8.788905">
        <ele>149.2</ele>
        <time>1970-01-01T02:27:31.000Z</time>
      </trkpt>
      <trkpt lat="42.292742" lon="-8.78891">
        <ele>149.2</ele>
        <time>1970-01-01T02:27:32.000Z</time>
      </trkpt>
      <trkpt lat="42.29275" lon="-8.788917">
        <ele>149.2</ele>
        <time>1970-01-01T02:27:33.000Z</time>
      </trkpt>
      <trkpt lat="42.292755" lon="-8.788927">
        <ele>149.2</ele>
        <time>1970-01-01T02:27:34.000Z</time>
      </trkpt>
      <trkpt lat="42.29276" lon="-8.788932">
        <ele>150.3</ele>
        <time>1970-01-01T02:27:35.000Z</time>
      </trkpt>
      <trkpt lat="42.292767" lon="-8.788937">
        <ele>150.3</ele>
        <time>1970-01-01T02:27:36.000Z</time>
      </trkpt>
      <trkpt lat="42.29277" lon="-8.788957">
        <ele>150.3</ele>
        <time>1970-01-01T02:27:37.000Z</time>
      </trkpt>
      <trkpt lat="42.292775" lon="-8.78897">
        <ele>150.3</ele>
        <time>1970-01-01T02:27:38.000Z</time>
      </trkpt>
      <trkpt lat="42.292785" lon="-8.788982">
        <ele>150.3</ele>
        <time>1970-01-01T02:27:39.000Z</time>
      </trkpt>
      <trkpt lat="42.292793" lon="-8.788997">
        <ele>150.3</ele>
        <time>1970-01-01T02:27:40.000Z</time>
      </trkpt>
      <trkpt lat="42.292798" lon="-8.789012">
        <ele>150.3</ele>
        <time>1970-01-01T02:27:41.000Z</time>
      </trkpt>
      <trkpt lat="42.292803" lon="-8.789028">
        <ele>150.3</ele>
        <time>1970-01-01T02:27:42.000Z</time>
      </trkpt>
      <trkpt lat="42.292812" lon="-8.789032">
        <ele>151.3</ele>
        <time>1970-01-01T02:27:43.000Z</time>
      </trkpt>
      <trkpt lat="42.292823" lon="-8.789048">
        <ele>151.3</ele>
        <time>1970-01-01T02:27:44.000Z</time>
      </trkpt>
      <trkpt lat="42.29283" lon="-8.789057">
        <ele>151.3</ele>
        <time>1970-01-01T02:27:45.000Z</time>
      </trkpt>
      <trkpt lat="42.29284" lon="-8.789068">
        <ele>151.3</ele>
        <time>1970-01-01T02:27:46.000Z</time>
      </trkpt>
      <trkpt lat="42.292847" lon="-8.789078">
        <ele>151.3</ele>
        <time>1970-01-01T02:27:47.000Z</time>
      </trkpt>
      <trkpt lat="42.29285" lon="-8.78909">
        <ele>151.3</ele>
        <time>1970-01-01T02:27:48.000Z</time>
      </trkpt>
      <trkpt lat="42.292853" lon="-8.789097">
        <ele>152.2</ele>
        <time>1970-01-01T02:27:49.000Z</time>
      </trkpt>
      <trkpt lat="42.292855" lon="-8.78911">
        <ele>152.2</ele>
        <time>1970-01-01T02:27:50.000Z</time>
      </trkpt>
      <trkpt lat="42.292853" lon="-8.789123">
        <ele>152.2</ele>
        <time>1970-01-01T02:27:51.000Z</time>
      </trkpt>
      <trkpt lat="42.292857" lon="-8.789137">
        <ele>152.2</ele>
        <time>1970-01-01T02:27:52.000Z</time>
      </trkpt>
      <trkpt lat="42.292865" lon="-8.789152">
        <ele>152.2</ele>
        <time>1970-01-01T02:27:53.000Z</time>
      </trkpt>
      <trkpt lat="42.292875" lon="-8.789163">
        <ele>152.2</ele>
        <time>1970-01-01T02:27:54.000Z</time>
      </trkpt>
      <trkpt lat="42.292888" lon="-8.78917">
        <ele>152.2</ele>
        <time>1970-01-01T02:27:55.000Z</time>
      </trkpt>
      <trkpt lat="42.292895" lon="-8.789177">
        <ele>152.2</ele>
        <time>1970-01-01T02:27:56.000Z</time>
      </trkpt>
      <trkpt lat="42.292902" lon="-8.789182">
        <ele>152.2</ele>
        <time>1970-01-01T02:27:57.000Z</time>
      </trkpt>
      <trkpt lat="42.292907" lon="-8.789183">
        <ele>152.2</ele>
        <time>1970-01-01T02:27:58.000Z</time>
      </trkpt>
      <trkpt lat="42.292915" lon="-8.789185">
        <ele>152.2</ele>
        <time>1970-01-01T02:27:59.000Z</time>
      </trkpt>
      <trkpt lat="42.292922" lon="-8.78919">
        <ele>152.2</ele>
        <time>1970-01-01T02:28:00.000Z</time>
      </trkpt>
      <trkpt lat="42.292932" lon="-8.789203">
        <ele>152.2</ele>
        <time>1970-01-01T02:28:01.000Z</time>
      </trkpt>
      <trkpt lat="42.292938" lon="-8.789213">
        <ele>152.2</ele>
        <time>1970-01-01T02:28:02.000Z</time>
      </trkpt>
      <trkpt lat="42.29295" lon="-8.789215">
        <ele>152.2</ele>
        <time>1970-01-01T02:28:03.000Z</time>
      </trkpt>
      <trkpt lat="42.29296" lon="-8.789223">
        <ele>152.2</ele>
        <time>1970-01-01T02:28:04.000Z</time>
      </trkpt>
      <trkpt lat="42.292967" lon="-8.789228">
        <ele>152.2</ele>
        <time>1970-01-01T02:28:05.000Z</time>
      </trkpt>
      <trkpt lat="42.292975" lon="-8.78922">
        <ele>152.2</ele>
        <time>1970-01-01T02:28:06.000Z</time>
      </trkpt>
      <trkpt lat="42.292982" lon="-8.789205">
        <ele>152.2</ele>
        <time>1970-01-01T02:28:07.000Z</time>
      </trkpt>
      <trkpt lat="42.292982" lon="-8.789205">
        <ele>152.2</ele>
        <time>1970-01-01T02:28:08.000Z</time>
      </trkpt>
      <trkpt lat="42.292987" lon="-8.789192">
        <ele>152.2</ele>
        <time>1970-01-01T02:28:09.000Z</time>
      </trkpt>
      <trkpt lat="42.29299" lon="-8.7892">
        <ele>152.2</ele>
        <time>1970-01-01T02:28:10.000Z</time>
      </trkpt>
      <trkpt lat="42.292992" lon="-8.789212">
        <ele>152.2</ele>
        <time>1970-01-01T02:28:11.000Z</time>
      </trkpt>
      <trkpt lat="42.292995" lon="-8.789225">
        <ele>152.2</ele>
        <time>1970-01-01T02:28:12.000Z</time>
      </trkpt>
      <trkpt lat="42.292998" lon="-8.789237">
        <ele>152.2</ele>
        <time>1970-01-01T02:28:13.000Z</time>
      </trkpt>
      <trkpt lat="42.293" lon="-8.789245">
        <ele>152.2</ele>
        <time>1970-01-01T02:28:14.000Z</time>
      </trkpt>
      <trkpt lat="42.293002" lon="-8.789248">
        <ele>152.2</ele>
        <time>1970-01-01T02:28:15.000Z</time>
      </trkpt>
      <trkpt lat="42.293003" lon="-8.789248">
        <ele>152.2</ele>
        <time>1970-01-01T02:28:16.000Z</time>
      </trkpt>
      <trkpt lat="42.293003" lon="-8.789247">
        <ele>152.2</ele>
        <time>1970-01-01T02:28:17.000Z</time>
      </trkpt>
      <trkpt lat="42.293005" lon="-8.789243">
        <ele>152.2</ele>
        <time>1970-01-01T02:28:18.000Z</time>
      </trkpt>
      <trkpt lat="42.293005" lon="-8.789242">
        <ele>152.2</ele>
        <time>1970-01-01T02:28:19.000Z</time>
      </trkpt>
      <trkpt lat="42.293005" lon="-8.789243">
        <ele>152.2</ele>
        <time>1970-01-01T02:28:20.000Z</time>
      </trkpt>
      <trkpt lat="42.293005" lon="-8.789245">
        <ele>152.2</ele>
        <time>1970-01-01T02:28:21.000Z</time>
      </trkpt>
      <trkpt lat="42.293005" lon="-8.789245">
        <ele>152.2</ele>
        <time>1970-01-01T02:28:22.000Z</time>
      </trkpt>
      <trkpt lat="42.293005" lon="-8.789245">
        <ele>152.2</ele>
        <time>1970-01-01T02:28:23.000Z</time>
      </trkpt>
      <trkpt lat="42.293005" lon="-8.789245">
        <ele>152.2</ele>
        <time>1970-01-01T02:28:24.000Z</time>
      </trkpt>
      <trkpt lat="42.293005" lon="-8.789245">
        <ele>153.3</ele>
        <time>1970-01-01T02:28:25.000Z</time>
      </trkpt>
      <trkpt lat="42.293005" lon="-8.789245">
        <ele>153.3</ele>
        <time>1970-01-01T02:28:26.000Z</time>
      </trkpt>
      <trkpt lat="42.293005" lon="-8.789245">
        <ele>154.2</ele>
        <time>1970-01-01T02:28:27.000Z</time>
      </trkpt>
      <trkpt lat="42.293005" lon="-8.789245">
        <ele>154.2</ele>
        <time>1970-01-01T02:28:28.000Z</time>
      </trkpt>
      <trkpt lat="42.293005" lon="-8.789245">
        <ele>154.2</ele>
        <time>1970-01-01T02:28:29.000Z</time>
      </trkpt>
      <trkpt lat="42.293005" lon="-8.789245">
        <ele>154.2</ele>
        <time>1970-01-01T02:28:30.000Z</time>
      </trkpt>
      <trkpt lat="42.293005" lon="-8.789245">
        <ele>154.2</ele>
        <time>1970-01-01T02:28:31.000Z</time>
      </trkpt>
      <trkpt lat="42.293005" lon="-8.789245">
        <ele>154.2</ele>
        <time>1970-01-01T02:28:32.000Z</time>
      </trkpt>
      <trkpt lat="42.293005" lon="-8.789245">
        <ele>155.3</ele>
        <time>1970-01-01T02:28:33.000Z</time>
      </trkpt>
      <trkpt lat="42.293005" lon="-8.789247">
        <ele>155.3</ele>
        <time>1970-01-01T02:28:34.000Z</time>
      </trkpt>
      <trkpt lat="42.293005" lon="-8.789247">
        <ele>155.3</ele>
        <time>1970-01-01T02:28:35.000Z</time>
      </trkpt>
      <trkpt lat="42.293008" lon="-8.789257">
        <ele>155.3</ele>
        <time>1970-01-01T02:28:36.000Z</time>
      </trkpt>
      <trkpt lat="42.29302" lon="-8.789287">
        <ele>155.3</ele>
        <time>1970-01-01T02:28:37.000Z</time>
      </trkpt>
      <trkpt lat="42.293033" lon="-8.789313">
        <ele>155.3</ele>
        <time>1970-01-01T02:28:38.000Z</time>
      </trkpt>
      <trkpt lat="42.293048" lon="-8.789338">
        <ele>155.3</ele>
        <time>1970-01-01T02:28:39.000Z</time>
      </trkpt>
      <trkpt lat="42.293063" lon="-8.789362">
        <ele>155.3</ele>
        <time>1970-01-01T02:28:40.000Z</time>
      </trkpt>
      <trkpt lat="42.293082" lon="-8.789382">
        <ele>155.3</ele>
        <time>1970-01-01T02:28:41.000Z</time>
      </trkpt>
      <trkpt lat="42.293097" lon="-8.789407">
        <ele>155.3</ele>
        <time>1970-01-01T02:28:42.000Z</time>
      </trkpt>
      <trkpt lat="42.293108" lon="-8.789428">
        <ele>154.2</ele>
        <time>1970-01-01T02:28:43.000Z</time>
      </trkpt>
      <trkpt lat="42.29312" lon="-8.789453">
        <ele>154.2</ele>
        <time>1970-01-01T02:28:44.000Z</time>
      </trkpt>
      <trkpt lat="42.29313" lon="-8.789475">
        <ele>154.2</ele>
        <time>1970-01-01T02:28:45.000Z</time>
      </trkpt>
      <trkpt lat="42.293135" lon="-8.789487">
        <ele>154.2</ele>
        <time>1970-01-01T02:28:46.000Z</time>
      </trkpt>
      <trkpt lat="42.29314" lon="-8.789497">
        <ele>153.3</ele>
        <time>1970-01-01T02:28:47.000Z</time>
      </trkpt>
      <trkpt lat="42.293147" lon="-8.789503">
        <ele>153.3</ele>
        <time>1970-01-01T02:28:48.000Z</time>
      </trkpt>
      <trkpt lat="42.293152" lon="-8.789515">
        <ele>153.3</ele>
        <time>1970-01-01T02:28:49.000Z</time>
      </trkpt>
      <trkpt lat="42.293158" lon="-8.789528">
        <ele>153.3</ele>
        <time>1970-01-01T02:28:50.000Z</time>
      </trkpt>
      <trkpt lat="42.293165" lon="-8.789542">
        <ele>153.3</ele>
        <time>1970-01-01T02:28:51.000Z</time>
      </trkpt>
      <trkpt lat="42.293168" lon="-8.789555">
        <ele>153.3</ele>
        <time>1970-01-01T02:28:52.000Z</time>
      </trkpt>
      <trkpt lat="42.293172" lon="-8.789565">
        <ele>152.2</ele>
        <time>1970-01-01T02:28:53.000Z</time>
      </trkpt>
      <trkpt lat="42.293178" lon="-8.789575">
        <ele>152.2</ele>
        <time>1970-01-01T02:28:54.000Z</time>
      </trkpt>
      <trkpt lat="42.293185" lon="-8.789582">
        <ele>152.2</ele>
        <time>1970-01-01T02:28:55.000Z</time>
      </trkpt>
      <trkpt lat="42.293185" lon="-8.789582">
        <ele>152.2</ele>
        <time>1970-01-01T02:28:56.000Z</time>
      </trkpt>
      <trkpt lat="42.293192" lon="-8.789597">
        <ele>152.2</ele>
        <time>1970-01-01T02:28:57.000Z</time>
      </trkpt>
      <trkpt lat="42.293193" lon="-8.789603">
        <ele>152.2</ele>
        <time>1970-01-01T02:28:58.000Z</time>
      </trkpt>
      <trkpt lat="42.293197" lon="-8.789612">
        <ele>152.2</ele>
        <time>1970-01-01T02:28:59.000Z</time>
      </trkpt>
      <trkpt lat="42.293207" lon="-8.789622">
        <ele>152.2</ele>
        <time>1970-01-01T02:29:00.000Z</time>
      </trkpt>
      <trkpt lat="42.29322" lon="-8.789632">
        <ele>151.3</ele>
        <time>1970-01-01T02:29:01.000Z</time>
      </trkpt>
      <trkpt lat="42.293235" lon="-8.789643">
        <ele>151.3</ele>
        <time>1970-01-01T02:29:02.000Z</time>
      </trkpt>
      <trkpt lat="42.293243" lon="-8.789655">
        <ele>151.3</ele>
        <time>1970-01-01T02:29:03.000Z</time>
      </trkpt>
      <trkpt lat="42.293262" lon="-8.78967">
        <ele>151.3</ele>
        <time>1970-01-01T02:29:04.000Z</time>
      </trkpt>
      <trkpt lat="42.293272" lon="-8.789692">
        <ele>150.3</ele>
        <time>1970-01-01T02:29:05.000Z</time>
      </trkpt>
      <trkpt lat="42.293282" lon="-8.789712">
        <ele>150.3</ele>
        <time>1970-01-01T02:29:06.000Z</time>
      </trkpt>
      <trkpt lat="42.293288" lon="-8.78973">
        <ele>150.3</ele>
        <time>1970-01-01T02:29:07.000Z</time>
      </trkpt>
      <trkpt lat="42.293295" lon="-8.789743">
        <ele>150.3</ele>
        <time>1970-01-01T02:29:08.000Z</time>
      </trkpt>
      <trkpt lat="42.2933" lon="-8.789767">
        <ele>150.3</ele>
        <time>1970-01-01T02:29:09.000Z</time>
      </trkpt>
      <trkpt lat="42.29331" lon="-8.789792">
        <ele>150.3</ele>
        <time>1970-01-01T02:29:10.000Z</time>
      </trkpt>
      <trkpt lat="42.29332" lon="-8.789803">
        <ele>149.2</ele>
        <time>1970-01-01T02:29:11.000Z</time>
      </trkpt>
      <trkpt lat="42.293327" lon="-8.789815">
        <ele>149.2</ele>
        <time>1970-01-01T02:29:12.000Z</time>
      </trkpt>
      <trkpt lat="42.293332" lon="-8.789822">
        <ele>149.2</ele>
        <time>1970-01-01T02:29:13.000Z</time>
      </trkpt>
      <trkpt lat="42.29334" lon="-8.78984">
        <ele>149.2</ele>
        <time>1970-01-01T02:29:14.000Z</time>
      </trkpt>
      <trkpt lat="42.29334" lon="-8.789863">
        <ele>148.3</ele>
        <time>1970-01-01T02:29:15.000Z</time>
      </trkpt>
      <trkpt lat="42.293345" lon="-8.789878">
        <ele>148.3</ele>
        <time>1970-01-01T02:29:16.000Z</time>
      </trkpt>
      <trkpt lat="42.293352" lon="-8.789883">
        <ele>148.3</ele>
        <time>1970-01-01T02:29:17.000Z</time>
      </trkpt>
      <trkpt lat="42.293362" lon="-8.789885">
        <ele>148.3</ele>
        <time>1970-01-01T02:29:18.000Z</time>
      </trkpt>
      <trkpt lat="42.293373" lon="-8.789897">
        <ele>148.3</ele>
        <time>1970-01-01T02:29:19.000Z</time>
      </trkpt>
      <trkpt lat="42.293383" lon="-8.789903">
        <ele>148.3</ele>
        <time>1970-01-01T02:29:20.000Z</time>
      </trkpt>
      <trkpt lat="42.293395" lon="-8.789912">
        <ele>147.2</ele>
        <time>1970-01-01T02:29:21.000Z</time>
      </trkpt>
      <trkpt lat="42.293402" lon="-8.789927">
        <ele>147.2</ele>
        <time>1970-01-01T02:29:22.000Z</time>
      </trkpt>
      <trkpt lat="42.293405" lon="-8.789943">
        <ele>147.2</ele>
        <time>1970-01-01T02:29:23.000Z</time>
      </trkpt>
      <trkpt lat="42.29341" lon="-8.789958">
        <ele>147.2</ele>
        <time>1970-01-01T02:29:24.000Z</time>
      </trkpt>
      <trkpt lat="42.29341" lon="-8.789958">
        <ele>147.2</ele>
        <time>1970-01-01T02:29:25.000Z</time>
      </trkpt>
      <trkpt lat="42.293427" lon="-8.789992">
        <ele>147.2</ele>
        <time>1970-01-01T02:29:26.000Z</time>
      </trkpt>
      <trkpt lat="42.293432" lon="-8.789995">
        <ele>146.3</ele>
        <time>1970-01-01T02:29:27.000Z</time>
      </trkpt>
      <trkpt lat="42.293433" lon="-8.790008">
        <ele>146.3</ele>
        <time>1970-01-01T02:29:28.000Z</time>
      </trkpt>
      <trkpt lat="42.29344" lon="-8.790018">
        <ele>146.3</ele>
        <time>1970-01-01T02:29:29.000Z</time>
      </trkpt>
      <trkpt lat="42.293455" lon="-8.79003">
        <ele>146.3</ele>
        <time>1970-01-01T02:29:30.000Z</time>
      </trkpt>
      <trkpt lat="42.293467" lon="-8.790047">
        <ele>146.3</ele>
        <time>1970-01-01T02:29:31.000Z</time>
      </trkpt>
      <trkpt lat="42.29348" lon="-8.790073">
        <ele>146.3</ele>
        <time>1970-01-01T02:29:32.000Z</time>
      </trkpt>
      <trkpt lat="42.293492" lon="-8.790095">
        <ele>146.3</ele>
        <time>1970-01-01T02:29:33.000Z</time>
      </trkpt>
      <trkpt lat="42.29351" lon="-8.790115">
        <ele>146.3</ele>
        <time>1970-01-01T02:29:34.000Z</time>
      </trkpt>
      <trkpt lat="42.29352" lon="-8.790125">
        <ele>146.3</ele>
        <time>1970-01-01T02:29:35.000Z</time>
      </trkpt>
      <trkpt lat="42.293528" lon="-8.790133">
        <ele>146.3</ele>
        <time>1970-01-01T02:29:36.000Z</time>
      </trkpt>
      <trkpt lat="42.293532" lon="-8.790142">
        <ele>145.2</ele>
        <time>1970-01-01T02:29:37.000Z</time>
      </trkpt>
      <trkpt lat="42.293535" lon="-8.790157">
        <ele>145.2</ele>
        <time>1970-01-01T02:29:38.000Z</time>
      </trkpt>
      <trkpt lat="42.293538" lon="-8.79017">
        <ele>144.3</ele>
        <time>1970-01-01T02:29:39.000Z</time>
      </trkpt>
      <trkpt lat="42.293543" lon="-8.790182">
        <ele>144.3</ele>
        <time>1970-01-01T02:29:40.000Z</time>
      </trkpt>
      <trkpt lat="42.293547" lon="-8.79019">
        <ele>144.3</ele>
        <time>1970-01-01T02:29:41.000Z</time>
      </trkpt>
      <trkpt lat="42.293552" lon="-8.790217">
        <ele>144.3</ele>
        <time>1970-01-01T02:29:42.000Z</time>
      </trkpt>
      <trkpt lat="42.293552" lon="-8.790243">
        <ele>144.3</ele>
        <time>1970-01-01T02:29:43.000Z</time>
      </trkpt>
      <trkpt lat="42.293555" lon="-8.790267">
        <ele>144.3</ele>
        <time>1970-01-01T02:29:44.000Z</time>
      </trkpt>
      <trkpt lat="42.293557" lon="-8.790283">
        <ele>144.3</ele>
        <time>1970-01-01T02:29:45.000Z</time>
      </trkpt>
      <trkpt lat="42.293558" lon="-8.790295">
        <ele>144.3</ele>
        <time>1970-01-01T02:29:46.000Z</time>
      </trkpt>
      <trkpt lat="42.293562" lon="-8.790315">
        <ele>143.3</ele>
        <time>1970-01-01T02:29:47.000Z</time>
      </trkpt>
      <trkpt lat="42.29357" lon="-8.790328">
        <ele>143.3</ele>
        <time>1970-01-01T02:29:48.000Z</time>
      </trkpt>
      <trkpt lat="42.29357" lon="-8.790328">
        <ele>143.3</ele>
        <time>1970-01-01T02:29:49.000Z</time>
      </trkpt>
      <trkpt lat="42.293583" lon="-8.790365">
        <ele>143.3</ele>
        <time>1970-01-01T02:29:50.000Z</time>
      </trkpt>
      <trkpt lat="42.293585" lon="-8.790375">
        <ele>142.2</ele>
        <time>1970-01-01T02:29:51.000Z</time>
      </trkpt>
      <trkpt lat="42.293588" lon="-8.790385">
        <ele>142.2</ele>
        <time>1970-01-01T02:29:52.000Z</time>
      </trkpt>
      <trkpt lat="42.293593" lon="-8.790395">
        <ele>142.2</ele>
        <time>1970-01-01T02:29:53.000Z</time>
      </trkpt>
      <trkpt lat="42.293597" lon="-8.790408">
        <ele>142.2</ele>
        <time>1970-01-01T02:29:54.000Z</time>
      </trkpt>
      <trkpt lat="42.2936" lon="-8.790428">
        <ele>142.2</ele>
        <time>1970-01-01T02:29:55.000Z</time>
      </trkpt>
      <trkpt lat="42.293602" lon="-8.790445">
        <ele>142.2</ele>
        <time>1970-01-01T02:29:56.000Z</time>
      </trkpt>
      <trkpt lat="42.293607" lon="-8.79046">
        <ele>141.3</ele>
        <time>1970-01-01T02:29:57.000Z</time>
      </trkpt>
      <trkpt lat="42.293615" lon="-8.790472">
        <ele>141.3</ele>
        <time>1970-01-01T02:29:58.000Z</time>
      </trkpt>
      <trkpt lat="42.29362" lon="-8.790488">
        <ele>141.3</ele>
        <time>1970-01-01T02:29:59.000Z</time>
      </trkpt>
      <trkpt lat="42.293625" lon="-8.790498">
        <ele>141.3</ele>
        <time>1970-01-01T02:30:00.000Z</time>
      </trkpt>
      <trkpt lat="42.293632" lon="-8.790508">
        <ele>141.3</ele>
        <time>1970-01-01T02:30:01.000Z</time>
      </trkpt>
      <trkpt lat="42.293635" lon="-8.79052">
        <ele>141.3</ele>
        <time>1970-01-01T02:30:02.000Z</time>
      </trkpt>
      <trkpt lat="42.293645" lon="-8.79053">
        <ele>141.3</ele>
        <time>1970-01-01T02:30:03.000Z</time>
      </trkpt>
      <trkpt lat="42.293648" lon="-8.790533">
        <ele>141.3</ele>
        <time>1970-01-01T02:30:04.000Z</time>
      </trkpt>
      <trkpt lat="42.293648" lon="-8.790537">
        <ele>141.3</ele>
        <time>1970-01-01T02:30:05.000Z</time>
      </trkpt>
      <trkpt lat="42.293648" lon="-8.790538">
        <ele>141.3</ele>
        <time>1970-01-01T02:30:06.000Z</time>
      </trkpt>
      <trkpt lat="42.293657" lon="-8.790537">
        <ele>141.3</ele>
        <time>1970-01-01T02:30:07.000Z</time>
      </trkpt>
      <trkpt lat="42.293663" lon="-8.790547">
        <ele>141.3</ele>
        <time>1970-01-01T02:30:08.000Z</time>
      </trkpt>
      <trkpt lat="42.293667" lon="-8.79055">
        <ele>141.3</ele>
        <time>1970-01-01T02:30:09.000Z</time>
      </trkpt>
      <trkpt lat="42.29367" lon="-8.790553">
        <ele>141.3</ele>
        <time>1970-01-01T02:30:10.000Z</time>
      </trkpt>
      <trkpt lat="42.293673" lon="-8.790553">
        <ele>141.3</ele>
        <time>1970-01-01T02:30:11.000Z</time>
      </trkpt>
      <trkpt lat="42.293682" lon="-8.790547">
        <ele>141.3</ele>
        <time>1970-01-01T02:30:12.000Z</time>
      </trkpt>
      <trkpt lat="42.293682" lon="-8.790547">
        <ele>141.3</ele>
        <time>1970-01-01T02:30:13.000Z</time>
      </trkpt>
      <trkpt lat="42.293685" lon="-8.790547">
        <ele>141.3</ele>
        <time>1970-01-01T02:30:14.000Z</time>
      </trkpt>
      <trkpt lat="42.293685" lon="-8.790547">
        <ele>141.3</ele>
        <time>1970-01-01T02:30:15.000Z</time>
      </trkpt>
      <trkpt lat="42.293687" lon="-8.790547">
        <ele>141.3</ele>
        <time>1970-01-01T02:30:16.000Z</time>
      </trkpt>
      <trkpt lat="42.293687" lon="-8.790547">
        <ele>141.3</ele>
        <time>1970-01-01T02:30:17.000Z</time>
      </trkpt>
      <trkpt lat="42.293687" lon="-8.790545">
        <ele>141.3</ele>
        <time>1970-01-01T02:30:18.000Z</time>
      </trkpt>
      <trkpt lat="42.293687" lon="-8.790545">
        <ele>141.3</ele>
        <time>1970-01-01T02:30:19.000Z</time>
      </trkpt>
      <trkpt lat="42.293687" lon="-8.790543">
        <ele>141.3</ele>
        <time>1970-01-01T02:30:20.000Z</time>
      </trkpt>
      <trkpt lat="42.293685" lon="-8.790545">
        <ele>141.3</ele>
        <time>1970-01-01T02:30:21.000Z</time>
      </trkpt>
      <trkpt lat="42.293683" lon="-8.790547">
        <ele>141.3</ele>
        <time>1970-01-01T02:30:22.000Z</time>
      </trkpt>
      <trkpt lat="42.293685" lon="-8.790548">
        <ele>141.3</ele>
        <time>1970-01-01T02:30:23.000Z</time>
      </trkpt>
      <trkpt lat="42.293693" lon="-8.790558">
        <ele>141.3</ele>
        <time>1970-01-01T02:30:24.000Z</time>
      </trkpt>
      <trkpt lat="42.293702" lon="-8.79057">
        <ele>141.3</ele>
        <time>1970-01-01T02:30:25.000Z</time>
      </trkpt>
      <trkpt lat="42.293712" lon="-8.790582">
        <ele>141.3</ele>
        <time>1970-01-01T02:30:26.000Z</time>
      </trkpt>
      <trkpt lat="42.293722" lon="-8.790593">
        <ele>141.3</ele>
        <time>1970-01-01T02:30:27.000Z</time>
      </trkpt>
      <trkpt lat="42.293728" lon="-8.790605">
        <ele>141.3</ele>
        <time>1970-01-01T02:30:28.000Z</time>
      </trkpt>
      <trkpt lat="42.293737" lon="-8.79061">
        <ele>140.2</ele>
        <time>1970-01-01T02:30:29.000Z</time>
      </trkpt>
      <trkpt lat="42.29375" lon="-8.79062">
        <ele>140.2</ele>
        <time>1970-01-01T02:30:30.000Z</time>
      </trkpt>
      <trkpt lat="42.293765" lon="-8.790635">
        <ele>139.3</ele>
        <time>1970-01-01T02:30:31.000Z</time>
      </trkpt>
      <trkpt lat="42.293783" lon="-8.79065">
        <ele>139.3</ele>
        <time>1970-01-01T02:30:32.000Z</time>
      </trkpt>
      <trkpt lat="42.293803" lon="-8.790667">
        <ele>139.3</ele>
        <time>1970-01-01T02:30:33.000Z</time>
      </trkpt>
      <trkpt lat="42.293818" lon="-8.79067">
        <ele>139.3</ele>
        <time>1970-01-01T02:30:34.000Z</time>
      </trkpt>
      <trkpt lat="42.293832" lon="-8.790677">
        <ele>139.3</ele>
        <time>1970-01-01T02:30:35.000Z</time>
      </trkpt>
      <trkpt lat="42.293838" lon="-8.790683">
        <ele>139.3</ele>
        <time>1970-01-01T02:30:36.000Z</time>
      </trkpt>
      <trkpt lat="42.293838" lon="-8.790683">
        <ele>139.3</ele>
        <time>1970-01-01T02:30:37.000Z</time>
      </trkpt>
      <trkpt lat="42.293858" lon="-8.790697">
        <ele>139.3</ele>
        <time>1970-01-01T02:30:38.000Z</time>
      </trkpt>
      <trkpt lat="42.293868" lon="-8.790702">
        <ele>139.3</ele>
        <time>1970-01-01T02:30:39.000Z</time>
      </trkpt>
      <trkpt lat="42.293883" lon="-8.790705">
        <ele>139.3</ele>
        <time>1970-01-01T02:30:40.000Z</time>
      </trkpt>
      <trkpt lat="42.293898" lon="-8.790712">
        <ele>139.3</ele>
        <time>1970-01-01T02:30:41.000Z</time>
      </trkpt>
      <trkpt lat="42.293898" lon="-8.790712">
        <ele>139.3</ele>
        <time>1970-01-01T02:30:42.000Z</time>
      </trkpt>
      <trkpt lat="42.293925" lon="-8.79073">
        <ele>139.3</ele>
        <time>1970-01-01T02:30:43.000Z</time>
      </trkpt>
      <trkpt lat="42.293937" lon="-8.790737">
        <ele>139.3</ele>
        <time>1970-01-01T02:30:44.000Z</time>
      </trkpt>
      <trkpt lat="42.293948" lon="-8.790743">
        <ele>139.3</ele>
        <time>1970-01-01T02:30:45.000Z</time>
      </trkpt>
      <trkpt lat="42.29396" lon="-8.790748">
        <ele>139.3</ele>
        <time>1970-01-01T02:30:46.000Z</time>
      </trkpt>
      <trkpt lat="42.29397" lon="-8.79076">
        <ele>139.3</ele>
        <time>1970-01-01T02:30:47.000Z</time>
      </trkpt>
      <trkpt lat="42.293978" lon="-8.790772">
        <ele>139.3</ele>
        <time>1970-01-01T02:30:48.000Z</time>
      </trkpt>
      <trkpt lat="42.293982" lon="-8.790777">
        <ele>139.3</ele>
        <time>1970-01-01T02:30:49.000Z</time>
      </trkpt>
      <trkpt lat="42.293993" lon="-8.790787">
        <ele>139.3</ele>
        <time>1970-01-01T02:30:50.000Z</time>
      </trkpt>
      <trkpt lat="42.294007" lon="-8.790795">
        <ele>139.3</ele>
        <time>1970-01-01T02:30:51.000Z</time>
      </trkpt>
      <trkpt lat="42.294017" lon="-8.790802">
        <ele>139.3</ele>
        <time>1970-01-01T02:30:52.000Z</time>
      </trkpt>
      <trkpt lat="42.294028" lon="-8.790803">
        <ele>139.3</ele>
        <time>1970-01-01T02:30:53.000Z</time>
      </trkpt>
      <trkpt lat="42.29404" lon="-8.7908">
        <ele>139.3</ele>
        <time>1970-01-01T02:30:54.000Z</time>
      </trkpt>
      <trkpt lat="42.294052" lon="-8.7908">
        <ele>139.3</ele>
        <time>1970-01-01T02:30:55.000Z</time>
      </trkpt>
      <trkpt lat="42.294065" lon="-8.790802">
        <ele>139.3</ele>
        <time>1970-01-01T02:30:56.000Z</time>
      </trkpt>
      <trkpt lat="42.294075" lon="-8.790805">
        <ele>139.3</ele>
        <time>1970-01-01T02:30:57.000Z</time>
      </trkpt>
      <trkpt lat="42.294083" lon="-8.790807">
        <ele>139.3</ele>
        <time>1970-01-01T02:30:58.000Z</time>
      </trkpt>
      <trkpt lat="42.294092" lon="-8.79081">
        <ele>139.3</ele>
        <time>1970-01-01T02:30:59.000Z</time>
      </trkpt>
      <trkpt lat="42.294093" lon="-8.790813">
        <ele>139.3</ele>
        <time>1970-01-01T02:31:00.000Z</time>
      </trkpt>
      <trkpt lat="42.294097" lon="-8.790815">
        <ele>139.3</ele>
        <time>1970-01-01T02:31:01.000Z</time>
      </trkpt>
      <trkpt lat="42.294098" lon="-8.790817">
        <ele>139.3</ele>
        <time>1970-01-01T02:31:02.000Z</time>
      </trkpt>
      <trkpt lat="42.294098" lon="-8.790818">
        <ele>140.2</ele>
        <time>1970-01-01T02:31:03.000Z</time>
      </trkpt>
      <trkpt lat="42.2941" lon="-8.79082">
        <ele>140.2</ele>
        <time>1970-01-01T02:31:04.000Z</time>
      </trkpt>
      <trkpt lat="42.2941" lon="-8.79082">
        <ele>140.2</ele>
        <time>1970-01-01T02:31:05.000Z</time>
      </trkpt>
      <trkpt lat="42.2941" lon="-8.79082">
        <ele>140.2</ele>
        <time>1970-01-01T02:31:06.000Z</time>
      </trkpt>
      <trkpt lat="42.294102" lon="-8.790822">
        <ele>140.2</ele>
        <time>1970-01-01T02:31:07.000Z</time>
      </trkpt>
      <trkpt lat="42.2941" lon="-8.790817">
        <ele>140.2</ele>
        <time>1970-01-01T02:31:08.000Z</time>
      </trkpt>
      <trkpt lat="42.2941" lon="-8.790818">
        <ele>140.2</ele>
        <time>1970-01-01T02:31:09.000Z</time>
      </trkpt>
      <trkpt lat="42.2941" lon="-8.790822">
        <ele>140.2</ele>
        <time>1970-01-01T02:31:10.000Z</time>
      </trkpt>
      <trkpt lat="42.2941" lon="-8.790822">
        <ele>140.2</ele>
        <time>1970-01-01T02:31:11.000Z</time>
      </trkpt>
      <trkpt lat="42.2941" lon="-8.790822">
        <ele>140.2</ele>
        <time>1970-01-01T02:31:12.000Z</time>
      </trkpt>
      <trkpt lat="42.2941" lon="-8.790822">
        <ele>140.2</ele>
        <time>1970-01-01T02:31:13.000Z</time>
      </trkpt>
      <trkpt lat="42.2941" lon="-8.790822">
        <ele>140.2</ele>
        <time>1970-01-01T02:31:14.000Z</time>
      </trkpt>
      <trkpt lat="42.2941" lon="-8.790822">
        <ele>140.2</ele>
        <time>1970-01-01T02:31:15.000Z</time>
      </trkpt>
      <trkpt lat="42.2941" lon="-8.790822">
        <ele>140.2</ele>
        <time>1970-01-01T02:31:16.000Z</time>
      </trkpt>
      <trkpt lat="42.2941" lon="-8.790822">
        <ele>141.3</ele>
        <time>1970-01-01T02:31:17.000Z</time>
      </trkpt>
      <trkpt lat="42.2941" lon="-8.790822">
        <ele>141.3</ele>
        <time>1970-01-01T02:31:18.000Z</time>
      </trkpt>
      <trkpt lat="42.2941" lon="-8.790822">
        <ele>141.3</ele>
        <time>1970-01-01T02:31:19.000Z</time>
      </trkpt>
      <trkpt lat="42.2941" lon="-8.790822">
        <ele>141.3</ele>
        <time>1970-01-01T02:31:20.000Z</time>
      </trkpt>
      <trkpt lat="42.2941" lon="-8.790822">
        <ele>141.3</ele>
        <time>1970-01-01T02:31:21.000Z</time>
      </trkpt>
      <trkpt lat="42.2941" lon="-8.790822">
        <ele>141.3</ele>
        <time>1970-01-01T02:31:22.000Z</time>
      </trkpt>
      <trkpt lat="42.2941" lon="-8.790822">
        <ele>141.3</ele>
        <time>1970-01-01T02:31:23.000Z</time>
      </trkpt>
      <trkpt lat="42.2941" lon="-8.790822">
        <ele>141.3</ele>
        <time>1970-01-01T02:31:24.000Z</time>
      </trkpt>
      <trkpt lat="42.2941" lon="-8.790822">
        <ele>141.3</ele>
        <time>1970-01-01T02:31:25.000Z</time>
      </trkpt>
      <trkpt lat="42.294102" lon="-8.790822">
        <ele>141.3</ele>
        <time>1970-01-01T02:31:26.000Z</time>
      </trkpt>
      <trkpt lat="42.294102" lon="-8.790825">
        <ele>141.3</ele>
        <time>1970-01-01T02:31:27.000Z</time>
      </trkpt>
      <trkpt lat="42.294102" lon="-8.790825">
        <ele>141.3</ele>
        <time>1970-01-01T02:31:28.000Z</time>
      </trkpt>
      <trkpt lat="42.294103" lon="-8.790825">
        <ele>141.3</ele>
        <time>1970-01-01T02:31:29.000Z</time>
      </trkpt>
      <trkpt lat="42.294103" lon="-8.790825">
        <ele>141.3</ele>
        <time>1970-01-01T02:31:30.000Z</time>
      </trkpt>
      <trkpt lat="42.294103" lon="-8.790825">
        <ele>141.3</ele>
        <time>1970-01-01T02:31:31.000Z</time>
      </trkpt>
      <trkpt lat="42.294103" lon="-8.790825">
        <ele>141.3</ele>
        <time>1970-01-01T02:31:32.000Z</time>
      </trkpt>
      <trkpt lat="42.294103" lon="-8.790825">
        <ele>141.3</ele>
        <time>1970-01-01T02:31:33.000Z</time>
      </trkpt>
      <trkpt lat="42.294103" lon="-8.790825">
        <ele>141.3</ele>
        <time>1970-01-01T02:31:34.000Z</time>
      </trkpt>
      <trkpt lat="42.294103" lon="-8.790825">
        <ele>139.3</ele>
        <time>1970-01-01T02:31:35.000Z</time>
      </trkpt>
      <trkpt lat="42.294103" lon="-8.790825">
        <ele>139.3</ele>
        <time>1970-01-01T02:31:36.000Z</time>
      </trkpt>
      <trkpt lat="42.294103" lon="-8.790825">
        <ele>139.3</ele>
        <time>1970-01-01T02:31:37.000Z</time>
      </trkpt>
      <trkpt lat="42.294103" lon="-8.790825">
        <ele>139.3</ele>
        <time>1970-01-01T02:31:38.000Z</time>
      </trkpt>
      <trkpt lat="42.294103" lon="-8.790825">
        <ele>139.3</ele>
        <time>1970-01-01T02:31:39.000Z</time>
      </trkpt>
      <trkpt lat="42.294098" lon="-8.790825">
        <ele>139.3</ele>
        <time>1970-01-01T02:31:40.000Z</time>
      </trkpt>
      <trkpt lat="42.294093" lon="-8.790823">
        <ele>139.3</ele>
        <time>1970-01-01T02:31:41.000Z</time>
      </trkpt>
      <trkpt lat="42.294088" lon="-8.790823">
        <ele>139.3</ele>
        <time>1970-01-01T02:31:42.000Z</time>
      </trkpt>
      <trkpt lat="42.294083" lon="-8.790822">
        <ele>139.3</ele>
        <time>1970-01-01T02:31:43.000Z</time>
      </trkpt>
      <trkpt lat="42.294078" lon="-8.790822">
        <ele>139.3</ele>
        <time>1970-01-01T02:31:44.000Z</time>
      </trkpt>
      <trkpt lat="42.294075" lon="-8.790822">
        <ele>138.2</ele>
        <time>1970-01-01T02:31:45.000Z</time>
      </trkpt>
      <trkpt lat="42.29407" lon="-8.790822">
        <ele>138.2</ele>
        <time>1970-01-01T02:31:46.000Z</time>
      </trkpt>
      <trkpt lat="42.294063" lon="-8.79082">
        <ele>138.2</ele>
        <time>1970-01-01T02:31:47.000Z</time>
      </trkpt>
      <trkpt lat="42.294055" lon="-8.790815">
        <ele>138.2</ele>
        <time>1970-01-01T02:31:48.000Z</time>
      </trkpt>
      <trkpt lat="42.294045" lon="-8.79081">
        <ele>138.2</ele>
        <time>1970-01-01T02:31:49.000Z</time>
      </trkpt>
      <trkpt lat="42.294037" lon="-8.790807">
        <ele>138.2</ele>
        <time>1970-01-01T02:31:50.000Z</time>
      </trkpt>
      <trkpt lat="42.294027" lon="-8.790808">
        <ele>138.2</ele>
        <time>1970-01-01T02:31:51.000Z</time>
      </trkpt>
      <trkpt lat="42.294015" lon="-8.790808">
        <ele>138.2</ele>
        <time>1970-01-01T02:31:52.000Z</time>
      </trkpt>
      <trkpt lat="42.294005" lon="-8.790807">
        <ele>138.2</ele>
        <time>1970-01-01T02:31:53.000Z</time>
      </trkpt>
      <trkpt lat="42.294005" lon="-8.790807">
        <ele>138.2</ele>
        <time>1970-01-01T02:31:54.000Z</time>
      </trkpt>
      <trkpt lat="42.293985" lon="-8.790798">
        <ele>138.2</ele>
        <time>1970-01-01T02:31:55.000Z</time>
      </trkpt>
      <trkpt lat="42.293973" lon="-8.790792">
        <ele>138.2</ele>
        <time>1970-01-01T02:31:56.000Z</time>
      </trkpt>
      <trkpt lat="42.293962" lon="-8.790787">
        <ele>137.3</ele>
        <time>1970-01-01T02:31:57.000Z</time>
      </trkpt>
      <trkpt lat="42.293953" lon="-8.790782">
        <ele>137.3</ele>
        <time>1970-01-01T02:31:58.000Z</time>
      </trkpt>
      <trkpt lat="42.293953" lon="-8.790782">
        <ele>137.3</ele>
        <time>1970-01-01T02:31:59.000Z</time>
      </trkpt>
      <trkpt lat="42.293932" lon="-8.79078">
        <ele>137.3</ele>
        <time>1970-01-01T02:32:00.000Z</time>
      </trkpt>
      <trkpt lat="42.293922" lon="-8.790782">
        <ele>136.2</ele>
        <time>1970-01-01T02:32:01.000Z</time>
      </trkpt>
      <trkpt lat="42.29391" lon="-8.790787">
        <ele>136.2</ele>
        <time>1970-01-01T02:32:02.000Z</time>
      </trkpt>
      <trkpt lat="42.293897" lon="-8.79079">
        <ele>136.2</ele>
        <time>1970-01-01T02:32:03.000Z</time>
      </trkpt>
      <trkpt lat="42.293883" lon="-8.79079">
        <ele>136.2</ele>
        <time>1970-01-01T02:32:04.000Z</time>
      </trkpt>
      <trkpt lat="42.293875" lon="-8.790787">
        <ele>135.3</ele>
        <time>1970-01-01T02:32:05.000Z</time>
      </trkpt>
      <trkpt lat="42.293867" lon="-8.790797">
        <ele>135.3</ele>
        <time>1970-01-01T02:32:06.000Z</time>
      </trkpt>
      <trkpt lat="42.29386" lon="-8.790805">
        <ele>135.3</ele>
        <time>1970-01-01T02:32:07.000Z</time>
      </trkpt>
      <trkpt lat="42.29385" lon="-8.790815">
        <ele>135.3</ele>
        <time>1970-01-01T02:32:08.000Z</time>
      </trkpt>
      <trkpt lat="42.293847" lon="-8.79082">
        <ele>135.3</ele>
        <time>1970-01-01T02:32:09.000Z</time>
      </trkpt>
      <trkpt lat="42.293842" lon="-8.790827">
        <ele>135.3</ele>
        <time>1970-01-01T02:32:10.000Z</time>
      </trkpt>
      <trkpt lat="42.293838" lon="-8.790835">
        <ele>135.3</ele>
        <time>1970-01-01T02:32:11.000Z</time>
      </trkpt>
      <trkpt lat="42.293835" lon="-8.79084">
        <ele>135.3</ele>
        <time>1970-01-01T02:32:12.000Z</time>
      </trkpt>
      <trkpt lat="42.293833" lon="-8.790847">
        <ele>135.3</ele>
        <time>1970-01-01T02:32:13.000Z</time>
      </trkpt>
      <trkpt lat="42.29383" lon="-8.790857">
        <ele>135.3</ele>
        <time>1970-01-01T02:32:14.000Z</time>
      </trkpt>
      <trkpt lat="42.293827" lon="-8.79086">
        <ele>134.3</ele>
        <time>1970-01-01T02:32:15.000Z</time>
      </trkpt>
      <trkpt lat="42.29382" lon="-8.79087">
        <ele>134.3</ele>
        <time>1970-01-01T02:32:16.000Z</time>
      </trkpt>
      <trkpt lat="42.293815" lon="-8.790882">
        <ele>133.2</ele>
        <time>1970-01-01T02:32:17.000Z</time>
      </trkpt>
      <trkpt lat="42.293815" lon="-8.790882">
        <ele>133.2</ele>
        <time>1970-01-01T02:32:18.000Z</time>
      </trkpt>
      <trkpt lat="42.293812" lon="-8.790908">
        <ele>133.2</ele>
        <time>1970-01-01T02:32:19.000Z</time>
      </trkpt>
      <trkpt lat="42.29381" lon="-8.79092">
        <ele>133.2</ele>
        <time>1970-01-01T02:32:20.000Z</time>
      </trkpt>
      <trkpt lat="42.293808" lon="-8.790938">
        <ele>133.2</ele>
        <time>1970-01-01T02:32:21.000Z</time>
      </trkpt>
      <trkpt lat="42.293807" lon="-8.790948">
        <ele>133.2</ele>
        <time>1970-01-01T02:32:22.000Z</time>
      </trkpt>
      <trkpt lat="42.293807" lon="-8.790963">
        <ele>133.2</ele>
        <time>1970-01-01T02:32:23.000Z</time>
      </trkpt>
      <trkpt lat="42.293802" lon="-8.79098">
        <ele>133.2</ele>
        <time>1970-01-01T02:32:24.000Z</time>
      </trkpt>
      <trkpt lat="42.293792" lon="-8.791">
        <ele>133.2</ele>
        <time>1970-01-01T02:32:25.000Z</time>
      </trkpt>
      <trkpt lat="42.293783" lon="-8.791015">
        <ele>133.2</ele>
        <time>1970-01-01T02:32:26.000Z</time>
      </trkpt>
      <trkpt lat="42.293773" lon="-8.79103">
        <ele>133.2</ele>
        <time>1970-01-01T02:32:27.000Z</time>
      </trkpt>
      <trkpt lat="42.293768" lon="-8.791042">
        <ele>133.2</ele>
        <time>1970-01-01T02:32:28.000Z</time>
      </trkpt>
      <trkpt lat="42.293762" lon="-8.791055">
        <ele>131.2</ele>
        <time>1970-01-01T02:32:29.000Z</time>
      </trkpt>
      <trkpt lat="42.293757" lon="-8.791063">
        <ele>131.2</ele>
        <time>1970-01-01T02:32:30.000Z</time>
      </trkpt>
      <trkpt lat="42.293747" lon="-8.791075">
        <ele>130.3</ele>
        <time>1970-01-01T02:32:31.000Z</time>
      </trkpt>
      <trkpt lat="42.293735" lon="-8.791088">
        <ele>130.3</ele>
        <time>1970-01-01T02:32:32.000Z</time>
      </trkpt>
      <trkpt lat="42.293725" lon="-8.791097">
        <ele>130.3</ele>
        <time>1970-01-01T02:32:33.000Z</time>
      </trkpt>
      <trkpt lat="42.293715" lon="-8.791108">
        <ele>130.3</ele>
        <time>1970-01-01T02:32:34.000Z</time>
      </trkpt>
      <trkpt lat="42.293707" lon="-8.79112">
        <ele>130.3</ele>
        <time>1970-01-01T02:32:35.000Z</time>
      </trkpt>
      <trkpt lat="42.293702" lon="-8.79113">
        <ele>130.3</ele>
        <time>1970-01-01T02:32:36.000Z</time>
      </trkpt>
      <trkpt lat="42.293702" lon="-8.79113">
        <ele>130.3</ele>
        <time>1970-01-01T02:32:37.000Z</time>
      </trkpt>
      <trkpt lat="42.293688" lon="-8.791148">
        <ele>130.3</ele>
        <time>1970-01-01T02:32:38.000Z</time>
      </trkpt>
      <trkpt lat="42.293683" lon="-8.791162">
        <ele>130.3</ele>
        <time>1970-01-01T02:32:39.000Z</time>
      </trkpt>
      <trkpt lat="42.293675" lon="-8.79117">
        <ele>130.3</ele>
        <time>1970-01-01T02:32:40.000Z</time>
      </trkpt>
      <trkpt lat="42.29367" lon="-8.791178">
        <ele>130.3</ele>
        <time>1970-01-01T02:32:41.000Z</time>
      </trkpt>
      <trkpt lat="42.293665" lon="-8.791188">
        <ele>130.3</ele>
        <time>1970-01-01T02:32:42.000Z</time>
      </trkpt>
      <trkpt lat="42.293662" lon="-8.791195">
        <ele>129.2</ele>
        <time>1970-01-01T02:32:43.000Z</time>
      </trkpt>
      <trkpt lat="42.293658" lon="-8.791207">
        <ele>129.2</ele>
        <time>1970-01-01T02:32:44.000Z</time>
      </trkpt>
      <trkpt lat="42.293653" lon="-8.79122">
        <ele>129.2</ele>
        <time>1970-01-01T02:32:45.000Z</time>
      </trkpt>
      <trkpt lat="42.29365" lon="-8.79123">
        <ele>129.2</ele>
        <time>1970-01-01T02:32:46.000Z</time>
      </trkpt>
      <trkpt lat="42.29365" lon="-8.79123">
        <ele>129.2</ele>
        <time>1970-01-01T02:32:47.000Z</time>
      </trkpt>
      <trkpt lat="42.293645" lon="-8.791242">
        <ele>129.2</ele>
        <time>1970-01-01T02:32:48.000Z</time>
      </trkpt>
      <trkpt lat="42.293635" lon="-8.79125">
        <ele>130.3</ele>
        <time>1970-01-01T02:32:49.000Z</time>
      </trkpt>
      <trkpt lat="42.293627" lon="-8.791253">
        <ele>130.3</ele>
        <time>1970-01-01T02:32:50.000Z</time>
      </trkpt>
      <trkpt lat="42.293613" lon="-8.791255">
        <ele>129.2</ele>
        <time>1970-01-01T02:32:51.000Z</time>
      </trkpt>
      <trkpt lat="42.293613" lon="-8.791255">
        <ele>129.2</ele>
        <time>1970-01-01T02:32:52.000Z</time>
      </trkpt>
      <trkpt lat="42.293598" lon="-8.791267">
        <ele>129.2</ele>
        <time>1970-01-01T02:32:53.000Z</time>
      </trkpt>
      <trkpt lat="42.293592" lon="-8.791272">
        <ele>129.2</ele>
        <time>1970-01-01T02:32:54.000Z</time>
      </trkpt>
      <trkpt lat="42.293588" lon="-8.791285">
        <ele>129.2</ele>
        <time>1970-01-01T02:32:55.000Z</time>
      </trkpt>
      <trkpt lat="42.293582" lon="-8.791297">
        <ele>129.2</ele>
        <time>1970-01-01T02:32:56.000Z</time>
      </trkpt>
      <trkpt lat="42.293573" lon="-8.7913">
        <ele>129.2</ele>
        <time>1970-01-01T02:32:57.000Z</time>
      </trkpt>
      <trkpt lat="42.293567" lon="-8.791303">
        <ele>129.2</ele>
        <time>1970-01-01T02:32:58.000Z</time>
      </trkpt>
      <trkpt lat="42.293558" lon="-8.79131">
        <ele>129.2</ele>
        <time>1970-01-01T02:32:59.000Z</time>
      </trkpt>
      <trkpt lat="42.293547" lon="-8.791317">
        <ele>129.2</ele>
        <time>1970-01-01T02:33:00.000Z</time>
      </trkpt>
      <trkpt lat="42.293538" lon="-8.791323">
        <ele>129.2</ele>
        <time>1970-01-01T02:33:01.000Z</time>
      </trkpt>
      <trkpt lat="42.293528" lon="-8.791337">
        <ele>129.2</ele>
        <time>1970-01-01T02:33:02.000Z</time>
      </trkpt>
      <trkpt lat="42.293517" lon="-8.791348">
        <ele>129.2</ele>
        <time>1970-01-01T02:33:03.000Z</time>
      </trkpt>
      <trkpt lat="42.293507" lon="-8.791358">
        <ele>129.2</ele>
        <time>1970-01-01T02:33:04.000Z</time>
      </trkpt>
      <trkpt lat="42.293498" lon="-8.791365">
        <ele>129.2</ele>
        <time>1970-01-01T02:33:05.000Z</time>
      </trkpt>
      <trkpt lat="42.29349" lon="-8.79138">
        <ele>129.2</ele>
        <time>1970-01-01T02:33:06.000Z</time>
      </trkpt>
      <trkpt lat="42.293485" lon="-8.791393">
        <ele>128.3</ele>
        <time>1970-01-01T02:33:07.000Z</time>
      </trkpt>
      <trkpt lat="42.293478" lon="-8.791408">
        <ele>128.3</ele>
        <time>1970-01-01T02:33:08.000Z</time>
      </trkpt>
      <trkpt lat="42.29347" lon="-8.791422">
        <ele>128.3</ele>
        <time>1970-01-01T02:33:09.000Z</time>
      </trkpt>
      <trkpt lat="42.293463" lon="-8.79143">
        <ele>128.3</ele>
        <time>1970-01-01T02:33:10.000Z</time>
      </trkpt>
      <trkpt lat="42.293463" lon="-8.79143">
        <ele>127.3</ele>
        <time>1970-01-01T02:33:11.000Z</time>
      </trkpt>
      <trkpt lat="42.293455" lon="-8.79145">
        <ele>127.3</ele>
        <time>1970-01-01T02:33:12.000Z</time>
      </trkpt>
      <trkpt lat="42.293452" lon="-8.791465">
        <ele>126.3</ele>
        <time>1970-01-01T02:33:13.000Z</time>
      </trkpt>
      <trkpt lat="42.293448" lon="-8.791473">
        <ele>126.3</ele>
        <time>1970-01-01T02:33:14.000Z</time>
      </trkpt>
      <trkpt lat="42.293442" lon="-8.791488">
        <ele>126.3</ele>
        <time>1970-01-01T02:33:15.000Z</time>
      </trkpt>
      <trkpt lat="42.293442" lon="-8.791488">
        <ele>126.3</ele>
        <time>1970-01-01T02:33:16.000Z</time>
      </trkpt>
      <trkpt lat="42.293435" lon="-8.791522">
        <ele>126.3</ele>
        <time>1970-01-01T02:33:17.000Z</time>
      </trkpt>
      <trkpt lat="42.29343" lon="-8.791535">
        <ele>126.3</ele>
        <time>1970-01-01T02:33:18.000Z</time>
      </trkpt>
      <trkpt lat="42.293422" lon="-8.791553">
        <ele>126.3</ele>
        <time>1970-01-01T02:33:19.000Z</time>
      </trkpt>
      <trkpt lat="42.293422" lon="-8.791562">
        <ele>126.3</ele>
        <time>1970-01-01T02:33:20.000Z</time>
      </trkpt>
      <trkpt lat="42.29342" lon="-8.791573">
        <ele>125.3</ele>
        <time>1970-01-01T02:33:21.000Z</time>
      </trkpt>
      <trkpt lat="42.29342" lon="-8.791585">
        <ele>125.3</ele>
        <time>1970-01-01T02:33:22.000Z</time>
      </trkpt>
      <trkpt lat="42.29342" lon="-8.791597">
        <ele>125.3</ele>
        <time>1970-01-01T02:33:23.000Z</time>
      </trkpt>
      <trkpt lat="42.293417" lon="-8.79161">
        <ele>125.3</ele>
        <time>1970-01-01T02:33:24.000Z</time>
      </trkpt>
      <trkpt lat="42.293415" lon="-8.791622">
        <ele>124.2</ele>
        <time>1970-01-01T02:33:25.000Z</time>
      </trkpt>
      <trkpt lat="42.29341" lon="-8.791633">
        <ele>124.2</ele>
        <time>1970-01-01T02:33:26.000Z</time>
      </trkpt>
      <trkpt lat="42.293403" lon="-8.791652">
        <ele>124.2</ele>
        <time>1970-01-01T02:33:27.000Z</time>
      </trkpt>
      <trkpt lat="42.293397" lon="-8.791663">
        <ele>124.2</ele>
        <time>1970-01-01T02:33:28.000Z</time>
      </trkpt>
      <trkpt lat="42.293392" lon="-8.791673">
        <ele>123.3</ele>
        <time>1970-01-01T02:33:29.000Z</time>
      </trkpt>
      <trkpt lat="42.293387" lon="-8.791682">
        <ele>123.3</ele>
        <time>1970-01-01T02:33:30.000Z</time>
      </trkpt>
      <trkpt lat="42.29338" lon="-8.791693">
        <ele>122.2</ele>
        <time>1970-01-01T02:33:31.000Z</time>
      </trkpt>
      <trkpt lat="42.293372" lon="-8.791698">
        <ele>122.2</ele>
        <time>1970-01-01T02:33:32.000Z</time>
      </trkpt>
      <trkpt lat="42.293362" lon="-8.791703">
        <ele>122.2</ele>
        <time>1970-01-01T02:33:33.000Z</time>
      </trkpt>
      <trkpt lat="42.293355" lon="-8.79171">
        <ele>122.2</ele>
        <time>1970-01-01T02:33:34.000Z</time>
      </trkpt>
      <trkpt lat="42.293355" lon="-8.79171">
        <ele>122.2</ele>
        <time>1970-01-01T02:33:35.000Z</time>
      </trkpt>
      <trkpt lat="42.293337" lon="-8.791717">
        <ele>122.2</ele>
        <time>1970-01-01T02:33:36.000Z</time>
      </trkpt>
      <trkpt lat="42.293325" lon="-8.79172">
        <ele>122.2</ele>
        <time>1970-01-01T02:33:37.000Z</time>
      </trkpt>
      <trkpt lat="42.293315" lon="-8.791718">
        <ele>122.2</ele>
        <time>1970-01-01T02:33:38.000Z</time>
      </trkpt>
      <trkpt lat="42.293308" lon="-8.791717">
        <ele>122.2</ele>
        <time>1970-01-01T02:33:39.000Z</time>
      </trkpt>
      <trkpt lat="42.293302" lon="-8.791728">
        <ele>122.2</ele>
        <time>1970-01-01T02:33:40.000Z</time>
      </trkpt>
      <trkpt lat="42.293298" lon="-8.791738">
        <ele>122.2</ele>
        <time>1970-01-01T02:33:41.000Z</time>
      </trkpt>
      <trkpt lat="42.293293" lon="-8.791753">
        <ele>122.2</ele>
        <time>1970-01-01T02:33:42.000Z</time>
      </trkpt>
      <trkpt lat="42.29329" lon="-8.791763">
        <ele>122.2</ele>
        <time>1970-01-01T02:33:43.000Z</time>
      </trkpt>
      <trkpt lat="42.293283" lon="-8.791772">
        <ele>122.2</ele>
        <time>1970-01-01T02:33:44.000Z</time>
      </trkpt>
      <trkpt lat="42.293283" lon="-8.791772">
        <ele>122.2</ele>
        <time>1970-01-01T02:33:45.000Z</time>
      </trkpt>
      <trkpt lat="42.293268" lon="-8.791812">
        <ele>122.2</ele>
        <time>1970-01-01T02:33:46.000Z</time>
      </trkpt>
      <trkpt lat="42.293263" lon="-8.791817">
        <ele>122.2</ele>
        <time>1970-01-01T02:33:47.000Z</time>
      </trkpt>
      <trkpt lat="42.293258" lon="-8.79182">
        <ele>122.2</ele>
        <time>1970-01-01T02:33:48.000Z</time>
      </trkpt>
      <trkpt lat="42.293252" lon="-8.791825">
        <ele>122.2</ele>
        <time>1970-01-01T02:33:49.000Z</time>
      </trkpt>
      <trkpt lat="42.293247" lon="-8.791833">
        <ele>122.2</ele>
        <time>1970-01-01T02:33:50.000Z</time>
      </trkpt>
      <trkpt lat="42.293237" lon="-8.791842">
        <ele>122.2</ele>
        <time>1970-01-01T02:33:51.000Z</time>
      </trkpt>
      <trkpt lat="42.293228" lon="-8.791847">
        <ele>122.2</ele>
        <time>1970-01-01T02:33:52.000Z</time>
      </trkpt>
      <trkpt lat="42.293227" lon="-8.791847">
        <ele>122.2</ele>
        <time>1970-01-01T02:33:53.000Z</time>
      </trkpt>
      <trkpt lat="42.29322" lon="-8.791848">
        <ele>122.2</ele>
        <time>1970-01-01T02:33:54.000Z</time>
      </trkpt>
      <trkpt lat="42.293215" lon="-8.791848">
        <ele>122.2</ele>
        <time>1970-01-01T02:33:55.000Z</time>
      </trkpt>
      <trkpt lat="42.293207" lon="-8.791853">
        <ele>122.2</ele>
        <time>1970-01-01T02:33:56.000Z</time>
      </trkpt>
      <trkpt lat="42.2932" lon="-8.791862">
        <ele>122.2</ele>
        <time>1970-01-01T02:33:57.000Z</time>
      </trkpt>
      <trkpt lat="42.293195" lon="-8.791872">
        <ele>122.2</ele>
        <time>1970-01-01T02:33:58.000Z</time>
      </trkpt>
      <trkpt lat="42.293187" lon="-8.791883">
        <ele>122.2</ele>
        <time>1970-01-01T02:33:59.000Z</time>
      </trkpt>
      <trkpt lat="42.293178" lon="-8.791895">
        <ele>122.2</ele>
        <time>1970-01-01T02:34:00.000Z</time>
      </trkpt>
      <trkpt lat="42.293173" lon="-8.791905">
        <ele>122.2</ele>
        <time>1970-01-01T02:34:01.000Z</time>
      </trkpt>
      <trkpt lat="42.293168" lon="-8.791912">
        <ele>122.2</ele>
        <time>1970-01-01T02:34:02.000Z</time>
      </trkpt>
      <trkpt lat="42.293162" lon="-8.791917">
        <ele>121.3</ele>
        <time>1970-01-01T02:34:03.000Z</time>
      </trkpt>
      <trkpt lat="42.293162" lon="-8.791917">
        <ele>121.3</ele>
        <time>1970-01-01T02:34:04.000Z</time>
      </trkpt>
      <trkpt lat="42.29315" lon="-8.791933">
        <ele>121.3</ele>
        <time>1970-01-01T02:34:05.000Z</time>
      </trkpt>
      <trkpt lat="42.29314" lon="-8.791938">
        <ele>121.3</ele>
        <time>1970-01-01T02:34:06.000Z</time>
      </trkpt>
      <trkpt lat="42.293132" lon="-8.791942">
        <ele>121.3</ele>
        <time>1970-01-01T02:34:07.000Z</time>
      </trkpt>
      <trkpt lat="42.293122" lon="-8.79195">
        <ele>121.3</ele>
        <time>1970-01-01T02:34:08.000Z</time>
      </trkpt>
      <trkpt lat="42.293122" lon="-8.79195">
        <ele>121.3</ele>
        <time>1970-01-01T02:34:09.000Z</time>
      </trkpt>
      <trkpt lat="42.293103" lon="-8.791972">
        <ele>121.3</ele>
        <time>1970-01-01T02:34:10.000Z</time>
      </trkpt>
      <trkpt lat="42.293098" lon="-8.791985">
        <ele>121.3</ele>
        <time>1970-01-01T02:34:11.000Z</time>
      </trkpt>
      <trkpt lat="42.293093" lon="-8.791997">
        <ele>121.3</ele>
        <time>1970-01-01T02:34:12.000Z</time>
      </trkpt>
      <trkpt lat="42.293093" lon="-8.791997">
        <ele>120.2</ele>
        <time>1970-01-01T02:34:13.000Z</time>
      </trkpt>
      <trkpt lat="42.293082" lon="-8.792032">
        <ele>120.2</ele>
        <time>1970-01-01T02:34:14.000Z</time>
      </trkpt>
      <trkpt lat="42.293075" lon="-8.792048">
        <ele>120.2</ele>
        <time>1970-01-01T02:34:15.000Z</time>
      </trkpt>
      <trkpt lat="42.293072" lon="-8.792062">
        <ele>120.2</ele>
        <time>1970-01-01T02:34:16.000Z</time>
      </trkpt>
      <trkpt lat="42.293065" lon="-8.792072">
        <ele>120.2</ele>
        <time>1970-01-01T02:34:17.000Z</time>
      </trkpt>
      <trkpt lat="42.29306" lon="-8.792087">
        <ele>120.2</ele>
        <time>1970-01-01T02:34:18.000Z</time>
      </trkpt>
      <trkpt lat="42.293058" lon="-8.7921">
        <ele>119.3</ele>
        <time>1970-01-01T02:34:19.000Z</time>
      </trkpt>
      <trkpt lat="42.293055" lon="-8.792107">
        <ele>119.3</ele>
        <time>1970-01-01T02:34:20.000Z</time>
      </trkpt>
      <trkpt lat="42.293053" lon="-8.792122">
        <ele>119.3</ele>
        <time>1970-01-01T02:34:21.000Z</time>
      </trkpt>
      <trkpt lat="42.293052" lon="-8.792137">
        <ele>119.3</ele>
        <time>1970-01-01T02:34:22.000Z</time>
      </trkpt>
      <trkpt lat="42.293048" lon="-8.792147">
        <ele>118.3</ele>
        <time>1970-01-01T02:34:23.000Z</time>
      </trkpt>
      <trkpt lat="42.293047" lon="-8.79215">
        <ele>118.3</ele>
        <time>1970-01-01T02:34:24.000Z</time>
      </trkpt>
      <trkpt lat="42.293043" lon="-8.792158">
        <ele>118.3</ele>
        <time>1970-01-01T02:34:25.000Z</time>
      </trkpt>
      <trkpt lat="42.29304" lon="-8.792168">
        <ele>118.3</ele>
        <time>1970-01-01T02:34:26.000Z</time>
      </trkpt>
      <trkpt lat="42.29304" lon="-8.792175">
        <ele>118.3</ele>
        <time>1970-01-01T02:34:27.000Z</time>
      </trkpt>
      <trkpt lat="42.29304" lon="-8.792175">
        <ele>118.3</ele>
        <time>1970-01-01T02:34:28.000Z</time>
      </trkpt>
      <trkpt lat="42.293038" lon="-8.792188">
        <ele>117.2</ele>
        <time>1970-01-01T02:34:29.000Z</time>
      </trkpt>
      <trkpt lat="42.293038" lon="-8.792192">
        <ele>117.2</ele>
        <time>1970-01-01T02:34:30.000Z</time>
      </trkpt>
      <trkpt lat="42.293038" lon="-8.792197">
        <ele>117.2</ele>
        <time>1970-01-01T02:34:31.000Z</time>
      </trkpt>
      <trkpt lat="42.293038" lon="-8.792202">
        <ele>117.2</ele>
        <time>1970-01-01T02:34:32.000Z</time>
      </trkpt>
      <trkpt lat="42.293038" lon="-8.792202">
        <ele>117.2</ele>
        <time>1970-01-01T02:34:33.000Z</time>
      </trkpt>
      <trkpt lat="42.29304" lon="-8.792208">
        <ele>117.2</ele>
        <time>1970-01-01T02:34:34.000Z</time>
      </trkpt>
      <trkpt lat="42.29304" lon="-8.79221">
        <ele>117.2</ele>
        <time>1970-01-01T02:34:35.000Z</time>
      </trkpt>
      <trkpt lat="42.29304" lon="-8.79221">
        <ele>117.2</ele>
        <time>1970-01-01T02:34:36.000Z</time>
      </trkpt>
      <trkpt lat="42.29304" lon="-8.792212">
        <ele>116.3</ele>
        <time>1970-01-01T02:34:37.000Z</time>
      </trkpt>
      <trkpt lat="42.293038" lon="-8.792208">
        <ele>116.3</ele>
        <time>1970-01-01T02:34:38.000Z</time>
      </trkpt>
      <trkpt lat="42.293035" lon="-8.792212">
        <ele>117.2</ele>
        <time>1970-01-01T02:34:39.000Z</time>
      </trkpt>
      <trkpt lat="42.29303" lon="-8.792222">
        <ele>117.2</ele>
        <time>1970-01-01T02:34:40.000Z</time>
      </trkpt>
      <trkpt lat="42.293023" lon="-8.792235">
        <ele>117.2</ele>
        <time>1970-01-01T02:34:41.000Z</time>
      </trkpt>
      <trkpt lat="42.29302" lon="-8.792247">
        <ele>117.2</ele>
        <time>1970-01-01T02:34:42.000Z</time>
      </trkpt>
      <trkpt lat="42.293015" lon="-8.792257">
        <ele>116.3</ele>
        <time>1970-01-01T02:34:43.000Z</time>
      </trkpt>
      <trkpt lat="42.293012" lon="-8.79226">
        <ele>116.3</ele>
        <time>1970-01-01T02:34:44.000Z</time>
      </trkpt>
      <trkpt lat="42.29301" lon="-8.792267">
        <ele>115.2</ele>
        <time>1970-01-01T02:34:45.000Z</time>
      </trkpt>
      <trkpt lat="42.293008" lon="-8.792272">
        <ele>115.2</ele>
        <time>1970-01-01T02:34:46.000Z</time>
      </trkpt>
      <trkpt lat="42.293007" lon="-8.792282">
        <ele>115.2</ele>
        <time>1970-01-01T02:34:47.000Z</time>
      </trkpt>
      <trkpt lat="42.293002" lon="-8.792293">
        <ele>115.2</ele>
        <time>1970-01-01T02:34:48.000Z</time>
      </trkpt>
      <trkpt lat="42.292997" lon="-8.792302">
        <ele>115.2</ele>
        <time>1970-01-01T02:34:49.000Z</time>
      </trkpt>
      <trkpt lat="42.292993" lon="-8.79231">
        <ele>115.2</ele>
        <time>1970-01-01T02:34:50.000Z</time>
      </trkpt>
      <trkpt lat="42.292982" lon="-8.792325">
        <ele>114.3</ele>
        <time>1970-01-01T02:34:51.000Z</time>
      </trkpt>
      <trkpt lat="42.292982" lon="-8.792325">
        <ele>114.3</ele>
        <time>1970-01-01T02:34:52.000Z</time>
      </trkpt>
      <trkpt lat="42.292963" lon="-8.792355">
        <ele>114.3</ele>
        <time>1970-01-01T02:34:53.000Z</time>
      </trkpt>
      <trkpt lat="42.292958" lon="-8.79237">
        <ele>114.3</ele>
        <time>1970-01-01T02:34:54.000Z</time>
      </trkpt>
      <trkpt lat="42.292955" lon="-8.792378">
        <ele>113.2</ele>
        <time>1970-01-01T02:34:55.000Z</time>
      </trkpt>
      <trkpt lat="42.292952" lon="-8.792383">
        <ele>113.2</ele>
        <time>1970-01-01T02:34:56.000Z</time>
      </trkpt>
      <trkpt lat="42.292952" lon="-8.792383">
        <ele>113.2</ele>
        <time>1970-01-01T02:34:57.000Z</time>
      </trkpt>
      <trkpt lat="42.29294" lon="-8.79239">
        <ele>113.2</ele>
        <time>1970-01-01T02:34:58.000Z</time>
      </trkpt>
      <trkpt lat="42.292933" lon="-8.792388">
        <ele>113.2</ele>
        <time>1970-01-01T02:34:59.000Z</time>
      </trkpt>
      <trkpt lat="42.292928" lon="-8.792397">
        <ele>113.2</ele>
        <time>1970-01-01T02:35:00.000Z</time>
      </trkpt>
      <trkpt lat="42.292925" lon="-8.792408">
        <ele>113.2</ele>
        <time>1970-01-01T02:35:01.000Z</time>
      </trkpt>
      <trkpt lat="42.29292" lon="-8.792422">
        <ele>113.2</ele>
        <time>1970-01-01T02:35:02.000Z</time>
      </trkpt>
      <trkpt lat="42.292917" lon="-8.792433">
        <ele>113.2</ele>
        <time>1970-01-01T02:35:03.000Z</time>
      </trkpt>
      <trkpt lat="42.292912" lon="-8.792445">
        <ele>113.2</ele>
        <time>1970-01-01T02:35:04.000Z</time>
      </trkpt>
      <trkpt lat="42.292905" lon="-8.792453">
        <ele>110.3</ele>
        <time>1970-01-01T02:35:05.000Z</time>
      </trkpt>
      <trkpt lat="42.292902" lon="-8.792462">
        <ele>110.3</ele>
        <time>1970-01-01T02:35:06.000Z</time>
      </trkpt>
      <trkpt lat="42.2929" lon="-8.79247">
        <ele>110.3</ele>
        <time>1970-01-01T02:35:07.000Z</time>
      </trkpt>
      <trkpt lat="42.292898" lon="-8.79248">
        <ele>110.3</ele>
        <time>1970-01-01T02:35:08.000Z</time>
      </trkpt>
      <trkpt lat="42.292897" lon="-8.792488">
        <ele>109.3</ele>
        <time>1970-01-01T02:35:09.000Z</time>
      </trkpt>
      <trkpt lat="42.292897" lon="-8.792498">
        <ele>109.3</ele>
        <time>1970-01-01T02:35:10.000Z</time>
      </trkpt>
      <trkpt lat="42.292895" lon="-8.792505">
        <ele>109.3</ele>
        <time>1970-01-01T02:35:11.000Z</time>
      </trkpt>
      <trkpt lat="42.292892" lon="-8.792513">
        <ele>109.3</ele>
        <time>1970-01-01T02:35:12.000Z</time>
      </trkpt>
      <trkpt lat="42.29289" lon="-8.79252">
        <ele>108.2</ele>
        <time>1970-01-01T02:35:13.000Z</time>
      </trkpt>
      <trkpt lat="42.292882" lon="-8.792522">
        <ele>108.2</ele>
        <time>1970-01-01T02:35:14.000Z</time>
      </trkpt>
      <trkpt lat="42.292878" lon="-8.792525">
        <ele>108.2</ele>
        <time>1970-01-01T02:35:15.000Z</time>
      </trkpt>
      <trkpt lat="42.292878" lon="-8.792525">
        <ele>108.2</ele>
        <time>1970-01-01T02:35:16.000Z</time>
      </trkpt>
      <trkpt lat="42.292875" lon="-8.792528">
        <ele>108.2</ele>
        <time>1970-01-01T02:35:17.000Z</time>
      </trkpt>
      <trkpt lat="42.292872" lon="-8.792532">
        <ele>108.2</ele>
        <time>1970-01-01T02:35:18.000Z</time>
      </trkpt>
      <trkpt lat="42.292868" lon="-8.792538">
        <ele>108.2</ele>
        <time>1970-01-01T02:35:19.000Z</time>
      </trkpt>
      <trkpt lat="42.292865" lon="-8.792547">
        <ele>108.2</ele>
        <time>1970-01-01T02:35:20.000Z</time>
      </trkpt>
      <trkpt lat="42.292865" lon="-8.792547">
        <ele>108.2</ele>
        <time>1970-01-01T02:35:21.000Z</time>
      </trkpt>
      <trkpt lat="42.292857" lon="-8.792562">
        <ele>107.3</ele>
        <time>1970-01-01T02:35:22.000Z</time>
      </trkpt>
      <trkpt lat="42.292857" lon="-8.792563">
        <ele>107.3</ele>
        <time>1970-01-01T02:35:23.000Z</time>
      </trkpt>
      <trkpt lat="42.292855" lon="-8.79257">
        <ele>107.3</ele>
        <time>1970-01-01T02:35:24.000Z</time>
      </trkpt>
      <trkpt lat="42.292852" lon="-8.792575">
        <ele>107.3</ele>
        <time>1970-01-01T02:35:25.000Z</time>
      </trkpt>
      <trkpt lat="42.292852" lon="-8.792575">
        <ele>106.2</ele>
        <time>1970-01-01T02:35:26.000Z</time>
      </trkpt>
      <trkpt lat="42.292842" lon="-8.792592">
        <ele>106.2</ele>
        <time>1970-01-01T02:35:27.000Z</time>
      </trkpt>
      <trkpt lat="42.292835" lon="-8.792602">
        <ele>106.2</ele>
        <time>1970-01-01T02:35:28.000Z</time>
      </trkpt>
      <trkpt lat="42.292833" lon="-8.792613">
        <ele>106.2</ele>
        <time>1970-01-01T02:35:29.000Z</time>
      </trkpt>
      <trkpt lat="42.292835" lon="-8.792622">
        <ele>105.3</ele>
        <time>1970-01-01T02:35:30.000Z</time>
      </trkpt>
      <trkpt lat="42.292837" lon="-8.792628">
        <ele>105.3</ele>
        <time>1970-01-01T02:35:31.000Z</time>
      </trkpt>
      <trkpt lat="42.292838" lon="-8.792633">
        <ele>105.3</ele>
        <time>1970-01-01T02:35:32.000Z</time>
      </trkpt>
      <trkpt lat="42.292838" lon="-8.792635">
        <ele>105.3</ele>
        <time>1970-01-01T02:35:33.000Z</time>
      </trkpt>
      <trkpt lat="42.292838" lon="-8.792637">
        <ele>105.3</ele>
        <time>1970-01-01T02:35:34.000Z</time>
      </trkpt>
      <trkpt lat="42.29284" lon="-8.792637">
        <ele>105.3</ele>
        <time>1970-01-01T02:35:35.000Z</time>
      </trkpt>
      <trkpt lat="42.292842" lon="-8.792638">
        <ele>105.3</ele>
        <time>1970-01-01T02:35:36.000Z</time>
      </trkpt>
      <trkpt lat="42.292848" lon="-8.792638">
        <ele>105.3</ele>
        <time>1970-01-01T02:35:37.000Z</time>
      </trkpt>
      <trkpt lat="42.292857" lon="-8.792633">
        <ele>105.3</ele>
        <time>1970-01-01T02:35:38.000Z</time>
      </trkpt>
      <trkpt lat="42.292868" lon="-8.792625">
        <ele>105.3</ele>
        <time>1970-01-01T02:35:39.000Z</time>
      </trkpt>
      <trkpt lat="42.292868" lon="-8.792625">
        <ele>105.3</ele>
        <time>1970-01-01T02:35:40.000Z</time>
      </trkpt>
      <trkpt lat="42.29289" lon="-8.792627">
        <ele>105.3</ele>
        <time>1970-01-01T02:35:41.000Z</time>
      </trkpt>
      <trkpt lat="42.292903" lon="-8.792623">
        <ele>105.3</ele>
        <time>1970-01-01T02:35:42.000Z</time>
      </trkpt>
      <trkpt lat="42.292918" lon="-8.792618">
        <ele>105.3</ele>
        <time>1970-01-01T02:35:43.000Z</time>
      </trkpt>
      <trkpt lat="42.292927" lon="-8.792613">
        <ele>105.3</ele>
        <time>1970-01-01T02:35:44.000Z</time>
      </trkpt>
      <trkpt lat="42.292927" lon="-8.792613">
        <ele>105.3</ele>
        <time>1970-01-01T02:35:45.000Z</time>
      </trkpt>
      <trkpt lat="42.292935" lon="-8.792607">
        <ele>105.3</ele>
        <time>1970-01-01T02:35:46.000Z</time>
      </trkpt>
      <trkpt lat="42.292938" lon="-8.792605">
        <ele>105.3</ele>
        <time>1970-01-01T02:35:47.000Z</time>
      </trkpt>
      <trkpt lat="42.292952" lon="-8.792607">
        <ele>105.3</ele>
        <time>1970-01-01T02:35:48.000Z</time>
      </trkpt>
      <trkpt lat="42.292965" lon="-8.792605">
        <ele>105.3</ele>
        <time>1970-01-01T02:35:49.000Z</time>
      </trkpt>
      <trkpt lat="42.292965" lon="-8.792605">
        <ele>105.3</ele>
        <time>1970-01-01T02:35:50.000Z</time>
      </trkpt>
      <trkpt lat="42.292993" lon="-8.792605">
        <ele>105.3</ele>
        <time>1970-01-01T02:35:51.000Z</time>
      </trkpt>
      <trkpt lat="42.293008" lon="-8.7926">
        <ele>105.3</ele>
        <time>1970-01-01T02:35:52.000Z</time>
      </trkpt>
      <trkpt lat="42.29302" lon="-8.792595">
        <ele>105.3</ele>
        <time>1970-01-01T02:35:53.000Z</time>
      </trkpt>
      <trkpt lat="42.293028" lon="-8.792587">
        <ele>106.2</ele>
        <time>1970-01-01T02:35:54.000Z</time>
      </trkpt>
      <trkpt lat="42.293042" lon="-8.792578">
        <ele>106.2</ele>
        <time>1970-01-01T02:35:55.000Z</time>
      </trkpt>
      <trkpt lat="42.293045" lon="-8.792572">
        <ele>106.2</ele>
        <time>1970-01-01T02:35:56.000Z</time>
      </trkpt>
      <trkpt lat="42.293048" lon="-8.792567">
        <ele>106.2</ele>
        <time>1970-01-01T02:35:57.000Z</time>
      </trkpt>
      <trkpt lat="42.293048" lon="-8.792565">
        <ele>107.3</ele>
        <time>1970-01-01T02:35:58.000Z</time>
      </trkpt>
      <trkpt lat="42.29305" lon="-8.792565">
        <ele>107.3</ele>
        <time>1970-01-01T02:35:59.000Z</time>
      </trkpt>
      <trkpt lat="42.29305" lon="-8.792565">
        <ele>107.3</ele>
        <time>1970-01-01T02:36:00.000Z</time>
      </trkpt>
      <trkpt lat="42.29305" lon="-8.792565">
        <ele>107.3</ele>
        <time>1970-01-01T02:36:01.000Z</time>
      </trkpt>
      <trkpt lat="42.29305" lon="-8.792563">
        <ele>107.3</ele>
        <time>1970-01-01T02:36:02.000Z</time>
      </trkpt>
      <trkpt lat="42.29305" lon="-8.792563">
        <ele>107.3</ele>
        <time>1970-01-01T02:36:03.000Z</time>
      </trkpt>
      <trkpt lat="42.29305" lon="-8.792563">
        <ele>106.2</ele>
        <time>1970-01-01T02:36:04.000Z</time>
      </trkpt>
      <trkpt lat="42.293048" lon="-8.792563">
        <ele>106.2</ele>
        <time>1970-01-01T02:36:05.000Z</time>
      </trkpt>
      <trkpt lat="42.293048" lon="-8.792563">
        <ele>106.2</ele>
        <time>1970-01-01T02:36:06.000Z</time>
      </trkpt>
      <trkpt lat="42.293048" lon="-8.792563">
        <ele>106.2</ele>
        <time>1970-01-01T02:36:07.000Z</time>
      </trkpt>
      <trkpt lat="42.293047" lon="-8.792563">
        <ele>106.2</ele>
        <time>1970-01-01T02:36:08.000Z</time>
      </trkpt>
      <trkpt lat="42.293047" lon="-8.792563">
        <ele>106.2</ele>
        <time>1970-01-01T02:36:09.000Z</time>
      </trkpt>
      <trkpt lat="42.293047" lon="-8.792563">
        <ele>105.3</ele>
        <time>1970-01-01T02:36:10.000Z</time>
      </trkpt>
      <trkpt lat="42.293047" lon="-8.792563">
        <ele>105.3</ele>
        <time>1970-01-01T02:36:11.000Z</time>
      </trkpt>
      <trkpt lat="42.293047" lon="-8.792563">
        <ele>105.3</ele>
        <time>1970-01-01T02:36:12.000Z</time>
      </trkpt>
      <trkpt lat="42.293047" lon="-8.792563">
        <ele>105.3</ele>
        <time>1970-01-01T02:36:13.000Z</time>
      </trkpt>
      <trkpt lat="42.293047" lon="-8.792563">
        <ele>104.2</ele>
        <time>1970-01-01T02:36:14.000Z</time>
      </trkpt>
      <trkpt lat="42.293047" lon="-8.792563">
        <ele>104.2</ele>
        <time>1970-01-01T02:36:15.000Z</time>
      </trkpt>
      <trkpt lat="42.293047" lon="-8.792563">
        <ele>104.2</ele>
        <time>1970-01-01T02:36:16.000Z</time>
      </trkpt>
      <trkpt lat="42.293048" lon="-8.792563">
        <ele>104.2</ele>
        <time>1970-01-01T02:36:17.000Z</time>
      </trkpt>
      <trkpt lat="42.293052" lon="-8.792562">
        <ele>103.3</ele>
        <time>1970-01-01T02:36:18.000Z</time>
      </trkpt>
      <trkpt lat="42.293067" lon="-8.792553">
        <ele>103.3</ele>
        <time>1970-01-01T02:36:19.000Z</time>
      </trkpt>
      <trkpt lat="42.293083" lon="-8.792543">
        <ele>103.3</ele>
        <time>1970-01-01T02:36:20.000Z</time>
      </trkpt>
      <trkpt lat="42.293102" lon="-8.79253">
        <ele>103.3</ele>
        <time>1970-01-01T02:36:21.000Z</time>
      </trkpt>
      <trkpt lat="42.293118" lon="-8.792525">
        <ele>102.3</ele>
        <time>1970-01-01T02:36:22.000Z</time>
      </trkpt>
      <trkpt lat="42.293132" lon="-8.792517">
        <ele>102.3</ele>
        <time>1970-01-01T02:36:23.000Z</time>
      </trkpt>
      <trkpt lat="42.293142" lon="-8.79251">
        <ele>102.3</ele>
        <time>1970-01-01T02:36:24.000Z</time>
      </trkpt>
      <trkpt lat="42.293148" lon="-8.792505">
        <ele>102.3</ele>
        <time>1970-01-01T02:36:25.000Z</time>
      </trkpt>
      <trkpt lat="42.293155" lon="-8.792502">
        <ele>102.3</ele>
        <time>1970-01-01T02:36:26.000Z</time>
      </trkpt>
      <trkpt lat="42.293163" lon="-8.792498">
        <ele>102.3</ele>
        <time>1970-01-01T02:36:27.000Z</time>
      </trkpt>
      <trkpt lat="42.293163" lon="-8.792498">
        <ele>102.3</ele>
        <time>1970-01-01T02:36:28.000Z</time>
      </trkpt>
      <trkpt lat="42.293173" lon="-8.792498">
        <ele>102.3</ele>
        <time>1970-01-01T02:36:29.000Z</time>
      </trkpt>
      <trkpt lat="42.293183" lon="-8.792497">
        <ele>101.2</ele>
        <time>1970-01-01T02:36:30.000Z</time>
      </trkpt>
      <trkpt lat="42.293192" lon="-8.792492">
        <ele>101.2</ele>
        <time>1970-01-01T02:36:31.000Z</time>
      </trkpt>
      <trkpt lat="42.293202" lon="-8.792487">
        <ele>101.2</ele>
        <time>1970-01-01T02:36:32.000Z</time>
      </trkpt>
      <trkpt lat="42.293202" lon="-8.792487">
        <ele>101.2</ele>
        <time>1970-01-01T02:36:33.000Z</time>
      </trkpt>
      <trkpt lat="42.293222" lon="-8.792477">
        <ele>101.2</ele>
        <time>1970-01-01T02:36:34.000Z</time>
      </trkpt>
      <trkpt lat="42.293232" lon="-8.792473">
        <ele>101.2</ele>
        <time>1970-01-01T02:36:35.000Z</time>
      </trkpt>
      <trkpt lat="42.293243" lon="-8.792468">
        <ele>101.2</ele>
        <time>1970-01-01T02:36:36.000Z</time>
      </trkpt>
      <trkpt lat="42.293258" lon="-8.792465">
        <ele>101.2</ele>
        <time>1970-01-01T02:36:37.000Z</time>
      </trkpt>
      <trkpt lat="42.293258" lon="-8.792465">
        <ele>102.3</ele>
        <time>1970-01-01T02:36:38.000Z</time>
      </trkpt>
      <trkpt lat="42.293293" lon="-8.792448">
        <ele>102.3</ele>
        <time>1970-01-01T02:36:39.000Z</time>
      </trkpt>
      <trkpt lat="42.293305" lon="-8.792443">
        <ele>102.3</ele>
        <time>1970-01-01T02:36:40.000Z</time>
      </trkpt>
      <trkpt lat="42.29332" lon="-8.79244">
        <ele>102.3</ele>
        <time>1970-01-01T02:36:41.000Z</time>
      </trkpt>
      <trkpt lat="42.293337" lon="-8.792433">
        <ele>102.3</ele>
        <time>1970-01-01T02:36:42.000Z</time>
      </trkpt>
      <trkpt lat="42.293337" lon="-8.792433">
        <ele>102.3</ele>
        <time>1970-01-01T02:36:43.000Z</time>
      </trkpt>
      <trkpt lat="42.293355" lon="-8.79242">
        <ele>103.3</ele>
        <time>1970-01-01T02:36:44.000Z</time>
      </trkpt>
      <trkpt lat="42.293375" lon="-8.792407">
        <ele>103.3</ele>
        <time>1970-01-01T02:36:45.000Z</time>
      </trkpt>
      <trkpt lat="42.293387" lon="-8.7924">
        <ele>103.3</ele>
        <time>1970-01-01T02:36:46.000Z</time>
      </trkpt>
      <trkpt lat="42.2934" lon="-8.79239">
        <ele>103.3</ele>
        <time>1970-01-01T02:36:47.000Z</time>
      </trkpt>
      <trkpt lat="42.29341" lon="-8.792378">
        <ele>103.3</ele>
        <time>1970-01-01T02:36:48.000Z</time>
      </trkpt>
      <trkpt lat="42.293422" lon="-8.792365">
        <ele>103.3</ele>
        <time>1970-01-01T02:36:49.000Z</time>
      </trkpt>
      <trkpt lat="42.29343" lon="-8.79235">
        <ele>103.3</ele>
        <time>1970-01-01T02:36:50.000Z</time>
      </trkpt>
      <trkpt lat="42.293442" lon="-8.792333">
        <ele>103.3</ele>
        <time>1970-01-01T02:36:51.000Z</time>
      </trkpt>
      <trkpt lat="42.293453" lon="-8.792315">
        <ele>104.2</ele>
        <time>1970-01-01T02:36:52.000Z</time>
      </trkpt>
      <trkpt lat="42.29347" lon="-8.792302">
        <ele>104.2</ele>
        <time>1970-01-01T02:36:53.000Z</time>
      </trkpt>
      <trkpt lat="42.293477" lon="-8.792292">
        <ele>104.2</ele>
        <time>1970-01-01T02:36:54.000Z</time>
      </trkpt>
      <trkpt lat="42.293487" lon="-8.792283">
        <ele>104.2</ele>
        <time>1970-01-01T02:36:55.000Z</time>
      </trkpt>
      <trkpt lat="42.293502" lon="-8.792277">
        <ele>104.2</ele>
        <time>1970-01-01T02:36:56.000Z</time>
      </trkpt>
      <trkpt lat="42.293502" lon="-8.792277">
        <ele>104.2</ele>
        <time>1970-01-01T02:36:57.000Z</time>
      </trkpt>
      <trkpt lat="42.293508" lon="-8.79227">
        <ele>105.3</ele>
        <time>1970-01-01T02:36:58.000Z</time>
      </trkpt>
      <trkpt lat="42.29351" lon="-8.792268">
        <ele>105.3</ele>
        <time>1970-01-01T02:36:59.000Z</time>
      </trkpt>
      <trkpt lat="42.293512" lon="-8.792267">
        <ele>105.3</ele>
        <time>1970-01-01T02:37:00.000Z</time>
      </trkpt>
      <trkpt lat="42.293517" lon="-8.792265">
        <ele>105.3</ele>
        <time>1970-01-01T02:37:01.000Z</time>
      </trkpt>
      <trkpt lat="42.293517" lon="-8.792265">
        <ele>105.3</ele>
        <time>1970-01-01T02:37:02.000Z</time>
      </trkpt>
      <trkpt lat="42.293525" lon="-8.792257">
        <ele>105.3</ele>
        <time>1970-01-01T02:37:03.000Z</time>
      </trkpt>
      <trkpt lat="42.29353" lon="-8.792252">
        <ele>105.3</ele>
        <time>1970-01-01T02:37:04.000Z</time>
      </trkpt>
      <trkpt lat="42.293533" lon="-8.792247">
        <ele>105.3</ele>
        <time>1970-01-01T02:37:05.000Z</time>
      </trkpt>
      <trkpt lat="42.293538" lon="-8.792238">
        <ele>106.2</ele>
        <time>1970-01-01T02:37:06.000Z</time>
      </trkpt>
      <trkpt lat="42.293538" lon="-8.792238">
        <ele>106.2</ele>
        <time>1970-01-01T02:37:07.000Z</time>
      </trkpt>
      <trkpt lat="42.293547" lon="-8.792222">
        <ele>106.2</ele>
        <time>1970-01-01T02:37:08.000Z</time>
      </trkpt>
      <trkpt lat="42.293553" lon="-8.792213">
        <ele>106.2</ele>
        <time>1970-01-01T02:37:09.000Z</time>
      </trkpt>
      <trkpt lat="42.293558" lon="-8.792205">
        <ele>107.3</ele>
        <time>1970-01-01T02:37:10.000Z</time>
      </trkpt>
      <trkpt lat="42.293567" lon="-8.792195">
        <ele>107.3</ele>
        <time>1970-01-01T02:37:11.000Z</time>
      </trkpt>
      <trkpt lat="42.293575" lon="-8.79218">
        <ele>107.3</ele>
        <time>1970-01-01T02:37:12.000Z</time>
      </trkpt>
      <trkpt lat="42.293582" lon="-8.792167">
        <ele>107.3</ele>
        <time>1970-01-01T02:37:13.000Z</time>
      </trkpt>
      <trkpt lat="42.293588" lon="-8.792152">
        <ele>108.2</ele>
        <time>1970-01-01T02:37:14.000Z</time>
      </trkpt>
      <trkpt lat="42.293593" lon="-8.792143">
        <ele>108.2</ele>
        <time>1970-01-01T02:37:15.000Z</time>
      </trkpt>
      <trkpt lat="42.293597" lon="-8.792133">
        <ele>108.2</ele>
        <time>1970-01-01T02:37:16.000Z</time>
      </trkpt>
      <trkpt lat="42.293605" lon="-8.792125">
        <ele>108.2</ele>
        <time>1970-01-01T02:37:17.000Z</time>
      </trkpt>
      <trkpt lat="42.293612" lon="-8.792118">
        <ele>109.3</ele>
        <time>1970-01-01T02:37:18.000Z</time>
      </trkpt>
      <trkpt lat="42.293623" lon="-8.792108">
        <ele>109.3</ele>
        <time>1970-01-01T02:37:19.000Z</time>
      </trkpt>
      <trkpt lat="42.293632" lon="-8.7921">
        <ele>109.3</ele>
        <time>1970-01-01T02:37:20.000Z</time>
      </trkpt>
      <trkpt lat="42.293632" lon="-8.7921">
        <ele>109.3</ele>
        <time>1970-01-01T02:37:21.000Z</time>
      </trkpt>
      <trkpt lat="42.29365" lon="-8.79208">
        <ele>110.3</ele>
        <time>1970-01-01T02:37:22.000Z</time>
      </trkpt>
      <trkpt lat="42.293657" lon="-8.792078">
        <ele>110.3</ele>
        <time>1970-01-01T02:37:23.000Z</time>
      </trkpt>
      <trkpt lat="42.29367" lon="-8.792073">
        <ele>110.3</ele>
        <time>1970-01-01T02:37:24.000Z</time>
      </trkpt>
      <trkpt lat="42.293678" lon="-8.792067">
        <ele>110.3</ele>
        <time>1970-01-01T02:37:25.000Z</time>
      </trkpt>
      <trkpt lat="42.293678" lon="-8.792067">
        <ele>111.3</ele>
        <time>1970-01-01T02:37:26.000Z</time>
      </trkpt>
      <trkpt lat="42.293702" lon="-8.792045">
        <ele>111.3</ele>
        <time>1970-01-01T02:37:27.000Z</time>
      </trkpt>
      <trkpt lat="42.293713" lon="-8.792033">
        <ele>111.3</ele>
        <time>1970-01-01T02:37:28.000Z</time>
      </trkpt>
      <trkpt lat="42.293727" lon="-8.792027">
        <ele>111.3</ele>
        <time>1970-01-01T02:37:29.000Z</time>
      </trkpt>
      <trkpt lat="42.293732" lon="-8.792018">
        <ele>111.3</ele>
        <time>1970-01-01T02:37:30.000Z</time>
      </trkpt>
      <trkpt lat="42.293732" lon="-8.792018">
        <ele>111.3</ele>
        <time>1970-01-01T02:37:31.000Z</time>
      </trkpt>
      <trkpt lat="42.293737" lon="-8.792007">
        <ele>112.3</ele>
        <time>1970-01-01T02:37:32.000Z</time>
      </trkpt>
      <trkpt lat="42.293743" lon="-8.791993">
        <ele>112.3</ele>
        <time>1970-01-01T02:37:33.000Z</time>
      </trkpt>
      <trkpt lat="42.293753" lon="-8.791982">
        <ele>112.3</ele>
        <time>1970-01-01T02:37:34.000Z</time>
      </trkpt>
      <trkpt lat="42.293762" lon="-8.791972">
        <ele>112.3</ele>
        <time>1970-01-01T02:37:35.000Z</time>
      </trkpt>
      <trkpt lat="42.293762" lon="-8.791972">
        <ele>113.2</ele>
        <time>1970-01-01T02:37:36.000Z</time>
      </trkpt>
      <trkpt lat="42.293783" lon="-8.79195">
        <ele>113.2</ele>
        <time>1970-01-01T02:37:37.000Z</time>
      </trkpt>
      <trkpt lat="42.293792" lon="-8.791937">
        <ele>113.2</ele>
        <time>1970-01-01T02:37:38.000Z</time>
      </trkpt>
      <trkpt lat="42.293795" lon="-8.791928">
        <ele>113.2</ele>
        <time>1970-01-01T02:37:39.000Z</time>
      </trkpt>
      <trkpt lat="42.293798" lon="-8.791925">
        <ele>114.3</ele>
        <time>1970-01-01T02:37:40.000Z</time>
      </trkpt>
      <trkpt lat="42.293797" lon="-8.791922">
        <ele>114.3</ele>
        <time>1970-01-01T02:37:41.000Z</time>
      </trkpt>
      <trkpt lat="42.293795" lon="-8.791915">
        <ele>114.3</ele>
        <time>1970-01-01T02:37:42.000Z</time>
      </trkpt>
      <trkpt lat="42.293795" lon="-8.791905">
        <ele>114.3</ele>
        <time>1970-01-01T02:37:43.000Z</time>
      </trkpt>
      <trkpt lat="42.293798" lon="-8.79189">
        <ele>115.2</ele>
        <time>1970-01-01T02:37:44.000Z</time>
      </trkpt>
      <trkpt lat="42.293802" lon="-8.791875">
        <ele>115.2</ele>
        <time>1970-01-01T02:37:45.000Z</time>
      </trkpt>
      <trkpt lat="42.293803" lon="-8.79186">
        <ele>116.3</ele>
        <time>1970-01-01T02:37:46.000Z</time>
      </trkpt>
      <trkpt lat="42.29381" lon="-8.791848">
        <ele>116.3</ele>
        <time>1970-01-01T02:37:47.000Z</time>
      </trkpt>
      <trkpt lat="42.293817" lon="-8.79184">
        <ele>116.3</ele>
        <time>1970-01-01T02:37:48.000Z</time>
      </trkpt>
      <trkpt lat="42.293822" lon="-8.79183">
        <ele>116.3</ele>
        <time>1970-01-01T02:37:49.000Z</time>
      </trkpt>
      <trkpt lat="42.293822" lon="-8.79183">
        <ele>117.2</ele>
        <time>1970-01-01T02:37:50.000Z</time>
      </trkpt>
      <trkpt lat="42.29383" lon="-8.791808">
        <ele>117.2</ele>
        <time>1970-01-01T02:37:51.000Z</time>
      </trkpt>
      <trkpt lat="42.293832" lon="-8.7918">
        <ele>118.3</ele>
        <time>1970-01-01T02:37:52.000Z</time>
      </trkpt>
      <trkpt lat="42.293833" lon="-8.79179">
        <ele>118.3</ele>
        <time>1970-01-01T02:37:53.000Z</time>
      </trkpt>
      <trkpt lat="42.293838" lon="-8.791778">
        <ele>119.3</ele>
        <time>1970-01-01T02:37:54.000Z</time>
      </trkpt>
      <trkpt lat="42.293838" lon="-8.791778">
        <ele>119.3</ele>
        <time>1970-01-01T02:37:55.000Z</time>
      </trkpt>
      <trkpt lat="42.293857" lon="-8.791763">
        <ele>120.2</ele>
        <time>1970-01-01T02:37:56.000Z</time>
      </trkpt>
      <trkpt lat="42.293867" lon="-8.791757">
        <ele>120.2</ele>
        <time>1970-01-01T02:37:57.000Z</time>
      </trkpt>
      <trkpt lat="42.293868" lon="-8.791748">
        <ele>121.3</ele>
        <time>1970-01-01T02:37:58.000Z</time>
      </trkpt>
      <trkpt lat="42.293872" lon="-8.79174">
        <ele>121.3</ele>
        <time>1970-01-01T02:37:59.000Z</time>
      </trkpt>
      <trkpt lat="42.293872" lon="-8.79174">
        <ele>121.3</ele>
        <time>1970-01-01T02:38:00.000Z</time>
      </trkpt>
      <trkpt lat="42.29388" lon="-8.791717">
        <ele>121.3</ele>
        <time>1970-01-01T02:38:01.000Z</time>
      </trkpt>
      <trkpt lat="42.293885" lon="-8.791702">
        <ele>122.2</ele>
        <time>1970-01-01T02:38:02.000Z</time>
      </trkpt>
      <trkpt lat="42.293893" lon="-8.79169">
        <ele>122.2</ele>
        <time>1970-01-01T02:38:03.000Z</time>
      </trkpt>
      <trkpt lat="42.2939" lon="-8.791683">
        <ele>122.2</ele>
        <time>1970-01-01T02:38:04.000Z</time>
      </trkpt>
      <trkpt lat="42.2939" lon="-8.791683">
        <ele>122.2</ele>
        <time>1970-01-01T02:38:05.000Z</time>
      </trkpt>
      <trkpt lat="42.293922" lon="-8.791658">
        <ele>123.3</ele>
        <time>1970-01-01T02:38:06.000Z</time>
      </trkpt>
      <trkpt lat="42.293932" lon="-8.791647">
        <ele>123.3</ele>
        <time>1970-01-01T02:38:07.000Z</time>
      </trkpt>
      <trkpt lat="42.293942" lon="-8.79163">
        <ele>123.3</ele>
        <time>1970-01-01T02:38:08.000Z</time>
      </trkpt>
      <trkpt lat="42.293948" lon="-8.791617">
        <ele>123.3</ele>
        <time>1970-01-01T02:38:09.000Z</time>
      </trkpt>
      <trkpt lat="42.293957" lon="-8.791603">
        <ele>124.2</ele>
        <time>1970-01-01T02:38:10.000Z</time>
      </trkpt>
      <trkpt lat="42.293965" lon="-8.791593">
        <ele>124.2</ele>
        <time>1970-01-01T02:38:11.000Z</time>
      </trkpt>
      <trkpt lat="42.293977" lon="-8.79158">
        <ele>124.2</ele>
        <time>1970-01-01T02:38:12.000Z</time>
      </trkpt>
      <trkpt lat="42.293983" lon="-8.791572">
        <ele>124.2</ele>
        <time>1970-01-01T02:38:13.000Z</time>
      </trkpt>
      <trkpt lat="42.293983" lon="-8.791572">
        <ele>125.3</ele>
        <time>1970-01-01T02:38:14.000Z</time>
      </trkpt>
      <trkpt lat="42.294003" lon="-8.791545">
        <ele>125.3</ele>
        <time>1970-01-01T02:38:15.000Z</time>
      </trkpt>
      <trkpt lat="42.294012" lon="-8.791533">
        <ele>125.3</ele>
        <time>1970-01-01T02:38:16.000Z</time>
      </trkpt>
      <trkpt lat="42.294015" lon="-8.791522">
        <ele>125.3</ele>
        <time>1970-01-01T02:38:17.000Z</time>
      </trkpt>
      <trkpt lat="42.29402" lon="-8.791515">
        <ele>126.3</ele>
        <time>1970-01-01T02:38:18.000Z</time>
      </trkpt>
      <trkpt lat="42.29402" lon="-8.791515">
        <ele>126.3</ele>
        <time>1970-01-01T02:38:19.000Z</time>
      </trkpt>
      <trkpt lat="42.294032" lon="-8.791502">
        <ele>126.3</ele>
        <time>1970-01-01T02:38:20.000Z</time>
      </trkpt>
      <trkpt lat="42.294038" lon="-8.79149">
        <ele>126.3</ele>
        <time>1970-01-01T02:38:21.000Z</time>
      </trkpt>
      <trkpt lat="42.29404" lon="-8.79148">
        <ele>126.3</ele>
        <time>1970-01-01T02:38:22.000Z</time>
      </trkpt>
      <trkpt lat="42.294045" lon="-8.791468">
        <ele>126.3</ele>
        <time>1970-01-01T02:38:23.000Z</time>
      </trkpt>
      <trkpt lat="42.294045" lon="-8.791468">
        <ele>126.3</ele>
        <time>1970-01-01T02:38:24.000Z</time>
      </trkpt>
      <trkpt lat="42.294048" lon="-8.79145">
        <ele>126.3</ele>
        <time>1970-01-01T02:38:25.000Z</time>
      </trkpt>
      <trkpt lat="42.294057" lon="-8.791442">
        <ele>126.3</ele>
        <time>1970-01-01T02:38:26.000Z</time>
      </trkpt>
      <trkpt lat="42.294058" lon="-8.791433">
        <ele>126.3</ele>
        <time>1970-01-01T02:38:27.000Z</time>
      </trkpt>
      <trkpt lat="42.294062" lon="-8.791423">
        <ele>129.2</ele>
        <time>1970-01-01T02:38:28.000Z</time>
      </trkpt>
      <trkpt lat="42.294062" lon="-8.791423">
        <ele>129.2</ele>
        <time>1970-01-01T02:38:29.000Z</time>
      </trkpt>
      <trkpt lat="42.294068" lon="-8.791407">
        <ele>129.2</ele>
        <time>1970-01-01T02:38:30.000Z</time>
      </trkpt>
      <trkpt lat="42.294078" lon="-8.791397">
        <ele>129.2</ele>
        <time>1970-01-01T02:38:31.000Z</time>
      </trkpt>
      <trkpt lat="42.29409" lon="-8.79139">
        <ele>130.3</ele>
        <time>1970-01-01T02:38:32.000Z</time>
      </trkpt>
      <trkpt lat="42.294092" lon="-8.79139">
        <ele>130.3</ele>
        <time>1970-01-01T02:38:33.000Z</time>
      </trkpt>
      <trkpt lat="42.294102" lon="-8.791382">
        <ele>130.3</ele>
        <time>1970-01-01T02:38:34.000Z</time>
      </trkpt>
      <trkpt lat="42.29411" lon="-8.79138">
        <ele>130.3</ele>
        <time>1970-01-01T02:38:35.000Z</time>
      </trkpt>
      <trkpt lat="42.294117" lon="-8.791378">
        <ele>131.2</ele>
        <time>1970-01-01T02:38:36.000Z</time>
      </trkpt>
      <trkpt lat="42.294123" lon="-8.791378">
        <ele>131.2</ele>
        <time>1970-01-01T02:38:37.000Z</time>
      </trkpt>
      <trkpt lat="42.29413" lon="-8.791377">
        <ele>131.2</ele>
        <time>1970-01-01T02:38:38.000Z</time>
      </trkpt>
      <trkpt lat="42.294137" lon="-8.791378">
        <ele>131.2</ele>
        <time>1970-01-01T02:38:39.000Z</time>
      </trkpt>
      <trkpt lat="42.294145" lon="-8.791378">
        <ele>131.2</ele>
        <time>1970-01-01T02:38:40.000Z</time>
      </trkpt>
      <trkpt lat="42.294153" lon="-8.791375">
        <ele>131.2</ele>
        <time>1970-01-01T02:38:41.000Z</time>
      </trkpt>
      <trkpt lat="42.294162" lon="-8.791372">
        <ele>131.2</ele>
        <time>1970-01-01T02:38:42.000Z</time>
      </trkpt>
      <trkpt lat="42.294162" lon="-8.791372">
        <ele>131.2</ele>
        <time>1970-01-01T02:38:43.000Z</time>
      </trkpt>
      <trkpt lat="42.29418" lon="-8.791365">
        <ele>132.3</ele>
        <time>1970-01-01T02:38:44.000Z</time>
      </trkpt>
      <trkpt lat="42.294188" lon="-8.791367">
        <ele>132.3</ele>
        <time>1970-01-01T02:38:45.000Z</time>
      </trkpt>
      <trkpt lat="42.294193" lon="-8.79137">
        <ele>132.3</ele>
        <time>1970-01-01T02:38:46.000Z</time>
      </trkpt>
      <trkpt lat="42.294202" lon="-8.791373">
        <ele>132.3</ele>
        <time>1970-01-01T02:38:47.000Z</time>
      </trkpt>
      <trkpt lat="42.294202" lon="-8.791373">
        <ele>132.3</ele>
        <time>1970-01-01T02:38:48.000Z</time>
      </trkpt>
      <trkpt lat="42.294218" lon="-8.791382">
        <ele>132.3</ele>
        <time>1970-01-01T02:38:49.000Z</time>
      </trkpt>
      <trkpt lat="42.294227" lon="-8.791383">
        <ele>132.3</ele>
        <time>1970-01-01T02:38:50.000Z</time>
      </trkpt>
      <trkpt lat="42.29423" lon="-8.791395">
        <ele>132.3</ele>
        <time>1970-01-01T02:38:51.000Z</time>
      </trkpt>
      <trkpt lat="42.294238" lon="-8.791407">
        <ele>132.3</ele>
        <time>1970-01-01T02:38:52.000Z</time>
      </trkpt>
      <trkpt lat="42.294238" lon="-8.791407">
        <ele>132.3</ele>
        <time>1970-01-01T02:38:53.000Z</time>
      </trkpt>
      <trkpt lat="42.294252" lon="-8.7914">
        <ele>134.3</ele>
        <time>1970-01-01T02:38:54.000Z</time>
      </trkpt>
      <trkpt lat="42.29426" lon="-8.791395">
        <ele>134.3</ele>
        <time>1970-01-01T02:38:55.000Z</time>
      </trkpt>
      <trkpt lat="42.294268" lon="-8.79139">
        <ele>135.3</ele>
        <time>1970-01-01T02:38:56.000Z</time>
      </trkpt>
      <trkpt lat="42.294273" lon="-8.791388">
        <ele>135.3</ele>
        <time>1970-01-01T02:38:57.000Z</time>
      </trkpt>
      <trkpt lat="42.29428" lon="-8.791385">
        <ele>135.3</ele>
        <time>1970-01-01T02:38:58.000Z</time>
      </trkpt>
      <trkpt lat="42.294292" lon="-8.79138">
        <ele>135.3</ele>
        <time>1970-01-01T02:38:59.000Z</time>
      </trkpt>
      <trkpt lat="42.294302" lon="-8.79138">
        <ele>135.3</ele>
        <time>1970-01-01T02:39:00.000Z</time>
      </trkpt>
      <trkpt lat="42.29431" lon="-8.791383">
        <ele>135.3</ele>
        <time>1970-01-01T02:39:01.000Z</time>
      </trkpt>
      <trkpt lat="42.29432" lon="-8.791385">
        <ele>135.3</ele>
        <time>1970-01-01T02:39:02.000Z</time>
      </trkpt>
      <trkpt lat="42.294328" lon="-8.791385">
        <ele>135.3</ele>
        <time>1970-01-01T02:39:03.000Z</time>
      </trkpt>
      <trkpt lat="42.29434" lon="-8.791385">
        <ele>136.2</ele>
        <time>1970-01-01T02:39:04.000Z</time>
      </trkpt>
      <trkpt lat="42.29435" lon="-8.791385">
        <ele>136.2</ele>
        <time>1970-01-01T02:39:05.000Z</time>
      </trkpt>
      <trkpt lat="42.294358" lon="-8.791382">
        <ele>136.2</ele>
        <time>1970-01-01T02:39:06.000Z</time>
      </trkpt>
      <trkpt lat="42.294358" lon="-8.791382">
        <ele>136.2</ele>
        <time>1970-01-01T02:39:07.000Z</time>
      </trkpt>
      <trkpt lat="42.294378" lon="-8.79137">
        <ele>136.2</ele>
        <time>1970-01-01T02:39:08.000Z</time>
      </trkpt>
      <trkpt lat="42.29439" lon="-8.791365">
        <ele>136.2</ele>
        <time>1970-01-01T02:39:09.000Z</time>
      </trkpt>
      <trkpt lat="42.2944" lon="-8.791358">
        <ele>137.3</ele>
        <time>1970-01-01T02:39:10.000Z</time>
      </trkpt>
      <trkpt lat="42.29441" lon="-8.791355">
        <ele>137.3</ele>
        <time>1970-01-01T02:39:11.000Z</time>
      </trkpt>
      <trkpt lat="42.29441" lon="-8.791355">
        <ele>138.2</ele>
        <time>1970-01-01T02:39:12.000Z</time>
      </trkpt>
      <trkpt lat="42.294432" lon="-8.791348">
        <ele>138.2</ele>
        <time>1970-01-01T02:39:13.000Z</time>
      </trkpt>
      <trkpt lat="42.294442" lon="-8.791345">
        <ele>138.2</ele>
        <time>1970-01-01T02:39:14.000Z</time>
      </trkpt>
      <trkpt lat="42.294455" lon="-8.79134">
        <ele>138.2</ele>
        <time>1970-01-01T02:39:15.000Z</time>
      </trkpt>
      <trkpt lat="42.294463" lon="-8.791335">
        <ele>138.2</ele>
        <time>1970-01-01T02:39:16.000Z</time>
      </trkpt>
      <trkpt lat="42.294463" lon="-8.791335">
        <ele>138.2</ele>
        <time>1970-01-01T02:39:17.000Z</time>
      </trkpt>
      <trkpt lat="42.29448" lon="-8.791322">
        <ele>138.2</ele>
        <time>1970-01-01T02:39:18.000Z</time>
      </trkpt>
      <trkpt lat="42.294487" lon="-8.791315">
        <ele>138.2</ele>
        <time>1970-01-01T02:39:19.000Z</time>
      </trkpt>
      <trkpt lat="42.29449" lon="-8.791313">
        <ele>138.2</ele>
        <time>1970-01-01T02:39:20.000Z</time>
      </trkpt>
      <trkpt lat="42.294493" lon="-8.79131">
        <ele>138.2</ele>
        <time>1970-01-01T02:39:21.000Z</time>
      </trkpt>
      <trkpt lat="42.294493" lon="-8.79131">
        <ele>138.2</ele>
        <time>1970-01-01T02:39:22.000Z</time>
      </trkpt>
      <trkpt lat="42.294502" lon="-8.791307">
        <ele>138.2</ele>
        <time>1970-01-01T02:39:23.000Z</time>
      </trkpt>
      <trkpt lat="42.294503" lon="-8.791305">
        <ele>138.2</ele>
        <time>1970-01-01T02:39:24.000Z</time>
      </trkpt>
      <trkpt lat="42.294505" lon="-8.791303">
        <ele>138.2</ele>
        <time>1970-01-01T02:39:25.000Z</time>
      </trkpt>
      <trkpt lat="42.294507" lon="-8.791303">
        <ele>138.2</ele>
        <time>1970-01-01T02:39:26.000Z</time>
      </trkpt>
      <trkpt lat="42.294507" lon="-8.791303">
        <ele>138.2</ele>
        <time>1970-01-01T02:39:27.000Z</time>
      </trkpt>
      <trkpt lat="42.294507" lon="-8.791303">
        <ele>138.2</ele>
        <time>1970-01-01T02:39:28.000Z</time>
      </trkpt>
      <trkpt lat="42.294507" lon="-8.791303">
        <ele>138.2</ele>
        <time>1970-01-01T02:39:29.000Z</time>
      </trkpt>
      <trkpt lat="42.294508" lon="-8.791302">
        <ele>138.2</ele>
        <time>1970-01-01T02:39:30.000Z</time>
      </trkpt>
      <trkpt lat="42.294508" lon="-8.791302">
        <ele>138.2</ele>
        <time>1970-01-01T02:39:31.000Z</time>
      </trkpt>
      <trkpt lat="42.294517" lon="-8.791298">
        <ele>138.2</ele>
        <time>1970-01-01T02:39:32.000Z</time>
      </trkpt>
      <trkpt lat="42.294525" lon="-8.791297">
        <ele>138.2</ele>
        <time>1970-01-01T02:39:33.000Z</time>
      </trkpt>
      <trkpt lat="42.294535" lon="-8.791293">
        <ele>138.2</ele>
        <time>1970-01-01T02:39:34.000Z</time>
      </trkpt>
      <trkpt lat="42.294545" lon="-8.791287">
        <ele>138.2</ele>
        <time>1970-01-01T02:39:35.000Z</time>
      </trkpt>
      <trkpt lat="42.294545" lon="-8.791287">
        <ele>138.2</ele>
        <time>1970-01-01T02:39:36.000Z</time>
      </trkpt>
      <trkpt lat="42.294563" lon="-8.791275">
        <ele>138.2</ele>
        <time>1970-01-01T02:39:37.000Z</time>
      </trkpt>
      <trkpt lat="42.294577" lon="-8.791268">
        <ele>138.2</ele>
        <time>1970-01-01T02:39:38.000Z</time>
      </trkpt>
      <trkpt lat="42.29459" lon="-8.791262">
        <ele>138.2</ele>
        <time>1970-01-01T02:39:39.000Z</time>
      </trkpt>
      <trkpt lat="42.294602" lon="-8.791258">
        <ele>138.2</ele>
        <time>1970-01-01T02:39:40.000Z</time>
      </trkpt>
      <trkpt lat="42.294602" lon="-8.791258">
        <ele>138.2</ele>
        <time>1970-01-01T02:39:41.000Z</time>
      </trkpt>
      <trkpt lat="42.294618" lon="-8.791253">
        <ele>138.2</ele>
        <time>1970-01-01T02:39:42.000Z</time>
      </trkpt>
      <trkpt lat="42.29463" lon="-8.79125">
        <ele>138.2</ele>
        <time>1970-01-01T02:39:43.000Z</time>
      </trkpt>
      <trkpt lat="42.294642" lon="-8.791248">
        <ele>138.2</ele>
        <time>1970-01-01T02:39:44.000Z</time>
      </trkpt>
      <trkpt lat="42.294653" lon="-8.79125">
        <ele>138.2</ele>
        <time>1970-01-01T02:39:45.000Z</time>
      </trkpt>
      <trkpt lat="42.294653" lon="-8.79125">
        <ele>138.2</ele>
        <time>1970-01-01T02:39:46.000Z</time>
      </trkpt>
      <trkpt lat="42.29468" lon="-8.791257">
        <ele>138.2</ele>
        <time>1970-01-01T02:39:47.000Z</time>
      </trkpt>
      <trkpt lat="42.294692" lon="-8.79126">
        <ele>138.2</ele>
        <time>1970-01-01T02:39:48.000Z</time>
      </trkpt>
      <trkpt lat="42.2947" lon="-8.791268">
        <ele>138.2</ele>
        <time>1970-01-01T02:39:49.000Z</time>
      </trkpt>
      <trkpt lat="42.294708" lon="-8.791278">
        <ele>138.2</ele>
        <time>1970-01-01T02:39:50.000Z</time>
      </trkpt>
      <trkpt lat="42.294718" lon="-8.79129">
        <ele>138.2</ele>
        <time>1970-01-01T02:39:51.000Z</time>
      </trkpt>
      <trkpt lat="42.294725" lon="-8.791305">
        <ele>138.2</ele>
        <time>1970-01-01T02:39:52.000Z</time>
      </trkpt>
      <trkpt lat="42.29473" lon="-8.791322">
        <ele>138.2</ele>
        <time>1970-01-01T02:39:53.000Z</time>
      </trkpt>
      <trkpt lat="42.294737" lon="-8.791338">
        <ele>138.2</ele>
        <time>1970-01-01T02:39:54.000Z</time>
      </trkpt>
      <trkpt lat="42.294742" lon="-8.791352">
        <ele>138.2</ele>
        <time>1970-01-01T02:39:55.000Z</time>
      </trkpt>
      <trkpt lat="42.294748" lon="-8.791367">
        <ele>138.2</ele>
        <time>1970-01-01T02:39:56.000Z</time>
      </trkpt>
      <trkpt lat="42.294755" lon="-8.791382">
        <ele>138.2</ele>
        <time>1970-01-01T02:39:57.000Z</time>
      </trkpt>
      <trkpt lat="42.294763" lon="-8.791393">
        <ele>138.2</ele>
        <time>1970-01-01T02:39:58.000Z</time>
      </trkpt>
      <trkpt lat="42.294772" lon="-8.791405">
        <ele>138.2</ele>
        <time>1970-01-01T02:39:59.000Z</time>
      </trkpt>
      <trkpt lat="42.294772" lon="-8.791405">
        <ele>138.2</ele>
        <time>1970-01-01T02:40:00.000Z</time>
      </trkpt>
      <trkpt lat="42.294785" lon="-8.791422">
        <ele>138.2</ele>
        <time>1970-01-01T02:40:01.000Z</time>
      </trkpt>
      <trkpt lat="42.294795" lon="-8.791432">
        <ele>140.2</ele>
        <time>1970-01-01T02:40:02.000Z</time>
      </trkpt>
      <trkpt lat="42.294803" lon="-8.79144">
        <ele>140.2</ele>
        <time>1970-01-01T02:40:03.000Z</time>
      </trkpt>
      <trkpt lat="42.29481" lon="-8.79145">
        <ele>140.2</ele>
        <time>1970-01-01T02:40:04.000Z</time>
      </trkpt>
      <trkpt lat="42.29481" lon="-8.79145">
        <ele>140.2</ele>
        <time>1970-01-01T02:40:05.000Z</time>
      </trkpt>
      <trkpt lat="42.294825" lon="-8.791462">
        <ele>140.2</ele>
        <time>1970-01-01T02:40:06.000Z</time>
      </trkpt>
      <trkpt lat="42.294835" lon="-8.791465">
        <ele>140.2</ele>
        <time>1970-01-01T02:40:07.000Z</time>
      </trkpt>
      <trkpt lat="42.294845" lon="-8.79147">
        <ele>140.2</ele>
        <time>1970-01-01T02:40:08.000Z</time>
      </trkpt>
      <trkpt lat="42.294858" lon="-8.791475">
        <ele>140.2</ele>
        <time>1970-01-01T02:40:09.000Z</time>
      </trkpt>
      <trkpt lat="42.294858" lon="-8.791475">
        <ele>140.2</ele>
        <time>1970-01-01T02:40:10.000Z</time>
      </trkpt>
      <trkpt lat="42.294878" lon="-8.791483">
        <ele>140.2</ele>
        <time>1970-01-01T02:40:11.000Z</time>
      </trkpt>
      <trkpt lat="42.29489" lon="-8.791485">
        <ele>141.3</ele>
        <time>1970-01-01T02:40:12.000Z</time>
      </trkpt>
      <trkpt lat="42.294898" lon="-8.791488">
        <ele>141.3</ele>
        <time>1970-01-01T02:40:13.000Z</time>
      </trkpt>
      <trkpt lat="42.294908" lon="-8.791488">
        <ele>141.3</ele>
        <time>1970-01-01T02:40:14.000Z</time>
      </trkpt>
      <trkpt lat="42.294908" lon="-8.791488">
        <ele>141.3</ele>
        <time>1970-01-01T02:40:15.000Z</time>
      </trkpt>
      <trkpt lat="42.29493" lon="-8.791482">
        <ele>141.3</ele>
        <time>1970-01-01T02:40:16.000Z</time>
      </trkpt>
      <trkpt lat="42.29494" lon="-8.791475">
        <ele>141.3</ele>
        <time>1970-01-01T02:40:17.000Z</time>
      </trkpt>
      <trkpt lat="42.29495" lon="-8.791463">
        <ele>141.3</ele>
        <time>1970-01-01T02:40:18.000Z</time>
      </trkpt>
      <trkpt lat="42.294962" lon="-8.791447">
        <ele>141.3</ele>
        <time>1970-01-01T02:40:19.000Z</time>
      </trkpt>
      <trkpt lat="42.294972" lon="-8.791438">
        <ele>141.3</ele>
        <time>1970-01-01T02:40:20.000Z</time>
      </trkpt>
      <trkpt lat="42.294983" lon="-8.791423">
        <ele>141.3</ele>
        <time>1970-01-01T02:40:21.000Z</time>
      </trkpt>
      <trkpt lat="42.294995" lon="-8.791408">
        <ele>141.3</ele>
        <time>1970-01-01T02:40:22.000Z</time>
      </trkpt>
      <trkpt lat="42.295007" lon="-8.791392">
        <ele>141.3</ele>
        <time>1970-01-01T02:40:23.000Z</time>
      </trkpt>
      <trkpt lat="42.295007" lon="-8.791392">
        <ele>141.3</ele>
        <time>1970-01-01T02:40:24.000Z</time>
      </trkpt>
      <trkpt lat="42.295028" lon="-8.79136">
        <ele>141.3</ele>
        <time>1970-01-01T02:40:25.000Z</time>
      </trkpt>
      <trkpt lat="42.295037" lon="-8.791342">
        <ele>141.3</ele>
        <time>1970-01-01T02:40:26.000Z</time>
      </trkpt>
      <trkpt lat="42.29504" lon="-8.791333">
        <ele>141.3</ele>
        <time>1970-01-01T02:40:27.000Z</time>
      </trkpt>
      <trkpt lat="42.295043" lon="-8.791327">
        <ele>142.2</ele>
        <time>1970-01-01T02:40:28.000Z</time>
      </trkpt>
      <trkpt lat="42.295043" lon="-8.791327">
        <ele>142.2</ele>
        <time>1970-01-01T02:40:29.000Z</time>
      </trkpt>
      <trkpt lat="42.295045" lon="-8.791323">
        <ele>142.2</ele>
        <time>1970-01-01T02:40:30.000Z</time>
      </trkpt>
      <trkpt lat="42.295045" lon="-8.791323">
        <ele>142.2</ele>
        <time>1970-01-01T02:40:31.000Z</time>
      </trkpt>
      <trkpt lat="42.295045" lon="-8.791323">
        <ele>142.2</ele>
        <time>1970-01-01T02:40:32.000Z</time>
      </trkpt>
      <trkpt lat="42.295045" lon="-8.791323">
        <ele>142.2</ele>
        <time>1970-01-01T02:40:33.000Z</time>
      </trkpt>
      <trkpt lat="42.295045" lon="-8.791323">
        <ele>142.2</ele>
        <time>1970-01-01T02:40:34.000Z</time>
      </trkpt>
      <trkpt lat="42.295045" lon="-8.791325">
        <ele>142.2</ele>
        <time>1970-01-01T02:40:35.000Z</time>
      </trkpt>
      <trkpt lat="42.295045" lon="-8.791327">
        <ele>143.3</ele>
        <time>1970-01-01T02:40:36.000Z</time>
      </trkpt>
      <trkpt lat="42.295045" lon="-8.791328">
        <ele>143.3</ele>
        <time>1970-01-01T02:40:37.000Z</time>
      </trkpt>
      <trkpt lat="42.295047" lon="-8.79133">
        <ele>144.3</ele>
        <time>1970-01-01T02:40:38.000Z</time>
      </trkpt>
      <trkpt lat="42.295047" lon="-8.79133">
        <ele>144.3</ele>
        <time>1970-01-01T02:40:39.000Z</time>
      </trkpt>
      <trkpt lat="42.295045" lon="-8.79133">
        <ele>144.3</ele>
        <time>1970-01-01T02:40:40.000Z</time>
      </trkpt>
      <trkpt lat="42.295043" lon="-8.791332">
        <ele>144.3</ele>
        <time>1970-01-01T02:40:41.000Z</time>
      </trkpt>
      <trkpt lat="42.295042" lon="-8.791332">
        <ele>144.3</ele>
        <time>1970-01-01T02:40:42.000Z</time>
      </trkpt>
      <trkpt lat="42.295042" lon="-8.791332">
        <ele>144.3</ele>
        <time>1970-01-01T02:40:43.000Z</time>
      </trkpt>
      <trkpt lat="42.295042" lon="-8.791332">
        <ele>144.3</ele>
        <time>1970-01-01T02:40:44.000Z</time>
      </trkpt>
      <trkpt lat="42.295042" lon="-8.791332">
        <ele>144.3</ele>
        <time>1970-01-01T02:40:45.000Z</time>
      </trkpt>
      <trkpt lat="42.295042" lon="-8.791332">
        <ele>144.3</ele>
        <time>1970-01-01T02:40:46.000Z</time>
      </trkpt>
      <trkpt lat="42.295042" lon="-8.791332">
        <ele>144.3</ele>
        <time>1970-01-01T02:40:47.000Z</time>
      </trkpt>
      <trkpt lat="42.295042" lon="-8.791332">
        <ele>144.3</ele>
        <time>1970-01-01T02:40:48.000Z</time>
      </trkpt>
      <trkpt lat="42.295042" lon="-8.791332">
        <ele>144.3</ele>
        <time>1970-01-01T02:40:49.000Z</time>
      </trkpt>
      <trkpt lat="42.295042" lon="-8.791332">
        <ele>144.3</ele>
        <time>1970-01-01T02:40:50.000Z</time>
      </trkpt>
      <trkpt lat="42.295045" lon="-8.791328">
        <ele>144.3</ele>
        <time>1970-01-01T02:40:51.000Z</time>
      </trkpt>
      <trkpt lat="42.295058" lon="-8.791317">
        <ele>144.3</ele>
        <time>1970-01-01T02:40:52.000Z</time>
      </trkpt>
      <trkpt lat="42.295058" lon="-8.791317">
        <ele>144.3</ele>
        <time>1970-01-01T02:40:53.000Z</time>
      </trkpt>
      <trkpt lat="42.295085" lon="-8.791287">
        <ele>145.2</ele>
        <time>1970-01-01T02:40:54.000Z</time>
      </trkpt>
      <trkpt lat="42.295098" lon="-8.79127">
        <ele>145.2</ele>
        <time>1970-01-01T02:40:55.000Z</time>
      </trkpt>
      <trkpt lat="42.29511" lon="-8.791257">
        <ele>145.2</ele>
        <time>1970-01-01T02:40:56.000Z</time>
      </trkpt>
      <trkpt lat="42.295122" lon="-8.791247">
        <ele>145.2</ele>
        <time>1970-01-01T02:40:57.000Z</time>
      </trkpt>
      <trkpt lat="42.295122" lon="-8.791247">
        <ele>145.2</ele>
        <time>1970-01-01T02:40:58.000Z</time>
      </trkpt>
      <trkpt lat="42.295143" lon="-8.791227">
        <ele>145.2</ele>
        <time>1970-01-01T02:40:59.000Z</time>
      </trkpt>
      <trkpt lat="42.295158" lon="-8.791215">
        <ele>146.3</ele>
        <time>1970-01-01T02:41:00.000Z</time>
      </trkpt>
      <trkpt lat="42.29517" lon="-8.791203">
        <ele>146.3</ele>
        <time>1970-01-01T02:41:01.000Z</time>
      </trkpt>
      <trkpt lat="42.295182" lon="-8.791193">
        <ele>146.3</ele>
        <time>1970-01-01T02:41:02.000Z</time>
      </trkpt>
      <trkpt lat="42.295182" lon="-8.791193">
        <ele>146.3</ele>
        <time>1970-01-01T02:41:03.000Z</time>
      </trkpt>
      <trkpt lat="42.295208" lon="-8.791185">
        <ele>146.3</ele>
        <time>1970-01-01T02:41:04.000Z</time>
      </trkpt>
      <trkpt lat="42.295225" lon="-8.791178">
        <ele>146.3</ele>
        <time>1970-01-01T02:41:05.000Z</time>
      </trkpt>
      <trkpt lat="42.295238" lon="-8.79117">
        <ele>147.2</ele>
        <time>1970-01-01T02:41:06.000Z</time>
      </trkpt>
      <trkpt lat="42.295247" lon="-8.791163">
        <ele>147.2</ele>
        <time>1970-01-01T02:41:07.000Z</time>
      </trkpt>
      <trkpt lat="42.295247" lon="-8.791163">
        <ele>147.2</ele>
        <time>1970-01-01T02:41:08.000Z</time>
      </trkpt>
      <trkpt lat="42.295267" lon="-8.791147">
        <ele>147.2</ele>
        <time>1970-01-01T02:41:09.000Z</time>
      </trkpt>
      <trkpt lat="42.295277" lon="-8.791137">
        <ele>147.2</ele>
        <time>1970-01-01T02:41:10.000Z</time>
      </trkpt>
      <trkpt lat="42.295288" lon="-8.791127">
        <ele>147.2</ele>
        <time>1970-01-01T02:41:11.000Z</time>
      </trkpt>
      <trkpt lat="42.295295" lon="-8.791122">
        <ele>148.3</ele>
        <time>1970-01-01T02:41:12.000Z</time>
      </trkpt>
      <trkpt lat="42.295305" lon="-8.791112">
        <ele>148.3</ele>
        <time>1970-01-01T02:41:13.000Z</time>
      </trkpt>
      <trkpt lat="42.295312" lon="-8.791103">
        <ele>148.3</ele>
        <time>1970-01-01T02:41:14.000Z</time>
      </trkpt>
      <trkpt lat="42.295322" lon="-8.791097">
        <ele>148.3</ele>
        <time>1970-01-01T02:41:15.000Z</time>
      </trkpt>
      <trkpt lat="42.295333" lon="-8.79109">
        <ele>148.3</ele>
        <time>1970-01-01T02:41:16.000Z</time>
      </trkpt>
      <trkpt lat="42.295333" lon="-8.79109">
        <ele>148.3</ele>
        <time>1970-01-01T02:41:17.000Z</time>
      </trkpt>
      <trkpt lat="42.295358" lon="-8.79107">
        <ele>149.2</ele>
        <time>1970-01-01T02:41:18.000Z</time>
      </trkpt>
      <trkpt lat="42.29537" lon="-8.791055">
        <ele>149.2</ele>
        <time>1970-01-01T02:41:19.000Z</time>
      </trkpt>
      <trkpt lat="42.295382" lon="-8.791042">
        <ele>149.2</ele>
        <time>1970-01-01T02:41:20.000Z</time>
      </trkpt>
      <trkpt lat="42.295392" lon="-8.791028">
        <ele>149.2</ele>
        <time>1970-01-01T02:41:21.000Z</time>
      </trkpt>
      <trkpt lat="42.295392" lon="-8.791028">
        <ele>149.2</ele>
        <time>1970-01-01T02:41:22.000Z</time>
      </trkpt>
      <trkpt lat="42.295415" lon="-8.791005">
        <ele>149.2</ele>
        <time>1970-01-01T02:41:23.000Z</time>
      </trkpt>
      <trkpt lat="42.295425" lon="-8.790995">
        <ele>150.3</ele>
        <time>1970-01-01T02:41:24.000Z</time>
      </trkpt>
      <trkpt lat="42.295433" lon="-8.790985">
        <ele>150.3</ele>
        <time>1970-01-01T02:41:25.000Z</time>
      </trkpt>
      <trkpt lat="42.295443" lon="-8.790973">
        <ele>150.3</ele>
        <time>1970-01-01T02:41:26.000Z</time>
      </trkpt>
      <trkpt lat="42.295443" lon="-8.790973">
        <ele>150.3</ele>
        <time>1970-01-01T02:41:27.000Z</time>
      </trkpt>
      <trkpt lat="42.295452" lon="-8.790962">
        <ele>150.3</ele>
        <time>1970-01-01T02:41:28.000Z</time>
      </trkpt>
      <trkpt lat="42.295455" lon="-8.790958">
        <ele>150.3</ele>
        <time>1970-01-01T02:41:29.000Z</time>
      </trkpt>
      <trkpt lat="42.295458" lon="-8.790957">
        <ele>151.3</ele>
        <time>1970-01-01T02:41:30.000Z</time>
      </trkpt>
      <trkpt lat="42.295465" lon="-8.79095">
        <ele>151.3</ele>
        <time>1970-01-01T02:41:31.000Z</time>
      </trkpt>
      <trkpt lat="42.295465" lon="-8.79095">
        <ele>151.3</ele>
        <time>1970-01-01T02:41:32.000Z</time>
      </trkpt>
      <trkpt lat="42.29547" lon="-8.790942">
        <ele>151.3</ele>
        <time>1970-01-01T02:41:33.000Z</time>
      </trkpt>
      <trkpt lat="42.295472" lon="-8.79094">
        <ele>151.3</ele>
        <time>1970-01-01T02:41:34.000Z</time>
      </trkpt>
      <trkpt lat="42.295473" lon="-8.790938">
        <ele>151.3</ele>
        <time>1970-01-01T02:41:35.000Z</time>
      </trkpt>
      <trkpt lat="42.295473" lon="-8.790938">
        <ele>151.3</ele>
        <time>1970-01-01T02:41:36.000Z</time>
      </trkpt>
      <trkpt lat="42.295475" lon="-8.790937">
        <ele>151.3</ele>
        <time>1970-01-01T02:41:37.000Z</time>
      </trkpt>
      <trkpt lat="42.295475" lon="-8.790937">
        <ele>151.3</ele>
        <time>1970-01-01T02:41:38.000Z</time>
      </trkpt>
      <trkpt lat="42.295475" lon="-8.790935">
        <ele>151.3</ele>
        <time>1970-01-01T02:41:39.000Z</time>
      </trkpt>
      <trkpt lat="42.295477" lon="-8.790935">
        <ele>151.3</ele>
        <time>1970-01-01T02:41:40.000Z</time>
      </trkpt>
      <trkpt lat="42.295477" lon="-8.790935">
        <ele>151.3</ele>
        <time>1970-01-01T02:41:41.000Z</time>
      </trkpt>
      <trkpt lat="42.295483" lon="-8.790922">
        <ele>151.3</ele>
        <time>1970-01-01T02:41:42.000Z</time>
      </trkpt>
      <trkpt lat="42.295492" lon="-8.790915">
        <ele>151.3</ele>
        <time>1970-01-01T02:41:43.000Z</time>
      </trkpt>
      <trkpt lat="42.295498" lon="-8.79091">
        <ele>152.2</ele>
        <time>1970-01-01T02:41:44.000Z</time>
      </trkpt>
      <trkpt lat="42.295507" lon="-8.7909">
        <ele>152.2</ele>
        <time>1970-01-01T02:41:45.000Z</time>
      </trkpt>
      <trkpt lat="42.295507" lon="-8.7909">
        <ele>152.2</ele>
        <time>1970-01-01T02:41:46.000Z</time>
      </trkpt>
      <trkpt lat="42.295522" lon="-8.790878">
        <ele>152.2</ele>
        <time>1970-01-01T02:41:47.000Z</time>
      </trkpt>
      <trkpt lat="42.295528" lon="-8.79087">
        <ele>152.2</ele>
        <time>1970-01-01T02:41:48.000Z</time>
      </trkpt>
      <trkpt lat="42.295535" lon="-8.790862">
        <ele>152.2</ele>
        <time>1970-01-01T02:41:49.000Z</time>
      </trkpt>
      <trkpt lat="42.295543" lon="-8.790853">
        <ele>153.3</ele>
        <time>1970-01-01T02:41:50.000Z</time>
      </trkpt>
      <trkpt lat="42.295543" lon="-8.790853">
        <ele>153.3</ele>
        <time>1970-01-01T02:41:51.000Z</time>
      </trkpt>
      <trkpt lat="42.29556" lon="-8.790837">
        <ele>153.3</ele>
        <time>1970-01-01T02:41:52.000Z</time>
      </trkpt>
      <trkpt lat="42.295568" lon="-8.790827">
        <ele>153.3</ele>
        <time>1970-01-01T02:41:53.000Z</time>
      </trkpt>
      <trkpt lat="42.295575" lon="-8.790817">
        <ele>153.3</ele>
        <time>1970-01-01T02:41:54.000Z</time>
      </trkpt>
      <trkpt lat="42.295582" lon="-8.790808">
        <ele>153.3</ele>
        <time>1970-01-01T02:41:55.000Z</time>
      </trkpt>
      <trkpt lat="42.295582" lon="-8.790808">
        <ele>154.2</ele>
        <time>1970-01-01T02:41:56.000Z</time>
      </trkpt>
      <trkpt lat="42.295597" lon="-8.790785">
        <ele>154.2</ele>
        <time>1970-01-01T02:41:57.000Z</time>
      </trkpt>
      <trkpt lat="42.295603" lon="-8.790777">
        <ele>154.2</ele>
        <time>1970-01-01T02:41:58.000Z</time>
      </trkpt>
      <trkpt lat="42.295608" lon="-8.790773">
        <ele>154.2</ele>
        <time>1970-01-01T02:41:59.000Z</time>
      </trkpt>
      <trkpt lat="42.295618" lon="-8.790765">
        <ele>154.2</ele>
        <time>1970-01-01T02:42:00.000Z</time>
      </trkpt>
      <trkpt lat="42.295618" lon="-8.790765">
        <ele>154.2</ele>
        <time>1970-01-01T02:42:01.000Z</time>
      </trkpt>
      <trkpt lat="42.295633" lon="-8.790748">
        <ele>154.2</ele>
        <time>1970-01-01T02:42:02.000Z</time>
      </trkpt>
      <trkpt lat="42.29564" lon="-8.790737">
        <ele>154.2</ele>
        <time>1970-01-01T02:42:03.000Z</time>
      </trkpt>
      <trkpt lat="42.295642" lon="-8.79073">
        <ele>154.2</ele>
        <time>1970-01-01T02:42:04.000Z</time>
      </trkpt>
      <trkpt lat="42.295642" lon="-8.79073">
        <ele>154.2</ele>
        <time>1970-01-01T02:42:05.000Z</time>
      </trkpt>
      <trkpt lat="42.295662" lon="-8.790713">
        <ele>154.2</ele>
        <time>1970-01-01T02:42:06.000Z</time>
      </trkpt>
      <trkpt lat="42.295672" lon="-8.790703">
        <ele>154.2</ele>
        <time>1970-01-01T02:42:07.000Z</time>
      </trkpt>
      <trkpt lat="42.295682" lon="-8.790693">
        <ele>154.2</ele>
        <time>1970-01-01T02:42:08.000Z</time>
      </trkpt>
      <trkpt lat="42.29569" lon="-8.790685">
        <ele>154.2</ele>
        <time>1970-01-01T02:42:09.000Z</time>
      </trkpt>
      <trkpt lat="42.29569" lon="-8.790685">
        <ele>155.3</ele>
        <time>1970-01-01T02:42:10.000Z</time>
      </trkpt>
      <trkpt lat="42.2957" lon="-8.790662">
        <ele>155.3</ele>
        <time>1970-01-01T02:42:11.000Z</time>
      </trkpt>
      <trkpt lat="42.295702" lon="-8.790652">
        <ele>155.3</ele>
        <time>1970-01-01T02:42:12.000Z</time>
      </trkpt>
      <trkpt lat="42.295707" lon="-8.79064">
        <ele>155.3</ele>
        <time>1970-01-01T02:42:13.000Z</time>
      </trkpt>
      <trkpt lat="42.295713" lon="-8.790632">
        <ele>155.3</ele>
        <time>1970-01-01T02:42:14.000Z</time>
      </trkpt>
      <trkpt lat="42.295713" lon="-8.790632">
        <ele>155.3</ele>
        <time>1970-01-01T02:42:15.000Z</time>
      </trkpt>
      <trkpt lat="42.295732" lon="-8.79061">
        <ele>155.3</ele>
        <time>1970-01-01T02:42:16.000Z</time>
      </trkpt>
      <trkpt lat="42.295737" lon="-8.790602">
        <ele>155.3</ele>
        <time>1970-01-01T02:42:17.000Z</time>
      </trkpt>
      <trkpt lat="42.295743" lon="-8.790595">
        <ele>155.3</ele>
        <time>1970-01-01T02:42:18.000Z</time>
      </trkpt>
      <trkpt lat="42.295753" lon="-8.790585">
        <ele>155.3</ele>
        <time>1970-01-01T02:42:19.000Z</time>
      </trkpt>
      <trkpt lat="42.295753" lon="-8.790585">
        <ele>155.3</ele>
        <time>1970-01-01T02:42:20.000Z</time>
      </trkpt>
      <trkpt lat="42.295777" lon="-8.790567">
        <ele>155.3</ele>
        <time>1970-01-01T02:42:21.000Z</time>
      </trkpt>
      <trkpt lat="42.295783" lon="-8.790562">
        <ele>155.3</ele>
        <time>1970-01-01T02:42:22.000Z</time>
      </trkpt>
      <trkpt lat="42.295793" lon="-8.790552">
        <ele>155.3</ele>
        <time>1970-01-01T02:42:23.000Z</time>
      </trkpt>
      <trkpt lat="42.2958" lon="-8.790547">
        <ele>156.2</ele>
        <time>1970-01-01T02:42:24.000Z</time>
      </trkpt>
      <trkpt lat="42.2958" lon="-8.790547">
        <ele>156.2</ele>
        <time>1970-01-01T02:42:25.000Z</time>
      </trkpt>
      <trkpt lat="42.295822" lon="-8.790533">
        <ele>156.2</ele>
        <time>1970-01-01T02:42:26.000Z</time>
      </trkpt>
      <trkpt lat="42.295833" lon="-8.790525">
        <ele>156.2</ele>
        <time>1970-01-01T02:42:27.000Z</time>
      </trkpt>
      <trkpt lat="42.295845" lon="-8.790517">
        <ele>156.2</ele>
        <time>1970-01-01T02:42:28.000Z</time>
      </trkpt>
      <trkpt lat="42.295845" lon="-8.790517">
        <ele>156.2</ele>
        <time>1970-01-01T02:42:29.000Z</time>
      </trkpt>
      <trkpt lat="42.295852" lon="-8.790512">
        <ele>156.2</ele>
        <time>1970-01-01T02:42:30.000Z</time>
      </trkpt>
      <trkpt lat="42.295852" lon="-8.79051">
        <ele>156.2</ele>
        <time>1970-01-01T02:42:31.000Z</time>
      </trkpt>
      <trkpt lat="42.29585" lon="-8.790508">
        <ele>156.2</ele>
        <time>1970-01-01T02:42:32.000Z</time>
      </trkpt>
      <trkpt lat="42.29585" lon="-8.790507">
        <ele>156.2</ele>
        <time>1970-01-01T02:42:33.000Z</time>
      </trkpt>
      <trkpt lat="42.295848" lon="-8.790508">
        <ele>156.2</ele>
        <time>1970-01-01T02:42:34.000Z</time>
      </trkpt>
      <trkpt lat="42.295848" lon="-8.79051">
        <ele>156.2</ele>
        <time>1970-01-01T02:42:35.000Z</time>
      </trkpt>
      <trkpt lat="42.295848" lon="-8.79051">
        <ele>156.2</ele>
        <time>1970-01-01T02:42:36.000Z</time>
      </trkpt>
      <trkpt lat="42.295848" lon="-8.79051">
        <ele>156.2</ele>
        <time>1970-01-01T02:42:37.000Z</time>
      </trkpt>
      <trkpt lat="42.295848" lon="-8.790512">
        <ele>156.2</ele>
        <time>1970-01-01T02:42:38.000Z</time>
      </trkpt>
      <trkpt lat="42.295848" lon="-8.790512">
        <ele>156.2</ele>
        <time>1970-01-01T02:42:39.000Z</time>
      </trkpt>
      <trkpt lat="42.295848" lon="-8.790513">
        <ele>156.2</ele>
        <time>1970-01-01T02:42:40.000Z</time>
      </trkpt>
      <trkpt lat="42.295847" lon="-8.790513">
        <ele>156.2</ele>
        <time>1970-01-01T02:42:41.000Z</time>
      </trkpt>
      <trkpt lat="42.295847" lon="-8.790513">
        <ele>156.2</ele>
        <time>1970-01-01T02:42:42.000Z</time>
      </trkpt>
      <trkpt lat="42.295845" lon="-8.790515">
        <ele>156.2</ele>
        <time>1970-01-01T02:42:43.000Z</time>
      </trkpt>
      <trkpt lat="42.295845" lon="-8.790515">
        <ele>155.3</ele>
        <time>1970-01-01T02:42:44.000Z</time>
      </trkpt>
      <trkpt lat="42.295845" lon="-8.790517">
        <ele>155.3</ele>
        <time>1970-01-01T02:42:45.000Z</time>
      </trkpt>
      <trkpt lat="42.295843" lon="-8.790518">
        <ele>154.2</ele>
        <time>1970-01-01T02:42:46.000Z</time>
      </trkpt>
      <trkpt lat="42.295843" lon="-8.790517">
        <ele>154.2</ele>
        <time>1970-01-01T02:42:47.000Z</time>
      </trkpt>
      <trkpt lat="42.295843" lon="-8.790517">
        <ele>153.3</ele>
        <time>1970-01-01T02:42:48.000Z</time>
      </trkpt>
      <trkpt lat="42.295843" lon="-8.790517">
        <ele>153.3</ele>
        <time>1970-01-01T02:42:49.000Z</time>
      </trkpt>
      <trkpt lat="42.295843" lon="-8.790517">
        <ele>152.2</ele>
        <time>1970-01-01T02:42:50.000Z</time>
      </trkpt>
      <trkpt lat="42.295843" lon="-8.790517">
        <ele>152.2</ele>
        <time>1970-01-01T02:42:51.000Z</time>
      </trkpt>
      <trkpt lat="42.295843" lon="-8.790517">
        <ele>152.2</ele>
        <time>1970-01-01T02:42:52.000Z</time>
      </trkpt>
      <trkpt lat="42.295843" lon="-8.790517">
        <ele>152.2</ele>
        <time>1970-01-01T02:42:53.000Z</time>
      </trkpt>
      <trkpt lat="42.295843" lon="-8.790517">
        <ele>152.2</ele>
        <time>1970-01-01T02:42:54.000Z</time>
      </trkpt>
      <trkpt lat="42.295843" lon="-8.790517">
        <ele>152.2</ele>
        <time>1970-01-01T02:42:55.000Z</time>
      </trkpt>
      <trkpt lat="42.295843" lon="-8.790517">
        <ele>152.2</ele>
        <time>1970-01-01T02:42:56.000Z</time>
      </trkpt>
      <trkpt lat="42.295843" lon="-8.790515">
        <ele>152.2</ele>
        <time>1970-01-01T02:42:57.000Z</time>
      </trkpt>
      <trkpt lat="42.295843" lon="-8.790515">
        <ele>152.2</ele>
        <time>1970-01-01T02:42:58.000Z</time>
      </trkpt>
      <trkpt lat="42.295843" lon="-8.790515">
        <ele>152.2</ele>
        <time>1970-01-01T02:42:59.000Z</time>
      </trkpt>
      <trkpt lat="42.295843" lon="-8.790513">
        <ele>152.2</ele>
        <time>1970-01-01T02:43:00.000Z</time>
      </trkpt>
      <trkpt lat="42.295843" lon="-8.790513">
        <ele>152.2</ele>
        <time>1970-01-01T02:43:01.000Z</time>
      </trkpt>
      <trkpt lat="42.29584" lon="-8.790505">
        <ele>152.2</ele>
        <time>1970-01-01T02:43:02.000Z</time>
      </trkpt>
      <trkpt lat="42.29584" lon="-8.790505">
        <ele>152.2</ele>
        <time>1970-01-01T02:43:03.000Z</time>
      </trkpt>
      <trkpt lat="42.295832" lon="-8.790487">
        <ele>151.3</ele>
        <time>1970-01-01T02:43:04.000Z</time>
      </trkpt>
      <trkpt lat="42.295828" lon="-8.790475">
        <ele>151.3</ele>
        <time>1970-01-01T02:43:05.000Z</time>
      </trkpt>
      <trkpt lat="42.295825" lon="-8.790463">
        <ele>151.3</ele>
        <time>1970-01-01T02:43:06.000Z</time>
      </trkpt>
      <trkpt lat="42.29582" lon="-8.790445">
        <ele>151.3</ele>
        <time>1970-01-01T02:43:07.000Z</time>
      </trkpt>
      <trkpt lat="42.29582" lon="-8.790445">
        <ele>151.3</ele>
        <time>1970-01-01T02:43:08.000Z</time>
      </trkpt>
      <trkpt lat="42.295803" lon="-8.790422">
        <ele>151.3</ele>
        <time>1970-01-01T02:43:09.000Z</time>
      </trkpt>
      <trkpt lat="42.29579" lon="-8.79041">
        <ele>150.3</ele>
        <time>1970-01-01T02:43:10.000Z</time>
      </trkpt>
      <trkpt lat="42.295782" lon="-8.790398">
        <ele>150.3</ele>
        <time>1970-01-01T02:43:11.000Z</time>
      </trkpt>
      <trkpt lat="42.295782" lon="-8.790398">
        <ele>150.3</ele>
        <time>1970-01-01T02:43:12.000Z</time>
      </trkpt>
      <trkpt lat="42.295777" lon="-8.790397">
        <ele>150.3</ele>
        <time>1970-01-01T02:43:13.000Z</time>
      </trkpt>
      <trkpt lat="42.295778" lon="-8.790388">
        <ele>150.3</ele>
        <time>1970-01-01T02:43:14.000Z</time>
      </trkpt>
      <trkpt lat="42.295778" lon="-8.790383">
        <ele>150.3</ele>
        <time>1970-01-01T02:43:15.000Z</time>
      </trkpt>
      <trkpt lat="42.295775" lon="-8.790377">
        <ele>150.3</ele>
        <time>1970-01-01T02:43:16.000Z</time>
      </trkpt>
      <trkpt lat="42.295773" lon="-8.790372">
        <ele>150.3</ele>
        <time>1970-01-01T02:43:17.000Z</time>
      </trkpt>
      <trkpt lat="42.295772" lon="-8.790362">
        <ele>150.3</ele>
        <time>1970-01-01T02:43:18.000Z</time>
      </trkpt>
      <trkpt lat="42.295772" lon="-8.79035">
        <ele>150.3</ele>
        <time>1970-01-01T02:43:19.000Z</time>
      </trkpt>
      <trkpt lat="42.295772" lon="-8.790337">
        <ele>150.3</ele>
        <time>1970-01-01T02:43:20.000Z</time>
      </trkpt>
      <trkpt lat="42.295772" lon="-8.790323">
        <ele>150.3</ele>
        <time>1970-01-01T02:43:21.000Z</time>
      </trkpt>
      <trkpt lat="42.295772" lon="-8.790323">
        <ele>151.3</ele>
        <time>1970-01-01T02:43:22.000Z</time>
      </trkpt>
      <trkpt lat="42.295768" lon="-8.790297">
        <ele>151.3</ele>
        <time>1970-01-01T02:43:23.000Z</time>
      </trkpt>
      <trkpt lat="42.29577" lon="-8.790278">
        <ele>152.2</ele>
        <time>1970-01-01T02:43:24.000Z</time>
      </trkpt>
      <trkpt lat="42.29577" lon="-8.790263">
        <ele>152.2</ele>
        <time>1970-01-01T02:43:25.000Z</time>
      </trkpt>
      <trkpt lat="42.29577" lon="-8.790247">
        <ele>152.2</ele>
        <time>1970-01-01T02:43:26.000Z</time>
      </trkpt>
      <trkpt lat="42.29577" lon="-8.790247">
        <ele>152.2</ele>
        <time>1970-01-01T02:43:27.000Z</time>
      </trkpt>
      <trkpt lat="42.295757" lon="-8.790225">
        <ele>152.2</ele>
        <time>1970-01-01T02:43:28.000Z</time>
      </trkpt>
      <trkpt lat="42.295752" lon="-8.790212">
        <ele>152.2</ele>
        <time>1970-01-01T02:43:29.000Z</time>
      </trkpt>
      <trkpt lat="42.295752" lon="-8.790203">
        <ele>153.3</ele>
        <time>1970-01-01T02:43:30.000Z</time>
      </trkpt>
      <trkpt lat="42.295753" lon="-8.79019">
        <ele>153.3</ele>
        <time>1970-01-01T02:43:31.000Z</time>
      </trkpt>
      <trkpt lat="42.295753" lon="-8.79019">
        <ele>153.3</ele>
        <time>1970-01-01T02:43:32.000Z</time>
      </trkpt>
      <trkpt lat="42.295755" lon="-8.790157">
        <ele>153.3</ele>
        <time>1970-01-01T02:43:33.000Z</time>
      </trkpt>
      <trkpt lat="42.295752" lon="-8.790145">
        <ele>153.3</ele>
        <time>1970-01-01T02:43:34.000Z</time>
      </trkpt>
      <trkpt lat="42.295748" lon="-8.790137">
        <ele>153.3</ele>
        <time>1970-01-01T02:43:35.000Z</time>
      </trkpt>
      <trkpt lat="42.295748" lon="-8.790123">
        <ele>154.2</ele>
        <time>1970-01-01T02:43:36.000Z</time>
      </trkpt>
      <trkpt lat="42.295748" lon="-8.790123">
        <ele>154.2</ele>
        <time>1970-01-01T02:43:37.000Z</time>
      </trkpt>
      <trkpt lat="42.295748" lon="-8.790097">
        <ele>155.3</ele>
        <time>1970-01-01T02:43:38.000Z</time>
      </trkpt>
      <trkpt lat="42.295748" lon="-8.790087">
        <ele>155.3</ele>
        <time>1970-01-01T02:43:39.000Z</time>
      </trkpt>
      <trkpt lat="42.295747" lon="-8.790078">
        <ele>155.3</ele>
        <time>1970-01-01T02:43:40.000Z</time>
      </trkpt>
      <trkpt lat="42.295743" lon="-8.790075">
        <ele>155.3</ele>
        <time>1970-01-01T02:43:41.000Z</time>
      </trkpt>
      <trkpt lat="42.295743" lon="-8.790075">
        <ele>155.3</ele>
        <time>1970-01-01T02:43:42.000Z</time>
      </trkpt>
      <trkpt lat="42.295745" lon="-8.790058">
        <ele>155.3</ele>
        <time>1970-01-01T02:43:43.000Z</time>
      </trkpt>
      <trkpt lat="42.295748" lon="-8.79005">
        <ele>156.2</ele>
        <time>1970-01-01T02:43:44.000Z</time>
      </trkpt>
      <trkpt lat="42.295748" lon="-8.790048">
        <ele>156.2</ele>
        <time>1970-01-01T02:43:45.000Z</time>
      </trkpt>
      <trkpt lat="42.295748" lon="-8.790048">
        <ele>156.2</ele>
        <time>1970-01-01T02:43:46.000Z</time>
      </trkpt>
      <trkpt lat="42.295748" lon="-8.79005">
        <ele>156.2</ele>
        <time>1970-01-01T02:43:47.000Z</time>
      </trkpt>
      <trkpt lat="42.29575" lon="-8.790048">
        <ele>156.2</ele>
        <time>1970-01-01T02:43:48.000Z</time>
      </trkpt>
      <trkpt lat="42.29575" lon="-8.790045">
        <ele>156.2</ele>
        <time>1970-01-01T02:43:49.000Z</time>
      </trkpt>
      <trkpt lat="42.295748" lon="-8.790043">
        <ele>157.3</ele>
        <time>1970-01-01T02:43:50.000Z</time>
      </trkpt>
      <trkpt lat="42.295748" lon="-8.790043">
        <ele>157.3</ele>
        <time>1970-01-01T02:43:51.000Z</time>
      </trkpt>
      <trkpt lat="42.295757" lon="-8.790032">
        <ele>157.3</ele>
        <time>1970-01-01T02:43:52.000Z</time>
      </trkpt>
      <trkpt lat="42.29576" lon="-8.790027">
        <ele>157.3</ele>
        <time>1970-01-01T02:43:53.000Z</time>
      </trkpt>
      <trkpt lat="42.295762" lon="-8.790022">
        <ele>157.3</ele>
        <time>1970-01-01T02:43:54.000Z</time>
      </trkpt>
      <trkpt lat="42.295762" lon="-8.790018">
        <ele>157.3</ele>
        <time>1970-01-01T02:43:55.000Z</time>
      </trkpt>
      <trkpt lat="42.295762" lon="-8.790018">
        <ele>157.3</ele>
        <time>1970-01-01T02:43:56.000Z</time>
      </trkpt>
      <trkpt lat="42.295765" lon="-8.790018">
        <ele>157.3</ele>
        <time>1970-01-01T02:43:57.000Z</time>
      </trkpt>
      <trkpt lat="42.295767" lon="-8.790018">
        <ele>157.3</ele>
        <time>1970-01-01T02:43:58.000Z</time>
      </trkpt>
      <trkpt lat="42.295767" lon="-8.790018">
        <ele>157.3</ele>
        <time>1970-01-01T02:43:59.000Z</time>
      </trkpt>
      <trkpt lat="42.295767" lon="-8.790018">
        <ele>157.3</ele>
        <time>1970-01-01T02:44:00.000Z</time>
      </trkpt>
      <trkpt lat="42.295767" lon="-8.790018">
        <ele>157.3</ele>
        <time>1970-01-01T02:44:01.000Z</time>
      </trkpt>
      <trkpt lat="42.295767" lon="-8.790018">
        <ele>157.3</ele>
        <time>1970-01-01T02:44:02.000Z</time>
      </trkpt>
      <trkpt lat="42.295767" lon="-8.790018">
        <ele>157.3</ele>
        <time>1970-01-01T02:44:03.000Z</time>
      </trkpt>
      <trkpt lat="42.295767" lon="-8.790018">
        <ele>157.3</ele>
        <time>1970-01-01T02:44:04.000Z</time>
      </trkpt>
      <trkpt lat="42.295767" lon="-8.790018">
        <ele>157.3</ele>
        <time>1970-01-01T02:44:05.000Z</time>
      </trkpt>
      <trkpt lat="42.295768" lon="-8.79002">
        <ele>156.2</ele>
        <time>1970-01-01T02:44:06.000Z</time>
      </trkpt>
      <trkpt lat="42.295782" lon="-8.79002">
        <ele>156.2</ele>
        <time>1970-01-01T02:44:07.000Z</time>
      </trkpt>
      <trkpt lat="42.295787" lon="-8.79002">
        <ele>156.2</ele>
        <time>1970-01-01T02:44:08.000Z</time>
      </trkpt>
      <trkpt lat="42.295793" lon="-8.790018">
        <ele>156.2</ele>
        <time>1970-01-01T02:44:09.000Z</time>
      </trkpt>
      <trkpt lat="42.295797" lon="-8.790017">
        <ele>156.2</ele>
        <time>1970-01-01T02:44:10.000Z</time>
      </trkpt>
      <trkpt lat="42.295802" lon="-8.790017">
        <ele>156.2</ele>
        <time>1970-01-01T02:44:11.000Z</time>
      </trkpt>
      <trkpt lat="42.295808" lon="-8.79001">
        <ele>156.2</ele>
        <time>1970-01-01T02:44:12.000Z</time>
      </trkpt>
      <trkpt lat="42.295813" lon="-8.790008">
        <ele>156.2</ele>
        <time>1970-01-01T02:44:13.000Z</time>
      </trkpt>
      <trkpt lat="42.295822" lon="-8.789998">
        <ele>156.2</ele>
        <time>1970-01-01T02:44:14.000Z</time>
      </trkpt>
      <trkpt lat="42.295822" lon="-8.789998">
        <ele>156.2</ele>
        <time>1970-01-01T02:44:15.000Z</time>
      </trkpt>
      <trkpt lat="42.295828" lon="-8.789993">
        <ele>156.2</ele>
        <time>1970-01-01T02:44:16.000Z</time>
      </trkpt>
      <trkpt lat="42.295828" lon="-8.789993">
        <ele>156.2</ele>
        <time>1970-01-01T02:44:17.000Z</time>
      </trkpt>
      <trkpt lat="42.295823" lon="-8.789997">
        <ele>156.2</ele>
        <time>1970-01-01T02:44:18.000Z</time>
      </trkpt>
      <trkpt lat="42.295823" lon="-8.789998">
        <ele>156.2</ele>
        <time>1970-01-01T02:44:19.000Z</time>
      </trkpt>
      <trkpt lat="42.295823" lon="-8.789998">
        <ele>156.2</ele>
        <time>1970-01-01T02:44:20.000Z</time>
      </trkpt>
      <trkpt lat="42.295822" lon="-8.79">
        <ele>156.2</ele>
        <time>1970-01-01T02:44:21.000Z</time>
      </trkpt>
      <trkpt lat="42.29582" lon="-8.790002">
        <ele>156.2</ele>
        <time>1970-01-01T02:44:22.000Z</time>
      </trkpt>
      <trkpt lat="42.29582" lon="-8.790003">
        <ele>156.2</ele>
        <time>1970-01-01T02:44:23.000Z</time>
      </trkpt>
      <trkpt lat="42.29582" lon="-8.790003">
        <ele>155.3</ele>
        <time>1970-01-01T02:44:24.000Z</time>
      </trkpt>
      <trkpt lat="42.29582" lon="-8.790003">
        <ele>155.3</ele>
        <time>1970-01-01T02:44:25.000Z</time>
      </trkpt>
      <trkpt lat="42.29582" lon="-8.790003">
        <ele>155.3</ele>
        <time>1970-01-01T02:44:26.000Z</time>
      </trkpt>
      <trkpt lat="42.29582" lon="-8.790003">
        <ele>155.3</ele>
        <time>1970-01-01T02:44:27.000Z</time>
      </trkpt>
      <trkpt lat="42.29582" lon="-8.790003">
        <ele>155.3</ele>
        <time>1970-01-01T02:44:28.000Z</time>
      </trkpt>
      <trkpt lat="42.29582" lon="-8.790003">
        <ele>155.3</ele>
        <time>1970-01-01T02:44:29.000Z</time>
      </trkpt>
      <trkpt lat="42.29582" lon="-8.790003">
        <ele>155.3</ele>
        <time>1970-01-01T02:44:30.000Z</time>
      </trkpt>
      <trkpt lat="42.29582" lon="-8.790003">
        <ele>155.3</ele>
        <time>1970-01-01T02:44:31.000Z</time>
      </trkpt>
      <trkpt lat="42.29582" lon="-8.790003">
        <ele>155.3</ele>
        <time>1970-01-01T02:44:32.000Z</time>
      </trkpt>
      <trkpt lat="42.29582" lon="-8.790003">
        <ele>155.3</ele>
        <time>1970-01-01T02:44:33.000Z</time>
      </trkpt>
      <trkpt lat="42.29582" lon="-8.790002">
        <ele>155.3</ele>
        <time>1970-01-01T02:44:34.000Z</time>
      </trkpt>
      <trkpt lat="42.29582" lon="-8.790002">
        <ele>155.3</ele>
        <time>1970-01-01T02:44:35.000Z</time>
      </trkpt>
      <trkpt lat="42.29582" lon="-8.790002">
        <ele>155.3</ele>
        <time>1970-01-01T02:44:36.000Z</time>
      </trkpt>
      <trkpt lat="42.29582" lon="-8.790002">
        <ele>155.3</ele>
        <time>1970-01-01T02:44:37.000Z</time>
      </trkpt>
      <trkpt lat="42.29582" lon="-8.79">
        <ele>155.3</ele>
        <time>1970-01-01T02:44:38.000Z</time>
      </trkpt>
      <trkpt lat="42.29582" lon="-8.79">
        <ele>155.3</ele>
        <time>1970-01-01T02:44:39.000Z</time>
      </trkpt>
      <trkpt lat="42.295822" lon="-8.79">
        <ele>155.3</ele>
        <time>1970-01-01T02:44:40.000Z</time>
      </trkpt>
      <trkpt lat="42.295823" lon="-8.789998">
        <ele>155.3</ele>
        <time>1970-01-01T02:44:41.000Z</time>
      </trkpt>
      <trkpt lat="42.295823" lon="-8.789998">
        <ele>155.3</ele>
        <time>1970-01-01T02:44:42.000Z</time>
      </trkpt>
      <trkpt lat="42.295823" lon="-8.789997">
        <ele>155.3</ele>
        <time>1970-01-01T02:44:43.000Z</time>
      </trkpt>
      <trkpt lat="42.295823" lon="-8.789997">
        <ele>155.3</ele>
        <time>1970-01-01T02:44:44.000Z</time>
      </trkpt>
      <trkpt lat="42.295835" lon="-8.78999">
        <ele>155.3</ele>
        <time>1970-01-01T02:44:45.000Z</time>
      </trkpt>
      <trkpt lat="42.295857" lon="-8.789982">
        <ele>155.3</ele>
        <time>1970-01-01T02:44:46.000Z</time>
      </trkpt>
      <trkpt lat="42.295877" lon="-8.789975">
        <ele>155.3</ele>
        <time>1970-01-01T02:44:47.000Z</time>
      </trkpt>
      <trkpt lat="42.295898" lon="-8.78997">
        <ele>156.2</ele>
        <time>1970-01-01T02:44:48.000Z</time>
      </trkpt>
      <trkpt lat="42.295898" lon="-8.78997">
        <ele>156.2</ele>
        <time>1970-01-01T02:44:49.000Z</time>
      </trkpt>
      <trkpt lat="42.295932" lon="-8.789957">
        <ele>156.2</ele>
        <time>1970-01-01T02:44:50.000Z</time>
      </trkpt>
      <trkpt lat="42.295945" lon="-8.789948">
        <ele>156.2</ele>
        <time>1970-01-01T02:44:51.000Z</time>
      </trkpt>
      <trkpt lat="42.295963" lon="-8.78994">
        <ele>157.3</ele>
        <time>1970-01-01T02:44:52.000Z</time>
      </trkpt>
      <trkpt lat="42.295977" lon="-8.789933">
        <ele>157.3</ele>
        <time>1970-01-01T02:44:53.000Z</time>
      </trkpt>
      <trkpt lat="42.295977" lon="-8.789933">
        <ele>157.3</ele>
        <time>1970-01-01T02:44:54.000Z</time>
      </trkpt>
      <trkpt lat="42.296" lon="-8.789925">
        <ele>157.3</ele>
        <time>1970-01-01T02:44:55.000Z</time>
      </trkpt>
      <trkpt lat="42.296005" lon="-8.789925">
        <ele>157.3</ele>
        <time>1970-01-01T02:44:56.000Z</time>
      </trkpt>
      <trkpt lat="42.29601" lon="-8.789923">
        <ele>157.3</ele>
        <time>1970-01-01T02:44:57.000Z</time>
      </trkpt>
      <trkpt lat="42.296017" lon="-8.789918">
        <ele>157.3</ele>
        <time>1970-01-01T02:44:58.000Z</time>
      </trkpt>
      <trkpt lat="42.296017" lon="-8.789918">
        <ele>157.3</ele>
        <time>1970-01-01T02:44:59.000Z</time>
      </trkpt>
      <trkpt lat="42.296025" lon="-8.789918">
        <ele>157.3</ele>
        <time>1970-01-01T02:45:00.000Z</time>
      </trkpt>
      <trkpt lat="42.296028" lon="-8.789917">
        <ele>157.3</ele>
        <time>1970-01-01T02:45:01.000Z</time>
      </trkpt>
      <trkpt lat="42.296032" lon="-8.789915">
        <ele>157.3</ele>
        <time>1970-01-01T02:45:02.000Z</time>
      </trkpt>
      <trkpt lat="42.296032" lon="-8.789915">
        <ele>157.3</ele>
        <time>1970-01-01T02:45:03.000Z</time>
      </trkpt>
      <trkpt lat="42.296048" lon="-8.789905">
        <ele>157.3</ele>
        <time>1970-01-01T02:45:04.000Z</time>
      </trkpt>
      <trkpt lat="42.296055" lon="-8.7899">
        <ele>157.3</ele>
        <time>1970-01-01T02:45:05.000Z</time>
      </trkpt>
      <trkpt lat="42.29606" lon="-8.789898">
        <ele>159.3</ele>
        <time>1970-01-01T02:45:06.000Z</time>
      </trkpt>
      <trkpt lat="42.296067" lon="-8.789897">
        <ele>159.3</ele>
        <time>1970-01-01T02:45:07.000Z</time>
      </trkpt>
      <trkpt lat="42.296067" lon="-8.789897">
        <ele>159.3</ele>
        <time>1970-01-01T02:45:08.000Z</time>
      </trkpt>
      <trkpt lat="42.296082" lon="-8.789893">
        <ele>159.3</ele>
        <time>1970-01-01T02:45:09.000Z</time>
      </trkpt>
      <trkpt lat="42.296085" lon="-8.789893">
        <ele>159.3</ele>
        <time>1970-01-01T02:45:10.000Z</time>
      </trkpt>
      <trkpt lat="42.296093" lon="-8.78989">
        <ele>159.3</ele>
        <time>1970-01-01T02:45:11.000Z</time>
      </trkpt>
      <trkpt lat="42.296102" lon="-8.789883">
        <ele>159.3</ele>
        <time>1970-01-01T02:45:12.000Z</time>
      </trkpt>
      <trkpt lat="42.296102" lon="-8.789883">
        <ele>159.3</ele>
        <time>1970-01-01T02:45:13.000Z</time>
      </trkpt>
      <trkpt lat="42.296108" lon="-8.789872">
        <ele>160.3</ele>
        <time>1970-01-01T02:45:14.000Z</time>
      </trkpt>
      <trkpt lat="42.29611" lon="-8.789868">
        <ele>160.3</ele>
        <time>1970-01-01T02:45:15.000Z</time>
      </trkpt>
      <trkpt lat="42.29611" lon="-8.789868">
        <ele>160.3</ele>
        <time>1970-01-01T02:45:16.000Z</time>
      </trkpt>
      <trkpt lat="42.29611" lon="-8.789868">
        <ele>160.3</ele>
        <time>1970-01-01T02:45:17.000Z</time>
      </trkpt>
      <trkpt lat="42.29611" lon="-8.789868">
        <ele>160.3</ele>
        <time>1970-01-01T02:45:18.000Z</time>
      </trkpt>
      <trkpt lat="42.29611" lon="-8.789868">
        <ele>160.3</ele>
        <time>1970-01-01T02:45:19.000Z</time>
      </trkpt>
      <trkpt lat="42.296112" lon="-8.789867">
        <ele>160.3</ele>
        <time>1970-01-01T02:45:20.000Z</time>
      </trkpt>
      <trkpt lat="42.296113" lon="-8.789863">
        <ele>160.3</ele>
        <time>1970-01-01T02:45:21.000Z</time>
      </trkpt>
      <trkpt lat="42.296115" lon="-8.789857">
        <ele>160.3</ele>
        <time>1970-01-01T02:45:22.000Z</time>
      </trkpt>
      <trkpt lat="42.296115" lon="-8.789857">
        <ele>160.3</ele>
        <time>1970-01-01T02:45:23.000Z</time>
      </trkpt>
      <trkpt lat="42.296118" lon="-8.789845">
        <ele>160.3</ele>
        <time>1970-01-01T02:45:24.000Z</time>
      </trkpt>
      <trkpt lat="42.296122" lon="-8.789843">
        <ele>160.3</ele>
        <time>1970-01-01T02:45:25.000Z</time>
      </trkpt>
      <trkpt lat="42.296123" lon="-8.789842">
        <ele>160.3</ele>
        <time>1970-01-01T02:45:26.000Z</time>
      </trkpt>
      <trkpt lat="42.296125" lon="-8.789835">
        <ele>160.3</ele>
        <time>1970-01-01T02:45:27.000Z</time>
      </trkpt>
      <trkpt lat="42.296125" lon="-8.789835">
        <ele>160.3</ele>
        <time>1970-01-01T02:45:28.000Z</time>
      </trkpt>
      <trkpt lat="42.296132" lon="-8.78983">
        <ele>160.3</ele>
        <time>1970-01-01T02:45:29.000Z</time>
      </trkpt>
      <trkpt lat="42.296137" lon="-8.789827">
        <ele>160.3</ele>
        <time>1970-01-01T02:45:30.000Z</time>
      </trkpt>
      <trkpt lat="42.29614" lon="-8.789825">
        <ele>160.3</ele>
        <time>1970-01-01T02:45:31.000Z</time>
      </trkpt>
      <trkpt lat="42.29614" lon="-8.789825">
        <ele>160.3</ele>
        <time>1970-01-01T02:45:32.000Z</time>
      </trkpt>
      <trkpt lat="42.296147" lon="-8.78982">
        <ele>160.3</ele>
        <time>1970-01-01T02:45:33.000Z</time>
      </trkpt>
      <trkpt lat="42.29615" lon="-8.789818">
        <ele>160.3</ele>
        <time>1970-01-01T02:45:34.000Z</time>
      </trkpt>
      <trkpt lat="42.296152" lon="-8.789817">
        <ele>160.3</ele>
        <time>1970-01-01T02:45:35.000Z</time>
      </trkpt>
      <trkpt lat="42.296153" lon="-8.789815">
        <ele>160.3</ele>
        <time>1970-01-01T02:45:36.000Z</time>
      </trkpt>
      <trkpt lat="42.296153" lon="-8.789815">
        <ele>160.3</ele>
        <time>1970-01-01T02:45:37.000Z</time>
      </trkpt>
      <trkpt lat="42.296158" lon="-8.78981">
        <ele>160.3</ele>
        <time>1970-01-01T02:45:38.000Z</time>
      </trkpt>
      <trkpt lat="42.296158" lon="-8.789808">
        <ele>160.3</ele>
        <time>1970-01-01T02:45:39.000Z</time>
      </trkpt>
      <trkpt lat="42.296157" lon="-8.789808">
        <ele>160.3</ele>
        <time>1970-01-01T02:45:40.000Z</time>
      </trkpt>
      <trkpt lat="42.296157" lon="-8.789808">
        <ele>160.3</ele>
        <time>1970-01-01T02:45:41.000Z</time>
      </trkpt>
      <trkpt lat="42.296157" lon="-8.789808">
        <ele>160.3</ele>
        <time>1970-01-01T02:45:42.000Z</time>
      </trkpt>
      <trkpt lat="42.296157" lon="-8.789808">
        <ele>160.3</ele>
        <time>1970-01-01T02:45:43.000Z</time>
      </trkpt>
      <trkpt lat="42.296157" lon="-8.789808">
        <ele>160.3</ele>
        <time>1970-01-01T02:45:44.000Z</time>
      </trkpt>
      <trkpt lat="42.296157" lon="-8.789808">
        <ele>160.3</ele>
        <time>1970-01-01T02:45:45.000Z</time>
      </trkpt>
      <trkpt lat="42.296157" lon="-8.789808">
        <ele>159.3</ele>
        <time>1970-01-01T02:45:46.000Z</time>
      </trkpt>
      <trkpt lat="42.296157" lon="-8.789808">
        <ele>159.3</ele>
        <time>1970-01-01T02:45:47.000Z</time>
      </trkpt>
      <trkpt lat="42.296157" lon="-8.789808">
        <ele>159.3</ele>
        <time>1970-01-01T02:45:48.000Z</time>
      </trkpt>
      <trkpt lat="42.296157" lon="-8.789808">
        <ele>159.3</ele>
        <time>1970-01-01T02:45:49.000Z</time>
      </trkpt>
      <trkpt lat="42.296157" lon="-8.78981">
        <ele>159.3</ele>
        <time>1970-01-01T02:45:50.000Z</time>
      </trkpt>
      <trkpt lat="42.296157" lon="-8.78981">
        <ele>159.3</ele>
        <time>1970-01-01T02:45:51.000Z</time>
      </trkpt>
      <trkpt lat="42.296157" lon="-8.78981">
        <ele>159.3</ele>
        <time>1970-01-01T02:45:52.000Z</time>
      </trkpt>
      <trkpt lat="42.296157" lon="-8.789813">
        <ele>159.3</ele>
        <time>1970-01-01T02:45:53.000Z</time>
      </trkpt>
      <trkpt lat="42.296157" lon="-8.789815">
        <ele>159.3</ele>
        <time>1970-01-01T02:45:54.000Z</time>
      </trkpt>
      <trkpt lat="42.296157" lon="-8.789817">
        <ele>159.3</ele>
        <time>1970-01-01T02:45:55.000Z</time>
      </trkpt>
      <trkpt lat="42.296157" lon="-8.789817">
        <ele>159.3</ele>
        <time>1970-01-01T02:45:56.000Z</time>
      </trkpt>
      <trkpt lat="42.296157" lon="-8.789817">
        <ele>159.3</ele>
        <time>1970-01-01T02:45:57.000Z</time>
      </trkpt>
      <trkpt lat="42.296157" lon="-8.789817">
        <ele>158.2</ele>
        <time>1970-01-01T02:45:58.000Z</time>
      </trkpt>
      <trkpt lat="42.296157" lon="-8.789817">
        <ele>158.2</ele>
        <time>1970-01-01T02:45:59.000Z</time>
      </trkpt>
      <trkpt lat="42.296158" lon="-8.789817">
        <ele>158.2</ele>
        <time>1970-01-01T02:46:00.000Z</time>
      </trkpt>
      <trkpt lat="42.296158" lon="-8.789817">
        <ele>158.2</ele>
        <time>1970-01-01T02:46:01.000Z</time>
      </trkpt>
      <trkpt lat="42.296158" lon="-8.789817">
        <ele>158.2</ele>
        <time>1970-01-01T02:46:02.000Z</time>
      </trkpt>
      <trkpt lat="42.296158" lon="-8.789817">
        <ele>158.2</ele>
        <time>1970-01-01T02:46:03.000Z</time>
      </trkpt>
      <trkpt lat="42.296158" lon="-8.789817">
        <ele>158.2</ele>
        <time>1970-01-01T02:46:04.000Z</time>
      </trkpt>
      <trkpt lat="42.29616" lon="-8.789817">
        <ele>158.2</ele>
        <time>1970-01-01T02:46:05.000Z</time>
      </trkpt>
      <trkpt lat="42.29616" lon="-8.789817">
        <ele>157.3</ele>
        <time>1970-01-01T02:46:06.000Z</time>
      </trkpt>
      <trkpt lat="42.29616" lon="-8.789817">
        <ele>157.3</ele>
        <time>1970-01-01T02:46:07.000Z</time>
      </trkpt>
      <trkpt lat="42.29616" lon="-8.789817">
        <ele>156.2</ele>
        <time>1970-01-01T02:46:08.000Z</time>
      </trkpt>
      <trkpt lat="42.29616" lon="-8.789817">
        <ele>156.2</ele>
        <time>1970-01-01T02:46:09.000Z</time>
      </trkpt>
      <trkpt lat="42.29616" lon="-8.789817">
        <ele>156.2</ele>
        <time>1970-01-01T02:46:10.000Z</time>
      </trkpt>
      <trkpt lat="42.29616" lon="-8.789817">
        <ele>156.2</ele>
        <time>1970-01-01T02:46:11.000Z</time>
      </trkpt>
      <trkpt lat="42.296163" lon="-8.78982">
        <ele>156.2</ele>
        <time>1970-01-01T02:46:12.000Z</time>
      </trkpt>
      <trkpt lat="42.296168" lon="-8.789828">
        <ele>156.2</ele>
        <time>1970-01-01T02:46:13.000Z</time>
      </trkpt>
      <trkpt lat="42.296175" lon="-8.789837">
        <ele>156.2</ele>
        <time>1970-01-01T02:46:14.000Z</time>
      </trkpt>
      <trkpt lat="42.296178" lon="-8.789848">
        <ele>156.2</ele>
        <time>1970-01-01T02:46:15.000Z</time>
      </trkpt>
      <trkpt lat="42.296178" lon="-8.789848">
        <ele>156.2</ele>
        <time>1970-01-01T02:46:16.000Z</time>
      </trkpt>
      <trkpt lat="42.296192" lon="-8.789868">
        <ele>156.2</ele>
        <time>1970-01-01T02:46:17.000Z</time>
      </trkpt>
      <trkpt lat="42.296202" lon="-8.789875">
        <ele>156.2</ele>
        <time>1970-01-01T02:46:18.000Z</time>
      </trkpt>
      <trkpt lat="42.29621" lon="-8.789885">
        <ele>155.3</ele>
        <time>1970-01-01T02:46:19.000Z</time>
      </trkpt>
      <trkpt lat="42.29622" lon="-8.789893">
        <ele>155.3</ele>
        <time>1970-01-01T02:46:20.000Z</time>
      </trkpt>
      <trkpt lat="42.29622" lon="-8.789893">
        <ele>155.3</ele>
        <time>1970-01-01T02:46:21.000Z</time>
      </trkpt>
      <trkpt lat="42.296242" lon="-8.789902">
        <ele>155.3</ele>
        <time>1970-01-01T02:46:22.000Z</time>
      </trkpt>
      <trkpt lat="42.296257" lon="-8.789902">
        <ele>155.3</ele>
        <time>1970-01-01T02:46:23.000Z</time>
      </trkpt>
      <trkpt lat="42.29627" lon="-8.789897">
        <ele>155.3</ele>
        <time>1970-01-01T02:46:24.000Z</time>
      </trkpt>
      <trkpt lat="42.29627" lon="-8.789897">
        <ele>155.3</ele>
        <time>1970-01-01T02:46:25.000Z</time>
      </trkpt>
      <trkpt lat="42.296293" lon="-8.789895">
        <ele>155.3</ele>
        <time>1970-01-01T02:46:26.000Z</time>
      </trkpt>
      <trkpt lat="42.296305" lon="-8.789897">
        <ele>155.3</ele>
        <time>1970-01-01T02:46:27.000Z</time>
      </trkpt>
      <trkpt lat="42.29632" lon="-8.7899">
        <ele>155.3</ele>
        <time>1970-01-01T02:46:28.000Z</time>
      </trkpt>
      <trkpt lat="42.296332" lon="-8.789902">
        <ele>155.3</ele>
        <time>1970-01-01T02:46:29.000Z</time>
      </trkpt>
      <trkpt lat="42.296332" lon="-8.789902">
        <ele>155.3</ele>
        <time>1970-01-01T02:46:30.000Z</time>
      </trkpt>
      <trkpt lat="42.296355" lon="-8.789895">
        <ele>155.3</ele>
        <time>1970-01-01T02:46:31.000Z</time>
      </trkpt>
      <trkpt lat="42.296363" lon="-8.789888">
        <ele>155.3</ele>
        <time>1970-01-01T02:46:32.000Z</time>
      </trkpt>
      <trkpt lat="42.296372" lon="-8.789882">
        <ele>155.3</ele>
        <time>1970-01-01T02:46:33.000Z</time>
      </trkpt>
      <trkpt lat="42.296377" lon="-8.789878">
        <ele>155.3</ele>
        <time>1970-01-01T02:46:34.000Z</time>
      </trkpt>
      <trkpt lat="42.296377" lon="-8.789878">
        <ele>156.2</ele>
        <time>1970-01-01T02:46:35.000Z</time>
      </trkpt>
      <trkpt lat="42.29639" lon="-8.789867">
        <ele>156.2</ele>
        <time>1970-01-01T02:46:36.000Z</time>
      </trkpt>
      <trkpt lat="42.296398" lon="-8.789862">
        <ele>156.2</ele>
        <time>1970-01-01T02:46:37.000Z</time>
      </trkpt>
      <trkpt lat="42.296407" lon="-8.789858">
        <ele>156.2</ele>
        <time>1970-01-01T02:46:38.000Z</time>
      </trkpt>
      <trkpt lat="42.296412" lon="-8.78986">
        <ele>157.3</ele>
        <time>1970-01-01T02:46:39.000Z</time>
      </trkpt>
      <trkpt lat="42.296412" lon="-8.78986">
        <ele>157.3</ele>
        <time>1970-01-01T02:46:40.000Z</time>
      </trkpt>
      <trkpt lat="42.29643" lon="-8.789853">
        <ele>158.2</ele>
        <time>1970-01-01T02:46:41.000Z</time>
      </trkpt>
      <trkpt lat="42.296438" lon="-8.789843">
        <ele>158.2</ele>
        <time>1970-01-01T02:46:42.000Z</time>
      </trkpt>
      <trkpt lat="42.296445" lon="-8.789835">
        <ele>158.2</ele>
        <time>1970-01-01T02:46:43.000Z</time>
      </trkpt>
      <trkpt lat="42.29645" lon="-8.789825">
        <ele>158.2</ele>
        <time>1970-01-01T02:46:44.000Z</time>
      </trkpt>
      <trkpt lat="42.29645" lon="-8.789825">
        <ele>159.3</ele>
        <time>1970-01-01T02:46:45.000Z</time>
      </trkpt>
      <trkpt lat="42.29646" lon="-8.789812">
        <ele>159.3</ele>
        <time>1970-01-01T02:46:46.000Z</time>
      </trkpt>
      <trkpt lat="42.296468" lon="-8.789805">
        <ele>159.3</ele>
        <time>1970-01-01T02:46:47.000Z</time>
      </trkpt>
      <trkpt lat="42.296472" lon="-8.789805">
        <ele>159.3</ele>
        <time>1970-01-01T02:46:48.000Z</time>
      </trkpt>
      <trkpt lat="42.296472" lon="-8.789805">
        <ele>159.3</ele>
        <time>1970-01-01T02:46:49.000Z</time>
      </trkpt>
      <trkpt lat="42.296475" lon="-8.78981">
        <ele>159.3</ele>
        <time>1970-01-01T02:46:50.000Z</time>
      </trkpt>
      <trkpt lat="42.296488" lon="-8.789817">
        <ele>160.3</ele>
        <time>1970-01-01T02:46:51.000Z</time>
      </trkpt>
      <trkpt lat="42.296497" lon="-8.789815">
        <ele>160.3</ele>
        <time>1970-01-01T02:46:52.000Z</time>
      </trkpt>
      <trkpt lat="42.296505" lon="-8.789803">
        <ele>160.3</ele>
        <time>1970-01-01T02:46:53.000Z</time>
      </trkpt>
      <trkpt lat="42.296505" lon="-8.789803">
        <ele>160.3</ele>
        <time>1970-01-01T02:46:54.000Z</time>
      </trkpt>
      <trkpt lat="42.29651" lon="-8.789785">
        <ele>160.3</ele>
        <time>1970-01-01T02:46:55.000Z</time>
      </trkpt>
      <trkpt lat="42.296513" lon="-8.789777">
        <ele>160.3</ele>
        <time>1970-01-01T02:46:56.000Z</time>
      </trkpt>
      <trkpt lat="42.296513" lon="-8.789772">
        <ele>161.2</ele>
        <time>1970-01-01T02:46:57.000Z</time>
      </trkpt>
      <trkpt lat="42.296515" lon="-8.789767">
        <ele>161.2</ele>
        <time>1970-01-01T02:46:58.000Z</time>
      </trkpt>
      <trkpt lat="42.296515" lon="-8.789767">
        <ele>162.3</ele>
        <time>1970-01-01T02:46:59.000Z</time>
      </trkpt>
      <trkpt lat="42.296523" lon="-8.789762">
        <ele>162.3</ele>
        <time>1970-01-01T02:47:00.000Z</time>
      </trkpt>
      <trkpt lat="42.296527" lon="-8.789762">
        <ele>162.3</ele>
        <time>1970-01-01T02:47:01.000Z</time>
      </trkpt>
      <trkpt lat="42.296533" lon="-8.789763">
        <ele>162.3</ele>
        <time>1970-01-01T02:47:02.000Z</time>
      </trkpt>
      <trkpt lat="42.296538" lon="-8.789767">
        <ele>163.2</ele>
        <time>1970-01-01T02:47:03.000Z</time>
      </trkpt>
      <trkpt lat="42.296538" lon="-8.789767">
        <ele>163.2</ele>
        <time>1970-01-01T02:47:04.000Z</time>
      </trkpt>
      <trkpt lat="42.296547" lon="-8.789777">
        <ele>163.2</ele>
        <time>1970-01-01T02:47:05.000Z</time>
      </trkpt>
      <trkpt lat="42.296555" lon="-8.789778">
        <ele>163.2</ele>
        <time>1970-01-01T02:47:06.000Z</time>
      </trkpt>
      <trkpt lat="42.296563" lon="-8.789778">
        <ele>163.2</ele>
        <time>1970-01-01T02:47:07.000Z</time>
      </trkpt>
      <trkpt lat="42.29657" lon="-8.78978">
        <ele>163.2</ele>
        <time>1970-01-01T02:47:08.000Z</time>
      </trkpt>
      <trkpt lat="42.29657" lon="-8.78978">
        <ele>163.2</ele>
        <time>1970-01-01T02:47:09.000Z</time>
      </trkpt>
      <trkpt lat="42.296588" lon="-8.789785">
        <ele>163.2</ele>
        <time>1970-01-01T02:47:10.000Z</time>
      </trkpt>
      <trkpt lat="42.296597" lon="-8.789787">
        <ele>164.3</ele>
        <time>1970-01-01T02:47:11.000Z</time>
      </trkpt>
      <trkpt lat="42.296612" lon="-8.789777">
        <ele>164.3</ele>
        <time>1970-01-01T02:47:12.000Z</time>
      </trkpt>
      <trkpt lat="42.296625" lon="-8.78977">
        <ele>164.3</ele>
        <time>1970-01-01T02:47:13.000Z</time>
      </trkpt>
      <trkpt lat="42.296625" lon="-8.78977">
        <ele>164.3</ele>
        <time>1970-01-01T02:47:14.000Z</time>
      </trkpt>
      <trkpt lat="42.296635" lon="-8.789773">
        <ele>165.2</ele>
        <time>1970-01-01T02:47:15.000Z</time>
      </trkpt>
      <trkpt lat="42.29664" lon="-8.789782">
        <ele>165.2</ele>
        <time>1970-01-01T02:47:16.000Z</time>
      </trkpt>
      <trkpt lat="42.296647" lon="-8.789788">
        <ele>165.2</ele>
        <time>1970-01-01T02:47:17.000Z</time>
      </trkpt>
      <trkpt lat="42.296647" lon="-8.789788">
        <ele>165.2</ele>
        <time>1970-01-01T02:47:18.000Z</time>
      </trkpt>
      <trkpt lat="42.296657" lon="-8.789787">
        <ele>165.2</ele>
        <time>1970-01-01T02:47:19.000Z</time>
      </trkpt>
      <trkpt lat="42.296673" lon="-8.789782">
        <ele>165.2</ele>
        <time>1970-01-01T02:47:20.000Z</time>
      </trkpt>
      <trkpt lat="42.296683" lon="-8.789777">
        <ele>167.3</ele>
        <time>1970-01-01T02:47:21.000Z</time>
      </trkpt>
      <trkpt lat="42.296688" lon="-8.789775">
        <ele>167.3</ele>
        <time>1970-01-01T02:47:22.000Z</time>
      </trkpt>
      <trkpt lat="42.296688" lon="-8.789775">
        <ele>167.3</ele>
        <time>1970-01-01T02:47:23.000Z</time>
      </trkpt>
      <trkpt lat="42.296707" lon="-8.789765">
        <ele>167.3</ele>
        <time>1970-01-01T02:47:24.000Z</time>
      </trkpt>
      <trkpt lat="42.296717" lon="-8.789757">
        <ele>168.3</ele>
        <time>1970-01-01T02:47:25.000Z</time>
      </trkpt>
      <trkpt lat="42.296722" lon="-8.78975">
        <ele>168.3</ele>
        <time>1970-01-01T02:47:26.000Z</time>
      </trkpt>
      <trkpt lat="42.29673" lon="-8.789742">
        <ele>168.3</ele>
        <time>1970-01-01T02:47:27.000Z</time>
      </trkpt>
      <trkpt lat="42.29673" lon="-8.789742">
        <ele>168.3</ele>
        <time>1970-01-01T02:47:28.000Z</time>
      </trkpt>
      <trkpt lat="42.29674" lon="-8.789737">
        <ele>168.3</ele>
        <time>1970-01-01T02:47:29.000Z</time>
      </trkpt>
      <trkpt lat="42.296752" lon="-8.789733">
        <ele>168.3</ele>
        <time>1970-01-01T02:47:30.000Z</time>
      </trkpt>
      <trkpt lat="42.296762" lon="-8.789735">
        <ele>168.3</ele>
        <time>1970-01-01T02:47:31.000Z</time>
      </trkpt>
      <trkpt lat="42.296775" lon="-8.789733">
        <ele>168.3</ele>
        <time>1970-01-01T02:47:32.000Z</time>
      </trkpt>
      <trkpt lat="42.296775" lon="-8.789733">
        <ele>168.3</ele>
        <time>1970-01-01T02:47:33.000Z</time>
      </trkpt>
      <trkpt lat="42.296795" lon="-8.789722">
        <ele>168.3</ele>
        <time>1970-01-01T02:47:34.000Z</time>
      </trkpt>
      <trkpt lat="42.296803" lon="-8.789718">
        <ele>171.3</ele>
        <time>1970-01-01T02:47:35.000Z</time>
      </trkpt>
      <trkpt lat="42.29681" lon="-8.789713">
        <ele>171.3</ele>
        <time>1970-01-01T02:47:36.000Z</time>
      </trkpt>
      <trkpt lat="42.296818" lon="-8.78971">
        <ele>171.3</ele>
        <time>1970-01-01T02:47:37.000Z</time>
      </trkpt>
      <trkpt lat="42.296818" lon="-8.78971">
        <ele>171.3</ele>
        <time>1970-01-01T02:47:38.000Z</time>
      </trkpt>
      <trkpt lat="42.296835" lon="-8.789703">
        <ele>173.3</ele>
        <time>1970-01-01T02:47:39.000Z</time>
      </trkpt>
      <trkpt lat="42.29684" lon="-8.789698">
        <ele>173.3</ele>
        <time>1970-01-01T02:47:40.000Z</time>
      </trkpt>
      <trkpt lat="42.296842" lon="-8.789698">
        <ele>173.3</ele>
        <time>1970-01-01T02:47:41.000Z</time>
      </trkpt>
      <trkpt lat="42.296848" lon="-8.789697">
        <ele>173.3</ele>
        <time>1970-01-01T02:47:42.000Z</time>
      </trkpt>
      <trkpt lat="42.296848" lon="-8.789697">
        <ele>173.3</ele>
        <time>1970-01-01T02:47:43.000Z</time>
      </trkpt>
      <trkpt lat="42.296862" lon="-8.789693">
        <ele>173.3</ele>
        <time>1970-01-01T02:47:44.000Z</time>
      </trkpt>
      <trkpt lat="42.296868" lon="-8.78969">
        <ele>174.2</ele>
        <time>1970-01-01T02:47:45.000Z</time>
      </trkpt>
      <trkpt lat="42.296877" lon="-8.789688">
        <ele>174.2</ele>
        <time>1970-01-01T02:47:46.000Z</time>
      </trkpt>
      <trkpt lat="42.296877" lon="-8.789688">
        <ele>175.3</ele>
        <time>1970-01-01T02:47:47.000Z</time>
      </trkpt>
      <trkpt lat="42.296892" lon="-8.789685">
        <ele>175.3</ele>
        <time>1970-01-01T02:47:48.000Z</time>
      </trkpt>
      <trkpt lat="42.296898" lon="-8.789683">
        <ele>175.3</ele>
        <time>1970-01-01T02:47:49.000Z</time>
      </trkpt>
      <trkpt lat="42.296903" lon="-8.78968">
        <ele>175.3</ele>
        <time>1970-01-01T02:47:50.000Z</time>
      </trkpt>
      <trkpt lat="42.296907" lon="-8.789678">
        <ele>176.3</ele>
        <time>1970-01-01T02:47:51.000Z</time>
      </trkpt>
      <trkpt lat="42.296907" lon="-8.789678">
        <ele>176.3</ele>
        <time>1970-01-01T02:47:52.000Z</time>
      </trkpt>
      <trkpt lat="42.296917" lon="-8.78967">
        <ele>176.3</ele>
        <time>1970-01-01T02:47:53.000Z</time>
      </trkpt>
      <trkpt lat="42.29692" lon="-8.789667">
        <ele>176.3</ele>
        <time>1970-01-01T02:47:54.000Z</time>
      </trkpt>
      <trkpt lat="42.296925" lon="-8.789658">
        <ele>178.3</ele>
        <time>1970-01-01T02:47:55.000Z</time>
      </trkpt>
      <trkpt lat="42.296932" lon="-8.789645">
        <ele>178.3</ele>
        <time>1970-01-01T02:47:56.000Z</time>
      </trkpt>
      <trkpt lat="42.296932" lon="-8.789645">
        <ele>178.3</ele>
        <time>1970-01-01T02:47:57.000Z</time>
      </trkpt>
      <trkpt lat="42.296937" lon="-8.789627">
        <ele>178.3</ele>
        <time>1970-01-01T02:47:58.000Z</time>
      </trkpt>
      <trkpt lat="42.29694" lon="-8.789608">
        <ele>179.2</ele>
        <time>1970-01-01T02:47:59.000Z</time>
      </trkpt>
      <trkpt lat="42.296943" lon="-8.789595">
        <ele>179.2</ele>
        <time>1970-01-01T02:48:00.000Z</time>
      </trkpt>
      <trkpt lat="42.296943" lon="-8.789582">
        <ele>180.3</ele>
        <time>1970-01-01T02:48:01.000Z</time>
      </trkpt>
      <trkpt lat="42.296943" lon="-8.789582">
        <ele>180.3</ele>
        <time>1970-01-01T02:48:02.000Z</time>
      </trkpt>
      <trkpt lat="42.29694" lon="-8.789557">
        <ele>182.3</ele>
        <time>1970-01-01T02:48:03.000Z</time>
      </trkpt>
      <trkpt lat="42.29694" lon="-8.789547">
        <ele>182.3</ele>
        <time>1970-01-01T02:48:04.000Z</time>
      </trkpt>
      <trkpt lat="42.296943" lon="-8.789535">
        <ele>182.3</ele>
        <time>1970-01-01T02:48:05.000Z</time>
      </trkpt>
      <trkpt lat="42.296947" lon="-8.789525">
        <ele>182.3</ele>
        <time>1970-01-01T02:48:06.000Z</time>
      </trkpt>
      <trkpt lat="42.296947" lon="-8.789525">
        <ele>182.3</ele>
        <time>1970-01-01T02:48:07.000Z</time>
      </trkpt>
      <trkpt lat="42.296952" lon="-8.789503">
        <ele>182.3</ele>
        <time>1970-01-01T02:48:08.000Z</time>
      </trkpt>
      <trkpt lat="42.29695" lon="-8.789505">
        <ele>182.3</ele>
        <time>1970-01-01T02:48:09.000Z</time>
      </trkpt>
      <trkpt lat="42.296952" lon="-8.7895">
        <ele>182.3</ele>
        <time>1970-01-01T02:48:10.000Z</time>
      </trkpt>
      <trkpt lat="42.296952" lon="-8.7895">
        <ele>184.3</ele>
        <time>1970-01-01T02:48:11.000Z</time>
      </trkpt>
      <trkpt lat="42.296955" lon="-8.789497">
        <ele>184.3</ele>
        <time>1970-01-01T02:48:12.000Z</time>
      </trkpt>
      <trkpt lat="42.296962" lon="-8.78949">
        <ele>184.3</ele>
        <time>1970-01-01T02:48:13.000Z</time>
      </trkpt>
      <trkpt lat="42.296968" lon="-8.789487">
        <ele>184.3</ele>
        <time>1970-01-01T02:48:14.000Z</time>
      </trkpt>
      <trkpt lat="42.296975" lon="-8.789482">
        <ele>185.3</ele>
        <time>1970-01-01T02:48:15.000Z</time>
      </trkpt>
      <trkpt lat="42.296975" lon="-8.789482">
        <ele>185.3</ele>
        <time>1970-01-01T02:48:16.000Z</time>
      </trkpt>
      <trkpt lat="42.296982" lon="-8.78947">
        <ele>186.2</ele>
        <time>1970-01-01T02:48:17.000Z</time>
      </trkpt>
      <trkpt lat="42.296987" lon="-8.78946">
        <ele>186.2</ele>
        <time>1970-01-01T02:48:18.000Z</time>
      </trkpt>
      <trkpt lat="42.296992" lon="-8.789452">
        <ele>186.2</ele>
        <time>1970-01-01T02:48:19.000Z</time>
      </trkpt>
      <trkpt lat="42.296992" lon="-8.789447">
        <ele>186.2</ele>
        <time>1970-01-01T02:48:20.000Z</time>
      </trkpt>
      <trkpt lat="42.296992" lon="-8.789447">
        <ele>186.2</ele>
        <time>1970-01-01T02:48:21.000Z</time>
      </trkpt>
      <trkpt lat="42.297" lon="-8.789443">
        <ele>186.2</ele>
        <time>1970-01-01T02:48:22.000Z</time>
      </trkpt>
      <trkpt lat="42.297002" lon="-8.789438">
        <ele>186.2</ele>
        <time>1970-01-01T02:48:23.000Z</time>
      </trkpt>
      <trkpt lat="42.297005" lon="-8.789437">
        <ele>186.2</ele>
        <time>1970-01-01T02:48:24.000Z</time>
      </trkpt>
      <trkpt lat="42.297012" lon="-8.789438">
        <ele>186.2</ele>
        <time>1970-01-01T02:48:25.000Z</time>
      </trkpt>
      <trkpt lat="42.297012" lon="-8.789438">
        <ele>186.2</ele>
        <time>1970-01-01T02:48:26.000Z</time>
      </trkpt>
      <trkpt lat="42.297025" lon="-8.789448">
        <ele>188.2</ele>
        <time>1970-01-01T02:48:27.000Z</time>
      </trkpt>
      <trkpt lat="42.297032" lon="-8.789452">
        <ele>188.2</ele>
        <time>1970-01-01T02:48:28.000Z</time>
      </trkpt>
      <trkpt lat="42.297042" lon="-8.789452">
        <ele>189.3</ele>
        <time>1970-01-01T02:48:29.000Z</time>
      </trkpt>
      <trkpt lat="42.297048" lon="-8.789453">
        <ele>189.3</ele>
        <time>1970-01-01T02:48:30.000Z</time>
      </trkpt>
      <trkpt lat="42.297048" lon="-8.789453">
        <ele>190.2</ele>
        <time>1970-01-01T02:48:31.000Z</time>
      </trkpt>
      <trkpt lat="42.297057" lon="-8.789455">
        <ele>190.2</ele>
        <time>1970-01-01T02:48:32.000Z</time>
      </trkpt>
      <trkpt lat="42.297065" lon="-8.789457">
        <ele>190.2</ele>
        <time>1970-01-01T02:48:33.000Z</time>
      </trkpt>
      <trkpt lat="42.297075" lon="-8.789455">
        <ele>190.2</ele>
        <time>1970-01-01T02:48:34.000Z</time>
      </trkpt>
      <trkpt lat="42.297087" lon="-8.789447">
        <ele>191.3</ele>
        <time>1970-01-01T02:48:35.000Z</time>
      </trkpt>
      <trkpt lat="42.297087" lon="-8.789447">
        <ele>191.3</ele>
        <time>1970-01-01T02:48:36.000Z</time>
      </trkpt>
      <trkpt lat="42.297105" lon="-8.78943">
        <ele>191.3</ele>
        <time>1970-01-01T02:48:37.000Z</time>
      </trkpt>
      <trkpt lat="42.297112" lon="-8.78942">
        <ele>191.3</ele>
        <time>1970-01-01T02:48:38.000Z</time>
      </trkpt>
      <trkpt lat="42.297113" lon="-8.789413">
        <ele>191.3</ele>
        <time>1970-01-01T02:48:39.000Z</time>
      </trkpt>
      <trkpt lat="42.297113" lon="-8.789413">
        <ele>191.3</ele>
        <time>1970-01-01T02:48:40.000Z</time>
      </trkpt>
      <trkpt lat="42.297118" lon="-8.789402">
        <ele>192.3</ele>
        <time>1970-01-01T02:48:41.000Z</time>
      </trkpt>
      <trkpt lat="42.297127" lon="-8.789382">
        <ele>192.3</ele>
        <time>1970-01-01T02:48:42.000Z</time>
      </trkpt>
      <trkpt lat="42.29713" lon="-8.789372">
        <ele>192.3</ele>
        <time>1970-01-01T02:48:43.000Z</time>
      </trkpt>
      <trkpt lat="42.29713" lon="-8.789365">
        <ele>192.3</ele>
        <time>1970-01-01T02:48:44.000Z</time>
      </trkpt>
      <trkpt lat="42.29713" lon="-8.789365">
        <ele>193.2</ele>
        <time>1970-01-01T02:48:45.000Z</time>
      </trkpt>
      <trkpt lat="42.297132" lon="-8.789355">
        <ele>193.2</ele>
        <time>1970-01-01T02:48:46.000Z</time>
      </trkpt>
      <trkpt lat="42.297133" lon="-8.789352">
        <ele>193.2</ele>
        <time>1970-01-01T02:48:47.000Z</time>
      </trkpt>
      <trkpt lat="42.297142" lon="-8.789345">
        <ele>193.2</ele>
        <time>1970-01-01T02:48:48.000Z</time>
      </trkpt>
      <trkpt lat="42.297148" lon="-8.78934">
        <ele>194.3</ele>
        <time>1970-01-01T02:48:49.000Z</time>
      </trkpt>
      <trkpt lat="42.297148" lon="-8.78934">
        <ele>194.3</ele>
        <time>1970-01-01T02:48:50.000Z</time>
      </trkpt>
      <trkpt lat="42.29716" lon="-8.789323">
        <ele>194.3</ele>
        <time>1970-01-01T02:48:51.000Z</time>
      </trkpt>
      <trkpt lat="42.297168" lon="-8.789317">
        <ele>194.3</ele>
        <time>1970-01-01T02:48:52.000Z</time>
      </trkpt>
      <trkpt lat="42.297185" lon="-8.789305">
        <ele>194.3</ele>
        <time>1970-01-01T02:48:53.000Z</time>
      </trkpt>
      <trkpt lat="42.297193" lon="-8.789298">
        <ele>194.3</ele>
        <time>1970-01-01T02:48:54.000Z</time>
      </trkpt>
      <trkpt lat="42.297193" lon="-8.789298">
        <ele>194.3</ele>
        <time>1970-01-01T02:48:55.000Z</time>
      </trkpt>
      <trkpt lat="42.297205" lon="-8.789297">
        <ele>194.3</ele>
        <time>1970-01-01T02:48:56.000Z</time>
      </trkpt>
      <trkpt lat="42.29721" lon="-8.789298">
        <ele>196.3</ele>
        <time>1970-01-01T02:48:57.000Z</time>
      </trkpt>
      <trkpt lat="42.297217" lon="-8.78929">
        <ele>196.3</ele>
        <time>1970-01-01T02:48:58.000Z</time>
      </trkpt>
      <trkpt lat="42.297225" lon="-8.789282">
        <ele>197.2</ele>
        <time>1970-01-01T02:48:59.000Z</time>
      </trkpt>
      <trkpt lat="42.297225" lon="-8.789282">
        <ele>197.2</ele>
        <time>1970-01-01T02:49:00.000Z</time>
      </trkpt>
      <trkpt lat="42.29724" lon="-8.78927">
        <ele>197.2</ele>
        <time>1970-01-01T02:49:01.000Z</time>
      </trkpt>
      <trkpt lat="42.29725" lon="-8.789265">
        <ele>197.2</ele>
        <time>1970-01-01T02:49:02.000Z</time>
      </trkpt>
      <trkpt lat="42.29726" lon="-8.789262">
        <ele>197.2</ele>
        <time>1970-01-01T02:49:03.000Z</time>
      </trkpt>
      <trkpt lat="42.297268" lon="-8.789255">
        <ele>197.2</ele>
        <time>1970-01-01T02:49:04.000Z</time>
      </trkpt>
      <trkpt lat="42.297268" lon="-8.789255">
        <ele>197.2</ele>
        <time>1970-01-01T02:49:05.000Z</time>
      </trkpt>
      <trkpt lat="42.297292" lon="-8.789242">
        <ele>198.3</ele>
        <time>1970-01-01T02:49:06.000Z</time>
      </trkpt>
      <trkpt lat="42.2973" lon="-8.789233">
        <ele>198.3</ele>
        <time>1970-01-01T02:49:07.000Z</time>
      </trkpt>
      <trkpt lat="42.297307" lon="-8.789227">
        <ele>198.3</ele>
        <time>1970-01-01T02:49:08.000Z</time>
      </trkpt>
      <trkpt lat="42.297307" lon="-8.789227">
        <ele>198.3</ele>
        <time>1970-01-01T02:49:09.000Z</time>
      </trkpt>
      <trkpt lat="42.297312" lon="-8.789228">
        <ele>199.3</ele>
        <time>1970-01-01T02:49:10.000Z</time>
      </trkpt>
      <trkpt lat="42.297325" lon="-8.789233">
        <ele>199.3</ele>
        <time>1970-01-01T02:49:11.000Z</time>
      </trkpt>
      <trkpt lat="42.297333" lon="-8.789237">
        <ele>199.3</ele>
        <time>1970-01-01T02:49:12.000Z</time>
      </trkpt>
      <trkpt lat="42.297345" lon="-8.789242">
        <ele>199.3</ele>
        <time>1970-01-01T02:49:13.000Z</time>
      </trkpt>
      <trkpt lat="42.297345" lon="-8.789242">
        <ele>200.3</ele>
        <time>1970-01-01T02:49:14.000Z</time>
      </trkpt>
      <trkpt lat="42.29736" lon="-8.789243">
        <ele>200.3</ele>
        <time>1970-01-01T02:49:15.000Z</time>
      </trkpt>
      <trkpt lat="42.297367" lon="-8.789252">
        <ele>200.3</ele>
        <time>1970-01-01T02:49:16.000Z</time>
      </trkpt>
      <trkpt lat="42.297377" lon="-8.789258">
        <ele>200.3</ele>
        <time>1970-01-01T02:49:17.000Z</time>
      </trkpt>
      <trkpt lat="42.297385" lon="-8.789262">
        <ele>200.3</ele>
        <time>1970-01-01T02:49:18.000Z</time>
      </trkpt>
      <trkpt lat="42.297385" lon="-8.789262">
        <ele>200.3</ele>
        <time>1970-01-01T02:49:19.000Z</time>
      </trkpt>
      <trkpt lat="42.297407" lon="-8.789247">
        <ele>200.3</ele>
        <time>1970-01-01T02:49:20.000Z</time>
      </trkpt>
      <trkpt lat="42.29741" lon="-8.789245">
        <ele>200.3</ele>
        <time>1970-01-01T02:49:21.000Z</time>
      </trkpt>
      <trkpt lat="42.297413" lon="-8.789243">
        <ele>200.3</ele>
        <time>1970-01-01T02:49:22.000Z</time>
      </trkpt>
      <trkpt lat="42.297415" lon="-8.789243">
        <ele>200.3</ele>
        <time>1970-01-01T02:49:23.000Z</time>
      </trkpt>
      <trkpt lat="42.297415" lon="-8.789243">
        <ele>200.3</ele>
        <time>1970-01-01T02:49:24.000Z</time>
      </trkpt>
      <trkpt lat="42.297417" lon="-8.78924">
        <ele>200.3</ele>
        <time>1970-01-01T02:49:25.000Z</time>
      </trkpt>
      <trkpt lat="42.29742" lon="-8.78924">
        <ele>200.3</ele>
        <time>1970-01-01T02:49:26.000Z</time>
      </trkpt>
      <trkpt lat="42.297423" lon="-8.789238">
        <ele>200.3</ele>
        <time>1970-01-01T02:49:27.000Z</time>
      </trkpt>
      <trkpt lat="42.297433" lon="-8.78924">
        <ele>200.3</ele>
        <time>1970-01-01T02:49:28.000Z</time>
      </trkpt>
      <trkpt lat="42.297433" lon="-8.78924">
        <ele>200.3</ele>
        <time>1970-01-01T02:49:29.000Z</time>
      </trkpt>
      <trkpt lat="42.297445" lon="-8.789238">
        <ele>201.3</ele>
        <time>1970-01-01T02:49:30.000Z</time>
      </trkpt>
      <trkpt lat="42.297453" lon="-8.789232">
        <ele>201.3</ele>
        <time>1970-01-01T02:49:31.000Z</time>
      </trkpt>
      <trkpt lat="42.297462" lon="-8.789227">
        <ele>201.3</ele>
        <time>1970-01-01T02:49:32.000Z</time>
      </trkpt>
      <trkpt lat="42.297472" lon="-8.789223">
        <ele>201.3</ele>
        <time>1970-01-01T02:49:33.000Z</time>
      </trkpt>
      <trkpt lat="42.297472" lon="-8.789223">
        <ele>202.2</ele>
        <time>1970-01-01T02:49:34.000Z</time>
      </trkpt>
      <trkpt lat="42.297485" lon="-8.789223">
        <ele>202.2</ele>
        <time>1970-01-01T02:49:35.000Z</time>
      </trkpt>
      <trkpt lat="42.297492" lon="-8.789223">
        <ele>202.2</ele>
        <time>1970-01-01T02:49:36.000Z</time>
      </trkpt>
      <trkpt lat="42.2975" lon="-8.789217">
        <ele>202.2</ele>
        <time>1970-01-01T02:49:37.000Z</time>
      </trkpt>
      <trkpt lat="42.2975" lon="-8.789217">
        <ele>202.2</ele>
        <time>1970-01-01T02:49:38.000Z</time>
      </trkpt>
      <trkpt lat="42.297512" lon="-8.789208">
        <ele>202.2</ele>
        <time>1970-01-01T02:49:39.000Z</time>
      </trkpt>
      <trkpt lat="42.29752" lon="-8.789207">
        <ele>202.2</ele>
        <time>1970-01-01T02:49:40.000Z</time>
      </trkpt>
      <trkpt lat="42.297527" lon="-8.789203">
        <ele>202.2</ele>
        <time>1970-01-01T02:49:41.000Z</time>
      </trkpt>
      <trkpt lat="42.297533" lon="-8.789202">
        <ele>203.3</ele>
        <time>1970-01-01T02:49:42.000Z</time>
      </trkpt>
      <trkpt lat="42.297533" lon="-8.789202">
        <ele>203.3</ele>
        <time>1970-01-01T02:49:43.000Z</time>
      </trkpt>
      <trkpt lat="42.297542" lon="-8.789195">
        <ele>203.3</ele>
        <time>1970-01-01T02:49:44.000Z</time>
      </trkpt>
      <trkpt lat="42.297543" lon="-8.78919">
        <ele>203.3</ele>
        <time>1970-01-01T02:49:45.000Z</time>
      </trkpt>
      <trkpt lat="42.297545" lon="-8.789185">
        <ele>203.3</ele>
        <time>1970-01-01T02:49:46.000Z</time>
      </trkpt>
      <trkpt lat="42.297547" lon="-8.789182">
        <ele>203.3</ele>
        <time>1970-01-01T02:49:47.000Z</time>
      </trkpt>
      <trkpt lat="42.297547" lon="-8.789182">
        <ele>204.2</ele>
        <time>1970-01-01T02:49:48.000Z</time>
      </trkpt>
      <trkpt lat="42.297552" lon="-8.789175">
        <ele>204.2</ele>
        <time>1970-01-01T02:49:49.000Z</time>
      </trkpt>
      <trkpt lat="42.297553" lon="-8.789175">
        <ele>204.2</ele>
        <time>1970-01-01T02:49:50.000Z</time>
      </trkpt>
      <trkpt lat="42.297555" lon="-8.789177">
        <ele>204.2</ele>
        <time>1970-01-01T02:49:51.000Z</time>
      </trkpt>
      <trkpt lat="42.297558" lon="-8.789182">
        <ele>204.2</ele>
        <time>1970-01-01T02:49:52.000Z</time>
      </trkpt>
      <trkpt lat="42.297558" lon="-8.789182">
        <ele>204.2</ele>
        <time>1970-01-01T02:49:53.000Z</time>
      </trkpt>
      <trkpt lat="42.297572" lon="-8.789187">
        <ele>204.2</ele>
        <time>1970-01-01T02:49:54.000Z</time>
      </trkpt>
      <trkpt lat="42.297577" lon="-8.78919">
        <ele>204.2</ele>
        <time>1970-01-01T02:49:55.000Z</time>
      </trkpt>
      <trkpt lat="42.297582" lon="-8.789195">
        <ele>205.3</ele>
        <time>1970-01-01T02:49:56.000Z</time>
      </trkpt>
      <trkpt lat="42.297588" lon="-8.789198">
        <ele>205.3</ele>
        <time>1970-01-01T02:49:57.000Z</time>
      </trkpt>
      <trkpt lat="42.297588" lon="-8.789198">
        <ele>205.3</ele>
        <time>1970-01-01T02:49:58.000Z</time>
      </trkpt>
      <trkpt lat="42.297607" lon="-8.7892">
        <ele>205.3</ele>
        <time>1970-01-01T02:49:59.000Z</time>
      </trkpt>
      <trkpt lat="42.297613" lon="-8.789203">
        <ele>205.3</ele>
        <time>1970-01-01T02:50:00.000Z</time>
      </trkpt>
      <trkpt lat="42.297623" lon="-8.789205">
        <ele>205.3</ele>
        <time>1970-01-01T02:50:01.000Z</time>
      </trkpt>
      <trkpt lat="42.297623" lon="-8.789205">
        <ele>205.3</ele>
        <time>1970-01-01T02:50:02.000Z</time>
      </trkpt>
      <trkpt lat="42.297632" lon="-8.789207">
        <ele>205.3</ele>
        <time>1970-01-01T02:50:03.000Z</time>
      </trkpt>
      <trkpt lat="42.297647" lon="-8.789207">
        <ele>205.3</ele>
        <time>1970-01-01T02:50:04.000Z</time>
      </trkpt>
      <trkpt lat="42.29766" lon="-8.789208">
        <ele>205.3</ele>
        <time>1970-01-01T02:50:05.000Z</time>
      </trkpt>
      <trkpt lat="42.297677" lon="-8.789198">
        <ele>205.3</ele>
        <time>1970-01-01T02:50:06.000Z</time>
      </trkpt>
      <trkpt lat="42.297677" lon="-8.789198">
        <ele>205.3</ele>
        <time>1970-01-01T02:50:07.000Z</time>
      </trkpt>
      <trkpt lat="42.297688" lon="-8.78919">
        <ele>206.2</ele>
        <time>1970-01-01T02:50:08.000Z</time>
      </trkpt>
      <trkpt lat="42.29769" lon="-8.789197">
        <ele>206.2</ele>
        <time>1970-01-01T02:50:09.000Z</time>
      </trkpt>
      <trkpt lat="42.297687" lon="-8.789212">
        <ele>206.2</ele>
        <time>1970-01-01T02:50:10.000Z</time>
      </trkpt>
      <trkpt lat="42.29769" lon="-8.789218">
        <ele>206.2</ele>
        <time>1970-01-01T02:50:11.000Z</time>
      </trkpt>
      <trkpt lat="42.29769" lon="-8.789218">
        <ele>207.3</ele>
        <time>1970-01-01T02:50:12.000Z</time>
      </trkpt>
      <trkpt lat="42.297692" lon="-8.789232">
        <ele>207.3</ele>
        <time>1970-01-01T02:50:13.000Z</time>
      </trkpt>
      <trkpt lat="42.297697" lon="-8.78924">
        <ele>207.3</ele>
        <time>1970-01-01T02:50:14.000Z</time>
      </trkpt>
      <trkpt lat="42.297697" lon="-8.789257">
        <ele>207.3</ele>
        <time>1970-01-01T02:50:15.000Z</time>
      </trkpt>
      <trkpt lat="42.297693" lon="-8.789268">
        <ele>207.3</ele>
        <time>1970-01-01T02:50:16.000Z</time>
      </trkpt>
      <trkpt lat="42.297693" lon="-8.789268">
        <ele>207.3</ele>
        <time>1970-01-01T02:50:17.000Z</time>
      </trkpt>
      <trkpt lat="42.297698" lon="-8.789295">
        <ele>207.3</ele>
        <time>1970-01-01T02:50:18.000Z</time>
      </trkpt>
      <trkpt lat="42.297702" lon="-8.789302">
        <ele>207.3</ele>
        <time>1970-01-01T02:50:19.000Z</time>
      </trkpt>
      <trkpt lat="42.297708" lon="-8.789308">
        <ele>207.3</ele>
        <time>1970-01-01T02:50:20.000Z</time>
      </trkpt>
      <trkpt lat="42.297713" lon="-8.789317">
        <ele>207.3</ele>
        <time>1970-01-01T02:50:21.000Z</time>
      </trkpt>
      <trkpt lat="42.297713" lon="-8.789317">
        <ele>208.3</ele>
        <time>1970-01-01T02:50:22.000Z</time>
      </trkpt>
      <trkpt lat="42.297723" lon="-8.789322">
        <ele>208.3</ele>
        <time>1970-01-01T02:50:23.000Z</time>
      </trkpt>
      <trkpt lat="42.297732" lon="-8.789323">
        <ele>208.3</ele>
        <time>1970-01-01T02:50:24.000Z</time>
      </trkpt>
      <trkpt lat="42.297738" lon="-8.789323">
        <ele>208.3</ele>
        <time>1970-01-01T02:50:25.000Z</time>
      </trkpt>
      <trkpt lat="42.297738" lon="-8.789323">
        <ele>208.3</ele>
        <time>1970-01-01T02:50:26.000Z</time>
      </trkpt>
      <trkpt lat="42.29775" lon="-8.78932">
        <ele>208.3</ele>
        <time>1970-01-01T02:50:27.000Z</time>
      </trkpt>
      <trkpt lat="42.297763" lon="-8.789325">
        <ele>208.3</ele>
        <time>1970-01-01T02:50:28.000Z</time>
      </trkpt>
      <trkpt lat="42.297768" lon="-8.789327">
        <ele>208.3</ele>
        <time>1970-01-01T02:50:29.000Z</time>
      </trkpt>
      <trkpt lat="42.297777" lon="-8.789328">
        <ele>208.3</ele>
        <time>1970-01-01T02:50:30.000Z</time>
      </trkpt>
      <trkpt lat="42.297777" lon="-8.789328">
        <ele>208.3</ele>
        <time>1970-01-01T02:50:31.000Z</time>
      </trkpt>
      <trkpt lat="42.297787" lon="-8.789328">
        <ele>208.3</ele>
        <time>1970-01-01T02:50:32.000Z</time>
      </trkpt>
      <trkpt lat="42.297798" lon="-8.789328">
        <ele>208.3</ele>
        <time>1970-01-01T02:50:33.000Z</time>
      </trkpt>
      <trkpt lat="42.297805" lon="-8.789327">
        <ele>208.3</ele>
        <time>1970-01-01T02:50:34.000Z</time>
      </trkpt>
      <trkpt lat="42.297815" lon="-8.78933">
        <ele>208.3</ele>
        <time>1970-01-01T02:50:35.000Z</time>
      </trkpt>
      <trkpt lat="42.297815" lon="-8.78933">
        <ele>207.3</ele>
        <time>1970-01-01T02:50:36.000Z</time>
      </trkpt>
      <trkpt lat="42.29783" lon="-8.789327">
        <ele>207.3</ele>
        <time>1970-01-01T02:50:37.000Z</time>
      </trkpt>
      <trkpt lat="42.297837" lon="-8.789327">
        <ele>207.3</ele>
        <time>1970-01-01T02:50:38.000Z</time>
      </trkpt>
      <trkpt lat="42.297848" lon="-8.789325">
        <ele>207.3</ele>
        <time>1970-01-01T02:50:39.000Z</time>
      </trkpt>
      <trkpt lat="42.297852" lon="-8.789328">
        <ele>207.3</ele>
        <time>1970-01-01T02:50:40.000Z</time>
      </trkpt>
      <trkpt lat="42.297852" lon="-8.789328">
        <ele>207.3</ele>
        <time>1970-01-01T02:50:41.000Z</time>
      </trkpt>
      <trkpt lat="42.297857" lon="-8.789328">
        <ele>206.2</ele>
        <time>1970-01-01T02:50:42.000Z</time>
      </trkpt>
      <trkpt lat="42.29786" lon="-8.78933">
        <ele>206.2</ele>
        <time>1970-01-01T02:50:43.000Z</time>
      </trkpt>
      <trkpt lat="42.297862" lon="-8.789332">
        <ele>206.2</ele>
        <time>1970-01-01T02:50:44.000Z</time>
      </trkpt>
      <trkpt lat="42.297865" lon="-8.789335">
        <ele>206.2</ele>
        <time>1970-01-01T02:50:45.000Z</time>
      </trkpt>
      <trkpt lat="42.297865" lon="-8.789335">
        <ele>205.3</ele>
        <time>1970-01-01T02:50:46.000Z</time>
      </trkpt>
      <trkpt lat="42.29788" lon="-8.789337">
        <ele>205.3</ele>
        <time>1970-01-01T02:50:47.000Z</time>
      </trkpt>
      <trkpt lat="42.29789" lon="-8.78934">
        <ele>205.3</ele>
        <time>1970-01-01T02:50:48.000Z</time>
      </trkpt>
      <trkpt lat="42.297898" lon="-8.789343">
        <ele>205.3</ele>
        <time>1970-01-01T02:50:49.000Z</time>
      </trkpt>
      <trkpt lat="42.297908" lon="-8.789347">
        <ele>205.3</ele>
        <time>1970-01-01T02:50:50.000Z</time>
      </trkpt>
      <trkpt lat="42.297908" lon="-8.789347">
        <ele>205.3</ele>
        <time>1970-01-01T02:50:51.000Z</time>
      </trkpt>
      <trkpt lat="42.29792" lon="-8.789348">
        <ele>204.2</ele>
        <time>1970-01-01T02:50:52.000Z</time>
      </trkpt>
      <trkpt lat="42.297923" lon="-8.78935">
        <ele>204.2</ele>
        <time>1970-01-01T02:50:53.000Z</time>
      </trkpt>
      <trkpt lat="42.29793" lon="-8.789353">
        <ele>204.2</ele>
        <time>1970-01-01T02:50:54.000Z</time>
      </trkpt>
      <trkpt lat="42.29793" lon="-8.789353">
        <ele>204.2</ele>
        <time>1970-01-01T02:50:55.000Z</time>
      </trkpt>
      <trkpt lat="42.297937" lon="-8.789353">
        <ele>204.2</ele>
        <time>1970-01-01T02:50:56.000Z</time>
      </trkpt>
      <trkpt lat="42.297948" lon="-8.78935">
        <ele>204.2</ele>
        <time>1970-01-01T02:50:57.000Z</time>
      </trkpt>
      <trkpt lat="42.297955" lon="-8.789355">
        <ele>204.2</ele>
        <time>1970-01-01T02:50:58.000Z</time>
      </trkpt>
      <trkpt lat="42.297957" lon="-8.789362">
        <ele>204.2</ele>
        <time>1970-01-01T02:50:59.000Z</time>
      </trkpt>
      <trkpt lat="42.297957" lon="-8.789362">
        <ele>204.2</ele>
        <time>1970-01-01T02:51:00.000Z</time>
      </trkpt>
      <trkpt lat="42.297972" lon="-8.789358">
        <ele>204.2</ele>
        <time>1970-01-01T02:51:01.000Z</time>
      </trkpt>
      <trkpt lat="42.29798" lon="-8.789357">
        <ele>204.2</ele>
        <time>1970-01-01T02:51:02.000Z</time>
      </trkpt>
      <trkpt lat="42.297985" lon="-8.789358">
        <ele>204.2</ele>
        <time>1970-01-01T02:51:03.000Z</time>
      </trkpt>
      <trkpt lat="42.297992" lon="-8.789355">
        <ele>204.2</ele>
        <time>1970-01-01T02:51:04.000Z</time>
      </trkpt>
      <trkpt lat="42.297992" lon="-8.789355">
        <ele>204.2</ele>
        <time>1970-01-01T02:51:05.000Z</time>
      </trkpt>
      <trkpt lat="42.298" lon="-8.789353">
        <ele>204.2</ele>
        <time>1970-01-01T02:51:06.000Z</time>
      </trkpt>
      <trkpt lat="42.298005" lon="-8.789347">
        <ele>204.2</ele>
        <time>1970-01-01T02:51:07.000Z</time>
      </trkpt>
      <trkpt lat="42.298008" lon="-8.789343">
        <ele>204.2</ele>
        <time>1970-01-01T02:51:08.000Z</time>
      </trkpt>
      <trkpt lat="42.298012" lon="-8.789342">
        <ele>204.2</ele>
        <time>1970-01-01T02:51:09.000Z</time>
      </trkpt>
      <trkpt lat="42.298012" lon="-8.789342">
        <ele>204.2</ele>
        <time>1970-01-01T02:51:10.000Z</time>
      </trkpt>
      <trkpt lat="42.298015" lon="-8.789332">
        <ele>204.2</ele>
        <time>1970-01-01T02:51:11.000Z</time>
      </trkpt>
      <trkpt lat="42.298012" lon="-8.789328">
        <ele>204.2</ele>
        <time>1970-01-01T02:51:12.000Z</time>
      </trkpt>
      <trkpt lat="42.298013" lon="-8.78932">
        <ele>204.2</ele>
        <time>1970-01-01T02:51:13.000Z</time>
      </trkpt>
      <trkpt lat="42.298015" lon="-8.789297">
        <ele>204.2</ele>
        <time>1970-01-01T02:51:14.000Z</time>
      </trkpt>
      <trkpt lat="42.298015" lon="-8.789297">
        <ele>204.2</ele>
        <time>1970-01-01T02:51:15.000Z</time>
      </trkpt>
      <trkpt lat="42.29802" lon="-8.789272">
        <ele>204.2</ele>
        <time>1970-01-01T02:51:16.000Z</time>
      </trkpt>
      <trkpt lat="42.298023" lon="-8.789265">
        <ele>204.2</ele>
        <time>1970-01-01T02:51:17.000Z</time>
      </trkpt>
      <trkpt lat="42.298035" lon="-8.789255">
        <ele>203.3</ele>
        <time>1970-01-01T02:51:18.000Z</time>
      </trkpt>
      <trkpt lat="42.298043" lon="-8.789247">
        <ele>203.3</ele>
        <time>1970-01-01T02:51:19.000Z</time>
      </trkpt>
      <trkpt lat="42.298043" lon="-8.789247">
        <ele>203.3</ele>
        <time>1970-01-01T02:51:20.000Z</time>
      </trkpt>
      <trkpt lat="42.29805" lon="-8.789238">
        <ele>203.3</ele>
        <time>1970-01-01T02:51:21.000Z</time>
      </trkpt>
      <trkpt lat="42.298053" lon="-8.789233">
        <ele>203.3</ele>
        <time>1970-01-01T02:51:22.000Z</time>
      </trkpt>
      <trkpt lat="42.298058" lon="-8.789225">
        <ele>203.3</ele>
        <time>1970-01-01T02:51:23.000Z</time>
      </trkpt>
      <trkpt lat="42.298058" lon="-8.789225">
        <ele>204.2</ele>
        <time>1970-01-01T02:51:24.000Z</time>
      </trkpt>
      <trkpt lat="42.298063" lon="-8.789212">
        <ele>204.2</ele>
        <time>1970-01-01T02:51:25.000Z</time>
      </trkpt>
      <trkpt lat="42.29808" lon="-8.78919">
        <ele>204.2</ele>
        <time>1970-01-01T02:51:26.000Z</time>
      </trkpt>
      <trkpt lat="42.298087" lon="-8.78918">
        <ele>204.2</ele>
        <time>1970-01-01T02:51:27.000Z</time>
      </trkpt>
      <trkpt lat="42.298093" lon="-8.789163">
        <ele>204.2</ele>
        <time>1970-01-01T02:51:28.000Z</time>
      </trkpt>
      <trkpt lat="42.298093" lon="-8.789163">
        <ele>204.2</ele>
        <time>1970-01-01T02:51:29.000Z</time>
      </trkpt>
      <trkpt lat="42.298092" lon="-8.789155">
        <ele>204.2</ele>
        <time>1970-01-01T02:51:30.000Z</time>
      </trkpt>
      <trkpt lat="42.298093" lon="-8.789145">
        <ele>204.2</ele>
        <time>1970-01-01T02:51:31.000Z</time>
      </trkpt>
      <trkpt lat="42.298098" lon="-8.789143">
        <ele>204.2</ele>
        <time>1970-01-01T02:51:32.000Z</time>
      </trkpt>
      <trkpt lat="42.298103" lon="-8.78914">
        <ele>204.2</ele>
        <time>1970-01-01T02:51:33.000Z</time>
      </trkpt>
      <trkpt lat="42.298103" lon="-8.78914">
        <ele>203.3</ele>
        <time>1970-01-01T02:51:34.000Z</time>
      </trkpt>
      <trkpt lat="42.298117" lon="-8.789142">
        <ele>203.3</ele>
        <time>1970-01-01T02:51:35.000Z</time>
      </trkpt>
      <trkpt lat="42.298123" lon="-8.789145">
        <ele>203.3</ele>
        <time>1970-01-01T02:51:36.000Z</time>
      </trkpt>
      <trkpt lat="42.298128" lon="-8.789145">
        <ele>203.3</ele>
        <time>1970-01-01T02:51:37.000Z</time>
      </trkpt>
      <trkpt lat="42.298135" lon="-8.789147">
        <ele>203.3</ele>
        <time>1970-01-01T02:51:38.000Z</time>
      </trkpt>
      <trkpt lat="42.298135" lon="-8.789147">
        <ele>203.3</ele>
        <time>1970-01-01T02:51:39.000Z</time>
      </trkpt>
      <trkpt lat="42.298148" lon="-8.789153">
        <ele>203.3</ele>
        <time>1970-01-01T02:51:40.000Z</time>
      </trkpt>
      <trkpt lat="42.298155" lon="-8.789158">
        <ele>203.3</ele>
        <time>1970-01-01T02:51:41.000Z</time>
      </trkpt>
      <trkpt lat="42.298165" lon="-8.789162">
        <ele>203.3</ele>
        <time>1970-01-01T02:51:42.000Z</time>
      </trkpt>
      <trkpt lat="42.29817" lon="-8.789163">
        <ele>203.3</ele>
        <time>1970-01-01T02:51:43.000Z</time>
      </trkpt>
      <trkpt lat="42.29817" lon="-8.789163">
        <ele>203.3</ele>
        <time>1970-01-01T02:51:44.000Z</time>
      </trkpt>
      <trkpt lat="42.298182" lon="-8.789167">
        <ele>203.3</ele>
        <time>1970-01-01T02:51:45.000Z</time>
      </trkpt>
      <trkpt lat="42.298188" lon="-8.789167">
        <ele>203.3</ele>
        <time>1970-01-01T02:51:46.000Z</time>
      </trkpt>
      <trkpt lat="42.298192" lon="-8.789165">
        <ele>203.3</ele>
        <time>1970-01-01T02:51:47.000Z</time>
      </trkpt>
      <trkpt lat="42.298192" lon="-8.789165">
        <ele>203.3</ele>
        <time>1970-01-01T02:51:48.000Z</time>
      </trkpt>
      <trkpt lat="42.2982" lon="-8.78916">
        <ele>203.3</ele>
        <time>1970-01-01T02:51:49.000Z</time>
      </trkpt>
      <trkpt lat="42.298212" lon="-8.78916">
        <ele>203.3</ele>
        <time>1970-01-01T02:51:50.000Z</time>
      </trkpt>
      <trkpt lat="42.29822" lon="-8.789158">
        <ele>203.3</ele>
        <time>1970-01-01T02:51:51.000Z</time>
      </trkpt>
      <trkpt lat="42.298225" lon="-8.789153">
        <ele>203.3</ele>
        <time>1970-01-01T02:51:52.000Z</time>
      </trkpt>
      <trkpt lat="42.298225" lon="-8.789153">
        <ele>203.3</ele>
        <time>1970-01-01T02:51:53.000Z</time>
      </trkpt>
      <trkpt lat="42.298228" lon="-8.789148">
        <ele>203.3</ele>
        <time>1970-01-01T02:51:54.000Z</time>
      </trkpt>
      <trkpt lat="42.298232" lon="-8.789133">
        <ele>203.3</ele>
        <time>1970-01-01T02:51:55.000Z</time>
      </trkpt>
      <trkpt lat="42.298233" lon="-8.789127">
        <ele>203.3</ele>
        <time>1970-01-01T02:51:56.000Z</time>
      </trkpt>
      <trkpt lat="42.298237" lon="-8.789117">
        <ele>203.3</ele>
        <time>1970-01-01T02:51:57.000Z</time>
      </trkpt>
      <trkpt lat="42.298237" lon="-8.789117">
        <ele>203.3</ele>
        <time>1970-01-01T02:51:58.000Z</time>
      </trkpt>
      <trkpt lat="42.298247" lon="-8.789107">
        <ele>203.3</ele>
        <time>1970-01-01T02:51:59.000Z</time>
      </trkpt>
      <trkpt lat="42.298252" lon="-8.789102">
        <ele>203.3</ele>
        <time>1970-01-01T02:52:00.000Z</time>
      </trkpt>
      <trkpt lat="42.298257" lon="-8.789095">
        <ele>203.3</ele>
        <time>1970-01-01T02:52:01.000Z</time>
      </trkpt>
      <trkpt lat="42.29826" lon="-8.789088">
        <ele>203.3</ele>
        <time>1970-01-01T02:52:02.000Z</time>
      </trkpt>
      <trkpt lat="42.29826" lon="-8.789088">
        <ele>203.3</ele>
        <time>1970-01-01T02:52:03.000Z</time>
      </trkpt>
      <trkpt lat="42.298263" lon="-8.789075">
        <ele>203.3</ele>
        <time>1970-01-01T02:52:04.000Z</time>
      </trkpt>
      <trkpt lat="42.298265" lon="-8.789072">
        <ele>203.3</ele>
        <time>1970-01-01T02:52:05.000Z</time>
      </trkpt>
      <trkpt lat="42.298272" lon="-8.789067">
        <ele>203.3</ele>
        <time>1970-01-01T02:52:06.000Z</time>
      </trkpt>
      <trkpt lat="42.298277" lon="-8.78906">
        <ele>203.3</ele>
        <time>1970-01-01T02:52:07.000Z</time>
      </trkpt>
      <trkpt lat="42.298277" lon="-8.78906">
        <ele>203.3</ele>
        <time>1970-01-01T02:52:08.000Z</time>
      </trkpt>
      <trkpt lat="42.298285" lon="-8.789053">
        <ele>203.3</ele>
        <time>1970-01-01T02:52:09.000Z</time>
      </trkpt>
      <trkpt lat="42.298288" lon="-8.789052">
        <ele>203.3</ele>
        <time>1970-01-01T02:52:10.000Z</time>
      </trkpt>
      <trkpt lat="42.298292" lon="-8.789047">
        <ele>203.3</ele>
        <time>1970-01-01T02:52:11.000Z</time>
      </trkpt>
      <trkpt lat="42.298295" lon="-8.789038">
        <ele>204.2</ele>
        <time>1970-01-01T02:52:12.000Z</time>
      </trkpt>
      <trkpt lat="42.298295" lon="-8.789038">
        <ele>204.2</ele>
        <time>1970-01-01T02:52:13.000Z</time>
      </trkpt>
      <trkpt lat="42.2983" lon="-8.789018">
        <ele>204.2</ele>
        <time>1970-01-01T02:52:14.000Z</time>
      </trkpt>
      <trkpt lat="42.2983" lon="-8.789008">
        <ele>204.2</ele>
        <time>1970-01-01T02:52:15.000Z</time>
      </trkpt>
      <trkpt lat="42.298298" lon="-8.788998">
        <ele>204.2</ele>
        <time>1970-01-01T02:52:16.000Z</time>
      </trkpt>
      <trkpt lat="42.298298" lon="-8.788998">
        <ele>204.2</ele>
        <time>1970-01-01T02:52:17.000Z</time>
      </trkpt>
      <trkpt lat="42.298297" lon="-8.788988">
        <ele>203.3</ele>
        <time>1970-01-01T02:52:18.000Z</time>
      </trkpt>
      <trkpt lat="42.2983" lon="-8.788968">
        <ele>203.3</ele>
        <time>1970-01-01T02:52:19.000Z</time>
      </trkpt>
      <trkpt lat="42.2983" lon="-8.788962">
        <ele>204.2</ele>
        <time>1970-01-01T02:52:20.000Z</time>
      </trkpt>
      <trkpt lat="42.298302" lon="-8.788955">
        <ele>204.2</ele>
        <time>1970-01-01T02:52:21.000Z</time>
      </trkpt>
      <trkpt lat="42.298302" lon="-8.788955">
        <ele>204.2</ele>
        <time>1970-01-01T02:52:22.000Z</time>
      </trkpt>
      <trkpt lat="42.298303" lon="-8.788948">
        <ele>204.2</ele>
        <time>1970-01-01T02:52:23.000Z</time>
      </trkpt>
      <trkpt lat="42.298308" lon="-8.788933">
        <ele>205.3</ele>
        <time>1970-01-01T02:52:24.000Z</time>
      </trkpt>
      <trkpt lat="42.29831" lon="-8.78893">
        <ele>205.3</ele>
        <time>1970-01-01T02:52:25.000Z</time>
      </trkpt>
      <trkpt lat="42.298313" lon="-8.788927">
        <ele>205.3</ele>
        <time>1970-01-01T02:52:26.000Z</time>
      </trkpt>
      <trkpt lat="42.298313" lon="-8.788927">
        <ele>205.3</ele>
        <time>1970-01-01T02:52:27.000Z</time>
      </trkpt>
      <trkpt lat="42.298322" lon="-8.788918">
        <ele>205.3</ele>
        <time>1970-01-01T02:52:28.000Z</time>
      </trkpt>
      <trkpt lat="42.298323" lon="-8.788913">
        <ele>205.3</ele>
        <time>1970-01-01T02:52:29.000Z</time>
      </trkpt>
      <trkpt lat="42.298328" lon="-8.788912">
        <ele>205.3</ele>
        <time>1970-01-01T02:52:30.000Z</time>
      </trkpt>
      <trkpt lat="42.298332" lon="-8.788905">
        <ele>205.3</ele>
        <time>1970-01-01T02:52:31.000Z</time>
      </trkpt>
      <trkpt lat="42.298332" lon="-8.788905">
        <ele>206.2</ele>
        <time>1970-01-01T02:52:32.000Z</time>
      </trkpt>
      <trkpt lat="42.298338" lon="-8.788902">
        <ele>206.2</ele>
        <time>1970-01-01T02:52:33.000Z</time>
      </trkpt>
      <trkpt lat="42.29834" lon="-8.788902">
        <ele>207.3</ele>
        <time>1970-01-01T02:52:34.000Z</time>
      </trkpt>
      <trkpt lat="42.298342" lon="-8.788903">
        <ele>207.3</ele>
        <time>1970-01-01T02:52:35.000Z</time>
      </trkpt>
      <trkpt lat="42.298342" lon="-8.788903">
        <ele>207.3</ele>
        <time>1970-01-01T02:52:36.000Z</time>
      </trkpt>
      <trkpt lat="42.298342" lon="-8.788903">
        <ele>207.3</ele>
        <time>1970-01-01T02:52:37.000Z</time>
      </trkpt>
      <trkpt lat="42.298347" lon="-8.788905">
        <ele>208.3</ele>
        <time>1970-01-01T02:52:38.000Z</time>
      </trkpt>
      <trkpt lat="42.29835" lon="-8.788912">
        <ele>208.3</ele>
        <time>1970-01-01T02:52:39.000Z</time>
      </trkpt>
      <trkpt lat="42.298355" lon="-8.788915">
        <ele>208.3</ele>
        <time>1970-01-01T02:52:40.000Z</time>
      </trkpt>
      <trkpt lat="42.298358" lon="-8.788923">
        <ele>208.3</ele>
        <time>1970-01-01T02:52:41.000Z</time>
      </trkpt>
      <trkpt lat="42.298358" lon="-8.788923">
        <ele>208.3</ele>
        <time>1970-01-01T02:52:42.000Z</time>
      </trkpt>
      <trkpt lat="42.298377" lon="-8.788935">
        <ele>208.3</ele>
        <time>1970-01-01T02:52:43.000Z</time>
      </trkpt>
      <trkpt lat="42.298385" lon="-8.788935">
        <ele>208.3</ele>
        <time>1970-01-01T02:52:44.000Z</time>
      </trkpt>
      <trkpt lat="42.298393" lon="-8.788933">
        <ele>208.3</ele>
        <time>1970-01-01T02:52:45.000Z</time>
      </trkpt>
      <trkpt lat="42.298393" lon="-8.788933">
        <ele>208.3</ele>
        <time>1970-01-01T02:52:46.000Z</time>
      </trkpt>
      <trkpt lat="42.298402" lon="-8.78893">
        <ele>208.3</ele>
        <time>1970-01-01T02:52:47.000Z</time>
      </trkpt>
      <trkpt lat="42.29842" lon="-8.788925">
        <ele>208.3</ele>
        <time>1970-01-01T02:52:48.000Z</time>
      </trkpt>
      <trkpt lat="42.298422" lon="-8.78893">
        <ele>208.3</ele>
        <time>1970-01-01T02:52:49.000Z</time>
      </trkpt>
      <trkpt lat="42.298427" lon="-8.78893">
        <ele>208.3</ele>
        <time>1970-01-01T02:52:50.000Z</time>
      </trkpt>
      <trkpt lat="42.298427" lon="-8.78893">
        <ele>208.3</ele>
        <time>1970-01-01T02:52:51.000Z</time>
      </trkpt>
      <trkpt lat="42.298432" lon="-8.78893">
        <ele>208.3</ele>
        <time>1970-01-01T02:52:52.000Z</time>
      </trkpt>
      <trkpt lat="42.298443" lon="-8.788932">
        <ele>208.3</ele>
        <time>1970-01-01T02:52:53.000Z</time>
      </trkpt>
      <trkpt lat="42.29845" lon="-8.788937">
        <ele>208.3</ele>
        <time>1970-01-01T02:52:54.000Z</time>
      </trkpt>
      <trkpt lat="42.298457" lon="-8.788935">
        <ele>208.3</ele>
        <time>1970-01-01T02:52:55.000Z</time>
      </trkpt>
      <trkpt lat="42.298457" lon="-8.788935">
        <ele>208.3</ele>
        <time>1970-01-01T02:52:56.000Z</time>
      </trkpt>
      <trkpt lat="42.298468" lon="-8.788932">
        <ele>208.3</ele>
        <time>1970-01-01T02:52:57.000Z</time>
      </trkpt>
      <trkpt lat="42.298472" lon="-8.78893">
        <ele>208.3</ele>
        <time>1970-01-01T02:52:58.000Z</time>
      </trkpt>
      <trkpt lat="42.298473" lon="-8.788928">
        <ele>208.3</ele>
        <time>1970-01-01T02:52:59.000Z</time>
      </trkpt>
      <trkpt lat="42.298473" lon="-8.788927">
        <ele>209.2</ele>
        <time>1970-01-01T02:53:00.000Z</time>
      </trkpt>
      <trkpt lat="42.298473" lon="-8.788927">
        <ele>209.2</ele>
        <time>1970-01-01T02:53:01.000Z</time>
      </trkpt>
      <trkpt lat="42.298473" lon="-8.788927">
        <ele>209.2</ele>
        <time>1970-01-01T02:53:02.000Z</time>
      </trkpt>
      <trkpt lat="42.298473" lon="-8.788927">
        <ele>209.2</ele>
        <time>1970-01-01T02:53:03.000Z</time>
      </trkpt>
      <trkpt lat="42.298475" lon="-8.788928">
        <ele>209.2</ele>
        <time>1970-01-01T02:53:04.000Z</time>
      </trkpt>
      <trkpt lat="42.298475" lon="-8.78893">
        <ele>209.2</ele>
        <time>1970-01-01T02:53:05.000Z</time>
      </trkpt>
      <trkpt lat="42.298475" lon="-8.78893">
        <ele>209.2</ele>
        <time>1970-01-01T02:53:06.000Z</time>
      </trkpt>
      <trkpt lat="42.298477" lon="-8.788928">
        <ele>209.2</ele>
        <time>1970-01-01T02:53:07.000Z</time>
      </trkpt>
      <trkpt lat="42.29847" lon="-8.788942">
        <ele>242.3</ele>
        <time>1970-01-01T02:53:08.000Z</time>
      </trkpt>
      <trkpt lat="42.29847" lon="-8.788942">
        <ele>243.2</ele>
        <time>1970-01-01T02:53:09.000Z</time>
      </trkpt>
      <trkpt lat="42.29847" lon="-8.788942">
        <ele>243.2</ele>
        <time>1970-01-01T02:53:10.000Z</time>
      </trkpt>
      <trkpt lat="42.29847" lon="-8.788942">
        <ele>243.2</ele>
        <time>1970-01-01T02:53:11.000Z</time>
      </trkpt>
      <trkpt lat="42.298472" lon="-8.788942">
        <ele>243.2</ele>
        <time>1970-01-01T02:53:12.000Z</time>
      </trkpt>
      <trkpt lat="42.298472" lon="-8.788942">
        <ele>243.2</ele>
        <time>1970-01-01T02:53:13.000Z</time>
      </trkpt>
      <trkpt lat="42.298472" lon="-8.788942">
        <ele>243.2</ele>
        <time>1970-01-01T02:53:14.000Z</time>
      </trkpt>
      <trkpt lat="42.298472" lon="-8.788942">
        <ele>243.2</ele>
        <time>1970-01-01T02:53:15.000Z</time>
      </trkpt>
      <trkpt lat="42.298472" lon="-8.788942">
        <ele>243.2</ele>
        <time>1970-01-01T02:53:16.000Z</time>
      </trkpt>
      <trkpt lat="42.298472" lon="-8.788942">
        <ele>243.2</ele>
        <time>1970-01-01T02:59:54.000Z</time>
      </trkpt>
      <trkpt lat="42.298472" lon="-8.788942">
        <ele>243.2</ele>
        <time>1970-01-01T02:59:55.000Z</time>
      </trkpt>
      <trkpt lat="42.298478" lon="-8.788933">
        <ele>243.2</ele>
        <time>1970-01-01T02:59:56.000Z</time>
      </trkpt>
      <trkpt lat="42.29849" lon="-8.788918">
        <ele>243.2</ele>
        <time>1970-01-01T02:59:57.000Z</time>
      </trkpt>
      <trkpt lat="42.298507" lon="-8.788902">
        <ele>244.3</ele>
        <time>1970-01-01T02:59:58.000Z</time>
      </trkpt>
      <trkpt lat="42.298517" lon="-8.78889">
        <ele>244.3</ele>
        <time>1970-01-01T02:59:59.000Z</time>
      </trkpt>
      <trkpt lat="42.298527" lon="-8.788882">
        <ele>244.3</ele>
        <time>1970-01-01T03:00:00.000Z</time>
      </trkpt>
      <trkpt lat="42.298535" lon="-8.788873">
        <ele>244.3</ele>
        <time>1970-01-01T03:00:01.000Z</time>
      </trkpt>
      <trkpt lat="42.298542" lon="-8.788865">
        <ele>244.3</ele>
        <time>1970-01-01T03:00:02.000Z</time>
      </trkpt>
      <trkpt lat="42.298548" lon="-8.788858">
        <ele>244.3</ele>
        <time>1970-01-01T03:00:03.000Z</time>
      </trkpt>
      <trkpt lat="42.298555" lon="-8.78885">
        <ele>244.3</ele>
        <time>1970-01-01T03:00:04.000Z</time>
      </trkpt>
      <trkpt lat="42.298562" lon="-8.788843">
        <ele>244.3</ele>
        <time>1970-01-01T03:00:05.000Z</time>
      </trkpt>
      <trkpt lat="42.298562" lon="-8.788843">
        <ele>244.3</ele>
        <time>1970-01-01T03:00:06.000Z</time>
      </trkpt>
      <trkpt lat="42.298562" lon="-8.788843">
        <ele>244.3</ele>
        <time>1970-01-01T03:00:07.000Z</time>
      </trkpt>
      <trkpt lat="42.298562" lon="-8.788843">
        <ele>244.3</ele>
        <time>1970-01-01T03:00:08.000Z</time>
      </trkpt>
      <trkpt lat="42.298562" lon="-8.788843">
        <ele>244.3</ele>
        <time>1970-01-01T03:00:09.000Z</time>
      </trkpt>
      <trkpt lat="42.298562" lon="-8.788843">
        <ele>244.3</ele>
        <time>1970-01-01T03:00:10.000Z</time>
      </trkpt>
      <trkpt lat="42.298562" lon="-8.788843">
        <ele>244.3</ele>
        <time>1970-01-01T03:00:11.000Z</time>
      </trkpt>
      <trkpt lat="42.298562" lon="-8.788843">
        <ele>244.3</ele>
        <time>1970-01-01T03:00:12.000Z</time>
      </trkpt>
      <trkpt lat="42.298562" lon="-8.788843">
        <ele>244.3</ele>
        <time>1970-01-01T03:00:13.000Z</time>
      </trkpt>
      <trkpt lat="42.298562" lon="-8.788843">
        <ele>244.3</ele>
        <time>1970-01-01T03:00:14.000Z</time>
      </trkpt>
      <trkpt lat="42.298562" lon="-8.788843">
        <ele>244.3</ele>
        <time>1970-01-01T03:00:15.000Z</time>
      </trkpt>
      <trkpt lat="42.298562" lon="-8.788843">
        <ele>245.2</ele>
        <time>1970-01-01T03:00:16.000Z</time>
      </trkpt>
      <trkpt lat="42.298562" lon="-8.788843">
        <ele>245.2</ele>
        <time>1970-01-01T03:00:17.000Z</time>
      </trkpt>
      <trkpt lat="42.298562" lon="-8.788843">
        <ele>245.2</ele>
        <time>1970-01-01T03:00:18.000Z</time>
      </trkpt>
      <trkpt lat="42.298562" lon="-8.788843">
        <ele>245.2</ele>
        <time>1970-01-01T03:00:19.000Z</time>
      </trkpt>
      <trkpt lat="42.298562" lon="-8.788843">
        <ele>245.2</ele>
        <time>1970-01-01T03:00:20.000Z</time>
      </trkpt>
      <trkpt lat="42.298562" lon="-8.788843">
        <ele>245.2</ele>
        <time>1970-01-01T03:00:21.000Z</time>
      </trkpt>
      <trkpt lat="42.298562" lon="-8.788843">
        <ele>245.2</ele>
        <time>1970-01-01T03:00:22.000Z</time>
      </trkpt>
      <trkpt lat="42.298562" lon="-8.788843">
        <ele>245.2</ele>
        <time>1970-01-01T03:00:23.000Z</time>
      </trkpt>
      <trkpt lat="42.298562" lon="-8.788843">
        <ele>245.2</ele>
        <time>1970-01-01T03:00:24.000Z</time>
      </trkpt>
      <trkpt lat="42.298562" lon="-8.788843">
        <ele>245.2</ele>
        <time>1970-01-01T03:00:25.000Z</time>
      </trkpt>
      <trkpt lat="42.298562" lon="-8.788843">
        <ele>245.2</ele>
        <time>1970-01-01T03:00:26.000Z</time>
      </trkpt>
      <trkpt lat="42.298562" lon="-8.788843">
        <ele>245.2</ele>
        <time>1970-01-01T03:00:27.000Z</time>
      </trkpt>
      <trkpt lat="42.298562" lon="-8.788843">
        <ele>245.2</ele>
        <time>1970-01-01T03:00:28.000Z</time>
      </trkpt>
      <trkpt lat="42.298562" lon="-8.788843">
        <ele>245.2</ele>
        <time>1970-01-01T03:00:29.000Z</time>
      </trkpt>
      <trkpt lat="42.298563" lon="-8.788843">
        <ele>245.2</ele>
        <time>1970-01-01T03:00:30.000Z</time>
      </trkpt>
      <trkpt lat="42.298568" lon="-8.788843">
        <ele>245.2</ele>
        <time>1970-01-01T03:00:31.000Z</time>
      </trkpt>
      <trkpt lat="42.298575" lon="-8.788842">
        <ele>245.2</ele>
        <time>1970-01-01T03:00:32.000Z</time>
      </trkpt>
      <trkpt lat="42.298578" lon="-8.788838">
        <ele>245.2</ele>
        <time>1970-01-01T03:00:33.000Z</time>
      </trkpt>
      <trkpt lat="42.298582" lon="-8.788837">
        <ele>245.2</ele>
        <time>1970-01-01T03:00:34.000Z</time>
      </trkpt>
      <trkpt lat="42.298583" lon="-8.788835">
        <ele>245.2</ele>
        <time>1970-01-01T03:00:35.000Z</time>
      </trkpt>
      <trkpt lat="42.298585" lon="-8.788833">
        <ele>245.2</ele>
        <time>1970-01-01T03:00:36.000Z</time>
      </trkpt>
      <trkpt lat="42.298585" lon="-8.788832">
        <ele>245.2</ele>
        <time>1970-01-01T03:00:37.000Z</time>
      </trkpt>
      <trkpt lat="42.298585" lon="-8.788832">
        <ele>245.2</ele>
        <time>1970-01-01T03:00:38.000Z</time>
      </trkpt>
      <trkpt lat="42.298585" lon="-8.788832">
        <ele>245.2</ele>
        <time>1970-01-01T03:00:39.000Z</time>
      </trkpt>
      <trkpt lat="42.298585" lon="-8.788832">
        <ele>245.2</ele>
        <time>1970-01-01T03:00:40.000Z</time>
      </trkpt>
      <trkpt lat="42.298587" lon="-8.788832">
        <ele>245.2</ele>
        <time>1970-01-01T03:00:41.000Z</time>
      </trkpt>
      <trkpt lat="42.298587" lon="-8.788832">
        <ele>245.2</ele>
        <time>1970-01-01T03:00:42.000Z</time>
      </trkpt>
      <trkpt lat="42.298587" lon="-8.788832">
        <ele>245.2</ele>
        <time>1970-01-01T03:00:43.000Z</time>
      </trkpt>
      <trkpt lat="42.298587" lon="-8.78883">
        <ele>245.2</ele>
        <time>1970-01-01T03:00:44.000Z</time>
      </trkpt>
      <trkpt lat="42.298588" lon="-8.78883">
        <ele>245.2</ele>
        <time>1970-01-01T03:00:45.000Z</time>
      </trkpt>
      <trkpt lat="42.298588" lon="-8.78883">
        <ele>245.2</ele>
        <time>1970-01-01T03:00:46.000Z</time>
      </trkpt>
      <trkpt lat="42.298588" lon="-8.78883">
        <ele>245.2</ele>
        <time>1970-01-01T03:00:47.000Z</time>
      </trkpt>
      <trkpt lat="42.298588" lon="-8.78883">
        <ele>245.2</ele>
        <time>1970-01-01T03:00:48.000Z</time>
      </trkpt>
      <trkpt lat="42.298583" lon="-8.7888">
        <ele>242.3</ele>
        <time>1970-01-01T03:00:49.000Z</time>
      </trkpt>
      <trkpt lat="42.298588" lon="-8.788798">
        <ele>242.3</ele>
        <time>1970-01-01T03:00:50.000Z</time>
      </trkpt>
      <trkpt lat="42.298593" lon="-8.788797">
        <ele>242.3</ele>
        <time>1970-01-01T03:00:51.000Z</time>
      </trkpt>
      <trkpt lat="42.298598" lon="-8.788797">
        <ele>241.3</ele>
        <time>1970-01-01T03:00:52.000Z</time>
      </trkpt>
      <trkpt lat="42.298603" lon="-8.788798">
        <ele>241.3</ele>
        <time>1970-01-01T03:00:53.000Z</time>
      </trkpt>
      <trkpt lat="42.298607" lon="-8.788803">
        <ele>241.3</ele>
        <time>1970-01-01T03:00:54.000Z</time>
      </trkpt>
      <trkpt lat="42.298612" lon="-8.788805">
        <ele>241.3</ele>
        <time>1970-01-01T03:00:55.000Z</time>
      </trkpt>
      <trkpt lat="42.298617" lon="-8.788808">
        <ele>240.3</ele>
        <time>1970-01-01T03:00:56.000Z</time>
      </trkpt>
      <trkpt lat="42.298623" lon="-8.78881">
        <ele>240.3</ele>
        <time>1970-01-01T03:00:57.000Z</time>
      </trkpt>
      <trkpt lat="42.29863" lon="-8.78881">
        <ele>240.3</ele>
        <time>1970-01-01T03:00:58.000Z</time>
      </trkpt>
      <trkpt lat="42.298635" lon="-8.788808">
        <ele>240.3</ele>
        <time>1970-01-01T03:01:42.000Z</time>
      </trkpt>
      <trkpt lat="42.298638" lon="-8.788808">
        <ele>239.3</ele>
        <time>1970-01-01T03:01:43.000Z</time>
      </trkpt>
      <trkpt lat="42.298642" lon="-8.788808">
        <ele>239.3</ele>
        <time>1970-01-01T03:01:44.000Z</time>
      </trkpt>
      <trkpt lat="42.298645" lon="-8.788808">
        <ele>239.3</ele>
        <time>1970-01-01T03:01:45.000Z</time>
      </trkpt>
      <trkpt lat="42.298647" lon="-8.788808">
        <ele>239.3</ele>
        <time>1970-01-01T03:01:46.000Z</time>
      </trkpt>
      <trkpt lat="42.298648" lon="-8.78881">
        <ele>238.2</ele>
        <time>1970-01-01T03:01:47.000Z</time>
      </trkpt>
      <trkpt lat="42.29865" lon="-8.788812">
        <ele>238.2</ele>
        <time>1970-01-01T03:01:48.000Z</time>
      </trkpt>
      <trkpt lat="42.29865" lon="-8.788817">
        <ele>238.2</ele>
        <time>1970-01-01T03:01:49.000Z</time>
      </trkpt>
      <trkpt lat="42.29865" lon="-8.788822">
        <ele>238.2</ele>
        <time>1970-01-01T03:01:50.000Z</time>
      </trkpt>
      <trkpt lat="42.298652" lon="-8.788825">
        <ele>237.3</ele>
        <time>1970-01-01T03:01:51.000Z</time>
      </trkpt>
      <trkpt lat="42.298653" lon="-8.78883">
        <ele>237.3</ele>
        <time>1970-01-01T03:01:52.000Z</time>
      </trkpt>
      <trkpt lat="42.298655" lon="-8.788835">
        <ele>237.3</ele>
        <time>1970-01-01T03:01:53.000Z</time>
      </trkpt>
      <trkpt lat="42.298658" lon="-8.788838">
        <ele>237.3</ele>
        <time>1970-01-01T03:01:54.000Z</time>
      </trkpt>
      <trkpt lat="42.298662" lon="-8.78884">
        <ele>237.3</ele>
        <time>1970-01-01T03:01:55.000Z</time>
      </trkpt>
      <trkpt lat="42.298663" lon="-8.78884">
        <ele>237.3</ele>
        <time>1970-01-01T03:01:56.000Z</time>
      </trkpt>
      <trkpt lat="42.298667" lon="-8.78884">
        <ele>236.2</ele>
        <time>1970-01-01T03:01:57.000Z</time>
      </trkpt>
      <trkpt lat="42.298668" lon="-8.78884">
        <ele>236.2</ele>
        <time>1970-01-01T03:01:58.000Z</time>
      </trkpt>
      <trkpt lat="42.29867" lon="-8.78884">
        <ele>236.2</ele>
        <time>1970-01-01T03:01:59.000Z</time>
      </trkpt>
      <trkpt lat="42.298672" lon="-8.788842">
        <ele>236.2</ele>
        <time>1970-01-01T03:02:00.000Z</time>
      </trkpt>
      <trkpt lat="42.298672" lon="-8.788843">
        <ele>235.3</ele>
        <time>1970-01-01T03:02:01.000Z</time>
      </trkpt>
      <trkpt lat="42.298672" lon="-8.788845">
        <ele>235.3</ele>
        <time>1970-01-01T03:02:02.000Z</time>
      </trkpt>
      <trkpt lat="42.298672" lon="-8.788845">
        <ele>235.3</ele>
        <time>1970-01-01T03:02:03.000Z</time>
      </trkpt>
      <trkpt lat="42.298672" lon="-8.788845">
        <ele>235.3</ele>
        <time>1970-01-01T03:02:04.000Z</time>
      </trkpt>
      <trkpt lat="42.298672" lon="-8.788845">
        <ele>235.3</ele>
        <time>1970-01-01T03:02:05.000Z</time>
      </trkpt>
      <trkpt lat="42.298672" lon="-8.788845">
        <ele>235.3</ele>
        <time>1970-01-01T03:02:06.000Z</time>
      </trkpt>
      <trkpt lat="42.298672" lon="-8.788845">
        <ele>235.3</ele>
        <time>1970-01-01T03:02:07.000Z</time>
      </trkpt>
      <trkpt lat="42.298672" lon="-8.788845">
        <ele>235.3</ele>
        <time>1970-01-01T03:02:08.000Z</time>
      </trkpt>
      <trkpt lat="42.298672" lon="-8.788845">
        <ele>235.3</ele>
        <time>1970-01-01T03:02:09.000Z</time>
      </trkpt>
      <trkpt lat="42.298672" lon="-8.788845">
        <ele>235.3</ele>
        <time>1970-01-01T03:02:10.000Z</time>
      </trkpt>
      <trkpt lat="42.298672" lon="-8.788845">
        <ele>235.3</ele>
        <time>1970-01-01T03:02:11.000Z</time>
      </trkpt>
      <trkpt lat="42.298672" lon="-8.788845">
        <ele>235.3</ele>
        <time>1970-01-01T03:02:12.000Z</time>
      </trkpt>
      <trkpt lat="42.298672" lon="-8.788845">
        <ele>235.3</ele>
        <time>1970-01-01T03:02:13.000Z</time>
      </trkpt>
      <trkpt lat="42.298672" lon="-8.788845">
        <ele>235.3</ele>
        <time>1970-01-01T03:02:14.000Z</time>
      </trkpt>
      <trkpt lat="42.298672" lon="-8.788845">
        <ele>234.2</ele>
        <time>1970-01-01T03:02:15.000Z</time>
      </trkpt>
      <trkpt lat="42.298672" lon="-8.788845">
        <ele>234.2</ele>
        <time>1970-01-01T03:02:16.000Z</time>
      </trkpt>
      <trkpt lat="42.298672" lon="-8.788845">
        <ele>234.2</ele>
        <time>1970-01-01T03:02:17.000Z</time>
      </trkpt>
      <trkpt lat="42.298672" lon="-8.788845">
        <ele>234.2</ele>
        <time>1970-01-01T03:02:18.000Z</time>
      </trkpt>
      <trkpt lat="42.298673" lon="-8.788845">
        <ele>234.2</ele>
        <time>1970-01-01T03:02:19.000Z</time>
      </trkpt>
      <trkpt lat="42.298673" lon="-8.788843">
        <ele>234.2</ele>
        <time>1970-01-01T03:02:20.000Z</time>
      </trkpt>
      <trkpt lat="42.298673" lon="-8.788842">
        <ele>234.2</ele>
        <time>1970-01-01T03:02:21.000Z</time>
      </trkpt>
      <trkpt lat="42.298673" lon="-8.788842">
        <ele>234.2</ele>
        <time>1970-01-01T03:02:22.000Z</time>
      </trkpt>
      <trkpt lat="42.298675" lon="-8.788842">
        <ele>234.2</ele>
        <time>1970-01-01T03:02:23.000Z</time>
      </trkpt>
      <trkpt lat="42.298677" lon="-8.78884">
        <ele>234.2</ele>
        <time>1970-01-01T03:02:24.000Z</time>
      </trkpt>
      <trkpt lat="42.29868" lon="-8.78884">
        <ele>234.2</ele>
        <time>1970-01-01T03:02:25.000Z</time>
      </trkpt>
      <trkpt lat="42.298682" lon="-8.78884">
        <ele>234.2</ele>
        <time>1970-01-01T03:02:26.000Z</time>
      </trkpt>
      <trkpt lat="42.298685" lon="-8.78884">
        <ele>231.2</ele>
        <time>1970-01-01T03:02:27.000Z</time>
      </trkpt>
      <trkpt lat="42.29869" lon="-8.78884">
        <ele>231.2</ele>
        <time>1970-01-01T03:02:28.000Z</time>
      </trkpt>
      <trkpt lat="42.298693" lon="-8.788838">
        <ele>230.3</ele>
        <time>1970-01-01T03:02:29.000Z</time>
      </trkpt>
      <trkpt lat="42.298697" lon="-8.788835">
        <ele>230.3</ele>
        <time>1970-01-01T03:02:30.000Z</time>
      </trkpt>
      <trkpt lat="42.2987" lon="-8.788832">
        <ele>229.2</ele>
        <time>1970-01-01T03:02:31.000Z</time>
      </trkpt>
      <trkpt lat="42.298703" lon="-8.788828">
        <ele>229.2</ele>
        <time>1970-01-01T03:02:32.000Z</time>
      </trkpt>
      <trkpt lat="42.29871" lon="-8.788827">
        <ele>229.2</ele>
        <time>1970-01-01T03:02:33.000Z</time>
      </trkpt>
      <trkpt lat="42.298722" lon="-8.788827">
        <ele>229.2</ele>
        <time>1970-01-01T03:02:34.000Z</time>
      </trkpt>
      <trkpt lat="42.298735" lon="-8.788827">
        <ele>228.3</ele>
        <time>1970-01-01T03:02:35.000Z</time>
      </trkpt>
      <trkpt lat="42.298747" lon="-8.788827">
        <ele>228.3</ele>
        <time>1970-01-01T03:02:36.000Z</time>
      </trkpt>
      <trkpt lat="42.298758" lon="-8.788825">
        <ele>228.3</ele>
        <time>1970-01-01T03:02:37.000Z</time>
      </trkpt>
      <trkpt lat="42.298772" lon="-8.788828">
        <ele>228.3</ele>
        <time>1970-01-01T03:02:38.000Z</time>
      </trkpt>
      <trkpt lat="42.298787" lon="-8.788832">
        <ele>228.3</ele>
        <time>1970-01-01T03:02:39.000Z</time>
      </trkpt>
      <trkpt lat="42.298798" lon="-8.788833">
        <ele>228.3</ele>
        <time>1970-01-01T03:02:40.000Z</time>
      </trkpt>
      <trkpt lat="42.298812" lon="-8.788837">
        <ele>227.2</ele>
        <time>1970-01-01T03:02:41.000Z</time>
      </trkpt>
      <trkpt lat="42.298827" lon="-8.788837">
        <ele>227.2</ele>
        <time>1970-01-01T03:02:42.000Z</time>
      </trkpt>
      <trkpt lat="42.298835" lon="-8.788837">
        <ele>227.2</ele>
        <time>1970-01-01T03:02:43.000Z</time>
      </trkpt>
      <trkpt lat="42.29884" lon="-8.788838">
        <ele>227.2</ele>
        <time>1970-01-01T03:02:44.000Z</time>
      </trkpt>
      <trkpt lat="42.298845" lon="-8.788842">
        <ele>226.3</ele>
        <time>1970-01-01T03:02:45.000Z</time>
      </trkpt>
      <trkpt lat="42.298845" lon="-8.788848">
        <ele>226.3</ele>
        <time>1970-01-01T03:02:46.000Z</time>
      </trkpt>
      <trkpt lat="42.298845" lon="-8.788852">
        <ele>226.3</ele>
        <time>1970-01-01T03:02:47.000Z</time>
      </trkpt>
      <trkpt lat="42.298847" lon="-8.78886">
        <ele>226.3</ele>
        <time>1970-01-01T03:02:48.000Z</time>
      </trkpt>
      <trkpt lat="42.298845" lon="-8.78887">
        <ele>226.3</ele>
        <time>1970-01-01T03:02:49.000Z</time>
      </trkpt>
      <trkpt lat="42.298843" lon="-8.788883">
        <ele>226.3</ele>
        <time>1970-01-01T03:02:50.000Z</time>
      </trkpt>
      <trkpt lat="42.298842" lon="-8.788898">
        <ele>226.3</ele>
        <time>1970-01-01T03:02:51.000Z</time>
      </trkpt>
      <trkpt lat="42.298838" lon="-8.788913">
        <ele>226.3</ele>
        <time>1970-01-01T03:02:52.000Z</time>
      </trkpt>
      <trkpt lat="42.298835" lon="-8.788932">
        <ele>226.3</ele>
        <time>1970-01-01T03:02:53.000Z</time>
      </trkpt>
      <trkpt lat="42.298835" lon="-8.788947">
        <ele>226.3</ele>
        <time>1970-01-01T03:02:54.000Z</time>
      </trkpt>
      <trkpt lat="42.298838" lon="-8.788957">
        <ele>225.3</ele>
        <time>1970-01-01T03:02:55.000Z</time>
      </trkpt>
      <trkpt lat="42.298847" lon="-8.788963">
        <ele>225.3</ele>
        <time>1970-01-01T03:02:56.000Z</time>
      </trkpt>
      <trkpt lat="42.298857" lon="-8.788968">
        <ele>225.3</ele>
        <time>1970-01-01T03:02:57.000Z</time>
      </trkpt>
      <trkpt lat="42.298865" lon="-8.788973">
        <ele>225.3</ele>
        <time>1970-01-01T03:02:58.000Z</time>
      </trkpt>
      <trkpt lat="42.298868" lon="-8.788975">
        <ele>225.3</ele>
        <time>1970-01-01T03:02:59.000Z</time>
      </trkpt>
      <trkpt lat="42.298873" lon="-8.788973">
        <ele>225.3</ele>
        <time>1970-01-01T03:03:00.000Z</time>
      </trkpt>
      <trkpt lat="42.29888" lon="-8.788968">
        <ele>225.3</ele>
        <time>1970-01-01T03:03:01.000Z</time>
      </trkpt>
      <trkpt lat="42.298885" lon="-8.788967">
        <ele>225.3</ele>
        <time>1970-01-01T03:03:02.000Z</time>
      </trkpt>
      <trkpt lat="42.298888" lon="-8.788968">
        <ele>224.3</ele>
        <time>1970-01-01T03:03:03.000Z</time>
      </trkpt>
      <trkpt lat="42.29889" lon="-8.788968">
        <ele>224.3</ele>
        <time>1970-01-01T03:03:04.000Z</time>
      </trkpt>
      <trkpt lat="42.29889" lon="-8.78897">
        <ele>224.3</ele>
        <time>1970-01-01T03:03:05.000Z</time>
      </trkpt>
      <trkpt lat="42.298892" lon="-8.78897">
        <ele>224.3</ele>
        <time>1970-01-01T03:03:06.000Z</time>
      </trkpt>
      <trkpt lat="42.298892" lon="-8.78897">
        <ele>224.3</ele>
        <time>1970-01-01T03:03:07.000Z</time>
      </trkpt>
      <trkpt lat="42.298893" lon="-8.78897">
        <ele>224.3</ele>
        <time>1970-01-01T03:03:08.000Z</time>
      </trkpt>
      <trkpt lat="42.298895" lon="-8.78897">
        <ele>224.3</ele>
        <time>1970-01-01T03:03:09.000Z</time>
      </trkpt>
      <trkpt lat="42.298895" lon="-8.788972">
        <ele>224.3</ele>
        <time>1970-01-01T03:03:10.000Z</time>
      </trkpt>
      <trkpt lat="42.298897" lon="-8.788972">
        <ele>224.3</ele>
        <time>1970-01-01T03:03:11.000Z</time>
      </trkpt>
      <trkpt lat="42.298898" lon="-8.788972">
        <ele>224.3</ele>
        <time>1970-01-01T03:03:12.000Z</time>
      </trkpt>
      <trkpt lat="42.2989" lon="-8.788972">
        <ele>224.3</ele>
        <time>1970-01-01T03:03:13.000Z</time>
      </trkpt>
      <trkpt lat="42.298905" lon="-8.788972">
        <ele>224.3</ele>
        <time>1970-01-01T03:03:14.000Z</time>
      </trkpt>
      <trkpt lat="42.298907" lon="-8.788968">
        <ele>224.3</ele>
        <time>1970-01-01T03:03:15.000Z</time>
      </trkpt>
      <trkpt lat="42.298907" lon="-8.788967">
        <ele>224.3</ele>
        <time>1970-01-01T03:03:16.000Z</time>
      </trkpt>
      <trkpt lat="42.298908" lon="-8.788967">
        <ele>224.3</ele>
        <time>1970-01-01T03:03:17.000Z</time>
      </trkpt>
      <trkpt lat="42.298908" lon="-8.788967">
        <ele>224.3</ele>
        <time>1970-01-01T03:03:18.000Z</time>
      </trkpt>
      <trkpt lat="42.298908" lon="-8.788967">
        <ele>224.3</ele>
        <time>1970-01-01T03:03:19.000Z</time>
      </trkpt>
      <trkpt lat="42.298908" lon="-8.788967">
        <ele>224.3</ele>
        <time>1970-01-01T03:03:20.000Z</time>
      </trkpt>
      <trkpt lat="42.298908" lon="-8.788967">
        <ele>224.3</ele>
        <time>1970-01-01T03:03:21.000Z</time>
      </trkpt>
      <trkpt lat="42.298908" lon="-8.788967">
        <ele>224.3</ele>
        <time>1970-01-01T03:03:22.000Z</time>
      </trkpt>
      <trkpt lat="42.298908" lon="-8.788967">
        <ele>224.3</ele>
        <time>1970-01-01T03:03:23.000Z</time>
      </trkpt>
      <trkpt lat="42.298908" lon="-8.788967">
        <ele>224.3</ele>
        <time>1970-01-01T03:03:24.000Z</time>
      </trkpt>
      <trkpt lat="42.298908" lon="-8.788967">
        <ele>224.3</ele>
        <time>1970-01-01T03:03:25.000Z</time>
      </trkpt>
      <trkpt lat="42.298912" lon="-8.788965">
        <ele>224.3</ele>
        <time>1970-01-01T03:03:26.000Z</time>
      </trkpt>
      <trkpt lat="42.298922" lon="-8.788957">
        <ele>224.3</ele>
        <time>1970-01-01T03:03:27.000Z</time>
      </trkpt>
      <trkpt lat="42.298932" lon="-8.78895">
        <ele>224.3</ele>
        <time>1970-01-01T03:03:28.000Z</time>
      </trkpt>
      <trkpt lat="42.298938" lon="-8.788948">
        <ele>224.3</ele>
        <time>1970-01-01T03:03:29.000Z</time>
      </trkpt>
      <trkpt lat="42.298943" lon="-8.788945">
        <ele>224.3</ele>
        <time>1970-01-01T03:03:30.000Z</time>
      </trkpt>
      <trkpt lat="42.298952" lon="-8.78894">
        <ele>225.3</ele>
        <time>1970-01-01T03:03:31.000Z</time>
      </trkpt>
      <trkpt lat="42.29896" lon="-8.788935">
        <ele>225.3</ele>
        <time>1970-01-01T03:03:32.000Z</time>
      </trkpt>
      <trkpt lat="42.298968" lon="-8.788927">
        <ele>225.3</ele>
        <time>1970-01-01T03:03:33.000Z</time>
      </trkpt>
      <trkpt lat="42.298973" lon="-8.78892">
        <ele>225.3</ele>
        <time>1970-01-01T03:03:34.000Z</time>
      </trkpt>
      <trkpt lat="42.29898" lon="-8.788917">
        <ele>225.3</ele>
        <time>1970-01-01T03:03:35.000Z</time>
      </trkpt>
      <trkpt lat="42.298983" lon="-8.788917">
        <ele>225.3</ele>
        <time>1970-01-01T03:03:36.000Z</time>
      </trkpt>
      <trkpt lat="42.29899" lon="-8.788918">
        <ele>225.3</ele>
        <time>1970-01-01T03:03:37.000Z</time>
      </trkpt>
      <trkpt lat="42.298995" lon="-8.78892">
        <ele>225.3</ele>
        <time>1970-01-01T03:03:38.000Z</time>
      </trkpt>
      <trkpt lat="42.299003" lon="-8.788922">
        <ele>226.3</ele>
        <time>1970-01-01T03:03:39.000Z</time>
      </trkpt>
      <trkpt lat="42.29901" lon="-8.788927">
        <ele>226.3</ele>
        <time>1970-01-01T03:03:40.000Z</time>
      </trkpt>
      <trkpt lat="42.299017" lon="-8.788928">
        <ele>226.3</ele>
        <time>1970-01-01T03:03:41.000Z</time>
      </trkpt>
      <trkpt lat="42.299023" lon="-8.788932">
        <ele>226.3</ele>
        <time>1970-01-01T03:03:42.000Z</time>
      </trkpt>
      <trkpt lat="42.299032" lon="-8.78893">
        <ele>226.3</ele>
        <time>1970-01-01T03:03:43.000Z</time>
      </trkpt>
      <trkpt lat="42.299038" lon="-8.788932">
        <ele>226.3</ele>
        <time>1970-01-01T03:03:44.000Z</time>
      </trkpt>
      <trkpt lat="42.299047" lon="-8.788932">
        <ele>226.3</ele>
        <time>1970-01-01T03:03:45.000Z</time>
      </trkpt>
      <trkpt lat="42.299055" lon="-8.788937">
        <ele>226.3</ele>
        <time>1970-01-01T03:03:46.000Z</time>
      </trkpt>
      <trkpt lat="42.299062" lon="-8.788942">
        <ele>226.3</ele>
        <time>1970-01-01T03:03:47.000Z</time>
      </trkpt>
      <trkpt lat="42.299067" lon="-8.788945">
        <ele>226.3</ele>
        <time>1970-01-01T03:03:48.000Z</time>
      </trkpt>
      <trkpt lat="42.299068" lon="-8.788947">
        <ele>226.3</ele>
        <time>1970-01-01T03:03:49.000Z</time>
      </trkpt>
      <trkpt lat="42.299072" lon="-8.788947">
        <ele>226.3</ele>
        <time>1970-01-01T03:03:50.000Z</time>
      </trkpt>
      <trkpt lat="42.299073" lon="-8.78895">
        <ele>226.3</ele>
        <time>1970-01-01T03:03:51.000Z</time>
      </trkpt>
      <trkpt lat="42.299077" lon="-8.788953">
        <ele>226.3</ele>
        <time>1970-01-01T03:03:52.000Z</time>
      </trkpt>
      <trkpt lat="42.29908" lon="-8.788955">
        <ele>226.3</ele>
        <time>1970-01-01T03:03:53.000Z</time>
      </trkpt>
      <trkpt lat="42.299082" lon="-8.788958">
        <ele>226.3</ele>
        <time>1970-01-01T03:03:54.000Z</time>
      </trkpt>
      <trkpt lat="42.299083" lon="-8.788958">
        <ele>225.3</ele>
        <time>1970-01-01T03:03:55.000Z</time>
      </trkpt>
      <trkpt lat="42.299085" lon="-8.788958">
        <ele>225.3</ele>
        <time>1970-01-01T03:03:56.000Z</time>
      </trkpt>
      <trkpt lat="42.299087" lon="-8.788958">
        <ele>225.3</ele>
        <time>1970-01-01T03:03:57.000Z</time>
      </trkpt>
      <trkpt lat="42.299088" lon="-8.788958">
        <ele>225.3</ele>
        <time>1970-01-01T03:03:58.000Z</time>
      </trkpt>
      <trkpt lat="42.29909" lon="-8.788958">
        <ele>225.3</ele>
        <time>1970-01-01T03:03:59.000Z</time>
      </trkpt>
      <trkpt lat="42.299097" lon="-8.788955">
        <ele>225.3</ele>
        <time>1970-01-01T03:04:00.000Z</time>
      </trkpt>
      <trkpt lat="42.2991" lon="-8.788955">
        <ele>225.3</ele>
        <time>1970-01-01T03:04:01.000Z</time>
      </trkpt>
      <trkpt lat="42.299103" lon="-8.788955">
        <ele>225.3</ele>
        <time>1970-01-01T03:04:02.000Z</time>
      </trkpt>
      <trkpt lat="42.299108" lon="-8.788957">
        <ele>225.3</ele>
        <time>1970-01-01T03:04:03.000Z</time>
      </trkpt>
      <trkpt lat="42.299115" lon="-8.788955">
        <ele>225.3</ele>
        <time>1970-01-01T03:04:04.000Z</time>
      </trkpt>
      <trkpt lat="42.29912" lon="-8.788957">
        <ele>225.3</ele>
        <time>1970-01-01T03:04:05.000Z</time>
      </trkpt>
      <trkpt lat="42.299123" lon="-8.788958">
        <ele>225.3</ele>
        <time>1970-01-01T03:04:06.000Z</time>
      </trkpt>
      <trkpt lat="42.299127" lon="-8.788962">
        <ele>224.3</ele>
        <time>1970-01-01T03:04:07.000Z</time>
      </trkpt>
      <trkpt lat="42.29913" lon="-8.788965">
        <ele>224.3</ele>
        <time>1970-01-01T03:04:08.000Z</time>
      </trkpt>
      <trkpt lat="42.299137" lon="-8.788968">
        <ele>224.3</ele>
        <time>1970-01-01T03:04:09.000Z</time>
      </trkpt>
      <trkpt lat="42.299147" lon="-8.788973">
        <ele>224.3</ele>
        <time>1970-01-01T03:04:10.000Z</time>
      </trkpt>
      <trkpt lat="42.299153" lon="-8.788973">
        <ele>224.3</ele>
        <time>1970-01-01T03:04:11.000Z</time>
      </trkpt>
      <trkpt lat="42.299158" lon="-8.78897">
        <ele>224.3</ele>
        <time>1970-01-01T03:04:12.000Z</time>
      </trkpt>
      <trkpt lat="42.299163" lon="-8.788963">
        <ele>223.3</ele>
        <time>1970-01-01T03:04:13.000Z</time>
      </trkpt>
      <trkpt lat="42.299167" lon="-8.78896">
        <ele>223.3</ele>
        <time>1970-01-01T03:04:14.000Z</time>
      </trkpt>
      <trkpt lat="42.29917" lon="-8.788952">
        <ele>223.3</ele>
        <time>1970-01-01T03:04:15.000Z</time>
      </trkpt>
      <trkpt lat="42.299175" lon="-8.788947">
        <ele>223.3</ele>
        <time>1970-01-01T03:04:16.000Z</time>
      </trkpt>
      <trkpt lat="42.299178" lon="-8.788943">
        <ele>223.3</ele>
        <time>1970-01-01T03:04:17.000Z</time>
      </trkpt>
      <trkpt lat="42.299183" lon="-8.788935">
        <ele>223.3</ele>
        <time>1970-01-01T03:04:18.000Z</time>
      </trkpt>
      <trkpt lat="42.29919" lon="-8.78893">
        <ele>223.3</ele>
        <time>1970-01-01T03:04:19.000Z</time>
      </trkpt>
      <trkpt lat="42.299195" lon="-8.788925">
        <ele>223.3</ele>
        <time>1970-01-01T03:04:20.000Z</time>
      </trkpt>
      <trkpt lat="42.2992" lon="-8.788923">
        <ele>223.3</ele>
        <time>1970-01-01T03:04:21.000Z</time>
      </trkpt>
      <trkpt lat="42.299205" lon="-8.788923">
        <ele>223.3</ele>
        <time>1970-01-01T03:04:22.000Z</time>
      </trkpt>
      <trkpt lat="42.299215" lon="-8.78892">
        <ele>223.3</ele>
        <time>1970-01-01T03:04:23.000Z</time>
      </trkpt>
      <trkpt lat="42.29922" lon="-8.788918">
        <ele>223.3</ele>
        <time>1970-01-01T03:04:24.000Z</time>
      </trkpt>
      <trkpt lat="42.299223" lon="-8.788917">
        <ele>220.2</ele>
        <time>1970-01-01T03:04:25.000Z</time>
      </trkpt>
      <trkpt lat="42.29923" lon="-8.78892">
        <ele>220.2</ele>
        <time>1970-01-01T03:04:26.000Z</time>
      </trkpt>
      <trkpt lat="42.299237" lon="-8.78892">
        <ele>220.2</ele>
        <time>1970-01-01T03:04:27.000Z</time>
      </trkpt>
      <trkpt lat="42.29924" lon="-8.78892">
        <ele>220.2</ele>
        <time>1970-01-01T03:04:28.000Z</time>
      </trkpt>
      <trkpt lat="42.299243" lon="-8.788922">
        <ele>220.2</ele>
        <time>1970-01-01T03:04:29.000Z</time>
      </trkpt>
      <trkpt lat="42.29925" lon="-8.788923">
        <ele>220.2</ele>
        <time>1970-01-01T03:04:30.000Z</time>
      </trkpt>
      <trkpt lat="42.299253" lon="-8.788923">
        <ele>220.2</ele>
        <time>1970-01-01T03:04:31.000Z</time>
      </trkpt>
      <trkpt lat="42.299257" lon="-8.788922">
        <ele>220.2</ele>
        <time>1970-01-01T03:04:32.000Z</time>
      </trkpt>
      <trkpt lat="42.299257" lon="-8.788922">
        <ele>220.2</ele>
        <time>1970-01-01T03:04:33.000Z</time>
      </trkpt>
      <trkpt lat="42.299255" lon="-8.788922">
        <ele>220.2</ele>
        <time>1970-01-01T03:04:34.000Z</time>
      </trkpt>
      <trkpt lat="42.299255" lon="-8.788922">
        <ele>220.2</ele>
        <time>1970-01-01T03:04:35.000Z</time>
      </trkpt>
      <trkpt lat="42.299255" lon="-8.788922">
        <ele>220.2</ele>
        <time>1970-01-01T03:04:36.000Z</time>
      </trkpt>
      <trkpt lat="42.299258" lon="-8.788922">
        <ele>219.3</ele>
        <time>1970-01-01T03:04:37.000Z</time>
      </trkpt>
      <trkpt lat="42.299267" lon="-8.788923">
        <ele>219.3</ele>
        <time>1970-01-01T03:04:38.000Z</time>
      </trkpt>
      <trkpt lat="42.299273" lon="-8.788923">
        <ele>219.3</ele>
        <time>1970-01-01T03:04:39.000Z</time>
      </trkpt>
      <trkpt lat="42.29928" lon="-8.788923">
        <ele>219.3</ele>
        <time>1970-01-01T03:04:40.000Z</time>
      </trkpt>
      <trkpt lat="42.299288" lon="-8.788922">
        <ele>218.2</ele>
        <time>1970-01-01T03:04:41.000Z</time>
      </trkpt>
      <trkpt lat="42.299297" lon="-8.788918">
        <ele>218.2</ele>
        <time>1970-01-01T03:04:42.000Z</time>
      </trkpt>
      <trkpt lat="42.299307" lon="-8.788913">
        <ele>218.2</ele>
        <time>1970-01-01T03:04:43.000Z</time>
      </trkpt>
      <trkpt lat="42.299312" lon="-8.788907">
        <ele>218.2</ele>
        <time>1970-01-01T03:04:44.000Z</time>
      </trkpt>
      <trkpt lat="42.299313" lon="-8.788905">
        <ele>217.3</ele>
        <time>1970-01-01T03:04:45.000Z</time>
      </trkpt>
      <trkpt lat="42.299315" lon="-8.788903">
        <ele>217.3</ele>
        <time>1970-01-01T03:04:46.000Z</time>
      </trkpt>
      <trkpt lat="42.299315" lon="-8.788902">
        <ele>217.3</ele>
        <time>1970-01-01T03:04:47.000Z</time>
      </trkpt>
      <trkpt lat="42.299315" lon="-8.788902">
        <ele>217.3</ele>
        <time>1970-01-01T03:04:48.000Z</time>
      </trkpt>
      <trkpt lat="42.299315" lon="-8.788902">
        <ele>217.3</ele>
        <time>1970-01-01T03:04:49.000Z</time>
      </trkpt>
      <trkpt lat="42.299315" lon="-8.7889">
        <ele>217.3</ele>
        <time>1970-01-01T03:04:50.000Z</time>
      </trkpt>
      <trkpt lat="42.299317" lon="-8.788898">
        <ele>217.3</ele>
        <time>1970-01-01T03:04:51.000Z</time>
      </trkpt>
      <trkpt lat="42.299318" lon="-8.788897">
        <ele>217.3</ele>
        <time>1970-01-01T03:04:52.000Z</time>
      </trkpt>
      <trkpt lat="42.29932" lon="-8.788892">
        <ele>217.3</ele>
        <time>1970-01-01T03:04:53.000Z</time>
      </trkpt>
      <trkpt lat="42.299322" lon="-8.788887">
        <ele>217.3</ele>
        <time>1970-01-01T03:04:54.000Z</time>
      </trkpt>
      <trkpt lat="42.299328" lon="-8.788883">
        <ele>217.3</ele>
        <time>1970-01-01T03:04:55.000Z</time>
      </trkpt>
      <trkpt lat="42.29933" lon="-8.78888">
        <ele>217.3</ele>
        <time>1970-01-01T03:04:56.000Z</time>
      </trkpt>
      <trkpt lat="42.299332" lon="-8.788878">
        <ele>216.3</ele>
        <time>1970-01-01T03:04:57.000Z</time>
      </trkpt>
      <trkpt lat="42.299333" lon="-8.788877">
        <ele>216.3</ele>
        <time>1970-01-01T03:04:58.000Z</time>
      </trkpt>
      <trkpt lat="42.29934" lon="-8.788873">
        <ele>216.3</ele>
        <time>1970-01-01T03:04:59.000Z</time>
      </trkpt>
      <trkpt lat="42.299343" lon="-8.788873">
        <ele>216.3</ele>
        <time>1970-01-01T03:05:00.000Z</time>
      </trkpt>
      <trkpt lat="42.299347" lon="-8.788873">
        <ele>215.3</ele>
        <time>1970-01-01T03:05:01.000Z</time>
      </trkpt>
      <trkpt lat="42.29935" lon="-8.788873">
        <ele>215.3</ele>
        <time>1970-01-01T03:05:02.000Z</time>
      </trkpt>
      <trkpt lat="42.299355" lon="-8.788873">
        <ele>215.3</ele>
        <time>1970-01-01T03:05:03.000Z</time>
      </trkpt>
      <trkpt lat="42.299358" lon="-8.78887">
        <ele>215.3</ele>
        <time>1970-01-01T03:05:04.000Z</time>
      </trkpt>
      <trkpt lat="42.299362" lon="-8.788868">
        <ele>215.3</ele>
        <time>1970-01-01T03:05:05.000Z</time>
      </trkpt>
      <trkpt lat="42.299367" lon="-8.788867">
        <ele>215.3</ele>
        <time>1970-01-01T03:05:06.000Z</time>
      </trkpt>
      <trkpt lat="42.29937" lon="-8.788865">
        <ele>215.3</ele>
        <time>1970-01-01T03:05:07.000Z</time>
      </trkpt>
      <trkpt lat="42.299373" lon="-8.788862">
        <ele>215.3</ele>
        <time>1970-01-01T03:05:08.000Z</time>
      </trkpt>
      <trkpt lat="42.299373" lon="-8.78886">
        <ele>214.3</ele>
        <time>1970-01-01T03:05:09.000Z</time>
      </trkpt>
      <trkpt lat="42.299373" lon="-8.788858">
        <ele>214.3</ele>
        <time>1970-01-01T03:05:10.000Z</time>
      </trkpt>
      <trkpt lat="42.299372" lon="-8.788857">
        <ele>214.3</ele>
        <time>1970-01-01T03:05:11.000Z</time>
      </trkpt>
      <trkpt lat="42.29937" lon="-8.788857">
        <ele>214.3</ele>
        <time>1970-01-01T03:05:12.000Z</time>
      </trkpt>
      <trkpt lat="42.299372" lon="-8.788857">
        <ele>214.3</ele>
        <time>1970-01-01T03:05:13.000Z</time>
      </trkpt>
      <trkpt lat="42.299375" lon="-8.788855">
        <ele>214.3</ele>
        <time>1970-01-01T03:05:14.000Z</time>
      </trkpt>
      <trkpt lat="42.299378" lon="-8.788853">
        <ele>214.3</ele>
        <time>1970-01-01T03:05:15.000Z</time>
      </trkpt>
      <trkpt lat="42.299382" lon="-8.78885">
        <ele>214.3</ele>
        <time>1970-01-01T03:05:16.000Z</time>
      </trkpt>
      <trkpt lat="42.299388" lon="-8.788845">
        <ele>214.3</ele>
        <time>1970-01-01T03:05:17.000Z</time>
      </trkpt>
      <trkpt lat="42.299392" lon="-8.788838">
        <ele>214.3</ele>
        <time>1970-01-01T03:05:18.000Z</time>
      </trkpt>
      <trkpt lat="42.299397" lon="-8.788832">
        <ele>214.3</ele>
        <time>1970-01-01T03:05:19.000Z</time>
      </trkpt>
      <trkpt lat="42.299398" lon="-8.788822">
        <ele>214.3</ele>
        <time>1970-01-01T03:05:20.000Z</time>
      </trkpt>
      <trkpt lat="42.299398" lon="-8.788815">
        <ele>213.2</ele>
        <time>1970-01-01T03:05:21.000Z</time>
      </trkpt>
      <trkpt lat="42.2994" lon="-8.788807">
        <ele>213.2</ele>
        <time>1970-01-01T03:05:22.000Z</time>
      </trkpt>
      <trkpt lat="42.2994" lon="-8.788802">
        <ele>213.2</ele>
        <time>1970-01-01T03:05:23.000Z</time>
      </trkpt>
      <trkpt lat="42.299398" lon="-8.788797">
        <ele>213.2</ele>
        <time>1970-01-01T03:05:24.000Z</time>
      </trkpt>
      <trkpt lat="42.2994" lon="-8.788793">
        <ele>213.2</ele>
        <time>1970-01-01T03:05:25.000Z</time>
      </trkpt>
      <trkpt lat="42.2994" lon="-8.78879">
        <ele>213.2</ele>
        <time>1970-01-01T03:05:26.000Z</time>
      </trkpt>
      <trkpt lat="42.299405" lon="-8.788788">
        <ele>212.3</ele>
        <time>1970-01-01T03:05:27.000Z</time>
      </trkpt>
      <trkpt lat="42.299408" lon="-8.788785">
        <ele>212.3</ele>
        <time>1970-01-01T03:05:28.000Z</time>
      </trkpt>
      <trkpt lat="42.299413" lon="-8.788777">
        <ele>212.3</ele>
        <time>1970-01-01T03:05:29.000Z</time>
      </trkpt>
      <trkpt lat="42.29942" lon="-8.788772">
        <ele>212.3</ele>
        <time>1970-01-01T03:05:30.000Z</time>
      </trkpt>
      <trkpt lat="42.29943" lon="-8.78877">
        <ele>212.3</ele>
        <time>1970-01-01T03:05:31.000Z</time>
      </trkpt>
      <trkpt lat="42.299438" lon="-8.788767">
        <ele>212.3</ele>
        <time>1970-01-01T03:05:32.000Z</time>
      </trkpt>
      <trkpt lat="42.299453" lon="-8.788773">
        <ele>211.2</ele>
        <time>1970-01-01T03:05:33.000Z</time>
      </trkpt>
      <trkpt lat="42.299472" lon="-8.788768">
        <ele>211.2</ele>
        <time>1970-01-01T03:05:34.000Z</time>
      </trkpt>
      <trkpt lat="42.299482" lon="-8.788772">
        <ele>211.2</ele>
        <time>1970-01-01T03:05:35.000Z</time>
      </trkpt>
      <trkpt lat="42.29949" lon="-8.788777">
        <ele>211.2</ele>
        <time>1970-01-01T03:05:36.000Z</time>
      </trkpt>
      <trkpt lat="42.299495" lon="-8.788778">
        <ele>210.3</ele>
        <time>1970-01-01T03:05:37.000Z</time>
      </trkpt>
      <trkpt lat="42.29951" lon="-8.788775">
        <ele>210.3</ele>
        <time>1970-01-01T03:05:38.000Z</time>
      </trkpt>
      <trkpt lat="42.299517" lon="-8.788772">
        <ele>210.3</ele>
        <time>1970-01-01T03:05:39.000Z</time>
      </trkpt>
      <trkpt lat="42.29952" lon="-8.788773">
        <ele>210.3</ele>
        <time>1970-01-01T03:05:40.000Z</time>
      </trkpt>
      <trkpt lat="42.299522" lon="-8.788772">
        <ele>210.3</ele>
        <time>1970-01-01T03:05:41.000Z</time>
      </trkpt>
      <trkpt lat="42.299523" lon="-8.78877">
        <ele>210.3</ele>
        <time>1970-01-01T03:05:42.000Z</time>
      </trkpt>
      <trkpt lat="42.299525" lon="-8.788768">
        <ele>210.3</ele>
        <time>1970-01-01T03:05:43.000Z</time>
      </trkpt>
      <trkpt lat="42.299527" lon="-8.788765">
        <ele>210.3</ele>
        <time>1970-01-01T03:05:44.000Z</time>
      </trkpt>
      <trkpt lat="42.299535" lon="-8.788763">
        <ele>209.2</ele>
        <time>1970-01-01T03:05:45.000Z</time>
      </trkpt>
      <trkpt lat="42.299542" lon="-8.788758">
        <ele>209.2</ele>
        <time>1970-01-01T03:05:46.000Z</time>
      </trkpt>
      <trkpt lat="42.299548" lon="-8.788753">
        <ele>209.2</ele>
        <time>1970-01-01T03:05:47.000Z</time>
      </trkpt>
      <trkpt lat="42.299555" lon="-8.788743">
        <ele>209.2</ele>
        <time>1970-01-01T03:05:48.000Z</time>
      </trkpt>
      <trkpt lat="42.29956" lon="-8.788733">
        <ele>208.3</ele>
        <time>1970-01-01T03:05:49.000Z</time>
      </trkpt>
      <trkpt lat="42.299565" lon="-8.788723">
        <ele>208.3</ele>
        <time>1970-01-01T03:05:50.000Z</time>
      </trkpt>
      <trkpt lat="42.299568" lon="-8.788715">
        <ele>208.3</ele>
        <time>1970-01-01T03:05:51.000Z</time>
      </trkpt>
      <trkpt lat="42.29957" lon="-8.788712">
        <ele>208.3</ele>
        <time>1970-01-01T03:05:52.000Z</time>
      </trkpt>
      <trkpt lat="42.299572" lon="-8.788708">
        <ele>207.3</ele>
        <time>1970-01-01T03:05:53.000Z</time>
      </trkpt>
      <trkpt lat="42.299578" lon="-8.788708">
        <ele>207.3</ele>
        <time>1970-01-01T03:05:54.000Z</time>
      </trkpt>
      <trkpt lat="42.299587" lon="-8.788708">
        <ele>207.3</ele>
        <time>1970-01-01T03:05:55.000Z</time>
      </trkpt>
      <trkpt lat="42.299592" lon="-8.78871">
        <ele>207.3</ele>
        <time>1970-01-01T03:05:56.000Z</time>
      </trkpt>
      <trkpt lat="42.299593" lon="-8.788715">
        <ele>207.3</ele>
        <time>1970-01-01T03:05:57.000Z</time>
      </trkpt>
      <trkpt lat="42.299597" lon="-8.788722">
        <ele>207.3</ele>
        <time>1970-01-01T03:05:58.000Z</time>
      </trkpt>
      <trkpt lat="42.2996" lon="-8.78873">
        <ele>207.3</ele>
        <time>1970-01-01T03:05:59.000Z</time>
      </trkpt>
      <trkpt lat="42.299605" lon="-8.788737">
        <ele>207.3</ele>
        <time>1970-01-01T03:06:00.000Z</time>
      </trkpt>
      <trkpt lat="42.299612" lon="-8.788747">
        <ele>207.3</ele>
        <time>1970-01-01T03:06:01.000Z</time>
      </trkpt>
      <trkpt lat="42.29962" lon="-8.788755">
        <ele>207.3</ele>
        <time>1970-01-01T03:06:02.000Z</time>
      </trkpt>
      <trkpt lat="42.299627" lon="-8.788762">
        <ele>207.3</ele>
        <time>1970-01-01T03:06:03.000Z</time>
      </trkpt>
      <trkpt lat="42.299632" lon="-8.788768">
        <ele>207.3</ele>
        <time>1970-01-01T03:06:04.000Z</time>
      </trkpt>
      <trkpt lat="42.299635" lon="-8.788773">
        <ele>207.3</ele>
        <time>1970-01-01T03:06:05.000Z</time>
      </trkpt>
      <trkpt lat="42.29964" lon="-8.788782">
        <ele>207.3</ele>
        <time>1970-01-01T03:06:06.000Z</time>
      </trkpt>
      <trkpt lat="42.299643" lon="-8.788785">
        <ele>207.3</ele>
        <time>1970-01-01T03:06:07.000Z</time>
      </trkpt>
      <trkpt lat="42.299645" lon="-8.78879">
        <ele>207.3</ele>
        <time>1970-01-01T03:06:08.000Z</time>
      </trkpt>
      <trkpt lat="42.299652" lon="-8.788793">
        <ele>205.3</ele>
        <time>1970-01-01T03:06:09.000Z</time>
      </trkpt>
      <trkpt lat="42.29966" lon="-8.788792">
        <ele>205.3</ele>
        <time>1970-01-01T03:06:10.000Z</time>
      </trkpt>
      <trkpt lat="42.29967" lon="-8.788792">
        <ele>205.3</ele>
        <time>1970-01-01T03:06:11.000Z</time>
      </trkpt>
      <trkpt lat="42.29968" lon="-8.788792">
        <ele>205.3</ele>
        <time>1970-01-01T03:06:12.000Z</time>
      </trkpt>
      <trkpt lat="42.299692" lon="-8.788792">
        <ele>205.3</ele>
        <time>1970-01-01T03:06:13.000Z</time>
      </trkpt>
      <trkpt lat="42.299703" lon="-8.788795">
        <ele>205.3</ele>
        <time>1970-01-01T03:06:14.000Z</time>
      </trkpt>
      <trkpt lat="42.299713" lon="-8.7888">
        <ele>205.3</ele>
        <time>1970-01-01T03:06:15.000Z</time>
      </trkpt>
      <trkpt lat="42.29972" lon="-8.788803">
        <ele>205.3</ele>
        <time>1970-01-01T03:06:16.000Z</time>
      </trkpt>
      <trkpt lat="42.299732" lon="-8.7888">
        <ele>205.3</ele>
        <time>1970-01-01T03:06:17.000Z</time>
      </trkpt>
      <trkpt lat="42.29975" lon="-8.788787">
        <ele>205.3</ele>
        <time>1970-01-01T03:06:18.000Z</time>
      </trkpt>
      <trkpt lat="42.299762" lon="-8.788782">
        <ele>205.3</ele>
        <time>1970-01-01T03:06:19.000Z</time>
      </trkpt>
      <trkpt lat="42.299775" lon="-8.788763">
        <ele>205.3</ele>
        <time>1970-01-01T03:06:20.000Z</time>
      </trkpt>
      <trkpt lat="42.299782" lon="-8.788755">
        <ele>204.2</ele>
        <time>1970-01-01T03:06:21.000Z</time>
      </trkpt>
      <trkpt lat="42.299795" lon="-8.788742">
        <ele>204.2</ele>
        <time>1970-01-01T03:06:22.000Z</time>
      </trkpt>
      <trkpt lat="42.299798" lon="-8.788737">
        <ele>204.2</ele>
        <time>1970-01-01T03:06:23.000Z</time>
      </trkpt>
      <trkpt lat="42.2998" lon="-8.788735">
        <ele>203.3</ele>
        <time>1970-01-01T03:06:24.000Z</time>
      </trkpt>
      <trkpt lat="42.299803" lon="-8.788733">
        <ele>203.3</ele>
        <time>1970-01-01T03:06:25.000Z</time>
      </trkpt>
      <trkpt lat="42.299805" lon="-8.788738">
        <ele>203.3</ele>
        <time>1970-01-01T03:06:26.000Z</time>
      </trkpt>
      <trkpt lat="42.299808" lon="-8.788743">
        <ele>203.3</ele>
        <time>1970-01-01T03:06:27.000Z</time>
      </trkpt>
      <trkpt lat="42.299812" lon="-8.788747">
        <ele>203.3</ele>
        <time>1970-01-01T03:06:28.000Z</time>
      </trkpt>
      <trkpt lat="42.29982" lon="-8.788747">
        <ele>203.3</ele>
        <time>1970-01-01T03:06:29.000Z</time>
      </trkpt>
      <trkpt lat="42.299828" lon="-8.788748">
        <ele>203.3</ele>
        <time>1970-01-01T03:06:30.000Z</time>
      </trkpt>
      <trkpt lat="42.299835" lon="-8.78875">
        <ele>203.3</ele>
        <time>1970-01-01T03:06:31.000Z</time>
      </trkpt>
      <trkpt lat="42.299843" lon="-8.78875">
        <ele>203.3</ele>
        <time>1970-01-01T03:06:32.000Z</time>
      </trkpt>
      <trkpt lat="42.29985" lon="-8.788755">
        <ele>203.3</ele>
        <time>1970-01-01T03:06:33.000Z</time>
      </trkpt>
      <trkpt lat="42.299857" lon="-8.788762">
        <ele>202.2</ele>
        <time>1970-01-01T03:06:34.000Z</time>
      </trkpt>
      <trkpt lat="42.299865" lon="-8.788767">
        <ele>202.2</ele>
        <time>1970-01-01T03:06:35.000Z</time>
      </trkpt>
      <trkpt lat="42.29987" lon="-8.788773">
        <ele>202.2</ele>
        <time>1970-01-01T03:06:36.000Z</time>
      </trkpt>
      <trkpt lat="42.299875" lon="-8.788782">
        <ele>202.2</ele>
        <time>1970-01-01T03:06:37.000Z</time>
      </trkpt>
      <trkpt lat="42.29988" lon="-8.788793">
        <ele>202.2</ele>
        <time>1970-01-01T03:06:38.000Z</time>
      </trkpt>
      <trkpt lat="42.299887" lon="-8.788798">
        <ele>202.2</ele>
        <time>1970-01-01T03:06:39.000Z</time>
      </trkpt>
      <trkpt lat="42.299897" lon="-8.788802">
        <ele>202.2</ele>
        <time>1970-01-01T03:06:40.000Z</time>
      </trkpt>
      <trkpt lat="42.299905" lon="-8.788807">
        <ele>202.2</ele>
        <time>1970-01-01T03:06:41.000Z</time>
      </trkpt>
      <trkpt lat="42.29991" lon="-8.78881">
        <ele>199.3</ele>
        <time>1970-01-01T03:06:42.000Z</time>
      </trkpt>
      <trkpt lat="42.299918" lon="-8.78881">
        <ele>199.3</ele>
        <time>1970-01-01T03:06:43.000Z</time>
      </trkpt>
      <trkpt lat="42.299927" lon="-8.788805">
        <ele>199.3</ele>
        <time>1970-01-01T03:06:44.000Z</time>
      </trkpt>
      <trkpt lat="42.299937" lon="-8.788802">
        <ele>199.3</ele>
        <time>1970-01-01T03:06:45.000Z</time>
      </trkpt>
      <trkpt lat="42.299945" lon="-8.788792">
        <ele>199.3</ele>
        <time>1970-01-01T03:06:46.000Z</time>
      </trkpt>
      <trkpt lat="42.299948" lon="-8.78878">
        <ele>199.3</ele>
        <time>1970-01-01T03:06:47.000Z</time>
      </trkpt>
      <trkpt lat="42.299957" lon="-8.788767">
        <ele>199.3</ele>
        <time>1970-01-01T03:06:48.000Z</time>
      </trkpt>
      <trkpt lat="42.29996" lon="-8.78876">
        <ele>199.3</ele>
        <time>1970-01-01T03:06:49.000Z</time>
      </trkpt>
      <trkpt lat="42.299965" lon="-8.788755">
        <ele>199.3</ele>
        <time>1970-01-01T03:06:50.000Z</time>
      </trkpt>
      <trkpt lat="42.29997" lon="-8.788753">
        <ele>199.3</ele>
        <time>1970-01-01T03:06:51.000Z</time>
      </trkpt>
      <trkpt lat="42.299972" lon="-8.788752">
        <ele>199.3</ele>
        <time>1970-01-01T03:06:52.000Z</time>
      </trkpt>
      <trkpt lat="42.299985" lon="-8.788743">
        <ele>199.3</ele>
        <time>1970-01-01T03:06:53.000Z</time>
      </trkpt>
      <trkpt lat="42.299998" lon="-8.788735">
        <ele>197.2</ele>
        <time>1970-01-01T03:06:54.000Z</time>
      </trkpt>
      <trkpt lat="42.30001" lon="-8.788722">
        <ele>197.2</ele>
        <time>1970-01-01T03:06:55.000Z</time>
      </trkpt>
      <trkpt lat="42.300018" lon="-8.788712">
        <ele>197.2</ele>
        <time>1970-01-01T03:06:56.000Z</time>
      </trkpt>
      <trkpt lat="42.30002" lon="-8.788708">
        <ele>197.2</ele>
        <time>1970-01-01T03:06:57.000Z</time>
      </trkpt>
      <trkpt lat="42.300022" lon="-8.788708">
        <ele>196.3</ele>
        <time>1970-01-01T03:06:58.000Z</time>
      </trkpt>
      <trkpt lat="42.300022" lon="-8.788708">
        <ele>196.3</ele>
        <time>1970-01-01T03:06:59.000Z</time>
      </trkpt>
      <trkpt lat="42.300023" lon="-8.788708">
        <ele>196.3</ele>
        <time>1970-01-01T03:07:00.000Z</time>
      </trkpt>
      <trkpt lat="42.300035" lon="-8.788705">
        <ele>196.3</ele>
        <time>1970-01-01T03:07:01.000Z</time>
      </trkpt>
      <trkpt lat="42.300037" lon="-8.788702">
        <ele>196.3</ele>
        <time>1970-01-01T03:07:02.000Z</time>
      </trkpt>
      <trkpt lat="42.300037" lon="-8.7887">
        <ele>196.3</ele>
        <time>1970-01-01T03:07:03.000Z</time>
      </trkpt>
      <trkpt lat="42.300048" lon="-8.788697">
        <ele>196.3</ele>
        <time>1970-01-01T03:07:04.000Z</time>
      </trkpt>
      <trkpt lat="42.30005" lon="-8.788695">
        <ele>196.3</ele>
        <time>1970-01-01T03:07:05.000Z</time>
      </trkpt>
      <trkpt lat="42.300052" lon="-8.788692">
        <ele>196.3</ele>
        <time>1970-01-01T03:07:06.000Z</time>
      </trkpt>
      <trkpt lat="42.300055" lon="-8.78869">
        <ele>196.3</ele>
        <time>1970-01-01T03:07:07.000Z</time>
      </trkpt>
      <trkpt lat="42.300058" lon="-8.788688">
        <ele>196.3</ele>
        <time>1970-01-01T03:07:08.000Z</time>
      </trkpt>
      <trkpt lat="42.300062" lon="-8.788692">
        <ele>196.3</ele>
        <time>1970-01-01T03:07:09.000Z</time>
      </trkpt>
      <trkpt lat="42.300065" lon="-8.788695">
        <ele>195.2</ele>
        <time>1970-01-01T03:07:10.000Z</time>
      </trkpt>
      <trkpt lat="42.30007" lon="-8.788698">
        <ele>195.2</ele>
        <time>1970-01-01T03:07:11.000Z</time>
      </trkpt>
      <trkpt lat="42.300073" lon="-8.788702">
        <ele>195.2</ele>
        <time>1970-01-01T03:07:12.000Z</time>
      </trkpt>
      <trkpt lat="42.30008" lon="-8.788708">
        <ele>195.2</ele>
        <time>1970-01-01T03:07:13.000Z</time>
      </trkpt>
      <trkpt lat="42.300088" lon="-8.788717">
        <ele>195.2</ele>
        <time>1970-01-01T03:07:14.000Z</time>
      </trkpt>
      <trkpt lat="42.300097" lon="-8.788725">
        <ele>195.2</ele>
        <time>1970-01-01T03:07:15.000Z</time>
      </trkpt>
      <trkpt lat="42.300107" lon="-8.788737">
        <ele>194.3</ele>
        <time>1970-01-01T03:07:16.000Z</time>
      </trkpt>
      <trkpt lat="42.300118" lon="-8.788747">
        <ele>194.3</ele>
        <time>1970-01-01T03:07:17.000Z</time>
      </trkpt>
      <trkpt lat="42.30013" lon="-8.788755">
        <ele>194.3</ele>
        <time>1970-01-01T03:07:18.000Z</time>
      </trkpt>
      <trkpt lat="42.300142" lon="-8.788758">
        <ele>194.3</ele>
        <time>1970-01-01T03:07:19.000Z</time>
      </trkpt>
      <trkpt lat="42.300148" lon="-8.788767">
        <ele>194.3</ele>
        <time>1970-01-01T03:07:20.000Z</time>
      </trkpt>
      <trkpt lat="42.300158" lon="-8.788772">
        <ele>194.3</ele>
        <time>1970-01-01T03:07:21.000Z</time>
      </trkpt>
      <trkpt lat="42.300168" lon="-8.788775">
        <ele>194.3</ele>
        <time>1970-01-01T03:07:22.000Z</time>
      </trkpt>
      <trkpt lat="42.300173" lon="-8.78878">
        <ele>194.3</ele>
        <time>1970-01-01T03:07:23.000Z</time>
      </trkpt>
      <trkpt lat="42.300175" lon="-8.788783">
        <ele>194.3</ele>
        <time>1970-01-01T03:07:24.000Z</time>
      </trkpt>
      <trkpt lat="42.300177" lon="-8.788785">
        <ele>194.3</ele>
        <time>1970-01-01T03:07:25.000Z</time>
      </trkpt>
      <trkpt lat="42.300177" lon="-8.788785">
        <ele>194.3</ele>
        <time>1970-01-01T03:07:26.000Z</time>
      </trkpt>
      <trkpt lat="42.300177" lon="-8.788785">
        <ele>194.3</ele>
        <time>1970-01-01T03:07:27.000Z</time>
      </trkpt>
      <trkpt lat="42.300177" lon="-8.788783">
        <ele>194.3</ele>
        <time>1970-01-01T03:07:28.000Z</time>
      </trkpt>
      <trkpt lat="42.300178" lon="-8.788783">
        <ele>194.3</ele>
        <time>1970-01-01T03:07:29.000Z</time>
      </trkpt>
      <trkpt lat="42.300178" lon="-8.788783">
        <ele>194.3</ele>
        <time>1970-01-01T03:07:30.000Z</time>
      </trkpt>
      <trkpt lat="42.300178" lon="-8.788783">
        <ele>194.3</ele>
        <time>1970-01-01T03:07:31.000Z</time>
      </trkpt>
      <trkpt lat="42.300178" lon="-8.788782">
        <ele>194.3</ele>
        <time>1970-01-01T03:07:32.000Z</time>
      </trkpt>
      <trkpt lat="42.30018" lon="-8.788782">
        <ele>194.3</ele>
        <time>1970-01-01T03:07:33.000Z</time>
      </trkpt>
      <trkpt lat="42.30018" lon="-8.788782">
        <ele>194.3</ele>
        <time>1970-01-01T03:07:34.000Z</time>
      </trkpt>
      <trkpt lat="42.30018" lon="-8.788782">
        <ele>194.3</ele>
        <time>1970-01-01T03:07:35.000Z</time>
      </trkpt>
      <trkpt lat="42.30018" lon="-8.788782">
        <ele>194.3</ele>
        <time>1970-01-01T03:07:36.000Z</time>
      </trkpt>
      <trkpt lat="42.30018" lon="-8.788782">
        <ele>194.3</ele>
        <time>1970-01-01T03:07:37.000Z</time>
      </trkpt>
      <trkpt lat="42.30018" lon="-8.788782">
        <ele>194.3</ele>
        <time>1970-01-01T03:07:38.000Z</time>
      </trkpt>
      <trkpt lat="42.30018" lon="-8.788782">
        <ele>194.3</ele>
        <time>1970-01-01T03:07:39.000Z</time>
      </trkpt>
      <trkpt lat="42.30018" lon="-8.788782">
        <ele>194.3</ele>
        <time>1970-01-01T03:07:40.000Z</time>
      </trkpt>
      <trkpt lat="42.30018" lon="-8.788782">
        <ele>194.3</ele>
        <time>1970-01-01T03:07:41.000Z</time>
      </trkpt>
      <trkpt lat="42.30018" lon="-8.788782">
        <ele>195.2</ele>
        <time>1970-01-01T03:07:42.000Z</time>
      </trkpt>
      <trkpt lat="42.30018" lon="-8.788782">
        <ele>195.2</ele>
        <time>1970-01-01T03:07:43.000Z</time>
      </trkpt>
      <trkpt lat="42.30018" lon="-8.788782">
        <ele>195.2</ele>
        <time>1970-01-01T03:07:44.000Z</time>
      </trkpt>
      <trkpt lat="42.300178" lon="-8.788782">
        <ele>195.2</ele>
        <time>1970-01-01T03:07:45.000Z</time>
      </trkpt>
      <trkpt lat="42.300178" lon="-8.788782">
        <ele>196.3</ele>
        <time>1970-01-01T03:07:46.000Z</time>
      </trkpt>
      <trkpt lat="42.300178" lon="-8.788782">
        <ele>196.3</ele>
        <time>1970-01-01T03:07:47.000Z</time>
      </trkpt>
      <trkpt lat="42.300178" lon="-8.788782">
        <ele>196.3</ele>
        <time>1970-01-01T03:07:48.000Z</time>
      </trkpt>
      <trkpt lat="42.300177" lon="-8.788782">
        <ele>196.3</ele>
        <time>1970-01-01T03:07:49.000Z</time>
      </trkpt>
      <trkpt lat="42.300177" lon="-8.788782">
        <ele>196.3</ele>
        <time>1970-01-01T03:07:50.000Z</time>
      </trkpt>
      <trkpt lat="42.300177" lon="-8.788782">
        <ele>196.3</ele>
        <time>1970-01-01T03:07:51.000Z</time>
      </trkpt>
      <trkpt lat="42.300177" lon="-8.788782">
        <ele>196.3</ele>
        <time>1970-01-01T03:07:52.000Z</time>
      </trkpt>
      <trkpt lat="42.300177" lon="-8.788783">
        <ele>196.3</ele>
        <time>1970-01-01T03:07:53.000Z</time>
      </trkpt>
      <trkpt lat="42.300177" lon="-8.788783">
        <ele>196.3</ele>
        <time>1970-01-01T03:07:54.000Z</time>
      </trkpt>
      <trkpt lat="42.300177" lon="-8.788783">
        <ele>196.3</ele>
        <time>1970-01-01T03:07:55.000Z</time>
      </trkpt>
      <trkpt lat="42.300177" lon="-8.788783">
        <ele>195.2</ele>
        <time>1970-01-01T03:07:56.000Z</time>
      </trkpt>
      <trkpt lat="42.30018" lon="-8.788785">
        <ele>195.2</ele>
        <time>1970-01-01T03:07:57.000Z</time>
      </trkpt>
      <trkpt lat="42.300195" lon="-8.78879">
        <ele>195.2</ele>
        <time>1970-01-01T03:07:58.000Z</time>
      </trkpt>
      <trkpt lat="42.30021" lon="-8.788795">
        <ele>195.2</ele>
        <time>1970-01-01T03:07:59.000Z</time>
      </trkpt>
      <trkpt lat="42.300225" lon="-8.788797">
        <ele>195.2</ele>
        <time>1970-01-01T03:08:00.000Z</time>
      </trkpt>
      <trkpt lat="42.300237" lon="-8.788802">
        <ele>195.2</ele>
        <time>1970-01-01T03:08:01.000Z</time>
      </trkpt>
      <trkpt lat="42.300247" lon="-8.788803">
        <ele>195.2</ele>
        <time>1970-01-01T03:08:02.000Z</time>
      </trkpt>
      <trkpt lat="42.300255" lon="-8.788803">
        <ele>195.2</ele>
        <time>1970-01-01T03:08:03.000Z</time>
      </trkpt>
      <trkpt lat="42.300265" lon="-8.788807">
        <ele>194.3</ele>
        <time>1970-01-01T03:08:04.000Z</time>
      </trkpt>
      <trkpt lat="42.300273" lon="-8.788812">
        <ele>194.3</ele>
        <time>1970-01-01T03:08:05.000Z</time>
      </trkpt>
      <trkpt lat="42.300285" lon="-8.788818">
        <ele>194.3</ele>
        <time>1970-01-01T03:08:06.000Z</time>
      </trkpt>
      <trkpt lat="42.300288" lon="-8.78882">
        <ele>194.3</ele>
        <time>1970-01-01T03:08:07.000Z</time>
      </trkpt>
      <trkpt lat="42.300293" lon="-8.788823">
        <ele>194.3</ele>
        <time>1970-01-01T03:08:08.000Z</time>
      </trkpt>
      <trkpt lat="42.300297" lon="-8.788825">
        <ele>194.3</ele>
        <time>1970-01-01T03:08:09.000Z</time>
      </trkpt>
      <trkpt lat="42.300302" lon="-8.788827">
        <ele>194.3</ele>
        <time>1970-01-01T03:08:10.000Z</time>
      </trkpt>
      <trkpt lat="42.300305" lon="-8.788835">
        <ele>194.3</ele>
        <time>1970-01-01T03:08:11.000Z</time>
      </trkpt>
      <trkpt lat="42.300312" lon="-8.788842">
        <ele>191.3</ele>
        <time>1970-01-01T03:08:12.000Z</time>
      </trkpt>
      <trkpt lat="42.300322" lon="-8.788847">
        <ele>191.3</ele>
        <time>1970-01-01T03:08:13.000Z</time>
      </trkpt>
      <trkpt lat="42.300328" lon="-8.788852">
        <ele>191.3</ele>
        <time>1970-01-01T03:08:14.000Z</time>
      </trkpt>
      <trkpt lat="42.300338" lon="-8.78885">
        <ele>191.3</ele>
        <time>1970-01-01T03:08:15.000Z</time>
      </trkpt>
      <trkpt lat="42.300345" lon="-8.788855">
        <ele>190.2</ele>
        <time>1970-01-01T03:08:16.000Z</time>
      </trkpt>
      <trkpt lat="42.300347" lon="-8.788863">
        <ele>190.2</ele>
        <time>1970-01-01T03:08:17.000Z</time>
      </trkpt>
      <trkpt lat="42.300348" lon="-8.78887">
        <ele>190.2</ele>
        <time>1970-01-01T03:08:18.000Z</time>
      </trkpt>
      <trkpt lat="42.300362" lon="-8.788867">
        <ele>190.2</ele>
        <time>1970-01-01T03:08:19.000Z</time>
      </trkpt>
      <trkpt lat="42.300367" lon="-8.788868">
        <ele>190.2</ele>
        <time>1970-01-01T03:08:20.000Z</time>
      </trkpt>
      <trkpt lat="42.300375" lon="-8.78887">
        <ele>190.2</ele>
        <time>1970-01-01T03:08:21.000Z</time>
      </trkpt>
      <trkpt lat="42.30038" lon="-8.788873">
        <ele>190.2</ele>
        <time>1970-01-01T03:08:22.000Z</time>
      </trkpt>
      <trkpt lat="42.300387" lon="-8.788877">
        <ele>190.2</ele>
        <time>1970-01-01T03:08:23.000Z</time>
      </trkpt>
      <trkpt lat="42.300397" lon="-8.788882">
        <ele>189.3</ele>
        <time>1970-01-01T03:08:24.000Z</time>
      </trkpt>
      <trkpt lat="42.300408" lon="-8.788885">
        <ele>189.3</ele>
        <time>1970-01-01T03:08:25.000Z</time>
      </trkpt>
      <trkpt lat="42.300417" lon="-8.78889">
        <ele>189.3</ele>
        <time>1970-01-01T03:08:26.000Z</time>
      </trkpt>
      <trkpt lat="42.300427" lon="-8.788897">
        <ele>189.3</ele>
        <time>1970-01-01T03:08:27.000Z</time>
      </trkpt>
      <trkpt lat="42.300435" lon="-8.788902">
        <ele>188.2</ele>
        <time>1970-01-01T03:08:28.000Z</time>
      </trkpt>
      <trkpt lat="42.300447" lon="-8.7889">
        <ele>188.2</ele>
        <time>1970-01-01T03:08:29.000Z</time>
      </trkpt>
      <trkpt lat="42.300452" lon="-8.788895">
        <ele>187.3</ele>
        <time>1970-01-01T03:08:30.000Z</time>
      </trkpt>
      <trkpt lat="42.300462" lon="-8.78889">
        <ele>187.3</ele>
        <time>1970-01-01T03:08:31.000Z</time>
      </trkpt>
      <trkpt lat="42.30047" lon="-8.788882">
        <ele>187.3</ele>
        <time>1970-01-01T03:08:32.000Z</time>
      </trkpt>
      <trkpt lat="42.30048" lon="-8.788868">
        <ele>187.3</ele>
        <time>1970-01-01T03:08:33.000Z</time>
      </trkpt>
      <trkpt lat="42.300487" lon="-8.788853">
        <ele>186.2</ele>
        <time>1970-01-01T03:08:34.000Z</time>
      </trkpt>
      <trkpt lat="42.300495" lon="-8.788838">
        <ele>186.2</ele>
        <time>1970-01-01T03:08:35.000Z</time>
      </trkpt>
      <trkpt lat="42.300498" lon="-8.788828">
        <ele>185.3</ele>
        <time>1970-01-01T03:08:36.000Z</time>
      </trkpt>
      <trkpt lat="42.3005" lon="-8.788823">
        <ele>185.3</ele>
        <time>1970-01-01T03:08:37.000Z</time>
      </trkpt>
      <trkpt lat="42.300503" lon="-8.788815">
        <ele>185.3</ele>
        <time>1970-01-01T03:08:38.000Z</time>
      </trkpt>
      <trkpt lat="42.30051" lon="-8.788807">
        <ele>185.3</ele>
        <time>1970-01-01T03:08:39.000Z</time>
      </trkpt>
      <trkpt lat="42.30052" lon="-8.788798">
        <ele>185.3</ele>
        <time>1970-01-01T03:08:40.000Z</time>
      </trkpt>
      <trkpt lat="42.30053" lon="-8.788788">
        <ele>185.3</ele>
        <time>1970-01-01T03:08:41.000Z</time>
      </trkpt>
      <trkpt lat="42.300543" lon="-8.788778">
        <ele>184.3</ele>
        <time>1970-01-01T03:08:42.000Z</time>
      </trkpt>
      <trkpt lat="42.300552" lon="-8.788777">
        <ele>184.3</ele>
        <time>1970-01-01T03:08:43.000Z</time>
      </trkpt>
      <trkpt lat="42.300562" lon="-8.788775">
        <ele>184.3</ele>
        <time>1970-01-01T03:08:44.000Z</time>
      </trkpt>
      <trkpt lat="42.300573" lon="-8.788773">
        <ele>184.3</ele>
        <time>1970-01-01T03:08:45.000Z</time>
      </trkpt>
      <trkpt lat="42.300585" lon="-8.788782">
        <ele>184.3</ele>
        <time>1970-01-01T03:08:46.000Z</time>
      </trkpt>
      <trkpt lat="42.300585" lon="-8.788792">
        <ele>184.3</ele>
        <time>1970-01-01T03:08:47.000Z</time>
      </trkpt>
      <trkpt lat="42.300583" lon="-8.7888">
        <ele>184.3</ele>
        <time>1970-01-01T03:08:48.000Z</time>
      </trkpt>
      <trkpt lat="42.300585" lon="-8.788803">
        <ele>184.3</ele>
        <time>1970-01-01T03:08:49.000Z</time>
      </trkpt>
      <trkpt lat="42.300587" lon="-8.788805">
        <ele>181.2</ele>
        <time>1970-01-01T03:08:50.000Z</time>
      </trkpt>
      <trkpt lat="42.30059" lon="-8.7888">
        <ele>181.2</ele>
        <time>1970-01-01T03:08:51.000Z</time>
      </trkpt>
      <trkpt lat="42.300595" lon="-8.788802">
        <ele>181.2</ele>
        <time>1970-01-01T03:08:52.000Z</time>
      </trkpt>
      <trkpt lat="42.300602" lon="-8.788808">
        <ele>181.2</ele>
        <time>1970-01-01T03:08:53.000Z</time>
      </trkpt>
      <trkpt lat="42.300613" lon="-8.788813">
        <ele>181.2</ele>
        <time>1970-01-01T03:08:54.000Z</time>
      </trkpt>
      <trkpt lat="42.300625" lon="-8.78882">
        <ele>181.2</ele>
        <time>1970-01-01T03:08:55.000Z</time>
      </trkpt>
      <trkpt lat="42.300633" lon="-8.788832">
        <ele>181.2</ele>
        <time>1970-01-01T03:08:56.000Z</time>
      </trkpt>
      <trkpt lat="42.300642" lon="-8.788835">
        <ele>181.2</ele>
        <time>1970-01-01T03:08:57.000Z</time>
      </trkpt>
      <trkpt lat="42.300648" lon="-8.78884">
        <ele>181.2</ele>
        <time>1970-01-01T03:08:58.000Z</time>
      </trkpt>
      <trkpt lat="42.300652" lon="-8.788848">
        <ele>181.2</ele>
        <time>1970-01-01T03:08:59.000Z</time>
      </trkpt>
      <trkpt lat="42.300655" lon="-8.788858">
        <ele>180.3</ele>
        <time>1970-01-01T03:09:00.000Z</time>
      </trkpt>
      <trkpt lat="42.300665" lon="-8.788865">
        <ele>180.3</ele>
        <time>1970-01-01T03:09:01.000Z</time>
      </trkpt>
      <trkpt lat="42.300677" lon="-8.788877">
        <ele>180.3</ele>
        <time>1970-01-01T03:09:02.000Z</time>
      </trkpt>
      <trkpt lat="42.300688" lon="-8.788882">
        <ele>180.3</ele>
        <time>1970-01-01T03:09:03.000Z</time>
      </trkpt>
      <trkpt lat="42.300703" lon="-8.788883">
        <ele>179.2</ele>
        <time>1970-01-01T03:09:04.000Z</time>
      </trkpt>
      <trkpt lat="42.300712" lon="-8.788887">
        <ele>179.2</ele>
        <time>1970-01-01T03:09:05.000Z</time>
      </trkpt>
      <trkpt lat="42.300722" lon="-8.78889">
        <ele>179.2</ele>
        <time>1970-01-01T03:09:06.000Z</time>
      </trkpt>
      <trkpt lat="42.300738" lon="-8.78889">
        <ele>179.2</ele>
        <time>1970-01-01T03:09:07.000Z</time>
      </trkpt>
      <trkpt lat="42.300753" lon="-8.788897">
        <ele>179.2</ele>
        <time>1970-01-01T03:09:08.000Z</time>
      </trkpt>
      <trkpt lat="42.30076" lon="-8.78889">
        <ele>179.2</ele>
        <time>1970-01-01T03:09:09.000Z</time>
      </trkpt>
      <trkpt lat="42.30078" lon="-8.788892">
        <ele>179.2</ele>
        <time>1970-01-01T03:09:10.000Z</time>
      </trkpt>
      <trkpt lat="42.30079" lon="-8.788898">
        <ele>179.2</ele>
        <time>1970-01-01T03:09:11.000Z</time>
      </trkpt>
      <trkpt lat="42.300802" lon="-8.788903">
        <ele>179.2</ele>
        <time>1970-01-01T03:09:12.000Z</time>
      </trkpt>
      <trkpt lat="42.300805" lon="-8.788902">
        <ele>179.2</ele>
        <time>1970-01-01T03:09:13.000Z</time>
      </trkpt>
      <trkpt lat="42.300808" lon="-8.788902">
        <ele>179.2</ele>
        <time>1970-01-01T03:09:14.000Z</time>
      </trkpt>
      <trkpt lat="42.300812" lon="-8.788902">
        <ele>179.2</ele>
        <time>1970-01-01T03:09:15.000Z</time>
      </trkpt>
      <trkpt lat="42.300812" lon="-8.7889">
        <ele>177.2</ele>
        <time>1970-01-01T03:09:16.000Z</time>
      </trkpt>
      <trkpt lat="42.300813" lon="-8.7889">
        <ele>177.2</ele>
        <time>1970-01-01T03:09:17.000Z</time>
      </trkpt>
      <trkpt lat="42.300812" lon="-8.7889">
        <ele>177.2</ele>
        <time>1970-01-01T03:09:18.000Z</time>
      </trkpt>
      <trkpt lat="42.300812" lon="-8.7889">
        <ele>177.2</ele>
        <time>1970-01-01T03:09:19.000Z</time>
      </trkpt>
      <trkpt lat="42.300812" lon="-8.7889">
        <ele>177.2</ele>
        <time>1970-01-01T03:09:20.000Z</time>
      </trkpt>
      <trkpt lat="42.30081" lon="-8.788907">
        <ele>176.3</ele>
        <time>1970-01-01T03:09:21.000Z</time>
      </trkpt>
      <trkpt lat="42.30081" lon="-8.788907">
        <ele>176.3</ele>
        <time>1970-01-01T03:09:22.000Z</time>
      </trkpt>
      <trkpt lat="42.30081" lon="-8.788907">
        <ele>176.3</ele>
        <time>1970-01-01T03:09:23.000Z</time>
      </trkpt>
      <trkpt lat="42.30081" lon="-8.788907">
        <ele>176.3</ele>
        <time>1970-01-01T03:09:24.000Z</time>
      </trkpt>
      <trkpt lat="42.30081" lon="-8.788907">
        <ele>175.3</ele>
        <time>1970-01-01T03:09:25.000Z</time>
      </trkpt>
      <trkpt lat="42.300812" lon="-8.788907">
        <ele>175.3</ele>
        <time>1970-01-01T03:09:26.000Z</time>
      </trkpt>
      <trkpt lat="42.300812" lon="-8.788907">
        <ele>175.3</ele>
        <time>1970-01-01T03:09:27.000Z</time>
      </trkpt>
      <trkpt lat="42.300812" lon="-8.788907">
        <ele>175.3</ele>
        <time>1970-01-01T03:09:28.000Z</time>
      </trkpt>
      <trkpt lat="42.300817" lon="-8.7889">
        <ele>174.2</ele>
        <time>1970-01-01T03:09:29.000Z</time>
      </trkpt>
      <trkpt lat="42.300832" lon="-8.788885">
        <ele>174.2</ele>
        <time>1970-01-01T03:09:30.000Z</time>
      </trkpt>
      <trkpt lat="42.30085" lon="-8.78887">
        <ele>173.3</ele>
        <time>1970-01-01T03:09:31.000Z</time>
      </trkpt>
      <trkpt lat="42.300858" lon="-8.788858">
        <ele>173.3</ele>
        <time>1970-01-01T03:09:46.000Z</time>
      </trkpt>
      <trkpt lat="42.300865" lon="-8.788848">
        <ele>172.2</ele>
        <time>1970-01-01T03:09:47.000Z</time>
      </trkpt>
      <trkpt lat="42.300868" lon="-8.788843">
        <ele>172.2</ele>
        <time>1970-01-01T03:09:48.000Z</time>
      </trkpt>
      <trkpt lat="42.300872" lon="-8.788837">
        <ele>172.2</ele>
        <time>1970-01-01T03:09:49.000Z</time>
      </trkpt>
      <trkpt lat="42.300875" lon="-8.788832">
        <ele>172.2</ele>
        <time>1970-01-01T03:09:50.000Z</time>
      </trkpt>
      <trkpt lat="42.30088" lon="-8.788825">
        <ele>172.2</ele>
        <time>1970-01-01T03:09:51.000Z</time>
      </trkpt>
      <trkpt lat="42.300885" lon="-8.788815">
        <ele>172.2</ele>
        <time>1970-01-01T03:09:52.000Z</time>
      </trkpt>
      <trkpt lat="42.30089" lon="-8.7888">
        <ele>172.2</ele>
        <time>1970-01-01T03:09:53.000Z</time>
      </trkpt>
      <trkpt lat="42.300898" lon="-8.788785">
        <ele>172.2</ele>
        <time>1970-01-01T03:09:54.000Z</time>
      </trkpt>
      <trkpt lat="42.300902" lon="-8.788778">
        <ele>172.2</ele>
        <time>1970-01-01T03:09:55.000Z</time>
      </trkpt>
      <trkpt lat="42.300905" lon="-8.788773">
        <ele>172.2</ele>
        <time>1970-01-01T03:09:56.000Z</time>
      </trkpt>
      <trkpt lat="42.300905" lon="-8.788768">
        <ele>172.2</ele>
        <time>1970-01-01T03:09:57.000Z</time>
      </trkpt>
      <trkpt lat="42.300912" lon="-8.788763">
        <ele>172.2</ele>
        <time>1970-01-01T03:09:58.000Z</time>
      </trkpt>
      <trkpt lat="42.300912" lon="-8.788762">
        <ele>171.3</ele>
        <time>1970-01-01T03:09:59.000Z</time>
      </trkpt>
      <trkpt lat="42.300913" lon="-8.78876">
        <ele>171.3</ele>
        <time>1970-01-01T03:10:00.000Z</time>
      </trkpt>
      <trkpt lat="42.300915" lon="-8.788758">
        <ele>171.3</ele>
        <time>1970-01-01T03:10:01.000Z</time>
      </trkpt>
      <trkpt lat="42.300917" lon="-8.788755">
        <ele>171.3</ele>
        <time>1970-01-01T03:10:02.000Z</time>
      </trkpt>
      <trkpt lat="42.300915" lon="-8.788752">
        <ele>170.2</ele>
        <time>1970-01-01T03:10:03.000Z</time>
      </trkpt>
      <trkpt lat="42.300917" lon="-8.78875">
        <ele>170.2</ele>
        <time>1970-01-01T03:10:04.000Z</time>
      </trkpt>
      <trkpt lat="42.300923" lon="-8.788742">
        <ele>170.2</ele>
        <time>1970-01-01T03:10:05.000Z</time>
      </trkpt>
      <trkpt lat="42.300925" lon="-8.788737">
        <ele>170.2</ele>
        <time>1970-01-01T03:10:06.000Z</time>
      </trkpt>
      <trkpt lat="42.300925" lon="-8.788737">
        <ele>170.2</ele>
        <time>1970-01-01T03:10:07.000Z</time>
      </trkpt>
      <trkpt lat="42.30093" lon="-8.788728">
        <ele>170.2</ele>
        <time>1970-01-01T03:10:08.000Z</time>
      </trkpt>
      <trkpt lat="42.300928" lon="-8.788723">
        <ele>170.2</ele>
        <time>1970-01-01T03:10:09.000Z</time>
      </trkpt>
      <trkpt lat="42.300927" lon="-8.78872">
        <ele>170.2</ele>
        <time>1970-01-01T03:10:10.000Z</time>
      </trkpt>
      <trkpt lat="42.300933" lon="-8.788717">
        <ele>170.2</ele>
        <time>1970-01-01T03:10:11.000Z</time>
      </trkpt>
      <trkpt lat="42.300937" lon="-8.788713">
        <ele>170.2</ele>
        <time>1970-01-01T03:10:12.000Z</time>
      </trkpt>
      <trkpt lat="42.300943" lon="-8.788707">
        <ele>170.2</ele>
        <time>1970-01-01T03:10:13.000Z</time>
      </trkpt>
      <trkpt lat="42.300947" lon="-8.788702">
        <ele>170.2</ele>
        <time>1970-01-01T03:10:14.000Z</time>
      </trkpt>
      <trkpt lat="42.30095" lon="-8.788695">
        <ele>170.2</ele>
        <time>1970-01-01T03:10:15.000Z</time>
      </trkpt>
      <trkpt lat="42.300957" lon="-8.788687">
        <ele>170.2</ele>
        <time>1970-01-01T03:10:16.000Z</time>
      </trkpt>
      <trkpt lat="42.300965" lon="-8.788682">
        <ele>167.3</ele>
        <time>1970-01-01T03:10:17.000Z</time>
      </trkpt>
      <trkpt lat="42.300977" lon="-8.788675">
        <ele>167.3</ele>
        <time>1970-01-01T03:10:18.000Z</time>
      </trkpt>
      <trkpt lat="42.300983" lon="-8.788673">
        <ele>167.3</ele>
        <time>1970-01-01T03:10:19.000Z</time>
      </trkpt>
      <trkpt lat="42.300993" lon="-8.788673">
        <ele>167.3</ele>
        <time>1970-01-01T03:10:20.000Z</time>
      </trkpt>
      <trkpt lat="42.301" lon="-8.788673">
        <ele>167.3</ele>
        <time>1970-01-01T03:10:21.000Z</time>
      </trkpt>
      <trkpt lat="42.301012" lon="-8.788667">
        <ele>167.3</ele>
        <time>1970-01-01T03:10:22.000Z</time>
      </trkpt>
      <trkpt lat="42.301022" lon="-8.788658">
        <ele>167.3</ele>
        <time>1970-01-01T03:10:23.000Z</time>
      </trkpt>
      <trkpt lat="42.301033" lon="-8.788648">
        <ele>167.3</ele>
        <time>1970-01-01T03:10:24.000Z</time>
      </trkpt>
      <trkpt lat="42.301045" lon="-8.788635">
        <ele>167.3</ele>
        <time>1970-01-01T03:10:25.000Z</time>
      </trkpt>
      <trkpt lat="42.301053" lon="-8.78862">
        <ele>167.3</ele>
        <time>1970-01-01T03:10:26.000Z</time>
      </trkpt>
      <trkpt lat="42.301058" lon="-8.788607">
        <ele>165.2</ele>
        <time>1970-01-01T03:10:27.000Z</time>
      </trkpt>
      <trkpt lat="42.301068" lon="-8.788598">
        <ele>165.2</ele>
        <time>1970-01-01T03:10:28.000Z</time>
      </trkpt>
      <trkpt lat="42.301077" lon="-8.788587">
        <ele>165.2</ele>
        <time>1970-01-01T03:10:29.000Z</time>
      </trkpt>
      <trkpt lat="42.301082" lon="-8.788578">
        <ele>165.2</ele>
        <time>1970-01-01T03:10:30.000Z</time>
      </trkpt>
      <trkpt lat="42.30109" lon="-8.78857">
        <ele>164.3</ele>
        <time>1970-01-01T03:10:31.000Z</time>
      </trkpt>
      <trkpt lat="42.301098" lon="-8.788558">
        <ele>164.3</ele>
        <time>1970-01-01T03:10:32.000Z</time>
      </trkpt>
      <trkpt lat="42.301108" lon="-8.788552">
        <ele>164.3</ele>
        <time>1970-01-01T03:10:33.000Z</time>
      </trkpt>
      <trkpt lat="42.301113" lon="-8.788543">
        <ele>164.3</ele>
        <time>1970-01-01T03:10:34.000Z</time>
      </trkpt>
      <trkpt lat="42.301115" lon="-8.788537">
        <ele>164.3</ele>
        <time>1970-01-01T03:10:35.000Z</time>
      </trkpt>
      <trkpt lat="42.301123" lon="-8.78853">
        <ele>164.3</ele>
        <time>1970-01-01T03:10:36.000Z</time>
      </trkpt>
      <trkpt lat="42.301132" lon="-8.788523">
        <ele>164.3</ele>
        <time>1970-01-01T03:10:37.000Z</time>
      </trkpt>
      <trkpt lat="42.301142" lon="-8.788513">
        <ele>164.3</ele>
        <time>1970-01-01T03:10:38.000Z</time>
      </trkpt>
      <trkpt lat="42.301152" lon="-8.788497">
        <ele>164.3</ele>
        <time>1970-01-01T03:10:39.000Z</time>
      </trkpt>
      <trkpt lat="42.301155" lon="-8.788492">
        <ele>164.3</ele>
        <time>1970-01-01T03:10:40.000Z</time>
      </trkpt>
      <trkpt lat="42.301173" lon="-8.788477">
        <ele>164.3</ele>
        <time>1970-01-01T03:10:41.000Z</time>
      </trkpt>
      <trkpt lat="42.30119" lon="-8.788465">
        <ele>164.3</ele>
        <time>1970-01-01T03:10:42.000Z</time>
      </trkpt>
      <trkpt lat="42.301192" lon="-8.788462">
        <ele>164.3</ele>
        <time>1970-01-01T03:10:43.000Z</time>
      </trkpt>
      <trkpt lat="42.301193" lon="-8.788458">
        <ele>164.3</ele>
        <time>1970-01-01T03:10:44.000Z</time>
      </trkpt>
      <trkpt lat="42.301193" lon="-8.788458">
        <ele>163.2</ele>
        <time>1970-01-01T03:10:45.000Z</time>
      </trkpt>
      <trkpt lat="42.301193" lon="-8.78846">
        <ele>163.2</ele>
        <time>1970-01-01T03:10:46.000Z</time>
      </trkpt>
      <trkpt lat="42.301195" lon="-8.78846">
        <ele>163.2</ele>
        <time>1970-01-01T03:10:47.000Z</time>
      </trkpt>
      <trkpt lat="42.301195" lon="-8.78846">
        <ele>163.2</ele>
        <time>1970-01-01T03:10:48.000Z</time>
      </trkpt>
      <trkpt lat="42.301198" lon="-8.788458">
        <ele>161.2</ele>
        <time>1970-01-01T03:10:49.000Z</time>
      </trkpt>
      <trkpt lat="42.301205" lon="-8.788453">
        <ele>161.2</ele>
        <time>1970-01-01T03:10:50.000Z</time>
      </trkpt>
      <trkpt lat="42.30121" lon="-8.788443">
        <ele>161.2</ele>
        <time>1970-01-01T03:10:51.000Z</time>
      </trkpt>
      <trkpt lat="42.301215" lon="-8.788432">
        <ele>161.2</ele>
        <time>1970-01-01T03:10:52.000Z</time>
      </trkpt>
      <trkpt lat="42.301215" lon="-8.788425">
        <ele>161.2</ele>
        <time>1970-01-01T03:10:53.000Z</time>
      </trkpt>
      <trkpt lat="42.30122" lon="-8.788417">
        <ele>161.2</ele>
        <time>1970-01-01T03:10:54.000Z</time>
      </trkpt>
      <trkpt lat="42.301223" lon="-8.788415">
        <ele>161.2</ele>
        <time>1970-01-01T03:10:55.000Z</time>
      </trkpt>
      <trkpt lat="42.301225" lon="-8.788412">
        <ele>161.2</ele>
        <time>1970-01-01T03:10:56.000Z</time>
      </trkpt>
      <trkpt lat="42.30123" lon="-8.788407">
        <ele>161.2</ele>
        <time>1970-01-01T03:10:57.000Z</time>
      </trkpt>
      <trkpt lat="42.301232" lon="-8.788405">
        <ele>161.2</ele>
        <time>1970-01-01T03:10:58.000Z</time>
      </trkpt>
      <trkpt lat="42.301233" lon="-8.788403">
        <ele>160.3</ele>
        <time>1970-01-01T03:10:59.000Z</time>
      </trkpt>
      <trkpt lat="42.301233" lon="-8.788403">
        <ele>160.3</ele>
        <time>1970-01-01T03:11:00.000Z</time>
      </trkpt>
      <trkpt lat="42.301232" lon="-8.788403">
        <ele>159.3</ele>
        <time>1970-01-01T03:11:01.000Z</time>
      </trkpt>
      <trkpt lat="42.301228" lon="-8.788405">
        <ele>159.3</ele>
        <time>1970-01-01T03:11:02.000Z</time>
      </trkpt>
      <trkpt lat="42.301225" lon="-8.788413">
        <ele>159.3</ele>
        <time>1970-01-01T03:11:03.000Z</time>
      </trkpt>
      <trkpt lat="42.301223" lon="-8.788425">
        <ele>159.3</ele>
        <time>1970-01-01T03:11:04.000Z</time>
      </trkpt>
      <trkpt lat="42.301218" lon="-8.78844">
        <ele>158.2</ele>
        <time>1970-01-01T03:11:05.000Z</time>
      </trkpt>
      <trkpt lat="42.301213" lon="-8.788453">
        <ele>158.2</ele>
        <time>1970-01-01T03:11:06.000Z</time>
      </trkpt>
      <trkpt lat="42.301203" lon="-8.788463">
        <ele>158.2</ele>
        <time>1970-01-01T03:11:07.000Z</time>
      </trkpt>
      <trkpt lat="42.301197" lon="-8.788465">
        <ele>158.2</ele>
        <time>1970-01-01T03:11:08.000Z</time>
      </trkpt>
      <trkpt lat="42.301188" lon="-8.788473">
        <ele>158.2</ele>
        <time>1970-01-01T03:11:09.000Z</time>
      </trkpt>
      <trkpt lat="42.301183" lon="-8.788488">
        <ele>158.2</ele>
        <time>1970-01-01T03:11:10.000Z</time>
      </trkpt>
      <trkpt lat="42.301187" lon="-8.788498">
        <ele>158.2</ele>
        <time>1970-01-01T03:11:11.000Z</time>
      </trkpt>
      <trkpt lat="42.30119" lon="-8.788507">
        <ele>158.2</ele>
        <time>1970-01-01T03:11:12.000Z</time>
      </trkpt>
      <trkpt lat="42.301187" lon="-8.78852">
        <ele>158.2</ele>
        <time>1970-01-01T03:11:13.000Z</time>
      </trkpt>
      <trkpt lat="42.301183" lon="-8.78853">
        <ele>158.2</ele>
        <time>1970-01-01T03:11:14.000Z</time>
      </trkpt>
      <trkpt lat="42.301183" lon="-8.78854">
        <ele>158.2</ele>
        <time>1970-01-01T03:11:15.000Z</time>
      </trkpt>
      <trkpt lat="42.301187" lon="-8.788548">
        <ele>158.2</ele>
        <time>1970-01-01T03:11:16.000Z</time>
      </trkpt>
      <trkpt lat="42.301192" lon="-8.788555">
        <ele>158.2</ele>
        <time>1970-01-01T03:11:17.000Z</time>
      </trkpt>
      <trkpt lat="42.301197" lon="-8.788562">
        <ele>158.2</ele>
        <time>1970-01-01T03:11:18.000Z</time>
      </trkpt>
      <trkpt lat="42.301203" lon="-8.788567">
        <ele>158.2</ele>
        <time>1970-01-01T03:11:19.000Z</time>
      </trkpt>
      <trkpt lat="42.301207" lon="-8.788572">
        <ele>158.2</ele>
        <time>1970-01-01T03:11:20.000Z</time>
      </trkpt>
      <trkpt lat="42.30121" lon="-8.788575">
        <ele>158.2</ele>
        <time>1970-01-01T03:11:21.000Z</time>
      </trkpt>
      <trkpt lat="42.301212" lon="-8.788577">
        <ele>158.2</ele>
        <time>1970-01-01T03:11:22.000Z</time>
      </trkpt>
      <trkpt lat="42.301212" lon="-8.788578">
        <ele>158.2</ele>
        <time>1970-01-01T03:11:23.000Z</time>
      </trkpt>
      <trkpt lat="42.30121" lon="-8.788582">
        <ele>158.2</ele>
        <time>1970-01-01T03:11:24.000Z</time>
      </trkpt>
      <trkpt lat="42.301212" lon="-8.788582">
        <ele>158.2</ele>
        <time>1970-01-01T03:11:25.000Z</time>
      </trkpt>
      <trkpt lat="42.301215" lon="-8.788585">
        <ele>158.2</ele>
        <time>1970-01-01T03:11:26.000Z</time>
      </trkpt>
      <trkpt lat="42.301218" lon="-8.788592">
        <ele>157.3</ele>
        <time>1970-01-01T03:11:27.000Z</time>
      </trkpt>
      <trkpt lat="42.301223" lon="-8.788602">
        <ele>157.3</ele>
        <time>1970-01-01T03:11:28.000Z</time>
      </trkpt>
      <trkpt lat="42.301227" lon="-8.788613">
        <ele>157.3</ele>
        <time>1970-01-01T03:11:29.000Z</time>
      </trkpt>
      <trkpt lat="42.301233" lon="-8.788617">
        <ele>157.3</ele>
        <time>1970-01-01T03:11:30.000Z</time>
      </trkpt>
      <trkpt lat="42.301235" lon="-8.788618">
        <ele>156.2</ele>
        <time>1970-01-01T03:11:31.000Z</time>
      </trkpt>
      <trkpt lat="42.301242" lon="-8.788627">
        <ele>156.2</ele>
        <time>1970-01-01T03:11:32.000Z</time>
      </trkpt>
      <trkpt lat="42.301245" lon="-8.788635">
        <ele>156.2</ele>
        <time>1970-01-01T03:11:33.000Z</time>
      </trkpt>
      <trkpt lat="42.30125" lon="-8.788645">
        <ele>156.2</ele>
        <time>1970-01-01T03:11:34.000Z</time>
      </trkpt>
      <trkpt lat="42.301253" lon="-8.788655">
        <ele>155.3</ele>
        <time>1970-01-01T03:11:35.000Z</time>
      </trkpt>
      <trkpt lat="42.301258" lon="-8.788663">
        <ele>155.3</ele>
        <time>1970-01-01T03:11:36.000Z</time>
      </trkpt>
      <trkpt lat="42.30126" lon="-8.788675">
        <ele>154.2</ele>
        <time>1970-01-01T03:11:37.000Z</time>
      </trkpt>
      <trkpt lat="42.301262" lon="-8.788687">
        <ele>154.2</ele>
        <time>1970-01-01T03:11:38.000Z</time>
      </trkpt>
      <trkpt lat="42.301263" lon="-8.788698">
        <ele>154.2</ele>
        <time>1970-01-01T03:11:39.000Z</time>
      </trkpt>
      <trkpt lat="42.301268" lon="-8.788717">
        <ele>154.2</ele>
        <time>1970-01-01T03:11:40.000Z</time>
      </trkpt>
      <trkpt lat="42.301277" lon="-8.788733">
        <ele>154.2</ele>
        <time>1970-01-01T03:11:41.000Z</time>
      </trkpt>
      <trkpt lat="42.301277" lon="-8.788737">
        <ele>154.2</ele>
        <time>1970-01-01T03:11:42.000Z</time>
      </trkpt>
      <trkpt lat="42.301277" lon="-8.78874">
        <ele>155.3</ele>
        <time>1970-01-01T03:11:43.000Z</time>
      </trkpt>
      <trkpt lat="42.301282" lon="-8.788748">
        <ele>155.3</ele>
        <time>1970-01-01T03:11:44.000Z</time>
      </trkpt>
      <trkpt lat="42.301283" lon="-8.788752">
        <ele>155.3</ele>
        <time>1970-01-01T03:11:45.000Z</time>
      </trkpt>
      <trkpt lat="42.30129" lon="-8.788758">
        <ele>155.3</ele>
        <time>1970-01-01T03:11:46.000Z</time>
      </trkpt>
      <trkpt lat="42.301303" lon="-8.788768">
        <ele>154.2</ele>
        <time>1970-01-01T03:11:47.000Z</time>
      </trkpt>
      <trkpt lat="42.301318" lon="-8.788782">
        <ele>154.2</ele>
        <time>1970-01-01T03:11:48.000Z</time>
      </trkpt>
      <trkpt lat="42.301328" lon="-8.788797">
        <ele>154.2</ele>
        <time>1970-01-01T03:11:49.000Z</time>
      </trkpt>
      <trkpt lat="42.301333" lon="-8.788815">
        <ele>154.2</ele>
        <time>1970-01-01T03:11:50.000Z</time>
      </trkpt>
      <trkpt lat="42.301335" lon="-8.788835">
        <ele>153.3</ele>
        <time>1970-01-01T03:11:51.000Z</time>
      </trkpt>
      <trkpt lat="42.301337" lon="-8.788853">
        <ele>153.3</ele>
        <time>1970-01-01T03:11:52.000Z</time>
      </trkpt>
      <trkpt lat="42.301343" lon="-8.788872">
        <ele>152.2</ele>
        <time>1970-01-01T03:11:53.000Z</time>
      </trkpt>
      <trkpt lat="42.301348" lon="-8.788892">
        <ele>152.2</ele>
        <time>1970-01-01T03:11:54.000Z</time>
      </trkpt>
      <trkpt lat="42.301358" lon="-8.788908">
        <ele>151.3</ele>
        <time>1970-01-01T03:11:55.000Z</time>
      </trkpt>
      <trkpt lat="42.301367" lon="-8.788928">
        <ele>151.3</ele>
        <time>1970-01-01T03:11:56.000Z</time>
      </trkpt>
      <trkpt lat="42.301382" lon="-8.78894">
        <ele>151.3</ele>
        <time>1970-01-01T03:11:57.000Z</time>
      </trkpt>
      <trkpt lat="42.301397" lon="-8.788953">
        <ele>151.3</ele>
        <time>1970-01-01T03:11:58.000Z</time>
      </trkpt>
      <trkpt lat="42.3014" lon="-8.788958">
        <ele>151.3</ele>
        <time>1970-01-01T03:11:59.000Z</time>
      </trkpt>
      <trkpt lat="42.301412" lon="-8.788967">
        <ele>151.3</ele>
        <time>1970-01-01T03:12:00.000Z</time>
      </trkpt>
      <trkpt lat="42.30142" lon="-8.788978">
        <ele>150.3</ele>
        <time>1970-01-01T03:12:01.000Z</time>
      </trkpt>
      <trkpt lat="42.301418" lon="-8.78899">
        <ele>150.3</ele>
        <time>1970-01-01T03:12:02.000Z</time>
      </trkpt>
      <trkpt lat="42.301418" lon="-8.789003">
        <ele>150.3</ele>
        <time>1970-01-01T03:12:03.000Z</time>
      </trkpt>
      <trkpt lat="42.30142" lon="-8.789023">
        <ele>150.3</ele>
        <time>1970-01-01T03:12:04.000Z</time>
      </trkpt>
      <trkpt lat="42.30142" lon="-8.789037">
        <ele>149.2</ele>
        <time>1970-01-01T03:12:05.000Z</time>
      </trkpt>
      <trkpt lat="42.301422" lon="-8.78905">
        <ele>149.2</ele>
        <time>1970-01-01T03:12:06.000Z</time>
      </trkpt>
      <trkpt lat="42.301422" lon="-8.789065">
        <ele>149.2</ele>
        <time>1970-01-01T03:12:07.000Z</time>
      </trkpt>
      <trkpt lat="42.301423" lon="-8.789083">
        <ele>149.2</ele>
        <time>1970-01-01T03:12:08.000Z</time>
      </trkpt>
      <trkpt lat="42.301425" lon="-8.789095">
        <ele>148.3</ele>
        <time>1970-01-01T03:12:09.000Z</time>
      </trkpt>
      <trkpt lat="42.301427" lon="-8.789105">
        <ele>148.3</ele>
        <time>1970-01-01T03:12:10.000Z</time>
      </trkpt>
      <trkpt lat="42.301432" lon="-8.789117">
        <ele>148.3</ele>
        <time>1970-01-01T03:12:11.000Z</time>
      </trkpt>
      <trkpt lat="42.301438" lon="-8.789123">
        <ele>148.3</ele>
        <time>1970-01-01T03:12:12.000Z</time>
      </trkpt>
      <trkpt lat="42.301448" lon="-8.789125">
        <ele>147.2</ele>
        <time>1970-01-01T03:12:13.000Z</time>
      </trkpt>
      <trkpt lat="42.301448" lon="-8.789138">
        <ele>147.2</ele>
        <time>1970-01-01T03:12:14.000Z</time>
      </trkpt>
      <trkpt lat="42.301455" lon="-8.789153">
        <ele>147.2</ele>
        <time>1970-01-01T03:12:15.000Z</time>
      </trkpt>
      <trkpt lat="42.301467" lon="-8.789167">
        <ele>147.2</ele>
        <time>1970-01-01T03:12:16.000Z</time>
      </trkpt>
      <trkpt lat="42.301478" lon="-8.789182">
        <ele>147.2</ele>
        <time>1970-01-01T03:12:17.000Z</time>
      </trkpt>
      <trkpt lat="42.30148" lon="-8.789202">
        <ele>147.2</ele>
        <time>1970-01-01T03:12:18.000Z</time>
      </trkpt>
      <trkpt lat="42.301487" lon="-8.789213">
        <ele>145.2</ele>
        <time>1970-01-01T03:12:19.000Z</time>
      </trkpt>
      <trkpt lat="42.3015" lon="-8.789218">
        <ele>145.2</ele>
        <time>1970-01-01T03:12:20.000Z</time>
      </trkpt>
      <trkpt lat="42.301515" lon="-8.789228">
        <ele>145.2</ele>
        <time>1970-01-01T03:12:21.000Z</time>
      </trkpt>
      <trkpt lat="42.301522" lon="-8.789238">
        <ele>145.2</ele>
        <time>1970-01-01T03:12:22.000Z</time>
      </trkpt>
      <trkpt lat="42.301525" lon="-8.78925">
        <ele>144.3</ele>
        <time>1970-01-01T03:12:23.000Z</time>
      </trkpt>
      <trkpt lat="42.301527" lon="-8.789257">
        <ele>144.3</ele>
        <time>1970-01-01T03:12:24.000Z</time>
      </trkpt>
      <trkpt lat="42.301527" lon="-8.78927">
        <ele>144.3</ele>
        <time>1970-01-01T03:12:25.000Z</time>
      </trkpt>
      <trkpt lat="42.301532" lon="-8.78928">
        <ele>144.3</ele>
        <time>1970-01-01T03:12:26.000Z</time>
      </trkpt>
      <trkpt lat="42.301538" lon="-8.789292">
        <ele>144.3</ele>
        <time>1970-01-01T03:12:27.000Z</time>
      </trkpt>
      <trkpt lat="42.301543" lon="-8.789297">
        <ele>144.3</ele>
        <time>1970-01-01T03:12:28.000Z</time>
      </trkpt>
      <trkpt lat="42.301545" lon="-8.789307">
        <ele>144.3</ele>
        <time>1970-01-01T03:12:29.000Z</time>
      </trkpt>
      <trkpt lat="42.301543" lon="-8.789317">
        <ele>144.3</ele>
        <time>1970-01-01T03:12:30.000Z</time>
      </trkpt>
      <trkpt lat="42.301545" lon="-8.78932">
        <ele>143.3</ele>
        <time>1970-01-01T03:12:31.000Z</time>
      </trkpt>
      <trkpt lat="42.301553" lon="-8.789322">
        <ele>143.3</ele>
        <time>1970-01-01T03:12:32.000Z</time>
      </trkpt>
      <trkpt lat="42.301563" lon="-8.789322">
        <ele>143.3</ele>
        <time>1970-01-01T03:12:33.000Z</time>
      </trkpt>
      <trkpt lat="42.301583" lon="-8.789317">
        <ele>143.3</ele>
        <time>1970-01-01T03:12:34.000Z</time>
      </trkpt>
      <trkpt lat="42.301587" lon="-8.789325">
        <ele>143.3</ele>
        <time>1970-01-01T03:12:35.000Z</time>
      </trkpt>
      <trkpt lat="42.301587" lon="-8.789337">
        <ele>142.2</ele>
        <time>1970-01-01T03:12:36.000Z</time>
      </trkpt>
      <trkpt lat="42.301588" lon="-8.789348">
        <ele>142.2</ele>
        <time>1970-01-01T03:12:37.000Z</time>
      </trkpt>
      <trkpt lat="42.301587" lon="-8.789362">
        <ele>142.2</ele>
        <time>1970-01-01T03:12:38.000Z</time>
      </trkpt>
      <trkpt lat="42.301583" lon="-8.789372">
        <ele>142.2</ele>
        <time>1970-01-01T03:12:39.000Z</time>
      </trkpt>
      <trkpt lat="42.301582" lon="-8.789383">
        <ele>142.2</ele>
        <time>1970-01-01T03:12:40.000Z</time>
      </trkpt>
      <trkpt lat="42.30158" lon="-8.789393">
        <ele>142.2</ele>
        <time>1970-01-01T03:12:41.000Z</time>
      </trkpt>
      <trkpt lat="42.30158" lon="-8.789403">
        <ele>142.2</ele>
        <time>1970-01-01T03:12:42.000Z</time>
      </trkpt>
      <trkpt lat="42.301582" lon="-8.789412">
        <ele>142.2</ele>
        <time>1970-01-01T03:12:43.000Z</time>
      </trkpt>
      <trkpt lat="42.30158" lon="-8.789423">
        <ele>140.2</ele>
        <time>1970-01-01T03:12:44.000Z</time>
      </trkpt>
      <trkpt lat="42.30158" lon="-8.789438">
        <ele>140.2</ele>
        <time>1970-01-01T03:12:45.000Z</time>
      </trkpt>
      <trkpt lat="42.301585" lon="-8.78945">
        <ele>140.2</ele>
        <time>1970-01-01T03:12:46.000Z</time>
      </trkpt>
      <trkpt lat="42.30159" lon="-8.789462">
        <ele>140.2</ele>
        <time>1970-01-01T03:12:47.000Z</time>
      </trkpt>
      <trkpt lat="42.301593" lon="-8.789475">
        <ele>139.3</ele>
        <time>1970-01-01T03:12:48.000Z</time>
      </trkpt>
      <trkpt lat="42.301595" lon="-8.78949">
        <ele>139.3</ele>
        <time>1970-01-01T03:12:49.000Z</time>
      </trkpt>
      <trkpt lat="42.301603" lon="-8.7895">
        <ele>139.3</ele>
        <time>1970-01-01T03:12:50.000Z</time>
      </trkpt>
      <trkpt lat="42.30161" lon="-8.78951">
        <ele>139.3</ele>
        <time>1970-01-01T03:12:51.000Z</time>
      </trkpt>
      <trkpt lat="42.301615" lon="-8.78952">
        <ele>138.2</ele>
        <time>1970-01-01T03:12:52.000Z</time>
      </trkpt>
      <trkpt lat="42.301615" lon="-8.789533">
        <ele>138.2</ele>
        <time>1970-01-01T03:12:53.000Z</time>
      </trkpt>
      <trkpt lat="42.301613" lon="-8.789545">
        <ele>137.3</ele>
        <time>1970-01-01T03:12:54.000Z</time>
      </trkpt>
      <trkpt lat="42.301608" lon="-8.789557">
        <ele>137.3</ele>
        <time>1970-01-01T03:12:55.000Z</time>
      </trkpt>
      <trkpt lat="42.30161" lon="-8.789572">
        <ele>137.3</ele>
        <time>1970-01-01T03:12:56.000Z</time>
      </trkpt>
      <trkpt lat="42.301613" lon="-8.789592">
        <ele>137.3</ele>
        <time>1970-01-01T03:12:57.000Z</time>
      </trkpt>
      <trkpt lat="42.301617" lon="-8.789607">
        <ele>137.3</ele>
        <time>1970-01-01T03:12:58.000Z</time>
      </trkpt>
      <trkpt lat="42.301618" lon="-8.789615">
        <ele>137.3</ele>
        <time>1970-01-01T03:12:59.000Z</time>
      </trkpt>
      <trkpt lat="42.301622" lon="-8.789623">
        <ele>136.2</ele>
        <time>1970-01-01T03:13:00.000Z</time>
      </trkpt>
      <trkpt lat="42.301627" lon="-8.789633">
        <ele>136.2</ele>
        <time>1970-01-01T03:13:01.000Z</time>
      </trkpt>
      <trkpt lat="42.301633" lon="-8.789645">
        <ele>136.2</ele>
        <time>1970-01-01T03:13:02.000Z</time>
      </trkpt>
      <trkpt lat="42.301642" lon="-8.789657">
        <ele>136.2</ele>
        <time>1970-01-01T03:13:03.000Z</time>
      </trkpt>
      <trkpt lat="42.301647" lon="-8.789667">
        <ele>135.3</ele>
        <time>1970-01-01T03:13:04.000Z</time>
      </trkpt>
      <trkpt lat="42.301657" lon="-8.789687">
        <ele>135.3</ele>
        <time>1970-01-01T03:13:05.000Z</time>
      </trkpt>
      <trkpt lat="42.30167" lon="-8.789708">
        <ele>135.3</ele>
        <time>1970-01-01T03:13:06.000Z</time>
      </trkpt>
      <trkpt lat="42.301675" lon="-8.789713">
        <ele>135.3</ele>
        <time>1970-01-01T03:13:07.000Z</time>
      </trkpt>
      <trkpt lat="42.301687" lon="-8.789727">
        <ele>134.3</ele>
        <time>1970-01-01T03:13:08.000Z</time>
      </trkpt>
      <trkpt lat="42.301683" lon="-8.78974">
        <ele>134.3</ele>
        <time>1970-01-01T03:13:09.000Z</time>
      </trkpt>
      <trkpt lat="42.30168" lon="-8.789752">
        <ele>134.3</ele>
        <time>1970-01-01T03:13:10.000Z</time>
      </trkpt>
      <trkpt lat="42.301683" lon="-8.789753">
        <ele>134.3</ele>
        <time>1970-01-01T03:13:11.000Z</time>
      </trkpt>
      <trkpt lat="42.301685" lon="-8.789755">
        <ele>133.2</ele>
        <time>1970-01-01T03:13:12.000Z</time>
      </trkpt>
      <trkpt lat="42.301688" lon="-8.789755">
        <ele>133.2</ele>
        <time>1970-01-01T03:13:13.000Z</time>
      </trkpt>
      <trkpt lat="42.301698" lon="-8.789752">
        <ele>133.2</ele>
        <time>1970-01-01T03:13:14.000Z</time>
      </trkpt>
      <trkpt lat="42.301712" lon="-8.789755">
        <ele>133.2</ele>
        <time>1970-01-01T03:13:15.000Z</time>
      </trkpt>
      <trkpt lat="42.301715" lon="-8.789755">
        <ele>133.2</ele>
        <time>1970-01-01T03:13:16.000Z</time>
      </trkpt>
      <trkpt lat="42.301717" lon="-8.789755">
        <ele>133.2</ele>
        <time>1970-01-01T03:13:17.000Z</time>
      </trkpt>
      <trkpt lat="42.301715" lon="-8.789763">
        <ele>133.2</ele>
        <time>1970-01-01T03:13:18.000Z</time>
      </trkpt>
      <trkpt lat="42.301722" lon="-8.789768">
        <ele>133.2</ele>
        <time>1970-01-01T03:13:19.000Z</time>
      </trkpt>
      <trkpt lat="42.301732" lon="-8.789773">
        <ele>133.2</ele>
        <time>1970-01-01T03:13:20.000Z</time>
      </trkpt>
      <trkpt lat="42.301735" lon="-8.78979">
        <ele>133.2</ele>
        <time>1970-01-01T03:13:21.000Z</time>
      </trkpt>
      <trkpt lat="42.301738" lon="-8.789802">
        <ele>132.3</ele>
        <time>1970-01-01T03:13:22.000Z</time>
      </trkpt>
      <trkpt lat="42.301743" lon="-8.789808">
        <ele>132.3</ele>
        <time>1970-01-01T03:13:23.000Z</time>
      </trkpt>
      <trkpt lat="42.301748" lon="-8.789815">
        <ele>132.3</ele>
        <time>1970-01-01T03:13:24.000Z</time>
      </trkpt>
      <trkpt lat="42.30175" lon="-8.789822">
        <ele>132.3</ele>
        <time>1970-01-01T03:13:25.000Z</time>
      </trkpt>
      <trkpt lat="42.301753" lon="-8.789828">
        <ele>132.3</ele>
        <time>1970-01-01T03:13:26.000Z</time>
      </trkpt>
      <trkpt lat="42.301758" lon="-8.789835">
        <ele>132.3</ele>
        <time>1970-01-01T03:13:27.000Z</time>
      </trkpt>
      <trkpt lat="42.301767" lon="-8.789843">
        <ele>131.2</ele>
        <time>1970-01-01T03:13:28.000Z</time>
      </trkpt>
      <trkpt lat="42.301778" lon="-8.789845">
        <ele>131.2</ele>
        <time>1970-01-01T03:13:29.000Z</time>
      </trkpt>
      <trkpt lat="42.301793" lon="-8.78984">
        <ele>130.3</ele>
        <time>1970-01-01T03:13:30.000Z</time>
      </trkpt>
      <trkpt lat="42.301807" lon="-8.789832">
        <ele>130.3</ele>
        <time>1970-01-01T03:13:31.000Z</time>
      </trkpt>
      <trkpt lat="42.301828" lon="-8.789817">
        <ele>129.2</ele>
        <time>1970-01-01T03:13:32.000Z</time>
      </trkpt>
      <trkpt lat="42.301843" lon="-8.789808">
        <ele>129.2</ele>
        <time>1970-01-01T03:13:33.000Z</time>
      </trkpt>
      <trkpt lat="42.301857" lon="-8.789798">
        <ele>129.2</ele>
        <time>1970-01-01T03:13:34.000Z</time>
      </trkpt>
      <trkpt lat="42.301868" lon="-8.789788">
        <ele>129.2</ele>
        <time>1970-01-01T03:13:35.000Z</time>
      </trkpt>
      <trkpt lat="42.30188" lon="-8.789777">
        <ele>128.3</ele>
        <time>1970-01-01T03:13:36.000Z</time>
      </trkpt>
      <trkpt lat="42.301892" lon="-8.789772">
        <ele>128.3</ele>
        <time>1970-01-01T03:13:37.000Z</time>
      </trkpt>
      <trkpt lat="42.301903" lon="-8.789767">
        <ele>128.3</ele>
        <time>1970-01-01T03:13:38.000Z</time>
      </trkpt>
      <trkpt lat="42.301912" lon="-8.789762">
        <ele>128.3</ele>
        <time>1970-01-01T03:13:39.000Z</time>
      </trkpt>
      <trkpt lat="42.30192" lon="-8.789762">
        <ele>127.3</ele>
        <time>1970-01-01T03:13:40.000Z</time>
      </trkpt>
      <trkpt lat="42.301927" lon="-8.789758">
        <ele>127.3</ele>
        <time>1970-01-01T03:13:41.000Z</time>
      </trkpt>
      <trkpt lat="42.301932" lon="-8.789758">
        <ele>126.3</ele>
        <time>1970-01-01T03:13:42.000Z</time>
      </trkpt>
      <trkpt lat="42.301937" lon="-8.789758">
        <ele>126.3</ele>
        <time>1970-01-01T03:13:43.000Z</time>
      </trkpt>
      <trkpt lat="42.301938" lon="-8.789762">
        <ele>125.3</ele>
        <time>1970-01-01T03:13:44.000Z</time>
      </trkpt>
      <trkpt lat="42.301937" lon="-8.789773">
        <ele>125.3</ele>
        <time>1970-01-01T03:13:45.000Z</time>
      </trkpt>
      <trkpt lat="42.301935" lon="-8.78978">
        <ele>125.3</ele>
        <time>1970-01-01T03:13:46.000Z</time>
      </trkpt>
      <trkpt lat="42.301928" lon="-8.789787">
        <ele>125.3</ele>
        <time>1970-01-01T03:13:47.000Z</time>
      </trkpt>
      <trkpt lat="42.301925" lon="-8.789797">
        <ele>124.2</ele>
        <time>1970-01-01T03:13:48.000Z</time>
      </trkpt>
      <trkpt lat="42.301922" lon="-8.789808">
        <ele>124.2</ele>
        <time>1970-01-01T03:13:49.000Z</time>
      </trkpt>
      <trkpt lat="42.30192" lon="-8.789822">
        <ele>124.2</ele>
        <time>1970-01-01T03:13:50.000Z</time>
      </trkpt>
      <trkpt lat="42.301918" lon="-8.789828">
        <ele>124.2</ele>
        <time>1970-01-01T03:13:51.000Z</time>
      </trkpt>
      <trkpt lat="42.301918" lon="-8.789835">
        <ele>124.2</ele>
        <time>1970-01-01T03:13:52.000Z</time>
      </trkpt>
      <trkpt lat="42.301915" lon="-8.789848">
        <ele>124.2</ele>
        <time>1970-01-01T03:13:53.000Z</time>
      </trkpt>
      <trkpt lat="42.301905" lon="-8.789868">
        <ele>123.3</ele>
        <time>1970-01-01T03:13:54.000Z</time>
      </trkpt>
      <trkpt lat="42.301902" lon="-8.789877">
        <ele>123.3</ele>
        <time>1970-01-01T03:13:55.000Z</time>
      </trkpt>
      <trkpt lat="42.301902" lon="-8.789887">
        <ele>122.2</ele>
        <time>1970-01-01T03:13:56.000Z</time>
      </trkpt>
      <trkpt lat="42.301903" lon="-8.789897">
        <ele>122.2</ele>
        <time>1970-01-01T03:13:57.000Z</time>
      </trkpt>
      <trkpt lat="42.30191" lon="-8.78991">
        <ele>122.2</ele>
        <time>1970-01-01T03:13:58.000Z</time>
      </trkpt>
      <trkpt lat="42.301913" lon="-8.78992">
        <ele>122.2</ele>
        <time>1970-01-01T03:13:59.000Z</time>
      </trkpt>
      <trkpt lat="42.30192" lon="-8.789928">
        <ele>121.3</ele>
        <time>1970-01-01T03:14:00.000Z</time>
      </trkpt>
      <trkpt lat="42.301922" lon="-8.789942">
        <ele>121.3</ele>
        <time>1970-01-01T03:14:01.000Z</time>
      </trkpt>
      <trkpt lat="42.301922" lon="-8.789953">
        <ele>121.3</ele>
        <time>1970-01-01T03:14:02.000Z</time>
      </trkpt>
      <trkpt lat="42.301925" lon="-8.789967">
        <ele>121.3</ele>
        <time>1970-01-01T03:14:03.000Z</time>
      </trkpt>
      <trkpt lat="42.301928" lon="-8.789978">
        <ele>120.2</ele>
        <time>1970-01-01T03:14:04.000Z</time>
      </trkpt>
      <trkpt lat="42.301928" lon="-8.789992">
        <ele>120.2</ele>
        <time>1970-01-01T03:14:05.000Z</time>
      </trkpt>
      <trkpt lat="42.30193" lon="-8.790003">
        <ele>119.3</ele>
        <time>1970-01-01T03:14:06.000Z</time>
      </trkpt>
      <trkpt lat="42.301933" lon="-8.790017">
        <ele>119.3</ele>
        <time>1970-01-01T03:14:07.000Z</time>
      </trkpt>
      <trkpt lat="42.301933" lon="-8.79003">
        <ele>119.3</ele>
        <time>1970-01-01T03:14:08.000Z</time>
      </trkpt>
      <trkpt lat="42.301937" lon="-8.790045">
        <ele>119.3</ele>
        <time>1970-01-01T03:14:09.000Z</time>
      </trkpt>
      <trkpt lat="42.301942" lon="-8.790057">
        <ele>118.3</ele>
        <time>1970-01-01T03:14:10.000Z</time>
      </trkpt>
      <trkpt lat="42.30194" lon="-8.790068">
        <ele>118.3</ele>
        <time>1970-01-01T03:14:11.000Z</time>
      </trkpt>
      <trkpt lat="42.301938" lon="-8.79008">
        <ele>118.3</ele>
        <time>1970-01-01T03:14:12.000Z</time>
      </trkpt>
      <trkpt lat="42.301937" lon="-8.790097">
        <ele>118.3</ele>
        <time>1970-01-01T03:14:13.000Z</time>
      </trkpt>
      <trkpt lat="42.301935" lon="-8.790115">
        <ele>118.3</ele>
        <time>1970-01-01T03:14:14.000Z</time>
      </trkpt>
      <trkpt lat="42.301937" lon="-8.79013">
        <ele>118.3</ele>
        <time>1970-01-01T03:14:15.000Z</time>
      </trkpt>
      <trkpt lat="42.301938" lon="-8.790145">
        <ele>118.3</ele>
        <time>1970-01-01T03:14:16.000Z</time>
      </trkpt>
      <trkpt lat="42.301938" lon="-8.79016">
        <ele>118.3</ele>
        <time>1970-01-01T03:14:17.000Z</time>
      </trkpt>
      <trkpt lat="42.30194" lon="-8.790168">
        <ele>118.3</ele>
        <time>1970-01-01T03:14:18.000Z</time>
      </trkpt>
      <trkpt lat="42.301945" lon="-8.790177">
        <ele>118.3</ele>
        <time>1970-01-01T03:14:19.000Z</time>
      </trkpt>
      <trkpt lat="42.301952" lon="-8.790188">
        <ele>116.3</ele>
        <time>1970-01-01T03:14:20.000Z</time>
      </trkpt>
      <trkpt lat="42.301957" lon="-8.790195">
        <ele>116.3</ele>
        <time>1970-01-01T03:14:21.000Z</time>
      </trkpt>
      <trkpt lat="42.301963" lon="-8.790207">
        <ele>115.2</ele>
        <time>1970-01-01T03:14:22.000Z</time>
      </trkpt>
      <trkpt lat="42.30197" lon="-8.790223">
        <ele>115.2</ele>
        <time>1970-01-01T03:14:23.000Z</time>
      </trkpt>
      <trkpt lat="42.301973" lon="-8.790237">
        <ele>115.2</ele>
        <time>1970-01-01T03:14:24.000Z</time>
      </trkpt>
      <trkpt lat="42.301975" lon="-8.790252">
        <ele>115.2</ele>
        <time>1970-01-01T03:14:25.000Z</time>
      </trkpt>
      <trkpt lat="42.301982" lon="-8.790265">
        <ele>115.2</ele>
        <time>1970-01-01T03:14:26.000Z</time>
      </trkpt>
      <trkpt lat="42.301988" lon="-8.790282">
        <ele>115.2</ele>
        <time>1970-01-01T03:14:27.000Z</time>
      </trkpt>
      <trkpt lat="42.301993" lon="-8.790297">
        <ele>115.2</ele>
        <time>1970-01-01T03:14:28.000Z</time>
      </trkpt>
      <trkpt lat="42.302002" lon="-8.790303">
        <ele>115.2</ele>
        <time>1970-01-01T03:14:29.000Z</time>
      </trkpt>
      <trkpt lat="42.302005" lon="-8.79031">
        <ele>115.2</ele>
        <time>1970-01-01T03:14:30.000Z</time>
      </trkpt>
      <trkpt lat="42.302008" lon="-8.79032">
        <ele>115.2</ele>
        <time>1970-01-01T03:14:31.000Z</time>
      </trkpt>
      <trkpt lat="42.30201" lon="-8.790337">
        <ele>112.3</ele>
        <time>1970-01-01T03:14:32.000Z</time>
      </trkpt>
      <trkpt lat="42.302015" lon="-8.790352">
        <ele>112.3</ele>
        <time>1970-01-01T03:14:33.000Z</time>
      </trkpt>
      <trkpt lat="42.302013" lon="-8.79037">
        <ele>112.3</ele>
        <time>1970-01-01T03:14:34.000Z</time>
      </trkpt>
      <trkpt lat="42.302015" lon="-8.790383">
        <ele>112.3</ele>
        <time>1970-01-01T03:14:35.000Z</time>
      </trkpt>
      <trkpt lat="42.302012" lon="-8.790402">
        <ele>111.3</ele>
        <time>1970-01-01T03:14:36.000Z</time>
      </trkpt>
      <trkpt lat="42.302008" lon="-8.790423">
        <ele>111.3</ele>
        <time>1970-01-01T03:14:37.000Z</time>
      </trkpt>
      <trkpt lat="42.302007" lon="-8.790435">
        <ele>111.3</ele>
        <time>1970-01-01T03:14:38.000Z</time>
      </trkpt>
      <trkpt lat="42.302005" lon="-8.790447">
        <ele>111.3</ele>
        <time>1970-01-01T03:14:39.000Z</time>
      </trkpt>
      <trkpt lat="42.302" lon="-8.79046">
        <ele>111.3</ele>
        <time>1970-01-01T03:14:40.000Z</time>
      </trkpt>
      <trkpt lat="42.301995" lon="-8.790475">
        <ele>111.3</ele>
        <time>1970-01-01T03:14:41.000Z</time>
      </trkpt>
      <trkpt lat="42.301993" lon="-8.790483">
        <ele>109.3</ele>
        <time>1970-01-01T03:14:42.000Z</time>
      </trkpt>
      <trkpt lat="42.301988" lon="-8.790488">
        <ele>109.3</ele>
        <time>1970-01-01T03:14:43.000Z</time>
      </trkpt>
      <trkpt lat="42.301983" lon="-8.790497">
        <ele>109.3</ele>
        <time>1970-01-01T03:14:44.000Z</time>
      </trkpt>
      <trkpt lat="42.301978" lon="-8.790502">
        <ele>109.3</ele>
        <time>1970-01-01T03:14:45.000Z</time>
      </trkpt>
      <trkpt lat="42.301973" lon="-8.790508">
        <ele>109.3</ele>
        <time>1970-01-01T03:14:46.000Z</time>
      </trkpt>
      <trkpt lat="42.301973" lon="-8.79051">
        <ele>109.3</ele>
        <time>1970-01-01T03:14:47.000Z</time>
      </trkpt>
      <trkpt lat="42.301972" lon="-8.790513">
        <ele>109.3</ele>
        <time>1970-01-01T03:14:48.000Z</time>
      </trkpt>
      <trkpt lat="42.301978" lon="-8.790518">
        <ele>109.3</ele>
        <time>1970-01-01T03:14:49.000Z</time>
      </trkpt>
      <trkpt lat="42.301983" lon="-8.790528">
        <ele>109.3</ele>
        <time>1970-01-01T03:14:50.000Z</time>
      </trkpt>
      <trkpt lat="42.301988" lon="-8.790538">
        <ele>109.3</ele>
        <time>1970-01-01T03:14:51.000Z</time>
      </trkpt>
      <trkpt lat="42.301993" lon="-8.790552">
        <ele>109.3</ele>
        <time>1970-01-01T03:14:52.000Z</time>
      </trkpt>
      <trkpt lat="42.302005" lon="-8.790572">
        <ele>109.3</ele>
        <time>1970-01-01T03:14:53.000Z</time>
      </trkpt>
      <trkpt lat="42.302018" lon="-8.790577">
        <ele>109.3</ele>
        <time>1970-01-01T03:14:54.000Z</time>
      </trkpt>
      <trkpt lat="42.302032" lon="-8.790577">
        <ele>109.3</ele>
        <time>1970-01-01T03:14:55.000Z</time>
      </trkpt>
      <trkpt lat="42.302053" lon="-8.790577">
        <ele>109.3</ele>
        <time>1970-01-01T03:14:56.000Z</time>
      </trkpt>
      <trkpt lat="42.302073" lon="-8.790573">
        <ele>109.3</ele>
        <time>1970-01-01T03:14:57.000Z</time>
      </trkpt>
      <trkpt lat="42.302093" lon="-8.790568">
        <ele>109.3</ele>
        <time>1970-01-01T03:14:58.000Z</time>
      </trkpt>
      <trkpt lat="42.302112" lon="-8.790562">
        <ele>109.3</ele>
        <time>1970-01-01T03:14:59.000Z</time>
      </trkpt>
      <trkpt lat="42.302125" lon="-8.79055">
        <ele>108.2</ele>
        <time>1970-01-01T03:15:00.000Z</time>
      </trkpt>
      <trkpt lat="42.302137" lon="-8.79054">
        <ele>108.2</ele>
        <time>1970-01-01T03:15:01.000Z</time>
      </trkpt>
      <trkpt lat="42.302152" lon="-8.79053">
        <ele>108.2</ele>
        <time>1970-01-01T03:15:02.000Z</time>
      </trkpt>
      <trkpt lat="42.302165" lon="-8.790522">
        <ele>108.2</ele>
        <time>1970-01-01T03:15:03.000Z</time>
      </trkpt>
      <trkpt lat="42.302183" lon="-8.790513">
        <ele>108.2</ele>
        <time>1970-01-01T03:15:04.000Z</time>
      </trkpt>
      <trkpt lat="42.302195" lon="-8.790513">
        <ele>108.2</ele>
        <time>1970-01-01T03:15:05.000Z</time>
      </trkpt>
      <trkpt lat="42.302207" lon="-8.790515">
        <ele>108.2</ele>
        <time>1970-01-01T03:15:06.000Z</time>
      </trkpt>
      <trkpt lat="42.302218" lon="-8.790515">
        <ele>108.2</ele>
        <time>1970-01-01T03:15:07.000Z</time>
      </trkpt>
      <trkpt lat="42.302232" lon="-8.790518">
        <ele>107.3</ele>
        <time>1970-01-01T03:15:08.000Z</time>
      </trkpt>
      <trkpt lat="42.302248" lon="-8.790517">
        <ele>107.3</ele>
        <time>1970-01-01T03:15:09.000Z</time>
      </trkpt>
      <trkpt lat="42.302258" lon="-8.790515">
        <ele>107.3</ele>
        <time>1970-01-01T03:15:10.000Z</time>
      </trkpt>
      <trkpt lat="42.302273" lon="-8.790508">
        <ele>107.3</ele>
        <time>1970-01-01T03:15:11.000Z</time>
      </trkpt>
      <trkpt lat="42.302288" lon="-8.790502">
        <ele>106.2</ele>
        <time>1970-01-01T03:15:12.000Z</time>
      </trkpt>
      <trkpt lat="42.302302" lon="-8.7905">
        <ele>106.2</ele>
        <time>1970-01-01T03:15:13.000Z</time>
      </trkpt>
      <trkpt lat="42.30231" lon="-8.790503">
        <ele>106.2</ele>
        <time>1970-01-01T03:15:14.000Z</time>
      </trkpt>
      <trkpt lat="42.302322" lon="-8.790505">
        <ele>106.2</ele>
        <time>1970-01-01T03:15:15.000Z</time>
      </trkpt>
      <trkpt lat="42.302327" lon="-8.790505">
        <ele>106.2</ele>
        <time>1970-01-01T03:15:16.000Z</time>
      </trkpt>
      <trkpt lat="42.30234" lon="-8.790503">
        <ele>106.2</ele>
        <time>1970-01-01T03:15:17.000Z</time>
      </trkpt>
      <trkpt lat="42.30235" lon="-8.790507">
        <ele>106.2</ele>
        <time>1970-01-01T03:15:18.000Z</time>
      </trkpt>
      <trkpt lat="42.30236" lon="-8.790515">
        <ele>106.2</ele>
        <time>1970-01-01T03:15:19.000Z</time>
      </trkpt>
      <trkpt lat="42.30237" lon="-8.790523">
        <ele>105.3</ele>
        <time>1970-01-01T03:15:20.000Z</time>
      </trkpt>
      <trkpt lat="42.302382" lon="-8.790533">
        <ele>105.3</ele>
        <time>1970-01-01T03:15:21.000Z</time>
      </trkpt>
      <trkpt lat="42.302393" lon="-8.790545">
        <ele>105.3</ele>
        <time>1970-01-01T03:15:22.000Z</time>
      </trkpt>
      <trkpt lat="42.3024" lon="-8.790558">
        <ele>105.3</ele>
        <time>1970-01-01T03:15:23.000Z</time>
      </trkpt>
      <trkpt lat="42.302408" lon="-8.79057">
        <ele>105.3</ele>
        <time>1970-01-01T03:15:24.000Z</time>
      </trkpt>
      <trkpt lat="42.302412" lon="-8.790583">
        <ele>105.3</ele>
        <time>1970-01-01T03:15:25.000Z</time>
      </trkpt>
      <trkpt lat="42.302417" lon="-8.790597">
        <ele>106.2</ele>
        <time>1970-01-01T03:15:26.000Z</time>
      </trkpt>
      <trkpt lat="42.302422" lon="-8.790613">
        <ele>106.2</ele>
        <time>1970-01-01T03:15:27.000Z</time>
      </trkpt>
      <trkpt lat="42.302427" lon="-8.790627">
        <ele>106.2</ele>
        <time>1970-01-01T03:15:28.000Z</time>
      </trkpt>
      <trkpt lat="42.302428" lon="-8.790638">
        <ele>106.2</ele>
        <time>1970-01-01T03:15:29.000Z</time>
      </trkpt>
      <trkpt lat="42.30243" lon="-8.790647">
        <ele>106.2</ele>
        <time>1970-01-01T03:15:30.000Z</time>
      </trkpt>
      <trkpt lat="42.302437" lon="-8.790658">
        <ele>106.2</ele>
        <time>1970-01-01T03:15:31.000Z</time>
      </trkpt>
      <trkpt lat="42.302445" lon="-8.790668">
        <ele>106.2</ele>
        <time>1970-01-01T03:15:32.000Z</time>
      </trkpt>
      <trkpt lat="42.302452" lon="-8.79068">
        <ele>106.2</ele>
        <time>1970-01-01T03:15:33.000Z</time>
      </trkpt>
      <trkpt lat="42.302455" lon="-8.790693">
        <ele>105.3</ele>
        <time>1970-01-01T03:15:34.000Z</time>
      </trkpt>
      <trkpt lat="42.302462" lon="-8.790705">
        <ele>105.3</ele>
        <time>1970-01-01T03:15:35.000Z</time>
      </trkpt>
      <trkpt lat="42.302472" lon="-8.790718">
        <ele>105.3</ele>
        <time>1970-01-01T03:15:36.000Z</time>
      </trkpt>
      <trkpt lat="42.302482" lon="-8.790728">
        <ele>105.3</ele>
        <time>1970-01-01T03:15:37.000Z</time>
      </trkpt>
      <trkpt lat="42.302492" lon="-8.790738">
        <ele>104.2</ele>
        <time>1970-01-01T03:15:38.000Z</time>
      </trkpt>
      <trkpt lat="42.302505" lon="-8.790745">
        <ele>104.2</ele>
        <time>1970-01-01T03:15:39.000Z</time>
      </trkpt>
      <trkpt lat="42.30252" lon="-8.790747">
        <ele>104.2</ele>
        <time>1970-01-01T03:15:40.000Z</time>
      </trkpt>
      <trkpt lat="42.302533" lon="-8.790745">
        <ele>104.2</ele>
        <time>1970-01-01T03:15:41.000Z</time>
      </trkpt>
      <trkpt lat="42.302545" lon="-8.790738">
        <ele>104.2</ele>
        <time>1970-01-01T03:15:42.000Z</time>
      </trkpt>
      <trkpt lat="42.302562" lon="-8.79073">
        <ele>104.2</ele>
        <time>1970-01-01T03:15:43.000Z</time>
      </trkpt>
      <trkpt lat="42.302582" lon="-8.790717">
        <ele>104.2</ele>
        <time>1970-01-01T03:15:44.000Z</time>
      </trkpt>
      <trkpt lat="42.302598" lon="-8.790707">
        <ele>104.2</ele>
        <time>1970-01-01T03:15:45.000Z</time>
      </trkpt>
      <trkpt lat="42.302613" lon="-8.790698">
        <ele>104.2</ele>
        <time>1970-01-01T03:15:46.000Z</time>
      </trkpt>
      <trkpt lat="42.302625" lon="-8.790697">
        <ele>104.2</ele>
        <time>1970-01-01T03:15:47.000Z</time>
      </trkpt>
      <trkpt lat="42.302637" lon="-8.790697">
        <ele>104.2</ele>
        <time>1970-01-01T03:15:48.000Z</time>
      </trkpt>
      <trkpt lat="42.30265" lon="-8.790693">
        <ele>104.2</ele>
        <time>1970-01-01T03:15:49.000Z</time>
      </trkpt>
      <trkpt lat="42.302663" lon="-8.790687">
        <ele>104.2</ele>
        <time>1970-01-01T03:15:50.000Z</time>
      </trkpt>
      <trkpt lat="42.302678" lon="-8.790683">
        <ele>104.2</ele>
        <time>1970-01-01T03:15:51.000Z</time>
      </trkpt>
      <trkpt lat="42.302693" lon="-8.790682">
        <ele>104.2</ele>
        <time>1970-01-01T03:15:52.000Z</time>
      </trkpt>
      <trkpt lat="42.302707" lon="-8.79068">
        <ele>104.2</ele>
        <time>1970-01-01T03:15:53.000Z</time>
      </trkpt>
      <trkpt lat="42.302713" lon="-8.790683">
        <ele>103.3</ele>
        <time>1970-01-01T03:15:54.000Z</time>
      </trkpt>
      <trkpt lat="42.302727" lon="-8.79068">
        <ele>103.3</ele>
        <time>1970-01-01T03:15:55.000Z</time>
      </trkpt>
      <trkpt lat="42.30274" lon="-8.79068">
        <ele>103.3</ele>
        <time>1970-01-01T03:15:56.000Z</time>
      </trkpt>
      <trkpt lat="42.302755" lon="-8.790685">
        <ele>103.3</ele>
        <time>1970-01-01T03:15:57.000Z</time>
      </trkpt>
      <trkpt lat="42.302765" lon="-8.790692">
        <ele>103.3</ele>
        <time>1970-01-01T03:15:58.000Z</time>
      </trkpt>
      <trkpt lat="42.30278" lon="-8.790697">
        <ele>103.3</ele>
        <time>1970-01-01T03:15:59.000Z</time>
      </trkpt>
      <trkpt lat="42.30279" lon="-8.790707">
        <ele>103.3</ele>
        <time>1970-01-01T03:16:00.000Z</time>
      </trkpt>
      <trkpt lat="42.3028" lon="-8.79071">
        <ele>103.3</ele>
        <time>1970-01-01T03:16:01.000Z</time>
      </trkpt>
      <trkpt lat="42.30281" lon="-8.790715">
        <ele>102.3</ele>
        <time>1970-01-01T03:16:02.000Z</time>
      </trkpt>
      <trkpt lat="42.30282" lon="-8.790718">
        <ele>102.3</ele>
        <time>1970-01-01T03:16:03.000Z</time>
      </trkpt>
      <trkpt lat="42.302832" lon="-8.790725">
        <ele>102.3</ele>
        <time>1970-01-01T03:16:04.000Z</time>
      </trkpt>
      <trkpt lat="42.302843" lon="-8.79073">
        <ele>102.3</ele>
        <time>1970-01-01T03:16:05.000Z</time>
      </trkpt>
      <trkpt lat="42.302857" lon="-8.790733">
        <ele>102.3</ele>
        <time>1970-01-01T03:16:06.000Z</time>
      </trkpt>
      <trkpt lat="42.302872" lon="-8.790738">
        <ele>102.3</ele>
        <time>1970-01-01T03:16:07.000Z</time>
      </trkpt>
      <trkpt lat="42.302888" lon="-8.79074">
        <ele>102.3</ele>
        <time>1970-01-01T03:16:08.000Z</time>
      </trkpt>
      <trkpt lat="42.3029" lon="-8.790742">
        <ele>102.3</ele>
        <time>1970-01-01T03:16:09.000Z</time>
      </trkpt>
      <trkpt lat="42.302912" lon="-8.790743">
        <ele>102.3</ele>
        <time>1970-01-01T03:16:10.000Z</time>
      </trkpt>
      <trkpt lat="42.302923" lon="-8.790743">
        <ele>102.3</ele>
        <time>1970-01-01T03:16:11.000Z</time>
      </trkpt>
      <trkpt lat="42.302935" lon="-8.790747">
        <ele>102.3</ele>
        <time>1970-01-01T03:16:12.000Z</time>
      </trkpt>
      <trkpt lat="42.302945" lon="-8.790748">
        <ele>102.3</ele>
        <time>1970-01-01T03:16:13.000Z</time>
      </trkpt>
      <trkpt lat="42.302955" lon="-8.790748">
        <ele>102.3</ele>
        <time>1970-01-01T03:16:14.000Z</time>
      </trkpt>
      <trkpt lat="42.30296" lon="-8.790748">
        <ele>102.3</ele>
        <time>1970-01-01T03:16:15.000Z</time>
      </trkpt>
      <trkpt lat="42.30297" lon="-8.79075">
        <ele>101.2</ele>
        <time>1970-01-01T03:16:16.000Z</time>
      </trkpt>
      <trkpt lat="42.30298" lon="-8.790747">
        <ele>101.2</ele>
        <time>1970-01-01T03:16:17.000Z</time>
      </trkpt>
      <trkpt lat="42.30299" lon="-8.790745">
        <ele>101.2</ele>
        <time>1970-01-01T03:16:18.000Z</time>
      </trkpt>
      <trkpt lat="42.302998" lon="-8.790742">
        <ele>101.2</ele>
        <time>1970-01-01T03:16:19.000Z</time>
      </trkpt>
      <trkpt lat="42.30301" lon="-8.79074">
        <ele>101.2</ele>
        <time>1970-01-01T03:16:20.000Z</time>
      </trkpt>
      <trkpt lat="42.30302" lon="-8.790738">
        <ele>101.2</ele>
        <time>1970-01-01T03:16:21.000Z</time>
      </trkpt>
      <trkpt lat="42.303032" lon="-8.79074">
        <ele>101.2</ele>
        <time>1970-01-01T03:16:22.000Z</time>
      </trkpt>
      <trkpt lat="42.303047" lon="-8.790738">
        <ele>101.2</ele>
        <time>1970-01-01T03:16:23.000Z</time>
      </trkpt>
      <trkpt lat="42.303062" lon="-8.790733">
        <ele>101.2</ele>
        <time>1970-01-01T03:16:24.000Z</time>
      </trkpt>
      <trkpt lat="42.303077" lon="-8.790727">
        <ele>101.2</ele>
        <time>1970-01-01T03:16:25.000Z</time>
      </trkpt>
      <trkpt lat="42.303095" lon="-8.790723">
        <ele>100.3</ele>
        <time>1970-01-01T03:16:26.000Z</time>
      </trkpt>
      <trkpt lat="42.303108" lon="-8.790723">
        <ele>100.3</ele>
        <time>1970-01-01T03:16:27.000Z</time>
      </trkpt>
      <trkpt lat="42.303127" lon="-8.790722">
        <ele>100.3</ele>
        <time>1970-01-01T03:16:28.000Z</time>
      </trkpt>
      <trkpt lat="42.303138" lon="-8.790722">
        <ele>100.3</ele>
        <time>1970-01-01T03:16:29.000Z</time>
      </trkpt>
      <trkpt lat="42.303155" lon="-8.790715">
        <ele>100.3</ele>
        <time>1970-01-01T03:16:30.000Z</time>
      </trkpt>
      <trkpt lat="42.303167" lon="-8.79071">
        <ele>100.3</ele>
        <time>1970-01-01T03:16:31.000Z</time>
      </trkpt>
      <trkpt lat="42.303178" lon="-8.790707">
        <ele>99.2</ele>
        <time>1970-01-01T03:16:32.000Z</time>
      </trkpt>
      <trkpt lat="42.303192" lon="-8.79071">
        <ele>99.2</ele>
        <time>1970-01-01T03:16:33.000Z</time>
      </trkpt>
      <trkpt lat="42.303205" lon="-8.790707">
        <ele>99.2</ele>
        <time>1970-01-01T03:16:34.000Z</time>
      </trkpt>
      <trkpt lat="42.303217" lon="-8.790705">
        <ele>99.2</ele>
        <time>1970-01-01T03:16:35.000Z</time>
      </trkpt>
      <trkpt lat="42.30323" lon="-8.7907">
        <ele>99.2</ele>
        <time>1970-01-01T03:16:36.000Z</time>
      </trkpt>
      <trkpt lat="42.303243" lon="-8.790698">
        <ele>99.2</ele>
        <time>1970-01-01T03:16:37.000Z</time>
      </trkpt>
      <trkpt lat="42.303255" lon="-8.790697">
        <ele>99.2</ele>
        <time>1970-01-01T03:16:38.000Z</time>
      </trkpt>
      <trkpt lat="42.30327" lon="-8.790698">
        <ele>99.2</ele>
        <time>1970-01-01T03:16:39.000Z</time>
      </trkpt>
      <trkpt lat="42.303283" lon="-8.7907">
        <ele>99.2</ele>
        <time>1970-01-01T03:16:40.000Z</time>
      </trkpt>
      <trkpt lat="42.303295" lon="-8.7907">
        <ele>99.2</ele>
        <time>1970-01-01T03:16:41.000Z</time>
      </trkpt>
      <trkpt lat="42.30331" lon="-8.7907">
        <ele>99.2</ele>
        <time>1970-01-01T03:16:42.000Z</time>
      </trkpt>
      <trkpt lat="42.303323" lon="-8.790702">
        <ele>99.2</ele>
        <time>1970-01-01T03:16:43.000Z</time>
      </trkpt>
      <trkpt lat="42.303337" lon="-8.790702">
        <ele>98.3</ele>
        <time>1970-01-01T03:16:44.000Z</time>
      </trkpt>
      <trkpt lat="42.30335" lon="-8.790702">
        <ele>98.3</ele>
        <time>1970-01-01T03:16:45.000Z</time>
      </trkpt>
      <trkpt lat="42.303362" lon="-8.7907">
        <ele>98.3</ele>
        <time>1970-01-01T03:16:46.000Z</time>
      </trkpt>
      <trkpt lat="42.303375" lon="-8.790698">
        <ele>98.3</ele>
        <time>1970-01-01T03:16:47.000Z</time>
      </trkpt>
      <trkpt lat="42.303388" lon="-8.790698">
        <ele>97.2</ele>
        <time>1970-01-01T03:16:48.000Z</time>
      </trkpt>
      <trkpt lat="42.303402" lon="-8.790697">
        <ele>97.2</ele>
        <time>1970-01-01T03:16:49.000Z</time>
      </trkpt>
      <trkpt lat="42.303412" lon="-8.790698">
        <ele>97.2</ele>
        <time>1970-01-01T03:16:50.000Z</time>
      </trkpt>
      <trkpt lat="42.303422" lon="-8.790698">
        <ele>97.2</ele>
        <time>1970-01-01T03:16:51.000Z</time>
      </trkpt>
      <trkpt lat="42.303433" lon="-8.790698">
        <ele>97.2</ele>
        <time>1970-01-01T03:16:52.000Z</time>
      </trkpt>
      <trkpt lat="42.303445" lon="-8.790698">
        <ele>97.2</ele>
        <time>1970-01-01T03:16:53.000Z</time>
      </trkpt>
      <trkpt lat="42.303458" lon="-8.790698">
        <ele>96.3</ele>
        <time>1970-01-01T03:16:54.000Z</time>
      </trkpt>
      <trkpt lat="42.303473" lon="-8.790697">
        <ele>96.3</ele>
        <time>1970-01-01T03:16:55.000Z</time>
      </trkpt>
      <trkpt lat="42.303485" lon="-8.790693">
        <ele>96.3</ele>
        <time>1970-01-01T03:16:56.000Z</time>
      </trkpt>
      <trkpt lat="42.303498" lon="-8.79069">
        <ele>96.3</ele>
        <time>1970-01-01T03:16:57.000Z</time>
      </trkpt>
      <trkpt lat="42.303513" lon="-8.790688">
        <ele>96.3</ele>
        <time>1970-01-01T03:16:58.000Z</time>
      </trkpt>
      <trkpt lat="42.303527" lon="-8.790687">
        <ele>96.3</ele>
        <time>1970-01-01T03:16:59.000Z</time>
      </trkpt>
      <trkpt lat="42.30354" lon="-8.790685">
        <ele>95.3</ele>
        <time>1970-01-01T03:17:00.000Z</time>
      </trkpt>
      <trkpt lat="42.303552" lon="-8.790682">
        <ele>95.3</ele>
        <time>1970-01-01T03:17:01.000Z</time>
      </trkpt>
      <trkpt lat="42.303567" lon="-8.790678">
        <ele>95.3</ele>
        <time>1970-01-01T03:17:02.000Z</time>
      </trkpt>
      <trkpt lat="42.30358" lon="-8.790678">
        <ele>95.3</ele>
        <time>1970-01-01T03:17:03.000Z</time>
      </trkpt>
      <trkpt lat="42.303593" lon="-8.790673">
        <ele>95.3</ele>
        <time>1970-01-01T03:17:04.000Z</time>
      </trkpt>
      <trkpt lat="42.303607" lon="-8.79067">
        <ele>95.3</ele>
        <time>1970-01-01T03:17:05.000Z</time>
      </trkpt>
      <trkpt lat="42.303622" lon="-8.790668">
        <ele>95.3</ele>
        <time>1970-01-01T03:17:06.000Z</time>
      </trkpt>
      <trkpt lat="42.303635" lon="-8.790665">
        <ele>95.3</ele>
        <time>1970-01-01T03:17:07.000Z</time>
      </trkpt>
      <trkpt lat="42.303648" lon="-8.790663">
        <ele>95.3</ele>
        <time>1970-01-01T03:17:08.000Z</time>
      </trkpt>
      <trkpt lat="42.30366" lon="-8.790665">
        <ele>95.3</ele>
        <time>1970-01-01T03:17:09.000Z</time>
      </trkpt>
      <trkpt lat="42.30367" lon="-8.790667">
        <ele>94.3</ele>
        <time>1970-01-01T03:17:10.000Z</time>
      </trkpt>
      <trkpt lat="42.303678" lon="-8.790672">
        <ele>94.3</ele>
        <time>1970-01-01T03:17:11.000Z</time>
      </trkpt>
      <trkpt lat="42.303687" lon="-8.790677">
        <ele>94.3</ele>
        <time>1970-01-01T03:17:12.000Z</time>
      </trkpt>
      <trkpt lat="42.303697" lon="-8.790685">
        <ele>94.3</ele>
        <time>1970-01-01T03:17:13.000Z</time>
      </trkpt>
      <trkpt lat="42.303707" lon="-8.790693">
        <ele>94.3</ele>
        <time>1970-01-01T03:17:14.000Z</time>
      </trkpt>
      <trkpt lat="42.303717" lon="-8.7907">
        <ele>94.3</ele>
        <time>1970-01-01T03:17:15.000Z</time>
      </trkpt>
      <trkpt lat="42.303725" lon="-8.790712">
        <ele>94.3</ele>
        <time>1970-01-01T03:17:16.000Z</time>
      </trkpt>
      <trkpt lat="42.30373" lon="-8.790722">
        <ele>94.3</ele>
        <time>1970-01-01T03:17:17.000Z</time>
      </trkpt>
      <trkpt lat="42.303738" lon="-8.790732">
        <ele>93.3</ele>
        <time>1970-01-01T03:17:18.000Z</time>
      </trkpt>
      <trkpt lat="42.303745" lon="-8.790742">
        <ele>93.3</ele>
        <time>1970-01-01T03:17:19.000Z</time>
      </trkpt>
      <trkpt lat="42.303748" lon="-8.790753">
        <ele>93.3</ele>
        <time>1970-01-01T03:17:20.000Z</time>
      </trkpt>
      <trkpt lat="42.303753" lon="-8.790765">
        <ele>93.3</ele>
        <time>1970-01-01T03:17:21.000Z</time>
      </trkpt>
      <trkpt lat="42.303755" lon="-8.790777">
        <ele>93.3</ele>
        <time>1970-01-01T03:17:22.000Z</time>
      </trkpt>
      <trkpt lat="42.30376" lon="-8.79079">
        <ele>93.3</ele>
        <time>1970-01-01T03:17:23.000Z</time>
      </trkpt>
      <trkpt lat="42.303763" lon="-8.790807">
        <ele>93.3</ele>
        <time>1970-01-01T03:17:24.000Z</time>
      </trkpt>
      <trkpt lat="42.303767" lon="-8.79082">
        <ele>92.2</ele>
        <time>1970-01-01T03:17:25.000Z</time>
      </trkpt>
      <trkpt lat="42.303768" lon="-8.790835">
        <ele>92.2</ele>
        <time>1970-01-01T03:17:26.000Z</time>
      </trkpt>
      <trkpt lat="42.30377" lon="-8.79085">
        <ele>92.2</ele>
        <time>1970-01-01T03:17:27.000Z</time>
      </trkpt>
      <trkpt lat="42.303772" lon="-8.790868">
        <ele>92.2</ele>
        <time>1970-01-01T03:17:28.000Z</time>
      </trkpt>
      <trkpt lat="42.303773" lon="-8.79089">
        <ele>91.3</ele>
        <time>1970-01-01T03:17:29.000Z</time>
      </trkpt>
      <trkpt lat="42.303775" lon="-8.790912">
        <ele>91.3</ele>
        <time>1970-01-01T03:17:30.000Z</time>
      </trkpt>
      <trkpt lat="42.303775" lon="-8.790928">
        <ele>91.3</ele>
        <time>1970-01-01T03:17:31.000Z</time>
      </trkpt>
      <trkpt lat="42.303775" lon="-8.790943">
        <ele>91.3</ele>
        <time>1970-01-01T03:17:32.000Z</time>
      </trkpt>
      <trkpt lat="42.303777" lon="-8.790962">
        <ele>91.3</ele>
        <time>1970-01-01T03:17:33.000Z</time>
      </trkpt>
      <trkpt lat="42.303778" lon="-8.790978">
        <ele>91.3</ele>
        <time>1970-01-01T03:17:34.000Z</time>
      </trkpt>
      <trkpt lat="42.303778" lon="-8.790993">
        <ele>91.3</ele>
        <time>1970-01-01T03:17:35.000Z</time>
      </trkpt>
      <trkpt lat="42.303782" lon="-8.79101">
        <ele>91.3</ele>
        <time>1970-01-01T03:17:36.000Z</time>
      </trkpt>
      <trkpt lat="42.303783" lon="-8.791025">
        <ele>88.2</ele>
        <time>1970-01-01T03:17:37.000Z</time>
      </trkpt>
      <trkpt lat="42.303787" lon="-8.791043">
        <ele>88.2</ele>
        <time>1970-01-01T03:17:38.000Z</time>
      </trkpt>
      <trkpt lat="42.303787" lon="-8.791063">
        <ele>88.2</ele>
        <time>1970-01-01T03:17:39.000Z</time>
      </trkpt>
      <trkpt lat="42.303788" lon="-8.791082">
        <ele>88.2</ele>
        <time>1970-01-01T03:17:40.000Z</time>
      </trkpt>
      <trkpt lat="42.303788" lon="-8.7911">
        <ele>88.2</ele>
        <time>1970-01-01T03:17:41.000Z</time>
      </trkpt>
      <trkpt lat="42.303793" lon="-8.791113">
        <ele>88.2</ele>
        <time>1970-01-01T03:17:42.000Z</time>
      </trkpt>
      <trkpt lat="42.303797" lon="-8.791128">
        <ele>88.2</ele>
        <time>1970-01-01T03:17:43.000Z</time>
      </trkpt>
      <trkpt lat="42.3038" lon="-8.791143">
        <ele>88.2</ele>
        <time>1970-01-01T03:17:44.000Z</time>
      </trkpt>
      <trkpt lat="42.303803" lon="-8.791162">
        <ele>88.2</ele>
        <time>1970-01-01T03:17:45.000Z</time>
      </trkpt>
      <trkpt lat="42.303805" lon="-8.791175">
        <ele>88.2</ele>
        <time>1970-01-01T03:17:46.000Z</time>
      </trkpt>
      <trkpt lat="42.303808" lon="-8.79119">
        <ele>88.2</ele>
        <time>1970-01-01T03:17:47.000Z</time>
      </trkpt>
      <trkpt lat="42.303808" lon="-8.791207">
        <ele>88.2</ele>
        <time>1970-01-01T03:17:48.000Z</time>
      </trkpt>
      <trkpt lat="42.30381" lon="-8.791225">
        <ele>88.2</ele>
        <time>1970-01-01T03:17:49.000Z</time>
      </trkpt>
      <trkpt lat="42.303812" lon="-8.791242">
        <ele>88.2</ele>
        <time>1970-01-01T03:17:50.000Z</time>
      </trkpt>
      <trkpt lat="42.303812" lon="-8.791258">
        <ele>88.2</ele>
        <time>1970-01-01T03:17:51.000Z</time>
      </trkpt>
      <trkpt lat="42.303813" lon="-8.791275">
        <ele>88.2</ele>
        <time>1970-01-01T03:17:52.000Z</time>
      </trkpt>
      <trkpt lat="42.303813" lon="-8.791293">
        <ele>88.2</ele>
        <time>1970-01-01T03:17:53.000Z</time>
      </trkpt>
      <trkpt lat="42.303815" lon="-8.791312">
        <ele>88.2</ele>
        <time>1970-01-01T03:17:54.000Z</time>
      </trkpt>
      <trkpt lat="42.303815" lon="-8.791325">
        <ele>88.2</ele>
        <time>1970-01-01T03:17:55.000Z</time>
      </trkpt>
      <trkpt lat="42.303818" lon="-8.791342">
        <ele>88.2</ele>
        <time>1970-01-01T03:17:56.000Z</time>
      </trkpt>
      <trkpt lat="42.30382" lon="-8.791362">
        <ele>87.3</ele>
        <time>1970-01-01T03:17:57.000Z</time>
      </trkpt>
      <trkpt lat="42.303822" lon="-8.791375">
        <ele>87.3</ele>
        <time>1970-01-01T03:17:58.000Z</time>
      </trkpt>
      <trkpt lat="42.303825" lon="-8.791397">
        <ele>87.3</ele>
        <time>1970-01-01T03:17:59.000Z</time>
      </trkpt>
      <trkpt lat="42.303827" lon="-8.791413">
        <ele>87.3</ele>
        <time>1970-01-01T03:18:00.000Z</time>
      </trkpt>
      <trkpt lat="42.303825" lon="-8.791427">
        <ele>87.3</ele>
        <time>1970-01-01T03:18:01.000Z</time>
      </trkpt>
      <trkpt lat="42.303825" lon="-8.791447">
        <ele>87.3</ele>
        <time>1970-01-01T03:18:02.000Z</time>
      </trkpt>
      <trkpt lat="42.303825" lon="-8.791465">
        <ele>87.3</ele>
        <time>1970-01-01T03:18:03.000Z</time>
      </trkpt>
      <trkpt lat="42.303825" lon="-8.79148">
        <ele>87.3</ele>
        <time>1970-01-01T03:18:04.000Z</time>
      </trkpt>
      <trkpt lat="42.303825" lon="-8.791495">
        <ele>87.3</ele>
        <time>1970-01-01T03:18:05.000Z</time>
      </trkpt>
      <trkpt lat="42.303825" lon="-8.791513">
        <ele>87.3</ele>
        <time>1970-01-01T03:18:06.000Z</time>
      </trkpt>
      <trkpt lat="42.303823" lon="-8.791532">
        <ele>86.3</ele>
        <time>1970-01-01T03:18:07.000Z</time>
      </trkpt>
      <trkpt lat="42.303818" lon="-8.791552">
        <ele>86.3</ele>
        <time>1970-01-01T03:18:08.000Z</time>
      </trkpt>
      <trkpt lat="42.303815" lon="-8.79157">
        <ele>86.3</ele>
        <time>1970-01-01T03:18:09.000Z</time>
      </trkpt>
      <trkpt lat="42.303813" lon="-8.79159">
        <ele>86.3</ele>
        <time>1970-01-01T03:18:10.000Z</time>
      </trkpt>
      <trkpt lat="42.303812" lon="-8.791605">
        <ele>86.3</ele>
        <time>1970-01-01T03:18:11.000Z</time>
      </trkpt>
      <trkpt lat="42.30381" lon="-8.791622">
        <ele>86.3</ele>
        <time>1970-01-01T03:18:12.000Z</time>
      </trkpt>
      <trkpt lat="42.303808" lon="-8.791638">
        <ele>86.3</ele>
        <time>1970-01-01T03:18:13.000Z</time>
      </trkpt>
      <trkpt lat="42.303807" lon="-8.791653">
        <ele>86.3</ele>
        <time>1970-01-01T03:18:14.000Z</time>
      </trkpt>
      <trkpt lat="42.303805" lon="-8.791675">
        <ele>86.3</ele>
        <time>1970-01-01T03:18:15.000Z</time>
      </trkpt>
      <trkpt lat="42.303805" lon="-8.791693">
        <ele>86.3</ele>
        <time>1970-01-01T03:18:16.000Z</time>
      </trkpt>
      <trkpt lat="42.303805" lon="-8.791712">
        <ele>84.3</ele>
        <time>1970-01-01T03:18:17.000Z</time>
      </trkpt>
      <trkpt lat="42.303803" lon="-8.79173">
        <ele>84.3</ele>
        <time>1970-01-01T03:18:18.000Z</time>
      </trkpt>
      <trkpt lat="42.303803" lon="-8.791747">
        <ele>83.2</ele>
        <time>1970-01-01T03:18:19.000Z</time>
      </trkpt>
      <trkpt lat="42.303805" lon="-8.791762">
        <ele>83.2</ele>
        <time>1970-01-01T03:18:20.000Z</time>
      </trkpt>
      <trkpt lat="42.303807" lon="-8.791777">
        <ele>83.2</ele>
        <time>1970-01-01T03:18:21.000Z</time>
      </trkpt>
      <trkpt lat="42.30381" lon="-8.79179">
        <ele>83.2</ele>
        <time>1970-01-01T03:18:22.000Z</time>
      </trkpt>
      <trkpt lat="42.30381" lon="-8.791802">
        <ele>82.3</ele>
        <time>1970-01-01T03:18:23.000Z</time>
      </trkpt>
      <trkpt lat="42.303812" lon="-8.791818">
        <ele>82.3</ele>
        <time>1970-01-01T03:18:24.000Z</time>
      </trkpt>
      <trkpt lat="42.30381" lon="-8.79184">
        <ele>82.3</ele>
        <time>1970-01-01T03:18:25.000Z</time>
      </trkpt>
      <trkpt lat="42.30381" lon="-8.791857">
        <ele>82.3</ele>
        <time>1970-01-01T03:18:26.000Z</time>
      </trkpt>
      <trkpt lat="42.30381" lon="-8.791877">
        <ele>82.3</ele>
        <time>1970-01-01T03:18:27.000Z</time>
      </trkpt>
      <trkpt lat="42.303812" lon="-8.791893">
        <ele>82.3</ele>
        <time>1970-01-01T03:18:28.000Z</time>
      </trkpt>
      <trkpt lat="42.303817" lon="-8.791912">
        <ele>81.2</ele>
        <time>1970-01-01T03:18:29.000Z</time>
      </trkpt>
      <trkpt lat="42.303822" lon="-8.79193">
        <ele>81.2</ele>
        <time>1970-01-01T03:18:30.000Z</time>
      </trkpt>
      <trkpt lat="42.303823" lon="-8.791948">
        <ele>81.2</ele>
        <time>1970-01-01T03:18:31.000Z</time>
      </trkpt>
      <trkpt lat="42.303823" lon="-8.791963">
        <ele>81.2</ele>
        <time>1970-01-01T03:18:32.000Z</time>
      </trkpt>
      <trkpt lat="42.303822" lon="-8.791982">
        <ele>81.2</ele>
        <time>1970-01-01T03:18:33.000Z</time>
      </trkpt>
      <trkpt lat="42.303823" lon="-8.792">
        <ele>81.2</ele>
        <time>1970-01-01T03:18:34.000Z</time>
      </trkpt>
      <trkpt lat="42.303825" lon="-8.792017">
        <ele>81.2</ele>
        <time>1970-01-01T03:18:35.000Z</time>
      </trkpt>
      <trkpt lat="42.303827" lon="-8.792033">
        <ele>81.2</ele>
        <time>1970-01-01T03:18:36.000Z</time>
      </trkpt>
      <trkpt lat="42.30383" lon="-8.792053">
        <ele>80.3</ele>
        <time>1970-01-01T03:18:37.000Z</time>
      </trkpt>
      <trkpt lat="42.30383" lon="-8.792073">
        <ele>80.3</ele>
        <time>1970-01-01T03:18:38.000Z</time>
      </trkpt>
      <trkpt lat="42.303832" lon="-8.792092">
        <ele>79.2</ele>
        <time>1970-01-01T03:18:39.000Z</time>
      </trkpt>
      <trkpt lat="42.303833" lon="-8.79211">
        <ele>79.2</ele>
        <time>1970-01-01T03:18:40.000Z</time>
      </trkpt>
      <trkpt lat="42.303835" lon="-8.792127">
        <ele>79.2</ele>
        <time>1970-01-01T03:18:41.000Z</time>
      </trkpt>
      <trkpt lat="42.303833" lon="-8.792145">
        <ele>79.2</ele>
        <time>1970-01-01T03:18:42.000Z</time>
      </trkpt>
      <trkpt lat="42.303833" lon="-8.792163">
        <ele>78.3</ele>
        <time>1970-01-01T03:18:43.000Z</time>
      </trkpt>
      <trkpt lat="42.303837" lon="-8.792182">
        <ele>78.3</ele>
        <time>1970-01-01T03:18:44.000Z</time>
      </trkpt>
      <trkpt lat="42.303837" lon="-8.7922">
        <ele>78.3</ele>
        <time>1970-01-01T03:18:45.000Z</time>
      </trkpt>
      <trkpt lat="42.30384" lon="-8.792217">
        <ele>78.3</ele>
        <time>1970-01-01T03:18:46.000Z</time>
      </trkpt>
      <trkpt lat="42.303847" lon="-8.792233">
        <ele>78.3</ele>
        <time>1970-01-01T03:18:47.000Z</time>
      </trkpt>
      <trkpt lat="42.303848" lon="-8.792247">
        <ele>78.3</ele>
        <time>1970-01-01T03:18:48.000Z</time>
      </trkpt>
      <trkpt lat="42.303842" lon="-8.792272">
        <ele>78.3</ele>
        <time>1970-01-01T03:18:49.000Z</time>
      </trkpt>
      <trkpt lat="42.303838" lon="-8.792292">
        <ele>78.3</ele>
        <time>1970-01-01T03:18:50.000Z</time>
      </trkpt>
      <trkpt lat="42.303835" lon="-8.792313">
        <ele>77.3</ele>
        <time>1970-01-01T03:18:51.000Z</time>
      </trkpt>
      <trkpt lat="42.303833" lon="-8.792332">
        <ele>77.3</ele>
        <time>1970-01-01T03:18:52.000Z</time>
      </trkpt>
      <trkpt lat="42.303833" lon="-8.79235">
        <ele>77.3</ele>
        <time>1970-01-01T03:18:53.000Z</time>
      </trkpt>
      <trkpt lat="42.303835" lon="-8.792367">
        <ele>77.3</ele>
        <time>1970-01-01T03:18:54.000Z</time>
      </trkpt>
      <trkpt lat="42.303837" lon="-8.792385">
        <ele>77.3</ele>
        <time>1970-01-01T03:18:55.000Z</time>
      </trkpt>
      <trkpt lat="42.303845" lon="-8.792402">
        <ele>77.3</ele>
        <time>1970-01-01T03:18:56.000Z</time>
      </trkpt>
      <trkpt lat="42.303848" lon="-8.792418">
        <ele>77.3</ele>
        <time>1970-01-01T03:18:57.000Z</time>
      </trkpt>
      <trkpt lat="42.303853" lon="-8.792432">
        <ele>77.3</ele>
        <time>1970-01-01T03:18:58.000Z</time>
      </trkpt>
      <trkpt lat="42.303857" lon="-8.792453">
        <ele>77.3</ele>
        <time>1970-01-01T03:18:59.000Z</time>
      </trkpt>
      <trkpt lat="42.30386" lon="-8.792472">
        <ele>77.3</ele>
        <time>1970-01-01T03:19:00.000Z</time>
      </trkpt>
      <trkpt lat="42.303862" lon="-8.792488">
        <ele>77.3</ele>
        <time>1970-01-01T03:19:01.000Z</time>
      </trkpt>
      <trkpt lat="42.303865" lon="-8.792507">
        <ele>77.3</ele>
        <time>1970-01-01T03:19:02.000Z</time>
      </trkpt>
      <trkpt lat="42.303868" lon="-8.792523">
        <ele>77.3</ele>
        <time>1970-01-01T03:19:03.000Z</time>
      </trkpt>
      <trkpt lat="42.30387" lon="-8.792542">
        <ele>77.3</ele>
        <time>1970-01-01T03:19:04.000Z</time>
      </trkpt>
      <trkpt lat="42.303873" lon="-8.79256">
        <ele>75.3</ele>
        <time>1970-01-01T03:19:05.000Z</time>
      </trkpt>
      <trkpt lat="42.303875" lon="-8.792577">
        <ele>75.3</ele>
        <time>1970-01-01T03:19:06.000Z</time>
      </trkpt>
      <trkpt lat="42.303878" lon="-8.792595">
        <ele>75.3</ele>
        <time>1970-01-01T03:19:07.000Z</time>
      </trkpt>
      <trkpt lat="42.303882" lon="-8.792612">
        <ele>75.3</ele>
        <time>1970-01-01T03:19:08.000Z</time>
      </trkpt>
      <trkpt lat="42.303887" lon="-8.79263">
        <ele>75.3</ele>
        <time>1970-01-01T03:19:09.000Z</time>
      </trkpt>
      <trkpt lat="42.30389" lon="-8.792648">
        <ele>75.3</ele>
        <time>1970-01-01T03:19:10.000Z</time>
      </trkpt>
      <trkpt lat="42.303893" lon="-8.792665">
        <ele>75.3</ele>
        <time>1970-01-01T03:19:11.000Z</time>
      </trkpt>
      <trkpt lat="42.3039" lon="-8.792683">
        <ele>75.3</ele>
        <time>1970-01-01T03:19:12.000Z</time>
      </trkpt>
      <trkpt lat="42.303907" lon="-8.792697">
        <ele>75.3</ele>
        <time>1970-01-01T03:19:13.000Z</time>
      </trkpt>
      <trkpt lat="42.303915" lon="-8.79271">
        <ele>75.3</ele>
        <time>1970-01-01T03:19:14.000Z</time>
      </trkpt>
      <trkpt lat="42.303925" lon="-8.79272">
        <ele>75.3</ele>
        <time>1970-01-01T03:19:15.000Z</time>
      </trkpt>
      <trkpt lat="42.303932" lon="-8.79273">
        <ele>75.3</ele>
        <time>1970-01-01T03:19:16.000Z</time>
      </trkpt>
      <trkpt lat="42.303942" lon="-8.792745">
        <ele>75.3</ele>
        <time>1970-01-01T03:19:17.000Z</time>
      </trkpt>
      <trkpt lat="42.30395" lon="-8.792757">
        <ele>75.3</ele>
        <time>1970-01-01T03:19:18.000Z</time>
      </trkpt>
      <trkpt lat="42.303957" lon="-8.792767">
        <ele>74.2</ele>
        <time>1970-01-01T03:19:19.000Z</time>
      </trkpt>
      <trkpt lat="42.303965" lon="-8.792778">
        <ele>74.2</ele>
        <time>1970-01-01T03:19:20.000Z</time>
      </trkpt>
      <trkpt lat="42.303973" lon="-8.79279">
        <ele>74.2</ele>
        <time>1970-01-01T03:19:21.000Z</time>
      </trkpt>
      <trkpt lat="42.303982" lon="-8.792805">
        <ele>74.2</ele>
        <time>1970-01-01T03:19:22.000Z</time>
      </trkpt>
      <trkpt lat="42.303987" lon="-8.79282">
        <ele>74.2</ele>
        <time>1970-01-01T03:19:23.000Z</time>
      </trkpt>
      <trkpt lat="42.303993" lon="-8.792833">
        <ele>74.2</ele>
        <time>1970-01-01T03:19:24.000Z</time>
      </trkpt>
      <trkpt lat="42.303997" lon="-8.792848">
        <ele>73.3</ele>
        <time>1970-01-01T03:19:25.000Z</time>
      </trkpt>
      <trkpt lat="42.304002" lon="-8.792863">
        <ele>73.3</ele>
        <time>1970-01-01T03:19:26.000Z</time>
      </trkpt>
      <trkpt lat="42.304008" lon="-8.79288">
        <ele>73.3</ele>
        <time>1970-01-01T03:19:27.000Z</time>
      </trkpt>
      <trkpt lat="42.304012" lon="-8.792898">
        <ele>73.3</ele>
        <time>1970-01-01T03:19:28.000Z</time>
      </trkpt>
      <trkpt lat="42.304015" lon="-8.792913">
        <ele>73.3</ele>
        <time>1970-01-01T03:19:29.000Z</time>
      </trkpt>
      <trkpt lat="42.304018" lon="-8.792932">
        <ele>73.3</ele>
        <time>1970-01-01T03:19:30.000Z</time>
      </trkpt>
      <trkpt lat="42.304023" lon="-8.792952">
        <ele>73.3</ele>
        <time>1970-01-01T03:19:31.000Z</time>
      </trkpt>
      <trkpt lat="42.304025" lon="-8.79297">
        <ele>73.3</ele>
        <time>1970-01-01T03:19:32.000Z</time>
      </trkpt>
      <trkpt lat="42.304028" lon="-8.792988">
        <ele>73.3</ele>
        <time>1970-01-01T03:19:33.000Z</time>
      </trkpt>
      <trkpt lat="42.304033" lon="-8.793005">
        <ele>73.3</ele>
        <time>1970-01-01T03:19:34.000Z</time>
      </trkpt>
      <trkpt lat="42.304037" lon="-8.79302">
        <ele>73.3</ele>
        <time>1970-01-01T03:19:35.000Z</time>
      </trkpt>
      <trkpt lat="42.304038" lon="-8.793037">
        <ele>73.3</ele>
        <time>1970-01-01T03:19:36.000Z</time>
      </trkpt>
      <trkpt lat="42.30404" lon="-8.793053">
        <ele>70.3</ele>
        <time>1970-01-01T03:19:37.000Z</time>
      </trkpt>
      <trkpt lat="42.30404" lon="-8.793067">
        <ele>70.3</ele>
        <time>1970-01-01T03:19:38.000Z</time>
      </trkpt>
      <trkpt lat="42.304042" lon="-8.793083">
        <ele>70.3</ele>
        <time>1970-01-01T03:19:39.000Z</time>
      </trkpt>
      <trkpt lat="42.304042" lon="-8.793098">
        <ele>70.3</ele>
        <time>1970-01-01T03:19:40.000Z</time>
      </trkpt>
      <trkpt lat="42.304042" lon="-8.793115">
        <ele>70.3</ele>
        <time>1970-01-01T03:19:41.000Z</time>
      </trkpt>
      <trkpt lat="42.304043" lon="-8.793125">
        <ele>70.3</ele>
        <time>1970-01-01T03:19:42.000Z</time>
      </trkpt>
      <trkpt lat="42.304043" lon="-8.79314">
        <ele>69.2</ele>
        <time>1970-01-01T03:19:43.000Z</time>
      </trkpt>
      <trkpt lat="42.304043" lon="-8.793153">
        <ele>69.2</ele>
        <time>1970-01-01T03:19:44.000Z</time>
      </trkpt>
      <trkpt lat="42.304043" lon="-8.793168">
        <ele>68.3</ele>
        <time>1970-01-01T03:19:45.000Z</time>
      </trkpt>
      <trkpt lat="42.304045" lon="-8.793182">
        <ele>68.3</ele>
        <time>1970-01-01T03:19:46.000Z</time>
      </trkpt>
      <trkpt lat="42.304048" lon="-8.793197">
        <ele>67.2</ele>
        <time>1970-01-01T03:19:47.000Z</time>
      </trkpt>
      <trkpt lat="42.304048" lon="-8.793207">
        <ele>67.2</ele>
        <time>1970-01-01T03:19:48.000Z</time>
      </trkpt>
      <trkpt lat="42.304052" lon="-8.793218">
        <ele>67.2</ele>
        <time>1970-01-01T03:19:49.000Z</time>
      </trkpt>
      <trkpt lat="42.304052" lon="-8.793233">
        <ele>67.2</ele>
        <time>1970-01-01T03:19:50.000Z</time>
      </trkpt>
      <trkpt lat="42.304052" lon="-8.793245">
        <ele>65.2</ele>
        <time>1970-01-01T03:19:51.000Z</time>
      </trkpt>
      <trkpt lat="42.30405" lon="-8.793255">
        <ele>65.2</ele>
        <time>1970-01-01T03:19:52.000Z</time>
      </trkpt>
      <trkpt lat="42.30405" lon="-8.79327">
        <ele>64.3</ele>
        <time>1970-01-01T03:19:53.000Z</time>
      </trkpt>
      <trkpt lat="42.304048" lon="-8.793287">
        <ele>64.3</ele>
        <time>1970-01-01T03:19:54.000Z</time>
      </trkpt>
      <trkpt lat="42.30405" lon="-8.793295">
        <ele>64.3</ele>
        <time>1970-01-01T03:19:55.000Z</time>
      </trkpt>
      <trkpt lat="42.304052" lon="-8.793307">
        <ele>64.3</ele>
        <time>1970-01-01T03:19:56.000Z</time>
      </trkpt>
      <trkpt lat="42.304052" lon="-8.793318">
        <ele>63.2</ele>
        <time>1970-01-01T03:19:57.000Z</time>
      </trkpt>
      <trkpt lat="42.30405" lon="-8.793333">
        <ele>63.2</ele>
        <time>1970-01-01T03:19:58.000Z</time>
      </trkpt>
      <trkpt lat="42.304048" lon="-8.793347">
        <ele>62.3</ele>
        <time>1970-01-01T03:19:59.000Z</time>
      </trkpt>
      <trkpt lat="42.304048" lon="-8.79336">
        <ele>62.3</ele>
        <time>1970-01-01T03:20:00.000Z</time>
      </trkpt>
      <trkpt lat="42.304045" lon="-8.793375">
        <ele>61.3</ele>
        <time>1970-01-01T03:20:01.000Z</time>
      </trkpt>
      <trkpt lat="42.304043" lon="-8.793388">
        <ele>61.3</ele>
        <time>1970-01-01T03:20:02.000Z</time>
      </trkpt>
      <trkpt lat="42.304042" lon="-8.7934">
        <ele>60.2</ele>
        <time>1970-01-01T03:20:03.000Z</time>
      </trkpt>
      <trkpt lat="42.30404" lon="-8.793412">
        <ele>60.2</ele>
        <time>1970-01-01T03:20:04.000Z</time>
      </trkpt>
      <trkpt lat="42.304037" lon="-8.793427">
        <ele>60.2</ele>
        <time>1970-01-01T03:20:05.000Z</time>
      </trkpt>
      <trkpt lat="42.304033" lon="-8.79344">
        <ele>60.2</ele>
        <time>1970-01-01T03:20:06.000Z</time>
      </trkpt>
      <trkpt lat="42.304032" lon="-8.79345">
        <ele>59.3</ele>
        <time>1970-01-01T03:20:07.000Z</time>
      </trkpt>
      <trkpt lat="42.304028" lon="-8.793467">
        <ele>59.3</ele>
        <time>1970-01-01T03:20:08.000Z</time>
      </trkpt>
      <trkpt lat="42.304027" lon="-8.793478">
        <ele>58.2</ele>
        <time>1970-01-01T03:20:09.000Z</time>
      </trkpt>
      <trkpt lat="42.304023" lon="-8.793493">
        <ele>58.2</ele>
        <time>1970-01-01T03:20:10.000Z</time>
      </trkpt>
      <trkpt lat="42.30402" lon="-8.793505">
        <ele>58.2</ele>
        <time>1970-01-01T03:20:11.000Z</time>
      </trkpt>
      <trkpt lat="42.304015" lon="-8.793518">
        <ele>58.2</ele>
        <time>1970-01-01T03:20:12.000Z</time>
      </trkpt>
      <trkpt lat="42.30401" lon="-8.793532">
        <ele>57.3</ele>
        <time>1970-01-01T03:20:13.000Z</time>
      </trkpt>
      <trkpt lat="42.304008" lon="-8.793542">
        <ele>57.3</ele>
        <time>1970-01-01T03:20:14.000Z</time>
      </trkpt>
      <trkpt lat="42.304005" lon="-8.79355">
        <ele>57.3</ele>
        <time>1970-01-01T03:20:15.000Z</time>
      </trkpt>
      <trkpt lat="42.304002" lon="-8.79356">
        <ele>57.3</ele>
        <time>1970-01-01T03:20:16.000Z</time>
      </trkpt>
      <trkpt lat="42.304" lon="-8.793567">
        <ele>56.2</ele>
        <time>1970-01-01T03:20:17.000Z</time>
      </trkpt>
      <trkpt lat="42.303993" lon="-8.793577">
        <ele>56.2</ele>
        <time>1970-01-01T03:20:18.000Z</time>
      </trkpt>
      <trkpt lat="42.303987" lon="-8.793587">
        <ele>55.3</ele>
        <time>1970-01-01T03:20:19.000Z</time>
      </trkpt>
      <trkpt lat="42.303978" lon="-8.793598">
        <ele>55.3</ele>
        <time>1970-01-01T03:20:20.000Z</time>
      </trkpt>
      <trkpt lat="42.303972" lon="-8.793612">
        <ele>54.3</ele>
        <time>1970-01-01T03:20:21.000Z</time>
      </trkpt>
      <trkpt lat="42.303968" lon="-8.793625">
        <ele>54.3</ele>
        <time>1970-01-01T03:20:22.000Z</time>
      </trkpt>
      <trkpt lat="42.303965" lon="-8.793637">
        <ele>54.3</ele>
        <time>1970-01-01T03:20:23.000Z</time>
      </trkpt>
      <trkpt lat="42.303958" lon="-8.793645">
        <ele>54.3</ele>
        <time>1970-01-01T03:20:24.000Z</time>
      </trkpt>
      <trkpt lat="42.303952" lon="-8.793657">
        <ele>54.3</ele>
        <time>1970-01-01T03:20:25.000Z</time>
      </trkpt>
      <trkpt lat="42.30395" lon="-8.793663">
        <ele>54.3</ele>
        <time>1970-01-01T03:20:26.000Z</time>
      </trkpt>
      <trkpt lat="42.303948" lon="-8.793668">
        <ele>53.3</ele>
        <time>1970-01-01T03:20:27.000Z</time>
      </trkpt>
      <trkpt lat="42.303947" lon="-8.793675">
        <ele>53.3</ele>
        <time>1970-01-01T03:20:28.000Z</time>
      </trkpt>
      <trkpt lat="42.303945" lon="-8.79368">
        <ele>53.3</ele>
        <time>1970-01-01T03:20:29.000Z</time>
      </trkpt>
      <trkpt lat="42.303945" lon="-8.793682">
        <ele>53.3</ele>
        <time>1970-01-01T03:20:30.000Z</time>
      </trkpt>
      <trkpt lat="42.303945" lon="-8.793682">
        <ele>53.3</ele>
        <time>1970-01-01T03:20:31.000Z</time>
      </trkpt>
      <trkpt lat="42.303945" lon="-8.793683">
        <ele>53.3</ele>
        <time>1970-01-01T03:20:32.000Z</time>
      </trkpt>
      <trkpt lat="42.303942" lon="-8.793685">
        <ele>53.3</ele>
        <time>1970-01-01T03:20:33.000Z</time>
      </trkpt>
      <trkpt lat="42.30394" lon="-8.793685">
        <ele>53.3</ele>
        <time>1970-01-01T03:20:34.000Z</time>
      </trkpt>
      <trkpt lat="42.303938" lon="-8.793687">
        <ele>53.3</ele>
        <time>1970-01-01T03:20:35.000Z</time>
      </trkpt>
      <trkpt lat="42.303938" lon="-8.793685">
        <ele>53.3</ele>
        <time>1970-01-01T03:20:36.000Z</time>
      </trkpt>
      <trkpt lat="42.303943" lon="-8.793678">
        <ele>53.3</ele>
        <time>1970-01-01T03:20:37.000Z</time>
      </trkpt>
      <trkpt lat="42.303947" lon="-8.793673">
        <ele>53.3</ele>
        <time>1970-01-01T03:20:38.000Z</time>
      </trkpt>
      <trkpt lat="42.303947" lon="-8.79367">
        <ele>54.3</ele>
        <time>1970-01-01T03:20:39.000Z</time>
      </trkpt>
      <trkpt lat="42.303947" lon="-8.793668">
        <ele>54.3</ele>
        <time>1970-01-01T03:20:40.000Z</time>
      </trkpt>
      <trkpt lat="42.303947" lon="-8.793668">
        <ele>54.3</ele>
        <time>1970-01-01T03:20:41.000Z</time>
      </trkpt>
      <trkpt lat="42.303945" lon="-8.793668">
        <ele>54.3</ele>
        <time>1970-01-01T03:20:42.000Z</time>
      </trkpt>
      <trkpt lat="42.303945" lon="-8.793672">
        <ele>54.3</ele>
        <time>1970-01-01T03:20:43.000Z</time>
      </trkpt>
      <trkpt lat="42.303945" lon="-8.793673">
        <ele>54.3</ele>
        <time>1970-01-01T03:20:44.000Z</time>
      </trkpt>
      <trkpt lat="42.303945" lon="-8.793675">
        <ele>54.3</ele>
        <time>1970-01-01T03:20:45.000Z</time>
      </trkpt>
      <trkpt lat="42.303945" lon="-8.793675">
        <ele>54.3</ele>
        <time>1970-01-01T03:20:46.000Z</time>
      </trkpt>
      <trkpt lat="42.303945" lon="-8.793675">
        <ele>54.3</ele>
        <time>1970-01-01T03:20:47.000Z</time>
      </trkpt>
      <trkpt lat="42.303943" lon="-8.793675">
        <ele>54.3</ele>
        <time>1970-01-01T03:20:48.000Z</time>
      </trkpt>
      <trkpt lat="42.303943" lon="-8.793675">
        <ele>54.3</ele>
        <time>1970-01-01T03:20:49.000Z</time>
      </trkpt>
      <trkpt lat="42.303943" lon="-8.793675">
        <ele>54.3</ele>
        <time>1970-01-01T03:20:50.000Z</time>
      </trkpt>
      <trkpt lat="42.303943" lon="-8.793675">
        <ele>54.3</ele>
        <time>1970-01-01T03:20:51.000Z</time>
      </trkpt>
      <trkpt lat="42.303943" lon="-8.793675">
        <ele>54.3</ele>
        <time>1970-01-01T03:20:52.000Z</time>
      </trkpt>
      <trkpt lat="42.303943" lon="-8.793675">
        <ele>55.3</ele>
        <time>1970-01-01T03:20:53.000Z</time>
      </trkpt>
      <trkpt lat="42.303943" lon="-8.793675">
        <ele>55.3</ele>
        <time>1970-01-01T03:20:54.000Z</time>
      </trkpt>
      <trkpt lat="42.303943" lon="-8.793675">
        <ele>55.3</ele>
        <time>1970-01-01T03:20:55.000Z</time>
      </trkpt>
      <trkpt lat="42.303943" lon="-8.793675">
        <ele>55.3</ele>
        <time>1970-01-01T03:20:56.000Z</time>
      </trkpt>
      <trkpt lat="42.303945" lon="-8.793675">
        <ele>55.3</ele>
        <time>1970-01-01T03:20:57.000Z</time>
      </trkpt>
      <trkpt lat="42.303945" lon="-8.793675">
        <ele>55.3</ele>
        <time>1970-01-01T03:20:58.000Z</time>
      </trkpt>
      <trkpt lat="42.303945" lon="-8.793673">
        <ele>55.3</ele>
        <time>1970-01-01T03:20:59.000Z</time>
      </trkpt>
      <trkpt lat="42.303945" lon="-8.793673">
        <ele>55.3</ele>
        <time>1970-01-01T03:21:00.000Z</time>
      </trkpt>
      <trkpt lat="42.303945" lon="-8.793672">
        <ele>55.3</ele>
        <time>1970-01-01T03:21:01.000Z</time>
      </trkpt>
      <trkpt lat="42.303945" lon="-8.793672">
        <ele>55.3</ele>
        <time>1970-01-01T03:21:02.000Z</time>
      </trkpt>
      <trkpt lat="42.303945" lon="-8.793668">
        <ele>55.3</ele>
        <time>1970-01-01T03:21:03.000Z</time>
      </trkpt>
      <trkpt lat="42.303947" lon="-8.793668">
        <ele>55.3</ele>
        <time>1970-01-01T03:21:04.000Z</time>
      </trkpt>
      <trkpt lat="42.303947" lon="-8.793668">
        <ele>56.2</ele>
        <time>1970-01-01T03:21:05.000Z</time>
      </trkpt>
      <trkpt lat="42.303947" lon="-8.793668">
        <ele>56.2</ele>
        <time>1970-01-01T03:21:06.000Z</time>
      </trkpt>
      <trkpt lat="42.303947" lon="-8.793665">
        <ele>56.2</ele>
        <time>1970-01-01T03:21:07.000Z</time>
      </trkpt>
      <trkpt lat="42.303947" lon="-8.793662">
        <ele>56.2</ele>
        <time>1970-01-01T03:21:08.000Z</time>
      </trkpt>
      <trkpt lat="42.303947" lon="-8.793662">
        <ele>56.2</ele>
        <time>1970-01-01T03:21:09.000Z</time>
      </trkpt>
      <trkpt lat="42.303947" lon="-8.79366">
        <ele>56.2</ele>
        <time>1970-01-01T03:21:10.000Z</time>
      </trkpt>
      <trkpt lat="42.303947" lon="-8.793658">
        <ele>57.3</ele>
        <time>1970-01-01T03:21:11.000Z</time>
      </trkpt>
      <trkpt lat="42.303947" lon="-8.793658">
        <ele>57.3</ele>
        <time>1970-01-01T03:21:12.000Z</time>
      </trkpt>
      <trkpt lat="42.303947" lon="-8.793657">
        <ele>57.3</ele>
        <time>1970-01-01T03:21:13.000Z</time>
      </trkpt>
      <trkpt lat="42.303947" lon="-8.793657">
        <ele>57.3</ele>
        <time>1970-01-01T03:21:14.000Z</time>
      </trkpt>
      <trkpt lat="42.303947" lon="-8.793657">
        <ele>57.3</ele>
        <time>1970-01-01T03:21:15.000Z</time>
      </trkpt>
      <trkpt lat="42.303947" lon="-8.793657">
        <ele>57.3</ele>
        <time>1970-01-01T03:21:16.000Z</time>
      </trkpt>
      <trkpt lat="42.303947" lon="-8.793657">
        <ele>57.3</ele>
        <time>1970-01-01T03:21:17.000Z</time>
      </trkpt>
      <trkpt lat="42.303947" lon="-8.793657">
        <ele>57.3</ele>
        <time>1970-01-01T03:21:18.000Z</time>
      </trkpt>
      <trkpt lat="42.303947" lon="-8.793657">
        <ele>58.2</ele>
        <time>1970-01-01T03:21:19.000Z</time>
      </trkpt>
      <trkpt lat="42.303947" lon="-8.793655">
        <ele>58.2</ele>
        <time>1970-01-01T03:21:20.000Z</time>
      </trkpt>
      <trkpt lat="42.303947" lon="-8.793655">
        <ele>58.2</ele>
        <time>1970-01-01T03:21:21.000Z</time>
      </trkpt>
      <trkpt lat="42.303945" lon="-8.793655">
        <ele>58.2</ele>
        <time>1970-01-01T03:21:22.000Z</time>
      </trkpt>
      <trkpt lat="42.30394" lon="-8.793655">
        <ele>58.2</ele>
        <time>1970-01-01T03:21:23.000Z</time>
      </trkpt>
      <trkpt lat="42.30394" lon="-8.793655">
        <ele>58.2</ele>
        <time>1970-01-01T03:21:24.000Z</time>
      </trkpt>
      <trkpt lat="42.30394" lon="-8.793655">
        <ele>58.2</ele>
        <time>1970-01-01T03:21:25.000Z</time>
      </trkpt>
      <trkpt lat="42.303938" lon="-8.793655">
        <ele>58.2</ele>
        <time>1970-01-01T03:21:26.000Z</time>
      </trkpt>
      <trkpt lat="42.303938" lon="-8.793655">
        <ele>58.2</ele>
        <time>1970-01-01T03:21:27.000Z</time>
      </trkpt>
      <trkpt lat="42.303937" lon="-8.793657">
        <ele>58.2</ele>
        <time>1970-01-01T03:21:28.000Z</time>
      </trkpt>
      <trkpt lat="42.303935" lon="-8.793657">
        <ele>58.2</ele>
        <time>1970-01-01T03:21:29.000Z</time>
      </trkpt>
      <trkpt lat="42.303933" lon="-8.793657">
        <ele>58.2</ele>
        <time>1970-01-01T03:21:30.000Z</time>
      </trkpt>
      <trkpt lat="42.303933" lon="-8.793657">
        <ele>58.2</ele>
        <time>1970-01-01T03:21:31.000Z</time>
      </trkpt>
      <trkpt lat="42.303933" lon="-8.793657">
        <ele>58.2</ele>
        <time>1970-01-01T03:21:32.000Z</time>
      </trkpt>
      <trkpt lat="42.303932" lon="-8.793657">
        <ele>58.2</ele>
        <time>1970-01-01T03:21:33.000Z</time>
      </trkpt>
      <trkpt lat="42.303932" lon="-8.793657">
        <ele>58.2</ele>
        <time>1970-01-01T03:21:34.000Z</time>
      </trkpt>
      <trkpt lat="42.30393" lon="-8.793658">
        <ele>58.2</ele>
        <time>1970-01-01T03:21:35.000Z</time>
      </trkpt>
      <trkpt lat="42.30393" lon="-8.793658">
        <ele>58.2</ele>
        <time>1970-01-01T03:21:36.000Z</time>
      </trkpt>
      <trkpt lat="42.30393" lon="-8.793662">
        <ele>58.2</ele>
        <time>1970-01-01T03:21:37.000Z</time>
      </trkpt>
      <trkpt lat="42.303928" lon="-8.793665">
        <ele>58.2</ele>
        <time>1970-01-01T03:21:38.000Z</time>
      </trkpt>
      <trkpt lat="42.303927" lon="-8.79367">
        <ele>58.2</ele>
        <time>1970-01-01T03:21:39.000Z</time>
      </trkpt>
      <trkpt lat="42.303927" lon="-8.793675">
        <ele>58.2</ele>
        <time>1970-01-01T03:21:40.000Z</time>
      </trkpt>
      <trkpt lat="42.303925" lon="-8.79368">
        <ele>58.2</ele>
        <time>1970-01-01T03:21:41.000Z</time>
      </trkpt>
      <trkpt lat="42.303925" lon="-8.793683">
        <ele>58.2</ele>
        <time>1970-01-01T03:21:42.000Z</time>
      </trkpt>
      <trkpt lat="42.303925" lon="-8.793688">
        <ele>58.2</ele>
        <time>1970-01-01T03:21:43.000Z</time>
      </trkpt>
      <trkpt lat="42.303923" lon="-8.793693">
        <ele>58.2</ele>
        <time>1970-01-01T03:21:44.000Z</time>
      </trkpt>
      <trkpt lat="42.303922" lon="-8.793697">
        <ele>58.2</ele>
        <time>1970-01-01T03:21:45.000Z</time>
      </trkpt>
      <trkpt lat="42.303922" lon="-8.7937">
        <ele>58.2</ele>
        <time>1970-01-01T03:21:46.000Z</time>
      </trkpt>
      <trkpt lat="42.303922" lon="-8.793703">
        <ele>58.2</ele>
        <time>1970-01-01T03:21:47.000Z</time>
      </trkpt>
      <trkpt lat="42.30392" lon="-8.793707">
        <ele>58.2</ele>
        <time>1970-01-01T03:21:48.000Z</time>
      </trkpt>
      <trkpt lat="42.30392" lon="-8.79371">
        <ele>58.2</ele>
        <time>1970-01-01T03:21:49.000Z</time>
      </trkpt>
      <trkpt lat="42.30392" lon="-8.793712">
        <ele>58.2</ele>
        <time>1970-01-01T03:21:50.000Z</time>
      </trkpt>
      <trkpt lat="42.30392" lon="-8.793713">
        <ele>58.2</ele>
        <time>1970-01-01T03:21:51.000Z</time>
      </trkpt>
      <trkpt lat="42.303918" lon="-8.793713">
        <ele>58.2</ele>
        <time>1970-01-01T03:21:52.000Z</time>
      </trkpt>
      <trkpt lat="42.303918" lon="-8.793715">
        <ele>58.2</ele>
        <time>1970-01-01T03:21:53.000Z</time>
      </trkpt>
      <trkpt lat="42.303918" lon="-8.793717">
        <ele>58.2</ele>
        <time>1970-01-01T03:21:54.000Z</time>
      </trkpt>
      <trkpt lat="42.303918" lon="-8.793718">
        <ele>58.2</ele>
        <time>1970-01-01T03:21:55.000Z</time>
      </trkpt>
      <trkpt lat="42.303918" lon="-8.793718">
        <ele>58.2</ele>
        <time>1970-01-01T03:21:56.000Z</time>
      </trkpt>
      <trkpt lat="42.303917" lon="-8.79372">
        <ele>58.2</ele>
        <time>1970-01-01T03:21:57.000Z</time>
      </trkpt>
      <trkpt lat="42.303915" lon="-8.793723">
        <ele>58.2</ele>
        <time>1970-01-01T03:21:58.000Z</time>
      </trkpt>
      <trkpt lat="42.303913" lon="-8.793728">
        <ele>58.2</ele>
        <time>1970-01-01T03:21:59.000Z</time>
      </trkpt>
      <trkpt lat="42.303912" lon="-8.793733">
        <ele>58.2</ele>
        <time>1970-01-01T03:22:00.000Z</time>
      </trkpt>
      <trkpt lat="42.30391" lon="-8.793737">
        <ele>57.3</ele>
        <time>1970-01-01T03:22:01.000Z</time>
      </trkpt>
      <trkpt lat="42.303908" lon="-8.79374">
        <ele>57.3</ele>
        <time>1970-01-01T03:22:02.000Z</time>
      </trkpt>
      <trkpt lat="42.303905" lon="-8.793745">
        <ele>57.3</ele>
        <time>1970-01-01T03:22:03.000Z</time>
      </trkpt>
      <trkpt lat="42.3039" lon="-8.79375">
        <ele>57.3</ele>
        <time>1970-01-01T03:22:04.000Z</time>
      </trkpt>
      <trkpt lat="42.303898" lon="-8.793755">
        <ele>57.3</ele>
        <time>1970-01-01T03:22:05.000Z</time>
      </trkpt>
      <trkpt lat="42.303895" lon="-8.793758">
        <ele>57.3</ele>
        <time>1970-01-01T03:22:06.000Z</time>
      </trkpt>
      <trkpt lat="42.303893" lon="-8.793763">
        <ele>57.3</ele>
        <time>1970-01-01T03:22:07.000Z</time>
      </trkpt>
      <trkpt lat="42.303892" lon="-8.793767">
        <ele>57.3</ele>
        <time>1970-01-01T03:22:08.000Z</time>
      </trkpt>
      <trkpt lat="42.303892" lon="-8.79377">
        <ele>57.3</ele>
        <time>1970-01-01T03:22:09.000Z</time>
      </trkpt>
      <trkpt lat="42.30389" lon="-8.793772">
        <ele>57.3</ele>
        <time>1970-01-01T03:22:10.000Z</time>
      </trkpt>
      <trkpt lat="42.30389" lon="-8.793773">
        <ele>57.3</ele>
        <time>1970-01-01T03:22:11.000Z</time>
      </trkpt>
      <trkpt lat="42.30389" lon="-8.793773">
        <ele>57.3</ele>
        <time>1970-01-01T03:22:12.000Z</time>
      </trkpt>
      <trkpt lat="42.303888" lon="-8.793775">
        <ele>56.2</ele>
        <time>1970-01-01T03:22:13.000Z</time>
      </trkpt>
      <trkpt lat="42.303887" lon="-8.793777">
        <ele>56.2</ele>
        <time>1970-01-01T03:22:14.000Z</time>
      </trkpt>
      <trkpt lat="42.303885" lon="-8.793782">
        <ele>56.2</ele>
        <time>1970-01-01T03:22:15.000Z</time>
      </trkpt>
      <trkpt lat="42.303882" lon="-8.793787">
        <ele>56.2</ele>
        <time>1970-01-01T03:22:16.000Z</time>
      </trkpt>
      <trkpt lat="42.30388" lon="-8.79379">
        <ele>57.3</ele>
        <time>1970-01-01T03:22:17.000Z</time>
      </trkpt>
      <trkpt lat="42.303878" lon="-8.793793">
        <ele>57.3</ele>
        <time>1970-01-01T03:22:18.000Z</time>
      </trkpt>
      <trkpt lat="42.303878" lon="-8.793795">
        <ele>57.3</ele>
        <time>1970-01-01T03:22:19.000Z</time>
      </trkpt>
      <trkpt lat="42.303878" lon="-8.793795">
        <ele>57.3</ele>
        <time>1970-01-01T03:22:20.000Z</time>
      </trkpt>
      <trkpt lat="42.303877" lon="-8.793802">
        <ele>57.3</ele>
        <time>1970-01-01T03:22:21.000Z</time>
      </trkpt>
      <trkpt lat="42.303868" lon="-8.793818">
        <ele>57.3</ele>
        <time>1970-01-01T03:22:22.000Z</time>
      </trkpt>
      <trkpt lat="42.30386" lon="-8.793835">
        <ele>57.3</ele>
        <time>1970-01-01T03:22:23.000Z</time>
      </trkpt>
      <trkpt lat="42.30385" lon="-8.793855">
        <ele>57.3</ele>
        <time>1970-01-01T03:22:24.000Z</time>
      </trkpt>
      <trkpt lat="42.30384" lon="-8.79387">
        <ele>54.3</ele>
        <time>1970-01-01T03:22:25.000Z</time>
      </trkpt>
      <trkpt lat="42.303828" lon="-8.793887">
        <ele>54.3</ele>
        <time>1970-01-01T03:22:26.000Z</time>
      </trkpt>
      <trkpt lat="42.30382" lon="-8.793907">
        <ele>54.3</ele>
        <time>1970-01-01T03:22:27.000Z</time>
      </trkpt>
      <trkpt lat="42.30381" lon="-8.793925">
        <ele>54.3</ele>
        <time>1970-01-01T03:22:28.000Z</time>
      </trkpt>
      <trkpt lat="42.303798" lon="-8.793943">
        <ele>53.3</ele>
        <time>1970-01-01T03:22:29.000Z</time>
      </trkpt>
      <trkpt lat="42.30379" lon="-8.793958">
        <ele>53.3</ele>
        <time>1970-01-01T03:22:30.000Z</time>
      </trkpt>
      <trkpt lat="42.303782" lon="-8.793973">
        <ele>53.3</ele>
        <time>1970-01-01T03:22:31.000Z</time>
      </trkpt>
      <trkpt lat="42.303772" lon="-8.793985">
        <ele>53.3</ele>
        <time>1970-01-01T03:22:32.000Z</time>
      </trkpt>
      <trkpt lat="42.303765" lon="-8.793997">
        <ele>52.3</ele>
        <time>1970-01-01T03:22:33.000Z</time>
      </trkpt>
      <trkpt lat="42.303758" lon="-8.794012">
        <ele>52.3</ele>
        <time>1970-01-01T03:22:34.000Z</time>
      </trkpt>
      <trkpt lat="42.30375" lon="-8.794023">
        <ele>51.2</ele>
        <time>1970-01-01T03:22:35.000Z</time>
      </trkpt>
      <trkpt lat="42.303743" lon="-8.79404">
        <ele>51.2</ele>
        <time>1970-01-01T03:22:36.000Z</time>
      </trkpt>
      <trkpt lat="42.303737" lon="-8.794057">
        <ele>51.2</ele>
        <time>1970-01-01T03:22:37.000Z</time>
      </trkpt>
      <trkpt lat="42.303732" lon="-8.794073">
        <ele>51.2</ele>
        <time>1970-01-01T03:22:38.000Z</time>
      </trkpt>
      <trkpt lat="42.303725" lon="-8.79409">
        <ele>50.3</ele>
        <time>1970-01-01T03:22:39.000Z</time>
      </trkpt>
      <trkpt lat="42.303722" lon="-8.794105">
        <ele>50.3</ele>
        <time>1970-01-01T03:22:40.000Z</time>
      </trkpt>
      <trkpt lat="42.30372" lon="-8.794122">
        <ele>50.3</ele>
        <time>1970-01-01T03:22:41.000Z</time>
      </trkpt>
      <trkpt lat="42.303718" lon="-8.79414">
        <ele>50.3</ele>
        <time>1970-01-01T03:22:42.000Z</time>
      </trkpt>
      <trkpt lat="42.303717" lon="-8.794162">
        <ele>50.3</ele>
        <time>1970-01-01T03:22:43.000Z</time>
      </trkpt>
      <trkpt lat="42.303718" lon="-8.794182">
        <ele>50.3</ele>
        <time>1970-01-01T03:22:44.000Z</time>
      </trkpt>
      <trkpt lat="42.303723" lon="-8.794198">
        <ele>49.2</ele>
        <time>1970-01-01T03:22:45.000Z</time>
      </trkpt>
      <trkpt lat="42.303735" lon="-8.79421">
        <ele>49.2</ele>
        <time>1970-01-01T03:22:46.000Z</time>
      </trkpt>
      <trkpt lat="42.303732" lon="-8.794261">
        <ele>127.8</ele>
        <time>1970-01-01T03:21:20.000Z</time>
      </trkpt>
      <trkpt lat="42.303737" lon="-8.79426">
        <ele>127.8</ele>
        <time>1970-01-01T03:21:21.000Z</time>
      </trkpt>
      <trkpt lat="42.303744" lon="-8.794259">
        <ele>127.8</ele>
        <time>1970-01-01T03:21:22.000Z</time>
      </trkpt>
      <trkpt lat="42.303755" lon="-8.794261">
        <ele>127.8</ele>
        <time>1970-01-01T03:21:23.000Z</time>
      </trkpt>
      <trkpt lat="42.303766" lon="-8.79426">
        <ele>128</ele>
        <time>1970-01-01T03:21:24.000Z</time>
      </trkpt>
      <trkpt lat="42.303779" lon="-8.794255">
        <ele>128</ele>
        <time>1970-01-01T03:21:25.000Z</time>
      </trkpt>
      <trkpt lat="42.303796" lon="-8.794253">
        <ele>128.2</ele>
        <time>1970-01-01T03:21:26.000Z</time>
      </trkpt>
      <trkpt lat="42.303811" lon="-8.794253">
        <ele>128.2</ele>
        <time>1970-01-01T03:21:27.000Z</time>
      </trkpt>
      <trkpt lat="42.303828" lon="-8.794254">
        <ele>128.4</ele>
        <time>1970-01-01T03:21:28.000Z</time>
      </trkpt>
      <trkpt lat="42.303847" lon="-8.794253">
        <ele>128.6</ele>
        <time>1970-01-01T03:21:29.000Z</time>
      </trkpt>
      <trkpt lat="42.303861" lon="-8.794251">
        <ele>128.8</ele>
        <time>1970-01-01T03:21:30.000Z</time>
      </trkpt>
      <trkpt lat="42.303873" lon="-8.794248">
        <ele>128.8</ele>
        <time>1970-01-01T03:21:31.000Z</time>
      </trkpt>
      <trkpt lat="42.303882" lon="-8.794245">
        <ele>129</ele>
        <time>1970-01-01T03:21:32.000Z</time>
      </trkpt>
      <trkpt lat="42.303891" lon="-8.794242">
        <ele>129</ele>
        <time>1970-01-01T03:21:33.000Z</time>
      </trkpt>
      <trkpt lat="42.303907" lon="-8.794236">
        <ele>129</ele>
        <time>1970-01-01T03:21:34.000Z</time>
      </trkpt>
      <trkpt lat="42.303921" lon="-8.794231">
        <ele>129</ele>
        <time>1970-01-01T03:21:35.000Z</time>
      </trkpt>
      <trkpt lat="42.30393" lon="-8.794227">
        <ele>129</ele>
        <time>1970-01-01T03:21:36.000Z</time>
      </trkpt>
      <trkpt lat="42.303939" lon="-8.794213">
        <ele>129</ele>
        <time>1970-01-01T03:21:37.000Z</time>
      </trkpt>
      <trkpt lat="42.303949" lon="-8.794199">
        <ele>129</ele>
        <time>1970-01-01T03:21:38.000Z</time>
      </trkpt>
      <trkpt lat="42.303949" lon="-8.794199">
        <ele>129</ele>
        <time>1970-01-01T03:21:39.000Z</time>
      </trkpt>
      <trkpt lat="42.303949" lon="-8.794199">
        <ele>129</ele>
        <time>1970-01-01T03:21:40.000Z</time>
      </trkpt>
      <trkpt lat="42.303949" lon="-8.794199">
        <ele>128.8</ele>
        <time>1970-01-01T03:21:41.000Z</time>
      </trkpt>
      <trkpt lat="42.303949" lon="-8.794199">
        <ele>129</ele>
        <time>1970-01-01T03:21:42.000Z</time>
      </trkpt>
      <trkpt lat="42.303949" lon="-8.794199">
        <ele>128.8</ele>
        <time>1970-01-01T03:21:43.000Z</time>
      </trkpt>
      <trkpt lat="42.303949" lon="-8.794199">
        <ele>129.2</ele>
        <time>1970-01-01T03:21:44.000Z</time>
      </trkpt>
      <trkpt lat="42.303949" lon="-8.794199">
        <ele>129.4</ele>
        <time>1970-01-01T03:21:45.000Z</time>
      </trkpt>
      <trkpt lat="42.303949" lon="-8.794199">
        <ele>129.6</ele>
        <time>1970-01-01T03:21:46.000Z</time>
      </trkpt>
      <trkpt lat="42.303949" lon="-8.794199">
        <ele>129.6</ele>
        <time>1970-01-01T03:21:47.000Z</time>
      </trkpt>
      <trkpt lat="42.303949" lon="-8.794199">
        <ele>129.6</ele>
        <time>1970-01-01T03:21:48.000Z</time>
      </trkpt>
      <trkpt lat="42.303949" lon="-8.794199">
        <ele>129.6</ele>
        <time>1970-01-01T03:21:49.000Z</time>
      </trkpt>
      <trkpt lat="42.303949" lon="-8.794199">
        <ele>129.4</ele>
        <time>1970-01-01T03:21:50.000Z</time>
      </trkpt>
      <trkpt lat="42.303949" lon="-8.794199">
        <ele>129.4</ele>
        <time>1970-01-01T03:21:51.000Z</time>
      </trkpt>
      <trkpt lat="42.303949" lon="-8.794199">
        <ele>129.4</ele>
        <time>1970-01-01T03:21:52.000Z</time>
      </trkpt>
      <trkpt lat="42.303949" lon="-8.794199">
        <ele>129.6</ele>
        <time>1970-01-01T03:21:53.000Z</time>
      </trkpt>
      <trkpt lat="42.303949" lon="-8.794199">
        <ele>129.8</ele>
        <time>1970-01-01T03:21:54.000Z</time>
      </trkpt>
      <trkpt lat="42.303949" lon="-8.794199">
        <ele>129.8</ele>
        <time>1970-01-01T03:21:55.000Z</time>
      </trkpt>
      <trkpt lat="42.303949" lon="-8.794199">
        <ele>130</ele>
        <time>1970-01-01T03:21:56.000Z</time>
      </trkpt>
      <trkpt lat="42.303949" lon="-8.794199">
        <ele>130</ele>
        <time>1970-01-01T03:21:57.000Z</time>
      </trkpt>
      <trkpt lat="42.303949" lon="-8.794199">
        <ele>130.2</ele>
        <time>1970-01-01T03:21:58.000Z</time>
      </trkpt>
      <trkpt lat="42.303949" lon="-8.794199">
        <ele>130.2</ele>
        <time>1970-01-01T03:21:59.000Z</time>
      </trkpt>
      <trkpt lat="42.303949" lon="-8.794199">
        <ele>130.4</ele>
        <time>1970-01-01T03:22:00.000Z</time>
      </trkpt>
      <trkpt lat="42.303949" lon="-8.794199">
        <ele>130.6</ele>
        <time>1970-01-01T03:22:01.000Z</time>
      </trkpt>
      <trkpt lat="42.303949" lon="-8.794199">
        <ele>130.8</ele>
        <time>1970-01-01T03:22:02.000Z</time>
      </trkpt>
      <trkpt lat="42.303949" lon="-8.794199">
        <ele>130.8</ele>
        <time>1970-01-01T03:22:03.000Z</time>
      </trkpt>
      <trkpt lat="42.303949" lon="-8.794199">
        <ele>131</ele>
        <time>1970-01-01T03:22:04.000Z</time>
      </trkpt>
      <trkpt lat="42.303949" lon="-8.794199">
        <ele>131</ele>
        <time>1970-01-01T03:22:05.000Z</time>
      </trkpt>
      <trkpt lat="42.303949" lon="-8.794199">
        <ele>131.2</ele>
        <time>1970-01-01T03:22:06.000Z</time>
      </trkpt>
      <trkpt lat="42.303949" lon="-8.794199">
        <ele>131.2</ele>
        <time>1970-01-01T03:22:07.000Z</time>
      </trkpt>
      <trkpt lat="42.303949" lon="-8.794199">
        <ele>131.2</ele>
        <time>1970-01-01T03:22:08.000Z</time>
      </trkpt>
      <trkpt lat="42.303949" lon="-8.794199">
        <ele>131.2</ele>
        <time>1970-01-01T03:22:09.000Z</time>
      </trkpt>
      <trkpt lat="42.303949" lon="-8.794199">
        <ele>131.4</ele>
        <time>1970-01-01T03:22:10.000Z</time>
      </trkpt>
      <trkpt lat="42.303949" lon="-8.794199">
        <ele>131.4</ele>
        <time>1970-01-01T03:22:11.000Z</time>
      </trkpt>
      <trkpt lat="42.304343" lon="-8.79422">
        <ele>131.4</ele>
        <time>1970-01-01T03:22:12.000Z</time>
      </trkpt>
      <trkpt lat="42.304389" lon="-8.794187">
        <ele>131.6</ele>
        <time>1970-01-01T03:22:13.000Z</time>
      </trkpt>
      <trkpt lat="42.304402" lon="-8.794173">
        <ele>131.6</ele>
        <time>1970-01-01T03:22:14.000Z</time>
      </trkpt>
      <trkpt lat="42.304415" lon="-8.794159">
        <ele>131.6</ele>
        <time>1970-01-01T03:22:15.000Z</time>
      </trkpt>
      <trkpt lat="42.304429" lon="-8.794144">
        <ele>131.8</ele>
        <time>1970-01-01T03:22:16.000Z</time>
      </trkpt>
      <trkpt lat="42.304436" lon="-8.794134">
        <ele>131.8</ele>
        <time>1970-01-01T03:22:17.000Z</time>
      </trkpt>
      <trkpt lat="42.304444" lon="-8.794127">
        <ele>131.8</ele>
        <time>1970-01-01T03:22:18.000Z</time>
      </trkpt>
      <trkpt lat="42.304442" lon="-8.794111">
        <ele>131.8</ele>
        <time>1970-01-01T03:22:19.000Z</time>
      </trkpt>
      <trkpt lat="42.304441" lon="-8.794093">
        <ele>132</ele>
        <time>1970-01-01T03:22:20.000Z</time>
      </trkpt>
      <trkpt lat="42.304439" lon="-8.794077">
        <ele>132.2</ele>
        <time>1970-01-01T03:22:21.000Z</time>
      </trkpt>
      <trkpt lat="42.304436" lon="-8.794063">
        <ele>132.2</ele>
        <time>1970-01-01T03:22:22.000Z</time>
      </trkpt>
      <trkpt lat="42.304434" lon="-8.794051">
        <ele>132.4</ele>
        <time>1970-01-01T03:22:23.000Z</time>
      </trkpt>
      <trkpt lat="42.30443" lon="-8.794034">
        <ele>132.6</ele>
        <time>1970-01-01T03:22:24.000Z</time>
      </trkpt>
      <trkpt lat="42.304425" lon="-8.794019">
        <ele>132.8</ele>
        <time>1970-01-01T03:22:25.000Z</time>
      </trkpt>
      <trkpt lat="42.304419" lon="-8.794002">
        <ele>132.8</ele>
        <time>1970-01-01T03:22:26.000Z</time>
      </trkpt>
      <trkpt lat="42.304413" lon="-8.793986">
        <ele>133</ele>
        <time>1970-01-01T03:22:27.000Z</time>
      </trkpt>
      <trkpt lat="42.304411" lon="-8.793974">
        <ele>133.2</ele>
        <time>1970-01-01T03:22:28.000Z</time>
      </trkpt>
      <trkpt lat="42.304407" lon="-8.793959">
        <ele>133.4</ele>
        <time>1970-01-01T03:22:29.000Z</time>
      </trkpt>
      <trkpt lat="42.304402" lon="-8.793948">
        <ele>133.6</ele>
        <time>1970-01-01T03:22:30.000Z</time>
      </trkpt>
      <trkpt lat="42.304397" lon="-8.793934">
        <ele>133.8</ele>
        <time>1970-01-01T03:22:31.000Z</time>
      </trkpt>
      <trkpt lat="42.304393" lon="-8.793917">
        <ele>133.8</ele>
        <time>1970-01-01T03:22:32.000Z</time>
      </trkpt>
      <trkpt lat="42.304391" lon="-8.793902">
        <ele>134</ele>
        <time>1970-01-01T03:22:33.000Z</time>
      </trkpt>
      <trkpt lat="42.30439" lon="-8.79389">
        <ele>134.2</ele>
        <time>1970-01-01T03:22:34.000Z</time>
      </trkpt>
      <trkpt lat="42.304387" lon="-8.793872">
        <ele>134.2</ele>
        <time>1970-01-01T03:22:35.000Z</time>
      </trkpt>
      <trkpt lat="42.304384" lon="-8.793853">
        <ele>134.6</ele>
        <time>1970-01-01T03:22:36.000Z</time>
      </trkpt>
      <trkpt lat="42.304378" lon="-8.793832">
        <ele>134.8</ele>
        <time>1970-01-01T03:22:37.000Z</time>
      </trkpt>
      <trkpt lat="42.304376" lon="-8.793815">
        <ele>135.4</ele>
        <time>1970-01-01T03:22:38.000Z</time>
      </trkpt>
      <trkpt lat="42.304373" lon="-8.793799">
        <ele>135.6</ele>
        <time>1970-01-01T03:22:39.000Z</time>
      </trkpt>
      <trkpt lat="42.304372" lon="-8.793785">
        <ele>135.8</ele>
        <time>1970-01-01T03:22:40.000Z</time>
      </trkpt>
      <trkpt lat="42.304372" lon="-8.793773">
        <ele>135.8</ele>
        <time>1970-01-01T03:22:41.000Z</time>
      </trkpt>
      <trkpt lat="42.304373" lon="-8.793763">
        <ele>135.8</ele>
        <time>1970-01-01T03:22:42.000Z</time>
      </trkpt>
      <trkpt lat="42.304377" lon="-8.793753">
        <ele>136.2</ele>
        <time>1970-01-01T03:22:43.000Z</time>
      </trkpt>
      <trkpt lat="42.304384" lon="-8.793741">
        <ele>136</ele>
        <time>1970-01-01T03:22:44.000Z</time>
      </trkpt>
      <trkpt lat="42.304396" lon="-8.793729">
        <ele>136</ele>
        <time>1970-01-01T03:22:45.000Z</time>
      </trkpt>
      <trkpt lat="42.304405" lon="-8.79372">
        <ele>136.4</ele>
        <time>1970-01-01T03:22:46.000Z</time>
      </trkpt>
      <trkpt lat="42.304412" lon="-8.79371">
        <ele>136.6</ele>
        <time>1970-01-01T03:22:47.000Z</time>
      </trkpt>
      <trkpt lat="42.304421" lon="-8.7937">
        <ele>136.6</ele>
        <time>1970-01-01T03:22:48.000Z</time>
      </trkpt>
      <trkpt lat="42.304428" lon="-8.793694">
        <ele>136.8</ele>
        <time>1970-01-01T03:22:49.000Z</time>
      </trkpt>
      <trkpt lat="42.304438" lon="-8.793694">
        <ele>137</ele>
        <time>1970-01-01T03:22:50.000Z</time>
      </trkpt>
      <trkpt lat="42.304447" lon="-8.793696">
        <ele>137</ele>
        <time>1970-01-01T03:22:51.000Z</time>
      </trkpt>
      <trkpt lat="42.304456" lon="-8.793696">
        <ele>137</ele>
        <time>1970-01-01T03:22:52.000Z</time>
      </trkpt>
      <trkpt lat="42.304472" lon="-8.793689">
        <ele>137.2</ele>
        <time>1970-01-01T03:22:53.000Z</time>
      </trkpt>
      <trkpt lat="42.304492" lon="-8.793683">
        <ele>137.4</ele>
        <time>1970-01-01T03:22:54.000Z</time>
      </trkpt>
      <trkpt lat="42.304508" lon="-8.793677">
        <ele>137.4</ele>
        <time>1970-01-01T03:22:55.000Z</time>
      </trkpt>
      <trkpt lat="42.30452" lon="-8.793674">
        <ele>137.4</ele>
        <time>1970-01-01T03:22:56.000Z</time>
      </trkpt>
      <trkpt lat="42.304531" lon="-8.793671">
        <ele>137.4</ele>
        <time>1970-01-01T03:22:57.000Z</time>
      </trkpt>
      <trkpt lat="42.304544" lon="-8.79367">
        <ele>137.4</ele>
        <time>1970-01-01T03:22:58.000Z</time>
      </trkpt>
      <trkpt lat="42.304551" lon="-8.79367">
        <ele>137.4</ele>
        <time>1970-01-01T03:22:59.000Z</time>
      </trkpt>
      <trkpt lat="42.304556" lon="-8.793668">
        <ele>137.4</ele>
        <time>1970-01-01T03:23:00.000Z</time>
      </trkpt>
      <trkpt lat="42.304564" lon="-8.793662">
        <ele>137.4</ele>
        <time>1970-01-01T03:23:01.000Z</time>
      </trkpt>
      <trkpt lat="42.304575" lon="-8.79366">
        <ele>137.4</ele>
        <time>1970-01-01T03:23:02.000Z</time>
      </trkpt>
      <trkpt lat="42.304586" lon="-8.793659">
        <ele>137.4</ele>
        <time>1970-01-01T03:23:03.000Z</time>
      </trkpt>
      <trkpt lat="42.304599" lon="-8.793665">
        <ele>137.6</ele>
        <time>1970-01-01T03:23:04.000Z</time>
      </trkpt>
      <trkpt lat="42.304614" lon="-8.79367">
        <ele>137.6</ele>
        <time>1970-01-01T03:23:05.000Z</time>
      </trkpt>
      <trkpt lat="42.30463" lon="-8.793676">
        <ele>137.6</ele>
        <time>1970-01-01T03:23:06.000Z</time>
      </trkpt>
      <trkpt lat="42.304643" lon="-8.793676">
        <ele>137.8</ele>
        <time>1970-01-01T03:23:07.000Z</time>
      </trkpt>
      <trkpt lat="42.304662" lon="-8.793679">
        <ele>137.8</ele>
        <time>1970-01-01T03:23:08.000Z</time>
      </trkpt>
      <trkpt lat="42.304686" lon="-8.79368">
        <ele>137.8</ele>
        <time>1970-01-01T03:23:09.000Z</time>
      </trkpt>
      <trkpt lat="42.3047" lon="-8.793679">
        <ele>138</ele>
        <time>1970-01-01T03:23:10.000Z</time>
      </trkpt>
      <trkpt lat="42.304712" lon="-8.793676">
        <ele>137.8</ele>
        <time>1970-01-01T03:23:11.000Z</time>
      </trkpt>
      <trkpt lat="42.304724" lon="-8.793674">
        <ele>137.8</ele>
        <time>1970-01-01T03:23:12.000Z</time>
      </trkpt>
      <trkpt lat="42.304738" lon="-8.793673">
        <ele>137.8</ele>
        <time>1970-01-01T03:23:13.000Z</time>
      </trkpt>
      <trkpt lat="42.304749" lon="-8.79367">
        <ele>137.8</ele>
        <time>1970-01-01T03:23:14.000Z</time>
      </trkpt>
      <trkpt lat="42.304761" lon="-8.793666">
        <ele>137.8</ele>
        <time>1970-01-01T03:23:15.000Z</time>
      </trkpt>
      <trkpt lat="42.30477" lon="-8.793663">
        <ele>137.6</ele>
        <time>1970-01-01T03:23:16.000Z</time>
      </trkpt>
      <trkpt lat="42.304781" lon="-8.793657">
        <ele>137.4</ele>
        <time>1970-01-01T03:23:17.000Z</time>
      </trkpt>
      <trkpt lat="42.304794" lon="-8.793652">
        <ele>137.4</ele>
        <time>1970-01-01T03:23:18.000Z</time>
      </trkpt>
      <trkpt lat="42.304807" lon="-8.793649">
        <ele>137.4</ele>
        <time>1970-01-01T03:23:19.000Z</time>
      </trkpt>
      <trkpt lat="42.304819" lon="-8.793647">
        <ele>137.4</ele>
        <time>1970-01-01T03:23:20.000Z</time>
      </trkpt>
      <trkpt lat="42.304838" lon="-8.793641">
        <ele>137.4</ele>
        <time>1970-01-01T03:23:21.000Z</time>
      </trkpt>
      <trkpt lat="42.304856" lon="-8.793631">
        <ele>137.6</ele>
        <time>1970-01-01T03:23:22.000Z</time>
      </trkpt>
      <trkpt lat="42.304873" lon="-8.793625">
        <ele>137.6</ele>
        <time>1970-01-01T03:23:23.000Z</time>
      </trkpt>
      <trkpt lat="42.304888" lon="-8.793621">
        <ele>137.8</ele>
        <time>1970-01-01T03:23:24.000Z</time>
      </trkpt>
      <trkpt lat="42.3049" lon="-8.793619">
        <ele>138</ele>
        <time>1970-01-01T03:23:25.000Z</time>
      </trkpt>
      <trkpt lat="42.304913" lon="-8.793615">
        <ele>138</ele>
        <time>1970-01-01T03:23:26.000Z</time>
      </trkpt>
      <trkpt lat="42.304924" lon="-8.793609">
        <ele>138</ele>
        <time>1970-01-01T03:23:27.000Z</time>
      </trkpt>
      <trkpt lat="42.304937" lon="-8.793601">
        <ele>138</ele>
        <time>1970-01-01T03:23:28.000Z</time>
      </trkpt>
      <trkpt lat="42.304948" lon="-8.793592">
        <ele>138</ele>
        <time>1970-01-01T03:23:29.000Z</time>
      </trkpt>
      <trkpt lat="42.304955" lon="-8.793583">
        <ele>138</ele>
        <time>1970-01-01T03:23:30.000Z</time>
      </trkpt>
      <trkpt lat="42.304964" lon="-8.793576">
        <ele>137.8</ele>
        <time>1970-01-01T03:23:31.000Z</time>
      </trkpt>
      <trkpt lat="42.304974" lon="-8.793572">
        <ele>137.6</ele>
        <time>1970-01-01T03:23:32.000Z</time>
      </trkpt>
      <trkpt lat="42.304983" lon="-8.793567">
        <ele>137.6</ele>
        <time>1970-01-01T03:23:33.000Z</time>
      </trkpt>
      <trkpt lat="42.30499" lon="-8.793561">
        <ele>137.8</ele>
        <time>1970-01-01T03:23:34.000Z</time>
      </trkpt>
      <trkpt lat="42.304997" lon="-8.793554">
        <ele>137.6</ele>
        <time>1970-01-01T03:23:35.000Z</time>
      </trkpt>
      <trkpt lat="42.305004" lon="-8.793544">
        <ele>137.8</ele>
        <time>1970-01-01T03:23:36.000Z</time>
      </trkpt>
      <trkpt lat="42.305012" lon="-8.793534">
        <ele>137.8</ele>
        <time>1970-01-01T03:23:37.000Z</time>
      </trkpt>
      <trkpt lat="42.305023" lon="-8.793523">
        <ele>138</ele>
        <time>1970-01-01T03:23:38.000Z</time>
      </trkpt>
      <trkpt lat="42.305038" lon="-8.793512">
        <ele>138</ele>
        <time>1970-01-01T03:23:39.000Z</time>
      </trkpt>
      <trkpt lat="42.305048" lon="-8.793503">
        <ele>138</ele>
        <time>1970-01-01T03:23:40.000Z</time>
      </trkpt>
      <trkpt lat="42.305058" lon="-8.793494">
        <ele>138</ele>
        <time>1970-01-01T03:23:41.000Z</time>
      </trkpt>
      <trkpt lat="42.305068" lon="-8.793488">
        <ele>138</ele>
        <time>1970-01-01T03:23:42.000Z</time>
      </trkpt>
      <trkpt lat="42.305076" lon="-8.793479">
        <ele>138</ele>
        <time>1970-01-01T03:23:43.000Z</time>
      </trkpt>
      <trkpt lat="42.305086" lon="-8.793467">
        <ele>138</ele>
        <time>1970-01-01T03:23:44.000Z</time>
      </trkpt>
      <trkpt lat="42.305096" lon="-8.793454">
        <ele>138</ele>
        <time>1970-01-01T03:23:45.000Z</time>
      </trkpt>
      <trkpt lat="42.305109" lon="-8.79344">
        <ele>138</ele>
        <time>1970-01-01T03:23:46.000Z</time>
      </trkpt>
      <trkpt lat="42.305117" lon="-8.793427">
        <ele>138</ele>
        <time>1970-01-01T03:23:47.000Z</time>
      </trkpt>
      <trkpt lat="42.305125" lon="-8.793417">
        <ele>138</ele>
        <time>1970-01-01T03:23:48.000Z</time>
      </trkpt>
      <trkpt lat="42.305135" lon="-8.793405">
        <ele>138.2</ele>
        <time>1970-01-01T03:23:49.000Z</time>
      </trkpt>
      <trkpt lat="42.30515" lon="-8.793393">
        <ele>138.2</ele>
        <time>1970-01-01T03:23:50.000Z</time>
      </trkpt>
      <trkpt lat="42.305159" lon="-8.793379">
        <ele>138.4</ele>
        <time>1970-01-01T03:23:51.000Z</time>
      </trkpt>
      <trkpt lat="42.305163" lon="-8.793367">
        <ele>138.4</ele>
        <time>1970-01-01T03:23:52.000Z</time>
      </trkpt>
      <trkpt lat="42.305169" lon="-8.793351">
        <ele>138.4</ele>
        <time>1970-01-01T03:23:53.000Z</time>
      </trkpt>
      <trkpt lat="42.305175" lon="-8.793335">
        <ele>138.4</ele>
        <time>1970-01-01T03:23:54.000Z</time>
      </trkpt>
      <trkpt lat="42.305181" lon="-8.793321">
        <ele>138.4</ele>
        <time>1970-01-01T03:23:55.000Z</time>
      </trkpt>
      <trkpt lat="42.305184" lon="-8.793308">
        <ele>138.4</ele>
        <time>1970-01-01T03:23:56.000Z</time>
      </trkpt>
      <trkpt lat="42.30519" lon="-8.793293">
        <ele>138.4</ele>
        <time>1970-01-01T03:23:57.000Z</time>
      </trkpt>
      <trkpt lat="42.305197" lon="-8.793273">
        <ele>138.4</ele>
        <time>1970-01-01T03:23:58.000Z</time>
      </trkpt>
      <trkpt lat="42.305204" lon="-8.793258">
        <ele>138.4</ele>
        <time>1970-01-01T03:23:59.000Z</time>
      </trkpt>
      <trkpt lat="42.305217" lon="-8.793242">
        <ele>138.4</ele>
        <time>1970-01-01T03:24:00.000Z</time>
      </trkpt>
      <trkpt lat="42.305225" lon="-8.793229">
        <ele>138.4</ele>
        <time>1970-01-01T03:24:01.000Z</time>
      </trkpt>
      <trkpt lat="42.305233" lon="-8.793219">
        <ele>138.4</ele>
        <time>1970-01-01T03:24:02.000Z</time>
      </trkpt>
      <trkpt lat="42.305243" lon="-8.793208">
        <ele>138.4</ele>
        <time>1970-01-01T03:24:03.000Z</time>
      </trkpt>
      <trkpt lat="42.305251" lon="-8.793194">
        <ele>138.4</ele>
        <time>1970-01-01T03:24:04.000Z</time>
      </trkpt>
      <trkpt lat="42.305257" lon="-8.793184">
        <ele>138.6</ele>
        <time>1970-01-01T03:24:05.000Z</time>
      </trkpt>
      <trkpt lat="42.305263" lon="-8.793175">
        <ele>138.6</ele>
        <time>1970-01-01T03:24:06.000Z</time>
      </trkpt>
      <trkpt lat="42.305265" lon="-8.793167">
        <ele>138.6</ele>
        <time>1970-01-01T03:24:07.000Z</time>
      </trkpt>
      <trkpt lat="42.305268" lon="-8.793159">
        <ele>138.8</ele>
        <time>1970-01-01T03:24:08.000Z</time>
      </trkpt>
      <trkpt lat="42.305274" lon="-8.79315">
        <ele>138.8</ele>
        <time>1970-01-01T03:24:09.000Z</time>
      </trkpt>
      <trkpt lat="42.305281" lon="-8.793141">
        <ele>139</ele>
        <time>1970-01-01T03:24:10.000Z</time>
      </trkpt>
      <trkpt lat="42.30529" lon="-8.793132">
        <ele>139</ele>
        <time>1970-01-01T03:24:11.000Z</time>
      </trkpt>
      <trkpt lat="42.305302" lon="-8.793129">
        <ele>139</ele>
        <time>1970-01-01T03:24:12.000Z</time>
      </trkpt>
      <trkpt lat="42.305314" lon="-8.793127">
        <ele>139</ele>
        <time>1970-01-01T03:24:13.000Z</time>
      </trkpt>
      <trkpt lat="42.305324" lon="-8.793124">
        <ele>139</ele>
        <time>1970-01-01T03:24:14.000Z</time>
      </trkpt>
      <trkpt lat="42.305331" lon="-8.793123">
        <ele>139</ele>
        <time>1970-01-01T03:24:15.000Z</time>
      </trkpt>
      <trkpt lat="42.305338" lon="-8.793121">
        <ele>139.2</ele>
        <time>1970-01-01T03:24:16.000Z</time>
      </trkpt>
      <trkpt lat="42.305351" lon="-8.793118">
        <ele>139.2</ele>
        <time>1970-01-01T03:24:17.000Z</time>
      </trkpt>
      <trkpt lat="42.305366" lon="-8.793119">
        <ele>139.2</ele>
        <time>1970-01-01T03:24:18.000Z</time>
      </trkpt>
      <trkpt lat="42.305379" lon="-8.793117">
        <ele>139.4</ele>
        <time>1970-01-01T03:24:19.000Z</time>
      </trkpt>
      <trkpt lat="42.305389" lon="-8.793113">
        <ele>139.2</ele>
        <time>1970-01-01T03:24:20.000Z</time>
      </trkpt>
      <trkpt lat="42.305398" lon="-8.793105">
        <ele>139.4</ele>
        <time>1970-01-01T03:24:21.000Z</time>
      </trkpt>
      <trkpt lat="42.305406" lon="-8.793095">
        <ele>139.6</ele>
        <time>1970-01-01T03:24:22.000Z</time>
      </trkpt>
      <trkpt lat="42.305416" lon="-8.793087">
        <ele>139.6</ele>
        <time>1970-01-01T03:24:23.000Z</time>
      </trkpt>
      <trkpt lat="42.305426" lon="-8.793082">
        <ele>139.8</ele>
        <time>1970-01-01T03:24:24.000Z</time>
      </trkpt>
      <trkpt lat="42.305439" lon="-8.793082">
        <ele>140</ele>
        <time>1970-01-01T03:24:25.000Z</time>
      </trkpt>
      <trkpt lat="42.305453" lon="-8.793085">
        <ele>140</ele>
        <time>1970-01-01T03:24:26.000Z</time>
      </trkpt>
      <trkpt lat="42.305467" lon="-8.793084">
        <ele>140.2</ele>
        <time>1970-01-01T03:24:27.000Z</time>
      </trkpt>
      <trkpt lat="42.305484" lon="-8.793085">
        <ele>140.2</ele>
        <time>1970-01-01T03:24:28.000Z</time>
      </trkpt>
      <trkpt lat="42.305501" lon="-8.793089">
        <ele>140.2</ele>
        <time>1970-01-01T03:24:29.000Z</time>
      </trkpt>
      <trkpt lat="42.305518" lon="-8.793094">
        <ele>140.2</ele>
        <time>1970-01-01T03:24:30.000Z</time>
      </trkpt>
      <trkpt lat="42.305532" lon="-8.793092">
        <ele>140</ele>
        <time>1970-01-01T03:24:31.000Z</time>
      </trkpt>
      <trkpt lat="42.305547" lon="-8.79309">
        <ele>139.6</ele>
        <time>1970-01-01T03:24:32.000Z</time>
      </trkpt>
      <trkpt lat="42.305562" lon="-8.793089">
        <ele>139.4</ele>
        <time>1970-01-01T03:24:33.000Z</time>
      </trkpt>
      <trkpt lat="42.305577" lon="-8.793085">
        <ele>139.4</ele>
        <time>1970-01-01T03:24:34.000Z</time>
      </trkpt>
      <trkpt lat="42.305591" lon="-8.793077">
        <ele>139.4</ele>
        <time>1970-01-01T03:24:35.000Z</time>
      </trkpt>
      <trkpt lat="42.305607" lon="-8.793074">
        <ele>139.2</ele>
        <time>1970-01-01T03:24:36.000Z</time>
      </trkpt>
      <trkpt lat="42.305624" lon="-8.793072">
        <ele>139.4</ele>
        <time>1970-01-01T03:24:37.000Z</time>
      </trkpt>
      <trkpt lat="42.305637" lon="-8.793068">
        <ele>139.4</ele>
        <time>1970-01-01T03:24:38.000Z</time>
      </trkpt>
      <trkpt lat="42.305652" lon="-8.793061">
        <ele>139.8</ele>
        <time>1970-01-01T03:24:39.000Z</time>
      </trkpt>
      <trkpt lat="42.305667" lon="-8.79306">
        <ele>139.6</ele>
        <time>1970-01-01T03:24:40.000Z</time>
      </trkpt>
      <trkpt lat="42.30568" lon="-8.793059">
        <ele>139.6</ele>
        <time>1970-01-01T03:24:41.000Z</time>
      </trkpt>
      <trkpt lat="42.305694" lon="-8.793055">
        <ele>139.4</ele>
        <time>1970-01-01T03:24:42.000Z</time>
      </trkpt>
      <trkpt lat="42.305702" lon="-8.793051">
        <ele>139.6</ele>
        <time>1970-01-01T03:24:43.000Z</time>
      </trkpt>
      <trkpt lat="42.305706" lon="-8.793047">
        <ele>139.4</ele>
        <time>1970-01-01T03:24:44.000Z</time>
      </trkpt>
      <trkpt lat="42.305716" lon="-8.793042">
        <ele>139.4</ele>
        <time>1970-01-01T03:24:45.000Z</time>
      </trkpt>
      <trkpt lat="42.305724" lon="-8.793036">
        <ele>139.2</ele>
        <time>1970-01-01T03:24:46.000Z</time>
      </trkpt>
      <trkpt lat="42.305734" lon="-8.793031">
        <ele>139.2</ele>
        <time>1970-01-01T03:24:47.000Z</time>
      </trkpt>
      <trkpt lat="42.305748" lon="-8.793031">
        <ele>139.2</ele>
        <time>1970-01-01T03:24:48.000Z</time>
      </trkpt>
      <trkpt lat="42.305766" lon="-8.793033">
        <ele>139.2</ele>
        <time>1970-01-01T03:24:49.000Z</time>
      </trkpt>
      <trkpt lat="42.305783" lon="-8.793036">
        <ele>139.2</ele>
        <time>1970-01-01T03:24:50.000Z</time>
      </trkpt>
      <trkpt lat="42.305796" lon="-8.793038">
        <ele>139.2</ele>
        <time>1970-01-01T03:24:51.000Z</time>
      </trkpt>
      <trkpt lat="42.305806" lon="-8.793032">
        <ele>139</ele>
        <time>1970-01-01T03:24:52.000Z</time>
      </trkpt>
      <trkpt lat="42.305815" lon="-8.793023">
        <ele>139</ele>
        <time>1970-01-01T03:24:53.000Z</time>
      </trkpt>
      <trkpt lat="42.305826" lon="-8.793015">
        <ele>138.8</ele>
        <time>1970-01-01T03:24:54.000Z</time>
      </trkpt>
      <trkpt lat="42.305839" lon="-8.793011">
        <ele>138.8</ele>
        <time>1970-01-01T03:24:55.000Z</time>
      </trkpt>
      <trkpt lat="42.30585" lon="-8.793002">
        <ele>138.8</ele>
        <time>1970-01-01T03:24:56.000Z</time>
      </trkpt>
      <trkpt lat="42.305857" lon="-8.79299">
        <ele>138.8</ele>
        <time>1970-01-01T03:24:57.000Z</time>
      </trkpt>
      <trkpt lat="42.305865" lon="-8.792989">
        <ele>138.6</ele>
        <time>1970-01-01T03:24:58.000Z</time>
      </trkpt>
      <trkpt lat="42.305873" lon="-8.792992">
        <ele>138.6</ele>
        <time>1970-01-01T03:24:59.000Z</time>
      </trkpt>
      <trkpt lat="42.305882" lon="-8.792991">
        <ele>138.8</ele>
        <time>1970-01-01T03:25:00.000Z</time>
      </trkpt>
      <trkpt lat="42.305896" lon="-8.792985">
        <ele>139</ele>
        <time>1970-01-01T03:25:01.000Z</time>
      </trkpt>
      <trkpt lat="42.305907" lon="-8.792979">
        <ele>139.2</ele>
        <time>1970-01-01T03:25:02.000Z</time>
      </trkpt>
      <trkpt lat="42.305919" lon="-8.792977">
        <ele>139.4</ele>
        <time>1970-01-01T03:25:03.000Z</time>
      </trkpt>
      <trkpt lat="42.305932" lon="-8.792981">
        <ele>139.6</ele>
        <time>1970-01-01T03:25:04.000Z</time>
      </trkpt>
      <trkpt lat="42.305942" lon="-8.792994">
        <ele>139.6</ele>
        <time>1970-01-01T03:25:05.000Z</time>
      </trkpt>
      <trkpt lat="42.30595" lon="-8.793005">
        <ele>139.6</ele>
        <time>1970-01-01T03:25:06.000Z</time>
      </trkpt>
      <trkpt lat="42.305957" lon="-8.793015">
        <ele>139.4</ele>
        <time>1970-01-01T03:25:07.000Z</time>
      </trkpt>
      <trkpt lat="42.305965" lon="-8.793024">
        <ele>139.2</ele>
        <time>1970-01-01T03:25:08.000Z</time>
      </trkpt>
      <trkpt lat="42.305971" lon="-8.793032">
        <ele>139</ele>
        <time>1970-01-01T03:25:09.000Z</time>
      </trkpt>
      <trkpt lat="42.305972" lon="-8.793036">
        <ele>139</ele>
        <time>1970-01-01T03:25:10.000Z</time>
      </trkpt>
      <trkpt lat="42.305967" lon="-8.793035">
        <ele>138.8</ele>
        <time>1970-01-01T03:25:11.000Z</time>
      </trkpt>
      <trkpt lat="42.305961" lon="-8.793035">
        <ele>138.8</ele>
        <time>1970-01-01T03:25:12.000Z</time>
      </trkpt>
      <trkpt lat="42.305956" lon="-8.793036">
        <ele>138.6</ele>
        <time>1970-01-01T03:25:13.000Z</time>
      </trkpt>
      <trkpt lat="42.305953" lon="-8.793039">
        <ele>138.4</ele>
        <time>1970-01-01T03:25:14.000Z</time>
      </trkpt>
      <trkpt lat="42.305952" lon="-8.793046">
        <ele>138.2</ele>
        <time>1970-01-01T03:25:15.000Z</time>
      </trkpt>
      <trkpt lat="42.305951" lon="-8.793048">
        <ele>138.2</ele>
        <time>1970-01-01T03:25:16.000Z</time>
      </trkpt>
      <trkpt lat="42.305951" lon="-8.793049">
        <ele>138.2</ele>
        <time>1970-01-01T03:25:17.000Z</time>
      </trkpt>
      <trkpt lat="42.305952" lon="-8.793049">
        <ele>138.2</ele>
        <time>1970-01-01T03:25:18.000Z</time>
      </trkpt>
      <trkpt lat="42.305953" lon="-8.793048">
        <ele>138.2</ele>
        <time>1970-01-01T03:25:19.000Z</time>
      </trkpt>
      <trkpt lat="42.305953" lon="-8.793044">
        <ele>138.2</ele>
        <time>1970-01-01T03:25:20.000Z</time>
      </trkpt>
      <trkpt lat="42.305951" lon="-8.79304">
        <ele>138.2</ele>
        <time>1970-01-01T03:25:21.000Z</time>
      </trkpt>
      <trkpt lat="42.305951" lon="-8.793038">
        <ele>138.4</ele>
        <time>1970-01-01T03:25:22.000Z</time>
      </trkpt>
      <trkpt lat="42.30595" lon="-8.793036">
        <ele>138.4</ele>
        <time>1970-01-01T03:25:23.000Z</time>
      </trkpt>
      <trkpt lat="42.305952" lon="-8.793036">
        <ele>138.4</ele>
        <time>1970-01-01T03:25:24.000Z</time>
      </trkpt>
      <trkpt lat="42.305952" lon="-8.793045">
        <ele>138.4</ele>
        <time>1970-01-01T03:25:25.000Z</time>
      </trkpt>
      <trkpt lat="42.305947" lon="-8.793054">
        <ele>138.4</ele>
        <time>1970-01-01T03:25:26.000Z</time>
      </trkpt>
      <trkpt lat="42.305939" lon="-8.793066">
        <ele>138.6</ele>
        <time>1970-01-01T03:25:27.000Z</time>
      </trkpt>
      <trkpt lat="42.305931" lon="-8.793082">
        <ele>138.4</ele>
        <time>1970-01-01T03:25:28.000Z</time>
      </trkpt>
      <trkpt lat="42.305932" lon="-8.793095">
        <ele>138.4</ele>
        <time>1970-01-01T03:25:29.000Z</time>
      </trkpt>
      <trkpt lat="42.305933" lon="-8.793115">
        <ele>138.4</ele>
        <time>1970-01-01T03:25:30.000Z</time>
      </trkpt>
      <trkpt lat="42.305933" lon="-8.793135">
        <ele>138.2</ele>
        <time>1970-01-01T03:25:31.000Z</time>
      </trkpt>
      <trkpt lat="42.305932" lon="-8.793152">
        <ele>138</ele>
        <time>1970-01-01T03:25:32.000Z</time>
      </trkpt>
      <trkpt lat="42.305932" lon="-8.793168">
        <ele>138</ele>
        <time>1970-01-01T03:25:33.000Z</time>
      </trkpt>
      <trkpt lat="42.305931" lon="-8.793182">
        <ele>138</ele>
        <time>1970-01-01T03:25:34.000Z</time>
      </trkpt>
      <trkpt lat="42.305929" lon="-8.793198">
        <ele>138</ele>
        <time>1970-01-01T03:25:35.000Z</time>
      </trkpt>
      <trkpt lat="42.30593" lon="-8.793212">
        <ele>138.2</ele>
        <time>1970-01-01T03:25:36.000Z</time>
      </trkpt>
      <trkpt lat="42.305932" lon="-8.793222">
        <ele>138.2</ele>
        <time>1970-01-01T03:25:37.000Z</time>
      </trkpt>
      <trkpt lat="42.305933" lon="-8.793229">
        <ele>138.2</ele>
        <time>1970-01-01T03:25:38.000Z</time>
      </trkpt>
      <trkpt lat="42.305938" lon="-8.793241">
        <ele>138.4</ele>
        <time>1970-01-01T03:25:39.000Z</time>
      </trkpt>
      <trkpt lat="42.305948" lon="-8.793261">
        <ele>138.6</ele>
        <time>1970-01-01T03:25:40.000Z</time>
      </trkpt>
      <trkpt lat="42.30596" lon="-8.793276">
        <ele>138.6</ele>
        <time>1970-01-01T03:25:41.000Z</time>
      </trkpt>
      <trkpt lat="42.305975" lon="-8.793291">
        <ele>138.8</ele>
        <time>1970-01-01T03:25:42.000Z</time>
      </trkpt>
      <trkpt lat="42.305982" lon="-8.793311">
        <ele>138.8</ele>
        <time>1970-01-01T03:25:43.000Z</time>
      </trkpt>
      <trkpt lat="42.305983" lon="-8.793329">
        <ele>138.4</ele>
        <time>1970-01-01T03:25:44.000Z</time>
      </trkpt>
      <trkpt lat="42.30598" lon="-8.793345">
        <ele>138.4</ele>
        <time>1970-01-01T03:25:45.000Z</time>
      </trkpt>
      <trkpt lat="42.30598" lon="-8.793362">
        <ele>138.2</ele>
        <time>1970-01-01T03:25:46.000Z</time>
      </trkpt>
      <trkpt lat="42.305978" lon="-8.793381">
        <ele>138</ele>
        <time>1970-01-01T03:25:47.000Z</time>
      </trkpt>
      <trkpt lat="42.305978" lon="-8.793397">
        <ele>138</ele>
        <time>1970-01-01T03:25:48.000Z</time>
      </trkpt>
      <trkpt lat="42.305979" lon="-8.793417">
        <ele>138</ele>
        <time>1970-01-01T03:25:49.000Z</time>
      </trkpt>
      <trkpt lat="42.305981" lon="-8.793441">
        <ele>137.8</ele>
        <time>1970-01-01T03:25:50.000Z</time>
      </trkpt>
      <trkpt lat="42.305981" lon="-8.793462">
        <ele>137.8</ele>
        <time>1970-01-01T03:25:51.000Z</time>
      </trkpt>
      <trkpt lat="42.305983" lon="-8.793482">
        <ele>137.6</ele>
        <time>1970-01-01T03:25:52.000Z</time>
      </trkpt>
      <trkpt lat="42.305986" lon="-8.793507">
        <ele>137.8</ele>
        <time>1970-01-01T03:25:53.000Z</time>
      </trkpt>
      <trkpt lat="42.305986" lon="-8.793532">
        <ele>138</ele>
        <time>1970-01-01T03:25:54.000Z</time>
      </trkpt>
      <trkpt lat="42.30599" lon="-8.793549">
        <ele>138</ele>
        <time>1970-01-01T03:25:55.000Z</time>
      </trkpt>
      <trkpt lat="42.305993" lon="-8.79356">
        <ele>138</ele>
        <time>1970-01-01T03:25:56.000Z</time>
      </trkpt>
      <trkpt lat="42.305991" lon="-8.793573">
        <ele>138</ele>
        <time>1970-01-01T03:25:57.000Z</time>
      </trkpt>
      <trkpt lat="42.305989" lon="-8.793586">
        <ele>138</ele>
        <time>1970-01-01T03:25:58.000Z</time>
      </trkpt>
      <trkpt lat="42.305984" lon="-8.793612">
        <ele>138.2</ele>
        <time>1970-01-01T03:25:59.000Z</time>
      </trkpt>
      <trkpt lat="42.305988" lon="-8.79364">
        <ele>138.2</ele>
        <time>1970-01-01T03:26:00.000Z</time>
      </trkpt>
      <trkpt lat="42.305992" lon="-8.793668">
        <ele>138.2</ele>
        <time>1970-01-01T03:26:01.000Z</time>
      </trkpt>
      <trkpt lat="42.306001" lon="-8.793692">
        <ele>138.2</ele>
        <time>1970-01-01T03:26:02.000Z</time>
      </trkpt>
      <trkpt lat="42.306007" lon="-8.793715">
        <ele>138.2</ele>
        <time>1970-01-01T03:26:03.000Z</time>
      </trkpt>
      <trkpt lat="42.306012" lon="-8.793738">
        <ele>138.4</ele>
        <time>1970-01-01T03:26:04.000Z</time>
      </trkpt>
      <trkpt lat="42.306017" lon="-8.793759">
        <ele>138.4</ele>
        <time>1970-01-01T03:26:05.000Z</time>
      </trkpt>
      <trkpt lat="42.306018" lon="-8.793776">
        <ele>138.4</ele>
        <time>1970-01-01T03:26:06.000Z</time>
      </trkpt>
      <trkpt lat="42.306018" lon="-8.793789">
        <ele>138.4</ele>
        <time>1970-01-01T03:26:07.000Z</time>
      </trkpt>
      <trkpt lat="42.306018" lon="-8.793805">
        <ele>138.4</ele>
        <time>1970-01-01T03:26:08.000Z</time>
      </trkpt>
      <trkpt lat="42.306021" lon="-8.793821">
        <ele>138.6</ele>
        <time>1970-01-01T03:26:09.000Z</time>
      </trkpt>
      <trkpt lat="42.306025" lon="-8.793837">
        <ele>138.6</ele>
        <time>1970-01-01T03:26:10.000Z</time>
      </trkpt>
      <trkpt lat="42.30603" lon="-8.793857">
        <ele>138.8</ele>
        <time>1970-01-01T03:26:11.000Z</time>
      </trkpt>
      <trkpt lat="42.306036" lon="-8.793876">
        <ele>138.8</ele>
        <time>1970-01-01T03:26:12.000Z</time>
      </trkpt>
      <trkpt lat="42.30604" lon="-8.793892">
        <ele>139</ele>
        <time>1970-01-01T03:26:13.000Z</time>
      </trkpt>
      <trkpt lat="42.306041" lon="-8.793908">
        <ele>139.2</ele>
        <time>1970-01-01T03:26:14.000Z</time>
      </trkpt>
      <trkpt lat="42.306039" lon="-8.793925">
        <ele>139.2</ele>
        <time>1970-01-01T03:26:15.000Z</time>
      </trkpt>
      <trkpt lat="42.306039" lon="-8.793939">
        <ele>139.2</ele>
        <time>1970-01-01T03:26:16.000Z</time>
      </trkpt>
      <trkpt lat="42.306042" lon="-8.793955">
        <ele>139.2</ele>
        <time>1970-01-01T03:26:17.000Z</time>
      </trkpt>
      <trkpt lat="42.306044" lon="-8.793969">
        <ele>139.4</ele>
        <time>1970-01-01T03:26:18.000Z</time>
      </trkpt>
      <trkpt lat="42.306046" lon="-8.793983">
        <ele>139.4</ele>
        <time>1970-01-01T03:26:19.000Z</time>
      </trkpt>
      <trkpt lat="42.306045" lon="-8.793996">
        <ele>139.4</ele>
        <time>1970-01-01T03:26:20.000Z</time>
      </trkpt>
      <trkpt lat="42.306047" lon="-8.794013">
        <ele>139.2</ele>
        <time>1970-01-01T03:26:21.000Z</time>
      </trkpt>
      <trkpt lat="42.306051" lon="-8.794031">
        <ele>139.4</ele>
        <time>1970-01-01T03:26:22.000Z</time>
      </trkpt>
      <trkpt lat="42.306056" lon="-8.79405">
        <ele>139.4</ele>
        <time>1970-01-01T03:26:23.000Z</time>
      </trkpt>
      <trkpt lat="42.306057" lon="-8.79407">
        <ele>139.4</ele>
        <time>1970-01-01T03:26:24.000Z</time>
      </trkpt>
      <trkpt lat="42.306059" lon="-8.794092">
        <ele>139.2</ele>
        <time>1970-01-01T03:26:25.000Z</time>
      </trkpt>
      <trkpt lat="42.306062" lon="-8.794113">
        <ele>139.2</ele>
        <time>1970-01-01T03:26:26.000Z</time>
      </trkpt>
      <trkpt lat="42.306067" lon="-8.794131">
        <ele>139.4</ele>
        <time>1970-01-01T03:26:27.000Z</time>
      </trkpt>
      <trkpt lat="42.306069" lon="-8.794149">
        <ele>139.6</ele>
        <time>1970-01-01T03:26:28.000Z</time>
      </trkpt>
      <trkpt lat="42.306074" lon="-8.794169">
        <ele>139.6</ele>
        <time>1970-01-01T03:26:29.000Z</time>
      </trkpt>
      <trkpt lat="42.306081" lon="-8.794191">
        <ele>139.6</ele>
        <time>1970-01-01T03:26:30.000Z</time>
      </trkpt>
      <trkpt lat="42.306088" lon="-8.794211">
        <ele>139.2</ele>
        <time>1970-01-01T03:26:31.000Z</time>
      </trkpt>
      <trkpt lat="42.306092" lon="-8.794227">
        <ele>139.4</ele>
        <time>1970-01-01T03:26:32.000Z</time>
      </trkpt>
      <trkpt lat="42.306097" lon="-8.794244">
        <ele>139.6</ele>
        <time>1970-01-01T03:26:33.000Z</time>
      </trkpt>
      <trkpt lat="42.306102" lon="-8.79426">
        <ele>139.6</ele>
        <time>1970-01-01T03:26:34.000Z</time>
      </trkpt>
      <trkpt lat="42.306107" lon="-8.794274">
        <ele>139.4</ele>
        <time>1970-01-01T03:26:35.000Z</time>
      </trkpt>
      <trkpt lat="42.306112" lon="-8.79429">
        <ele>139.4</ele>
        <time>1970-01-01T03:26:36.000Z</time>
      </trkpt>
      <trkpt lat="42.306118" lon="-8.794303">
        <ele>139.4</ele>
        <time>1970-01-01T03:26:37.000Z</time>
      </trkpt>
      <trkpt lat="42.306124" lon="-8.794318">
        <ele>139.4</ele>
        <time>1970-01-01T03:26:38.000Z</time>
      </trkpt>
      <trkpt lat="42.306131" lon="-8.794329">
        <ele>139.4</ele>
        <time>1970-01-01T03:26:39.000Z</time>
      </trkpt>
      <trkpt lat="42.30614" lon="-8.794339">
        <ele>139.4</ele>
        <time>1970-01-01T03:26:40.000Z</time>
      </trkpt>
      <trkpt lat="42.306147" lon="-8.794348">
        <ele>139.2</ele>
        <time>1970-01-01T03:26:41.000Z</time>
      </trkpt>
      <trkpt lat="42.306154" lon="-8.794356">
        <ele>139.2</ele>
        <time>1970-01-01T03:26:42.000Z</time>
      </trkpt>
      <trkpt lat="42.306161" lon="-8.794366">
        <ele>139.4</ele>
        <time>1970-01-01T03:26:43.000Z</time>
      </trkpt>
      <trkpt lat="42.306169" lon="-8.794374">
        <ele>139.4</ele>
        <time>1970-01-01T03:26:44.000Z</time>
      </trkpt>
      <trkpt lat="42.306176" lon="-8.794384">
        <ele>139.2</ele>
        <time>1970-01-01T03:26:45.000Z</time>
      </trkpt>
      <trkpt lat="42.306182" lon="-8.794394">
        <ele>139.4</ele>
        <time>1970-01-01T03:26:46.000Z</time>
      </trkpt>
      <trkpt lat="42.306187" lon="-8.794403">
        <ele>139.8</ele>
        <time>1970-01-01T03:26:47.000Z</time>
      </trkpt>
      <trkpt lat="42.306192" lon="-8.794412">
        <ele>140</ele>
        <time>1970-01-01T03:26:48.000Z</time>
      </trkpt>
      <trkpt lat="42.306199" lon="-8.794423">
        <ele>140.2</ele>
        <time>1970-01-01T03:26:49.000Z</time>
      </trkpt>
      <trkpt lat="42.306205" lon="-8.794434">
        <ele>140.2</ele>
        <time>1970-01-01T03:26:50.000Z</time>
      </trkpt>
      <trkpt lat="42.306213" lon="-8.794445">
        <ele>140.4</ele>
        <time>1970-01-01T03:26:51.000Z</time>
      </trkpt>
      <trkpt lat="42.306224" lon="-8.794463">
        <ele>140.4</ele>
        <time>1970-01-01T03:26:52.000Z</time>
      </trkpt>
      <trkpt lat="42.306237" lon="-8.79448">
        <ele>140.4</ele>
        <time>1970-01-01T03:26:53.000Z</time>
      </trkpt>
      <trkpt lat="42.30625" lon="-8.794494">
        <ele>140.4</ele>
        <time>1970-01-01T03:26:54.000Z</time>
      </trkpt>
      <trkpt lat="42.30626" lon="-8.794505">
        <ele>140.4</ele>
        <time>1970-01-01T03:26:55.000Z</time>
      </trkpt>
      <trkpt lat="42.306269" lon="-8.794522">
        <ele>140.4</ele>
        <time>1970-01-01T03:26:56.000Z</time>
      </trkpt>
      <trkpt lat="42.306277" lon="-8.794542">
        <ele>140.6</ele>
        <time>1970-01-01T03:26:57.000Z</time>
      </trkpt>
      <trkpt lat="42.306284" lon="-8.794557">
        <ele>140.6</ele>
        <time>1970-01-01T03:26:58.000Z</time>
      </trkpt>
      <trkpt lat="42.306292" lon="-8.794574">
        <ele>140.6</ele>
        <time>1970-01-01T03:26:59.000Z</time>
      </trkpt>
      <trkpt lat="42.306301" lon="-8.794591">
        <ele>140.6</ele>
        <time>1970-01-01T03:27:00.000Z</time>
      </trkpt>
      <trkpt lat="42.306309" lon="-8.794604">
        <ele>141</ele>
        <time>1970-01-01T03:27:01.000Z</time>
      </trkpt>
      <trkpt lat="42.306321" lon="-8.794621">
        <ele>141.2</ele>
        <time>1970-01-01T03:27:02.000Z</time>
      </trkpt>
      <trkpt lat="42.30633" lon="-8.794634">
        <ele>141.4</ele>
        <time>1970-01-01T03:27:03.000Z</time>
      </trkpt>
      <trkpt lat="42.306338" lon="-8.794644">
        <ele>141.6</ele>
        <time>1970-01-01T03:27:04.000Z</time>
      </trkpt>
      <trkpt lat="42.306347" lon="-8.794657">
        <ele>141.6</ele>
        <time>1970-01-01T03:27:05.000Z</time>
      </trkpt>
      <trkpt lat="42.306357" lon="-8.794666">
        <ele>141.8</ele>
        <time>1970-01-01T03:27:06.000Z</time>
      </trkpt>
      <trkpt lat="42.306368" lon="-8.794679">
        <ele>141.8</ele>
        <time>1970-01-01T03:27:07.000Z</time>
      </trkpt>
      <trkpt lat="42.306378" lon="-8.794687">
        <ele>141.8</ele>
        <time>1970-01-01T03:27:08.000Z</time>
      </trkpt>
      <trkpt lat="42.306387" lon="-8.794695">
        <ele>142</ele>
        <time>1970-01-01T03:27:09.000Z</time>
      </trkpt>
      <trkpt lat="42.306396" lon="-8.794703">
        <ele>142.2</ele>
        <time>1970-01-01T03:27:10.000Z</time>
      </trkpt>
      <trkpt lat="42.306404" lon="-8.794712">
        <ele>142.4</ele>
        <time>1970-01-01T03:27:11.000Z</time>
      </trkpt>
      <trkpt lat="42.306411" lon="-8.794724">
        <ele>142.6</ele>
        <time>1970-01-01T03:27:12.000Z</time>
      </trkpt>
      <trkpt lat="42.306422" lon="-8.794733">
        <ele>142.8</ele>
        <time>1970-01-01T03:27:13.000Z</time>
      </trkpt>
      <trkpt lat="42.306432" lon="-8.794743">
        <ele>142.8</ele>
        <time>1970-01-01T03:27:14.000Z</time>
      </trkpt>
      <trkpt lat="42.306438" lon="-8.794752">
        <ele>143</ele>
        <time>1970-01-01T03:27:15.000Z</time>
      </trkpt>
      <trkpt lat="42.30645" lon="-8.794759">
        <ele>143.4</ele>
        <time>1970-01-01T03:27:16.000Z</time>
      </trkpt>
      <trkpt lat="42.306463" lon="-8.794765">
        <ele>143.6</ele>
        <time>1970-01-01T03:27:17.000Z</time>
      </trkpt>
      <trkpt lat="42.306474" lon="-8.794772">
        <ele>143.8</ele>
        <time>1970-01-01T03:27:18.000Z</time>
      </trkpt>
      <trkpt lat="42.306487" lon="-8.794776">
        <ele>144</ele>
        <time>1970-01-01T03:27:19.000Z</time>
      </trkpt>
      <trkpt lat="42.3065" lon="-8.794777">
        <ele>144.2</ele>
        <time>1970-01-01T03:27:20.000Z</time>
      </trkpt>
      <trkpt lat="42.30651" lon="-8.794778">
        <ele>144.4</ele>
        <time>1970-01-01T03:27:21.000Z</time>
      </trkpt>
      <trkpt lat="42.306518" lon="-8.794779">
        <ele>144.4</ele>
        <time>1970-01-01T03:27:22.000Z</time>
      </trkpt>
      <trkpt lat="42.306527" lon="-8.794784">
        <ele>144.6</ele>
        <time>1970-01-01T03:27:23.000Z</time>
      </trkpt>
      <trkpt lat="42.306535" lon="-8.794786">
        <ele>144.6</ele>
        <time>1970-01-01T03:27:24.000Z</time>
      </trkpt>
      <trkpt lat="42.306545" lon="-8.794791">
        <ele>144.6</ele>
        <time>1970-01-01T03:27:25.000Z</time>
      </trkpt>
      <trkpt lat="42.306555" lon="-8.794796">
        <ele>144.6</ele>
        <time>1970-01-01T03:27:26.000Z</time>
      </trkpt>
      <trkpt lat="42.306564" lon="-8.794803">
        <ele>144.6</ele>
        <time>1970-01-01T03:27:27.000Z</time>
      </trkpt>
      <trkpt lat="42.306575" lon="-8.794808">
        <ele>144.6</ele>
        <time>1970-01-01T03:27:28.000Z</time>
      </trkpt>
      <trkpt lat="42.306588" lon="-8.794813">
        <ele>144.4</ele>
        <time>1970-01-01T03:27:29.000Z</time>
      </trkpt>
      <trkpt lat="42.3066" lon="-8.794818">
        <ele>144</ele>
        <time>1970-01-01T03:27:30.000Z</time>
      </trkpt>
      <trkpt lat="42.306612" lon="-8.794824">
        <ele>143.8</ele>
        <time>1970-01-01T03:27:31.000Z</time>
      </trkpt>
      <trkpt lat="42.306622" lon="-8.794836">
        <ele>144</ele>
        <time>1970-01-01T03:27:32.000Z</time>
      </trkpt>
      <trkpt lat="42.306632" lon="-8.794845">
        <ele>144</ele>
        <time>1970-01-01T03:27:33.000Z</time>
      </trkpt>
      <trkpt lat="42.306645" lon="-8.794858">
        <ele>144</ele>
        <time>1970-01-01T03:27:34.000Z</time>
      </trkpt>
      <trkpt lat="42.306653" lon="-8.794871">
        <ele>144</ele>
        <time>1970-01-01T03:27:35.000Z</time>
      </trkpt>
      <trkpt lat="42.306663" lon="-8.79488">
        <ele>144</ele>
        <time>1970-01-01T03:27:36.000Z</time>
      </trkpt>
      <trkpt lat="42.306675" lon="-8.794892">
        <ele>144.2</ele>
        <time>1970-01-01T03:27:37.000Z</time>
      </trkpt>
      <trkpt lat="42.306686" lon="-8.794903">
        <ele>144.2</ele>
        <time>1970-01-01T03:27:38.000Z</time>
      </trkpt>
      <trkpt lat="42.3067" lon="-8.794916">
        <ele>144</ele>
        <time>1970-01-01T03:27:39.000Z</time>
      </trkpt>
      <trkpt lat="42.306713" lon="-8.794925">
        <ele>144.2</ele>
        <time>1970-01-01T03:27:40.000Z</time>
      </trkpt>
      <trkpt lat="42.306725" lon="-8.794936">
        <ele>144.2</ele>
        <time>1970-01-01T03:27:41.000Z</time>
      </trkpt>
      <trkpt lat="42.306739" lon="-8.79495">
        <ele>144.2</ele>
        <time>1970-01-01T03:27:42.000Z</time>
      </trkpt>
      <trkpt lat="42.306754" lon="-8.794959">
        <ele>144.6</ele>
        <time>1970-01-01T03:27:43.000Z</time>
      </trkpt>
      <trkpt lat="42.306767" lon="-8.79497">
        <ele>144.6</ele>
        <time>1970-01-01T03:27:44.000Z</time>
      </trkpt>
      <trkpt lat="42.306781" lon="-8.794985">
        <ele>144.8</ele>
        <time>1970-01-01T03:27:45.000Z</time>
      </trkpt>
      <trkpt lat="42.306793" lon="-8.795001">
        <ele>144.8</ele>
        <time>1970-01-01T03:27:46.000Z</time>
      </trkpt>
      <trkpt lat="42.306803" lon="-8.795015">
        <ele>144.8</ele>
        <time>1970-01-01T03:27:47.000Z</time>
      </trkpt>
      <trkpt lat="42.306813" lon="-8.795025">
        <ele>144.8</ele>
        <time>1970-01-01T03:27:48.000Z</time>
      </trkpt>
      <trkpt lat="42.306824" lon="-8.795033">
        <ele>144.8</ele>
        <time>1970-01-01T03:27:49.000Z</time>
      </trkpt>
      <trkpt lat="42.306835" lon="-8.795044">
        <ele>144.8</ele>
        <time>1970-01-01T03:27:50.000Z</time>
      </trkpt>
      <trkpt lat="42.30685" lon="-8.795054">
        <ele>145</ele>
        <time>1970-01-01T03:27:51.000Z</time>
      </trkpt>
      <trkpt lat="42.306865" lon="-8.795064">
        <ele>145</ele>
        <time>1970-01-01T03:27:52.000Z</time>
      </trkpt>
      <trkpt lat="42.306882" lon="-8.795074">
        <ele>145.2</ele>
        <time>1970-01-01T03:27:53.000Z</time>
      </trkpt>
      <trkpt lat="42.306898" lon="-8.795087">
        <ele>145.4</ele>
        <time>1970-01-01T03:27:54.000Z</time>
      </trkpt>
      <trkpt lat="42.306911" lon="-8.795096">
        <ele>145.4</ele>
        <time>1970-01-01T03:27:55.000Z</time>
      </trkpt>
      <trkpt lat="42.306923" lon="-8.795103">
        <ele>145.4</ele>
        <time>1970-01-01T03:27:56.000Z</time>
      </trkpt>
      <trkpt lat="42.306933" lon="-8.795109">
        <ele>145.4</ele>
        <time>1970-01-01T03:27:57.000Z</time>
      </trkpt>
      <trkpt lat="42.306944" lon="-8.795117">
        <ele>145.4</ele>
        <time>1970-01-01T03:27:58.000Z</time>
      </trkpt>
      <trkpt lat="42.306957" lon="-8.795125">
        <ele>145.4</ele>
        <time>1970-01-01T03:27:59.000Z</time>
      </trkpt>
      <trkpt lat="42.30697" lon="-8.795134">
        <ele>145.4</ele>
        <time>1970-01-01T03:28:00.000Z</time>
      </trkpt>
      <trkpt lat="42.306983" lon="-8.795144">
        <ele>145.4</ele>
        <time>1970-01-01T03:28:01.000Z</time>
      </trkpt>
      <trkpt lat="42.306997" lon="-8.795151">
        <ele>145.4</ele>
        <time>1970-01-01T03:28:02.000Z</time>
      </trkpt>
      <trkpt lat="42.307011" lon="-8.795157">
        <ele>145.4</ele>
        <time>1970-01-01T03:28:03.000Z</time>
      </trkpt>
      <trkpt lat="42.307025" lon="-8.795165">
        <ele>145.4</ele>
        <time>1970-01-01T03:28:04.000Z</time>
      </trkpt>
      <trkpt lat="42.307038" lon="-8.795169">
        <ele>145.6</ele>
        <time>1970-01-01T03:28:05.000Z</time>
      </trkpt>
      <trkpt lat="42.30705" lon="-8.79517">
        <ele>145.6</ele>
        <time>1970-01-01T03:28:06.000Z</time>
      </trkpt>
      <trkpt lat="42.307062" lon="-8.795173">
        <ele>145.8</ele>
        <time>1970-01-01T03:28:07.000Z</time>
      </trkpt>
      <trkpt lat="42.307074" lon="-8.795177">
        <ele>145.8</ele>
        <time>1970-01-01T03:28:08.000Z</time>
      </trkpt>
      <trkpt lat="42.307086" lon="-8.795181">
        <ele>145.8</ele>
        <time>1970-01-01T03:28:09.000Z</time>
      </trkpt>
      <trkpt lat="42.307101" lon="-8.79518">
        <ele>146</ele>
        <time>1970-01-01T03:28:10.000Z</time>
      </trkpt>
      <trkpt lat="42.307114" lon="-8.795179">
        <ele>146.2</ele>
        <time>1970-01-01T03:28:11.000Z</time>
      </trkpt>
      <trkpt lat="42.307129" lon="-8.79518">
        <ele>146.2</ele>
        <time>1970-01-01T03:28:12.000Z</time>
      </trkpt>
      <trkpt lat="42.307143" lon="-8.79518">
        <ele>146.2</ele>
        <time>1970-01-01T03:28:13.000Z</time>
      </trkpt>
      <trkpt lat="42.307159" lon="-8.795182">
        <ele>146.2</ele>
        <time>1970-01-01T03:28:14.000Z</time>
      </trkpt>
      <trkpt lat="42.307175" lon="-8.795181">
        <ele>146.2</ele>
        <time>1970-01-01T03:28:15.000Z</time>
      </trkpt>
      <trkpt lat="42.307191" lon="-8.795184">
        <ele>146</ele>
        <time>1970-01-01T03:28:16.000Z</time>
      </trkpt>
      <trkpt lat="42.307206" lon="-8.795183">
        <ele>146</ele>
        <time>1970-01-01T03:28:17.000Z</time>
      </trkpt>
      <trkpt lat="42.307222" lon="-8.795189">
        <ele>146</ele>
        <time>1970-01-01T03:28:18.000Z</time>
      </trkpt>
      <trkpt lat="42.307234" lon="-8.795191">
        <ele>145.8</ele>
        <time>1970-01-01T03:28:19.000Z</time>
      </trkpt>
      <trkpt lat="42.307247" lon="-8.795194">
        <ele>145.8</ele>
        <time>1970-01-01T03:28:20.000Z</time>
      </trkpt>
      <trkpt lat="42.30726" lon="-8.795201">
        <ele>146.2</ele>
        <time>1970-01-01T03:28:21.000Z</time>
      </trkpt>
      <trkpt lat="42.307272" lon="-8.79521">
        <ele>146.2</ele>
        <time>1970-01-01T03:28:22.000Z</time>
      </trkpt>
      <trkpt lat="42.307285" lon="-8.795218">
        <ele>146.4</ele>
        <time>1970-01-01T03:28:23.000Z</time>
      </trkpt>
      <trkpt lat="42.307296" lon="-8.795226">
        <ele>146.4</ele>
        <time>1970-01-01T03:28:24.000Z</time>
      </trkpt>
      <trkpt lat="42.307303" lon="-8.795234">
        <ele>146.6</ele>
        <time>1970-01-01T03:28:25.000Z</time>
      </trkpt>
      <trkpt lat="42.307311" lon="-8.795244">
        <ele>146.6</ele>
        <time>1970-01-01T03:28:26.000Z</time>
      </trkpt>
      <trkpt lat="42.30732" lon="-8.795251">
        <ele>146.4</ele>
        <time>1970-01-01T03:28:27.000Z</time>
      </trkpt>
      <trkpt lat="42.307331" lon="-8.795255">
        <ele>146.2</ele>
        <time>1970-01-01T03:28:28.000Z</time>
      </trkpt>
      <trkpt lat="42.307343" lon="-8.795262">
        <ele>146.2</ele>
        <time>1970-01-01T03:28:29.000Z</time>
      </trkpt>
      <trkpt lat="42.307355" lon="-8.795269">
        <ele>146.2</ele>
        <time>1970-01-01T03:28:30.000Z</time>
      </trkpt>
      <trkpt lat="42.307368" lon="-8.795278">
        <ele>146.2</ele>
        <time>1970-01-01T03:28:31.000Z</time>
      </trkpt>
      <trkpt lat="42.307379" lon="-8.795283">
        <ele>146.4</ele>
        <time>1970-01-01T03:28:32.000Z</time>
      </trkpt>
      <trkpt lat="42.307389" lon="-8.79529">
        <ele>146.4</ele>
        <time>1970-01-01T03:28:33.000Z</time>
      </trkpt>
      <trkpt lat="42.3074" lon="-8.795297">
        <ele>146.4</ele>
        <time>1970-01-01T03:28:34.000Z</time>
      </trkpt>
      <trkpt lat="42.30741" lon="-8.795304">
        <ele>146.6</ele>
        <time>1970-01-01T03:28:35.000Z</time>
      </trkpt>
      <trkpt lat="42.30742" lon="-8.795312">
        <ele>146.6</ele>
        <time>1970-01-01T03:28:36.000Z</time>
      </trkpt>
      <trkpt lat="42.30743" lon="-8.795316">
        <ele>146.6</ele>
        <time>1970-01-01T03:28:37.000Z</time>
      </trkpt>
      <trkpt lat="42.30744" lon="-8.795324">
        <ele>146.6</ele>
        <time>1970-01-01T03:28:38.000Z</time>
      </trkpt>
      <trkpt lat="42.307452" lon="-8.795336">
        <ele>146.6</ele>
        <time>1970-01-01T03:28:39.000Z</time>
      </trkpt>
      <trkpt lat="42.307462" lon="-8.795352">
        <ele>146.6</ele>
        <time>1970-01-01T03:28:40.000Z</time>
      </trkpt>
      <trkpt lat="42.307475" lon="-8.795367">
        <ele>146.6</ele>
        <time>1970-01-01T03:28:41.000Z</time>
      </trkpt>
      <trkpt lat="42.307487" lon="-8.79538">
        <ele>146.6</ele>
        <time>1970-01-01T03:28:42.000Z</time>
      </trkpt>
      <trkpt lat="42.307497" lon="-8.795392">
        <ele>146.6</ele>
        <time>1970-01-01T03:28:43.000Z</time>
      </trkpt>
      <trkpt lat="42.307505" lon="-8.795406">
        <ele>146.6</ele>
        <time>1970-01-01T03:28:44.000Z</time>
      </trkpt>
      <trkpt lat="42.307513" lon="-8.795418">
        <ele>146.8</ele>
        <time>1970-01-01T03:28:45.000Z</time>
      </trkpt>
      <trkpt lat="42.30752" lon="-8.795433">
        <ele>146.8</ele>
        <time>1970-01-01T03:28:46.000Z</time>
      </trkpt>
      <trkpt lat="42.307528" lon="-8.795448">
        <ele>146.6</ele>
        <time>1970-01-01T03:28:47.000Z</time>
      </trkpt>
      <trkpt lat="42.307536" lon="-8.79546">
        <ele>146.8</ele>
        <time>1970-01-01T03:28:48.000Z</time>
      </trkpt>
      <trkpt lat="42.307542" lon="-8.795472">
        <ele>147</ele>
        <time>1970-01-01T03:28:49.000Z</time>
      </trkpt>
      <trkpt lat="42.307548" lon="-8.795483">
        <ele>147.2</ele>
        <time>1970-01-01T03:28:50.000Z</time>
      </trkpt>
      <trkpt lat="42.307553" lon="-8.795493">
        <ele>147.2</ele>
        <time>1970-01-01T03:28:51.000Z</time>
      </trkpt>
      <trkpt lat="42.30756" lon="-8.795512">
        <ele>147.2</ele>
        <time>1970-01-01T03:28:52.000Z</time>
      </trkpt>
      <trkpt lat="42.307563" lon="-8.795529">
        <ele>147.4</ele>
        <time>1970-01-01T03:28:53.000Z</time>
      </trkpt>
      <trkpt lat="42.307564" lon="-8.795541">
        <ele>147.6</ele>
        <time>1970-01-01T03:28:54.000Z</time>
      </trkpt>
      <trkpt lat="42.307564" lon="-8.795552">
        <ele>147.8</ele>
        <time>1970-01-01T03:28:55.000Z</time>
      </trkpt>
      <trkpt lat="42.307563" lon="-8.795569">
        <ele>147.8</ele>
        <time>1970-01-01T03:28:56.000Z</time>
      </trkpt>
      <trkpt lat="42.307562" lon="-8.795586">
        <ele>147.8</ele>
        <time>1970-01-01T03:28:57.000Z</time>
      </trkpt>
      <trkpt lat="42.307558" lon="-8.795601">
        <ele>147.6</ele>
        <time>1970-01-01T03:28:58.000Z</time>
      </trkpt>
      <trkpt lat="42.307555" lon="-8.795616">
        <ele>147.8</ele>
        <time>1970-01-01T03:28:59.000Z</time>
      </trkpt>
      <trkpt lat="42.307552" lon="-8.795633">
        <ele>147.8</ele>
        <time>1970-01-01T03:29:00.000Z</time>
      </trkpt>
      <trkpt lat="42.307549" lon="-8.795652">
        <ele>147.8</ele>
        <time>1970-01-01T03:29:01.000Z</time>
      </trkpt>
      <trkpt lat="42.307546" lon="-8.795669">
        <ele>147.8</ele>
        <time>1970-01-01T03:29:02.000Z</time>
      </trkpt>
      <trkpt lat="42.307538" lon="-8.795685">
        <ele>147.8</ele>
        <time>1970-01-01T03:29:03.000Z</time>
      </trkpt>
      <trkpt lat="42.307532" lon="-8.7957">
        <ele>148</ele>
        <time>1970-01-01T03:29:04.000Z</time>
      </trkpt>
      <trkpt lat="42.307528" lon="-8.795714">
        <ele>148</ele>
        <time>1970-01-01T03:29:05.000Z</time>
      </trkpt>
      <trkpt lat="42.307521" lon="-8.795725">
        <ele>148</ele>
        <time>1970-01-01T03:29:06.000Z</time>
      </trkpt>
      <trkpt lat="42.307514" lon="-8.795736">
        <ele>148.6</ele>
        <time>1970-01-01T03:29:07.000Z</time>
      </trkpt>
      <trkpt lat="42.307506" lon="-8.79575">
        <ele>149</ele>
        <time>1970-01-01T03:29:08.000Z</time>
      </trkpt>
      <trkpt lat="42.307501" lon="-8.795765">
        <ele>149.2</ele>
        <time>1970-01-01T03:29:09.000Z</time>
      </trkpt>
      <trkpt lat="42.307496" lon="-8.795782">
        <ele>149.6</ele>
        <time>1970-01-01T03:29:10.000Z</time>
      </trkpt>
      <trkpt lat="42.307492" lon="-8.795802">
        <ele>149.6</ele>
        <time>1970-01-01T03:29:11.000Z</time>
      </trkpt>
      <trkpt lat="42.30749" lon="-8.795821">
        <ele>149.6</ele>
        <time>1970-01-01T03:29:12.000Z</time>
      </trkpt>
      <trkpt lat="42.307484" lon="-8.795833">
        <ele>149.8</ele>
        <time>1970-01-01T03:29:13.000Z</time>
      </trkpt>
      <trkpt lat="42.307477" lon="-8.795849">
        <ele>149.8</ele>
        <time>1970-01-01T03:29:14.000Z</time>
      </trkpt>
      <trkpt lat="42.307471" lon="-8.795864">
        <ele>149.8</ele>
        <time>1970-01-01T03:29:15.000Z</time>
      </trkpt>
      <trkpt lat="42.307465" lon="-8.795881">
        <ele>150</ele>
        <time>1970-01-01T03:29:16.000Z</time>
      </trkpt>
      <trkpt lat="42.307458" lon="-8.795891">
        <ele>150.2</ele>
        <time>1970-01-01T03:29:17.000Z</time>
      </trkpt>
      <trkpt lat="42.307452" lon="-8.795903">
        <ele>150.4</ele>
        <time>1970-01-01T03:29:18.000Z</time>
      </trkpt>
      <trkpt lat="42.307446" lon="-8.795914">
        <ele>150.8</ele>
        <time>1970-01-01T03:29:19.000Z</time>
      </trkpt>
      <trkpt lat="42.30744" lon="-8.795926">
        <ele>151</ele>
        <time>1970-01-01T03:29:20.000Z</time>
      </trkpt>
      <trkpt lat="42.307434" lon="-8.795936">
        <ele>151</ele>
        <time>1970-01-01T03:29:21.000Z</time>
      </trkpt>
      <trkpt lat="42.307433" lon="-8.795952">
        <ele>151.2</ele>
        <time>1970-01-01T03:29:22.000Z</time>
      </trkpt>
      <trkpt lat="42.307431" lon="-8.795969">
        <ele>151.2</ele>
        <time>1970-01-01T03:29:23.000Z</time>
      </trkpt>
      <trkpt lat="42.307428" lon="-8.795979">
        <ele>151.2</ele>
        <time>1970-01-01T03:29:24.000Z</time>
      </trkpt>
      <trkpt lat="42.307423" lon="-8.795993">
        <ele>151.2</ele>
        <time>1970-01-01T03:29:25.000Z</time>
      </trkpt>
      <trkpt lat="42.307417" lon="-8.796004">
        <ele>151.6</ele>
        <time>1970-01-01T03:29:26.000Z</time>
      </trkpt>
      <trkpt lat="42.307409" lon="-8.796009">
        <ele>151.6</ele>
        <time>1970-01-01T03:29:27.000Z</time>
      </trkpt>
      <trkpt lat="42.307406" lon="-8.796025">
        <ele>152</ele>
        <time>1970-01-01T03:29:28.000Z</time>
      </trkpt>
      <trkpt lat="42.3074" lon="-8.79604">
        <ele>152</ele>
        <time>1970-01-01T03:29:29.000Z</time>
      </trkpt>
      <trkpt lat="42.307396" lon="-8.79605">
        <ele>152.2</ele>
        <time>1970-01-01T03:29:30.000Z</time>
      </trkpt>
      <trkpt lat="42.307391" lon="-8.796064">
        <ele>152.4</ele>
        <time>1970-01-01T03:29:31.000Z</time>
      </trkpt>
      <trkpt lat="42.307388" lon="-8.796076">
        <ele>152.6</ele>
        <time>1970-01-01T03:29:32.000Z</time>
      </trkpt>
      <trkpt lat="42.307384" lon="-8.796096">
        <ele>153</ele>
        <time>1970-01-01T03:29:33.000Z</time>
      </trkpt>
      <trkpt lat="42.307384" lon="-8.796111">
        <ele>153</ele>
        <time>1970-01-01T03:29:34.000Z</time>
      </trkpt>
      <trkpt lat="42.307387" lon="-8.796122">
        <ele>153</ele>
        <time>1970-01-01T03:29:35.000Z</time>
      </trkpt>
      <trkpt lat="42.307388" lon="-8.796139">
        <ele>153</ele>
        <time>1970-01-01T03:29:36.000Z</time>
      </trkpt>
      <trkpt lat="42.307395" lon="-8.796162">
        <ele>153</ele>
        <time>1970-01-01T03:29:37.000Z</time>
      </trkpt>
      <trkpt lat="42.307402" lon="-8.796176">
        <ele>153</ele>
        <time>1970-01-01T03:29:38.000Z</time>
      </trkpt>
      <trkpt lat="42.307407" lon="-8.796194">
        <ele>152.8</ele>
        <time>1970-01-01T03:29:39.000Z</time>
      </trkpt>
      <trkpt lat="42.307415" lon="-8.79621">
        <ele>152.8</ele>
        <time>1970-01-01T03:29:40.000Z</time>
      </trkpt>
      <trkpt lat="42.307425" lon="-8.796224">
        <ele>152.6</ele>
        <time>1970-01-01T03:29:41.000Z</time>
      </trkpt>
      <trkpt lat="42.307435" lon="-8.796235">
        <ele>152.6</ele>
        <time>1970-01-01T03:29:42.000Z</time>
      </trkpt>
      <trkpt lat="42.307446" lon="-8.796245">
        <ele>152.4</ele>
        <time>1970-01-01T03:29:43.000Z</time>
      </trkpt>
      <trkpt lat="42.30746" lon="-8.796255">
        <ele>152.4</ele>
        <time>1970-01-01T03:29:44.000Z</time>
      </trkpt>
      <trkpt lat="42.307472" lon="-8.796266">
        <ele>152.6</ele>
        <time>1970-01-01T03:29:45.000Z</time>
      </trkpt>
      <trkpt lat="42.307484" lon="-8.796283">
        <ele>152.6</ele>
        <time>1970-01-01T03:29:46.000Z</time>
      </trkpt>
      <trkpt lat="42.307497" lon="-8.796295">
        <ele>152.4</ele>
        <time>1970-01-01T03:29:47.000Z</time>
      </trkpt>
      <trkpt lat="42.307509" lon="-8.796303">
        <ele>152.4</ele>
        <time>1970-01-01T03:29:48.000Z</time>
      </trkpt>
      <trkpt lat="42.30752" lon="-8.79631">
        <ele>152</ele>
        <time>1970-01-01T03:29:49.000Z</time>
      </trkpt>
      <trkpt lat="42.30753" lon="-8.796315">
        <ele>152</ele>
        <time>1970-01-01T03:29:50.000Z</time>
      </trkpt>
      <trkpt lat="42.307539" lon="-8.796318">
        <ele>151.4</ele>
        <time>1970-01-01T03:29:51.000Z</time>
      </trkpt>
      <trkpt lat="42.307552" lon="-8.796327">
        <ele>151</ele>
        <time>1970-01-01T03:29:52.000Z</time>
      </trkpt>
      <trkpt lat="42.307564" lon="-8.796326">
        <ele>150.6</ele>
        <time>1970-01-01T03:29:53.000Z</time>
      </trkpt>
      <trkpt lat="42.307579" lon="-8.796328">
        <ele>150.2</ele>
        <time>1970-01-01T03:29:54.000Z</time>
      </trkpt>
      <trkpt lat="42.307593" lon="-8.796331">
        <ele>150</ele>
        <time>1970-01-01T03:29:55.000Z</time>
      </trkpt>
      <trkpt lat="42.307602" lon="-8.796338">
        <ele>149.8</ele>
        <time>1970-01-01T03:29:56.000Z</time>
      </trkpt>
      <trkpt lat="42.307609" lon="-8.796344">
        <ele>149.6</ele>
        <time>1970-01-01T03:29:57.000Z</time>
      </trkpt>
      <trkpt lat="42.307618" lon="-8.796351">
        <ele>149.6</ele>
        <time>1970-01-01T03:29:58.000Z</time>
      </trkpt>
      <trkpt lat="42.307632" lon="-8.796363">
        <ele>149.4</ele>
        <time>1970-01-01T03:29:59.000Z</time>
      </trkpt>
      <trkpt lat="42.307647" lon="-8.796373">
        <ele>149.2</ele>
        <time>1970-01-01T03:30:00.000Z</time>
      </trkpt>
      <trkpt lat="42.307664" lon="-8.796384">
        <ele>149.2</ele>
        <time>1970-01-01T03:30:01.000Z</time>
      </trkpt>
      <trkpt lat="42.307677" lon="-8.796388">
        <ele>149</ele>
        <time>1970-01-01T03:30:02.000Z</time>
      </trkpt>
      <trkpt lat="42.307687" lon="-8.796392">
        <ele>149</ele>
        <time>1970-01-01T03:30:03.000Z</time>
      </trkpt>
      <trkpt lat="42.307699" lon="-8.796392">
        <ele>149</ele>
        <time>1970-01-01T03:30:04.000Z</time>
      </trkpt>
      <trkpt lat="42.307708" lon="-8.796393">
        <ele>149</ele>
        <time>1970-01-01T03:30:05.000Z</time>
      </trkpt>
      <trkpt lat="42.307721" lon="-8.7964">
        <ele>149</ele>
        <time>1970-01-01T03:30:06.000Z</time>
      </trkpt>
      <trkpt lat="42.307735" lon="-8.796409">
        <ele>149</ele>
        <time>1970-01-01T03:30:07.000Z</time>
      </trkpt>
      <trkpt lat="42.307751" lon="-8.796417">
        <ele>149</ele>
        <time>1970-01-01T03:30:08.000Z</time>
      </trkpt>
      <trkpt lat="42.307767" lon="-8.796425">
        <ele>149</ele>
        <time>1970-01-01T03:30:09.000Z</time>
      </trkpt>
      <trkpt lat="42.30778" lon="-8.796432">
        <ele>149</ele>
        <time>1970-01-01T03:30:10.000Z</time>
      </trkpt>
      <trkpt lat="42.307796" lon="-8.796441">
        <ele>149</ele>
        <time>1970-01-01T03:30:11.000Z</time>
      </trkpt>
      <trkpt lat="42.307807" lon="-8.79645">
        <ele>149</ele>
        <time>1970-01-01T03:30:12.000Z</time>
      </trkpt>
      <trkpt lat="42.30782" lon="-8.796461">
        <ele>149</ele>
        <time>1970-01-01T03:30:13.000Z</time>
      </trkpt>
      <trkpt lat="42.307834" lon="-8.796469">
        <ele>149</ele>
        <time>1970-01-01T03:30:14.000Z</time>
      </trkpt>
      <trkpt lat="42.307846" lon="-8.796475">
        <ele>148.8</ele>
        <time>1970-01-01T03:30:15.000Z</time>
      </trkpt>
      <trkpt lat="42.307857" lon="-8.796481">
        <ele>149</ele>
        <time>1970-01-01T03:30:16.000Z</time>
      </trkpt>
      <trkpt lat="42.307868" lon="-8.796489">
        <ele>148.8</ele>
        <time>1970-01-01T03:30:17.000Z</time>
      </trkpt>
      <trkpt lat="42.307877" lon="-8.796496">
        <ele>148.2</ele>
        <time>1970-01-01T03:30:18.000Z</time>
      </trkpt>
      <trkpt lat="42.307889" lon="-8.796507">
        <ele>148</ele>
        <time>1970-01-01T03:30:19.000Z</time>
      </trkpt>
      <trkpt lat="42.307903" lon="-8.796516">
        <ele>148.2</ele>
        <time>1970-01-01T03:30:20.000Z</time>
      </trkpt>
      <trkpt lat="42.307918" lon="-8.796524">
        <ele>148</ele>
        <time>1970-01-01T03:30:21.000Z</time>
      </trkpt>
      <trkpt lat="42.307936" lon="-8.796531">
        <ele>148</ele>
        <time>1970-01-01T03:30:22.000Z</time>
      </trkpt>
      <trkpt lat="42.307952" lon="-8.796538">
        <ele>147.8</ele>
        <time>1970-01-01T03:30:23.000Z</time>
      </trkpt>
      <trkpt lat="42.307968" lon="-8.796547">
        <ele>147.6</ele>
        <time>1970-01-01T03:30:24.000Z</time>
      </trkpt>
      <trkpt lat="42.307982" lon="-8.796554">
        <ele>147.6</ele>
        <time>1970-01-01T03:30:25.000Z</time>
      </trkpt>
      <trkpt lat="42.307994" lon="-8.796561">
        <ele>147.6</ele>
        <time>1970-01-01T03:30:26.000Z</time>
      </trkpt>
      <trkpt lat="42.308006" lon="-8.796564">
        <ele>147.4</ele>
        <time>1970-01-01T03:30:27.000Z</time>
      </trkpt>
      <trkpt lat="42.308016" lon="-8.796566">
        <ele>147.2</ele>
        <time>1970-01-01T03:30:28.000Z</time>
      </trkpt>
      <trkpt lat="42.308027" lon="-8.79657">
        <ele>147.4</ele>
        <time>1970-01-01T03:30:29.000Z</time>
      </trkpt>
      <trkpt lat="42.308039" lon="-8.796575">
        <ele>147.4</ele>
        <time>1970-01-01T03:30:30.000Z</time>
      </trkpt>
      <trkpt lat="42.308053" lon="-8.796578">
        <ele>147.2</ele>
        <time>1970-01-01T03:30:31.000Z</time>
      </trkpt>
      <trkpt lat="42.308068" lon="-8.796581">
        <ele>147.4</ele>
        <time>1970-01-01T03:30:32.000Z</time>
      </trkpt>
      <trkpt lat="42.308083" lon="-8.796582">
        <ele>147.2</ele>
        <time>1970-01-01T03:30:33.000Z</time>
      </trkpt>
      <trkpt lat="42.308096" lon="-8.796583">
        <ele>147.2</ele>
        <time>1970-01-01T03:30:34.000Z</time>
      </trkpt>
      <trkpt lat="42.30811" lon="-8.796584">
        <ele>147.2</ele>
        <time>1970-01-01T03:30:35.000Z</time>
      </trkpt>
      <trkpt lat="42.308127" lon="-8.796592">
        <ele>147</ele>
        <time>1970-01-01T03:30:36.000Z</time>
      </trkpt>
      <trkpt lat="42.308143" lon="-8.796605">
        <ele>146.8</ele>
        <time>1970-01-01T03:30:37.000Z</time>
      </trkpt>
      <trkpt lat="42.308159" lon="-8.796619">
        <ele>146.6</ele>
        <time>1970-01-01T03:30:38.000Z</time>
      </trkpt>
      <trkpt lat="42.308173" lon="-8.79663">
        <ele>146.6</ele>
        <time>1970-01-01T03:30:39.000Z</time>
      </trkpt>
      <trkpt lat="42.308188" lon="-8.796642">
        <ele>146.6</ele>
        <time>1970-01-01T03:30:40.000Z</time>
      </trkpt>
      <trkpt lat="42.308202" lon="-8.796651">
        <ele>146.6</ele>
        <time>1970-01-01T03:30:41.000Z</time>
      </trkpt>
      <trkpt lat="42.308219" lon="-8.79666">
        <ele>146.4</ele>
        <time>1970-01-01T03:30:42.000Z</time>
      </trkpt>
      <trkpt lat="42.308233" lon="-8.796672">
        <ele>146.4</ele>
        <time>1970-01-01T03:30:43.000Z</time>
      </trkpt>
      <trkpt lat="42.308248" lon="-8.796685">
        <ele>146.2</ele>
        <time>1970-01-01T03:30:44.000Z</time>
      </trkpt>
      <trkpt lat="42.30826" lon="-8.796699">
        <ele>145.8</ele>
        <time>1970-01-01T03:30:45.000Z</time>
      </trkpt>
      <trkpt lat="42.308272" lon="-8.796715">
        <ele>145.2</ele>
        <time>1970-01-01T03:30:46.000Z</time>
      </trkpt>
      <trkpt lat="42.308279" lon="-8.796728">
        <ele>144.8</ele>
        <time>1970-01-01T03:30:47.000Z</time>
      </trkpt>
      <trkpt lat="42.308285" lon="-8.79674">
        <ele>144.6</ele>
        <time>1970-01-01T03:30:48.000Z</time>
      </trkpt>
      <trkpt lat="42.308291" lon="-8.796751">
        <ele>144.6</ele>
        <time>1970-01-01T03:30:49.000Z</time>
      </trkpt>
      <trkpt lat="42.308298" lon="-8.796763">
        <ele>144.4</ele>
        <time>1970-01-01T03:30:50.000Z</time>
      </trkpt>
      <trkpt lat="42.308306" lon="-8.796773">
        <ele>144.2</ele>
        <time>1970-01-01T03:30:51.000Z</time>
      </trkpt>
      <trkpt lat="42.308315" lon="-8.796784">
        <ele>144.2</ele>
        <time>1970-01-01T03:30:52.000Z</time>
      </trkpt>
      <trkpt lat="42.308322" lon="-8.796794">
        <ele>144.2</ele>
        <time>1970-01-01T03:30:53.000Z</time>
      </trkpt>
      <trkpt lat="42.30833" lon="-8.796804">
        <ele>144.2</ele>
        <time>1970-01-01T03:30:54.000Z</time>
      </trkpt>
      <trkpt lat="42.308338" lon="-8.796816">
        <ele>144.2</ele>
        <time>1970-01-01T03:30:55.000Z</time>
      </trkpt>
      <trkpt lat="42.308348" lon="-8.796829">
        <ele>143.8</ele>
        <time>1970-01-01T03:30:56.000Z</time>
      </trkpt>
      <trkpt lat="42.308357" lon="-8.796843">
        <ele>143.4</ele>
        <time>1970-01-01T03:30:57.000Z</time>
      </trkpt>
      <trkpt lat="42.308366" lon="-8.796856">
        <ele>143.2</ele>
        <time>1970-01-01T03:30:58.000Z</time>
      </trkpt>
      <trkpt lat="42.308376" lon="-8.796868">
        <ele>143</ele>
        <time>1970-01-01T03:30:59.000Z</time>
      </trkpt>
      <trkpt lat="42.308387" lon="-8.796882">
        <ele>143</ele>
        <time>1970-01-01T03:31:00.000Z</time>
      </trkpt>
      <trkpt lat="42.308399" lon="-8.796898">
        <ele>142.6</ele>
        <time>1970-01-01T03:31:01.000Z</time>
      </trkpt>
      <trkpt lat="42.308407" lon="-8.79691">
        <ele>142.8</ele>
        <time>1970-01-01T03:31:02.000Z</time>
      </trkpt>
      <trkpt lat="42.308418" lon="-8.796925">
        <ele>142.6</ele>
        <time>1970-01-01T03:31:03.000Z</time>
      </trkpt>
      <trkpt lat="42.308429" lon="-8.79694">
        <ele>142.6</ele>
        <time>1970-01-01T03:31:04.000Z</time>
      </trkpt>
      <trkpt lat="42.308437" lon="-8.79696">
        <ele>142.4</ele>
        <time>1970-01-01T03:31:05.000Z</time>
      </trkpt>
      <trkpt lat="42.30845" lon="-8.796981">
        <ele>142.4</ele>
        <time>1970-01-01T03:31:06.000Z</time>
      </trkpt>
      <trkpt lat="42.308463" lon="-8.796993">
        <ele>142.4</ele>
        <time>1970-01-01T03:31:07.000Z</time>
      </trkpt>
      <trkpt lat="42.30847" lon="-8.797005">
        <ele>142.4</ele>
        <time>1970-01-01T03:31:08.000Z</time>
      </trkpt>
      <trkpt lat="42.308481" lon="-8.797017">
        <ele>142.4</ele>
        <time>1970-01-01T03:31:09.000Z</time>
      </trkpt>
      <trkpt lat="42.30849" lon="-8.797027">
        <ele>142</ele>
        <time>1970-01-01T03:31:10.000Z</time>
      </trkpt>
      <trkpt lat="42.3085" lon="-8.797037">
        <ele>141.8</ele>
        <time>1970-01-01T03:31:11.000Z</time>
      </trkpt>
      <trkpt lat="42.308513" lon="-8.797048">
        <ele>141.6</ele>
        <time>1970-01-01T03:31:12.000Z</time>
      </trkpt>
      <trkpt lat="42.308526" lon="-8.797059">
        <ele>141.4</ele>
        <time>1970-01-01T03:31:13.000Z</time>
      </trkpt>
      <trkpt lat="42.308542" lon="-8.797072">
        <ele>141.4</ele>
        <time>1970-01-01T03:31:14.000Z</time>
      </trkpt>
      <trkpt lat="42.308557" lon="-8.797085">
        <ele>141.4</ele>
        <time>1970-01-01T03:31:15.000Z</time>
      </trkpt>
      <trkpt lat="42.308581" lon="-8.797092">
        <ele>141.4</ele>
        <time>1970-01-01T03:31:16.000Z</time>
      </trkpt>
      <trkpt lat="42.308595" lon="-8.797103">
        <ele>141.4</ele>
        <time>1970-01-01T03:31:17.000Z</time>
      </trkpt>
      <trkpt lat="42.308605" lon="-8.797109">
        <ele>141.4</ele>
        <time>1970-01-01T03:31:18.000Z</time>
      </trkpt>
      <trkpt lat="42.308606" lon="-8.797123">
        <ele>141.4</ele>
        <time>1970-01-01T03:31:19.000Z</time>
      </trkpt>
      <trkpt lat="42.308604" lon="-8.797136">
        <ele>141.4</ele>
        <time>1970-01-01T03:31:20.000Z</time>
      </trkpt>
      <trkpt lat="42.308601" lon="-8.797159">
        <ele>141</ele>
        <time>1970-01-01T03:31:21.000Z</time>
      </trkpt>
      <trkpt lat="42.308598" lon="-8.797176">
        <ele>141</ele>
        <time>1970-01-01T03:31:22.000Z</time>
      </trkpt>
      <trkpt lat="42.308596" lon="-8.797191">
        <ele>140.8</ele>
        <time>1970-01-01T03:31:23.000Z</time>
      </trkpt>
      <trkpt lat="42.308593" lon="-8.797204">
        <ele>140.8</ele>
        <time>1970-01-01T03:31:24.000Z</time>
      </trkpt>
      <trkpt lat="42.308593" lon="-8.797216">
        <ele>140.8</ele>
        <time>1970-01-01T03:31:25.000Z</time>
      </trkpt>
      <trkpt lat="42.308593" lon="-8.797228">
        <ele>140.8</ele>
        <time>1970-01-01T03:31:26.000Z</time>
      </trkpt>
      <trkpt lat="42.308591" lon="-8.797242">
        <ele>141</ele>
        <time>1970-01-01T03:31:27.000Z</time>
      </trkpt>
      <trkpt lat="42.308591" lon="-8.797255">
        <ele>141</ele>
        <time>1970-01-01T03:31:28.000Z</time>
      </trkpt>
      <trkpt lat="42.308591" lon="-8.797271">
        <ele>141</ele>
        <time>1970-01-01T03:31:29.000Z</time>
      </trkpt>
      <trkpt lat="42.30859" lon="-8.797291">
        <ele>141</ele>
        <time>1970-01-01T03:31:30.000Z</time>
      </trkpt>
      <trkpt lat="42.308593" lon="-8.797313">
        <ele>140.6</ele>
        <time>1970-01-01T03:31:31.000Z</time>
      </trkpt>
      <trkpt lat="42.308597" lon="-8.797334">
        <ele>140.2</ele>
        <time>1970-01-01T03:31:32.000Z</time>
      </trkpt>
      <trkpt lat="42.308601" lon="-8.797359">
        <ele>140</ele>
        <time>1970-01-01T03:31:33.000Z</time>
      </trkpt>
      <trkpt lat="42.308605" lon="-8.797386">
        <ele>140</ele>
        <time>1970-01-01T03:31:34.000Z</time>
      </trkpt>
      <trkpt lat="42.308609" lon="-8.797409">
        <ele>140</ele>
        <time>1970-01-01T03:31:35.000Z</time>
      </trkpt>
      <trkpt lat="42.30861" lon="-8.797431">
        <ele>140</ele>
        <time>1970-01-01T03:31:36.000Z</time>
      </trkpt>
      <trkpt lat="42.308613" lon="-8.797451">
        <ele>139.8</ele>
        <time>1970-01-01T03:31:37.000Z</time>
      </trkpt>
      <trkpt lat="42.308613" lon="-8.797467">
        <ele>139.6</ele>
        <time>1970-01-01T03:31:38.000Z</time>
      </trkpt>
      <trkpt lat="42.308612" lon="-8.79748">
        <ele>139.6</ele>
        <time>1970-01-01T03:31:39.000Z</time>
      </trkpt>
      <trkpt lat="42.308609" lon="-8.797486">
        <ele>139.2</ele>
        <time>1970-01-01T03:31:40.000Z</time>
      </trkpt>
      <trkpt lat="42.308609" lon="-8.7975">
        <ele>139</ele>
        <time>1970-01-01T03:31:41.000Z</time>
      </trkpt>
      <trkpt lat="42.308608" lon="-8.797515">
        <ele>138.8</ele>
        <time>1970-01-01T03:31:42.000Z</time>
      </trkpt>
      <trkpt lat="42.308605" lon="-8.797529">
        <ele>138.8</ele>
        <time>1970-01-01T03:31:43.000Z</time>
      </trkpt>
      <trkpt lat="42.308603" lon="-8.797548">
        <ele>138.8</ele>
        <time>1970-01-01T03:31:44.000Z</time>
      </trkpt>
      <trkpt lat="42.308599" lon="-8.79757">
        <ele>138.6</ele>
        <time>1970-01-01T03:31:45.000Z</time>
      </trkpt>
      <trkpt lat="42.308596" lon="-8.797592">
        <ele>138.6</ele>
        <time>1970-01-01T03:31:46.000Z</time>
      </trkpt>
      <trkpt lat="42.308591" lon="-8.79761">
        <ele>138.6</ele>
        <time>1970-01-01T03:31:47.000Z</time>
      </trkpt>
      <trkpt lat="42.308588" lon="-8.797621">
        <ele>138.6</ele>
        <time>1970-01-01T03:31:48.000Z</time>
      </trkpt>
      <trkpt lat="42.308585" lon="-8.797636">
        <ele>138.2</ele>
        <time>1970-01-01T03:31:49.000Z</time>
      </trkpt>
      <trkpt lat="42.308583" lon="-8.797652">
        <ele>138</ele>
        <time>1970-01-01T03:31:50.000Z</time>
      </trkpt>
      <trkpt lat="42.308581" lon="-8.797665">
        <ele>137.4</ele>
        <time>1970-01-01T03:31:51.000Z</time>
      </trkpt>
      <trkpt lat="42.308581" lon="-8.797681">
        <ele>137</ele>
        <time>1970-01-01T03:31:52.000Z</time>
      </trkpt>
      <trkpt lat="42.308581" lon="-8.7977">
        <ele>136.8</ele>
        <time>1970-01-01T03:31:53.000Z</time>
      </trkpt>
      <trkpt lat="42.308581" lon="-8.797718">
        <ele>136.8</ele>
        <time>1970-01-01T03:31:54.000Z</time>
      </trkpt>
      <trkpt lat="42.308583" lon="-8.797732">
        <ele>136.6</ele>
        <time>1970-01-01T03:31:55.000Z</time>
      </trkpt>
      <trkpt lat="42.308582" lon="-8.797744">
        <ele>136.6</ele>
        <time>1970-01-01T03:31:56.000Z</time>
      </trkpt>
      <trkpt lat="42.308579" lon="-8.797765">
        <ele>136.6</ele>
        <time>1970-01-01T03:31:57.000Z</time>
      </trkpt>
      <trkpt lat="42.308578" lon="-8.797781">
        <ele>136.6</ele>
        <time>1970-01-01T03:31:58.000Z</time>
      </trkpt>
      <trkpt lat="42.308578" lon="-8.797799">
        <ele>136.6</ele>
        <time>1970-01-01T03:31:59.000Z</time>
      </trkpt>
      <trkpt lat="42.308579" lon="-8.797813">
        <ele>136.8</ele>
        <time>1970-01-01T03:32:00.000Z</time>
      </trkpt>
      <trkpt lat="42.308583" lon="-8.797831">
        <ele>136.8</ele>
        <time>1970-01-01T03:32:01.000Z</time>
      </trkpt>
      <trkpt lat="42.308586" lon="-8.797851">
        <ele>137</ele>
        <time>1970-01-01T03:32:02.000Z</time>
      </trkpt>
      <trkpt lat="42.308586" lon="-8.797868">
        <ele>136.6</ele>
        <time>1970-01-01T03:32:03.000Z</time>
      </trkpt>
      <trkpt lat="42.308585" lon="-8.79788">
        <ele>136.2</ele>
        <time>1970-01-01T03:32:04.000Z</time>
      </trkpt>
      <trkpt lat="42.308582" lon="-8.79789">
        <ele>135.8</ele>
        <time>1970-01-01T03:32:05.000Z</time>
      </trkpt>
      <trkpt lat="42.308581" lon="-8.797903">
        <ele>135.4</ele>
        <time>1970-01-01T03:32:06.000Z</time>
      </trkpt>
      <trkpt lat="42.30858" lon="-8.797917">
        <ele>135.2</ele>
        <time>1970-01-01T03:32:07.000Z</time>
      </trkpt>
      <trkpt lat="42.30858" lon="-8.797935">
        <ele>134.8</ele>
        <time>1970-01-01T03:32:08.000Z</time>
      </trkpt>
      <trkpt lat="42.308578" lon="-8.797955">
        <ele>134.6</ele>
        <time>1970-01-01T03:32:09.000Z</time>
      </trkpt>
      <trkpt lat="42.308576" lon="-8.797968">
        <ele>134.4</ele>
        <time>1970-01-01T03:32:10.000Z</time>
      </trkpt>
      <trkpt lat="42.308574" lon="-8.797977">
        <ele>134.2</ele>
        <time>1970-01-01T03:32:11.000Z</time>
      </trkpt>
      <trkpt lat="42.308576" lon="-8.797989">
        <ele>134.2</ele>
        <time>1970-01-01T03:32:12.000Z</time>
      </trkpt>
      <trkpt lat="42.308577" lon="-8.798002">
        <ele>134.2</ele>
        <time>1970-01-01T03:32:13.000Z</time>
      </trkpt>
      <trkpt lat="42.308583" lon="-8.798018">
        <ele>133.6</ele>
        <time>1970-01-01T03:32:14.000Z</time>
      </trkpt>
      <trkpt lat="42.308584" lon="-8.798037">
        <ele>133.2</ele>
        <time>1970-01-01T03:32:15.000Z</time>
      </trkpt>
      <trkpt lat="42.308582" lon="-8.798053">
        <ele>132.6</ele>
        <time>1970-01-01T03:32:16.000Z</time>
      </trkpt>
      <trkpt lat="42.308582" lon="-8.79807">
        <ele>132.4</ele>
        <time>1970-01-01T03:32:17.000Z</time>
      </trkpt>
      <trkpt lat="42.308578" lon="-8.798092">
        <ele>132.2</ele>
        <time>1970-01-01T03:32:18.000Z</time>
      </trkpt>
      <trkpt lat="42.308574" lon="-8.798109">
        <ele>132</ele>
        <time>1970-01-01T03:32:19.000Z</time>
      </trkpt>
      <trkpt lat="42.308566" lon="-8.798131">
        <ele>132</ele>
        <time>1970-01-01T03:32:20.000Z</time>
      </trkpt>
      <trkpt lat="42.30856" lon="-8.798148">
        <ele>131.8</ele>
        <time>1970-01-01T03:32:21.000Z</time>
      </trkpt>
      <trkpt lat="42.30855" lon="-8.798167">
        <ele>131.2</ele>
        <time>1970-01-01T03:32:22.000Z</time>
      </trkpt>
      <trkpt lat="42.308538" lon="-8.798185">
        <ele>130.8</ele>
        <time>1970-01-01T03:32:23.000Z</time>
      </trkpt>
      <trkpt lat="42.308525" lon="-8.798199">
        <ele>130.4</ele>
        <time>1970-01-01T03:32:24.000Z</time>
      </trkpt>
      <trkpt lat="42.308512" lon="-8.798209">
        <ele>129.4</ele>
        <time>1970-01-01T03:32:25.000Z</time>
      </trkpt>
      <trkpt lat="42.308497" lon="-8.798221">
        <ele>128.8</ele>
        <time>1970-01-01T03:32:26.000Z</time>
      </trkpt>
      <trkpt lat="42.308482" lon="-8.79823">
        <ele>128.4</ele>
        <time>1970-01-01T03:32:27.000Z</time>
      </trkpt>
      <trkpt lat="42.308469" lon="-8.79824">
        <ele>128.2</ele>
        <time>1970-01-01T03:32:28.000Z</time>
      </trkpt>
      <trkpt lat="42.308462" lon="-8.79825">
        <ele>128.4</ele>
        <time>1970-01-01T03:32:29.000Z</time>
      </trkpt>
      <trkpt lat="42.308459" lon="-8.798261">
        <ele>128.2</ele>
        <time>1970-01-01T03:32:30.000Z</time>
      </trkpt>
      <trkpt lat="42.308456" lon="-8.798271">
        <ele>128.2</ele>
        <time>1970-01-01T03:32:31.000Z</time>
      </trkpt>
      <trkpt lat="42.30845" lon="-8.798284">
        <ele>128.2</ele>
        <time>1970-01-01T03:32:32.000Z</time>
      </trkpt>
      <trkpt lat="42.308441" lon="-8.798293">
        <ele>128.2</ele>
        <time>1970-01-01T03:32:33.000Z</time>
      </trkpt>
      <trkpt lat="42.308435" lon="-8.798308">
        <ele>127.8</ele>
        <time>1970-01-01T03:32:34.000Z</time>
      </trkpt>
      <trkpt lat="42.308428" lon="-8.798324">
        <ele>127.2</ele>
        <time>1970-01-01T03:32:35.000Z</time>
      </trkpt>
      <trkpt lat="42.308419" lon="-8.798336">
        <ele>127</ele>
        <time>1970-01-01T03:32:36.000Z</time>
      </trkpt>
      <trkpt lat="42.308411" lon="-8.798348">
        <ele>126.8</ele>
        <time>1970-01-01T03:32:37.000Z</time>
      </trkpt>
      <trkpt lat="42.308402" lon="-8.798359">
        <ele>126.4</ele>
        <time>1970-01-01T03:32:38.000Z</time>
      </trkpt>
      <trkpt lat="42.308396" lon="-8.798368">
        <ele>126.2</ele>
        <time>1970-01-01T03:32:39.000Z</time>
      </trkpt>
      <trkpt lat="42.308391" lon="-8.798381">
        <ele>126</ele>
        <time>1970-01-01T03:32:40.000Z</time>
      </trkpt>
      <trkpt lat="42.308385" lon="-8.798397">
        <ele>125.8</ele>
        <time>1970-01-01T03:32:41.000Z</time>
      </trkpt>
      <trkpt lat="42.308381" lon="-8.798418">
        <ele>125.8</ele>
        <time>1970-01-01T03:32:42.000Z</time>
      </trkpt>
      <trkpt lat="42.308378" lon="-8.798442">
        <ele>125.6</ele>
        <time>1970-01-01T03:32:43.000Z</time>
      </trkpt>
      <trkpt lat="42.308377" lon="-8.798468">
        <ele>125.6</ele>
        <time>1970-01-01T03:32:44.000Z</time>
      </trkpt>
      <trkpt lat="42.308375" lon="-8.798492">
        <ele>125.8</ele>
        <time>1970-01-01T03:32:45.000Z</time>
      </trkpt>
      <trkpt lat="42.308375" lon="-8.798518">
        <ele>125.6</ele>
        <time>1970-01-01T03:32:46.000Z</time>
      </trkpt>
      <trkpt lat="42.308375" lon="-8.798542">
        <ele>125.8</ele>
        <time>1970-01-01T03:32:47.000Z</time>
      </trkpt>
      <trkpt lat="42.308378" lon="-8.798569">
        <ele>125.8</ele>
        <time>1970-01-01T03:32:48.000Z</time>
      </trkpt>
      <trkpt lat="42.308383" lon="-8.798592">
        <ele>125.6</ele>
        <time>1970-01-01T03:32:49.000Z</time>
      </trkpt>
      <trkpt lat="42.308384" lon="-8.798607">
        <ele>125.6</ele>
        <time>1970-01-01T03:32:50.000Z</time>
      </trkpt>
      <trkpt lat="42.308388" lon="-8.798623">
        <ele>125.4</ele>
        <time>1970-01-01T03:32:51.000Z</time>
      </trkpt>
      <trkpt lat="42.308393" lon="-8.79864">
        <ele>125.4</ele>
        <time>1970-01-01T03:32:52.000Z</time>
      </trkpt>
      <trkpt lat="42.308396" lon="-8.798664">
        <ele>125.2</ele>
        <time>1970-01-01T03:32:53.000Z</time>
      </trkpt>
      <trkpt lat="42.308401" lon="-8.798689">
        <ele>125.2</ele>
        <time>1970-01-01T03:32:54.000Z</time>
      </trkpt>
      <trkpt lat="42.308407" lon="-8.798706">
        <ele>125</ele>
        <time>1970-01-01T03:32:55.000Z</time>
      </trkpt>
      <trkpt lat="42.30841" lon="-8.79872">
        <ele>125</ele>
        <time>1970-01-01T03:32:56.000Z</time>
      </trkpt>
      <trkpt lat="42.308409" lon="-8.79873">
        <ele>125</ele>
        <time>1970-01-01T03:32:57.000Z</time>
      </trkpt>
      <trkpt lat="42.308408" lon="-8.798741">
        <ele>125</ele>
        <time>1970-01-01T03:32:58.000Z</time>
      </trkpt>
      <trkpt lat="42.308408" lon="-8.798754">
        <ele>125</ele>
        <time>1970-01-01T03:32:59.000Z</time>
      </trkpt>
      <trkpt lat="42.308408" lon="-8.798765">
        <ele>125</ele>
        <time>1970-01-01T03:33:00.000Z</time>
      </trkpt>
      <trkpt lat="42.308407" lon="-8.798776">
        <ele>125</ele>
        <time>1970-01-01T03:33:01.000Z</time>
      </trkpt>
      <trkpt lat="42.308408" lon="-8.798789">
        <ele>125</ele>
        <time>1970-01-01T03:33:02.000Z</time>
      </trkpt>
      <trkpt lat="42.308409" lon="-8.798812">
        <ele>125</ele>
        <time>1970-01-01T03:33:03.000Z</time>
      </trkpt>
      <trkpt lat="42.308412" lon="-8.798833">
        <ele>125.2</ele>
        <time>1970-01-01T03:33:04.000Z</time>
      </trkpt>
      <trkpt lat="42.308415" lon="-8.798854">
        <ele>125.2</ele>
        <time>1970-01-01T03:33:05.000Z</time>
      </trkpt>
      <trkpt lat="42.30842" lon="-8.798873">
        <ele>125.2</ele>
        <time>1970-01-01T03:33:06.000Z</time>
      </trkpt>
      <trkpt lat="42.308424" lon="-8.798893">
        <ele>125.4</ele>
        <time>1970-01-01T03:33:07.000Z</time>
      </trkpt>
      <trkpt lat="42.308428" lon="-8.798906">
        <ele>125.4</ele>
        <time>1970-01-01T03:33:08.000Z</time>
      </trkpt>
      <trkpt lat="42.308436" lon="-8.798928">
        <ele>125.2</ele>
        <time>1970-01-01T03:33:09.000Z</time>
      </trkpt>
      <trkpt lat="42.308438" lon="-8.798943">
        <ele>125.2</ele>
        <time>1970-01-01T03:33:10.000Z</time>
      </trkpt>
      <trkpt lat="42.308442" lon="-8.798963">
        <ele>125.2</ele>
        <time>1970-01-01T03:33:11.000Z</time>
      </trkpt>
      <trkpt lat="42.308449" lon="-8.798983">
        <ele>125.2</ele>
        <time>1970-01-01T03:33:12.000Z</time>
      </trkpt>
      <trkpt lat="42.308459" lon="-8.799019">
        <ele>125.2</ele>
        <time>1970-01-01T03:33:13.000Z</time>
      </trkpt>
      <trkpt lat="42.30847" lon="-8.799039">
        <ele>125.2</ele>
        <time>1970-01-01T03:33:14.000Z</time>
      </trkpt>
      <trkpt lat="42.308477" lon="-8.799049">
        <ele>125.2</ele>
        <time>1970-01-01T03:33:15.000Z</time>
      </trkpt>
      <trkpt lat="42.308482" lon="-8.799056">
        <ele>125.4</ele>
        <time>1970-01-01T03:33:16.000Z</time>
      </trkpt>
      <trkpt lat="42.308487" lon="-8.799065">
        <ele>125.4</ele>
        <time>1970-01-01T03:33:17.000Z</time>
      </trkpt>
      <trkpt lat="42.308493" lon="-8.799073">
        <ele>125.4</ele>
        <time>1970-01-01T03:33:18.000Z</time>
      </trkpt>
      <trkpt lat="42.308502" lon="-8.799087">
        <ele>125.4</ele>
        <time>1970-01-01T03:33:19.000Z</time>
      </trkpt>
      <trkpt lat="42.308511" lon="-8.799098">
        <ele>125.4</ele>
        <time>1970-01-01T03:33:20.000Z</time>
      </trkpt>
      <trkpt lat="42.308521" lon="-8.799113">
        <ele>125.6</ele>
        <time>1970-01-01T03:33:21.000Z</time>
      </trkpt>
      <trkpt lat="42.308529" lon="-8.799127">
        <ele>125.6</ele>
        <time>1970-01-01T03:33:22.000Z</time>
      </trkpt>
      <trkpt lat="42.308537" lon="-8.799139">
        <ele>125.6</ele>
        <time>1970-01-01T03:33:23.000Z</time>
      </trkpt>
      <trkpt lat="42.308544" lon="-8.799154">
        <ele>125.4</ele>
        <time>1970-01-01T03:33:24.000Z</time>
      </trkpt>
      <trkpt lat="42.30855" lon="-8.799169">
        <ele>125.4</ele>
        <time>1970-01-01T03:33:25.000Z</time>
      </trkpt>
      <trkpt lat="42.308554" lon="-8.799188">
        <ele>125.2</ele>
        <time>1970-01-01T03:33:26.000Z</time>
      </trkpt>
      <trkpt lat="42.308557" lon="-8.799207">
        <ele>125</ele>
        <time>1970-01-01T03:33:27.000Z</time>
      </trkpt>
      <trkpt lat="42.30856" lon="-8.799224">
        <ele>124.8</ele>
        <time>1970-01-01T03:33:28.000Z</time>
      </trkpt>
      <trkpt lat="42.308562" lon="-8.799235">
        <ele>124.8</ele>
        <time>1970-01-01T03:33:29.000Z</time>
      </trkpt>
      <trkpt lat="42.308563" lon="-8.79925">
        <ele>124.8</ele>
        <time>1970-01-01T03:33:30.000Z</time>
      </trkpt>
      <trkpt lat="42.308565" lon="-8.799268">
        <ele>125</ele>
        <time>1970-01-01T03:33:31.000Z</time>
      </trkpt>
      <trkpt lat="42.308568" lon="-8.799286">
        <ele>125</ele>
        <time>1970-01-01T03:33:32.000Z</time>
      </trkpt>
      <trkpt lat="42.308572" lon="-8.799303">
        <ele>125</ele>
        <time>1970-01-01T03:33:33.000Z</time>
      </trkpt>
      <trkpt lat="42.308576" lon="-8.799318">
        <ele>124.8</ele>
        <time>1970-01-01T03:33:34.000Z</time>
      </trkpt>
      <trkpt lat="42.30858" lon="-8.799332">
        <ele>124.6</ele>
        <time>1970-01-01T03:33:35.000Z</time>
      </trkpt>
      <trkpt lat="42.308585" lon="-8.799348">
        <ele>124.4</ele>
        <time>1970-01-01T03:33:36.000Z</time>
      </trkpt>
      <trkpt lat="42.30859" lon="-8.799365">
        <ele>124</ele>
        <time>1970-01-01T03:33:37.000Z</time>
      </trkpt>
      <trkpt lat="42.308593" lon="-8.79938">
        <ele>123.8</ele>
        <time>1970-01-01T03:33:38.000Z</time>
      </trkpt>
      <trkpt lat="42.308596" lon="-8.799389">
        <ele>123.6</ele>
        <time>1970-01-01T03:33:39.000Z</time>
      </trkpt>
      <trkpt lat="42.308597" lon="-8.799398">
        <ele>123.4</ele>
        <time>1970-01-01T03:33:40.000Z</time>
      </trkpt>
      <trkpt lat="42.308595" lon="-8.799408">
        <ele>123.4</ele>
        <time>1970-01-01T03:33:41.000Z</time>
      </trkpt>
      <trkpt lat="42.308594" lon="-8.799419">
        <ele>123.4</ele>
        <time>1970-01-01T03:33:42.000Z</time>
      </trkpt>
      <trkpt lat="42.308591" lon="-8.799437">
        <ele>123.2</ele>
        <time>1970-01-01T03:33:43.000Z</time>
      </trkpt>
      <trkpt lat="42.308592" lon="-8.799454">
        <ele>123.2</ele>
        <time>1970-01-01T03:33:44.000Z</time>
      </trkpt>
      <trkpt lat="42.308595" lon="-8.799466">
        <ele>123.2</ele>
        <time>1970-01-01T03:33:45.000Z</time>
      </trkpt>
      <trkpt lat="42.308599" lon="-8.799481">
        <ele>123</ele>
        <time>1970-01-01T03:33:46.000Z</time>
      </trkpt>
      <trkpt lat="42.308603" lon="-8.799494">
        <ele>122.8</ele>
        <time>1970-01-01T03:33:47.000Z</time>
      </trkpt>
      <trkpt lat="42.308608" lon="-8.799508">
        <ele>122.6</ele>
        <time>1970-01-01T03:33:48.000Z</time>
      </trkpt>
      <trkpt lat="42.308616" lon="-8.799522">
        <ele>122.6</ele>
        <time>1970-01-01T03:33:49.000Z</time>
      </trkpt>
      <trkpt lat="42.308624" lon="-8.799535">
        <ele>122.2</ele>
        <time>1970-01-01T03:33:50.000Z</time>
      </trkpt>
      <trkpt lat="42.308633" lon="-8.799545">
        <ele>122.2</ele>
        <time>1970-01-01T03:33:51.000Z</time>
      </trkpt>
      <trkpt lat="42.308638" lon="-8.799554">
        <ele>122</ele>
        <time>1970-01-01T03:33:52.000Z</time>
      </trkpt>
      <trkpt lat="42.308645" lon="-8.799557">
        <ele>122</ele>
        <time>1970-01-01T03:33:53.000Z</time>
      </trkpt>
      <trkpt lat="42.308648" lon="-8.799562">
        <ele>122</ele>
        <time>1970-01-01T03:33:54.000Z</time>
      </trkpt>
      <trkpt lat="42.308652" lon="-8.799565">
        <ele>122</ele>
        <time>1970-01-01T03:33:55.000Z</time>
      </trkpt>
      <trkpt lat="42.308654" lon="-8.79957">
        <ele>121.8</ele>
        <time>1970-01-01T03:33:56.000Z</time>
      </trkpt>
      <trkpt lat="42.308656" lon="-8.799573">
        <ele>121.8</ele>
        <time>1970-01-01T03:33:57.000Z</time>
      </trkpt>
      <trkpt lat="42.308659" lon="-8.799578">
        <ele>121.8</ele>
        <time>1970-01-01T03:33:58.000Z</time>
      </trkpt>
      <trkpt lat="42.308663" lon="-8.799586">
        <ele>121.6</ele>
        <time>1970-01-01T03:33:59.000Z</time>
      </trkpt>
      <trkpt lat="42.308669" lon="-8.799597">
        <ele>121.4</ele>
        <time>1970-01-01T03:34:00.000Z</time>
      </trkpt>
      <trkpt lat="42.308677" lon="-8.799605">
        <ele>121.4</ele>
        <time>1970-01-01T03:34:01.000Z</time>
      </trkpt>
      <trkpt lat="42.308683" lon="-8.799614">
        <ele>121.2</ele>
        <time>1970-01-01T03:34:02.000Z</time>
      </trkpt>
      <trkpt lat="42.308691" lon="-8.799625">
        <ele>121</ele>
        <time>1970-01-01T03:34:03.000Z</time>
      </trkpt>
      <trkpt lat="42.308699" lon="-8.799637">
        <ele>120.8</ele>
        <time>1970-01-01T03:34:04.000Z</time>
      </trkpt>
      <trkpt lat="42.308709" lon="-8.79965">
        <ele>120.8</ele>
        <time>1970-01-01T03:34:05.000Z</time>
      </trkpt>
      <trkpt lat="42.308719" lon="-8.799664">
        <ele>120.8</ele>
        <time>1970-01-01T03:34:06.000Z</time>
      </trkpt>
      <trkpt lat="42.308731" lon="-8.799675">
        <ele>120.8</ele>
        <time>1970-01-01T03:34:07.000Z</time>
      </trkpt>
      <trkpt lat="42.308737" lon="-8.799689">
        <ele>120.8</ele>
        <time>1970-01-01T03:34:08.000Z</time>
      </trkpt>
      <trkpt lat="42.308743" lon="-8.799702">
        <ele>120.6</ele>
        <time>1970-01-01T03:34:09.000Z</time>
      </trkpt>
      <trkpt lat="42.308748" lon="-8.799716">
        <ele>120.6</ele>
        <time>1970-01-01T03:34:10.000Z</time>
      </trkpt>
      <trkpt lat="42.308752" lon="-8.799728">
        <ele>120.6</ele>
        <time>1970-01-01T03:34:11.000Z</time>
      </trkpt>
      <trkpt lat="42.308755" lon="-8.799743">
        <ele>120.2</ele>
        <time>1970-01-01T03:34:12.000Z</time>
      </trkpt>
      <trkpt lat="42.308757" lon="-8.79976">
        <ele>120</ele>
        <time>1970-01-01T03:34:13.000Z</time>
      </trkpt>
      <trkpt lat="42.308759" lon="-8.799777">
        <ele>119.8</ele>
        <time>1970-01-01T03:34:14.000Z</time>
      </trkpt>
      <trkpt lat="42.30876" lon="-8.799792">
        <ele>119.8</ele>
        <time>1970-01-01T03:34:15.000Z</time>
      </trkpt>
      <trkpt lat="42.308759" lon="-8.799813">
        <ele>119.8</ele>
        <time>1970-01-01T03:34:16.000Z</time>
      </trkpt>
      <trkpt lat="42.308762" lon="-8.799834">
        <ele>119.8</ele>
        <time>1970-01-01T03:34:17.000Z</time>
      </trkpt>
      <trkpt lat="42.308765" lon="-8.799848">
        <ele>119.8</ele>
        <time>1970-01-01T03:34:18.000Z</time>
      </trkpt>
      <trkpt lat="42.308767" lon="-8.799861">
        <ele>119.6</ele>
        <time>1970-01-01T03:34:19.000Z</time>
      </trkpt>
      <trkpt lat="42.308771" lon="-8.799877">
        <ele>119.2</ele>
        <time>1970-01-01T03:34:20.000Z</time>
      </trkpt>
      <trkpt lat="42.308776" lon="-8.799896">
        <ele>119</ele>
        <time>1970-01-01T03:34:21.000Z</time>
      </trkpt>
      <trkpt lat="42.308779" lon="-8.799915">
        <ele>119</ele>
        <time>1970-01-01T03:34:22.000Z</time>
      </trkpt>
      <trkpt lat="42.308782" lon="-8.799929">
        <ele>118.8</ele>
        <time>1970-01-01T03:34:23.000Z</time>
      </trkpt>
      <trkpt lat="42.308787" lon="-8.799941">
        <ele>118.6</ele>
        <time>1970-01-01T03:34:24.000Z</time>
      </trkpt>
      <trkpt lat="42.30879" lon="-8.799953">
        <ele>118.4</ele>
        <time>1970-01-01T03:34:25.000Z</time>
      </trkpt>
      <trkpt lat="42.308789" lon="-8.799968">
        <ele>118.6</ele>
        <time>1970-01-01T03:34:26.000Z</time>
      </trkpt>
      <trkpt lat="42.308789" lon="-8.799985">
        <ele>118.6</ele>
        <time>1970-01-01T03:34:27.000Z</time>
      </trkpt>
      <trkpt lat="42.308789" lon="-8.8">
        <ele>118.4</ele>
        <time>1970-01-01T03:34:28.000Z</time>
      </trkpt>
      <trkpt lat="42.308789" lon="-8.800015">
        <ele>118.4</ele>
        <time>1970-01-01T03:34:29.000Z</time>
      </trkpt>
      <trkpt lat="42.308789" lon="-8.800029">
        <ele>118.2</ele>
        <time>1970-01-01T03:34:30.000Z</time>
      </trkpt>
      <trkpt lat="42.30879" lon="-8.800044">
        <ele>118.2</ele>
        <time>1970-01-01T03:34:31.000Z</time>
      </trkpt>
      <trkpt lat="42.308792" lon="-8.800058">
        <ele>117.8</ele>
        <time>1970-01-01T03:34:32.000Z</time>
      </trkpt>
      <trkpt lat="42.308794" lon="-8.800069">
        <ele>117.6</ele>
        <time>1970-01-01T03:34:33.000Z</time>
      </trkpt>
      <trkpt lat="42.308796" lon="-8.800084">
        <ele>117.6</ele>
        <time>1970-01-01T03:34:34.000Z</time>
      </trkpt>
      <trkpt lat="42.308796" lon="-8.800101">
        <ele>117.6</ele>
        <time>1970-01-01T03:34:35.000Z</time>
      </trkpt>
      <trkpt lat="42.308799" lon="-8.800117">
        <ele>117.6</ele>
        <time>1970-01-01T03:34:36.000Z</time>
      </trkpt>
      <trkpt lat="42.308803" lon="-8.800137">
        <ele>117.6</ele>
        <time>1970-01-01T03:34:37.000Z</time>
      </trkpt>
      <trkpt lat="42.308806" lon="-8.800158">
        <ele>117.2</ele>
        <time>1970-01-01T03:34:38.000Z</time>
      </trkpt>
      <trkpt lat="42.30881" lon="-8.800173">
        <ele>117</ele>
        <time>1970-01-01T03:34:39.000Z</time>
      </trkpt>
      <trkpt lat="42.308815" lon="-8.80019">
        <ele>117</ele>
        <time>1970-01-01T03:34:40.000Z</time>
      </trkpt>
      <trkpt lat="42.308823" lon="-8.800213">
        <ele>116.8</ele>
        <time>1970-01-01T03:34:41.000Z</time>
      </trkpt>
      <trkpt lat="42.30883" lon="-8.800235">
        <ele>116.4</ele>
        <time>1970-01-01T03:34:42.000Z</time>
      </trkpt>
      <trkpt lat="42.308839" lon="-8.800261">
        <ele>115.8</ele>
        <time>1970-01-01T03:34:43.000Z</time>
      </trkpt>
      <trkpt lat="42.308851" lon="-8.800285">
        <ele>115.4</ele>
        <time>1970-01-01T03:34:44.000Z</time>
      </trkpt>
      <trkpt lat="42.308858" lon="-8.800303">
        <ele>115.2</ele>
        <time>1970-01-01T03:34:45.000Z</time>
      </trkpt>
      <trkpt lat="42.308868" lon="-8.800322">
        <ele>115</ele>
        <time>1970-01-01T03:34:46.000Z</time>
      </trkpt>
      <trkpt lat="42.308878" lon="-8.800338">
        <ele>114.8</ele>
        <time>1970-01-01T03:34:47.000Z</time>
      </trkpt>
      <trkpt lat="42.308888" lon="-8.800349">
        <ele>114.8</ele>
        <time>1970-01-01T03:34:48.000Z</time>
      </trkpt>
      <trkpt lat="42.308898" lon="-8.800361">
        <ele>114.8</ele>
        <time>1970-01-01T03:34:49.000Z</time>
      </trkpt>
      <trkpt lat="42.308906" lon="-8.800369">
        <ele>114.8</ele>
        <time>1970-01-01T03:34:50.000Z</time>
      </trkpt>
      <trkpt lat="42.308912" lon="-8.80038">
        <ele>114.6</ele>
        <time>1970-01-01T03:34:51.000Z</time>
      </trkpt>
      <trkpt lat="42.308919" lon="-8.800391">
        <ele>114.2</ele>
        <time>1970-01-01T03:34:52.000Z</time>
      </trkpt>
      <trkpt lat="42.308926" lon="-8.800401">
        <ele>114</ele>
        <time>1970-01-01T03:34:53.000Z</time>
      </trkpt>
      <trkpt lat="42.308933" lon="-8.800409">
        <ele>113.8</ele>
        <time>1970-01-01T03:34:54.000Z</time>
      </trkpt>
      <trkpt lat="42.308938" lon="-8.800421">
        <ele>113.4</ele>
        <time>1970-01-01T03:34:55.000Z</time>
      </trkpt>
      <trkpt lat="42.308945" lon="-8.800436">
        <ele>113</ele>
        <time>1970-01-01T03:34:56.000Z</time>
      </trkpt>
      <trkpt lat="42.308951" lon="-8.80045">
        <ele>112.8</ele>
        <time>1970-01-01T03:34:57.000Z</time>
      </trkpt>
      <trkpt lat="42.308955" lon="-8.800463">
        <ele>112.6</ele>
        <time>1970-01-01T03:34:58.000Z</time>
      </trkpt>
      <trkpt lat="42.308963" lon="-8.800476">
        <ele>112.4</ele>
        <time>1970-01-01T03:34:59.000Z</time>
      </trkpt>
      <trkpt lat="42.308969" lon="-8.800483">
        <ele>112.4</ele>
        <time>1970-01-01T03:35:00.000Z</time>
      </trkpt>
      <trkpt lat="42.308977" lon="-8.800491">
        <ele>112.4</ele>
        <time>1970-01-01T03:35:01.000Z</time>
      </trkpt>
      <trkpt lat="42.308986" lon="-8.800503">
        <ele>112.4</ele>
        <time>1970-01-01T03:35:02.000Z</time>
      </trkpt>
      <trkpt lat="42.308994" lon="-8.800519">
        <ele>112.4</ele>
        <time>1970-01-01T03:35:03.000Z</time>
      </trkpt>
      <trkpt lat="42.308998" lon="-8.800535">
        <ele>112.4</ele>
        <time>1970-01-01T03:35:04.000Z</time>
      </trkpt>
      <trkpt lat="42.308998" lon="-8.80055">
        <ele>112.6</ele>
        <time>1970-01-01T03:35:05.000Z</time>
      </trkpt>
      <trkpt lat="42.309" lon="-8.800568">
        <ele>112.6</ele>
        <time>1970-01-01T03:35:06.000Z</time>
      </trkpt>
      <trkpt lat="42.309002" lon="-8.800591">
        <ele>112.8</ele>
        <time>1970-01-01T03:35:07.000Z</time>
      </trkpt>
      <trkpt lat="42.309004" lon="-8.800613">
        <ele>112.6</ele>
        <time>1970-01-01T03:35:08.000Z</time>
      </trkpt>
      <trkpt lat="42.309003" lon="-8.800629">
        <ele>112.6</ele>
        <time>1970-01-01T03:35:09.000Z</time>
      </trkpt>
      <trkpt lat="42.309004" lon="-8.800645">
        <ele>112.6</ele>
        <time>1970-01-01T03:35:10.000Z</time>
      </trkpt>
      <trkpt lat="42.309002" lon="-8.800662">
        <ele>112.4</ele>
        <time>1970-01-01T03:35:11.000Z</time>
      </trkpt>
      <trkpt lat="42.308997" lon="-8.80068">
        <ele>112.2</ele>
        <time>1970-01-01T03:35:12.000Z</time>
      </trkpt>
      <trkpt lat="42.308991" lon="-8.800698">
        <ele>112.2</ele>
        <time>1970-01-01T03:35:13.000Z</time>
      </trkpt>
      <trkpt lat="42.308988" lon="-8.80071">
        <ele>112.2</ele>
        <time>1970-01-01T03:35:14.000Z</time>
      </trkpt>
      <trkpt lat="42.308984" lon="-8.800726">
        <ele>112.2</ele>
        <time>1970-01-01T03:35:15.000Z</time>
      </trkpt>
      <trkpt lat="42.308981" lon="-8.80074">
        <ele>112.2</ele>
        <time>1970-01-01T03:35:16.000Z</time>
      </trkpt>
      <trkpt lat="42.308977" lon="-8.800748">
        <ele>112.4</ele>
        <time>1970-01-01T03:35:17.000Z</time>
      </trkpt>
      <trkpt lat="42.308973" lon="-8.800761">
        <ele>112.4</ele>
        <time>1970-01-01T03:35:18.000Z</time>
      </trkpt>
      <trkpt lat="42.308969" lon="-8.800775">
        <ele>112.6</ele>
        <time>1970-01-01T03:35:19.000Z</time>
      </trkpt>
      <trkpt lat="42.308965" lon="-8.800785">
        <ele>112.6</ele>
        <time>1970-01-01T03:35:20.000Z</time>
      </trkpt>
      <trkpt lat="42.308961" lon="-8.800796">
        <ele>112.6</ele>
        <time>1970-01-01T03:35:21.000Z</time>
      </trkpt>
      <trkpt lat="42.308961" lon="-8.800811">
        <ele>112.6</ele>
        <time>1970-01-01T03:35:22.000Z</time>
      </trkpt>
      <trkpt lat="42.308963" lon="-8.800824">
        <ele>112.4</ele>
        <time>1970-01-01T03:35:23.000Z</time>
      </trkpt>
      <trkpt lat="42.308965" lon="-8.800838">
        <ele>112.2</ele>
        <time>1970-01-01T03:35:24.000Z</time>
      </trkpt>
      <trkpt lat="42.308967" lon="-8.80085">
        <ele>112.2</ele>
        <time>1970-01-01T03:35:25.000Z</time>
      </trkpt>
      <trkpt lat="42.308966" lon="-8.800865">
        <ele>112</ele>
        <time>1970-01-01T03:35:26.000Z</time>
      </trkpt>
      <trkpt lat="42.308964" lon="-8.800881">
        <ele>112</ele>
        <time>1970-01-01T03:35:27.000Z</time>
      </trkpt>
      <trkpt lat="42.308966" lon="-8.800895">
        <ele>111.6</ele>
        <time>1970-01-01T03:35:28.000Z</time>
      </trkpt>
      <trkpt lat="42.308969" lon="-8.800907">
        <ele>111.4</ele>
        <time>1970-01-01T03:35:29.000Z</time>
      </trkpt>
      <trkpt lat="42.308974" lon="-8.800919">
        <ele>111.2</ele>
        <time>1970-01-01T03:35:30.000Z</time>
      </trkpt>
      <trkpt lat="42.30898" lon="-8.800937">
        <ele>110.8</ele>
        <time>1970-01-01T03:35:31.000Z</time>
      </trkpt>
      <trkpt lat="42.308984" lon="-8.80095">
        <ele>110.8</ele>
        <time>1970-01-01T03:35:32.000Z</time>
      </trkpt>
      <trkpt lat="42.308986" lon="-8.800965">
        <ele>110.4</ele>
        <time>1970-01-01T03:35:33.000Z</time>
      </trkpt>
      <trkpt lat="42.308986" lon="-8.800979">
        <ele>110</ele>
        <time>1970-01-01T03:35:34.000Z</time>
      </trkpt>
      <trkpt lat="42.308987" lon="-8.800991">
        <ele>109.8</ele>
        <time>1970-01-01T03:35:35.000Z</time>
      </trkpt>
      <trkpt lat="42.308987" lon="-8.801001">
        <ele>109.4</ele>
        <time>1970-01-01T03:35:36.000Z</time>
      </trkpt>
      <trkpt lat="42.308987" lon="-8.801012">
        <ele>109.4</ele>
        <time>1970-01-01T03:35:37.000Z</time>
      </trkpt>
      <trkpt lat="42.308985" lon="-8.801025">
        <ele>109.4</ele>
        <time>1970-01-01T03:35:38.000Z</time>
      </trkpt>
      <trkpt lat="42.308987" lon="-8.801039">
        <ele>109</ele>
        <time>1970-01-01T03:35:39.000Z</time>
      </trkpt>
      <trkpt lat="42.308989" lon="-8.801052">
        <ele>108.8</ele>
        <time>1970-01-01T03:35:40.000Z</time>
      </trkpt>
      <trkpt lat="42.308988" lon="-8.801065">
        <ele>108.6</ele>
        <time>1970-01-01T03:35:41.000Z</time>
      </trkpt>
      <trkpt lat="42.308987" lon="-8.801078">
        <ele>107.8</ele>
        <time>1970-01-01T03:35:42.000Z</time>
      </trkpt>
      <trkpt lat="42.308984" lon="-8.801092">
        <ele>107.6</ele>
        <time>1970-01-01T03:35:43.000Z</time>
      </trkpt>
      <trkpt lat="42.308981" lon="-8.801107">
        <ele>107.2</ele>
        <time>1970-01-01T03:35:44.000Z</time>
      </trkpt>
      <trkpt lat="42.308979" lon="-8.801118">
        <ele>107</ele>
        <time>1970-01-01T03:35:45.000Z</time>
      </trkpt>
      <trkpt lat="42.308975" lon="-8.80113">
        <ele>106.8</ele>
        <time>1970-01-01T03:35:46.000Z</time>
      </trkpt>
      <trkpt lat="42.308971" lon="-8.801144">
        <ele>106.8</ele>
        <time>1970-01-01T03:35:47.000Z</time>
      </trkpt>
      <trkpt lat="42.308969" lon="-8.80116">
        <ele>106.6</ele>
        <time>1970-01-01T03:35:48.000Z</time>
      </trkpt>
      <trkpt lat="42.308968" lon="-8.801176">
        <ele>106.2</ele>
        <time>1970-01-01T03:35:49.000Z</time>
      </trkpt>
      <trkpt lat="42.308971" lon="-8.801193">
        <ele>106.2</ele>
        <time>1970-01-01T03:35:50.000Z</time>
      </trkpt>
      <trkpt lat="42.308974" lon="-8.801207">
        <ele>105.8</ele>
        <time>1970-01-01T03:35:51.000Z</time>
      </trkpt>
      <trkpt lat="42.308979" lon="-8.801219">
        <ele>105</ele>
        <time>1970-01-01T03:35:52.000Z</time>
      </trkpt>
      <trkpt lat="42.308983" lon="-8.801227">
        <ele>104.8</ele>
        <time>1970-01-01T03:35:53.000Z</time>
      </trkpt>
      <trkpt lat="42.308984" lon="-8.801235">
        <ele>104.4</ele>
        <time>1970-01-01T03:35:54.000Z</time>
      </trkpt>
      <trkpt lat="42.308983" lon="-8.801239">
        <ele>104</ele>
        <time>1970-01-01T03:35:55.000Z</time>
      </trkpt>
      <trkpt lat="42.308982" lon="-8.80124">
        <ele>103.8</ele>
        <time>1970-01-01T03:35:56.000Z</time>
      </trkpt>
      <trkpt lat="42.308979" lon="-8.801243">
        <ele>103.6</ele>
        <time>1970-01-01T03:35:57.000Z</time>
      </trkpt>
      <trkpt lat="42.308979" lon="-8.801247">
        <ele>103.6</ele>
        <time>1970-01-01T03:35:58.000Z</time>
      </trkpt>
      <trkpt lat="42.30898" lon="-8.801257">
        <ele>103.6</ele>
        <time>1970-01-01T03:35:59.000Z</time>
      </trkpt>
      <trkpt lat="42.308983" lon="-8.80127">
        <ele>103.6</ele>
        <time>1970-01-01T03:36:00.000Z</time>
      </trkpt>
      <trkpt lat="42.308986" lon="-8.801285">
        <ele>103.4</ele>
        <time>1970-01-01T03:36:01.000Z</time>
      </trkpt>
      <trkpt lat="42.308988" lon="-8.801297">
        <ele>103.4</ele>
        <time>1970-01-01T03:36:02.000Z</time>
      </trkpt>
      <trkpt lat="42.308988" lon="-8.801308">
        <ele>103.2</ele>
        <time>1970-01-01T03:36:03.000Z</time>
      </trkpt>
      <trkpt lat="42.308984" lon="-8.801317">
        <ele>103</ele>
        <time>1970-01-01T03:36:04.000Z</time>
      </trkpt>
      <trkpt lat="42.308979" lon="-8.801334">
        <ele>103</ele>
        <time>1970-01-01T03:36:05.000Z</time>
      </trkpt>
      <trkpt lat="42.308978" lon="-8.801352">
        <ele>103</ele>
        <time>1970-01-01T03:36:06.000Z</time>
      </trkpt>
      <trkpt lat="42.308977" lon="-8.801367">
        <ele>102.8</ele>
        <time>1970-01-01T03:36:07.000Z</time>
      </trkpt>
      <trkpt lat="42.308974" lon="-8.801377">
        <ele>102.8</ele>
        <time>1970-01-01T03:36:08.000Z</time>
      </trkpt>
      <trkpt lat="42.308971" lon="-8.801383">
        <ele>102.4</ele>
        <time>1970-01-01T03:36:09.000Z</time>
      </trkpt>
      <trkpt lat="42.30897" lon="-8.801393">
        <ele>102.4</ele>
        <time>1970-01-01T03:36:10.000Z</time>
      </trkpt>
      <trkpt lat="42.308971" lon="-8.801405">
        <ele>102.2</ele>
        <time>1970-01-01T03:36:11.000Z</time>
      </trkpt>
      <trkpt lat="42.308975" lon="-8.801421">
        <ele>102</ele>
        <time>1970-01-01T03:36:12.000Z</time>
      </trkpt>
      <trkpt lat="42.308978" lon="-8.801436">
        <ele>102</ele>
        <time>1970-01-01T03:36:13.000Z</time>
      </trkpt>
      <trkpt lat="42.308981" lon="-8.801447">
        <ele>101.8</ele>
        <time>1970-01-01T03:36:14.000Z</time>
      </trkpt>
      <trkpt lat="42.308979" lon="-8.801452">
        <ele>101.4</ele>
        <time>1970-01-01T03:36:15.000Z</time>
      </trkpt>
      <trkpt lat="42.308977" lon="-8.801457">
        <ele>101</ele>
        <time>1970-01-01T03:36:16.000Z</time>
      </trkpt>
      <trkpt lat="42.308977" lon="-8.801469">
        <ele>100.6</ele>
        <time>1970-01-01T03:36:17.000Z</time>
      </trkpt>
      <trkpt lat="42.308977" lon="-8.801484">
        <ele>100.2</ele>
        <time>1970-01-01T03:36:18.000Z</time>
      </trkpt>
      <trkpt lat="42.30898" lon="-8.801493">
        <ele>99.8</ele>
        <time>1970-01-01T03:36:19.000Z</time>
      </trkpt>
      <trkpt lat="42.30898" lon="-8.801496">
        <ele>99.6</ele>
        <time>1970-01-01T03:36:20.000Z</time>
      </trkpt>
      <trkpt lat="42.308979" lon="-8.801489">
        <ele>99.4</ele>
        <time>1970-01-01T03:36:21.000Z</time>
      </trkpt>
      <trkpt lat="42.308977" lon="-8.801483">
        <ele>99.2</ele>
        <time>1970-01-01T03:36:22.000Z</time>
      </trkpt>
      <trkpt lat="42.308976" lon="-8.801484">
        <ele>99</ele>
        <time>1970-01-01T03:36:23.000Z</time>
      </trkpt>
      <trkpt lat="42.30898" lon="-8.801492">
        <ele>99</ele>
        <time>1970-01-01T03:36:24.000Z</time>
      </trkpt>
      <trkpt lat="42.308989" lon="-8.801502">
        <ele>98.8</ele>
        <time>1970-01-01T03:36:25.000Z</time>
      </trkpt>
      <trkpt lat="42.308995" lon="-8.801513">
        <ele>98.8</ele>
        <time>1970-01-01T03:36:26.000Z</time>
      </trkpt>
      <trkpt lat="42.308998" lon="-8.801519">
        <ele>98.4</ele>
        <time>1970-01-01T03:36:27.000Z</time>
      </trkpt>
      <trkpt lat="42.309002" lon="-8.80153">
        <ele>98.2</ele>
        <time>1970-01-01T03:36:28.000Z</time>
      </trkpt>
      <trkpt lat="42.309006" lon="-8.801544">
        <ele>98</ele>
        <time>1970-01-01T03:36:29.000Z</time>
      </trkpt>
      <trkpt lat="42.309008" lon="-8.801556">
        <ele>98</ele>
        <time>1970-01-01T03:36:30.000Z</time>
      </trkpt>
      <trkpt lat="42.309007" lon="-8.801565">
        <ele>97.6</ele>
        <time>1970-01-01T03:36:31.000Z</time>
      </trkpt>
      <trkpt lat="42.309006" lon="-8.801577">
        <ele>97.6</ele>
        <time>1970-01-01T03:36:32.000Z</time>
      </trkpt>
      <trkpt lat="42.309004" lon="-8.80159">
        <ele>97.4</ele>
        <time>1970-01-01T03:36:33.000Z</time>
      </trkpt>
      <trkpt lat="42.309002" lon="-8.801601">
        <ele>97.4</ele>
        <time>1970-01-01T03:36:34.000Z</time>
      </trkpt>
      <trkpt lat="42.309003" lon="-8.801615">
        <ele>97</ele>
        <time>1970-01-01T03:36:35.000Z</time>
      </trkpt>
      <trkpt lat="42.309005" lon="-8.801627">
        <ele>96.4</ele>
        <time>1970-01-01T03:36:36.000Z</time>
      </trkpt>
      <trkpt lat="42.309007" lon="-8.801641">
        <ele>96.2</ele>
        <time>1970-01-01T03:36:37.000Z</time>
      </trkpt>
      <trkpt lat="42.309009" lon="-8.801653">
        <ele>95.8</ele>
        <time>1970-01-01T03:36:38.000Z</time>
      </trkpt>
      <trkpt lat="42.309011" lon="-8.801668">
        <ele>95.6</ele>
        <time>1970-01-01T03:36:39.000Z</time>
      </trkpt>
      <trkpt lat="42.309013" lon="-8.801683">
        <ele>95.4</ele>
        <time>1970-01-01T03:36:40.000Z</time>
      </trkpt>
      <trkpt lat="42.309014" lon="-8.801698">
        <ele>95</ele>
        <time>1970-01-01T03:36:41.000Z</time>
      </trkpt>
      <trkpt lat="42.309012" lon="-8.801714">
        <ele>94.6</ele>
        <time>1970-01-01T03:36:42.000Z</time>
      </trkpt>
      <trkpt lat="42.309012" lon="-8.80173">
        <ele>94.2</ele>
        <time>1970-01-01T03:36:43.000Z</time>
      </trkpt>
      <trkpt lat="42.309008" lon="-8.801745">
        <ele>94</ele>
        <time>1970-01-01T03:36:44.000Z</time>
      </trkpt>
      <trkpt lat="42.309004" lon="-8.801762">
        <ele>93.8</ele>
        <time>1970-01-01T03:36:45.000Z</time>
      </trkpt>
      <trkpt lat="42.309" lon="-8.801781">
        <ele>93.6</ele>
        <time>1970-01-01T03:36:46.000Z</time>
      </trkpt>
      <trkpt lat="42.308996" lon="-8.801798">
        <ele>93.2</ele>
        <time>1970-01-01T03:36:47.000Z</time>
      </trkpt>
      <trkpt lat="42.308993" lon="-8.801812">
        <ele>93</ele>
        <time>1970-01-01T03:36:48.000Z</time>
      </trkpt>
      <trkpt lat="42.308988" lon="-8.801822">
        <ele>92.8</ele>
        <time>1970-01-01T03:36:49.000Z</time>
      </trkpt>
      <trkpt lat="42.308984" lon="-8.80183">
        <ele>92.2</ele>
        <time>1970-01-01T03:36:50.000Z</time>
      </trkpt>
      <trkpt lat="42.308983" lon="-8.801843">
        <ele>91.8</ele>
        <time>1970-01-01T03:36:51.000Z</time>
      </trkpt>
      <trkpt lat="42.308977" lon="-8.801857">
        <ele>91.6</ele>
        <time>1970-01-01T03:36:52.000Z</time>
      </trkpt>
      <trkpt lat="42.308969" lon="-8.801872">
        <ele>91.2</ele>
        <time>1970-01-01T03:36:53.000Z</time>
      </trkpt>
      <trkpt lat="42.308954" lon="-8.801892">
        <ele>91.2</ele>
        <time>1970-01-01T03:36:54.000Z</time>
      </trkpt>
      <trkpt lat="42.30894" lon="-8.801899">
        <ele>90.8</ele>
        <time>1970-01-01T03:36:55.000Z</time>
      </trkpt>
      <trkpt lat="42.308928" lon="-8.801909">
        <ele>90.6</ele>
        <time>1970-01-01T03:36:56.000Z</time>
      </trkpt>
      <trkpt lat="42.30892" lon="-8.801919">
        <ele>90.6</ele>
        <time>1970-01-01T03:36:57.000Z</time>
      </trkpt>
      <trkpt lat="42.308913" lon="-8.801928">
        <ele>90.6</ele>
        <time>1970-01-01T03:36:58.000Z</time>
      </trkpt>
      <trkpt lat="42.308905" lon="-8.801938">
        <ele>90.6</ele>
        <time>1970-01-01T03:36:59.000Z</time>
      </trkpt>
      <trkpt lat="42.308897" lon="-8.801946">
        <ele>90.6</ele>
        <time>1970-01-01T03:37:00.000Z</time>
      </trkpt>
      <trkpt lat="42.308888" lon="-8.801953">
        <ele>90.6</ele>
        <time>1970-01-01T03:37:01.000Z</time>
      </trkpt>
      <trkpt lat="42.308879" lon="-8.801957">
        <ele>90.6</ele>
        <time>1970-01-01T03:37:02.000Z</time>
      </trkpt>
      <trkpt lat="42.308871" lon="-8.801963">
        <ele>90.6</ele>
        <time>1970-01-01T03:37:03.000Z</time>
      </trkpt>
      <trkpt lat="42.308862" lon="-8.801968">
        <ele>90.6</ele>
        <time>1970-01-01T03:37:04.000Z</time>
      </trkpt>
      <trkpt lat="42.308858" lon="-8.801979">
        <ele>90.6</ele>
        <time>1970-01-01T03:37:05.000Z</time>
      </trkpt>
      <trkpt lat="42.308855" lon="-8.801996">
        <ele>90.6</ele>
        <time>1970-01-01T03:37:06.000Z</time>
      </trkpt>
      <trkpt lat="42.308848" lon="-8.802012">
        <ele>90.6</ele>
        <time>1970-01-01T03:37:07.000Z</time>
      </trkpt>
      <trkpt lat="42.308839" lon="-8.802025">
        <ele>90.8</ele>
        <time>1970-01-01T03:37:08.000Z</time>
      </trkpt>
      <trkpt lat="42.308828" lon="-8.802037">
        <ele>90.8</ele>
        <time>1970-01-01T03:37:09.000Z</time>
      </trkpt>
      <trkpt lat="42.308817" lon="-8.802047">
        <ele>90.6</ele>
        <time>1970-01-01T03:37:10.000Z</time>
      </trkpt>
      <trkpt lat="42.308805" lon="-8.802055">
        <ele>90.4</ele>
        <time>1970-01-01T03:37:11.000Z</time>
      </trkpt>
      <trkpt lat="42.308793" lon="-8.802068">
        <ele>90</ele>
        <time>1970-01-01T03:37:12.000Z</time>
      </trkpt>
      <trkpt lat="42.308782" lon="-8.802076">
        <ele>89.8</ele>
        <time>1970-01-01T03:37:13.000Z</time>
      </trkpt>
      <trkpt lat="42.308769" lon="-8.802083">
        <ele>89.8</ele>
        <time>1970-01-01T03:37:14.000Z</time>
      </trkpt>
      <trkpt lat="42.308756" lon="-8.802093">
        <ele>89.6</ele>
        <time>1970-01-01T03:37:15.000Z</time>
      </trkpt>
      <trkpt lat="42.308744" lon="-8.802105">
        <ele>89.6</ele>
        <time>1970-01-01T03:37:16.000Z</time>
      </trkpt>
      <trkpt lat="42.308736" lon="-8.802115">
        <ele>89.6</ele>
        <time>1970-01-01T03:37:17.000Z</time>
      </trkpt>
      <trkpt lat="42.308732" lon="-8.802128">
        <ele>89.6</ele>
        <time>1970-01-01T03:37:18.000Z</time>
      </trkpt>
      <trkpt lat="42.30873" lon="-8.802143">
        <ele>89.6</ele>
        <time>1970-01-01T03:37:19.000Z</time>
      </trkpt>
      <trkpt lat="42.308722" lon="-8.802153">
        <ele>89.6</ele>
        <time>1970-01-01T03:37:20.000Z</time>
      </trkpt>
      <trkpt lat="42.308711" lon="-8.802165">
        <ele>89.4</ele>
        <time>1970-01-01T03:37:21.000Z</time>
      </trkpt>
      <trkpt lat="42.3087" lon="-8.802177">
        <ele>89.2</ele>
        <time>1970-01-01T03:37:22.000Z</time>
      </trkpt>
      <trkpt lat="42.308689" lon="-8.802191">
        <ele>89.2</ele>
        <time>1970-01-01T03:37:23.000Z</time>
      </trkpt>
      <trkpt lat="42.308681" lon="-8.802205">
        <ele>88.8</ele>
        <time>1970-01-01T03:37:24.000Z</time>
      </trkpt>
      <trkpt lat="42.308677" lon="-8.802212">
        <ele>88.6</ele>
        <time>1970-01-01T03:37:25.000Z</time>
      </trkpt>
      <trkpt lat="42.308672" lon="-8.802218">
        <ele>88.2</ele>
        <time>1970-01-01T03:37:26.000Z</time>
      </trkpt>
      <trkpt lat="42.308669" lon="-8.802227">
        <ele>87.8</ele>
        <time>1970-01-01T03:37:27.000Z</time>
      </trkpt>
      <trkpt lat="42.308669" lon="-8.802241">
        <ele>87.6</ele>
        <time>1970-01-01T03:37:28.000Z</time>
      </trkpt>
      <trkpt lat="42.30867" lon="-8.802255">
        <ele>87.6</ele>
        <time>1970-01-01T03:37:29.000Z</time>
      </trkpt>
      <trkpt lat="42.308676" lon="-8.802259">
        <ele>87.4</ele>
        <time>1970-01-01T03:37:30.000Z</time>
      </trkpt>
      <trkpt lat="42.308689" lon="-8.802265">
        <ele>87.4</ele>
        <time>1970-01-01T03:37:31.000Z</time>
      </trkpt>
      <trkpt lat="42.308696" lon="-8.802267">
        <ele>87.4</ele>
        <time>1970-01-01T03:37:32.000Z</time>
      </trkpt>
      <trkpt lat="42.308708" lon="-8.802271">
        <ele>87.4</ele>
        <time>1970-01-01T03:37:33.000Z</time>
      </trkpt>
      <trkpt lat="42.308723" lon="-8.80228">
        <ele>87.2</ele>
        <time>1970-01-01T03:37:34.000Z</time>
      </trkpt>
      <trkpt lat="42.308741" lon="-8.802288">
        <ele>87.2</ele>
        <time>1970-01-01T03:37:35.000Z</time>
      </trkpt>
      <trkpt lat="42.308756" lon="-8.802295">
        <ele>87</ele>
        <time>1970-01-01T03:37:36.000Z</time>
      </trkpt>
      <trkpt lat="42.308773" lon="-8.802294">
        <ele>86.4</ele>
        <time>1970-01-01T03:37:37.000Z</time>
      </trkpt>
      <trkpt lat="42.308794" lon="-8.802292">
        <ele>86.2</ele>
        <time>1970-01-01T03:37:38.000Z</time>
      </trkpt>
      <trkpt lat="42.308815" lon="-8.802291">
        <ele>85.8</ele>
        <time>1970-01-01T03:37:39.000Z</time>
      </trkpt>
      <trkpt lat="42.308834" lon="-8.802294">
        <ele>85.6</ele>
        <time>1970-01-01T03:37:40.000Z</time>
      </trkpt>
      <trkpt lat="42.308848" lon="-8.802291">
        <ele>85.4</ele>
        <time>1970-01-01T03:37:41.000Z</time>
      </trkpt>
      <trkpt lat="42.30886" lon="-8.802285">
        <ele>85.4</ele>
        <time>1970-01-01T03:37:42.000Z</time>
      </trkpt>
      <trkpt lat="42.308873" lon="-8.802278">
        <ele>85.4</ele>
        <time>1970-01-01T03:37:43.000Z</time>
      </trkpt>
      <trkpt lat="42.308891" lon="-8.802274">
        <ele>85.4</ele>
        <time>1970-01-01T03:37:44.000Z</time>
      </trkpt>
      <trkpt lat="42.308909" lon="-8.802269">
        <ele>85.4</ele>
        <time>1970-01-01T03:37:45.000Z</time>
      </trkpt>
      <trkpt lat="42.308929" lon="-8.802261">
        <ele>85.2</ele>
        <time>1970-01-01T03:37:46.000Z</time>
      </trkpt>
      <trkpt lat="42.308949" lon="-8.802254">
        <ele>84.8</ele>
        <time>1970-01-01T03:37:47.000Z</time>
      </trkpt>
      <trkpt lat="42.308963" lon="-8.802246">
        <ele>84.6</ele>
        <time>1970-01-01T03:37:48.000Z</time>
      </trkpt>
      <trkpt lat="42.308977" lon="-8.80224">
        <ele>84.6</ele>
        <time>1970-01-01T03:37:49.000Z</time>
      </trkpt>
      <trkpt lat="42.30899" lon="-8.802232">
        <ele>84.4</ele>
        <time>1970-01-01T03:37:50.000Z</time>
      </trkpt>
      <trkpt lat="42.309001" lon="-8.802221">
        <ele>83.8</ele>
        <time>1970-01-01T03:37:51.000Z</time>
      </trkpt>
      <trkpt lat="42.309012" lon="-8.802209">
        <ele>83.6</ele>
        <time>1970-01-01T03:37:52.000Z</time>
      </trkpt>
      <trkpt lat="42.309021" lon="-8.802197">
        <ele>83.2</ele>
        <time>1970-01-01T03:37:53.000Z</time>
      </trkpt>
      <trkpt lat="42.309028" lon="-8.802182">
        <ele>83</ele>
        <time>1970-01-01T03:37:54.000Z</time>
      </trkpt>
      <trkpt lat="42.309035" lon="-8.802172">
        <ele>83</ele>
        <time>1970-01-01T03:37:55.000Z</time>
      </trkpt>
      <trkpt lat="42.309044" lon="-8.802162">
        <ele>82.8</ele>
        <time>1970-01-01T03:37:56.000Z</time>
      </trkpt>
      <trkpt lat="42.309054" lon="-8.802155">
        <ele>82.6</ele>
        <time>1970-01-01T03:37:57.000Z</time>
      </trkpt>
      <trkpt lat="42.309064" lon="-8.802149">
        <ele>82.6</ele>
        <time>1970-01-01T03:37:58.000Z</time>
      </trkpt>
      <trkpt lat="42.309074" lon="-8.802144">
        <ele>82.6</ele>
        <time>1970-01-01T03:37:59.000Z</time>
      </trkpt>
      <trkpt lat="42.309088" lon="-8.802137">
        <ele>82.6</ele>
        <time>1970-01-01T03:38:00.000Z</time>
      </trkpt>
      <trkpt lat="42.309102" lon="-8.802129">
        <ele>82.6</ele>
        <time>1970-01-01T03:38:01.000Z</time>
      </trkpt>
      <trkpt lat="42.309119" lon="-8.802124">
        <ele>82.4</ele>
        <time>1970-01-01T03:38:02.000Z</time>
      </trkpt>
      <trkpt lat="42.309139" lon="-8.802121">
        <ele>82.2</ele>
        <time>1970-01-01T03:38:03.000Z</time>
      </trkpt>
      <trkpt lat="42.309156" lon="-8.802114">
        <ele>82</ele>
        <time>1970-01-01T03:38:04.000Z</time>
      </trkpt>
      <trkpt lat="42.309176" lon="-8.802102">
        <ele>81.8</ele>
        <time>1970-01-01T03:38:05.000Z</time>
      </trkpt>
      <trkpt lat="42.309191" lon="-8.802094">
        <ele>81.6</ele>
        <time>1970-01-01T03:38:06.000Z</time>
      </trkpt>
      <trkpt lat="42.309203" lon="-8.80208">
        <ele>81.4</ele>
        <time>1970-01-01T03:38:07.000Z</time>
      </trkpt>
      <trkpt lat="42.309216" lon="-8.80207">
        <ele>81</ele>
        <time>1970-01-01T03:38:08.000Z</time>
      </trkpt>
      <trkpt lat="42.309228" lon="-8.802067">
        <ele>80.8</ele>
        <time>1970-01-01T03:38:09.000Z</time>
      </trkpt>
      <trkpt lat="42.309238" lon="-8.802066">
        <ele>80.6</ele>
        <time>1970-01-01T03:38:10.000Z</time>
      </trkpt>
      <trkpt lat="42.30925" lon="-8.802071">
        <ele>80.6</ele>
        <time>1970-01-01T03:38:11.000Z</time>
      </trkpt>
      <trkpt lat="42.309261" lon="-8.802073">
        <ele>80.6</ele>
        <time>1970-01-01T03:38:12.000Z</time>
      </trkpt>
      <trkpt lat="42.309277" lon="-8.802067">
        <ele>80.4</ele>
        <time>1970-01-01T03:38:13.000Z</time>
      </trkpt>
      <trkpt lat="42.309294" lon="-8.802061">
        <ele>80.4</ele>
        <time>1970-01-01T03:38:14.000Z</time>
      </trkpt>
      <trkpt lat="42.309312" lon="-8.802057">
        <ele>80.4</ele>
        <time>1970-01-01T03:38:15.000Z</time>
      </trkpt>
      <trkpt lat="42.309326" lon="-8.802053">
        <ele>80.4</ele>
        <time>1970-01-01T03:38:16.000Z</time>
      </trkpt>
      <trkpt lat="42.309338" lon="-8.802048">
        <ele>80</ele>
        <time>1970-01-01T03:38:17.000Z</time>
      </trkpt>
      <trkpt lat="42.309349" lon="-8.802041">
        <ele>79.8</ele>
        <time>1970-01-01T03:38:18.000Z</time>
      </trkpt>
      <trkpt lat="42.309361" lon="-8.802035">
        <ele>79.6</ele>
        <time>1970-01-01T03:38:19.000Z</time>
      </trkpt>
      <trkpt lat="42.309377" lon="-8.802027">
        <ele>79.6</ele>
        <time>1970-01-01T03:38:20.000Z</time>
      </trkpt>
      <trkpt lat="42.30939" lon="-8.802013">
        <ele>79.2</ele>
        <time>1970-01-01T03:38:21.000Z</time>
      </trkpt>
      <trkpt lat="42.309403" lon="-8.802002">
        <ele>79.2</ele>
        <time>1970-01-01T03:38:22.000Z</time>
      </trkpt>
      <trkpt lat="42.309415" lon="-8.801991">
        <ele>79.2</ele>
        <time>1970-01-01T03:38:23.000Z</time>
      </trkpt>
      <trkpt lat="42.309427" lon="-8.801975">
        <ele>79.2</ele>
        <time>1970-01-01T03:38:24.000Z</time>
      </trkpt>
      <trkpt lat="42.309436" lon="-8.801961">
        <ele>79.2</ele>
        <time>1970-01-01T03:38:25.000Z</time>
      </trkpt>
      <trkpt lat="42.309443" lon="-8.801945">
        <ele>79</ele>
        <time>1970-01-01T03:38:26.000Z</time>
      </trkpt>
      <trkpt lat="42.309451" lon="-8.801932">
        <ele>78.8</ele>
        <time>1970-01-01T03:38:27.000Z</time>
      </trkpt>
      <trkpt lat="42.309459" lon="-8.801915">
        <ele>78.8</ele>
        <time>1970-01-01T03:38:28.000Z</time>
      </trkpt>
      <trkpt lat="42.309464" lon="-8.801898">
        <ele>78.8</ele>
        <time>1970-01-01T03:38:29.000Z</time>
      </trkpt>
      <trkpt lat="42.309469" lon="-8.801886">
        <ele>79</ele>
        <time>1970-01-01T03:38:30.000Z</time>
      </trkpt>
      <trkpt lat="42.309474" lon="-8.801871">
        <ele>79</ele>
        <time>1970-01-01T03:38:31.000Z</time>
      </trkpt>
      <trkpt lat="42.30948" lon="-8.80186">
        <ele>79</ele>
        <time>1970-01-01T03:38:32.000Z</time>
      </trkpt>
      <trkpt lat="42.309487" lon="-8.80185">
        <ele>79</ele>
        <time>1970-01-01T03:38:33.000Z</time>
      </trkpt>
      <trkpt lat="42.309495" lon="-8.80184">
        <ele>79.2</ele>
        <time>1970-01-01T03:38:34.000Z</time>
      </trkpt>
      <trkpt lat="42.309504" lon="-8.801832">
        <ele>79.2</ele>
        <time>1970-01-01T03:38:35.000Z</time>
      </trkpt>
      <trkpt lat="42.309511" lon="-8.801822">
        <ele>79</ele>
        <time>1970-01-01T03:38:36.000Z</time>
      </trkpt>
      <trkpt lat="42.309527" lon="-8.801805">
        <ele>78.8</ele>
        <time>1970-01-01T03:38:37.000Z</time>
      </trkpt>
      <trkpt lat="42.309544" lon="-8.801784">
        <ele>79</ele>
        <time>1970-01-01T03:38:38.000Z</time>
      </trkpt>
      <trkpt lat="42.309554" lon="-8.801766">
        <ele>79</ele>
        <time>1970-01-01T03:38:39.000Z</time>
      </trkpt>
      <trkpt lat="42.309563" lon="-8.801755">
        <ele>79.2</ele>
        <time>1970-01-01T03:38:40.000Z</time>
      </trkpt>
      <trkpt lat="42.309573" lon="-8.801745">
        <ele>79.2</ele>
        <time>1970-01-01T03:38:41.000Z</time>
      </trkpt>
      <trkpt lat="42.309582" lon="-8.801734">
        <ele>79</ele>
        <time>1970-01-01T03:38:42.000Z</time>
      </trkpt>
      <trkpt lat="42.309592" lon="-8.801722">
        <ele>79</ele>
        <time>1970-01-01T03:38:43.000Z</time>
      </trkpt>
      <trkpt lat="42.309604" lon="-8.801713">
        <ele>79</ele>
        <time>1970-01-01T03:38:44.000Z</time>
      </trkpt>
      <trkpt lat="42.30962" lon="-8.801703">
        <ele>79</ele>
        <time>1970-01-01T03:38:45.000Z</time>
      </trkpt>
      <trkpt lat="42.309637" lon="-8.801694">
        <ele>79.2</ele>
        <time>1970-01-01T03:38:46.000Z</time>
      </trkpt>
      <trkpt lat="42.309655" lon="-8.801685">
        <ele>79.2</ele>
        <time>1970-01-01T03:38:47.000Z</time>
      </trkpt>
      <trkpt lat="42.309669" lon="-8.801673">
        <ele>79.4</ele>
        <time>1970-01-01T03:38:48.000Z</time>
      </trkpt>
      <trkpt lat="42.309685" lon="-8.801659">
        <ele>79.8</ele>
        <time>1970-01-01T03:38:49.000Z</time>
      </trkpt>
      <trkpt lat="42.309699" lon="-8.801647">
        <ele>80.2</ele>
        <time>1970-01-01T03:38:50.000Z</time>
      </trkpt>
      <trkpt lat="42.309711" lon="-8.801635">
        <ele>80.2</ele>
        <time>1970-01-01T03:38:51.000Z</time>
      </trkpt>
      <trkpt lat="42.309723" lon="-8.801621">
        <ele>79.8</ele>
        <time>1970-01-01T03:38:52.000Z</time>
      </trkpt>
      <trkpt lat="42.309731" lon="-8.801601">
        <ele>79.6</ele>
        <time>1970-01-01T03:38:53.000Z</time>
      </trkpt>
      <trkpt lat="42.30974" lon="-8.801588">
        <ele>79.8</ele>
        <time>1970-01-01T03:38:54.000Z</time>
      </trkpt>
      <trkpt lat="42.309751" lon="-8.801576">
        <ele>79.4</ele>
        <time>1970-01-01T03:38:55.000Z</time>
      </trkpt>
      <trkpt lat="42.309761" lon="-8.801566">
        <ele>79.2</ele>
        <time>1970-01-01T03:38:56.000Z</time>
      </trkpt>
      <trkpt lat="42.30977" lon="-8.801559">
        <ele>79</ele>
        <time>1970-01-01T03:38:57.000Z</time>
      </trkpt>
      <trkpt lat="42.309779" lon="-8.801544">
        <ele>79</ele>
        <time>1970-01-01T03:38:58.000Z</time>
      </trkpt>
      <trkpt lat="42.309788" lon="-8.801526">
        <ele>79.2</ele>
        <time>1970-01-01T03:38:59.000Z</time>
      </trkpt>
      <trkpt lat="42.309797" lon="-8.801511">
        <ele>79.2</ele>
        <time>1970-01-01T03:39:00.000Z</time>
      </trkpt>
      <trkpt lat="42.309806" lon="-8.801494">
        <ele>79.2</ele>
        <time>1970-01-01T03:39:01.000Z</time>
      </trkpt>
      <trkpt lat="42.309817" lon="-8.801481">
        <ele>79.4</ele>
        <time>1970-01-01T03:39:02.000Z</time>
      </trkpt>
      <trkpt lat="42.309827" lon="-8.801466">
        <ele>79.4</ele>
        <time>1970-01-01T03:39:03.000Z</time>
      </trkpt>
      <trkpt lat="42.309836" lon="-8.801453">
        <ele>79.4</ele>
        <time>1970-01-01T03:39:04.000Z</time>
      </trkpt>
      <trkpt lat="42.309846" lon="-8.801442">
        <ele>79.4</ele>
        <time>1970-01-01T03:39:05.000Z</time>
      </trkpt>
      <trkpt lat="42.309855" lon="-8.801431">
        <ele>79.2</ele>
        <time>1970-01-01T03:39:06.000Z</time>
      </trkpt>
      <trkpt lat="42.309864" lon="-8.801421">
        <ele>79.2</ele>
        <time>1970-01-01T03:39:07.000Z</time>
      </trkpt>
      <trkpt lat="42.309874" lon="-8.801414">
        <ele>79</ele>
        <time>1970-01-01T03:39:08.000Z</time>
      </trkpt>
      <trkpt lat="42.309888" lon="-8.80141">
        <ele>78.8</ele>
        <time>1970-01-01T03:39:09.000Z</time>
      </trkpt>
      <trkpt lat="42.309905" lon="-8.801404">
        <ele>78.6</ele>
        <time>1970-01-01T03:39:10.000Z</time>
      </trkpt>
      <trkpt lat="42.309916" lon="-8.801397">
        <ele>78.6</ele>
        <time>1970-01-01T03:39:11.000Z</time>
      </trkpt>
      <trkpt lat="42.309927" lon="-8.80139">
        <ele>78.4</ele>
        <time>1970-01-01T03:39:12.000Z</time>
      </trkpt>
      <trkpt lat="42.309937" lon="-8.801382">
        <ele>78.4</ele>
        <time>1970-01-01T03:39:13.000Z</time>
      </trkpt>
      <trkpt lat="42.309949" lon="-8.801376">
        <ele>78.4</ele>
        <time>1970-01-01T03:39:14.000Z</time>
      </trkpt>
      <trkpt lat="42.30996" lon="-8.801369">
        <ele>78.4</ele>
        <time>1970-01-01T03:39:15.000Z</time>
      </trkpt>
      <trkpt lat="42.309972" lon="-8.801362">
        <ele>78.4</ele>
        <time>1970-01-01T03:39:16.000Z</time>
      </trkpt>
      <trkpt lat="42.309985" lon="-8.801352">
        <ele>78.4</ele>
        <time>1970-01-01T03:39:17.000Z</time>
      </trkpt>
      <trkpt lat="42.309997" lon="-8.801344">
        <ele>78.4</ele>
        <time>1970-01-01T03:39:18.000Z</time>
      </trkpt>
      <trkpt lat="42.310007" lon="-8.801336">
        <ele>78.4</ele>
        <time>1970-01-01T03:39:19.000Z</time>
      </trkpt>
      <trkpt lat="42.310018" lon="-8.801326">
        <ele>78.4</ele>
        <time>1970-01-01T03:39:20.000Z</time>
      </trkpt>
      <trkpt lat="42.310028" lon="-8.80131">
        <ele>78.4</ele>
        <time>1970-01-01T03:39:21.000Z</time>
      </trkpt>
      <trkpt lat="42.310039" lon="-8.801292">
        <ele>78.4</ele>
        <time>1970-01-01T03:39:22.000Z</time>
      </trkpt>
      <trkpt lat="42.31005" lon="-8.801275">
        <ele>78.4</ele>
        <time>1970-01-01T03:39:23.000Z</time>
      </trkpt>
      <trkpt lat="42.310059" lon="-8.801261">
        <ele>78.4</ele>
        <time>1970-01-01T03:39:24.000Z</time>
      </trkpt>
      <trkpt lat="42.310067" lon="-8.801244">
        <ele>78.4</ele>
        <time>1970-01-01T03:39:25.000Z</time>
      </trkpt>
      <trkpt lat="42.310075" lon="-8.80123">
        <ele>78.4</ele>
        <time>1970-01-01T03:39:26.000Z</time>
      </trkpt>
      <trkpt lat="42.310084" lon="-8.801219">
        <ele>78.4</ele>
        <time>1970-01-01T03:39:27.000Z</time>
      </trkpt>
      <trkpt lat="42.310093" lon="-8.801211">
        <ele>78.4</ele>
        <time>1970-01-01T03:39:28.000Z</time>
      </trkpt>
      <trkpt lat="42.310103" lon="-8.801204">
        <ele>78.6</ele>
        <time>1970-01-01T03:39:29.000Z</time>
      </trkpt>
      <trkpt lat="42.310114" lon="-8.801197">
        <ele>78.8</ele>
        <time>1970-01-01T03:39:30.000Z</time>
      </trkpt>
      <trkpt lat="42.310123" lon="-8.801188">
        <ele>79</ele>
        <time>1970-01-01T03:39:31.000Z</time>
      </trkpt>
      <trkpt lat="42.310134" lon="-8.801178">
        <ele>79</ele>
        <time>1970-01-01T03:39:32.000Z</time>
      </trkpt>
      <trkpt lat="42.310145" lon="-8.801168">
        <ele>79</ele>
        <time>1970-01-01T03:39:33.000Z</time>
      </trkpt>
      <trkpt lat="42.310154" lon="-8.801165">
        <ele>79</ele>
        <time>1970-01-01T03:39:34.000Z</time>
      </trkpt>
      <trkpt lat="42.310167" lon="-8.801159">
        <ele>78.8</ele>
        <time>1970-01-01T03:39:35.000Z</time>
      </trkpt>
      <trkpt lat="42.310178" lon="-8.801152">
        <ele>78.8</ele>
        <time>1970-01-01T03:39:36.000Z</time>
      </trkpt>
      <trkpt lat="42.310195" lon="-8.801142">
        <ele>78.8</ele>
        <time>1970-01-01T03:39:37.000Z</time>
      </trkpt>
      <trkpt lat="42.310212" lon="-8.801134">
        <ele>79</ele>
        <time>1970-01-01T03:39:38.000Z</time>
      </trkpt>
      <trkpt lat="42.31023" lon="-8.801129">
        <ele>79.4</ele>
        <time>1970-01-01T03:39:39.000Z</time>
      </trkpt>
      <trkpt lat="42.310245" lon="-8.801128">
        <ele>79.6</ele>
        <time>1970-01-01T03:39:40.000Z</time>
      </trkpt>
      <trkpt lat="42.31026" lon="-8.801123">
        <ele>79.6</ele>
        <time>1970-01-01T03:39:41.000Z</time>
      </trkpt>
      <trkpt lat="42.310272" lon="-8.801112">
        <ele>79.6</ele>
        <time>1970-01-01T03:39:42.000Z</time>
      </trkpt>
      <trkpt lat="42.31029" lon="-8.801104">
        <ele>79</ele>
        <time>1970-01-01T03:39:43.000Z</time>
      </trkpt>
      <trkpt lat="42.310306" lon="-8.801099">
        <ele>78.8</ele>
        <time>1970-01-01T03:39:44.000Z</time>
      </trkpt>
      <trkpt lat="42.310324" lon="-8.801097">
        <ele>78.6</ele>
        <time>1970-01-01T03:39:45.000Z</time>
      </trkpt>
      <trkpt lat="42.310339" lon="-8.801098">
        <ele>78.4</ele>
        <time>1970-01-01T03:39:46.000Z</time>
      </trkpt>
      <trkpt lat="42.310352" lon="-8.801096">
        <ele>78.4</ele>
        <time>1970-01-01T03:39:47.000Z</time>
      </trkpt>
      <trkpt lat="42.310363" lon="-8.801095">
        <ele>78.4</ele>
        <time>1970-01-01T03:39:48.000Z</time>
      </trkpt>
      <trkpt lat="42.310374" lon="-8.801097">
        <ele>78.6</ele>
        <time>1970-01-01T03:39:49.000Z</time>
      </trkpt>
      <trkpt lat="42.310384" lon="-8.801099">
        <ele>78.6</ele>
        <time>1970-01-01T03:39:50.000Z</time>
      </trkpt>
      <trkpt lat="42.310393" lon="-8.801103">
        <ele>78.6</ele>
        <time>1970-01-01T03:39:51.000Z</time>
      </trkpt>
      <trkpt lat="42.310401" lon="-8.801107">
        <ele>78.6</ele>
        <time>1970-01-01T03:39:52.000Z</time>
      </trkpt>
      <trkpt lat="42.310409" lon="-8.801116">
        <ele>78.6</ele>
        <time>1970-01-01T03:39:53.000Z</time>
      </trkpt>
      <trkpt lat="42.310417" lon="-8.80113">
        <ele>78.6</ele>
        <time>1970-01-01T03:39:54.000Z</time>
      </trkpt>
      <trkpt lat="42.310425" lon="-8.801145">
        <ele>78.4</ele>
        <time>1970-01-01T03:39:55.000Z</time>
      </trkpt>
      <trkpt lat="42.310433" lon="-8.801161">
        <ele>78.6</ele>
        <time>1970-01-01T03:39:56.000Z</time>
      </trkpt>
      <trkpt lat="42.310442" lon="-8.801174">
        <ele>78.6</ele>
        <time>1970-01-01T03:39:57.000Z</time>
      </trkpt>
      <trkpt lat="42.310449" lon="-8.80119">
        <ele>78.6</ele>
        <time>1970-01-01T03:39:58.000Z</time>
      </trkpt>
      <trkpt lat="42.310453" lon="-8.801203">
        <ele>78.8</ele>
        <time>1970-01-01T03:39:59.000Z</time>
      </trkpt>
      <trkpt lat="42.310455" lon="-8.801217">
        <ele>78.8</ele>
        <time>1970-01-01T03:40:00.000Z</time>
      </trkpt>
      <trkpt lat="42.310454" lon="-8.801232">
        <ele>78.8</ele>
        <time>1970-01-01T03:40:01.000Z</time>
      </trkpt>
      <trkpt lat="42.310455" lon="-8.801242">
        <ele>79</ele>
        <time>1970-01-01T03:40:02.000Z</time>
      </trkpt>
      <trkpt lat="42.310453" lon="-8.801249">
        <ele>79</ele>
        <time>1970-01-01T03:40:03.000Z</time>
      </trkpt>
      <trkpt lat="42.31045" lon="-8.801254">
        <ele>79</ele>
        <time>1970-01-01T03:40:04.000Z</time>
      </trkpt>
      <trkpt lat="42.310446" lon="-8.801263">
        <ele>79</ele>
        <time>1970-01-01T03:40:05.000Z</time>
      </trkpt>
      <trkpt lat="42.31044" lon="-8.80127">
        <ele>79</ele>
        <time>1970-01-01T03:40:06.000Z</time>
      </trkpt>
      <trkpt lat="42.310433" lon="-8.801273">
        <ele>79</ele>
        <time>1970-01-01T03:40:07.000Z</time>
      </trkpt>
      <trkpt lat="42.310427" lon="-8.801273">
        <ele>79</ele>
        <time>1970-01-01T03:40:08.000Z</time>
      </trkpt>
      <trkpt lat="42.310422" lon="-8.801275">
        <ele>78.8</ele>
        <time>1970-01-01T03:40:09.000Z</time>
      </trkpt>
      <trkpt lat="42.310419" lon="-8.801277">
        <ele>78.6</ele>
        <time>1970-01-01T03:40:10.000Z</time>
      </trkpt>
      <trkpt lat="42.310415" lon="-8.801282">
        <ele>78.6</ele>
        <time>1970-01-01T03:40:11.000Z</time>
      </trkpt>
      <trkpt lat="42.310413" lon="-8.801286">
        <ele>78.6</ele>
        <time>1970-01-01T03:40:12.000Z</time>
      </trkpt>
      <trkpt lat="42.310412" lon="-8.801287">
        <ele>78.6</ele>
        <time>1970-01-01T03:40:13.000Z</time>
      </trkpt>
      <trkpt lat="42.310407" lon="-8.801291">
        <ele>78.6</ele>
        <time>1970-01-01T03:40:14.000Z</time>
      </trkpt>
      <trkpt lat="42.310403" lon="-8.801296">
        <ele>78.6</ele>
        <time>1970-01-01T03:40:15.000Z</time>
      </trkpt>
      <trkpt lat="42.310398" lon="-8.801298">
        <ele>78.6</ele>
        <time>1970-01-01T03:40:16.000Z</time>
      </trkpt>
      <trkpt lat="42.310393" lon="-8.801299">
        <ele>78.4</ele>
        <time>1970-01-01T03:40:17.000Z</time>
      </trkpt>
      <trkpt lat="42.310391" lon="-8.8013">
        <ele>78.2</ele>
        <time>1970-01-01T03:40:18.000Z</time>
      </trkpt>
      <trkpt lat="42.310391" lon="-8.801299">
        <ele>78.2</ele>
        <time>1970-01-01T03:40:19.000Z</time>
      </trkpt>
      <trkpt lat="42.31039" lon="-8.801296">
        <ele>77.8</ele>
        <time>1970-01-01T03:40:20.000Z</time>
      </trkpt>
      <trkpt lat="42.310388" lon="-8.801294">
        <ele>77.4</ele>
        <time>1970-01-01T03:40:21.000Z</time>
      </trkpt>
      <trkpt lat="42.310388" lon="-8.80129">
        <ele>77.4</ele>
        <time>1970-01-01T03:40:22.000Z</time>
      </trkpt>
      <trkpt lat="42.310389" lon="-8.801284">
        <ele>77.2</ele>
        <time>1970-01-01T03:40:23.000Z</time>
      </trkpt>
      <trkpt lat="42.310391" lon="-8.80127">
        <ele>76.8</ele>
        <time>1970-01-01T03:40:24.000Z</time>
      </trkpt>
      <trkpt lat="42.310391" lon="-8.801262">
        <ele>76.4</ele>
        <time>1970-01-01T03:40:25.000Z</time>
      </trkpt>
      <trkpt lat="42.31039" lon="-8.801256">
        <ele>75.8</ele>
        <time>1970-01-01T03:40:26.000Z</time>
      </trkpt>
      <trkpt lat="42.310389" lon="-8.80125">
        <ele>75.2</ele>
        <time>1970-01-01T03:40:27.000Z</time>
      </trkpt>
      <trkpt lat="42.310378" lon="-8.801244">
        <ele>75</ele>
        <time>1970-01-01T03:40:28.000Z</time>
      </trkpt>
      <trkpt lat="42.310364" lon="-8.801234">
        <ele>74.4</ele>
        <time>1970-01-01T03:40:29.000Z</time>
      </trkpt>
      <trkpt lat="42.310346" lon="-8.801232">
        <ele>74.2</ele>
        <time>1970-01-01T03:40:30.000Z</time>
      </trkpt>
      <trkpt lat="42.310333" lon="-8.801239">
        <ele>73.8</ele>
        <time>1970-01-01T03:40:31.000Z</time>
      </trkpt>
      <trkpt lat="42.31032" lon="-8.801245">
        <ele>73.6</ele>
        <time>1970-01-01T03:40:32.000Z</time>
      </trkpt>
      <trkpt lat="42.310305" lon="-8.801255">
        <ele>73.6</ele>
        <time>1970-01-01T03:40:33.000Z</time>
      </trkpt>
      <trkpt lat="42.310294" lon="-8.801265">
        <ele>73.4</ele>
        <time>1970-01-01T03:40:34.000Z</time>
      </trkpt>
      <trkpt lat="42.310285" lon="-8.801275">
        <ele>73.2</ele>
        <time>1970-01-01T03:40:35.000Z</time>
      </trkpt>
      <trkpt lat="42.310277" lon="-8.80128">
        <ele>72.8</ele>
        <time>1970-01-01T03:40:36.000Z</time>
      </trkpt>
      <trkpt lat="42.310271" lon="-8.801285">
        <ele>72.8</ele>
        <time>1970-01-01T03:40:37.000Z</time>
      </trkpt>
      <trkpt lat="42.310265" lon="-8.801289">
        <ele>72.6</ele>
        <time>1970-01-01T03:40:38.000Z</time>
      </trkpt>
      <trkpt lat="42.310261" lon="-8.801293">
        <ele>72.6</ele>
        <time>1970-01-01T03:40:39.000Z</time>
      </trkpt>
      <trkpt lat="42.310254" lon="-8.801298">
        <ele>72.4</ele>
        <time>1970-01-01T03:40:40.000Z</time>
      </trkpt>
      <trkpt lat="42.310247" lon="-8.801301">
        <ele>72.2</ele>
        <time>1970-01-01T03:40:41.000Z</time>
      </trkpt>
      <trkpt lat="42.310244" lon="-8.801306">
        <ele>72</ele>
        <time>1970-01-01T03:40:42.000Z</time>
      </trkpt>
      <trkpt lat="42.31024" lon="-8.801313">
        <ele>72</ele>
        <time>1970-01-01T03:40:43.000Z</time>
      </trkpt>
      <trkpt lat="42.310235" lon="-8.801326">
        <ele>71.8</ele>
        <time>1970-01-01T03:40:44.000Z</time>
      </trkpt>
      <trkpt lat="42.31023" lon="-8.801344">
        <ele>71.8</ele>
        <time>1970-01-01T03:40:45.000Z</time>
      </trkpt>
      <trkpt lat="42.310226" lon="-8.801362">
        <ele>71.2</ele>
        <time>1970-01-01T03:40:46.000Z</time>
      </trkpt>
      <trkpt lat="42.310224" lon="-8.801374">
        <ele>70.8</ele>
        <time>1970-01-01T03:40:47.000Z</time>
      </trkpt>
      <trkpt lat="42.310222" lon="-8.801388">
        <ele>70.4</ele>
        <time>1970-01-01T03:40:48.000Z</time>
      </trkpt>
      <trkpt lat="42.310222" lon="-8.801401">
        <ele>70.2</ele>
        <time>1970-01-01T03:40:49.000Z</time>
      </trkpt>
      <trkpt lat="42.310223" lon="-8.801407">
        <ele>70.2</ele>
        <time>1970-01-01T03:40:50.000Z</time>
      </trkpt>
      <trkpt lat="42.310223" lon="-8.801413">
        <ele>70</ele>
        <time>1970-01-01T03:40:51.000Z</time>
      </trkpt>
      <trkpt lat="42.310225" lon="-8.801415">
        <ele>69.8</ele>
        <time>1970-01-01T03:40:52.000Z</time>
      </trkpt>
      <trkpt lat="42.310225" lon="-8.801419">
        <ele>69.8</ele>
        <time>1970-01-01T03:40:53.000Z</time>
      </trkpt>
      <trkpt lat="42.310226" lon="-8.801425">
        <ele>69.6</ele>
        <time>1970-01-01T03:40:54.000Z</time>
      </trkpt>
      <trkpt lat="42.310227" lon="-8.801432">
        <ele>69.6</ele>
        <time>1970-01-01T03:40:55.000Z</time>
      </trkpt>
      <trkpt lat="42.310231" lon="-8.80144">
        <ele>69.6</ele>
        <time>1970-01-01T03:40:56.000Z</time>
      </trkpt>
      <trkpt lat="42.310233" lon="-8.801447">
        <ele>69.6</ele>
        <time>1970-01-01T03:40:57.000Z</time>
      </trkpt>
      <trkpt lat="42.310232" lon="-8.801454">
        <ele>69.6</ele>
        <time>1970-01-01T03:40:58.000Z</time>
      </trkpt>
      <trkpt lat="42.310232" lon="-8.801463">
        <ele>69.6</ele>
        <time>1970-01-01T03:40:59.000Z</time>
      </trkpt>
      <trkpt lat="42.31023" lon="-8.801467">
        <ele>69.6</ele>
        <time>1970-01-01T03:41:00.000Z</time>
      </trkpt>
      <trkpt lat="42.310226" lon="-8.801472">
        <ele>69.6</ele>
        <time>1970-01-01T03:41:01.000Z</time>
      </trkpt>
      <trkpt lat="42.310221" lon="-8.801477">
        <ele>69.8</ele>
        <time>1970-01-01T03:41:02.000Z</time>
      </trkpt>
      <trkpt lat="42.310219" lon="-8.801479">
        <ele>69.6</ele>
        <time>1970-01-01T03:41:03.000Z</time>
      </trkpt>
      <trkpt lat="42.310217" lon="-8.801479">
        <ele>69.6</ele>
        <time>1970-01-01T03:41:04.000Z</time>
      </trkpt>
      <trkpt lat="42.310215" lon="-8.801481">
        <ele>69.6</ele>
        <time>1970-01-01T03:41:05.000Z</time>
      </trkpt>
      <trkpt lat="42.310213" lon="-8.80148">
        <ele>69.2</ele>
        <time>1970-01-01T03:41:06.000Z</time>
      </trkpt>
      <trkpt lat="42.310212" lon="-8.80148">
        <ele>69.2</ele>
        <time>1970-01-01T03:41:07.000Z</time>
      </trkpt>
      <trkpt lat="42.310211" lon="-8.80148">
        <ele>69</ele>
        <time>1970-01-01T03:41:08.000Z</time>
      </trkpt>
      <trkpt lat="42.310208" lon="-8.801479">
        <ele>69</ele>
        <time>1970-01-01T03:41:09.000Z</time>
      </trkpt>
      <trkpt lat="42.310205" lon="-8.801481">
        <ele>69</ele>
        <time>1970-01-01T03:41:10.000Z</time>
      </trkpt>
      <trkpt lat="42.310199" lon="-8.80148">
        <ele>69.2</ele>
        <time>1970-01-01T03:41:11.000Z</time>
      </trkpt>
      <trkpt lat="42.310185" lon="-8.80148">
        <ele>69.2</ele>
        <time>1970-01-01T03:41:12.000Z</time>
      </trkpt>
      <trkpt lat="42.310172" lon="-8.801479">
        <ele>69.2</ele>
        <time>1970-01-01T03:41:13.000Z</time>
      </trkpt>
      <trkpt lat="42.310163" lon="-8.801478">
        <ele>69.2</ele>
        <time>1970-01-01T03:41:14.000Z</time>
      </trkpt>
      <trkpt lat="42.310157" lon="-8.801474">
        <ele>69</ele>
        <time>1970-01-01T03:41:15.000Z</time>
      </trkpt>
      <trkpt lat="42.310154" lon="-8.801476">
        <ele>69</ele>
        <time>1970-01-01T03:41:16.000Z</time>
      </trkpt>
      <trkpt lat="42.310153" lon="-8.801479">
        <ele>69</ele>
        <time>1970-01-01T03:41:17.000Z</time>
      </trkpt>
      <trkpt lat="42.310146" lon="-8.801479">
        <ele>69</ele>
        <time>1970-01-01T03:41:18.000Z</time>
      </trkpt>
      <trkpt lat="42.310137" lon="-8.801477">
        <ele>69</ele>
        <time>1970-01-01T03:41:19.000Z</time>
      </trkpt>
      <trkpt lat="42.310124" lon="-8.80147">
        <ele>69.2</ele>
        <time>1970-01-01T03:41:20.000Z</time>
      </trkpt>
      <trkpt lat="42.310109" lon="-8.801462">
        <ele>69.4</ele>
        <time>1970-01-01T03:41:21.000Z</time>
      </trkpt>
      <trkpt lat="42.310094" lon="-8.801463">
        <ele>69.4</ele>
        <time>1970-01-01T03:41:22.000Z</time>
      </trkpt>
      <trkpt lat="42.310086" lon="-8.80146">
        <ele>69.6</ele>
        <time>1970-01-01T03:41:23.000Z</time>
      </trkpt>
      <trkpt lat="42.31008" lon="-8.801461">
        <ele>69.6</ele>
        <time>1970-01-01T03:41:24.000Z</time>
      </trkpt>
      <trkpt lat="42.310075" lon="-8.801458">
        <ele>69.6</ele>
        <time>1970-01-01T03:41:25.000Z</time>
      </trkpt>
      <trkpt lat="42.310067" lon="-8.80146">
        <ele>69.6</ele>
        <time>1970-01-01T03:41:26.000Z</time>
      </trkpt>
      <trkpt lat="42.310063" lon="-8.80146">
        <ele>69.8</ele>
        <time>1970-01-01T03:41:27.000Z</time>
      </trkpt>
      <trkpt lat="42.310061" lon="-8.801458">
        <ele>69.6</ele>
        <time>1970-01-01T03:41:28.000Z</time>
      </trkpt>
      <trkpt lat="42.310062" lon="-8.801452">
        <ele>69.6</ele>
        <time>1970-01-01T03:41:29.000Z</time>
      </trkpt>
      <trkpt lat="42.310063" lon="-8.80145">
        <ele>69.6</ele>
        <time>1970-01-01T03:41:30.000Z</time>
      </trkpt>
      <trkpt lat="42.310063" lon="-8.801448">
        <ele>69.6</ele>
        <time>1970-01-01T03:41:31.000Z</time>
      </trkpt>
      <trkpt lat="42.310064" lon="-8.801445">
        <ele>69.6</ele>
        <time>1970-01-01T03:41:32.000Z</time>
      </trkpt>
      <trkpt lat="42.310065" lon="-8.80144">
        <ele>69.6</ele>
        <time>1970-01-01T03:41:33.000Z</time>
      </trkpt>
      <trkpt lat="42.310066" lon="-8.801436">
        <ele>69.4</ele>
        <time>1970-01-01T03:41:34.000Z</time>
      </trkpt>
      <trkpt lat="42.310068" lon="-8.801431">
        <ele>69.2</ele>
        <time>1970-01-01T03:41:35.000Z</time>
      </trkpt>
      <trkpt lat="42.310068" lon="-8.801422">
        <ele>69.2</ele>
        <time>1970-01-01T03:41:36.000Z</time>
      </trkpt>
      <trkpt lat="42.310067" lon="-8.801414">
        <ele>69.2</ele>
        <time>1970-01-01T03:41:37.000Z</time>
      </trkpt>
      <trkpt lat="42.310071" lon="-8.801409">
        <ele>69.2</ele>
        <time>1970-01-01T03:41:38.000Z</time>
      </trkpt>
      <trkpt lat="42.310074" lon="-8.80141">
        <ele>69.2</ele>
        <time>1970-01-01T03:41:39.000Z</time>
      </trkpt>
      <trkpt lat="42.310077" lon="-8.801416">
        <ele>69.4</ele>
        <time>1970-01-01T03:41:40.000Z</time>
      </trkpt>
      <trkpt lat="42.310081" lon="-8.801427">
        <ele>69.6</ele>
        <time>1970-01-01T03:41:41.000Z</time>
      </trkpt>
      <trkpt lat="42.310091" lon="-8.801446">
        <ele>69.6</ele>
        <time>1970-01-01T03:41:42.000Z</time>
      </trkpt>
      <trkpt lat="42.310099" lon="-8.80146">
        <ele>69.6</ele>
        <time>1970-01-01T03:41:43.000Z</time>
      </trkpt>
      <trkpt lat="42.310109" lon="-8.801468">
        <ele>69.6</ele>
        <time>1970-01-01T03:41:44.000Z</time>
      </trkpt>
      <trkpt lat="42.310118" lon="-8.801477">
        <ele>69.4</ele>
        <time>1970-01-01T03:41:45.000Z</time>
      </trkpt>
      <trkpt lat="42.310128" lon="-8.801493">
        <ele>69.4</ele>
        <time>1970-01-01T03:41:46.000Z</time>
      </trkpt>
      <trkpt lat="42.310135" lon="-8.801507">
        <ele>69.2</ele>
        <time>1970-01-01T03:41:47.000Z</time>
      </trkpt>
      <trkpt lat="42.310141" lon="-8.80152">
        <ele>69</ele>
        <time>1970-01-01T03:41:48.000Z</time>
      </trkpt>
      <trkpt lat="42.310146" lon="-8.801534">
        <ele>69</ele>
        <time>1970-01-01T03:41:49.000Z</time>
      </trkpt>
      <trkpt lat="42.31015" lon="-8.801545">
        <ele>69</ele>
        <time>1970-01-01T03:41:50.000Z</time>
      </trkpt>
      <trkpt lat="42.310153" lon="-8.801557">
        <ele>69</ele>
        <time>1970-01-01T03:41:51.000Z</time>
      </trkpt>
      <trkpt lat="42.310156" lon="-8.801569">
        <ele>69</ele>
        <time>1970-01-01T03:41:52.000Z</time>
      </trkpt>
      <trkpt lat="42.310156" lon="-8.801583">
        <ele>68.8</ele>
        <time>1970-01-01T03:41:53.000Z</time>
      </trkpt>
      <trkpt lat="42.310158" lon="-8.801596">
        <ele>68.4</ele>
        <time>1970-01-01T03:41:54.000Z</time>
      </trkpt>
      <trkpt lat="42.310163" lon="-8.801609">
        <ele>68.2</ele>
        <time>1970-01-01T03:41:55.000Z</time>
      </trkpt>
      <trkpt lat="42.310164" lon="-8.801628">
        <ele>68.2</ele>
        <time>1970-01-01T03:41:56.000Z</time>
      </trkpt>
      <trkpt lat="42.310162" lon="-8.801641">
        <ele>68.4</ele>
        <time>1970-01-01T03:41:57.000Z</time>
      </trkpt>
      <trkpt lat="42.31016" lon="-8.801656">
        <ele>68.2</ele>
        <time>1970-01-01T03:41:58.000Z</time>
      </trkpt>
      <trkpt lat="42.310156" lon="-8.801669">
        <ele>68.2</ele>
        <time>1970-01-01T03:41:59.000Z</time>
      </trkpt>
      <trkpt lat="42.31015" lon="-8.801681">
        <ele>68.2</ele>
        <time>1970-01-01T03:42:00.000Z</time>
      </trkpt>
      <trkpt lat="42.310143" lon="-8.801696">
        <ele>68.2</ele>
        <time>1970-01-01T03:42:01.000Z</time>
      </trkpt>
      <trkpt lat="42.310138" lon="-8.801718">
        <ele>68.2</ele>
        <time>1970-01-01T03:42:02.000Z</time>
      </trkpt>
      <trkpt lat="42.310135" lon="-8.801728">
        <ele>68</ele>
        <time>1970-01-01T03:42:03.000Z</time>
      </trkpt>
      <trkpt lat="42.310135" lon="-8.801741">
        <ele>67.8</ele>
        <time>1970-01-01T03:42:04.000Z</time>
      </trkpt>
      <trkpt lat="42.310133" lon="-8.801757">
        <ele>67.6</ele>
        <time>1970-01-01T03:42:05.000Z</time>
      </trkpt>
      <trkpt lat="42.310136" lon="-8.801776">
        <ele>67.2</ele>
        <time>1970-01-01T03:42:06.000Z</time>
      </trkpt>
      <trkpt lat="42.310138" lon="-8.80179">
        <ele>66.8</ele>
        <time>1970-01-01T03:42:07.000Z</time>
      </trkpt>
      <trkpt lat="42.310141" lon="-8.801803">
        <ele>66.6</ele>
        <time>1970-01-01T03:42:08.000Z</time>
      </trkpt>
      <trkpt lat="42.310144" lon="-8.801812">
        <ele>66.2</ele>
        <time>1970-01-01T03:42:09.000Z</time>
      </trkpt>
      <trkpt lat="42.310146" lon="-8.80182">
        <ele>66.2</ele>
        <time>1970-01-01T03:42:10.000Z</time>
      </trkpt>
      <trkpt lat="42.310145" lon="-8.801831">
        <ele>66.2</ele>
        <time>1970-01-01T03:42:11.000Z</time>
      </trkpt>
      <trkpt lat="42.310143" lon="-8.801851">
        <ele>66.2</ele>
        <time>1970-01-01T03:42:12.000Z</time>
      </trkpt>
      <trkpt lat="42.310139" lon="-8.801859">
        <ele>66.2</ele>
        <time>1970-01-01T03:42:13.000Z</time>
      </trkpt>
      <trkpt lat="42.310133" lon="-8.801871">
        <ele>66.2</ele>
        <time>1970-01-01T03:42:14.000Z</time>
      </trkpt>
      <trkpt lat="42.310127" lon="-8.801884">
        <ele>66.2</ele>
        <time>1970-01-01T03:42:15.000Z</time>
      </trkpt>
      <trkpt lat="42.310122" lon="-8.801898">
        <ele>66.2</ele>
        <time>1970-01-01T03:42:16.000Z</time>
      </trkpt>
      <trkpt lat="42.310116" lon="-8.801914">
        <ele>66</ele>
        <time>1970-01-01T03:42:17.000Z</time>
      </trkpt>
      <trkpt lat="42.310114" lon="-8.801931">
        <ele>65.6</ele>
        <time>1970-01-01T03:42:18.000Z</time>
      </trkpt>
      <trkpt lat="42.31011" lon="-8.801951">
        <ele>65.2</ele>
        <time>1970-01-01T03:42:19.000Z</time>
      </trkpt>
      <trkpt lat="42.310107" lon="-8.801967">
        <ele>64.8</ele>
        <time>1970-01-01T03:42:20.000Z</time>
      </trkpt>
      <trkpt lat="42.310107" lon="-8.80198">
        <ele>64</ele>
        <time>1970-01-01T03:42:21.000Z</time>
      </trkpt>
      <trkpt lat="42.310106" lon="-8.801996">
        <ele>63.4</ele>
        <time>1970-01-01T03:42:22.000Z</time>
      </trkpt>
      <trkpt lat="42.310104" lon="-8.80201">
        <ele>63.2</ele>
        <time>1970-01-01T03:42:23.000Z</time>
      </trkpt>
      <trkpt lat="42.3101" lon="-8.802026">
        <ele>62.8</ele>
        <time>1970-01-01T03:42:24.000Z</time>
      </trkpt>
      <trkpt lat="42.310097" lon="-8.802041">
        <ele>62.8</ele>
        <time>1970-01-01T03:42:25.000Z</time>
      </trkpt>
      <trkpt lat="42.310092" lon="-8.802063">
        <ele>62.6</ele>
        <time>1970-01-01T03:42:26.000Z</time>
      </trkpt>
      <trkpt lat="42.310089" lon="-8.802079">
        <ele>62.6</ele>
        <time>1970-01-01T03:42:27.000Z</time>
      </trkpt>
      <trkpt lat="42.310084" lon="-8.802096">
        <ele>62.2</ele>
        <time>1970-01-01T03:42:28.000Z</time>
      </trkpt>
      <trkpt lat="42.310078" lon="-8.802114">
        <ele>62</ele>
        <time>1970-01-01T03:42:29.000Z</time>
      </trkpt>
      <trkpt lat="42.310073" lon="-8.80213">
        <ele>61.6</ele>
        <time>1970-01-01T03:42:30.000Z</time>
      </trkpt>
      <trkpt lat="42.310068" lon="-8.802141">
        <ele>61.4</ele>
        <time>1970-01-01T03:42:31.000Z</time>
      </trkpt>
      <trkpt lat="42.310062" lon="-8.802149">
        <ele>61.4</ele>
        <time>1970-01-01T03:42:32.000Z</time>
      </trkpt>
      <trkpt lat="42.310055" lon="-8.802159">
        <ele>60.4</ele>
        <time>1970-01-01T03:42:33.000Z</time>
      </trkpt>
      <trkpt lat="42.310048" lon="-8.802169">
        <ele>59.8</ele>
        <time>1970-01-01T03:42:34.000Z</time>
      </trkpt>
      <trkpt lat="42.31004" lon="-8.802182">
        <ele>59.2</ele>
        <time>1970-01-01T03:42:35.000Z</time>
      </trkpt>
      <trkpt lat="42.310033" lon="-8.802195">
        <ele>58.8</ele>
        <time>1970-01-01T03:42:36.000Z</time>
      </trkpt>
      <trkpt lat="42.310027" lon="-8.802209">
        <ele>58.6</ele>
        <time>1970-01-01T03:42:37.000Z</time>
      </trkpt>
      <trkpt lat="42.310023" lon="-8.802223">
        <ele>58.4</ele>
        <time>1970-01-01T03:42:38.000Z</time>
      </trkpt>
      <trkpt lat="42.31002" lon="-8.80224">
        <ele>58.2</ele>
        <time>1970-01-01T03:42:39.000Z</time>
      </trkpt>
      <trkpt lat="42.310012" lon="-8.80226">
        <ele>58.2</ele>
        <time>1970-01-01T03:42:40.000Z</time>
      </trkpt>
      <trkpt lat="42.310003" lon="-8.802275">
        <ele>58.2</ele>
        <time>1970-01-01T03:42:41.000Z</time>
      </trkpt>
      <trkpt lat="42.309993" lon="-8.802286">
        <ele>58.2</ele>
        <time>1970-01-01T03:42:42.000Z</time>
      </trkpt>
      <trkpt lat="42.309988" lon="-8.802295">
        <ele>58.2</ele>
        <time>1970-01-01T03:42:43.000Z</time>
      </trkpt>
      <trkpt lat="42.309982" lon="-8.802306">
        <ele>58.2</ele>
        <time>1970-01-01T03:42:44.000Z</time>
      </trkpt>
      <trkpt lat="42.309976" lon="-8.802319">
        <ele>58.2</ele>
        <time>1970-01-01T03:42:45.000Z</time>
      </trkpt>
      <trkpt lat="42.30997" lon="-8.802338">
        <ele>57.6</ele>
        <time>1970-01-01T03:42:46.000Z</time>
      </trkpt>
      <trkpt lat="42.309966" lon="-8.802354">
        <ele>57.2</ele>
        <time>1970-01-01T03:42:47.000Z</time>
      </trkpt>
      <trkpt lat="42.309961" lon="-8.802367">
        <ele>56.8</ele>
        <time>1970-01-01T03:42:48.000Z</time>
      </trkpt>
      <trkpt lat="42.309953" lon="-8.802385">
        <ele>56.4</ele>
        <time>1970-01-01T03:42:49.000Z</time>
      </trkpt>
      <trkpt lat="42.309944" lon="-8.802401">
        <ele>56</ele>
        <time>1970-01-01T03:42:50.000Z</time>
      </trkpt>
      <trkpt lat="42.30994" lon="-8.802411">
        <ele>55.8</ele>
        <time>1970-01-01T03:42:51.000Z</time>
      </trkpt>
      <trkpt lat="42.309936" lon="-8.802422">
        <ele>55.4</ele>
        <time>1970-01-01T03:42:52.000Z</time>
      </trkpt>
      <trkpt lat="42.30993" lon="-8.802433">
        <ele>55.2</ele>
        <time>1970-01-01T03:42:53.000Z</time>
      </trkpt>
      <trkpt lat="42.309921" lon="-8.802448">
        <ele>55.2</ele>
        <time>1970-01-01T03:42:54.000Z</time>
      </trkpt>
      <trkpt lat="42.309915" lon="-8.802458">
        <ele>55.2</ele>
        <time>1970-01-01T03:42:55.000Z</time>
      </trkpt>
      <trkpt lat="42.309908" lon="-8.802468">
        <ele>55</ele>
        <time>1970-01-01T03:42:56.000Z</time>
      </trkpt>
      <trkpt lat="42.309901" lon="-8.802482">
        <ele>55</ele>
        <time>1970-01-01T03:42:57.000Z</time>
      </trkpt>
      <trkpt lat="42.309896" lon="-8.802495">
        <ele>55</ele>
        <time>1970-01-01T03:42:58.000Z</time>
      </trkpt>
      <trkpt lat="42.309891" lon="-8.80251">
        <ele>54.6</ele>
        <time>1970-01-01T03:42:59.000Z</time>
      </trkpt>
      <trkpt lat="42.309886" lon="-8.802523">
        <ele>54.4</ele>
        <time>1970-01-01T03:43:00.000Z</time>
      </trkpt>
      <trkpt lat="42.309879" lon="-8.802535">
        <ele>54.2</ele>
        <time>1970-01-01T03:43:01.000Z</time>
      </trkpt>
      <trkpt lat="42.30987" lon="-8.802552">
        <ele>54.2</ele>
        <time>1970-01-01T03:43:02.000Z</time>
      </trkpt>
      <trkpt lat="42.309859" lon="-8.802572">
        <ele>54.2</ele>
        <time>1970-01-01T03:43:03.000Z</time>
      </trkpt>
      <trkpt lat="42.309852" lon="-8.802597">
        <ele>54.2</ele>
        <time>1970-01-01T03:43:04.000Z</time>
      </trkpt>
      <trkpt lat="42.309849" lon="-8.802618">
        <ele>54</ele>
        <time>1970-01-01T03:43:05.000Z</time>
      </trkpt>
      <trkpt lat="42.309849" lon="-8.80264">
        <ele>54</ele>
        <time>1970-01-01T03:43:06.000Z</time>
      </trkpt>
      <trkpt lat="42.309848" lon="-8.80266">
        <ele>53.8</ele>
        <time>1970-01-01T03:43:07.000Z</time>
      </trkpt>
      <trkpt lat="42.309846" lon="-8.802679">
        <ele>53.6</ele>
        <time>1970-01-01T03:43:08.000Z</time>
      </trkpt>
      <trkpt lat="42.309847" lon="-8.802698">
        <ele>53.4</ele>
        <time>1970-01-01T03:43:09.000Z</time>
      </trkpt>
      <trkpt lat="42.309846" lon="-8.802718">
        <ele>53.2</ele>
        <time>1970-01-01T03:43:10.000Z</time>
      </trkpt>
      <trkpt lat="42.309841" lon="-8.802733">
        <ele>53.2</ele>
        <time>1970-01-01T03:43:11.000Z</time>
      </trkpt>
      <trkpt lat="42.309836" lon="-8.802743">
        <ele>53.2</ele>
        <time>1970-01-01T03:43:12.000Z</time>
      </trkpt>
      <trkpt lat="42.309828" lon="-8.802755">
        <ele>53.2</ele>
        <time>1970-01-01T03:43:13.000Z</time>
      </trkpt>
      <trkpt lat="42.309815" lon="-8.802765">
        <ele>53.2</ele>
        <time>1970-01-01T03:43:14.000Z</time>
      </trkpt>
      <trkpt lat="42.309801" lon="-8.802775">
        <ele>53</ele>
        <time>1970-01-01T03:43:15.000Z</time>
      </trkpt>
      <trkpt lat="42.309788" lon="-8.802787">
        <ele>52.8</ele>
        <time>1970-01-01T03:43:16.000Z</time>
      </trkpt>
      <trkpt lat="42.309773" lon="-8.8028">
        <ele>52.4</ele>
        <time>1970-01-01T03:43:17.000Z</time>
      </trkpt>
      <trkpt lat="42.30976" lon="-8.802814">
        <ele>52.2</ele>
        <time>1970-01-01T03:43:18.000Z</time>
      </trkpt>
      <trkpt lat="42.309748" lon="-8.802827">
        <ele>51.6</ele>
        <time>1970-01-01T03:43:19.000Z</time>
      </trkpt>
      <trkpt lat="42.30974" lon="-8.802839">
        <ele>51.4</ele>
        <time>1970-01-01T03:43:20.000Z</time>
      </trkpt>
      <trkpt lat="42.309735" lon="-8.802849">
        <ele>51.2</ele>
        <time>1970-01-01T03:43:21.000Z</time>
      </trkpt>
      <trkpt lat="42.309731" lon="-8.802857">
        <ele>51</ele>
        <time>1970-01-01T03:43:22.000Z</time>
      </trkpt>
      <trkpt lat="42.309724" lon="-8.802865">
        <ele>50.8</ele>
        <time>1970-01-01T03:43:23.000Z</time>
      </trkpt>
      <trkpt lat="42.309716" lon="-8.802874">
        <ele>50.6</ele>
        <time>1970-01-01T03:43:24.000Z</time>
      </trkpt>
      <trkpt lat="42.30971" lon="-8.802882">
        <ele>50.6</ele>
        <time>1970-01-01T03:43:25.000Z</time>
      </trkpt>
      <trkpt lat="42.309702" lon="-8.802889">
        <ele>50.4</ele>
        <time>1970-01-01T03:43:26.000Z</time>
      </trkpt>
      <trkpt lat="42.309695" lon="-8.802896">
        <ele>50.4</ele>
        <time>1970-01-01T03:43:27.000Z</time>
      </trkpt>
      <trkpt lat="42.309688" lon="-8.802902">
        <ele>50</ele>
        <time>1970-01-01T03:43:28.000Z</time>
      </trkpt>
      <trkpt lat="42.309679" lon="-8.802906">
        <ele>49.6</ele>
        <time>1970-01-01T03:43:29.000Z</time>
      </trkpt>
      <trkpt lat="42.309671" lon="-8.802909">
        <ele>49.4</ele>
        <time>1970-01-01T03:43:30.000Z</time>
      </trkpt>
      <trkpt lat="42.309661" lon="-8.802917">
        <ele>49</ele>
        <time>1970-01-01T03:43:31.000Z</time>
      </trkpt>
      <trkpt lat="42.309647" lon="-8.80293">
        <ele>49</ele>
        <time>1970-01-01T03:43:32.000Z</time>
      </trkpt>
      <trkpt lat="42.309635" lon="-8.802943">
        <ele>48.8</ele>
        <time>1970-01-01T03:43:33.000Z</time>
      </trkpt>
      <trkpt lat="42.309625" lon="-8.802956">
        <ele>48.6</ele>
        <time>1970-01-01T03:43:34.000Z</time>
      </trkpt>
      <trkpt lat="42.309617" lon="-8.802967">
        <ele>48.4</ele>
        <time>1970-01-01T03:43:35.000Z</time>
      </trkpt>
      <trkpt lat="42.309608" lon="-8.802976">
        <ele>48.4</ele>
        <time>1970-01-01T03:43:36.000Z</time>
      </trkpt>
      <trkpt lat="42.309598" lon="-8.802986">
        <ele>48.4</ele>
        <time>1970-01-01T03:43:37.000Z</time>
      </trkpt>
      <trkpt lat="42.309584" lon="-8.803002">
        <ele>48.4</ele>
        <time>1970-01-01T03:43:38.000Z</time>
      </trkpt>
      <trkpt lat="42.309573" lon="-8.803019">
        <ele>48.4</ele>
        <time>1970-01-01T03:43:39.000Z</time>
      </trkpt>
      <trkpt lat="42.309565" lon="-8.803043">
        <ele>48.4</ele>
        <time>1970-01-01T03:43:40.000Z</time>
      </trkpt>
      <trkpt lat="42.309562" lon="-8.803061">
        <ele>48</ele>
        <time>1970-01-01T03:43:41.000Z</time>
      </trkpt>
      <trkpt lat="42.309565" lon="-8.803077">
        <ele>47.4</ele>
        <time>1970-01-01T03:43:42.000Z</time>
      </trkpt>
      <trkpt lat="42.309568" lon="-8.803093">
        <ele>47</ele>
        <time>1970-01-01T03:43:43.000Z</time>
      </trkpt>
      <trkpt lat="42.309573" lon="-8.80311">
        <ele>46.8</ele>
        <time>1970-01-01T03:43:44.000Z</time>
      </trkpt>
      <trkpt lat="42.309579" lon="-8.803128">
        <ele>46.4</ele>
        <time>1970-01-01T03:43:45.000Z</time>
      </trkpt>
      <trkpt lat="42.309584" lon="-8.803144">
        <ele>46.2</ele>
        <time>1970-01-01T03:43:46.000Z</time>
      </trkpt>
      <trkpt lat="42.309589" lon="-8.803168">
        <ele>46</ele>
        <time>1970-01-01T03:43:47.000Z</time>
      </trkpt>
      <trkpt lat="42.309592" lon="-8.803185">
        <ele>46</ele>
        <time>1970-01-01T03:43:48.000Z</time>
      </trkpt>
      <trkpt lat="42.309593" lon="-8.803204">
        <ele>45.8</ele>
        <time>1970-01-01T03:43:49.000Z</time>
      </trkpt>
      <trkpt lat="42.309592" lon="-8.803214">
        <ele>45.8</ele>
        <time>1970-01-01T03:43:50.000Z</time>
      </trkpt>
      <trkpt lat="42.30959" lon="-8.803225">
        <ele>45.8</ele>
        <time>1970-01-01T03:43:51.000Z</time>
      </trkpt>
      <trkpt lat="42.309586" lon="-8.803255">
        <ele>45.6</ele>
        <time>1970-01-01T03:43:52.000Z</time>
      </trkpt>
      <trkpt lat="42.309585" lon="-8.80327">
        <ele>45.6</ele>
        <time>1970-01-01T03:43:53.000Z</time>
      </trkpt>
      <trkpt lat="42.309583" lon="-8.803279">
        <ele>45.6</ele>
        <time>1970-01-01T03:43:54.000Z</time>
      </trkpt>
      <trkpt lat="42.30958" lon="-8.803289">
        <ele>45.6</ele>
        <time>1970-01-01T03:43:55.000Z</time>
      </trkpt>
      <trkpt lat="42.309576" lon="-8.803298">
        <ele>45.6</ele>
        <time>1970-01-01T03:43:56.000Z</time>
      </trkpt>
      <trkpt lat="42.309576" lon="-8.803307">
        <ele>45.4</ele>
        <time>1970-01-01T03:43:57.000Z</time>
      </trkpt>
      <trkpt lat="42.309576" lon="-8.80332">
        <ele>45.4</ele>
        <time>1970-01-01T03:43:58.000Z</time>
      </trkpt>
      <trkpt lat="42.309577" lon="-8.803334">
        <ele>45.6</ele>
        <time>1970-01-01T03:43:59.000Z</time>
      </trkpt>
      <trkpt lat="42.309579" lon="-8.803347">
        <ele>45.6</ele>
        <time>1970-01-01T03:44:00.000Z</time>
      </trkpt>
      <trkpt lat="42.309583" lon="-8.803364">
        <ele>45.4</ele>
        <time>1970-01-01T03:44:01.000Z</time>
      </trkpt>
      <trkpt lat="42.309585" lon="-8.803377">
        <ele>45.4</ele>
        <time>1970-01-01T03:44:02.000Z</time>
      </trkpt>
      <trkpt lat="42.30959" lon="-8.80339">
        <ele>45.4</ele>
        <time>1970-01-01T03:44:03.000Z</time>
      </trkpt>
      <trkpt lat="42.309595" lon="-8.803402">
        <ele>45.4</ele>
        <time>1970-01-01T03:44:04.000Z</time>
      </trkpt>
      <trkpt lat="42.309599" lon="-8.803416">
        <ele>45.4</ele>
        <time>1970-01-01T03:44:05.000Z</time>
      </trkpt>
      <trkpt lat="42.309604" lon="-8.80343">
        <ele>45.4</ele>
        <time>1970-01-01T03:44:06.000Z</time>
      </trkpt>
      <trkpt lat="42.309607" lon="-8.803443">
        <ele>45.4</ele>
        <time>1970-01-01T03:44:07.000Z</time>
      </trkpt>
      <trkpt lat="42.309612" lon="-8.80345">
        <ele>45.4</ele>
        <time>1970-01-01T03:44:08.000Z</time>
      </trkpt>
      <trkpt lat="42.309617" lon="-8.803458">
        <ele>45.2</ele>
        <time>1970-01-01T03:44:09.000Z</time>
      </trkpt>
      <trkpt lat="42.309621" lon="-8.803468">
        <ele>45.2</ele>
        <time>1970-01-01T03:44:10.000Z</time>
      </trkpt>
      <trkpt lat="42.309628" lon="-8.803478">
        <ele>45.2</ele>
        <time>1970-01-01T03:44:11.000Z</time>
      </trkpt>
      <trkpt lat="42.309635" lon="-8.803486">
        <ele>45.2</ele>
        <time>1970-01-01T03:44:12.000Z</time>
      </trkpt>
      <trkpt lat="42.309642" lon="-8.803493">
        <ele>45.2</ele>
        <time>1970-01-01T03:44:13.000Z</time>
      </trkpt>
      <trkpt lat="42.309649" lon="-8.803501">
        <ele>45.4</ele>
        <time>1970-01-01T03:44:14.000Z</time>
      </trkpt>
      <trkpt lat="42.309659" lon="-8.803513">
        <ele>45.4</ele>
        <time>1970-01-01T03:44:15.000Z</time>
      </trkpt>
      <trkpt lat="42.309669" lon="-8.803528">
        <ele>45.6</ele>
        <time>1970-01-01T03:44:16.000Z</time>
      </trkpt>
      <trkpt lat="42.309676" lon="-8.803542">
        <ele>45.4</ele>
        <time>1970-01-01T03:44:17.000Z</time>
      </trkpt>
      <trkpt lat="42.309686" lon="-8.803556">
        <ele>45.4</ele>
        <time>1970-01-01T03:44:18.000Z</time>
      </trkpt>
      <trkpt lat="42.309694" lon="-8.803568">
        <ele>45.4</ele>
        <time>1970-01-01T03:44:19.000Z</time>
      </trkpt>
      <trkpt lat="42.309705" lon="-8.803582">
        <ele>45.4</ele>
        <time>1970-01-01T03:44:20.000Z</time>
      </trkpt>
      <trkpt lat="42.309718" lon="-8.803595">
        <ele>45.2</ele>
        <time>1970-01-01T03:44:21.000Z</time>
      </trkpt>
      <trkpt lat="42.309728" lon="-8.803605">
        <ele>45.2</ele>
        <time>1970-01-01T03:44:22.000Z</time>
      </trkpt>
      <trkpt lat="42.309741" lon="-8.803617">
        <ele>45.2</ele>
        <time>1970-01-01T03:44:23.000Z</time>
      </trkpt>
      <trkpt lat="42.309754" lon="-8.803629">
        <ele>45.2</ele>
        <time>1970-01-01T03:44:24.000Z</time>
      </trkpt>
      <trkpt lat="42.309764" lon="-8.803638">
        <ele>45.2</ele>
        <time>1970-01-01T03:44:25.000Z</time>
      </trkpt>
      <trkpt lat="42.309774" lon="-8.803647">
        <ele>45.2</ele>
        <time>1970-01-01T03:44:26.000Z</time>
      </trkpt>
      <trkpt lat="42.30978" lon="-8.803649">
        <ele>45.2</ele>
        <time>1970-01-01T03:44:27.000Z</time>
      </trkpt>
      <trkpt lat="42.309786" lon="-8.803655">
        <ele>45.2</ele>
        <time>1970-01-01T03:44:28.000Z</time>
      </trkpt>
      <trkpt lat="42.309794" lon="-8.803663">
        <ele>44.8</ele>
        <time>1970-01-01T03:44:29.000Z</time>
      </trkpt>
      <trkpt lat="42.3098" lon="-8.803671">
        <ele>44.6</ele>
        <time>1970-01-01T03:44:30.000Z</time>
      </trkpt>
      <trkpt lat="42.309803" lon="-8.803676">
        <ele>44.4</ele>
        <time>1970-01-01T03:44:31.000Z</time>
      </trkpt>
      <trkpt lat="42.309808" lon="-8.803682">
        <ele>44.4</ele>
        <time>1970-01-01T03:44:32.000Z</time>
      </trkpt>
      <trkpt lat="42.309813" lon="-8.803684">
        <ele>44</ele>
        <time>1970-01-01T03:44:33.000Z</time>
      </trkpt>
      <trkpt lat="42.30982" lon="-8.803689">
        <ele>43.6</ele>
        <time>1970-01-01T03:44:34.000Z</time>
      </trkpt>
      <trkpt lat="42.309827" lon="-8.803691">
        <ele>43.4</ele>
        <time>1970-01-01T03:44:35.000Z</time>
      </trkpt>
      <trkpt lat="42.309835" lon="-8.803696">
        <ele>43</ele>
        <time>1970-01-01T03:44:36.000Z</time>
      </trkpt>
      <trkpt lat="42.309846" lon="-8.803704">
        <ele>42.6</ele>
        <time>1970-01-01T03:44:37.000Z</time>
      </trkpt>
      <trkpt lat="42.309857" lon="-8.803714">
        <ele>42.4</ele>
        <time>1970-01-01T03:44:38.000Z</time>
      </trkpt>
      <trkpt lat="42.309867" lon="-8.80372">
        <ele>42.4</ele>
        <time>1970-01-01T03:44:39.000Z</time>
      </trkpt>
      <trkpt lat="42.309879" lon="-8.803723">
        <ele>42.2</ele>
        <time>1970-01-01T03:44:40.000Z</time>
      </trkpt>
      <trkpt lat="42.309891" lon="-8.80373">
        <ele>42</ele>
        <time>1970-01-01T03:44:41.000Z</time>
      </trkpt>
      <trkpt lat="42.309904" lon="-8.803738">
        <ele>41.8</ele>
        <time>1970-01-01T03:44:42.000Z</time>
      </trkpt>
      <trkpt lat="42.309917" lon="-8.803748">
        <ele>41.6</ele>
        <time>1970-01-01T03:44:43.000Z</time>
      </trkpt>
      <trkpt lat="42.309928" lon="-8.803758">
        <ele>41.6</ele>
        <time>1970-01-01T03:44:44.000Z</time>
      </trkpt>
      <trkpt lat="42.309934" lon="-8.803768">
        <ele>41.6</ele>
        <time>1970-01-01T03:44:45.000Z</time>
      </trkpt>
      <trkpt lat="42.309941" lon="-8.803776">
        <ele>41.6</ele>
        <time>1970-01-01T03:44:46.000Z</time>
      </trkpt>
      <trkpt lat="42.309947" lon="-8.803784">
        <ele>41.6</ele>
        <time>1970-01-01T03:44:47.000Z</time>
      </trkpt>
      <trkpt lat="42.309951" lon="-8.803792">
        <ele>41.6</ele>
        <time>1970-01-01T03:44:48.000Z</time>
      </trkpt>
      <trkpt lat="42.309955" lon="-8.8038">
        <ele>41.6</ele>
        <time>1970-01-01T03:44:49.000Z</time>
      </trkpt>
      <trkpt lat="42.309957" lon="-8.803807">
        <ele>41.6</ele>
        <time>1970-01-01T03:44:50.000Z</time>
      </trkpt>
      <trkpt lat="42.309956" lon="-8.803815">
        <ele>41.6</ele>
        <time>1970-01-01T03:44:51.000Z</time>
      </trkpt>
      <trkpt lat="42.309955" lon="-8.803826">
        <ele>41.4</ele>
        <time>1970-01-01T03:44:52.000Z</time>
      </trkpt>
      <trkpt lat="42.309951" lon="-8.803837">
        <ele>41.2</ele>
        <time>1970-01-01T03:44:53.000Z</time>
      </trkpt>
      <trkpt lat="42.309949" lon="-8.803847">
        <ele>41.4</ele>
        <time>1970-01-01T03:44:54.000Z</time>
      </trkpt>
      <trkpt lat="42.309949" lon="-8.803854">
        <ele>41.4</ele>
        <time>1970-01-01T03:44:55.000Z</time>
      </trkpt>
      <trkpt lat="42.309953" lon="-8.803857">
        <ele>41.4</ele>
        <time>1970-01-01T03:44:56.000Z</time>
      </trkpt>
      <trkpt lat="42.309957" lon="-8.803861">
        <ele>41.4</ele>
        <time>1970-01-01T03:44:57.000Z</time>
      </trkpt>
      <trkpt lat="42.309962" lon="-8.803861">
        <ele>41.6</ele>
        <time>1970-01-01T03:44:58.000Z</time>
      </trkpt>
      <trkpt lat="42.309968" lon="-8.80386">
        <ele>41.6</ele>
        <time>1970-01-01T03:44:59.000Z</time>
      </trkpt>
      <trkpt lat="42.309975" lon="-8.803861">
        <ele>41.4</ele>
        <time>1970-01-01T03:45:00.000Z</time>
      </trkpt>
      <trkpt lat="42.309979" lon="-8.803865">
        <ele>41.2</ele>
        <time>1970-01-01T03:45:01.000Z</time>
      </trkpt>
      <trkpt lat="42.309982" lon="-8.803871">
        <ele>41</ele>
        <time>1970-01-01T03:45:02.000Z</time>
      </trkpt>
      <trkpt lat="42.309984" lon="-8.803875">
        <ele>40.8</ele>
        <time>1970-01-01T03:45:03.000Z</time>
      </trkpt>
      <trkpt lat="42.309984" lon="-8.803881">
        <ele>40.6</ele>
        <time>1970-01-01T03:45:04.000Z</time>
      </trkpt>
      <trkpt lat="42.309985" lon="-8.803887">
        <ele>40.6</ele>
        <time>1970-01-01T03:45:05.000Z</time>
      </trkpt>
      <trkpt lat="42.309987" lon="-8.803893">
        <ele>40.6</ele>
        <time>1970-01-01T03:45:06.000Z</time>
      </trkpt>
      <trkpt lat="42.309989" lon="-8.803901">
        <ele>40.6</ele>
        <time>1970-01-01T03:45:07.000Z</time>
      </trkpt>
      <trkpt lat="42.30999" lon="-8.803908">
        <ele>40.6</ele>
        <time>1970-01-01T03:45:08.000Z</time>
      </trkpt>
      <trkpt lat="42.309996" lon="-8.803913">
        <ele>40.6</ele>
        <time>1970-01-01T03:45:09.000Z</time>
      </trkpt>
      <trkpt lat="42.309997" lon="-8.803917">
        <ele>40.6</ele>
        <time>1970-01-01T03:45:10.000Z</time>
      </trkpt>
      <trkpt lat="42.31" lon="-8.803918">
        <ele>40.8</ele>
        <time>1970-01-01T03:45:11.000Z</time>
      </trkpt>
      <trkpt lat="42.310002" lon="-8.803919">
        <ele>40.8</ele>
        <time>1970-01-01T03:45:12.000Z</time>
      </trkpt>
      <trkpt lat="42.310002" lon="-8.803923">
        <ele>40.8</ele>
        <time>1970-01-01T03:45:13.000Z</time>
      </trkpt>
      <trkpt lat="42.310005" lon="-8.803928">
        <ele>41</ele>
        <time>1970-01-01T03:45:14.000Z</time>
      </trkpt>
      <trkpt lat="42.310007" lon="-8.803935">
        <ele>41.2</ele>
        <time>1970-01-01T03:45:15.000Z</time>
      </trkpt>
      <trkpt lat="42.31001" lon="-8.803943">
        <ele>41.2</ele>
        <time>1970-01-01T03:45:16.000Z</time>
      </trkpt>
      <trkpt lat="42.31001" lon="-8.803953">
        <ele>41.6</ele>
        <time>1970-01-01T03:45:17.000Z</time>
      </trkpt>
      <trkpt lat="42.310004" lon="-8.803963">
        <ele>41.8</ele>
        <time>1970-01-01T03:45:18.000Z</time>
      </trkpt>
      <trkpt lat="42.310001" lon="-8.803972">
        <ele>42</ele>
        <time>1970-01-01T03:45:19.000Z</time>
      </trkpt>
      <trkpt lat="42.309997" lon="-8.80398">
        <ele>42.4</ele>
        <time>1970-01-01T03:45:20.000Z</time>
      </trkpt>
      <trkpt lat="42.309995" lon="-8.803984">
        <ele>42.6</ele>
        <time>1970-01-01T03:45:21.000Z</time>
      </trkpt>
      <trkpt lat="42.309993" lon="-8.803989">
        <ele>42.8</ele>
        <time>1970-01-01T03:45:22.000Z</time>
      </trkpt>
      <trkpt lat="42.309994" lon="-8.803997">
        <ele>43</ele>
        <time>1970-01-01T03:45:23.000Z</time>
      </trkpt>
      <trkpt lat="42.309997" lon="-8.804006">
        <ele>43.4</ele>
        <time>1970-01-01T03:45:24.000Z</time>
      </trkpt>
      <trkpt lat="42.310001" lon="-8.804017">
        <ele>43.6</ele>
        <time>1970-01-01T03:45:25.000Z</time>
      </trkpt>
      <trkpt lat="42.310003" lon="-8.804034">
        <ele>43.8</ele>
        <time>1970-01-01T03:45:26.000Z</time>
      </trkpt>
      <trkpt lat="42.310006" lon="-8.804062">
        <ele>43.8</ele>
        <time>1970-01-01T03:45:27.000Z</time>
      </trkpt>
      <trkpt lat="42.310009" lon="-8.804077">
        <ele>44</ele>
        <time>1970-01-01T03:45:28.000Z</time>
      </trkpt>
      <trkpt lat="42.310011" lon="-8.804086">
        <ele>44</ele>
        <time>1970-01-01T03:45:29.000Z</time>
      </trkpt>
      <trkpt lat="42.310012" lon="-8.804098">
        <ele>43.8</ele>
        <time>1970-01-01T03:45:30.000Z</time>
      </trkpt>
      <trkpt lat="42.310012" lon="-8.804112">
        <ele>43.8</ele>
        <time>1970-01-01T03:45:31.000Z</time>
      </trkpt>
      <trkpt lat="42.310015" lon="-8.804123">
        <ele>43</ele>
        <time>1970-01-01T03:45:32.000Z</time>
      </trkpt>
      <trkpt lat="42.310018" lon="-8.804135">
        <ele>42.6</ele>
        <time>1970-01-01T03:45:33.000Z</time>
      </trkpt>
      <trkpt lat="42.310017" lon="-8.804155">
        <ele>42.4</ele>
        <time>1970-01-01T03:45:34.000Z</time>
      </trkpt>
      <trkpt lat="42.310021" lon="-8.804177">
        <ele>42.2</ele>
        <time>1970-01-01T03:45:35.000Z</time>
      </trkpt>
      <trkpt lat="42.31002" lon="-8.804203">
        <ele>42.2</ele>
        <time>1970-01-01T03:45:36.000Z</time>
      </trkpt>
      <trkpt lat="42.310021" lon="-8.804221">
        <ele>42</ele>
        <time>1970-01-01T03:45:37.000Z</time>
      </trkpt>
      <trkpt lat="42.310021" lon="-8.804241">
        <ele>42</ele>
        <time>1970-01-01T03:45:38.000Z</time>
      </trkpt>
      <trkpt lat="42.310023" lon="-8.80426">
        <ele>42</ele>
        <time>1970-01-01T03:45:39.000Z</time>
      </trkpt>
      <trkpt lat="42.310024" lon="-8.804272">
        <ele>41.6</ele>
        <time>1970-01-01T03:45:40.000Z</time>
      </trkpt>
      <trkpt lat="42.310029" lon="-8.804281">
        <ele>41</ele>
        <time>1970-01-01T03:45:41.000Z</time>
      </trkpt>
      <trkpt lat="42.310031" lon="-8.80429">
        <ele>40.4</ele>
        <time>1970-01-01T03:45:42.000Z</time>
      </trkpt>
      <trkpt lat="42.310037" lon="-8.804301">
        <ele>39.8</ele>
        <time>1970-01-01T03:45:43.000Z</time>
      </trkpt>
      <trkpt lat="42.310039" lon="-8.80432">
        <ele>39.4</ele>
        <time>1970-01-01T03:45:44.000Z</time>
      </trkpt>
      <trkpt lat="42.31004" lon="-8.804334">
        <ele>39.4</ele>
        <time>1970-01-01T03:45:45.000Z</time>
      </trkpt>
      <trkpt lat="42.310046" lon="-8.804349">
        <ele>39.2</ele>
        <time>1970-01-01T03:45:46.000Z</time>
      </trkpt>
      <trkpt lat="42.310054" lon="-8.804363">
        <ele>39.2</ele>
        <time>1970-01-01T03:45:47.000Z</time>
      </trkpt>
      <trkpt lat="42.310062" lon="-8.804376">
        <ele>39.2</ele>
        <time>1970-01-01T03:45:48.000Z</time>
      </trkpt>
      <trkpt lat="42.310073" lon="-8.804386">
        <ele>39.4</ele>
        <time>1970-01-01T03:45:49.000Z</time>
      </trkpt>
      <trkpt lat="42.310087" lon="-8.8044">
        <ele>39.4</ele>
        <time>1970-01-01T03:45:50.000Z</time>
      </trkpt>
      <trkpt lat="42.3101" lon="-8.804411">
        <ele>39.4</ele>
        <time>1970-01-01T03:45:51.000Z</time>
      </trkpt>
      <trkpt lat="42.310109" lon="-8.804415">
        <ele>39.4</ele>
        <time>1970-01-01T03:45:52.000Z</time>
      </trkpt>
      <trkpt lat="42.310118" lon="-8.804419">
        <ele>39.2</ele>
        <time>1970-01-01T03:45:53.000Z</time>
      </trkpt>
      <trkpt lat="42.310123" lon="-8.804421">
        <ele>39.2</ele>
        <time>1970-01-01T03:45:54.000Z</time>
      </trkpt>
      <trkpt lat="42.31013" lon="-8.804423">
        <ele>39</ele>
        <time>1970-01-01T03:45:55.000Z</time>
      </trkpt>
      <trkpt lat="42.310137" lon="-8.80442">
        <ele>38.8</ele>
        <time>1970-01-01T03:45:56.000Z</time>
      </trkpt>
      <trkpt lat="42.310145" lon="-8.804417">
        <ele>38.8</ele>
        <time>1970-01-01T03:45:57.000Z</time>
      </trkpt>
      <trkpt lat="42.310154" lon="-8.80442">
        <ele>38.6</ele>
        <time>1970-01-01T03:45:58.000Z</time>
      </trkpt>
      <trkpt lat="42.310159" lon="-8.80442">
        <ele>38.6</ele>
        <time>1970-01-01T03:45:59.000Z</time>
      </trkpt>
      <trkpt lat="42.310165" lon="-8.804421">
        <ele>38.4</ele>
        <time>1970-01-01T03:46:00.000Z</time>
      </trkpt>
      <trkpt lat="42.310172" lon="-8.804421">
        <ele>38.2</ele>
        <time>1970-01-01T03:46:01.000Z</time>
      </trkpt>
      <trkpt lat="42.310176" lon="-8.804423">
        <ele>37.8</ele>
        <time>1970-01-01T03:46:02.000Z</time>
      </trkpt>
      <trkpt lat="42.310181" lon="-8.804424">
        <ele>37.6</ele>
        <time>1970-01-01T03:46:03.000Z</time>
      </trkpt>
      <trkpt lat="42.310184" lon="-8.804423">
        <ele>37.2</ele>
        <time>1970-01-01T03:46:04.000Z</time>
      </trkpt>
      <trkpt lat="42.310186" lon="-8.804426">
        <ele>37.2</ele>
        <time>1970-01-01T03:46:05.000Z</time>
      </trkpt>
      <trkpt lat="42.310188" lon="-8.804432">
        <ele>37</ele>
        <time>1970-01-01T03:46:06.000Z</time>
      </trkpt>
      <trkpt lat="42.310187" lon="-8.804438">
        <ele>37</ele>
        <time>1970-01-01T03:46:07.000Z</time>
      </trkpt>
      <trkpt lat="42.310186" lon="-8.804442">
        <ele>37</ele>
        <time>1970-01-01T03:46:08.000Z</time>
      </trkpt>
      <trkpt lat="42.310184" lon="-8.804445">
        <ele>37</ele>
        <time>1970-01-01T03:46:09.000Z</time>
      </trkpt>
      <trkpt lat="42.31018" lon="-8.804447">
        <ele>36.8</ele>
        <time>1970-01-01T03:46:10.000Z</time>
      </trkpt>
      <trkpt lat="42.310178" lon="-8.804449">
        <ele>36.8</ele>
        <time>1970-01-01T03:46:11.000Z</time>
      </trkpt>
      <trkpt lat="42.310176" lon="-8.804453">
        <ele>36.8</ele>
        <time>1970-01-01T03:46:12.000Z</time>
      </trkpt>
      <trkpt lat="42.310176" lon="-8.804453">
        <ele>36.8</ele>
        <time>1970-01-01T03:46:13.000Z</time>
      </trkpt>
      <trkpt lat="42.310176" lon="-8.804456">
        <ele>36.8</ele>
        <time>1970-01-01T03:46:14.000Z</time>
      </trkpt>
      <trkpt lat="42.310176" lon="-8.804456">
        <ele>37</ele>
        <time>1970-01-01T03:46:15.000Z</time>
      </trkpt>
      <trkpt lat="42.310172" lon="-8.804457">
        <ele>37.2</ele>
        <time>1970-01-01T03:46:16.000Z</time>
      </trkpt>
      <trkpt lat="42.310169" lon="-8.80446">
        <ele>37</ele>
        <time>1970-01-01T03:46:17.000Z</time>
      </trkpt>
      <trkpt lat="42.310166" lon="-8.804464">
        <ele>37</ele>
        <time>1970-01-01T03:46:18.000Z</time>
      </trkpt>
      <trkpt lat="42.310166" lon="-8.804471">
        <ele>36.8</ele>
        <time>1970-01-01T03:46:19.000Z</time>
      </trkpt>
      <trkpt lat="42.310167" lon="-8.804476">
        <ele>36.8</ele>
        <time>1970-01-01T03:46:20.000Z</time>
      </trkpt>
      <trkpt lat="42.31017" lon="-8.804478">
        <ele>36.8</ele>
        <time>1970-01-01T03:46:21.000Z</time>
      </trkpt>
      <trkpt lat="42.31017" lon="-8.804476">
        <ele>36.8</ele>
        <time>1970-01-01T03:46:22.000Z</time>
      </trkpt>
      <trkpt lat="42.310169" lon="-8.804474">
        <ele>36.6</ele>
        <time>1970-01-01T03:46:23.000Z</time>
      </trkpt>
      <trkpt lat="42.310168" lon="-8.804472">
        <ele>36.6</ele>
        <time>1970-01-01T03:46:24.000Z</time>
      </trkpt>
      <trkpt lat="42.310167" lon="-8.804472">
        <ele>37</ele>
        <time>1970-01-01T03:46:25.000Z</time>
      </trkpt>
      <trkpt lat="42.310167" lon="-8.804472">
        <ele>37</ele>
        <time>1970-01-01T03:46:26.000Z</time>
      </trkpt>
      <trkpt lat="42.31017" lon="-8.80448">
        <ele>37.2</ele>
        <time>1970-01-01T03:46:27.000Z</time>
      </trkpt>
      <trkpt lat="42.310177" lon="-8.80448">
        <ele>37.2</ele>
        <time>1970-01-01T03:46:28.000Z</time>
      </trkpt>
      <trkpt lat="42.310183" lon="-8.804478">
        <ele>37.2</ele>
        <time>1970-01-01T03:46:29.000Z</time>
      </trkpt>
      <trkpt lat="42.310187" lon="-8.804475">
        <ele>37.2</ele>
        <time>1970-01-01T03:46:30.000Z</time>
      </trkpt>
      <trkpt lat="42.310198" lon="-8.804468">
        <ele>37.2</ele>
        <time>1970-01-01T03:46:31.000Z</time>
      </trkpt>
      <trkpt lat="42.310202" lon="-8.804458">
        <ele>37</ele>
        <time>1970-01-01T03:46:32.000Z</time>
      </trkpt>
      <trkpt lat="42.310209" lon="-8.804452">
        <ele>37</ele>
        <time>1970-01-01T03:46:33.000Z</time>
      </trkpt>
      <trkpt lat="42.310213" lon="-8.804447">
        <ele>37</ele>
        <time>1970-01-01T03:46:34.000Z</time>
      </trkpt>
      <trkpt lat="42.310218" lon="-8.804445">
        <ele>36.8</ele>
        <time>1970-01-01T03:46:35.000Z</time>
      </trkpt>
      <trkpt lat="42.31022" lon="-8.804444">
        <ele>36.8</ele>
        <time>1970-01-01T03:46:36.000Z</time>
      </trkpt>
      <trkpt lat="42.310224" lon="-8.804445">
        <ele>36.8</ele>
        <time>1970-01-01T03:46:37.000Z</time>
      </trkpt>
      <trkpt lat="42.310227" lon="-8.804449">
        <ele>36.8</ele>
        <time>1970-01-01T03:46:38.000Z</time>
      </trkpt>
      <trkpt lat="42.310224" lon="-8.804465">
        <ele>37</ele>
        <time>1970-01-01T03:46:39.000Z</time>
      </trkpt>
      <trkpt lat="42.310228" lon="-8.80447">
        <ele>37.2</ele>
        <time>1970-01-01T03:46:40.000Z</time>
      </trkpt>
      <trkpt lat="42.310234" lon="-8.804481">
        <ele>37.4</ele>
        <time>1970-01-01T03:46:41.000Z</time>
      </trkpt>
      <trkpt lat="42.310244" lon="-8.804494">
        <ele>37.8</ele>
        <time>1970-01-01T03:46:42.000Z</time>
      </trkpt>
      <trkpt lat="42.31026" lon="-8.804504">
        <ele>37.8</ele>
        <time>1970-01-01T03:46:43.000Z</time>
      </trkpt>
      <trkpt lat="42.310274" lon="-8.804508">
        <ele>38</ele>
        <time>1970-01-01T03:46:44.000Z</time>
      </trkpt>
      <trkpt lat="42.310286" lon="-8.804512">
        <ele>38.2</ele>
        <time>1970-01-01T03:46:45.000Z</time>
      </trkpt>
      <trkpt lat="42.310298" lon="-8.804517">
        <ele>38.2</ele>
        <time>1970-01-01T03:46:46.000Z</time>
      </trkpt>
      <trkpt lat="42.31031" lon="-8.804519">
        <ele>38.2</ele>
        <time>1970-01-01T03:46:47.000Z</time>
      </trkpt>
      <trkpt lat="42.310322" lon="-8.804519">
        <ele>38.4</ele>
        <time>1970-01-01T03:46:48.000Z</time>
      </trkpt>
      <trkpt lat="42.310331" lon="-8.804517">
        <ele>38.6</ele>
        <time>1970-01-01T03:46:49.000Z</time>
      </trkpt>
      <trkpt lat="42.310334" lon="-8.804516">
        <ele>38.6</ele>
        <time>1970-01-01T03:46:50.000Z</time>
      </trkpt>
      <trkpt lat="42.310334" lon="-8.804517">
        <ele>38.6</ele>
        <time>1970-01-01T03:46:51.000Z</time>
      </trkpt>
      <trkpt lat="42.310333" lon="-8.804516">
        <ele>38.6</ele>
        <time>1970-01-01T03:46:52.000Z</time>
      </trkpt>
      <trkpt lat="42.310331" lon="-8.804522">
        <ele>38.6</ele>
        <time>1970-01-01T03:46:53.000Z</time>
      </trkpt>
      <trkpt lat="42.310331" lon="-8.804529">
        <ele>38.6</ele>
        <time>1970-01-01T03:46:54.000Z</time>
      </trkpt>
      <trkpt lat="42.310327" lon="-8.804538">
        <ele>38.6</ele>
        <time>1970-01-01T03:46:55.000Z</time>
      </trkpt>
      <trkpt lat="42.310321" lon="-8.804553">
        <ele>38.4</ele>
        <time>1970-01-01T03:46:56.000Z</time>
      </trkpt>
      <trkpt lat="42.310317" lon="-8.804561">
        <ele>38.2</ele>
        <time>1970-01-01T03:46:57.000Z</time>
      </trkpt>
      <trkpt lat="42.310312" lon="-8.804568">
        <ele>37.8</ele>
        <time>1970-01-01T03:46:58.000Z</time>
      </trkpt>
      <trkpt lat="42.310313" lon="-8.804579">
        <ele>37.6</ele>
        <time>1970-01-01T03:46:59.000Z</time>
      </trkpt>
      <trkpt lat="42.310317" lon="-8.804596">
        <ele>37.4</ele>
        <time>1970-01-01T03:47:00.000Z</time>
      </trkpt>
      <trkpt lat="42.310326" lon="-8.804613">
        <ele>37.4</ele>
        <time>1970-01-01T03:47:01.000Z</time>
      </trkpt>
      <trkpt lat="42.310339" lon="-8.804625">
        <ele>37.4</ele>
        <time>1970-01-01T03:47:02.000Z</time>
      </trkpt>
      <trkpt lat="42.310346" lon="-8.804637">
        <ele>37.2</ele>
        <time>1970-01-01T03:47:03.000Z</time>
      </trkpt>
      <trkpt lat="42.310351" lon="-8.804643">
        <ele>37.2</ele>
        <time>1970-01-01T03:47:04.000Z</time>
      </trkpt>
      <trkpt lat="42.310359" lon="-8.804651">
        <ele>37.4</ele>
        <time>1970-01-01T03:47:05.000Z</time>
      </trkpt>
      <trkpt lat="42.310367" lon="-8.804657">
        <ele>37.4</ele>
        <time>1970-01-01T03:47:06.000Z</time>
      </trkpt>
      <trkpt lat="42.310379" lon="-8.804666">
        <ele>37.4</ele>
        <time>1970-01-01T03:47:07.000Z</time>
      </trkpt>
      <trkpt lat="42.310389" lon="-8.804677">
        <ele>37.6</ele>
        <time>1970-01-01T03:47:08.000Z</time>
      </trkpt>
      <trkpt lat="42.310405" lon="-8.804686">
        <ele>37.6</ele>
        <time>1970-01-01T03:47:09.000Z</time>
      </trkpt>
      <trkpt lat="42.310418" lon="-8.804693">
        <ele>37.8</ele>
        <time>1970-01-01T03:47:10.000Z</time>
      </trkpt>
      <trkpt lat="42.310432" lon="-8.8047">
        <ele>37.8</ele>
        <time>1970-01-01T03:47:11.000Z</time>
      </trkpt>
      <trkpt lat="42.310441" lon="-8.804711">
        <ele>38</ele>
        <time>1970-01-01T03:47:12.000Z</time>
      </trkpt>
      <trkpt lat="42.310448" lon="-8.804719">
        <ele>38.2</ele>
        <time>1970-01-01T03:47:13.000Z</time>
      </trkpt>
      <trkpt lat="42.310455" lon="-8.804727">
        <ele>38.2</ele>
        <time>1970-01-01T03:47:14.000Z</time>
      </trkpt>
      <trkpt lat="42.310466" lon="-8.804731">
        <ele>38.4</ele>
        <time>1970-01-01T03:47:15.000Z</time>
      </trkpt>
      <trkpt lat="42.310478" lon="-8.804734">
        <ele>38.4</ele>
        <time>1970-01-01T03:47:16.000Z</time>
      </trkpt>
      <trkpt lat="42.31049" lon="-8.804736">
        <ele>38.6</ele>
        <time>1970-01-01T03:47:17.000Z</time>
      </trkpt>
      <trkpt lat="42.310505" lon="-8.804744">
        <ele>38.6</ele>
        <time>1970-01-01T03:47:18.000Z</time>
      </trkpt>
      <trkpt lat="42.310518" lon="-8.804748">
        <ele>38.6</ele>
        <time>1970-01-01T03:47:19.000Z</time>
      </trkpt>
      <trkpt lat="42.310525" lon="-8.804748">
        <ele>38.6</ele>
        <time>1970-01-01T03:47:20.000Z</time>
      </trkpt>
      <trkpt lat="42.310531" lon="-8.804753">
        <ele>38.6</ele>
        <time>1970-01-01T03:47:21.000Z</time>
      </trkpt>
      <trkpt lat="42.310538" lon="-8.804755">
        <ele>38.6</ele>
        <time>1970-01-01T03:47:22.000Z</time>
      </trkpt>
      <trkpt lat="42.310552" lon="-8.804756">
        <ele>38.6</ele>
        <time>1970-01-01T03:47:23.000Z</time>
      </trkpt>
      <trkpt lat="42.310568" lon="-8.804761">
        <ele>38.8</ele>
        <time>1970-01-01T03:47:24.000Z</time>
      </trkpt>
      <trkpt lat="42.310582" lon="-8.80476">
        <ele>38.8</ele>
        <time>1970-01-01T03:47:25.000Z</time>
      </trkpt>
      <trkpt lat="42.310593" lon="-8.804763">
        <ele>38.8</ele>
        <time>1970-01-01T03:47:26.000Z</time>
      </trkpt>
      <trkpt lat="42.310604" lon="-8.804766">
        <ele>39</ele>
        <time>1970-01-01T03:47:27.000Z</time>
      </trkpt>
      <trkpt lat="42.310614" lon="-8.804766">
        <ele>39.2</ele>
        <time>1970-01-01T03:47:28.000Z</time>
      </trkpt>
      <trkpt lat="42.310623" lon="-8.804771">
        <ele>39.2</ele>
        <time>1970-01-01T03:47:29.000Z</time>
      </trkpt>
      <trkpt lat="42.310632" lon="-8.804777">
        <ele>39.4</ele>
        <time>1970-01-01T03:47:30.000Z</time>
      </trkpt>
      <trkpt lat="42.31064" lon="-8.804783">
        <ele>39.4</ele>
        <time>1970-01-01T03:47:31.000Z</time>
      </trkpt>
      <trkpt lat="42.310652" lon="-8.804789">
        <ele>39.6</ele>
        <time>1970-01-01T03:47:32.000Z</time>
      </trkpt>
      <trkpt lat="42.310666" lon="-8.804795">
        <ele>39.6</ele>
        <time>1970-01-01T03:47:33.000Z</time>
      </trkpt>
      <trkpt lat="42.310674" lon="-8.804797">
        <ele>39.6</ele>
        <time>1970-01-01T03:47:34.000Z</time>
      </trkpt>
      <trkpt lat="42.310679" lon="-8.804799">
        <ele>39.8</ele>
        <time>1970-01-01T03:47:35.000Z</time>
      </trkpt>
      <trkpt lat="42.310691" lon="-8.804807">
        <ele>40</ele>
        <time>1970-01-01T03:47:36.000Z</time>
      </trkpt>
      <trkpt lat="42.310703" lon="-8.804814">
        <ele>40</ele>
        <time>1970-01-01T03:47:37.000Z</time>
      </trkpt>
      <trkpt lat="42.310716" lon="-8.80482">
        <ele>40.2</ele>
        <time>1970-01-01T03:47:38.000Z</time>
      </trkpt>
      <trkpt lat="42.310728" lon="-8.804828">
        <ele>40.2</ele>
        <time>1970-01-01T03:47:39.000Z</time>
      </trkpt>
      <trkpt lat="42.310738" lon="-8.80484">
        <ele>40.4</ele>
        <time>1970-01-01T03:47:40.000Z</time>
      </trkpt>
      <trkpt lat="42.310745" lon="-8.804855">
        <ele>40.6</ele>
        <time>1970-01-01T03:47:41.000Z</time>
      </trkpt>
      <trkpt lat="42.31075" lon="-8.804868">
        <ele>41</ele>
        <time>1970-01-01T03:47:42.000Z</time>
      </trkpt>
      <trkpt lat="42.310753" lon="-8.804874">
        <ele>41</ele>
        <time>1970-01-01T03:47:43.000Z</time>
      </trkpt>
      <trkpt lat="42.310756" lon="-8.80488">
        <ele>41.2</ele>
        <time>1970-01-01T03:47:44.000Z</time>
      </trkpt>
      <trkpt lat="42.310759" lon="-8.804886">
        <ele>41.2</ele>
        <time>1970-01-01T03:47:45.000Z</time>
      </trkpt>
      <trkpt lat="42.310764" lon="-8.804895">
        <ele>41.4</ele>
        <time>1970-01-01T03:47:46.000Z</time>
      </trkpt>
      <trkpt lat="42.310768" lon="-8.804908">
        <ele>41.4</ele>
        <time>1970-01-01T03:47:47.000Z</time>
      </trkpt>
      <trkpt lat="42.310773" lon="-8.80492">
        <ele>41.6</ele>
        <time>1970-01-01T03:47:48.000Z</time>
      </trkpt>
      <trkpt lat="42.31078" lon="-8.804931">
        <ele>41</ele>
        <time>1970-01-01T03:47:49.000Z</time>
      </trkpt>
      <trkpt lat="42.310788" lon="-8.804939">
        <ele>40.8</ele>
        <time>1970-01-01T03:47:50.000Z</time>
      </trkpt>
      <trkpt lat="42.310797" lon="-8.804944">
        <ele>40.8</ele>
        <time>1970-01-01T03:47:51.000Z</time>
      </trkpt>
      <trkpt lat="42.310805" lon="-8.80495">
        <ele>40.6</ele>
        <time>1970-01-01T03:47:52.000Z</time>
      </trkpt>
      <trkpt lat="42.310813" lon="-8.804962">
        <ele>40.6</ele>
        <time>1970-01-01T03:47:53.000Z</time>
      </trkpt>
      <trkpt lat="42.310821" lon="-8.804971">
        <ele>40.6</ele>
        <time>1970-01-01T03:47:54.000Z</time>
      </trkpt>
      <trkpt lat="42.310829" lon="-8.804981">
        <ele>41</ele>
        <time>1970-01-01T03:47:55.000Z</time>
      </trkpt>
      <trkpt lat="42.310838" lon="-8.804992">
        <ele>41.2</ele>
        <time>1970-01-01T03:47:56.000Z</time>
      </trkpt>
      <trkpt lat="42.310846" lon="-8.805003">
        <ele>41.6</ele>
        <time>1970-01-01T03:47:57.000Z</time>
      </trkpt>
      <trkpt lat="42.310854" lon="-8.805017">
        <ele>41.6</ele>
        <time>1970-01-01T03:47:58.000Z</time>
      </trkpt>
      <trkpt lat="42.31086" lon="-8.805035">
        <ele>41.6</ele>
        <time>1970-01-01T03:47:59.000Z</time>
      </trkpt>
      <trkpt lat="42.310865" lon="-8.805057">
        <ele>42</ele>
        <time>1970-01-01T03:48:00.000Z</time>
      </trkpt>
      <trkpt lat="42.310871" lon="-8.805077">
        <ele>42</ele>
        <time>1970-01-01T03:48:01.000Z</time>
      </trkpt>
      <trkpt lat="42.310876" lon="-8.805097">
        <ele>42.2</ele>
        <time>1970-01-01T03:48:02.000Z</time>
      </trkpt>
      <trkpt lat="42.310884" lon="-8.805112">
        <ele>42.4</ele>
        <time>1970-01-01T03:48:03.000Z</time>
      </trkpt>
      <trkpt lat="42.310891" lon="-8.805128">
        <ele>42.4</ele>
        <time>1970-01-01T03:48:04.000Z</time>
      </trkpt>
      <trkpt lat="42.310896" lon="-8.805144">
        <ele>42.4</ele>
        <time>1970-01-01T03:48:05.000Z</time>
      </trkpt>
      <trkpt lat="42.310901" lon="-8.805154">
        <ele>42.4</ele>
        <time>1970-01-01T03:48:06.000Z</time>
      </trkpt>
      <trkpt lat="42.310904" lon="-8.805166">
        <ele>42.6</ele>
        <time>1970-01-01T03:48:07.000Z</time>
      </trkpt>
      <trkpt lat="42.310907" lon="-8.805182">
        <ele>42.6</ele>
        <time>1970-01-01T03:48:08.000Z</time>
      </trkpt>
      <trkpt lat="42.310907" lon="-8.805204">
        <ele>42.8</ele>
        <time>1970-01-01T03:48:09.000Z</time>
      </trkpt>
      <trkpt lat="42.310908" lon="-8.805222">
        <ele>42.8</ele>
        <time>1970-01-01T03:48:10.000Z</time>
      </trkpt>
      <trkpt lat="42.310912" lon="-8.805236">
        <ele>42.8</ele>
        <time>1970-01-01T03:48:11.000Z</time>
      </trkpt>
      <trkpt lat="42.310915" lon="-8.805242">
        <ele>42.8</ele>
        <time>1970-01-01T03:48:12.000Z</time>
      </trkpt>
      <trkpt lat="42.310917" lon="-8.805249">
        <ele>42.8</ele>
        <time>1970-01-01T03:48:13.000Z</time>
      </trkpt>
      <trkpt lat="42.310918" lon="-8.805252">
        <ele>42.8</ele>
        <time>1970-01-01T03:48:14.000Z</time>
      </trkpt>
      <trkpt lat="42.310918" lon="-8.805257">
        <ele>43</ele>
        <time>1970-01-01T03:48:15.000Z</time>
      </trkpt>
      <trkpt lat="42.310918" lon="-8.80526">
        <ele>43</ele>
        <time>1970-01-01T03:48:16.000Z</time>
      </trkpt>
      <trkpt lat="42.310919" lon="-8.805263">
        <ele>43</ele>
        <time>1970-01-01T03:48:17.000Z</time>
      </trkpt>
      <trkpt lat="42.310923" lon="-8.805268">
        <ele>43.4</ele>
        <time>1970-01-01T03:48:18.000Z</time>
      </trkpt>
      <trkpt lat="42.31093" lon="-8.805276">
        <ele>43.6</ele>
        <time>1970-01-01T03:48:19.000Z</time>
      </trkpt>
      <trkpt lat="42.310941" lon="-8.805281">
        <ele>43.6</ele>
        <time>1970-01-01T03:48:20.000Z</time>
      </trkpt>
      <trkpt lat="42.310956" lon="-8.805286">
        <ele>43.8</ele>
        <time>1970-01-01T03:48:21.000Z</time>
      </trkpt>
      <trkpt lat="42.31097" lon="-8.805287">
        <ele>44</ele>
        <time>1970-01-01T03:48:22.000Z</time>
      </trkpt>
      <trkpt lat="42.31098" lon="-8.80529">
        <ele>44.2</ele>
        <time>1970-01-01T03:48:23.000Z</time>
      </trkpt>
      <trkpt lat="42.310991" lon="-8.805291">
        <ele>44.2</ele>
        <time>1970-01-01T03:48:24.000Z</time>
      </trkpt>
      <trkpt lat="42.310999" lon="-8.805294">
        <ele>44.2</ele>
        <time>1970-01-01T03:48:25.000Z</time>
      </trkpt>
      <trkpt lat="42.311007" lon="-8.805297">
        <ele>44.4</ele>
        <time>1970-01-01T03:48:26.000Z</time>
      </trkpt>
      <trkpt lat="42.311015" lon="-8.805303">
        <ele>44.4</ele>
        <time>1970-01-01T03:48:27.000Z</time>
      </trkpt>
      <trkpt lat="42.311022" lon="-8.805308">
        <ele>44.6</ele>
        <time>1970-01-01T03:48:28.000Z</time>
      </trkpt>
      <trkpt lat="42.311029" lon="-8.805314">
        <ele>44.8</ele>
        <time>1970-01-01T03:48:29.000Z</time>
      </trkpt>
      <trkpt lat="42.311038" lon="-8.80532">
        <ele>44.8</ele>
        <time>1970-01-01T03:48:30.000Z</time>
      </trkpt>
      <trkpt lat="42.311043" lon="-8.805325">
        <ele>44.8</ele>
        <time>1970-01-01T03:48:31.000Z</time>
      </trkpt>
      <trkpt lat="42.311049" lon="-8.805329">
        <ele>45</ele>
        <time>1970-01-01T03:48:32.000Z</time>
      </trkpt>
      <trkpt lat="42.311054" lon="-8.805333">
        <ele>45</ele>
        <time>1970-01-01T03:48:33.000Z</time>
      </trkpt>
      <trkpt lat="42.311062" lon="-8.805338">
        <ele>45.4</ele>
        <time>1970-01-01T03:48:34.000Z</time>
      </trkpt>
      <trkpt lat="42.31107" lon="-8.805348">
        <ele>45.6</ele>
        <time>1970-01-01T03:48:35.000Z</time>
      </trkpt>
      <trkpt lat="42.31108" lon="-8.805357">
        <ele>45.8</ele>
        <time>1970-01-01T03:48:36.000Z</time>
      </trkpt>
      <trkpt lat="42.311086" lon="-8.805365">
        <ele>45.8</ele>
        <time>1970-01-01T03:48:37.000Z</time>
      </trkpt>
      <trkpt lat="42.311093" lon="-8.805374">
        <ele>45.8</ele>
        <time>1970-01-01T03:48:38.000Z</time>
      </trkpt>
      <trkpt lat="42.3111" lon="-8.805384">
        <ele>45.8</ele>
        <time>1970-01-01T03:48:39.000Z</time>
      </trkpt>
      <trkpt lat="42.311106" lon="-8.805392">
        <ele>45.8</ele>
        <time>1970-01-01T03:48:40.000Z</time>
      </trkpt>
      <trkpt lat="42.311113" lon="-8.805399">
        <ele>46</ele>
        <time>1970-01-01T03:48:41.000Z</time>
      </trkpt>
      <trkpt lat="42.311125" lon="-8.805407">
        <ele>46.4</ele>
        <time>1970-01-01T03:48:42.000Z</time>
      </trkpt>
      <trkpt lat="42.311134" lon="-8.805415">
        <ele>46.8</ele>
        <time>1970-01-01T03:48:43.000Z</time>
      </trkpt>
      <trkpt lat="42.311142" lon="-8.805423">
        <ele>47.2</ele>
        <time>1970-01-01T03:48:44.000Z</time>
      </trkpt>
      <trkpt lat="42.311151" lon="-8.805427">
        <ele>47.4</ele>
        <time>1970-01-01T03:48:45.000Z</time>
      </trkpt>
      <trkpt lat="42.311159" lon="-8.805433">
        <ele>47.6</ele>
        <time>1970-01-01T03:48:46.000Z</time>
      </trkpt>
      <trkpt lat="42.311167" lon="-8.805442">
        <ele>47.6</ele>
        <time>1970-01-01T03:48:47.000Z</time>
      </trkpt>
      <trkpt lat="42.311175" lon="-8.805449">
        <ele>47.8</ele>
        <time>1970-01-01T03:48:48.000Z</time>
      </trkpt>
      <trkpt lat="42.311183" lon="-8.805455">
        <ele>48</ele>
        <time>1970-01-01T03:48:49.000Z</time>
      </trkpt>
      <trkpt lat="42.311192" lon="-8.805461">
        <ele>48.2</ele>
        <time>1970-01-01T03:48:50.000Z</time>
      </trkpt>
      <trkpt lat="42.311199" lon="-8.805472">
        <ele>48.2</ele>
        <time>1970-01-01T03:48:51.000Z</time>
      </trkpt>
      <trkpt lat="42.311208" lon="-8.805491">
        <ele>48.4</ele>
        <time>1970-01-01T03:48:52.000Z</time>
      </trkpt>
      <trkpt lat="42.311219" lon="-8.805502">
        <ele>48.4</ele>
        <time>1970-01-01T03:48:53.000Z</time>
      </trkpt>
      <trkpt lat="42.311229" lon="-8.805507">
        <ele>48.4</ele>
        <time>1970-01-01T03:48:54.000Z</time>
      </trkpt>
      <trkpt lat="42.311237" lon="-8.805515">
        <ele>48.8</ele>
        <time>1970-01-01T03:48:55.000Z</time>
      </trkpt>
      <trkpt lat="42.311245" lon="-8.805524">
        <ele>49</ele>
        <time>1970-01-01T03:48:56.000Z</time>
      </trkpt>
      <trkpt lat="42.311257" lon="-8.805533">
        <ele>49.2</ele>
        <time>1970-01-01T03:48:57.000Z</time>
      </trkpt>
      <trkpt lat="42.311266" lon="-8.805543">
        <ele>49.4</ele>
        <time>1970-01-01T03:48:58.000Z</time>
      </trkpt>
      <trkpt lat="42.311274" lon="-8.805555">
        <ele>49.8</ele>
        <time>1970-01-01T03:48:59.000Z</time>
      </trkpt>
      <trkpt lat="42.311279" lon="-8.805571">
        <ele>50</ele>
        <time>1970-01-01T03:49:00.000Z</time>
      </trkpt>
      <trkpt lat="42.311285" lon="-8.805581">
        <ele>50</ele>
        <time>1970-01-01T03:49:01.000Z</time>
      </trkpt>
      <trkpt lat="42.311293" lon="-8.805588">
        <ele>50</ele>
        <time>1970-01-01T03:49:02.000Z</time>
      </trkpt>
      <trkpt lat="42.3113" lon="-8.805596">
        <ele>50</ele>
        <time>1970-01-01T03:49:03.000Z</time>
      </trkpt>
      <trkpt lat="42.311308" lon="-8.805602">
        <ele>50.4</ele>
        <time>1970-01-01T03:49:04.000Z</time>
      </trkpt>
      <trkpt lat="42.311312" lon="-8.805615">
        <ele>50.6</ele>
        <time>1970-01-01T03:49:05.000Z</time>
      </trkpt>
      <trkpt lat="42.31132" lon="-8.805629">
        <ele>50.6</ele>
        <time>1970-01-01T03:49:06.000Z</time>
      </trkpt>
      <trkpt lat="42.31133" lon="-8.805646">
        <ele>50.8</ele>
        <time>1970-01-01T03:49:07.000Z</time>
      </trkpt>
      <trkpt lat="42.311339" lon="-8.80566">
        <ele>50.8</ele>
        <time>1970-01-01T03:49:08.000Z</time>
      </trkpt>
      <trkpt lat="42.311352" lon="-8.805668">
        <ele>51</ele>
        <time>1970-01-01T03:49:09.000Z</time>
      </trkpt>
      <trkpt lat="42.311366" lon="-8.805675">
        <ele>51.4</ele>
        <time>1970-01-01T03:49:10.000Z</time>
      </trkpt>
      <trkpt lat="42.311379" lon="-8.805682">
        <ele>51.4</ele>
        <time>1970-01-01T03:49:11.000Z</time>
      </trkpt>
      <trkpt lat="42.31139" lon="-8.805686">
        <ele>51.4</ele>
        <time>1970-01-01T03:49:12.000Z</time>
      </trkpt>
      <trkpt lat="42.3114" lon="-8.805693">
        <ele>51.6</ele>
        <time>1970-01-01T03:49:13.000Z</time>
      </trkpt>
      <trkpt lat="42.311412" lon="-8.805695">
        <ele>51.8</ele>
        <time>1970-01-01T03:49:14.000Z</time>
      </trkpt>
      <trkpt lat="42.311422" lon="-8.805698">
        <ele>51.8</ele>
        <time>1970-01-01T03:49:15.000Z</time>
      </trkpt>
      <trkpt lat="42.311432" lon="-8.805699">
        <ele>51.8</ele>
        <time>1970-01-01T03:49:16.000Z</time>
      </trkpt>
      <trkpt lat="42.311443" lon="-8.805703">
        <ele>52</ele>
        <time>1970-01-01T03:49:17.000Z</time>
      </trkpt>
      <trkpt lat="42.311454" lon="-8.805708">
        <ele>52</ele>
        <time>1970-01-01T03:49:18.000Z</time>
      </trkpt>
      <trkpt lat="42.311464" lon="-8.805714">
        <ele>52.2</ele>
        <time>1970-01-01T03:49:19.000Z</time>
      </trkpt>
      <trkpt lat="42.311473" lon="-8.805721">
        <ele>52.2</ele>
        <time>1970-01-01T03:49:20.000Z</time>
      </trkpt>
      <trkpt lat="42.311482" lon="-8.805727">
        <ele>52</ele>
        <time>1970-01-01T03:49:21.000Z</time>
      </trkpt>
      <trkpt lat="42.31149" lon="-8.805732">
        <ele>52</ele>
        <time>1970-01-01T03:49:22.000Z</time>
      </trkpt>
      <trkpt lat="42.3115" lon="-8.805734">
        <ele>52</ele>
        <time>1970-01-01T03:49:23.000Z</time>
      </trkpt>
      <trkpt lat="42.311506" lon="-8.805735">
        <ele>51.8</ele>
        <time>1970-01-01T03:49:24.000Z</time>
      </trkpt>
      <trkpt lat="42.311511" lon="-8.805734">
        <ele>51.8</ele>
        <time>1970-01-01T03:49:25.000Z</time>
      </trkpt>
      <trkpt lat="42.311515" lon="-8.805732">
        <ele>51.6</ele>
        <time>1970-01-01T03:49:26.000Z</time>
      </trkpt>
      <trkpt lat="42.311518" lon="-8.805729">
        <ele>51.6</ele>
        <time>1970-01-01T03:49:27.000Z</time>
      </trkpt>
      <trkpt lat="42.311521" lon="-8.805729">
        <ele>51.6</ele>
        <time>1970-01-01T03:49:28.000Z</time>
      </trkpt>
      <trkpt lat="42.311523" lon="-8.80573">
        <ele>51.4</ele>
        <time>1970-01-01T03:49:29.000Z</time>
      </trkpt>
      <trkpt lat="42.311525" lon="-8.805731">
        <ele>51.4</ele>
        <time>1970-01-01T03:49:30.000Z</time>
      </trkpt>
      <trkpt lat="42.311528" lon="-8.80573">
        <ele>51.4</ele>
        <time>1970-01-01T03:49:31.000Z</time>
      </trkpt>
      <trkpt lat="42.311534" lon="-8.805729">
        <ele>51.2</ele>
        <time>1970-01-01T03:49:32.000Z</time>
      </trkpt>
      <trkpt lat="42.311541" lon="-8.805728">
        <ele>51.2</ele>
        <time>1970-01-01T03:49:33.000Z</time>
      </trkpt>
      <trkpt lat="42.311546" lon="-8.805732">
        <ele>51.2</ele>
        <time>1970-01-01T03:49:34.000Z</time>
      </trkpt>
      <trkpt lat="42.311555" lon="-8.805734">
        <ele>51.2</ele>
        <time>1970-01-01T03:49:35.000Z</time>
      </trkpt>
      <trkpt lat="42.31156" lon="-8.80574">
        <ele>51.4</ele>
        <time>1970-01-01T03:49:36.000Z</time>
      </trkpt>
      <trkpt lat="42.311567" lon="-8.805747">
        <ele>51.4</ele>
        <time>1970-01-01T03:49:37.000Z</time>
      </trkpt>
      <trkpt lat="42.311573" lon="-8.805755">
        <ele>51.4</ele>
        <time>1970-01-01T03:49:38.000Z</time>
      </trkpt>
      <trkpt lat="42.311579" lon="-8.805764">
        <ele>51.4</ele>
        <time>1970-01-01T03:49:39.000Z</time>
      </trkpt>
      <trkpt lat="42.311588" lon="-8.805772">
        <ele>51.4</ele>
        <time>1970-01-01T03:49:40.000Z</time>
      </trkpt>
      <trkpt lat="42.311598" lon="-8.805779">
        <ele>51.2</ele>
        <time>1970-01-01T03:49:41.000Z</time>
      </trkpt>
      <trkpt lat="42.311607" lon="-8.805788">
        <ele>51</ele>
        <time>1970-01-01T03:49:42.000Z</time>
      </trkpt>
      <trkpt lat="42.311615" lon="-8.805793">
        <ele>51</ele>
        <time>1970-01-01T03:49:43.000Z</time>
      </trkpt>
      <trkpt lat="42.311622" lon="-8.805798">
        <ele>50.8</ele>
        <time>1970-01-01T03:49:44.000Z</time>
      </trkpt>
      <trkpt lat="42.31163" lon="-8.805803">
        <ele>50.6</ele>
        <time>1970-01-01T03:49:45.000Z</time>
      </trkpt>
      <trkpt lat="42.311637" lon="-8.805809">
        <ele>50.4</ele>
        <time>1970-01-01T03:49:46.000Z</time>
      </trkpt>
      <trkpt lat="42.311645" lon="-8.805818">
        <ele>50.2</ele>
        <time>1970-01-01T03:49:47.000Z</time>
      </trkpt>
      <trkpt lat="42.311655" lon="-8.805824">
        <ele>50</ele>
        <time>1970-01-01T03:49:48.000Z</time>
      </trkpt>
      <trkpt lat="42.311668" lon="-8.805829">
        <ele>49.4</ele>
        <time>1970-01-01T03:49:49.000Z</time>
      </trkpt>
      <trkpt lat="42.31168" lon="-8.805839">
        <ele>49.2</ele>
        <time>1970-01-01T03:49:50.000Z</time>
      </trkpt>
      <trkpt lat="42.311692" lon="-8.805852">
        <ele>49</ele>
        <time>1970-01-01T03:49:51.000Z</time>
      </trkpt>
      <trkpt lat="42.311702" lon="-8.805867">
        <ele>48.8</ele>
        <time>1970-01-01T03:49:52.000Z</time>
      </trkpt>
      <trkpt lat="42.311711" lon="-8.805883">
        <ele>48.8</ele>
        <time>1970-01-01T03:49:53.000Z</time>
      </trkpt>
      <trkpt lat="42.311718" lon="-8.8059">
        <ele>48.6</ele>
        <time>1970-01-01T03:49:54.000Z</time>
      </trkpt>
      <trkpt lat="42.311722" lon="-8.805917">
        <ele>48.6</ele>
        <time>1970-01-01T03:49:55.000Z</time>
      </trkpt>
      <trkpt lat="42.311724" lon="-8.805934">
        <ele>48.6</ele>
        <time>1970-01-01T03:49:56.000Z</time>
      </trkpt>
      <trkpt lat="42.311725" lon="-8.805953">
        <ele>48.6</ele>
        <time>1970-01-01T03:49:57.000Z</time>
      </trkpt>
      <trkpt lat="42.311726" lon="-8.805976">
        <ele>48.4</ele>
        <time>1970-01-01T03:49:58.000Z</time>
      </trkpt>
      <trkpt lat="42.311732" lon="-8.805997">
        <ele>48.2</ele>
        <time>1970-01-01T03:49:59.000Z</time>
      </trkpt>
      <trkpt lat="42.311738" lon="-8.806018">
        <ele>48</ele>
        <time>1970-01-01T03:50:00.000Z</time>
      </trkpt>
      <trkpt lat="42.311745" lon="-8.806035">
        <ele>48</ele>
        <time>1970-01-01T03:50:01.000Z</time>
      </trkpt>
      <trkpt lat="42.311749" lon="-8.806051">
        <ele>47.8</ele>
        <time>1970-01-01T03:50:02.000Z</time>
      </trkpt>
      <trkpt lat="42.311753" lon="-8.806066">
        <ele>47.6</ele>
        <time>1970-01-01T03:50:03.000Z</time>
      </trkpt>
      <trkpt lat="42.311758" lon="-8.806083">
        <ele>47.4</ele>
        <time>1970-01-01T03:50:04.000Z</time>
      </trkpt>
      <trkpt lat="42.311765" lon="-8.806101">
        <ele>47</ele>
        <time>1970-01-01T03:50:05.000Z</time>
      </trkpt>
      <trkpt lat="42.311771" lon="-8.806118">
        <ele>47</ele>
        <time>1970-01-01T03:50:06.000Z</time>
      </trkpt>
      <trkpt lat="42.311778" lon="-8.806136">
        <ele>46.8</ele>
        <time>1970-01-01T03:50:07.000Z</time>
      </trkpt>
      <trkpt lat="42.311784" lon="-8.806158">
        <ele>46.6</ele>
        <time>1970-01-01T03:50:08.000Z</time>
      </trkpt>
      <trkpt lat="42.311788" lon="-8.806177">
        <ele>46.6</ele>
        <time>1970-01-01T03:50:09.000Z</time>
      </trkpt>
      <trkpt lat="42.311791" lon="-8.806193">
        <ele>46.6</ele>
        <time>1970-01-01T03:50:10.000Z</time>
      </trkpt>
      <trkpt lat="42.311794" lon="-8.806213">
        <ele>46.6</ele>
        <time>1970-01-01T03:50:11.000Z</time>
      </trkpt>
      <trkpt lat="42.311797" lon="-8.806234">
        <ele>46.6</ele>
        <time>1970-01-01T03:50:12.000Z</time>
      </trkpt>
      <trkpt lat="42.311803" lon="-8.806257">
        <ele>46.6</ele>
        <time>1970-01-01T03:50:13.000Z</time>
      </trkpt>
      <trkpt lat="42.311807" lon="-8.806283">
        <ele>46.6</ele>
        <time>1970-01-01T03:50:14.000Z</time>
      </trkpt>
      <trkpt lat="42.31181" lon="-8.806304">
        <ele>46.6</ele>
        <time>1970-01-01T03:50:15.000Z</time>
      </trkpt>
      <trkpt lat="42.311813" lon="-8.806325">
        <ele>46.4</ele>
        <time>1970-01-01T03:50:16.000Z</time>
      </trkpt>
      <trkpt lat="42.311816" lon="-8.806343">
        <ele>46.6</ele>
        <time>1970-01-01T03:50:17.000Z</time>
      </trkpt>
      <trkpt lat="42.311818" lon="-8.806364">
        <ele>46.4</ele>
        <time>1970-01-01T03:50:18.000Z</time>
      </trkpt>
      <trkpt lat="42.311823" lon="-8.806378">
        <ele>46.2</ele>
        <time>1970-01-01T03:50:19.000Z</time>
      </trkpt>
      <trkpt lat="42.311829" lon="-8.806394">
        <ele>46.2</ele>
        <time>1970-01-01T03:50:20.000Z</time>
      </trkpt>
      <trkpt lat="42.311833" lon="-8.806408">
        <ele>46.2</ele>
        <time>1970-01-01T03:50:21.000Z</time>
      </trkpt>
      <trkpt lat="42.311838" lon="-8.806413">
        <ele>46.2</ele>
        <time>1970-01-01T03:50:22.000Z</time>
      </trkpt>
      <trkpt lat="42.311843" lon="-8.806427">
        <ele>46.2</ele>
        <time>1970-01-01T03:50:23.000Z</time>
      </trkpt>
      <trkpt lat="42.311847" lon="-8.806442">
        <ele>46.2</ele>
        <time>1970-01-01T03:50:24.000Z</time>
      </trkpt>
      <trkpt lat="42.311849" lon="-8.806458">
        <ele>46.4</ele>
        <time>1970-01-01T03:50:25.000Z</time>
      </trkpt>
      <trkpt lat="42.31185" lon="-8.806474">
        <ele>46.4</ele>
        <time>1970-01-01T03:50:26.000Z</time>
      </trkpt>
      <trkpt lat="42.311848" lon="-8.806483">
        <ele>46.6</ele>
        <time>1970-01-01T03:50:27.000Z</time>
      </trkpt>
      <trkpt lat="42.311848" lon="-8.806499">
        <ele>46.6</ele>
        <time>1970-01-01T03:50:28.000Z</time>
      </trkpt>
      <trkpt lat="42.311851" lon="-8.80652">
        <ele>46.8</ele>
        <time>1970-01-01T03:50:29.000Z</time>
      </trkpt>
      <trkpt lat="42.311852" lon="-8.806545">
        <ele>46.6</ele>
        <time>1970-01-01T03:50:30.000Z</time>
      </trkpt>
      <trkpt lat="42.311853" lon="-8.806568">
        <ele>46.6</ele>
        <time>1970-01-01T03:50:31.000Z</time>
      </trkpt>
      <trkpt lat="42.311856" lon="-8.80659">
        <ele>46.4</ele>
        <time>1970-01-01T03:50:32.000Z</time>
      </trkpt>
      <trkpt lat="42.311858" lon="-8.806607">
        <ele>46.2</ele>
        <time>1970-01-01T03:50:33.000Z</time>
      </trkpt>
      <trkpt lat="42.311863" lon="-8.80662">
        <ele>45.8</ele>
        <time>1970-01-01T03:50:34.000Z</time>
      </trkpt>
      <trkpt lat="42.311867" lon="-8.806631">
        <ele>45.8</ele>
        <time>1970-01-01T03:50:35.000Z</time>
      </trkpt>
      <trkpt lat="42.311872" lon="-8.806647">
        <ele>45.6</ele>
        <time>1970-01-01T03:50:36.000Z</time>
      </trkpt>
      <trkpt lat="42.311878" lon="-8.806671">
        <ele>45.4</ele>
        <time>1970-01-01T03:50:37.000Z</time>
      </trkpt>
      <trkpt lat="42.311882" lon="-8.806692">
        <ele>45.4</ele>
        <time>1970-01-01T03:50:38.000Z</time>
      </trkpt>
      <trkpt lat="42.311886" lon="-8.806712">
        <ele>45.2</ele>
        <time>1970-01-01T03:50:39.000Z</time>
      </trkpt>
      <trkpt lat="42.311888" lon="-8.806727">
        <ele>45</ele>
        <time>1970-01-01T03:50:40.000Z</time>
      </trkpt>
      <trkpt lat="42.311891" lon="-8.806743">
        <ele>44.8</ele>
        <time>1970-01-01T03:50:41.000Z</time>
      </trkpt>
      <trkpt lat="42.311893" lon="-8.806758">
        <ele>44.8</ele>
        <time>1970-01-01T03:50:42.000Z</time>
      </trkpt>
      <trkpt lat="42.311896" lon="-8.806773">
        <ele>44.6</ele>
        <time>1970-01-01T03:50:43.000Z</time>
      </trkpt>
      <trkpt lat="42.311901" lon="-8.80679">
        <ele>44.6</ele>
        <time>1970-01-01T03:50:44.000Z</time>
      </trkpt>
      <trkpt lat="42.311906" lon="-8.806808">
        <ele>44.4</ele>
        <time>1970-01-01T03:50:45.000Z</time>
      </trkpt>
      <trkpt lat="42.31191" lon="-8.806826">
        <ele>44.4</ele>
        <time>1970-01-01T03:50:46.000Z</time>
      </trkpt>
      <trkpt lat="42.311916" lon="-8.806842">
        <ele>44.4</ele>
        <time>1970-01-01T03:50:47.000Z</time>
      </trkpt>
      <trkpt lat="42.311921" lon="-8.806859">
        <ele>44.4</ele>
        <time>1970-01-01T03:50:48.000Z</time>
      </trkpt>
      <trkpt lat="42.311927" lon="-8.806872">
        <ele>44.4</ele>
        <time>1970-01-01T03:50:49.000Z</time>
      </trkpt>
      <trkpt lat="42.311933" lon="-8.806888">
        <ele>44.4</ele>
        <time>1970-01-01T03:50:50.000Z</time>
      </trkpt>
      <trkpt lat="42.311942" lon="-8.806912">
        <ele>44.4</ele>
        <time>1970-01-01T03:50:51.000Z</time>
      </trkpt>
      <trkpt lat="42.311949" lon="-8.806934">
        <ele>44.6</ele>
        <time>1970-01-01T03:50:52.000Z</time>
      </trkpt>
      <trkpt lat="42.311957" lon="-8.806949">
        <ele>44.6</ele>
        <time>1970-01-01T03:50:53.000Z</time>
      </trkpt>
      <trkpt lat="42.311964" lon="-8.806963">
        <ele>44.6</ele>
        <time>1970-01-01T03:50:54.000Z</time>
      </trkpt>
      <trkpt lat="42.311971" lon="-8.806976">
        <ele>44.6</ele>
        <time>1970-01-01T03:50:55.000Z</time>
      </trkpt>
      <trkpt lat="42.311977" lon="-8.806989">
        <ele>44.6</ele>
        <time>1970-01-01T03:50:56.000Z</time>
      </trkpt>
      <trkpt lat="42.311982" lon="-8.807005">
        <ele>44.4</ele>
        <time>1970-01-01T03:50:57.000Z</time>
      </trkpt>
      <trkpt lat="42.311987" lon="-8.807023">
        <ele>44.4</ele>
        <time>1970-01-01T03:50:58.000Z</time>
      </trkpt>
      <trkpt lat="42.311992" lon="-8.807041">
        <ele>44.4</ele>
        <time>1970-01-01T03:50:59.000Z</time>
      </trkpt>
      <trkpt lat="42.311997" lon="-8.807053">
        <ele>44.4</ele>
        <time>1970-01-01T03:51:00.000Z</time>
      </trkpt>
      <trkpt lat="42.312004" lon="-8.807072">
        <ele>44.2</ele>
        <time>1970-01-01T03:51:01.000Z</time>
      </trkpt>
      <trkpt lat="42.312013" lon="-8.807088">
        <ele>44.2</ele>
        <time>1970-01-01T03:51:02.000Z</time>
      </trkpt>
      <trkpt lat="42.312023" lon="-8.807113">
        <ele>44.2</ele>
        <time>1970-01-01T03:51:03.000Z</time>
      </trkpt>
      <trkpt lat="42.312034" lon="-8.807129">
        <ele>44.2</ele>
        <time>1970-01-01T03:51:04.000Z</time>
      </trkpt>
      <trkpt lat="42.312041" lon="-8.807148">
        <ele>44</ele>
        <time>1970-01-01T03:51:05.000Z</time>
      </trkpt>
      <trkpt lat="42.312047" lon="-8.807163">
        <ele>44</ele>
        <time>1970-01-01T03:51:06.000Z</time>
      </trkpt>
      <trkpt lat="42.312052" lon="-8.807178">
        <ele>43.8</ele>
        <time>1970-01-01T03:51:07.000Z</time>
      </trkpt>
      <trkpt lat="42.312059" lon="-8.807191">
        <ele>43.4</ele>
        <time>1970-01-01T03:51:08.000Z</time>
      </trkpt>
      <trkpt lat="42.312067" lon="-8.807206">
        <ele>43.2</ele>
        <time>1970-01-01T03:51:09.000Z</time>
      </trkpt>
      <trkpt lat="42.312075" lon="-8.807223">
        <ele>43.2</ele>
        <time>1970-01-01T03:51:10.000Z</time>
      </trkpt>
      <trkpt lat="42.31208" lon="-8.80724">
        <ele>43.2</ele>
        <time>1970-01-01T03:51:11.000Z</time>
      </trkpt>
      <trkpt lat="42.312081" lon="-8.807251">
        <ele>43.2</ele>
        <time>1970-01-01T03:51:12.000Z</time>
      </trkpt>
      <trkpt lat="42.312081" lon="-8.807268">
        <ele>43.4</ele>
        <time>1970-01-01T03:51:13.000Z</time>
      </trkpt>
      <trkpt lat="42.312081" lon="-8.807283">
        <ele>43.4</ele>
        <time>1970-01-01T03:51:14.000Z</time>
      </trkpt>
      <trkpt lat="42.312084" lon="-8.807302">
        <ele>43.4</ele>
        <time>1970-01-01T03:51:15.000Z</time>
      </trkpt>
      <trkpt lat="42.312088" lon="-8.807315">
        <ele>43.4</ele>
        <time>1970-01-01T03:51:16.000Z</time>
      </trkpt>
      <trkpt lat="42.312094" lon="-8.807338">
        <ele>43.4</ele>
        <time>1970-01-01T03:51:17.000Z</time>
      </trkpt>
      <trkpt lat="42.312101" lon="-8.80736">
        <ele>43.4</ele>
        <time>1970-01-01T03:51:18.000Z</time>
      </trkpt>
      <trkpt lat="42.31211" lon="-8.807385">
        <ele>43.4</ele>
        <time>1970-01-01T03:51:19.000Z</time>
      </trkpt>
      <trkpt lat="42.312118" lon="-8.807404">
        <ele>43.2</ele>
        <time>1970-01-01T03:51:20.000Z</time>
      </trkpt>
      <trkpt lat="42.312122" lon="-8.807424">
        <ele>43.2</ele>
        <time>1970-01-01T03:51:21.000Z</time>
      </trkpt>
      <trkpt lat="42.312124" lon="-8.807438">
        <ele>43.2</ele>
        <time>1970-01-01T03:51:22.000Z</time>
      </trkpt>
      <trkpt lat="42.312128" lon="-8.807456">
        <ele>43</ele>
        <time>1970-01-01T03:51:23.000Z</time>
      </trkpt>
      <trkpt lat="42.312132" lon="-8.80747">
        <ele>43</ele>
        <time>1970-01-01T03:51:24.000Z</time>
      </trkpt>
      <trkpt lat="42.312138" lon="-8.807486">
        <ele>42.6</ele>
        <time>1970-01-01T03:51:25.000Z</time>
      </trkpt>
      <trkpt lat="42.312144" lon="-8.807503">
        <ele>42.6</ele>
        <time>1970-01-01T03:51:26.000Z</time>
      </trkpt>
      <trkpt lat="42.312149" lon="-8.807518">
        <ele>42.4</ele>
        <time>1970-01-01T03:51:27.000Z</time>
      </trkpt>
      <trkpt lat="42.312154" lon="-8.807532">
        <ele>42.4</ele>
        <time>1970-01-01T03:51:28.000Z</time>
      </trkpt>
      <trkpt lat="42.312158" lon="-8.807549">
        <ele>42.4</ele>
        <time>1970-01-01T03:51:29.000Z</time>
      </trkpt>
      <trkpt lat="42.312161" lon="-8.807564">
        <ele>42.2</ele>
        <time>1970-01-01T03:51:30.000Z</time>
      </trkpt>
      <trkpt lat="42.312165" lon="-8.807575">
        <ele>42.2</ele>
        <time>1970-01-01T03:51:31.000Z</time>
      </trkpt>
      <trkpt lat="42.31217" lon="-8.807587">
        <ele>42.2</ele>
        <time>1970-01-01T03:51:32.000Z</time>
      </trkpt>
      <trkpt lat="42.312175" lon="-8.807602">
        <ele>42.2</ele>
        <time>1970-01-01T03:51:33.000Z</time>
      </trkpt>
      <trkpt lat="42.312177" lon="-8.807619">
        <ele>42.2</ele>
        <time>1970-01-01T03:51:34.000Z</time>
      </trkpt>
      <trkpt lat="42.312179" lon="-8.807637">
        <ele>42.2</ele>
        <time>1970-01-01T03:51:35.000Z</time>
      </trkpt>
      <trkpt lat="42.312181" lon="-8.807658">
        <ele>42.2</ele>
        <time>1970-01-01T03:51:36.000Z</time>
      </trkpt>
      <trkpt lat="42.312183" lon="-8.807676">
        <ele>42.2</ele>
        <time>1970-01-01T03:51:37.000Z</time>
      </trkpt>
      <trkpt lat="42.312186" lon="-8.807696">
        <ele>42.2</ele>
        <time>1970-01-01T03:51:38.000Z</time>
      </trkpt>
      <trkpt lat="42.312192" lon="-8.807714">
        <ele>42.2</ele>
        <time>1970-01-01T03:51:39.000Z</time>
      </trkpt>
      <trkpt lat="42.312192" lon="-8.807738">
        <ele>42</ele>
        <time>1970-01-01T03:51:40.000Z</time>
      </trkpt>
      <trkpt lat="42.312196" lon="-8.80776">
        <ele>42</ele>
        <time>1970-01-01T03:51:41.000Z</time>
      </trkpt>
      <trkpt lat="42.312203" lon="-8.807784">
        <ele>42</ele>
        <time>1970-01-01T03:51:42.000Z</time>
      </trkpt>
      <trkpt lat="42.31221" lon="-8.807803">
        <ele>42</ele>
        <time>1970-01-01T03:51:43.000Z</time>
      </trkpt>
      <trkpt lat="42.312213" lon="-8.80782">
        <ele>42</ele>
        <time>1970-01-01T03:51:44.000Z</time>
      </trkpt>
      <trkpt lat="42.312217" lon="-8.807837">
        <ele>42</ele>
        <time>1970-01-01T03:51:45.000Z</time>
      </trkpt>
      <trkpt lat="42.312222" lon="-8.807853">
        <ele>42</ele>
        <time>1970-01-01T03:51:46.000Z</time>
      </trkpt>
      <trkpt lat="42.312228" lon="-8.807871">
        <ele>42</ele>
        <time>1970-01-01T03:51:47.000Z</time>
      </trkpt>
      <trkpt lat="42.312235" lon="-8.80789">
        <ele>42</ele>
        <time>1970-01-01T03:51:48.000Z</time>
      </trkpt>
      <trkpt lat="42.312245" lon="-8.807908">
        <ele>41.8</ele>
        <time>1970-01-01T03:51:49.000Z</time>
      </trkpt>
      <trkpt lat="42.312252" lon="-8.807921">
        <ele>41.6</ele>
        <time>1970-01-01T03:51:50.000Z</time>
      </trkpt>
      <trkpt lat="42.31226" lon="-8.807934">
        <ele>41.4</ele>
        <time>1970-01-01T03:51:51.000Z</time>
      </trkpt>
      <trkpt lat="42.312267" lon="-8.807949">
        <ele>41.4</ele>
        <time>1970-01-01T03:51:52.000Z</time>
      </trkpt>
      <trkpt lat="42.312275" lon="-8.807964">
        <ele>41.2</ele>
        <time>1970-01-01T03:51:53.000Z</time>
      </trkpt>
      <trkpt lat="42.312283" lon="-8.807978">
        <ele>41.2</ele>
        <time>1970-01-01T03:51:54.000Z</time>
      </trkpt>
      <trkpt lat="42.312291" lon="-8.80799">
        <ele>41.2</ele>
        <time>1970-01-01T03:51:55.000Z</time>
      </trkpt>
      <trkpt lat="42.312298" lon="-8.807999">
        <ele>41.2</ele>
        <time>1970-01-01T03:51:56.000Z</time>
      </trkpt>
      <trkpt lat="42.312306" lon="-8.80801">
        <ele>41.2</ele>
        <time>1970-01-01T03:51:57.000Z</time>
      </trkpt>
      <trkpt lat="42.312314" lon="-8.808018">
        <ele>41</ele>
        <time>1970-01-01T03:51:58.000Z</time>
      </trkpt>
      <trkpt lat="42.312319" lon="-8.808025">
        <ele>40.8</ele>
        <time>1970-01-01T03:51:59.000Z</time>
      </trkpt>
      <trkpt lat="42.312322" lon="-8.808035">
        <ele>40.6</ele>
        <time>1970-01-01T03:52:00.000Z</time>
      </trkpt>
      <trkpt lat="42.31233" lon="-8.808045">
        <ele>40.6</ele>
        <time>1970-01-01T03:52:01.000Z</time>
      </trkpt>
      <trkpt lat="42.312339" lon="-8.808054">
        <ele>40.6</ele>
        <time>1970-01-01T03:52:02.000Z</time>
      </trkpt>
      <trkpt lat="42.312346" lon="-8.808062">
        <ele>40.6</ele>
        <time>1970-01-01T03:52:03.000Z</time>
      </trkpt>
      <trkpt lat="42.312355" lon="-8.808069">
        <ele>40.6</ele>
        <time>1970-01-01T03:52:04.000Z</time>
      </trkpt>
      <trkpt lat="42.312367" lon="-8.808082">
        <ele>40.4</ele>
        <time>1970-01-01T03:52:05.000Z</time>
      </trkpt>
      <trkpt lat="42.312381" lon="-8.808094">
        <ele>40.4</ele>
        <time>1970-01-01T03:52:06.000Z</time>
      </trkpt>
      <trkpt lat="42.312392" lon="-8.808114">
        <ele>40.4</ele>
        <time>1970-01-01T03:52:07.000Z</time>
      </trkpt>
      <trkpt lat="42.312403" lon="-8.80813">
        <ele>40</ele>
        <time>1970-01-01T03:52:08.000Z</time>
      </trkpt>
      <trkpt lat="42.312411" lon="-8.808149">
        <ele>39.8</ele>
        <time>1970-01-01T03:52:09.000Z</time>
      </trkpt>
      <trkpt lat="42.312421" lon="-8.808165">
        <ele>39.6</ele>
        <time>1970-01-01T03:52:10.000Z</time>
      </trkpt>
      <trkpt lat="42.312433" lon="-8.808175">
        <ele>39.4</ele>
        <time>1970-01-01T03:52:11.000Z</time>
      </trkpt>
      <trkpt lat="42.31245" lon="-8.808181">
        <ele>39.2</ele>
        <time>1970-01-01T03:52:12.000Z</time>
      </trkpt>
      <trkpt lat="42.312464" lon="-8.808191">
        <ele>39</ele>
        <time>1970-01-01T03:52:13.000Z</time>
      </trkpt>
      <trkpt lat="42.312482" lon="-8.808195">
        <ele>38.8</ele>
        <time>1970-01-01T03:52:14.000Z</time>
      </trkpt>
      <trkpt lat="42.312499" lon="-8.808198">
        <ele>38.6</ele>
        <time>1970-01-01T03:52:15.000Z</time>
      </trkpt>
      <trkpt lat="42.312517" lon="-8.808205">
        <ele>38.4</ele>
        <time>1970-01-01T03:52:16.000Z</time>
      </trkpt>
      <trkpt lat="42.312538" lon="-8.808208">
        <ele>38.4</ele>
        <time>1970-01-01T03:52:17.000Z</time>
      </trkpt>
      <trkpt lat="42.312551" lon="-8.808213">
        <ele>38.4</ele>
        <time>1970-01-01T03:52:18.000Z</time>
      </trkpt>
      <trkpt lat="42.312563" lon="-8.808217">
        <ele>38.4</ele>
        <time>1970-01-01T03:52:19.000Z</time>
      </trkpt>
      <trkpt lat="42.312576" lon="-8.808222">
        <ele>38.4</ele>
        <time>1970-01-01T03:52:20.000Z</time>
      </trkpt>
      <trkpt lat="42.312586" lon="-8.808233">
        <ele>38.4</ele>
        <time>1970-01-01T03:52:21.000Z</time>
      </trkpt>
      <trkpt lat="42.312599" lon="-8.808239">
        <ele>38.4</ele>
        <time>1970-01-01T03:52:22.000Z</time>
      </trkpt>
      <trkpt lat="42.312616" lon="-8.808245">
        <ele>38.4</ele>
        <time>1970-01-01T03:52:23.000Z</time>
      </trkpt>
      <trkpt lat="42.312636" lon="-8.808256">
        <ele>38.4</ele>
        <time>1970-01-01T03:52:24.000Z</time>
      </trkpt>
      <trkpt lat="42.312653" lon="-8.808262">
        <ele>38.6</ele>
        <time>1970-01-01T03:52:25.000Z</time>
      </trkpt>
      <trkpt lat="42.31267" lon="-8.808267">
        <ele>38.6</ele>
        <time>1970-01-01T03:52:26.000Z</time>
      </trkpt>
      <trkpt lat="42.312688" lon="-8.808272">
        <ele>38.6</ele>
        <time>1970-01-01T03:52:27.000Z</time>
      </trkpt>
      <trkpt lat="42.312706" lon="-8.808279">
        <ele>38.8</ele>
        <time>1970-01-01T03:52:28.000Z</time>
      </trkpt>
      <trkpt lat="42.312718" lon="-8.808285">
        <ele>38.8</ele>
        <time>1970-01-01T03:52:29.000Z</time>
      </trkpt>
      <trkpt lat="42.312732" lon="-8.808289">
        <ele>38.8</ele>
        <time>1970-01-01T03:52:30.000Z</time>
      </trkpt>
      <trkpt lat="42.312747" lon="-8.808291">
        <ele>38.8</ele>
        <time>1970-01-01T03:52:31.000Z</time>
      </trkpt>
      <trkpt lat="42.312762" lon="-8.808296">
        <ele>38.8</ele>
        <time>1970-01-01T03:52:32.000Z</time>
      </trkpt>
      <trkpt lat="42.312774" lon="-8.808307">
        <ele>38.8</ele>
        <time>1970-01-01T03:52:33.000Z</time>
      </trkpt>
      <trkpt lat="42.312786" lon="-8.808315">
        <ele>38.8</ele>
        <time>1970-01-01T03:52:34.000Z</time>
      </trkpt>
      <trkpt lat="42.312798" lon="-8.808323">
        <ele>38.8</ele>
        <time>1970-01-01T03:52:35.000Z</time>
      </trkpt>
      <trkpt lat="42.312809" lon="-8.808334">
        <ele>39</ele>
        <time>1970-01-01T03:52:36.000Z</time>
      </trkpt>
      <trkpt lat="42.312822" lon="-8.808334">
        <ele>39.2</ele>
        <time>1970-01-01T03:52:37.000Z</time>
      </trkpt>
      <trkpt lat="42.312831" lon="-8.808351">
        <ele>39.2</ele>
        <time>1970-01-01T03:52:38.000Z</time>
      </trkpt>
      <trkpt lat="42.312841" lon="-8.808367">
        <ele>39.4</ele>
        <time>1970-01-01T03:52:39.000Z</time>
      </trkpt>
      <trkpt lat="42.312851" lon="-8.808378">
        <ele>39.6</ele>
        <time>1970-01-01T03:52:40.000Z</time>
      </trkpt>
      <trkpt lat="42.312863" lon="-8.808383">
        <ele>39.6</ele>
        <time>1970-01-01T03:52:41.000Z</time>
      </trkpt>
      <trkpt lat="42.312875" lon="-8.808388">
        <ele>39.8</ele>
        <time>1970-01-01T03:52:42.000Z</time>
      </trkpt>
      <trkpt lat="42.312889" lon="-8.808393">
        <ele>40</ele>
        <time>1970-01-01T03:52:43.000Z</time>
      </trkpt>
      <trkpt lat="42.312905" lon="-8.808395">
        <ele>40.2</ele>
        <time>1970-01-01T03:52:44.000Z</time>
      </trkpt>
      <trkpt lat="42.312921" lon="-8.808399">
        <ele>40.2</ele>
        <time>1970-01-01T03:52:45.000Z</time>
      </trkpt>
      <trkpt lat="42.312935" lon="-8.8084">
        <ele>40.4</ele>
        <time>1970-01-01T03:52:46.000Z</time>
      </trkpt>
      <trkpt lat="42.312949" lon="-8.808397">
        <ele>40.4</ele>
        <time>1970-01-01T03:52:47.000Z</time>
      </trkpt>
      <trkpt lat="42.312964" lon="-8.808396">
        <ele>40.4</ele>
        <time>1970-01-01T03:52:48.000Z</time>
      </trkpt>
      <trkpt lat="42.312979" lon="-8.808394">
        <ele>40.6</ele>
        <time>1970-01-01T03:52:49.000Z</time>
      </trkpt>
      <trkpt lat="42.312994" lon="-8.808391">
        <ele>40.8</ele>
        <time>1970-01-01T03:52:50.000Z</time>
      </trkpt>
      <trkpt lat="42.313007" lon="-8.80839">
        <ele>41</ele>
        <time>1970-01-01T03:52:51.000Z</time>
      </trkpt>
      <trkpt lat="42.31302" lon="-8.808389">
        <ele>41.2</ele>
        <time>1970-01-01T03:52:52.000Z</time>
      </trkpt>
      <trkpt lat="42.313032" lon="-8.808391">
        <ele>41.4</ele>
        <time>1970-01-01T03:52:53.000Z</time>
      </trkpt>
      <trkpt lat="42.313043" lon="-8.808392">
        <ele>41.4</ele>
        <time>1970-01-01T03:52:54.000Z</time>
      </trkpt>
      <trkpt lat="42.313055" lon="-8.808398">
        <ele>41.4</ele>
        <time>1970-01-01T03:52:55.000Z</time>
      </trkpt>
      <trkpt lat="42.313069" lon="-8.808404">
        <ele>41.4</ele>
        <time>1970-01-01T03:52:56.000Z</time>
      </trkpt>
      <trkpt lat="42.313083" lon="-8.808409">
        <ele>41.4</ele>
        <time>1970-01-01T03:52:57.000Z</time>
      </trkpt>
      <trkpt lat="42.313097" lon="-8.808413">
        <ele>41.4</ele>
        <time>1970-01-01T03:52:58.000Z</time>
      </trkpt>
      <trkpt lat="42.313108" lon="-8.808416">
        <ele>41.4</ele>
        <time>1970-01-01T03:52:59.000Z</time>
      </trkpt>
      <trkpt lat="42.313118" lon="-8.80842">
        <ele>41.4</ele>
        <time>1970-01-01T03:53:00.000Z</time>
      </trkpt>
      <trkpt lat="42.313129" lon="-8.808424">
        <ele>41.4</ele>
        <time>1970-01-01T03:53:01.000Z</time>
      </trkpt>
      <trkpt lat="42.313139" lon="-8.808424">
        <ele>41.4</ele>
        <time>1970-01-01T03:53:02.000Z</time>
      </trkpt>
      <trkpt lat="42.31315" lon="-8.808424">
        <ele>41.4</ele>
        <time>1970-01-01T03:53:03.000Z</time>
      </trkpt>
      <trkpt lat="42.31316" lon="-8.808424">
        <ele>41.4</ele>
        <time>1970-01-01T03:53:04.000Z</time>
      </trkpt>
      <trkpt lat="42.313173" lon="-8.808424">
        <ele>41.4</ele>
        <time>1970-01-01T03:53:05.000Z</time>
      </trkpt>
      <trkpt lat="42.313189" lon="-8.808421">
        <ele>41.4</ele>
        <time>1970-01-01T03:53:06.000Z</time>
      </trkpt>
      <trkpt lat="42.313204" lon="-8.80842">
        <ele>41.4</ele>
        <time>1970-01-01T03:53:07.000Z</time>
      </trkpt>
      <trkpt lat="42.313219" lon="-8.808419">
        <ele>41.6</ele>
        <time>1970-01-01T03:53:08.000Z</time>
      </trkpt>
      <trkpt lat="42.313234" lon="-8.808418">
        <ele>41.6</ele>
        <time>1970-01-01T03:53:09.000Z</time>
      </trkpt>
      <trkpt lat="42.313248" lon="-8.808416">
        <ele>41.8</ele>
        <time>1970-01-01T03:53:10.000Z</time>
      </trkpt>
      <trkpt lat="42.313262" lon="-8.80841">
        <ele>41.6</ele>
        <time>1970-01-01T03:53:11.000Z</time>
      </trkpt>
      <trkpt lat="42.313275" lon="-8.808403">
        <ele>41.8</ele>
        <time>1970-01-01T03:53:12.000Z</time>
      </trkpt>
      <trkpt lat="42.313288" lon="-8.808392">
        <ele>41.8</ele>
        <time>1970-01-01T03:53:13.000Z</time>
      </trkpt>
      <trkpt lat="42.313301" lon="-8.808384">
        <ele>41.8</ele>
        <time>1970-01-01T03:53:14.000Z</time>
      </trkpt>
      <trkpt lat="42.313314" lon="-8.80838">
        <ele>41.8</ele>
        <time>1970-01-01T03:53:15.000Z</time>
      </trkpt>
      <trkpt lat="42.313326" lon="-8.808374">
        <ele>41.8</ele>
        <time>1970-01-01T03:53:16.000Z</time>
      </trkpt>
      <trkpt lat="42.313337" lon="-8.808367">
        <ele>42</ele>
        <time>1970-01-01T03:53:17.000Z</time>
      </trkpt>
      <trkpt lat="42.313349" lon="-8.808354">
        <ele>42</ele>
        <time>1970-01-01T03:53:18.000Z</time>
      </trkpt>
      <trkpt lat="42.313362" lon="-8.808343">
        <ele>42</ele>
        <time>1970-01-01T03:53:19.000Z</time>
      </trkpt>
      <trkpt lat="42.313375" lon="-8.808334">
        <ele>42.2</ele>
        <time>1970-01-01T03:53:20.000Z</time>
      </trkpt>
      <trkpt lat="42.313386" lon="-8.808321">
        <ele>42.2</ele>
        <time>1970-01-01T03:53:21.000Z</time>
      </trkpt>
      <trkpt lat="42.313395" lon="-8.808304">
        <ele>42.2</ele>
        <time>1970-01-01T03:53:22.000Z</time>
      </trkpt>
      <trkpt lat="42.313404" lon="-8.808289">
        <ele>42.2</ele>
        <time>1970-01-01T03:53:23.000Z</time>
      </trkpt>
      <trkpt lat="42.313414" lon="-8.808277">
        <ele>42.4</ele>
        <time>1970-01-01T03:53:24.000Z</time>
      </trkpt>
      <trkpt lat="42.313426" lon="-8.808268">
        <ele>42.6</ele>
        <time>1970-01-01T03:53:25.000Z</time>
      </trkpt>
      <trkpt lat="42.313438" lon="-8.808254">
        <ele>42.8</ele>
        <time>1970-01-01T03:53:26.000Z</time>
      </trkpt>
      <trkpt lat="42.313451" lon="-8.808241">
        <ele>42.8</ele>
        <time>1970-01-01T03:53:27.000Z</time>
      </trkpt>
      <trkpt lat="42.313463" lon="-8.808229">
        <ele>42.8</ele>
        <time>1970-01-01T03:53:28.000Z</time>
      </trkpt>
      <trkpt lat="42.313475" lon="-8.808219">
        <ele>42.8</ele>
        <time>1970-01-01T03:53:29.000Z</time>
      </trkpt>
      <trkpt lat="42.313488" lon="-8.80821">
        <ele>42.8</ele>
        <time>1970-01-01T03:53:30.000Z</time>
      </trkpt>
      <trkpt lat="42.313501" lon="-8.808204">
        <ele>43</ele>
        <time>1970-01-01T03:53:31.000Z</time>
      </trkpt>
      <trkpt lat="42.313515" lon="-8.808199">
        <ele>43</ele>
        <time>1970-01-01T03:53:32.000Z</time>
      </trkpt>
      <trkpt lat="42.313527" lon="-8.808191">
        <ele>43</ele>
        <time>1970-01-01T03:53:33.000Z</time>
      </trkpt>
      <trkpt lat="42.313539" lon="-8.808179">
        <ele>43</ele>
        <time>1970-01-01T03:53:34.000Z</time>
      </trkpt>
      <trkpt lat="42.31355" lon="-8.808168">
        <ele>43</ele>
        <time>1970-01-01T03:53:35.000Z</time>
      </trkpt>
      <trkpt lat="42.31356" lon="-8.80816">
        <ele>43.2</ele>
        <time>1970-01-01T03:53:36.000Z</time>
      </trkpt>
      <trkpt lat="42.313569" lon="-8.808154">
        <ele>43.2</ele>
        <time>1970-01-01T03:53:37.000Z</time>
      </trkpt>
      <trkpt lat="42.31358" lon="-8.808151">
        <ele>43.2</ele>
        <time>1970-01-01T03:53:38.000Z</time>
      </trkpt>
      <trkpt lat="42.313592" lon="-8.808145">
        <ele>43.2</ele>
        <time>1970-01-01T03:53:39.000Z</time>
      </trkpt>
      <trkpt lat="42.313603" lon="-8.808142">
        <ele>43.2</ele>
        <time>1970-01-01T03:53:40.000Z</time>
      </trkpt>
      <trkpt lat="42.313615" lon="-8.80814">
        <ele>43.2</ele>
        <time>1970-01-01T03:53:41.000Z</time>
      </trkpt>
      <trkpt lat="42.313627" lon="-8.808135">
        <ele>43.2</ele>
        <time>1970-01-01T03:53:42.000Z</time>
      </trkpt>
      <trkpt lat="42.313638" lon="-8.808129">
        <ele>43.2</ele>
        <time>1970-01-01T03:53:43.000Z</time>
      </trkpt>
      <trkpt lat="42.31365" lon="-8.808125">
        <ele>43.4</ele>
        <time>1970-01-01T03:53:44.000Z</time>
      </trkpt>
      <trkpt lat="42.31366" lon="-8.808117">
        <ele>43.4</ele>
        <time>1970-01-01T03:53:45.000Z</time>
      </trkpt>
      <trkpt lat="42.313666" lon="-8.808113">
        <ele>43.4</ele>
        <time>1970-01-01T03:53:46.000Z</time>
      </trkpt>
      <trkpt lat="42.313669" lon="-8.808107">
        <ele>43.4</ele>
        <time>1970-01-01T03:53:47.000Z</time>
      </trkpt>
      <trkpt lat="42.31367" lon="-8.808106">
        <ele>43.6</ele>
        <time>1970-01-01T03:53:48.000Z</time>
      </trkpt>
      <trkpt lat="42.313672" lon="-8.808109">
        <ele>43.6</ele>
        <time>1970-01-01T03:53:49.000Z</time>
      </trkpt>
      <trkpt lat="42.313673" lon="-8.808111">
        <ele>43.6</ele>
        <time>1970-01-01T03:53:50.000Z</time>
      </trkpt>
      <trkpt lat="42.313675" lon="-8.808113">
        <ele>43.6</ele>
        <time>1970-01-01T03:53:51.000Z</time>
      </trkpt>
      <trkpt lat="42.313677" lon="-8.808114">
        <ele>43.6</ele>
        <time>1970-01-01T03:53:52.000Z</time>
      </trkpt>
      <trkpt lat="42.313676" lon="-8.808112">
        <ele>43.4</ele>
        <time>1970-01-01T03:53:53.000Z</time>
      </trkpt>
      <trkpt lat="42.313673" lon="-8.808109">
        <ele>43.4</ele>
        <time>1970-01-01T03:53:54.000Z</time>
      </trkpt>
      <trkpt lat="42.313672" lon="-8.808109">
        <ele>43.4</ele>
        <time>1970-01-01T03:53:55.000Z</time>
      </trkpt>
      <trkpt lat="42.313671" lon="-8.80811">
        <ele>43.6</ele>
        <time>1970-01-01T03:53:56.000Z</time>
      </trkpt>
      <trkpt lat="42.313671" lon="-8.808113">
        <ele>43.4</ele>
        <time>1970-01-01T03:53:57.000Z</time>
      </trkpt>
      <trkpt lat="42.31367" lon="-8.808117">
        <ele>43.6</ele>
        <time>1970-01-01T03:53:58.000Z</time>
      </trkpt>
      <trkpt lat="42.313668" lon="-8.808118">
        <ele>43.6</ele>
        <time>1970-01-01T03:53:59.000Z</time>
      </trkpt>
      <trkpt lat="42.313668" lon="-8.808118">
        <ele>43.6</ele>
        <time>1970-01-01T03:54:00.000Z</time>
      </trkpt>
      <trkpt lat="42.313668" lon="-8.808118">
        <ele>43.8</ele>
        <time>1970-01-01T03:54:01.000Z</time>
      </trkpt>
      <trkpt lat="42.313678" lon="-8.808062">
        <ele>43.6</ele>
        <time>1970-01-01T03:55:36.000Z</time>
      </trkpt>
      <trkpt lat="42.313688" lon="-8.808071">
        <ele>43.6</ele>
        <time>1970-01-01T03:55:37.000Z</time>
      </trkpt>
      <trkpt lat="42.3137" lon="-8.808074">
        <ele>43.6</ele>
        <time>1970-01-01T03:55:38.000Z</time>
      </trkpt>
      <trkpt lat="42.313714" lon="-8.808069">
        <ele>43.4</ele>
        <time>1970-01-01T03:55:39.000Z</time>
      </trkpt>
      <trkpt lat="42.313726" lon="-8.808057">
        <ele>43.4</ele>
        <time>1970-01-01T03:55:40.000Z</time>
      </trkpt>
      <trkpt lat="42.313738" lon="-8.808043">
        <ele>43.2</ele>
        <time>1970-01-01T03:55:41.000Z</time>
      </trkpt>
      <trkpt lat="42.31375" lon="-8.808031">
        <ele>43.4</ele>
        <time>1970-01-01T03:55:42.000Z</time>
      </trkpt>
      <trkpt lat="42.313766" lon="-8.808022">
        <ele>43.4</ele>
        <time>1970-01-01T03:55:43.000Z</time>
      </trkpt>
      <trkpt lat="42.313783" lon="-8.808012">
        <ele>43.4</ele>
        <time>1970-01-01T03:55:44.000Z</time>
      </trkpt>
      <trkpt lat="42.313797" lon="-8.808002">
        <ele>43.2</ele>
        <time>1970-01-01T03:55:45.000Z</time>
      </trkpt>
      <trkpt lat="42.313812" lon="-8.807999">
        <ele>43.4</ele>
        <time>1970-01-01T03:55:46.000Z</time>
      </trkpt>
      <trkpt lat="42.313828" lon="-8.807991">
        <ele>43.4</ele>
        <time>1970-01-01T03:55:47.000Z</time>
      </trkpt>
      <trkpt lat="42.31384" lon="-8.807981">
        <ele>43.6</ele>
        <time>1970-01-01T03:55:48.000Z</time>
      </trkpt>
      <trkpt lat="42.313848" lon="-8.807968">
        <ele>43.6</ele>
        <time>1970-01-01T03:55:49.000Z</time>
      </trkpt>
      <trkpt lat="42.313852" lon="-8.807956">
        <ele>43.8</ele>
        <time>1970-01-01T03:55:50.000Z</time>
      </trkpt>
      <trkpt lat="42.313854" lon="-8.807939">
        <ele>44</ele>
        <time>1970-01-01T03:55:51.000Z</time>
      </trkpt>
      <trkpt lat="42.313859" lon="-8.807927">
        <ele>44</ele>
        <time>1970-01-01T03:55:52.000Z</time>
      </trkpt>
      <trkpt lat="42.313865" lon="-8.807917">
        <ele>44</ele>
        <time>1970-01-01T03:55:53.000Z</time>
      </trkpt>
      <trkpt lat="42.313871" lon="-8.807908">
        <ele>44</ele>
        <time>1970-01-01T03:55:54.000Z</time>
      </trkpt>
      <trkpt lat="42.31388" lon="-8.8079">
        <ele>44.2</ele>
        <time>1970-01-01T03:55:55.000Z</time>
      </trkpt>
      <trkpt lat="42.313887" lon="-8.807887">
        <ele>44.4</ele>
        <time>1970-01-01T03:55:56.000Z</time>
      </trkpt>
      <trkpt lat="42.313895" lon="-8.807872">
        <ele>44.6</ele>
        <time>1970-01-01T03:55:57.000Z</time>
      </trkpt>
      <trkpt lat="42.313903" lon="-8.807863">
        <ele>44.6</ele>
        <time>1970-01-01T03:55:58.000Z</time>
      </trkpt>
      <trkpt lat="42.313912" lon="-8.807854">
        <ele>44.8</ele>
        <time>1970-01-01T03:55:59.000Z</time>
      </trkpt>
      <trkpt lat="42.313921" lon="-8.807842">
        <ele>45</ele>
        <time>1970-01-01T03:56:00.000Z</time>
      </trkpt>
      <trkpt lat="42.31393" lon="-8.807828">
        <ele>45.2</ele>
        <time>1970-01-01T03:56:01.000Z</time>
      </trkpt>
      <trkpt lat="42.313937" lon="-8.807814">
        <ele>45.6</ele>
        <time>1970-01-01T03:56:02.000Z</time>
      </trkpt>
      <trkpt lat="42.313946" lon="-8.807802">
        <ele>45.8</ele>
        <time>1970-01-01T03:56:03.000Z</time>
      </trkpt>
      <trkpt lat="42.313955" lon="-8.807787">
        <ele>46</ele>
        <time>1970-01-01T03:56:04.000Z</time>
      </trkpt>
      <trkpt lat="42.313965" lon="-8.807776">
        <ele>46</ele>
        <time>1970-01-01T03:56:05.000Z</time>
      </trkpt>
      <trkpt lat="42.313975" lon="-8.807765">
        <ele>46.2</ele>
        <time>1970-01-01T03:56:06.000Z</time>
      </trkpt>
      <trkpt lat="42.313987" lon="-8.807754">
        <ele>46.2</ele>
        <time>1970-01-01T03:56:07.000Z</time>
      </trkpt>
      <trkpt lat="42.314" lon="-8.807747">
        <ele>46.2</ele>
        <time>1970-01-01T03:56:08.000Z</time>
      </trkpt>
      <trkpt lat="42.314013" lon="-8.807743">
        <ele>46.2</ele>
        <time>1970-01-01T03:56:09.000Z</time>
      </trkpt>
      <trkpt lat="42.314024" lon="-8.807731">
        <ele>46.2</ele>
        <time>1970-01-01T03:56:10.000Z</time>
      </trkpt>
      <trkpt lat="42.314034" lon="-8.807719">
        <ele>46.2</ele>
        <time>1970-01-01T03:56:11.000Z</time>
      </trkpt>
      <trkpt lat="42.314044" lon="-8.807705">
        <ele>46.2</ele>
        <time>1970-01-01T03:56:12.000Z</time>
      </trkpt>
      <trkpt lat="42.314054" lon="-8.807696">
        <ele>46.2</ele>
        <time>1970-01-01T03:56:13.000Z</time>
      </trkpt>
      <trkpt lat="42.314064" lon="-8.807684">
        <ele>46.2</ele>
        <time>1970-01-01T03:56:14.000Z</time>
      </trkpt>
      <trkpt lat="42.314075" lon="-8.807671">
        <ele>46.4</ele>
        <time>1970-01-01T03:56:15.000Z</time>
      </trkpt>
      <trkpt lat="42.314085" lon="-8.807658">
        <ele>46.4</ele>
        <time>1970-01-01T03:56:16.000Z</time>
      </trkpt>
      <trkpt lat="42.314096" lon="-8.807647">
        <ele>46.4</ele>
        <time>1970-01-01T03:56:17.000Z</time>
      </trkpt>
      <trkpt lat="42.314106" lon="-8.807635">
        <ele>46.4</ele>
        <time>1970-01-01T03:56:18.000Z</time>
      </trkpt>
      <trkpt lat="42.314115" lon="-8.807621">
        <ele>46.6</ele>
        <time>1970-01-01T03:56:19.000Z</time>
      </trkpt>
      <trkpt lat="42.314122" lon="-8.807606">
        <ele>46.8</ele>
        <time>1970-01-01T03:56:20.000Z</time>
      </trkpt>
      <trkpt lat="42.31413" lon="-8.807596">
        <ele>47</ele>
        <time>1970-01-01T03:56:21.000Z</time>
      </trkpt>
      <trkpt lat="42.314141" lon="-8.807588">
        <ele>47</ele>
        <time>1970-01-01T03:56:22.000Z</time>
      </trkpt>
      <trkpt lat="42.314153" lon="-8.807576">
        <ele>47.2</ele>
        <time>1970-01-01T03:56:23.000Z</time>
      </trkpt>
      <trkpt lat="42.314162" lon="-8.807565">
        <ele>47.4</ele>
        <time>1970-01-01T03:56:24.000Z</time>
      </trkpt>
      <trkpt lat="42.31417" lon="-8.807553">
        <ele>47.4</ele>
        <time>1970-01-01T03:56:25.000Z</time>
      </trkpt>
      <trkpt lat="42.314179" lon="-8.807539">
        <ele>47.6</ele>
        <time>1970-01-01T03:56:26.000Z</time>
      </trkpt>
      <trkpt lat="42.31419" lon="-8.807529">
        <ele>47.6</ele>
        <time>1970-01-01T03:56:27.000Z</time>
      </trkpt>
      <trkpt lat="42.3142" lon="-8.807522">
        <ele>47.6</ele>
        <time>1970-01-01T03:56:28.000Z</time>
      </trkpt>
      <trkpt lat="42.314209" lon="-8.807511">
        <ele>47.8</ele>
        <time>1970-01-01T03:56:29.000Z</time>
      </trkpt>
      <trkpt lat="42.314219" lon="-8.807502">
        <ele>47.8</ele>
        <time>1970-01-01T03:56:30.000Z</time>
      </trkpt>
      <trkpt lat="42.31423" lon="-8.80749">
        <ele>48</ele>
        <time>1970-01-01T03:56:31.000Z</time>
      </trkpt>
      <trkpt lat="42.31424" lon="-8.807485">
        <ele>48</ele>
        <time>1970-01-01T03:56:32.000Z</time>
      </trkpt>
      <trkpt lat="42.31425" lon="-8.807482">
        <ele>48</ele>
        <time>1970-01-01T03:56:33.000Z</time>
      </trkpt>
      <trkpt lat="42.314259" lon="-8.807478">
        <ele>48.2</ele>
        <time>1970-01-01T03:56:34.000Z</time>
      </trkpt>
      <trkpt lat="42.314268" lon="-8.807477">
        <ele>48.2</ele>
        <time>1970-01-01T03:56:35.000Z</time>
      </trkpt>
      <trkpt lat="42.314279" lon="-8.807477">
        <ele>48.2</ele>
        <time>1970-01-01T03:56:36.000Z</time>
      </trkpt>
      <trkpt lat="42.314294" lon="-8.807473">
        <ele>48.2</ele>
        <time>1970-01-01T03:56:37.000Z</time>
      </trkpt>
      <trkpt lat="42.314308" lon="-8.807465">
        <ele>48.2</ele>
        <time>1970-01-01T03:56:38.000Z</time>
      </trkpt>
      <trkpt lat="42.314319" lon="-8.807453">
        <ele>48.4</ele>
        <time>1970-01-01T03:56:39.000Z</time>
      </trkpt>
      <trkpt lat="42.314333" lon="-8.807443">
        <ele>48.4</ele>
        <time>1970-01-01T03:56:40.000Z</time>
      </trkpt>
      <trkpt lat="42.314346" lon="-8.807436">
        <ele>48.6</ele>
        <time>1970-01-01T03:56:41.000Z</time>
      </trkpt>
      <trkpt lat="42.314359" lon="-8.80743">
        <ele>48.4</ele>
        <time>1970-01-01T03:56:42.000Z</time>
      </trkpt>
      <trkpt lat="42.31437" lon="-8.807424">
        <ele>48.4</ele>
        <time>1970-01-01T03:56:43.000Z</time>
      </trkpt>
      <trkpt lat="42.314383" lon="-8.807416">
        <ele>48.6</ele>
        <time>1970-01-01T03:56:44.000Z</time>
      </trkpt>
      <trkpt lat="42.314395" lon="-8.807406">
        <ele>48.6</ele>
        <time>1970-01-01T03:56:45.000Z</time>
      </trkpt>
      <trkpt lat="42.314407" lon="-8.807395">
        <ele>48.6</ele>
        <time>1970-01-01T03:56:46.000Z</time>
      </trkpt>
      <trkpt lat="42.31442" lon="-8.807387">
        <ele>48.6</ele>
        <time>1970-01-01T03:56:47.000Z</time>
      </trkpt>
      <trkpt lat="42.314434" lon="-8.807378">
        <ele>48.6</ele>
        <time>1970-01-01T03:56:48.000Z</time>
      </trkpt>
      <trkpt lat="42.314446" lon="-8.80737">
        <ele>48.6</ele>
        <time>1970-01-01T03:56:49.000Z</time>
      </trkpt>
      <trkpt lat="42.31446" lon="-8.80736">
        <ele>48.6</ele>
        <time>1970-01-01T03:56:50.000Z</time>
      </trkpt>
      <trkpt lat="42.31447" lon="-8.807345">
        <ele>48.6</ele>
        <time>1970-01-01T03:56:51.000Z</time>
      </trkpt>
      <trkpt lat="42.314479" lon="-8.807331">
        <ele>48.8</ele>
        <time>1970-01-01T03:56:52.000Z</time>
      </trkpt>
      <trkpt lat="42.314491" lon="-8.807317">
        <ele>48.8</ele>
        <time>1970-01-01T03:56:53.000Z</time>
      </trkpt>
      <trkpt lat="42.3145" lon="-8.807301">
        <ele>48.8</ele>
        <time>1970-01-01T03:56:54.000Z</time>
      </trkpt>
      <trkpt lat="42.314508" lon="-8.807283">
        <ele>48.8</ele>
        <time>1970-01-01T03:56:55.000Z</time>
      </trkpt>
      <trkpt lat="42.314516" lon="-8.80727">
        <ele>48.8</ele>
        <time>1970-01-01T03:56:56.000Z</time>
      </trkpt>
      <trkpt lat="42.314526" lon="-8.807253">
        <ele>48.8</ele>
        <time>1970-01-01T03:56:57.000Z</time>
      </trkpt>
      <trkpt lat="42.314541" lon="-8.807241">
        <ele>48.8</ele>
        <time>1970-01-01T03:56:58.000Z</time>
      </trkpt>
      <trkpt lat="42.314556" lon="-8.80723">
        <ele>49.2</ele>
        <time>1970-01-01T03:56:59.000Z</time>
      </trkpt>
      <trkpt lat="42.314569" lon="-8.80722">
        <ele>49.4</ele>
        <time>1970-01-01T03:57:00.000Z</time>
      </trkpt>
      <trkpt lat="42.314586" lon="-8.807215">
        <ele>49.6</ele>
        <time>1970-01-01T03:57:01.000Z</time>
      </trkpt>
      <trkpt lat="42.314601" lon="-8.80721">
        <ele>49.6</ele>
        <time>1970-01-01T03:57:02.000Z</time>
      </trkpt>
      <trkpt lat="42.314615" lon="-8.807209">
        <ele>49.6</ele>
        <time>1970-01-01T03:57:03.000Z</time>
      </trkpt>
      <trkpt lat="42.314629" lon="-8.80721">
        <ele>49.6</ele>
        <time>1970-01-01T03:57:04.000Z</time>
      </trkpt>
      <trkpt lat="42.314643" lon="-8.807215">
        <ele>49.2</ele>
        <time>1970-01-01T03:57:05.000Z</time>
      </trkpt>
      <trkpt lat="42.314658" lon="-8.80722">
        <ele>48.8</ele>
        <time>1970-01-01T03:57:06.000Z</time>
      </trkpt>
      <trkpt lat="42.314676" lon="-8.807227">
        <ele>48.8</ele>
        <time>1970-01-01T03:57:07.000Z</time>
      </trkpt>
      <trkpt lat="42.314693" lon="-8.807231">
        <ele>48.6</ele>
        <time>1970-01-01T03:57:08.000Z</time>
      </trkpt>
      <trkpt lat="42.314709" lon="-8.80723">
        <ele>48.6</ele>
        <time>1970-01-01T03:57:09.000Z</time>
      </trkpt>
      <trkpt lat="42.314726" lon="-8.807231">
        <ele>48.2</ele>
        <time>1970-01-01T03:57:10.000Z</time>
      </trkpt>
      <trkpt lat="42.314741" lon="-8.807228">
        <ele>48</ele>
        <time>1970-01-01T03:57:11.000Z</time>
      </trkpt>
      <trkpt lat="42.314756" lon="-8.807229">
        <ele>48</ele>
        <time>1970-01-01T03:57:12.000Z</time>
      </trkpt>
      <trkpt lat="42.314771" lon="-8.807226">
        <ele>47.8</ele>
        <time>1970-01-01T03:57:13.000Z</time>
      </trkpt>
      <trkpt lat="42.314785" lon="-8.807223">
        <ele>47.8</ele>
        <time>1970-01-01T03:57:14.000Z</time>
      </trkpt>
      <trkpt lat="42.314798" lon="-8.80722">
        <ele>47.6</ele>
        <time>1970-01-01T03:57:15.000Z</time>
      </trkpt>
      <trkpt lat="42.314812" lon="-8.807216">
        <ele>47.4</ele>
        <time>1970-01-01T03:57:16.000Z</time>
      </trkpt>
      <trkpt lat="42.314828" lon="-8.807209">
        <ele>47.2</ele>
        <time>1970-01-01T03:57:17.000Z</time>
      </trkpt>
      <trkpt lat="42.314843" lon="-8.807197">
        <ele>47</ele>
        <time>1970-01-01T03:57:18.000Z</time>
      </trkpt>
      <trkpt lat="42.314855" lon="-8.80718">
        <ele>47</ele>
        <time>1970-01-01T03:57:19.000Z</time>
      </trkpt>
      <trkpt lat="42.314868" lon="-8.807167">
        <ele>47</ele>
        <time>1970-01-01T03:57:20.000Z</time>
      </trkpt>
      <trkpt lat="42.314882" lon="-8.807155">
        <ele>46.8</ele>
        <time>1970-01-01T03:57:21.000Z</time>
      </trkpt>
      <trkpt lat="42.314896" lon="-8.807144">
        <ele>46.8</ele>
        <time>1970-01-01T03:57:22.000Z</time>
      </trkpt>
      <trkpt lat="42.314909" lon="-8.807132">
        <ele>46.6</ele>
        <time>1970-01-01T03:57:23.000Z</time>
      </trkpt>
      <trkpt lat="42.314922" lon="-8.807119">
        <ele>46.6</ele>
        <time>1970-01-01T03:57:24.000Z</time>
      </trkpt>
      <trkpt lat="42.314935" lon="-8.807104">
        <ele>46.6</ele>
        <time>1970-01-01T03:57:25.000Z</time>
      </trkpt>
      <trkpt lat="42.314948" lon="-8.807092">
        <ele>46.4</ele>
        <time>1970-01-01T03:57:26.000Z</time>
      </trkpt>
      <trkpt lat="42.314963" lon="-8.807081">
        <ele>46.2</ele>
        <time>1970-01-01T03:57:27.000Z</time>
      </trkpt>
      <trkpt lat="42.314977" lon="-8.807071">
        <ele>46.2</ele>
        <time>1970-01-01T03:57:28.000Z</time>
      </trkpt>
      <trkpt lat="42.314989" lon="-8.807058">
        <ele>45.8</ele>
        <time>1970-01-01T03:57:29.000Z</time>
      </trkpt>
      <trkpt lat="42.314999" lon="-8.807046">
        <ele>46</ele>
        <time>1970-01-01T03:57:30.000Z</time>
      </trkpt>
      <trkpt lat="42.315009" lon="-8.807034">
        <ele>46</ele>
        <time>1970-01-01T03:57:31.000Z</time>
      </trkpt>
      <trkpt lat="42.315019" lon="-8.807022">
        <ele>46</ele>
        <time>1970-01-01T03:57:32.000Z</time>
      </trkpt>
      <trkpt lat="42.315025" lon="-8.807006">
        <ele>46</ele>
        <time>1970-01-01T03:57:33.000Z</time>
      </trkpt>
      <trkpt lat="42.315036" lon="-8.806992">
        <ele>45.8</ele>
        <time>1970-01-01T03:57:34.000Z</time>
      </trkpt>
      <trkpt lat="42.315046" lon="-8.806973">
        <ele>45.2</ele>
        <time>1970-01-01T03:57:35.000Z</time>
      </trkpt>
      <trkpt lat="42.315055" lon="-8.806959">
        <ele>45.2</ele>
        <time>1970-01-01T03:57:36.000Z</time>
      </trkpt>
      <trkpt lat="42.315064" lon="-8.806944">
        <ele>44.4</ele>
        <time>1970-01-01T03:57:37.000Z</time>
      </trkpt>
      <trkpt lat="42.31507" lon="-8.806926">
        <ele>44.2</ele>
        <time>1970-01-01T03:57:38.000Z</time>
      </trkpt>
      <trkpt lat="42.315075" lon="-8.80691">
        <ele>44.2</ele>
        <time>1970-01-01T03:57:39.000Z</time>
      </trkpt>
      <trkpt lat="42.315078" lon="-8.806897">
        <ele>44.2</ele>
        <time>1970-01-01T03:57:40.000Z</time>
      </trkpt>
      <trkpt lat="42.315082" lon="-8.806884">
        <ele>44.2</ele>
        <time>1970-01-01T03:57:41.000Z</time>
      </trkpt>
      <trkpt lat="42.315085" lon="-8.806872">
        <ele>44.2</ele>
        <time>1970-01-01T03:57:42.000Z</time>
      </trkpt>
      <trkpt lat="42.315089" lon="-8.806858">
        <ele>44.2</ele>
        <time>1970-01-01T03:57:43.000Z</time>
      </trkpt>
      <trkpt lat="42.315091" lon="-8.80684">
        <ele>44.6</ele>
        <time>1970-01-01T03:57:44.000Z</time>
      </trkpt>
      <trkpt lat="42.315088" lon="-8.806808">
        <ele>45</ele>
        <time>1970-01-01T03:57:45.000Z</time>
      </trkpt>
      <trkpt lat="42.315089" lon="-8.806785">
        <ele>45</ele>
        <time>1970-01-01T03:57:46.000Z</time>
      </trkpt>
      <trkpt lat="42.315085" lon="-8.80676">
        <ele>45.2</ele>
        <time>1970-01-01T03:57:47.000Z</time>
      </trkpt>
      <trkpt lat="42.315093" lon="-8.806741">
        <ele>45.4</ele>
        <time>1970-01-01T03:57:48.000Z</time>
      </trkpt>
      <trkpt lat="42.315099" lon="-8.806718">
        <ele>45.8</ele>
        <time>1970-01-01T03:57:49.000Z</time>
      </trkpt>
      <trkpt lat="42.315103" lon="-8.806697">
        <ele>46.2</ele>
        <time>1970-01-01T03:57:50.000Z</time>
      </trkpt>
      <trkpt lat="42.315109" lon="-8.80668">
        <ele>46.2</ele>
        <time>1970-01-01T03:57:51.000Z</time>
      </trkpt>
      <trkpt lat="42.315113" lon="-8.806658">
        <ele>46.4</ele>
        <time>1970-01-01T03:57:52.000Z</time>
      </trkpt>
      <trkpt lat="42.315118" lon="-8.806637">
        <ele>46.6</ele>
        <time>1970-01-01T03:57:53.000Z</time>
      </trkpt>
      <trkpt lat="42.315125" lon="-8.806616">
        <ele>46.8</ele>
        <time>1970-01-01T03:57:54.000Z</time>
      </trkpt>
      <trkpt lat="42.315132" lon="-8.806596">
        <ele>46.8</ele>
        <time>1970-01-01T03:57:55.000Z</time>
      </trkpt>
      <trkpt lat="42.315143" lon="-8.806577">
        <ele>47</ele>
        <time>1970-01-01T03:57:56.000Z</time>
      </trkpt>
      <trkpt lat="42.315154" lon="-8.806562">
        <ele>47</ele>
        <time>1970-01-01T03:57:57.000Z</time>
      </trkpt>
      <trkpt lat="42.315164" lon="-8.806546">
        <ele>47.2</ele>
        <time>1970-01-01T03:57:58.000Z</time>
      </trkpt>
      <trkpt lat="42.315171" lon="-8.806523">
        <ele>47.2</ele>
        <time>1970-01-01T03:57:59.000Z</time>
      </trkpt>
      <trkpt lat="42.315173" lon="-8.806493">
        <ele>47</ele>
        <time>1970-01-01T03:58:00.000Z</time>
      </trkpt>
      <trkpt lat="42.315175" lon="-8.806466">
        <ele>47</ele>
        <time>1970-01-01T03:58:01.000Z</time>
      </trkpt>
      <trkpt lat="42.315179" lon="-8.806443">
        <ele>47</ele>
        <time>1970-01-01T03:58:02.000Z</time>
      </trkpt>
      <trkpt lat="42.315182" lon="-8.806419">
        <ele>46.6</ele>
        <time>1970-01-01T03:58:03.000Z</time>
      </trkpt>
      <trkpt lat="42.315185" lon="-8.806391">
        <ele>46.2</ele>
        <time>1970-01-01T03:58:04.000Z</time>
      </trkpt>
      <trkpt lat="42.315189" lon="-8.806366">
        <ele>46</ele>
        <time>1970-01-01T03:58:05.000Z</time>
      </trkpt>
      <trkpt lat="42.315193" lon="-8.806341">
        <ele>45.6</ele>
        <time>1970-01-01T03:58:06.000Z</time>
      </trkpt>
      <trkpt lat="42.315198" lon="-8.80632">
        <ele>45.4</ele>
        <time>1970-01-01T03:58:07.000Z</time>
      </trkpt>
      <trkpt lat="42.315202" lon="-8.8063">
        <ele>44.8</ele>
        <time>1970-01-01T03:58:08.000Z</time>
      </trkpt>
      <trkpt lat="42.315206" lon="-8.806278">
        <ele>44.8</ele>
        <time>1970-01-01T03:58:09.000Z</time>
      </trkpt>
      <trkpt lat="42.31521" lon="-8.806262">
        <ele>44.6</ele>
        <time>1970-01-01T03:58:10.000Z</time>
      </trkpt>
      <trkpt lat="42.315215" lon="-8.806248">
        <ele>44.4</ele>
        <time>1970-01-01T03:58:11.000Z</time>
      </trkpt>
      <trkpt lat="42.315219" lon="-8.806236">
        <ele>44.4</ele>
        <time>1970-01-01T03:58:12.000Z</time>
      </trkpt>
      <trkpt lat="42.315224" lon="-8.80622">
        <ele>44</ele>
        <time>1970-01-01T03:58:13.000Z</time>
      </trkpt>
      <trkpt lat="42.315229" lon="-8.806204">
        <ele>44</ele>
        <time>1970-01-01T03:58:14.000Z</time>
      </trkpt>
      <trkpt lat="42.315234" lon="-8.806186">
        <ele>44</ele>
        <time>1970-01-01T03:58:15.000Z</time>
      </trkpt>
      <trkpt lat="42.315237" lon="-8.806168">
        <ele>44.2</ele>
        <time>1970-01-01T03:58:16.000Z</time>
      </trkpt>
      <trkpt lat="42.315242" lon="-8.806153">
        <ele>44.2</ele>
        <time>1970-01-01T03:58:17.000Z</time>
      </trkpt>
      <trkpt lat="42.31525" lon="-8.806139">
        <ele>44.2</ele>
        <time>1970-01-01T03:58:18.000Z</time>
      </trkpt>
      <trkpt lat="42.315259" lon="-8.806122">
        <ele>44.2</ele>
        <time>1970-01-01T03:58:19.000Z</time>
      </trkpt>
      <trkpt lat="42.315268" lon="-8.806103">
        <ele>44.4</ele>
        <time>1970-01-01T03:58:20.000Z</time>
      </trkpt>
      <trkpt lat="42.315278" lon="-8.806088">
        <ele>44.4</ele>
        <time>1970-01-01T03:58:21.000Z</time>
      </trkpt>
      <trkpt lat="42.315291" lon="-8.806075">
        <ele>44.6</ele>
        <time>1970-01-01T03:58:22.000Z</time>
      </trkpt>
      <trkpt lat="42.315304" lon="-8.806059">
        <ele>44.8</ele>
        <time>1970-01-01T03:58:23.000Z</time>
      </trkpt>
      <trkpt lat="42.315318" lon="-8.806045">
        <ele>45</ele>
        <time>1970-01-01T03:58:24.000Z</time>
      </trkpt>
      <trkpt lat="42.315332" lon="-8.806031">
        <ele>45</ele>
        <time>1970-01-01T03:58:25.000Z</time>
      </trkpt>
      <trkpt lat="42.315349" lon="-8.806023">
        <ele>45.2</ele>
        <time>1970-01-01T03:58:26.000Z</time>
      </trkpt>
      <trkpt lat="42.315366" lon="-8.806009">
        <ele>45.2</ele>
        <time>1970-01-01T03:58:27.000Z</time>
      </trkpt>
      <trkpt lat="42.315383" lon="-8.805996">
        <ele>45.4</ele>
        <time>1970-01-01T03:58:28.000Z</time>
      </trkpt>
      <trkpt lat="42.3154" lon="-8.805984">
        <ele>45.4</ele>
        <time>1970-01-01T03:58:29.000Z</time>
      </trkpt>
      <trkpt lat="42.315416" lon="-8.80597">
        <ele>45.6</ele>
        <time>1970-01-01T03:58:30.000Z</time>
      </trkpt>
      <trkpt lat="42.315429" lon="-8.805962">
        <ele>45.6</ele>
        <time>1970-01-01T03:58:31.000Z</time>
      </trkpt>
      <trkpt lat="42.315443" lon="-8.805957">
        <ele>45.8</ele>
        <time>1970-01-01T03:58:32.000Z</time>
      </trkpt>
      <trkpt lat="42.315456" lon="-8.805954">
        <ele>45.8</ele>
        <time>1970-01-01T03:58:33.000Z</time>
      </trkpt>
      <trkpt lat="42.315465" lon="-8.805954">
        <ele>45.8</ele>
        <time>1970-01-01T03:58:34.000Z</time>
      </trkpt>
      <trkpt lat="42.315473" lon="-8.805957">
        <ele>45.8</ele>
        <time>1970-01-01T03:58:35.000Z</time>
      </trkpt>
      <trkpt lat="42.315484" lon="-8.805966">
        <ele>46</ele>
        <time>1970-01-01T03:58:36.000Z</time>
      </trkpt>
      <trkpt lat="42.315493" lon="-8.80598">
        <ele>46</ele>
        <time>1970-01-01T03:58:37.000Z</time>
      </trkpt>
      <trkpt lat="42.3155" lon="-8.805994">
        <ele>46.4</ele>
        <time>1970-01-01T03:58:38.000Z</time>
      </trkpt>
      <trkpt lat="42.315508" lon="-8.806009">
        <ele>46.4</ele>
        <time>1970-01-01T03:58:39.000Z</time>
      </trkpt>
      <trkpt lat="42.315519" lon="-8.806021">
        <ele>46.4</ele>
        <time>1970-01-01T03:58:40.000Z</time>
      </trkpt>
      <trkpt lat="42.315532" lon="-8.806033">
        <ele>46.6</ele>
        <time>1970-01-01T03:58:41.000Z</time>
      </trkpt>
      <trkpt lat="42.315544" lon="-8.806049">
        <ele>46.6</ele>
        <time>1970-01-01T03:58:42.000Z</time>
      </trkpt>
      <trkpt lat="42.315557" lon="-8.806066">
        <ele>46.6</ele>
        <time>1970-01-01T03:58:43.000Z</time>
      </trkpt>
      <trkpt lat="42.315569" lon="-8.806083">
        <ele>46.8</ele>
        <time>1970-01-01T03:58:44.000Z</time>
      </trkpt>
      <trkpt lat="42.315578" lon="-8.806098">
        <ele>46.8</ele>
        <time>1970-01-01T03:58:45.000Z</time>
      </trkpt>
      <trkpt lat="42.315589" lon="-8.806109">
        <ele>46.6</ele>
        <time>1970-01-01T03:58:46.000Z</time>
      </trkpt>
      <trkpt lat="42.315601" lon="-8.806114">
        <ele>46.6</ele>
        <time>1970-01-01T03:58:47.000Z</time>
      </trkpt>
      <trkpt lat="42.315613" lon="-8.806121">
        <ele>46.4</ele>
        <time>1970-01-01T03:58:48.000Z</time>
      </trkpt>
      <trkpt lat="42.315626" lon="-8.806128">
        <ele>46</ele>
        <time>1970-01-01T03:58:49.000Z</time>
      </trkpt>
      <trkpt lat="42.315642" lon="-8.806133">
        <ele>46</ele>
        <time>1970-01-01T03:58:50.000Z</time>
      </trkpt>
      <trkpt lat="42.31566" lon="-8.806137">
        <ele>46</ele>
        <time>1970-01-01T03:58:51.000Z</time>
      </trkpt>
      <trkpt lat="42.315676" lon="-8.806139">
        <ele>45.8</ele>
        <time>1970-01-01T03:58:52.000Z</time>
      </trkpt>
      <trkpt lat="42.315691" lon="-8.806139">
        <ele>45.6</ele>
        <time>1970-01-01T03:58:53.000Z</time>
      </trkpt>
      <trkpt lat="42.315705" lon="-8.806137">
        <ele>45.4</ele>
        <time>1970-01-01T03:58:54.000Z</time>
      </trkpt>
      <trkpt lat="42.315721" lon="-8.806135">
        <ele>45.4</ele>
        <time>1970-01-01T03:58:55.000Z</time>
      </trkpt>
      <trkpt lat="42.315734" lon="-8.806133">
        <ele>45.6</ele>
        <time>1970-01-01T03:58:56.000Z</time>
      </trkpt>
      <trkpt lat="42.315747" lon="-8.806129">
        <ele>45.8</ele>
        <time>1970-01-01T03:58:57.000Z</time>
      </trkpt>
      <trkpt lat="42.315758" lon="-8.806121">
        <ele>46.2</ele>
        <time>1970-01-01T03:58:58.000Z</time>
      </trkpt>
      <trkpt lat="42.31577" lon="-8.806111">
        <ele>46.2</ele>
        <time>1970-01-01T03:58:59.000Z</time>
      </trkpt>
      <trkpt lat="42.315781" lon="-8.806101">
        <ele>46.4</ele>
        <time>1970-01-01T03:59:00.000Z</time>
      </trkpt>
      <trkpt lat="42.315793" lon="-8.806092">
        <ele>46.4</ele>
        <time>1970-01-01T03:59:01.000Z</time>
      </trkpt>
      <trkpt lat="42.315806" lon="-8.80608">
        <ele>46.4</ele>
        <time>1970-01-01T03:59:02.000Z</time>
      </trkpt>
      <trkpt lat="42.315822" lon="-8.806069">
        <ele>46.6</ele>
        <time>1970-01-01T03:59:03.000Z</time>
      </trkpt>
      <trkpt lat="42.315837" lon="-8.806059">
        <ele>46.6</ele>
        <time>1970-01-01T03:59:04.000Z</time>
      </trkpt>
      <trkpt lat="42.315849" lon="-8.806044">
        <ele>46.6</ele>
        <time>1970-01-01T03:59:05.000Z</time>
      </trkpt>
      <trkpt lat="42.315859" lon="-8.806028">
        <ele>46.6</ele>
        <time>1970-01-01T03:59:06.000Z</time>
      </trkpt>
      <trkpt lat="42.315869" lon="-8.806009">
        <ele>47</ele>
        <time>1970-01-01T03:59:07.000Z</time>
      </trkpt>
      <trkpt lat="42.315878" lon="-8.80599">
        <ele>47</ele>
        <time>1970-01-01T03:59:08.000Z</time>
      </trkpt>
      <trkpt lat="42.315888" lon="-8.805978">
        <ele>47</ele>
        <time>1970-01-01T03:59:09.000Z</time>
      </trkpt>
      <trkpt lat="42.315895" lon="-8.805967">
        <ele>47.2</ele>
        <time>1970-01-01T03:59:10.000Z</time>
      </trkpt>
      <trkpt lat="42.315905" lon="-8.805955">
        <ele>47.2</ele>
        <time>1970-01-01T03:59:11.000Z</time>
      </trkpt>
      <trkpt lat="42.315914" lon="-8.805943">
        <ele>47.2</ele>
        <time>1970-01-01T03:59:12.000Z</time>
      </trkpt>
      <trkpt lat="42.315924" lon="-8.805932">
        <ele>47.2</ele>
        <time>1970-01-01T03:59:13.000Z</time>
      </trkpt>
      <trkpt lat="42.315934" lon="-8.805918">
        <ele>47.8</ele>
        <time>1970-01-01T03:59:14.000Z</time>
      </trkpt>
      <trkpt lat="42.315944" lon="-8.805905">
        <ele>47.8</ele>
        <time>1970-01-01T03:59:15.000Z</time>
      </trkpt>
      <trkpt lat="42.315958" lon="-8.805892">
        <ele>47.8</ele>
        <time>1970-01-01T03:59:16.000Z</time>
      </trkpt>
      <trkpt lat="42.315966" lon="-8.80588">
        <ele>47.8</ele>
        <time>1970-01-01T03:59:17.000Z</time>
      </trkpt>
      <trkpt lat="42.315974" lon="-8.805872">
        <ele>48</ele>
        <time>1970-01-01T03:59:18.000Z</time>
      </trkpt>
      <trkpt lat="42.315983" lon="-8.805866">
        <ele>48</ele>
        <time>1970-01-01T03:59:19.000Z</time>
      </trkpt>
      <trkpt lat="42.315996" lon="-8.805858">
        <ele>48</ele>
        <time>1970-01-01T03:59:20.000Z</time>
      </trkpt>
      <trkpt lat="42.316007" lon="-8.80585">
        <ele>48.2</ele>
        <time>1970-01-01T03:59:21.000Z</time>
      </trkpt>
      <trkpt lat="42.31602" lon="-8.805839">
        <ele>48.2</ele>
        <time>1970-01-01T03:59:22.000Z</time>
      </trkpt>
      <trkpt lat="42.316033" lon="-8.805829">
        <ele>48.2</ele>
        <time>1970-01-01T03:59:23.000Z</time>
      </trkpt>
      <trkpt lat="42.316045" lon="-8.805817">
        <ele>48.2</ele>
        <time>1970-01-01T03:59:24.000Z</time>
      </trkpt>
      <trkpt lat="42.316059" lon="-8.805807">
        <ele>48.6</ele>
        <time>1970-01-01T03:59:25.000Z</time>
      </trkpt>
      <trkpt lat="42.31607" lon="-8.805796">
        <ele>48.6</ele>
        <time>1970-01-01T03:59:26.000Z</time>
      </trkpt>
      <trkpt lat="42.31608" lon="-8.80578">
        <ele>48.8</ele>
        <time>1970-01-01T03:59:27.000Z</time>
      </trkpt>
      <trkpt lat="42.316092" lon="-8.805764">
        <ele>49</ele>
        <time>1970-01-01T03:59:28.000Z</time>
      </trkpt>
      <trkpt lat="42.316103" lon="-8.805748">
        <ele>49.4</ele>
        <time>1970-01-01T03:59:29.000Z</time>
      </trkpt>
      <trkpt lat="42.316112" lon="-8.805735">
        <ele>49.4</ele>
        <time>1970-01-01T03:59:30.000Z</time>
      </trkpt>
      <trkpt lat="42.31612" lon="-8.805726">
        <ele>49.6</ele>
        <time>1970-01-01T03:59:31.000Z</time>
      </trkpt>
      <trkpt lat="42.316126" lon="-8.805715">
        <ele>49.6</ele>
        <time>1970-01-01T03:59:32.000Z</time>
      </trkpt>
      <trkpt lat="42.316131" lon="-8.8057">
        <ele>49.6</ele>
        <time>1970-01-01T03:59:33.000Z</time>
      </trkpt>
      <trkpt lat="42.31614" lon="-8.805685">
        <ele>49.6</ele>
        <time>1970-01-01T03:59:34.000Z</time>
      </trkpt>
      <trkpt lat="42.316149" lon="-8.805671">
        <ele>49.6</ele>
        <time>1970-01-01T03:59:35.000Z</time>
      </trkpt>
      <trkpt lat="42.316156" lon="-8.805655">
        <ele>49.6</ele>
        <time>1970-01-01T03:59:36.000Z</time>
      </trkpt>
      <trkpt lat="42.316165" lon="-8.805642">
        <ele>49.6</ele>
        <time>1970-01-01T03:59:37.000Z</time>
      </trkpt>
      <trkpt lat="42.316171" lon="-8.805626">
        <ele>49.6</ele>
        <time>1970-01-01T03:59:38.000Z</time>
      </trkpt>
      <trkpt lat="42.316179" lon="-8.805609">
        <ele>49.8</ele>
        <time>1970-01-01T03:59:39.000Z</time>
      </trkpt>
      <trkpt lat="42.316185" lon="-8.805589">
        <ele>49.8</ele>
        <time>1970-01-01T03:59:40.000Z</time>
      </trkpt>
      <trkpt lat="42.316192" lon="-8.805568">
        <ele>49.8</ele>
        <time>1970-01-01T03:59:41.000Z</time>
      </trkpt>
      <trkpt lat="42.3162" lon="-8.805554">
        <ele>49.8</ele>
        <time>1970-01-01T03:59:42.000Z</time>
      </trkpt>
      <trkpt lat="42.316209" lon="-8.805543">
        <ele>49.8</ele>
        <time>1970-01-01T03:59:43.000Z</time>
      </trkpt>
      <trkpt lat="42.316219" lon="-8.805538">
        <ele>50</ele>
        <time>1970-01-01T03:59:44.000Z</time>
      </trkpt>
      <trkpt lat="42.316235" lon="-8.805533">
        <ele>50</ele>
        <time>1970-01-01T03:59:45.000Z</time>
      </trkpt>
      <trkpt lat="42.316247" lon="-8.805531">
        <ele>50</ele>
        <time>1970-01-01T03:59:46.000Z</time>
      </trkpt>
      <trkpt lat="42.316258" lon="-8.805534">
        <ele>50</ele>
        <time>1970-01-01T03:59:47.000Z</time>
      </trkpt>
      <trkpt lat="42.316269" lon="-8.805534">
        <ele>50.2</ele>
        <time>1970-01-01T03:59:48.000Z</time>
      </trkpt>
      <trkpt lat="42.316281" lon="-8.805534">
        <ele>50.4</ele>
        <time>1970-01-01T03:59:49.000Z</time>
      </trkpt>
      <trkpt lat="42.316293" lon="-8.805533">
        <ele>50.8</ele>
        <time>1970-01-01T03:59:50.000Z</time>
      </trkpt>
      <trkpt lat="42.316304" lon="-8.805531">
        <ele>50.8</ele>
        <time>1970-01-01T03:59:51.000Z</time>
      </trkpt>
      <trkpt lat="42.316318" lon="-8.805531">
        <ele>50.8</ele>
        <time>1970-01-01T03:59:52.000Z</time>
      </trkpt>
      <trkpt lat="42.31633" lon="-8.805532">
        <ele>51.2</ele>
        <time>1970-01-01T03:59:53.000Z</time>
      </trkpt>
      <trkpt lat="42.316339" lon="-8.805535">
        <ele>51.4</ele>
        <time>1970-01-01T03:59:54.000Z</time>
      </trkpt>
      <trkpt lat="42.316348" lon="-8.805539">
        <ele>51.6</ele>
        <time>1970-01-01T03:59:55.000Z</time>
      </trkpt>
      <trkpt lat="42.316359" lon="-8.805542">
        <ele>51.6</ele>
        <time>1970-01-01T03:59:56.000Z</time>
      </trkpt>
      <trkpt lat="42.31637" lon="-8.805548">
        <ele>52</ele>
        <time>1970-01-01T03:59:57.000Z</time>
      </trkpt>
      <trkpt lat="42.316382" lon="-8.805552">
        <ele>52</ele>
        <time>1970-01-01T03:59:58.000Z</time>
      </trkpt>
      <trkpt lat="42.31639" lon="-8.805554">
        <ele>52.2</ele>
        <time>1970-01-01T03:59:59.000Z</time>
      </trkpt>
      <trkpt lat="42.316399" lon="-8.805554">
        <ele>52.2</ele>
        <time>1970-01-01T04:00:00.000Z</time>
      </trkpt>
      <trkpt lat="42.316405" lon="-8.805553">
        <ele>52.2</ele>
        <time>1970-01-01T04:00:01.000Z</time>
      </trkpt>
      <trkpt lat="42.316418" lon="-8.805559">
        <ele>52.4</ele>
        <time>1970-01-01T04:00:02.000Z</time>
      </trkpt>
      <trkpt lat="42.316432" lon="-8.805565">
        <ele>52.4</ele>
        <time>1970-01-01T04:00:03.000Z</time>
      </trkpt>
      <trkpt lat="42.316445" lon="-8.805575">
        <ele>52.4</ele>
        <time>1970-01-01T04:00:04.000Z</time>
      </trkpt>
      <trkpt lat="42.316461" lon="-8.805587">
        <ele>52.2</ele>
        <time>1970-01-01T04:00:05.000Z</time>
      </trkpt>
      <trkpt lat="42.316472" lon="-8.805601">
        <ele>52</ele>
        <time>1970-01-01T04:00:06.000Z</time>
      </trkpt>
      <trkpt lat="42.316488" lon="-8.805609">
        <ele>51.8</ele>
        <time>1970-01-01T04:00:07.000Z</time>
      </trkpt>
      <trkpt lat="42.316506" lon="-8.805618">
        <ele>51.8</ele>
        <time>1970-01-01T04:00:08.000Z</time>
      </trkpt>
      <trkpt lat="42.316524" lon="-8.805627">
        <ele>51.4</ele>
        <time>1970-01-01T04:00:09.000Z</time>
      </trkpt>
      <trkpt lat="42.316543" lon="-8.80564">
        <ele>51.2</ele>
        <time>1970-01-01T04:00:10.000Z</time>
      </trkpt>
      <trkpt lat="42.316562" lon="-8.805654">
        <ele>51</ele>
        <time>1970-01-01T04:00:11.000Z</time>
      </trkpt>
      <trkpt lat="42.316583" lon="-8.80567">
        <ele>50.8</ele>
        <time>1970-01-01T04:00:12.000Z</time>
      </trkpt>
      <trkpt lat="42.316599" lon="-8.805687">
        <ele>50.4</ele>
        <time>1970-01-01T04:00:13.000Z</time>
      </trkpt>
      <trkpt lat="42.316614" lon="-8.805694">
        <ele>50.2</ele>
        <time>1970-01-01T04:00:14.000Z</time>
      </trkpt>
      <trkpt lat="42.316627" lon="-8.805701">
        <ele>50.2</ele>
        <time>1970-01-01T04:00:15.000Z</time>
      </trkpt>
      <trkpt lat="42.316643" lon="-8.805713">
        <ele>50.2</ele>
        <time>1970-01-01T04:00:16.000Z</time>
      </trkpt>
      <trkpt lat="42.316659" lon="-8.805728">
        <ele>49.8</ele>
        <time>1970-01-01T04:00:17.000Z</time>
      </trkpt>
      <trkpt lat="42.316675" lon="-8.805744">
        <ele>49.6</ele>
        <time>1970-01-01T04:00:18.000Z</time>
      </trkpt>
      <trkpt lat="42.316691" lon="-8.805756">
        <ele>49.4</ele>
        <time>1970-01-01T04:00:19.000Z</time>
      </trkpt>
      <trkpt lat="42.316708" lon="-8.805767">
        <ele>49</ele>
        <time>1970-01-01T04:00:20.000Z</time>
      </trkpt>
      <trkpt lat="42.316725" lon="-8.805774">
        <ele>48.8</ele>
        <time>1970-01-01T04:00:21.000Z</time>
      </trkpt>
      <trkpt lat="42.316739" lon="-8.805779">
        <ele>48.6</ele>
        <time>1970-01-01T04:00:22.000Z</time>
      </trkpt>
      <trkpt lat="42.316752" lon="-8.805783">
        <ele>48.4</ele>
        <time>1970-01-01T04:00:23.000Z</time>
      </trkpt>
      <trkpt lat="42.316763" lon="-8.805785">
        <ele>48</ele>
        <time>1970-01-01T04:00:24.000Z</time>
      </trkpt>
      <trkpt lat="42.316773" lon="-8.805787">
        <ele>47.8</ele>
        <time>1970-01-01T04:00:25.000Z</time>
      </trkpt>
      <trkpt lat="42.316784" lon="-8.805785">
        <ele>47.6</ele>
        <time>1970-01-01T04:00:26.000Z</time>
      </trkpt>
      <trkpt lat="42.316796" lon="-8.805783">
        <ele>47.4</ele>
        <time>1970-01-01T04:00:27.000Z</time>
      </trkpt>
      <trkpt lat="42.316808" lon="-8.805782">
        <ele>47.4</ele>
        <time>1970-01-01T04:00:28.000Z</time>
      </trkpt>
      <trkpt lat="42.31682" lon="-8.805782">
        <ele>47.4</ele>
        <time>1970-01-01T04:00:29.000Z</time>
      </trkpt>
      <trkpt lat="42.316831" lon="-8.80578">
        <ele>47.2</ele>
        <time>1970-01-01T04:00:30.000Z</time>
      </trkpt>
      <trkpt lat="42.316839" lon="-8.805781">
        <ele>47</ele>
        <time>1970-01-01T04:00:31.000Z</time>
      </trkpt>
      <trkpt lat="42.316848" lon="-8.805788">
        <ele>46.8</ele>
        <time>1970-01-01T04:00:32.000Z</time>
      </trkpt>
      <trkpt lat="42.316854" lon="-8.805801">
        <ele>46.6</ele>
        <time>1970-01-01T04:00:33.000Z</time>
      </trkpt>
      <trkpt lat="42.316865" lon="-8.805816">
        <ele>46.6</ele>
        <time>1970-01-01T04:00:34.000Z</time>
      </trkpt>
      <trkpt lat="42.316878" lon="-8.805825">
        <ele>46.4</ele>
        <time>1970-01-01T04:00:35.000Z</time>
      </trkpt>
      <trkpt lat="42.316889" lon="-8.805835">
        <ele>46.4</ele>
        <time>1970-01-01T04:00:36.000Z</time>
      </trkpt>
      <trkpt lat="42.316901" lon="-8.805843">
        <ele>46.2</ele>
        <time>1970-01-01T04:00:37.000Z</time>
      </trkpt>
      <trkpt lat="42.316915" lon="-8.805849">
        <ele>46.2</ele>
        <time>1970-01-01T04:00:38.000Z</time>
      </trkpt>
      <trkpt lat="42.316925" lon="-8.805855">
        <ele>46</ele>
        <time>1970-01-01T04:00:39.000Z</time>
      </trkpt>
      <trkpt lat="42.316937" lon="-8.805859">
        <ele>45.8</ele>
        <time>1970-01-01T04:00:40.000Z</time>
      </trkpt>
      <trkpt lat="42.31695" lon="-8.805865">
        <ele>45.6</ele>
        <time>1970-01-01T04:00:41.000Z</time>
      </trkpt>
      <trkpt lat="42.316962" lon="-8.805871">
        <ele>45.4</ele>
        <time>1970-01-01T04:00:42.000Z</time>
      </trkpt>
      <trkpt lat="42.316975" lon="-8.805877">
        <ele>45.4</ele>
        <time>1970-01-01T04:00:43.000Z</time>
      </trkpt>
      <trkpt lat="42.316994" lon="-8.805884">
        <ele>45.4</ele>
        <time>1970-01-01T04:00:44.000Z</time>
      </trkpt>
      <trkpt lat="42.317007" lon="-8.805889">
        <ele>45.4</ele>
        <time>1970-01-01T04:00:45.000Z</time>
      </trkpt>
      <trkpt lat="42.317021" lon="-8.805897">
        <ele>45.2</ele>
        <time>1970-01-01T04:00:46.000Z</time>
      </trkpt>
      <trkpt lat="42.317031" lon="-8.805903">
        <ele>45.2</ele>
        <time>1970-01-01T04:00:47.000Z</time>
      </trkpt>
      <trkpt lat="42.317042" lon="-8.805911">
        <ele>45</ele>
        <time>1970-01-01T04:00:48.000Z</time>
      </trkpt>
      <trkpt lat="42.31705" lon="-8.805922">
        <ele>45</ele>
        <time>1970-01-01T04:00:49.000Z</time>
      </trkpt>
      <trkpt lat="42.317051" lon="-8.80593">
        <ele>45</ele>
        <time>1970-01-01T04:00:50.000Z</time>
      </trkpt>
      <trkpt lat="42.317067" lon="-8.805941">
        <ele>45</ele>
        <time>1970-01-01T04:00:51.000Z</time>
      </trkpt>
      <trkpt lat="42.317072" lon="-8.805949">
        <ele>45</ele>
        <time>1970-01-01T04:00:52.000Z</time>
      </trkpt>
      <trkpt lat="42.317077" lon="-8.80596">
        <ele>45</ele>
        <time>1970-01-01T04:00:53.000Z</time>
      </trkpt>
      <trkpt lat="42.317089" lon="-8.805966">
        <ele>45</ele>
        <time>1970-01-01T04:00:54.000Z</time>
      </trkpt>
      <trkpt lat="42.31709" lon="-8.805979">
        <ele>44.8</ele>
        <time>1970-01-01T04:00:55.000Z</time>
      </trkpt>
      <trkpt lat="42.317093" lon="-8.805988">
        <ele>44.8</ele>
        <time>1970-01-01T04:00:56.000Z</time>
      </trkpt>
      <trkpt lat="42.3171" lon="-8.806001">
        <ele>44.8</ele>
        <time>1970-01-01T04:00:57.000Z</time>
      </trkpt>
      <trkpt lat="42.317109" lon="-8.806012">
        <ele>44.6</ele>
        <time>1970-01-01T04:00:58.000Z</time>
      </trkpt>
      <trkpt lat="42.317114" lon="-8.80602">
        <ele>44.6</ele>
        <time>1970-01-01T04:00:59.000Z</time>
      </trkpt>
      <trkpt lat="42.317118" lon="-8.806028">
        <ele>44.6</ele>
        <time>1970-01-01T04:01:00.000Z</time>
      </trkpt>
      <trkpt lat="42.317117" lon="-8.80603">
        <ele>44.6</ele>
        <time>1970-01-01T04:01:01.000Z</time>
      </trkpt>
      <trkpt lat="42.317123" lon="-8.806035">
        <ele>44.8</ele>
        <time>1970-01-01T04:01:02.000Z</time>
      </trkpt>
      <trkpt lat="42.317131" lon="-8.806032">
        <ele>44.8</ele>
        <time>1970-01-01T04:01:03.000Z</time>
      </trkpt>
      <trkpt lat="42.317138" lon="-8.806021">
        <ele>45</ele>
        <time>1970-01-01T04:01:04.000Z</time>
      </trkpt>
      <trkpt lat="42.317142" lon="-8.806013">
        <ele>45</ele>
        <time>1970-01-01T04:01:05.000Z</time>
      </trkpt>
      <trkpt lat="42.317143" lon="-8.806007">
        <ele>45</ele>
        <time>1970-01-01T04:01:06.000Z</time>
      </trkpt>
      <trkpt lat="42.317145" lon="-8.806002">
        <ele>45</ele>
        <time>1970-01-01T04:01:07.000Z</time>
      </trkpt>
      <trkpt lat="42.31715" lon="-8.80599">
        <ele>45</ele>
        <time>1970-01-01T04:01:08.000Z</time>
      </trkpt>
      <trkpt lat="42.317148" lon="-8.805986">
        <ele>44.8</ele>
        <time>1970-01-01T04:01:09.000Z</time>
      </trkpt>
      <trkpt lat="42.317154" lon="-8.805982">
        <ele>44.8</ele>
        <time>1970-01-01T04:01:10.000Z</time>
      </trkpt>
      <trkpt lat="42.317159" lon="-8.805976">
        <ele>44.8</ele>
        <time>1970-01-01T04:01:11.000Z</time>
      </trkpt>
      <trkpt lat="42.317163" lon="-8.805969">
        <ele>44.8</ele>
        <time>1970-01-01T04:01:12.000Z</time>
      </trkpt>
      <trkpt lat="42.317164" lon="-8.805961">
        <ele>44.8</ele>
        <time>1970-01-01T04:01:13.000Z</time>
      </trkpt>
      <trkpt lat="42.317166" lon="-8.805953">
        <ele>44.8</ele>
        <time>1970-01-01T04:01:14.000Z</time>
      </trkpt>
      <trkpt lat="42.317168" lon="-8.805946">
        <ele>44.8</ele>
        <time>1970-01-01T04:01:15.000Z</time>
      </trkpt>
      <trkpt lat="42.317172" lon="-8.805944">
        <ele>44.8</ele>
        <time>1970-01-01T04:01:16.000Z</time>
      </trkpt>
      <trkpt lat="42.317176" lon="-8.805941">
        <ele>44.8</ele>
        <time>1970-01-01T04:01:17.000Z</time>
      </trkpt>
      <trkpt lat="42.31718" lon="-8.805938">
        <ele>44.8</ele>
        <time>1970-01-01T04:01:18.000Z</time>
      </trkpt>
      <trkpt lat="42.317178" lon="-8.805934">
        <ele>44.8</ele>
        <time>1970-01-01T04:01:19.000Z</time>
      </trkpt>
      <trkpt lat="42.317175" lon="-8.805929">
        <ele>44.8</ele>
        <time>1970-01-01T04:01:20.000Z</time>
      </trkpt>
      <trkpt lat="42.317171" lon="-8.805924">
        <ele>44.6</ele>
        <time>1970-01-01T04:01:21.000Z</time>
      </trkpt>
      <trkpt lat="42.317169" lon="-8.805911">
        <ele>44.6</ele>
        <time>1970-01-01T04:01:22.000Z</time>
      </trkpt>
      <trkpt lat="42.317168" lon="-8.805903">
        <ele>44.6</ele>
        <time>1970-01-01T04:01:23.000Z</time>
      </trkpt>
      <trkpt lat="42.317169" lon="-8.805891">
        <ele>44.6</ele>
        <time>1970-01-01T04:01:24.000Z</time>
      </trkpt>
      <trkpt lat="42.317169" lon="-8.805885">
        <ele>44.6</ele>
        <time>1970-01-01T04:01:25.000Z</time>
      </trkpt>
      <trkpt lat="42.317168" lon="-8.805878">
        <ele>44.4</ele>
        <time>1970-01-01T04:01:26.000Z</time>
      </trkpt>
      <trkpt lat="42.317168" lon="-8.80587">
        <ele>44.4</ele>
        <time>1970-01-01T04:01:27.000Z</time>
      </trkpt>
      <trkpt lat="42.31717" lon="-8.805868">
        <ele>44.8</ele>
        <time>1970-01-01T04:01:28.000Z</time>
      </trkpt>
      <trkpt lat="42.317173" lon="-8.80587">
        <ele>44.8</ele>
        <time>1970-01-01T04:01:29.000Z</time>
      </trkpt>
      <trkpt lat="42.317177" lon="-8.80587">
        <ele>44.8</ele>
        <time>1970-01-01T04:01:30.000Z</time>
      </trkpt>
      <trkpt lat="42.31718" lon="-8.805872">
        <ele>44.8</ele>
        <time>1970-01-01T04:01:31.000Z</time>
      </trkpt>
      <trkpt lat="42.317184" lon="-8.805878">
        <ele>44.8</ele>
        <time>1970-01-01T04:01:32.000Z</time>
      </trkpt>
      <trkpt lat="42.317193" lon="-8.805885">
        <ele>44.8</ele>
        <time>1970-01-01T04:01:33.000Z</time>
      </trkpt>
      <trkpt lat="42.317202" lon="-8.80589">
        <ele>44.8</ele>
        <time>1970-01-01T04:01:34.000Z</time>
      </trkpt>
      <trkpt lat="42.317206" lon="-8.805893">
        <ele>44.8</ele>
        <time>1970-01-01T04:01:35.000Z</time>
      </trkpt>
      <trkpt lat="42.317214" lon="-8.805895">
        <ele>44.2</ele>
        <time>1970-01-01T04:01:36.000Z</time>
      </trkpt>
      <trkpt lat="42.317229" lon="-8.805891">
        <ele>44.2</ele>
        <time>1970-01-01T04:01:37.000Z</time>
      </trkpt>
      <trkpt lat="42.317241" lon="-8.80588">
        <ele>44.2</ele>
        <time>1970-01-01T04:01:38.000Z</time>
      </trkpt>
      <trkpt lat="42.317246" lon="-8.805876">
        <ele>44.2</ele>
        <time>1970-01-01T04:01:39.000Z</time>
      </trkpt>
      <trkpt lat="42.317245" lon="-8.805877">
        <ele>44.2</ele>
        <time>1970-01-01T04:01:40.000Z</time>
      </trkpt>
      <trkpt lat="42.317243" lon="-8.805881">
        <ele>44.2</ele>
        <time>1970-01-01T04:01:41.000Z</time>
      </trkpt>
      <trkpt lat="42.31724" lon="-8.805883">
        <ele>44.2</ele>
        <time>1970-01-01T04:01:42.000Z</time>
      </trkpt>
      <trkpt lat="42.317236" lon="-8.805886">
        <ele>44.2</ele>
        <time>1970-01-01T04:01:43.000Z</time>
      </trkpt>
      <trkpt lat="42.317233" lon="-8.805894">
        <ele>44.2</ele>
        <time>1970-01-01T04:01:44.000Z</time>
      </trkpt>
      <trkpt lat="42.317232" lon="-8.805905">
        <ele>44.2</ele>
        <time>1970-01-01T04:01:45.000Z</time>
      </trkpt>
      <trkpt lat="42.317231" lon="-8.805921">
        <ele>44.2</ele>
        <time>1970-01-01T04:01:46.000Z</time>
      </trkpt>
      <trkpt lat="42.317231" lon="-8.805938">
        <ele>44.2</ele>
        <time>1970-01-01T04:01:47.000Z</time>
      </trkpt>
      <trkpt lat="42.31723" lon="-8.805951">
        <ele>44.2</ele>
        <time>1970-01-01T04:01:48.000Z</time>
      </trkpt>
      <trkpt lat="42.317227" lon="-8.805964">
        <ele>44.2</ele>
        <time>1970-01-01T04:01:49.000Z</time>
      </trkpt>
      <trkpt lat="42.317223" lon="-8.805982">
        <ele>44.2</ele>
        <time>1970-01-01T04:01:50.000Z</time>
      </trkpt>
      <trkpt lat="42.317221" lon="-8.805998">
        <ele>44.2</ele>
        <time>1970-01-01T04:01:51.000Z</time>
      </trkpt>
      <trkpt lat="42.317222" lon="-8.806016">
        <ele>44.2</ele>
        <time>1970-01-01T04:01:52.000Z</time>
      </trkpt>
      <trkpt lat="42.317225" lon="-8.806032">
        <ele>44.2</ele>
        <time>1970-01-01T04:01:53.000Z</time>
      </trkpt>
      <trkpt lat="42.317222" lon="-8.806052">
        <ele>44.2</ele>
        <time>1970-01-01T04:01:54.000Z</time>
      </trkpt>
      <trkpt lat="42.317217" lon="-8.806066">
        <ele>44.2</ele>
        <time>1970-01-01T04:01:55.000Z</time>
      </trkpt>
      <trkpt lat="42.317217" lon="-8.806075">
        <ele>44.2</ele>
        <time>1970-01-01T04:01:56.000Z</time>
      </trkpt>
      <trkpt lat="42.317217" lon="-8.806092">
        <ele>44.2</ele>
        <time>1970-01-01T04:01:57.000Z</time>
      </trkpt>
      <trkpt lat="42.317219" lon="-8.806111">
        <ele>44.2</ele>
        <time>1970-01-01T04:01:58.000Z</time>
      </trkpt>
      <trkpt lat="42.317224" lon="-8.806124">
        <ele>44.2</ele>
        <time>1970-01-01T04:01:59.000Z</time>
      </trkpt>
      <trkpt lat="42.317226" lon="-8.80614">
        <ele>44.2</ele>
        <time>1970-01-01T04:02:00.000Z</time>
      </trkpt>
      <trkpt lat="42.317233" lon="-8.806149">
        <ele>44.2</ele>
        <time>1970-01-01T04:02:01.000Z</time>
      </trkpt>
      <trkpt lat="42.317238" lon="-8.806158">
        <ele>44.2</ele>
        <time>1970-01-01T04:02:02.000Z</time>
      </trkpt>
      <trkpt lat="42.317243" lon="-8.806166">
        <ele>44</ele>
        <time>1970-01-01T04:02:03.000Z</time>
      </trkpt>
      <trkpt lat="42.317251" lon="-8.806172">
        <ele>44</ele>
        <time>1970-01-01T04:02:04.000Z</time>
      </trkpt>
      <trkpt lat="42.317257" lon="-8.806176">
        <ele>43.8</ele>
        <time>1970-01-01T04:02:05.000Z</time>
      </trkpt>
      <trkpt lat="42.31726" lon="-8.806176">
        <ele>43.8</ele>
        <time>1970-01-01T04:02:06.000Z</time>
      </trkpt>
      <trkpt lat="42.317263" lon="-8.806178">
        <ele>43.8</ele>
        <time>1970-01-01T04:02:07.000Z</time>
      </trkpt>
      <trkpt lat="42.317268" lon="-8.80618">
        <ele>43.8</ele>
        <time>1970-01-01T04:02:08.000Z</time>
      </trkpt>
      <trkpt lat="42.317275" lon="-8.806188">
        <ele>43.8</ele>
        <time>1970-01-01T04:02:09.000Z</time>
      </trkpt>
      <trkpt lat="42.317281" lon="-8.806201">
        <ele>43.8</ele>
        <time>1970-01-01T04:02:10.000Z</time>
      </trkpt>
      <trkpt lat="42.31729" lon="-8.806219">
        <ele>43.8</ele>
        <time>1970-01-01T04:02:11.000Z</time>
      </trkpt>
      <trkpt lat="42.3173" lon="-8.806237">
        <ele>44</ele>
        <time>1970-01-01T04:02:12.000Z</time>
      </trkpt>
      <trkpt lat="42.317307" lon="-8.806254">
        <ele>44</ele>
        <time>1970-01-01T04:02:13.000Z</time>
      </trkpt>
      <trkpt lat="42.317314" lon="-8.806274">
        <ele>44.2</ele>
        <time>1970-01-01T04:02:14.000Z</time>
      </trkpt>
      <trkpt lat="42.317321" lon="-8.806293">
        <ele>44.2</ele>
        <time>1970-01-01T04:02:15.000Z</time>
      </trkpt>
      <trkpt lat="42.317326" lon="-8.806311">
        <ele>44.4</ele>
        <time>1970-01-01T04:02:16.000Z</time>
      </trkpt>
      <trkpt lat="42.317332" lon="-8.806333">
        <ele>44.4</ele>
        <time>1970-01-01T04:02:17.000Z</time>
      </trkpt>
      <trkpt lat="42.317337" lon="-8.806356">
        <ele>44.4</ele>
        <time>1970-01-01T04:02:18.000Z</time>
      </trkpt>
      <trkpt lat="42.317344" lon="-8.806382">
        <ele>44.4</ele>
        <time>1970-01-01T04:02:19.000Z</time>
      </trkpt>
      <trkpt lat="42.317351" lon="-8.806403">
        <ele>44.4</ele>
        <time>1970-01-01T04:02:20.000Z</time>
      </trkpt>
      <trkpt lat="42.317357" lon="-8.806421">
        <ele>44.6</ele>
        <time>1970-01-01T04:02:21.000Z</time>
      </trkpt>
      <trkpt lat="42.317362" lon="-8.806437">
        <ele>44.4</ele>
        <time>1970-01-01T04:02:22.000Z</time>
      </trkpt>
      <trkpt lat="42.31737" lon="-8.806453">
        <ele>44.4</ele>
        <time>1970-01-01T04:02:23.000Z</time>
      </trkpt>
      <trkpt lat="42.317379" lon="-8.806473">
        <ele>44.4</ele>
        <time>1970-01-01T04:02:24.000Z</time>
      </trkpt>
      <trkpt lat="42.317386" lon="-8.806489">
        <ele>44.4</ele>
        <time>1970-01-01T04:02:25.000Z</time>
      </trkpt>
      <trkpt lat="42.317393" lon="-8.806504">
        <ele>44.4</ele>
        <time>1970-01-01T04:02:26.000Z</time>
      </trkpt>
      <trkpt lat="42.317401" lon="-8.806518">
        <ele>44.4</ele>
        <time>1970-01-01T04:02:27.000Z</time>
      </trkpt>
      <trkpt lat="42.317411" lon="-8.806529">
        <ele>44.6</ele>
        <time>1970-01-01T04:02:28.000Z</time>
      </trkpt>
      <trkpt lat="42.317423" lon="-8.806541">
        <ele>44.6</ele>
        <time>1970-01-01T04:02:29.000Z</time>
      </trkpt>
      <trkpt lat="42.317436" lon="-8.806555">
        <ele>44.8</ele>
        <time>1970-01-01T04:02:30.000Z</time>
      </trkpt>
      <trkpt lat="42.317447" lon="-8.806567">
        <ele>44.8</ele>
        <time>1970-01-01T04:02:31.000Z</time>
      </trkpt>
      <trkpt lat="42.317457" lon="-8.806575">
        <ele>45</ele>
        <time>1970-01-01T04:02:32.000Z</time>
      </trkpt>
      <trkpt lat="42.317466" lon="-8.806584">
        <ele>45</ele>
        <time>1970-01-01T04:02:33.000Z</time>
      </trkpt>
      <trkpt lat="42.317471" lon="-8.806599">
        <ele>45.2</ele>
        <time>1970-01-01T04:02:34.000Z</time>
      </trkpt>
      <trkpt lat="42.31748" lon="-8.806611">
        <ele>45.2</ele>
        <time>1970-01-01T04:02:35.000Z</time>
      </trkpt>
      <trkpt lat="42.317486" lon="-8.806623">
        <ele>45.4</ele>
        <time>1970-01-01T04:02:36.000Z</time>
      </trkpt>
      <trkpt lat="42.317492" lon="-8.806634">
        <ele>45.6</ele>
        <time>1970-01-01T04:02:37.000Z</time>
      </trkpt>
      <trkpt lat="42.3175" lon="-8.806645">
        <ele>45.6</ele>
        <time>1970-01-01T04:02:38.000Z</time>
      </trkpt>
      <trkpt lat="42.317509" lon="-8.806654">
        <ele>45.6</ele>
        <time>1970-01-01T04:02:39.000Z</time>
      </trkpt>
      <trkpt lat="42.317518" lon="-8.806664">
        <ele>45.8</ele>
        <time>1970-01-01T04:02:40.000Z</time>
      </trkpt>
      <trkpt lat="42.317526" lon="-8.806676">
        <ele>45.8</ele>
        <time>1970-01-01T04:02:41.000Z</time>
      </trkpt>
      <trkpt lat="42.317537" lon="-8.806684">
        <ele>45.8</ele>
        <time>1970-01-01T04:02:42.000Z</time>
      </trkpt>
      <trkpt lat="42.317547" lon="-8.806692">
        <ele>46</ele>
        <time>1970-01-01T04:02:43.000Z</time>
      </trkpt>
      <trkpt lat="42.317558" lon="-8.806704">
        <ele>46.2</ele>
        <time>1970-01-01T04:02:44.000Z</time>
      </trkpt>
      <trkpt lat="42.31757" lon="-8.806713">
        <ele>46.2</ele>
        <time>1970-01-01T04:02:45.000Z</time>
      </trkpt>
      <trkpt lat="42.317583" lon="-8.806724">
        <ele>46.2</ele>
        <time>1970-01-01T04:02:46.000Z</time>
      </trkpt>
      <trkpt lat="42.317596" lon="-8.806738">
        <ele>46.4</ele>
        <time>1970-01-01T04:02:47.000Z</time>
      </trkpt>
      <trkpt lat="42.317613" lon="-8.806757">
        <ele>46.6</ele>
        <time>1970-01-01T04:02:48.000Z</time>
      </trkpt>
      <trkpt lat="42.317627" lon="-8.806767">
        <ele>46.8</ele>
        <time>1970-01-01T04:02:49.000Z</time>
      </trkpt>
      <trkpt lat="42.317639" lon="-8.806775">
        <ele>47.2</ele>
        <time>1970-01-01T04:02:50.000Z</time>
      </trkpt>
      <trkpt lat="42.317651" lon="-8.806785">
        <ele>47.4</ele>
        <time>1970-01-01T04:02:51.000Z</time>
      </trkpt>
      <trkpt lat="42.317665" lon="-8.806792">
        <ele>47.6</ele>
        <time>1970-01-01T04:02:52.000Z</time>
      </trkpt>
      <trkpt lat="42.317679" lon="-8.806801">
        <ele>47.6</ele>
        <time>1970-01-01T04:02:53.000Z</time>
      </trkpt>
      <trkpt lat="42.317692" lon="-8.806812">
        <ele>47.6</ele>
        <time>1970-01-01T04:02:54.000Z</time>
      </trkpt>
      <trkpt lat="42.317707" lon="-8.806829">
        <ele>47.6</ele>
        <time>1970-01-01T04:02:55.000Z</time>
      </trkpt>
      <trkpt lat="42.317719" lon="-8.806844">
        <ele>47.6</ele>
        <time>1970-01-01T04:02:56.000Z</time>
      </trkpt>
      <trkpt lat="42.317732" lon="-8.806858">
        <ele>47.6</ele>
        <time>1970-01-01T04:02:57.000Z</time>
      </trkpt>
      <trkpt lat="42.317746" lon="-8.806873">
        <ele>47.6</ele>
        <time>1970-01-01T04:02:58.000Z</time>
      </trkpt>
      <trkpt lat="42.317753" lon="-8.806884">
        <ele>47.6</ele>
        <time>1970-01-01T04:02:59.000Z</time>
      </trkpt>
      <trkpt lat="42.31776" lon="-8.806889">
        <ele>47.8</ele>
        <time>1970-01-01T04:03:00.000Z</time>
      </trkpt>
      <trkpt lat="42.317766" lon="-8.806898">
        <ele>47.8</ele>
        <time>1970-01-01T04:03:01.000Z</time>
      </trkpt>
      <trkpt lat="42.317774" lon="-8.806907">
        <ele>48</ele>
        <time>1970-01-01T04:03:02.000Z</time>
      </trkpt>
      <trkpt lat="42.317781" lon="-8.806921">
        <ele>48</ele>
        <time>1970-01-01T04:03:03.000Z</time>
      </trkpt>
      <trkpt lat="42.317791" lon="-8.806939">
        <ele>48.2</ele>
        <time>1970-01-01T04:03:04.000Z</time>
      </trkpt>
      <trkpt lat="42.317805" lon="-8.806953">
        <ele>48.4</ele>
        <time>1970-01-01T04:03:05.000Z</time>
      </trkpt>
      <trkpt lat="42.317817" lon="-8.80697">
        <ele>48.4</ele>
        <time>1970-01-01T04:03:06.000Z</time>
      </trkpt>
      <trkpt lat="42.317827" lon="-8.806986">
        <ele>48.8</ele>
        <time>1970-01-01T04:03:07.000Z</time>
      </trkpt>
      <trkpt lat="42.317838" lon="-8.806998">
        <ele>49</ele>
        <time>1970-01-01T04:03:08.000Z</time>
      </trkpt>
      <trkpt lat="42.31785" lon="-8.807014">
        <ele>49</ele>
        <time>1970-01-01T04:03:09.000Z</time>
      </trkpt>
      <trkpt lat="42.317861" lon="-8.80703">
        <ele>49</ele>
        <time>1970-01-01T04:03:10.000Z</time>
      </trkpt>
      <trkpt lat="42.317874" lon="-8.807043">
        <ele>49.2</ele>
        <time>1970-01-01T04:03:11.000Z</time>
      </trkpt>
      <trkpt lat="42.317884" lon="-8.807057">
        <ele>49.2</ele>
        <time>1970-01-01T04:03:12.000Z</time>
      </trkpt>
      <trkpt lat="42.31789" lon="-8.807072">
        <ele>49.4</ele>
        <time>1970-01-01T04:03:13.000Z</time>
      </trkpt>
      <trkpt lat="42.317899" lon="-8.807084">
        <ele>49.8</ele>
        <time>1970-01-01T04:03:14.000Z</time>
      </trkpt>
      <trkpt lat="42.317908" lon="-8.8071">
        <ele>50</ele>
        <time>1970-01-01T04:03:15.000Z</time>
      </trkpt>
      <trkpt lat="42.317918" lon="-8.807108">
        <ele>50.2</ele>
        <time>1970-01-01T04:03:16.000Z</time>
      </trkpt>
      <trkpt lat="42.317927" lon="-8.807122">
        <ele>50.4</ele>
        <time>1970-01-01T04:03:17.000Z</time>
      </trkpt>
      <trkpt lat="42.317936" lon="-8.80713">
        <ele>50.6</ele>
        <time>1970-01-01T04:03:18.000Z</time>
      </trkpt>
      <trkpt lat="42.317944" lon="-8.807142">
        <ele>50.8</ele>
        <time>1970-01-01T04:03:19.000Z</time>
      </trkpt>
      <trkpt lat="42.317954" lon="-8.807153">
        <ele>51</ele>
        <time>1970-01-01T04:03:20.000Z</time>
      </trkpt>
      <trkpt lat="42.317963" lon="-8.807162">
        <ele>51</ele>
        <time>1970-01-01T04:03:21.000Z</time>
      </trkpt>
      <trkpt lat="42.317972" lon="-8.807174">
        <ele>51.2</ele>
        <time>1970-01-01T04:03:22.000Z</time>
      </trkpt>
      <trkpt lat="42.317975" lon="-8.807194">
        <ele>51.4</ele>
        <time>1970-01-01T04:03:23.000Z</time>
      </trkpt>
      <trkpt lat="42.317983" lon="-8.807205">
        <ele>51.6</ele>
        <time>1970-01-01T04:03:24.000Z</time>
      </trkpt>
      <trkpt lat="42.317991" lon="-8.807214">
        <ele>51.6</ele>
        <time>1970-01-01T04:03:25.000Z</time>
      </trkpt>
      <trkpt lat="42.317999" lon="-8.807229">
        <ele>51.8</ele>
        <time>1970-01-01T04:03:26.000Z</time>
      </trkpt>
      <trkpt lat="42.318007" lon="-8.807242">
        <ele>51.8</ele>
        <time>1970-01-01T04:03:27.000Z</time>
      </trkpt>
      <trkpt lat="42.318014" lon="-8.807256">
        <ele>52</ele>
        <time>1970-01-01T04:03:28.000Z</time>
      </trkpt>
      <trkpt lat="42.318021" lon="-8.807268">
        <ele>52.2</ele>
        <time>1970-01-01T04:03:29.000Z</time>
      </trkpt>
      <trkpt lat="42.318025" lon="-8.807274">
        <ele>52.4</ele>
        <time>1970-01-01T04:03:30.000Z</time>
      </trkpt>
      <trkpt lat="42.318031" lon="-8.807292">
        <ele>52.6</ele>
        <time>1970-01-01T04:03:31.000Z</time>
      </trkpt>
      <trkpt lat="42.318039" lon="-8.807306">
        <ele>52.8</ele>
        <time>1970-01-01T04:03:32.000Z</time>
      </trkpt>
      <trkpt lat="42.318049" lon="-8.807324">
        <ele>53</ele>
        <time>1970-01-01T04:03:33.000Z</time>
      </trkpt>
      <trkpt lat="42.318063" lon="-8.807341">
        <ele>53.2</ele>
        <time>1970-01-01T04:03:34.000Z</time>
      </trkpt>
      <trkpt lat="42.318073" lon="-8.807362">
        <ele>53.2</ele>
        <time>1970-01-01T04:03:35.000Z</time>
      </trkpt>
      <trkpt lat="42.318087" lon="-8.807378">
        <ele>53.4</ele>
        <time>1970-01-01T04:03:36.000Z</time>
      </trkpt>
      <trkpt lat="42.3181" lon="-8.807393">
        <ele>53.6</ele>
        <time>1970-01-01T04:03:37.000Z</time>
      </trkpt>
      <trkpt lat="42.318115" lon="-8.807407">
        <ele>53.8</ele>
        <time>1970-01-01T04:03:38.000Z</time>
      </trkpt>
      <trkpt lat="42.318121" lon="-8.807421">
        <ele>54</ele>
        <time>1970-01-01T04:03:39.000Z</time>
      </trkpt>
      <trkpt lat="42.318131" lon="-8.807432">
        <ele>54</ele>
        <time>1970-01-01T04:03:40.000Z</time>
      </trkpt>
      <trkpt lat="42.318146" lon="-8.807446">
        <ele>54.2</ele>
        <time>1970-01-01T04:03:41.000Z</time>
      </trkpt>
      <trkpt lat="42.318161" lon="-8.807456">
        <ele>54.4</ele>
        <time>1970-01-01T04:03:42.000Z</time>
      </trkpt>
      <trkpt lat="42.318176" lon="-8.80746">
        <ele>54.4</ele>
        <time>1970-01-01T04:03:43.000Z</time>
      </trkpt>
      <trkpt lat="42.318192" lon="-8.807464">
        <ele>54.6</ele>
        <time>1970-01-01T04:03:44.000Z</time>
      </trkpt>
      <trkpt lat="42.318206" lon="-8.807467">
        <ele>54.6</ele>
        <time>1970-01-01T04:03:45.000Z</time>
      </trkpt>
      <trkpt lat="42.318219" lon="-8.807471">
        <ele>54.6</ele>
        <time>1970-01-01T04:03:46.000Z</time>
      </trkpt>
      <trkpt lat="42.318231" lon="-8.807478">
        <ele>54.6</ele>
        <time>1970-01-01T04:03:47.000Z</time>
      </trkpt>
      <trkpt lat="42.318242" lon="-8.80748">
        <ele>54.6</ele>
        <time>1970-01-01T04:03:48.000Z</time>
      </trkpt>
      <trkpt lat="42.318256" lon="-8.807479">
        <ele>54.8</ele>
        <time>1970-01-01T04:03:49.000Z</time>
      </trkpt>
      <trkpt lat="42.318268" lon="-8.807479">
        <ele>54.8</ele>
        <time>1970-01-01T04:03:50.000Z</time>
      </trkpt>
      <trkpt lat="42.318283" lon="-8.807486">
        <ele>54.8</ele>
        <time>1970-01-01T04:03:51.000Z</time>
      </trkpt>
      <trkpt lat="42.318298" lon="-8.807495">
        <ele>54.8</ele>
        <time>1970-01-01T04:03:52.000Z</time>
      </trkpt>
      <trkpt lat="42.318309" lon="-8.807506">
        <ele>54.8</ele>
        <time>1970-01-01T04:03:53.000Z</time>
      </trkpt>
      <trkpt lat="42.318322" lon="-8.807512">
        <ele>54.8</ele>
        <time>1970-01-01T04:03:54.000Z</time>
      </trkpt>
      <trkpt lat="42.318336" lon="-8.807516">
        <ele>54.8</ele>
        <time>1970-01-01T04:03:55.000Z</time>
      </trkpt>
      <trkpt lat="42.318348" lon="-8.807519">
        <ele>54.6</ele>
        <time>1970-01-01T04:03:56.000Z</time>
      </trkpt>
      <trkpt lat="42.31836" lon="-8.807526">
        <ele>54.6</ele>
        <time>1970-01-01T04:03:57.000Z</time>
      </trkpt>
      <trkpt lat="42.318372" lon="-8.807532">
        <ele>54.6</ele>
        <time>1970-01-01T04:03:58.000Z</time>
      </trkpt>
      <trkpt lat="42.318383" lon="-8.80754">
        <ele>54.6</ele>
        <time>1970-01-01T04:03:59.000Z</time>
      </trkpt>
      <trkpt lat="42.318395" lon="-8.807546">
        <ele>54.4</ele>
        <time>1970-01-01T04:04:00.000Z</time>
      </trkpt>
      <trkpt lat="42.31841" lon="-8.807554">
        <ele>54.6</ele>
        <time>1970-01-01T04:04:01.000Z</time>
      </trkpt>
      <trkpt lat="42.318423" lon="-8.80756">
        <ele>54.6</ele>
        <time>1970-01-01T04:04:02.000Z</time>
      </trkpt>
      <trkpt lat="42.31844" lon="-8.807562">
        <ele>54.6</ele>
        <time>1970-01-01T04:04:03.000Z</time>
      </trkpt>
      <trkpt lat="42.318455" lon="-8.807567">
        <ele>54.6</ele>
        <time>1970-01-01T04:04:04.000Z</time>
      </trkpt>
      <trkpt lat="42.318468" lon="-8.807574">
        <ele>54.6</ele>
        <time>1970-01-01T04:04:05.000Z</time>
      </trkpt>
      <trkpt lat="42.31848" lon="-8.807578">
        <ele>54.6</ele>
        <time>1970-01-01T04:04:06.000Z</time>
      </trkpt>
      <trkpt lat="42.318492" lon="-8.807581">
        <ele>54.6</ele>
        <time>1970-01-01T04:04:07.000Z</time>
      </trkpt>
      <trkpt lat="42.318502" lon="-8.807582">
        <ele>54.6</ele>
        <time>1970-01-01T04:04:08.000Z</time>
      </trkpt>
      <trkpt lat="42.318513" lon="-8.807583">
        <ele>54.6</ele>
        <time>1970-01-01T04:04:09.000Z</time>
      </trkpt>
      <trkpt lat="42.318523" lon="-8.807585">
        <ele>54.4</ele>
        <time>1970-01-01T04:04:10.000Z</time>
      </trkpt>
      <trkpt lat="42.318535" lon="-8.807587">
        <ele>54.4</ele>
        <time>1970-01-01T04:04:11.000Z</time>
      </trkpt>
      <trkpt lat="42.318548" lon="-8.807589">
        <ele>54.4</ele>
        <time>1970-01-01T04:04:12.000Z</time>
      </trkpt>
      <trkpt lat="42.318567" lon="-8.80759">
        <ele>54.4</ele>
        <time>1970-01-01T04:04:13.000Z</time>
      </trkpt>
      <trkpt lat="42.318584" lon="-8.807591">
        <ele>54.4</ele>
        <time>1970-01-01T04:04:14.000Z</time>
      </trkpt>
      <trkpt lat="42.318601" lon="-8.807591">
        <ele>54.6</ele>
        <time>1970-01-01T04:04:15.000Z</time>
      </trkpt>
      <trkpt lat="42.318616" lon="-8.807589">
        <ele>54.8</ele>
        <time>1970-01-01T04:04:16.000Z</time>
      </trkpt>
      <trkpt lat="42.318628" lon="-8.807586">
        <ele>55.2</ele>
        <time>1970-01-01T04:04:17.000Z</time>
      </trkpt>
      <trkpt lat="42.318643" lon="-8.807584">
        <ele>55.4</ele>
        <time>1970-01-01T04:04:18.000Z</time>
      </trkpt>
      <trkpt lat="42.318656" lon="-8.807586">
        <ele>55.4</ele>
        <time>1970-01-01T04:04:19.000Z</time>
      </trkpt>
      <trkpt lat="42.318671" lon="-8.807586">
        <ele>55.4</ele>
        <time>1970-01-01T04:04:20.000Z</time>
      </trkpt>
      <trkpt lat="42.318686" lon="-8.807584">
        <ele>55.4</ele>
        <time>1970-01-01T04:04:21.000Z</time>
      </trkpt>
      <trkpt lat="42.318699" lon="-8.807581">
        <ele>55.4</ele>
        <time>1970-01-01T04:04:22.000Z</time>
      </trkpt>
      <trkpt lat="42.318714" lon="-8.807577">
        <ele>55.2</ele>
        <time>1970-01-01T04:04:23.000Z</time>
      </trkpt>
      <trkpt lat="42.318731" lon="-8.807572">
        <ele>55.2</ele>
        <time>1970-01-01T04:04:24.000Z</time>
      </trkpt>
      <trkpt lat="42.318746" lon="-8.807568">
        <ele>55.2</ele>
        <time>1970-01-01T04:04:25.000Z</time>
      </trkpt>
      <trkpt lat="42.318758" lon="-8.807567">
        <ele>55.2</ele>
        <time>1970-01-01T04:04:26.000Z</time>
      </trkpt>
      <trkpt lat="42.318773" lon="-8.807567">
        <ele>55.2</ele>
        <time>1970-01-01T04:04:27.000Z</time>
      </trkpt>
      <trkpt lat="42.318786" lon="-8.807567">
        <ele>55.2</ele>
        <time>1970-01-01T04:04:28.000Z</time>
      </trkpt>
      <trkpt lat="42.3188" lon="-8.807568">
        <ele>55.2</ele>
        <time>1970-01-01T04:04:29.000Z</time>
      </trkpt>
      <trkpt lat="42.318813" lon="-8.80757">
        <ele>55.2</ele>
        <time>1970-01-01T04:04:30.000Z</time>
      </trkpt>
      <trkpt lat="42.318825" lon="-8.807574">
        <ele>55.4</ele>
        <time>1970-01-01T04:04:31.000Z</time>
      </trkpt>
      <trkpt lat="42.318837" lon="-8.807578">
        <ele>55.4</ele>
        <time>1970-01-01T04:04:32.000Z</time>
      </trkpt>
      <trkpt lat="42.318854" lon="-8.807581">
        <ele>55.4</ele>
        <time>1970-01-01T04:04:33.000Z</time>
      </trkpt>
      <trkpt lat="42.31887" lon="-8.807582">
        <ele>55.4</ele>
        <time>1970-01-01T04:04:34.000Z</time>
      </trkpt>
      <trkpt lat="42.318886" lon="-8.807578">
        <ele>55.4</ele>
        <time>1970-01-01T04:04:35.000Z</time>
      </trkpt>
      <trkpt lat="42.318902" lon="-8.807575">
        <ele>55.4</ele>
        <time>1970-01-01T04:04:36.000Z</time>
      </trkpt>
      <trkpt lat="42.318921" lon="-8.807576">
        <ele>55.4</ele>
        <time>1970-01-01T04:04:37.000Z</time>
      </trkpt>
      <trkpt lat="42.31894" lon="-8.807578">
        <ele>55.4</ele>
        <time>1970-01-01T04:04:38.000Z</time>
      </trkpt>
      <trkpt lat="42.318958" lon="-8.807582">
        <ele>55.2</ele>
        <time>1970-01-01T04:04:39.000Z</time>
      </trkpt>
      <trkpt lat="42.318976" lon="-8.807587">
        <ele>55</ele>
        <time>1970-01-01T04:04:40.000Z</time>
      </trkpt>
      <trkpt lat="42.318995" lon="-8.807598">
        <ele>55</ele>
        <time>1970-01-01T04:04:41.000Z</time>
      </trkpt>
      <trkpt lat="42.319008" lon="-8.807605">
        <ele>55</ele>
        <time>1970-01-01T04:04:42.000Z</time>
      </trkpt>
      <trkpt lat="42.319019" lon="-8.807609">
        <ele>54.8</ele>
        <time>1970-01-01T04:04:43.000Z</time>
      </trkpt>
      <trkpt lat="42.319032" lon="-8.807612">
        <ele>54.8</ele>
        <time>1970-01-01T04:04:44.000Z</time>
      </trkpt>
      <trkpt lat="42.319044" lon="-8.807617">
        <ele>54.8</ele>
        <time>1970-01-01T04:04:45.000Z</time>
      </trkpt>
      <trkpt lat="42.319056" lon="-8.807622">
        <ele>54.8</ele>
        <time>1970-01-01T04:04:46.000Z</time>
      </trkpt>
      <trkpt lat="42.319067" lon="-8.807627">
        <ele>54.8</ele>
        <time>1970-01-01T04:04:47.000Z</time>
      </trkpt>
      <trkpt lat="42.319081" lon="-8.807636">
        <ele>54.8</ele>
        <time>1970-01-01T04:04:48.000Z</time>
      </trkpt>
      <trkpt lat="42.319095" lon="-8.807646">
        <ele>54.6</ele>
        <time>1970-01-01T04:04:49.000Z</time>
      </trkpt>
      <trkpt lat="42.319109" lon="-8.807654">
        <ele>54.8</ele>
        <time>1970-01-01T04:04:50.000Z</time>
      </trkpt>
      <trkpt lat="42.319126" lon="-8.807659">
        <ele>54.8</ele>
        <time>1970-01-01T04:04:51.000Z</time>
      </trkpt>
      <trkpt lat="42.319139" lon="-8.80767">
        <ele>54.6</ele>
        <time>1970-01-01T04:04:52.000Z</time>
      </trkpt>
      <trkpt lat="42.319151" lon="-8.807679">
        <ele>54.2</ele>
        <time>1970-01-01T04:04:53.000Z</time>
      </trkpt>
      <trkpt lat="42.319164" lon="-8.807683">
        <ele>54.2</ele>
        <time>1970-01-01T04:04:54.000Z</time>
      </trkpt>
      <trkpt lat="42.319177" lon="-8.807688">
        <ele>54</ele>
        <time>1970-01-01T04:04:55.000Z</time>
      </trkpt>
      <trkpt lat="42.31919" lon="-8.80769">
        <ele>53.8</ele>
        <time>1970-01-01T04:04:56.000Z</time>
      </trkpt>
      <trkpt lat="42.319201" lon="-8.807689">
        <ele>53.6</ele>
        <time>1970-01-01T04:04:57.000Z</time>
      </trkpt>
      <trkpt lat="42.319213" lon="-8.80769">
        <ele>53.4</ele>
        <time>1970-01-01T04:04:58.000Z</time>
      </trkpt>
      <trkpt lat="42.319227" lon="-8.807686">
        <ele>53.2</ele>
        <time>1970-01-01T04:04:59.000Z</time>
      </trkpt>
      <trkpt lat="42.31924" lon="-8.807681">
        <ele>53.2</ele>
        <time>1970-01-01T04:05:00.000Z</time>
      </trkpt>
      <trkpt lat="42.319255" lon="-8.807678">
        <ele>53</ele>
        <time>1970-01-01T04:05:01.000Z</time>
      </trkpt>
      <trkpt lat="42.31927" lon="-8.807678">
        <ele>53.2</ele>
        <time>1970-01-01T04:05:02.000Z</time>
      </trkpt>
      <trkpt lat="42.319288" lon="-8.80768">
        <ele>53.2</ele>
        <time>1970-01-01T04:05:03.000Z</time>
      </trkpt>
      <trkpt lat="42.319304" lon="-8.807685">
        <ele>53.4</ele>
        <time>1970-01-01T04:05:04.000Z</time>
      </trkpt>
      <trkpt lat="42.319321" lon="-8.80769">
        <ele>53.4</ele>
        <time>1970-01-01T04:05:05.000Z</time>
      </trkpt>
      <trkpt lat="42.319339" lon="-8.807698">
        <ele>53.4</ele>
        <time>1970-01-01T04:05:06.000Z</time>
      </trkpt>
      <trkpt lat="42.319353" lon="-8.807705">
        <ele>53.4</ele>
        <time>1970-01-01T04:05:07.000Z</time>
      </trkpt>
      <trkpt lat="42.319366" lon="-8.807709">
        <ele>52.6</ele>
        <time>1970-01-01T04:05:08.000Z</time>
      </trkpt>
      <trkpt lat="42.319378" lon="-8.807711">
        <ele>52.2</ele>
        <time>1970-01-01T04:05:09.000Z</time>
      </trkpt>
      <trkpt lat="42.31939" lon="-8.807714">
        <ele>51.8</ele>
        <time>1970-01-01T04:05:10.000Z</time>
      </trkpt>
      <trkpt lat="42.319405" lon="-8.807715">
        <ele>51.6</ele>
        <time>1970-01-01T04:05:11.000Z</time>
      </trkpt>
      <trkpt lat="42.319419" lon="-8.807718">
        <ele>51.4</ele>
        <time>1970-01-01T04:05:12.000Z</time>
      </trkpt>
      <trkpt lat="42.319433" lon="-8.807721">
        <ele>51.4</ele>
        <time>1970-01-01T04:05:13.000Z</time>
      </trkpt>
      <trkpt lat="42.319446" lon="-8.807727">
        <ele>51.4</ele>
        <time>1970-01-01T04:05:14.000Z</time>
      </trkpt>
      <trkpt lat="42.31946" lon="-8.807732">
        <ele>51.2</ele>
        <time>1970-01-01T04:05:15.000Z</time>
      </trkpt>
      <trkpt lat="42.319477" lon="-8.807737">
        <ele>51.2</ele>
        <time>1970-01-01T04:05:16.000Z</time>
      </trkpt>
      <trkpt lat="42.319494" lon="-8.807743">
        <ele>51.6</ele>
        <time>1970-01-01T04:05:17.000Z</time>
      </trkpt>
      <trkpt lat="42.31951" lon="-8.807748">
        <ele>52</ele>
        <time>1970-01-01T04:05:18.000Z</time>
      </trkpt>
      <trkpt lat="42.319527" lon="-8.807751">
        <ele>52.2</ele>
        <time>1970-01-01T04:05:19.000Z</time>
      </trkpt>
      <trkpt lat="42.319543" lon="-8.807751">
        <ele>52.4</ele>
        <time>1970-01-01T04:05:20.000Z</time>
      </trkpt>
      <trkpt lat="42.31956" lon="-8.807749">
        <ele>52.4</ele>
        <time>1970-01-01T04:05:21.000Z</time>
      </trkpt>
      <trkpt lat="42.319577" lon="-8.807746">
        <ele>52.6</ele>
        <time>1970-01-01T04:05:22.000Z</time>
      </trkpt>
      <trkpt lat="42.319594" lon="-8.80774">
        <ele>52.4</ele>
        <time>1970-01-01T04:05:23.000Z</time>
      </trkpt>
      <trkpt lat="42.31961" lon="-8.807735">
        <ele>52.4</ele>
        <time>1970-01-01T04:05:24.000Z</time>
      </trkpt>
      <trkpt lat="42.319626" lon="-8.807726">
        <ele>52.4</ele>
        <time>1970-01-01T04:05:25.000Z</time>
      </trkpt>
      <trkpt lat="42.319643" lon="-8.807717">
        <ele>52.4</ele>
        <time>1970-01-01T04:05:26.000Z</time>
      </trkpt>
      <trkpt lat="42.319656" lon="-8.80771">
        <ele>52.4</ele>
        <time>1970-01-01T04:05:27.000Z</time>
      </trkpt>
      <trkpt lat="42.319669" lon="-8.807703">
        <ele>52.4</ele>
        <time>1970-01-01T04:05:28.000Z</time>
      </trkpt>
      <trkpt lat="42.319682" lon="-8.8077">
        <ele>52.4</ele>
        <time>1970-01-01T04:05:29.000Z</time>
      </trkpt>
      <trkpt lat="42.319695" lon="-8.807697">
        <ele>52.4</ele>
        <time>1970-01-01T04:05:30.000Z</time>
      </trkpt>
      <trkpt lat="42.319706" lon="-8.807689">
        <ele>52.4</ele>
        <time>1970-01-01T04:05:31.000Z</time>
      </trkpt>
      <trkpt lat="42.319719" lon="-8.807683">
        <ele>52.4</ele>
        <time>1970-01-01T04:05:32.000Z</time>
      </trkpt>
      <trkpt lat="42.319734" lon="-8.807673">
        <ele>52.4</ele>
        <time>1970-01-01T04:05:33.000Z</time>
      </trkpt>
      <trkpt lat="42.319749" lon="-8.807664">
        <ele>52.4</ele>
        <time>1970-01-01T04:05:34.000Z</time>
      </trkpt>
      <trkpt lat="42.319768" lon="-8.807644">
        <ele>52.6</ele>
        <time>1970-01-01T04:05:35.000Z</time>
      </trkpt>
      <trkpt lat="42.319782" lon="-8.807631">
        <ele>52.6</ele>
        <time>1970-01-01T04:05:36.000Z</time>
      </trkpt>
      <trkpt lat="42.319794" lon="-8.80762">
        <ele>52.6</ele>
        <time>1970-01-01T04:05:37.000Z</time>
      </trkpt>
      <trkpt lat="42.319806" lon="-8.807608">
        <ele>52.6</ele>
        <time>1970-01-01T04:05:38.000Z</time>
      </trkpt>
      <trkpt lat="42.319818" lon="-8.807593">
        <ele>52.6</ele>
        <time>1970-01-01T04:05:39.000Z</time>
      </trkpt>
      <trkpt lat="42.319831" lon="-8.80758">
        <ele>52.6</ele>
        <time>1970-01-01T04:05:40.000Z</time>
      </trkpt>
      <trkpt lat="42.319845" lon="-8.807568">
        <ele>52.8</ele>
        <time>1970-01-01T04:05:41.000Z</time>
      </trkpt>
      <trkpt lat="42.319859" lon="-8.807559">
        <ele>52.8</ele>
        <time>1970-01-01T04:05:42.000Z</time>
      </trkpt>
      <trkpt lat="42.319874" lon="-8.807551">
        <ele>53</ele>
        <time>1970-01-01T04:05:43.000Z</time>
      </trkpt>
      <trkpt lat="42.31989" lon="-8.807543">
        <ele>53.2</ele>
        <time>1970-01-01T04:05:44.000Z</time>
      </trkpt>
      <trkpt lat="42.319908" lon="-8.807536">
        <ele>53.4</ele>
        <time>1970-01-01T04:05:45.000Z</time>
      </trkpt>
      <trkpt lat="42.319921" lon="-8.807531">
        <ele>53.6</ele>
        <time>1970-01-01T04:05:46.000Z</time>
      </trkpt>
      <trkpt lat="42.319935" lon="-8.807527">
        <ele>53.8</ele>
        <time>1970-01-01T04:05:47.000Z</time>
      </trkpt>
      <trkpt lat="42.319948" lon="-8.807523">
        <ele>53.8</ele>
        <time>1970-01-01T04:05:48.000Z</time>
      </trkpt>
      <trkpt lat="42.31996" lon="-8.807517">
        <ele>54</ele>
        <time>1970-01-01T04:05:49.000Z</time>
      </trkpt>
      <trkpt lat="42.31997" lon="-8.80751">
        <ele>54</ele>
        <time>1970-01-01T04:05:50.000Z</time>
      </trkpt>
      <trkpt lat="42.319979" lon="-8.807501">
        <ele>54</ele>
        <time>1970-01-01T04:05:51.000Z</time>
      </trkpt>
      <trkpt lat="42.319989" lon="-8.807493">
        <ele>54</ele>
        <time>1970-01-01T04:05:52.000Z</time>
      </trkpt>
      <trkpt lat="42.319999" lon="-8.807485">
        <ele>54.2</ele>
        <time>1970-01-01T04:05:53.000Z</time>
      </trkpt>
      <trkpt lat="42.320011" lon="-8.807478">
        <ele>54.4</ele>
        <time>1970-01-01T04:05:54.000Z</time>
      </trkpt>
      <trkpt lat="42.320022" lon="-8.807471">
        <ele>54.4</ele>
        <time>1970-01-01T04:05:55.000Z</time>
      </trkpt>
      <trkpt lat="42.320035" lon="-8.807461">
        <ele>54.4</ele>
        <time>1970-01-01T04:05:56.000Z</time>
      </trkpt>
      <trkpt lat="42.320044" lon="-8.807454">
        <ele>54.4</ele>
        <time>1970-01-01T04:05:57.000Z</time>
      </trkpt>
      <trkpt lat="42.320051" lon="-8.807448">
        <ele>54.6</ele>
        <time>1970-01-01T04:05:58.000Z</time>
      </trkpt>
      <trkpt lat="42.320055" lon="-8.807446">
        <ele>54.6</ele>
        <time>1970-01-01T04:05:59.000Z</time>
      </trkpt>
      <trkpt lat="42.320057" lon="-8.807444">
        <ele>54.6</ele>
        <time>1970-01-01T04:06:00.000Z</time>
      </trkpt>
      <trkpt lat="42.32006" lon="-8.80744">
        <ele>54.6</ele>
        <time>1970-01-01T04:06:01.000Z</time>
      </trkpt>
      <trkpt lat="42.320064" lon="-8.807434">
        <ele>54.6</ele>
        <time>1970-01-01T04:06:02.000Z</time>
      </trkpt>
      <trkpt lat="42.320068" lon="-8.807426">
        <ele>54.6</ele>
        <time>1970-01-01T04:06:03.000Z</time>
      </trkpt>
      <trkpt lat="42.320071" lon="-8.807414">
        <ele>54.6</ele>
        <time>1970-01-01T04:06:04.000Z</time>
      </trkpt>
      <trkpt lat="42.320075" lon="-8.807399">
        <ele>54.6</ele>
        <time>1970-01-01T04:06:05.000Z</time>
      </trkpt>
      <trkpt lat="42.32008" lon="-8.807381">
        <ele>54.8</ele>
        <time>1970-01-01T04:06:06.000Z</time>
      </trkpt>
      <trkpt lat="42.320088" lon="-8.807366">
        <ele>54.8</ele>
        <time>1970-01-01T04:06:07.000Z</time>
      </trkpt>
      <trkpt lat="42.320096" lon="-8.807348">
        <ele>55</ele>
        <time>1970-01-01T04:06:08.000Z</time>
      </trkpt>
      <trkpt lat="42.320104" lon="-8.807332">
        <ele>55</ele>
        <time>1970-01-01T04:06:09.000Z</time>
      </trkpt>
      <trkpt lat="42.320114" lon="-8.80732">
        <ele>55.2</ele>
        <time>1970-01-01T04:06:10.000Z</time>
      </trkpt>
      <trkpt lat="42.320124" lon="-8.807307">
        <ele>55.2</ele>
        <time>1970-01-01T04:06:11.000Z</time>
      </trkpt>
      <trkpt lat="42.320134" lon="-8.807294">
        <ele>55.6</ele>
        <time>1970-01-01T04:06:12.000Z</time>
      </trkpt>
      <trkpt lat="42.320147" lon="-8.80728">
        <ele>55.8</ele>
        <time>1970-01-01T04:06:13.000Z</time>
      </trkpt>
      <trkpt lat="42.320159" lon="-8.807267">
        <ele>56</ele>
        <time>1970-01-01T04:06:14.000Z</time>
      </trkpt>
      <trkpt lat="42.320169" lon="-8.807253">
        <ele>56.2</ele>
        <time>1970-01-01T04:06:15.000Z</time>
      </trkpt>
      <trkpt lat="42.320179" lon="-8.807237">
        <ele>56.2</ele>
        <time>1970-01-01T04:06:16.000Z</time>
      </trkpt>
      <trkpt lat="42.32019" lon="-8.807226">
        <ele>56.2</ele>
        <time>1970-01-01T04:06:17.000Z</time>
      </trkpt>
      <trkpt lat="42.320199" lon="-8.807216">
        <ele>56.2</ele>
        <time>1970-01-01T04:06:18.000Z</time>
      </trkpt>
      <trkpt lat="42.320203" lon="-8.807199">
        <ele>56.4</ele>
        <time>1970-01-01T04:06:19.000Z</time>
      </trkpt>
      <trkpt lat="42.320207" lon="-8.807179">
        <ele>56.4</ele>
        <time>1970-01-01T04:06:20.000Z</time>
      </trkpt>
      <trkpt lat="42.320212" lon="-8.807163">
        <ele>56.4</ele>
        <time>1970-01-01T04:06:21.000Z</time>
      </trkpt>
      <trkpt lat="42.320217" lon="-8.807147">
        <ele>56.6</ele>
        <time>1970-01-01T04:06:22.000Z</time>
      </trkpt>
      <trkpt lat="42.320225" lon="-8.807128">
        <ele>56.8</ele>
        <time>1970-01-01T04:06:23.000Z</time>
      </trkpt>
      <trkpt lat="42.320235" lon="-8.807113">
        <ele>57</ele>
        <time>1970-01-01T04:06:24.000Z</time>
      </trkpt>
      <trkpt lat="42.320245" lon="-8.807098">
        <ele>57.2</ele>
        <time>1970-01-01T04:06:25.000Z</time>
      </trkpt>
      <trkpt lat="42.320254" lon="-8.807083">
        <ele>57.6</ele>
        <time>1970-01-01T04:06:26.000Z</time>
      </trkpt>
      <trkpt lat="42.320269" lon="-8.80707">
        <ele>57.8</ele>
        <time>1970-01-01T04:06:27.000Z</time>
      </trkpt>
      <trkpt lat="42.320283" lon="-8.807057">
        <ele>57.8</ele>
        <time>1970-01-01T04:06:28.000Z</time>
      </trkpt>
      <trkpt lat="42.320295" lon="-8.807048">
        <ele>58</ele>
        <time>1970-01-01T04:06:29.000Z</time>
      </trkpt>
      <trkpt lat="42.320307" lon="-8.807041">
        <ele>58.2</ele>
        <time>1970-01-01T04:06:30.000Z</time>
      </trkpt>
      <trkpt lat="42.320318" lon="-8.807037">
        <ele>58.4</ele>
        <time>1970-01-01T04:06:31.000Z</time>
      </trkpt>
      <trkpt lat="42.320327" lon="-8.807034">
        <ele>58.4</ele>
        <time>1970-01-01T04:06:32.000Z</time>
      </trkpt>
      <trkpt lat="42.320339" lon="-8.807039">
        <ele>58.4</ele>
        <time>1970-01-01T04:06:33.000Z</time>
      </trkpt>
      <trkpt lat="42.320355" lon="-8.807045">
        <ele>58.2</ele>
        <time>1970-01-01T04:06:34.000Z</time>
      </trkpt>
      <trkpt lat="42.320371" lon="-8.807053">
        <ele>58.2</ele>
        <time>1970-01-01T04:06:35.000Z</time>
      </trkpt>
      <trkpt lat="42.320387" lon="-8.80706">
        <ele>58</ele>
        <time>1970-01-01T04:06:36.000Z</time>
      </trkpt>
      <trkpt lat="42.320403" lon="-8.807066">
        <ele>58</ele>
        <time>1970-01-01T04:06:37.000Z</time>
      </trkpt>
      <trkpt lat="42.320419" lon="-8.807074">
        <ele>57.8</ele>
        <time>1970-01-01T04:06:38.000Z</time>
      </trkpt>
      <trkpt lat="42.320438" lon="-8.80708">
        <ele>57.8</ele>
        <time>1970-01-01T04:06:39.000Z</time>
      </trkpt>
      <trkpt lat="42.320459" lon="-8.807086">
        <ele>57.6</ele>
        <time>1970-01-01T04:06:40.000Z</time>
      </trkpt>
      <trkpt lat="42.320477" lon="-8.807092">
        <ele>57.6</ele>
        <time>1970-01-01T04:06:41.000Z</time>
      </trkpt>
      <trkpt lat="42.320494" lon="-8.807096">
        <ele>57.4</ele>
        <time>1970-01-01T04:06:42.000Z</time>
      </trkpt>
      <trkpt lat="42.32051" lon="-8.807098">
        <ele>57.4</ele>
        <time>1970-01-01T04:06:43.000Z</time>
      </trkpt>
      <trkpt lat="42.320526" lon="-8.807097">
        <ele>57.2</ele>
        <time>1970-01-01T04:06:44.000Z</time>
      </trkpt>
      <trkpt lat="42.32054" lon="-8.807095">
        <ele>57.2</ele>
        <time>1970-01-01T04:06:45.000Z</time>
      </trkpt>
      <trkpt lat="42.320553" lon="-8.807093">
        <ele>57.2</ele>
        <time>1970-01-01T04:06:46.000Z</time>
      </trkpt>
      <trkpt lat="42.320564" lon="-8.807091">
        <ele>57.4</ele>
        <time>1970-01-01T04:06:47.000Z</time>
      </trkpt>
      <trkpt lat="42.320575" lon="-8.807088">
        <ele>57.2</ele>
        <time>1970-01-01T04:06:48.000Z</time>
      </trkpt>
      <trkpt lat="42.320586" lon="-8.807081">
        <ele>57.2</ele>
        <time>1970-01-01T04:06:49.000Z</time>
      </trkpt>
      <trkpt lat="42.320598" lon="-8.807079">
        <ele>57.2</ele>
        <time>1970-01-01T04:06:50.000Z</time>
      </trkpt>
      <trkpt lat="42.320611" lon="-8.807074">
        <ele>56.4</ele>
        <time>1970-01-01T04:06:51.000Z</time>
      </trkpt>
      <trkpt lat="42.320624" lon="-8.807072">
        <ele>56.2</ele>
        <time>1970-01-01T04:06:52.000Z</time>
      </trkpt>
      <trkpt lat="42.320637" lon="-8.807071">
        <ele>56</ele>
        <time>1970-01-01T04:06:53.000Z</time>
      </trkpt>
      <trkpt lat="42.320649" lon="-8.807069">
        <ele>55.8</ele>
        <time>1970-01-01T04:06:54.000Z</time>
      </trkpt>
      <trkpt lat="42.320663" lon="-8.807071">
        <ele>55.8</ele>
        <time>1970-01-01T04:06:55.000Z</time>
      </trkpt>
      <trkpt lat="42.32068" lon="-8.807074">
        <ele>55.8</ele>
        <time>1970-01-01T04:06:56.000Z</time>
      </trkpt>
      <trkpt lat="42.320696" lon="-8.807074">
        <ele>55.8</ele>
        <time>1970-01-01T04:06:57.000Z</time>
      </trkpt>
      <trkpt lat="42.32071" lon="-8.807074">
        <ele>55.6</ele>
        <time>1970-01-01T04:06:58.000Z</time>
      </trkpt>
      <trkpt lat="42.320723" lon="-8.807073">
        <ele>55.4</ele>
        <time>1970-01-01T04:06:59.000Z</time>
      </trkpt>
      <trkpt lat="42.320735" lon="-8.807071">
        <ele>55.4</ele>
        <time>1970-01-01T04:07:00.000Z</time>
      </trkpt>
      <trkpt lat="42.320748" lon="-8.807071">
        <ele>55.4</ele>
        <time>1970-01-01T04:07:01.000Z</time>
      </trkpt>
      <trkpt lat="42.320763" lon="-8.807072">
        <ele>55</ele>
        <time>1970-01-01T04:07:02.000Z</time>
      </trkpt>
      <trkpt lat="42.320779" lon="-8.807075">
        <ele>54.8</ele>
        <time>1970-01-01T04:07:03.000Z</time>
      </trkpt>
      <trkpt lat="42.320794" lon="-8.807072">
        <ele>54.6</ele>
        <time>1970-01-01T04:07:04.000Z</time>
      </trkpt>
      <trkpt lat="42.320809" lon="-8.807068">
        <ele>54.6</ele>
        <time>1970-01-01T04:07:05.000Z</time>
      </trkpt>
      <trkpt lat="42.320827" lon="-8.807068">
        <ele>54.4</ele>
        <time>1970-01-01T04:07:06.000Z</time>
      </trkpt>
      <trkpt lat="42.320845" lon="-8.807068">
        <ele>54.4</ele>
        <time>1970-01-01T04:07:07.000Z</time>
      </trkpt>
      <trkpt lat="42.320862" lon="-8.807064">
        <ele>54.4</ele>
        <time>1970-01-01T04:07:08.000Z</time>
      </trkpt>
      <trkpt lat="42.320878" lon="-8.807058">
        <ele>54.2</ele>
        <time>1970-01-01T04:07:09.000Z</time>
      </trkpt>
      <trkpt lat="42.320894" lon="-8.807055">
        <ele>54.2</ele>
        <time>1970-01-01T04:07:10.000Z</time>
      </trkpt>
      <trkpt lat="42.320909" lon="-8.807048">
        <ele>54</ele>
        <time>1970-01-01T04:07:11.000Z</time>
      </trkpt>
      <trkpt lat="42.320925" lon="-8.80704">
        <ele>54</ele>
        <time>1970-01-01T04:07:12.000Z</time>
      </trkpt>
      <trkpt lat="42.32094" lon="-8.807032">
        <ele>54</ele>
        <time>1970-01-01T04:07:13.000Z</time>
      </trkpt>
      <trkpt lat="42.320954" lon="-8.807027">
        <ele>53.8</ele>
        <time>1970-01-01T04:07:14.000Z</time>
      </trkpt>
      <trkpt lat="42.320968" lon="-8.807024">
        <ele>53.8</ele>
        <time>1970-01-01T04:07:15.000Z</time>
      </trkpt>
      <trkpt lat="42.320984" lon="-8.807023">
        <ele>53.8</ele>
        <time>1970-01-01T04:07:16.000Z</time>
      </trkpt>
      <trkpt lat="42.320998" lon="-8.807021">
        <ele>53.8</ele>
        <time>1970-01-01T04:07:17.000Z</time>
      </trkpt>
      <trkpt lat="42.321012" lon="-8.80702">
        <ele>53.8</ele>
        <time>1970-01-01T04:07:18.000Z</time>
      </trkpt>
      <trkpt lat="42.321024" lon="-8.80702">
        <ele>53.8</ele>
        <time>1970-01-01T04:07:19.000Z</time>
      </trkpt>
      <trkpt lat="42.321035" lon="-8.807021">
        <ele>53.8</ele>
        <time>1970-01-01T04:07:20.000Z</time>
      </trkpt>
      <trkpt lat="42.321045" lon="-8.807023">
        <ele>54</ele>
        <time>1970-01-01T04:07:21.000Z</time>
      </trkpt>
      <trkpt lat="42.321055" lon="-8.807022">
        <ele>54</ele>
        <time>1970-01-01T04:07:22.000Z</time>
      </trkpt>
      <trkpt lat="42.321066" lon="-8.807022">
        <ele>54</ele>
        <time>1970-01-01T04:07:23.000Z</time>
      </trkpt>
      <trkpt lat="42.321081" lon="-8.80702">
        <ele>54.2</ele>
        <time>1970-01-01T04:07:24.000Z</time>
      </trkpt>
      <trkpt lat="42.321096" lon="-8.807018">
        <ele>54.2</ele>
        <time>1970-01-01T04:07:25.000Z</time>
      </trkpt>
      <trkpt lat="42.32111" lon="-8.80701">
        <ele>54.2</ele>
        <time>1970-01-01T04:07:26.000Z</time>
      </trkpt>
      <trkpt lat="42.321124" lon="-8.807">
        <ele>54</ele>
        <time>1970-01-01T04:07:27.000Z</time>
      </trkpt>
      <trkpt lat="42.321138" lon="-8.806993">
        <ele>53.8</ele>
        <time>1970-01-01T04:07:28.000Z</time>
      </trkpt>
      <trkpt lat="42.321151" lon="-8.80699">
        <ele>53.6</ele>
        <time>1970-01-01T04:07:29.000Z</time>
      </trkpt>
      <trkpt lat="42.321168" lon="-8.806992">
        <ele>53.2</ele>
        <time>1970-01-01T04:07:30.000Z</time>
      </trkpt>
      <trkpt lat="42.321185" lon="-8.806996">
        <ele>53</ele>
        <time>1970-01-01T04:07:31.000Z</time>
      </trkpt>
      <trkpt lat="42.3212" lon="-8.806997">
        <ele>53.2</ele>
        <time>1970-01-01T04:07:32.000Z</time>
      </trkpt>
      <trkpt lat="42.321212" lon="-8.806995">
        <ele>53.2</ele>
        <time>1970-01-01T04:07:33.000Z</time>
      </trkpt>
      <trkpt lat="42.321226" lon="-8.806994">
        <ele>53.2</ele>
        <time>1970-01-01T04:07:34.000Z</time>
      </trkpt>
      <trkpt lat="42.321239" lon="-8.806995">
        <ele>53.2</ele>
        <time>1970-01-01T04:07:35.000Z</time>
      </trkpt>
      <trkpt lat="42.32125" lon="-8.806996">
        <ele>53.4</ele>
        <time>1970-01-01T04:07:36.000Z</time>
      </trkpt>
      <trkpt lat="42.321262" lon="-8.807001">
        <ele>53.4</ele>
        <time>1970-01-01T04:07:37.000Z</time>
      </trkpt>
      <trkpt lat="42.321275" lon="-8.807005">
        <ele>53.2</ele>
        <time>1970-01-01T04:07:38.000Z</time>
      </trkpt>
      <trkpt lat="42.321289" lon="-8.807009">
        <ele>53.2</ele>
        <time>1970-01-01T04:07:39.000Z</time>
      </trkpt>
      <trkpt lat="42.321305" lon="-8.807018">
        <ele>53.2</ele>
        <time>1970-01-01T04:07:40.000Z</time>
      </trkpt>
      <trkpt lat="42.321321" lon="-8.807026">
        <ele>53.2</ele>
        <time>1970-01-01T04:07:41.000Z</time>
      </trkpt>
      <trkpt lat="42.321337" lon="-8.807041">
        <ele>53.2</ele>
        <time>1970-01-01T04:07:42.000Z</time>
      </trkpt>
      <trkpt lat="42.321355" lon="-8.807049">
        <ele>53.2</ele>
        <time>1970-01-01T04:07:43.000Z</time>
      </trkpt>
      <trkpt lat="42.321368" lon="-8.807055">
        <ele>53.2</ele>
        <time>1970-01-01T04:07:44.000Z</time>
      </trkpt>
      <trkpt lat="42.321378" lon="-8.807059">
        <ele>53</ele>
        <time>1970-01-01T04:07:45.000Z</time>
      </trkpt>
      <trkpt lat="42.321386" lon="-8.807062">
        <ele>52.8</ele>
        <time>1970-01-01T04:07:46.000Z</time>
      </trkpt>
      <trkpt lat="42.321392" lon="-8.807067">
        <ele>52.8</ele>
        <time>1970-01-01T04:07:47.000Z</time>
      </trkpt>
      <trkpt lat="42.321401" lon="-8.807076">
        <ele>52.8</ele>
        <time>1970-01-01T04:07:48.000Z</time>
      </trkpt>
      <trkpt lat="42.321411" lon="-8.807089">
        <ele>52.6</ele>
        <time>1970-01-01T04:07:49.000Z</time>
      </trkpt>
      <trkpt lat="42.32142" lon="-8.807105">
        <ele>52.8</ele>
        <time>1970-01-01T04:07:50.000Z</time>
      </trkpt>
      <trkpt lat="42.321431" lon="-8.807121">
        <ele>52.8</ele>
        <time>1970-01-01T04:07:51.000Z</time>
      </trkpt>
      <trkpt lat="42.321442" lon="-8.807135">
        <ele>52.4</ele>
        <time>1970-01-01T04:07:52.000Z</time>
      </trkpt>
      <trkpt lat="42.321453" lon="-8.80715">
        <ele>52.2</ele>
        <time>1970-01-01T04:07:53.000Z</time>
      </trkpt>
      <trkpt lat="42.321462" lon="-8.807162">
        <ele>52.2</ele>
        <time>1970-01-01T04:07:54.000Z</time>
      </trkpt>
      <trkpt lat="42.321469" lon="-8.807174">
        <ele>52</ele>
        <time>1970-01-01T04:07:55.000Z</time>
      </trkpt>
      <trkpt lat="42.321477" lon="-8.807193">
        <ele>52</ele>
        <time>1970-01-01T04:07:56.000Z</time>
      </trkpt>
      <trkpt lat="42.321485" lon="-8.807209">
        <ele>51.8</ele>
        <time>1970-01-01T04:07:57.000Z</time>
      </trkpt>
      <trkpt lat="42.321494" lon="-8.807223">
        <ele>51.8</ele>
        <time>1970-01-01T04:07:58.000Z</time>
      </trkpt>
      <trkpt lat="42.321505" lon="-8.807238">
        <ele>51.6</ele>
        <time>1970-01-01T04:07:59.000Z</time>
      </trkpt>
      <trkpt lat="42.321517" lon="-8.807248">
        <ele>51.6</ele>
        <time>1970-01-01T04:08:00.000Z</time>
      </trkpt>
      <trkpt lat="42.321527" lon="-8.80726">
        <ele>51.2</ele>
        <time>1970-01-01T04:08:01.000Z</time>
      </trkpt>
      <trkpt lat="42.321536" lon="-8.807272">
        <ele>51</ele>
        <time>1970-01-01T04:08:02.000Z</time>
      </trkpt>
      <trkpt lat="42.321542" lon="-8.807281">
        <ele>50.8</ele>
        <time>1970-01-01T04:08:03.000Z</time>
      </trkpt>
      <trkpt lat="42.321546" lon="-8.807289">
        <ele>50.4</ele>
        <time>1970-01-01T04:08:04.000Z</time>
      </trkpt>
      <trkpt lat="42.321547" lon="-8.807298">
        <ele>50.2</ele>
        <time>1970-01-01T04:08:05.000Z</time>
      </trkpt>
      <trkpt lat="42.321548" lon="-8.807306">
        <ele>50</ele>
        <time>1970-01-01T04:08:06.000Z</time>
      </trkpt>
      <trkpt lat="42.321552" lon="-8.807316">
        <ele>49.8</ele>
        <time>1970-01-01T04:08:07.000Z</time>
      </trkpt>
      <trkpt lat="42.321556" lon="-8.807331">
        <ele>49.6</ele>
        <time>1970-01-01T04:08:08.000Z</time>
      </trkpt>
      <trkpt lat="42.321558" lon="-8.807349">
        <ele>49.4</ele>
        <time>1970-01-01T04:08:09.000Z</time>
      </trkpt>
      <trkpt lat="42.321566" lon="-8.807371">
        <ele>49</ele>
        <time>1970-01-01T04:08:10.000Z</time>
      </trkpt>
      <trkpt lat="42.321576" lon="-8.807394">
        <ele>48.8</ele>
        <time>1970-01-01T04:08:11.000Z</time>
      </trkpt>
      <trkpt lat="42.321587" lon="-8.807411">
        <ele>48.6</ele>
        <time>1970-01-01T04:08:12.000Z</time>
      </trkpt>
      <trkpt lat="42.321599" lon="-8.807427">
        <ele>48.4</ele>
        <time>1970-01-01T04:08:13.000Z</time>
      </trkpt>
      <trkpt lat="42.321612" lon="-8.807442">
        <ele>48.2</ele>
        <time>1970-01-01T04:08:14.000Z</time>
      </trkpt>
      <trkpt lat="42.321625" lon="-8.807458">
        <ele>48</ele>
        <time>1970-01-01T04:08:15.000Z</time>
      </trkpt>
      <trkpt lat="42.321635" lon="-8.807473">
        <ele>47.8</ele>
        <time>1970-01-01T04:08:16.000Z</time>
      </trkpt>
      <trkpt lat="42.321646" lon="-8.807489">
        <ele>47.6</ele>
        <time>1970-01-01T04:08:17.000Z</time>
      </trkpt>
      <trkpt lat="42.321657" lon="-8.807502">
        <ele>47.4</ele>
        <time>1970-01-01T04:08:18.000Z</time>
      </trkpt>
      <trkpt lat="42.321671" lon="-8.807513">
        <ele>47.2</ele>
        <time>1970-01-01T04:08:19.000Z</time>
      </trkpt>
      <trkpt lat="42.321681" lon="-8.807515">
        <ele>47.2</ele>
        <time>1970-01-01T04:08:20.000Z</time>
      </trkpt>
      <trkpt lat="42.32169" lon="-8.807516">
        <ele>47.2</ele>
        <time>1970-01-01T04:08:21.000Z</time>
      </trkpt>
      <trkpt lat="42.321701" lon="-8.807519">
        <ele>47.2</ele>
        <time>1970-01-01T04:08:22.000Z</time>
      </trkpt>
      <trkpt lat="42.321715" lon="-8.807525">
        <ele>47.2</ele>
        <time>1970-01-01T04:08:23.000Z</time>
      </trkpt>
      <trkpt lat="42.32173" lon="-8.80753">
        <ele>47.4</ele>
        <time>1970-01-01T04:08:24.000Z</time>
      </trkpt>
      <trkpt lat="42.321747" lon="-8.807529">
        <ele>47.4</ele>
        <time>1970-01-01T04:08:25.000Z</time>
      </trkpt>
      <trkpt lat="42.321762" lon="-8.807531">
        <ele>47.4</ele>
        <time>1970-01-01T04:08:26.000Z</time>
      </trkpt>
      <trkpt lat="42.321774" lon="-8.807538">
        <ele>47.6</ele>
        <time>1970-01-01T04:08:27.000Z</time>
      </trkpt>
      <trkpt lat="42.321785" lon="-8.807544">
        <ele>47.6</ele>
        <time>1970-01-01T04:08:28.000Z</time>
      </trkpt>
      <trkpt lat="42.321799" lon="-8.807553">
        <ele>47.6</ele>
        <time>1970-01-01T04:08:29.000Z</time>
      </trkpt>
      <trkpt lat="42.321816" lon="-8.807562">
        <ele>47.8</ele>
        <time>1970-01-01T04:08:30.000Z</time>
      </trkpt>
      <trkpt lat="42.321834" lon="-8.80757">
        <ele>47.8</ele>
        <time>1970-01-01T04:08:31.000Z</time>
      </trkpt>
      <trkpt lat="42.321852" lon="-8.807582">
        <ele>47.4</ele>
        <time>1970-01-01T04:08:32.000Z</time>
      </trkpt>
      <trkpt lat="42.321867" lon="-8.80759">
        <ele>47.2</ele>
        <time>1970-01-01T04:08:33.000Z</time>
      </trkpt>
      <trkpt lat="42.321881" lon="-8.807595">
        <ele>46.8</ele>
        <time>1970-01-01T04:08:34.000Z</time>
      </trkpt>
      <trkpt lat="42.321894" lon="-8.8076">
        <ele>46.4</ele>
        <time>1970-01-01T04:08:35.000Z</time>
      </trkpt>
      <trkpt lat="42.321907" lon="-8.807605">
        <ele>46.2</ele>
        <time>1970-01-01T04:08:36.000Z</time>
      </trkpt>
      <trkpt lat="42.321918" lon="-8.807607">
        <ele>46</ele>
        <time>1970-01-01T04:08:37.000Z</time>
      </trkpt>
      <trkpt lat="42.321931" lon="-8.80761">
        <ele>45.8</ele>
        <time>1970-01-01T04:08:38.000Z</time>
      </trkpt>
      <trkpt lat="42.321943" lon="-8.807611">
        <ele>45.6</ele>
        <time>1970-01-01T04:08:39.000Z</time>
      </trkpt>
      <trkpt lat="42.321953" lon="-8.807608">
        <ele>45.6</ele>
        <time>1970-01-01T04:08:40.000Z</time>
      </trkpt>
      <trkpt lat="42.321965" lon="-8.807602">
        <ele>45.4</ele>
        <time>1970-01-01T04:08:41.000Z</time>
      </trkpt>
      <trkpt lat="42.321976" lon="-8.807594">
        <ele>45.4</ele>
        <time>1970-01-01T04:08:42.000Z</time>
      </trkpt>
      <trkpt lat="42.321987" lon="-8.807587">
        <ele>45.4</ele>
        <time>1970-01-01T04:08:43.000Z</time>
      </trkpt>
      <trkpt lat="42.321998" lon="-8.807575">
        <ele>45.2</ele>
        <time>1970-01-01T04:08:44.000Z</time>
      </trkpt>
      <trkpt lat="42.322011" lon="-8.807564">
        <ele>45.2</ele>
        <time>1970-01-01T04:08:45.000Z</time>
      </trkpt>
      <trkpt lat="42.322025" lon="-8.807557">
        <ele>45.2</ele>
        <time>1970-01-01T04:08:46.000Z</time>
      </trkpt>
      <trkpt lat="42.32204" lon="-8.807549">
        <ele>44.8</ele>
        <time>1970-01-01T04:08:47.000Z</time>
      </trkpt>
      <trkpt lat="42.322055" lon="-8.807542">
        <ele>44.4</ele>
        <time>1970-01-01T04:08:48.000Z</time>
      </trkpt>
      <trkpt lat="42.322069" lon="-8.807533">
        <ele>44.4</ele>
        <time>1970-01-01T04:08:49.000Z</time>
      </trkpt>
      <trkpt lat="42.322083" lon="-8.807526">
        <ele>44.2</ele>
        <time>1970-01-01T04:08:50.000Z</time>
      </trkpt>
      <trkpt lat="42.322099" lon="-8.807519">
        <ele>44.2</ele>
        <time>1970-01-01T04:08:51.000Z</time>
      </trkpt>
      <trkpt lat="42.322113" lon="-8.807509">
        <ele>44</ele>
        <time>1970-01-01T04:08:52.000Z</time>
      </trkpt>
      <trkpt lat="42.322127" lon="-8.807501">
        <ele>44</ele>
        <time>1970-01-01T04:08:53.000Z</time>
      </trkpt>
      <trkpt lat="42.322139" lon="-8.807494">
        <ele>43.8</ele>
        <time>1970-01-01T04:08:54.000Z</time>
      </trkpt>
      <trkpt lat="42.322149" lon="-8.807489">
        <ele>43.6</ele>
        <time>1970-01-01T04:08:55.000Z</time>
      </trkpt>
      <trkpt lat="42.322159" lon="-8.807485">
        <ele>43.4</ele>
        <time>1970-01-01T04:08:56.000Z</time>
      </trkpt>
      <trkpt lat="42.322169" lon="-8.807482">
        <ele>43.4</ele>
        <time>1970-01-01T04:08:57.000Z</time>
      </trkpt>
      <trkpt lat="42.32218" lon="-8.807481">
        <ele>43.2</ele>
        <time>1970-01-01T04:08:58.000Z</time>
      </trkpt>
      <trkpt lat="42.322194" lon="-8.807483">
        <ele>43</ele>
        <time>1970-01-01T04:08:59.000Z</time>
      </trkpt>
      <trkpt lat="42.32221" lon="-8.807486">
        <ele>42.8</ele>
        <time>1970-01-01T04:09:00.000Z</time>
      </trkpt>
      <trkpt lat="42.322227" lon="-8.807491">
        <ele>42.8</ele>
        <time>1970-01-01T04:09:01.000Z</time>
      </trkpt>
      <trkpt lat="42.322243" lon="-8.807498">
        <ele>42.8</ele>
        <time>1970-01-01T04:09:02.000Z</time>
      </trkpt>
      <trkpt lat="42.322258" lon="-8.807505">
        <ele>42.6</ele>
        <time>1970-01-01T04:09:03.000Z</time>
      </trkpt>
      <trkpt lat="42.322275" lon="-8.807514">
        <ele>42.6</ele>
        <time>1970-01-01T04:09:04.000Z</time>
      </trkpt>
      <trkpt lat="42.32229" lon="-8.807524">
        <ele>42.6</ele>
        <time>1970-01-01T04:09:05.000Z</time>
      </trkpt>
      <trkpt lat="42.322305" lon="-8.807533">
        <ele>42.6</ele>
        <time>1970-01-01T04:09:06.000Z</time>
      </trkpt>
      <trkpt lat="42.322318" lon="-8.807544">
        <ele>42.4</ele>
        <time>1970-01-01T04:09:07.000Z</time>
      </trkpt>
      <trkpt lat="42.322329" lon="-8.807556">
        <ele>42.4</ele>
        <time>1970-01-01T04:09:08.000Z</time>
      </trkpt>
      <trkpt lat="42.322341" lon="-8.807562">
        <ele>42.2</ele>
        <time>1970-01-01T04:09:09.000Z</time>
      </trkpt>
      <trkpt lat="42.322352" lon="-8.80757">
        <ele>42</ele>
        <time>1970-01-01T04:09:10.000Z</time>
      </trkpt>
      <trkpt lat="42.322363" lon="-8.807577">
        <ele>41.8</ele>
        <time>1970-01-01T04:09:11.000Z</time>
      </trkpt>
      <trkpt lat="42.322372" lon="-8.807588">
        <ele>41.8</ele>
        <time>1970-01-01T04:09:12.000Z</time>
      </trkpt>
      <trkpt lat="42.322382" lon="-8.807598">
        <ele>41.6</ele>
        <time>1970-01-01T04:09:13.000Z</time>
      </trkpt>
      <trkpt lat="42.322388" lon="-8.807603">
        <ele>41.4</ele>
        <time>1970-01-01T04:09:14.000Z</time>
      </trkpt>
      <trkpt lat="42.322393" lon="-8.807605">
        <ele>41.4</ele>
        <time>1970-01-01T04:09:15.000Z</time>
      </trkpt>
      <trkpt lat="42.322397" lon="-8.807612">
        <ele>41.2</ele>
        <time>1970-01-01T04:09:16.000Z</time>
      </trkpt>
      <trkpt lat="42.322401" lon="-8.807616">
        <ele>41.2</ele>
        <time>1970-01-01T04:09:17.000Z</time>
      </trkpt>
      <trkpt lat="42.322407" lon="-8.807621">
        <ele>41.2</ele>
        <time>1970-01-01T04:09:18.000Z</time>
      </trkpt>
      <trkpt lat="42.322416" lon="-8.80763">
        <ele>41.2</ele>
        <time>1970-01-01T04:09:19.000Z</time>
      </trkpt>
      <trkpt lat="42.322416" lon="-8.80763">
        <ele>41.2</ele>
        <time>1970-01-01T04:09:20.000Z</time>
      </trkpt>
      <trkpt lat="42.322429" lon="-8.807641">
        <ele>41.2</ele>
        <time>1970-01-01T04:09:21.000Z</time>
      </trkpt>
      <trkpt lat="42.322441" lon="-8.807657">
        <ele>41</ele>
        <time>1970-01-01T04:09:22.000Z</time>
      </trkpt>
      <trkpt lat="42.322453" lon="-8.807675">
        <ele>41</ele>
        <time>1970-01-01T04:09:23.000Z</time>
      </trkpt>
      <trkpt lat="42.322466" lon="-8.807686">
        <ele>40.8</ele>
        <time>1970-01-01T04:09:24.000Z</time>
      </trkpt>
      <trkpt lat="42.322478" lon="-8.807701">
        <ele>40.8</ele>
        <time>1970-01-01T04:09:25.000Z</time>
      </trkpt>
      <trkpt lat="42.322488" lon="-8.807718">
        <ele>40.8</ele>
        <time>1970-01-01T04:09:26.000Z</time>
      </trkpt>
      <trkpt lat="42.322499" lon="-8.807739">
        <ele>40.6</ele>
        <time>1970-01-01T04:09:27.000Z</time>
      </trkpt>
      <trkpt lat="42.32251" lon="-8.807754">
        <ele>40.6</ele>
        <time>1970-01-01T04:09:28.000Z</time>
      </trkpt>
      <trkpt lat="42.322518" lon="-8.807767">
        <ele>40.6</ele>
        <time>1970-01-01T04:09:29.000Z</time>
      </trkpt>
      <trkpt lat="42.322527" lon="-8.807781">
        <ele>40.6</ele>
        <time>1970-01-01T04:09:30.000Z</time>
      </trkpt>
      <trkpt lat="42.322536" lon="-8.807794">
        <ele>40.6</ele>
        <time>1970-01-01T04:09:31.000Z</time>
      </trkpt>
      <trkpt lat="42.322548" lon="-8.807807">
        <ele>40.6</ele>
        <time>1970-01-01T04:09:32.000Z</time>
      </trkpt>
      <trkpt lat="42.322559" lon="-8.807816">
        <ele>40.8</ele>
        <time>1970-01-01T04:09:33.000Z</time>
      </trkpt>
      <trkpt lat="42.322569" lon="-8.807824">
        <ele>40.8</ele>
        <time>1970-01-01T04:09:34.000Z</time>
      </trkpt>
      <trkpt lat="42.322578" lon="-8.807838">
        <ele>41</ele>
        <time>1970-01-01T04:09:35.000Z</time>
      </trkpt>
      <trkpt lat="42.322586" lon="-8.807857">
        <ele>41</ele>
        <time>1970-01-01T04:09:36.000Z</time>
      </trkpt>
      <trkpt lat="42.322599" lon="-8.80788">
        <ele>41.2</ele>
        <time>1970-01-01T04:09:37.000Z</time>
      </trkpt>
      <trkpt lat="42.322613" lon="-8.807896">
        <ele>41.2</ele>
        <time>1970-01-01T04:09:38.000Z</time>
      </trkpt>
      <trkpt lat="42.322626" lon="-8.807913">
        <ele>41.2</ele>
        <time>1970-01-01T04:09:39.000Z</time>
      </trkpt>
      <trkpt lat="42.32264" lon="-8.807931">
        <ele>41</ele>
        <time>1970-01-01T04:09:40.000Z</time>
      </trkpt>
      <trkpt lat="42.322655" lon="-8.807946">
        <ele>40.8</ele>
        <time>1970-01-01T04:09:41.000Z</time>
      </trkpt>
      <trkpt lat="42.322666" lon="-8.807961">
        <ele>40.8</ele>
        <time>1970-01-01T04:09:42.000Z</time>
      </trkpt>
      <trkpt lat="42.322676" lon="-8.807973">
        <ele>40.8</ele>
        <time>1970-01-01T04:09:43.000Z</time>
      </trkpt>
      <trkpt lat="42.322685" lon="-8.807984">
        <ele>40.8</ele>
        <time>1970-01-01T04:09:44.000Z</time>
      </trkpt>
      <trkpt lat="42.322695" lon="-8.807993">
        <ele>40.6</ele>
        <time>1970-01-01T04:09:45.000Z</time>
      </trkpt>
      <trkpt lat="42.322705" lon="-8.807998">
        <ele>40.6</ele>
        <time>1970-01-01T04:09:46.000Z</time>
      </trkpt>
      <trkpt lat="42.322715" lon="-8.808002">
        <ele>40.6</ele>
        <time>1970-01-01T04:09:47.000Z</time>
      </trkpt>
      <trkpt lat="42.322728" lon="-8.808004">
        <ele>40.6</ele>
        <time>1970-01-01T04:09:48.000Z</time>
      </trkpt>
      <trkpt lat="42.322741" lon="-8.808008">
        <ele>40.6</ele>
        <time>1970-01-01T04:09:49.000Z</time>
      </trkpt>
      <trkpt lat="42.322755" lon="-8.808013">
        <ele>40.4</ele>
        <time>1970-01-01T04:09:50.000Z</time>
      </trkpt>
      <trkpt lat="42.322768" lon="-8.808018">
        <ele>40.6</ele>
        <time>1970-01-01T04:09:51.000Z</time>
      </trkpt>
      <trkpt lat="42.322781" lon="-8.808027">
        <ele>40.6</ele>
        <time>1970-01-01T04:09:52.000Z</time>
      </trkpt>
      <trkpt lat="42.322796" lon="-8.808041">
        <ele>40.6</ele>
        <time>1970-01-01T04:09:53.000Z</time>
      </trkpt>
      <trkpt lat="42.32281" lon="-8.808054">
        <ele>40.6</ele>
        <time>1970-01-01T04:09:54.000Z</time>
      </trkpt>
      <trkpt lat="42.322821" lon="-8.808064">
        <ele>41</ele>
        <time>1970-01-01T04:09:55.000Z</time>
      </trkpt>
      <trkpt lat="42.322832" lon="-8.808071">
        <ele>41.2</ele>
        <time>1970-01-01T04:09:56.000Z</time>
      </trkpt>
      <trkpt lat="42.322844" lon="-8.808078">
        <ele>41.4</ele>
        <time>1970-01-01T04:09:57.000Z</time>
      </trkpt>
      <trkpt lat="42.322855" lon="-8.808088">
        <ele>41.2</ele>
        <time>1970-01-01T04:09:58.000Z</time>
      </trkpt>
      <trkpt lat="42.322865" lon="-8.808096">
        <ele>41.2</ele>
        <time>1970-01-01T04:09:59.000Z</time>
      </trkpt>
      <trkpt lat="42.322875" lon="-8.808098">
        <ele>41.2</ele>
        <time>1970-01-01T04:10:00.000Z</time>
      </trkpt>
      <trkpt lat="42.322885" lon="-8.808094">
        <ele>41.2</ele>
        <time>1970-01-01T04:10:01.000Z</time>
      </trkpt>
      <trkpt lat="42.322893" lon="-8.808089">
        <ele>41.2</ele>
        <time>1970-01-01T04:10:02.000Z</time>
      </trkpt>
      <trkpt lat="42.322901" lon="-8.808079">
        <ele>41.2</ele>
        <time>1970-01-01T04:10:03.000Z</time>
      </trkpt>
      <trkpt lat="42.322909" lon="-8.808062">
        <ele>41.2</ele>
        <time>1970-01-01T04:10:04.000Z</time>
      </trkpt>
      <trkpt lat="42.322918" lon="-8.808042">
        <ele>41.2</ele>
        <time>1970-01-01T04:10:05.000Z</time>
      </trkpt>
      <trkpt lat="42.322924" lon="-8.808021">
        <ele>41.2</ele>
        <time>1970-01-01T04:10:06.000Z</time>
      </trkpt>
      <trkpt lat="42.322928" lon="-8.807999">
        <ele>41.2</ele>
        <time>1970-01-01T04:10:07.000Z</time>
      </trkpt>
      <trkpt lat="42.322933" lon="-8.807981">
        <ele>41.2</ele>
        <time>1970-01-01T04:10:08.000Z</time>
      </trkpt>
      <trkpt lat="42.322937" lon="-8.807961">
        <ele>41.6</ele>
        <time>1970-01-01T04:10:09.000Z</time>
      </trkpt>
      <trkpt lat="42.322943" lon="-8.807944">
        <ele>41.6</ele>
        <time>1970-01-01T04:10:10.000Z</time>
      </trkpt>
      <trkpt lat="42.322949" lon="-8.807926">
        <ele>41.4</ele>
        <time>1970-01-01T04:10:11.000Z</time>
      </trkpt>
      <trkpt lat="42.322957" lon="-8.807913">
        <ele>41.4</ele>
        <time>1970-01-01T04:10:12.000Z</time>
      </trkpt>
      <trkpt lat="42.322964" lon="-8.807899">
        <ele>41.6</ele>
        <time>1970-01-01T04:10:13.000Z</time>
      </trkpt>
      <trkpt lat="42.322968" lon="-8.807882">
        <ele>41.6</ele>
        <time>1970-01-01T04:10:14.000Z</time>
      </trkpt>
      <trkpt lat="42.322973" lon="-8.807863">
        <ele>41.8</ele>
        <time>1970-01-01T04:10:15.000Z</time>
      </trkpt>
      <trkpt lat="42.322977" lon="-8.807844">
        <ele>41.8</ele>
        <time>1970-01-01T04:10:16.000Z</time>
      </trkpt>
      <trkpt lat="42.322984" lon="-8.80783">
        <ele>41.8</ele>
        <time>1970-01-01T04:10:17.000Z</time>
      </trkpt>
      <trkpt lat="42.322993" lon="-8.807813">
        <ele>42</ele>
        <time>1970-01-01T04:10:18.000Z</time>
      </trkpt>
      <trkpt lat="42.323001" lon="-8.807795">
        <ele>42</ele>
        <time>1970-01-01T04:10:19.000Z</time>
      </trkpt>
      <trkpt lat="42.32301" lon="-8.807778">
        <ele>42</ele>
        <time>1970-01-01T04:10:20.000Z</time>
      </trkpt>
      <trkpt lat="42.323019" lon="-8.807761">
        <ele>42</ele>
        <time>1970-01-01T04:10:21.000Z</time>
      </trkpt>
      <trkpt lat="42.323025" lon="-8.807746">
        <ele>42.2</ele>
        <time>1970-01-01T04:10:22.000Z</time>
      </trkpt>
      <trkpt lat="42.323033" lon="-8.80773">
        <ele>42.2</ele>
        <time>1970-01-01T04:10:23.000Z</time>
      </trkpt>
      <trkpt lat="42.32304" lon="-8.807712">
        <ele>42</ele>
        <time>1970-01-01T04:10:24.000Z</time>
      </trkpt>
      <trkpt lat="42.323046" lon="-8.807689">
        <ele>42</ele>
        <time>1970-01-01T04:10:25.000Z</time>
      </trkpt>
      <trkpt lat="42.323054" lon="-8.807671">
        <ele>42</ele>
        <time>1970-01-01T04:10:26.000Z</time>
      </trkpt>
      <trkpt lat="42.323059" lon="-8.807653">
        <ele>42</ele>
        <time>1970-01-01T04:10:27.000Z</time>
      </trkpt>
      <trkpt lat="42.323064" lon="-8.807636">
        <ele>42.2</ele>
        <time>1970-01-01T04:10:28.000Z</time>
      </trkpt>
      <trkpt lat="42.323067" lon="-8.807619">
        <ele>42.2</ele>
        <time>1970-01-01T04:10:29.000Z</time>
      </trkpt>
      <trkpt lat="42.323068" lon="-8.807598">
        <ele>42.4</ele>
        <time>1970-01-01T04:10:30.000Z</time>
      </trkpt>
      <trkpt lat="42.323072" lon="-8.807581">
        <ele>42.4</ele>
        <time>1970-01-01T04:10:31.000Z</time>
      </trkpt>
      <trkpt lat="42.323073" lon="-8.807562">
        <ele>42.6</ele>
        <time>1970-01-01T04:10:32.000Z</time>
      </trkpt>
      <trkpt lat="42.323074" lon="-8.80754">
        <ele>42.8</ele>
        <time>1970-01-01T04:10:33.000Z</time>
      </trkpt>
      <trkpt lat="42.323069" lon="-8.807518">
        <ele>43</ele>
        <time>1970-01-01T04:10:34.000Z</time>
      </trkpt>
      <trkpt lat="42.323062" lon="-8.807495">
        <ele>43.2</ele>
        <time>1970-01-01T04:10:35.000Z</time>
      </trkpt>
      <trkpt lat="42.323056" lon="-8.807477">
        <ele>43.2</ele>
        <time>1970-01-01T04:10:36.000Z</time>
      </trkpt>
      <trkpt lat="42.323049" lon="-8.807457">
        <ele>43.4</ele>
        <time>1970-01-01T04:10:37.000Z</time>
      </trkpt>
      <trkpt lat="42.32304" lon="-8.807438">
        <ele>43.4</ele>
        <time>1970-01-01T04:10:38.000Z</time>
      </trkpt>
      <trkpt lat="42.32303" lon="-8.807423">
        <ele>43.6</ele>
        <time>1970-01-01T04:10:39.000Z</time>
      </trkpt>
      <trkpt lat="42.32302" lon="-8.807408">
        <ele>43.6</ele>
        <time>1970-01-01T04:10:40.000Z</time>
      </trkpt>
      <trkpt lat="42.32301" lon="-8.807399">
        <ele>43.8</ele>
        <time>1970-01-01T04:10:41.000Z</time>
      </trkpt>
      <trkpt lat="42.323" lon="-8.807387">
        <ele>43.8</ele>
        <time>1970-01-01T04:10:42.000Z</time>
      </trkpt>
      <trkpt lat="42.322988" lon="-8.807376">
        <ele>44</ele>
        <time>1970-01-01T04:10:43.000Z</time>
      </trkpt>
      <trkpt lat="42.322974" lon="-8.807366">
        <ele>44.2</ele>
        <time>1970-01-01T04:10:44.000Z</time>
      </trkpt>
      <trkpt lat="42.322963" lon="-8.807357">
        <ele>44.2</ele>
        <time>1970-01-01T04:10:45.000Z</time>
      </trkpt>
      <trkpt lat="42.322952" lon="-8.807347">
        <ele>44.4</ele>
        <time>1970-01-01T04:10:46.000Z</time>
      </trkpt>
      <trkpt lat="42.322942" lon="-8.807339">
        <ele>44.4</ele>
        <time>1970-01-01T04:10:47.000Z</time>
      </trkpt>
      <trkpt lat="42.322933" lon="-8.807331">
        <ele>44.4</ele>
        <time>1970-01-01T04:10:48.000Z</time>
      </trkpt>
      <trkpt lat="42.322923" lon="-8.807323">
        <ele>44.6</ele>
        <time>1970-01-01T04:10:49.000Z</time>
      </trkpt>
      <trkpt lat="42.322913" lon="-8.807317">
        <ele>44.8</ele>
        <time>1970-01-01T04:10:50.000Z</time>
      </trkpt>
      <trkpt lat="42.322902" lon="-8.807307">
        <ele>45.2</ele>
        <time>1970-01-01T04:10:51.000Z</time>
      </trkpt>
      <trkpt lat="42.322892" lon="-8.807298">
        <ele>45.4</ele>
        <time>1970-01-01T04:10:52.000Z</time>
      </trkpt>
      <trkpt lat="42.322883" lon="-8.807289">
        <ele>45.6</ele>
        <time>1970-01-01T04:10:53.000Z</time>
      </trkpt>
      <trkpt lat="42.322873" lon="-8.807275">
        <ele>45.8</ele>
        <time>1970-01-01T04:10:54.000Z</time>
      </trkpt>
      <trkpt lat="42.322861" lon="-8.807256">
        <ele>46</ele>
        <time>1970-01-01T04:10:55.000Z</time>
      </trkpt>
      <trkpt lat="42.322853" lon="-8.80724">
        <ele>46</ele>
        <time>1970-01-01T04:10:56.000Z</time>
      </trkpt>
      <trkpt lat="42.322844" lon="-8.807222">
        <ele>46.2</ele>
        <time>1970-01-01T04:10:57.000Z</time>
      </trkpt>
      <trkpt lat="42.322837" lon="-8.807207">
        <ele>46.4</ele>
        <time>1970-01-01T04:10:58.000Z</time>
      </trkpt>
      <trkpt lat="42.322833" lon="-8.807188">
        <ele>46.6</ele>
        <time>1970-01-01T04:10:59.000Z</time>
      </trkpt>
      <trkpt lat="42.322826" lon="-8.807169">
        <ele>46.8</ele>
        <time>1970-01-01T04:11:00.000Z</time>
      </trkpt>
      <trkpt lat="42.322821" lon="-8.807148">
        <ele>47</ele>
        <time>1970-01-01T04:11:01.000Z</time>
      </trkpt>
      <trkpt lat="42.322816" lon="-8.807131">
        <ele>47.2</ele>
        <time>1970-01-01T04:11:02.000Z</time>
      </trkpt>
      <trkpt lat="42.322813" lon="-8.807113">
        <ele>47.4</ele>
        <time>1970-01-01T04:11:03.000Z</time>
      </trkpt>
      <trkpt lat="42.322811" lon="-8.807099">
        <ele>47.4</ele>
        <time>1970-01-01T04:11:04.000Z</time>
      </trkpt>
      <trkpt lat="42.322808" lon="-8.807082">
        <ele>47.6</ele>
        <time>1970-01-01T04:11:05.000Z</time>
      </trkpt>
      <trkpt lat="42.322805" lon="-8.807063">
        <ele>47.8</ele>
        <time>1970-01-01T04:11:06.000Z</time>
      </trkpt>
      <trkpt lat="42.322801" lon="-8.807043">
        <ele>48.2</ele>
        <time>1970-01-01T04:11:07.000Z</time>
      </trkpt>
      <trkpt lat="42.322797" lon="-8.807022">
        <ele>48.4</ele>
        <time>1970-01-01T04:11:08.000Z</time>
      </trkpt>
      <trkpt lat="42.322795" lon="-8.807003">
        <ele>48.6</ele>
        <time>1970-01-01T04:11:09.000Z</time>
      </trkpt>
      <trkpt lat="42.322797" lon="-8.806987">
        <ele>48.8</ele>
        <time>1970-01-01T04:11:10.000Z</time>
      </trkpt>
      <trkpt lat="42.3228" lon="-8.806973">
        <ele>49</ele>
        <time>1970-01-01T04:11:11.000Z</time>
      </trkpt>
      <trkpt lat="42.322805" lon="-8.806961">
        <ele>49.2</ele>
        <time>1970-01-01T04:11:12.000Z</time>
      </trkpt>
      <trkpt lat="42.322807" lon="-8.806947">
        <ele>49.2</ele>
        <time>1970-01-01T04:11:13.000Z</time>
      </trkpt>
      <trkpt lat="42.322811" lon="-8.806932">
        <ele>49.2</ele>
        <time>1970-01-01T04:11:14.000Z</time>
      </trkpt>
      <trkpt lat="42.322816" lon="-8.806917">
        <ele>49.4</ele>
        <time>1970-01-01T04:11:15.000Z</time>
      </trkpt>
      <trkpt lat="42.322824" lon="-8.806903">
        <ele>49.8</ele>
        <time>1970-01-01T04:11:16.000Z</time>
      </trkpt>
      <trkpt lat="42.322833" lon="-8.806888">
        <ele>50</ele>
        <time>1970-01-01T04:11:17.000Z</time>
      </trkpt>
      <trkpt lat="42.322842" lon="-8.806872">
        <ele>50.4</ele>
        <time>1970-01-01T04:11:18.000Z</time>
      </trkpt>
      <trkpt lat="42.322848" lon="-8.806855">
        <ele>50.4</ele>
        <time>1970-01-01T04:11:19.000Z</time>
      </trkpt>
      <trkpt lat="42.322855" lon="-8.80684">
        <ele>50.6</ele>
        <time>1970-01-01T04:11:20.000Z</time>
      </trkpt>
      <trkpt lat="42.322863" lon="-8.806827">
        <ele>50.8</ele>
        <time>1970-01-01T04:11:21.000Z</time>
      </trkpt>
      <trkpt lat="42.32287" lon="-8.806816">
        <ele>51</ele>
        <time>1970-01-01T04:11:22.000Z</time>
      </trkpt>
      <trkpt lat="42.322877" lon="-8.806806">
        <ele>51.2</ele>
        <time>1970-01-01T04:11:23.000Z</time>
      </trkpt>
      <trkpt lat="42.322887" lon="-8.806797">
        <ele>51.4</ele>
        <time>1970-01-01T04:11:24.000Z</time>
      </trkpt>
      <trkpt lat="42.322895" lon="-8.806789">
        <ele>51.6</ele>
        <time>1970-01-01T04:11:25.000Z</time>
      </trkpt>
      <trkpt lat="42.322907" lon="-8.806784">
        <ele>51.8</ele>
        <time>1970-01-01T04:11:26.000Z</time>
      </trkpt>
      <trkpt lat="42.322915" lon="-8.806774">
        <ele>52.2</ele>
        <time>1970-01-01T04:11:27.000Z</time>
      </trkpt>
      <trkpt lat="42.322923" lon="-8.806764">
        <ele>52.6</ele>
        <time>1970-01-01T04:11:28.000Z</time>
      </trkpt>
      <trkpt lat="42.322931" lon="-8.806754">
        <ele>52.8</ele>
        <time>1970-01-01T04:11:29.000Z</time>
      </trkpt>
      <trkpt lat="42.32294" lon="-8.806744">
        <ele>53</ele>
        <time>1970-01-01T04:11:30.000Z</time>
      </trkpt>
      <trkpt lat="42.322949" lon="-8.806735">
        <ele>53.2</ele>
        <time>1970-01-01T04:11:31.000Z</time>
      </trkpt>
      <trkpt lat="42.322958" lon="-8.806727">
        <ele>53.4</ele>
        <time>1970-01-01T04:11:32.000Z</time>
      </trkpt>
      <trkpt lat="42.322966" lon="-8.806717">
        <ele>53.6</ele>
        <time>1970-01-01T04:11:33.000Z</time>
      </trkpt>
      <trkpt lat="42.322975" lon="-8.806705">
        <ele>53.8</ele>
        <time>1970-01-01T04:11:34.000Z</time>
      </trkpt>
      <trkpt lat="42.322984" lon="-8.806695">
        <ele>54</ele>
        <time>1970-01-01T04:11:35.000Z</time>
      </trkpt>
      <trkpt lat="42.322994" lon="-8.806686">
        <ele>54.2</ele>
        <time>1970-01-01T04:11:36.000Z</time>
      </trkpt>
      <trkpt lat="42.323001" lon="-8.806674">
        <ele>54.2</ele>
        <time>1970-01-01T04:11:37.000Z</time>
      </trkpt>
      <trkpt lat="42.323011" lon="-8.806659">
        <ele>54.4</ele>
        <time>1970-01-01T04:11:38.000Z</time>
      </trkpt>
      <trkpt lat="42.323023" lon="-8.806648">
        <ele>54.6</ele>
        <time>1970-01-01T04:11:39.000Z</time>
      </trkpt>
      <trkpt lat="42.323033" lon="-8.806634">
        <ele>54.6</ele>
        <time>1970-01-01T04:11:40.000Z</time>
      </trkpt>
      <trkpt lat="42.323045" lon="-8.806619">
        <ele>54.8</ele>
        <time>1970-01-01T04:11:41.000Z</time>
      </trkpt>
      <trkpt lat="42.323056" lon="-8.806603">
        <ele>55</ele>
        <time>1970-01-01T04:11:42.000Z</time>
      </trkpt>
      <trkpt lat="42.323071" lon="-8.806588">
        <ele>55.4</ele>
        <time>1970-01-01T04:11:43.000Z</time>
      </trkpt>
      <trkpt lat="42.323083" lon="-8.806575">
        <ele>55.6</ele>
        <time>1970-01-01T04:11:44.000Z</time>
      </trkpt>
      <trkpt lat="42.323093" lon="-8.806565">
        <ele>55.8</ele>
        <time>1970-01-01T04:11:45.000Z</time>
      </trkpt>
      <trkpt lat="42.323102" lon="-8.806555">
        <ele>56</ele>
        <time>1970-01-01T04:11:46.000Z</time>
      </trkpt>
      <trkpt lat="42.323111" lon="-8.806546">
        <ele>56.2</ele>
        <time>1970-01-01T04:11:47.000Z</time>
      </trkpt>
      <trkpt lat="42.323123" lon="-8.806538">
        <ele>56.6</ele>
        <time>1970-01-01T04:11:48.000Z</time>
      </trkpt>
      <trkpt lat="42.323136" lon="-8.806527">
        <ele>56.6</ele>
        <time>1970-01-01T04:11:49.000Z</time>
      </trkpt>
      <trkpt lat="42.323148" lon="-8.806515">
        <ele>57</ele>
        <time>1970-01-01T04:11:50.000Z</time>
      </trkpt>
      <trkpt lat="42.32316" lon="-8.8065">
        <ele>57.2</ele>
        <time>1970-01-01T04:11:51.000Z</time>
      </trkpt>
      <trkpt lat="42.323171" lon="-8.806485">
        <ele>57.4</ele>
        <time>1970-01-01T04:11:52.000Z</time>
      </trkpt>
      <trkpt lat="42.323181" lon="-8.806469">
        <ele>57.8</ele>
        <time>1970-01-01T04:11:53.000Z</time>
      </trkpt>
      <trkpt lat="42.323192" lon="-8.806455">
        <ele>58</ele>
        <time>1970-01-01T04:11:54.000Z</time>
      </trkpt>
      <trkpt lat="42.323204" lon="-8.806443">
        <ele>58.4</ele>
        <time>1970-01-01T04:11:55.000Z</time>
      </trkpt>
      <trkpt lat="42.323216" lon="-8.806435">
        <ele>58.6</ele>
        <time>1970-01-01T04:11:56.000Z</time>
      </trkpt>
      <trkpt lat="42.323228" lon="-8.806424">
        <ele>58.8</ele>
        <time>1970-01-01T04:11:57.000Z</time>
      </trkpt>
      <trkpt lat="42.323239" lon="-8.806411">
        <ele>59</ele>
        <time>1970-01-01T04:11:58.000Z</time>
      </trkpt>
      <trkpt lat="42.32325" lon="-8.806396">
        <ele>59.2</ele>
        <time>1970-01-01T04:11:59.000Z</time>
      </trkpt>
      <trkpt lat="42.323257" lon="-8.80638">
        <ele>59.4</ele>
        <time>1970-01-01T04:12:00.000Z</time>
      </trkpt>
      <trkpt lat="42.323268" lon="-8.806367">
        <ele>59.6</ele>
        <time>1970-01-01T04:12:01.000Z</time>
      </trkpt>
      <trkpt lat="42.323279" lon="-8.806357">
        <ele>59.6</ele>
        <time>1970-01-01T04:12:02.000Z</time>
      </trkpt>
      <trkpt lat="42.32329" lon="-8.806345">
        <ele>59.6</ele>
        <time>1970-01-01T04:12:03.000Z</time>
      </trkpt>
      <trkpt lat="42.323303" lon="-8.806335">
        <ele>59.6</ele>
        <time>1970-01-01T04:12:04.000Z</time>
      </trkpt>
      <trkpt lat="42.323315" lon="-8.806326">
        <ele>59.8</ele>
        <time>1970-01-01T04:12:05.000Z</time>
      </trkpt>
      <trkpt lat="42.323327" lon="-8.806316">
        <ele>59.8</ele>
        <time>1970-01-01T04:12:06.000Z</time>
      </trkpt>
      <trkpt lat="42.323338" lon="-8.806304">
        <ele>59.8</ele>
        <time>1970-01-01T04:12:07.000Z</time>
      </trkpt>
      <trkpt lat="42.323356" lon="-8.806294">
        <ele>59.8</ele>
        <time>1970-01-01T04:12:08.000Z</time>
      </trkpt>
      <trkpt lat="42.323366" lon="-8.806286">
        <ele>59.8</ele>
        <time>1970-01-01T04:12:09.000Z</time>
      </trkpt>
      <trkpt lat="42.323375" lon="-8.806274">
        <ele>59.8</ele>
        <time>1970-01-01T04:12:10.000Z</time>
      </trkpt>
      <trkpt lat="42.323386" lon="-8.806263">
        <ele>60</ele>
        <time>1970-01-01T04:12:11.000Z</time>
      </trkpt>
      <trkpt lat="42.323397" lon="-8.806251">
        <ele>60.2</ele>
        <time>1970-01-01T04:12:12.000Z</time>
      </trkpt>
      <trkpt lat="42.323407" lon="-8.806239">
        <ele>60.6</ele>
        <time>1970-01-01T04:12:13.000Z</time>
      </trkpt>
      <trkpt lat="42.323416" lon="-8.806226">
        <ele>61</ele>
        <time>1970-01-01T04:12:14.000Z</time>
      </trkpt>
      <trkpt lat="42.323423" lon="-8.806214">
        <ele>61.2</ele>
        <time>1970-01-01T04:12:15.000Z</time>
      </trkpt>
      <trkpt lat="42.323432" lon="-8.806205">
        <ele>61.4</ele>
        <time>1970-01-01T04:12:16.000Z</time>
      </trkpt>
      <trkpt lat="42.323441" lon="-8.806193">
        <ele>61.6</ele>
        <time>1970-01-01T04:12:17.000Z</time>
      </trkpt>
      <trkpt lat="42.323451" lon="-8.806182">
        <ele>61.6</ele>
        <time>1970-01-01T04:12:18.000Z</time>
      </trkpt>
      <trkpt lat="42.323462" lon="-8.806168">
        <ele>61.8</ele>
        <time>1970-01-01T04:12:19.000Z</time>
      </trkpt>
      <trkpt lat="42.323472" lon="-8.806153">
        <ele>62.2</ele>
        <time>1970-01-01T04:12:20.000Z</time>
      </trkpt>
      <trkpt lat="42.323482" lon="-8.806137">
        <ele>62.4</ele>
        <time>1970-01-01T04:12:21.000Z</time>
      </trkpt>
      <trkpt lat="42.323493" lon="-8.806121">
        <ele>62.8</ele>
        <time>1970-01-01T04:12:22.000Z</time>
      </trkpt>
      <trkpt lat="42.323502" lon="-8.806104">
        <ele>63</ele>
        <time>1970-01-01T04:12:23.000Z</time>
      </trkpt>
      <trkpt lat="42.32351" lon="-8.806086">
        <ele>63.2</ele>
        <time>1970-01-01T04:12:24.000Z</time>
      </trkpt>
      <trkpt lat="42.323517" lon="-8.806073">
        <ele>63.4</ele>
        <time>1970-01-01T04:12:25.000Z</time>
      </trkpt>
      <trkpt lat="42.323525" lon="-8.80606">
        <ele>63.6</ele>
        <time>1970-01-01T04:12:26.000Z</time>
      </trkpt>
      <trkpt lat="42.323532" lon="-8.806044">
        <ele>63.8</ele>
        <time>1970-01-01T04:12:27.000Z</time>
      </trkpt>
      <trkpt lat="42.323538" lon="-8.806028">
        <ele>63.8</ele>
        <time>1970-01-01T04:12:28.000Z</time>
      </trkpt>
      <trkpt lat="42.323544" lon="-8.80601">
        <ele>64.2</ele>
        <time>1970-01-01T04:12:29.000Z</time>
      </trkpt>
      <trkpt lat="42.323553" lon="-8.805994">
        <ele>64.4</ele>
        <time>1970-01-01T04:12:30.000Z</time>
      </trkpt>
      <trkpt lat="42.323561" lon="-8.805978">
        <ele>64.6</ele>
        <time>1970-01-01T04:12:31.000Z</time>
      </trkpt>
      <trkpt lat="42.323569" lon="-8.805966">
        <ele>64.8</ele>
        <time>1970-01-01T04:12:32.000Z</time>
      </trkpt>
      <trkpt lat="42.323576" lon="-8.805953">
        <ele>64.8</ele>
        <time>1970-01-01T04:12:33.000Z</time>
      </trkpt>
      <trkpt lat="42.323581" lon="-8.805942">
        <ele>64.8</ele>
        <time>1970-01-01T04:12:34.000Z</time>
      </trkpt>
      <trkpt lat="42.323587" lon="-8.805927">
        <ele>65</ele>
        <time>1970-01-01T04:12:35.000Z</time>
      </trkpt>
      <trkpt lat="42.323595" lon="-8.805909">
        <ele>65.2</ele>
        <time>1970-01-01T04:12:36.000Z</time>
      </trkpt>
      <trkpt lat="42.323601" lon="-8.805891">
        <ele>65.2</ele>
        <time>1970-01-01T04:12:37.000Z</time>
      </trkpt>
      <trkpt lat="42.323607" lon="-8.805874">
        <ele>65.4</ele>
        <time>1970-01-01T04:12:38.000Z</time>
      </trkpt>
      <trkpt lat="42.323611" lon="-8.805856">
        <ele>65.6</ele>
        <time>1970-01-01T04:12:39.000Z</time>
      </trkpt>
      <trkpt lat="42.323617" lon="-8.805841">
        <ele>65.8</ele>
        <time>1970-01-01T04:12:40.000Z</time>
      </trkpt>
      <trkpt lat="42.323623" lon="-8.805827">
        <ele>66</ele>
        <time>1970-01-01T04:12:41.000Z</time>
      </trkpt>
      <trkpt lat="42.323629" lon="-8.805813">
        <ele>66.2</ele>
        <time>1970-01-01T04:12:42.000Z</time>
      </trkpt>
      <trkpt lat="42.323634" lon="-8.805798">
        <ele>66.4</ele>
        <time>1970-01-01T04:12:43.000Z</time>
      </trkpt>
      <trkpt lat="42.323639" lon="-8.80578">
        <ele>66.4</ele>
        <time>1970-01-01T04:12:44.000Z</time>
      </trkpt>
      <trkpt lat="42.323645" lon="-8.805762">
        <ele>66.6</ele>
        <time>1970-01-01T04:12:45.000Z</time>
      </trkpt>
      <trkpt lat="42.323651" lon="-8.805746">
        <ele>66.8</ele>
        <time>1970-01-01T04:12:46.000Z</time>
      </trkpt>
      <trkpt lat="42.323659" lon="-8.805732">
        <ele>67.2</ele>
        <time>1970-01-01T04:12:47.000Z</time>
      </trkpt>
      <trkpt lat="42.323665" lon="-8.805718">
        <ele>67.4</ele>
        <time>1970-01-01T04:12:48.000Z</time>
      </trkpt>
      <trkpt lat="42.32367" lon="-8.805702">
        <ele>67.4</ele>
        <time>1970-01-01T04:12:49.000Z</time>
      </trkpt>
      <trkpt lat="42.323675" lon="-8.805684">
        <ele>67.8</ele>
        <time>1970-01-01T04:12:50.000Z</time>
      </trkpt>
      <trkpt lat="42.323682" lon="-8.805666">
        <ele>68</ele>
        <time>1970-01-01T04:12:51.000Z</time>
      </trkpt>
      <trkpt lat="42.323688" lon="-8.805649">
        <ele>68.4</ele>
        <time>1970-01-01T04:12:52.000Z</time>
      </trkpt>
      <trkpt lat="42.323694" lon="-8.805629">
        <ele>68.6</ele>
        <time>1970-01-01T04:12:53.000Z</time>
      </trkpt>
      <trkpt lat="42.323698" lon="-8.805611">
        <ele>68.6</ele>
        <time>1970-01-01T04:12:54.000Z</time>
      </trkpt>
      <trkpt lat="42.323704" lon="-8.805597">
        <ele>68.8</ele>
        <time>1970-01-01T04:12:55.000Z</time>
      </trkpt>
      <trkpt lat="42.323708" lon="-8.805582">
        <ele>68.8</ele>
        <time>1970-01-01T04:12:56.000Z</time>
      </trkpt>
      <trkpt lat="42.323713" lon="-8.805572">
        <ele>69</ele>
        <time>1970-01-01T04:12:57.000Z</time>
      </trkpt>
      <trkpt lat="42.323717" lon="-8.805557">
        <ele>69.2</ele>
        <time>1970-01-01T04:12:58.000Z</time>
      </trkpt>
      <trkpt lat="42.32372" lon="-8.805543">
        <ele>69.4</ele>
        <time>1970-01-01T04:12:59.000Z</time>
      </trkpt>
      <trkpt lat="42.323723" lon="-8.805525">
        <ele>69.6</ele>
        <time>1970-01-01T04:13:00.000Z</time>
      </trkpt>
      <trkpt lat="42.323726" lon="-8.805508">
        <ele>70.4</ele>
        <time>1970-01-01T04:13:01.000Z</time>
      </trkpt>
      <trkpt lat="42.323727" lon="-8.80549">
        <ele>70.8</ele>
        <time>1970-01-01T04:13:02.000Z</time>
      </trkpt>
      <trkpt lat="42.32373" lon="-8.805473">
        <ele>71</ele>
        <time>1970-01-01T04:13:03.000Z</time>
      </trkpt>
      <trkpt lat="42.323734" lon="-8.805457">
        <ele>71.2</ele>
        <time>1970-01-01T04:13:04.000Z</time>
      </trkpt>
      <trkpt lat="42.323738" lon="-8.805441">
        <ele>71.2</ele>
        <time>1970-01-01T04:13:05.000Z</time>
      </trkpt>
      <trkpt lat="42.323741" lon="-8.805422">
        <ele>71.4</ele>
        <time>1970-01-01T04:13:06.000Z</time>
      </trkpt>
      <trkpt lat="42.323742" lon="-8.805405">
        <ele>71.8</ele>
        <time>1970-01-01T04:13:07.000Z</time>
      </trkpt>
      <trkpt lat="42.323744" lon="-8.805388">
        <ele>72</ele>
        <time>1970-01-01T04:13:08.000Z</time>
      </trkpt>
      <trkpt lat="42.323744" lon="-8.80537">
        <ele>72.2</ele>
        <time>1970-01-01T04:13:09.000Z</time>
      </trkpt>
      <trkpt lat="42.323748" lon="-8.805356">
        <ele>72.2</ele>
        <time>1970-01-01T04:13:10.000Z</time>
      </trkpt>
      <trkpt lat="42.323753" lon="-8.805343">
        <ele>72.4</ele>
        <time>1970-01-01T04:13:11.000Z</time>
      </trkpt>
      <trkpt lat="42.323759" lon="-8.805332">
        <ele>72.4</ele>
        <time>1970-01-01T04:13:12.000Z</time>
      </trkpt>
      <trkpt lat="42.323764" lon="-8.80532">
        <ele>72.4</ele>
        <time>1970-01-01T04:13:13.000Z</time>
      </trkpt>
      <trkpt lat="42.323771" lon="-8.80531">
        <ele>72.4</ele>
        <time>1970-01-01T04:13:14.000Z</time>
      </trkpt>
      <trkpt lat="42.32378" lon="-8.805299">
        <ele>72.6</ele>
        <time>1970-01-01T04:13:15.000Z</time>
      </trkpt>
      <trkpt lat="42.323787" lon="-8.805288">
        <ele>72.8</ele>
        <time>1970-01-01T04:13:16.000Z</time>
      </trkpt>
      <trkpt lat="42.323797" lon="-8.805274">
        <ele>73</ele>
        <time>1970-01-01T04:13:17.000Z</time>
      </trkpt>
      <trkpt lat="42.323807" lon="-8.80526">
        <ele>73</ele>
        <time>1970-01-01T04:13:18.000Z</time>
      </trkpt>
      <trkpt lat="42.32382" lon="-8.805249">
        <ele>73</ele>
        <time>1970-01-01T04:13:19.000Z</time>
      </trkpt>
      <trkpt lat="42.323834" lon="-8.80524">
        <ele>73.2</ele>
        <time>1970-01-01T04:13:20.000Z</time>
      </trkpt>
      <trkpt lat="42.323848" lon="-8.805229">
        <ele>73</ele>
        <time>1970-01-01T04:13:21.000Z</time>
      </trkpt>
      <trkpt lat="42.323862" lon="-8.805217">
        <ele>73</ele>
        <time>1970-01-01T04:13:22.000Z</time>
      </trkpt>
      <trkpt lat="42.323876" lon="-8.805202">
        <ele>73</ele>
        <time>1970-01-01T04:13:23.000Z</time>
      </trkpt>
      <trkpt lat="42.323891" lon="-8.805184">
        <ele>72.8</ele>
        <time>1970-01-01T04:13:24.000Z</time>
      </trkpt>
      <trkpt lat="42.323903" lon="-8.805168">
        <ele>72.6</ele>
        <time>1970-01-01T04:13:25.000Z</time>
      </trkpt>
      <trkpt lat="42.323915" lon="-8.805149">
        <ele>72.6</ele>
        <time>1970-01-01T04:13:26.000Z</time>
      </trkpt>
      <trkpt lat="42.323925" lon="-8.805132">
        <ele>72.6</ele>
        <time>1970-01-01T04:13:27.000Z</time>
      </trkpt>
      <trkpt lat="42.323937" lon="-8.805117">
        <ele>72.6</ele>
        <time>1970-01-01T04:13:28.000Z</time>
      </trkpt>
      <trkpt lat="42.323946" lon="-8.805105">
        <ele>72.6</ele>
        <time>1970-01-01T04:13:29.000Z</time>
      </trkpt>
      <trkpt lat="42.323956" lon="-8.805091">
        <ele>72.8</ele>
        <time>1970-01-01T04:13:30.000Z</time>
      </trkpt>
      <trkpt lat="42.323964" lon="-8.805078">
        <ele>73</ele>
        <time>1970-01-01T04:13:31.000Z</time>
      </trkpt>
      <trkpt lat="42.323974" lon="-8.805065">
        <ele>73.2</ele>
        <time>1970-01-01T04:13:32.000Z</time>
      </trkpt>
      <trkpt lat="42.323984" lon="-8.805054">
        <ele>73.8</ele>
        <time>1970-01-01T04:13:33.000Z</time>
      </trkpt>
      <trkpt lat="42.323993" lon="-8.805043">
        <ele>74</ele>
        <time>1970-01-01T04:13:34.000Z</time>
      </trkpt>
      <trkpt lat="42.323999" lon="-8.805034">
        <ele>74.2</ele>
        <time>1970-01-01T04:13:35.000Z</time>
      </trkpt>
      <trkpt lat="42.324004" lon="-8.805021">
        <ele>74.6</ele>
        <time>1970-01-01T04:13:36.000Z</time>
      </trkpt>
      <trkpt lat="42.324009" lon="-8.805011">
        <ele>74.8</ele>
        <time>1970-01-01T04:13:37.000Z</time>
      </trkpt>
      <trkpt lat="42.324017" lon="-8.805002">
        <ele>75.2</ele>
        <time>1970-01-01T04:13:38.000Z</time>
      </trkpt>
      <trkpt lat="42.324025" lon="-8.804989">
        <ele>75.4</ele>
        <time>1970-01-01T04:13:39.000Z</time>
      </trkpt>
      <trkpt lat="42.324033" lon="-8.804975">
        <ele>76</ele>
        <time>1970-01-01T04:13:40.000Z</time>
      </trkpt>
      <trkpt lat="42.324044" lon="-8.804961">
        <ele>76.2</ele>
        <time>1970-01-01T04:13:41.000Z</time>
      </trkpt>
      <trkpt lat="42.324056" lon="-8.804945">
        <ele>76.4</ele>
        <time>1970-01-01T04:13:42.000Z</time>
      </trkpt>
      <trkpt lat="42.324067" lon="-8.80493">
        <ele>76.6</ele>
        <time>1970-01-01T04:13:43.000Z</time>
      </trkpt>
      <trkpt lat="42.324078" lon="-8.804912">
        <ele>77</ele>
        <time>1970-01-01T04:13:44.000Z</time>
      </trkpt>
      <trkpt lat="42.324087" lon="-8.804894">
        <ele>77.6</ele>
        <time>1970-01-01T04:13:45.000Z</time>
      </trkpt>
      <trkpt lat="42.324097" lon="-8.80488">
        <ele>78</ele>
        <time>1970-01-01T04:13:46.000Z</time>
      </trkpt>
      <trkpt lat="42.324107" lon="-8.804862">
        <ele>78.2</ele>
        <time>1970-01-01T04:13:47.000Z</time>
      </trkpt>
      <trkpt lat="42.324114" lon="-8.804845">
        <ele>78.6</ele>
        <time>1970-01-01T04:13:48.000Z</time>
      </trkpt>
      <trkpt lat="42.324118" lon="-8.804829">
        <ele>78.8</ele>
        <time>1970-01-01T04:13:49.000Z</time>
      </trkpt>
      <trkpt lat="42.324122" lon="-8.804811">
        <ele>79</ele>
        <time>1970-01-01T04:13:50.000Z</time>
      </trkpt>
      <trkpt lat="42.324129" lon="-8.804798">
        <ele>79.4</ele>
        <time>1970-01-01T04:13:51.000Z</time>
      </trkpt>
      <trkpt lat="42.32414" lon="-8.804789">
        <ele>79.8</ele>
        <time>1970-01-01T04:13:52.000Z</time>
      </trkpt>
      <trkpt lat="42.32415" lon="-8.804776">
        <ele>80.2</ele>
        <time>1970-01-01T04:13:53.000Z</time>
      </trkpt>
      <trkpt lat="42.324163" lon="-8.804763">
        <ele>80.2</ele>
        <time>1970-01-01T04:13:54.000Z</time>
      </trkpt>
      <trkpt lat="42.324174" lon="-8.804751">
        <ele>80.6</ele>
        <time>1970-01-01T04:13:55.000Z</time>
      </trkpt>
      <trkpt lat="42.324183" lon="-8.804738">
        <ele>80.6</ele>
        <time>1970-01-01T04:13:56.000Z</time>
      </trkpt>
      <trkpt lat="42.324191" lon="-8.804723">
        <ele>81</ele>
        <time>1970-01-01T04:13:57.000Z</time>
      </trkpt>
      <trkpt lat="42.324198" lon="-8.804705">
        <ele>81.4</ele>
        <time>1970-01-01T04:13:58.000Z</time>
      </trkpt>
      <trkpt lat="42.324203" lon="-8.804686">
        <ele>81.8</ele>
        <time>1970-01-01T04:13:59.000Z</time>
      </trkpt>
      <trkpt lat="42.32421" lon="-8.804671">
        <ele>81.8</ele>
        <time>1970-01-01T04:14:00.000Z</time>
      </trkpt>
      <trkpt lat="42.324216" lon="-8.804656">
        <ele>82</ele>
        <time>1970-01-01T04:14:01.000Z</time>
      </trkpt>
      <trkpt lat="42.324224" lon="-8.80464">
        <ele>82</ele>
        <time>1970-01-01T04:14:02.000Z</time>
      </trkpt>
      <trkpt lat="42.324234" lon="-8.804629">
        <ele>82.2</ele>
        <time>1970-01-01T04:14:03.000Z</time>
      </trkpt>
      <trkpt lat="42.324244" lon="-8.804616">
        <ele>82.2</ele>
        <time>1970-01-01T04:14:04.000Z</time>
      </trkpt>
      <trkpt lat="42.324255" lon="-8.804604">
        <ele>82.2</ele>
        <time>1970-01-01T04:14:05.000Z</time>
      </trkpt>
      <trkpt lat="42.324266" lon="-8.804591">
        <ele>82.4</ele>
        <time>1970-01-01T04:14:06.000Z</time>
      </trkpt>
      <trkpt lat="42.324277" lon="-8.804581">
        <ele>82.4</ele>
        <time>1970-01-01T04:14:07.000Z</time>
      </trkpt>
      <trkpt lat="42.324288" lon="-8.804568">
        <ele>82.4</ele>
        <time>1970-01-01T04:14:08.000Z</time>
      </trkpt>
      <trkpt lat="42.324298" lon="-8.804556">
        <ele>82.6</ele>
        <time>1970-01-01T04:14:09.000Z</time>
      </trkpt>
      <trkpt lat="42.324307" lon="-8.804542">
        <ele>82.8</ele>
        <time>1970-01-01T04:14:10.000Z</time>
      </trkpt>
      <trkpt lat="42.324315" lon="-8.804528">
        <ele>82.8</ele>
        <time>1970-01-01T04:14:11.000Z</time>
      </trkpt>
      <trkpt lat="42.324323" lon="-8.804513">
        <ele>83</ele>
        <time>1970-01-01T04:14:12.000Z</time>
      </trkpt>
      <trkpt lat="42.32433" lon="-8.804498">
        <ele>83.2</ele>
        <time>1970-01-01T04:14:13.000Z</time>
      </trkpt>
      <trkpt lat="42.324336" lon="-8.804483">
        <ele>83.4</ele>
        <time>1970-01-01T04:14:14.000Z</time>
      </trkpt>
      <trkpt lat="42.324343" lon="-8.80447">
        <ele>83.4</ele>
        <time>1970-01-01T04:14:15.000Z</time>
      </trkpt>
      <trkpt lat="42.324346" lon="-8.804454">
        <ele>83.2</ele>
        <time>1970-01-01T04:14:16.000Z</time>
      </trkpt>
      <trkpt lat="42.324352" lon="-8.804439">
        <ele>83.2</ele>
        <time>1970-01-01T04:14:17.000Z</time>
      </trkpt>
      <trkpt lat="42.324358" lon="-8.804422">
        <ele>83.4</ele>
        <time>1970-01-01T04:14:18.000Z</time>
      </trkpt>
      <trkpt lat="42.324365" lon="-8.804407">
        <ele>83.2</ele>
        <time>1970-01-01T04:14:19.000Z</time>
      </trkpt>
      <trkpt lat="42.324372" lon="-8.804392">
        <ele>83.2</ele>
        <time>1970-01-01T04:14:20.000Z</time>
      </trkpt>
      <trkpt lat="42.324376" lon="-8.804377">
        <ele>83.4</ele>
        <time>1970-01-01T04:14:21.000Z</time>
      </trkpt>
      <trkpt lat="42.324382" lon="-8.804363">
        <ele>83.4</ele>
        <time>1970-01-01T04:14:22.000Z</time>
      </trkpt>
      <trkpt lat="42.324389" lon="-8.804349">
        <ele>83.6</ele>
        <time>1970-01-01T04:14:23.000Z</time>
      </trkpt>
      <trkpt lat="42.324398" lon="-8.804334">
        <ele>83.8</ele>
        <time>1970-01-01T04:14:24.000Z</time>
      </trkpt>
      <trkpt lat="42.324406" lon="-8.804318">
        <ele>84</ele>
        <time>1970-01-01T04:14:25.000Z</time>
      </trkpt>
      <trkpt lat="42.324415" lon="-8.804302">
        <ele>84.2</ele>
        <time>1970-01-01T04:14:26.000Z</time>
      </trkpt>
      <trkpt lat="42.324422" lon="-8.804286">
        <ele>84.2</ele>
        <time>1970-01-01T04:14:27.000Z</time>
      </trkpt>
      <trkpt lat="42.32443" lon="-8.804268">
        <ele>84.4</ele>
        <time>1970-01-01T04:14:28.000Z</time>
      </trkpt>
      <trkpt lat="42.324438" lon="-8.804251">
        <ele>84.4</ele>
        <time>1970-01-01T04:14:29.000Z</time>
      </trkpt>
      <trkpt lat="42.324446" lon="-8.804235">
        <ele>84.4</ele>
        <time>1970-01-01T04:14:30.000Z</time>
      </trkpt>
      <trkpt lat="42.324452" lon="-8.80422">
        <ele>84.4</ele>
        <time>1970-01-01T04:14:31.000Z</time>
      </trkpt>
      <trkpt lat="42.324458" lon="-8.804206">
        <ele>84.6</ele>
        <time>1970-01-01T04:14:32.000Z</time>
      </trkpt>
      <trkpt lat="42.324467" lon="-8.804198">
        <ele>84.8</ele>
        <time>1970-01-01T04:14:33.000Z</time>
      </trkpt>
      <trkpt lat="42.324481" lon="-8.80419">
        <ele>84.8</ele>
        <time>1970-01-01T04:14:34.000Z</time>
      </trkpt>
      <trkpt lat="42.324496" lon="-8.804188">
        <ele>85</ele>
        <time>1970-01-01T04:14:35.000Z</time>
      </trkpt>
      <trkpt lat="42.324511" lon="-8.804187">
        <ele>85</ele>
        <time>1970-01-01T04:14:36.000Z</time>
      </trkpt>
      <trkpt lat="42.324525" lon="-8.804187">
        <ele>85.2</ele>
        <time>1970-01-01T04:14:37.000Z</time>
      </trkpt>
      <trkpt lat="42.324535" lon="-8.804188">
        <ele>85.4</ele>
        <time>1970-01-01T04:14:38.000Z</time>
      </trkpt>
      <trkpt lat="42.324545" lon="-8.80419">
        <ele>85.6</ele>
        <time>1970-01-01T04:14:39.000Z</time>
      </trkpt>
      <trkpt lat="42.324555" lon="-8.804188">
        <ele>85.8</ele>
        <time>1970-01-01T04:14:40.000Z</time>
      </trkpt>
      <trkpt lat="42.324566" lon="-8.804181">
        <ele>86</ele>
        <time>1970-01-01T04:14:41.000Z</time>
      </trkpt>
      <trkpt lat="42.32458" lon="-8.804173">
        <ele>86.2</ele>
        <time>1970-01-01T04:14:42.000Z</time>
      </trkpt>
      <trkpt lat="42.324593" lon="-8.804163">
        <ele>86.2</ele>
        <time>1970-01-01T04:14:43.000Z</time>
      </trkpt>
      <trkpt lat="42.324605" lon="-8.80415">
        <ele>86.4</ele>
        <time>1970-01-01T04:14:44.000Z</time>
      </trkpt>
      <trkpt lat="42.324618" lon="-8.804141">
        <ele>86.2</ele>
        <time>1970-01-01T04:14:45.000Z</time>
      </trkpt>
      <trkpt lat="42.324629" lon="-8.80413">
        <ele>86.2</ele>
        <time>1970-01-01T04:14:46.000Z</time>
      </trkpt>
      <trkpt lat="42.32464" lon="-8.804119">
        <ele>86.2</ele>
        <time>1970-01-01T04:14:47.000Z</time>
      </trkpt>
      <trkpt lat="42.32465" lon="-8.804112">
        <ele>86.2</ele>
        <time>1970-01-01T04:14:48.000Z</time>
      </trkpt>
      <trkpt lat="42.324662" lon="-8.804109">
        <ele>86</ele>
        <time>1970-01-01T04:14:49.000Z</time>
      </trkpt>
      <trkpt lat="42.324675" lon="-8.804109">
        <ele>86</ele>
        <time>1970-01-01T04:14:50.000Z</time>
      </trkpt>
      <trkpt lat="42.32469" lon="-8.804112">
        <ele>86</ele>
        <time>1970-01-01T04:14:51.000Z</time>
      </trkpt>
      <trkpt lat="42.324704" lon="-8.804118">
        <ele>86</ele>
        <time>1970-01-01T04:14:52.000Z</time>
      </trkpt>
      <trkpt lat="42.324719" lon="-8.804125">
        <ele>86.2</ele>
        <time>1970-01-01T04:14:53.000Z</time>
      </trkpt>
      <trkpt lat="42.324734" lon="-8.804133">
        <ele>86.2</ele>
        <time>1970-01-01T04:14:54.000Z</time>
      </trkpt>
      <trkpt lat="42.324747" lon="-8.804141">
        <ele>86.2</ele>
        <time>1970-01-01T04:14:55.000Z</time>
      </trkpt>
      <trkpt lat="42.324759" lon="-8.804155">
        <ele>86.2</ele>
        <time>1970-01-01T04:14:56.000Z</time>
      </trkpt>
      <trkpt lat="42.324774" lon="-8.80417">
        <ele>86.4</ele>
        <time>1970-01-01T04:14:57.000Z</time>
      </trkpt>
      <trkpt lat="42.324788" lon="-8.804186">
        <ele>86.6</ele>
        <time>1970-01-01T04:14:58.000Z</time>
      </trkpt>
      <trkpt lat="42.324802" lon="-8.804207">
        <ele>86.6</ele>
        <time>1970-01-01T04:14:59.000Z</time>
      </trkpt>
      <trkpt lat="42.324814" lon="-8.804226">
        <ele>86.8</ele>
        <time>1970-01-01T04:15:00.000Z</time>
      </trkpt>
      <trkpt lat="42.324828" lon="-8.804242">
        <ele>86.8</ele>
        <time>1970-01-01T04:15:01.000Z</time>
      </trkpt>
      <trkpt lat="42.324841" lon="-8.804251">
        <ele>87</ele>
        <time>1970-01-01T04:15:02.000Z</time>
      </trkpt>
      <trkpt lat="42.324852" lon="-8.80426">
        <ele>86.6</ele>
        <time>1970-01-01T04:15:03.000Z</time>
      </trkpt>
      <trkpt lat="42.32486" lon="-8.804268">
        <ele>86.2</ele>
        <time>1970-01-01T04:15:04.000Z</time>
      </trkpt>
      <trkpt lat="42.324867" lon="-8.804275">
        <ele>86</ele>
        <time>1970-01-01T04:15:05.000Z</time>
      </trkpt>
      <trkpt lat="42.324875" lon="-8.804279">
        <ele>85.8</ele>
        <time>1970-01-01T04:15:06.000Z</time>
      </trkpt>
      <trkpt lat="42.324883" lon="-8.804288">
        <ele>85.8</ele>
        <time>1970-01-01T04:15:07.000Z</time>
      </trkpt>
      <trkpt lat="42.324891" lon="-8.804298">
        <ele>85.8</ele>
        <time>1970-01-01T04:15:08.000Z</time>
      </trkpt>
      <trkpt lat="42.324902" lon="-8.804306">
        <ele>85.6</ele>
        <time>1970-01-01T04:15:09.000Z</time>
      </trkpt>
      <trkpt lat="42.324916" lon="-8.804314">
        <ele>85.6</ele>
        <time>1970-01-01T04:15:10.000Z</time>
      </trkpt>
      <trkpt lat="42.32493" lon="-8.80432">
        <ele>85.6</ele>
        <time>1970-01-01T04:15:11.000Z</time>
      </trkpt>
      <trkpt lat="42.324943" lon="-8.804326">
        <ele>85.4</ele>
        <time>1970-01-01T04:15:12.000Z</time>
      </trkpt>
      <trkpt lat="42.324954" lon="-8.804335">
        <ele>85.4</ele>
        <time>1970-01-01T04:15:13.000Z</time>
      </trkpt>
      <trkpt lat="42.324967" lon="-8.804345">
        <ele>85.4</ele>
        <time>1970-01-01T04:15:14.000Z</time>
      </trkpt>
      <trkpt lat="42.324982" lon="-8.804358">
        <ele>85.4</ele>
        <time>1970-01-01T04:15:15.000Z</time>
      </trkpt>
      <trkpt lat="42.324999" lon="-8.804371">
        <ele>85.4</ele>
        <time>1970-01-01T04:15:16.000Z</time>
      </trkpt>
      <trkpt lat="42.325012" lon="-8.80439">
        <ele>85.4</ele>
        <time>1970-01-01T04:15:17.000Z</time>
      </trkpt>
      <trkpt lat="42.325026" lon="-8.804404">
        <ele>85.8</ele>
        <time>1970-01-01T04:15:18.000Z</time>
      </trkpt>
      <trkpt lat="42.325037" lon="-8.804416">
        <ele>86</ele>
        <time>1970-01-01T04:15:19.000Z</time>
      </trkpt>
      <trkpt lat="42.325048" lon="-8.804427">
        <ele>85.8</ele>
        <time>1970-01-01T04:15:20.000Z</time>
      </trkpt>
      <trkpt lat="42.325057" lon="-8.804438">
        <ele>85.6</ele>
        <time>1970-01-01T04:15:21.000Z</time>
      </trkpt>
      <trkpt lat="42.325068" lon="-8.804448">
        <ele>85.6</ele>
        <time>1970-01-01T04:15:22.000Z</time>
      </trkpt>
      <trkpt lat="42.32508" lon="-8.804461">
        <ele>85.6</ele>
        <time>1970-01-01T04:15:23.000Z</time>
      </trkpt>
      <trkpt lat="42.325096" lon="-8.804472">
        <ele>85.6</ele>
        <time>1970-01-01T04:15:24.000Z</time>
      </trkpt>
      <trkpt lat="42.325109" lon="-8.804485">
        <ele>85.6</ele>
        <time>1970-01-01T04:15:25.000Z</time>
      </trkpt>
      <trkpt lat="42.325122" lon="-8.804495">
        <ele>85.6</ele>
        <time>1970-01-01T04:15:26.000Z</time>
      </trkpt>
      <trkpt lat="42.325136" lon="-8.804506">
        <ele>85.6</ele>
        <time>1970-01-01T04:15:27.000Z</time>
      </trkpt>
      <trkpt lat="42.32515" lon="-8.804513">
        <ele>85.6</ele>
        <time>1970-01-01T04:15:28.000Z</time>
      </trkpt>
      <trkpt lat="42.325163" lon="-8.80452">
        <ele>85.6</ele>
        <time>1970-01-01T04:15:29.000Z</time>
      </trkpt>
      <trkpt lat="42.325171" lon="-8.804529">
        <ele>85.6</ele>
        <time>1970-01-01T04:15:30.000Z</time>
      </trkpt>
      <trkpt lat="42.325181" lon="-8.804543">
        <ele>85.6</ele>
        <time>1970-01-01T04:15:31.000Z</time>
      </trkpt>
      <trkpt lat="42.325194" lon="-8.804561">
        <ele>85.6</ele>
        <time>1970-01-01T04:15:32.000Z</time>
      </trkpt>
      <trkpt lat="42.325207" lon="-8.804573">
        <ele>85.6</ele>
        <time>1970-01-01T04:15:33.000Z</time>
      </trkpt>
      <trkpt lat="42.325218" lon="-8.804585">
        <ele>85.6</ele>
        <time>1970-01-01T04:15:34.000Z</time>
      </trkpt>
      <trkpt lat="42.325228" lon="-8.804598">
        <ele>85.6</ele>
        <time>1970-01-01T04:15:35.000Z</time>
      </trkpt>
      <trkpt lat="42.325239" lon="-8.804608">
        <ele>85.6</ele>
        <time>1970-01-01T04:15:36.000Z</time>
      </trkpt>
      <trkpt lat="42.325254" lon="-8.804613">
        <ele>85.6</ele>
        <time>1970-01-01T04:15:37.000Z</time>
      </trkpt>
      <trkpt lat="42.325271" lon="-8.804618">
        <ele>85.6</ele>
        <time>1970-01-01T04:15:38.000Z</time>
      </trkpt>
      <trkpt lat="42.325288" lon="-8.804616">
        <ele>85.4</ele>
        <time>1970-01-01T04:15:39.000Z</time>
      </trkpt>
      <trkpt lat="42.325303" lon="-8.804602">
        <ele>85.2</ele>
        <time>1970-01-01T04:15:40.000Z</time>
      </trkpt>
      <trkpt lat="42.325316" lon="-8.804578">
        <ele>84.8</ele>
        <time>1970-01-01T04:15:41.000Z</time>
      </trkpt>
      <trkpt lat="42.32533" lon="-8.804559">
        <ele>84.8</ele>
        <time>1970-01-01T04:15:42.000Z</time>
      </trkpt>
      <trkpt lat="42.325342" lon="-8.804539">
        <ele>84.8</ele>
        <time>1970-01-01T04:15:43.000Z</time>
      </trkpt>
      <trkpt lat="42.325355" lon="-8.804519">
        <ele>84.8</ele>
        <time>1970-01-01T04:15:44.000Z</time>
      </trkpt>
      <trkpt lat="42.325365" lon="-8.804504">
        <ele>84.6</ele>
        <time>1970-01-01T04:15:45.000Z</time>
      </trkpt>
      <trkpt lat="42.325374" lon="-8.804492">
        <ele>84.4</ele>
        <time>1970-01-01T04:15:46.000Z</time>
      </trkpt>
      <trkpt lat="42.325378" lon="-8.804476">
        <ele>84.8</ele>
        <time>1970-01-01T04:15:47.000Z</time>
      </trkpt>
      <trkpt lat="42.325381" lon="-8.804456">
        <ele>85</ele>
        <time>1970-01-01T04:15:48.000Z</time>
      </trkpt>
      <trkpt lat="42.325383" lon="-8.804428">
        <ele>85.2</ele>
        <time>1970-01-01T04:15:49.000Z</time>
      </trkpt>
      <trkpt lat="42.325381" lon="-8.804398">
        <ele>85.4</ele>
        <time>1970-01-01T04:15:50.000Z</time>
      </trkpt>
      <trkpt lat="42.325379" lon="-8.804374">
        <ele>85.8</ele>
        <time>1970-01-01T04:15:51.000Z</time>
      </trkpt>
      <trkpt lat="42.325374" lon="-8.804346">
        <ele>86</ele>
        <time>1970-01-01T04:15:52.000Z</time>
      </trkpt>
      <trkpt lat="42.325376" lon="-8.804327">
        <ele>86.2</ele>
        <time>1970-01-01T04:15:53.000Z</time>
      </trkpt>
      <trkpt lat="42.325378" lon="-8.804311">
        <ele>86.2</ele>
        <time>1970-01-01T04:15:54.000Z</time>
      </trkpt>
      <trkpt lat="42.325378" lon="-8.804292">
        <ele>86.2</ele>
        <time>1970-01-01T04:15:55.000Z</time>
      </trkpt>
      <trkpt lat="42.325379" lon="-8.804273">
        <ele>86.2</ele>
        <time>1970-01-01T04:15:56.000Z</time>
      </trkpt>
      <trkpt lat="42.325378" lon="-8.804254">
        <ele>86</ele>
        <time>1970-01-01T04:15:57.000Z</time>
      </trkpt>
      <trkpt lat="42.325373" lon="-8.804229">
        <ele>85.8</ele>
        <time>1970-01-01T04:15:58.000Z</time>
      </trkpt>
      <trkpt lat="42.325368" lon="-8.804208">
        <ele>85.8</ele>
        <time>1970-01-01T04:15:59.000Z</time>
      </trkpt>
      <trkpt lat="42.325362" lon="-8.804182">
        <ele>85.8</ele>
        <time>1970-01-01T04:16:00.000Z</time>
      </trkpt>
      <trkpt lat="42.325352" lon="-8.804151">
        <ele>85.8</ele>
        <time>1970-01-01T04:16:01.000Z</time>
      </trkpt>
      <trkpt lat="42.325345" lon="-8.804128">
        <ele>85.8</ele>
        <time>1970-01-01T04:16:02.000Z</time>
      </trkpt>
      <trkpt lat="42.325341" lon="-8.804113">
        <ele>86.2</ele>
        <time>1970-01-01T04:16:03.000Z</time>
      </trkpt>
      <trkpt lat="42.325338" lon="-8.804101">
        <ele>86.4</ele>
        <time>1970-01-01T04:16:04.000Z</time>
      </trkpt>
      <trkpt lat="42.325336" lon="-8.804086">
        <ele>86.6</ele>
        <time>1970-01-01T04:16:05.000Z</time>
      </trkpt>
      <trkpt lat="42.325334" lon="-8.804068">
        <ele>86.6</ele>
        <time>1970-01-01T04:16:06.000Z</time>
      </trkpt>
      <trkpt lat="42.32533" lon="-8.804047">
        <ele>86.8</ele>
        <time>1970-01-01T04:16:07.000Z</time>
      </trkpt>
      <trkpt lat="42.325328" lon="-8.804026">
        <ele>86.8</ele>
        <time>1970-01-01T04:16:08.000Z</time>
      </trkpt>
      <trkpt lat="42.325326" lon="-8.804006">
        <ele>86.8</ele>
        <time>1970-01-01T04:16:09.000Z</time>
      </trkpt>
      <trkpt lat="42.325324" lon="-8.80399">
        <ele>86.8</ele>
        <time>1970-01-01T04:16:10.000Z</time>
      </trkpt>
      <trkpt lat="42.325322" lon="-8.803973">
        <ele>86.8</ele>
        <time>1970-01-01T04:16:11.000Z</time>
      </trkpt>
      <trkpt lat="42.325309" lon="-8.803969">
        <ele>86.8</ele>
        <time>1970-01-01T04:16:12.000Z</time>
      </trkpt>
    </trkseg>
  </trk>
</gpx>
